<?xml version="1.0" encoding="UTF-8"?>
<gpx version="1.1" creator="https://www.youtrack.es" xsi:schemaLocation="http://www.topografix.com/GPX/1/1 http://www.topografix.com/GPX/1/1/gpx.xsd http://www.garmin.com/xmlschemas/GpxExtensions/v3 http://www.garmin.com/xmlschemas/GpxExtensionsv3.xsd http://www.garmin.com/xmlschemas/TrackPointExtension/v1 http://www.garmin.com/xmlschemas/TrackPointExtensionv1.xsd" xmlns:gpxtpx="http://www.garmin.com/xmlschemas/TrackPointExtension/v1" xmlns:gpxx="http://www.garmin.com/xmlschemas/GpxExtensions/v3" xmlns:xsi="http://www.w3.org/2001/XMLSchema-instance">
  <metadata>
    <link href="https://www.youtrack.es">
      <text>YouTrack.es</text>
    </link>
    <time>2026-05-09T00:10:30Z</time>
  </metadata>
  <trk>
    <src>https://www.youtrack.es</src>
    <link href="https://www.youtrack.es/ruta/23038-cartagena-lorca">
      <text>YouTrack.es</text>
    </link>
    <trkseg>
      <trkpt lat="37.668416" lon="-0.955607">
        <ele>27.449</ele>
        <time>2021-06-11T09:09:44Z</time>
      </trkpt>
      <trkpt lat="37.668321" lon="-0.954728">
        <ele>27.002</ele>
        <time>2021-06-11T09:10:51Z</time>
      </trkpt>
      <trkpt lat="37.669271" lon="-0.954850">
        <ele>28.222</ele>
        <time>2021-06-11T09:11:08Z</time>
      </trkpt>
      <trkpt lat="37.669600" lon="-0.955219">
        <ele>27.708</ele>
        <time>2021-06-11T09:11:14Z</time>
      </trkpt>
      <trkpt lat="37.670219" lon="-0.959021">
        <ele>31.751</ele>
        <time>2021-06-11T09:12:24Z</time>
      </trkpt>
      <trkpt lat="37.670303" lon="-0.961890">
        <ele>34.079</ele>
        <time>2021-06-11T09:12:42Z</time>
      </trkpt>
      <trkpt lat="37.671360" lon="-0.966408">
        <ele>34.499</ele>
        <time>2021-06-11T09:13:16Z</time>
      </trkpt>
      <trkpt lat="37.671593" lon="-0.970700">
        <ele>36.754</ele>
        <time>2021-06-11T09:13:45Z</time>
      </trkpt>
      <trkpt lat="37.672658" lon="-0.973189">
        <ele>37.558</ele>
        <time>2021-06-11T09:14:02Z</time>
      </trkpt>
      <trkpt lat="37.672737" lon="-0.974364">
        <ele>35.138</ele>
        <time>2021-06-11T09:14:14Z</time>
      </trkpt>
      <trkpt lat="37.671841" lon="-0.975263">
        <ele>36.919</ele>
        <time>2021-06-11T09:14:32Z</time>
      </trkpt>
      <trkpt lat="37.667224" lon="-0.978854">
        <ele>39.284</ele>
        <time>2021-06-11T09:15:09Z</time>
      </trkpt>
      <trkpt lat="37.665185" lon="-0.980841">
        <ele>40.092</ele>
        <time>2021-06-11T09:15:24Z</time>
      </trkpt>
      <trkpt lat="37.664305" lon="-0.981459">
        <ele>40.373</ele>
        <time>2021-06-11T09:15:30Z</time>
      </trkpt>
      <trkpt lat="37.662980" lon="-0.982061">
        <ele>37.720</ele>
        <time>2021-06-11T09:15:40Z</time>
      </trkpt>
      <trkpt lat="37.662726" lon="-0.982346">
        <ele>36.308</ele>
        <time>2021-06-11T09:15:44Z</time>
      </trkpt>
      <trkpt lat="37.663234" lon="-0.984037">
        <ele>35.796</ele>
        <time>2021-06-11T09:16:02Z</time>
      </trkpt>
      <trkpt lat="37.663055" lon="-0.985967">
        <ele>40.464</ele>
        <time>2021-06-11T09:16:17Z</time>
      </trkpt>
      <trkpt lat="37.663341" lon="-0.988077">
        <ele>38.684</ele>
        <time>2021-06-11T09:16:36Z</time>
      </trkpt>
      <trkpt lat="37.663148" lon="-0.990500">
        <ele>38.719</ele>
        <time>2021-06-11T09:16:56Z</time>
      </trkpt>
      <trkpt lat="37.663560" lon="-0.993193">
        <ele>40.073</ele>
        <time>2021-06-11T09:17:17Z</time>
      </trkpt>
      <trkpt lat="37.663602" lon="-0.996048">
        <ele>42.613</ele>
        <time>2021-06-11T09:17:38Z</time>
      </trkpt>
      <trkpt lat="37.665235" lon="-1.002851">
        <ele>45.264</ele>
        <time>2021-06-11T09:18:26Z</time>
      </trkpt>
      <trkpt lat="37.665269" lon="-1.004677">
        <ele>45.359</ele>
        <time>2021-06-11T09:18:37Z</time>
      </trkpt>
      <trkpt lat="37.664892" lon="-1.005674">
        <ele>44.212</ele>
        <time>2021-06-11T09:18:45Z</time>
      </trkpt>
      <trkpt lat="37.664506" lon="-1.007668">
        <ele>43.632</ele>
        <time>2021-06-11T09:19:01Z</time>
      </trkpt>
      <trkpt lat="37.664940" lon="-1.010448">
        <ele>42.505</ele>
        <time>2021-06-11T09:19:20Z</time>
      </trkpt>
      <trkpt lat="37.665104" lon="-1.012839">
        <ele>45.308</ele>
        <time>2021-06-11T09:19:36Z</time>
      </trkpt>
      <trkpt lat="37.665644" lon="-1.014738">
        <ele>44.328</ele>
        <time>2021-06-11T09:20:10Z</time>
      </trkpt>
      <trkpt lat="37.669501" lon="-1.016053">
        <ele>49.076</ele>
        <time>2021-06-11T09:20:45Z</time>
      </trkpt>
      <trkpt lat="37.670920" lon="-1.016690">
        <ele>52.856</ele>
        <time>2021-06-11T09:20:55Z</time>
      </trkpt>
      <trkpt lat="37.678397" lon="-1.021348">
        <ele>53.851</ele>
        <time>2021-06-11T09:21:53Z</time>
      </trkpt>
      <trkpt lat="37.686293" lon="-1.026806">
        <ele>55.795</ele>
        <time>2021-06-11T09:24:09Z</time>
      </trkpt>
      <trkpt lat="37.686410" lon="-1.026988">
        <ele>54.255</ele>
        <time>2021-06-11T09:24:13Z</time>
      </trkpt>
      <trkpt lat="37.685529" lon="-1.026334">
        <ele>54.946</ele>
        <time>2021-06-11T09:24:29Z</time>
      </trkpt>
      <trkpt lat="37.685345" lon="-1.026422">
        <ele>54.261</ele>
        <time>2021-06-11T09:24:32Z</time>
      </trkpt>
      <trkpt lat="37.685790" lon="-1.029908">
        <ele>55.542</ele>
        <time>2021-06-11T09:25:00Z</time>
      </trkpt>
      <trkpt lat="37.686914" lon="-1.029700">
        <ele>57.022</ele>
        <time>2021-06-11T09:25:13Z</time>
      </trkpt>
      <trkpt lat="37.687335" lon="-1.030031">
        <ele>56.614</ele>
        <time>2021-06-11T09:25:19Z</time>
      </trkpt>
      <trkpt lat="37.688169" lon="-1.030063">
        <ele>56.008</ele>
        <time>2021-06-11T09:25:32Z</time>
      </trkpt>
      <trkpt lat="37.688898" lon="-1.030750">
        <ele>56.641</ele>
        <time>2021-06-11T09:25:46Z</time>
      </trkpt>
      <trkpt lat="37.688833" lon="-1.030140">
        <ele>57.679</ele>
        <time>2021-06-11T09:25:54Z</time>
      </trkpt>
      <trkpt lat="37.688514" lon="-1.029878">
        <ele>57.719</ele>
        <time>2021-06-11T09:25:59Z</time>
      </trkpt>
      <trkpt lat="37.688241" lon="-1.029852">
        <ele>57.774</ele>
        <time>2021-06-11T09:26:02Z</time>
      </trkpt>
      <trkpt lat="37.688024" lon="-1.030041">
        <ele>58.398</ele>
        <time>2021-06-11T09:26:05Z</time>
      </trkpt>
      <trkpt lat="37.687936" lon="-1.030403">
        <ele>59.928</ele>
        <time>2021-06-11T09:26:08Z</time>
      </trkpt>
      <trkpt lat="37.687924" lon="-1.034196">
        <ele>62.459</ele>
        <time>2021-06-11T09:26:29Z</time>
      </trkpt>
      <trkpt lat="37.688294" lon="-1.037003">
        <ele>65.584</ele>
        <time>2021-06-11T09:26:42Z</time>
      </trkpt>
      <trkpt lat="37.688954" lon="-1.039479">
        <ele>66.214</ele>
        <time>2021-06-11T09:26:54Z</time>
      </trkpt>
      <trkpt lat="37.693953" lon="-1.053894">
        <ele>74.654</ele>
        <time>2021-06-11T09:28:02Z</time>
      </trkpt>
      <trkpt lat="37.694609" lon="-1.056759">
        <ele>75.709</ele>
        <time>2021-06-11T09:28:15Z</time>
      </trkpt>
      <trkpt lat="37.696197" lon="-1.066260">
        <ele>76.408</ele>
        <time>2021-06-11T09:28:59Z</time>
      </trkpt>
      <trkpt lat="37.696614" lon="-1.066979">
        <ele>74.778</ele>
        <time>2021-06-11T09:29:06Z</time>
      </trkpt>
      <trkpt lat="37.696491" lon="-1.067778">
        <ele>74.996</ele>
        <time>2021-06-11T09:29:12Z</time>
      </trkpt>
      <trkpt lat="37.696614" lon="-1.068563">
        <ele>76.236</ele>
        <time>2021-06-11T09:29:17Z</time>
      </trkpt>
      <trkpt lat="37.697224" lon="-1.071097">
        <ele>79.411</ele>
        <time>2021-06-11T09:29:31Z</time>
      </trkpt>
      <trkpt lat="37.697968" lon="-1.073201">
        <ele>82.055</ele>
        <time>2021-06-11T09:29:42Z</time>
      </trkpt>
      <trkpt lat="37.699521" lon="-1.076124">
        <ele>84.985</ele>
        <time>2021-06-11T09:29:58Z</time>
      </trkpt>
      <trkpt lat="37.701239" lon="-1.078303">
        <ele>86.236</ele>
        <time>2021-06-11T09:30:12Z</time>
      </trkpt>
      <trkpt lat="37.704036" lon="-1.080642">
        <ele>88.111</ele>
        <time>2021-06-11T09:30:32Z</time>
      </trkpt>
      <trkpt lat="37.710359" lon="-1.084744">
        <ele>87.372</ele>
        <time>2021-06-11T09:31:13Z</time>
      </trkpt>
      <trkpt lat="37.711280" lon="-1.085626">
        <ele>88.213</ele>
        <time>2021-06-11T09:31:20Z</time>
      </trkpt>
      <trkpt lat="37.712317" lon="-1.086964">
        <ele>91.114</ele>
        <time>2021-06-11T09:31:29Z</time>
      </trkpt>
      <trkpt lat="37.713155" lon="-1.088550">
        <ele>93.308</ele>
        <time>2021-06-11T09:31:38Z</time>
      </trkpt>
      <trkpt lat="37.715697" lon="-1.095122">
        <ele>98.734</ele>
        <time>2021-06-11T09:32:11Z</time>
      </trkpt>
      <trkpt lat="37.721952" lon="-1.109445">
        <ele>102.342</ele>
        <time>2021-06-11T09:33:23Z</time>
      </trkpt>
      <trkpt lat="37.722889" lon="-1.115507">
        <ele>112.992</ele>
        <time>2021-06-11T09:33:55Z</time>
      </trkpt>
      <trkpt lat="37.723209" lon="-1.116172">
        <ele>112.757</ele>
        <time>2021-06-11T09:34:02Z</time>
      </trkpt>
      <trkpt lat="37.722806" lon="-1.117035">
        <ele>114.111</ele>
        <time>2021-06-11T09:34:10Z</time>
      </trkpt>
      <trkpt lat="37.721873" lon="-1.138072">
        <ele>124.711</ele>
        <time>2021-06-11T09:35:44Z</time>
      </trkpt>
      <trkpt lat="37.722633" lon="-1.147143">
        <ele>127.522</ele>
        <time>2021-06-11T09:36:22Z</time>
      </trkpt>
      <trkpt lat="37.722822" lon="-1.151886">
        <ele>125.177</ele>
        <time>2021-06-11T09:36:43Z</time>
      </trkpt>
      <trkpt lat="37.723023" lon="-1.152521">
        <ele>124.318</ele>
        <time>2021-06-11T09:36:47Z</time>
      </trkpt>
      <trkpt lat="37.723590" lon="-1.153074">
        <ele>121.998</ele>
        <time>2021-06-11T09:36:55Z</time>
      </trkpt>
      <trkpt lat="37.723898" lon="-1.153719">
        <ele>121.917</ele>
        <time>2021-06-11T09:37:02Z</time>
      </trkpt>
      <trkpt lat="37.726309" lon="-1.155097">
        <ele>129.008</ele>
        <time>2021-06-11T09:37:21Z</time>
      </trkpt>
      <trkpt lat="37.727028" lon="-1.155853">
        <ele>127.278</ele>
        <time>2021-06-11T09:37:27Z</time>
      </trkpt>
      <trkpt lat="37.731442" lon="-1.163924">
        <ele>125.686</ele>
        <time>2021-06-11T09:38:23Z</time>
      </trkpt>
      <trkpt lat="37.731980" lon="-1.164363">
        <ele>124.946</ele>
        <time>2021-06-11T09:38:30Z</time>
      </trkpt>
      <trkpt lat="37.732245" lon="-1.166091">
        <ele>127.231</ele>
        <time>2021-06-11T09:38:43Z</time>
      </trkpt>
      <trkpt lat="37.732159" lon="-1.167281">
        <ele>129.735</ele>
        <time>2021-06-11T09:38:50Z</time>
      </trkpt>
      <trkpt lat="37.729983" lon="-1.177496">
        <ele>135.475</ele>
        <time>2021-06-11T09:39:39Z</time>
      </trkpt>
      <trkpt lat="37.726621" lon="-1.189511">
        <ele>136.856</ele>
        <time>2021-06-11T09:40:36Z</time>
      </trkpt>
      <trkpt lat="37.726415" lon="-1.190792">
        <ele>136.951</ele>
        <time>2021-06-11T09:40:42Z</time>
      </trkpt>
      <trkpt lat="37.733317" lon="-1.238701">
        <ele>151.535</ele>
        <time>2021-06-11T09:44:43Z</time>
      </trkpt>
      <trkpt lat="37.734871" lon="-1.243050">
        <ele>155.886</ele>
        <time>2021-06-11T09:45:20Z</time>
      </trkpt>
      <trkpt lat="37.735711" lon="-1.244824">
        <ele>154.314</ele>
        <time>2021-06-11T09:46:03Z</time>
      </trkpt>
      <trkpt lat="37.736437" lon="-1.245696">
        <ele>156.608</ele>
        <time>2021-06-11T09:46:14Z</time>
      </trkpt>
      <trkpt lat="37.737377" lon="-1.247347">
        <ele>159.390</ele>
        <time>2021-06-11T09:46:28Z</time>
      </trkpt>
      <trkpt lat="37.737807" lon="-1.249207">
        <ele>160.488</ele>
        <time>2021-06-11T09:46:40Z</time>
      </trkpt>
      <trkpt lat="37.745989" lon="-1.271644">
        <ele>178.398</ele>
        <time>2021-06-11T09:48:40Z</time>
      </trkpt>
      <trkpt lat="37.745864" lon="-1.271584">
        <ele>177.713</ele>
        <time>2021-06-11T09:48:44Z</time>
      </trkpt>
      <trkpt lat="37.744991" lon="-1.269340">
        <ele>178.457</ele>
        <time>2021-06-11T09:49:04Z</time>
      </trkpt>
      <trkpt lat="37.743691" lon="-1.269450">
        <ele>176.987</ele>
        <time>2021-06-11T09:49:17Z</time>
      </trkpt>
      <trkpt lat="37.742768" lon="-1.269828">
        <ele>176.198</ele>
        <time>2021-06-11T09:49:25Z</time>
      </trkpt>
      <trkpt lat="37.740745" lon="-1.269437">
        <ele>174.183</ele>
        <time>2021-06-11T09:49:40Z</time>
      </trkpt>
      <trkpt lat="37.740311" lon="-1.269466">
        <ele>173.765</ele>
        <time>2021-06-11T09:49:43Z</time>
      </trkpt>
      <trkpt lat="37.739593" lon="-1.269732">
        <ele>172.168</ele>
        <time>2021-06-11T09:49:48Z</time>
      </trkpt>
      <trkpt lat="37.738689" lon="-1.270388">
        <ele>171.014</ele>
        <time>2021-06-11T09:49:55Z</time>
      </trkpt>
      <trkpt lat="37.736610" lon="-1.274007">
        <ele>173.508</ele>
        <time>2021-06-11T09:50:17Z</time>
      </trkpt>
      <trkpt lat="37.735315" lon="-1.276936">
        <ele>168.993</ele>
        <time>2021-06-11T09:50:39Z</time>
      </trkpt>
      <trkpt lat="37.734168" lon="-1.281511">
        <ele>172.261</ele>
        <time>2021-06-11T09:51:40Z</time>
      </trkpt>
      <trkpt lat="37.733190" lon="-1.283300">
        <ele>172.861</ele>
        <time>2021-06-11T09:51:54Z</time>
      </trkpt>
      <trkpt lat="37.732450" lon="-1.287969">
        <ele>175.986</ele>
        <time>2021-06-11T09:52:19Z</time>
      </trkpt>
      <trkpt lat="37.732355" lon="-1.294897">
        <ele>179.760</ele>
        <time>2021-06-11T09:52:52Z</time>
      </trkpt>
      <trkpt lat="37.732078" lon="-1.297184">
        <ele>181.580</ele>
        <time>2021-06-11T09:53:03Z</time>
      </trkpt>
      <trkpt lat="37.730521" lon="-1.301887">
        <ele>186.191</ele>
        <time>2021-06-11T09:53:26Z</time>
      </trkpt>
      <trkpt lat="37.729729" lon="-1.303354">
        <ele>186.086</ele>
        <time>2021-06-11T09:53:34Z</time>
      </trkpt>
      <trkpt lat="37.727884" lon="-1.305385">
        <ele>188.285</ele>
        <time>2021-06-11T09:53:48Z</time>
      </trkpt>
      <trkpt lat="37.726239" lon="-1.308434">
        <ele>189.789</ele>
        <time>2021-06-11T09:54:05Z</time>
      </trkpt>
      <trkpt lat="37.725897" lon="-1.308653">
        <ele>188.117</ele>
        <time>2021-06-11T09:54:08Z</time>
      </trkpt>
      <trkpt lat="37.724876" lon="-1.308845">
        <ele>187.408</ele>
        <time>2021-06-11T09:54:16Z</time>
      </trkpt>
      <trkpt lat="37.724122" lon="-1.310255">
        <ele>189.215</ele>
        <time>2021-06-11T09:54:26Z</time>
      </trkpt>
      <trkpt lat="37.722028" lon="-1.312930">
        <ele>193.873</ele>
        <time>2021-06-11T09:54:44Z</time>
      </trkpt>
      <trkpt lat="37.720088" lon="-1.316806">
        <ele>195.723</ele>
        <time>2021-06-11T09:55:05Z</time>
      </trkpt>
      <trkpt lat="37.718939" lon="-1.320315">
        <ele>199.188</ele>
        <time>2021-06-11T09:55:22Z</time>
      </trkpt>
      <trkpt lat="37.718648" lon="-1.320856">
        <ele>199.542</ele>
        <time>2021-06-11T09:55:25Z</time>
      </trkpt>
      <trkpt lat="37.716688" lon="-1.322818">
        <ele>203.732</ele>
        <time>2021-06-11T09:55:39Z</time>
      </trkpt>
      <trkpt lat="37.713261" lon="-1.325748">
        <ele>208.543</ele>
        <time>2021-06-11T09:56:02Z</time>
      </trkpt>
      <trkpt lat="37.712940" lon="-1.326176">
        <ele>208.078</ele>
        <time>2021-06-11T09:56:05Z</time>
      </trkpt>
      <trkpt lat="37.711969" lon="-1.330039">
        <ele>206.265</ele>
        <time>2021-06-11T09:56:24Z</time>
      </trkpt>
      <trkpt lat="37.709565" lon="-1.335925">
        <ele>197.668</ele>
        <time>2021-06-11T09:56:52Z</time>
      </trkpt>
      <trkpt lat="37.709321" lon="-1.339091">
        <ele>194.114</ele>
        <time>2021-06-11T09:57:08Z</time>
      </trkpt>
      <trkpt lat="37.708434" lon="-1.340968">
        <ele>189.208</ele>
        <time>2021-06-11T09:57:21Z</time>
      </trkpt>
      <trkpt lat="37.708958" lon="-1.346124">
        <ele>189.243</ele>
        <time>2021-06-11T09:57:48Z</time>
      </trkpt>
      <trkpt lat="37.708292" lon="-1.348007">
        <ele>187.921</ele>
        <time>2021-06-11T09:57:58Z</time>
      </trkpt>
      <trkpt lat="37.707998" lon="-1.349464">
        <ele>189.061</ele>
        <time>2021-06-11T09:58:05Z</time>
      </trkpt>
      <trkpt lat="37.707452" lon="-1.351151">
        <ele>186.656</ele>
        <time>2021-06-11T09:58:15Z</time>
      </trkpt>
      <trkpt lat="37.707493" lon="-1.352227">
        <ele>184.280</ele>
        <time>2021-06-11T09:58:22Z</time>
      </trkpt>
      <trkpt lat="37.707687" lon="-1.352749">
        <ele>181.660</ele>
        <time>2021-06-11T09:58:27Z</time>
      </trkpt>
      <trkpt lat="37.707508" lon="-1.353247">
        <ele>179.531</ele>
        <time>2021-06-11T09:58:32Z</time>
      </trkpt>
      <trkpt lat="37.707674" lon="-1.355355">
        <ele>175.126</ele>
        <time>2021-06-11T09:58:50Z</time>
      </trkpt>
      <trkpt lat="37.707776" lon="-1.355523">
        <ele>174.787</ele>
        <time>2021-06-11T09:58:52Z</time>
      </trkpt>
      <trkpt lat="37.708326" lon="-1.355750">
        <ele>175.142</ele>
        <time>2021-06-11T09:58:58Z</time>
      </trkpt>
      <trkpt lat="37.708955" lon="-1.356817">
        <ele>177.026</ele>
        <time>2021-06-11T09:59:07Z</time>
      </trkpt>
      <trkpt lat="37.709871" lon="-1.362049">
        <ele>174.908</ele>
        <time>2021-06-11T09:59:33Z</time>
      </trkpt>
      <trkpt lat="37.712297" lon="-1.368571">
        <ele>180.915</ele>
        <time>2021-06-11T10:00:08Z</time>
      </trkpt>
      <trkpt lat="37.711942" lon="-1.372856">
        <ele>185.253</ele>
        <time>2021-06-11T10:00:29Z</time>
      </trkpt>
      <trkpt lat="37.710329" lon="-1.380950">
        <ele>181.893</ele>
        <time>2021-06-11T10:01:07Z</time>
      </trkpt>
      <trkpt lat="37.710248" lon="-1.385099">
        <ele>177.378</ele>
        <time>2021-06-11T10:01:26Z</time>
      </trkpt>
      <trkpt lat="37.710993" lon="-1.387812">
        <ele>183.352</ele>
        <time>2021-06-11T10:01:40Z</time>
      </trkpt>
      <trkpt lat="37.710767" lon="-1.389491">
        <ele>185.972</ele>
        <time>2021-06-11T10:01:49Z</time>
      </trkpt>
      <trkpt lat="37.710880" lon="-1.391550">
        <ele>189.933</ele>
        <time>2021-06-11T10:02:08Z</time>
      </trkpt>
      <trkpt lat="37.710676" lon="-1.393026">
        <ele>196.778</ele>
        <time>2021-06-11T10:02:21Z</time>
      </trkpt>
      <trkpt lat="37.710699" lon="-1.394702">
        <ele>204.612</ele>
        <time>2021-06-11T10:02:34Z</time>
      </trkpt>
      <trkpt lat="37.711073" lon="-1.395829">
        <ele>210.732</ele>
        <time>2021-06-11T10:02:43Z</time>
      </trkpt>
      <trkpt lat="37.711635" lon="-1.399876">
        <ele>213.605</ele>
        <time>2021-06-11T10:03:07Z</time>
      </trkpt>
      <trkpt lat="37.713071" lon="-1.402072">
        <ele>214.008</ele>
        <time>2021-06-11T10:03:22Z</time>
      </trkpt>
      <trkpt lat="37.716580" lon="-1.409970">
        <ele>214.798</ele>
        <time>2021-06-11T10:04:41Z</time>
      </trkpt>
      <trkpt lat="37.717340" lon="-1.412281">
        <ele>212.476</ele>
        <time>2021-06-11T10:04:55Z</time>
      </trkpt>
      <trkpt lat="37.717592" lon="-1.413463">
        <ele>207.996</ele>
        <time>2021-06-11T10:05:02Z</time>
      </trkpt>
      <trkpt lat="37.718556" lon="-1.421321">
        <ele>194.391</ele>
        <time>2021-06-11T10:05:45Z</time>
      </trkpt>
      <trkpt lat="37.718884" lon="-1.421683">
        <ele>189.415</ele>
        <time>2021-06-11T10:06:08Z</time>
      </trkpt>
      <trkpt lat="37.718764" lon="-1.421769">
        <ele>189.435</ele>
        <time>2021-06-11T10:06:11Z</time>
      </trkpt>
      <trkpt lat="37.714267" lon="-1.420672">
        <ele>202.536</ele>
        <time>2021-06-11T10:06:55Z</time>
      </trkpt>
      <trkpt lat="37.714113" lon="-1.420764">
        <ele>200.961</ele>
        <time>2021-06-11T10:06:58Z</time>
      </trkpt>
      <trkpt lat="37.713806" lon="-1.422009">
        <ele>203.462</ele>
        <time>2021-06-11T10:07:08Z</time>
      </trkpt>
      <trkpt lat="37.713639" lon="-1.425561">
        <ele>206.983</ele>
        <time>2021-06-11T10:07:29Z</time>
      </trkpt>
      <trkpt lat="37.713156" lon="-1.427028">
        <ele>202.511</ele>
        <time>2021-06-11T10:07:38Z</time>
      </trkpt>
      <trkpt lat="37.713092" lon="-1.428926">
        <ele>201.008</ele>
        <time>2021-06-11T10:07:50Z</time>
      </trkpt>
      <trkpt lat="37.712469" lon="-1.431506">
        <ele>200.793</ele>
        <time>2021-06-11T10:08:06Z</time>
      </trkpt>
      <trkpt lat="37.712461" lon="-1.432592">
        <ele>202.441</ele>
        <time>2021-06-11T10:08:12Z</time>
      </trkpt>
      <trkpt lat="37.712822" lon="-1.435753">
        <ele>203.071</ele>
        <time>2021-06-11T10:08:30Z</time>
      </trkpt>
      <trkpt lat="37.712279" lon="-1.437701">
        <ele>204.536</ele>
        <time>2021-06-11T10:08:41Z</time>
      </trkpt>
      <trkpt lat="37.712072" lon="-1.439857">
        <ele>208.080</ele>
        <time>2021-06-11T10:08:51Z</time>
      </trkpt>
      <trkpt lat="37.712731" lon="-1.447444">
        <ele>215.350</ele>
        <time>2021-06-11T10:09:27Z</time>
      </trkpt>
      <trkpt lat="37.712345" lon="-1.448993">
        <ele>215.891</ele>
        <time>2021-06-11T10:09:36Z</time>
      </trkpt>
      <trkpt lat="37.711916" lon="-1.453918">
        <ele>228.686</ele>
        <time>2021-06-11T10:10:02Z</time>
      </trkpt>
      <trkpt lat="37.711299" lon="-1.456999">
        <ele>226.814</ele>
        <time>2021-06-11T10:10:17Z</time>
      </trkpt>
      <trkpt lat="37.711136" lon="-1.459002">
        <ele>227.754</ele>
        <time>2021-06-11T10:10:27Z</time>
      </trkpt>
      <trkpt lat="37.711231" lon="-1.464048">
        <ele>221.409</ele>
        <time>2021-06-11T10:10:51Z</time>
      </trkpt>
      <trkpt lat="37.711967" lon="-1.466191">
        <ele>220.308</ele>
        <time>2021-06-11T10:11:04Z</time>
      </trkpt>
      <trkpt lat="37.712233" lon="-1.469535">
        <ele>219.018</ele>
        <time>2021-06-11T10:11:21Z</time>
      </trkpt>
      <trkpt lat="37.712323" lon="-1.473195">
        <ele>219.176</ele>
        <time>2021-06-11T10:11:40Z</time>
      </trkpt>
      <trkpt lat="37.711897" lon="-1.474481">
        <ele>219.776</ele>
        <time>2021-06-11T10:11:47Z</time>
      </trkpt>
      <trkpt lat="37.709327" lon="-1.480555">
        <ele>222.411</ele>
        <time>2021-06-11T10:12:20Z</time>
      </trkpt>
      <trkpt lat="37.708153" lon="-1.482425">
        <ele>225.855</ele>
        <time>2021-06-11T10:12:32Z</time>
      </trkpt>
      <trkpt lat="37.706238" lon="-1.486124">
        <ele>229.975</ele>
        <time>2021-06-11T10:12:53Z</time>
      </trkpt>
      <trkpt lat="37.704417" lon="-1.488361">
        <ele>233.576</ele>
        <time>2021-06-11T10:13:08Z</time>
      </trkpt>
      <trkpt lat="37.702686" lon="-1.490996">
        <ele>235.531</ele>
        <time>2021-06-11T10:13:25Z</time>
      </trkpt>
      <trkpt lat="37.700457" lon="-1.498196">
        <ele>242.037</ele>
        <time>2021-06-11T10:14:06Z</time>
      </trkpt>
      <trkpt lat="37.700166" lon="-1.501295">
        <ele>240.649</ele>
        <time>2021-06-11T10:14:23Z</time>
      </trkpt>
      <trkpt lat="37.700200" lon="-1.502868">
        <ele>240.413</ele>
        <time>2021-06-11T10:14:31Z</time>
      </trkpt>
      <trkpt lat="37.699671" lon="-1.507551">
        <ele>240.308</ele>
        <time>2021-06-11T10:14:54Z</time>
      </trkpt>
      <trkpt lat="37.698951" lon="-1.510878">
        <ele>242.230</ele>
        <time>2021-06-11T10:15:12Z</time>
      </trkpt>
      <trkpt lat="37.698241" lon="-1.513354">
        <ele>244.968</ele>
        <time>2021-06-11T10:15:25Z</time>
      </trkpt>
      <trkpt lat="37.697335" lon="-1.518977">
        <ele>241.058</ele>
        <time>2021-06-11T10:15:52Z</time>
      </trkpt>
      <trkpt lat="37.697493" lon="-1.523184">
        <ele>242.063</ele>
        <time>2021-06-11T10:16:12Z</time>
      </trkpt>
      <trkpt lat="37.697245" lon="-1.533567">
        <ele>239.757</ele>
        <time>2021-06-11T10:17:10Z</time>
      </trkpt>
      <trkpt lat="37.695619" lon="-1.538415">
        <ele>245.177</ele>
        <time>2021-06-11T10:17:35Z</time>
      </trkpt>
      <trkpt lat="37.693987" lon="-1.544366">
        <ele>248.018</ele>
        <time>2021-06-11T10:18:04Z</time>
      </trkpt>
      <trkpt lat="37.694660" lon="-1.551789">
        <ele>249.583</ele>
        <time>2021-06-11T10:18:40Z</time>
      </trkpt>
      <trkpt lat="37.694667" lon="-1.553933">
        <ele>250.145</ele>
        <time>2021-06-11T10:18:51Z</time>
      </trkpt>
      <trkpt lat="37.695046" lon="-1.556867">
        <ele>248.047</ele>
        <time>2021-06-11T10:19:06Z</time>
      </trkpt>
      <trkpt lat="37.695519" lon="-1.558035">
        <ele>246.611</ele>
        <time>2021-06-11T10:19:13Z</time>
      </trkpt>
      <trkpt lat="37.695839" lon="-1.559324">
        <ele>242.008</ele>
        <time>2021-06-11T10:19:22Z</time>
      </trkpt>
      <trkpt lat="37.696223" lon="-1.560083">
        <ele>239.941</ele>
        <time>2021-06-11T10:19:30Z</time>
      </trkpt>
      <trkpt lat="37.696506" lon="-1.560287">
        <ele>239.529</ele>
        <time>2021-06-11T10:19:34Z</time>
      </trkpt>
      <trkpt lat="37.697050" lon="-1.560009">
        <ele>240.359</ele>
        <time>2021-06-11T10:19:41Z</time>
      </trkpt>
      <trkpt lat="37.697394" lon="-1.560037">
        <ele>239.054</ele>
        <time>2021-06-11T10:19:46Z</time>
      </trkpt>
      <trkpt lat="37.698413" lon="-1.561358">
        <ele>237.018</ele>
        <time>2021-06-11T10:20:00Z</time>
      </trkpt>
      <trkpt lat="37.697659" lon="-1.562952">
        <ele>239.788</ele>
        <time>2021-06-11T10:20:12Z</time>
      </trkpt>
      <trkpt lat="37.697873" lon="-1.564878">
        <ele>245.739</ele>
        <time>2021-06-11T10:20:23Z</time>
      </trkpt>
      <trkpt lat="37.697114" lon="-1.567521">
        <ele>247.564</ele>
        <time>2021-06-11T10:20:38Z</time>
      </trkpt>
      <trkpt lat="37.696749" lon="-1.570480">
        <ele>250.691</ele>
        <time>2021-06-11T10:20:53Z</time>
      </trkpt>
      <trkpt lat="37.697072" lon="-1.571763">
        <ele>250.881</ele>
        <time>2021-06-11T10:21:00Z</time>
      </trkpt>
      <trkpt lat="37.697649" lon="-1.572331">
        <ele>250.619</ele>
        <time>2021-06-11T10:21:05Z</time>
      </trkpt>
      <trkpt lat="37.697871" lon="-1.572790">
        <ele>250.208</ele>
        <time>2021-06-11T10:21:08Z</time>
      </trkpt>
      <trkpt lat="37.698223" lon="-1.574624">
        <ele>251.616</ele>
        <time>2021-06-11T10:21:18Z</time>
      </trkpt>
      <trkpt lat="37.698427" lon="-1.576838">
        <ele>252.334</ele>
        <time>2021-06-11T10:21:29Z</time>
      </trkpt>
      <trkpt lat="37.699138" lon="-1.579168">
        <ele>252.794</ele>
        <time>2021-06-11T10:21:42Z</time>
      </trkpt>
      <trkpt lat="37.699464" lon="-1.580757">
        <ele>252.779</ele>
        <time>2021-06-11T10:21:51Z</time>
      </trkpt>
      <trkpt lat="37.699503" lon="-1.583175">
        <ele>253.053</ele>
        <time>2021-06-11T10:22:04Z</time>
      </trkpt>
      <trkpt lat="37.699181" lon="-1.586330">
        <ele>255.593</ele>
        <time>2021-06-11T10:22:21Z</time>
      </trkpt>
      <trkpt lat="37.699408" lon="-1.589349">
        <ele>256.314</ele>
        <time>2021-06-11T10:22:38Z</time>
      </trkpt>
      <trkpt lat="37.699612" lon="-1.589777">
        <ele>256.849</ele>
        <time>2021-06-11T10:22:41Z</time>
      </trkpt>
      <trkpt lat="37.700675" lon="-1.590671">
        <ele>258.112</ele>
        <time>2021-06-11T10:22:51Z</time>
      </trkpt>
      <trkpt lat="37.701658" lon="-1.592910">
        <ele>256.332</ele>
        <time>2021-06-11T10:23:10Z</time>
      </trkpt>
      <trkpt lat="37.700018" lon="-1.595103">
        <ele>257.005</ele>
        <time>2021-06-11T10:24:06Z</time>
      </trkpt>
      <trkpt lat="37.699964" lon="-1.595446">
        <ele>254.908</ele>
        <time>2021-06-11T10:24:12Z</time>
      </trkpt>
      <trkpt lat="37.701641" lon="-1.597041">
        <ele>260.358</ele>
        <time>2021-06-11T10:24:34Z</time>
      </trkpt>
      <trkpt lat="37.703646" lon="-1.598043">
        <ele>273.256</ele>
        <time>2021-06-11T10:24:50Z</time>
      </trkpt>
      <trkpt lat="37.704416" lon="-1.597851">
        <ele>269.296</ele>
        <time>2021-06-11T10:24:56Z</time>
      </trkpt>
      <trkpt lat="37.705145" lon="-1.596683">
        <ele>264.611</ele>
        <time>2021-06-11T10:25:05Z</time>
      </trkpt>
      <trkpt lat="37.705588" lon="-1.596324">
        <ele>262.085</ele>
        <time>2021-06-11T10:25:11Z</time>
      </trkpt>
      <trkpt lat="37.706032" lon="-1.596565">
        <ele>261.235</ele>
        <time>2021-06-11T10:25:18Z</time>
      </trkpt>
      <trkpt lat="37.706734" lon="-1.596543">
        <ele>262.766</ele>
        <time>2021-06-11T10:25:25Z</time>
      </trkpt>
      <trkpt lat="37.708083" lon="-1.597074">
        <ele>268.051</ele>
        <time>2021-06-11T10:25:38Z</time>
      </trkpt>
      <trkpt lat="37.708929" lon="-1.597253">
        <ele>271.259</ele>
        <time>2021-06-11T10:25:47Z</time>
      </trkpt>
      <trkpt lat="37.709525" lon="-1.597497">
        <ele>270.903</ele>
        <time>2021-06-11T10:26:00Z</time>
      </trkpt>
      <trkpt lat="37.709564" lon="-1.597678">
        <ele>271.523</ele>
        <time>2021-06-11T10:26:03Z</time>
      </trkpt>
      <trkpt lat="37.708928" lon="-1.598913">
        <ele>271.808</ele>
        <time>2021-06-11T10:26:15Z</time>
      </trkpt>
      <trkpt lat="37.708849" lon="-1.599682">
        <ele>271.322</ele>
        <time>2021-06-11T10:26:21Z</time>
      </trkpt>
      <trkpt lat="37.708397" lon="-1.600086">
        <ele>271.630</ele>
        <time>2021-06-11T10:26:27Z</time>
      </trkpt>
      <trkpt lat="37.707706" lon="-1.601399">
        <ele>272.040</ele>
        <time>2021-06-11T10:26:37Z</time>
      </trkpt>
      <trkpt lat="37.703372" lon="-1.610819">
        <ele>286.215</ele>
        <time>2021-06-11T10:27:30Z</time>
      </trkpt>
      <trkpt lat="37.703106" lon="-1.612097">
        <ele>286.799</ele>
        <time>2021-06-11T10:27:36Z</time>
      </trkpt>
      <trkpt lat="37.703030" lon="-1.614631">
        <ele>282.729</ele>
        <time>2021-06-11T10:27:51Z</time>
      </trkpt>
      <trkpt lat="37.702845" lon="-1.615159">
        <ele>281.160</ele>
        <time>2021-06-11T10:27:56Z</time>
      </trkpt>
      <trkpt lat="37.702460" lon="-1.619298">
        <ele>283.355</ele>
        <time>2021-06-11T10:28:18Z</time>
      </trkpt>
      <trkpt lat="37.702087" lon="-1.620708">
        <ele>282.889</ele>
        <time>2021-06-11T10:28:28Z</time>
      </trkpt>
      <trkpt lat="37.698386" lon="-1.627004">
        <ele>284.806</ele>
        <time>2021-06-11T10:29:09Z</time>
      </trkpt>
      <trkpt lat="37.697738" lon="-1.628513">
        <ele>285.226</ele>
        <time>2021-06-11T10:29:17Z</time>
      </trkpt>
      <trkpt lat="37.697274" lon="-1.630763">
        <ele>285.308</ele>
        <time>2021-06-11T10:29:28Z</time>
      </trkpt>
      <trkpt lat="37.697032" lon="-1.635629">
        <ele>285.925</ele>
        <time>2021-06-11T10:29:52Z</time>
      </trkpt>
      <trkpt lat="37.696667" lon="-1.637349">
        <ele>283.393</ele>
        <time>2021-06-11T10:30:03Z</time>
      </trkpt>
      <trkpt lat="37.696689" lon="-1.637837">
        <ele>282.753</ele>
        <time>2021-06-11T10:30:08Z</time>
      </trkpt>
      <trkpt lat="37.696184" lon="-1.639105">
        <ele>283.168</ele>
        <time>2021-06-11T10:30:20Z</time>
      </trkpt>
      <trkpt lat="37.692973" lon="-1.651415">
        <ele>295.552</ele>
        <time>2021-06-11T10:31:28Z</time>
      </trkpt>
      <trkpt lat="37.692458" lon="-1.653944">
        <ele>292.852</ele>
        <time>2021-06-11T10:31:49Z</time>
      </trkpt>
      <trkpt lat="37.692163" lon="-1.654637">
        <ele>294.083</ele>
        <time>2021-06-11T10:31:56Z</time>
      </trkpt>
      <trkpt lat="37.691059" lon="-1.658869">
        <ele>297.998</ele>
        <time>2021-06-11T10:32:24Z</time>
      </trkpt>
      <trkpt lat="37.690990" lon="-1.659313">
        <ele>297.881</ele>
        <time>2021-06-11T10:32:28Z</time>
      </trkpt>
      <trkpt lat="37.691264" lon="-1.659950">
        <ele>298.561</ele>
        <time>2021-06-11T10:32:35Z</time>
      </trkpt>
      <trkpt lat="37.691240" lon="-1.660264">
        <ele>299.517</ele>
        <time>2021-06-11T10:32:38Z</time>
      </trkpt>
      <trkpt lat="37.690729" lon="-1.660646">
        <ele>300.908</ele>
        <time>2021-06-11T10:32:44Z</time>
      </trkpt>
      <trkpt lat="37.690474" lon="-1.661099">
        <ele>300.265</ele>
        <time>2021-06-11T10:32:48Z</time>
      </trkpt>
      <trkpt lat="37.690198" lon="-1.662217">
        <ele>300.243</ele>
        <time>2021-06-11T10:32:56Z</time>
      </trkpt>
      <trkpt lat="37.690139" lon="-1.663386">
        <ele>303.163</ele>
        <time>2021-06-11T10:33:05Z</time>
      </trkpt>
      <trkpt lat="37.689789" lon="-1.663773">
        <ele>303.788</ele>
        <time>2021-06-11T10:33:11Z</time>
      </trkpt>
      <trkpt lat="37.688564" lon="-1.668277">
        <ele>310.742</ele>
        <time>2021-06-11T10:33:40Z</time>
      </trkpt>
      <trkpt lat="37.686945" lon="-1.670368">
        <ele>312.542</ele>
        <time>2021-06-11T10:33:55Z</time>
      </trkpt>
      <trkpt lat="37.685142" lon="-1.673148">
        <ele>315.153</ele>
        <time>2021-06-11T10:34:13Z</time>
      </trkpt>
      <trkpt lat="37.683409" lon="-1.676678">
        <ele>317.758</ele>
        <time>2021-06-11T10:34:33Z</time>
      </trkpt>
      <trkpt lat="37.682334" lon="-1.687347">
        <ele>315.998</ele>
        <time>2021-06-11T10:37:07Z</time>
      </trkpt>
      <trkpt lat="37.682331" lon="-1.689929">
        <ele>316.415</ele>
        <time>2021-06-11T10:38:35Z</time>
      </trkpt>
      <trkpt lat="37.682097" lon="-1.691524">
        <ele>314.826</ele>
        <time>2021-06-11T10:39:05Z</time>
      </trkpt>
      <trkpt lat="37.680973" lon="-1.691101">
        <ele>315.408</ele>
        <time>2021-06-11T10:39:24Z</time>
      </trkpt>
      <trkpt lat="37.680352" lon="-1.691095">
        <ele>313.986</ele>
        <time>2021-06-11T10:39:41Z</time>
      </trkpt>
      <trkpt lat="37.678223" lon="-1.693406">
        <ele>314.574</ele>
        <time>2021-06-11T10:40:23Z</time>
      </trkpt>
      <trkpt lat="37.671642" lon="-1.698434">
        <ele>313.684</ele>
        <time>2021-06-11T10:43:55Z</time>
      </trkpt>
      <trkpt lat="37.671278" lon="-1.698891">
        <ele>314.219</ele>
        <time>2021-06-11T10:44:12Z</time>
      </trkpt>
      <trkpt lat="37.670895" lon="-1.698965">
        <ele>314.883</ele>
        <time>2021-06-11T10:44:20Z</time>
      </trkpt>
      <trkpt lat="37.670809" lon="-1.699169">
        <ele>315.123</ele>
        <time>2021-06-11T10:44:27Z</time>
      </trkpt>
      <trkpt lat="37.671404" lon="-1.699753">
        <ele>316.644</ele>
        <time>2021-06-11T10:44:41Z</time>
      </trkpt>
      <trkpt lat="37.672104" lon="-1.700650">
        <ele>317.789</ele>
        <time>2021-06-11T10:46:22Z</time>
      </trkpt>
      <trkpt lat="37.672056" lon="-1.700746">
        <ele>317.717</ele>
        <time>2021-06-11T10:46:27Z</time>
      </trkpt>
      <trkpt lat="37.668468" lon="-1.702321">
        <ele>320.587</ele>
        <time>2021-06-11T10:47:31Z</time>
      </trkpt>
      <trkpt lat="37.665374" lon="-1.703446">
        <ele>318.415</ele>
        <time>2021-06-11T10:48:29Z</time>
      </trkpt>
      <trkpt lat="37.661891" lon="-1.706015">
        <ele>319.308</ele>
        <time>2021-06-11T10:49:15Z</time>
      </trkpt>
      <trkpt lat="37.663037" lon="-1.708437">
        <ele>329.748</ele>
        <time>2021-06-11T10:49:49Z</time>
      </trkpt>
      <trkpt lat="37.661595" lon="-1.709544">
        <ele>335.126</ele>
        <time>2021-06-11T10:50:10Z</time>
      </trkpt>
      <trkpt lat="37.660327" lon="-1.711159">
        <ele>332.356</ele>
        <time>2021-06-11T10:50:29Z</time>
      </trkpt>
      <trkpt lat="37.659845" lon="-1.710900">
        <ele>330.751</ele>
        <time>2021-06-11T10:50:42Z</time>
      </trkpt>
      <trkpt lat="37.659446" lon="-1.709852">
        <ele>326.255</ele>
        <time>2021-06-11T10:50:55Z</time>
      </trkpt>
      <trkpt lat="37.658160" lon="-1.711134">
        <ele>321.075</ele>
        <time>2021-06-11T10:51:16Z</time>
      </trkpt>
      <trkpt lat="37.658276" lon="-1.710925">
        <ele>320.386</ele>
        <time>2021-06-11T10:51:31Z</time>
      </trkpt>
      <trkpt lat="37.657544" lon="-1.709858">
        <ele>317.841</ele>
        <time>2021-06-11T10:51:54Z</time>
      </trkpt>
      <trkpt lat="37.650063" lon="-1.717638">
        <ele>316.062</ele>
        <time>2021-06-11T10:53:50Z</time>
      </trkpt>
      <trkpt lat="37.649753" lon="-1.717624">
        <ele>313.083</ele>
        <time>2021-06-11T10:53:56Z</time>
      </trkpt>
      <trkpt lat="37.649387" lon="-1.717924">
        <ele>312.511</ele>
        <time>2021-06-11T10:54:11Z</time>
      </trkpt>
      <trkpt lat="37.649499" lon="-1.717964">
        <ele>312.508</ele>
        <time>2021-06-11T10:58:07Z</time>
      </trkpt>
      <trkpt lat="37.675777" lon="-1.695527">
        <ele>338.032</ele>
        <time>2021-06-11T14:00:57Z</time>
      </trkpt>
      <trkpt lat="37.675731" lon="-1.695517">
        <ele>337.692</ele>
        <time>2021-06-11T14:01:07Z</time>
      </trkpt>
      <trkpt lat="37.675772" lon="-1.695544">
        <ele>337.611</ele>
        <time>2021-06-11T14:01:22Z</time>
      </trkpt>
      <trkpt lat="37.675722" lon="-1.695543">
        <ele>337.708</ele>
        <time>2021-06-11T14:01:36Z</time>
      </trkpt>
      <trkpt lat="37.6757" lon="-1.695471">
        <ele>337.730</ele>
        <time>2021-06-11T14:01:39Z</time>
      </trkpt>
      <trkpt lat="37.675677" lon="-1.695403">
        <ele>337.768</ele>
        <time>2021-06-11T14:01:41Z</time>
      </trkpt>
      <trkpt lat="37.675641" lon="-1.695365">
        <ele>337.768</ele>
        <time>2021-06-11T14:01:42Z</time>
      </trkpt>
      <trkpt lat="37.675593" lon="-1.695352">
        <ele>337.726</ele>
        <time>2021-06-11T14:01:44Z</time>
      </trkpt>
      <trkpt lat="37.675519" lon="-1.695366">
        <ele>337.771</ele>
        <time>2021-06-11T14:01:46Z</time>
      </trkpt>
      <trkpt lat="37.675413" lon="-1.69549">
        <ele>337.752</ele>
        <time>2021-06-11T14:01:48Z</time>
      </trkpt>
      <trkpt lat="37.675372" lon="-1.695564">
        <ele>337.736</ele>
        <time>2021-06-11T14:01:49Z</time>
      </trkpt>
      <trkpt lat="37.675299" lon="-1.695671">
        <ele>337.789</ele>
        <time>2021-06-11T14:01:51Z</time>
      </trkpt>
      <trkpt lat="37.675247" lon="-1.695705">
        <ele>337.747</ele>
        <time>2021-06-11T14:01:52Z</time>
      </trkpt>
      <trkpt lat="37.675135" lon="-1.695774">
        <ele>337.729</ele>
        <time>2021-06-11T14:01:54Z</time>
      </trkpt>
      <trkpt lat="37.675083" lon="-1.695808">
        <ele>337.721</ele>
        <time>2021-06-11T14:01:55Z</time>
      </trkpt>
      <trkpt lat="37.67501" lon="-1.695883">
        <ele>337.708</ele>
        <time>2021-06-11T14:01:57Z</time>
      </trkpt>
      <trkpt lat="37.67495" lon="-1.695936">
        <ele>337.791</ele>
        <time>2021-06-11T14:01:59Z</time>
      </trkpt>
      <trkpt lat="37.674868" lon="-1.69599">
        <ele>337.719</ele>
        <time>2021-06-11T14:02:01Z</time>
      </trkpt>
      <trkpt lat="37.674768" lon="-1.696048">
        <ele>337.739</ele>
        <time>2021-06-11T14:02:03Z</time>
      </trkpt>
      <trkpt lat="37.674729" lon="-1.69608">
        <ele>337.787</ele>
        <time>2021-06-11T14:02:04Z</time>
      </trkpt>
      <trkpt lat="37.674642" lon="-1.696156">
        <ele>337.782</ele>
        <time>2021-06-11T14:02:06Z</time>
      </trkpt>
      <trkpt lat="37.674575" lon="-1.696208">
        <ele>337.773</ele>
        <time>2021-06-11T14:02:08Z</time>
      </trkpt>
      <trkpt lat="37.674532" lon="-1.696242">
        <ele>337.737</ele>
        <time>2021-06-11T14:02:09Z</time>
      </trkpt>
      <trkpt lat="37.67445" lon="-1.696312">
        <ele>337.780</ele>
        <time>2021-06-11T14:02:11Z</time>
      </trkpt>
      <trkpt lat="37.674403" lon="-1.696336">
        <ele>337.783</ele>
        <time>2021-06-11T14:02:12Z</time>
      </trkpt>
      <trkpt lat="37.674313" lon="-1.696393">
        <ele>337.725</ele>
        <time>2021-06-11T14:02:14Z</time>
      </trkpt>
      <trkpt lat="37.674268" lon="-1.696425">
        <ele>337.717</ele>
        <time>2021-06-11T14:02:15Z</time>
      </trkpt>
      <trkpt lat="37.67416" lon="-1.696472">
        <ele>337.708</ele>
        <time>2021-06-11T14:02:17Z</time>
      </trkpt>
      <trkpt lat="37.674115" lon="-1.696506">
        <ele>337.725</ele>
        <time>2021-06-11T14:02:18Z</time>
      </trkpt>
      <trkpt lat="37.674073" lon="-1.696539">
        <ele>337.763</ele>
        <time>2021-06-11T14:02:19Z</time>
      </trkpt>
      <trkpt lat="37.674035" lon="-1.696582">
        <ele>337.743</ele>
        <time>2021-06-11T14:02:20Z</time>
      </trkpt>
      <trkpt lat="37.673992" lon="-1.696633">
        <ele>337.771</ele>
        <time>2021-06-11T14:02:21Z</time>
      </trkpt>
      <trkpt lat="37.673944" lon="-1.696681">
        <ele>337.796</ele>
        <time>2021-06-11T14:02:22Z</time>
      </trkpt>
      <trkpt lat="37.673834" lon="-1.696741">
        <ele>337.757</ele>
        <time>2021-06-11T14:02:24Z</time>
      </trkpt>
      <trkpt lat="37.673749" lon="-1.696819">
        <ele>337.741</ele>
        <time>2021-06-11T14:02:26Z</time>
      </trkpt>
      <trkpt lat="37.673713" lon="-1.696855">
        <ele>337.784</ele>
        <time>2021-06-11T14:02:27Z</time>
      </trkpt>
      <trkpt lat="37.673652" lon="-1.696915">
        <ele>337.783</ele>
        <time>2021-06-11T14:02:29Z</time>
      </trkpt>
      <trkpt lat="37.673614" lon="-1.696948">
        <ele>337.725</ele>
        <time>2021-06-11T14:02:30Z</time>
      </trkpt>
      <trkpt lat="37.673543" lon="-1.697011">
        <ele>337.717</ele>
        <time>2021-06-11T14:02:32Z</time>
      </trkpt>
      <trkpt lat="37.673494" lon="-1.697101">
        <ele>337.708</ele>
        <time>2021-06-11T14:02:34Z</time>
      </trkpt>
      <trkpt lat="37.67342" lon="-1.697192">
        <ele>337.775</ele>
        <time>2021-06-11T14:02:36Z</time>
      </trkpt>
      <trkpt lat="37.673324" lon="-1.697288">
        <ele>337.713</ele>
        <time>2021-06-11T14:02:38Z</time>
      </trkpt>
      <trkpt lat="37.673265" lon="-1.697319">
        <ele>337.773</ele>
        <time>2021-06-11T14:02:39Z</time>
      </trkpt>
      <trkpt lat="37.673202" lon="-1.697343">
        <ele>337.771</ele>
        <time>2021-06-11T14:02:40Z</time>
      </trkpt>
      <trkpt lat="37.673137" lon="-1.697361">
        <ele>337.746</ele>
        <time>2021-06-11T14:02:41Z</time>
      </trkpt>
      <trkpt lat="37.67302" lon="-1.697392">
        <ele>337.757</ele>
        <time>2021-06-11T14:02:43Z</time>
      </trkpt>
      <trkpt lat="37.672971" lon="-1.697362">
        <ele>341.721</ele>
        <time>2021-06-11T14:02:45Z</time>
      </trkpt>
      <trkpt lat="37.672963" lon="-1.697301">
        <ele>345.734</ele>
        <time>2021-06-11T14:02:48Z</time>
      </trkpt>
      <trkpt lat="37.672993" lon="-1.697245">
        <ele>349.714</ele>
        <time>2021-06-11T14:02:51Z</time>
      </trkpt>
      <trkpt lat="37.673042" lon="-1.697215">
        <ele>353.754</ele>
        <time>2021-06-11T14:02:53Z</time>
      </trkpt>
      <trkpt lat="37.673094" lon="-1.697214">
        <ele>353.809</ele>
        <time>2021-06-11T14:02:55Z</time>
      </trkpt>
      <trkpt lat="37.673138" lon="-1.697242">
        <ele>353.208</ele>
        <time>2021-06-11T14:02:59Z</time>
      </trkpt>
      <trkpt lat="37.673064" lon="-1.697275">
        <ele>352.418</ele>
        <time>2021-06-11T14:03:09Z</time>
      </trkpt>
      <trkpt lat="37.672927" lon="-1.697348">
        <ele>351.926</ele>
        <time>2021-06-11T14:03:11Z</time>
      </trkpt>
      <trkpt lat="37.67286" lon="-1.697387">
        <ele>351.696</ele>
        <time>2021-06-11T14:03:12Z</time>
      </trkpt>
      <trkpt lat="37.672796" lon="-1.697417">
        <ele>351.454</ele>
        <time>2021-06-11T14:03:13Z</time>
      </trkpt>
      <trkpt lat="37.672669" lon="-1.697477">
        <ele>351.369</ele>
        <time>2021-06-11T14:03:15Z</time>
      </trkpt>
      <trkpt lat="37.672623" lon="-1.697549">
        <ele>351.310</ele>
        <time>2021-06-11T14:03:16Z</time>
      </trkpt>
      <trkpt lat="37.672541" lon="-1.697671">
        <ele>351.344</ele>
        <time>2021-06-11T14:03:18Z</time>
      </trkpt>
      <trkpt lat="37.672479" lon="-1.697743">
        <ele>351.347</ele>
        <time>2021-06-11T14:03:20Z</time>
      </trkpt>
      <trkpt lat="37.672373" lon="-1.697821">
        <ele>351.322</ele>
        <time>2021-06-11T14:03:22Z</time>
      </trkpt>
      <trkpt lat="37.672313" lon="-1.697864">
        <ele>351.362</ele>
        <time>2021-06-11T14:03:23Z</time>
      </trkpt>
      <trkpt lat="37.67222" lon="-1.697952">
        <ele>351.308</ele>
        <time>2021-06-11T14:03:25Z</time>
      </trkpt>
      <trkpt lat="37.672156" lon="-1.698006">
        <ele>351.308</ele>
        <time>2021-06-11T14:03:27Z</time>
      </trkpt>
      <trkpt lat="37.672169" lon="-1.69795">
        <ele>351.759</ele>
        <time>2021-06-11T14:03:49Z</time>
      </trkpt>
      <trkpt lat="37.672214" lon="-1.697933">
        <ele>350.557</ele>
        <time>2021-06-11T14:04:38Z</time>
      </trkpt>
      <trkpt lat="37.6722" lon="-1.697999">
        <ele>351.277</ele>
        <time>2021-06-11T14:05:56Z</time>
      </trkpt>
      <trkpt lat="37.672141" lon="-1.698061">
        <ele>351.645</ele>
        <time>2021-06-11T14:05:58Z</time>
      </trkpt>
      <trkpt lat="37.672099" lon="-1.698111">
        <ele>351.840</ele>
        <time>2021-06-11T14:05:59Z</time>
      </trkpt>
      <trkpt lat="37.671997" lon="-1.698215">
        <ele>351.921</ele>
        <time>2021-06-11T14:06:01Z</time>
      </trkpt>
      <trkpt lat="37.671856" lon="-1.69831">
        <ele>352.065</ele>
        <time>2021-06-11T14:06:03Z</time>
      </trkpt>
      <trkpt lat="37.671793" lon="-1.698351">
        <ele>352.158</ele>
        <time>2021-06-11T14:06:04Z</time>
      </trkpt>
      <trkpt lat="37.671688" lon="-1.698442">
        <ele>352.243</ele>
        <time>2021-06-11T14:06:06Z</time>
      </trkpt>
      <trkpt lat="37.671631" lon="-1.698499">
        <ele>352.264</ele>
        <time>2021-06-11T14:06:07Z</time>
      </trkpt>
      <trkpt lat="37.671574" lon="-1.698553">
        <ele>352.210</ele>
        <time>2021-06-11T14:06:08Z</time>
      </trkpt>
      <trkpt lat="37.67152" lon="-1.698589">
        <ele>352.208</ele>
        <time>2021-06-11T14:06:09Z</time>
      </trkpt>
      <trkpt lat="37.671461" lon="-1.69863">
        <ele>352.271</ele>
        <time>2021-06-11T14:06:11Z</time>
      </trkpt>
      <trkpt lat="37.67143" lon="-1.698686">
        <ele>352.219</ele>
        <time>2021-06-11T14:06:13Z</time>
      </trkpt>
      <trkpt lat="37.671385" lon="-1.698754">
        <ele>352.249</ele>
        <time>2021-06-11T14:06:15Z</time>
      </trkpt>
      <trkpt lat="37.671364" lon="-1.698805">
        <ele>352.277</ele>
        <time>2021-06-11T14:06:16Z</time>
      </trkpt>
      <trkpt lat="37.671281" lon="-1.698898">
        <ele>352.232</ele>
        <time>2021-06-11T14:06:18Z</time>
      </trkpt>
      <trkpt lat="37.671224" lon="-1.698914">
        <ele>352.223</ele>
        <time>2021-06-11T14:06:19Z</time>
      </trkpt>
      <trkpt lat="37.671117" lon="-1.698884">
        <ele>352.247</ele>
        <time>2021-06-11T14:06:21Z</time>
      </trkpt>
      <trkpt lat="37.671065" lon="-1.698865">
        <ele>352.270</ele>
        <time>2021-06-11T14:06:22Z</time>
      </trkpt>
      <trkpt lat="37.670975" lon="-1.698757">
        <ele>352.252</ele>
        <time>2021-06-11T14:06:24Z</time>
      </trkpt>
      <trkpt lat="37.670933" lon="-1.698688">
        <ele>352.253</ele>
        <time>2021-06-11T14:06:25Z</time>
      </trkpt>
      <trkpt lat="37.670835" lon="-1.698569">
        <ele>352.208</ele>
        <time>2021-06-11T14:06:27Z</time>
      </trkpt>
      <trkpt lat="37.670715" lon="-1.698519">
        <ele>352.208</ele>
        <time>2021-06-11T14:06:29Z</time>
      </trkpt>
      <trkpt lat="37.670627" lon="-1.698514">
        <ele>352.242</ele>
        <time>2021-06-11T14:06:31Z</time>
      </trkpt>
      <trkpt lat="37.670582" lon="-1.698482">
        <ele>352.260</ele>
        <time>2021-06-11T14:06:33Z</time>
      </trkpt>
      <trkpt lat="37.670503" lon="-1.6984">
        <ele>352.250</ele>
        <time>2021-06-11T14:06:35Z</time>
      </trkpt>
      <trkpt lat="37.670394" lon="-1.698311">
        <ele>352.258</ele>
        <time>2021-06-11T14:06:37Z</time>
      </trkpt>
      <trkpt lat="37.670335" lon="-1.698277">
        <ele>352.253</ele>
        <time>2021-06-11T14:06:38Z</time>
      </trkpt>
      <trkpt lat="37.670225" lon="-1.698235">
        <ele>352.284</ele>
        <time>2021-06-11T14:06:40Z</time>
      </trkpt>
      <trkpt lat="37.670128" lon="-1.698196">
        <ele>352.238</ele>
        <time>2021-06-11T14:06:42Z</time>
      </trkpt>
      <trkpt lat="37.670085" lon="-1.698167">
        <ele>352.241</ele>
        <time>2021-06-11T14:06:43Z</time>
      </trkpt>
      <trkpt lat="37.669995" lon="-1.698102">
        <ele>352.225</ele>
        <time>2021-06-11T14:06:45Z</time>
      </trkpt>
      <trkpt lat="37.669886" lon="-1.698062">
        <ele>352.226</ele>
        <time>2021-06-11T14:06:47Z</time>
      </trkpt>
      <trkpt lat="37.669834" lon="-1.698037">
        <ele>352.208</ele>
        <time>2021-06-11T14:06:48Z</time>
      </trkpt>
      <trkpt lat="37.669752" lon="-1.698003">
        <ele>352.208</ele>
        <time>2021-06-11T14:06:50Z</time>
      </trkpt>
      <trkpt lat="37.669703" lon="-1.697981">
        <ele>352.249</ele>
        <time>2021-06-11T14:06:56Z</time>
      </trkpt>
      <trkpt lat="37.669662" lon="-1.697953">
        <ele>352.677</ele>
        <time>2021-06-11T14:06:59Z</time>
      </trkpt>
      <trkpt lat="37.669603" lon="-1.697913">
        <ele>352.867</ele>
        <time>2021-06-11T14:07:01Z</time>
      </trkpt>
      <trkpt lat="37.669533" lon="-1.697869">
        <ele>353.065</ele>
        <time>2021-06-11T14:07:03Z</time>
      </trkpt>
      <trkpt lat="37.669471" lon="-1.697832">
        <ele>353.180</ele>
        <time>2021-06-11T14:07:05Z</time>
      </trkpt>
      <trkpt lat="37.669408" lon="-1.697795">
        <ele>353.261</ele>
        <time>2021-06-11T14:07:08Z</time>
      </trkpt>
      <trkpt lat="37.669355" lon="-1.697768">
        <ele>353.225</ele>
        <time>2021-06-11T14:07:11Z</time>
      </trkpt>
      <trkpt lat="37.669312" lon="-1.697737">
        <ele>353.248</ele>
        <time>2021-06-11T14:07:13Z</time>
      </trkpt>
      <trkpt lat="37.669267" lon="-1.697707">
        <ele>353.224</ele>
        <time>2021-06-11T14:07:15Z</time>
      </trkpt>
      <trkpt lat="37.669205" lon="-1.697679">
        <ele>353.204</ele>
        <time>2021-06-11T14:07:17Z</time>
      </trkpt>
      <trkpt lat="37.669099" lon="-1.697685">
        <ele>353.214</ele>
        <time>2021-06-11T14:07:19Z</time>
      </trkpt>
      <trkpt lat="37.669016" lon="-1.697679">
        <ele>353.208</ele>
        <time>2021-06-11T14:07:21Z</time>
      </trkpt>
      <trkpt lat="37.668922" lon="-1.697609">
        <ele>353.299</ele>
        <time>2021-06-11T14:07:23Z</time>
      </trkpt>
      <trkpt lat="37.668864" lon="-1.697549">
        <ele>353.267</ele>
        <time>2021-06-11T14:07:24Z</time>
      </trkpt>
      <trkpt lat="37.668738" lon="-1.697453">
        <ele>353.257</ele>
        <time>2021-06-11T14:07:26Z</time>
      </trkpt>
      <trkpt lat="37.668604" lon="-1.697375">
        <ele>353.275</ele>
        <time>2021-06-11T14:07:28Z</time>
      </trkpt>
      <trkpt lat="37.668538" lon="-1.697329">
        <ele>353.230</ele>
        <time>2021-06-11T14:07:29Z</time>
      </trkpt>
      <trkpt lat="37.66847" lon="-1.697291">
        <ele>353.281</ele>
        <time>2021-06-11T14:07:30Z</time>
      </trkpt>
      <trkpt lat="37.668401" lon="-1.697253">
        <ele>353.285</ele>
        <time>2021-06-11T14:07:31Z</time>
      </trkpt>
      <trkpt lat="37.668264" lon="-1.697163">
        <ele>353.278</ele>
        <time>2021-06-11T14:07:33Z</time>
      </trkpt>
      <trkpt lat="37.668192" lon="-1.697118">
        <ele>353.291</ele>
        <time>2021-06-11T14:07:34Z</time>
      </trkpt>
      <trkpt lat="37.668059" lon="-1.697053">
        <ele>353.281</ele>
        <time>2021-06-11T14:07:36Z</time>
      </trkpt>
      <trkpt lat="37.667991" lon="-1.69703">
        <ele>353.219</ele>
        <time>2021-06-11T14:07:38Z</time>
      </trkpt>
      <trkpt lat="37.667945" lon="-1.697028">
        <ele>353.208</ele>
        <time>2021-06-11T14:07:40Z</time>
      </trkpt>
      <trkpt lat="37.66795" lon="-1.696943">
        <ele>353.396</ele>
        <time>2021-06-11T14:07:48Z</time>
      </trkpt>
      <trkpt lat="37.667915" lon="-1.696866">
        <ele>353.394</ele>
        <time>2021-06-11T14:07:50Z</time>
      </trkpt>
      <trkpt lat="37.66786" lon="-1.69684">
        <ele>353.324</ele>
        <time>2021-06-11T14:07:52Z</time>
      </trkpt>
      <trkpt lat="37.667803" lon="-1.696856">
        <ele>353.392</ele>
        <time>2021-06-11T14:07:54Z</time>
      </trkpt>
      <trkpt lat="37.667714" lon="-1.696795">
        <ele>353.347</ele>
        <time>2021-06-11T14:08:02Z</time>
      </trkpt>
      <trkpt lat="37.667642" lon="-1.696744">
        <ele>353.388</ele>
        <time>2021-06-11T14:08:03Z</time>
      </trkpt>
      <trkpt lat="37.66756" lon="-1.696687">
        <ele>353.342</ele>
        <time>2021-06-11T14:08:04Z</time>
      </trkpt>
      <trkpt lat="37.667376" lon="-1.696572">
        <ele>353.395</ele>
        <time>2021-06-11T14:08:06Z</time>
      </trkpt>
      <trkpt lat="37.667284" lon="-1.696516">
        <ele>353.317</ele>
        <time>2021-06-11T14:08:07Z</time>
      </trkpt>
      <trkpt lat="37.667107" lon="-1.696415">
        <ele>353.387</ele>
        <time>2021-06-11T14:08:09Z</time>
      </trkpt>
      <trkpt lat="37.667023" lon="-1.696367">
        <ele>353.315</ele>
        <time>2021-06-11T14:08:10Z</time>
      </trkpt>
      <trkpt lat="37.66686" lon="-1.696267">
        <ele>353.308</ele>
        <time>2021-06-11T14:08:12Z</time>
      </trkpt>
      <trkpt lat="37.666776" lon="-1.696218">
        <ele>353.398</ele>
        <time>2021-06-11T14:08:13Z</time>
      </trkpt>
      <trkpt lat="37.666694" lon="-1.696174">
        <ele>353.336</ele>
        <time>2021-06-11T14:08:14Z</time>
      </trkpt>
      <trkpt lat="37.666542" lon="-1.696096">
        <ele>353.336</ele>
        <time>2021-06-11T14:08:16Z</time>
      </trkpt>
      <trkpt lat="37.666396" lon="-1.69601">
        <ele>353.394</ele>
        <time>2021-06-11T14:08:18Z</time>
      </trkpt>
      <trkpt lat="37.666246" lon="-1.69592">
        <ele>353.349</ele>
        <time>2021-06-11T14:08:20Z</time>
      </trkpt>
      <trkpt lat="37.666095" lon="-1.695843">
        <ele>353.330</ele>
        <time>2021-06-11T14:08:22Z</time>
      </trkpt>
      <trkpt lat="37.665953" lon="-1.695771">
        <ele>353.384</ele>
        <time>2021-06-11T14:08:24Z</time>
      </trkpt>
      <trkpt lat="37.665885" lon="-1.695739">
        <ele>353.327</ele>
        <time>2021-06-11T14:08:25Z</time>
      </trkpt>
      <trkpt lat="37.665822" lon="-1.695714">
        <ele>353.322</ele>
        <time>2021-06-11T14:08:26Z</time>
      </trkpt>
      <trkpt lat="37.665701" lon="-1.695716">
        <ele>353.362</ele>
        <time>2021-06-11T14:08:28Z</time>
      </trkpt>
      <trkpt lat="37.665649" lon="-1.695707">
        <ele>353.308</ele>
        <time>2021-06-11T14:08:29Z</time>
      </trkpt>
      <trkpt lat="37.665579" lon="-1.695619">
        <ele>353.308</ele>
        <time>2021-06-11T14:08:31Z</time>
      </trkpt>
      <trkpt lat="37.665539" lon="-1.695529">
        <ele>353.399</ele>
        <time>2021-06-11T14:08:33Z</time>
      </trkpt>
      <trkpt lat="37.6655" lon="-1.695493">
        <ele>353.357</ele>
        <time>2021-06-11T14:08:34Z</time>
      </trkpt>
      <trkpt lat="37.66545" lon="-1.695467">
        <ele>353.387</ele>
        <time>2021-06-11T14:08:35Z</time>
      </trkpt>
      <trkpt lat="37.665355" lon="-1.695411">
        <ele>353.385</ele>
        <time>2021-06-11T14:08:37Z</time>
      </trkpt>
      <trkpt lat="37.665309" lon="-1.695385">
        <ele>353.360</ele>
        <time>2021-06-11T14:08:38Z</time>
      </trkpt>
      <trkpt lat="37.665213" lon="-1.695359">
        <ele>353.311</ele>
        <time>2021-06-11T14:08:40Z</time>
      </trkpt>
      <trkpt lat="37.665119" lon="-1.695318">
        <ele>353.315</ele>
        <time>2021-06-11T14:08:42Z</time>
      </trkpt>
      <trkpt lat="37.665076" lon="-1.695294">
        <ele>353.398</ele>
        <time>2021-06-11T14:08:43Z</time>
      </trkpt>
      <trkpt lat="37.664987" lon="-1.69524">
        <ele>353.331</ele>
        <time>2021-06-11T14:08:45Z</time>
      </trkpt>
      <trkpt lat="37.664936" lon="-1.695217">
        <ele>349.361</ele>
        <time>2021-06-11T14:08:46Z</time>
      </trkpt>
      <trkpt lat="37.664842" lon="-1.695169">
        <ele>345.307</ele>
        <time>2021-06-11T14:08:48Z</time>
      </trkpt>
      <trkpt lat="37.664758" lon="-1.695132">
        <ele>341.308</ele>
        <time>2021-06-11T14:08:50Z</time>
      </trkpt>
      <trkpt lat="37.664695" lon="-1.695096">
        <ele>338.460</ele>
        <time>2021-06-11T14:08:52Z</time>
      </trkpt>
      <trkpt lat="37.664647" lon="-1.695057">
        <ele>336.928</ele>
        <time>2021-06-11T14:08:54Z</time>
      </trkpt>
      <trkpt lat="37.664604" lon="-1.695023">
        <ele>337.178</ele>
        <time>2021-06-11T14:08:56Z</time>
      </trkpt>
      <trkpt lat="37.664553" lon="-1.694968">
        <ele>337.286</ele>
        <time>2021-06-11T14:08:58Z</time>
      </trkpt>
      <trkpt lat="37.664515" lon="-1.694922">
        <ele>336.851</ele>
        <time>2021-06-11T14:08:59Z</time>
      </trkpt>
      <trkpt lat="37.664411" lon="-1.694833">
        <ele>337.072</ele>
        <time>2021-06-11T14:09:01Z</time>
      </trkpt>
      <trkpt lat="37.664341" lon="-1.694802">
        <ele>336.826</ele>
        <time>2021-06-11T14:09:02Z</time>
      </trkpt>
      <trkpt lat="37.664272" lon="-1.694766">
        <ele>336.779</ele>
        <time>2021-06-11T14:09:03Z</time>
      </trkpt>
      <trkpt lat="37.664117" lon="-1.694685">
        <ele>336.469</ele>
        <time>2021-06-11T14:09:05Z</time>
      </trkpt>
      <trkpt lat="37.663965" lon="-1.694585">
        <ele>336.304</ele>
        <time>2021-06-11T14:09:07Z</time>
      </trkpt>
      <trkpt lat="37.663808" lon="-1.694485">
        <ele>335.624</ele>
        <time>2021-06-11T14:09:09Z</time>
      </trkpt>
      <trkpt lat="37.663733" lon="-1.694434">
        <ele>335.208</ele>
        <time>2021-06-11T14:09:10Z</time>
      </trkpt>
      <trkpt lat="37.663651" lon="-1.694394">
        <ele>335.073</ele>
        <time>2021-06-11T14:09:11Z</time>
      </trkpt>
      <trkpt lat="37.663489" lon="-1.694321">
        <ele>334.511</ele>
        <time>2021-06-11T14:09:13Z</time>
      </trkpt>
      <trkpt lat="37.66334" lon="-1.69424">
        <ele>334.441</ele>
        <time>2021-06-11T14:09:15Z</time>
      </trkpt>
      <trkpt lat="37.663277" lon="-1.694212">
        <ele>334.249</ele>
        <time>2021-06-11T14:09:16Z</time>
      </trkpt>
      <trkpt lat="37.663231" lon="-1.694209">
        <ele>333.934</ele>
        <time>2021-06-11T14:09:17Z</time>
      </trkpt>
      <trkpt lat="37.663176" lon="-1.694222">
        <ele>334.385</ele>
        <time>2021-06-11T14:09:19Z</time>
      </trkpt>
      <trkpt lat="37.663204" lon="-1.694267">
        <ele>332.439</ele>
        <time>2021-06-11T14:09:34Z</time>
      </trkpt>
      <trkpt lat="37.663169" lon="-1.694229">
        <ele>331.242</ele>
        <time>2021-06-11T14:09:58Z</time>
      </trkpt>
      <trkpt lat="37.6631" lon="-1.694204">
        <ele>330.558</ele>
        <time>2021-06-11T14:10:00Z</time>
      </trkpt>
      <trkpt lat="37.663016" lon="-1.694171">
        <ele>330.152</ele>
        <time>2021-06-11T14:10:02Z</time>
      </trkpt>
      <trkpt lat="37.662961" lon="-1.694161">
        <ele>329.817</ele>
        <time>2021-06-11T14:10:03Z</time>
      </trkpt>
      <trkpt lat="37.662882" lon="-1.694151">
        <ele>329.608</ele>
        <time>2021-06-11T14:10:05Z</time>
      </trkpt>
      <trkpt lat="37.662798" lon="-1.694168">
        <ele>329.562</ele>
        <time>2021-06-11T14:10:07Z</time>
      </trkpt>
      <trkpt lat="37.662652" lon="-1.694181">
        <ele>329.480</ele>
        <time>2021-06-11T14:10:09Z</time>
      </trkpt>
      <trkpt lat="37.662521" lon="-1.694085">
        <ele>329.490</ele>
        <time>2021-06-11T14:10:11Z</time>
      </trkpt>
      <trkpt lat="37.662468" lon="-1.693907">
        <ele>329.448</ele>
        <time>2021-06-11T14:10:13Z</time>
      </trkpt>
      <trkpt lat="37.662442" lon="-1.693737">
        <ele>329.353</ele>
        <time>2021-06-11T14:10:15Z</time>
      </trkpt>
      <trkpt lat="37.662408" lon="-1.693664">
        <ele>329.364</ele>
        <time>2021-06-11T14:10:16Z</time>
      </trkpt>
      <trkpt lat="37.66228" lon="-1.693551">
        <ele>329.338</ele>
        <time>2021-06-11T14:10:18Z</time>
      </trkpt>
      <trkpt lat="37.662199" lon="-1.69351">
        <ele>329.351</ele>
        <time>2021-06-11T14:10:19Z</time>
      </trkpt>
      <trkpt lat="37.662041" lon="-1.693427">
        <ele>329.345</ele>
        <time>2021-06-11T14:10:21Z</time>
      </trkpt>
      <trkpt lat="37.66196" lon="-1.693387">
        <ele>329.347</ele>
        <time>2021-06-11T14:10:22Z</time>
      </trkpt>
      <trkpt lat="37.6618" lon="-1.693289">
        <ele>329.311</ele>
        <time>2021-06-11T14:10:24Z</time>
      </trkpt>
      <trkpt lat="37.661722" lon="-1.693243">
        <ele>329.308</ele>
        <time>2021-06-11T14:10:25Z</time>
      </trkpt>
      <trkpt lat="37.661565" lon="-1.693151">
        <ele>329.321</ele>
        <time>2021-06-11T14:10:27Z</time>
      </trkpt>
      <trkpt lat="37.661486" lon="-1.693097">
        <ele>329.339</ele>
        <time>2021-06-11T14:10:28Z</time>
      </trkpt>
      <trkpt lat="37.661316" lon="-1.692979">
        <ele>329.329</ele>
        <time>2021-06-11T14:10:30Z</time>
      </trkpt>
      <trkpt lat="37.661223" lon="-1.692922">
        <ele>329.327</ele>
        <time>2021-06-11T14:10:31Z</time>
      </trkpt>
      <trkpt lat="37.661132" lon="-1.692865">
        <ele>329.342</ele>
        <time>2021-06-11T14:10:32Z</time>
      </trkpt>
      <trkpt lat="37.660949" lon="-1.692753">
        <ele>329.333</ele>
        <time>2021-06-11T14:10:34Z</time>
      </trkpt>
      <trkpt lat="37.660761" lon="-1.692632">
        <ele>329.327</ele>
        <time>2021-06-11T14:10:36Z</time>
      </trkpt>
      <trkpt lat="37.660664" lon="-1.692574">
        <ele>329.370</ele>
        <time>2021-06-11T14:10:37Z</time>
      </trkpt>
      <trkpt lat="37.660567" lon="-1.692519">
        <ele>329.338</ele>
        <time>2021-06-11T14:10:38Z</time>
      </trkpt>
      <trkpt lat="37.660475" lon="-1.692472">
        <ele>329.370</ele>
        <time>2021-06-11T14:10:39Z</time>
      </trkpt>
      <trkpt lat="37.660298" lon="-1.692374">
        <ele>329.317</ele>
        <time>2021-06-11T14:10:41Z</time>
      </trkpt>
      <trkpt lat="37.660211" lon="-1.692326">
        <ele>329.308</ele>
        <time>2021-06-11T14:10:42Z</time>
      </trkpt>
      <trkpt lat="37.660037" lon="-1.692236">
        <ele>329.330</ele>
        <time>2021-06-11T14:10:44Z</time>
      </trkpt>
      <trkpt lat="37.65987" lon="-1.69214">
        <ele>329.328</ele>
        <time>2021-06-11T14:10:46Z</time>
      </trkpt>
      <trkpt lat="37.659787" lon="-1.692092">
        <ele>329.338</ele>
        <time>2021-06-11T14:10:47Z</time>
      </trkpt>
      <trkpt lat="37.659702" lon="-1.69204">
        <ele>329.366</ele>
        <time>2021-06-11T14:10:48Z</time>
      </trkpt>
      <trkpt lat="37.65953" lon="-1.691936">
        <ele>329.331</ele>
        <time>2021-06-11T14:10:50Z</time>
      </trkpt>
      <trkpt lat="37.65936" lon="-1.691837">
        <ele>329.342</ele>
        <time>2021-06-11T14:10:52Z</time>
      </trkpt>
      <trkpt lat="37.659277" lon="-1.691788">
        <ele>329.386</ele>
        <time>2021-06-11T14:10:53Z</time>
      </trkpt>
      <trkpt lat="37.659119" lon="-1.691694">
        <ele>329.349</ele>
        <time>2021-06-11T14:10:55Z</time>
      </trkpt>
      <trkpt lat="37.658961" lon="-1.69161">
        <ele>329.372</ele>
        <time>2021-06-11T14:10:57Z</time>
      </trkpt>
      <trkpt lat="37.65888" lon="-1.691574">
        <ele>327.513</ele>
        <time>2021-06-11T14:10:58Z</time>
      </trkpt>
      <trkpt lat="37.658737" lon="-1.691501">
        <ele>326.214</ele>
        <time>2021-06-11T14:11:00Z</time>
      </trkpt>
      <trkpt lat="37.658613" lon="-1.691434">
        <ele>324.908</ele>
        <time>2021-06-11T14:11:02Z</time>
      </trkpt>
      <trkpt lat="37.658561" lon="-1.6914">
        <ele>324.014</ele>
        <time>2021-06-11T14:11:03Z</time>
      </trkpt>
      <trkpt lat="37.658508" lon="-1.691371">
        <ele>323.972</ele>
        <time>2021-06-11T14:11:04Z</time>
      </trkpt>
      <trkpt lat="37.658413" lon="-1.691316">
        <ele>323.642</ele>
        <time>2021-06-11T14:11:06Z</time>
      </trkpt>
      <trkpt lat="37.658329" lon="-1.691285">
        <ele>323.220</ele>
        <time>2021-06-11T14:11:08Z</time>
      </trkpt>
      <trkpt lat="37.658277" lon="-1.691262">
        <ele>323.025</ele>
        <time>2021-06-11T14:11:10Z</time>
      </trkpt>
      <trkpt lat="37.658242" lon="-1.691197">
        <ele>323.246</ele>
        <time>2021-06-11T14:11:27Z</time>
      </trkpt>
      <trkpt lat="37.658136" lon="-1.691121">
        <ele>323.340</ele>
        <time>2021-06-11T14:11:29Z</time>
      </trkpt>
      <trkpt lat="37.658076" lon="-1.691079">
        <ele>323.323</ele>
        <time>2021-06-11T14:11:30Z</time>
      </trkpt>
      <trkpt lat="37.657949" lon="-1.690989">
        <ele>323.399</ele>
        <time>2021-06-11T14:11:32Z</time>
      </trkpt>
      <trkpt lat="37.657874" lon="-1.69094">
        <ele>323.307</ele>
        <time>2021-06-11T14:11:33Z</time>
      </trkpt>
      <trkpt lat="37.657707" lon="-1.690841">
        <ele>323.327</ele>
        <time>2021-06-11T14:11:35Z</time>
      </trkpt>
      <trkpt lat="37.657537" lon="-1.690732">
        <ele>323.308</ele>
        <time>2021-06-11T14:11:37Z</time>
      </trkpt>
      <trkpt lat="37.657448" lon="-1.690678">
        <ele>323.356</ele>
        <time>2021-06-11T14:11:38Z</time>
      </trkpt>
      <trkpt lat="37.657358" lon="-1.690626">
        <ele>323.324</ele>
        <time>2021-06-11T14:11:39Z</time>
      </trkpt>
      <trkpt lat="37.657267" lon="-1.690575">
        <ele>323.364</ele>
        <time>2021-06-11T14:11:40Z</time>
      </trkpt>
      <trkpt lat="37.657092" lon="-1.690472">
        <ele>323.362</ele>
        <time>2021-06-11T14:11:42Z</time>
      </trkpt>
      <trkpt lat="37.657007" lon="-1.69042">
        <ele>323.367</ele>
        <time>2021-06-11T14:11:43Z</time>
      </trkpt>
      <trkpt lat="37.656839" lon="-1.690304">
        <ele>323.328</ele>
        <time>2021-06-11T14:11:45Z</time>
      </trkpt>
      <trkpt lat="37.656744" lon="-1.69026">
        <ele>323.372</ele>
        <time>2021-06-11T14:11:46Z</time>
      </trkpt>
      <trkpt lat="37.656651" lon="-1.690214">
        <ele>323.385</ele>
        <time>2021-06-11T14:11:47Z</time>
      </trkpt>
      <trkpt lat="37.656561" lon="-1.690161">
        <ele>323.382</ele>
        <time>2021-06-11T14:11:48Z</time>
      </trkpt>
      <trkpt lat="37.656375" lon="-1.690047">
        <ele>323.343</ele>
        <time>2021-06-11T14:11:50Z</time>
      </trkpt>
      <trkpt lat="37.656178" lon="-1.689928">
        <ele>323.317</ele>
        <time>2021-06-11T14:11:52Z</time>
      </trkpt>
      <trkpt lat="37.655965" lon="-1.689809">
        <ele>323.308</ele>
        <time>2021-06-11T14:11:54Z</time>
      </trkpt>
      <trkpt lat="37.655756" lon="-1.689685">
        <ele>323.395</ele>
        <time>2021-06-11T14:11:56Z</time>
      </trkpt>
      <trkpt lat="37.655548" lon="-1.689572">
        <ele>323.343</ele>
        <time>2021-06-11T14:11:58Z</time>
      </trkpt>
      <trkpt lat="37.655444" lon="-1.689517">
        <ele>323.343</ele>
        <time>2021-06-11T14:11:59Z</time>
      </trkpt>
      <trkpt lat="37.655243" lon="-1.689399">
        <ele>323.351</ele>
        <time>2021-06-11T14:12:01Z</time>
      </trkpt>
      <trkpt lat="37.655038" lon="-1.689284">
        <ele>323.366</ele>
        <time>2021-06-11T14:12:03Z</time>
      </trkpt>
      <trkpt lat="37.654847" lon="-1.689186">
        <ele>323.367</ele>
        <time>2021-06-11T14:12:05Z</time>
      </trkpt>
      <trkpt lat="37.654765" lon="-1.689138">
        <ele>323.341</ele>
        <time>2021-06-11T14:12:06Z</time>
      </trkpt>
      <trkpt lat="37.654613" lon="-1.689049">
        <ele>323.324</ele>
        <time>2021-06-11T14:12:08Z</time>
      </trkpt>
      <trkpt lat="37.654484" lon="-1.688969">
        <ele>323.316</ele>
        <time>2021-06-11T14:12:10Z</time>
      </trkpt>
      <trkpt lat="37.654395" lon="-1.68894">
        <ele>323.376</ele>
        <time>2021-06-11T14:12:12Z</time>
      </trkpt>
      <trkpt lat="37.654348" lon="-1.688936">
        <ele>323.213</ele>
        <time>2021-06-11T14:12:22Z</time>
      </trkpt>
      <trkpt lat="37.654303" lon="-1.688885">
        <ele>321.808</ele>
        <time>2021-06-11T14:12:34Z</time>
      </trkpt>
      <trkpt lat="37.654251" lon="-1.688845">
        <ele>321.038</ele>
        <time>2021-06-11T14:12:36Z</time>
      </trkpt>
      <trkpt lat="37.654161" lon="-1.688782">
        <ele>320.526</ele>
        <time>2021-06-11T14:12:38Z</time>
      </trkpt>
      <trkpt lat="37.654034" lon="-1.688694">
        <ele>320.276</ele>
        <time>2021-06-11T14:12:40Z</time>
      </trkpt>
      <trkpt lat="37.653972" lon="-1.688656">
        <ele>320.084</ele>
        <time>2021-06-11T14:12:41Z</time>
      </trkpt>
      <trkpt lat="37.653851" lon="-1.68858">
        <ele>319.979</ele>
        <time>2021-06-11T14:12:43Z</time>
      </trkpt>
      <trkpt lat="37.653794" lon="-1.688541">
        <ele>319.810</ele>
        <time>2021-06-11T14:12:44Z</time>
      </trkpt>
      <trkpt lat="37.653683" lon="-1.688474">
        <ele>319.874</ele>
        <time>2021-06-11T14:12:46Z</time>
      </trkpt>
      <trkpt lat="37.653628" lon="-1.688443">
        <ele>319.877</ele>
        <time>2021-06-11T14:12:47Z</time>
      </trkpt>
      <trkpt lat="37.653523" lon="-1.688381">
        <ele>319.842</ele>
        <time>2021-06-11T14:12:49Z</time>
      </trkpt>
      <trkpt lat="37.653472" lon="-1.688354">
        <ele>319.822</ele>
        <time>2021-06-11T14:12:50Z</time>
      </trkpt>
      <trkpt lat="37.653422" lon="-1.688331">
        <ele>319.814</ele>
        <time>2021-06-11T14:12:51Z</time>
      </trkpt>
      <trkpt lat="37.653328" lon="-1.688284">
        <ele>319.808</ele>
        <time>2021-06-11T14:12:53Z</time>
      </trkpt>
      <trkpt lat="37.653263" lon="-1.688242">
        <ele>319.871</ele>
        <time>2021-06-11T14:12:55Z</time>
      </trkpt>
      <trkpt lat="37.653204" lon="-1.688211">
        <ele>319.849</ele>
        <time>2021-06-11T14:12:57Z</time>
      </trkpt>
      <trkpt lat="37.653154" lon="-1.68821">
        <ele>319.879</ele>
        <time>2021-06-11T14:13:00Z</time>
      </trkpt>
      <trkpt lat="37.6531" lon="-1.68819">
        <ele>318.547</ele>
        <time>2021-06-11T14:13:36Z</time>
      </trkpt>
      <trkpt lat="37.652947" lon="-1.688108">
        <ele>317.782</ele>
        <time>2021-06-11T14:13:38Z</time>
      </trkpt>
      <trkpt lat="37.652863" lon="-1.688053">
        <ele>317.243</ele>
        <time>2021-06-11T14:13:39Z</time>
      </trkpt>
      <trkpt lat="37.652674" lon="-1.687931">
        <ele>316.977</ele>
        <time>2021-06-11T14:13:41Z</time>
      </trkpt>
      <trkpt lat="37.652573" lon="-1.687866">
        <ele>316.730</ele>
        <time>2021-06-11T14:13:42Z</time>
      </trkpt>
      <trkpt lat="37.652472" lon="-1.687801">
        <ele>316.635</ele>
        <time>2021-06-11T14:13:43Z</time>
      </trkpt>
      <trkpt lat="37.652374" lon="-1.687743">
        <ele>316.586</ele>
        <time>2021-06-11T14:13:44Z</time>
      </trkpt>
      <trkpt lat="37.652191" lon="-1.687649">
        <ele>316.514</ele>
        <time>2021-06-11T14:13:46Z</time>
      </trkpt>
      <trkpt lat="37.652113" lon="-1.687603">
        <ele>316.508</ele>
        <time>2021-06-11T14:13:47Z</time>
      </trkpt>
      <trkpt lat="37.651982" lon="-1.687531">
        <ele>316.540</ele>
        <time>2021-06-11T14:13:49Z</time>
      </trkpt>
      <trkpt lat="37.651903" lon="-1.68749">
        <ele>316.558</ele>
        <time>2021-06-11T14:13:51Z</time>
      </trkpt>
      <trkpt lat="37.651835" lon="-1.687491">
        <ele>316.228</ele>
        <time>2021-06-11T14:15:29Z</time>
      </trkpt>
      <trkpt lat="37.651782" lon="-1.687452">
        <ele>316.066</ele>
        <time>2021-06-11T14:15:30Z</time>
      </trkpt>
      <trkpt lat="37.65171" lon="-1.687404">
        <ele>315.941</ele>
        <time>2021-06-11T14:15:31Z</time>
      </trkpt>
      <trkpt lat="37.651628" lon="-1.687349">
        <ele>315.822</ele>
        <time>2021-06-11T14:15:32Z</time>
      </trkpt>
      <trkpt lat="37.651444" lon="-1.687233">
        <ele>315.826</ele>
        <time>2021-06-11T14:15:34Z</time>
      </trkpt>
      <trkpt lat="37.651239" lon="-1.687112">
        <ele>315.829</ele>
        <time>2021-06-11T14:15:36Z</time>
      </trkpt>
      <trkpt lat="37.651028" lon="-1.686976">
        <ele>315.841</ele>
        <time>2021-06-11T14:15:38Z</time>
      </trkpt>
      <trkpt lat="37.650921" lon="-1.68691">
        <ele>315.881</ele>
        <time>2021-06-11T14:15:39Z</time>
      </trkpt>
      <trkpt lat="37.650705" lon="-1.686775">
        <ele>315.809</ele>
        <time>2021-06-11T14:15:41Z</time>
      </trkpt>
      <trkpt lat="37.650596" lon="-1.686707">
        <ele>315.808</ele>
        <time>2021-06-11T14:15:42Z</time>
      </trkpt>
      <trkpt lat="37.650486" lon="-1.686638">
        <ele>315.871</ele>
        <time>2021-06-11T14:15:43Z</time>
      </trkpt>
      <trkpt lat="37.650263" lon="-1.686496">
        <ele>315.849</ele>
        <time>2021-06-11T14:15:45Z</time>
      </trkpt>
      <trkpt lat="37.650036" lon="-1.68636">
        <ele>315.879</ele>
        <time>2021-06-11T14:15:47Z</time>
      </trkpt>
      <trkpt lat="37.64981" lon="-1.686223">
        <ele>315.897</ele>
        <time>2021-06-11T14:15:49Z</time>
      </trkpt>
      <trkpt lat="37.649586" lon="-1.686089">
        <ele>315.842</ele>
        <time>2021-06-11T14:15:51Z</time>
      </trkpt>
      <trkpt lat="37.649473" lon="-1.686025">
        <ele>315.833</ele>
        <time>2021-06-11T14:15:52Z</time>
      </trkpt>
      <trkpt lat="37.649244" lon="-1.685897">
        <ele>315.857</ele>
        <time>2021-06-11T14:15:54Z</time>
      </trkpt>
      <trkpt lat="37.649131" lon="-1.685829">
        <ele>315.840</ele>
        <time>2021-06-11T14:15:55Z</time>
      </trkpt>
      <trkpt lat="37.648905" lon="-1.685698">
        <ele>315.881</ele>
        <time>2021-06-11T14:15:57Z</time>
      </trkpt>
      <trkpt lat="37.648689" lon="-1.685567">
        <ele>315.861</ele>
        <time>2021-06-11T14:15:59Z</time>
      </trkpt>
      <trkpt lat="37.648586" lon="-1.685503">
        <ele>315.817</ele>
        <time>2021-06-11T14:16:00Z</time>
      </trkpt>
      <trkpt lat="37.648385" lon="-1.685379">
        <ele>315.808</ele>
        <time>2021-06-11T14:16:02Z</time>
      </trkpt>
      <trkpt lat="37.648284" lon="-1.685319">
        <ele>315.875</ele>
        <time>2021-06-11T14:16:03Z</time>
      </trkpt>
      <trkpt lat="37.648089" lon="-1.685205">
        <ele>315.863</ele>
        <time>2021-06-11T14:16:05Z</time>
      </trkpt>
      <trkpt lat="37.647897" lon="-1.685095">
        <ele>315.813</ele>
        <time>2021-06-11T14:16:07Z</time>
      </trkpt>
      <trkpt lat="37.647804" lon="-1.685038">
        <ele>315.881</ele>
        <time>2021-06-11T14:16:08Z</time>
      </trkpt>
      <trkpt lat="37.647712" lon="-1.684984">
        <ele>315.836</ele>
        <time>2021-06-11T14:16:09Z</time>
      </trkpt>
      <trkpt lat="37.647621" lon="-1.684931">
        <ele>315.827</ele>
        <time>2021-06-11T14:16:10Z</time>
      </trkpt>
      <trkpt lat="37.647435" lon="-1.684826">
        <ele>315.831</ele>
        <time>2021-06-11T14:16:12Z</time>
      </trkpt>
      <trkpt lat="37.647242" lon="-1.684715">
        <ele>315.844</ele>
        <time>2021-06-11T14:16:14Z</time>
      </trkpt>
      <trkpt lat="37.647148" lon="-1.684655">
        <ele>315.873</ele>
        <time>2021-06-11T14:16:15Z</time>
      </trkpt>
      <trkpt lat="37.646964" lon="-1.684546">
        <ele>315.885</ele>
        <time>2021-06-11T14:16:17Z</time>
      </trkpt>
      <trkpt lat="37.646789" lon="-1.684447">
        <ele>315.813</ele>
        <time>2021-06-11T14:16:19Z</time>
      </trkpt>
      <trkpt lat="37.646623" lon="-1.684348">
        <ele>315.808</ele>
        <time>2021-06-11T14:16:21Z</time>
      </trkpt>
      <trkpt lat="37.64645" lon="-1.684244">
        <ele>315.824</ele>
        <time>2021-06-11T14:16:23Z</time>
      </trkpt>
      <trkpt lat="37.64636" lon="-1.684194">
        <ele>315.892</ele>
        <time>2021-06-11T14:16:24Z</time>
      </trkpt>
      <trkpt lat="37.646188" lon="-1.684092">
        <ele>315.812</ele>
        <time>2021-06-11T14:16:26Z</time>
      </trkpt>
      <trkpt lat="37.646018" lon="-1.683992">
        <ele>315.840</ele>
        <time>2021-06-11T14:16:28Z</time>
      </trkpt>
      <trkpt lat="37.645932" lon="-1.683942">
        <ele>316.085</ele>
        <time>2021-06-11T14:16:29Z</time>
      </trkpt>
      <trkpt lat="37.64575" lon="-1.683838">
        <ele>316.446</ele>
        <time>2021-06-11T14:16:31Z</time>
      </trkpt>
      <trkpt lat="37.645654" lon="-1.683783">
        <ele>316.550</ele>
        <time>2021-06-11T14:16:32Z</time>
      </trkpt>
      <trkpt lat="37.645456" lon="-1.683674">
        <ele>316.973</ele>
        <time>2021-06-11T14:16:34Z</time>
      </trkpt>
      <trkpt lat="37.645353" lon="-1.683613">
        <ele>317.158</ele>
        <time>2021-06-11T14:16:35Z</time>
      </trkpt>
      <trkpt lat="37.64525" lon="-1.683552">
        <ele>317.052</ele>
        <time>2021-06-11T14:16:36Z</time>
      </trkpt>
      <trkpt lat="37.645048" lon="-1.683429">
        <ele>317.517</ele>
        <time>2021-06-11T14:16:38Z</time>
      </trkpt>
      <trkpt lat="37.644865" lon="-1.683322">
        <ele>317.608</ele>
        <time>2021-06-11T14:16:40Z</time>
      </trkpt>
      <trkpt lat="37.644782" lon="-1.683278">
        <ele>317.882</ele>
        <time>2021-06-11T14:16:41Z</time>
      </trkpt>
      <trkpt lat="37.644636" lon="-1.683191">
        <ele>317.870</ele>
        <time>2021-06-11T14:16:43Z</time>
      </trkpt>
      <trkpt lat="37.644568" lon="-1.683146">
        <ele>317.710</ele>
        <time>2021-06-11T14:16:44Z</time>
      </trkpt>
      <trkpt lat="37.644454" lon="-1.683064">
        <ele>317.658</ele>
        <time>2021-06-11T14:16:46Z</time>
      </trkpt>
      <trkpt lat="37.644377" lon="-1.68302">
        <ele>317.513</ele>
        <time>2021-06-11T14:16:48Z</time>
      </trkpt>
      <trkpt lat="37.644335" lon="-1.682999">
        <ele>317.754</ele>
        <time>2021-06-11T14:16:49Z</time>
      </trkpt>
      <trkpt lat="37.644281" lon="-1.682971">
        <ele>317.878</ele>
        <time>2021-06-11T14:16:50Z</time>
      </trkpt>
      <trkpt lat="37.644218" lon="-1.682934">
        <ele>317.941</ele>
        <time>2021-06-11T14:16:51Z</time>
      </trkpt>
      <trkpt lat="37.644073" lon="-1.682839">
        <ele>317.764</ele>
        <time>2021-06-11T14:16:53Z</time>
      </trkpt>
      <trkpt lat="37.643896" lon="-1.682733">
        <ele>317.206</ele>
        <time>2021-06-11T14:16:55Z</time>
      </trkpt>
      <trkpt lat="37.643708" lon="-1.682626">
        <ele>317.116</ele>
        <time>2021-06-11T14:16:57Z</time>
      </trkpt>
      <trkpt lat="37.64351" lon="-1.682508">
        <ele>316.908</ele>
        <time>2021-06-11T14:16:59Z</time>
      </trkpt>
      <trkpt lat="37.643293" lon="-1.682392">
        <ele>316.433</ele>
        <time>2021-06-11T14:17:01Z</time>
      </trkpt>
      <trkpt lat="37.643182" lon="-1.682329">
        <ele>315.941</ele>
        <time>2021-06-11T14:17:02Z</time>
      </trkpt>
      <trkpt lat="37.642953" lon="-1.682199">
        <ele>315.561</ele>
        <time>2021-06-11T14:17:04Z</time>
      </trkpt>
      <trkpt lat="37.64272" lon="-1.682059">
        <ele>315.149</ele>
        <time>2021-06-11T14:17:06Z</time>
      </trkpt>
      <trkpt lat="37.642483" lon="-1.681922">
        <ele>314.444</ele>
        <time>2021-06-11T14:17:08Z</time>
      </trkpt>
      <trkpt lat="37.642362" lon="-1.681856">
        <ele>314.135</ele>
        <time>2021-06-11T14:17:09Z</time>
      </trkpt>
      <trkpt lat="37.642244" lon="-1.68179">
        <ele>314.079</ele>
        <time>2021-06-11T14:17:10Z</time>
      </trkpt>
      <trkpt lat="37.64201" lon="-1.681647">
        <ele>313.872</ele>
        <time>2021-06-11T14:17:12Z</time>
      </trkpt>
      <trkpt lat="37.641768" lon="-1.681502">
        <ele>313.769</ele>
        <time>2021-06-11T14:17:14Z</time>
      </trkpt>
      <trkpt lat="37.641644" lon="-1.681429">
        <ele>313.504</ele>
        <time>2021-06-11T14:17:15Z</time>
      </trkpt>
      <trkpt lat="37.641522" lon="-1.681355">
        <ele>313.124</ele>
        <time>2021-06-11T14:17:16Z</time>
      </trkpt>
      <trkpt lat="37.641399" lon="-1.68128">
        <ele>313.408</ele>
        <time>2021-06-11T14:17:17Z</time>
      </trkpt>
      <trkpt lat="37.641275" lon="-1.681204">
        <ele>313.713</ele>
        <time>2021-06-11T14:17:18Z</time>
      </trkpt>
      <trkpt lat="37.641027" lon="-1.681056">
        <ele>313.661</ele>
        <time>2021-06-11T14:17:20Z</time>
      </trkpt>
      <trkpt lat="37.640902" lon="-1.680984">
        <ele>313.281</ele>
        <time>2021-06-11T14:17:21Z</time>
      </trkpt>
      <trkpt lat="37.640777" lon="-1.680912">
        <ele>313.289</ele>
        <time>2021-06-11T14:17:22Z</time>
      </trkpt>
      <trkpt lat="37.640527" lon="-1.680764">
        <ele>313.264</ele>
        <time>2021-06-11T14:17:24Z</time>
      </trkpt>
      <trkpt lat="37.640278" lon="-1.680621">
        <ele>313.295</ele>
        <time>2021-06-11T14:17:26Z</time>
      </trkpt>
      <trkpt lat="37.640157" lon="-1.680549">
        <ele>313.469</ele>
        <time>2021-06-11T14:17:27Z</time>
      </trkpt>
      <trkpt lat="37.640037" lon="-1.680476">
        <ele>313.272</ele>
        <time>2021-06-11T14:17:28Z</time>
      </trkpt>
      <trkpt lat="37.639917" lon="-1.680406">
        <ele>312.947</ele>
        <time>2021-06-11T14:17:29Z</time>
      </trkpt>
      <trkpt lat="37.639678" lon="-1.68027">
        <ele>312.429</ele>
        <time>2021-06-11T14:17:31Z</time>
      </trkpt>
      <trkpt lat="37.639449" lon="-1.68013">
        <ele>311.921</ele>
        <time>2021-06-11T14:17:33Z</time>
      </trkpt>
      <trkpt lat="37.639226" lon="-1.679996">
        <ele>311.608</ele>
        <time>2021-06-11T14:17:35Z</time>
      </trkpt>
      <trkpt lat="37.639114" lon="-1.679931">
        <ele>311.231</ele>
        <time>2021-06-11T14:17:36Z</time>
      </trkpt>
      <trkpt lat="37.638896" lon="-1.679803">
        <ele>310.939</ele>
        <time>2021-06-11T14:17:38Z</time>
      </trkpt>
      <trkpt lat="37.638677" lon="-1.679673">
        <ele>310.649</ele>
        <time>2021-06-11T14:17:40Z</time>
      </trkpt>
      <trkpt lat="37.638468" lon="-1.67955">
        <ele>310.697</ele>
        <time>2021-06-11T14:17:42Z</time>
      </trkpt>
      <trkpt lat="37.638277" lon="-1.679445">
        <ele>310.172</ele>
        <time>2021-06-11T14:17:44Z</time>
      </trkpt>
      <trkpt lat="37.638192" lon="-1.679392">
        <ele>310.363</ele>
        <time>2021-06-11T14:17:45Z</time>
      </trkpt>
      <trkpt lat="37.638113" lon="-1.67934">
        <ele>310.197</ele>
        <time>2021-06-11T14:17:46Z</time>
      </trkpt>
      <trkpt lat="37.637963" lon="-1.679248">
        <ele>310.080</ele>
        <time>2021-06-11T14:17:48Z</time>
      </trkpt>
      <trkpt lat="37.637825" lon="-1.679166">
        <ele>309.993</ele>
        <time>2021-06-11T14:17:50Z</time>
      </trkpt>
      <trkpt lat="37.637753" lon="-1.679132">
        <ele>310.165</ele>
        <time>2021-06-11T14:17:51Z</time>
      </trkpt>
      <trkpt lat="37.637592" lon="-1.679103">
        <ele>309.921</ele>
        <time>2021-06-11T14:17:53Z</time>
      </trkpt>
      <trkpt lat="37.637434" lon="-1.679023">
        <ele>310.008</ele>
        <time>2021-06-11T14:17:55Z</time>
      </trkpt>
      <trkpt lat="37.637357" lon="-1.678937">
        <ele>309.786</ele>
        <time>2021-06-11T14:17:56Z</time>
      </trkpt>
      <trkpt lat="37.637178" lon="-1.678778">
        <ele>310.144</ele>
        <time>2021-06-11T14:17:58Z</time>
      </trkpt>
      <trkpt lat="37.637076" lon="-1.678712">
        <ele>310.194</ele>
        <time>2021-06-11T14:17:59Z</time>
      </trkpt>
      <trkpt lat="37.636969" lon="-1.678647">
        <ele>310.382</ele>
        <time>2021-06-11T14:18:00Z</time>
      </trkpt>
      <trkpt lat="37.636745" lon="-1.678518">
        <ele>310.237</ele>
        <time>2021-06-11T14:18:02Z</time>
      </trkpt>
      <trkpt lat="37.636517" lon="-1.678391">
        <ele>310.018</ele>
        <time>2021-06-11T14:18:04Z</time>
      </trkpt>
      <trkpt lat="37.636404" lon="-1.678325">
        <ele>310.322</ele>
        <time>2021-06-11T14:18:05Z</time>
      </trkpt>
      <trkpt lat="37.636177" lon="-1.678184">
        <ele>310.275</ele>
        <time>2021-06-11T14:18:07Z</time>
      </trkpt>
      <trkpt lat="37.636064" lon="-1.678113">
        <ele>310.384</ele>
        <time>2021-06-11T14:18:08Z</time>
      </trkpt>
      <trkpt lat="37.635836" lon="-1.677973">
        <ele>310.507</ele>
        <time>2021-06-11T14:18:10Z</time>
      </trkpt>
      <trkpt lat="37.635607" lon="-1.677842">
        <ele>310.217</ele>
        <time>2021-06-11T14:18:12Z</time>
      </trkpt>
      <trkpt lat="37.635375" lon="-1.677719">
        <ele>310.008</ele>
        <time>2021-06-11T14:18:14Z</time>
      </trkpt>
      <trkpt lat="37.635258" lon="-1.677657">
        <ele>310.075</ele>
        <time>2021-06-11T14:18:15Z</time>
      </trkpt>
      <trkpt lat="37.635021" lon="-1.677532">
        <ele>309.423</ele>
        <time>2021-06-11T14:18:17Z</time>
      </trkpt>
      <trkpt lat="37.634776" lon="-1.677399">
        <ele>308.963</ele>
        <time>2021-06-11T14:18:19Z</time>
      </trkpt>
      <trkpt lat="37.634532" lon="-1.677253">
        <ele>308.931</ele>
        <time>2021-06-11T14:18:21Z</time>
      </trkpt>
      <trkpt lat="37.634409" lon="-1.677176">
        <ele>308.966</ele>
        <time>2021-06-11T14:18:22Z</time>
      </trkpt>
      <trkpt lat="37.634161" lon="-1.67703">
        <ele>308.387</ele>
        <time>2021-06-11T14:18:24Z</time>
      </trkpt>
      <trkpt lat="37.634035" lon="-1.676958">
        <ele>308.191</ele>
        <time>2021-06-11T14:18:25Z</time>
      </trkpt>
      <trkpt lat="37.633908" lon="-1.676884">
        <ele>307.974</ele>
        <time>2021-06-11T14:18:26Z</time>
      </trkpt>
      <trkpt lat="37.633662" lon="-1.676727">
        <ele>307.859</ele>
        <time>2021-06-11T14:18:28Z</time>
      </trkpt>
      <trkpt lat="37.633405" lon="-1.676582">
        <ele>307.703</ele>
        <time>2021-06-11T14:18:30Z</time>
      </trkpt>
      <trkpt lat="37.633278" lon="-1.676509">
        <ele>307.223</ele>
        <time>2021-06-11T14:18:31Z</time>
      </trkpt>
      <trkpt lat="37.633036" lon="-1.676364">
        <ele>307.108</ele>
        <time>2021-06-11T14:18:33Z</time>
      </trkpt>
      <trkpt lat="37.632792" lon="-1.676225">
        <ele>306.662</ele>
        <time>2021-06-11T14:18:35Z</time>
      </trkpt>
      <trkpt lat="37.632548" lon="-1.676079">
        <ele>306.510</ele>
        <time>2021-06-11T14:18:37Z</time>
      </trkpt>
      <trkpt lat="37.632428" lon="-1.676004">
        <ele>306.410</ele>
        <time>2021-06-11T14:18:38Z</time>
      </trkpt>
      <trkpt lat="37.632307" lon="-1.675931">
        <ele>306.598</ele>
        <time>2021-06-11T14:18:39Z</time>
      </trkpt>
      <trkpt lat="37.632057" lon="-1.675792">
        <ele>306.533</ele>
        <time>2021-06-11T14:18:41Z</time>
      </trkpt>
      <trkpt lat="37.63193" lon="-1.675718">
        <ele>306.044</ele>
        <time>2021-06-11T14:18:42Z</time>
      </trkpt>
      <trkpt lat="37.631674" lon="-1.675566">
        <ele>306.268</ele>
        <time>2021-06-11T14:18:44Z</time>
      </trkpt>
      <trkpt lat="37.631538" lon="-1.675492">
        <ele>306.611</ele>
        <time>2021-06-11T14:18:45Z</time>
      </trkpt>
      <trkpt lat="37.631279" lon="-1.675328">
        <ele>306.674</ele>
        <time>2021-06-11T14:18:47Z</time>
      </trkpt>
      <trkpt lat="37.631022" lon="-1.675169">
        <ele>306.056</ele>
        <time>2021-06-11T14:18:49Z</time>
      </trkpt>
      <trkpt lat="37.630773" lon="-1.675012">
        <ele>305.821</ele>
        <time>2021-06-11T14:18:51Z</time>
      </trkpt>
      <trkpt lat="37.63065" lon="-1.674934">
        <ele>305.708</ele>
        <time>2021-06-11T14:18:52Z</time>
      </trkpt>
      <trkpt lat="37.630405" lon="-1.674785">
        <ele>305.764</ele>
        <time>2021-06-11T14:18:54Z</time>
      </trkpt>
      <trkpt lat="37.630286" lon="-1.674712">
        <ele>305.812</ele>
        <time>2021-06-11T14:18:55Z</time>
      </trkpt>
      <trkpt lat="37.630174" lon="-1.674643">
        <ele>305.972</ele>
        <time>2021-06-11T14:18:56Z</time>
      </trkpt>
      <trkpt lat="37.629963" lon="-1.674524">
        <ele>306.010</ele>
        <time>2021-06-11T14:18:58Z</time>
      </trkpt>
      <trkpt lat="37.629859" lon="-1.674472">
        <ele>306.095</ele>
        <time>2021-06-11T14:18:59Z</time>
      </trkpt>
      <trkpt lat="37.629651" lon="-1.674389">
        <ele>306.296</ele>
        <time>2021-06-11T14:19:01Z</time>
      </trkpt>
      <trkpt lat="37.629546" lon="-1.674336">
        <ele>306.140</ele>
        <time>2021-06-11T14:19:02Z</time>
      </trkpt>
      <trkpt lat="37.629441" lon="-1.674272">
        <ele>306.373</ele>
        <time>2021-06-11T14:19:03Z</time>
      </trkpt>
      <trkpt lat="37.629335" lon="-1.6742">
        <ele>306.234</ele>
        <time>2021-06-11T14:19:04Z</time>
      </trkpt>
      <trkpt lat="37.629124" lon="-1.674032">
        <ele>305.955</ele>
        <time>2021-06-11T14:19:06Z</time>
      </trkpt>
      <trkpt lat="37.628888" lon="-1.673878">
        <ele>306.110</ele>
        <time>2021-06-11T14:19:08Z</time>
      </trkpt>
      <trkpt lat="37.628765" lon="-1.673808">
        <ele>305.908</ele>
        <time>2021-06-11T14:19:09Z</time>
      </trkpt>
      <trkpt lat="37.62864" lon="-1.67374">
        <ele>306.050</ele>
        <time>2021-06-11T14:19:10Z</time>
      </trkpt>
      <trkpt lat="37.628398" lon="-1.673597">
        <ele>305.858</ele>
        <time>2021-06-11T14:19:12Z</time>
      </trkpt>
      <trkpt lat="37.62828" lon="-1.673523">
        <ele>306.198</ele>
        <time>2021-06-11T14:19:13Z</time>
      </trkpt>
      <trkpt lat="37.628039" lon="-1.673377">
        <ele>306.286</ele>
        <time>2021-06-11T14:19:15Z</time>
      </trkpt>
      <trkpt lat="37.627917" lon="-1.673305">
        <ele>306.211</ele>
        <time>2021-06-11T14:19:16Z</time>
      </trkpt>
      <trkpt lat="37.627793" lon="-1.673239">
        <ele>306.042</ele>
        <time>2021-06-11T14:19:17Z</time>
      </trkpt>
      <trkpt lat="37.62767" lon="-1.673169">
        <ele>306.016</ele>
        <time>2021-06-11T14:19:18Z</time>
      </trkpt>
      <trkpt lat="37.627423" lon="-1.673027">
        <ele>306.389</ele>
        <time>2021-06-11T14:19:20Z</time>
      </trkpt>
      <trkpt lat="37.62718" lon="-1.672889">
        <ele>306.291</ele>
        <time>2021-06-11T14:19:22Z</time>
      </trkpt>
      <trkpt lat="37.627064" lon="-1.672822">
        <ele>305.981</ele>
        <time>2021-06-11T14:19:23Z</time>
      </trkpt>
      <trkpt lat="37.62695" lon="-1.672756">
        <ele>305.719</ele>
        <time>2021-06-11T14:19:24Z</time>
      </trkpt>
      <trkpt lat="37.626842" lon="-1.672692">
        <ele>305.608</ele>
        <time>2021-06-11T14:19:25Z</time>
      </trkpt>
      <trkpt lat="37.626638" lon="-1.672575">
        <ele>305.836</ele>
        <time>2021-06-11T14:19:27Z</time>
      </trkpt>
      <trkpt lat="37.626545" lon="-1.672522">
        <ele>305.814</ele>
        <time>2021-06-11T14:19:28Z</time>
      </trkpt>
      <trkpt lat="37.626371" lon="-1.672426">
        <ele>306.024</ele>
        <time>2021-06-11T14:19:30Z</time>
      </trkpt>
      <trkpt lat="37.626204" lon="-1.672365">
        <ele>306.172</ele>
        <time>2021-06-11T14:19:32Z</time>
      </trkpt>
      <trkpt lat="37.626122" lon="-1.672368">
        <ele>306.017</ele>
        <time>2021-06-11T14:19:33Z</time>
      </trkpt>
      <trkpt lat="37.625972" lon="-1.672423">
        <ele>306.088</ele>
        <time>2021-06-11T14:19:35Z</time>
      </trkpt>
      <trkpt lat="37.625903" lon="-1.672422">
        <ele>305.962</ele>
        <time>2021-06-11T14:19:36Z</time>
      </trkpt>
      <trkpt lat="37.625804" lon="-1.672305">
        <ele>306.195</ele>
        <time>2021-06-11T14:19:38Z</time>
      </trkpt>
      <trkpt lat="37.625774" lon="-1.672209">
        <ele>306.245</ele>
        <time>2021-06-11T14:19:39Z</time>
      </trkpt>
      <trkpt lat="37.625736" lon="-1.67211">
        <ele>306.247</ele>
        <time>2021-06-11T14:19:40Z</time>
      </trkpt>
      <trkpt lat="37.625593" lon="-1.671947">
        <ele>306.011</ele>
        <time>2021-06-11T14:19:42Z</time>
      </trkpt>
      <trkpt lat="37.625497" lon="-1.671878">
        <ele>306.108</ele>
        <time>2021-06-11T14:19:43Z</time>
      </trkpt>
      <trkpt lat="37.625289" lon="-1.671755">
        <ele>305.931</ele>
        <time>2021-06-11T14:19:45Z</time>
      </trkpt>
      <trkpt lat="37.62507" lon="-1.671641">
        <ele>305.289</ele>
        <time>2021-06-11T14:19:47Z</time>
      </trkpt>
      <trkpt lat="37.624841" lon="-1.671512">
        <ele>305.279</ele>
        <time>2021-06-11T14:19:49Z</time>
      </trkpt>
      <trkpt lat="37.624722" lon="-1.671441">
        <ele>305.557</ele>
        <time>2021-06-11T14:19:50Z</time>
      </trkpt>
      <trkpt lat="37.624483" lon="-1.671297">
        <ele>305.352</ele>
        <time>2021-06-11T14:19:52Z</time>
      </trkpt>
      <trkpt lat="37.624361" lon="-1.671224">
        <ele>305.763</ele>
        <time>2021-06-11T14:19:53Z</time>
      </trkpt>
      <trkpt lat="37.624109" lon="-1.671089">
        <ele>305.477</ele>
        <time>2021-06-11T14:19:55Z</time>
      </trkpt>
      <trkpt lat="37.623856" lon="-1.670943">
        <ele>305.340</ele>
        <time>2021-06-11T14:19:57Z</time>
      </trkpt>
      <trkpt lat="37.623727" lon="-1.670868">
        <ele>305.012</ele>
        <time>2021-06-11T14:19:58Z</time>
      </trkpt>
      <trkpt lat="37.62347" lon="-1.670723">
        <ele>304.532</ele>
        <time>2021-06-11T14:20:00Z</time>
      </trkpt>
      <trkpt lat="37.623341" lon="-1.670652">
        <ele>304.105</ele>
        <time>2021-06-11T14:20:01Z</time>
      </trkpt>
      <trkpt lat="37.623083" lon="-1.670501">
        <ele>304.008</ele>
        <time>2021-06-11T14:20:03Z</time>
      </trkpt>
      <trkpt lat="37.622956" lon="-1.670424">
        <ele>303.878</ele>
        <time>2021-06-11T14:20:04Z</time>
      </trkpt>
      <trkpt lat="37.622708" lon="-1.670271">
        <ele>303.776</ele>
        <time>2021-06-11T14:20:06Z</time>
      </trkpt>
      <trkpt lat="37.622585" lon="-1.670198">
        <ele>303.896</ele>
        <time>2021-06-11T14:20:07Z</time>
      </trkpt>
      <trkpt lat="37.622358" lon="-1.670059">
        <ele>303.744</ele>
        <time>2021-06-11T14:20:09Z</time>
      </trkpt>
      <trkpt lat="37.622146" lon="-1.66993">
        <ele>303.769</ele>
        <time>2021-06-11T14:20:11Z</time>
      </trkpt>
      <trkpt lat="37.622038" lon="-1.669868">
        <ele>303.690</ele>
        <time>2021-06-11T14:20:12Z</time>
      </trkpt>
      <trkpt lat="37.621809" lon="-1.669764">
        <ele>303.774</ele>
        <time>2021-06-11T14:20:14Z</time>
      </trkpt>
      <trkpt lat="37.621571" lon="-1.669649">
        <ele>304.297</ele>
        <time>2021-06-11T14:20:16Z</time>
      </trkpt>
      <trkpt lat="37.621335" lon="-1.669496">
        <ele>303.824</ele>
        <time>2021-06-11T14:20:18Z</time>
      </trkpt>
      <trkpt lat="37.62109" lon="-1.669341">
        <ele>303.704</ele>
        <time>2021-06-11T14:20:20Z</time>
      </trkpt>
      <trkpt lat="37.620844" lon="-1.669174">
        <ele>303.714</ele>
        <time>2021-06-11T14:20:22Z</time>
      </trkpt>
      <trkpt lat="37.62059" lon="-1.669009">
        <ele>303.308</ele>
        <time>2021-06-11T14:20:24Z</time>
      </trkpt>
      <trkpt lat="37.620326" lon="-1.668851">
        <ele>303.359</ele>
        <time>2021-06-11T14:20:26Z</time>
      </trkpt>
      <trkpt lat="37.620054" lon="-1.668693">
        <ele>303.497</ele>
        <time>2021-06-11T14:20:28Z</time>
      </trkpt>
      <trkpt lat="37.619914" lon="-1.668613">
        <ele>303.327</ele>
        <time>2021-06-11T14:20:29Z</time>
      </trkpt>
      <trkpt lat="37.619631" lon="-1.668451">
        <ele>303.685</ele>
        <time>2021-06-11T14:20:31Z</time>
      </trkpt>
      <trkpt lat="37.619351" lon="-1.668288">
        <ele>303.680</ele>
        <time>2021-06-11T14:20:33Z</time>
      </trkpt>
      <trkpt lat="37.619208" lon="-1.668212">
        <ele>303.591</ele>
        <time>2021-06-11T14:20:34Z</time>
      </trkpt>
      <trkpt lat="37.618921" lon="-1.668063">
        <ele>303.245</ele>
        <time>2021-06-11T14:20:36Z</time>
      </trkpt>
      <trkpt lat="37.618642" lon="-1.667905">
        <ele>303.118</ele>
        <time>2021-06-11T14:20:38Z</time>
      </trkpt>
      <trkpt lat="37.618375" lon="-1.667742">
        <ele>303.195</ele>
        <time>2021-06-11T14:20:40Z</time>
      </trkpt>
      <trkpt lat="37.618244" lon="-1.667665">
        <ele>303.149</ele>
        <time>2021-06-11T14:20:41Z</time>
      </trkpt>
      <trkpt lat="37.617989" lon="-1.667511">
        <ele>303.023</ele>
        <time>2021-06-11T14:20:43Z</time>
      </trkpt>
      <trkpt lat="37.617736" lon="-1.667364">
        <ele>303.108</ele>
        <time>2021-06-11T14:20:45Z</time>
      </trkpt>
      <trkpt lat="37.617486" lon="-1.66722">
        <ele>303.246</ele>
        <time>2021-06-11T14:20:47Z</time>
      </trkpt>
      <trkpt lat="37.617363" lon="-1.667148">
        <ele>303.244</ele>
        <time>2021-06-11T14:20:48Z</time>
      </trkpt>
      <trkpt lat="37.617239" lon="-1.667076">
        <ele>303.374</ele>
        <time>2021-06-11T14:20:49Z</time>
      </trkpt>
      <trkpt lat="37.617001" lon="-1.666925">
        <ele>303.082</ele>
        <time>2021-06-11T14:20:51Z</time>
      </trkpt>
      <trkpt lat="37.616759" lon="-1.666778">
        <ele>302.897</ele>
        <time>2021-06-11T14:20:53Z</time>
      </trkpt>
      <trkpt lat="37.616638" lon="-1.666703">
        <ele>302.748</ele>
        <time>2021-06-11T14:20:54Z</time>
      </trkpt>
      <trkpt lat="37.616517" lon="-1.666627">
        <ele>302.832</ele>
        <time>2021-06-11T14:20:55Z</time>
      </trkpt>
      <trkpt lat="37.616285" lon="-1.666482">
        <ele>303.165</ele>
        <time>2021-06-11T14:20:57Z</time>
      </trkpt>
      <trkpt lat="37.616079" lon="-1.666351">
        <ele>303.683</ele>
        <time>2021-06-11T14:20:59Z</time>
      </trkpt>
      <trkpt lat="37.615989" lon="-1.666293">
        <ele>303.525</ele>
        <time>2021-06-11T14:21:00Z</time>
      </trkpt>
      <trkpt lat="37.615818" lon="-1.666199">
        <ele>303.517</ele>
        <time>2021-06-11T14:21:02Z</time>
      </trkpt>
      <trkpt lat="37.61573" lon="-1.666157">
        <ele>303.508</ele>
        <time>2021-06-11T14:21:03Z</time>
      </trkpt>
      <trkpt lat="37.615636" lon="-1.666113">
        <ele>303.295</ele>
        <time>2021-06-11T14:21:04Z</time>
      </trkpt>
      <trkpt lat="37.615443" lon="-1.665997">
        <ele>303.563</ele>
        <time>2021-06-11T14:21:06Z</time>
      </trkpt>
      <trkpt lat="37.615239" lon="-1.665867">
        <ele>303.813</ele>
        <time>2021-06-11T14:21:08Z</time>
      </trkpt>
      <trkpt lat="37.615134" lon="-1.665802">
        <ele>304.051</ele>
        <time>2021-06-11T14:21:09Z</time>
      </trkpt>
      <trkpt lat="37.614913" lon="-1.665675">
        <ele>304.326</ele>
        <time>2021-06-11T14:21:11Z</time>
      </trkpt>
      <trkpt lat="37.61468" lon="-1.665535">
        <ele>304.197</ele>
        <time>2021-06-11T14:21:13Z</time>
      </trkpt>
      <trkpt lat="37.614558" lon="-1.665464">
        <ele>304.431</ele>
        <time>2021-06-11T14:21:14Z</time>
      </trkpt>
      <trkpt lat="37.614307" lon="-1.665318">
        <ele>304.314</ele>
        <time>2021-06-11T14:21:16Z</time>
      </trkpt>
      <trkpt lat="37.614178" lon="-1.665242">
        <ele>304.287</ele>
        <time>2021-06-11T14:21:17Z</time>
      </trkpt>
      <trkpt lat="37.614048" lon="-1.665163">
        <ele>303.942</ele>
        <time>2021-06-11T14:21:18Z</time>
      </trkpt>
      <trkpt lat="37.613781" lon="-1.66501">
        <ele>304.026</ele>
        <time>2021-06-11T14:21:20Z</time>
      </trkpt>
      <trkpt lat="37.613648" lon="-1.664928">
        <ele>304.108</ele>
        <time>2021-06-11T14:21:21Z</time>
      </trkpt>
      <trkpt lat="37.613377" lon="-1.664765">
        <ele>303.835</ele>
        <time>2021-06-11T14:21:23Z</time>
      </trkpt>
      <trkpt lat="37.613098" lon="-1.664607">
        <ele>303.653</ele>
        <time>2021-06-11T14:21:25Z</time>
      </trkpt>
      <trkpt lat="37.612817" lon="-1.664446">
        <ele>303.483</ele>
        <time>2021-06-11T14:21:27Z</time>
      </trkpt>
      <trkpt lat="37.612534" lon="-1.664282">
        <ele>303.031</ele>
        <time>2021-06-11T14:21:29Z</time>
      </trkpt>
      <trkpt lat="37.61239" lon="-1.664197">
        <ele>303.096</ele>
        <time>2021-06-11T14:21:30Z</time>
      </trkpt>
      <trkpt lat="37.612106" lon="-1.664021">
        <ele>302.777</ele>
        <time>2021-06-11T14:21:32Z</time>
      </trkpt>
      <trkpt lat="37.611963" lon="-1.663934">
        <ele>302.441</ele>
        <time>2021-06-11T14:21:33Z</time>
      </trkpt>
      <trkpt lat="37.611819" lon="-1.663848">
        <ele>302.854</ele>
        <time>2021-06-11T14:21:34Z</time>
      </trkpt>
      <trkpt lat="37.611528" lon="-1.663679">
        <ele>303.088</ele>
        <time>2021-06-11T14:21:36Z</time>
      </trkpt>
      <trkpt lat="37.611239" lon="-1.663505">
        <ele>302.924</ele>
        <time>2021-06-11T14:21:38Z</time>
      </trkpt>
      <trkpt lat="37.610947" lon="-1.663327">
        <ele>303.326</ele>
        <time>2021-06-11T14:21:40Z</time>
      </trkpt>
      <trkpt lat="37.610656" lon="-1.663151">
        <ele>303.308</ele>
        <time>2021-06-11T14:21:42Z</time>
      </trkpt>
      <trkpt lat="37.610509" lon="-1.663063">
        <ele>303.095</ele>
        <time>2021-06-11T14:21:43Z</time>
      </trkpt>
      <trkpt lat="37.610214" lon="-1.662892">
        <ele>302.753</ele>
        <time>2021-06-11T14:21:45Z</time>
      </trkpt>
      <trkpt lat="37.610067" lon="-1.662809">
        <ele>302.883</ele>
        <time>2021-06-11T14:21:46Z</time>
      </trkpt>
      <trkpt lat="37.60978" lon="-1.662642">
        <ele>303.081</ele>
        <time>2021-06-11T14:21:48Z</time>
      </trkpt>
      <trkpt lat="37.609499" lon="-1.662468">
        <ele>303.336</ele>
        <time>2021-06-11T14:21:50Z</time>
      </trkpt>
      <trkpt lat="37.609359" lon="-1.662379">
        <ele>303.757</ele>
        <time>2021-06-11T14:21:51Z</time>
      </trkpt>
      <trkpt lat="37.609075" lon="-1.662212">
        <ele>303.861</ele>
        <time>2021-06-11T14:21:53Z</time>
      </trkpt>
      <trkpt lat="37.608932" lon="-1.662131">
        <ele>304.034</ele>
        <time>2021-06-11T14:21:54Z</time>
      </trkpt>
      <trkpt lat="37.608654" lon="-1.661965">
        <ele>304.567</ele>
        <time>2021-06-11T14:21:56Z</time>
      </trkpt>
      <trkpt lat="37.608381" lon="-1.661802">
        <ele>304.881</ele>
        <time>2021-06-11T14:21:58Z</time>
      </trkpt>
      <trkpt lat="37.608112" lon="-1.661649">
        <ele>305.219</ele>
        <time>2021-06-11T14:22:00Z</time>
      </trkpt>
      <trkpt lat="37.607841" lon="-1.661495">
        <ele>305.008</ele>
        <time>2021-06-11T14:22:02Z</time>
      </trkpt>
      <trkpt lat="37.607572" lon="-1.66134">
        <ele>304.753</ele>
        <time>2021-06-11T14:22:04Z</time>
      </trkpt>
      <trkpt lat="37.607318" lon="-1.661192">
        <ele>304.591</ele>
        <time>2021-06-11T14:22:06Z</time>
      </trkpt>
      <trkpt lat="37.607198" lon="-1.661121">
        <ele>304.311</ele>
        <time>2021-06-11T14:22:07Z</time>
      </trkpt>
      <trkpt lat="37.606971" lon="-1.660991">
        <ele>304.019</ele>
        <time>2021-06-11T14:22:09Z</time>
      </trkpt>
      <trkpt lat="37.606763" lon="-1.66087">
        <ele>303.744</ele>
        <time>2021-06-11T14:22:11Z</time>
      </trkpt>
      <trkpt lat="37.606675" lon="-1.660806">
        <ele>303.685</ele>
        <time>2021-06-11T14:22:12Z</time>
      </trkpt>
      <trkpt lat="37.606499" lon="-1.660702">
        <ele>303.429</ele>
        <time>2021-06-11T14:22:14Z</time>
      </trkpt>
      <trkpt lat="37.606409" lon="-1.660652">
        <ele>303.382</ele>
        <time>2021-06-11T14:22:15Z</time>
      </trkpt>
      <trkpt lat="37.60624" lon="-1.660536">
        <ele>303.424</ele>
        <time>2021-06-11T14:22:17Z</time>
      </trkpt>
      <trkpt lat="37.606156" lon="-1.660487">
        <ele>303.204</ele>
        <time>2021-06-11T14:22:18Z</time>
      </trkpt>
      <trkpt lat="37.605983" lon="-1.660402">
        <ele>304.014</ele>
        <time>2021-06-11T14:22:20Z</time>
      </trkpt>
      <trkpt lat="37.605896" lon="-1.660352">
        <ele>304.408</ele>
        <time>2021-06-11T14:22:21Z</time>
      </trkpt>
      <trkpt lat="37.605805" lon="-1.660299">
        <ele>304.869</ele>
        <time>2021-06-11T14:22:22Z</time>
      </trkpt>
      <trkpt lat="37.605615" lon="-1.66019">
        <ele>305.037</ele>
        <time>2021-06-11T14:22:24Z</time>
      </trkpt>
      <trkpt lat="37.605431" lon="-1.660078">
        <ele>305.317</ele>
        <time>2021-06-11T14:22:26Z</time>
      </trkpt>
      <trkpt lat="37.605244" lon="-1.659968">
        <ele>305.625</ele>
        <time>2021-06-11T14:22:28Z</time>
      </trkpt>
      <trkpt lat="37.605052" lon="-1.659861">
        <ele>305.710</ele>
        <time>2021-06-11T14:22:30Z</time>
      </trkpt>
      <trkpt lat="37.604862" lon="-1.65975">
        <ele>305.681</ele>
        <time>2021-06-11T14:22:32Z</time>
      </trkpt>
      <trkpt lat="37.604662" lon="-1.659637">
        <ele>306.085</ele>
        <time>2021-06-11T14:22:34Z</time>
      </trkpt>
      <trkpt lat="37.604451" lon="-1.659514">
        <ele>306.428</ele>
        <time>2021-06-11T14:22:36Z</time>
      </trkpt>
      <trkpt lat="37.604343" lon="-1.659449">
        <ele>306.855</ele>
        <time>2021-06-11T14:22:37Z</time>
      </trkpt>
      <trkpt lat="37.604231" lon="-1.659383">
        <ele>307.007</ele>
        <time>2021-06-11T14:22:38Z</time>
      </trkpt>
      <trkpt lat="37.604115" lon="-1.659317">
        <ele>307.417</ele>
        <time>2021-06-11T14:22:39Z</time>
      </trkpt>
      <trkpt lat="37.603882" lon="-1.659171">
        <ele>307.008</ele>
        <time>2021-06-11T14:22:41Z</time>
      </trkpt>
      <trkpt lat="37.603762" lon="-1.659096">
        <ele>307.252</ele>
        <time>2021-06-11T14:22:42Z</time>
      </trkpt>
      <trkpt lat="37.603519" lon="-1.658947">
        <ele>307.490</ele>
        <time>2021-06-11T14:22:44Z</time>
      </trkpt>
      <trkpt lat="37.603397" lon="-1.658872">
        <ele>307.710</ele>
        <time>2021-06-11T14:22:45Z</time>
      </trkpt>
      <trkpt lat="37.603275" lon="-1.658798">
        <ele>308.198</ele>
        <time>2021-06-11T14:22:46Z</time>
      </trkpt>
      <trkpt lat="37.603149" lon="-1.658727">
        <ele>308.633</ele>
        <time>2021-06-11T14:22:47Z</time>
      </trkpt>
      <trkpt lat="37.602896" lon="-1.658585">
        <ele>308.874</ele>
        <time>2021-06-11T14:22:49Z</time>
      </trkpt>
      <trkpt lat="37.602769" lon="-1.658514">
        <ele>309.198</ele>
        <time>2021-06-11T14:22:50Z</time>
      </trkpt>
      <trkpt lat="37.602641" lon="-1.658443">
        <ele>309.331</ele>
        <time>2021-06-11T14:22:51Z</time>
      </trkpt>
      <trkpt lat="37.602387" lon="-1.658294">
        <ele>309.599</ele>
        <time>2021-06-11T14:22:53Z</time>
      </trkpt>
      <trkpt lat="37.60214" lon="-1.65814">
        <ele>309.307</ele>
        <time>2021-06-11T14:22:55Z</time>
      </trkpt>
      <trkpt lat="37.601898" lon="-1.657985">
        <ele>309.327</ele>
        <time>2021-06-11T14:22:57Z</time>
      </trkpt>
      <trkpt lat="37.601777" lon="-1.65791">
        <ele>309.508</ele>
        <time>2021-06-11T14:22:58Z</time>
      </trkpt>
      <trkpt lat="37.601541" lon="-1.65777">
        <ele>309.886</ele>
        <time>2021-06-11T14:23:00Z</time>
      </trkpt>
      <trkpt lat="37.601304" lon="-1.657638">
        <ele>309.964</ele>
        <time>2021-06-11T14:23:02Z</time>
      </trkpt>
      <trkpt lat="37.601189" lon="-1.657571">
        <ele>310.264</ele>
        <time>2021-06-11T14:23:03Z</time>
      </trkpt>
      <trkpt lat="37.601079" lon="-1.657501">
        <ele>310.542</ele>
        <time>2021-06-11T14:23:04Z</time>
      </trkpt>
      <trkpt lat="37.60097" lon="-1.65743">
        <ele>310.827</ele>
        <time>2021-06-11T14:23:05Z</time>
      </trkpt>
      <trkpt lat="37.600864" lon="-1.657365">
        <ele>311.078</ele>
        <time>2021-06-11T14:23:06Z</time>
      </trkpt>
      <trkpt lat="37.600673" lon="-1.657251">
        <ele>311.572</ele>
        <time>2021-06-11T14:23:08Z</time>
      </trkpt>
      <trkpt lat="37.600505" lon="-1.657161">
        <ele>311.945</ele>
        <time>2021-06-11T14:23:10Z</time>
      </trkpt>
      <trkpt lat="37.600429" lon="-1.657126">
        <ele>312.086</ele>
        <time>2021-06-11T14:23:11Z</time>
      </trkpt>
      <trkpt lat="37.600275" lon="-1.657085">
        <ele>312.560</ele>
        <time>2021-06-11T14:23:13Z</time>
      </trkpt>
      <trkpt lat="37.600127" lon="-1.657047">
        <ele>312.726</ele>
        <time>2021-06-11T14:23:15Z</time>
      </trkpt>
      <trkpt lat="37.60006" lon="-1.656998">
        <ele>312.608</ele>
        <time>2021-06-11T14:23:16Z</time>
      </trkpt>
      <trkpt lat="37.599924" lon="-1.656845">
        <ele>312.835</ele>
        <time>2021-06-11T14:23:18Z</time>
      </trkpt>
      <trkpt lat="37.599846" lon="-1.656767">
        <ele>313.223</ele>
        <time>2021-06-11T14:23:19Z</time>
      </trkpt>
      <trkpt lat="37.599663" lon="-1.656634">
        <ele>313.763</ele>
        <time>2021-06-11T14:23:21Z</time>
      </trkpt>
      <trkpt lat="37.599562" lon="-1.65657">
        <ele>314.161</ele>
        <time>2021-06-11T14:23:22Z</time>
      </trkpt>
      <trkpt lat="37.599343" lon="-1.65645">
        <ele>314.776</ele>
        <time>2021-06-11T14:23:24Z</time>
      </trkpt>
      <trkpt lat="37.599229" lon="-1.656384">
        <ele>315.397</ele>
        <time>2021-06-11T14:23:25Z</time>
      </trkpt>
      <trkpt lat="37.599107" lon="-1.656319">
        <ele>315.621</ele>
        <time>2021-06-11T14:23:26Z</time>
      </trkpt>
      <trkpt lat="37.598872" lon="-1.656178">
        <ele>316.434</ele>
        <time>2021-06-11T14:23:28Z</time>
      </trkpt>
      <trkpt lat="37.598753" lon="-1.656117">
        <ele>316.811</ele>
        <time>2021-06-11T14:23:29Z</time>
      </trkpt>
      <trkpt lat="37.598521" lon="-1.655994">
        <ele>317.421</ele>
        <time>2021-06-11T14:23:31Z</time>
      </trkpt>
      <trkpt lat="37.598407" lon="-1.655924">
        <ele>317.603</ele>
        <time>2021-06-11T14:23:32Z</time>
      </trkpt>
      <trkpt lat="37.59818" lon="-1.655787">
        <ele>318.208</ele>
        <time>2021-06-11T14:23:34Z</time>
      </trkpt>
      <trkpt lat="37.598069" lon="-1.655717">
        <ele>318.268</ele>
        <time>2021-06-11T14:23:35Z</time>
      </trkpt>
      <trkpt lat="37.597968" lon="-1.655644">
        <ele>317.726</ele>
        <time>2021-06-11T14:23:36Z</time>
      </trkpt>
      <trkpt lat="37.597867" lon="-1.655579">
        <ele>317.436</ele>
        <time>2021-06-11T14:23:37Z</time>
      </trkpt>
      <trkpt lat="37.597669" lon="-1.655448">
        <ele>317.984</ele>
        <time>2021-06-11T14:23:39Z</time>
      </trkpt>
      <trkpt lat="37.597569" lon="-1.655386">
        <ele>318.419</ele>
        <time>2021-06-11T14:23:40Z</time>
      </trkpt>
      <trkpt lat="37.597463" lon="-1.655332">
        <ele>318.940</ele>
        <time>2021-06-11T14:23:41Z</time>
      </trkpt>
      <trkpt lat="37.597249" lon="-1.655217">
        <ele>319.564</ele>
        <time>2021-06-11T14:23:43Z</time>
      </trkpt>
      <trkpt lat="37.597041" lon="-1.655089">
        <ele>320.097</ele>
        <time>2021-06-11T14:23:45Z</time>
      </trkpt>
      <trkpt lat="37.596938" lon="-1.655028">
        <ele>320.555</ele>
        <time>2021-06-11T14:23:46Z</time>
      </trkpt>
      <trkpt lat="37.59673" lon="-1.654905">
        <ele>321.207</ele>
        <time>2021-06-11T14:23:48Z</time>
      </trkpt>
      <trkpt lat="37.596524" lon="-1.654794">
        <ele>321.717</ele>
        <time>2021-06-11T14:23:50Z</time>
      </trkpt>
      <trkpt lat="37.596346" lon="-1.654689">
        <ele>322.008</ele>
        <time>2021-06-11T14:23:52Z</time>
      </trkpt>
      <trkpt lat="37.596269" lon="-1.654641">
        <ele>322.442</ele>
        <time>2021-06-11T14:23:53Z</time>
      </trkpt>
      <trkpt lat="37.596124" lon="-1.654574">
        <ele>322.290</ele>
        <time>2021-06-11T14:23:55Z</time>
      </trkpt>
      <trkpt lat="37.595977" lon="-1.654536">
        <ele>323.090</ele>
        <time>2021-06-11T14:23:57Z</time>
      </trkpt>
      <trkpt lat="37.595898" lon="-1.65453">
        <ele>323.018</ele>
        <time>2021-06-11T14:23:58Z</time>
      </trkpt>
      <trkpt lat="37.595729" lon="-1.654588">
        <ele>322.993</ele>
        <time>2021-06-11T14:24:00Z</time>
      </trkpt>
      <trkpt lat="37.595637" lon="-1.654646">
        <ele>322.784</ele>
        <time>2021-06-11T14:24:01Z</time>
      </trkpt>
      <trkpt lat="37.595432" lon="-1.6548">
        <ele>322.868</ele>
        <time>2021-06-11T14:24:03Z</time>
      </trkpt>
      <trkpt lat="37.595319" lon="-1.654881">
        <ele>323.441</ele>
        <time>2021-06-11T14:24:04Z</time>
      </trkpt>
      <trkpt lat="37.595201" lon="-1.654969">
        <ele>323.652</ele>
        <time>2021-06-11T14:24:05Z</time>
      </trkpt>
      <trkpt lat="37.594961" lon="-1.655155">
        <ele>323.653</ele>
        <time>2021-06-11T14:24:07Z</time>
      </trkpt>
      <trkpt lat="37.594711" lon="-1.655349">
        <ele>323.908</ele>
        <time>2021-06-11T14:24:09Z</time>
      </trkpt>
      <trkpt lat="37.594461" lon="-1.65555">
        <ele>324.108</ele>
        <time>2021-06-11T14:24:11Z</time>
      </trkpt>
      <trkpt lat="37.594211" lon="-1.655747">
        <ele>324.482</ele>
        <time>2021-06-11T14:24:13Z</time>
      </trkpt>
      <trkpt lat="37.594087" lon="-1.655846">
        <ele>324.690</ele>
        <time>2021-06-11T14:24:14Z</time>
      </trkpt>
      <trkpt lat="37.593963" lon="-1.655944">
        <ele>324.630</ele>
        <time>2021-06-11T14:24:15Z</time>
      </trkpt>
      <trkpt lat="37.593708" lon="-1.656146">
        <ele>324.878</ele>
        <time>2021-06-11T14:24:17Z</time>
      </trkpt>
      <trkpt lat="37.593576" lon="-1.65625">
        <ele>324.953</ele>
        <time>2021-06-11T14:24:18Z</time>
      </trkpt>
      <trkpt lat="37.593308" lon="-1.656465">
        <ele>325.654</ele>
        <time>2021-06-11T14:24:20Z</time>
      </trkpt>
      <trkpt lat="37.593027" lon="-1.65668">
        <ele>326.298</ele>
        <time>2021-06-11T14:24:22Z</time>
      </trkpt>
      <trkpt lat="37.592879" lon="-1.656788">
        <ele>326.491</ele>
        <time>2021-06-11T14:24:23Z</time>
      </trkpt>
      <trkpt lat="37.592731" lon="-1.6569">
        <ele>326.043</ele>
        <time>2021-06-11T14:24:24Z</time>
      </trkpt>
      <trkpt lat="37.592433" lon="-1.657123">
        <ele>326.164</ele>
        <time>2021-06-11T14:24:26Z</time>
      </trkpt>
      <trkpt lat="37.592119" lon="-1.657347">
        <ele>326.510</ele>
        <time>2021-06-11T14:24:28Z</time>
      </trkpt>
      <trkpt lat="37.591974" lon="-1.657469">
        <ele>326.908</ele>
        <time>2021-06-11T14:24:29Z</time>
      </trkpt>
      <trkpt lat="37.591687" lon="-1.657706">
        <ele>327.591</ele>
        <time>2021-06-11T14:24:31Z</time>
      </trkpt>
      <trkpt lat="37.591545" lon="-1.657819">
        <ele>328.369</ele>
        <time>2021-06-11T14:24:32Z</time>
      </trkpt>
      <trkpt lat="37.591405" lon="-1.657929">
        <ele>328.829</ele>
        <time>2021-06-11T14:24:33Z</time>
      </trkpt>
      <trkpt lat="37.591122" lon="-1.658146">
        <ele>328.787</ele>
        <time>2021-06-11T14:24:35Z</time>
      </trkpt>
      <trkpt lat="37.590976" lon="-1.658255">
        <ele>328.842</ele>
        <time>2021-06-11T14:24:36Z</time>
      </trkpt>
      <trkpt lat="37.590684" lon="-1.658479">
        <ele>329.223</ele>
        <time>2021-06-11T14:24:38Z</time>
      </trkpt>
      <trkpt lat="37.590393" lon="-1.658712">
        <ele>328.857</ele>
        <time>2021-06-11T14:24:40Z</time>
      </trkpt>
      <trkpt lat="37.590244" lon="-1.65883">
        <ele>329.170</ele>
        <time>2021-06-11T14:24:41Z</time>
      </trkpt>
      <trkpt lat="37.590093" lon="-1.658948">
        <ele>329.214</ele>
        <time>2021-06-11T14:24:42Z</time>
      </trkpt>
      <trkpt lat="37.58978" lon="-1.659179">
        <ele>329.554</ele>
        <time>2021-06-11T14:24:44Z</time>
      </trkpt>
      <trkpt lat="37.589623" lon="-1.659294">
        <ele>329.609</ele>
        <time>2021-06-11T14:24:45Z</time>
      </trkpt>
      <trkpt lat="37.589309" lon="-1.659528">
        <ele>329.808</ele>
        <time>2021-06-11T14:24:47Z</time>
      </trkpt>
      <trkpt lat="37.589" lon="-1.659765">
        <ele>330.278</ele>
        <time>2021-06-11T14:24:49Z</time>
      </trkpt>
      <trkpt lat="37.58885" lon="-1.659883">
        <ele>330.846</ele>
        <time>2021-06-11T14:24:50Z</time>
      </trkpt>
      <trkpt lat="37.588698" lon="-1.66">
        <ele>331.266</ele>
        <time>2021-06-11T14:24:51Z</time>
      </trkpt>
      <trkpt lat="37.588548" lon="-1.660115">
        <ele>331.564</ele>
        <time>2021-06-11T14:24:52Z</time>
      </trkpt>
      <trkpt lat="37.588401" lon="-1.660227">
        <ele>332.039</ele>
        <time>2021-06-11T14:24:53Z</time>
      </trkpt>
      <trkpt lat="37.588106" lon="-1.660459">
        <ele>332.670</ele>
        <time>2021-06-11T14:24:55Z</time>
      </trkpt>
      <trkpt lat="37.587801" lon="-1.660699">
        <ele>333.184</ele>
        <time>2021-06-11T14:24:57Z</time>
      </trkpt>
      <trkpt lat="37.587644" lon="-1.660819">
        <ele>333.567</ele>
        <time>2021-06-11T14:24:58Z</time>
      </trkpt>
      <trkpt lat="37.587334" lon="-1.661055">
        <ele>333.566</ele>
        <time>2021-06-11T14:25:00Z</time>
      </trkpt>
      <trkpt lat="37.587014" lon="-1.661298">
        <ele>333.529</ele>
        <time>2021-06-11T14:25:02Z</time>
      </trkpt>
      <trkpt lat="37.586693" lon="-1.661549">
        <ele>333.821</ele>
        <time>2021-06-11T14:25:04Z</time>
      </trkpt>
      <trkpt lat="37.586534" lon="-1.661674">
        <ele>334.208</ele>
        <time>2021-06-11T14:25:05Z</time>
      </trkpt>
      <trkpt lat="37.586376" lon="-1.661798">
        <ele>334.463</ele>
        <time>2021-06-11T14:25:06Z</time>
      </trkpt>
      <trkpt lat="37.586054" lon="-1.662049">
        <ele>334.381</ele>
        <time>2021-06-11T14:25:08Z</time>
      </trkpt>
      <trkpt lat="37.58573" lon="-1.6623">
        <ele>334.221</ele>
        <time>2021-06-11T14:25:10Z</time>
      </trkpt>
      <trkpt lat="37.585567" lon="-1.662427">
        <ele>333.919</ele>
        <time>2021-06-11T14:25:11Z</time>
      </trkpt>
      <trkpt lat="37.585403" lon="-1.662556">
        <ele>333.764</ele>
        <time>2021-06-11T14:25:12Z</time>
      </trkpt>
      <trkpt lat="37.585079" lon="-1.662818">
        <ele>333.345</ele>
        <time>2021-06-11T14:25:14Z</time>
      </trkpt>
      <trkpt lat="37.584752" lon="-1.663084">
        <ele>333.859</ele>
        <time>2021-06-11T14:25:16Z</time>
      </trkpt>
      <trkpt lat="37.584589" lon="-1.663219">
        <ele>334.082</ele>
        <time>2021-06-11T14:25:17Z</time>
      </trkpt>
      <trkpt lat="37.584266" lon="-1.663481">
        <ele>333.564</ele>
        <time>2021-06-11T14:25:19Z</time>
      </trkpt>
      <trkpt lat="37.583949" lon="-1.663734">
        <ele>333.406</ele>
        <time>2021-06-11T14:25:21Z</time>
      </trkpt>
      <trkpt lat="37.58379" lon="-1.663861">
        <ele>333.116</ele>
        <time>2021-06-11T14:25:22Z</time>
      </trkpt>
      <trkpt lat="37.583469" lon="-1.664108">
        <ele>332.708</ele>
        <time>2021-06-11T14:25:24Z</time>
      </trkpt>
      <trkpt lat="37.583151" lon="-1.664355">
        <ele>332.543</ele>
        <time>2021-06-11T14:25:26Z</time>
      </trkpt>
      <trkpt lat="37.582837" lon="-1.664589">
        <ele>332.521</ele>
        <time>2021-06-11T14:25:28Z</time>
      </trkpt>
      <trkpt lat="37.582679" lon="-1.664706">
        <ele>332.311</ele>
        <time>2021-06-11T14:25:29Z</time>
      </trkpt>
      <trkpt lat="37.582366" lon="-1.664931">
        <ele>332.389</ele>
        <time>2021-06-11T14:25:31Z</time>
      </trkpt>
      <trkpt lat="37.582213" lon="-1.66504">
        <ele>332.754</ele>
        <time>2021-06-11T14:25:32Z</time>
      </trkpt>
      <trkpt lat="37.58192" lon="-1.665259">
        <ele>332.885</ele>
        <time>2021-06-11T14:25:34Z</time>
      </trkpt>
      <trkpt lat="37.581638" lon="-1.665478">
        <ele>332.989</ele>
        <time>2021-06-11T14:25:36Z</time>
      </trkpt>
      <trkpt lat="37.581358" lon="-1.665682">
        <ele>332.892</ele>
        <time>2021-06-11T14:25:38Z</time>
      </trkpt>
      <trkpt lat="37.581099" lon="-1.665894">
        <ele>332.662</ele>
        <time>2021-06-11T14:25:40Z</time>
      </trkpt>
      <trkpt lat="37.580963" lon="-1.666003">
        <ele>332.183</ele>
        <time>2021-06-11T14:25:41Z</time>
      </trkpt>
      <trkpt lat="37.580688" lon="-1.666204">
        <ele>332.211</ele>
        <time>2021-06-11T14:25:43Z</time>
      </trkpt>
      <trkpt lat="37.580549" lon="-1.666309">
        <ele>332.208</ele>
        <time>2021-06-11T14:25:44Z</time>
      </trkpt>
      <trkpt lat="37.580411" lon="-1.666411">
        <ele>332.333</ele>
        <time>2021-06-11T14:25:45Z</time>
      </trkpt>
      <trkpt lat="37.580141" lon="-1.666624">
        <ele>332.341</ele>
        <time>2021-06-11T14:25:47Z</time>
      </trkpt>
      <trkpt lat="37.580006" lon="-1.666734">
        <ele>332.141</ele>
        <time>2021-06-11T14:25:48Z</time>
      </trkpt>
      <trkpt lat="37.579742" lon="-1.666943">
        <ele>332.279</ele>
        <time>2021-06-11T14:25:50Z</time>
      </trkpt>
      <trkpt lat="37.579608" lon="-1.667047">
        <ele>331.744</ele>
        <time>2021-06-11T14:25:51Z</time>
      </trkpt>
      <trkpt lat="37.579474" lon="-1.667151">
        <ele>331.575</ele>
        <time>2021-06-11T14:25:52Z</time>
      </trkpt>
      <trkpt lat="37.579204" lon="-1.667358">
        <ele>331.829</ele>
        <time>2021-06-11T14:25:54Z</time>
      </trkpt>
      <trkpt lat="37.578935" lon="-1.667562">
        <ele>332.412</ele>
        <time>2021-06-11T14:25:56Z</time>
      </trkpt>
      <trkpt lat="37.578801" lon="-1.667665">
        <ele>332.836</ele>
        <time>2021-06-11T14:25:57Z</time>
      </trkpt>
      <trkpt lat="37.578534" lon="-1.66787">
        <ele>333.417</ele>
        <time>2021-06-11T14:25:59Z</time>
      </trkpt>
      <trkpt lat="37.578403" lon="-1.66797">
        <ele>333.718</ele>
        <time>2021-06-11T14:26:00Z</time>
      </trkpt>
      <trkpt lat="37.578144" lon="-1.668164">
        <ele>333.308</ele>
        <time>2021-06-11T14:26:02Z</time>
      </trkpt>
      <trkpt lat="37.577898" lon="-1.668335">
        <ele>333.620</ele>
        <time>2021-06-11T14:26:04Z</time>
      </trkpt>
      <trkpt lat="37.577786" lon="-1.668409">
        <ele>333.698</ele>
        <time>2021-06-11T14:26:05Z</time>
      </trkpt>
      <trkpt lat="37.577678" lon="-1.668483">
        <ele>333.538</ele>
        <time>2021-06-11T14:26:06Z</time>
      </trkpt>
      <trkpt lat="37.577579" lon="-1.668559">
        <ele>333.616</ele>
        <time>2021-06-11T14:26:07Z</time>
      </trkpt>
      <trkpt lat="37.577401" lon="-1.668716">
        <ele>333.751</ele>
        <time>2021-06-11T14:26:09Z</time>
      </trkpt>
      <trkpt lat="37.577321" lon="-1.668799">
        <ele>333.852</ele>
        <time>2021-06-11T14:26:10Z</time>
      </trkpt>
      <trkpt lat="37.577246" lon="-1.668889">
        <ele>334.196</ele>
        <time>2021-06-11T14:26:11Z</time>
      </trkpt>
      <trkpt lat="37.577179" lon="-1.668986">
        <ele>334.659</ele>
        <time>2021-06-11T14:26:12Z</time>
      </trkpt>
      <trkpt lat="37.577115" lon="-1.669084">
        <ele>335.026</ele>
        <time>2021-06-11T14:26:13Z</time>
      </trkpt>
      <trkpt lat="37.576937" lon="-1.669228">
        <ele>334.847</ele>
        <time>2021-06-11T14:26:15Z</time>
      </trkpt>
      <trkpt lat="37.576829" lon="-1.669269">
        <ele>334.411</ele>
        <time>2021-06-11T14:26:16Z</time>
      </trkpt>
      <trkpt lat="37.576602" lon="-1.669365">
        <ele>334.508</ele>
        <time>2021-06-11T14:26:18Z</time>
      </trkpt>
      <trkpt lat="37.576369" lon="-1.669527">
        <ele>334.299</ele>
        <time>2021-06-11T14:26:20Z</time>
      </trkpt>
      <trkpt lat="37.576251" lon="-1.669623">
        <ele>333.747</ele>
        <time>2021-06-11T14:26:21Z</time>
      </trkpt>
      <trkpt lat="37.575996" lon="-1.669824">
        <ele>333.487</ele>
        <time>2021-06-11T14:26:23Z</time>
      </trkpt>
      <trkpt lat="37.575725" lon="-1.670041">
        <ele>333.315</ele>
        <time>2021-06-11T14:26:25Z</time>
      </trkpt>
      <trkpt lat="37.575438" lon="-1.670263">
        <ele>333.040</ele>
        <time>2021-06-11T14:26:27Z</time>
      </trkpt>
      <trkpt lat="37.575139" lon="-1.670494">
        <ele>332.931</ele>
        <time>2021-06-11T14:26:29Z</time>
      </trkpt>
      <trkpt lat="37.574985" lon="-1.670615">
        <ele>332.745</ele>
        <time>2021-06-11T14:26:30Z</time>
      </trkpt>
      <trkpt lat="37.574832" lon="-1.670737">
        <ele>332.348</ele>
        <time>2021-06-11T14:26:31Z</time>
      </trkpt>
      <trkpt lat="37.574674" lon="-1.670856">
        <ele>332.064</ele>
        <time>2021-06-11T14:26:32Z</time>
      </trkpt>
      <trkpt lat="37.574362" lon="-1.671093">
        <ele>332.106</ele>
        <time>2021-06-11T14:26:34Z</time>
      </trkpt>
      <trkpt lat="37.574206" lon="-1.671214">
        <ele>332.216</ele>
        <time>2021-06-11T14:26:35Z</time>
      </trkpt>
      <trkpt lat="37.57405" lon="-1.671337">
        <ele>332.108</ele>
        <time>2021-06-11T14:26:36Z</time>
      </trkpt>
      <trkpt lat="37.573739" lon="-1.671584">
        <ele>332.683</ele>
        <time>2021-06-11T14:26:38Z</time>
      </trkpt>
      <trkpt lat="37.573575" lon="-1.671706">
        <ele>332.841</ele>
        <time>2021-06-11T14:26:39Z</time>
      </trkpt>
      <trkpt lat="37.573414" lon="-1.671827">
        <ele>332.811</ele>
        <time>2021-06-11T14:26:40Z</time>
      </trkpt>
      <trkpt lat="37.573256" lon="-1.671948">
        <ele>332.789</ele>
        <time>2021-06-11T14:26:41Z</time>
      </trkpt>
      <trkpt lat="37.572938" lon="-1.67219">
        <ele>332.564</ele>
        <time>2021-06-11T14:26:43Z</time>
      </trkpt>
      <trkpt lat="37.572778" lon="-1.672309">
        <ele>331.725</ele>
        <time>2021-06-11T14:26:44Z</time>
      </trkpt>
      <trkpt lat="37.572463" lon="-1.67255">
        <ele>331.559</ele>
        <time>2021-06-11T14:26:46Z</time>
      </trkpt>
      <trkpt lat="37.572306" lon="-1.672672">
        <ele>331.432</ele>
        <time>2021-06-11T14:26:47Z</time>
      </trkpt>
      <trkpt lat="37.571993" lon="-1.672915">
        <ele>330.642</ele>
        <time>2021-06-11T14:26:49Z</time>
      </trkpt>
      <trkpt lat="37.571833" lon="-1.673038">
        <ele>330.222</ele>
        <time>2021-06-11T14:26:50Z</time>
      </trkpt>
      <trkpt lat="37.571519" lon="-1.673284">
        <ele>329.714</ele>
        <time>2021-06-11T14:26:52Z</time>
      </trkpt>
      <trkpt lat="37.571363" lon="-1.673405">
        <ele>329.508</ele>
        <time>2021-06-11T14:26:53Z</time>
      </trkpt>
      <trkpt lat="37.571054" lon="-1.67365">
        <ele>329.681</ele>
        <time>2021-06-11T14:26:55Z</time>
      </trkpt>
      <trkpt lat="37.570746" lon="-1.673902">
        <ele>329.869</ele>
        <time>2021-06-11T14:26:57Z</time>
      </trkpt>
      <trkpt lat="37.570595" lon="-1.674027">
        <ele>329.969</ele>
        <time>2021-06-11T14:26:58Z</time>
      </trkpt>
      <trkpt lat="37.57044" lon="-1.674145">
        <ele>329.687</ele>
        <time>2021-06-11T14:26:59Z</time>
      </trkpt>
      <trkpt lat="37.570284" lon="-1.674263">
        <ele>329.532</ele>
        <time>2021-06-11T14:27:00Z</time>
      </trkpt>
      <trkpt lat="37.569974" lon="-1.674499">
        <ele>329.813</ele>
        <time>2021-06-11T14:27:02Z</time>
      </trkpt>
      <trkpt lat="37.569822" lon="-1.674618">
        <ele>330.077</ele>
        <time>2021-06-11T14:27:03Z</time>
      </trkpt>
      <trkpt lat="37.569668" lon="-1.674734">
        <ele>329.930</ele>
        <time>2021-06-11T14:27:04Z</time>
      </trkpt>
      <trkpt lat="37.569356" lon="-1.674976">
        <ele>330.315</ele>
        <time>2021-06-11T14:27:06Z</time>
      </trkpt>
      <trkpt lat="37.569197" lon="-1.675097">
        <ele>330.865</ele>
        <time>2021-06-11T14:27:07Z</time>
      </trkpt>
      <trkpt lat="37.568892" lon="-1.675333">
        <ele>330.611</ele>
        <time>2021-06-11T14:27:09Z</time>
      </trkpt>
      <trkpt lat="37.568594" lon="-1.675567">
        <ele>330.608</ele>
        <time>2021-06-11T14:27:11Z</time>
      </trkpt>
      <trkpt lat="37.568447" lon="-1.67568">
        <ele>330.698</ele>
        <time>2021-06-11T14:27:12Z</time>
      </trkpt>
      <trkpt lat="37.568297" lon="-1.67579">
        <ele>330.146</ele>
        <time>2021-06-11T14:27:13Z</time>
      </trkpt>
      <trkpt lat="37.568148" lon="-1.675898">
        <ele>329.436</ele>
        <time>2021-06-11T14:27:14Z</time>
      </trkpt>
      <trkpt lat="37.567855" lon="-1.676122">
        <ele>329.344</ele>
        <time>2021-06-11T14:27:16Z</time>
      </trkpt>
      <trkpt lat="37.567564" lon="-1.676347">
        <ele>329.139</ele>
        <time>2021-06-11T14:27:18Z</time>
      </trkpt>
      <trkpt lat="37.567263" lon="-1.676577">
        <ele>328.340</ele>
        <time>2021-06-11T14:27:20Z</time>
      </trkpt>
      <trkpt lat="37.567112" lon="-1.676694">
        <ele>328.194</ele>
        <time>2021-06-11T14:27:21Z</time>
      </trkpt>
      <trkpt lat="37.566964" lon="-1.676812">
        <ele>327.747</ele>
        <time>2021-06-11T14:27:22Z</time>
      </trkpt>
      <trkpt lat="37.566816" lon="-1.676928">
        <ele>327.769</ele>
        <time>2021-06-11T14:27:23Z</time>
      </trkpt>
      <trkpt lat="37.566515" lon="-1.677158">
        <ele>327.704</ele>
        <time>2021-06-11T14:27:25Z</time>
      </trkpt>
      <trkpt lat="37.566215" lon="-1.677385">
        <ele>327.524</ele>
        <time>2021-06-11T14:27:27Z</time>
      </trkpt>
      <trkpt lat="37.566069" lon="-1.677497">
        <ele>327.508</ele>
        <time>2021-06-11T14:27:28Z</time>
      </trkpt>
      <trkpt lat="37.565924" lon="-1.677609">
        <ele>327.553</ele>
        <time>2021-06-11T14:27:29Z</time>
      </trkpt>
      <trkpt lat="37.565651" lon="-1.677826">
        <ele>327.311</ele>
        <time>2021-06-11T14:27:31Z</time>
      </trkpt>
      <trkpt lat="37.565376" lon="-1.678044">
        <ele>327.341</ele>
        <time>2021-06-11T14:27:33Z</time>
      </trkpt>
      <trkpt lat="37.565091" lon="-1.678272">
        <ele>327.599</ele>
        <time>2021-06-11T14:27:35Z</time>
      </trkpt>
      <trkpt lat="37.564802" lon="-1.678489">
        <ele>327.234</ele>
        <time>2021-06-11T14:27:37Z</time>
      </trkpt>
      <trkpt lat="37.564656" lon="-1.678597">
        <ele>327.085</ele>
        <time>2021-06-11T14:27:38Z</time>
      </trkpt>
      <trkpt lat="37.56451" lon="-1.678712">
        <ele>326.619</ele>
        <time>2021-06-11T14:27:39Z</time>
      </trkpt>
      <trkpt lat="37.564218" lon="-1.678941">
        <ele>326.672</ele>
        <time>2021-06-11T14:27:41Z</time>
      </trkpt>
      <trkpt lat="37.563922" lon="-1.679167">
        <ele>326.697</ele>
        <time>2021-06-11T14:27:43Z</time>
      </trkpt>
      <trkpt lat="37.563771" lon="-1.679281">
        <ele>326.823</ele>
        <time>2021-06-11T14:27:44Z</time>
      </trkpt>
      <trkpt lat="37.563478" lon="-1.67951">
        <ele>327.125</ele>
        <time>2021-06-11T14:27:46Z</time>
      </trkpt>
      <trkpt lat="37.56318" lon="-1.679739">
        <ele>327.608</ele>
        <time>2021-06-11T14:27:48Z</time>
      </trkpt>
      <trkpt lat="37.56303" lon="-1.679856">
        <ele>327.766</ele>
        <time>2021-06-11T14:27:49Z</time>
      </trkpt>
      <trkpt lat="37.562731" lon="-1.680092">
        <ele>327.784</ele>
        <time>2021-06-11T14:27:51Z</time>
      </trkpt>
      <trkpt lat="37.562432" lon="-1.680324">
        <ele>327.774</ele>
        <time>2021-06-11T14:27:53Z</time>
      </trkpt>
      <trkpt lat="37.56228" lon="-1.680441">
        <ele>327.892</ele>
        <time>2021-06-11T14:27:54Z</time>
      </trkpt>
      <trkpt lat="37.561983" lon="-1.680676">
        <ele>327.637</ele>
        <time>2021-06-11T14:27:56Z</time>
      </trkpt>
      <trkpt lat="37.561835" lon="-1.680791">
        <ele>327.328</ele>
        <time>2021-06-11T14:27:57Z</time>
      </trkpt>
      <trkpt lat="37.561689" lon="-1.680908">
        <ele>327.522</ele>
        <time>2021-06-11T14:27:58Z</time>
      </trkpt>
      <trkpt lat="37.561403" lon="-1.681141">
        <ele>327.465</ele>
        <time>2021-06-11T14:28:00Z</time>
      </trkpt>
      <trkpt lat="37.56111" lon="-1.681366">
        <ele>327.467</ele>
        <time>2021-06-11T14:28:02Z</time>
      </trkpt>
      <trkpt lat="37.56082" lon="-1.681586">
        <ele>327.781</ele>
        <time>2021-06-11T14:28:04Z</time>
      </trkpt>
      <trkpt lat="37.560528" lon="-1.681806">
        <ele>327.919</ele>
        <time>2021-06-11T14:28:06Z</time>
      </trkpt>
      <trkpt lat="37.560381" lon="-1.681918">
        <ele>327.808</ele>
        <time>2021-06-11T14:28:07Z</time>
      </trkpt>
      <trkpt lat="37.560235" lon="-1.68203">
        <ele>328.133</ele>
        <time>2021-06-11T14:28:08Z</time>
      </trkpt>
      <trkpt lat="37.560088" lon="-1.682143">
        <ele>328.481</ele>
        <time>2021-06-11T14:28:09Z</time>
      </trkpt>
      <trkpt lat="37.559793" lon="-1.682368">
        <ele>328.991</ele>
        <time>2021-06-11T14:28:11Z</time>
      </trkpt>
      <trkpt lat="37.5595" lon="-1.682595">
        <ele>328.679</ele>
        <time>2021-06-11T14:28:13Z</time>
      </trkpt>
      <trkpt lat="37.5592" lon="-1.682824">
        <ele>328.254</ele>
        <time>2021-06-11T14:28:15Z</time>
      </trkpt>
      <trkpt lat="37.558898" lon="-1.683056">
        <ele>328.145</ele>
        <time>2021-06-11T14:28:17Z</time>
      </trkpt>
      <trkpt lat="37.5586" lon="-1.683282">
        <ele>327.889</ele>
        <time>2021-06-11T14:28:19Z</time>
      </trkpt>
      <trkpt lat="37.558302" lon="-1.683507">
        <ele>328.092</ele>
        <time>2021-06-11T14:28:21Z</time>
      </trkpt>
      <trkpt lat="37.558156" lon="-1.68362">
        <ele>328.265</ele>
        <time>2021-06-11T14:28:22Z</time>
      </trkpt>
      <trkpt lat="37.557865" lon="-1.683845">
        <ele>328.768</ele>
        <time>2021-06-11T14:28:24Z</time>
      </trkpt>
      <trkpt lat="37.557719" lon="-1.68396">
        <ele>329.014</ele>
        <time>2021-06-11T14:28:25Z</time>
      </trkpt>
      <trkpt lat="37.557434" lon="-1.68419">
        <ele>328.908</ele>
        <time>2021-06-11T14:28:27Z</time>
      </trkpt>
      <trkpt lat="37.55729" lon="-1.684303">
        <ele>328.893</ele>
        <time>2021-06-11T14:28:28Z</time>
      </trkpt>
      <trkpt lat="37.557144" lon="-1.684412">
        <ele>329.131</ele>
        <time>2021-06-11T14:28:29Z</time>
      </trkpt>
      <trkpt lat="37.556998" lon="-1.68452">
        <ele>329.591</ele>
        <time>2021-06-11T14:28:30Z</time>
      </trkpt>
      <trkpt lat="37.556702" lon="-1.684743">
        <ele>329.779</ele>
        <time>2021-06-11T14:28:32Z</time>
      </trkpt>
      <trkpt lat="37.556411" lon="-1.684969">
        <ele>330.334</ele>
        <time>2021-06-11T14:28:34Z</time>
      </trkpt>
      <trkpt lat="37.556264" lon="-1.685082">
        <ele>330.635</ele>
        <time>2021-06-11T14:28:35Z</time>
      </trkpt>
      <trkpt lat="37.55598" lon="-1.6853">
        <ele>330.819</ele>
        <time>2021-06-11T14:28:37Z</time>
      </trkpt>
      <trkpt lat="37.555844" lon="-1.685398">
        <ele>330.912</ele>
        <time>2021-06-11T14:28:38Z</time>
      </trkpt>
      <trkpt lat="37.555715" lon="-1.685489">
        <ele>330.882</ele>
        <time>2021-06-11T14:28:39Z</time>
      </trkpt>
      <trkpt lat="37.555465" lon="-1.685668">
        <ele>330.943</ele>
        <time>2021-06-11T14:28:41Z</time>
      </trkpt>
      <trkpt lat="37.555338" lon="-1.685765">
        <ele>331.217</ele>
        <time>2021-06-11T14:28:42Z</time>
      </trkpt>
      <trkpt lat="37.555215" lon="-1.68587">
        <ele>331.808</ele>
        <time>2021-06-11T14:28:43Z</time>
      </trkpt>
      <trkpt lat="37.554965" lon="-1.68608">
        <ele>332.055</ele>
        <time>2021-06-11T14:28:45Z</time>
      </trkpt>
      <trkpt lat="37.554839" lon="-1.686188">
        <ele>332.563</ele>
        <time>2021-06-11T14:28:46Z</time>
      </trkpt>
      <trkpt lat="37.554579" lon="-1.686408">
        <ele>333.413</ele>
        <time>2021-06-11T14:28:48Z</time>
      </trkpt>
      <trkpt lat="37.554442" lon="-1.686514">
        <ele>334.021</ele>
        <time>2021-06-11T14:28:49Z</time>
      </trkpt>
      <trkpt lat="37.554162" lon="-1.686726">
        <ele>334.156</ele>
        <time>2021-06-11T14:28:51Z</time>
      </trkpt>
      <trkpt lat="37.553879" lon="-1.686937">
        <ele>334.327</ele>
        <time>2021-06-11T14:28:53Z</time>
      </trkpt>
      <trkpt lat="37.553737" lon="-1.687045">
        <ele>334.531</ele>
        <time>2021-06-11T14:28:54Z</time>
      </trkpt>
      <trkpt lat="37.553456" lon="-1.68726">
        <ele>334.864</ele>
        <time>2021-06-11T14:28:56Z</time>
      </trkpt>
      <trkpt lat="37.553313" lon="-1.68737">
        <ele>334.818</ele>
        <time>2021-06-11T14:28:57Z</time>
      </trkpt>
      <trkpt lat="37.553017" lon="-1.687595">
        <ele>334.698</ele>
        <time>2021-06-11T14:28:59Z</time>
      </trkpt>
      <trkpt lat="37.55272" lon="-1.687825">
        <ele>335.217</ele>
        <time>2021-06-11T14:29:01Z</time>
      </trkpt>
      <trkpt lat="37.552573" lon="-1.687937">
        <ele>335.408</ele>
        <time>2021-06-11T14:29:02Z</time>
      </trkpt>
      <trkpt lat="37.552278" lon="-1.688163">
        <ele>335.458</ele>
        <time>2021-06-11T14:29:04Z</time>
      </trkpt>
      <trkpt lat="37.551985" lon="-1.688389">
        <ele>335.656</ele>
        <time>2021-06-11T14:29:06Z</time>
      </trkpt>
      <trkpt lat="37.551842" lon="-1.688499">
        <ele>335.746</ele>
        <time>2021-06-11T14:29:07Z</time>
      </trkpt>
      <trkpt lat="37.551701" lon="-1.688607">
        <ele>336.064</ele>
        <time>2021-06-11T14:29:08Z</time>
      </trkpt>
      <trkpt lat="37.551426" lon="-1.688813">
        <ele>336.119</ele>
        <time>2021-06-11T14:29:10Z</time>
      </trkpt>
      <trkpt lat="37.551159" lon="-1.689012">
        <ele>336.360</ele>
        <time>2021-06-11T14:29:12Z</time>
      </trkpt>
      <trkpt lat="37.550887" lon="-1.689221">
        <ele>336.874</ele>
        <time>2021-06-11T14:29:14Z</time>
      </trkpt>
      <trkpt lat="37.55062" lon="-1.689426">
        <ele>336.977</ele>
        <time>2021-06-11T14:29:16Z</time>
      </trkpt>
      <trkpt lat="37.550358" lon="-1.689627">
        <ele>336.972</ele>
        <time>2021-06-11T14:29:18Z</time>
      </trkpt>
      <trkpt lat="37.550229" lon="-1.689729">
        <ele>337.013</ele>
        <time>2021-06-11T14:29:19Z</time>
      </trkpt>
      <trkpt lat="37.550097" lon="-1.689831">
        <ele>337.214</ele>
        <time>2021-06-11T14:29:20Z</time>
      </trkpt>
      <trkpt lat="37.549836" lon="-1.690038">
        <ele>337.308</ele>
        <time>2021-06-11T14:29:22Z</time>
      </trkpt>
      <trkpt lat="37.549706" lon="-1.690137">
        <ele>337.484</ele>
        <time>2021-06-11T14:29:23Z</time>
      </trkpt>
      <trkpt lat="37.549578" lon="-1.690234">
        <ele>337.782</ele>
        <time>2021-06-11T14:29:24Z</time>
      </trkpt>
      <trkpt lat="37.549319" lon="-1.690429">
        <ele>338.022</ele>
        <time>2021-06-11T14:29:26Z</time>
      </trkpt>
      <trkpt lat="37.549183" lon="-1.690526">
        <ele>338.450</ele>
        <time>2021-06-11T14:29:27Z</time>
      </trkpt>
      <trkpt lat="37.549043" lon="-1.690624">
        <ele>338.615</ele>
        <time>2021-06-11T14:29:28Z</time>
      </trkpt>
      <trkpt lat="37.5489" lon="-1.69072">
        <ele>338.746</ele>
        <time>2021-06-11T14:29:29Z</time>
      </trkpt>
      <trkpt lat="37.548613" lon="-1.690911">
        <ele>338.850</ele>
        <time>2021-06-11T14:29:31Z</time>
      </trkpt>
      <trkpt lat="37.548467" lon="-1.69101">
        <ele>338.723</ele>
        <time>2021-06-11T14:29:32Z</time>
      </trkpt>
      <trkpt lat="37.548173" lon="-1.6912">
        <ele>338.779</ele>
        <time>2021-06-11T14:29:34Z</time>
      </trkpt>
      <trkpt lat="37.548023" lon="-1.691292">
        <ele>338.905</ele>
        <time>2021-06-11T14:29:35Z</time>
      </trkpt>
      <trkpt lat="37.54787" lon="-1.691387">
        <ele>338.825</ele>
        <time>2021-06-11T14:29:36Z</time>
      </trkpt>
      <trkpt lat="37.547563" lon="-1.691578">
        <ele>339.308</ele>
        <time>2021-06-11T14:29:38Z</time>
      </trkpt>
      <trkpt lat="37.547261" lon="-1.691777">
        <ele>339.324</ele>
        <time>2021-06-11T14:29:40Z</time>
      </trkpt>
      <trkpt lat="37.547109" lon="-1.691876">
        <ele>339.612</ele>
        <time>2021-06-11T14:29:41Z</time>
      </trkpt>
      <trkpt lat="37.546814" lon="-1.692068">
        <ele>339.732</ele>
        <time>2021-06-11T14:29:43Z</time>
      </trkpt>
      <trkpt lat="37.546671" lon="-1.692161">
        <ele>339.980</ele>
        <time>2021-06-11T14:29:44Z</time>
      </trkpt>
      <trkpt lat="37.546393" lon="-1.692338">
        <ele>340.325</ele>
        <time>2021-06-11T14:29:46Z</time>
      </trkpt>
      <trkpt lat="37.546118" lon="-1.692511">
        <ele>340.896</ele>
        <time>2021-06-11T14:29:48Z</time>
      </trkpt>
      <trkpt lat="37.545839" lon="-1.692689">
        <ele>340.850</ele>
        <time>2021-06-11T14:29:50Z</time>
      </trkpt>
      <trkpt lat="37.5457" lon="-1.69278">
        <ele>340.813</ele>
        <time>2021-06-11T14:29:51Z</time>
      </trkpt>
      <trkpt lat="37.545559" lon="-1.692868">
        <ele>340.722</ele>
        <time>2021-06-11T14:29:52Z</time>
      </trkpt>
      <trkpt lat="37.545278" lon="-1.693047">
        <ele>340.962</ele>
        <time>2021-06-11T14:29:54Z</time>
      </trkpt>
      <trkpt lat="37.545137" lon="-1.693139">
        <ele>341.208</ele>
        <time>2021-06-11T14:29:55Z</time>
      </trkpt>
      <trkpt lat="37.544997" lon="-1.693231">
        <ele>341.108</ele>
        <time>2021-06-11T14:29:56Z</time>
      </trkpt>
      <trkpt lat="37.544855" lon="-1.693322">
        <ele>341.319</ele>
        <time>2021-06-11T14:29:57Z</time>
      </trkpt>
      <trkpt lat="37.544571" lon="-1.693505">
        <ele>341.377</ele>
        <time>2021-06-11T14:29:59Z</time>
      </trkpt>
      <trkpt lat="37.544291" lon="-1.693687">
        <ele>341.627</ele>
        <time>2021-06-11T14:30:01Z</time>
      </trkpt>
      <trkpt lat="37.544148" lon="-1.693778">
        <ele>341.515</ele>
        <time>2021-06-11T14:30:02Z</time>
      </trkpt>
      <trkpt lat="37.544006" lon="-1.693869">
        <ele>340.960</ele>
        <time>2021-06-11T14:30:03Z</time>
      </trkpt>
      <trkpt lat="37.543864" lon="-1.69396">
        <ele>340.441</ele>
        <time>2021-06-11T14:30:04Z</time>
      </trkpt>
      <trkpt lat="37.543577" lon="-1.69414">
        <ele>340.485</ele>
        <time>2021-06-11T14:30:06Z</time>
      </trkpt>
      <trkpt lat="37.543282" lon="-1.694327">
        <ele>340.818</ele>
        <time>2021-06-11T14:30:08Z</time>
      </trkpt>
      <trkpt lat="37.543129" lon="-1.694422">
        <ele>340.982</ele>
        <time>2021-06-11T14:30:09Z</time>
      </trkpt>
      <trkpt lat="37.542975" lon="-1.694521">
        <ele>341.043</ele>
        <time>2021-06-11T14:30:10Z</time>
      </trkpt>
      <trkpt lat="37.542817" lon="-1.69462">
        <ele>340.917</ele>
        <time>2021-06-11T14:30:11Z</time>
      </trkpt>
      <trkpt lat="37.54266" lon="-1.694721">
        <ele>340.908</ele>
        <time>2021-06-11T14:30:12Z</time>
      </trkpt>
      <trkpt lat="37.542504" lon="-1.694823">
        <ele>340.725</ele>
        <time>2021-06-11T14:30:13Z</time>
      </trkpt>
      <trkpt lat="37.542186" lon="-1.695025">
        <ele>341.353</ele>
        <time>2021-06-11T14:30:15Z</time>
      </trkpt>
      <trkpt lat="37.542024" lon="-1.695126">
        <ele>342.083</ele>
        <time>2021-06-11T14:30:16Z</time>
      </trkpt>
      <trkpt lat="37.541702" lon="-1.695332">
        <ele>342.451</ele>
        <time>2021-06-11T14:30:18Z</time>
      </trkpt>
      <trkpt lat="37.541542" lon="-1.695437">
        <ele>342.646</ele>
        <time>2021-06-11T14:30:19Z</time>
      </trkpt>
      <trkpt lat="37.541222" lon="-1.695647">
        <ele>342.447</ele>
        <time>2021-06-11T14:30:21Z</time>
      </trkpt>
      <trkpt lat="37.540908" lon="-1.695845">
        <ele>342.431</ele>
        <time>2021-06-11T14:30:23Z</time>
      </trkpt>
      <trkpt lat="37.540596" lon="-1.696043">
        <ele>341.634</ele>
        <time>2021-06-11T14:30:25Z</time>
      </trkpt>
      <trkpt lat="37.540441" lon="-1.696147">
        <ele>340.913</ele>
        <time>2021-06-11T14:30:26Z</time>
      </trkpt>
      <trkpt lat="37.540125" lon="-1.696349">
        <ele>340.743</ele>
        <time>2021-06-11T14:30:28Z</time>
      </trkpt>
      <trkpt lat="37.539801" lon="-1.696554">
        <ele>340.707</ele>
        <time>2021-06-11T14:30:30Z</time>
      </trkpt>
      <trkpt lat="37.539479" lon="-1.696763">
        <ele>340.808</ele>
        <time>2021-06-11T14:30:32Z</time>
      </trkpt>
      <trkpt lat="37.53932" lon="-1.696863">
        <ele>340.528</ele>
        <time>2021-06-11T14:30:33Z</time>
      </trkpt>
      <trkpt lat="37.538998" lon="-1.697069">
        <ele>340.176</ele>
        <time>2021-06-11T14:30:35Z</time>
      </trkpt>
      <trkpt lat="37.538837" lon="-1.697171">
        <ele>339.766</ele>
        <time>2021-06-11T14:30:36Z</time>
      </trkpt>
      <trkpt lat="37.538675" lon="-1.697275">
        <ele>339.634</ele>
        <time>2021-06-11T14:30:37Z</time>
      </trkpt>
      <trkpt lat="37.538347" lon="-1.697484">
        <ele>339.839</ele>
        <time>2021-06-11T14:30:39Z</time>
      </trkpt>
      <trkpt lat="37.538023" lon="-1.697691">
        <ele>340.210</ele>
        <time>2021-06-11T14:30:41Z</time>
      </trkpt>
      <trkpt lat="37.537862" lon="-1.697797">
        <ele>340.174</ele>
        <time>2021-06-11T14:30:42Z</time>
      </trkpt>
      <trkpt lat="37.537536" lon="-1.698012">
        <ele>340.477</ele>
        <time>2021-06-11T14:30:44Z</time>
      </trkpt>
      <trkpt lat="37.537372" lon="-1.69812">
        <ele>340.234</ele>
        <time>2021-06-11T14:30:45Z</time>
      </trkpt>
      <trkpt lat="37.537039" lon="-1.698336">
        <ele>340.155</ele>
        <time>2021-06-11T14:30:47Z</time>
      </trkpt>
      <trkpt lat="37.536703" lon="-1.698556">
        <ele>340.210</ele>
        <time>2021-06-11T14:30:49Z</time>
      </trkpt>
      <trkpt lat="37.536361" lon="-1.698773">
        <ele>340.208</ele>
        <time>2021-06-11T14:30:51Z</time>
      </trkpt>
      <trkpt lat="37.536021" lon="-1.698982">
        <ele>340.420</ele>
        <time>2021-06-11T14:30:53Z</time>
      </trkpt>
      <trkpt lat="37.535857" lon="-1.699087">
        <ele>340.758</ele>
        <time>2021-06-11T14:30:54Z</time>
      </trkpt>
      <trkpt lat="37.535693" lon="-1.699193">
        <ele>340.888</ele>
        <time>2021-06-11T14:30:55Z</time>
      </trkpt>
      <trkpt lat="37.535363" lon="-1.699403">
        <ele>341.226</ele>
        <time>2021-06-11T14:30:57Z</time>
      </trkpt>
      <trkpt lat="37.535038" lon="-1.699612">
        <ele>341.331</ele>
        <time>2021-06-11T14:30:59Z</time>
      </trkpt>
      <trkpt lat="37.534876" lon="-1.699715">
        <ele>341.272</ele>
        <time>2021-06-11T14:31:00Z</time>
      </trkpt>
      <trkpt lat="37.534712" lon="-1.699816">
        <ele>341.216</ele>
        <time>2021-06-11T14:31:01Z</time>
      </trkpt>
      <trkpt lat="37.534549" lon="-1.699917">
        <ele>340.979</ele>
        <time>2021-06-11T14:31:02Z</time>
      </trkpt>
      <trkpt lat="37.534226" lon="-1.70012">
        <ele>340.743</ele>
        <time>2021-06-11T14:31:04Z</time>
      </trkpt>
      <trkpt lat="37.534066" lon="-1.70022">
        <ele>340.764</ele>
        <time>2021-06-11T14:31:05Z</time>
      </trkpt>
      <trkpt lat="37.53375" lon="-1.700425">
        <ele>340.710</ele>
        <time>2021-06-11T14:31:07Z</time>
      </trkpt>
      <trkpt lat="37.533439" lon="-1.70063">
        <ele>340.108</ele>
        <time>2021-06-11T14:31:09Z</time>
      </trkpt>
      <trkpt lat="37.533141" lon="-1.700825">
        <ele>339.321</ele>
        <time>2021-06-11T14:31:11Z</time>
      </trkpt>
      <trkpt lat="37.532995" lon="-1.70092">
        <ele>338.859</ele>
        <time>2021-06-11T14:31:12Z</time>
      </trkpt>
      <trkpt lat="37.532697" lon="-1.701118">
        <ele>338.469</ele>
        <time>2021-06-11T14:31:14Z</time>
      </trkpt>
      <trkpt lat="37.532548" lon="-1.701216">
        <ele>338.197</ele>
        <time>2021-06-11T14:31:15Z</time>
      </trkpt>
      <trkpt lat="37.532393" lon="-1.701313">
        <ele>337.852</ele>
        <time>2021-06-11T14:31:16Z</time>
      </trkpt>
      <trkpt lat="37.532233" lon="-1.701413">
        <ele>337.763</ele>
        <time>2021-06-11T14:31:17Z</time>
      </trkpt>
      <trkpt lat="37.531909" lon="-1.70162">
        <ele>337.257</ele>
        <time>2021-06-11T14:31:19Z</time>
      </trkpt>
      <trkpt lat="37.531745" lon="-1.701723">
        <ele>337.080</ele>
        <time>2021-06-11T14:31:20Z</time>
      </trkpt>
      <trkpt lat="37.531581" lon="-1.701827">
        <ele>336.818</ele>
        <time>2021-06-11T14:31:21Z</time>
      </trkpt>
      <trkpt lat="37.531252" lon="-1.702033">
        <ele>336.698</ele>
        <time>2021-06-11T14:31:23Z</time>
      </trkpt>
      <trkpt lat="37.531088" lon="-1.702137">
        <ele>336.617</ele>
        <time>2021-06-11T14:31:24Z</time>
      </trkpt>
      <trkpt lat="37.530768" lon="-1.702346">
        <ele>336.508</ele>
        <time>2021-06-11T14:31:26Z</time>
      </trkpt>
      <trkpt lat="37.530454" lon="-1.702552">
        <ele>336.498</ele>
        <time>2021-06-11T14:31:28Z</time>
      </trkpt>
      <trkpt lat="37.530149" lon="-1.702753">
        <ele>337.176</ele>
        <time>2021-06-11T14:31:30Z</time>
      </trkpt>
      <trkpt lat="37.529839" lon="-1.70295">
        <ele>337.296</ele>
        <time>2021-06-11T14:31:32Z</time>
      </trkpt>
      <trkpt lat="37.529522" lon="-1.703148">
        <ele>337.424</ele>
        <time>2021-06-11T14:31:34Z</time>
      </trkpt>
      <trkpt lat="37.529363" lon="-1.703251">
        <ele>337.989</ele>
        <time>2021-06-11T14:31:35Z</time>
      </trkpt>
      <trkpt lat="37.529202" lon="-1.703353">
        <ele>337.920</ele>
        <time>2021-06-11T14:31:36Z</time>
      </trkpt>
      <trkpt lat="37.528879" lon="-1.703562">
        <ele>337.924</ele>
        <time>2021-06-11T14:31:38Z</time>
      </trkpt>
      <trkpt lat="37.528714" lon="-1.703666">
        <ele>338.287</ele>
        <time>2021-06-11T14:31:39Z</time>
      </trkpt>
      <trkpt lat="37.528384" lon="-1.70388">
        <ele>338.563</ele>
        <time>2021-06-11T14:31:41Z</time>
      </trkpt>
      <trkpt lat="37.528222" lon="-1.703988">
        <ele>338.844</ele>
        <time>2021-06-11T14:31:42Z</time>
      </trkpt>
      <trkpt lat="37.527895" lon="-1.704201">
        <ele>338.918</ele>
        <time>2021-06-11T14:31:44Z</time>
      </trkpt>
      <trkpt lat="37.52773" lon="-1.704308">
        <ele>339.208</ele>
        <time>2021-06-11T14:31:45Z</time>
      </trkpt>
      <trkpt lat="37.527395" lon="-1.704523">
        <ele>339.153</ele>
        <time>2021-06-11T14:31:47Z</time>
      </trkpt>
      <trkpt lat="37.527057" lon="-1.704734">
        <ele>339.281</ele>
        <time>2021-06-11T14:31:49Z</time>
      </trkpt>
      <trkpt lat="37.526716" lon="-1.704956">
        <ele>339.551</ele>
        <time>2021-06-11T14:31:51Z</time>
      </trkpt>
      <trkpt lat="37.526544" lon="-1.705067">
        <ele>339.669</ele>
        <time>2021-06-11T14:31:52Z</time>
      </trkpt>
      <trkpt lat="37.5262" lon="-1.705286">
        <ele>339.784</ele>
        <time>2021-06-11T14:31:54Z</time>
      </trkpt>
      <trkpt lat="37.52603" lon="-1.705395">
        <ele>339.855</ele>
        <time>2021-06-11T14:31:55Z</time>
      </trkpt>
      <trkpt lat="37.525862" lon="-1.705504">
        <ele>339.659</ele>
        <time>2021-06-11T14:31:56Z</time>
      </trkpt>
      <trkpt lat="37.525526" lon="-1.70572">
        <ele>339.992</ele>
        <time>2021-06-11T14:31:58Z</time>
      </trkpt>
      <trkpt lat="37.525361" lon="-1.705825">
        <ele>340.578</ele>
        <time>2021-06-11T14:31:59Z</time>
      </trkpt>
      <trkpt lat="37.525195" lon="-1.70593">
        <ele>340.833</ele>
        <time>2021-06-11T14:32:00Z</time>
      </trkpt>
      <trkpt lat="37.524864" lon="-1.706144">
        <ele>341.326</ele>
        <time>2021-06-11T14:32:02Z</time>
      </trkpt>
      <trkpt lat="37.5247" lon="-1.706252">
        <ele>341.508</ele>
        <time>2021-06-11T14:32:03Z</time>
      </trkpt>
      <trkpt lat="37.524536" lon="-1.706361">
        <ele>341.924</ele>
        <time>2021-06-11T14:32:04Z</time>
      </trkpt>
      <trkpt lat="37.524207" lon="-1.706571">
        <ele>341.472</ele>
        <time>2021-06-11T14:32:06Z</time>
      </trkpt>
      <trkpt lat="37.52388" lon="-1.706776">
        <ele>340.162</ele>
        <time>2021-06-11T14:32:08Z</time>
      </trkpt>
      <trkpt lat="37.523718" lon="-1.70688">
        <ele>339.640</ele>
        <time>2021-06-11T14:32:09Z</time>
      </trkpt>
      <trkpt lat="37.523555" lon="-1.706984">
        <ele>339.215</ele>
        <time>2021-06-11T14:32:10Z</time>
      </trkpt>
      <trkpt lat="37.523392" lon="-1.707091">
        <ele>338.916</ele>
        <time>2021-06-11T14:32:11Z</time>
      </trkpt>
      <trkpt lat="37.523072" lon="-1.707298">
        <ele>338.850</ele>
        <time>2021-06-11T14:32:13Z</time>
      </trkpt>
      <trkpt lat="37.522754" lon="-1.707498">
        <ele>338.763</ele>
        <time>2021-06-11T14:32:15Z</time>
      </trkpt>
      <trkpt lat="37.522604" lon="-1.707597">
        <ele>338.948</ele>
        <time>2021-06-11T14:32:16Z</time>
      </trkpt>
      <trkpt lat="37.522462" lon="-1.707692">
        <ele>338.661</ele>
        <time>2021-06-11T14:32:17Z</time>
      </trkpt>
      <trkpt lat="37.522195" lon="-1.707872">
        <ele>338.617</ele>
        <time>2021-06-11T14:32:19Z</time>
      </trkpt>
      <trkpt lat="37.521953" lon="-1.708027">
        <ele>338.608</ele>
        <time>2021-06-11T14:32:21Z</time>
      </trkpt>
      <trkpt lat="37.521737" lon="-1.708163">
        <ele>338.571</ele>
        <time>2021-06-11T14:32:23Z</time>
      </trkpt>
      <trkpt lat="37.521642" lon="-1.708225">
        <ele>338.179</ele>
        <time>2021-06-11T14:32:24Z</time>
      </trkpt>
      <trkpt lat="37.521551" lon="-1.708284">
        <ele>337.969</ele>
        <time>2021-06-11T14:32:25Z</time>
      </trkpt>
      <trkpt lat="37.521462" lon="-1.708338">
        <ele>337.797</ele>
        <time>2021-06-11T14:32:26Z</time>
      </trkpt>
      <trkpt lat="37.521293" lon="-1.708448">
        <ele>337.042</ele>
        <time>2021-06-11T14:32:28Z</time>
      </trkpt>
      <trkpt lat="37.52114" lon="-1.708604">
        <ele>336.743</ele>
        <time>2021-06-11T14:32:30Z</time>
      </trkpt>
      <trkpt lat="37.520993" lon="-1.70878">
        <ele>336.297</ele>
        <time>2021-06-11T14:32:32Z</time>
      </trkpt>
      <trkpt lat="37.5209" lon="-1.708842">
        <ele>336.140</ele>
        <time>2021-06-11T14:32:33Z</time>
      </trkpt>
      <trkpt lat="37.520791" lon="-1.708878">
        <ele>336.087</ele>
        <time>2021-06-11T14:32:34Z</time>
      </trkpt>
      <trkpt lat="37.520547" lon="-1.708927">
        <ele>335.942</ele>
        <time>2021-06-11T14:32:36Z</time>
      </trkpt>
      <trkpt lat="37.520299" lon="-1.709047">
        <ele>335.726</ele>
        <time>2021-06-11T14:32:38Z</time>
      </trkpt>
      <trkpt lat="37.520038" lon="-1.709209">
        <ele>335.708</ele>
        <time>2021-06-11T14:32:40Z</time>
      </trkpt>
      <trkpt lat="37.519776" lon="-1.709395">
        <ele>335.825</ele>
        <time>2021-06-11T14:32:42Z</time>
      </trkpt>
      <trkpt lat="37.519639" lon="-1.70949">
        <ele>335.333</ele>
        <time>2021-06-11T14:32:43Z</time>
      </trkpt>
      <trkpt lat="37.519353" lon="-1.709676">
        <ele>335.153</ele>
        <time>2021-06-11T14:32:45Z</time>
      </trkpt>
      <trkpt lat="37.519202" lon="-1.709772">
        <ele>335.081</ele>
        <time>2021-06-11T14:32:46Z</time>
      </trkpt>
      <trkpt lat="37.518901" lon="-1.709966">
        <ele>334.516</ele>
        <time>2021-06-11T14:32:48Z</time>
      </trkpt>
      <trkpt lat="37.518591" lon="-1.710168">
        <ele>334.227</ele>
        <time>2021-06-11T14:32:50Z</time>
      </trkpt>
      <trkpt lat="37.518277" lon="-1.710364">
        <ele>333.821</ele>
        <time>2021-06-11T14:32:52Z</time>
      </trkpt>
      <trkpt lat="37.517967" lon="-1.71056">
        <ele>333.634</ele>
        <time>2021-06-11T14:32:54Z</time>
      </trkpt>
      <trkpt lat="37.51781" lon="-1.710659">
        <ele>333.685</ele>
        <time>2021-06-11T14:32:55Z</time>
      </trkpt>
      <trkpt lat="37.517498" lon="-1.710863">
        <ele>333.989</ele>
        <time>2021-06-11T14:32:57Z</time>
      </trkpt>
      <trkpt lat="37.517337" lon="-1.710969">
        <ele>334.017</ele>
        <time>2021-06-11T14:32:58Z</time>
      </trkpt>
      <trkpt lat="37.51701" lon="-1.711181">
        <ele>334.108</ele>
        <time>2021-06-11T14:33:00Z</time>
      </trkpt>
      <trkpt lat="37.51684" lon="-1.711288">
        <ele>334.125</ele>
        <time>2021-06-11T14:33:01Z</time>
      </trkpt>
      <trkpt lat="37.516507" lon="-1.711499">
        <ele>334.213</ele>
        <time>2021-06-11T14:33:03Z</time>
      </trkpt>
      <trkpt lat="37.516339" lon="-1.711607">
        <ele>334.223</ele>
        <time>2021-06-11T14:33:04Z</time>
      </trkpt>
      <trkpt lat="37.516006" lon="-1.711823">
        <ele>333.991</ele>
        <time>2021-06-11T14:33:06Z</time>
      </trkpt>
      <trkpt lat="37.515841" lon="-1.711929">
        <ele>333.456</ele>
        <time>2021-06-11T14:33:07Z</time>
      </trkpt>
      <trkpt lat="37.515507" lon="-1.712144">
        <ele>333.067</ele>
        <time>2021-06-11T14:33:09Z</time>
      </trkpt>
      <trkpt lat="37.515338" lon="-1.712253">
        <ele>332.521</ele>
        <time>2021-06-11T14:33:10Z</time>
      </trkpt>
      <trkpt lat="37.514997" lon="-1.712477">
        <ele>332.044</ele>
        <time>2021-06-11T14:33:12Z</time>
      </trkpt>
      <trkpt lat="37.514654" lon="-1.712704">
        <ele>331.167</ele>
        <time>2021-06-11T14:33:14Z</time>
      </trkpt>
      <trkpt lat="37.51448" lon="-1.712812">
        <ele>330.681</ele>
        <time>2021-06-11T14:33:15Z</time>
      </trkpt>
      <trkpt lat="37.514305" lon="-1.71292">
        <ele>330.319</ele>
        <time>2021-06-11T14:33:16Z</time>
      </trkpt>
      <trkpt lat="37.513955" lon="-1.713136">
        <ele>330.008</ele>
        <time>2021-06-11T14:33:18Z</time>
      </trkpt>
      <trkpt lat="37.513617" lon="-1.713352">
        <ele>330.153</ele>
        <time>2021-06-11T14:33:20Z</time>
      </trkpt>
      <trkpt lat="37.513295" lon="-1.713556">
        <ele>330.451</ele>
        <time>2021-06-11T14:33:22Z</time>
      </trkpt>
      <trkpt lat="37.51313" lon="-1.713661">
        <ele>330.531</ele>
        <time>2021-06-11T14:33:23Z</time>
      </trkpt>
      <trkpt lat="37.512967" lon="-1.713761">
        <ele>331.019</ele>
        <time>2021-06-11T14:33:24Z</time>
      </trkpt>
      <trkpt lat="37.512806" lon="-1.713864">
        <ele>331.494</ele>
        <time>2021-06-11T14:33:25Z</time>
      </trkpt>
      <trkpt lat="37.512485" lon="-1.714072">
        <ele>331.625</ele>
        <time>2021-06-11T14:33:27Z</time>
      </trkpt>
      <trkpt lat="37.512154" lon="-1.714277">
        <ele>331.569</ele>
        <time>2021-06-11T14:33:29Z</time>
      </trkpt>
      <trkpt lat="37.511834" lon="-1.714487">
        <ele>331.492</ele>
        <time>2021-06-11T14:33:31Z</time>
      </trkpt>
      <trkpt lat="37.511676" lon="-1.714591">
        <ele>331.521</ele>
        <time>2021-06-11T14:33:32Z</time>
      </trkpt>
      <trkpt lat="37.51152" lon="-1.714696">
        <ele>331.541</ele>
        <time>2021-06-11T14:33:33Z</time>
      </trkpt>
      <trkpt lat="37.511207" lon="-1.714897">
        <ele>331.305</ele>
        <time>2021-06-11T14:33:35Z</time>
      </trkpt>
      <trkpt lat="37.51105" lon="-1.714998">
        <ele>331.408</ele>
        <time>2021-06-11T14:33:36Z</time>
      </trkpt>
      <trkpt lat="37.510725" lon="-1.715201">
        <ele>331.349</ele>
        <time>2021-06-11T14:33:38Z</time>
      </trkpt>
      <trkpt lat="37.510562" lon="-1.715304">
        <ele>331.267</ele>
        <time>2021-06-11T14:33:39Z</time>
      </trkpt>
      <trkpt lat="37.510396" lon="-1.715407">
        <ele>331.297</ele>
        <time>2021-06-11T14:33:40Z</time>
      </trkpt>
      <trkpt lat="37.51023" lon="-1.715513">
        <ele>331.655</ele>
        <time>2021-06-11T14:33:41Z</time>
      </trkpt>
      <trkpt lat="37.510062" lon="-1.715621">
        <ele>331.250</ele>
        <time>2021-06-11T14:33:42Z</time>
      </trkpt>
      <trkpt lat="37.509725" lon="-1.715839">
        <ele>331.221</ele>
        <time>2021-06-11T14:33:44Z</time>
      </trkpt>
      <trkpt lat="37.509557" lon="-1.715948">
        <ele>331.255</ele>
        <time>2021-06-11T14:33:45Z</time>
      </trkpt>
      <trkpt lat="37.509212" lon="-1.716162">
        <ele>331.848</ele>
        <time>2021-06-11T14:33:47Z</time>
      </trkpt>
      <trkpt lat="37.50904" lon="-1.716271">
        <ele>332.387</ele>
        <time>2021-06-11T14:33:48Z</time>
      </trkpt>
      <trkpt lat="37.50887" lon="-1.716383">
        <ele>333.042</ele>
        <time>2021-06-11T14:33:49Z</time>
      </trkpt>
      <trkpt lat="37.508703" lon="-1.716493">
        <ele>333.626</ele>
        <time>2021-06-11T14:33:50Z</time>
      </trkpt>
      <trkpt lat="37.508365" lon="-1.716707">
        <ele>334.108</ele>
        <time>2021-06-11T14:33:52Z</time>
      </trkpt>
      <trkpt lat="37.508029" lon="-1.716928">
        <ele>334.245</ele>
        <time>2021-06-11T14:33:54Z</time>
      </trkpt>
      <trkpt lat="37.507691" lon="-1.717139">
        <ele>334.173</ele>
        <time>2021-06-11T14:33:56Z</time>
      </trkpt>
      <trkpt lat="37.507348" lon="-1.717366">
        <ele>334.113</ele>
        <time>2021-06-11T14:33:58Z</time>
      </trkpt>
      <trkpt lat="37.507032" lon="-1.717569">
        <ele>333.811</ele>
        <time>2021-06-11T14:34:00Z</time>
      </trkpt>
      <trkpt lat="37.506696" lon="-1.717786">
        <ele>333.686</ele>
        <time>2021-06-11T14:34:02Z</time>
      </trkpt>
      <trkpt lat="37.506531" lon="-1.717894">
        <ele>333.267</ele>
        <time>2021-06-11T14:34:03Z</time>
      </trkpt>
      <trkpt lat="37.506368" lon="-1.717998">
        <ele>333.311</ele>
        <time>2021-06-11T14:34:04Z</time>
      </trkpt>
      <trkpt lat="37.506044" lon="-1.718202">
        <ele>333.254</ele>
        <time>2021-06-11T14:34:06Z</time>
      </trkpt>
      <trkpt lat="37.505725" lon="-1.718406">
        <ele>333.095</ele>
        <time>2021-06-11T14:34:08Z</time>
      </trkpt>
      <trkpt lat="37.50556" lon="-1.718507">
        <ele>332.849</ele>
        <time>2021-06-11T14:34:09Z</time>
      </trkpt>
      <trkpt lat="37.505237" lon="-1.718713">
        <ele>332.623</ele>
        <time>2021-06-11T14:34:11Z</time>
      </trkpt>
      <trkpt lat="37.505072" lon="-1.718818">
        <ele>332.208</ele>
        <time>2021-06-11T14:34:12Z</time>
      </trkpt>
      <trkpt lat="37.504748" lon="-1.719036">
        <ele>331.776</ele>
        <time>2021-06-11T14:34:14Z</time>
      </trkpt>
      <trkpt lat="37.504585" lon="-1.719144">
        <ele>331.344</ele>
        <time>2021-06-11T14:34:15Z</time>
      </trkpt>
      <trkpt lat="37.504422" lon="-1.719252">
        <ele>331.274</ele>
        <time>2021-06-11T14:34:16Z</time>
      </trkpt>
      <trkpt lat="37.504257" lon="-1.71936">
        <ele>331.042</ele>
        <time>2021-06-11T14:34:17Z</time>
      </trkpt>
      <trkpt lat="37.503924" lon="-1.719575">
        <ele>330.547</ele>
        <time>2021-06-11T14:34:19Z</time>
      </trkpt>
      <trkpt lat="37.503589" lon="-1.719787">
        <ele>330.918</ele>
        <time>2021-06-11T14:34:21Z</time>
      </trkpt>
      <trkpt lat="37.503424" lon="-1.719894">
        <ele>330.792</ele>
        <time>2021-06-11T14:34:22Z</time>
      </trkpt>
      <trkpt lat="37.503256" lon="-1.720002">
        <ele>330.635</ele>
        <time>2021-06-11T14:34:23Z</time>
      </trkpt>
      <trkpt lat="37.502913" lon="-1.720209">
        <ele>330.423</ele>
        <time>2021-06-11T14:34:25Z</time>
      </trkpt>
      <trkpt lat="37.50274" lon="-1.720306">
        <ele>329.983</ele>
        <time>2021-06-11T14:34:26Z</time>
      </trkpt>
      <trkpt lat="37.502391" lon="-1.720483">
        <ele>329.911</ele>
        <time>2021-06-11T14:34:28Z</time>
      </trkpt>
      <trkpt lat="37.502216" lon="-1.720568">
        <ele>329.808</ele>
        <time>2021-06-11T14:34:29Z</time>
      </trkpt>
      <trkpt lat="37.501868" lon="-1.720732">
        <ele>330.429</ele>
        <time>2021-06-11T14:34:31Z</time>
      </trkpt>
      <trkpt lat="37.501524" lon="-1.72089">
        <ele>330.977</ele>
        <time>2021-06-11T14:34:33Z</time>
      </trkpt>
      <trkpt lat="37.501189" lon="-1.721034">
        <ele>331.227</ele>
        <time>2021-06-11T14:34:35Z</time>
      </trkpt>
      <trkpt lat="37.501024" lon="-1.721109">
        <ele>331.365</ele>
        <time>2021-06-11T14:34:36Z</time>
      </trkpt>
      <trkpt lat="37.50071" lon="-1.721254">
        <ele>331.710</ele>
        <time>2021-06-11T14:34:38Z</time>
      </trkpt>
      <trkpt lat="37.500401" lon="-1.721391">
        <ele>332.321</ele>
        <time>2021-06-11T14:34:40Z</time>
      </trkpt>
      <trkpt lat="37.500099" lon="-1.721536">
        <ele>332.495</ele>
        <time>2021-06-11T14:34:42Z</time>
      </trkpt>
      <trkpt lat="37.499789" lon="-1.721674">
        <ele>331.318</ele>
        <time>2021-06-11T14:34:44Z</time>
      </trkpt>
      <trkpt lat="37.499626" lon="-1.721737">
        <ele>330.131</ele>
        <time>2021-06-11T14:34:45Z</time>
      </trkpt>
      <trkpt lat="37.499282" lon="-1.721828">
        <ele>328.561</ele>
        <time>2021-06-11T14:34:47Z</time>
      </trkpt>
      <trkpt lat="37.499098" lon="-1.721851">
        <ele>327.307</ele>
        <time>2021-06-11T14:34:48Z</time>
      </trkpt>
      <trkpt lat="37.498723" lon="-1.721867">
        <ele>326.308</ele>
        <time>2021-06-11T14:34:50Z</time>
      </trkpt>
      <trkpt lat="37.498529" lon="-1.721861">
        <ele>325.160</ele>
        <time>2021-06-11T14:34:51Z</time>
      </trkpt>
      <trkpt lat="37.498149" lon="-1.721838">
        <ele>323.438</ele>
        <time>2021-06-11T14:34:53Z</time>
      </trkpt>
      <trkpt lat="37.497958" lon="-1.721826">
        <ele>321.898</ele>
        <time>2021-06-11T14:34:54Z</time>
      </trkpt>
      <trkpt lat="37.497769" lon="-1.721819">
        <ele>320.476</ele>
        <time>2021-06-11T14:34:55Z</time>
      </trkpt>
      <trkpt lat="37.497403" lon="-1.721802">
        <ele>318.681</ele>
        <time>2021-06-11T14:34:57Z</time>
      </trkpt>
      <trkpt lat="37.497225" lon="-1.721794">
        <ele>317.242</ele>
        <time>2021-06-11T14:34:58Z</time>
      </trkpt>
      <trkpt lat="37.496862" lon="-1.721774">
        <ele>315.966</ele>
        <time>2021-06-11T14:35:00Z</time>
      </trkpt>
      <trkpt lat="37.496512" lon="-1.72175">
        <ele>314.389</ele>
        <time>2021-06-11T14:35:02Z</time>
      </trkpt>
      <trkpt lat="37.49617" lon="-1.721706">
        <ele>312.868</ele>
        <time>2021-06-11T14:35:04Z</time>
      </trkpt>
      <trkpt lat="37.495997" lon="-1.72168">
        <ele>311.442</ele>
        <time>2021-06-11T14:35:05Z</time>
      </trkpt>
      <trkpt lat="37.495823" lon="-1.721652">
        <ele>310.226</ele>
        <time>2021-06-11T14:35:06Z</time>
      </trkpt>
      <trkpt lat="37.49565" lon="-1.721624">
        <ele>309.508</ele>
        <time>2021-06-11T14:35:07Z</time>
      </trkpt>
      <trkpt lat="37.495301" lon="-1.721567">
        <ele>308.573</ele>
        <time>2021-06-11T14:35:09Z</time>
      </trkpt>
      <trkpt lat="37.494949" lon="-1.7215">
        <ele>307.421</ele>
        <time>2021-06-11T14:35:11Z</time>
      </trkpt>
      <trkpt lat="37.494596" lon="-1.721443">
        <ele>305.931</ele>
        <time>2021-06-11T14:35:13Z</time>
      </trkpt>
      <trkpt lat="37.494248" lon="-1.721396">
        <ele>304.669</ele>
        <time>2021-06-11T14:35:15Z</time>
      </trkpt>
      <trkpt lat="37.494075" lon="-1.721373">
        <ele>303.874</ele>
        <time>2021-06-11T14:35:16Z</time>
      </trkpt>
      <trkpt lat="37.493906" lon="-1.72135">
        <ele>302.735</ele>
        <time>2021-06-11T14:35:17Z</time>
      </trkpt>
      <trkpt lat="37.493588" lon="-1.721268">
        <ele>301.929</ele>
        <time>2021-06-11T14:35:19Z</time>
      </trkpt>
      <trkpt lat="37.493438" lon="-1.721208">
        <ele>301.042</ele>
        <time>2021-06-11T14:35:20Z</time>
      </trkpt>
      <trkpt lat="37.493139" lon="-1.72109">
        <ele>300.439</ele>
        <time>2021-06-11T14:35:22Z</time>
      </trkpt>
      <trkpt lat="37.492987" lon="-1.721028">
        <ele>300.101</ele>
        <time>2021-06-11T14:35:23Z</time>
      </trkpt>
      <trkpt lat="37.492834" lon="-1.720964">
        <ele>299.521</ele>
        <time>2021-06-11T14:35:24Z</time>
      </trkpt>
      <trkpt lat="37.492529" lon="-1.720822">
        <ele>299.208</ele>
        <time>2021-06-11T14:35:26Z</time>
      </trkpt>
      <trkpt lat="37.492226" lon="-1.720652">
        <ele>298.840</ele>
        <time>2021-06-11T14:35:28Z</time>
      </trkpt>
      <trkpt lat="37.492074" lon="-1.720559">
        <ele>298.538</ele>
        <time>2021-06-11T14:35:29Z</time>
      </trkpt>
      <trkpt lat="37.491921" lon="-1.720461">
        <ele>298.558</ele>
        <time>2021-06-11T14:35:30Z</time>
      </trkpt>
      <trkpt lat="37.491625" lon="-1.720239">
        <ele>298.056</ele>
        <time>2021-06-11T14:35:32Z</time>
      </trkpt>
      <trkpt lat="37.491483" lon="-1.720119">
        <ele>297.681</ele>
        <time>2021-06-11T14:35:33Z</time>
      </trkpt>
      <trkpt lat="37.491342" lon="-1.719996">
        <ele>296.932</ele>
        <time>2021-06-11T14:35:34Z</time>
      </trkpt>
      <trkpt lat="37.491062" lon="-1.719746">
        <ele>296.676</ele>
        <time>2021-06-11T14:35:36Z</time>
      </trkpt>
      <trkpt lat="37.490785" lon="-1.719478">
        <ele>296.259</ele>
        <time>2021-06-11T14:35:38Z</time>
      </trkpt>
      <trkpt lat="37.490643" lon="-1.719348">
        <ele>296.078</ele>
        <time>2021-06-11T14:35:39Z</time>
      </trkpt>
      <trkpt lat="37.490338" lon="-1.719133">
        <ele>295.933</ele>
        <time>2021-06-11T14:35:41Z</time>
      </trkpt>
      <trkpt lat="37.490001" lon="-1.719011">
        <ele>295.526</ele>
        <time>2021-06-11T14:35:43Z</time>
      </trkpt>
      <trkpt lat="37.489647" lon="-1.718982">
        <ele>294.908</ele>
        <time>2021-06-11T14:35:45Z</time>
      </trkpt>
      <trkpt lat="37.489465" lon="-1.719001">
        <ele>294.584</ele>
        <time>2021-06-11T14:35:46Z</time>
      </trkpt>
      <trkpt lat="37.489108" lon="-1.719104">
        <ele>293.912</ele>
        <time>2021-06-11T14:35:48Z</time>
      </trkpt>
      <trkpt lat="37.488938" lon="-1.719187">
        <ele>293.552</ele>
        <time>2021-06-11T14:35:49Z</time>
      </trkpt>
      <trkpt lat="37.488776" lon="-1.719292">
        <ele>293.210</ele>
        <time>2021-06-11T14:35:50Z</time>
      </trkpt>
      <trkpt lat="37.48862" lon="-1.719416">
        <ele>293.125</ele>
        <time>2021-06-11T14:35:51Z</time>
      </trkpt>
      <trkpt lat="37.488337" lon="-1.719709">
        <ele>293.116</ele>
        <time>2021-06-11T14:35:53Z</time>
      </trkpt>
      <trkpt lat="37.488207" lon="-1.719871">
        <ele>293.060</ele>
        <time>2021-06-11T14:35:54Z</time>
      </trkpt>
      <trkpt lat="37.488075" lon="-1.72003">
        <ele>292.673</ele>
        <time>2021-06-11T14:35:55Z</time>
      </trkpt>
      <trkpt lat="37.487937" lon="-1.720183">
        <ele>292.563</ele>
        <time>2021-06-11T14:35:56Z</time>
      </trkpt>
      <trkpt lat="37.487659" lon="-1.72049">
        <ele>292.144</ele>
        <time>2021-06-11T14:35:58Z</time>
      </trkpt>
      <trkpt lat="37.487369" lon="-1.720772">
        <ele>291.618</ele>
        <time>2021-06-11T14:36:00Z</time>
      </trkpt>
      <trkpt lat="37.48721" lon="-1.720897">
        <ele>290.908</ele>
        <time>2021-06-11T14:36:01Z</time>
      </trkpt>
      <trkpt lat="37.487043" lon="-1.721011">
        <ele>290.353</ele>
        <time>2021-06-11T14:36:02Z</time>
      </trkpt>
      <trkpt lat="37.486693" lon="-1.721213">
        <ele>289.921</ele>
        <time>2021-06-11T14:36:04Z</time>
      </trkpt>
      <trkpt lat="37.486328" lon="-1.721377">
        <ele>289.351</ele>
        <time>2021-06-11T14:36:06Z</time>
      </trkpt>
      <trkpt lat="37.486145" lon="-1.72145">
        <ele>288.819</ele>
        <time>2021-06-11T14:36:07Z</time>
      </trkpt>
      <trkpt lat="37.485962" lon="-1.721521">
        <ele>289.194</ele>
        <time>2021-06-11T14:36:08Z</time>
      </trkpt>
      <trkpt lat="37.485781" lon="-1.721586">
        <ele>288.615</ele>
        <time>2021-06-11T14:36:09Z</time>
      </trkpt>
      <trkpt lat="37.485422" lon="-1.721713">
        <ele>287.969</ele>
        <time>2021-06-11T14:36:11Z</time>
      </trkpt>
      <trkpt lat="37.48508" lon="-1.721852">
        <ele>287.412</ele>
        <time>2021-06-11T14:36:13Z</time>
      </trkpt>
      <trkpt lat="37.484908" lon="-1.721921">
        <ele>287.223</ele>
        <time>2021-06-11T14:36:14Z</time>
      </trkpt>
      <trkpt lat="37.484571" lon="-1.722058">
        <ele>287.283</ele>
        <time>2021-06-11T14:36:16Z</time>
      </trkpt>
      <trkpt lat="37.484405" lon="-1.722127">
        <ele>287.111</ele>
        <time>2021-06-11T14:36:17Z</time>
      </trkpt>
      <trkpt lat="37.484241" lon="-1.722193">
        <ele>287.408</ele>
        <time>2021-06-11T14:36:18Z</time>
      </trkpt>
      <trkpt lat="37.483917" lon="-1.722324">
        <ele>287.889</ele>
        <time>2021-06-11T14:36:20Z</time>
      </trkpt>
      <trkpt lat="37.483596" lon="-1.722452">
        <ele>287.877</ele>
        <time>2021-06-11T14:36:22Z</time>
      </trkpt>
      <trkpt lat="37.483277" lon="-1.72257">
        <ele>287.497</ele>
        <time>2021-06-11T14:36:24Z</time>
      </trkpt>
      <trkpt lat="37.482956" lon="-1.722687">
        <ele>286.465</ele>
        <time>2021-06-11T14:36:26Z</time>
      </trkpt>
      <trkpt lat="37.482641" lon="-1.7228">
        <ele>285.810</ele>
        <time>2021-06-11T14:36:28Z</time>
      </trkpt>
      <trkpt lat="37.482486" lon="-1.722853">
        <ele>285.341</ele>
        <time>2021-06-11T14:36:29Z</time>
      </trkpt>
      <trkpt lat="37.482179" lon="-1.722958">
        <ele>284.385</ele>
        <time>2021-06-11T14:36:31Z</time>
      </trkpt>
      <trkpt lat="37.482024" lon="-1.723013">
        <ele>283.898</ele>
        <time>2021-06-11T14:36:32Z</time>
      </trkpt>
      <trkpt lat="37.481718" lon="-1.723117">
        <ele>283.848</ele>
        <time>2021-06-11T14:36:34Z</time>
      </trkpt>
      <trkpt lat="37.481429" lon="-1.723214">
        <ele>283.461</ele>
        <time>2021-06-11T14:36:36Z</time>
      </trkpt>
      <trkpt lat="37.481147" lon="-1.723316">
        <ele>282.617</ele>
        <time>2021-06-11T14:36:38Z</time>
      </trkpt>
      <trkpt lat="37.481002" lon="-1.723363">
        <ele>282.108</ele>
        <time>2021-06-11T14:36:39Z</time>
      </trkpt>
      <trkpt lat="37.480852" lon="-1.723412">
        <ele>281.891</ele>
        <time>2021-06-11T14:36:40Z</time>
      </trkpt>
      <trkpt lat="37.480547" lon="-1.723519">
        <ele>281.579</ele>
        <time>2021-06-11T14:36:42Z</time>
      </trkpt>
      <trkpt lat="37.480394" lon="-1.72357">
        <ele>281.449</ele>
        <time>2021-06-11T14:36:43Z</time>
      </trkpt>
      <trkpt lat="37.480093" lon="-1.723669">
        <ele>281.577</ele>
        <time>2021-06-11T14:36:45Z</time>
      </trkpt>
      <trkpt lat="37.479944" lon="-1.723715">
        <ele>281.492</ele>
        <time>2021-06-11T14:36:46Z</time>
      </trkpt>
      <trkpt lat="37.479797" lon="-1.723757">
        <ele>281.663</ele>
        <time>2021-06-11T14:36:47Z</time>
      </trkpt>
      <trkpt lat="37.479504" lon="-1.723824">
        <ele>281.317</ele>
        <time>2021-06-11T14:36:49Z</time>
      </trkpt>
      <trkpt lat="37.479206" lon="-1.723885">
        <ele>281.530</ele>
        <time>2021-06-11T14:36:51Z</time>
      </trkpt>
      <trkpt lat="37.478907" lon="-1.72395">
        <ele>281.413</ele>
        <time>2021-06-11T14:36:53Z</time>
      </trkpt>
      <trkpt lat="37.478604" lon="-1.724025">
        <ele>281.543</ele>
        <time>2021-06-11T14:36:55Z</time>
      </trkpt>
      <trkpt lat="37.478451" lon="-1.724067">
        <ele>281.307</ele>
        <time>2021-06-11T14:36:56Z</time>
      </trkpt>
      <trkpt lat="37.478151" lon="-1.724168">
        <ele>280.608</ele>
        <time>2021-06-11T14:36:58Z</time>
      </trkpt>
      <trkpt lat="37.477848" lon="-1.724313">
        <ele>280.538</ele>
        <time>2021-06-11T14:37:00Z</time>
      </trkpt>
      <trkpt lat="37.477554" lon="-1.724479">
        <ele>280.666</ele>
        <time>2021-06-11T14:37:02Z</time>
      </trkpt>
      <trkpt lat="37.477406" lon="-1.724566">
        <ele>280.716</ele>
        <time>2021-06-11T14:37:03Z</time>
      </trkpt>
      <trkpt lat="37.477122" lon="-1.724752">
        <ele>280.494</ele>
        <time>2021-06-11T14:37:05Z</time>
      </trkpt>
      <trkpt lat="37.476985" lon="-1.72484">
        <ele>280.359</ele>
        <time>2021-06-11T14:37:06Z</time>
      </trkpt>
      <trkpt lat="37.476854" lon="-1.724923">
        <ele>280.230</ele>
        <time>2021-06-11T14:37:07Z</time>
      </trkpt>
      <trkpt lat="37.476603" lon="-1.725082">
        <ele>280.094</ele>
        <time>2021-06-11T14:37:09Z</time>
      </trkpt>
      <trkpt lat="37.47635" lon="-1.725237">
        <ele>279.747</ele>
        <time>2021-06-11T14:37:11Z</time>
      </trkpt>
      <trkpt lat="37.476108" lon="-1.725394">
        <ele>279.785</ele>
        <time>2021-06-11T14:37:13Z</time>
      </trkpt>
      <trkpt lat="37.475867" lon="-1.725535">
        <ele>279.389</ele>
        <time>2021-06-11T14:37:15Z</time>
      </trkpt>
      <trkpt lat="37.475746" lon="-1.725603">
        <ele>278.817</ele>
        <time>2021-06-11T14:37:16Z</time>
      </trkpt>
      <trkpt lat="37.475629" lon="-1.725671">
        <ele>278.408</ele>
        <time>2021-06-11T14:37:17Z</time>
      </trkpt>
      <trkpt lat="37.475517" lon="-1.725736">
        <ele>278.155</ele>
        <time>2021-06-11T14:37:18Z</time>
      </trkpt>
      <trkpt lat="37.475295" lon="-1.725874">
        <ele>278.083</ele>
        <time>2021-06-11T14:37:20Z</time>
      </trkpt>
      <trkpt lat="37.475096" lon="-1.725992">
        <ele>277.953</ele>
        <time>2021-06-11T14:37:22Z</time>
      </trkpt>
      <trkpt lat="37.474902" lon="-1.726085">
        <ele>277.921</ele>
        <time>2021-06-11T14:37:24Z</time>
      </trkpt>
      <trkpt lat="37.474737" lon="-1.726164">
        <ele>277.896</ele>
        <time>2021-06-11T14:37:26Z</time>
      </trkpt>
      <trkpt lat="37.474657" lon="-1.7262">
        <ele>277.997</ele>
        <time>2021-06-11T14:37:27Z</time>
      </trkpt>
      <trkpt lat="37.474582" lon="-1.726238">
        <ele>278.141</ele>
        <time>2021-06-11T14:37:28Z</time>
      </trkpt>
      <trkpt lat="37.474488" lon="-1.726293">
        <ele>278.084</ele>
        <time>2021-06-11T14:37:30Z</time>
      </trkpt>
      <trkpt lat="37.474431" lon="-1.72634">
        <ele>277.727</ele>
        <time>2021-06-11T14:37:33Z</time>
      </trkpt>
      <trkpt lat="37.474385" lon="-1.72636">
        <ele>278.068</ele>
        <time>2021-06-11T14:37:34Z</time>
      </trkpt>
      <trkpt lat="37.474255" lon="-1.726419">
        <ele>278.114</ele>
        <time>2021-06-11T14:37:36Z</time>
      </trkpt>
      <trkpt lat="37.474123" lon="-1.726488">
        <ele>277.808</ele>
        <time>2021-06-11T14:37:38Z</time>
      </trkpt>
      <trkpt lat="37.474055" lon="-1.726523">
        <ele>277.399</ele>
        <time>2021-06-11T14:37:39Z</time>
      </trkpt>
      <trkpt lat="37.473978" lon="-1.726561">
        <ele>277.127</ele>
        <time>2021-06-11T14:37:40Z</time>
      </trkpt>
      <trkpt lat="37.473886" lon="-1.726603">
        <ele>277.347</ele>
        <time>2021-06-11T14:37:41Z</time>
      </trkpt>
      <trkpt lat="37.473694" lon="-1.726709">
        <ele>277.145</ele>
        <time>2021-06-11T14:37:43Z</time>
      </trkpt>
      <trkpt lat="37.473477" lon="-1.726822">
        <ele>277.430</ele>
        <time>2021-06-11T14:37:45Z</time>
      </trkpt>
      <trkpt lat="37.473355" lon="-1.726874">
        <ele>277.361</ele>
        <time>2021-06-11T14:37:46Z</time>
      </trkpt>
      <trkpt lat="37.473121" lon="-1.726987">
        <ele>277.455</ele>
        <time>2021-06-11T14:37:48Z</time>
      </trkpt>
      <trkpt lat="37.473004" lon="-1.727042">
        <ele>277.478</ele>
        <time>2021-06-11T14:37:49Z</time>
      </trkpt>
      <trkpt lat="37.472766" lon="-1.727161">
        <ele>277.484</ele>
        <time>2021-06-11T14:37:51Z</time>
      </trkpt>
      <trkpt lat="37.472527" lon="-1.727295">
        <ele>277.307</ele>
        <time>2021-06-11T14:37:53Z</time>
      </trkpt>
      <trkpt lat="37.47241" lon="-1.727372">
        <ele>277.317</ele>
        <time>2021-06-11T14:37:54Z</time>
      </trkpt>
      <trkpt lat="37.47219" lon="-1.727531">
        <ele>277.308</ele>
        <time>2021-06-11T14:37:56Z</time>
      </trkpt>
      <trkpt lat="37.471993" lon="-1.727688">
        <ele>277.265</ele>
        <time>2021-06-11T14:37:58Z</time>
      </trkpt>
      <trkpt lat="37.471829" lon="-1.727834">
        <ele>276.843</ele>
        <time>2021-06-11T14:38:00Z</time>
      </trkpt>
      <trkpt lat="37.471758" lon="-1.727902">
        <ele>276.643</ele>
        <time>2021-06-11T14:38:01Z</time>
      </trkpt>
      <trkpt lat="37.471647" lon="-1.728007">
        <ele>276.571</ele>
        <time>2021-06-11T14:38:03Z</time>
      </trkpt>
      <trkpt lat="37.471596" lon="-1.728051">
        <ele>276.836</ele>
        <time>2021-06-11T14:38:04Z</time>
      </trkpt>
      <trkpt lat="37.471477" lon="-1.72816">
        <ele>276.367</ele>
        <time>2021-06-11T14:38:06Z</time>
      </trkpt>
      <trkpt lat="37.471401" lon="-1.728226">
        <ele>276.111</ele>
        <time>2021-06-11T14:38:07Z</time>
      </trkpt>
      <trkpt lat="37.471315" lon="-1.728298">
        <ele>276.144</ele>
        <time>2021-06-11T14:38:08Z</time>
      </trkpt>
      <trkpt lat="37.471226" lon="-1.728375">
        <ele>275.829</ele>
        <time>2021-06-11T14:38:09Z</time>
      </trkpt>
      <trkpt lat="37.471034" lon="-1.728541">
        <ele>275.900</ele>
        <time>2021-06-11T14:38:11Z</time>
      </trkpt>
      <trkpt lat="37.470828" lon="-1.72871">
        <ele>275.820</ele>
        <time>2021-06-11T14:38:13Z</time>
      </trkpt>
      <trkpt lat="37.470624" lon="-1.728886">
        <ele>275.608</ele>
        <time>2021-06-11T14:38:15Z</time>
      </trkpt>
      <trkpt lat="37.470529" lon="-1.728969">
        <ele>275.339</ele>
        <time>2021-06-11T14:38:16Z</time>
      </trkpt>
      <trkpt lat="37.47034" lon="-1.729119">
        <ele>275.337</ele>
        <time>2021-06-11T14:38:18Z</time>
      </trkpt>
      <trkpt lat="37.470151" lon="-1.729261">
        <ele>275.417</ele>
        <time>2021-06-11T14:38:20Z</time>
      </trkpt>
      <trkpt lat="37.470057" lon="-1.72933">
        <ele>275.215</ele>
        <time>2021-06-11T14:38:21Z</time>
      </trkpt>
      <trkpt lat="37.469963" lon="-1.729399">
        <ele>275.450</ele>
        <time>2021-06-11T14:38:22Z</time>
      </trkpt>
      <trkpt lat="37.46978" lon="-1.729531">
        <ele>275.281</ele>
        <time>2021-06-11T14:38:24Z</time>
      </trkpt>
      <trkpt lat="37.469607" lon="-1.729655">
        <ele>275.255</ele>
        <time>2021-06-11T14:38:26Z</time>
      </trkpt>
      <trkpt lat="37.469535" lon="-1.729709">
        <ele>274.978</ele>
        <time>2021-06-11T14:38:27Z</time>
      </trkpt>
      <trkpt lat="37.469472" lon="-1.729758">
        <ele>274.871</ele>
        <time>2021-06-11T14:38:28Z</time>
      </trkpt>
      <trkpt lat="37.46941" lon="-1.729804">
        <ele>274.541</ele>
        <time>2021-06-11T14:38:29Z</time>
      </trkpt>
      <trkpt lat="37.469272" lon="-1.729909">
        <ele>274.015</ele>
        <time>2021-06-11T14:38:31Z</time>
      </trkpt>
      <trkpt lat="37.469189" lon="-1.72997">
        <ele>274.008</ele>
        <time>2021-06-11T14:38:32Z</time>
      </trkpt>
      <trkpt lat="37.469006" lon="-1.730107">
        <ele>273.934</ele>
        <time>2021-06-11T14:38:34Z</time>
      </trkpt>
      <trkpt lat="37.468912" lon="-1.730181">
        <ele>273.962</ele>
        <time>2021-06-11T14:38:35Z</time>
      </trkpt>
      <trkpt lat="37.46872" lon="-1.730333">
        <ele>274.272</ele>
        <time>2021-06-11T14:38:37Z</time>
      </trkpt>
      <trkpt lat="37.46862" lon="-1.730409">
        <ele>274.360</ele>
        <time>2021-06-11T14:38:38Z</time>
      </trkpt>
      <trkpt lat="37.468396" lon="-1.73055">
        <ele>274.355</ele>
        <time>2021-06-11T14:38:40Z</time>
      </trkpt>
      <trkpt lat="37.468157" lon="-1.730671">
        <ele>274.076</ele>
        <time>2021-06-11T14:38:42Z</time>
      </trkpt>
      <trkpt lat="37.468034" lon="-1.730732">
        <ele>273.710</ele>
        <time>2021-06-11T14:38:43Z</time>
      </trkpt>
      <trkpt lat="37.467911" lon="-1.73079">
        <ele>273.473</ele>
        <time>2021-06-11T14:38:44Z</time>
      </trkpt>
      <trkpt lat="37.467676" lon="-1.730908">
        <ele>273.182</ele>
        <time>2021-06-11T14:38:46Z</time>
      </trkpt>
      <trkpt lat="37.467452" lon="-1.731027">
        <ele>273.043</ele>
        <time>2021-06-11T14:38:48Z</time>
      </trkpt>
      <trkpt lat="37.467232" lon="-1.731149">
        <ele>272.717</ele>
        <time>2021-06-11T14:38:50Z</time>
      </trkpt>
      <trkpt lat="37.467" lon="-1.731264">
        <ele>272.508</ele>
        <time>2021-06-11T14:38:52Z</time>
      </trkpt>
      <trkpt lat="37.466883" lon="-1.731321">
        <ele>272.125</ele>
        <time>2021-06-11T14:38:53Z</time>
      </trkpt>
      <trkpt lat="37.466656" lon="-1.731438">
        <ele>271.613</ele>
        <time>2021-06-11T14:38:55Z</time>
      </trkpt>
      <trkpt lat="37.466542" lon="-1.731498">
        <ele>271.433</ele>
        <time>2021-06-11T14:38:56Z</time>
      </trkpt>
      <trkpt lat="37.46632" lon="-1.73161">
        <ele>271.781</ele>
        <time>2021-06-11T14:38:58Z</time>
      </trkpt>
      <trkpt lat="37.466207" lon="-1.731664">
        <ele>271.726</ele>
        <time>2021-06-11T14:38:59Z</time>
      </trkpt>
      <trkpt lat="37.466093" lon="-1.731709">
        <ele>271.947</ele>
        <time>2021-06-11T14:39:00Z</time>
      </trkpt>
      <trkpt lat="37.465864" lon="-1.731777">
        <ele>272.321</ele>
        <time>2021-06-11T14:39:02Z</time>
      </trkpt>
      <trkpt lat="37.465746" lon="-1.731797">
        <ele>272.334</ele>
        <time>2021-06-11T14:39:03Z</time>
      </trkpt>
      <trkpt lat="37.465513" lon="-1.731829">
        <ele>272.123</ele>
        <time>2021-06-11T14:39:05Z</time>
      </trkpt>
      <trkpt lat="37.465274" lon="-1.73184">
        <ele>271.783</ele>
        <time>2021-06-11T14:39:07Z</time>
      </trkpt>
      <trkpt lat="37.465151" lon="-1.731843">
        <ele>271.611</ele>
        <time>2021-06-11T14:39:08Z</time>
      </trkpt>
      <trkpt lat="37.465027" lon="-1.731845">
        <ele>271.608</ele>
        <time>2021-06-11T14:39:09Z</time>
      </trkpt>
      <trkpt lat="37.464907" lon="-1.731848">
        <ele>270.929</ele>
        <time>2021-06-11T14:39:10Z</time>
      </trkpt>
      <trkpt lat="37.464669" lon="-1.731857">
        <ele>269.727</ele>
        <time>2021-06-11T14:39:12Z</time>
      </trkpt>
      <trkpt lat="37.464453" lon="-1.731862">
        <ele>268.717</ele>
        <time>2021-06-11T14:39:14Z</time>
      </trkpt>
      <trkpt lat="37.464359" lon="-1.731863">
        <ele>268.445</ele>
        <time>2021-06-11T14:39:15Z</time>
      </trkpt>
      <trkpt lat="37.464185" lon="-1.731875">
        <ele>267.910</ele>
        <time>2021-06-11T14:39:17Z</time>
      </trkpt>
      <trkpt lat="37.464094" lon="-1.731884">
        <ele>267.661</ele>
        <time>2021-06-11T14:39:18Z</time>
      </trkpt>
      <trkpt lat="37.463994" lon="-1.731897">
        <ele>266.975</ele>
        <time>2021-06-11T14:39:19Z</time>
      </trkpt>
      <trkpt lat="37.46378" lon="-1.731917">
        <ele>266.398</ele>
        <time>2021-06-11T14:39:21Z</time>
      </trkpt>
      <trkpt lat="37.46366" lon="-1.731925">
        <ele>265.915</ele>
        <time>2021-06-11T14:39:22Z</time>
      </trkpt>
      <trkpt lat="37.463412" lon="-1.73195">
        <ele>265.365</ele>
        <time>2021-06-11T14:39:24Z</time>
      </trkpt>
      <trkpt lat="37.463159" lon="-1.731991">
        <ele>265.411</ele>
        <time>2021-06-11T14:39:26Z</time>
      </trkpt>
      <trkpt lat="37.46303" lon="-1.732015">
        <ele>265.408</ele>
        <time>2021-06-11T14:39:27Z</time>
      </trkpt>
      <trkpt lat="37.462897" lon="-1.732043">
        <ele>265.338</ele>
        <time>2021-06-11T14:39:28Z</time>
      </trkpt>
      <trkpt lat="37.462765" lon="-1.732071">
        <ele>265.666</ele>
        <time>2021-06-11T14:39:29Z</time>
      </trkpt>
      <trkpt lat="37.462493" lon="-1.73213">
        <ele>265.596</ele>
        <time>2021-06-11T14:39:31Z</time>
      </trkpt>
      <trkpt lat="37.462361" lon="-1.732156">
        <ele>265.284</ele>
        <time>2021-06-11T14:39:32Z</time>
      </trkpt>
      <trkpt lat="37.46215" lon="-1.732197">
        <ele>265.199</ele>
        <time>2021-06-11T14:39:34Z</time>
      </trkpt>
      <trkpt lat="37.462069" lon="-1.732212">
        <ele>265.090</ele>
        <time>2021-06-11T14:39:35Z</time>
      </trkpt>
      <trkpt lat="37.461987" lon="-1.732231">
        <ele>265.454</ele>
        <time>2021-06-11T14:39:36Z</time>
      </trkpt>
      <trkpt lat="37.461801" lon="-1.732267">
        <ele>264.887</ele>
        <time>2021-06-11T14:39:38Z</time>
      </trkpt>
      <trkpt lat="37.461686" lon="-1.732286">
        <ele>264.926</ele>
        <time>2021-06-11T14:39:39Z</time>
      </trkpt>
      <trkpt lat="37.461565" lon="-1.732303">
        <ele>264.347</ele>
        <time>2021-06-11T14:39:40Z</time>
      </trkpt>
      <trkpt lat="37.461322" lon="-1.732336">
        <ele>263.511</ele>
        <time>2021-06-11T14:39:42Z</time>
      </trkpt>
      <trkpt lat="37.461208" lon="-1.732356">
        <ele>262.808</ele>
        <time>2021-06-11T14:39:43Z</time>
      </trkpt>
      <trkpt lat="37.461103" lon="-1.732379">
        <ele>262.339</ele>
        <time>2021-06-11T14:39:44Z</time>
      </trkpt>
      <trkpt lat="37.460912" lon="-1.732421">
        <ele>261.787</ele>
        <time>2021-06-11T14:39:46Z</time>
      </trkpt>
      <trkpt lat="37.460769" lon="-1.732467">
        <ele>261.547</ele>
        <time>2021-06-11T14:39:48Z</time>
      </trkpt>
      <trkpt lat="37.460656" lon="-1.732501">
        <ele>261.155</ele>
        <time>2021-06-11T14:39:50Z</time>
      </trkpt>
      <trkpt lat="37.460523" lon="-1.732544">
        <ele>260.940</ele>
        <time>2021-06-11T14:39:52Z</time>
      </trkpt>
      <trkpt lat="37.460443" lon="-1.732575">
        <ele>260.351</ele>
        <time>2021-06-11T14:39:53Z</time>
      </trkpt>
      <trkpt lat="37.460257" lon="-1.732666">
        <ele>260.285</ele>
        <time>2021-06-11T14:39:55Z</time>
      </trkpt>
      <trkpt lat="37.460043" lon="-1.732754">
        <ele>259.968</ele>
        <time>2021-06-11T14:39:57Z</time>
      </trkpt>
      <trkpt lat="37.459791" lon="-1.732844">
        <ele>259.553</ele>
        <time>2021-06-11T14:39:59Z</time>
      </trkpt>
      <trkpt lat="37.45966" lon="-1.732883">
        <ele>259.504</ele>
        <time>2021-06-11T14:40:00Z</time>
      </trkpt>
      <trkpt lat="37.459525" lon="-1.732919">
        <ele>259.214</ele>
        <time>2021-06-11T14:40:01Z</time>
      </trkpt>
      <trkpt lat="37.459242" lon="-1.732995">
        <ele>259.108</ele>
        <time>2021-06-11T14:40:03Z</time>
      </trkpt>
      <trkpt lat="37.459091" lon="-1.733032">
        <ele>258.922</ele>
        <time>2021-06-11T14:40:04Z</time>
      </trkpt>
      <trkpt lat="37.458781" lon="-1.733101">
        <ele>258.660</ele>
        <time>2021-06-11T14:40:06Z</time>
      </trkpt>
      <trkpt lat="37.458619" lon="-1.733137">
        <ele>258.010</ele>
        <time>2021-06-11T14:40:07Z</time>
      </trkpt>
      <trkpt lat="37.458453" lon="-1.733175">
        <ele>257.718</ele>
        <time>2021-06-11T14:40:08Z</time>
      </trkpt>
      <trkpt lat="37.458123" lon="-1.733252">
        <ele>257.573</ele>
        <time>2021-06-11T14:40:10Z</time>
      </trkpt>
      <trkpt lat="37.457796" lon="-1.733327">
        <ele>257.524</ele>
        <time>2021-06-11T14:40:12Z</time>
      </trkpt>
      <trkpt lat="37.457635" lon="-1.733362">
        <ele>257.268</ele>
        <time>2021-06-11T14:40:13Z</time>
      </trkpt>
      <trkpt lat="37.457323" lon="-1.733434">
        <ele>256.941</ele>
        <time>2021-06-11T14:40:15Z</time>
      </trkpt>
      <trkpt lat="37.45717" lon="-1.733471">
        <ele>256.891</ele>
        <time>2021-06-11T14:40:16Z</time>
      </trkpt>
      <trkpt lat="37.45686" lon="-1.733544">
        <ele>256.681</ele>
        <time>2021-06-11T14:40:18Z</time>
      </trkpt>
      <trkpt lat="37.456702" lon="-1.73358">
        <ele>256.319</ele>
        <time>2021-06-11T14:40:19Z</time>
      </trkpt>
      <trkpt lat="37.456546" lon="-1.733616">
        <ele>255.808</ele>
        <time>2021-06-11T14:40:20Z</time>
      </trkpt>
      <trkpt lat="37.456391" lon="-1.733652">
        <ele>255.336</ele>
        <time>2021-06-11T14:40:21Z</time>
      </trkpt>
      <trkpt lat="37.45608" lon="-1.733727">
        <ele>254.784</ele>
        <time>2021-06-11T14:40:23Z</time>
      </trkpt>
      <trkpt lat="37.455758" lon="-1.733812">
        <ele>254.074</ele>
        <time>2021-06-11T14:40:25Z</time>
      </trkpt>
      <trkpt lat="37.455596" lon="-1.733859">
        <ele>253.332</ele>
        <time>2021-06-11T14:40:26Z</time>
      </trkpt>
      <trkpt lat="37.455432" lon="-1.733908">
        <ele>253.257</ele>
        <time>2021-06-11T14:40:27Z</time>
      </trkpt>
      <trkpt lat="37.455108" lon="-1.734023">
        <ele>253.188</ele>
        <time>2021-06-11T14:40:29Z</time>
      </trkpt>
      <trkpt lat="37.454777" lon="-1.734164">
        <ele>252.962</ele>
        <time>2021-06-11T14:40:31Z</time>
      </trkpt>
      <trkpt lat="37.454607" lon="-1.734245">
        <ele>252.975</ele>
        <time>2021-06-11T14:40:32Z</time>
      </trkpt>
      <trkpt lat="37.454263" lon="-1.734411">
        <ele>252.332</ele>
        <time>2021-06-11T14:40:34Z</time>
      </trkpt>
      <trkpt lat="37.454088" lon="-1.734491">
        <ele>252.092</ele>
        <time>2021-06-11T14:40:35Z</time>
      </trkpt>
      <trkpt lat="37.453914" lon="-1.73457">
        <ele>251.311</ele>
        <time>2021-06-11T14:40:36Z</time>
      </trkpt>
      <trkpt lat="37.453738" lon="-1.734646">
        <ele>250.908</ele>
        <time>2021-06-11T14:40:37Z</time>
      </trkpt>
      <trkpt lat="37.453387" lon="-1.734777">
        <ele>251.280</ele>
        <time>2021-06-11T14:40:39Z</time>
      </trkpt>
      <trkpt lat="37.453038" lon="-1.734892">
        <ele>251.638</ele>
        <time>2021-06-11T14:40:41Z</time>
      </trkpt>
      <trkpt lat="37.452692" lon="-1.734993">
        <ele>251.778</ele>
        <time>2021-06-11T14:40:43Z</time>
      </trkpt>
      <trkpt lat="37.452518" lon="-1.735043">
        <ele>251.556</ele>
        <time>2021-06-11T14:40:44Z</time>
      </trkpt>
      <trkpt lat="37.452167" lon="-1.73515">
        <ele>251.311</ele>
        <time>2021-06-11T14:40:46Z</time>
      </trkpt>
      <trkpt lat="37.451813" lon="-1.735265">
        <ele>251.112</ele>
        <time>2021-06-11T14:40:48Z</time>
      </trkpt>
      <trkpt lat="37.451454" lon="-1.73537">
        <ele>250.586</ele>
        <time>2021-06-11T14:40:50Z</time>
      </trkpt>
      <trkpt lat="37.451269" lon="-1.735418">
        <ele>250.249</ele>
        <time>2021-06-11T14:40:51Z</time>
      </trkpt>
      <trkpt lat="37.450892" lon="-1.735496">
        <ele>249.796</ele>
        <time>2021-06-11T14:40:53Z</time>
      </trkpt>
      <trkpt lat="37.450699" lon="-1.735532">
        <ele>249.731</ele>
        <time>2021-06-11T14:40:54Z</time>
      </trkpt>
      <trkpt lat="37.450313" lon="-1.735612">
        <ele>249.424</ele>
        <time>2021-06-11T14:40:56Z</time>
      </trkpt>
      <trkpt lat="37.450121" lon="-1.735658">
        <ele>249.008</ele>
        <time>2021-06-11T14:40:57Z</time>
      </trkpt>
      <trkpt lat="37.449744" lon="-1.735762">
        <ele>248.676</ele>
        <time>2021-06-11T14:40:59Z</time>
      </trkpt>
      <trkpt lat="37.449556" lon="-1.735824">
        <ele>248.244</ele>
        <time>2021-06-11T14:41:00Z</time>
      </trkpt>
      <trkpt lat="37.449179" lon="-1.73596">
        <ele>247.724</ele>
        <time>2021-06-11T14:41:02Z</time>
      </trkpt>
      <trkpt lat="37.448805" lon="-1.736102">
        <ele>247.062</ele>
        <time>2021-06-11T14:41:04Z</time>
      </trkpt>
      <trkpt lat="37.448615" lon="-1.736175">
        <ele>246.617</ele>
        <time>2021-06-11T14:41:05Z</time>
      </trkpt>
      <trkpt lat="37.448426" lon="-1.736245">
        <ele>246.168</ele>
        <time>2021-06-11T14:41:06Z</time>
      </trkpt>
      <trkpt lat="37.448059" lon="-1.73638">
        <ele>245.422</ele>
        <time>2021-06-11T14:41:08Z</time>
      </trkpt>
      <trkpt lat="37.44769" lon="-1.736511">
        <ele>245.425</ele>
        <time>2021-06-11T14:41:10Z</time>
      </trkpt>
      <trkpt lat="37.447505" lon="-1.736571">
        <ele>245.461</ele>
        <time>2021-06-11T14:41:11Z</time>
      </trkpt>
      <trkpt lat="37.44714" lon="-1.736674">
        <ele>245.421</ele>
        <time>2021-06-11T14:41:13Z</time>
      </trkpt>
      <trkpt lat="37.446958" lon="-1.736714">
        <ele>245.413</ele>
        <time>2021-06-11T14:41:14Z</time>
      </trkpt>
      <trkpt lat="37.446601" lon="-1.736794">
        <ele>244.908</ele>
        <time>2021-06-11T14:41:16Z</time>
      </trkpt>
      <trkpt lat="37.446421" lon="-1.736835">
        <ele>244.693</ele>
        <time>2021-06-11T14:41:17Z</time>
      </trkpt>
      <trkpt lat="37.446065" lon="-1.736914">
        <ele>244.651</ele>
        <time>2021-06-11T14:41:19Z</time>
      </trkpt>
      <trkpt lat="37.445888" lon="-1.73695">
        <ele>244.561</ele>
        <time>2021-06-11T14:41:20Z</time>
      </trkpt>
      <trkpt lat="37.445712" lon="-1.736984">
        <ele>244.329</ele>
        <time>2021-06-11T14:41:21Z</time>
      </trkpt>
      <trkpt lat="37.445365" lon="-1.737055">
        <ele>244.214</ele>
        <time>2021-06-11T14:41:23Z</time>
      </trkpt>
      <trkpt lat="37.445188" lon="-1.737087">
        <ele>244.295</ele>
        <time>2021-06-11T14:41:24Z</time>
      </trkpt>
      <trkpt lat="37.445015" lon="-1.737121">
        <ele>244.139</ele>
        <time>2021-06-11T14:41:25Z</time>
      </trkpt>
      <trkpt lat="37.44469" lon="-1.73719">
        <ele>244.232</ele>
        <time>2021-06-11T14:41:27Z</time>
      </trkpt>
      <trkpt lat="37.444539" lon="-1.73722">
        <ele>244.434</ele>
        <time>2021-06-11T14:41:28Z</time>
      </trkpt>
      <trkpt lat="37.444394" lon="-1.73725">
        <ele>244.355</ele>
        <time>2021-06-11T14:41:29Z</time>
      </trkpt>
      <trkpt lat="37.444138" lon="-1.737316">
        <ele>244.110</ele>
        <time>2021-06-11T14:41:31Z</time>
      </trkpt>
      <trkpt lat="37.444021" lon="-1.737354">
        <ele>243.808</ele>
        <time>2021-06-11T14:41:32Z</time>
      </trkpt>
      <trkpt lat="37.443809" lon="-1.73743">
        <ele>243.710</ele>
        <time>2021-06-11T14:41:34Z</time>
      </trkpt>
      <trkpt lat="37.443624" lon="-1.7375">
        <ele>243.788</ele>
        <time>2021-06-11T14:41:36Z</time>
      </trkpt>
      <trkpt lat="37.443479" lon="-1.737548">
        <ele>243.748</ele>
        <time>2021-06-11T14:41:38Z</time>
      </trkpt>
      <trkpt lat="37.443372" lon="-1.737583">
        <ele>243.876</ele>
        <time>2021-06-11T14:41:40Z</time>
      </trkpt>
      <trkpt lat="37.443322" lon="-1.737598">
        <ele>243.671</ele>
        <time>2021-06-11T14:41:41Z</time>
      </trkpt>
      <trkpt lat="37.443204" lon="-1.737643">
        <ele>243.532</ele>
        <time>2021-06-11T14:41:43Z</time>
      </trkpt>
      <trkpt lat="37.443061" lon="-1.737701">
        <ele>243.076</ele>
        <time>2021-06-11T14:41:45Z</time>
      </trkpt>
      <trkpt lat="37.442972" lon="-1.737737">
        <ele>242.859</ele>
        <time>2021-06-11T14:41:46Z</time>
      </trkpt>
      <trkpt lat="37.442782" lon="-1.737812">
        <ele>242.758</ele>
        <time>2021-06-11T14:41:48Z</time>
      </trkpt>
      <trkpt lat="37.442675" lon="-1.737847">
        <ele>242.352</ele>
        <time>2021-06-11T14:41:49Z</time>
      </trkpt>
      <trkpt lat="37.442568" lon="-1.737886">
        <ele>242.117</ele>
        <time>2021-06-11T14:41:50Z</time>
      </trkpt>
      <trkpt lat="37.442347" lon="-1.737974">
        <ele>242.208</ele>
        <time>2021-06-11T14:41:52Z</time>
      </trkpt>
      <trkpt lat="37.442232" lon="-1.738017">
        <ele>242.262</ele>
        <time>2021-06-11T14:41:53Z</time>
      </trkpt>
      <trkpt lat="37.442114" lon="-1.738059">
        <ele>241.840</ele>
        <time>2021-06-11T14:41:54Z</time>
      </trkpt>
      <trkpt lat="37.441871" lon="-1.738143">
        <ele>241.520</ele>
        <time>2021-06-11T14:41:56Z</time>
      </trkpt>
      <trkpt lat="37.441751" lon="-1.738185">
        <ele>241.568</ele>
        <time>2021-06-11T14:41:57Z</time>
      </trkpt>
      <trkpt lat="37.441637" lon="-1.738226">
        <ele>241.753</ele>
        <time>2021-06-11T14:41:58Z</time>
      </trkpt>
      <trkpt lat="37.44153" lon="-1.738263">
        <ele>241.424</ele>
        <time>2021-06-11T14:41:59Z</time>
      </trkpt>
      <trkpt lat="37.441337" lon="-1.738337">
        <ele>241.388</ele>
        <time>2021-06-11T14:42:01Z</time>
      </trkpt>
      <trkpt lat="37.441238" lon="-1.738378">
        <ele>241.281</ele>
        <time>2021-06-11T14:42:02Z</time>
      </trkpt>
      <trkpt lat="37.44104" lon="-1.738455">
        <ele>241.448</ele>
        <time>2021-06-11T14:42:04Z</time>
      </trkpt>
      <trkpt lat="37.440937" lon="-1.738492">
        <ele>241.661</ele>
        <time>2021-06-11T14:42:05Z</time>
      </trkpt>
      <trkpt lat="37.440832" lon="-1.738528">
        <ele>241.717</ele>
        <time>2021-06-11T14:42:06Z</time>
      </trkpt>
      <trkpt lat="37.440725" lon="-1.738568">
        <ele>241.708</ele>
        <time>2021-06-11T14:42:07Z</time>
      </trkpt>
      <trkpt lat="37.440502" lon="-1.738655">
        <ele>241.781</ele>
        <time>2021-06-11T14:42:09Z</time>
      </trkpt>
      <trkpt lat="37.440384" lon="-1.7387">
        <ele>241.549</ele>
        <time>2021-06-11T14:42:10Z</time>
      </trkpt>
      <trkpt lat="37.440131" lon="-1.738785">
        <ele>240.799</ele>
        <time>2021-06-11T14:42:12Z</time>
      </trkpt>
      <trkpt lat="37.439852" lon="-1.738881">
        <ele>240.157</ele>
        <time>2021-06-11T14:42:14Z</time>
      </trkpt>
      <trkpt lat="37.439553" lon="-1.738992">
        <ele>239.512</ele>
        <time>2021-06-11T14:42:16Z</time>
      </trkpt>
      <trkpt lat="37.439244" lon="-1.739108">
        <ele>239.013</ele>
        <time>2021-06-11T14:42:18Z</time>
      </trkpt>
      <trkpt lat="37.438935" lon="-1.739221">
        <ele>238.867</ele>
        <time>2021-06-11T14:42:20Z</time>
      </trkpt>
      <trkpt lat="37.438779" lon="-1.739277">
        <ele>238.670</ele>
        <time>2021-06-11T14:42:21Z</time>
      </trkpt>
      <trkpt lat="37.438481" lon="-1.739387">
        <ele>238.396</ele>
        <time>2021-06-11T14:42:23Z</time>
      </trkpt>
      <trkpt lat="37.438332" lon="-1.739441">
        <ele>238.031</ele>
        <time>2021-06-11T14:42:24Z</time>
      </trkpt>
      <trkpt lat="37.438035" lon="-1.739549">
        <ele>238.024</ele>
        <time>2021-06-11T14:42:26Z</time>
      </trkpt>
      <trkpt lat="37.437744" lon="-1.739656">
        <ele>237.808</ele>
        <time>2021-06-11T14:42:28Z</time>
      </trkpt>
      <trkpt lat="37.437454" lon="-1.739759">
        <ele>237.346</ele>
        <time>2021-06-11T14:42:30Z</time>
      </trkpt>
      <trkpt lat="37.437169" lon="-1.73986">
        <ele>237.084</ele>
        <time>2021-06-11T14:42:32Z</time>
      </trkpt>
      <trkpt lat="37.436899" lon="-1.739962">
        <ele>236.354</ele>
        <time>2021-06-11T14:42:34Z</time>
      </trkpt>
      <trkpt lat="37.436764" lon="-1.740012">
        <ele>236.062</ele>
        <time>2021-06-11T14:42:35Z</time>
      </trkpt>
      <trkpt lat="37.436623" lon="-1.740062">
        <ele>236.217</ele>
        <time>2021-06-11T14:42:36Z</time>
      </trkpt>
      <trkpt lat="37.436335" lon="-1.740161">
        <ele>236.318</ele>
        <time>2021-06-11T14:42:38Z</time>
      </trkpt>
      <trkpt lat="37.436187" lon="-1.740211">
        <ele>236.412</ele>
        <time>2021-06-11T14:42:39Z</time>
      </trkpt>
      <trkpt lat="37.435891" lon="-1.740321">
        <ele>236.345</ele>
        <time>2021-06-11T14:42:41Z</time>
      </trkpt>
      <trkpt lat="37.435742" lon="-1.740377">
        <ele>236.689</ele>
        <time>2021-06-11T14:42:42Z</time>
      </trkpt>
      <trkpt lat="37.435441" lon="-1.740488">
        <ele>236.606</ele>
        <time>2021-06-11T14:42:44Z</time>
      </trkpt>
      <trkpt lat="37.435137" lon="-1.740591">
        <ele>236.426</ele>
        <time>2021-06-11T14:42:46Z</time>
      </trkpt>
      <trkpt lat="37.434982" lon="-1.740639">
        <ele>236.408</ele>
        <time>2021-06-11T14:42:47Z</time>
      </trkpt>
      <trkpt lat="37.434826" lon="-1.740688">
        <ele>236.575</ele>
        <time>2021-06-11T14:42:48Z</time>
      </trkpt>
      <trkpt lat="37.434511" lon="-1.740776">
        <ele>236.863</ele>
        <time>2021-06-11T14:42:50Z</time>
      </trkpt>
      <trkpt lat="37.434189" lon="-1.740861">
        <ele>236.683</ele>
        <time>2021-06-11T14:42:52Z</time>
      </trkpt>
      <trkpt lat="37.433853" lon="-1.740949">
        <ele>236.311</ele>
        <time>2021-06-11T14:42:54Z</time>
      </trkpt>
      <trkpt lat="37.433678" lon="-1.740994">
        <ele>235.736</ele>
        <time>2021-06-11T14:42:55Z</time>
      </trkpt>
      <trkpt lat="37.433314" lon="-1.741082">
        <ele>234.947</ele>
        <time>2021-06-11T14:42:57Z</time>
      </trkpt>
      <trkpt lat="37.432937" lon="-1.741169">
        <ele>233.921</ele>
        <time>2021-06-11T14:42:59Z</time>
      </trkpt>
      <trkpt lat="37.432748" lon="-1.741213">
        <ele>233.214</ele>
        <time>2021-06-11T14:43:00Z</time>
      </trkpt>
      <trkpt lat="37.432558" lon="-1.741259">
        <ele>232.738</ele>
        <time>2021-06-11T14:43:01Z</time>
      </trkpt>
      <trkpt lat="37.432178" lon="-1.741358">
        <ele>232.270</ele>
        <time>2021-06-11T14:43:03Z</time>
      </trkpt>
      <trkpt lat="37.431986" lon="-1.741407">
        <ele>232.217</ele>
        <time>2021-06-11T14:43:04Z</time>
      </trkpt>
      <trkpt lat="37.4318" lon="-1.741454">
        <ele>232.208</ele>
        <time>2021-06-11T14:43:05Z</time>
      </trkpt>
      <trkpt lat="37.431438" lon="-1.741544">
        <ele>232.090</ele>
        <time>2021-06-11T14:43:07Z</time>
      </trkpt>
      <trkpt lat="37.431083" lon="-1.741634">
        <ele>232.178</ele>
        <time>2021-06-11T14:43:09Z</time>
      </trkpt>
      <trkpt lat="37.430908" lon="-1.741679">
        <ele>232.288</ele>
        <time>2021-06-11T14:43:10Z</time>
      </trkpt>
      <trkpt lat="37.430573" lon="-1.741756">
        <ele>232.256</ele>
        <time>2021-06-11T14:43:12Z</time>
      </trkpt>
      <trkpt lat="37.430409" lon="-1.741792">
        <ele>231.871</ele>
        <time>2021-06-11T14:43:13Z</time>
      </trkpt>
      <trkpt lat="37.430081" lon="-1.741862">
        <ele>231.462</ele>
        <time>2021-06-11T14:43:15Z</time>
      </trkpt>
      <trkpt lat="37.429761" lon="-1.74194">
        <ele>231.236</ele>
        <time>2021-06-11T14:43:17Z</time>
      </trkpt>
      <trkpt lat="37.429606" lon="-1.741981">
        <ele>231.039</ele>
        <time>2021-06-11T14:43:18Z</time>
      </trkpt>
      <trkpt lat="37.429292" lon="-1.742059">
        <ele>231.038</ele>
        <time>2021-06-11T14:43:20Z</time>
      </trkpt>
      <trkpt lat="37.429133" lon="-1.742098">
        <ele>231.070</ele>
        <time>2021-06-11T14:43:21Z</time>
      </trkpt>
      <trkpt lat="37.428975" lon="-1.742138">
        <ele>230.717</ele>
        <time>2021-06-11T14:43:22Z</time>
      </trkpt>
      <trkpt lat="37.428661" lon="-1.742212">
        <ele>230.308</ele>
        <time>2021-06-11T14:43:24Z</time>
      </trkpt>
      <trkpt lat="37.428505" lon="-1.742248">
        <ele>230.280</ele>
        <time>2021-06-11T14:43:25Z</time>
      </trkpt>
      <trkpt lat="37.428206" lon="-1.742319">
        <ele>229.828</ele>
        <time>2021-06-11T14:43:27Z</time>
      </trkpt>
      <trkpt lat="37.428062" lon="-1.742353">
        <ele>229.468</ele>
        <time>2021-06-11T14:43:28Z</time>
      </trkpt>
      <trkpt lat="37.427784" lon="-1.742418">
        <ele>228.716</ele>
        <time>2021-06-11T14:43:30Z</time>
      </trkpt>
      <trkpt lat="37.427514" lon="-1.74248">
        <ele>228.651</ele>
        <time>2021-06-11T14:43:32Z</time>
      </trkpt>
      <trkpt lat="37.427247" lon="-1.742538">
        <ele>228.162</ele>
        <time>2021-06-11T14:43:34Z</time>
      </trkpt>
      <trkpt lat="37.426977" lon="-1.742599">
        <ele>228.426</ele>
        <time>2021-06-11T14:43:36Z</time>
      </trkpt>
      <trkpt lat="37.426843" lon="-1.742631">
        <ele>228.869</ele>
        <time>2021-06-11T14:43:37Z</time>
      </trkpt>
      <trkpt lat="37.426567" lon="-1.742691">
        <ele>228.588</ele>
        <time>2021-06-11T14:43:39Z</time>
      </trkpt>
      <trkpt lat="37.426423" lon="-1.742719">
        <ele>228.424</ele>
        <time>2021-06-11T14:43:40Z</time>
      </trkpt>
      <trkpt lat="37.426129" lon="-1.74277">
        <ele>228.326</ele>
        <time>2021-06-11T14:43:42Z</time>
      </trkpt>
      <trkpt lat="37.425978" lon="-1.742795">
        <ele>228.308</ele>
        <time>2021-06-11T14:43:43Z</time>
      </trkpt>
      <trkpt lat="37.42568" lon="-1.742847">
        <ele>227.735</ele>
        <time>2021-06-11T14:43:45Z</time>
      </trkpt>
      <trkpt lat="37.425383" lon="-1.7429">
        <ele>226.543</ele>
        <time>2021-06-11T14:43:47Z</time>
      </trkpt>
      <trkpt lat="37.425237" lon="-1.742929">
        <ele>225.583</ele>
        <time>2021-06-11T14:43:48Z</time>
      </trkpt>
      <trkpt lat="37.425092" lon="-1.742956">
        <ele>224.791</ele>
        <time>2021-06-11T14:43:49Z</time>
      </trkpt>
      <trkpt lat="37.424799" lon="-1.743008">
        <ele>224.166</ele>
        <time>2021-06-11T14:43:51Z</time>
      </trkpt>
      <trkpt lat="37.4245" lon="-1.743067">
        <ele>223.667</ele>
        <time>2021-06-11T14:43:53Z</time>
      </trkpt>
      <trkpt lat="37.424217" lon="-1.743125">
        <ele>223.411</ele>
        <time>2021-06-11T14:43:55Z</time>
      </trkpt>
      <trkpt lat="37.424079" lon="-1.743156">
        <ele>222.964</ele>
        <time>2021-06-11T14:43:56Z</time>
      </trkpt>
      <trkpt lat="37.423798" lon="-1.743203">
        <ele>222.664</ele>
        <time>2021-06-11T14:43:58Z</time>
      </trkpt>
      <trkpt lat="37.423652" lon="-1.743227">
        <ele>222.206</ele>
        <time>2021-06-11T14:43:59Z</time>
      </trkpt>
      <trkpt lat="37.423507" lon="-1.743254">
        <ele>222.216</ele>
        <time>2021-06-11T14:44:00Z</time>
      </trkpt>
      <trkpt lat="37.42322" lon="-1.743314">
        <ele>221.608</ele>
        <time>2021-06-11T14:44:02Z</time>
      </trkpt>
      <trkpt lat="37.423077" lon="-1.743349">
        <ele>221.623</ele>
        <time>2021-06-11T14:44:03Z</time>
      </trkpt>
      <trkpt lat="37.422797" lon="-1.743425">
        <ele>221.491</ele>
        <time>2021-06-11T14:44:05Z</time>
      </trkpt>
      <trkpt lat="37.422661" lon="-1.743471">
        <ele>221.571</ele>
        <time>2021-06-11T14:44:06Z</time>
      </trkpt>
      <trkpt lat="37.422389" lon="-1.743564">
        <ele>221.459</ele>
        <time>2021-06-11T14:44:08Z</time>
      </trkpt>
      <trkpt lat="37.422259" lon="-1.74362">
        <ele>221.114</ele>
        <time>2021-06-11T14:44:09Z</time>
      </trkpt>
      <trkpt lat="37.422132" lon="-1.743673">
        <ele>220.925</ele>
        <time>2021-06-11T14:44:10Z</time>
      </trkpt>
      <trkpt lat="37.421893" lon="-1.743775">
        <ele>220.889</ele>
        <time>2021-06-11T14:44:12Z</time>
      </trkpt>
      <trkpt lat="37.421783" lon="-1.743825">
        <ele>220.772</ele>
        <time>2021-06-11T14:44:13Z</time>
      </trkpt>
      <trkpt lat="37.42158" lon="-1.74392">
        <ele>220.041</ele>
        <time>2021-06-11T14:44:15Z</time>
      </trkpt>
      <trkpt lat="37.421493" lon="-1.743973">
        <ele>219.681</ele>
        <time>2021-06-11T14:44:16Z</time>
      </trkpt>
      <trkpt lat="37.421417" lon="-1.744034">
        <ele>219.309</ele>
        <time>2021-06-11T14:44:17Z</time>
      </trkpt>
      <trkpt lat="37.421349" lon="-1.744106">
        <ele>219.708</ele>
        <time>2021-06-11T14:44:18Z</time>
      </trkpt>
      <trkpt lat="37.421254" lon="-1.744271">
        <ele>219.621</ele>
        <time>2021-06-11T14:44:20Z</time>
      </trkpt>
      <trkpt lat="37.42114" lon="-1.744391">
        <ele>219.629</ele>
        <time>2021-06-11T14:44:22Z</time>
      </trkpt>
      <trkpt lat="37.421064" lon="-1.744437">
        <ele>219.679</ele>
        <time>2021-06-11T14:44:23Z</time>
      </trkpt>
      <trkpt lat="37.420982" lon="-1.744496">
        <ele>219.567</ele>
        <time>2021-06-11T14:44:24Z</time>
      </trkpt>
      <trkpt lat="37.420903" lon="-1.744582">
        <ele>219.322</ele>
        <time>2021-06-11T14:44:25Z</time>
      </trkpt>
      <trkpt lat="37.420833" lon="-1.744693">
        <ele>219.113</ele>
        <time>2021-06-11T14:44:26Z</time>
      </trkpt>
      <trkpt lat="37.420699" lon="-1.744957">
        <ele>218.477</ele>
        <time>2021-06-11T14:44:28Z</time>
      </trkpt>
      <trkpt lat="37.420624" lon="-1.745093">
        <ele>218.110</ele>
        <time>2021-06-11T14:44:29Z</time>
      </trkpt>
      <trkpt lat="37.420466" lon="-1.745377">
        <ele>217.785</ele>
        <time>2021-06-11T14:44:31Z</time>
      </trkpt>
      <trkpt lat="37.42038" lon="-1.745525">
        <ele>217.689</ele>
        <time>2021-06-11T14:44:32Z</time>
      </trkpt>
      <trkpt lat="37.420203" lon="-1.745814">
        <ele>217.717</ele>
        <time>2021-06-11T14:44:34Z</time>
      </trkpt>
      <trkpt lat="37.420109" lon="-1.745962">
        <ele>217.908</ele>
        <time>2021-06-11T14:44:35Z</time>
      </trkpt>
      <trkpt lat="37.41992" lon="-1.746256">
        <ele>217.625</ele>
        <time>2021-06-11T14:44:37Z</time>
      </trkpt>
      <trkpt lat="37.419824" lon="-1.746406">
        <ele>217.483</ele>
        <time>2021-06-11T14:44:38Z</time>
      </trkpt>
      <trkpt lat="37.419724" lon="-1.746557">
        <ele>217.533</ele>
        <time>2021-06-11T14:44:39Z</time>
      </trkpt>
      <trkpt lat="37.419509" lon="-1.746862">
        <ele>217.231</ele>
        <time>2021-06-11T14:44:41Z</time>
      </trkpt>
      <trkpt lat="37.419395" lon="-1.747016">
        <ele>217.146</ele>
        <time>2021-06-11T14:44:42Z</time>
      </trkpt>
      <trkpt lat="37.419155" lon="-1.747316">
        <ele>217.097</ele>
        <time>2021-06-11T14:44:44Z</time>
      </trkpt>
      <trkpt lat="37.418897" lon="-1.747607">
        <ele>217.041</ele>
        <time>2021-06-11T14:44:46Z</time>
      </trkpt>
      <trkpt lat="37.418764" lon="-1.747746">
        <ele>216.844</ele>
        <time>2021-06-11T14:44:47Z</time>
      </trkpt>
      <trkpt lat="37.418625" lon="-1.747879">
        <ele>216.777</ele>
        <time>2021-06-11T14:44:48Z</time>
      </trkpt>
      <trkpt lat="37.418339" lon="-1.748129">
        <ele>216.361</ele>
        <time>2021-06-11T14:44:50Z</time>
      </trkpt>
      <trkpt lat="37.418046" lon="-1.748379">
        <ele>215.827</ele>
        <time>2021-06-11T14:44:52Z</time>
      </trkpt>
      <trkpt lat="37.417898" lon="-1.748498">
        <ele>215.408</ele>
        <time>2021-06-11T14:44:53Z</time>
      </trkpt>
      <trkpt lat="37.417605" lon="-1.74873">
        <ele>214.954</ele>
        <time>2021-06-11T14:44:55Z</time>
      </trkpt>
      <trkpt lat="37.417458" lon="-1.748845">
        <ele>214.392</ele>
        <time>2021-06-11T14:44:56Z</time>
      </trkpt>
      <trkpt lat="37.417165" lon="-1.749091">
        <ele>214.012</ele>
        <time>2021-06-11T14:44:58Z</time>
      </trkpt>
      <trkpt lat="37.416884" lon="-1.749364">
        <ele>213.470</ele>
        <time>2021-06-11T14:45:00Z</time>
      </trkpt>
      <trkpt lat="37.416748" lon="-1.749513">
        <ele>212.945</ele>
        <time>2021-06-11T14:45:01Z</time>
      </trkpt>
      <trkpt lat="37.416617" lon="-1.749673">
        <ele>212.636</ele>
        <time>2021-06-11T14:45:02Z</time>
      </trkpt>
      <trkpt lat="37.41649" lon="-1.74984">
        <ele>212.230</ele>
        <time>2021-06-11T14:45:03Z</time>
      </trkpt>
      <trkpt lat="37.416248" lon="-1.750198">
        <ele>212.033</ele>
        <time>2021-06-11T14:45:05Z</time>
      </trkpt>
      <trkpt lat="37.416029" lon="-1.750586">
        <ele>212.049</ele>
        <time>2021-06-11T14:45:07Z</time>
      </trkpt>
      <trkpt lat="37.415832" lon="-1.750997">
        <ele>212.102</ele>
        <time>2021-06-11T14:45:09Z</time>
      </trkpt>
      <trkpt lat="37.415748" lon="-1.751211">
        <ele>212.522</ele>
        <time>2021-06-11T14:45:10Z</time>
      </trkpt>
      <trkpt lat="37.415607" lon="-1.751649">
        <ele>213.108</ele>
        <time>2021-06-11T14:45:12Z</time>
      </trkpt>
      <trkpt lat="37.415496" lon="-1.752093">
        <ele>214.051</ele>
        <time>2021-06-11T14:45:14Z</time>
      </trkpt>
      <trkpt lat="37.41545" lon="-1.752321">
        <ele>214.729</ele>
        <time>2021-06-11T14:45:15Z</time>
      </trkpt>
      <trkpt lat="37.415382" lon="-1.752785">
        <ele>215.859</ele>
        <time>2021-06-11T14:45:17Z</time>
      </trkpt>
      <trkpt lat="37.415347" lon="-1.753255">
        <ele>217.117</ele>
        <time>2021-06-11T14:45:19Z</time>
      </trkpt>
      <trkpt lat="37.415346" lon="-1.753725">
        <ele>218.392</ele>
        <time>2021-06-11T14:45:21Z</time>
      </trkpt>
      <trkpt lat="37.415379" lon="-1.754197">
        <ele>219.613</ele>
        <time>2021-06-11T14:45:23Z</time>
      </trkpt>
      <trkpt lat="37.415436" lon="-1.754666">
        <ele>221.017</ele>
        <time>2021-06-11T14:45:25Z</time>
      </trkpt>
      <trkpt lat="37.415468" lon="-1.754903">
        <ele>222.240</ele>
        <time>2021-06-11T14:45:26Z</time>
      </trkpt>
      <trkpt lat="37.415536" lon="-1.755371">
        <ele>223.733</ele>
        <time>2021-06-11T14:45:28Z</time>
      </trkpt>
      <trkpt lat="37.415601" lon="-1.75584">
        <ele>225.423</ele>
        <time>2021-06-11T14:45:30Z</time>
      </trkpt>
      <trkpt lat="37.415633" lon="-1.756074">
        <ele>226.615</ele>
        <time>2021-06-11T14:45:31Z</time>
      </trkpt>
      <trkpt lat="37.415665" lon="-1.756307">
        <ele>227.608</ele>
        <time>2021-06-11T14:45:32Z</time>
      </trkpt>
      <trkpt lat="37.415719" lon="-1.756775">
        <ele>228.030</ele>
        <time>2021-06-11T14:45:34Z</time>
      </trkpt>
      <trkpt lat="37.415747" lon="-1.757015">
        <ele>228.848</ele>
        <time>2021-06-11T14:45:35Z</time>
      </trkpt>
      <trkpt lat="37.415775" lon="-1.757258">
        <ele>229.618</ele>
        <time>2021-06-11T14:45:36Z</time>
      </trkpt>
      <trkpt lat="37.415848" lon="-1.757735">
        <ele>229.716</ele>
        <time>2021-06-11T14:45:38Z</time>
      </trkpt>
      <trkpt lat="37.415884" lon="-1.757975">
        <ele>229.761</ele>
        <time>2021-06-11T14:45:39Z</time>
      </trkpt>
      <trkpt lat="37.415939" lon="-1.758464">
        <ele>229.892</ele>
        <time>2021-06-11T14:45:41Z</time>
      </trkpt>
      <trkpt lat="37.415959" lon="-1.758711">
        <ele>229.816</ele>
        <time>2021-06-11T14:45:42Z</time>
      </trkpt>
      <trkpt lat="37.415967" lon="-1.758961">
        <ele>229.899</ele>
        <time>2021-06-11T14:45:43Z</time>
      </trkpt>
      <trkpt lat="37.415949" lon="-1.759472">
        <ele>229.585</ele>
        <time>2021-06-11T14:45:45Z</time>
      </trkpt>
      <trkpt lat="37.415886" lon="-1.759988">
        <ele>228.589</ele>
        <time>2021-06-11T14:45:47Z</time>
      </trkpt>
      <trkpt lat="37.415841" lon="-1.760244">
        <ele>227.617</ele>
        <time>2021-06-11T14:45:48Z</time>
      </trkpt>
      <trkpt lat="37.415706" lon="-1.760742">
        <ele>226.708</ele>
        <time>2021-06-11T14:45:50Z</time>
      </trkpt>
      <trkpt lat="37.415511" lon="-1.761215">
        <ele>225.935</ele>
        <time>2021-06-11T14:45:52Z</time>
      </trkpt>
      <trkpt lat="37.41528" lon="-1.761647">
        <ele>225.583</ele>
        <time>2021-06-11T14:45:54Z</time>
      </trkpt>
      <trkpt lat="37.415015" lon="-1.762031">
        <ele>224.723</ele>
        <time>2021-06-11T14:45:56Z</time>
      </trkpt>
      <trkpt lat="37.414707" lon="-1.762365">
        <ele>224.411</ele>
        <time>2021-06-11T14:45:58Z</time>
      </trkpt>
      <trkpt lat="37.414545" lon="-1.762515">
        <ele>224.546</ele>
        <time>2021-06-11T14:45:59Z</time>
      </trkpt>
      <trkpt lat="37.414211" lon="-1.762767">
        <ele>224.647</ele>
        <time>2021-06-11T14:46:01Z</time>
      </trkpt>
      <trkpt lat="37.414047" lon="-1.762871">
        <ele>224.471</ele>
        <time>2021-06-11T14:46:02Z</time>
      </trkpt>
      <trkpt lat="37.413733" lon="-1.763047">
        <ele>224.384</ele>
        <time>2021-06-11T14:46:04Z</time>
      </trkpt>
      <trkpt lat="37.41358" lon="-1.763116">
        <ele>224.255</ele>
        <time>2021-06-11T14:46:05Z</time>
      </trkpt>
      <trkpt lat="37.413292" lon="-1.763246">
        <ele>223.807</ele>
        <time>2021-06-11T14:46:07Z</time>
      </trkpt>
      <trkpt lat="37.413153" lon="-1.763311">
        <ele>223.617</ele>
        <time>2021-06-11T14:46:08Z</time>
      </trkpt>
      <trkpt lat="37.412883" lon="-1.763427">
        <ele>223.208</ele>
        <time>2021-06-11T14:46:10Z</time>
      </trkpt>
      <trkpt lat="37.412641" lon="-1.763543">
        <ele>222.312</ele>
        <time>2021-06-11T14:46:12Z</time>
      </trkpt>
      <trkpt lat="37.41253" lon="-1.763595">
        <ele>222.070</ele>
        <time>2021-06-11T14:46:13Z</time>
      </trkpt>
      <trkpt lat="37.412333" lon="-1.763679">
        <ele>221.380</ele>
        <time>2021-06-11T14:46:15Z</time>
      </trkpt>
      <trkpt lat="37.412244" lon="-1.76372">
        <ele>220.698</ele>
        <time>2021-06-11T14:46:16Z</time>
      </trkpt>
      <trkpt lat="37.412087" lon="-1.763828">
        <ele>219.823</ele>
        <time>2021-06-11T14:46:18Z</time>
      </trkpt>
      <trkpt lat="37.412024" lon="-1.76391">
        <ele>219.184</ele>
        <time>2021-06-11T14:46:19Z</time>
      </trkpt>
      <trkpt lat="37.411927" lon="-1.764127">
        <ele>218.718</ele>
        <time>2021-06-11T14:46:21Z</time>
      </trkpt>
      <trkpt lat="37.411881" lon="-1.764249">
        <ele>218.361</ele>
        <time>2021-06-11T14:46:22Z</time>
      </trkpt>
      <trkpt lat="37.411764" lon="-1.764472">
        <ele>217.994</ele>
        <time>2021-06-11T14:46:24Z</time>
      </trkpt>
      <trkpt lat="37.411591" lon="-1.764608">
        <ele>217.357</ele>
        <time>2021-06-11T14:46:26Z</time>
      </trkpt>
      <trkpt lat="37.41149" lon="-1.764636">
        <ele>217.122</ele>
        <time>2021-06-11T14:46:27Z</time>
      </trkpt>
      <trkpt lat="37.41138" lon="-1.764626">
        <ele>216.908</ele>
        <time>2021-06-11T14:46:28Z</time>
      </trkpt>
      <trkpt lat="37.411174" lon="-1.764525">
        <ele>216.436</ele>
        <time>2021-06-11T14:46:30Z</time>
      </trkpt>
      <trkpt lat="37.410967" lon="-1.764389">
        <ele>215.624</ele>
        <time>2021-06-11T14:46:32Z</time>
      </trkpt>
      <trkpt lat="37.410711" lon="-1.764358">
        <ele>214.584</ele>
        <time>2021-06-11T14:46:34Z</time>
      </trkpt>
      <trkpt lat="37.410574" lon="-1.764401">
        <ele>213.952</ele>
        <time>2021-06-11T14:46:35Z</time>
      </trkpt>
      <trkpt lat="37.410295" lon="-1.764545">
        <ele>213.677</ele>
        <time>2021-06-11T14:46:37Z</time>
      </trkpt>
      <trkpt lat="37.410007" lon="-1.764691">
        <ele>213.588</ele>
        <time>2021-06-11T14:46:39Z</time>
      </trkpt>
      <trkpt lat="37.409711" lon="-1.764822">
        <ele>213.952</ele>
        <time>2021-06-11T14:46:41Z</time>
      </trkpt>
      <trkpt lat="37.409556" lon="-1.764875">
        <ele>214.175</ele>
        <time>2021-06-11T14:46:42Z</time>
      </trkpt>
      <trkpt lat="37.409235" lon="-1.76495">
        <ele>214.983</ele>
        <time>2021-06-11T14:46:44Z</time>
      </trkpt>
      <trkpt lat="37.408905" lon="-1.764981">
        <ele>215.525</ele>
        <time>2021-06-11T14:46:46Z</time>
      </trkpt>
      <trkpt lat="37.408564" lon="-1.764943">
        <ele>215.917</ele>
        <time>2021-06-11T14:46:48Z</time>
      </trkpt>
      <trkpt lat="37.408397" lon="-1.764901">
        <ele>215.708</ele>
        <time>2021-06-11T14:46:49Z</time>
      </trkpt>
      <trkpt lat="37.408233" lon="-1.764846">
        <ele>216.115</ele>
        <time>2021-06-11T14:46:50Z</time>
      </trkpt>
      <trkpt lat="37.407912" lon="-1.764707">
        <ele>216.553</ele>
        <time>2021-06-11T14:46:52Z</time>
      </trkpt>
      <trkpt lat="37.407753" lon="-1.764627">
        <ele>216.923</ele>
        <time>2021-06-11T14:46:53Z</time>
      </trkpt>
      <trkpt lat="37.407609" lon="-1.764524">
        <ele>217.671</ele>
        <time>2021-06-11T14:46:54Z</time>
      </trkpt>
      <trkpt lat="37.407474" lon="-1.764401">
        <ele>217.836</ele>
        <time>2021-06-11T14:46:55Z</time>
      </trkpt>
      <trkpt lat="37.407218" lon="-1.764109">
        <ele>217.397</ele>
        <time>2021-06-11T14:46:57Z</time>
      </trkpt>
      <trkpt lat="37.406986" lon="-1.763765">
        <ele>217.091</ele>
        <time>2021-06-11T14:46:59Z</time>
      </trkpt>
      <trkpt lat="37.406871" lon="-1.763587">
        <ele>216.714</ele>
        <time>2021-06-11T14:47:00Z</time>
      </trkpt>
      <trkpt lat="37.406638" lon="-1.763244">
        <ele>217.187</ele>
        <time>2021-06-11T14:47:02Z</time>
      </trkpt>
      <trkpt lat="37.406519" lon="-1.763079">
        <ele>217.242</ele>
        <time>2021-06-11T14:47:03Z</time>
      </trkpt>
      <trkpt lat="37.406396" lon="-1.762913">
        <ele>217.426</ele>
        <time>2021-06-11T14:47:04Z</time>
      </trkpt>
      <trkpt lat="37.406143" lon="-1.762599">
        <ele>217.508</ele>
        <time>2021-06-11T14:47:06Z</time>
      </trkpt>
      <trkpt lat="37.405864" lon="-1.762315">
        <ele>217.515</ele>
        <time>2021-06-11T14:47:08Z</time>
      </trkpt>
      <trkpt lat="37.405716" lon="-1.762179">
        <ele>217.353</ele>
        <time>2021-06-11T14:47:09Z</time>
      </trkpt>
      <trkpt lat="37.405401" lon="-1.761943">
        <ele>217.283</ele>
        <time>2021-06-11T14:47:11Z</time>
      </trkpt>
      <trkpt lat="37.405239" lon="-1.761834">
        <ele>217.381</ele>
        <time>2021-06-11T14:47:12Z</time>
      </trkpt>
      <trkpt lat="37.405074" lon="-1.761733">
        <ele>217.416</ele>
        <time>2021-06-11T14:47:13Z</time>
      </trkpt>
      <trkpt lat="37.404731" lon="-1.761564">
        <ele>216.947</ele>
        <time>2021-06-11T14:47:15Z</time>
      </trkpt>
      <trkpt lat="37.404554" lon="-1.761488">
        <ele>217.371</ele>
        <time>2021-06-11T14:47:16Z</time>
      </trkpt>
      <trkpt lat="37.404374" lon="-1.761419">
        <ele>216.884</ele>
        <time>2021-06-11T14:47:17Z</time>
      </trkpt>
      <trkpt lat="37.404008" lon="-1.761308">
        <ele>216.361</ele>
        <time>2021-06-11T14:47:19Z</time>
      </trkpt>
      <trkpt lat="37.403635" lon="-1.761236">
        <ele>215.621</ele>
        <time>2021-06-11T14:47:21Z</time>
      </trkpt>
      <trkpt lat="37.403446" lon="-1.761216">
        <ele>215.213</ele>
        <time>2021-06-11T14:47:22Z</time>
      </trkpt>
      <trkpt lat="37.403063" lon="-1.761197">
        <ele>214.908</ele>
        <time>2021-06-11T14:47:24Z</time>
      </trkpt>
      <trkpt lat="37.402871" lon="-1.761203">
        <ele>214.533</ele>
        <time>2021-06-11T14:47:25Z</time>
      </trkpt>
      <trkpt lat="37.40249" lon="-1.761252">
        <ele>214.031</ele>
        <time>2021-06-11T14:47:27Z</time>
      </trkpt>
      <trkpt lat="37.40211" lon="-1.76134">
        <ele>213.511</ele>
        <time>2021-06-11T14:47:29Z</time>
      </trkpt>
      <trkpt lat="37.40192" lon="-1.761402">
        <ele>212.759</ele>
        <time>2021-06-11T14:47:30Z</time>
      </trkpt>
      <trkpt lat="37.401548" lon="-1.761556">
        <ele>212.074</ele>
        <time>2021-06-11T14:47:32Z</time>
      </trkpt>
      <trkpt lat="37.401366" lon="-1.761644">
        <ele>211.415</ele>
        <time>2021-06-11T14:47:33Z</time>
      </trkpt>
      <trkpt lat="37.401186" lon="-1.761742">
        <ele>210.929</ele>
        <time>2021-06-11T14:47:34Z</time>
      </trkpt>
      <trkpt lat="37.400832" lon="-1.761968">
        <ele>210.252</ele>
        <time>2021-06-11T14:47:36Z</time>
      </trkpt>
      <trkpt lat="37.400492" lon="-1.762225">
        <ele>209.745</ele>
        <time>2021-06-11T14:47:38Z</time>
      </trkpt>
      <trkpt lat="37.400331" lon="-1.76237">
        <ele>209.247</ele>
        <time>2021-06-11T14:47:39Z</time>
      </trkpt>
      <trkpt lat="37.400024" lon="-1.762677">
        <ele>208.411</ele>
        <time>2021-06-11T14:47:41Z</time>
      </trkpt>
      <trkpt lat="37.399876" lon="-1.76284">
        <ele>207.708</ele>
        <time>2021-06-11T14:47:42Z</time>
      </trkpt>
      <trkpt lat="37.399583" lon="-1.76317">
        <ele>206.881</ele>
        <time>2021-06-11T14:47:44Z</time>
      </trkpt>
      <trkpt lat="37.399434" lon="-1.763331">
        <ele>206.599</ele>
        <time>2021-06-11T14:47:45Z</time>
      </trkpt>
      <trkpt lat="37.39928" lon="-1.763485">
        <ele>205.819</ele>
        <time>2021-06-11T14:47:46Z</time>
      </trkpt>
      <trkpt lat="37.398959" lon="-1.763776">
        <ele>205.017</ele>
        <time>2021-06-11T14:47:48Z</time>
      </trkpt>
      <trkpt lat="37.398793" lon="-1.763918">
        <ele>204.642</ele>
        <time>2021-06-11T14:47:49Z</time>
      </trkpt>
      <trkpt lat="37.39844" lon="-1.764168">
        <ele>203.733</ele>
        <time>2021-06-11T14:47:51Z</time>
      </trkpt>
      <trkpt lat="37.398253" lon="-1.764278">
        <ele>202.587</ele>
        <time>2021-06-11T14:47:52Z</time>
      </trkpt>
      <trkpt lat="37.398064" lon="-1.764382">
        <ele>201.680</ele>
        <time>2021-06-11T14:47:53Z</time>
      </trkpt>
      <trkpt lat="37.397876" lon="-1.764478">
        <ele>200.692</ele>
        <time>2021-06-11T14:47:54Z</time>
      </trkpt>
      <trkpt lat="37.397496" lon="-1.764649">
        <ele>199.673</ele>
        <time>2021-06-11T14:47:56Z</time>
      </trkpt>
      <trkpt lat="37.397119" lon="-1.764788">
        <ele>198.020</ele>
        <time>2021-06-11T14:47:58Z</time>
      </trkpt>
      <trkpt lat="37.396926" lon="-1.764838">
        <ele>197.208</ele>
        <time>2021-06-11T14:47:59Z</time>
      </trkpt>
      <trkpt lat="37.396533" lon="-1.764917">
        <ele>196.336</ele>
        <time>2021-06-11T14:48:01Z</time>
      </trkpt>
      <trkpt lat="37.396141" lon="-1.764965">
        <ele>195.174</ele>
        <time>2021-06-11T14:48:03Z</time>
      </trkpt>
      <trkpt lat="37.395748" lon="-1.764984">
        <ele>195.154</ele>
        <time>2021-06-11T14:48:05Z</time>
      </trkpt>
      <trkpt lat="37.395552" lon="-1.764982">
        <ele>195.022</ele>
        <time>2021-06-11T14:48:06Z</time>
      </trkpt>
      <trkpt lat="37.395358" lon="-1.764966">
        <ele>194.787</ele>
        <time>2021-06-11T14:48:07Z</time>
      </trkpt>
      <trkpt lat="37.395162" lon="-1.76494">
        <ele>194.558</ele>
        <time>2021-06-11T14:48:08Z</time>
      </trkpt>
      <trkpt lat="37.394765" lon="-1.764864">
        <ele>194.362</ele>
        <time>2021-06-11T14:48:10Z</time>
      </trkpt>
      <trkpt lat="37.394368" lon="-1.764758">
        <ele>194.565</ele>
        <time>2021-06-11T14:48:12Z</time>
      </trkpt>
      <trkpt lat="37.393984" lon="-1.764612">
        <ele>194.354</ele>
        <time>2021-06-11T14:48:14Z</time>
      </trkpt>
      <trkpt lat="37.393612" lon="-1.764434">
        <ele>194.356</ele>
        <time>2021-06-11T14:48:16Z</time>
      </trkpt>
      <trkpt lat="37.393432" lon="-1.764339">
        <ele>194.211</ele>
        <time>2021-06-11T14:48:17Z</time>
      </trkpt>
      <trkpt lat="37.393078" lon="-1.764147">
        <ele>194.408</ele>
        <time>2021-06-11T14:48:19Z</time>
      </trkpt>
      <trkpt lat="37.392901" lon="-1.764054">
        <ele>194.752</ele>
        <time>2021-06-11T14:48:20Z</time>
      </trkpt>
      <trkpt lat="37.392553" lon="-1.763883">
        <ele>194.490</ele>
        <time>2021-06-11T14:48:22Z</time>
      </trkpt>
      <trkpt lat="37.39238" lon="-1.763809">
        <ele>194.470</ele>
        <time>2021-06-11T14:48:23Z</time>
      </trkpt>
      <trkpt lat="37.392204" lon="-1.763742">
        <ele>194.768</ele>
        <time>2021-06-11T14:48:24Z</time>
      </trkpt>
      <trkpt lat="37.392026" lon="-1.763694">
        <ele>194.853</ele>
        <time>2021-06-11T14:48:25Z</time>
      </trkpt>
      <trkpt lat="37.391667" lon="-1.763643">
        <ele>195.344</ele>
        <time>2021-06-11T14:48:27Z</time>
      </trkpt>
      <trkpt lat="37.391308" lon="-1.76364">
        <ele>194.938</ele>
        <time>2021-06-11T14:48:29Z</time>
      </trkpt>
      <trkpt lat="37.390942" lon="-1.763705">
        <ele>194.761</ele>
        <time>2021-06-11T14:48:31Z</time>
      </trkpt>
      <trkpt lat="37.390761" lon="-1.763752">
        <ele>194.041</ele>
        <time>2021-06-11T14:48:32Z</time>
      </trkpt>
      <trkpt lat="37.390401" lon="-1.763879">
        <ele>193.681</ele>
        <time>2021-06-11T14:48:34Z</time>
      </trkpt>
      <trkpt lat="37.39022" lon="-1.763959">
        <ele>193.109</ele>
        <time>2021-06-11T14:48:35Z</time>
      </trkpt>
      <trkpt lat="37.390044" lon="-1.764051">
        <ele>192.408</ele>
        <time>2021-06-11T14:48:36Z</time>
      </trkpt>
      <trkpt lat="37.38987" lon="-1.76415">
        <ele>192.241</ele>
        <time>2021-06-11T14:48:37Z</time>
      </trkpt>
      <trkpt lat="37.389524" lon="-1.764355">
        <ele>191.889</ele>
        <time>2021-06-11T14:48:39Z</time>
      </trkpt>
      <trkpt lat="37.389164" lon="-1.764531">
        <ele>191.159</ele>
        <time>2021-06-11T14:48:41Z</time>
      </trkpt>
      <trkpt lat="37.388788" lon="-1.764674">
        <ele>190.087</ele>
        <time>2021-06-11T14:48:43Z</time>
      </trkpt>
      <trkpt lat="37.3884" lon="-1.764779">
        <ele>188.872</ele>
        <time>2021-06-11T14:48:45Z</time>
      </trkpt>
      <trkpt lat="37.388008" lon="-1.764845">
        <ele>187.433</ele>
        <time>2021-06-11T14:48:47Z</time>
      </trkpt>
      <trkpt lat="37.387812" lon="-1.764863">
        <ele>186.797</ele>
        <time>2021-06-11T14:48:48Z</time>
      </trkpt>
      <trkpt lat="37.387616" lon="-1.76487">
        <ele>186.070</ele>
        <time>2021-06-11T14:48:49Z</time>
      </trkpt>
      <trkpt lat="37.38723" lon="-1.764848">
        <ele>185.312</ele>
        <time>2021-06-11T14:48:51Z</time>
      </trkpt>
      <trkpt lat="37.386854" lon="-1.764791">
        <ele>184.532</ele>
        <time>2021-06-11T14:48:53Z</time>
      </trkpt>
      <trkpt lat="37.386491" lon="-1.764706">
        <ele>183.705</ele>
        <time>2021-06-11T14:48:55Z</time>
      </trkpt>
      <trkpt lat="37.386137" lon="-1.764599">
        <ele>182.908</ele>
        <time>2021-06-11T14:48:57Z</time>
      </trkpt>
      <trkpt lat="37.385787" lon="-1.764466">
        <ele>181.868</ele>
        <time>2021-06-11T14:48:59Z</time>
      </trkpt>
      <trkpt lat="37.385612" lon="-1.764392">
        <ele>181.546</ele>
        <time>2021-06-11T14:49:00Z</time>
      </trkpt>
      <trkpt lat="37.385264" lon="-1.764237">
        <ele>180.746</ele>
        <time>2021-06-11T14:49:02Z</time>
      </trkpt>
      <trkpt lat="37.385091" lon="-1.764154">
        <ele>179.974</ele>
        <time>2021-06-11T14:49:03Z</time>
      </trkpt>
      <trkpt lat="37.384754" lon="-1.763984">
        <ele>178.939</ele>
        <time>2021-06-11T14:49:05Z</time>
      </trkpt>
      <trkpt lat="37.384587" lon="-1.763896">
        <ele>178.150</ele>
        <time>2021-06-11T14:49:06Z</time>
      </trkpt>
      <trkpt lat="37.38426" lon="-1.763702">
        <ele>177.584</ele>
        <time>2021-06-11T14:49:08Z</time>
      </trkpt>
      <trkpt lat="37.383932" lon="-1.7635">
        <ele>176.967</ele>
        <time>2021-06-11T14:49:10Z</time>
      </trkpt>
      <trkpt lat="37.383606" lon="-1.763285">
        <ele>176.283</ele>
        <time>2021-06-11T14:49:12Z</time>
      </trkpt>
      <trkpt lat="37.383444" lon="-1.763172">
        <ele>175.725</ele>
        <time>2021-06-11T14:49:13Z</time>
      </trkpt>
      <trkpt lat="37.383284" lon="-1.763056">
        <ele>175.117</ele>
        <time>2021-06-11T14:49:14Z</time>
      </trkpt>
      <trkpt lat="37.382979" lon="-1.762806">
        <ele>174.108</ele>
        <time>2021-06-11T14:49:16Z</time>
      </trkpt>
      <trkpt lat="37.382824" lon="-1.762679">
        <ele>173.435</ele>
        <time>2021-06-11T14:49:17Z</time>
      </trkpt>
      <trkpt lat="37.382523" lon="-1.762421">
        <ele>172.793</ele>
        <time>2021-06-11T14:49:19Z</time>
      </trkpt>
      <trkpt lat="37.382378" lon="-1.762286">
        <ele>172.343</ele>
        <time>2021-06-11T14:49:20Z</time>
      </trkpt>
      <trkpt lat="37.382236" lon="-1.762148">
        <ele>172.361</ele>
        <time>2021-06-11T14:49:21Z</time>
      </trkpt>
      <trkpt lat="37.382094" lon="-1.762011">
        <ele>172.376</ele>
        <time>2021-06-11T14:49:22Z</time>
      </trkpt>
      <trkpt lat="37.381819" lon="-1.761733">
        <ele>172.057</ele>
        <time>2021-06-11T14:49:24Z</time>
      </trkpt>
      <trkpt lat="37.381554" lon="-1.761452">
        <ele>171.631</ele>
        <time>2021-06-11T14:49:26Z</time>
      </trkpt>
      <trkpt lat="37.381293" lon="-1.761187">
        <ele>171.354</ele>
        <time>2021-06-11T14:49:28Z</time>
      </trkpt>
      <trkpt lat="37.381049" lon="-1.760956">
        <ele>170.584</ele>
        <time>2021-06-11T14:49:30Z</time>
      </trkpt>
      <trkpt lat="37.380806" lon="-1.760739">
        <ele>170.207</ele>
        <time>2021-06-11T14:49:32Z</time>
      </trkpt>
      <trkpt lat="37.380564" lon="-1.760559">
        <ele>169.617</ele>
        <time>2021-06-11T14:49:34Z</time>
      </trkpt>
      <trkpt lat="37.380438" lon="-1.760475">
        <ele>169.208</ele>
        <time>2021-06-11T14:49:35Z</time>
      </trkpt>
      <trkpt lat="37.380184" lon="-1.760319">
        <ele>168.565</ele>
        <time>2021-06-11T14:49:37Z</time>
      </trkpt>
      <trkpt lat="37.380052" lon="-1.760245">
        <ele>168.173</ele>
        <time>2021-06-11T14:49:38Z</time>
      </trkpt>
      <trkpt lat="37.379775" lon="-1.760124">
        <ele>167.533</ele>
        <time>2021-06-11T14:49:40Z</time>
      </trkpt>
      <trkpt lat="37.379628" lon="-1.760077">
        <ele>167.141</ele>
        <time>2021-06-11T14:49:41Z</time>
      </trkpt>
      <trkpt lat="37.379479" lon="-1.760039">
        <ele>166.736</ele>
        <time>2021-06-11T14:49:42Z</time>
      </trkpt>
      <trkpt lat="37.379171" lon="-1.759984">
        <ele>166.027</ele>
        <time>2021-06-11T14:49:44Z</time>
      </trkpt>
      <trkpt lat="37.378858" lon="-1.759958">
        <ele>165.571</ele>
        <time>2021-06-11T14:49:46Z</time>
      </trkpt>
      <trkpt lat="37.378699" lon="-1.759954">
        <ele>165.124</ele>
        <time>2021-06-11T14:49:47Z</time>
      </trkpt>
      <trkpt lat="37.37838" lon="-1.759976">
        <ele>164.765</ele>
        <time>2021-06-11T14:49:49Z</time>
      </trkpt>
      <trkpt lat="37.378221" lon="-1.760001">
        <ele>164.168</ele>
        <time>2021-06-11T14:49:50Z</time>
      </trkpt>
      <trkpt lat="37.378065" lon="-1.760035">
        <ele>163.814</ele>
        <time>2021-06-11T14:49:51Z</time>
      </trkpt>
      <trkpt lat="37.377755" lon="-1.760128">
        <ele>163.708</ele>
        <time>2021-06-11T14:49:53Z</time>
      </trkpt>
      <trkpt lat="37.377601" lon="-1.760188">
        <ele>163.373</ele>
        <time>2021-06-11T14:49:54Z</time>
      </trkpt>
      <trkpt lat="37.377301" lon="-1.760343">
        <ele>162.941</ele>
        <time>2021-06-11T14:49:56Z</time>
      </trkpt>
      <trkpt lat="37.377005" lon="-1.760527">
        <ele>162.341</ele>
        <time>2021-06-11T14:49:58Z</time>
      </trkpt>
      <trkpt lat="37.376708" lon="-1.760742">
        <ele>162.139</ele>
        <time>2021-06-11T14:50:00Z</time>
      </trkpt>
      <trkpt lat="37.376417" lon="-1.76098">
        <ele>162.074</ele>
        <time>2021-06-11T14:50:02Z</time>
      </trkpt>
      <trkpt lat="37.376272" lon="-1.761099">
        <ele>162.175</ele>
        <time>2021-06-11T14:50:03Z</time>
      </trkpt>
      <trkpt lat="37.37613" lon="-1.761224">
        <ele>161.739</ele>
        <time>2021-06-11T14:50:04Z</time>
      </trkpt>
      <trkpt lat="37.375852" lon="-1.761471">
        <ele>161.622</ele>
        <time>2021-06-11T14:50:06Z</time>
      </trkpt>
      <trkpt lat="37.375572" lon="-1.76171">
        <ele>161.043</ele>
        <time>2021-06-11T14:50:08Z</time>
      </trkpt>
      <trkpt lat="37.37529" lon="-1.761952">
        <ele>160.364</ele>
        <time>2021-06-11T14:50:10Z</time>
      </trkpt>
      <trkpt lat="37.375005" lon="-1.762189">
        <ele>159.610</ele>
        <time>2021-06-11T14:50:12Z</time>
      </trkpt>
      <trkpt lat="37.374863" lon="-1.762306">
        <ele>159.208</ele>
        <time>2021-06-11T14:50:13Z</time>
      </trkpt>
      <trkpt lat="37.374718" lon="-1.762421">
        <ele>158.991</ele>
        <time>2021-06-11T14:50:14Z</time>
      </trkpt>
      <trkpt lat="37.374427" lon="-1.762621">
        <ele>158.619</ele>
        <time>2021-06-11T14:50:16Z</time>
      </trkpt>
      <trkpt lat="37.374143" lon="-1.762805">
        <ele>158.849</ele>
        <time>2021-06-11T14:50:18Z</time>
      </trkpt>
      <trkpt lat="37.374005" lon="-1.762888">
        <ele>159.087</ele>
        <time>2021-06-11T14:50:19Z</time>
      </trkpt>
      <trkpt lat="37.373729" lon="-1.763047">
        <ele>158.832</ele>
        <time>2021-06-11T14:50:21Z</time>
      </trkpt>
      <trkpt lat="37.373448" lon="-1.763202">
        <ele>158.663</ele>
        <time>2021-06-11T14:50:23Z</time>
      </trkpt>
      <trkpt lat="37.373306" lon="-1.763275">
        <ele>158.437</ele>
        <time>2021-06-11T14:50:24Z</time>
      </trkpt>
      <trkpt lat="37.373162" lon="-1.763344">
        <ele>158.140</ele>
        <time>2021-06-11T14:50:25Z</time>
      </trkpt>
      <trkpt lat="37.372866" lon="-1.763478">
        <ele>157.784</ele>
        <time>2021-06-11T14:50:27Z</time>
      </trkpt>
      <trkpt lat="37.372558" lon="-1.763603">
        <ele>157.107</ele>
        <time>2021-06-11T14:50:29Z</time>
      </trkpt>
      <trkpt lat="37.372253" lon="-1.763736">
        <ele>156.917</ele>
        <time>2021-06-11T14:50:31Z</time>
      </trkpt>
      <trkpt lat="37.372104" lon="-1.763797">
        <ele>156.308</ele>
        <time>2021-06-11T14:50:32Z</time>
      </trkpt>
      <trkpt lat="37.371803" lon="-1.763915">
        <ele>156.015</ele>
        <time>2021-06-11T14:50:34Z</time>
      </trkpt>
      <trkpt lat="37.371503" lon="-1.764043">
        <ele>155.783</ele>
        <time>2021-06-11T14:50:36Z</time>
      </trkpt>
      <trkpt lat="37.371351" lon="-1.76411">
        <ele>155.413</ele>
        <time>2021-06-11T14:50:37Z</time>
      </trkpt>
      <trkpt lat="37.371199" lon="-1.764183">
        <ele>154.941</ele>
        <time>2021-06-11T14:50:38Z</time>
      </trkpt>
      <trkpt lat="37.370903" lon="-1.764349">
        <ele>154.866</ele>
        <time>2021-06-11T14:50:40Z</time>
      </trkpt>
      <trkpt lat="37.37061" lon="-1.764534">
        <ele>154.617</ele>
        <time>2021-06-11T14:50:42Z</time>
      </trkpt>
      <trkpt lat="37.370322" lon="-1.764738">
        <ele>154.581</ele>
        <time>2021-06-11T14:50:44Z</time>
      </trkpt>
      <trkpt lat="37.370043" lon="-1.764969">
        <ele>154.484</ele>
        <time>2021-06-11T14:50:46Z</time>
      </trkpt>
      <trkpt lat="37.369779" lon="-1.765223">
        <ele>153.911</ele>
        <time>2021-06-11T14:50:48Z</time>
      </trkpt>
      <trkpt lat="37.36953" lon="-1.765498">
        <ele>153.521</ele>
        <time>2021-06-11T14:50:50Z</time>
      </trkpt>
      <trkpt lat="37.369409" lon="-1.765642">
        <ele>153.103</ele>
        <time>2021-06-11T14:50:51Z</time>
      </trkpt>
      <trkpt lat="37.369288" lon="-1.765784">
        <ele>153.008</ele>
        <time>2021-06-11T14:50:52Z</time>
      </trkpt>
      <trkpt lat="37.36917" lon="-1.765927">
        <ele>152.788</ele>
        <time>2021-06-11T14:50:53Z</time>
      </trkpt>
      <trkpt lat="37.369053" lon="-1.76607">
        <ele>152.696</ele>
        <time>2021-06-11T14:50:54Z</time>
      </trkpt>
      <trkpt lat="37.368816" lon="-1.766354">
        <ele>152.376</ele>
        <time>2021-06-11T14:50:56Z</time>
      </trkpt>
      <trkpt lat="37.368695" lon="-1.766494">
        <ele>151.944</ele>
        <time>2021-06-11T14:50:57Z</time>
      </trkpt>
      <trkpt lat="37.368453" lon="-1.766778">
        <ele>151.679</ele>
        <time>2021-06-11T14:50:59Z</time>
      </trkpt>
      <trkpt lat="37.368335" lon="-1.76693">
        <ele>151.390</ele>
        <time>2021-06-11T14:51:00Z</time>
      </trkpt>
      <trkpt lat="37.36809" lon="-1.767236">
        <ele>150.934</ele>
        <time>2021-06-11T14:51:02Z</time>
      </trkpt>
      <trkpt lat="37.367966" lon="-1.767384">
        <ele>151.097</ele>
        <time>2021-06-11T14:51:03Z</time>
      </trkpt>
      <trkpt lat="37.367708" lon="-1.767665">
        <ele>150.964</ele>
        <time>2021-06-11T14:51:05Z</time>
      </trkpt>
      <trkpt lat="37.367573" lon="-1.767799">
        <ele>151.006</ele>
        <time>2021-06-11T14:51:06Z</time>
      </trkpt>
      <trkpt lat="37.367434" lon="-1.76793">
        <ele>151.216</ele>
        <time>2021-06-11T14:51:07Z</time>
      </trkpt>
      <trkpt lat="37.367148" lon="-1.768183">
        <ele>151.508</ele>
        <time>2021-06-11T14:51:09Z</time>
      </trkpt>
      <trkpt lat="37.366861" lon="-1.76843">
        <ele>151.973</ele>
        <time>2021-06-11T14:51:11Z</time>
      </trkpt>
      <trkpt lat="37.366566" lon="-1.768661">
        <ele>152.661</ele>
        <time>2021-06-11T14:51:13Z</time>
      </trkpt>
      <trkpt lat="37.366267" lon="-1.768877">
        <ele>153.041</ele>
        <time>2021-06-11T14:51:15Z</time>
      </trkpt>
      <trkpt lat="37.366117" lon="-1.768987">
        <ele>153.989</ele>
        <time>2021-06-11T14:51:16Z</time>
      </trkpt>
      <trkpt lat="37.365825" lon="-1.769213">
        <ele>155.034</ele>
        <time>2021-06-11T14:51:18Z</time>
      </trkpt>
      <trkpt lat="37.365678" lon="-1.769329">
        <ele>155.845</ele>
        <time>2021-06-11T14:51:19Z</time>
      </trkpt>
      <trkpt lat="37.365385" lon="-1.769555">
        <ele>156.969</ele>
        <time>2021-06-11T14:51:21Z</time>
      </trkpt>
      <trkpt lat="37.365087" lon="-1.76978">
        <ele>157.852</ele>
        <time>2021-06-11T14:51:23Z</time>
      </trkpt>
      <trkpt lat="37.364783" lon="-1.770014">
        <ele>158.173</ele>
        <time>2021-06-11T14:51:25Z</time>
      </trkpt>
      <trkpt lat="37.36463" lon="-1.770133">
        <ele>158.585</ele>
        <time>2021-06-11T14:51:26Z</time>
      </trkpt>
      <trkpt lat="37.364478" lon="-1.770253">
        <ele>158.513</ele>
        <time>2021-06-11T14:51:27Z</time>
      </trkpt>
      <trkpt lat="37.364327" lon="-1.770375">
        <ele>158.108</ele>
        <time>2021-06-11T14:51:28Z</time>
      </trkpt>
      <trkpt lat="37.364021" lon="-1.770617">
        <ele>157.314</ele>
        <time>2021-06-11T14:51:30Z</time>
      </trkpt>
      <trkpt lat="37.36386" lon="-1.770733">
        <ele>157.122</ele>
        <time>2021-06-11T14:51:31Z</time>
      </trkpt>
      <trkpt lat="37.363522" lon="-1.770945">
        <ele>156.692</ele>
        <time>2021-06-11T14:51:33Z</time>
      </trkpt>
      <trkpt lat="37.36318" lon="-1.771129">
        <ele>155.650</ele>
        <time>2021-06-11T14:51:35Z</time>
      </trkpt>
      <trkpt lat="37.362829" lon="-1.771275">
        <ele>155.265</ele>
        <time>2021-06-11T14:51:37Z</time>
      </trkpt>
      <trkpt lat="37.362652" lon="-1.771338">
        <ele>154.876</ele>
        <time>2021-06-11T14:51:38Z</time>
      </trkpt>
      <trkpt lat="37.362473" lon="-1.771391">
        <ele>154.540</ele>
        <time>2021-06-11T14:51:39Z</time>
      </trkpt>
      <trkpt lat="37.362115" lon="-1.771474">
        <ele>154.293</ele>
        <time>2021-06-11T14:51:41Z</time>
      </trkpt>
      <trkpt lat="37.361933" lon="-1.771509">
        <ele>153.627</ele>
        <time>2021-06-11T14:51:42Z</time>
      </trkpt>
      <trkpt lat="37.36175" lon="-1.771541">
        <ele>153.368</ele>
        <time>2021-06-11T14:51:43Z</time>
      </trkpt>
      <trkpt lat="37.361568" lon="-1.77157">
        <ele>153.114</ele>
        <time>2021-06-11T14:51:44Z</time>
      </trkpt>
      <trkpt lat="37.361208" lon="-1.771623">
        <ele>152.808</ele>
        <time>2021-06-11T14:51:46Z</time>
      </trkpt>
      <trkpt lat="37.360852" lon="-1.771687">
        <ele>152.559</ele>
        <time>2021-06-11T14:51:48Z</time>
      </trkpt>
      <trkpt lat="37.360672" lon="-1.771726">
        <ele>152.117</ele>
        <time>2021-06-11T14:51:49Z</time>
      </trkpt>
      <trkpt lat="37.360322" lon="-1.771822">
        <ele>151.497</ele>
        <time>2021-06-11T14:51:51Z</time>
      </trkpt>
      <trkpt lat="37.359973" lon="-1.771952">
        <ele>151.235</ele>
        <time>2021-06-11T14:51:53Z</time>
      </trkpt>
      <trkpt lat="37.359633" lon="-1.772105">
        <ele>151.060</ele>
        <time>2021-06-11T14:51:55Z</time>
      </trkpt>
      <trkpt lat="37.359462" lon="-1.772193">
        <ele>150.381</ele>
        <time>2021-06-11T14:51:56Z</time>
      </trkpt>
      <trkpt lat="37.359291" lon="-1.772284">
        <ele>149.825</ele>
        <time>2021-06-11T14:51:57Z</time>
      </trkpt>
      <trkpt lat="37.358954" lon="-1.772479">
        <ele>149.598</ele>
        <time>2021-06-11T14:51:59Z</time>
      </trkpt>
      <trkpt lat="37.358789" lon="-1.772587">
        <ele>149.112</ele>
        <time>2021-06-11T14:52:00Z</time>
      </trkpt>
      <trkpt lat="37.358626" lon="-1.772703">
        <ele>148.432</ele>
        <time>2021-06-11T14:52:01Z</time>
      </trkpt>
      <trkpt lat="37.358295" lon="-1.772951">
        <ele>147.905</ele>
        <time>2021-06-11T14:52:03Z</time>
      </trkpt>
      <trkpt lat="37.357965" lon="-1.773221">
        <ele>147.508</ele>
        <time>2021-06-11T14:52:05Z</time>
      </trkpt>
      <trkpt lat="37.357806" lon="-1.773377">
        <ele>147.258</ele>
        <time>2021-06-11T14:52:06Z</time>
      </trkpt>
      <trkpt lat="37.357508" lon="-1.773699">
        <ele>146.546</ele>
        <time>2021-06-11T14:52:08Z</time>
      </trkpt>
      <trkpt lat="37.357364" lon="-1.773865">
        <ele>146.036</ele>
        <time>2021-06-11T14:52:09Z</time>
      </trkpt>
      <trkpt lat="37.357221" lon="-1.774029">
        <ele>145.554</ele>
        <time>2021-06-11T14:52:10Z</time>
      </trkpt>
      <trkpt lat="37.356948" lon="-1.774349">
        <ele>145.229</ele>
        <time>2021-06-11T14:52:12Z</time>
      </trkpt>
      <trkpt lat="37.356688" lon="-1.774657">
        <ele>145.390</ele>
        <time>2021-06-11T14:52:14Z</time>
      </trkpt>
      <trkpt lat="37.356434" lon="-1.774956">
        <ele>145.554</ele>
        <time>2021-06-11T14:52:16Z</time>
      </trkpt>
      <trkpt lat="37.35631" lon="-1.775099">
        <ele>145.667</ele>
        <time>2021-06-11T14:52:17Z</time>
      </trkpt>
      <trkpt lat="37.356073" lon="-1.775373">
        <ele>146.198</ele>
        <time>2021-06-11T14:52:19Z</time>
      </trkpt>
      <trkpt lat="37.355847" lon="-1.775637">
        <ele>146.915</ele>
        <time>2021-06-11T14:52:21Z</time>
      </trkpt>
      <trkpt lat="37.355741" lon="-1.775768">
        <ele>147.226</ele>
        <time>2021-06-11T14:52:22Z</time>
      </trkpt>
      <trkpt lat="37.355515" lon="-1.776026">
        <ele>148.008</ele>
        <time>2021-06-11T14:52:24Z</time>
      </trkpt>
      <trkpt lat="37.355391" lon="-1.776149">
        <ele>148.456</ele>
        <time>2021-06-11T14:52:25Z</time>
      </trkpt>
      <trkpt lat="37.355263" lon="-1.776265">
        <ele>148.994</ele>
        <time>2021-06-11T14:52:26Z</time>
      </trkpt>
      <trkpt lat="37.355131" lon="-1.776376">
        <ele>149.384</ele>
        <time>2021-06-11T14:52:27Z</time>
      </trkpt>
      <trkpt lat="37.354991" lon="-1.776477">
        <ele>149.632</ele>
        <time>2021-06-11T14:52:28Z</time>
      </trkpt>
      <trkpt lat="37.354844" lon="-1.776571">
        <ele>149.727</ele>
        <time>2021-06-11T14:52:29Z</time>
      </trkpt>
      <trkpt lat="37.354534" lon="-1.77674">
        <ele>149.888</ele>
        <time>2021-06-11T14:52:31Z</time>
      </trkpt>
      <trkpt lat="37.354216" lon="-1.776878">
        <ele>149.972</ele>
        <time>2021-06-11T14:52:33Z</time>
      </trkpt>
      <trkpt lat="37.353875" lon="-1.776977">
        <ele>149.735</ele>
        <time>2021-06-11T14:52:35Z</time>
      </trkpt>
      <trkpt lat="37.353525" lon="-1.777034">
        <ele>149.153</ele>
        <time>2021-06-11T14:52:37Z</time>
      </trkpt>
      <trkpt lat="37.353347" lon="-1.777046">
        <ele>148.504</ele>
        <time>2021-06-11T14:52:38Z</time>
      </trkpt>
      <trkpt lat="37.353167" lon="-1.777048">
        <ele>148.414</ele>
        <time>2021-06-11T14:52:39Z</time>
      </trkpt>
      <trkpt lat="37.352807" lon="-1.777014">
        <ele>148.008</ele>
        <time>2021-06-11T14:52:41Z</time>
      </trkpt>
      <trkpt lat="37.352454" lon="-1.77694">
        <ele>147.732</ele>
        <time>2021-06-11T14:52:43Z</time>
      </trkpt>
      <trkpt lat="37.352278" lon="-1.776883">
        <ele>147.210</ele>
        <time>2021-06-11T14:52:44Z</time>
      </trkpt>
      <trkpt lat="37.351939" lon="-1.776735">
        <ele>146.620</ele>
        <time>2021-06-11T14:52:46Z</time>
      </trkpt>
      <trkpt lat="37.351769" lon="-1.776647">
        <ele>146.698</ele>
        <time>2021-06-11T14:52:47Z</time>
      </trkpt>
      <trkpt lat="37.351436" lon="-1.77645">
        <ele>146.313</ele>
        <time>2021-06-11T14:52:49Z</time>
      </trkpt>
      <trkpt lat="37.351118" lon="-1.776228">
        <ele>146.374</ele>
        <time>2021-06-11T14:52:51Z</time>
      </trkpt>
      <trkpt lat="37.350961" lon="-1.776113">
        <ele>146.398</ele>
        <time>2021-06-11T14:52:52Z</time>
      </trkpt>
      <trkpt lat="37.350651" lon="-1.775878">
        <ele>146.331</ele>
        <time>2021-06-11T14:52:54Z</time>
      </trkpt>
      <trkpt lat="37.350495" lon="-1.77576">
        <ele>146.357</ele>
        <time>2021-06-11T14:52:55Z</time>
      </trkpt>
      <trkpt lat="37.35018" lon="-1.775535">
        <ele>145.900</ele>
        <time>2021-06-11T14:52:57Z</time>
      </trkpt>
      <trkpt lat="37.34986" lon="-1.775312">
        <ele>146.020</ele>
        <time>2021-06-11T14:52:59Z</time>
      </trkpt>
      <trkpt lat="37.349537" lon="-1.775097">
        <ele>145.708</ele>
        <time>2021-06-11T14:53:01Z</time>
      </trkpt>
      <trkpt lat="37.34921" lon="-1.774889">
        <ele>145.562</ele>
        <time>2021-06-11T14:53:03Z</time>
      </trkpt>
      <trkpt lat="37.349046" lon="-1.774786">
        <ele>145.160</ele>
        <time>2021-06-11T14:53:04Z</time>
      </trkpt>
      <trkpt lat="37.34888" lon="-1.774688">
        <ele>144.960</ele>
        <time>2021-06-11T14:53:05Z</time>
      </trkpt>
      <trkpt lat="37.348544" lon="-1.774505">
        <ele>144.928</ele>
        <time>2021-06-11T14:53:07Z</time>
      </trkpt>
      <trkpt lat="37.348376" lon="-1.774414">
        <ele>145.053</ele>
        <time>2021-06-11T14:53:08Z</time>
      </trkpt>
      <trkpt lat="37.348208" lon="-1.774323">
        <ele>145.434</ele>
        <time>2021-06-11T14:53:09Z</time>
      </trkpt>
      <trkpt lat="37.348038" lon="-1.774237">
        <ele>145.558</ele>
        <time>2021-06-11T14:53:10Z</time>
      </trkpt>
      <trkpt lat="37.347869" lon="-1.774155">
        <ele>145.661</ele>
        <time>2021-06-11T14:53:11Z</time>
      </trkpt>
      <trkpt lat="37.347531" lon="-1.773993">
        <ele>146.057</ele>
        <time>2021-06-11T14:53:13Z</time>
      </trkpt>
      <trkpt lat="37.347188" lon="-1.773839">
        <ele>146.500</ele>
        <time>2021-06-11T14:53:15Z</time>
      </trkpt>
      <trkpt lat="37.347016" lon="-1.773769">
        <ele>146.720</ele>
        <time>2021-06-11T14:53:16Z</time>
      </trkpt>
      <trkpt lat="37.346673" lon="-1.773644">
        <ele>146.608</ele>
        <time>2021-06-11T14:53:18Z</time>
      </trkpt>
      <trkpt lat="37.346327" lon="-1.773533">
        <ele>146.932</ele>
        <time>2021-06-11T14:53:20Z</time>
      </trkpt>
      <trkpt lat="37.34616" lon="-1.77347">
        <ele>147.110</ele>
        <time>2021-06-11T14:53:21Z</time>
      </trkpt>
      <trkpt lat="37.345824" lon="-1.773353">
        <ele>147.740</ele>
        <time>2021-06-11T14:53:23Z</time>
      </trkpt>
      <trkpt lat="37.345649" lon="-1.773303">
        <ele>148.148</ele>
        <time>2021-06-11T14:53:24Z</time>
      </trkpt>
      <trkpt lat="37.345308" lon="-1.773214">
        <ele>148.673</ele>
        <time>2021-06-11T14:53:26Z</time>
      </trkpt>
      <trkpt lat="37.344977" lon="-1.773139">
        <ele>148.784</ele>
        <time>2021-06-11T14:53:28Z</time>
      </trkpt>
      <trkpt lat="37.344648" lon="-1.773057">
        <ele>149.218</ele>
        <time>2021-06-11T14:53:30Z</time>
      </trkpt>
      <trkpt lat="37.344326" lon="-1.772962">
        <ele>149.731</ele>
        <time>2021-06-11T14:53:32Z</time>
      </trkpt>
      <trkpt lat="37.344166" lon="-1.772911">
        <ele>150.069</ele>
        <time>2021-06-11T14:53:33Z</time>
      </trkpt>
      <trkpt lat="37.344005" lon="-1.77286">
        <ele>150.304</ele>
        <time>2021-06-11T14:53:34Z</time>
      </trkpt>
      <trkpt lat="37.343842" lon="-1.772809">
        <ele>150.624</ele>
        <time>2021-06-11T14:53:35Z</time>
      </trkpt>
      <trkpt lat="37.343677" lon="-1.772755">
        <ele>151.108</ele>
        <time>2021-06-11T14:53:36Z</time>
      </trkpt>
      <trkpt lat="37.343511" lon="-1.772697">
        <ele>151.583</ele>
        <time>2021-06-11T14:53:37Z</time>
      </trkpt>
      <trkpt lat="37.343188" lon="-1.772551">
        <ele>151.561</ele>
        <time>2021-06-11T14:53:39Z</time>
      </trkpt>
      <trkpt lat="37.343027" lon="-1.772465">
        <ele>151.761</ele>
        <time>2021-06-11T14:53:40Z</time>
      </trkpt>
      <trkpt lat="37.342866" lon="-1.772375">
        <ele>151.779</ele>
        <time>2021-06-11T14:53:41Z</time>
      </trkpt>
      <trkpt lat="37.342555" lon="-1.772186">
        <ele>151.714</ele>
        <time>2021-06-11T14:53:43Z</time>
      </trkpt>
      <trkpt lat="37.342402" lon="-1.772086">
        <ele>151.925</ele>
        <time>2021-06-11T14:53:44Z</time>
      </trkpt>
      <trkpt lat="37.342256" lon="-1.771978">
        <ele>151.829</ele>
        <time>2021-06-11T14:53:45Z</time>
      </trkpt>
      <trkpt lat="37.341961" lon="-1.771767">
        <ele>151.532</ele>
        <time>2021-06-11T14:53:47Z</time>
      </trkpt>
      <trkpt lat="37.34181" lon="-1.771659">
        <ele>151.262</ele>
        <time>2021-06-11T14:53:48Z</time>
      </trkpt>
      <trkpt lat="37.341659" lon="-1.771551">
        <ele>150.683</ele>
        <time>2021-06-11T14:53:49Z</time>
      </trkpt>
      <trkpt lat="37.341511" lon="-1.771445">
        <ele>149.811</ele>
        <time>2021-06-11T14:53:50Z</time>
      </trkpt>
      <trkpt lat="37.341363" lon="-1.771342">
        <ele>149.208</ele>
        <time>2021-06-11T14:53:51Z</time>
      </trkpt>
      <trkpt lat="37.341214" lon="-1.771236">
        <ele>148.133</ele>
        <time>2021-06-11T14:53:52Z</time>
      </trkpt>
      <trkpt lat="37.340904" lon="-1.771024">
        <ele>146.811</ele>
        <time>2021-06-11T14:53:54Z</time>
      </trkpt>
      <trkpt lat="37.340582" lon="-1.770822">
        <ele>145.181</ele>
        <time>2021-06-11T14:53:56Z</time>
      </trkpt>
      <trkpt lat="37.340421" lon="-1.770726">
        <ele>143.849</ele>
        <time>2021-06-11T14:53:57Z</time>
      </trkpt>
      <trkpt lat="37.340097" lon="-1.770561">
        <ele>142.574</ele>
        <time>2021-06-11T14:53:59Z</time>
      </trkpt>
      <trkpt lat="37.339783" lon="-1.770444">
        <ele>141.275</ele>
        <time>2021-06-11T14:54:01Z</time>
      </trkpt>
      <trkpt lat="37.339633" lon="-1.770397">
        <ele>140.829</ele>
        <time>2021-06-11T14:54:02Z</time>
      </trkpt>
      <trkpt lat="37.339487" lon="-1.770359">
        <ele>140.182</ele>
        <time>2021-06-11T14:54:03Z</time>
      </trkpt>
      <trkpt lat="37.339202" lon="-1.770286">
        <ele>139.427</ele>
        <time>2021-06-11T14:54:05Z</time>
      </trkpt>
      <trkpt lat="37.33906" lon="-1.770256">
        <ele>138.568</ele>
        <time>2021-06-11T14:54:06Z</time>
      </trkpt>
      <trkpt lat="37.338921" lon="-1.770224">
        <ele>137.814</ele>
        <time>2021-06-11T14:54:07Z</time>
      </trkpt>
      <trkpt lat="37.338643" lon="-1.770177">
        <ele>137.308</ele>
        <time>2021-06-11T14:54:09Z</time>
      </trkpt>
      <trkpt lat="37.33836" lon="-1.770136">
        <ele>136.599</ele>
        <time>2021-06-11T14:54:11Z</time>
      </trkpt>
      <trkpt lat="37.338066" lon="-1.770133">
        <ele>135.337</ele>
        <time>2021-06-11T14:54:13Z</time>
      </trkpt>
      <trkpt lat="37.337907" lon="-1.770141">
        <ele>134.267</ele>
        <time>2021-06-11T14:54:14Z</time>
      </trkpt>
      <trkpt lat="37.337577" lon="-1.770167">
        <ele>132.435</ele>
        <time>2021-06-11T14:54:16Z</time>
      </trkpt>
      <trkpt lat="37.337221" lon="-1.770209">
        <ele>130.590</ele>
        <time>2021-06-11T14:54:18Z</time>
      </trkpt>
      <trkpt lat="37.337037" lon="-1.770237">
        <ele>128.761</ele>
        <time>2021-06-11T14:54:19Z</time>
      </trkpt>
      <trkpt lat="37.33666" lon="-1.770295">
        <ele>127.675</ele>
        <time>2021-06-11T14:54:21Z</time>
      </trkpt>
      <trkpt lat="37.336272" lon="-1.770355">
        <ele>126.478</ele>
        <time>2021-06-11T14:54:23Z</time>
      </trkpt>
      <trkpt lat="37.336076" lon="-1.770385">
        <ele>124.778</ele>
        <time>2021-06-11T14:54:24Z</time>
      </trkpt>
      <trkpt lat="37.335686" lon="-1.770422">
        <ele>123.533</ele>
        <time>2021-06-11T14:54:26Z</time>
      </trkpt>
      <trkpt lat="37.335293" lon="-1.770438">
        <ele>122.126</ele>
        <time>2021-06-11T14:54:28Z</time>
      </trkpt>
      <trkpt lat="37.335098" lon="-1.77043">
        <ele>121.908</ele>
        <time>2021-06-11T14:54:29Z</time>
      </trkpt>
      <trkpt lat="37.334903" lon="-1.77041">
        <ele>121.674</ele>
        <time>2021-06-11T14:54:30Z</time>
      </trkpt>
      <trkpt lat="37.334709" lon="-1.77038">
        <ele>121.512</ele>
        <time>2021-06-11T14:54:31Z</time>
      </trkpt>
      <trkpt lat="37.334512" lon="-1.770345">
        <ele>121.632</ele>
        <time>2021-06-11T14:54:32Z</time>
      </trkpt>
      <trkpt lat="37.334128" lon="-1.770249">
        <ele>121.880</ele>
        <time>2021-06-11T14:54:34Z</time>
      </trkpt>
      <trkpt lat="37.33376" lon="-1.770118">
        <ele>122.265</ele>
        <time>2021-06-11T14:54:36Z</time>
      </trkpt>
      <trkpt lat="37.333582" lon="-1.770045">
        <ele>122.836</ele>
        <time>2021-06-11T14:54:37Z</time>
      </trkpt>
      <trkpt lat="37.333238" lon="-1.769873">
        <ele>123.470</ele>
        <time>2021-06-11T14:54:39Z</time>
      </trkpt>
      <trkpt lat="37.332904" lon="-1.769669">
        <ele>123.963</ele>
        <time>2021-06-11T14:54:41Z</time>
      </trkpt>
      <trkpt lat="37.33274" lon="-1.769558">
        <ele>124.774</ele>
        <time>2021-06-11T14:54:42Z</time>
      </trkpt>
      <trkpt lat="37.332421" lon="-1.769317">
        <ele>125.256</ele>
        <time>2021-06-11T14:54:44Z</time>
      </trkpt>
      <trkpt lat="37.332113" lon="-1.769054">
        <ele>125.921</ele>
        <time>2021-06-11T14:54:46Z</time>
      </trkpt>
      <trkpt lat="37.331962" lon="-1.768914">
        <ele>126.208</ele>
        <time>2021-06-11T14:54:47Z</time>
      </trkpt>
      <trkpt lat="37.331813" lon="-1.768773">
        <ele>126.874</ele>
        <time>2021-06-11T14:54:48Z</time>
      </trkpt>
      <trkpt lat="37.331524" lon="-1.768494">
        <ele>126.872</ele>
        <time>2021-06-11T14:54:50Z</time>
      </trkpt>
      <trkpt lat="37.331382" lon="-1.768364">
        <ele>126.962</ele>
        <time>2021-06-11T14:54:51Z</time>
      </trkpt>
      <trkpt lat="37.331105" lon="-1.768099">
        <ele>127.520</ele>
        <time>2021-06-11T14:54:53Z</time>
      </trkpt>
      <trkpt lat="37.330826" lon="-1.767849">
        <ele>127.215</ele>
        <time>2021-06-11T14:54:55Z</time>
      </trkpt>
      <trkpt lat="37.330683" lon="-1.767735">
        <ele>126.536</ele>
        <time>2021-06-11T14:54:56Z</time>
      </trkpt>
      <trkpt lat="37.330381" lon="-1.767543">
        <ele>124.960</ele>
        <time>2021-06-11T14:54:58Z</time>
      </trkpt>
      <trkpt lat="37.330228" lon="-1.767462">
        <ele>123.743</ele>
        <time>2021-06-11T14:54:59Z</time>
      </trkpt>
      <trkpt lat="37.330078" lon="-1.767393">
        <ele>123.176</ele>
        <time>2021-06-11T14:55:00Z</time>
      </trkpt>
      <trkpt lat="37.329768" lon="-1.767271">
        <ele>121.890</ele>
        <time>2021-06-11T14:55:02Z</time>
      </trkpt>
      <trkpt lat="37.329438" lon="-1.767173">
        <ele>120.719</ele>
        <time>2021-06-11T14:55:04Z</time>
      </trkpt>
      <trkpt lat="37.32927" lon="-1.767132">
        <ele>119.808</ele>
        <time>2021-06-11T14:55:05Z</time>
      </trkpt>
      <trkpt lat="37.329099" lon="-1.767101">
        <ele>119.364</ele>
        <time>2021-06-11T14:55:06Z</time>
      </trkpt>
      <trkpt lat="37.328753" lon="-1.767072">
        <ele>118.472</ele>
        <time>2021-06-11T14:55:08Z</time>
      </trkpt>
      <trkpt lat="37.328578" lon="-1.767076">
        <ele>117.982</ele>
        <time>2021-06-11T14:55:09Z</time>
      </trkpt>
      <trkpt lat="37.328222" lon="-1.767118">
        <ele>117.990</ele>
        <time>2021-06-11T14:55:11Z</time>
      </trkpt>
      <trkpt lat="37.328046" lon="-1.767147">
        <ele>117.385</ele>
        <time>2021-06-11T14:55:12Z</time>
      </trkpt>
      <trkpt lat="37.327695" lon="-1.767232">
        <ele>116.996</ele>
        <time>2021-06-11T14:55:14Z</time>
      </trkpt>
      <trkpt lat="37.327517" lon="-1.76729">
        <ele>116.540</ele>
        <time>2021-06-11T14:55:15Z</time>
      </trkpt>
      <trkpt lat="37.327166" lon="-1.76741">
        <ele>116.163</ele>
        <time>2021-06-11T14:55:17Z</time>
      </trkpt>
      <trkpt lat="37.326988" lon="-1.767468">
        <ele>115.482</ele>
        <time>2021-06-11T14:55:18Z</time>
      </trkpt>
      <trkpt lat="37.326809" lon="-1.767521">
        <ele>114.943</ele>
        <time>2021-06-11T14:55:19Z</time>
      </trkpt>
      <trkpt lat="37.326452" lon="-1.767632">
        <ele>113.917</ele>
        <time>2021-06-11T14:55:21Z</time>
      </trkpt>
      <trkpt lat="37.326085" lon="-1.76774">
        <ele>112.708</ele>
        <time>2021-06-11T14:55:23Z</time>
      </trkpt>
      <trkpt lat="37.325896" lon="-1.767795">
        <ele>111.755</ele>
        <time>2021-06-11T14:55:24Z</time>
      </trkpt>
      <trkpt lat="37.325513" lon="-1.767908">
        <ele>110.853</ele>
        <time>2021-06-11T14:55:26Z</time>
      </trkpt>
      <trkpt lat="37.325124" lon="-1.768024">
        <ele>109.593</ele>
        <time>2021-06-11T14:55:28Z</time>
      </trkpt>
      <trkpt lat="37.324739" lon="-1.768139">
        <ele>108.211</ele>
        <time>2021-06-11T14:55:30Z</time>
      </trkpt>
      <trkpt lat="37.324546" lon="-1.768196">
        <ele>107.126</ele>
        <time>2021-06-11T14:55:31Z</time>
      </trkpt>
      <trkpt lat="37.324167" lon="-1.768306">
        <ele>106.097</ele>
        <time>2021-06-11T14:55:33Z</time>
      </trkpt>
      <trkpt lat="37.323792" lon="-1.768417">
        <ele>104.831</ele>
        <time>2021-06-11T14:55:35Z</time>
      </trkpt>
      <trkpt lat="37.323607" lon="-1.768477">
        <ele>103.794</ele>
        <time>2021-06-11T14:55:36Z</time>
      </trkpt>
      <trkpt lat="37.323241" lon="-1.768589">
        <ele>103.267</ele>
        <time>2021-06-11T14:55:38Z</time>
      </trkpt>
      <trkpt lat="37.322878" lon="-1.768697">
        <ele>102.881</ele>
        <time>2021-06-11T14:55:40Z</time>
      </trkpt>
      <trkpt lat="37.322509" lon="-1.768807">
        <ele>102.019</ele>
        <time>2021-06-11T14:55:42Z</time>
      </trkpt>
      <trkpt lat="37.322144" lon="-1.768921">
        <ele>100.808</ele>
        <time>2021-06-11T14:55:44Z</time>
      </trkpt>
      <trkpt lat="37.32196" lon="-1.768977">
        <ele>100.213</ele>
        <time>2021-06-11T14:55:45Z</time>
      </trkpt>
      <trkpt lat="37.321585" lon="-1.7691">
        <ele>99.981</ele>
        <time>2021-06-11T14:55:47Z</time>
      </trkpt>
      <trkpt lat="37.321203" lon="-1.769219">
        <ele>98.971</ele>
        <time>2021-06-11T14:55:49Z</time>
      </trkpt>
      <trkpt lat="37.321012" lon="-1.769278">
        <ele>98.299</ele>
        <time>2021-06-11T14:55:50Z</time>
      </trkpt>
      <trkpt lat="37.320632" lon="-1.769384">
        <ele>97.224</ele>
        <time>2021-06-11T14:55:52Z</time>
      </trkpt>
      <trkpt lat="37.320265" lon="-1.769488">
        <ele>96.725</ele>
        <time>2021-06-11T14:55:54Z</time>
      </trkpt>
      <trkpt lat="37.320083" lon="-1.769546">
        <ele>96.419</ele>
        <time>2021-06-11T14:55:55Z</time>
      </trkpt>
      <trkpt lat="37.31973" lon="-1.769659">
        <ele>96.172</ele>
        <time>2021-06-11T14:55:57Z</time>
      </trkpt>
      <trkpt lat="37.319555" lon="-1.769712">
        <ele>95.685</ele>
        <time>2021-06-11T14:55:58Z</time>
      </trkpt>
      <trkpt lat="37.319203" lon="-1.769814">
        <ele>95.589</ele>
        <time>2021-06-11T14:56:00Z</time>
      </trkpt>
      <trkpt lat="37.318855" lon="-1.769916">
        <ele>95.417</ele>
        <time>2021-06-11T14:56:02Z</time>
      </trkpt>
      <trkpt lat="37.318677" lon="-1.769973">
        <ele>95.108</ele>
        <time>2021-06-11T14:56:03Z</time>
      </trkpt>
      <trkpt lat="37.318501" lon="-1.770027">
        <ele>94.725</ele>
        <time>2021-06-11T14:56:04Z</time>
      </trkpt>
      <trkpt lat="37.318325" lon="-1.770081">
        <ele>94.643</ele>
        <time>2021-06-11T14:56:05Z</time>
      </trkpt>
      <trkpt lat="37.31797" lon="-1.770189">
        <ele>94.373</ele>
        <time>2021-06-11T14:56:07Z</time>
      </trkpt>
      <trkpt lat="37.317611" lon="-1.770301">
        <ele>94.291</ele>
        <time>2021-06-11T14:56:09Z</time>
      </trkpt>
      <trkpt lat="37.317256" lon="-1.770413">
        <ele>93.876</ele>
        <time>2021-06-11T14:56:11Z</time>
      </trkpt>
      <trkpt lat="37.317081" lon="-1.770466">
        <ele>93.447</ele>
        <time>2021-06-11T14:56:12Z</time>
      </trkpt>
      <trkpt lat="37.316907" lon="-1.770517">
        <ele>93.081</ele>
        <time>2021-06-11T14:56:13Z</time>
      </trkpt>
      <trkpt lat="37.316559" lon="-1.770616">
        <ele>92.524</ele>
        <time>2021-06-11T14:56:15Z</time>
      </trkpt>
      <trkpt lat="37.316386" lon="-1.770667">
        <ele>92.279</ele>
        <time>2021-06-11T14:56:16Z</time>
      </trkpt>
      <trkpt lat="37.316211" lon="-1.770718">
        <ele>92.005</ele>
        <time>2021-06-11T14:56:17Z</time>
      </trkpt>
      <trkpt lat="37.315853" lon="-1.770828">
        <ele>91.525</ele>
        <time>2021-06-11T14:56:19Z</time>
      </trkpt>
      <trkpt lat="37.31549" lon="-1.770944">
        <ele>90.608</ele>
        <time>2021-06-11T14:56:21Z</time>
      </trkpt>
      <trkpt lat="37.315306" lon="-1.771001">
        <ele>90.184</ele>
        <time>2021-06-11T14:56:22Z</time>
      </trkpt>
      <trkpt lat="37.315119" lon="-1.771056">
        <ele>89.752</ele>
        <time>2021-06-11T14:56:23Z</time>
      </trkpt>
      <trkpt lat="37.314931" lon="-1.771112">
        <ele>90.122</ele>
        <time>2021-06-11T14:56:24Z</time>
      </trkpt>
      <trkpt lat="37.314564" lon="-1.771211">
        <ele>90.930</ele>
        <time>2021-06-11T14:56:26Z</time>
      </trkpt>
      <trkpt lat="37.314383" lon="-1.771252">
        <ele>92.055</ele>
        <time>2021-06-11T14:56:27Z</time>
      </trkpt>
      <trkpt lat="37.314205" lon="-1.771292">
        <ele>92.836</ele>
        <time>2021-06-11T14:56:28Z</time>
      </trkpt>
      <trkpt lat="37.314029" lon="-1.771331">
        <ele>93.580</ele>
        <time>2021-06-11T14:56:29Z</time>
      </trkpt>
      <trkpt lat="37.313856" lon="-1.771367">
        <ele>94.213</ele>
        <time>2021-06-11T14:56:30Z</time>
      </trkpt>
      <trkpt lat="37.313684" lon="-1.771396">
        <ele>94.724</ele>
        <time>2021-06-11T14:56:31Z</time>
      </trkpt>
      <trkpt lat="37.313346" lon="-1.771442">
        <ele>95.504</ele>
        <time>2021-06-11T14:56:33Z</time>
      </trkpt>
      <trkpt lat="37.31318" lon="-1.771458">
        <ele>96.314</ele>
        <time>2021-06-11T14:56:34Z</time>
      </trkpt>
      <trkpt lat="37.312844" lon="-1.77148">
        <ele>97.108</ele>
        <time>2021-06-11T14:56:36Z</time>
      </trkpt>
      <trkpt lat="37.312501" lon="-1.771487">
        <ele>97.869</ele>
        <time>2021-06-11T14:56:38Z</time>
      </trkpt>
      <trkpt lat="37.312328" lon="-1.771484">
        <ele>98.527</ele>
        <time>2021-06-11T14:56:39Z</time>
      </trkpt>
      <trkpt lat="37.312152" lon="-1.771482">
        <ele>98.457</ele>
        <time>2021-06-11T14:56:40Z</time>
      </trkpt>
      <trkpt lat="37.311798" lon="-1.771467">
        <ele>98.075</ele>
        <time>2021-06-11T14:56:42Z</time>
      </trkpt>
      <trkpt lat="37.311438" lon="-1.771439">
        <ele>97.260</ele>
        <time>2021-06-11T14:56:44Z</time>
      </trkpt>
      <trkpt lat="37.311258" lon="-1.771419">
        <ele>96.361</ele>
        <time>2021-06-11T14:56:45Z</time>
      </trkpt>
      <trkpt lat="37.310897" lon="-1.771352">
        <ele>95.285</ele>
        <time>2021-06-11T14:56:47Z</time>
      </trkpt>
      <trkpt lat="37.310535" lon="-1.771266">
        <ele>93.748</ele>
        <time>2021-06-11T14:56:49Z</time>
      </trkpt>
      <trkpt lat="37.310354" lon="-1.771219">
        <ele>92.569</ele>
        <time>2021-06-11T14:56:50Z</time>
      </trkpt>
      <trkpt lat="37.30999" lon="-1.771123">
        <ele>90.604</ele>
        <time>2021-06-11T14:56:52Z</time>
      </trkpt>
      <trkpt lat="37.309636" lon="-1.771024">
        <ele>88.424</ele>
        <time>2021-06-11T14:56:54Z</time>
      </trkpt>
      <trkpt lat="37.309463" lon="-1.770971">
        <ele>87.108</ele>
        <time>2021-06-11T14:56:55Z</time>
      </trkpt>
      <trkpt lat="37.309297" lon="-1.770915">
        <ele>85.973</ele>
        <time>2021-06-11T14:56:56Z</time>
      </trkpt>
      <trkpt lat="37.308973" lon="-1.770798">
        <ele>85.271</ele>
        <time>2021-06-11T14:56:58Z</time>
      </trkpt>
      <trkpt lat="37.308664" lon="-1.770718">
        <ele>84.721</ele>
        <time>2021-06-11T14:57:00Z</time>
      </trkpt>
      <trkpt lat="37.308375" lon="-1.770679">
        <ele>84.239</ele>
        <time>2021-06-11T14:57:02Z</time>
      </trkpt>
      <trkpt lat="37.30824" lon="-1.770673">
        <ele>83.994</ele>
        <time>2021-06-11T14:57:03Z</time>
      </trkpt>
      <trkpt lat="37.308109" lon="-1.770671">
        <ele>83.835</ele>
        <time>2021-06-11T14:57:04Z</time>
      </trkpt>
      <trkpt lat="37.307982" lon="-1.770675">
        <ele>83.999</ele>
        <time>2021-06-11T14:57:05Z</time>
      </trkpt>
      <trkpt lat="37.30786" lon="-1.770682">
        <ele>83.712</ele>
        <time>2021-06-11T14:57:06Z</time>
      </trkpt>
      <trkpt lat="37.307622" lon="-1.770705">
        <ele>82.914</ele>
        <time>2021-06-11T14:57:08Z</time>
      </trkpt>
      <trkpt lat="37.307506" lon="-1.770717">
        <ele>82.154</ele>
        <time>2021-06-11T14:57:09Z</time>
      </trkpt>
      <trkpt lat="37.307392" lon="-1.770724">
        <ele>81.609</ele>
        <time>2021-06-11T14:57:10Z</time>
      </trkpt>
      <trkpt lat="37.307172" lon="-1.770734">
        <ele>81.208</ele>
        <time>2021-06-11T14:57:12Z</time>
      </trkpt>
      <trkpt lat="37.306977" lon="-1.770754">
        <ele>80.898</ele>
        <time>2021-06-11T14:57:14Z</time>
      </trkpt>
      <trkpt lat="37.306806" lon="-1.770846">
        <ele>80.246</ele>
        <time>2021-06-11T14:57:16Z</time>
      </trkpt>
      <trkpt lat="37.306637" lon="-1.771023">
        <ele>79.756</ele>
        <time>2021-06-11T14:57:18Z</time>
      </trkpt>
      <trkpt lat="37.306561" lon="-1.771149">
        <ele>79.374</ele>
        <time>2021-06-11T14:57:19Z</time>
      </trkpt>
      <trkpt lat="37.306498" lon="-1.7713">
        <ele>79.399</ele>
        <time>2021-06-11T14:57:20Z</time>
      </trkpt>
      <trkpt lat="37.306449" lon="-1.771469">
        <ele>79.220</ele>
        <time>2021-06-11T14:57:21Z</time>
      </trkpt>
      <trkpt lat="37.306366" lon="-1.771828">
        <ele>78.854</ele>
        <time>2021-06-11T14:57:23Z</time>
      </trkpt>
      <trkpt lat="37.306319" lon="-1.772019">
        <ele>78.587</ele>
        <time>2021-06-11T14:57:24Z</time>
      </trkpt>
      <trkpt lat="37.30622" lon="-1.77242">
        <ele>77.863</ele>
        <time>2021-06-11T14:57:26Z</time>
      </trkpt>
      <trkpt lat="37.306114" lon="-1.77283">
        <ele>77.244</ele>
        <time>2021-06-11T14:57:28Z</time>
      </trkpt>
      <trkpt lat="37.30601" lon="-1.773255">
        <ele>76.618</ele>
        <time>2021-06-11T14:57:30Z</time>
      </trkpt>
      <trkpt lat="37.305906" lon="-1.773688">
        <ele>76.008</ele>
        <time>2021-06-11T14:57:32Z</time>
      </trkpt>
      <trkpt lat="37.305798" lon="-1.774123">
        <ele>75.313</ele>
        <time>2021-06-11T14:57:34Z</time>
      </trkpt>
      <trkpt lat="37.305687" lon="-1.774557">
        <ele>75.171</ele>
        <time>2021-06-11T14:57:36Z</time>
      </trkpt>
      <trkpt lat="37.305562" lon="-1.77498">
        <ele>74.611</ele>
        <time>2021-06-11T14:57:38Z</time>
      </trkpt>
      <trkpt lat="37.305493" lon="-1.775186">
        <ele>74.189</ele>
        <time>2021-06-11T14:57:39Z</time>
      </trkpt>
      <trkpt lat="37.30541" lon="-1.775399">
        <ele>74.134</ele>
        <time>2021-06-11T14:57:40Z</time>
      </trkpt>
      <trkpt lat="37.305319" lon="-1.775615">
        <ele>74.435</ele>
        <time>2021-06-11T14:57:41Z</time>
      </trkpt>
      <trkpt lat="37.305138" lon="-1.776032">
        <ele>74.319</ele>
        <time>2021-06-11T14:57:43Z</time>
      </trkpt>
      <trkpt lat="37.305054" lon="-1.776244">
        <ele>73.972</ele>
        <time>2021-06-11T14:57:44Z</time>
      </trkpt>
      <trkpt lat="37.304889" lon="-1.776669">
        <ele>73.431</ele>
        <time>2021-06-11T14:57:46Z</time>
      </trkpt>
      <trkpt lat="37.304714" lon="-1.777091">
        <ele>73.061</ele>
        <time>2021-06-11T14:57:48Z</time>
      </trkpt>
      <trkpt lat="37.304525" lon="-1.777512">
        <ele>72.707</ele>
        <time>2021-06-11T14:57:50Z</time>
      </trkpt>
      <trkpt lat="37.304334" lon="-1.777927">
        <ele>72.508</ele>
        <time>2021-06-11T14:57:52Z</time>
      </trkpt>
      <trkpt lat="37.304237" lon="-1.778137">
        <ele>72.290</ele>
        <time>2021-06-11T14:57:53Z</time>
      </trkpt>
      <trkpt lat="37.30414" lon="-1.778346">
        <ele>71.878</ele>
        <time>2021-06-11T14:57:54Z</time>
      </trkpt>
      <trkpt lat="37.304045" lon="-1.778557">
        <ele>71.798</ele>
        <time>2021-06-11T14:57:55Z</time>
      </trkpt>
      <trkpt lat="37.303952" lon="-1.778768">
        <ele>71.536</ele>
        <time>2021-06-11T14:57:56Z</time>
      </trkpt>
      <trkpt lat="37.303769" lon="-1.779194">
        <ele>70.941</ele>
        <time>2021-06-11T14:57:58Z</time>
      </trkpt>
      <trkpt lat="37.303682" lon="-1.779408">
        <ele>70.442</ele>
        <time>2021-06-11T14:57:59Z</time>
      </trkpt>
      <trkpt lat="37.303595" lon="-1.77962">
        <ele>69.756</ele>
        <time>2021-06-11T14:58:00Z</time>
      </trkpt>
      <trkpt lat="37.303408" lon="-1.780054">
        <ele>69.289</ele>
        <time>2021-06-11T14:58:02Z</time>
      </trkpt>
      <trkpt lat="37.303235" lon="-1.780492">
        <ele>68.855</ele>
        <time>2021-06-11T14:58:04Z</time>
      </trkpt>
      <trkpt lat="37.303079" lon="-1.780941">
        <ele>69.107</ele>
        <time>2021-06-11T14:58:06Z</time>
      </trkpt>
      <trkpt lat="37.303015" lon="-1.781173">
        <ele>69.317</ele>
        <time>2021-06-11T14:58:07Z</time>
      </trkpt>
      <trkpt lat="37.302905" lon="-1.781637">
        <ele>69.608</ele>
        <time>2021-06-11T14:58:09Z</time>
      </trkpt>
      <trkpt lat="37.302851" lon="-1.781872">
        <ele>69.912</ele>
        <time>2021-06-11T14:58:10Z</time>
      </trkpt>
      <trkpt lat="37.302741" lon="-1.782335">
        <ele>69.930</ele>
        <time>2021-06-11T14:58:12Z</time>
      </trkpt>
      <trkpt lat="37.302631" lon="-1.78279">
        <ele>70.320</ele>
        <time>2021-06-11T14:58:14Z</time>
      </trkpt>
      <trkpt lat="37.302575" lon="-1.783021">
        <ele>70.868</ele>
        <time>2021-06-11T14:58:15Z</time>
      </trkpt>
      <trkpt lat="37.302518" lon="-1.783251">
        <ele>71.233</ele>
        <time>2021-06-11T14:58:16Z</time>
      </trkpt>
      <trkpt lat="37.302458" lon="-1.78348">
        <ele>71.514</ele>
        <time>2021-06-11T14:58:17Z</time>
      </trkpt>
      <trkpt lat="37.302343" lon="-1.783935">
        <ele>71.638</ele>
        <time>2021-06-11T14:58:19Z</time>
      </trkpt>
      <trkpt lat="37.302227" lon="-1.784399">
        <ele>71.361</ele>
        <time>2021-06-11T14:58:21Z</time>
      </trkpt>
      <trkpt lat="37.302166" lon="-1.784638">
        <ele>70.984</ele>
        <time>2021-06-11T14:58:22Z</time>
      </trkpt>
      <trkpt lat="37.302105" lon="-1.784879">
        <ele>70.707</ele>
        <time>2021-06-11T14:58:23Z</time>
      </trkpt>
      <trkpt lat="37.301987" lon="-1.785357">
        <ele>70.417</ele>
        <time>2021-06-11T14:58:25Z</time>
      </trkpt>
      <trkpt lat="37.301932" lon="-1.785595">
        <ele>70.108</ele>
        <time>2021-06-11T14:58:26Z</time>
      </trkpt>
      <trkpt lat="37.301877" lon="-1.785831">
        <ele>69.735</ele>
        <time>2021-06-11T14:58:27Z</time>
      </trkpt>
      <trkpt lat="37.301766" lon="-1.7863">
        <ele>69.383</ele>
        <time>2021-06-11T14:58:29Z</time>
      </trkpt>
      <trkpt lat="37.301709" lon="-1.786536">
        <ele>68.943</ele>
        <time>2021-06-11T14:58:30Z</time>
      </trkpt>
      <trkpt lat="37.301652" lon="-1.786774">
        <ele>68.381</ele>
        <time>2021-06-11T14:58:31Z</time>
      </trkpt>
      <trkpt lat="37.301555" lon="-1.787244">
        <ele>68.156</ele>
        <time>2021-06-11T14:58:33Z</time>
      </trkpt>
      <trkpt lat="37.301509" lon="-1.78748">
        <ele>68.387</ele>
        <time>2021-06-11T14:58:34Z</time>
      </trkpt>
      <trkpt lat="37.301437" lon="-1.787948">
        <ele>67.741</ele>
        <time>2021-06-11T14:58:36Z</time>
      </trkpt>
      <trkpt lat="37.301378" lon="-1.788419">
        <ele>67.334</ele>
        <time>2021-06-11T14:58:38Z</time>
      </trkpt>
      <trkpt lat="37.301328" lon="-1.788883">
        <ele>66.756</ele>
        <time>2021-06-11T14:58:40Z</time>
      </trkpt>
      <trkpt lat="37.301309" lon="-1.789115">
        <ele>66.359</ele>
        <time>2021-06-11T14:58:41Z</time>
      </trkpt>
      <trkpt lat="37.301281" lon="-1.789574">
        <ele>65.814</ele>
        <time>2021-06-11T14:58:43Z</time>
      </trkpt>
      <trkpt lat="37.301276" lon="-1.790029">
        <ele>65.408</ele>
        <time>2021-06-11T14:58:45Z</time>
      </trkpt>
      <trkpt lat="37.301288" lon="-1.790478">
        <ele>64.722</ele>
        <time>2021-06-11T14:58:47Z</time>
      </trkpt>
      <trkpt lat="37.301307" lon="-1.790941">
        <ele>64.050</ele>
        <time>2021-06-11T14:58:49Z</time>
      </trkpt>
      <trkpt lat="37.30133" lon="-1.791413">
        <ele>63.730</ele>
        <time>2021-06-11T14:58:51Z</time>
      </trkpt>
      <trkpt lat="37.30135" lon="-1.791651">
        <ele>63.498</ele>
        <time>2021-06-11T14:58:52Z</time>
      </trkpt>
      <trkpt lat="37.301402" lon="-1.792133">
        <ele>63.083</ele>
        <time>2021-06-11T14:58:54Z</time>
      </trkpt>
      <trkpt lat="37.301463" lon="-1.792622">
        <ele>63.214</ele>
        <time>2021-06-11T14:58:56Z</time>
      </trkpt>
      <trkpt lat="37.301499" lon="-1.792868">
        <ele>63.058</ele>
        <time>2021-06-11T14:58:57Z</time>
      </trkpt>
      <trkpt lat="37.301578" lon="-1.793365">
        <ele>63.381</ele>
        <time>2021-06-11T14:58:59Z</time>
      </trkpt>
      <trkpt lat="37.301622" lon="-1.793612">
        <ele>63.757</ele>
        <time>2021-06-11T14:59:00Z</time>
      </trkpt>
      <trkpt lat="37.301719" lon="-1.794099">
        <ele>64.200</ele>
        <time>2021-06-11T14:59:02Z</time>
      </trkpt>
      <trkpt lat="37.301772" lon="-1.794338">
        <ele>64.820</ele>
        <time>2021-06-11T14:59:03Z</time>
      </trkpt>
      <trkpt lat="37.301829" lon="-1.794579">
        <ele>65.708</ele>
        <time>2021-06-11T14:59:04Z</time>
      </trkpt>
      <trkpt lat="37.301946" lon="-1.795046">
        <ele>66.382</ele>
        <time>2021-06-11T14:59:06Z</time>
      </trkpt>
      <trkpt lat="37.302011" lon="-1.795273">
        <ele>66.970</ele>
        <time>2021-06-11T14:59:07Z</time>
      </trkpt>
      <trkpt lat="37.302148" lon="-1.795719">
        <ele>67.620</ele>
        <time>2021-06-11T14:59:09Z</time>
      </trkpt>
      <trkpt lat="37.302222" lon="-1.795939">
        <ele>68.368</ele>
        <time>2021-06-11T14:59:10Z</time>
      </trkpt>
      <trkpt lat="37.302378" lon="-1.796372">
        <ele>69.093</ele>
        <time>2021-06-11T14:59:12Z</time>
      </trkpt>
      <trkpt lat="37.302537" lon="-1.796801">
        <ele>69.744</ele>
        <time>2021-06-11T14:59:14Z</time>
      </trkpt>
      <trkpt lat="37.3027" lon="-1.797225">
        <ele>70.358</ele>
        <time>2021-06-11T14:59:16Z</time>
      </trkpt>
      <trkpt lat="37.302863" lon="-1.797656">
        <ele>71.511</ele>
        <time>2021-06-11T14:59:18Z</time>
      </trkpt>
      <trkpt lat="37.302941" lon="-1.797868">
        <ele>72.344</ele>
        <time>2021-06-11T14:59:19Z</time>
      </trkpt>
      <trkpt lat="37.303091" lon="-1.798297">
        <ele>72.705</ele>
        <time>2021-06-11T14:59:21Z</time>
      </trkpt>
      <trkpt lat="37.303166" lon="-1.798509">
        <ele>73.415</ele>
        <time>2021-06-11T14:59:22Z</time>
      </trkpt>
      <trkpt lat="37.30332" lon="-1.798934">
        <ele>73.908</ele>
        <time>2021-06-11T14:59:24Z</time>
      </trkpt>
      <trkpt lat="37.303477" lon="-1.799356">
        <ele>74.381</ele>
        <time>2021-06-11T14:59:26Z</time>
      </trkpt>
      <trkpt lat="37.303552" lon="-1.799571">
        <ele>74.549</ele>
        <time>2021-06-11T14:59:27Z</time>
      </trkpt>
      <trkpt lat="37.303703" lon="-1.799996">
        <ele>74.999</ele>
        <time>2021-06-11T14:59:29Z</time>
      </trkpt>
      <trkpt lat="37.303854" lon="-1.80042">
        <ele>75.467</ele>
        <time>2021-06-11T14:59:31Z</time>
      </trkpt>
      <trkpt lat="37.304007" lon="-1.800839">
        <ele>75.732</ele>
        <time>2021-06-11T14:59:33Z</time>
      </trkpt>
      <trkpt lat="37.304088" lon="-1.80105">
        <ele>76.323</ele>
        <time>2021-06-11T14:59:34Z</time>
      </trkpt>
      <trkpt lat="37.304167" lon="-1.801262">
        <ele>76.717</ele>
        <time>2021-06-11T14:59:35Z</time>
      </trkpt>
      <trkpt lat="37.304319" lon="-1.801686">
        <ele>76.680</ele>
        <time>2021-06-11T14:59:37Z</time>
      </trkpt>
      <trkpt lat="37.30446" lon="-1.802121">
        <ele>76.457</ele>
        <time>2021-06-11T14:59:39Z</time>
      </trkpt>
      <trkpt lat="37.304582" lon="-1.802565">
        <ele>76.400</ele>
        <time>2021-06-11T14:59:41Z</time>
      </trkpt>
      <trkpt lat="37.30468" lon="-1.803018">
        <ele>75.820</ele>
        <time>2021-06-11T14:59:43Z</time>
      </trkpt>
      <trkpt lat="37.304754" lon="-1.803478">
        <ele>75.508</ele>
        <time>2021-06-11T14:59:45Z</time>
      </trkpt>
      <trkpt lat="37.304785" lon="-1.803709">
        <ele>75.452</ele>
        <time>2021-06-11T14:59:46Z</time>
      </trkpt>
      <trkpt lat="37.304832" lon="-1.804166">
        <ele>75.460</ele>
        <time>2021-06-11T14:59:48Z</time>
      </trkpt>
      <trkpt lat="37.304855" lon="-1.804626">
        <ele>75.390</ele>
        <time>2021-06-11T14:59:50Z</time>
      </trkpt>
      <trkpt lat="37.304856" lon="-1.804857">
        <ele>75.488</ele>
        <time>2021-06-11T14:59:51Z</time>
      </trkpt>
      <trkpt lat="37.304853" lon="-1.805084">
        <ele>75.393</ele>
        <time>2021-06-11T14:59:52Z</time>
      </trkpt>
      <trkpt lat="37.304842" lon="-1.805313">
        <ele>75.414</ele>
        <time>2021-06-11T14:59:53Z</time>
      </trkpt>
      <trkpt lat="37.304804" lon="-1.805777">
        <ele>75.548</ele>
        <time>2021-06-11T14:59:55Z</time>
      </trkpt>
      <trkpt lat="37.304743" lon="-1.806229">
        <ele>75.941</ele>
        <time>2021-06-11T14:59:57Z</time>
      </trkpt>
      <trkpt lat="37.304703" lon="-1.806451">
        <ele>76.166</ele>
        <time>2021-06-11T14:59:58Z</time>
      </trkpt>
      <trkpt lat="37.304661" lon="-1.806667">
        <ele>76.429</ele>
        <time>2021-06-11T14:59:59Z</time>
      </trkpt>
      <trkpt lat="37.304615" lon="-1.806882">
        <ele>76.721</ele>
        <time>2021-06-11T15:00:00Z</time>
      </trkpt>
      <trkpt lat="37.304559" lon="-1.8071">
        <ele>77.408</ele>
        <time>2021-06-11T15:00:01Z</time>
      </trkpt>
      <trkpt lat="37.304433" lon="-1.807531">
        <ele>78.473</ele>
        <time>2021-06-11T15:00:03Z</time>
      </trkpt>
      <trkpt lat="37.304364" lon="-1.807743">
        <ele>78.751</ele>
        <time>2021-06-11T15:00:04Z</time>
      </trkpt>
      <trkpt lat="37.304209" lon="-1.808155">
        <ele>79.431</ele>
        <time>2021-06-11T15:00:06Z</time>
      </trkpt>
      <trkpt lat="37.304123" lon="-1.808361">
        <ele>79.859</ele>
        <time>2021-06-11T15:00:07Z</time>
      </trkpt>
      <trkpt lat="37.304035" lon="-1.808558">
        <ele>80.054</ele>
        <time>2021-06-11T15:00:08Z</time>
      </trkpt>
      <trkpt lat="37.303936" lon="-1.808757">
        <ele>80.295</ele>
        <time>2021-06-11T15:00:09Z</time>
      </trkpt>
      <trkpt lat="37.303714" lon="-1.809148">
        <ele>81.389</ele>
        <time>2021-06-11T15:00:11Z</time>
      </trkpt>
      <trkpt lat="37.303593" lon="-1.809338">
        <ele>81.992</ele>
        <time>2021-06-11T15:00:12Z</time>
      </trkpt>
      <trkpt lat="37.303335" lon="-1.809698">
        <ele>83.016</ele>
        <time>2021-06-11T15:00:14Z</time>
      </trkpt>
      <trkpt lat="37.303201" lon="-1.809872">
        <ele>83.776</ele>
        <time>2021-06-11T15:00:15Z</time>
      </trkpt>
      <trkpt lat="37.302929" lon="-1.810206">
        <ele>84.713</ele>
        <time>2021-06-11T15:00:17Z</time>
      </trkpt>
      <trkpt lat="37.302791" lon="-1.810368">
        <ele>85.208</ele>
        <time>2021-06-11T15:00:18Z</time>
      </trkpt>
      <trkpt lat="37.302496" lon="-1.810667">
        <ele>85.548</ele>
        <time>2021-06-11T15:00:20Z</time>
      </trkpt>
      <trkpt lat="37.302346" lon="-1.810807">
        <ele>85.796</ele>
        <time>2021-06-11T15:00:21Z</time>
      </trkpt>
      <trkpt lat="37.302029" lon="-1.81108">
        <ele>86.296</ele>
        <time>2021-06-11T15:00:23Z</time>
      </trkpt>
      <trkpt lat="37.301863" lon="-1.81121">
        <ele>86.524</ele>
        <time>2021-06-11T15:00:24Z</time>
      </trkpt>
      <trkpt lat="37.301531" lon="-1.811472">
        <ele>86.629</ele>
        <time>2021-06-11T15:00:26Z</time>
      </trkpt>
      <trkpt lat="37.301364" lon="-1.811602">
        <ele>87.150</ele>
        <time>2021-06-11T15:00:27Z</time>
      </trkpt>
      <trkpt lat="37.301198" lon="-1.811732">
        <ele>87.144</ele>
        <time>2021-06-11T15:00:28Z</time>
      </trkpt>
      <trkpt lat="37.300872" lon="-1.811991">
        <ele>87.387</ele>
        <time>2021-06-11T15:00:30Z</time>
      </trkpt>
      <trkpt lat="37.30055" lon="-1.812259">
        <ele>87.054</ele>
        <time>2021-06-11T15:00:32Z</time>
      </trkpt>
      <trkpt lat="37.300263" lon="-1.812555">
        <ele>86.856</ele>
        <time>2021-06-11T15:00:34Z</time>
      </trkpt>
      <trkpt lat="37.300125" lon="-1.81271">
        <ele>86.711</ele>
        <time>2021-06-11T15:00:35Z</time>
      </trkpt>
      <trkpt lat="37.299989" lon="-1.812869">
        <ele>86.608</ele>
        <time>2021-06-11T15:00:36Z</time>
      </trkpt>
      <trkpt lat="37.299738" lon="-1.813205">
        <ele>86.612</ele>
        <time>2021-06-11T15:00:38Z</time>
      </trkpt>
      <trkpt lat="37.299626" lon="-1.813386">
        <ele>86.810</ele>
        <time>2021-06-11T15:00:39Z</time>
      </trkpt>
      <trkpt lat="37.299429" lon="-1.813767">
        <ele>87.040</ele>
        <time>2021-06-11T15:00:41Z</time>
      </trkpt>
      <trkpt lat="37.299248" lon="-1.814173">
        <ele>87.288</ele>
        <time>2021-06-11T15:00:43Z</time>
      </trkpt>
      <trkpt lat="37.299094" lon="-1.814602">
        <ele>87.683</ele>
        <time>2021-06-11T15:00:45Z</time>
      </trkpt>
      <trkpt lat="37.299024" lon="-1.814825">
        <ele>87.844</ele>
        <time>2021-06-11T15:00:46Z</time>
      </trkpt>
      <trkpt lat="37.298895" lon="-1.815274">
        <ele>88.058</ele>
        <time>2021-06-11T15:00:48Z</time>
      </trkpt>
      <trkpt lat="37.29877" lon="-1.815721">
        <ele>88.181</ele>
        <time>2021-06-11T15:00:50Z</time>
      </trkpt>
      <trkpt lat="37.298655" lon="-1.816175">
        <ele>88.187</ele>
        <time>2021-06-11T15:00:52Z</time>
      </trkpt>
      <trkpt lat="37.298597" lon="-1.816402">
        <ele>88.042</ele>
        <time>2021-06-11T15:00:53Z</time>
      </trkpt>
      <trkpt lat="37.298539" lon="-1.816628">
        <ele>88.126</ele>
        <time>2021-06-11T15:00:54Z</time>
      </trkpt>
      <trkpt lat="37.298417" lon="-1.817075">
        <ele>88.008</ele>
        <time>2021-06-11T15:00:56Z</time>
      </trkpt>
      <trkpt lat="37.298294" lon="-1.817533">
        <ele>87.985</ele>
        <time>2021-06-11T15:00:58Z</time>
      </trkpt>
      <trkpt lat="37.298171" lon="-1.81798">
        <ele>87.883</ele>
        <time>2021-06-11T15:01:00Z</time>
      </trkpt>
      <trkpt lat="37.298107" lon="-1.818205">
        <ele>87.883</ele>
        <time>2021-06-11T15:01:01Z</time>
      </trkpt>
      <trkpt lat="37.298041" lon="-1.81843">
        <ele>87.341</ele>
        <time>2021-06-11T15:01:02Z</time>
      </trkpt>
      <trkpt lat="37.297976" lon="-1.818658">
        <ele>87.126</ele>
        <time>2021-06-11T15:01:03Z</time>
      </trkpt>
      <trkpt lat="37.297849" lon="-1.819113">
        <ele>87.367</ele>
        <time>2021-06-11T15:01:05Z</time>
      </trkpt>
      <trkpt lat="37.297724" lon="-1.819568">
        <ele>87.491</ele>
        <time>2021-06-11T15:01:07Z</time>
      </trkpt>
      <trkpt lat="37.297597" lon="-1.820022">
        <ele>87.864</ele>
        <time>2021-06-11T15:01:09Z</time>
      </trkpt>
      <trkpt lat="37.297455" lon="-1.820472">
        <ele>88.878</ele>
        <time>2021-06-11T15:01:11Z</time>
      </trkpt>
      <trkpt lat="37.297383" lon="-1.820698">
        <ele>89.333</ele>
        <time>2021-06-11T15:01:12Z</time>
      </trkpt>
      <trkpt lat="37.297313" lon="-1.820923">
        <ele>90.026</ele>
        <time>2021-06-11T15:01:13Z</time>
      </trkpt>
      <trkpt lat="37.29716" lon="-1.821361">
        <ele>90.008</ele>
        <time>2021-06-11T15:01:15Z</time>
      </trkpt>
      <trkpt lat="37.297079" lon="-1.821578">
        <ele>89.934</ele>
        <time>2021-06-11T15:01:16Z</time>
      </trkpt>
      <trkpt lat="37.296918" lon="-1.822002">
        <ele>89.732</ele>
        <time>2021-06-11T15:01:18Z</time>
      </trkpt>
      <trkpt lat="37.296834" lon="-1.822217">
        <ele>89.872</ele>
        <time>2021-06-11T15:01:19Z</time>
      </trkpt>
      <trkpt lat="37.296657" lon="-1.82265">
        <ele>89.710</ele>
        <time>2021-06-11T15:01:21Z</time>
      </trkpt>
      <trkpt lat="37.29647" lon="-1.823079">
        <ele>89.195</ele>
        <time>2021-06-11T15:01:23Z</time>
      </trkpt>
      <trkpt lat="37.296372" lon="-1.823291">
        <ele>88.876</ele>
        <time>2021-06-11T15:01:24Z</time>
      </trkpt>
      <trkpt lat="37.296168" lon="-1.823711">
        <ele>88.280</ele>
        <time>2021-06-11T15:01:26Z</time>
      </trkpt>
      <trkpt lat="37.295963" lon="-1.824141">
        <ele>87.453</ele>
        <time>2021-06-11T15:01:28Z</time>
      </trkpt>
      <trkpt lat="37.295759" lon="-1.824577">
        <ele>86.772</ele>
        <time>2021-06-11T15:01:30Z</time>
      </trkpt>
      <trkpt lat="37.295564" lon="-1.825006">
        <ele>85.413</ele>
        <time>2021-06-11T15:01:32Z</time>
      </trkpt>
      <trkpt lat="37.295372" lon="-1.825417">
        <ele>84.414</ele>
        <time>2021-06-11T15:01:34Z</time>
      </trkpt>
      <trkpt lat="37.295276" lon="-1.82562">
        <ele>84.308</ele>
        <time>2021-06-11T15:01:35Z</time>
      </trkpt>
      <trkpt lat="37.29518" lon="-1.825822">
        <ele>83.774</ele>
        <time>2021-06-11T15:01:36Z</time>
      </trkpt>
      <trkpt lat="37.294992" lon="-1.826225">
        <ele>82.932</ele>
        <time>2021-06-11T15:01:38Z</time>
      </trkpt>
      <trkpt lat="37.294896" lon="-1.826431">
        <ele>82.592</ele>
        <time>2021-06-11T15:01:39Z</time>
      </trkpt>
      <trkpt lat="37.294705" lon="-1.826845">
        <ele>81.740</ele>
        <time>2021-06-11T15:01:41Z</time>
      </trkpt>
      <trkpt lat="37.29451" lon="-1.827266">
        <ele>81.265</ele>
        <time>2021-06-11T15:01:43Z</time>
      </trkpt>
      <trkpt lat="37.294419" lon="-1.82747">
        <ele>80.846</ele>
        <time>2021-06-11T15:01:44Z</time>
      </trkpt>
      <trkpt lat="37.294238" lon="-1.82787">
        <ele>80.450</ele>
        <time>2021-06-11T15:01:46Z</time>
      </trkpt>
      <trkpt lat="37.294051" lon="-1.828267">
        <ele>80.063</ele>
        <time>2021-06-11T15:01:48Z</time>
      </trkpt>
      <trkpt lat="37.29386" lon="-1.828664">
        <ele>79.845</ele>
        <time>2021-06-11T15:01:50Z</time>
      </trkpt>
      <trkpt lat="37.293677" lon="-1.829058">
        <ele>79.547</ele>
        <time>2021-06-11T15:01:52Z</time>
      </trkpt>
      <trkpt lat="37.293494" lon="-1.829449">
        <ele>79.111</ele>
        <time>2021-06-11T15:01:54Z</time>
      </trkpt>
      <trkpt lat="37.293315" lon="-1.829831">
        <ele>78.708</ele>
        <time>2021-06-11T15:01:56Z</time>
      </trkpt>
      <trkpt lat="37.293227" lon="-1.830022">
        <ele>78.411</ele>
        <time>2021-06-11T15:01:57Z</time>
      </trkpt>
      <trkpt lat="37.293144" lon="-1.830211">
        <ele>78.179</ele>
        <time>2021-06-11T15:01:58Z</time>
      </trkpt>
      <trkpt lat="37.292972" lon="-1.830597">
        <ele>78.329</ele>
        <time>2021-06-11T15:02:00Z</time>
      </trkpt>
      <trkpt lat="37.292793" lon="-1.830991">
        <ele>78.587</ele>
        <time>2021-06-11T15:02:02Z</time>
      </trkpt>
      <trkpt lat="37.292614" lon="-1.831394">
        <ele>78.852</ele>
        <time>2021-06-11T15:02:04Z</time>
      </trkpt>
      <trkpt lat="37.292532" lon="-1.831603">
        <ele>79.063</ele>
        <time>2021-06-11T15:02:05Z</time>
      </trkpt>
      <trkpt lat="37.292459" lon="-1.831815">
        <ele>79.277</ele>
        <time>2021-06-11T15:02:06Z</time>
      </trkpt>
      <trkpt lat="37.292331" lon="-1.832252">
        <ele>79.690</ele>
        <time>2021-06-11T15:02:08Z</time>
      </trkpt>
      <trkpt lat="37.292275" lon="-1.832482">
        <ele>79.726</ele>
        <time>2021-06-11T15:02:09Z</time>
      </trkpt>
      <trkpt lat="37.292182" lon="-1.832936">
        <ele>79.847</ele>
        <time>2021-06-11T15:02:11Z</time>
      </trkpt>
      <trkpt lat="37.292099" lon="-1.833402">
        <ele>80.311</ele>
        <time>2021-06-11T15:02:13Z</time>
      </trkpt>
      <trkpt lat="37.292056" lon="-1.833635">
        <ele>81.108</ele>
        <time>2021-06-11T15:02:14Z</time>
      </trkpt>
      <trkpt lat="37.291966" lon="-1.834102">
        <ele>81.779</ele>
        <time>2021-06-11T15:02:16Z</time>
      </trkpt>
      <trkpt lat="37.291925" lon="-1.834333">
        <ele>81.597</ele>
        <time>2021-06-11T15:02:17Z</time>
      </trkpt>
      <trkpt lat="37.29183" lon="-1.834793">
        <ele>80.727</ele>
        <time>2021-06-11T15:02:19Z</time>
      </trkpt>
      <trkpt lat="37.2917" lon="-1.835231">
        <ele>79.615</ele>
        <time>2021-06-11T15:02:21Z</time>
      </trkpt>
      <trkpt lat="37.29161" lon="-1.835437">
        <ele>78.680</ele>
        <time>2021-06-11T15:02:22Z</time>
      </trkpt>
      <trkpt lat="37.291402" lon="-1.835824">
        <ele>77.791</ele>
        <time>2021-06-11T15:02:24Z</time>
      </trkpt>
      <trkpt lat="37.291165" lon="-1.836178">
        <ele>76.865</ele>
        <time>2021-06-11T15:02:26Z</time>
      </trkpt>
      <trkpt lat="37.291037" lon="-1.836346">
        <ele>75.838</ele>
        <time>2021-06-11T15:02:27Z</time>
      </trkpt>
      <trkpt lat="37.290767" lon="-1.836659">
        <ele>75.021</ele>
        <time>2021-06-11T15:02:29Z</time>
      </trkpt>
      <trkpt lat="37.29049" lon="-1.836959">
        <ele>73.841</ele>
        <time>2021-06-11T15:02:31Z</time>
      </trkpt>
      <trkpt lat="37.29035" lon="-1.837111">
        <ele>72.705</ele>
        <time>2021-06-11T15:02:32Z</time>
      </trkpt>
      <trkpt lat="37.290073" lon="-1.837414">
        <ele>71.808</ele>
        <time>2021-06-11T15:02:34Z</time>
      </trkpt>
      <trkpt lat="37.289932" lon="-1.837564">
        <ele>70.879</ele>
        <time>2021-06-11T15:02:35Z</time>
      </trkpt>
      <trkpt lat="37.289647" lon="-1.83787">
        <ele>70.247</ele>
        <time>2021-06-11T15:02:37Z</time>
      </trkpt>
      <trkpt lat="37.289505" lon="-1.838025">
        <ele>69.547</ele>
        <time>2021-06-11T15:02:38Z</time>
      </trkpt>
      <trkpt lat="37.289368" lon="-1.838178">
        <ele>69.225</ele>
        <time>2021-06-11T15:02:39Z</time>
      </trkpt>
      <trkpt lat="37.289103" lon="-1.838484">
        <ele>68.910</ele>
        <time>2021-06-11T15:02:41Z</time>
      </trkpt>
      <trkpt lat="37.288849" lon="-1.838817">
        <ele>68.761</ele>
        <time>2021-06-11T15:02:43Z</time>
      </trkpt>
      <trkpt lat="37.288729" lon="-1.838994">
        <ele>68.355</ele>
        <time>2021-06-11T15:02:44Z</time>
      </trkpt>
      <trkpt lat="37.288616" lon="-1.839177">
        <ele>67.858</ele>
        <time>2021-06-11T15:02:45Z</time>
      </trkpt>
      <trkpt lat="37.288407" lon="-1.83955">
        <ele>67.876</ele>
        <time>2021-06-11T15:02:47Z</time>
      </trkpt>
      <trkpt lat="37.288307" lon="-1.839741">
        <ele>67.690</ele>
        <time>2021-06-11T15:02:48Z</time>
      </trkpt>
      <trkpt lat="37.288215" lon="-1.839937">
        <ele>68.119</ele>
        <time>2021-06-11T15:02:49Z</time>
      </trkpt>
      <trkpt lat="37.288131" lon="-1.840139">
        <ele>68.408</ele>
        <time>2021-06-11T15:02:50Z</time>
      </trkpt>
      <trkpt lat="37.287982" lon="-1.84056">
        <ele>68.914</ele>
        <time>2021-06-11T15:02:52Z</time>
      </trkpt>
      <trkpt lat="37.287918" lon="-1.840777">
        <ele>69.312</ele>
        <time>2021-06-11T15:02:53Z</time>
      </trkpt>
      <trkpt lat="37.287802" lon="-1.841219">
        <ele>69.632</ele>
        <time>2021-06-11T15:02:55Z</time>
      </trkpt>
      <trkpt lat="37.287752" lon="-1.841448">
        <ele>69.620</ele>
        <time>2021-06-11T15:02:56Z</time>
      </trkpt>
      <trkpt lat="37.287672" lon="-1.84191">
        <ele>69.745</ele>
        <time>2021-06-11T15:02:58Z</time>
      </trkpt>
      <trkpt lat="37.287634" lon="-1.842383">
        <ele>70.036</ele>
        <time>2021-06-11T15:03:00Z</time>
      </trkpt>
      <trkpt lat="37.287627" lon="-1.842621">
        <ele>70.190</ele>
        <time>2021-06-11T15:03:01Z</time>
      </trkpt>
      <trkpt lat="37.287629" lon="-1.84286">
        <ele>70.423</ele>
        <time>2021-06-11T15:03:02Z</time>
      </trkpt>
      <trkpt lat="37.287654" lon="-1.843334">
        <ele>70.223</ele>
        <time>2021-06-11T15:03:04Z</time>
      </trkpt>
      <trkpt lat="37.287708" lon="-1.843812">
        <ele>70.483</ele>
        <time>2021-06-11T15:03:06Z</time>
      </trkpt>
      <trkpt lat="37.28779" lon="-1.844285">
        <ele>71.111</ele>
        <time>2021-06-11T15:03:08Z</time>
      </trkpt>
      <trkpt lat="37.287846" lon="-1.844514">
        <ele>71.808</ele>
        <time>2021-06-11T15:03:09Z</time>
      </trkpt>
      <trkpt lat="37.287965" lon="-1.844961">
        <ele>71.929</ele>
        <time>2021-06-11T15:03:11Z</time>
      </trkpt>
      <trkpt lat="37.288025" lon="-1.845185">
        <ele>72.077</ele>
        <time>2021-06-11T15:03:12Z</time>
      </trkpt>
      <trkpt lat="37.288087" lon="-1.84541">
        <ele>72.397</ele>
        <time>2021-06-11T15:03:13Z</time>
      </trkpt>
      <trkpt lat="37.288211" lon="-1.845864">
        <ele>72.565</ele>
        <time>2021-06-11T15:03:15Z</time>
      </trkpt>
      <trkpt lat="37.28827" lon="-1.846092">
        <ele>73.070</ele>
        <time>2021-06-11T15:03:16Z</time>
      </trkpt>
      <trkpt lat="37.288376" lon="-1.846552">
        <ele>73.421</ele>
        <time>2021-06-11T15:03:18Z</time>
      </trkpt>
      <trkpt lat="37.288422" lon="-1.846782">
        <ele>73.145</ele>
        <time>2021-06-11T15:03:19Z</time>
      </trkpt>
      <trkpt lat="37.288463" lon="-1.847015">
        <ele>72.948</ele>
        <time>2021-06-11T15:03:20Z</time>
      </trkpt>
      <trkpt lat="37.288535" lon="-1.847488">
        <ele>72.914</ele>
        <time>2021-06-11T15:03:22Z</time>
      </trkpt>
      <trkpt lat="37.288567" lon="-1.847726">
        <ele>72.754</ele>
        <time>2021-06-11T15:03:23Z</time>
      </trkpt>
      <trkpt lat="37.288621" lon="-1.8482">
        <ele>72.409</ele>
        <time>2021-06-11T15:03:25Z</time>
      </trkpt>
      <trkpt lat="37.28864" lon="-1.848438">
        <ele>72.008</ele>
        <time>2021-06-11T15:03:26Z</time>
      </trkpt>
      <trkpt lat="37.288658" lon="-1.848677">
        <ele>71.698</ele>
        <time>2021-06-11T15:03:27Z</time>
      </trkpt>
      <trkpt lat="37.288695" lon="-1.849154">
        <ele>71.466</ele>
        <time>2021-06-11T15:03:29Z</time>
      </trkpt>
      <trkpt lat="37.288714" lon="-1.849395">
        <ele>71.276</ele>
        <time>2021-06-11T15:03:30Z</time>
      </trkpt>
      <trkpt lat="37.288735" lon="-1.849636">
        <ele>71.254</ele>
        <time>2021-06-11T15:03:31Z</time>
      </trkpt>
      <trkpt lat="37.28877" lon="-1.850121">
        <ele>70.969</ele>
        <time>2021-06-11T15:03:33Z</time>
      </trkpt>
      <trkpt lat="37.288787" lon="-1.850363">
        <ele>70.810</ele>
        <time>2021-06-11T15:03:34Z</time>
      </trkpt>
      <trkpt lat="37.288803" lon="-1.850607">
        <ele>70.934</ele>
        <time>2021-06-11T15:03:35Z</time>
      </trkpt>
      <trkpt lat="37.288819" lon="-1.850854">
        <ele>70.927</ele>
        <time>2021-06-11T15:03:36Z</time>
      </trkpt>
      <trkpt lat="37.288836" lon="-1.851099">
        <ele>70.877</ele>
        <time>2021-06-11T15:03:37Z</time>
      </trkpt>
      <trkpt lat="37.28887" lon="-1.851579">
        <ele>71.261</ele>
        <time>2021-06-11T15:03:39Z</time>
      </trkpt>
      <trkpt lat="37.288908" lon="-1.852056">
        <ele>71.227</ele>
        <time>2021-06-11T15:03:41Z</time>
      </trkpt>
      <trkpt lat="37.288926" lon="-1.852291">
        <ele>71.108</ele>
        <time>2021-06-11T15:03:42Z</time>
      </trkpt>
      <trkpt lat="37.288944" lon="-1.852526">
        <ele>71.254</ele>
        <time>2021-06-11T15:03:43Z</time>
      </trkpt>
      <trkpt lat="37.28898" lon="-1.853002">
        <ele>71.342</ele>
        <time>2021-06-11T15:03:45Z</time>
      </trkpt>
      <trkpt lat="37.289014" lon="-1.853473">
        <ele>71.112</ele>
        <time>2021-06-11T15:03:47Z</time>
      </trkpt>
      <trkpt lat="37.28903" lon="-1.853943">
        <ele>71.280</ele>
        <time>2021-06-11T15:03:49Z</time>
      </trkpt>
      <trkpt lat="37.289013" lon="-1.854402">
        <ele>71.445</ele>
        <time>2021-06-11T15:03:51Z</time>
      </trkpt>
      <trkpt lat="37.288966" lon="-1.854853">
        <ele>71.496</ele>
        <time>2021-06-11T15:03:53Z</time>
      </trkpt>
      <trkpt lat="37.288892" lon="-1.855296">
        <ele>71.620</ele>
        <time>2021-06-11T15:03:55Z</time>
      </trkpt>
      <trkpt lat="37.288843" lon="-1.855511">
        <ele>71.883</ele>
        <time>2021-06-11T15:03:56Z</time>
      </trkpt>
      <trkpt lat="37.288786" lon="-1.85572">
        <ele>71.926</ele>
        <time>2021-06-11T15:03:57Z</time>
      </trkpt>
      <trkpt lat="37.288724" lon="-1.855925">
        <ele>71.847</ele>
        <time>2021-06-11T15:03:58Z</time>
      </trkpt>
      <trkpt lat="37.288615" lon="-1.85633">
        <ele>72.011</ele>
        <time>2021-06-11T15:04:00Z</time>
      </trkpt>
      <trkpt lat="37.288575" lon="-1.856537">
        <ele>72.108</ele>
        <time>2021-06-11T15:04:01Z</time>
      </trkpt>
      <trkpt lat="37.288524" lon="-1.856963">
        <ele>72.589</ele>
        <time>2021-06-11T15:04:03Z</time>
      </trkpt>
      <trkpt lat="37.288503" lon="-1.857183">
        <ele>73.287</ele>
        <time>2021-06-11T15:04:04Z</time>
      </trkpt>
      <trkpt lat="37.288481" lon="-1.857627">
        <ele>73.847</ele>
        <time>2021-06-11T15:04:06Z</time>
      </trkpt>
      <trkpt lat="37.288476" lon="-1.857856">
        <ele>74.655</ele>
        <time>2021-06-11T15:04:07Z</time>
      </trkpt>
      <trkpt lat="37.288473" lon="-1.858085">
        <ele>74.760</ele>
        <time>2021-06-11T15:04:08Z</time>
      </trkpt>
      <trkpt lat="37.288484" lon="-1.858311">
        <ele>74.761</ele>
        <time>2021-06-11T15:04:09Z</time>
      </trkpt>
      <trkpt lat="37.288504" lon="-1.858535">
        <ele>74.945</ele>
        <time>2021-06-11T15:04:10Z</time>
      </trkpt>
      <trkpt lat="37.288533" lon="-1.858755">
        <ele>74.828</ele>
        <time>2021-06-11T15:04:11Z</time>
      </trkpt>
      <trkpt lat="37.288604" lon="-1.859188">
        <ele>75.168</ele>
        <time>2021-06-11T15:04:13Z</time>
      </trkpt>
      <trkpt lat="37.288642" lon="-1.859403">
        <ele>75.042</ele>
        <time>2021-06-11T15:04:14Z</time>
      </trkpt>
      <trkpt lat="37.288677" lon="-1.859615">
        <ele>75.226</ele>
        <time>2021-06-11T15:04:15Z</time>
      </trkpt>
      <trkpt lat="37.288716" lon="-1.859825">
        <ele>75.208</ele>
        <time>2021-06-11T15:04:16Z</time>
      </trkpt>
      <trkpt lat="37.288797" lon="-1.860239">
        <ele>75.413</ele>
        <time>2021-06-11T15:04:18Z</time>
      </trkpt>
      <trkpt lat="37.288841" lon="-1.860444">
        <ele>75.561</ele>
        <time>2021-06-11T15:04:19Z</time>
      </trkpt>
      <trkpt lat="37.288937" lon="-1.860856">
        <ele>75.961</ele>
        <time>2021-06-11T15:04:21Z</time>
      </trkpt>
      <trkpt lat="37.288991" lon="-1.861062">
        <ele>76.239</ele>
        <time>2021-06-11T15:04:22Z</time>
      </trkpt>
      <trkpt lat="37.289051" lon="-1.861266">
        <ele>76.214</ele>
        <time>2021-06-11T15:04:23Z</time>
      </trkpt>
      <trkpt lat="37.289125" lon="-1.861465">
        <ele>76.535</ele>
        <time>2021-06-11T15:04:24Z</time>
      </trkpt>
      <trkpt lat="37.289208" lon="-1.86165">
        <ele>76.389</ele>
        <time>2021-06-11T15:04:25Z</time>
      </trkpt>
      <trkpt lat="37.289385" lon="-1.862">
        <ele>76.362</ele>
        <time>2021-06-11T15:04:27Z</time>
      </trkpt>
      <trkpt lat="37.289479" lon="-1.862174">
        <ele>76.844</ele>
        <time>2021-06-11T15:04:28Z</time>
      </trkpt>
      <trkpt lat="37.28968" lon="-1.862502">
        <ele>77.505</ele>
        <time>2021-06-11T15:04:30Z</time>
      </trkpt>
      <trkpt lat="37.289787" lon="-1.862664">
        <ele>78.215</ele>
        <time>2021-06-11T15:04:31Z</time>
      </trkpt>
      <trkpt lat="37.289893" lon="-1.862828">
        <ele>79.408</ele>
        <time>2021-06-11T15:04:32Z</time>
      </trkpt>
      <trkpt lat="37.290096" lon="-1.863175">
        <ele>81.271</ele>
        <time>2021-06-11T15:04:34Z</time>
      </trkpt>
      <trkpt lat="37.290196" lon="-1.863347">
        <ele>82.439</ele>
        <time>2021-06-11T15:04:35Z</time>
      </trkpt>
      <trkpt lat="37.29039" lon="-1.863696">
        <ele>84.219</ele>
        <time>2021-06-11T15:04:37Z</time>
      </trkpt>
      <trkpt lat="37.290579" lon="-1.864042">
        <ele>86.387</ele>
        <time>2021-06-11T15:04:39Z</time>
      </trkpt>
      <trkpt lat="37.290675" lon="-1.864207">
        <ele>87.822</ele>
        <time>2021-06-11T15:04:40Z</time>
      </trkpt>
      <trkpt lat="37.290868" lon="-1.864539">
        <ele>89.573</ele>
        <time>2021-06-11T15:04:42Z</time>
      </trkpt>
      <trkpt lat="37.291056" lon="-1.864881">
        <ele>91.587</ele>
        <time>2021-06-11T15:04:44Z</time>
      </trkpt>
      <trkpt lat="37.291149" lon="-1.865058">
        <ele>92.870</ele>
        <time>2021-06-11T15:04:45Z</time>
      </trkpt>
      <trkpt lat="37.291243" lon="-1.865235">
        <ele>93.734</ele>
        <time>2021-06-11T15:04:46Z</time>
      </trkpt>
      <trkpt lat="37.291428" lon="-1.86559">
        <ele>94.755</ele>
        <time>2021-06-11T15:04:48Z</time>
      </trkpt>
      <trkpt lat="37.291524" lon="-1.86577">
        <ele>95.410</ele>
        <time>2021-06-11T15:04:49Z</time>
      </trkpt>
      <trkpt lat="37.291623" lon="-1.865951">
        <ele>96.108</ele>
        <time>2021-06-11T15:04:50Z</time>
      </trkpt>
      <trkpt lat="37.291818" lon="-1.866302">
        <ele>96.870</ele>
        <time>2021-06-11T15:04:52Z</time>
      </trkpt>
      <trkpt lat="37.291908" lon="-1.866472">
        <ele>97.478</ele>
        <time>2021-06-11T15:04:53Z</time>
      </trkpt>
      <trkpt lat="37.292077" lon="-1.866782">
        <ele>97.518</ele>
        <time>2021-06-11T15:04:55Z</time>
      </trkpt>
      <trkpt lat="37.292158" lon="-1.866927">
        <ele>97.886</ele>
        <time>2021-06-11T15:04:56Z</time>
      </trkpt>
      <trkpt lat="37.292314" lon="-1.867207">
        <ele>97.521</ele>
        <time>2021-06-11T15:04:58Z</time>
      </trkpt>
      <trkpt lat="37.29239" lon="-1.867341">
        <ele>97.352</ele>
        <time>2021-06-11T15:04:59Z</time>
      </trkpt>
      <trkpt lat="37.292465" lon="-1.867476">
        <ele>97.136</ele>
        <time>2021-06-11T15:05:00Z</time>
      </trkpt>
      <trkpt lat="37.292617" lon="-1.867739">
        <ele>96.089</ele>
        <time>2021-06-11T15:05:02Z</time>
      </trkpt>
      <trkpt lat="37.292699" lon="-1.867878">
        <ele>95.251</ele>
        <time>2021-06-11T15:05:03Z</time>
      </trkpt>
      <trkpt lat="37.292872" lon="-1.868182">
        <ele>94.401</ele>
        <time>2021-06-11T15:05:05Z</time>
      </trkpt>
      <trkpt lat="37.293053" lon="-1.868515">
        <ele>93.211</ele>
        <time>2021-06-11T15:05:07Z</time>
      </trkpt>
      <trkpt lat="37.293208" lon="-1.868863">
        <ele>91.708</ele>
        <time>2021-06-11T15:05:09Z</time>
      </trkpt>
      <trkpt lat="37.293292" lon="-1.869227">
        <ele>90.672</ele>
        <time>2021-06-11T15:05:11Z</time>
      </trkpt>
      <trkpt lat="37.29332" lon="-1.86958">
        <ele>89.430</ele>
        <time>2021-06-11T15:05:13Z</time>
      </trkpt>
      <trkpt lat="37.293296" lon="-1.86994">
        <ele>88.670</ele>
        <time>2021-06-11T15:05:15Z</time>
      </trkpt>
      <trkpt lat="37.293236" lon="-1.870297">
        <ele>88.198</ele>
        <time>2021-06-11T15:05:17Z</time>
      </trkpt>
      <trkpt lat="37.293204" lon="-1.870475">
        <ele>87.643</ele>
        <time>2021-06-11T15:05:18Z</time>
      </trkpt>
      <trkpt lat="37.293144" lon="-1.870824">
        <ele>87.394</ele>
        <time>2021-06-11T15:05:20Z</time>
      </trkpt>
      <trkpt lat="37.293115" lon="-1.870993">
        <ele>87.168</ele>
        <time>2021-06-11T15:05:21Z</time>
      </trkpt>
      <trkpt lat="37.293059" lon="-1.871326">
        <ele>87.071</ele>
        <time>2021-06-11T15:05:23Z</time>
      </trkpt>
      <trkpt lat="37.293027" lon="-1.871493">
        <ele>87.033</ele>
        <time>2021-06-11T15:05:24Z</time>
      </trkpt>
      <trkpt lat="37.292963" lon="-1.87182">
        <ele>86.923</ele>
        <time>2021-06-11T15:05:26Z</time>
      </trkpt>
      <trkpt lat="37.292939" lon="-1.871979">
        <ele>86.915</ele>
        <time>2021-06-11T15:05:27Z</time>
      </trkpt>
      <trkpt lat="37.292919" lon="-1.872132">
        <ele>86.808</ele>
        <time>2021-06-11T15:05:28Z</time>
      </trkpt>
      <trkpt lat="37.292899" lon="-1.872286">
        <ele>86.960</ele>
        <time>2021-06-11T15:05:29Z</time>
      </trkpt>
      <trkpt lat="37.292851" lon="-1.872583">
        <ele>86.548</ele>
        <time>2021-06-11T15:05:31Z</time>
      </trkpt>
      <trkpt lat="37.292796" lon="-1.872879">
        <ele>86.118</ele>
        <time>2021-06-11T15:05:33Z</time>
      </trkpt>
      <trkpt lat="37.292743" lon="-1.873159">
        <ele>86.136</ele>
        <time>2021-06-11T15:05:35Z</time>
      </trkpt>
      <trkpt lat="37.292721" lon="-1.873291">
        <ele>86.061</ele>
        <time>2021-06-11T15:05:36Z</time>
      </trkpt>
      <trkpt lat="37.292685" lon="-1.873549">
        <ele>86.262</ele>
        <time>2021-06-11T15:05:38Z</time>
      </trkpt>
      <trkpt lat="37.292665" lon="-1.873677">
        <ele>86.256</ele>
        <time>2021-06-11T15:05:39Z</time>
      </trkpt>
      <trkpt lat="37.29262" lon="-1.873936">
        <ele>86.229</ele>
        <time>2021-06-11T15:05:41Z</time>
      </trkpt>
      <trkpt lat="37.292575" lon="-1.874204">
        <ele>85.929</ele>
        <time>2021-06-11T15:05:43Z</time>
      </trkpt>
      <trkpt lat="37.292552" lon="-1.874336">
        <ele>85.700</ele>
        <time>2021-06-11T15:05:44Z</time>
      </trkpt>
      <trkpt lat="37.292506" lon="-1.874599">
        <ele>85.720</ele>
        <time>2021-06-11T15:05:46Z</time>
      </trkpt>
      <trkpt lat="37.29247" lon="-1.87484">
        <ele>85.608</ele>
        <time>2021-06-11T15:05:48Z</time>
      </trkpt>
      <trkpt lat="37.292432" lon="-1.875059">
        <ele>85.199</ele>
        <time>2021-06-11T15:05:50Z</time>
      </trkpt>
      <trkpt lat="37.292398" lon="-1.875257">
        <ele>84.947</ele>
        <time>2021-06-11T15:05:52Z</time>
      </trkpt>
      <trkpt lat="37.292365" lon="-1.875472">
        <ele>84.147</ele>
        <time>2021-06-11T15:05:54Z</time>
      </trkpt>
      <trkpt lat="37.292345" lon="-1.875584">
        <ele>83.845</ele>
        <time>2021-06-11T15:05:55Z</time>
      </trkpt>
      <trkpt lat="37.292325" lon="-1.875698">
        <ele>83.690</ele>
        <time>2021-06-11T15:05:56Z</time>
      </trkpt>
      <trkpt lat="37.29229" lon="-1.875938">
        <ele>82.951</ele>
        <time>2021-06-11T15:05:58Z</time>
      </trkpt>
      <trkpt lat="37.292267" lon="-1.876061">
        <ele>83.245</ele>
        <time>2021-06-11T15:05:59Z</time>
      </trkpt>
      <trkpt lat="37.292227" lon="-1.8763">
        <ele>83.058</ele>
        <time>2021-06-11T15:06:01Z</time>
      </trkpt>
      <trkpt lat="37.292207" lon="-1.876421">
        <ele>82.721</ele>
        <time>2021-06-11T15:06:02Z</time>
      </trkpt>
      <trkpt lat="37.292186" lon="-1.876542">
        <ele>82.541</ele>
        <time>2021-06-11T15:06:03Z</time>
      </trkpt>
      <trkpt lat="37.292146" lon="-1.876779">
        <ele>82.005</ele>
        <time>2021-06-11T15:06:05Z</time>
      </trkpt>
      <trkpt lat="37.292105" lon="-1.877015">
        <ele>81.608</ele>
        <time>2021-06-11T15:06:07Z</time>
      </trkpt>
      <trkpt lat="37.292059" lon="-1.877238">
        <ele>81.159</ele>
        <time>2021-06-11T15:06:09Z</time>
      </trkpt>
      <trkpt lat="37.292023" lon="-1.877347">
        <ele>80.867</ele>
        <time>2021-06-11T15:06:10Z</time>
      </trkpt>
      <trkpt lat="37.291938" lon="-1.877546">
        <ele>80.467</ele>
        <time>2021-06-11T15:06:12Z</time>
      </trkpt>
      <trkpt lat="37.291842" lon="-1.877709">
        <ele>79.595</ele>
        <time>2021-06-11T15:06:14Z</time>
      </trkpt>
      <trkpt lat="37.291789" lon="-1.877777">
        <ele>79.260</ele>
        <time>2021-06-11T15:06:15Z</time>
      </trkpt>
      <trkpt lat="37.291737" lon="-1.877837">
        <ele>79.251</ele>
        <time>2021-06-11T15:06:16Z</time>
      </trkpt>
      <trkpt lat="37.291639" lon="-1.877943">
        <ele>79.125</ele>
        <time>2021-06-11T15:06:18Z</time>
      </trkpt>
      <trkpt lat="37.291567" lon="-1.878056">
        <ele>79.528</ele>
        <time>2021-06-11T15:06:20Z</time>
      </trkpt>
      <trkpt lat="37.29155" lon="-1.878124">
        <ele>80.435</ele>
        <time>2021-06-11T15:06:21Z</time>
      </trkpt>
      <trkpt lat="37.291537" lon="-1.878194">
        <ele>81.186</ele>
        <time>2021-06-11T15:06:22Z</time>
      </trkpt>
      <trkpt lat="37.291482" lon="-1.878317">
        <ele>81.714</ele>
        <time>2021-06-11T15:06:24Z</time>
      </trkpt>
      <trkpt lat="37.291368" lon="-1.878352">
        <ele>81.908</ele>
        <time>2021-06-11T15:06:26Z</time>
      </trkpt>
      <trkpt lat="37.291256" lon="-1.878279">
        <ele>82.280</ele>
        <time>2021-06-11T15:06:28Z</time>
      </trkpt>
      <trkpt lat="37.291221" lon="-1.878216">
        <ele>82.358</ele>
        <time>2021-06-11T15:06:29Z</time>
      </trkpt>
      <trkpt lat="37.291215" lon="-1.878072">
        <ele>83.088</ele>
        <time>2021-06-11T15:06:31Z</time>
      </trkpt>
      <trkpt lat="37.291264" lon="-1.877943">
        <ele>83.466</ele>
        <time>2021-06-11T15:06:33Z</time>
      </trkpt>
      <trkpt lat="37.291287" lon="-1.877807">
        <ele>84.111</ele>
        <time>2021-06-11T15:06:35Z</time>
      </trkpt>
      <trkpt lat="37.291259" lon="-1.877668">
        <ele>85.032</ele>
        <time>2021-06-11T15:06:37Z</time>
      </trkpt>
      <trkpt lat="37.291245" lon="-1.877595">
        <ele>85.546</ele>
        <time>2021-06-11T15:06:38Z</time>
      </trkpt>
      <trkpt lat="37.291231" lon="-1.877526">
        <ele>85.629</ele>
        <time>2021-06-11T15:06:39Z</time>
      </trkpt>
      <trkpt lat="37.291223" lon="-1.877384">
        <ele>85.044</ele>
        <time>2021-06-11T15:06:41Z</time>
      </trkpt>
      <trkpt lat="37.29122" lon="-1.877315">
        <ele>84.905</ele>
        <time>2021-06-11T15:06:42Z</time>
      </trkpt>
      <trkpt lat="37.291201" lon="-1.877207">
        <ele>84.815</ele>
        <time>2021-06-11T15:06:44Z</time>
      </trkpt>
      <trkpt lat="37.291235" lon="-1.877168">
        <ele>84.808</ele>
        <time>2021-06-11T15:06:47Z</time>
      </trkpt>
      <trkpt lat="37.291264" lon="-1.877238">
        <ele>85.321</ele>
        <time>2021-06-11T15:06:49Z</time>
      </trkpt>
      <trkpt lat="37.29126" lon="-1.877357">
        <ele>85.459</ele>
        <time>2021-06-11T15:06:51Z</time>
      </trkpt>
      <trkpt lat="37.291264" lon="-1.877532">
        <ele>85.949</ele>
        <time>2021-06-11T15:06:53Z</time>
      </trkpt>
      <trkpt lat="37.291276" lon="-1.877619">
        <ele>86.017</ele>
        <time>2021-06-11T15:06:54Z</time>
      </trkpt>
      <trkpt lat="37.291292" lon="-1.877701">
        <ele>86.062</ele>
        <time>2021-06-11T15:06:55Z</time>
      </trkpt>
      <trkpt lat="37.29132" lon="-1.877841">
        <ele>86.883</ele>
        <time>2021-06-11T15:06:57Z</time>
      </trkpt>
      <trkpt lat="37.291391" lon="-1.877946">
        <ele>87.027</ele>
        <time>2021-06-11T15:06:59Z</time>
      </trkpt>
      <trkpt lat="37.291444" lon="-1.878001">
        <ele>86.980</ele>
        <time>2021-06-11T15:07:00Z</time>
      </trkpt>
      <trkpt lat="37.291533" lon="-1.878132">
        <ele>87.169</ele>
        <time>2021-06-11T15:07:02Z</time>
      </trkpt>
      <trkpt lat="37.291541" lon="-1.878209">
        <ele>87.004</ele>
        <time>2021-06-11T15:07:03Z</time>
      </trkpt>
      <trkpt lat="37.291518" lon="-1.87828">
        <ele>87.024</ele>
        <time>2021-06-11T15:07:04Z</time>
      </trkpt>
      <trkpt lat="37.29147" lon="-1.878332">
        <ele>86.808</ele>
        <time>2021-06-11T15:07:05Z</time>
      </trkpt>
      <trkpt lat="37.291337" lon="-1.878349">
        <ele>87.133</ele>
        <time>2021-06-11T15:07:07Z</time>
      </trkpt>
      <trkpt lat="37.29127" lon="-1.878331">
        <ele>87.081</ele>
        <time>2021-06-11T15:07:08Z</time>
      </trkpt>
      <trkpt lat="37.291197" lon="-1.878308">
        <ele>86.931</ele>
        <time>2021-06-11T15:07:09Z</time>
      </trkpt>
      <trkpt lat="37.291039" lon="-1.878272">
        <ele>86.349</ele>
        <time>2021-06-11T15:07:11Z</time>
      </trkpt>
      <trkpt lat="37.290858" lon="-1.878229">
        <ele>85.894</ele>
        <time>2021-06-11T15:07:13Z</time>
      </trkpt>
      <trkpt lat="37.290767" lon="-1.878198">
        <ele>85.515</ele>
        <time>2021-06-11T15:07:14Z</time>
      </trkpt>
      <trkpt lat="37.290581" lon="-1.87813">
        <ele>85.599</ele>
        <time>2021-06-11T15:07:16Z</time>
      </trkpt>
      <trkpt lat="37.290393" lon="-1.878045">
        <ele>85.362</ele>
        <time>2021-06-11T15:07:18Z</time>
      </trkpt>
      <trkpt lat="37.290299" lon="-1.877997">
        <ele>85.063</ele>
        <time>2021-06-11T15:07:19Z</time>
      </trkpt>
      <trkpt lat="37.290118" lon="-1.877885">
        <ele>84.744</ele>
        <time>2021-06-11T15:07:21Z</time>
      </trkpt>
      <trkpt lat="37.289938" lon="-1.877762">
        <ele>84.118</ele>
        <time>2021-06-11T15:07:23Z</time>
      </trkpt>
      <trkpt lat="37.289757" lon="-1.877632">
        <ele>83.608</ele>
        <time>2021-06-11T15:07:25Z</time>
      </trkpt>
      <trkpt lat="37.289667" lon="-1.877569">
        <ele>83.363</ele>
        <time>2021-06-11T15:07:26Z</time>
      </trkpt>
      <trkpt lat="37.289486" lon="-1.877453">
        <ele>82.611</ele>
        <time>2021-06-11T15:07:28Z</time>
      </trkpt>
      <trkpt lat="37.289309" lon="-1.877336">
        <ele>81.931</ele>
        <time>2021-06-11T15:07:30Z</time>
      </trkpt>
      <trkpt lat="37.289217" lon="-1.877275">
        <ele>81.289</ele>
        <time>2021-06-11T15:07:31Z</time>
      </trkpt>
      <trkpt lat="37.289034" lon="-1.87715">
        <ele>80.474</ele>
        <time>2021-06-11T15:07:33Z</time>
      </trkpt>
      <trkpt lat="37.288855" lon="-1.877021">
        <ele>80.075</ele>
        <time>2021-06-11T15:07:35Z</time>
      </trkpt>
      <trkpt lat="37.288767" lon="-1.876959">
        <ele>80.039</ele>
        <time>2021-06-11T15:07:36Z</time>
      </trkpt>
      <trkpt lat="37.288593" lon="-1.876845">
        <ele>79.972</ele>
        <time>2021-06-11T15:07:38Z</time>
      </trkpt>
      <trkpt lat="37.288416" lon="-1.876727">
        <ele>80.143</ele>
        <time>2021-06-11T15:07:40Z</time>
      </trkpt>
      <trkpt lat="37.288232" lon="-1.8766">
        <ele>80.464</ele>
        <time>2021-06-11T15:07:42Z</time>
      </trkpt>
      <trkpt lat="37.288048" lon="-1.876471">
        <ele>81.410</ele>
        <time>2021-06-11T15:07:44Z</time>
      </trkpt>
      <trkpt lat="37.28786" lon="-1.876345">
        <ele>81.508</ele>
        <time>2021-06-11T15:07:46Z</time>
      </trkpt>
      <trkpt lat="37.287763" lon="-1.87628">
        <ele>81.451</ele>
        <time>2021-06-11T15:07:47Z</time>
      </trkpt>
      <trkpt lat="37.287668" lon="-1.876215">
        <ele>81.619</ele>
        <time>2021-06-11T15:07:48Z</time>
      </trkpt>
      <trkpt lat="37.287576" lon="-1.876155">
        <ele>82.079</ele>
        <time>2021-06-11T15:07:49Z</time>
      </trkpt>
      <trkpt lat="37.287483" lon="-1.876098">
        <ele>82.187</ele>
        <time>2021-06-11T15:07:50Z</time>
      </trkpt>
      <trkpt lat="37.287312" lon="-1.875971">
        <ele>81.382</ele>
        <time>2021-06-11T15:07:52Z</time>
      </trkpt>
      <trkpt lat="37.287227" lon="-1.875908">
        <ele>80.723</ele>
        <time>2021-06-11T15:07:53Z</time>
      </trkpt>
      <trkpt lat="37.287144" lon="-1.875847">
        <ele>80.557</ele>
        <time>2021-06-11T15:07:54Z</time>
      </trkpt>
      <trkpt lat="37.287061" lon="-1.875786">
        <ele>80.270</ele>
        <time>2021-06-11T15:07:55Z</time>
      </trkpt>
      <trkpt lat="37.286894" lon="-1.875668">
        <ele>80.057</ele>
        <time>2021-06-11T15:07:57Z</time>
      </trkpt>
      <trkpt lat="37.286721" lon="-1.875549">
        <ele>79.500</ele>
        <time>2021-06-11T15:07:59Z</time>
      </trkpt>
      <trkpt lat="37.286636" lon="-1.875486">
        <ele>79.420</ele>
        <time>2021-06-11T15:08:00Z</time>
      </trkpt>
      <trkpt lat="37.286462" lon="-1.875353">
        <ele>79.308</ele>
        <time>2021-06-11T15:08:02Z</time>
      </trkpt>
      <trkpt lat="37.286373" lon="-1.875288">
        <ele>79.252</ele>
        <time>2021-06-11T15:08:03Z</time>
      </trkpt>
      <trkpt lat="37.286285" lon="-1.875229">
        <ele>79.040</ele>
        <time>2021-06-11T15:08:04Z</time>
      </trkpt>
      <trkpt lat="37.286199" lon="-1.875171">
        <ele>79.140</ele>
        <time>2021-06-11T15:08:05Z</time>
      </trkpt>
      <trkpt lat="37.286119" lon="-1.875119">
        <ele>78.768</ele>
        <time>2021-06-11T15:08:06Z</time>
      </trkpt>
      <trkpt lat="37.285984" lon="-1.875042">
        <ele>78.073</ele>
        <time>2021-06-11T15:08:08Z</time>
      </trkpt>
      <trkpt lat="37.285931" lon="-1.875032">
        <ele>77.394</ele>
        <time>2021-06-11T15:08:09Z</time>
      </trkpt>
      <trkpt lat="37.285875" lon="-1.875038">
        <ele>77.358</ele>
        <time>2021-06-11T15:08:11Z</time>
      </trkpt>
      <trkpt lat="37.285826" lon="-1.87502">
        <ele>76.331</ele>
        <time>2021-06-11T15:08:54Z</time>
      </trkpt>
      <trkpt lat="37.285779" lon="-1.874947">
        <ele>75.895</ele>
        <time>2021-06-11T15:08:56Z</time>
      </trkpt>
      <trkpt lat="37.28573" lon="-1.874893">
        <ele>75.549</ele>
        <time>2021-06-11T15:08:57Z</time>
      </trkpt>
      <trkpt lat="37.285667" lon="-1.874843">
        <ele>75.323</ele>
        <time>2021-06-11T15:08:58Z</time>
      </trkpt>
      <trkpt lat="37.285521" lon="-1.874757">
        <ele>75.108</ele>
        <time>2021-06-11T15:09:00Z</time>
      </trkpt>
      <trkpt lat="37.28537" lon="-1.87471">
        <ele>75.086</ele>
        <time>2021-06-11T15:09:02Z</time>
      </trkpt>
      <trkpt lat="37.285212" lon="-1.87473">
        <ele>75.024</ele>
        <time>2021-06-11T15:09:04Z</time>
      </trkpt>
      <trkpt lat="37.285071" lon="-1.874756">
        <ele>75.074</ele>
        <time>2021-06-11T15:09:06Z</time>
      </trkpt>
      <trkpt lat="37.285013" lon="-1.874725">
        <ele>75.052</ele>
        <time>2021-06-11T15:09:07Z</time>
      </trkpt>
      <trkpt lat="37.28493" lon="-1.874559">
        <ele>75.047</ele>
        <time>2021-06-11T15:09:09Z</time>
      </trkpt>
      <trkpt lat="37.284875" lon="-1.874339">
        <ele>74.938</ele>
        <time>2021-06-11T15:09:11Z</time>
      </trkpt>
      <trkpt lat="37.28475" lon="-1.874158">
        <ele>74.982</ele>
        <time>2021-06-11T15:09:13Z</time>
      </trkpt>
      <trkpt lat="37.284666" lon="-1.874081">
        <ele>74.965</ele>
        <time>2021-06-11T15:09:14Z</time>
      </trkpt>
      <trkpt lat="37.284464" lon="-1.873946">
        <ele>74.942</ele>
        <time>2021-06-11T15:09:16Z</time>
      </trkpt>
      <trkpt lat="37.284248" lon="-1.873812">
        <ele>74.922</ele>
        <time>2021-06-11T15:09:18Z</time>
      </trkpt>
      <trkpt lat="37.284021" lon="-1.873664">
        <ele>74.914</ele>
        <time>2021-06-11T15:09:20Z</time>
      </trkpt>
      <trkpt lat="37.28379" lon="-1.873501">
        <ele>74.908</ele>
        <time>2021-06-11T15:09:22Z</time>
      </trkpt>
      <trkpt lat="37.283671" lon="-1.873414">
        <ele>74.921</ele>
        <time>2021-06-11T15:09:23Z</time>
      </trkpt>
      <trkpt lat="37.28343" lon="-1.873243">
        <ele>74.949</ele>
        <time>2021-06-11T15:09:25Z</time>
      </trkpt>
      <trkpt lat="37.283304" lon="-1.873156">
        <ele>74.999</ele>
        <time>2021-06-11T15:09:26Z</time>
      </trkpt>
      <trkpt lat="37.283049" lon="-1.872983">
        <ele>74.917</ele>
        <time>2021-06-11T15:09:28Z</time>
      </trkpt>
      <trkpt lat="37.282919" lon="-1.872894">
        <ele>74.912</ele>
        <time>2021-06-11T15:09:29Z</time>
      </trkpt>
      <trkpt lat="37.282652" lon="-1.872713">
        <ele>74.953</ele>
        <time>2021-06-11T15:09:31Z</time>
      </trkpt>
      <trkpt lat="37.282516" lon="-1.872618">
        <ele>74.937</ele>
        <time>2021-06-11T15:09:32Z</time>
      </trkpt>
      <trkpt lat="37.282245" lon="-1.872423">
        <ele>74.970</ele>
        <time>2021-06-11T15:09:34Z</time>
      </trkpt>
      <trkpt lat="37.282107" lon="-1.872326">
        <ele>74.984</ele>
        <time>2021-06-11T15:09:35Z</time>
      </trkpt>
      <trkpt lat="37.281969" lon="-1.872225">
        <ele>74.907</ele>
        <time>2021-06-11T15:09:36Z</time>
      </trkpt>
      <trkpt lat="37.281687" lon="-1.872021">
        <ele>74.917</ele>
        <time>2021-06-11T15:09:38Z</time>
      </trkpt>
      <trkpt lat="37.281399" lon="-1.871815">
        <ele>74.908</ele>
        <time>2021-06-11T15:09:40Z</time>
      </trkpt>
      <trkpt lat="37.281253" lon="-1.871715">
        <ele>74.935</ele>
        <time>2021-06-11T15:09:41Z</time>
      </trkpt>
      <trkpt lat="37.281108" lon="-1.871612">
        <ele>74.973</ele>
        <time>2021-06-11T15:09:42Z</time>
      </trkpt>
      <trkpt lat="37.280964" lon="-1.871509">
        <ele>74.953</ele>
        <time>2021-06-11T15:09:43Z</time>
      </trkpt>
      <trkpt lat="37.280819" lon="-1.871406">
        <ele>74.941</ele>
        <time>2021-06-11T15:09:44Z</time>
      </trkpt>
      <trkpt lat="37.280673" lon="-1.871302">
        <ele>74.926</ele>
        <time>2021-06-11T15:09:45Z</time>
      </trkpt>
      <trkpt lat="37.280382" lon="-1.871098">
        <ele>74.977</ele>
        <time>2021-06-11T15:09:47Z</time>
      </trkpt>
      <trkpt lat="37.280236" lon="-1.870994">
        <ele>74.991</ele>
        <time>2021-06-11T15:09:48Z</time>
      </trkpt>
      <trkpt lat="37.280091" lon="-1.870889">
        <ele>74.914</ele>
        <time>2021-06-11T15:09:49Z</time>
      </trkpt>
      <trkpt lat="37.279944" lon="-1.870785">
        <ele>74.955</ele>
        <time>2021-06-11T15:09:50Z</time>
      </trkpt>
      <trkpt lat="37.279645" lon="-1.870576">
        <ele>74.007</ele>
        <time>2021-06-11T15:09:52Z</time>
      </trkpt>
      <trkpt lat="37.279494" lon="-1.870472">
        <ele>73.517</ele>
        <time>2021-06-11T15:09:53Z</time>
      </trkpt>
      <trkpt lat="37.279343" lon="-1.870365">
        <ele>73.508</ele>
        <time>2021-06-11T15:09:54Z</time>
      </trkpt>
      <trkpt lat="37.279042" lon="-1.870147">
        <ele>73.612</ele>
        <time>2021-06-11T15:09:56Z</time>
      </trkpt>
      <trkpt lat="37.278891" lon="-1.870039">
        <ele>73.740</ele>
        <time>2021-06-11T15:09:57Z</time>
      </trkpt>
      <trkpt lat="37.278585" lon="-1.86982">
        <ele>74.080</ele>
        <time>2021-06-11T15:09:59Z</time>
      </trkpt>
      <trkpt lat="37.27828" lon="-1.869599">
        <ele>74.358</ele>
        <time>2021-06-11T15:10:01Z</time>
      </trkpt>
      <trkpt lat="37.27798" lon="-1.869381">
        <ele>74.313</ele>
        <time>2021-06-11T15:10:03Z</time>
      </trkpt>
      <trkpt lat="37.277834" lon="-1.869264">
        <ele>74.284</ele>
        <time>2021-06-11T15:10:04Z</time>
      </trkpt>
      <trkpt lat="37.277692" lon="-1.869139">
        <ele>74.378</ele>
        <time>2021-06-11T15:10:05Z</time>
      </trkpt>
      <trkpt lat="37.277557" lon="-1.869004">
        <ele>74.441</ele>
        <time>2021-06-11T15:10:06Z</time>
      </trkpt>
      <trkpt lat="37.277319" lon="-1.86869">
        <ele>74.312</ele>
        <time>2021-06-11T15:10:08Z</time>
      </trkpt>
      <trkpt lat="37.277128" lon="-1.868332">
        <ele>74.532</ele>
        <time>2021-06-11T15:10:10Z</time>
      </trkpt>
      <trkpt lat="37.276979" lon="-1.867944">
        <ele>74.605</ele>
        <time>2021-06-11T15:10:12Z</time>
      </trkpt>
      <trkpt lat="37.276925" lon="-1.867742">
        <ele>74.708</ele>
        <time>2021-06-11T15:10:13Z</time>
      </trkpt>
      <trkpt lat="37.276887" lon="-1.867538">
        <ele>74.528</ele>
        <time>2021-06-11T15:10:14Z</time>
      </trkpt>
      <trkpt lat="37.276845" lon="-1.867126">
        <ele>75.046</ele>
        <time>2021-06-11T15:10:16Z</time>
      </trkpt>
      <trkpt lat="37.276843" lon="-1.866718">
        <ele>74.866</ele>
        <time>2021-06-11T15:10:18Z</time>
      </trkpt>
      <trkpt lat="37.276846" lon="-1.866517">
        <ele>74.554</ele>
        <time>2021-06-11T15:10:19Z</time>
      </trkpt>
      <trkpt lat="37.276853" lon="-1.866135">
        <ele>74.569</ele>
        <time>2021-06-11T15:10:21Z</time>
      </trkpt>
      <trkpt lat="37.276847" lon="-1.865764">
        <ele>73.920</ele>
        <time>2021-06-11T15:10:23Z</time>
      </trkpt>
      <trkpt lat="37.276832" lon="-1.865391">
        <ele>73.794</ele>
        <time>2021-06-11T15:10:25Z</time>
      </trkpt>
      <trkpt lat="37.276781" lon="-1.865025">
        <ele>73.287</ele>
        <time>2021-06-11T15:10:27Z</time>
      </trkpt>
      <trkpt lat="37.276735" lon="-1.864845">
        <ele>72.739</ele>
        <time>2021-06-11T15:10:28Z</time>
      </trkpt>
      <trkpt lat="37.276605" lon="-1.864506">
        <ele>73.101</ele>
        <time>2021-06-11T15:10:30Z</time>
      </trkpt>
      <trkpt lat="37.27642" lon="-1.864199">
        <ele>73.421</ele>
        <time>2021-06-11T15:10:32Z</time>
      </trkpt>
      <trkpt lat="37.276307" lon="-1.864063">
        <ele>73.508</ele>
        <time>2021-06-11T15:10:33Z</time>
      </trkpt>
      <trkpt lat="37.276058" lon="-1.863831">
        <ele>73.750</ele>
        <time>2021-06-11T15:10:35Z</time>
      </trkpt>
      <trkpt lat="37.275776" lon="-1.86366">
        <ele>74.318</ele>
        <time>2021-06-11T15:10:37Z</time>
      </trkpt>
      <trkpt lat="37.275468" lon="-1.863563">
        <ele>75.238</ele>
        <time>2021-06-11T15:10:39Z</time>
      </trkpt>
      <trkpt lat="37.275305" lon="-1.86354">
        <ele>76.046</ele>
        <time>2021-06-11T15:10:40Z</time>
      </trkpt>
      <trkpt lat="37.275142" lon="-1.863525">
        <ele>76.481</ele>
        <time>2021-06-11T15:10:41Z</time>
      </trkpt>
      <trkpt lat="37.27482" lon="-1.863549">
        <ele>76.862</ele>
        <time>2021-06-11T15:10:43Z</time>
      </trkpt>
      <trkpt lat="37.274659" lon="-1.863568">
        <ele>77.226</ele>
        <time>2021-06-11T15:10:44Z</time>
      </trkpt>
      <trkpt lat="37.274343" lon="-1.863608">
        <ele>77.699</ele>
        <time>2021-06-11T15:10:46Z</time>
      </trkpt>
      <trkpt lat="37.274185" lon="-1.863628">
        <ele>77.551</ele>
        <time>2021-06-11T15:10:47Z</time>
      </trkpt>
      <trkpt lat="37.273868" lon="-1.863667">
        <ele>77.501</ele>
        <time>2021-06-11T15:10:49Z</time>
      </trkpt>
      <trkpt lat="37.273549" lon="-1.863702">
        <ele>77.511</ele>
        <time>2021-06-11T15:10:51Z</time>
      </trkpt>
      <trkpt lat="37.273388" lon="-1.863718">
        <ele>77.608</ele>
        <time>2021-06-11T15:10:52Z</time>
      </trkpt>
      <trkpt lat="37.273066" lon="-1.863752">
        <ele>78.192</ele>
        <time>2021-06-11T15:10:54Z</time>
      </trkpt>
      <trkpt lat="37.272902" lon="-1.863769">
        <ele>78.570</ele>
        <time>2021-06-11T15:10:55Z</time>
      </trkpt>
      <trkpt lat="37.272574" lon="-1.863823">
        <ele>79.150</ele>
        <time>2021-06-11T15:10:57Z</time>
      </trkpt>
      <trkpt lat="37.272409" lon="-1.863863">
        <ele>79.618</ele>
        <time>2021-06-11T15:10:58Z</time>
      </trkpt>
      <trkpt lat="37.272084" lon="-1.863968">
        <ele>79.743</ele>
        <time>2021-06-11T15:11:00Z</time>
      </trkpt>
      <trkpt lat="37.271924" lon="-1.86404">
        <ele>79.744</ele>
        <time>2021-06-11T15:11:01Z</time>
      </trkpt>
      <trkpt lat="37.271607" lon="-1.864207">
        <ele>79.878</ele>
        <time>2021-06-11T15:11:03Z</time>
      </trkpt>
      <trkpt lat="37.271451" lon="-1.864304">
        <ele>79.511</ele>
        <time>2021-06-11T15:11:04Z</time>
      </trkpt>
      <trkpt lat="37.271146" lon="-1.864524">
        <ele>79.823</ele>
        <time>2021-06-11T15:11:06Z</time>
      </trkpt>
      <trkpt lat="37.270992" lon="-1.864648">
        <ele>80.083</ele>
        <time>2021-06-11T15:11:07Z</time>
      </trkpt>
      <trkpt lat="37.270692" lon="-1.864893">
        <ele>79.811</ele>
        <time>2021-06-11T15:11:09Z</time>
      </trkpt>
      <trkpt lat="37.27054" lon="-1.865012">
        <ele>80.108</ele>
        <time>2021-06-11T15:11:10Z</time>
      </trkpt>
      <trkpt lat="37.270389" lon="-1.865128">
        <ele>80.569</ele>
        <time>2021-06-11T15:11:11Z</time>
      </trkpt>
      <trkpt lat="37.270235" lon="-1.865241">
        <ele>80.727</ele>
        <time>2021-06-11T15:11:12Z</time>
      </trkpt>
      <trkpt lat="37.269926" lon="-1.865464">
        <ele>81.377</ele>
        <time>2021-06-11T15:11:14Z</time>
      </trkpt>
      <trkpt lat="37.269616" lon="-1.865692">
        <ele>81.795</ele>
        <time>2021-06-11T15:11:16Z</time>
      </trkpt>
      <trkpt lat="37.269461" lon="-1.865812">
        <ele>82.130</ele>
        <time>2021-06-11T15:11:17Z</time>
      </trkpt>
      <trkpt lat="37.269154" lon="-1.866046">
        <ele>82.611</ele>
        <time>2021-06-11T15:11:19Z</time>
      </trkpt>
      <trkpt lat="37.268997" lon="-1.866163">
        <ele>83.465</ele>
        <time>2021-06-11T15:11:20Z</time>
      </trkpt>
      <trkpt lat="37.268682" lon="-1.866391">
        <ele>83.878</ele>
        <time>2021-06-11T15:11:22Z</time>
      </trkpt>
      <trkpt lat="37.268523" lon="-1.866506">
        <ele>83.851</ele>
        <time>2021-06-11T15:11:23Z</time>
      </trkpt>
      <trkpt lat="37.268361" lon="-1.86662">
        <ele>84.201</ele>
        <time>2021-06-11T15:11:24Z</time>
      </trkpt>
      <trkpt lat="37.268032" lon="-1.866831">
        <ele>84.611</ele>
        <time>2021-06-11T15:11:26Z</time>
      </trkpt>
      <trkpt lat="37.267863" lon="-1.866929">
        <ele>84.908</ele>
        <time>2021-06-11T15:11:27Z</time>
      </trkpt>
      <trkpt lat="37.267528" lon="-1.867128">
        <ele>85.582</ele>
        <time>2021-06-11T15:11:29Z</time>
      </trkpt>
      <trkpt lat="37.267195" lon="-1.86732">
        <ele>85.660</ele>
        <time>2021-06-11T15:11:31Z</time>
      </trkpt>
      <trkpt lat="37.267028" lon="-1.867411">
        <ele>85.970</ele>
        <time>2021-06-11T15:11:32Z</time>
      </trkpt>
      <trkpt lat="37.266702" lon="-1.867587">
        <ele>85.828</ele>
        <time>2021-06-11T15:11:34Z</time>
      </trkpt>
      <trkpt lat="37.266541" lon="-1.867675">
        <ele>85.973</ele>
        <time>2021-06-11T15:11:35Z</time>
      </trkpt>
      <trkpt lat="37.266381" lon="-1.867765">
        <ele>86.164</ele>
        <time>2021-06-11T15:11:36Z</time>
      </trkpt>
      <trkpt lat="37.26606" lon="-1.867953">
        <ele>86.358</ele>
        <time>2021-06-11T15:11:38Z</time>
      </trkpt>
      <trkpt lat="37.265896" lon="-1.868043">
        <ele>86.491</ele>
        <time>2021-06-11T15:11:39Z</time>
      </trkpt>
      <trkpt lat="37.265571" lon="-1.868217">
        <ele>86.672</ele>
        <time>2021-06-11T15:11:41Z</time>
      </trkpt>
      <trkpt lat="37.265245" lon="-1.868397">
        <ele>86.813</ele>
        <time>2021-06-11T15:11:43Z</time>
      </trkpt>
      <trkpt lat="37.264917" lon="-1.86858">
        <ele>87.014</ele>
        <time>2021-06-11T15:11:45Z</time>
      </trkpt>
      <trkpt lat="37.264755" lon="-1.868676">
        <ele>87.208</ele>
        <time>2021-06-11T15:11:46Z</time>
      </trkpt>
      <trkpt lat="37.26443" lon="-1.868862">
        <ele>87.594</ele>
        <time>2021-06-11T15:11:48Z</time>
      </trkpt>
      <trkpt lat="37.264265" lon="-1.868958">
        <ele>88.052</ele>
        <time>2021-06-11T15:11:49Z</time>
      </trkpt>
      <trkpt lat="37.263927" lon="-1.869144">
        <ele>88.262</ele>
        <time>2021-06-11T15:11:51Z</time>
      </trkpt>
      <trkpt lat="37.263756" lon="-1.869239">
        <ele>88.690</ele>
        <time>2021-06-11T15:11:52Z</time>
      </trkpt>
      <trkpt lat="37.263421" lon="-1.869438">
        <ele>89.075</ele>
        <time>2021-06-11T15:11:54Z</time>
      </trkpt>
      <trkpt lat="37.263258" lon="-1.869536">
        <ele>88.986</ele>
        <time>2021-06-11T15:11:55Z</time>
      </trkpt>
      <trkpt lat="37.262932" lon="-1.86971">
        <ele>89.870</ele>
        <time>2021-06-11T15:11:57Z</time>
      </trkpt>
      <trkpt lat="37.262767" lon="-1.8698">
        <ele>90.283</ele>
        <time>2021-06-11T15:11:58Z</time>
      </trkpt>
      <trkpt lat="37.262448" lon="-1.869983">
        <ele>91.427</ele>
        <time>2021-06-11T15:12:00Z</time>
      </trkpt>
      <trkpt lat="37.262288" lon="-1.870074">
        <ele>92.568</ele>
        <time>2021-06-11T15:12:01Z</time>
      </trkpt>
      <trkpt lat="37.261975" lon="-1.870251">
        <ele>93.814</ele>
        <time>2021-06-11T15:12:03Z</time>
      </trkpt>
      <trkpt lat="37.261819" lon="-1.870335">
        <ele>95.108</ele>
        <time>2021-06-11T15:12:04Z</time>
      </trkpt>
      <trkpt lat="37.2615" lon="-1.870486">
        <ele>96.399</ele>
        <time>2021-06-11T15:12:06Z</time>
      </trkpt>
      <trkpt lat="37.261333" lon="-1.870546">
        <ele>97.517</ele>
        <time>2021-06-11T15:12:07Z</time>
      </trkpt>
      <trkpt lat="37.260991" lon="-1.870638">
        <ele>99.117</ele>
        <time>2021-06-11T15:12:09Z</time>
      </trkpt>
      <trkpt lat="37.260816" lon="-1.870672">
        <ele>100.765</ele>
        <time>2021-06-11T15:12:10Z</time>
      </trkpt>
      <trkpt lat="37.26047" lon="-1.870715">
        <ele>102.710</ele>
        <time>2021-06-11T15:12:12Z</time>
      </trkpt>
      <trkpt lat="37.260296" lon="-1.870734">
        <ele>104.191</ele>
        <time>2021-06-11T15:12:13Z</time>
      </trkpt>
      <trkpt lat="37.260122" lon="-1.870751">
        <ele>105.635</ele>
        <time>2021-06-11T15:12:14Z</time>
      </trkpt>
      <trkpt lat="37.259778" lon="-1.870777">
        <ele>107.228</ele>
        <time>2021-06-11T15:12:16Z</time>
      </trkpt>
      <trkpt lat="37.25961" lon="-1.870792">
        <ele>108.682</ele>
        <time>2021-06-11T15:12:17Z</time>
      </trkpt>
      <trkpt lat="37.259279" lon="-1.870821">
        <ele>109.543</ele>
        <time>2021-06-11T15:12:19Z</time>
      </trkpt>
      <trkpt lat="37.259113" lon="-1.870838">
        <ele>110.217</ele>
        <time>2021-06-11T15:12:20Z</time>
      </trkpt>
      <trkpt lat="37.258791" lon="-1.870867">
        <ele>111.408</ele>
        <time>2021-06-11T15:12:22Z</time>
      </trkpt>
      <trkpt lat="37.25864" lon="-1.870879">
        <ele>112.515</ele>
        <time>2021-06-11T15:12:23Z</time>
      </trkpt>
      <trkpt lat="37.258345" lon="-1.870902">
        <ele>113.513</ele>
        <time>2021-06-11T15:12:25Z</time>
      </trkpt>
      <trkpt lat="37.258043" lon="-1.870932">
        <ele>114.133</ele>
        <time>2021-06-11T15:12:27Z</time>
      </trkpt>
      <trkpt lat="37.257726" lon="-1.870952">
        <ele>114.361</ele>
        <time>2021-06-11T15:12:29Z</time>
      </trkpt>
      <trkpt lat="37.257565" lon="-1.870952">
        <ele>114.546</ele>
        <time>2021-06-11T15:12:30Z</time>
      </trkpt>
      <trkpt lat="37.257247" lon="-1.870931">
        <ele>114.197</ele>
        <time>2021-06-11T15:12:32Z</time>
      </trkpt>
      <trkpt lat="37.257094" lon="-1.870911">
        <ele>113.681</ele>
        <time>2021-06-11T15:12:33Z</time>
      </trkpt>
      <trkpt lat="37.256945" lon="-1.870887">
        <ele>113.414</ele>
        <time>2021-06-11T15:12:34Z</time>
      </trkpt>
      <trkpt lat="37.256669" lon="-1.870836">
        <ele>113.127</ele>
        <time>2021-06-11T15:12:36Z</time>
      </trkpt>
      <trkpt lat="37.256541" lon="-1.870809">
        <ele>112.768</ele>
        <time>2021-06-11T15:12:37Z</time>
      </trkpt>
      <trkpt lat="37.256418" lon="-1.870781">
        <ele>112.514</ele>
        <time>2021-06-11T15:12:38Z</time>
      </trkpt>
      <trkpt lat="37.256192" lon="-1.87074">
        <ele>112.508</ele>
        <time>2021-06-11T15:12:40Z</time>
      </trkpt>
      <trkpt lat="37.25599" lon="-1.870709">
        <ele>112.319</ele>
        <time>2021-06-11T15:12:42Z</time>
      </trkpt>
      <trkpt lat="37.25581" lon="-1.870694">
        <ele>112.167</ele>
        <time>2021-06-11T15:12:44Z</time>
      </trkpt>
      <trkpt lat="37.25567" lon="-1.870768">
        <ele>111.887</ele>
        <time>2021-06-11T15:12:46Z</time>
      </trkpt>
      <trkpt lat="37.255609" lon="-1.87083">
        <ele>111.645</ele>
        <time>2021-06-11T15:12:47Z</time>
      </trkpt>
      <trkpt lat="37.255543" lon="-1.87088">
        <ele>111.450</ele>
        <time>2021-06-11T15:12:48Z</time>
      </trkpt>
      <trkpt lat="37.255469" lon="-1.870901">
        <ele>111.561</ele>
        <time>2021-06-11T15:12:49Z</time>
      </trkpt>
      <trkpt lat="37.255334" lon="-1.870837">
        <ele>111.345</ele>
        <time>2021-06-11T15:12:51Z</time>
      </trkpt>
      <trkpt lat="37.255289" lon="-1.870758">
        <ele>111.648</ele>
        <time>2021-06-11T15:12:52Z</time>
      </trkpt>
      <trkpt lat="37.255267" lon="-1.870542">
        <ele>111.439</ele>
        <time>2021-06-11T15:12:54Z</time>
      </trkpt>
      <trkpt lat="37.255279" lon="-1.870421">
        <ele>111.501</ele>
        <time>2021-06-11T15:12:55Z</time>
      </trkpt>
      <trkpt lat="37.255278" lon="-1.870159">
        <ele>111.721</ele>
        <time>2021-06-11T15:12:57Z</time>
      </trkpt>
      <trkpt lat="37.255192" lon="-1.86988">
        <ele>111.608</ele>
        <time>2021-06-11T15:12:59Z</time>
      </trkpt>
      <trkpt lat="37.255129" lon="-1.869741">
        <ele>111.460</ele>
        <time>2021-06-11T15:13:00Z</time>
      </trkpt>
      <trkpt lat="37.255062" lon="-1.869601">
        <ele>111.388</ele>
        <time>2021-06-11T15:13:01Z</time>
      </trkpt>
      <trkpt lat="37.254933" lon="-1.869316">
        <ele>111.328</ele>
        <time>2021-06-11T15:13:03Z</time>
      </trkpt>
      <trkpt lat="37.254865" lon="-1.869164">
        <ele>110.886</ele>
        <time>2021-06-11T15:13:04Z</time>
      </trkpt>
      <trkpt lat="37.254727" lon="-1.86885">
        <ele>110.321</ele>
        <time>2021-06-11T15:13:06Z</time>
      </trkpt>
      <trkpt lat="37.254651" lon="-1.868687">
        <ele>110.042</ele>
        <time>2021-06-11T15:13:07Z</time>
      </trkpt>
      <trkpt lat="37.25457" lon="-1.868519">
        <ele>109.476</ele>
        <time>2021-06-11T15:13:08Z</time>
      </trkpt>
      <trkpt lat="37.254486" lon="-1.868349">
        <ele>109.289</ele>
        <time>2021-06-11T15:13:09Z</time>
      </trkpt>
      <trkpt lat="37.25431" lon="-1.868">
        <ele>108.689</ele>
        <time>2021-06-11T15:13:11Z</time>
      </trkpt>
      <trkpt lat="37.25413" lon="-1.867644">
        <ele>107.906</ele>
        <time>2021-06-11T15:13:13Z</time>
      </trkpt>
      <trkpt lat="37.254035" lon="-1.867467">
        <ele>107.326</ele>
        <time>2021-06-11T15:13:14Z</time>
      </trkpt>
      <trkpt lat="37.253847" lon="-1.867111">
        <ele>106.508</ele>
        <time>2021-06-11T15:13:16Z</time>
      </trkpt>
      <trkpt lat="37.253657" lon="-1.866741">
        <ele>105.455</ele>
        <time>2021-06-11T15:13:18Z</time>
      </trkpt>
      <trkpt lat="37.253561" lon="-1.866554">
        <ele>105.053</ele>
        <time>2021-06-11T15:13:19Z</time>
      </trkpt>
      <trkpt lat="37.253464" lon="-1.86637">
        <ele>104.373</ele>
        <time>2021-06-11T15:13:20Z</time>
      </trkpt>
      <trkpt lat="37.253273" lon="-1.865995">
        <ele>103.391</ele>
        <time>2021-06-11T15:13:22Z</time>
      </trkpt>
      <trkpt lat="37.253175" lon="-1.865804">
        <ele>102.376</ele>
        <time>2021-06-11T15:13:23Z</time>
      </trkpt>
      <trkpt lat="37.252977" lon="-1.865426">
        <ele>101.867</ele>
        <time>2021-06-11T15:13:25Z</time>
      </trkpt>
      <trkpt lat="37.25278" lon="-1.865051">
        <ele>101.011</ele>
        <time>2021-06-11T15:13:27Z</time>
      </trkpt>
      <trkpt lat="37.252685" lon="-1.864863">
        <ele>100.354</ele>
        <time>2021-06-11T15:13:28Z</time>
      </trkpt>
      <trkpt lat="37.252496" lon="-1.864492">
        <ele>99.938</ele>
        <time>2021-06-11T15:13:30Z</time>
      </trkpt>
      <trkpt lat="37.252401" lon="-1.864309">
        <ele>99.970</ele>
        <time>2021-06-11T15:13:31Z</time>
      </trkpt>
      <trkpt lat="37.25221" lon="-1.863954">
        <ele>99.917</ele>
        <time>2021-06-11T15:13:33Z</time>
      </trkpt>
      <trkpt lat="37.252022" lon="-1.863603">
        <ele>99.408</ele>
        <time>2021-06-11T15:13:35Z</time>
      </trkpt>
      <trkpt lat="37.251931" lon="-1.863427">
        <ele>99.370</ele>
        <time>2021-06-11T15:13:36Z</time>
      </trkpt>
      <trkpt lat="37.251844" lon="-1.86325">
        <ele>99.328</ele>
        <time>2021-06-11T15:13:37Z</time>
      </trkpt>
      <trkpt lat="37.251675" lon="-1.862903">
        <ele>99.228</ele>
        <time>2021-06-11T15:13:39Z</time>
      </trkpt>
      <trkpt lat="37.251587" lon="-1.862734">
        <ele>99.416</ele>
        <time>2021-06-11T15:13:40Z</time>
      </trkpt>
      <trkpt lat="37.251407" lon="-1.8624">
        <ele>99.671</ele>
        <time>2021-06-11T15:13:42Z</time>
      </trkpt>
      <trkpt lat="37.251239" lon="-1.862069">
        <ele>99.652</ele>
        <time>2021-06-11T15:13:44Z</time>
      </trkpt>
      <trkpt lat="37.251071" lon="-1.861749">
        <ele>99.556</ele>
        <time>2021-06-11T15:13:46Z</time>
      </trkpt>
      <trkpt lat="37.250988" lon="-1.861591">
        <ele>98.739</ele>
        <time>2021-06-11T15:13:47Z</time>
      </trkpt>
      <trkpt lat="37.250815" lon="-1.861266">
        <ele>97.643</ele>
        <time>2021-06-11T15:13:49Z</time>
      </trkpt>
      <trkpt lat="37.250633" lon="-1.860922">
        <ele>97.164</ele>
        <time>2021-06-11T15:13:51Z</time>
      </trkpt>
      <trkpt lat="37.250445" lon="-1.860566">
        <ele>96.710</ele>
        <time>2021-06-11T15:13:53Z</time>
      </trkpt>
      <trkpt lat="37.250251" lon="-1.860199">
        <ele>96.508</ele>
        <time>2021-06-11T15:13:55Z</time>
      </trkpt>
      <trkpt lat="37.250154" lon="-1.860009">
        <ele>96.511</ele>
        <time>2021-06-11T15:13:56Z</time>
      </trkpt>
      <trkpt lat="37.249958" lon="-1.85963">
        <ele>96.389</ele>
        <time>2021-06-11T15:13:58Z</time>
      </trkpt>
      <trkpt lat="37.249862" lon="-1.85944">
        <ele>96.289</ele>
        <time>2021-06-11T15:13:59Z</time>
      </trkpt>
      <trkpt lat="37.249762" lon="-1.859253">
        <ele>95.697</ele>
        <time>2021-06-11T15:14:00Z</time>
      </trkpt>
      <trkpt lat="37.249554" lon="-1.858882">
        <ele>94.692</ele>
        <time>2021-06-11T15:14:02Z</time>
      </trkpt>
      <trkpt lat="37.249444" lon="-1.858699">
        <ele>94.463</ele>
        <time>2021-06-11T15:14:03Z</time>
      </trkpt>
      <trkpt lat="37.249209" lon="-1.858345">
        <ele>94.277</ele>
        <time>2021-06-11T15:14:05Z</time>
      </trkpt>
      <trkpt lat="37.24909" lon="-1.858174">
        <ele>94.070</ele>
        <time>2021-06-11T15:14:06Z</time>
      </trkpt>
      <trkpt lat="37.248836" lon="-1.857844">
        <ele>93.531</ele>
        <time>2021-06-11T15:14:08Z</time>
      </trkpt>
      <trkpt lat="37.248703" lon="-1.857683">
        <ele>93.261</ele>
        <time>2021-06-11T15:14:09Z</time>
      </trkpt>
      <trkpt lat="37.248428" lon="-1.857371">
        <ele>92.507</ele>
        <time>2021-06-11T15:14:11Z</time>
      </trkpt>
      <trkpt lat="37.248142" lon="-1.857078">
        <ele>91.408</ele>
        <time>2021-06-11T15:14:13Z</time>
      </trkpt>
      <trkpt lat="37.247987" lon="-1.856938">
        <ele>90.570</ele>
        <time>2021-06-11T15:14:14Z</time>
      </trkpt>
      <trkpt lat="37.247664" lon="-1.856666">
        <ele>89.068</ele>
        <time>2021-06-11T15:14:16Z</time>
      </trkpt>
      <trkpt lat="37.247497" lon="-1.856537">
        <ele>88.038</ele>
        <time>2021-06-11T15:14:17Z</time>
      </trkpt>
      <trkpt lat="37.247165" lon="-1.856303">
        <ele>86.736</ele>
        <time>2021-06-11T15:14:19Z</time>
      </trkpt>
      <trkpt lat="37.246835" lon="-1.856097">
        <ele>85.321</ele>
        <time>2021-06-11T15:14:21Z</time>
      </trkpt>
      <trkpt lat="37.246502" lon="-1.855915">
        <ele>83.822</ele>
        <time>2021-06-11T15:14:23Z</time>
      </trkpt>
      <trkpt lat="37.246334" lon="-1.855832">
        <ele>82.726</ele>
        <time>2021-06-11T15:14:24Z</time>
      </trkpt>
      <trkpt lat="37.246164" lon="-1.855758">
        <ele>81.939</ele>
        <time>2021-06-11T15:14:25Z</time>
      </trkpt>
      <trkpt lat="37.245828" lon="-1.855632">
        <ele>81.037</ele>
        <time>2021-06-11T15:14:27Z</time>
      </trkpt>
      <trkpt lat="37.24566" lon="-1.855574">
        <ele>80.349</ele>
        <time>2021-06-11T15:14:28Z</time>
      </trkpt>
      <trkpt lat="37.24549" lon="-1.85552">
        <ele>79.513</ele>
        <time>2021-06-11T15:14:29Z</time>
      </trkpt>
      <trkpt lat="37.245321" lon="-1.85547">
        <ele>79.008</ele>
        <time>2021-06-11T15:14:30Z</time>
      </trkpt>
      <trkpt lat="37.244981" lon="-1.85539">
        <ele>78.510</ele>
        <time>2021-06-11T15:14:32Z</time>
      </trkpt>
      <trkpt lat="37.244635" lon="-1.85533">
        <ele>77.928</ele>
        <time>2021-06-11T15:14:34Z</time>
      </trkpt>
      <trkpt lat="37.244279" lon="-1.855283">
        <ele>77.858</ele>
        <time>2021-06-11T15:14:36Z</time>
      </trkpt>
      <trkpt lat="37.244097" lon="-1.855272">
        <ele>77.936</ele>
        <time>2021-06-11T15:14:37Z</time>
      </trkpt>
      <trkpt lat="37.243732" lon="-1.855258">
        <ele>77.751</ele>
        <time>2021-06-11T15:14:39Z</time>
      </trkpt>
      <trkpt lat="37.24337" lon="-1.855275">
        <ele>77.412</ele>
        <time>2021-06-11T15:14:41Z</time>
      </trkpt>
      <trkpt lat="37.243193" lon="-1.855289">
        <ele>77.066</ele>
        <time>2021-06-11T15:14:42Z</time>
      </trkpt>
      <trkpt lat="37.242846" lon="-1.855338">
        <ele>76.149</ele>
        <time>2021-06-11T15:14:44Z</time>
      </trkpt>
      <trkpt lat="37.24268" lon="-1.855366">
        <ele>75.166</ele>
        <time>2021-06-11T15:14:45Z</time>
      </trkpt>
      <trkpt lat="37.242365" lon="-1.855423">
        <ele>74.129</ele>
        <time>2021-06-11T15:14:47Z</time>
      </trkpt>
      <trkpt lat="37.242069" lon="-1.855499">
        <ele>73.221</ele>
        <time>2021-06-11T15:14:49Z</time>
      </trkpt>
      <trkpt lat="37.241928" lon="-1.855555">
        <ele>72.708</ele>
        <time>2021-06-11T15:14:50Z</time>
      </trkpt>
      <trkpt lat="37.241681" lon="-1.855704">
        <ele>71.633</ele>
        <time>2021-06-11T15:14:52Z</time>
      </trkpt>
      <trkpt lat="37.24147" lon="-1.855884">
        <ele>70.551</ele>
        <time>2021-06-11T15:14:54Z</time>
      </trkpt>
      <trkpt lat="37.241374" lon="-1.855984">
        <ele>69.821</ele>
        <time>2021-06-11T15:14:55Z</time>
      </trkpt>
      <trkpt lat="37.241207" lon="-1.856183">
        <ele>69.449</ele>
        <time>2021-06-11T15:14:57Z</time>
      </trkpt>
      <trkpt lat="37.241128" lon="-1.856273">
        <ele>69.174</ele>
        <time>2021-06-11T15:14:58Z</time>
      </trkpt>
      <trkpt lat="37.241055" lon="-1.856359">
        <ele>68.615</ele>
        <time>2021-06-11T15:14:59Z</time>
      </trkpt>
      <trkpt lat="37.240928" lon="-1.856519">
        <ele>68.249</ele>
        <time>2021-06-11T15:15:01Z</time>
      </trkpt>
      <trkpt lat="37.240867" lon="-1.856594">
        <ele>68.492</ele>
        <time>2021-06-11T15:15:02Z</time>
      </trkpt>
      <trkpt lat="37.240817" lon="-1.856675">
        <ele>68.695</ele>
        <time>2021-06-11T15:15:03Z</time>
      </trkpt>
      <trkpt lat="37.240781" lon="-1.856764">
        <ele>68.849</ele>
        <time>2021-06-11T15:15:04Z</time>
      </trkpt>
      <trkpt lat="37.240743" lon="-1.856964">
        <ele>69.623</ele>
        <time>2021-06-11T15:15:06Z</time>
      </trkpt>
      <trkpt lat="37.240692" lon="-1.85714">
        <ele>70.008</ele>
        <time>2021-06-11T15:15:08Z</time>
      </trkpt>
      <trkpt lat="37.240557" lon="-1.8572">
        <ele>69.856</ele>
        <time>2021-06-11T15:15:10Z</time>
      </trkpt>
      <trkpt lat="37.240419" lon="-1.857121">
        <ele>69.284</ele>
        <time>2021-06-11T15:15:12Z</time>
      </trkpt>
      <trkpt lat="37.240372" lon="-1.857045">
        <ele>69.094</ele>
        <time>2021-06-11T15:15:13Z</time>
      </trkpt>
      <trkpt lat="37.240341" lon="-1.856952">
        <ele>69.052</ele>
        <time>2021-06-11T15:15:14Z</time>
      </trkpt>
      <trkpt lat="37.240282" lon="-1.85675">
        <ele>68.937</ele>
        <time>2021-06-11T15:15:16Z</time>
      </trkpt>
      <trkpt lat="37.240224" lon="-1.856657">
        <ele>68.888</ele>
        <time>2021-06-11T15:15:17Z</time>
      </trkpt>
      <trkpt lat="37.240146" lon="-1.856571">
        <ele>68.652</ele>
        <time>2021-06-11T15:15:18Z</time>
      </trkpt>
      <trkpt lat="37.240056" lon="-1.856488">
        <ele>68.795</ele>
        <time>2021-06-11T15:15:19Z</time>
      </trkpt>
      <trkpt lat="37.239867" lon="-1.856306">
        <ele>68.769</ele>
        <time>2021-06-11T15:15:21Z</time>
      </trkpt>
      <trkpt lat="37.239664" lon="-1.856109">
        <ele>68.604</ele>
        <time>2021-06-11T15:15:23Z</time>
      </trkpt>
      <trkpt lat="37.239459" lon="-1.855898">
        <ele>68.524</ele>
        <time>2021-06-11T15:15:25Z</time>
      </trkpt>
      <trkpt lat="37.239351" lon="-1.855793">
        <ele>68.508</ele>
        <time>2021-06-11T15:15:26Z</time>
      </trkpt>
      <trkpt lat="37.239127" lon="-1.855586">
        <ele>68.343</ele>
        <time>2021-06-11T15:15:28Z</time>
      </trkpt>
      <trkpt lat="37.239016" lon="-1.855478">
        <ele>68.891</ele>
        <time>2021-06-11T15:15:29Z</time>
      </trkpt>
      <trkpt lat="37.238794" lon="-1.855259">
        <ele>69.171</ele>
        <time>2021-06-11T15:15:31Z</time>
      </trkpt>
      <trkpt lat="37.238567" lon="-1.855039">
        <ele>69.159</ele>
        <time>2021-06-11T15:15:33Z</time>
      </trkpt>
      <trkpt lat="37.238452" lon="-1.854926">
        <ele>69.334</ele>
        <time>2021-06-11T15:15:34Z</time>
      </trkpt>
      <trkpt lat="37.238337" lon="-1.854811">
        <ele>69.515</ele>
        <time>2021-06-11T15:15:35Z</time>
      </trkpt>
      <trkpt lat="37.238219" lon="-1.854701">
        <ele>69.749</ele>
        <time>2021-06-11T15:15:36Z</time>
      </trkpt>
      <trkpt lat="37.237988" lon="-1.854472">
        <ele>69.972</ele>
        <time>2021-06-11T15:15:38Z</time>
      </trkpt>
      <trkpt lat="37.237755" lon="-1.854237">
        <ele>70.469</ele>
        <time>2021-06-11T15:15:40Z</time>
      </trkpt>
      <trkpt lat="37.237525" lon="-1.854002">
        <ele>70.904</ele>
        <time>2021-06-11T15:15:42Z</time>
      </trkpt>
      <trkpt lat="37.237412" lon="-1.853882">
        <ele>71.324</ele>
        <time>2021-06-11T15:15:43Z</time>
      </trkpt>
      <trkpt lat="37.23719" lon="-1.853642">
        <ele>71.608</ele>
        <time>2021-06-11T15:15:45Z</time>
      </trkpt>
      <trkpt lat="37.236993" lon="-1.85341">
        <ele>71.423</ele>
        <time>2021-06-11T15:15:47Z</time>
      </trkpt>
      <trkpt lat="37.236903" lon="-1.853299">
        <ele>71.371</ele>
        <time>2021-06-11T15:15:48Z</time>
      </trkpt>
      <trkpt lat="37.236818" lon="-1.853195">
        <ele>71.221</ele>
        <time>2021-06-11T15:15:49Z</time>
      </trkpt>
      <trkpt lat="37.236662" lon="-1.853003">
        <ele>70.749</ele>
        <time>2021-06-11T15:15:51Z</time>
      </trkpt>
      <trkpt lat="37.236522" lon="-1.852821">
        <ele>70.594</ele>
        <time>2021-06-11T15:15:53Z</time>
      </trkpt>
      <trkpt lat="37.236372" lon="-1.852674">
        <ele>69.795</ele>
        <time>2021-06-11T15:15:55Z</time>
      </trkpt>
      <trkpt lat="37.236283" lon="-1.852633">
        <ele>69.119</ele>
        <time>2021-06-11T15:15:56Z</time>
      </trkpt>
      <trkpt lat="37.236192" lon="-1.852613">
        <ele>68.552</ele>
        <time>2021-06-11T15:15:57Z</time>
      </trkpt>
      <trkpt lat="37.236049" lon="-1.8525">
        <ele>68.398</ele>
        <time>2021-06-11T15:15:59Z</time>
      </trkpt>
      <trkpt lat="37.23601" lon="-1.852399">
        <ele>68.115</ele>
        <time>2021-06-11T15:16:00Z</time>
      </trkpt>
      <trkpt lat="37.235987" lon="-1.85228">
        <ele>67.926</ele>
        <time>2021-06-11T15:16:01Z</time>
      </trkpt>
      <trkpt lat="37.23596" lon="-1.852153">
        <ele>67.608</ele>
        <time>2021-06-11T15:16:02Z</time>
      </trkpt>
      <trkpt lat="37.235912" lon="-1.852029">
        <ele>67.176</ele>
        <time>2021-06-11T15:16:03Z</time>
      </trkpt>
      <trkpt lat="37.235844" lon="-1.851904">
        <ele>66.814</ele>
        <time>2021-06-11T15:16:04Z</time>
      </trkpt>
      <trkpt lat="37.235762" lon="-1.851779">
        <ele>66.344</ele>
        <time>2021-06-11T15:16:05Z</time>
      </trkpt>
      <trkpt lat="37.235572" lon="-1.851528">
        <ele>65.072</ele>
        <time>2021-06-11T15:16:07Z</time>
      </trkpt>
      <trkpt lat="37.23547" lon="-1.851396">
        <ele>64.357</ele>
        <time>2021-06-11T15:16:08Z</time>
      </trkpt>
      <trkpt lat="37.235367" lon="-1.85126">
        <ele>63.328</ele>
        <time>2021-06-11T15:16:09Z</time>
      </trkpt>
      <trkpt lat="37.235167" lon="-1.850983">
        <ele>62.222</ele>
        <time>2021-06-11T15:16:11Z</time>
      </trkpt>
      <trkpt lat="37.235066" lon="-1.850839">
        <ele>61.285</ele>
        <time>2021-06-11T15:16:12Z</time>
      </trkpt>
      <trkpt lat="37.234964" lon="-1.850692">
        <ele>60.175</ele>
        <time>2021-06-11T15:16:13Z</time>
      </trkpt>
      <trkpt lat="37.234755" lon="-1.850396">
        <ele>58.728</ele>
        <time>2021-06-11T15:16:15Z</time>
      </trkpt>
      <trkpt lat="37.234645" lon="-1.85025">
        <ele>57.720</ele>
        <time>2021-06-11T15:16:16Z</time>
      </trkpt>
      <trkpt lat="37.23443" lon="-1.849957">
        <ele>56.308</ele>
        <time>2021-06-11T15:16:18Z</time>
      </trkpt>
      <trkpt lat="37.234321" lon="-1.849811">
        <ele>55.634</ele>
        <time>2021-06-11T15:16:19Z</time>
      </trkpt>
      <trkpt lat="37.234101" lon="-1.849515">
        <ele>54.782</ele>
        <time>2021-06-11T15:16:21Z</time>
      </trkpt>
      <trkpt lat="37.233991" lon="-1.849365">
        <ele>53.612</ele>
        <time>2021-06-11T15:16:22Z</time>
      </trkpt>
      <trkpt lat="37.233769" lon="-1.849061">
        <ele>52.690</ele>
        <time>2021-06-11T15:16:24Z</time>
      </trkpt>
      <trkpt lat="37.233657" lon="-1.848907">
        <ele>52.085</ele>
        <time>2021-06-11T15:16:25Z</time>
      </trkpt>
      <trkpt lat="37.233438" lon="-1.848596">
        <ele>51.116</ele>
        <time>2021-06-11T15:16:27Z</time>
      </trkpt>
      <trkpt lat="37.233222" lon="-1.848296">
        <ele>50.220</ele>
        <time>2021-06-11T15:16:29Z</time>
      </trkpt>
      <trkpt lat="37.233115" lon="-1.848147">
        <ele>49.353</ele>
        <time>2021-06-11T15:16:30Z</time>
      </trkpt>
      <trkpt lat="37.232907" lon="-1.847863">
        <ele>48.688</ele>
        <time>2021-06-11T15:16:32Z</time>
      </trkpt>
      <trkpt lat="37.232705" lon="-1.847603">
        <ele>48.224</ele>
        <time>2021-06-11T15:16:34Z</time>
      </trkpt>
      <trkpt lat="37.232605" lon="-1.84748">
        <ele>47.826</ele>
        <time>2021-06-11T15:16:35Z</time>
      </trkpt>
      <trkpt lat="37.232419" lon="-1.847245">
        <ele>47.408</ele>
        <time>2021-06-11T15:16:37Z</time>
      </trkpt>
      <trkpt lat="37.232266" lon="-1.847038">
        <ele>47.255</ele>
        <time>2021-06-11T15:16:39Z</time>
      </trkpt>
      <trkpt lat="37.232134" lon="-1.846873">
        <ele>47.253</ele>
        <time>2021-06-11T15:16:41Z</time>
      </trkpt>
      <trkpt lat="37.231997" lon="-1.846733">
        <ele>46.613</ele>
        <time>2021-06-11T15:16:43Z</time>
      </trkpt>
      <trkpt lat="37.231837" lon="-1.846599">
        <ele>45.741</ele>
        <time>2021-06-11T15:16:45Z</time>
      </trkpt>
      <trkpt lat="37.231662" lon="-1.846475">
        <ele>44.526</ele>
        <time>2021-06-11T15:16:47Z</time>
      </trkpt>
      <trkpt lat="37.231492" lon="-1.846362">
        <ele>42.947</ele>
        <time>2021-06-11T15:16:49Z</time>
      </trkpt>
      <trkpt lat="37.231413" lon="-1.846304">
        <ele>42.341</ele>
        <time>2021-06-11T15:16:50Z</time>
      </trkpt>
      <trkpt lat="37.231271" lon="-1.846188">
        <ele>41.654</ele>
        <time>2021-06-11T15:16:52Z</time>
      </trkpt>
      <trkpt lat="37.231201" lon="-1.846137">
        <ele>41.034</ele>
        <time>2021-06-11T15:16:53Z</time>
      </trkpt>
      <trkpt lat="37.231129" lon="-1.846096">
        <ele>40.655</ele>
        <time>2021-06-11T15:16:54Z</time>
      </trkpt>
      <trkpt lat="37.230986" lon="-1.846024">
        <ele>40.210</ele>
        <time>2021-06-11T15:16:56Z</time>
      </trkpt>
      <trkpt lat="37.230899" lon="-1.845876">
        <ele>39.908</ele>
        <time>2021-06-11T15:16:58Z</time>
      </trkpt>
      <trkpt lat="37.230851" lon="-1.845662">
        <ele>39.790</ele>
        <time>2021-06-11T15:17:00Z</time>
      </trkpt>
      <trkpt lat="37.230808" lon="-1.845555">
        <ele>39.688</ele>
        <time>2021-06-11T15:17:01Z</time>
      </trkpt>
      <trkpt lat="37.230668" lon="-1.845337">
        <ele>39.898</ele>
        <time>2021-06-11T15:17:03Z</time>
      </trkpt>
      <trkpt lat="37.230523" lon="-1.845104">
        <ele>40.136</ele>
        <time>2021-06-11T15:17:05Z</time>
      </trkpt>
      <trkpt lat="37.230401" lon="-1.844851">
        <ele>40.351</ele>
        <time>2021-06-11T15:17:07Z</time>
      </trkpt>
      <trkpt lat="37.230298" lon="-1.844593">
        <ele>40.892</ele>
        <time>2021-06-11T15:17:09Z</time>
      </trkpt>
      <trkpt lat="37.230191" lon="-1.844335">
        <ele>41.126</ele>
        <time>2021-06-11T15:17:11Z</time>
      </trkpt>
      <trkpt lat="37.230074" lon="-1.844107">
        <ele>40.949</ele>
        <time>2021-06-11T15:17:13Z</time>
      </trkpt>
      <trkpt lat="37.230009" lon="-1.843997">
        <ele>40.949</ele>
        <time>2021-06-11T15:17:14Z</time>
      </trkpt>
      <trkpt lat="37.229866" lon="-1.843773">
        <ele>40.602</ele>
        <time>2021-06-11T15:17:16Z</time>
      </trkpt>
      <trkpt lat="37.229708" lon="-1.843532">
        <ele>40.622</ele>
        <time>2021-06-11T15:17:18Z</time>
      </trkpt>
      <trkpt lat="37.229623" lon="-1.843408">
        <ele>40.308</ele>
        <time>2021-06-11T15:17:19Z</time>
      </trkpt>
      <trkpt lat="37.22943" lon="-1.84316">
        <ele>39.681</ele>
        <time>2021-06-11T15:17:21Z</time>
      </trkpt>
      <trkpt lat="37.229319" lon="-1.843035">
        <ele>39.129</ele>
        <time>2021-06-11T15:17:22Z</time>
      </trkpt>
      <trkpt lat="37.229073" lon="-1.842792">
        <ele>38.479</ele>
        <time>2021-06-11T15:17:24Z</time>
      </trkpt>
      <trkpt lat="37.228797" lon="-1.842574">
        <ele>37.847</ele>
        <time>2021-06-11T15:17:26Z</time>
      </trkpt>
      <trkpt lat="37.22865" lon="-1.842473">
        <ele>37.372</ele>
        <time>2021-06-11T15:17:27Z</time>
      </trkpt>
      <trkpt lat="37.228501" lon="-1.842374">
        <ele>37.073</ele>
        <time>2021-06-11T15:17:28Z</time>
      </trkpt>
      <trkpt lat="37.228351" lon="-1.842271">
        <ele>36.967</ele>
        <time>2021-06-11T15:17:29Z</time>
      </trkpt>
      <trkpt lat="37.228047" lon="-1.842067">
        <ele>37.080</ele>
        <time>2021-06-11T15:17:31Z</time>
      </trkpt>
      <trkpt lat="37.227895" lon="-1.841965">
        <ele>36.983</ele>
        <time>2021-06-11T15:17:32Z</time>
      </trkpt>
      <trkpt lat="37.227741" lon="-1.841868">
        <ele>36.525</ele>
        <time>2021-06-11T15:17:33Z</time>
      </trkpt>
      <trkpt lat="37.227422" lon="-1.841685">
        <ele>36.317</ele>
        <time>2021-06-11T15:17:35Z</time>
      </trkpt>
      <trkpt lat="37.2271" lon="-1.841507">
        <ele>36.308</ele>
        <time>2021-06-11T15:17:37Z</time>
      </trkpt>
      <trkpt lat="37.226787" lon="-1.841318">
        <ele>36.615</ele>
        <time>2021-06-11T15:17:39Z</time>
      </trkpt>
      <trkpt lat="37.226492" lon="-1.841089">
        <ele>36.843</ele>
        <time>2021-06-11T15:17:41Z</time>
      </trkpt>
      <trkpt lat="37.226351" lon="-1.840955">
        <ele>37.163</ele>
        <time>2021-06-11T15:17:42Z</time>
      </trkpt>
      <trkpt lat="37.226217" lon="-1.840809">
        <ele>37.261</ele>
        <time>2021-06-11T15:17:43Z</time>
      </trkpt>
      <trkpt lat="37.225968" lon="-1.840498">
        <ele>37.196</ele>
        <time>2021-06-11T15:17:45Z</time>
      </trkpt>
      <trkpt lat="37.225847" lon="-1.840339">
        <ele>37.027</ele>
        <time>2021-06-11T15:17:46Z</time>
      </trkpt>
      <trkpt lat="37.225726" lon="-1.84018">
        <ele>36.931</ele>
        <time>2021-06-11T15:17:47Z</time>
      </trkpt>
      <trkpt lat="37.225603" lon="-1.840022">
        <ele>37.014</ele>
        <time>2021-06-11T15:17:48Z</time>
      </trkpt>
      <trkpt lat="37.225357" lon="-1.839705">
        <ele>37.028</ele>
        <time>2021-06-11T15:17:50Z</time>
      </trkpt>
      <trkpt lat="37.225234" lon="-1.839543">
        <ele>37.089</ele>
        <time>2021-06-11T15:17:51Z</time>
      </trkpt>
      <trkpt lat="37.224991" lon="-1.83922">
        <ele>36.817</ele>
        <time>2021-06-11T15:17:53Z</time>
      </trkpt>
      <trkpt lat="37.224747" lon="-1.838896">
        <ele>36.408</ele>
        <time>2021-06-11T15:17:55Z</time>
      </trkpt>
      <trkpt lat="37.224623" lon="-1.838733">
        <ele>36.379</ele>
        <time>2021-06-11T15:17:56Z</time>
      </trkpt>
      <trkpt lat="37.2245" lon="-1.838575">
        <ele>36.187</ele>
        <time>2021-06-11T15:17:57Z</time>
      </trkpt>
      <trkpt lat="37.224375" lon="-1.838418">
        <ele>35.427</ele>
        <time>2021-06-11T15:17:58Z</time>
      </trkpt>
      <trkpt lat="37.224125" lon="-1.838102">
        <ele>34.965</ele>
        <time>2021-06-11T15:18:00Z</time>
      </trkpt>
      <trkpt lat="37.224" lon="-1.83794">
        <ele>34.410</ele>
        <time>2021-06-11T15:18:01Z</time>
      </trkpt>
      <trkpt lat="37.223749" lon="-1.837613">
        <ele>34.071</ele>
        <time>2021-06-11T15:18:03Z</time>
      </trkpt>
      <trkpt lat="37.223505" lon="-1.837296">
        <ele>33.755</ele>
        <time>2021-06-11T15:18:05Z</time>
      </trkpt>
      <trkpt lat="37.223261" lon="-1.836991">
        <ele>33.218</ele>
        <time>2021-06-11T15:18:07Z</time>
      </trkpt>
      <trkpt lat="37.223135" lon="-1.836844">
        <ele>32.758</ele>
        <time>2021-06-11T15:18:08Z</time>
      </trkpt>
      <trkpt lat="37.222866" lon="-1.836575">
        <ele>32.652</ele>
        <time>2021-06-11T15:18:10Z</time>
      </trkpt>
      <trkpt lat="37.222565" lon="-1.836347">
        <ele>32.517</ele>
        <time>2021-06-11T15:18:12Z</time>
      </trkpt>
      <trkpt lat="37.222251" lon="-1.836137">
        <ele>32.708</ele>
        <time>2021-06-11T15:18:14Z</time>
      </trkpt>
      <trkpt lat="37.22193" lon="-1.835935">
        <ele>32.982</ele>
        <time>2021-06-11T15:18:16Z</time>
      </trkpt>
      <trkpt lat="37.22177" lon="-1.835836">
        <ele>32.930</ele>
        <time>2021-06-11T15:18:17Z</time>
      </trkpt>
      <trkpt lat="37.221613" lon="-1.83574">
        <ele>32.820</ele>
        <time>2021-06-11T15:18:18Z</time>
      </trkpt>
      <trkpt lat="37.221301" lon="-1.835542">
        <ele>32.928</ele>
        <time>2021-06-11T15:18:20Z</time>
      </trkpt>
      <trkpt lat="37.221144" lon="-1.835442">
        <ele>32.883</ele>
        <time>2021-06-11T15:18:21Z</time>
      </trkpt>
      <trkpt lat="37.220831" lon="-1.835246">
        <ele>32.514</ele>
        <time>2021-06-11T15:18:23Z</time>
      </trkpt>
      <trkpt lat="37.220516" lon="-1.835041">
        <ele>32.428</ele>
        <time>2021-06-11T15:18:25Z</time>
      </trkpt>
      <trkpt lat="37.220356" lon="-1.834938">
        <ele>32.381</ele>
        <time>2021-06-11T15:18:26Z</time>
      </trkpt>
      <trkpt lat="37.220198" lon="-1.834835">
        <ele>32.247</ele>
        <time>2021-06-11T15:18:27Z</time>
      </trkpt>
      <trkpt lat="37.219881" lon="-1.834634">
        <ele>32.029</ele>
        <time>2021-06-11T15:18:29Z</time>
      </trkpt>
      <trkpt lat="37.21956" lon="-1.834438">
        <ele>31.521</ele>
        <time>2021-06-11T15:18:31Z</time>
      </trkpt>
      <trkpt lat="37.219393" lon="-1.83435">
        <ele>31.108</ele>
        <time>2021-06-11T15:18:32Z</time>
      </trkpt>
      <trkpt lat="37.219221" lon="-1.834274">
        <ele>31.151</ele>
        <time>2021-06-11T15:18:33Z</time>
      </trkpt>
      <trkpt lat="37.218865" lon="-1.834186">
        <ele>30.869</ele>
        <time>2021-06-11T15:18:35Z</time>
      </trkpt>
      <trkpt lat="37.218499" lon="-1.834154">
        <ele>30.739</ele>
        <time>2021-06-11T15:18:37Z</time>
      </trkpt>
      <trkpt lat="37.218136" lon="-1.834158">
        <ele>30.687</ele>
        <time>2021-06-11T15:18:39Z</time>
      </trkpt>
      <trkpt lat="37.217952" lon="-1.834156">
        <ele>30.962</ele>
        <time>2021-06-11T15:18:40Z</time>
      </trkpt>
      <trkpt lat="37.217769" lon="-1.83415">
        <ele>30.713</ele>
        <time>2021-06-11T15:18:41Z</time>
      </trkpt>
      <trkpt lat="37.217402" lon="-1.834132">
        <ele>31.077</ele>
        <time>2021-06-11T15:18:43Z</time>
      </trkpt>
      <trkpt lat="37.217216" lon="-1.834121">
        <ele>31.540</ele>
        <time>2021-06-11T15:18:44Z</time>
      </trkpt>
      <trkpt lat="37.216843" lon="-1.834097">
        <ele>31.789</ele>
        <time>2021-06-11T15:18:46Z</time>
      </trkpt>
      <trkpt lat="37.216656" lon="-1.834085">
        <ele>32.006</ele>
        <time>2021-06-11T15:18:47Z</time>
      </trkpt>
      <trkpt lat="37.216283" lon="-1.83406">
        <ele>32.326</ele>
        <time>2021-06-11T15:18:49Z</time>
      </trkpt>
      <trkpt lat="37.215917" lon="-1.834031">
        <ele>32.808</ele>
        <time>2021-06-11T15:18:51Z</time>
      </trkpt>
      <trkpt lat="37.215734" lon="-1.834007">
        <ele>32.765</ele>
        <time>2021-06-11T15:18:52Z</time>
      </trkpt>
      <trkpt lat="37.215368" lon="-1.833934">
        <ele>33.083</ele>
        <time>2021-06-11T15:18:54Z</time>
      </trkpt>
      <trkpt lat="37.215005" lon="-1.8338">
        <ele>33.433</ele>
        <time>2021-06-11T15:18:56Z</time>
      </trkpt>
      <trkpt lat="37.214654" lon="-1.833607">
        <ele>33.771</ele>
        <time>2021-06-11T15:18:58Z</time>
      </trkpt>
      <trkpt lat="37.214326" lon="-1.833366">
        <ele>34.126</ele>
        <time>2021-06-11T15:19:00Z</time>
      </trkpt>
      <trkpt lat="37.214174" lon="-1.83323">
        <ele>34.387</ele>
        <time>2021-06-11T15:19:01Z</time>
      </trkpt>
      <trkpt lat="37.214029" lon="-1.833083">
        <ele>34.721</ele>
        <time>2021-06-11T15:19:02Z</time>
      </trkpt>
      <trkpt lat="37.213755" lon="-1.832772">
        <ele>34.414</ele>
        <time>2021-06-11T15:19:04Z</time>
      </trkpt>
      <trkpt lat="37.213619" lon="-1.832611">
        <ele>34.396</ele>
        <time>2021-06-11T15:19:05Z</time>
      </trkpt>
      <trkpt lat="37.213482" lon="-1.832452">
        <ele>34.531</ele>
        <time>2021-06-11T15:19:06Z</time>
      </trkpt>
      <trkpt lat="37.213201" lon="-1.832139">
        <ele>34.624</ele>
        <time>2021-06-11T15:19:08Z</time>
      </trkpt>
      <trkpt lat="37.212924" lon="-1.831833">
        <ele>34.708</ele>
        <time>2021-06-11T15:19:10Z</time>
      </trkpt>
      <trkpt lat="37.212648" lon="-1.831515">
        <ele>35.076</ele>
        <time>2021-06-11T15:19:12Z</time>
      </trkpt>
      <trkpt lat="37.212512" lon="-1.831356">
        <ele>35.194</ele>
        <time>2021-06-11T15:19:13Z</time>
      </trkpt>
      <trkpt lat="37.212374" lon="-1.831198">
        <ele>35.014</ele>
        <time>2021-06-11T15:19:14Z</time>
      </trkpt>
      <trkpt lat="37.212098" lon="-1.830884">
        <ele>35.122</ele>
        <time>2021-06-11T15:19:16Z</time>
      </trkpt>
      <trkpt lat="37.211958" lon="-1.830725">
        <ele>35.167</ele>
        <time>2021-06-11T15:19:17Z</time>
      </trkpt>
      <trkpt lat="37.211819" lon="-1.830568">
        <ele>35.168</ele>
        <time>2021-06-11T15:19:18Z</time>
      </trkpt>
      <trkpt lat="37.211679" lon="-1.830415">
        <ele>35.162</ele>
        <time>2021-06-11T15:19:19Z</time>
      </trkpt>
      <trkpt lat="37.211393" lon="-1.830126">
        <ele>35.215</ele>
        <time>2021-06-11T15:19:21Z</time>
      </trkpt>
      <trkpt lat="37.211241" lon="-1.829995">
        <ele>35.285</ele>
        <time>2021-06-11T15:19:22Z</time>
      </trkpt>
      <trkpt lat="37.210918" lon="-1.829782">
        <ele>35.289</ele>
        <time>2021-06-11T15:19:24Z</time>
      </trkpt>
      <trkpt lat="37.210571" lon="-1.829628">
        <ele>35.017</ele>
        <time>2021-06-11T15:19:26Z</time>
      </trkpt>
      <trkpt lat="37.21021" lon="-1.829532">
        <ele>34.308</ele>
        <time>2021-06-11T15:19:28Z</time>
      </trkpt>
      <trkpt lat="37.209826" lon="-1.829504">
        <ele>33.645</ele>
        <time>2021-06-11T15:19:30Z</time>
      </trkpt>
      <trkpt lat="37.209629" lon="-1.82952">
        <ele>32.723</ele>
        <time>2021-06-11T15:19:31Z</time>
      </trkpt>
      <trkpt lat="37.20923" lon="-1.829581">
        <ele>31.363</ele>
        <time>2021-06-11T15:19:33Z</time>
      </trkpt>
      <trkpt lat="37.209033" lon="-1.829609">
        <ele>30.341</ele>
        <time>2021-06-11T15:19:34Z</time>
      </trkpt>
      <trkpt lat="37.208653" lon="-1.829651">
        <ele>29.176</ele>
        <time>2021-06-11T15:19:36Z</time>
      </trkpt>
      <trkpt lat="37.208267" lon="-1.82969">
        <ele>27.947</ele>
        <time>2021-06-11T15:19:38Z</time>
      </trkpt>
      <trkpt lat="37.208071" lon="-1.82971">
        <ele>27.031</ele>
        <time>2021-06-11T15:19:39Z</time>
      </trkpt>
      <trkpt lat="37.20768" lon="-1.829745">
        <ele>26.314</ele>
        <time>2021-06-11T15:19:41Z</time>
      </trkpt>
      <trkpt lat="37.207306" lon="-1.829779">
        <ele>25.777</ele>
        <time>2021-06-11T15:19:43Z</time>
      </trkpt>
      <trkpt lat="37.207123" lon="-1.829801">
        <ele>25.061</ele>
        <time>2021-06-11T15:19:44Z</time>
      </trkpt>
      <trkpt lat="37.206757" lon="-1.829845">
        <ele>24.827</ele>
        <time>2021-06-11T15:19:46Z</time>
      </trkpt>
      <trkpt lat="37.206392" lon="-1.829864">
        <ele>24.908</ele>
        <time>2021-06-11T15:19:48Z</time>
      </trkpt>
      <trkpt lat="37.20621" lon="-1.829856">
        <ele>25.034</ele>
        <time>2021-06-11T15:19:49Z</time>
      </trkpt>
      <trkpt lat="37.205853" lon="-1.829795">
        <ele>24.722</ele>
        <time>2021-06-11T15:19:51Z</time>
      </trkpt>
      <trkpt lat="37.205677" lon="-1.829736">
        <ele>24.632</ele>
        <time>2021-06-11T15:19:52Z</time>
      </trkpt>
      <trkpt lat="37.205337" lon="-1.829566">
        <ele>24.380</ele>
        <time>2021-06-11T15:19:54Z</time>
      </trkpt>
      <trkpt lat="37.205019" lon="-1.82933">
        <ele>24.215</ele>
        <time>2021-06-11T15:19:56Z</time>
      </trkpt>
      <trkpt lat="37.204731" lon="-1.829041">
        <ele>24.086</ele>
        <time>2021-06-11T15:19:58Z</time>
      </trkpt>
      <trkpt lat="37.204466" lon="-1.828714">
        <ele>23.540</ele>
        <time>2021-06-11T15:20:00Z</time>
      </trkpt>
      <trkpt lat="37.204205" lon="-1.828382">
        <ele>23.383</ele>
        <time>2021-06-11T15:20:02Z</time>
      </trkpt>
      <trkpt lat="37.204072" lon="-1.828219">
        <ele>23.128</ele>
        <time>2021-06-11T15:20:03Z</time>
      </trkpt>
      <trkpt lat="37.203939" lon="-1.828057">
        <ele>23.089</ele>
        <time>2021-06-11T15:20:04Z</time>
      </trkpt>
      <trkpt lat="37.203806" lon="-1.827897">
        <ele>22.917</ele>
        <time>2021-06-11T15:20:05Z</time>
      </trkpt>
      <trkpt lat="37.203539" lon="-1.827577">
        <ele>22.808</ele>
        <time>2021-06-11T15:20:07Z</time>
      </trkpt>
      <trkpt lat="37.203406" lon="-1.827411">
        <ele>23.099</ele>
        <time>2021-06-11T15:20:08Z</time>
      </trkpt>
      <trkpt lat="37.203271" lon="-1.827246">
        <ele>22.857</ele>
        <time>2021-06-11T15:20:09Z</time>
      </trkpt>
      <trkpt lat="37.202998" lon="-1.826921">
        <ele>22.797</ele>
        <time>2021-06-11T15:20:11Z</time>
      </trkpt>
      <trkpt lat="37.202861" lon="-1.826758">
        <ele>22.585</ele>
        <time>2021-06-11T15:20:12Z</time>
      </trkpt>
      <trkpt lat="37.202584" lon="-1.826436">
        <ele>22.350</ele>
        <time>2021-06-11T15:20:14Z</time>
      </trkpt>
      <trkpt lat="37.202317" lon="-1.826114">
        <ele>22.031</ele>
        <time>2021-06-11T15:20:16Z</time>
      </trkpt>
      <trkpt lat="37.202187" lon="-1.825953">
        <ele>22.175</ele>
        <time>2021-06-11T15:20:17Z</time>
      </trkpt>
      <trkpt lat="37.202058" lon="-1.825796">
        <ele>22.258</ele>
        <time>2021-06-11T15:20:18Z</time>
      </trkpt>
      <trkpt lat="37.201801" lon="-1.82548">
        <ele>22.289</ele>
        <time>2021-06-11T15:20:20Z</time>
      </trkpt>
      <trkpt lat="37.20167" lon="-1.825322">
        <ele>22.306</ele>
        <time>2021-06-11T15:20:21Z</time>
      </trkpt>
      <trkpt lat="37.20154" lon="-1.825168">
        <ele>22.626</ele>
        <time>2021-06-11T15:20:22Z</time>
      </trkpt>
      <trkpt lat="37.201273" lon="-1.824855">
        <ele>22.708</ele>
        <time>2021-06-11T15:20:24Z</time>
      </trkpt>
      <trkpt lat="37.201139" lon="-1.824699">
        <ele>22.815</ele>
        <time>2021-06-11T15:20:25Z</time>
      </trkpt>
      <trkpt lat="37.201008" lon="-1.824543">
        <ele>22.543</ele>
        <time>2021-06-11T15:20:26Z</time>
      </trkpt>
      <trkpt lat="37.200748" lon="-1.824238">
        <ele>22.043</ele>
        <time>2021-06-11T15:20:28Z</time>
      </trkpt>
      <trkpt lat="37.20049" lon="-1.823935">
        <ele>21.311</ele>
        <time>2021-06-11T15:20:30Z</time>
      </trkpt>
      <trkpt lat="37.200362" lon="-1.823782">
        <ele>20.716</ele>
        <time>2021-06-11T15:20:31Z</time>
      </trkpt>
      <trkpt lat="37.200111" lon="-1.823476">
        <ele>20.637</ele>
        <time>2021-06-11T15:20:33Z</time>
      </trkpt>
      <trkpt lat="37.199989" lon="-1.823325">
        <ele>20.861</ele>
        <time>2021-06-11T15:20:34Z</time>
      </trkpt>
      <trkpt lat="37.199764" lon="-1.823044">
        <ele>20.654</ele>
        <time>2021-06-11T15:20:36Z</time>
      </trkpt>
      <trkpt lat="37.199566" lon="-1.822788">
        <ele>20.531</ele>
        <time>2021-06-11T15:20:38Z</time>
      </trkpt>
      <trkpt lat="37.199389" lon="-1.822561">
        <ele>20.461</ele>
        <time>2021-06-11T15:20:40Z</time>
      </trkpt>
      <trkpt lat="37.199306" lon="-1.822457">
        <ele>20.507</ele>
        <time>2021-06-11T15:20:41Z</time>
      </trkpt>
      <trkpt lat="37.199159" lon="-1.822276">
        <ele>20.508</ele>
        <time>2021-06-11T15:20:43Z</time>
      </trkpt>
      <trkpt lat="37.19909" lon="-1.822202">
        <ele>20.420</ele>
        <time>2021-06-11T15:20:44Z</time>
      </trkpt>
      <trkpt lat="37.198941" lon="-1.822113">
        <ele>20.038</ele>
        <time>2021-06-11T15:20:46Z</time>
      </trkpt>
      <trkpt lat="37.198854" lon="-1.822101">
        <ele>19.448</ele>
        <time>2021-06-11T15:20:47Z</time>
      </trkpt>
      <trkpt lat="37.198755" lon="-1.822099">
        <ele>19.466</ele>
        <time>2021-06-11T15:20:48Z</time>
      </trkpt>
      <trkpt lat="37.198648" lon="-1.822102">
        <ele>18.931</ele>
        <time>2021-06-11T15:20:49Z</time>
      </trkpt>
      <trkpt lat="37.198536" lon="-1.822106">
        <ele>18.862</ele>
        <time>2021-06-11T15:20:50Z</time>
      </trkpt>
      <trkpt lat="37.198417" lon="-1.822115">
        <ele>18.976</ele>
        <time>2021-06-11T15:20:51Z</time>
      </trkpt>
      <trkpt lat="37.198166" lon="-1.822159">
        <ele>18.699</ele>
        <time>2021-06-11T15:20:53Z</time>
      </trkpt>
      <trkpt lat="37.197902" lon="-1.822236">
        <ele>18.483</ele>
        <time>2021-06-11T15:20:55Z</time>
      </trkpt>
      <trkpt lat="37.197766" lon="-1.822284">
        <ele>18.125</ele>
        <time>2021-06-11T15:20:56Z</time>
      </trkpt>
      <trkpt lat="37.197476" lon="-1.822378">
        <ele>17.917</ele>
        <time>2021-06-11T15:20:58Z</time>
      </trkpt>
      <trkpt lat="37.197176" lon="-1.82248">
        <ele>17.908</ele>
        <time>2021-06-11T15:21:00Z</time>
      </trkpt>
      <trkpt lat="37.197022" lon="-1.822538">
        <ele>17.925</ele>
        <time>2021-06-11T15:21:01Z</time>
      </trkpt>
      <trkpt lat="37.196865" lon="-1.822592">
        <ele>18.163</ele>
        <time>2021-06-11T15:21:02Z</time>
      </trkpt>
      <trkpt lat="37.196547" lon="-1.822692">
        <ele>18.393</ele>
        <time>2021-06-11T15:21:04Z</time>
      </trkpt>
      <trkpt lat="37.196223" lon="-1.822798">
        <ele>18.031</ele>
        <time>2021-06-11T15:21:06Z</time>
      </trkpt>
      <trkpt lat="37.196056" lon="-1.822856">
        <ele>17.816</ele>
        <time>2021-06-11T15:21:07Z</time>
      </trkpt>
      <trkpt lat="37.195717" lon="-1.822961">
        <ele>17.867</ele>
        <time>2021-06-11T15:21:09Z</time>
      </trkpt>
      <trkpt lat="37.195382" lon="-1.823065">
        <ele>17.541</ele>
        <time>2021-06-11T15:21:11Z</time>
      </trkpt>
      <trkpt lat="37.195037" lon="-1.823185">
        <ele>17.794</ele>
        <time>2021-06-11T15:21:13Z</time>
      </trkpt>
      <trkpt lat="37.194695" lon="-1.823287">
        <ele>17.045</ele>
        <time>2021-06-11T15:21:15Z</time>
      </trkpt>
      <trkpt lat="37.194519" lon="-1.823337">
        <ele>16.947</ele>
        <time>2021-06-11T15:21:16Z</time>
      </trkpt>
      <trkpt lat="37.194182" lon="-1.823452">
        <ele>16.911</ele>
        <time>2021-06-11T15:21:18Z</time>
      </trkpt>
      <trkpt lat="37.194015" lon="-1.823511">
        <ele>16.908</ele>
        <time>2021-06-11T15:21:19Z</time>
      </trkpt>
      <trkpt lat="37.193681" lon="-1.823627">
        <ele>17.271</ele>
        <time>2021-06-11T15:21:21Z</time>
      </trkpt>
      <trkpt lat="37.193344" lon="-1.823747">
        <ele>17.319</ele>
        <time>2021-06-11T15:21:23Z</time>
      </trkpt>
      <trkpt lat="37.193016" lon="-1.823857">
        <ele>17.169</ele>
        <time>2021-06-11T15:21:25Z</time>
      </trkpt>
      <trkpt lat="37.192688" lon="-1.823976">
        <ele>17.327</ele>
        <time>2021-06-11T15:21:27Z</time>
      </trkpt>
      <trkpt lat="37.192367" lon="-1.824087">
        <ele>17.072</ele>
        <time>2021-06-11T15:21:29Z</time>
      </trkpt>
      <trkpt lat="37.192207" lon="-1.824137">
        <ele>17.043</ele>
        <time>2021-06-11T15:21:30Z</time>
      </trkpt>
      <trkpt lat="37.191889" lon="-1.824228">
        <ele>17.137</ele>
        <time>2021-06-11T15:21:32Z</time>
      </trkpt>
      <trkpt lat="37.191587" lon="-1.824328">
        <ele>16.590</ele>
        <time>2021-06-11T15:21:34Z</time>
      </trkpt>
      <trkpt lat="37.191438" lon="-1.824377">
        <ele>16.314</ele>
        <time>2021-06-11T15:21:35Z</time>
      </trkpt>
      <trkpt lat="37.191288" lon="-1.824433">
        <ele>16.454</ele>
        <time>2021-06-11T15:21:36Z</time>
      </trkpt>
      <trkpt lat="37.191137" lon="-1.824493">
        <ele>16.209</ele>
        <time>2021-06-11T15:21:37Z</time>
      </trkpt>
      <trkpt lat="37.190841" lon="-1.824607">
        <ele>16.008</ele>
        <time>2021-06-11T15:21:39Z</time>
      </trkpt>
      <trkpt lat="37.190691" lon="-1.824665">
        <ele>16.078</ele>
        <time>2021-06-11T15:21:40Z</time>
      </trkpt>
      <trkpt lat="37.190542" lon="-1.824718">
        <ele>15.956</ele>
        <time>2021-06-11T15:21:41Z</time>
      </trkpt>
      <trkpt lat="37.190394" lon="-1.824769">
        <ele>16.216</ele>
        <time>2021-06-11T15:21:42Z</time>
      </trkpt>
      <trkpt lat="37.190099" lon="-1.824871">
        <ele>16.284</ele>
        <time>2021-06-11T15:21:44Z</time>
      </trkpt>
      <trkpt lat="37.1898" lon="-1.824977">
        <ele>16.369</ele>
        <time>2021-06-11T15:21:46Z</time>
      </trkpt>
      <trkpt lat="37.189497" lon="-1.825081">
        <ele>16.670</ele>
        <time>2021-06-11T15:21:48Z</time>
      </trkpt>
      <trkpt lat="37.189346" lon="-1.825136">
        <ele>16.894</ele>
        <time>2021-06-11T15:21:49Z</time>
      </trkpt>
      <trkpt lat="37.189195" lon="-1.825196">
        <ele>16.697</ele>
        <time>2021-06-11T15:21:50Z</time>
      </trkpt>
      <trkpt lat="37.188884" lon="-1.82529">
        <ele>16.521</ele>
        <time>2021-06-11T15:21:52Z</time>
      </trkpt>
      <trkpt lat="37.188728" lon="-1.825333">
        <ele>16.241</ele>
        <time>2021-06-11T15:21:53Z</time>
      </trkpt>
      <trkpt lat="37.188416" lon="-1.825418">
        <ele>16.405</ele>
        <time>2021-06-11T15:21:55Z</time>
      </trkpt>
      <trkpt lat="37.188261" lon="-1.825465">
        <ele>16.508</ele>
        <time>2021-06-11T15:21:56Z</time>
      </trkpt>
      <trkpt lat="37.187948" lon="-1.825557">
        <ele>16.799</ele>
        <time>2021-06-11T15:21:58Z</time>
      </trkpt>
      <trkpt lat="37.187788" lon="-1.825604">
        <ele>16.827</ele>
        <time>2021-06-11T15:21:59Z</time>
      </trkpt>
      <trkpt lat="37.187627" lon="-1.825651">
        <ele>16.867</ele>
        <time>2021-06-11T15:22:00Z</time>
      </trkpt>
      <trkpt lat="37.187465" lon="-1.8257">
        <ele>17.385</ele>
        <time>2021-06-11T15:22:01Z</time>
      </trkpt>
      <trkpt lat="37.187145" lon="-1.825809">
        <ele>17.110</ele>
        <time>2021-06-11T15:22:03Z</time>
      </trkpt>
      <trkpt lat="37.186987" lon="-1.825866">
        <ele>17.441</ele>
        <time>2021-06-11T15:22:04Z</time>
      </trkpt>
      <trkpt lat="37.186673" lon="-1.825977">
        <ele>17.225</ele>
        <time>2021-06-11T15:22:06Z</time>
      </trkpt>
      <trkpt lat="37.18636" lon="-1.826087">
        <ele>17.238</ele>
        <time>2021-06-11T15:22:08Z</time>
      </trkpt>
      <trkpt lat="37.186043" lon="-1.826192">
        <ele>17.514</ele>
        <time>2021-06-11T15:22:10Z</time>
      </trkpt>
      <trkpt lat="37.18588" lon="-1.826243">
        <ele>17.554</ele>
        <time>2021-06-11T15:22:11Z</time>
      </trkpt>
      <trkpt lat="37.185555" lon="-1.826356">
        <ele>17.909</ele>
        <time>2021-06-11T15:22:13Z</time>
      </trkpt>
      <trkpt lat="37.185389" lon="-1.826408">
        <ele>18.008</ele>
        <time>2021-06-11T15:22:14Z</time>
      </trkpt>
      <trkpt lat="37.185054" lon="-1.826522">
        <ele>18.038</ele>
        <time>2021-06-11T15:22:16Z</time>
      </trkpt>
      <trkpt lat="37.184719" lon="-1.826656">
        <ele>17.896</ele>
        <time>2021-06-11T15:22:18Z</time>
      </trkpt>
      <trkpt lat="37.184548" lon="-1.826724">
        <ele>17.726</ele>
        <time>2021-06-11T15:22:19Z</time>
      </trkpt>
      <trkpt lat="37.184376" lon="-1.826793">
        <ele>17.514</ele>
        <time>2021-06-11T15:22:20Z</time>
      </trkpt>
      <trkpt lat="37.18402" lon="-1.826916">
        <ele>17.789</ele>
        <time>2021-06-11T15:22:22Z</time>
      </trkpt>
      <trkpt lat="37.183837" lon="-1.826978">
        <ele>18.120</ele>
        <time>2021-06-11T15:22:23Z</time>
      </trkpt>
      <trkpt lat="37.183462" lon="-1.827101">
        <ele>18.944</ele>
        <time>2021-06-11T15:22:25Z</time>
      </trkpt>
      <trkpt lat="37.183273" lon="-1.827162">
        <ele>19.617</ele>
        <time>2021-06-11T15:22:26Z</time>
      </trkpt>
      <trkpt lat="37.182898" lon="-1.827285">
        <ele>20.545</ele>
        <time>2021-06-11T15:22:28Z</time>
      </trkpt>
      <trkpt lat="37.18271" lon="-1.827345">
        <ele>21.347</ele>
        <time>2021-06-11T15:22:29Z</time>
      </trkpt>
      <trkpt lat="37.182522" lon="-1.827403">
        <ele>22.311</ele>
        <time>2021-06-11T15:22:30Z</time>
      </trkpt>
      <trkpt lat="37.182336" lon="-1.82745">
        <ele>23.808</ele>
        <time>2021-06-11T15:22:31Z</time>
      </trkpt>
      <trkpt lat="37.181966" lon="-1.827489">
        <ele>25.771</ele>
        <time>2021-06-11T15:22:33Z</time>
      </trkpt>
      <trkpt lat="37.181781" lon="-1.827464">
        <ele>27.949</ele>
        <time>2021-06-11T15:22:34Z</time>
      </trkpt>
      <trkpt lat="37.181423" lon="-1.827344">
        <ele>29.879</ele>
        <time>2021-06-11T15:22:36Z</time>
      </trkpt>
      <trkpt lat="37.181086" lon="-1.827197">
        <ele>32.087</ele>
        <time>2021-06-11T15:22:38Z</time>
      </trkpt>
      <trkpt lat="37.180754" lon="-1.827045">
        <ele>34.132</ele>
        <time>2021-06-11T15:22:40Z</time>
      </trkpt>
      <trkpt lat="37.180434" lon="-1.826898">
        <ele>35.713</ele>
        <time>2021-06-11T15:22:42Z</time>
      </trkpt>
      <trkpt lat="37.180279" lon="-1.82683">
        <ele>36.927</ele>
        <time>2021-06-11T15:22:43Z</time>
      </trkpt>
      <trkpt lat="37.179974" lon="-1.826706">
        <ele>37.410</ele>
        <time>2021-06-11T15:22:45Z</time>
      </trkpt>
      <trkpt lat="37.179678" lon="-1.826594">
        <ele>38.263</ele>
        <time>2021-06-11T15:22:47Z</time>
      </trkpt>
      <trkpt lat="37.179531" lon="-1.826543">
        <ele>39.044</ele>
        <time>2021-06-11T15:22:48Z</time>
      </trkpt>
      <trkpt lat="37.179235" lon="-1.826443">
        <ele>39.718</ele>
        <time>2021-06-11T15:22:50Z</time>
      </trkpt>
      <trkpt lat="37.179088" lon="-1.826402">
        <ele>40.008</ele>
        <time>2021-06-11T15:22:51Z</time>
      </trkpt>
      <trkpt lat="37.178945" lon="-1.826371">
        <ele>40.713</ele>
        <time>2021-06-11T15:22:52Z</time>
      </trkpt>
      <trkpt lat="37.178663" lon="-1.826378">
        <ele>41.641</ele>
        <time>2021-06-11T15:22:54Z</time>
      </trkpt>
      <trkpt lat="37.178404" lon="-1.826469">
        <ele>42.051</ele>
        <time>2021-06-11T15:22:56Z</time>
      </trkpt>
      <trkpt lat="37.178285" lon="-1.82654">
        <ele>42.559</ele>
        <time>2021-06-11T15:22:57Z</time>
      </trkpt>
      <trkpt lat="37.178175" lon="-1.826615">
        <ele>42.754</ele>
        <time>2021-06-11T15:22:58Z</time>
      </trkpt>
      <trkpt lat="37.177967" lon="-1.826778">
        <ele>43.285</ele>
        <time>2021-06-11T15:23:00Z</time>
      </trkpt>
      <trkpt lat="37.177763" lon="-1.826962">
        <ele>43.539</ele>
        <time>2021-06-11T15:23:02Z</time>
      </trkpt>
      <trkpt lat="37.17766" lon="-1.827055">
        <ele>43.842</ele>
        <time>2021-06-11T15:23:03Z</time>
      </trkpt>
      <trkpt lat="37.177456" lon="-1.827235">
        <ele>44.133</ele>
        <time>2021-06-11T15:23:05Z</time>
      </trkpt>
      <trkpt lat="37.177251" lon="-1.827411">
        <ele>44.323</ele>
        <time>2021-06-11T15:23:07Z</time>
      </trkpt>
      <trkpt lat="37.177061" lon="-1.827559">
        <ele>44.715</ele>
        <time>2021-06-11T15:23:09Z</time>
      </trkpt>
      <trkpt lat="37.176973" lon="-1.827629">
        <ele>45.108</ele>
        <time>2021-06-11T15:23:10Z</time>
      </trkpt>
      <trkpt lat="37.176805" lon="-1.827763">
        <ele>45.920</ele>
        <time>2021-06-11T15:23:12Z</time>
      </trkpt>
      <trkpt lat="37.176719" lon="-1.827829">
        <ele>46.388</ele>
        <time>2021-06-11T15:23:13Z</time>
      </trkpt>
      <trkpt lat="37.176538" lon="-1.827954">
        <ele>46.638</ele>
        <time>2021-06-11T15:23:15Z</time>
      </trkpt>
      <trkpt lat="37.176447" lon="-1.828013">
        <ele>46.526</ele>
        <time>2021-06-11T15:23:16Z</time>
      </trkpt>
      <trkpt lat="37.176265" lon="-1.828108">
        <ele>46.511</ele>
        <time>2021-06-11T15:23:18Z</time>
      </trkpt>
      <trkpt lat="37.176082" lon="-1.828179">
        <ele>46.292</ele>
        <time>2021-06-11T15:23:20Z</time>
      </trkpt>
      <trkpt lat="37.175898" lon="-1.828221">
        <ele>45.966</ele>
        <time>2021-06-11T15:23:22Z</time>
      </trkpt>
      <trkpt lat="37.175799" lon="-1.828226">
        <ele>45.459</ele>
        <time>2021-06-11T15:23:23Z</time>
      </trkpt>
      <trkpt lat="37.175696" lon="-1.828228">
        <ele>44.738</ele>
        <time>2021-06-11T15:23:24Z</time>
      </trkpt>
      <trkpt lat="37.175587" lon="-1.828231">
        <ele>43.970</ele>
        <time>2021-06-11T15:23:25Z</time>
      </trkpt>
      <trkpt lat="37.175355" lon="-1.82826">
        <ele>42.817</ele>
        <time>2021-06-11T15:23:27Z</time>
      </trkpt>
      <trkpt lat="37.175116" lon="-1.828298">
        <ele>41.808</ele>
        <time>2021-06-11T15:23:29Z</time>
      </trkpt>
      <trkpt lat="37.174992" lon="-1.828325">
        <ele>41.080</ele>
        <time>2021-06-11T15:23:30Z</time>
      </trkpt>
      <trkpt lat="37.174737" lon="-1.828438">
        <ele>39.688</ele>
        <time>2021-06-11T15:23:32Z</time>
      </trkpt>
      <trkpt lat="37.174477" lon="-1.828626">
        <ele>38.068</ele>
        <time>2021-06-11T15:23:34Z</time>
      </trkpt>
      <trkpt lat="37.174347" lon="-1.828748">
        <ele>36.656</ele>
        <time>2021-06-11T15:23:35Z</time>
      </trkpt>
      <trkpt lat="37.174223" lon="-1.828887">
        <ele>35.681</ele>
        <time>2021-06-11T15:23:36Z</time>
      </trkpt>
      <trkpt lat="37.173996" lon="-1.829217">
        <ele>33.932</ele>
        <time>2021-06-11T15:23:38Z</time>
      </trkpt>
      <trkpt lat="37.173791" lon="-1.829594">
        <ele>32.166</ele>
        <time>2021-06-11T15:23:40Z</time>
      </trkpt>
      <trkpt lat="37.173584" lon="-1.829978">
        <ele>30.649</ele>
        <time>2021-06-11T15:23:42Z</time>
      </trkpt>
      <trkpt lat="37.173478" lon="-1.830172">
        <ele>29.284</ele>
        <time>2021-06-11T15:23:43Z</time>
      </trkpt>
      <trkpt lat="37.173262" lon="-1.830573">
        <ele>27.607</ele>
        <time>2021-06-11T15:23:45Z</time>
      </trkpt>
      <trkpt lat="37.173151" lon="-1.830777">
        <ele>26.517</ele>
        <time>2021-06-11T15:23:46Z</time>
      </trkpt>
      <trkpt lat="37.172928" lon="-1.831183">
        <ele>25.608</ele>
        <time>2021-06-11T15:23:48Z</time>
      </trkpt>
      <trkpt lat="37.172816" lon="-1.831391">
        <ele>24.925</ele>
        <time>2021-06-11T15:23:49Z</time>
      </trkpt>
      <trkpt lat="37.172589" lon="-1.831813">
        <ele>24.123</ele>
        <time>2021-06-11T15:23:51Z</time>
      </trkpt>
      <trkpt lat="37.172475" lon="-1.83202">
        <ele>23.753</ele>
        <time>2021-06-11T15:23:52Z</time>
      </trkpt>
      <trkpt lat="37.172362" lon="-1.832224">
        <ele>23.131</ele>
        <time>2021-06-11T15:23:53Z</time>
      </trkpt>
      <trkpt lat="37.172248" lon="-1.832429">
        <ele>22.826</ele>
        <time>2021-06-11T15:23:54Z</time>
      </trkpt>
      <trkpt lat="37.172134" lon="-1.832635">
        <ele>22.377</ele>
        <time>2021-06-11T15:23:55Z</time>
      </trkpt>
      <trkpt lat="37.171906" lon="-1.833049">
        <ele>22.391</ele>
        <time>2021-06-11T15:23:57Z</time>
      </trkpt>
      <trkpt lat="37.171681" lon="-1.833466">
        <ele>22.214</ele>
        <time>2021-06-11T15:23:59Z</time>
      </trkpt>
      <trkpt lat="37.171456" lon="-1.833878">
        <ele>22.059</ele>
        <time>2021-06-11T15:24:01Z</time>
      </trkpt>
      <trkpt lat="37.171234" lon="-1.834282">
        <ele>22.303</ele>
        <time>2021-06-11T15:24:03Z</time>
      </trkpt>
      <trkpt lat="37.171017" lon="-1.834679">
        <ele>22.023</ele>
        <time>2021-06-11T15:24:05Z</time>
      </trkpt>
      <trkpt lat="37.170907" lon="-1.834882">
        <ele>22.208</ele>
        <time>2021-06-11T15:24:06Z</time>
      </trkpt>
      <trkpt lat="37.170679" lon="-1.835294">
        <ele>22.382</ele>
        <time>2021-06-11T15:24:08Z</time>
      </trkpt>
      <trkpt lat="37.170566" lon="-1.835505">
        <ele>22.680</ele>
        <time>2021-06-11T15:24:09Z</time>
      </trkpt>
      <trkpt lat="37.17034" lon="-1.835924">
        <ele>22.790</ele>
        <time>2021-06-11T15:24:11Z</time>
      </trkpt>
      <trkpt lat="37.170223" lon="-1.836132">
        <ele>23.038</ele>
        <time>2021-06-11T15:24:12Z</time>
      </trkpt>
      <trkpt lat="37.169992" lon="-1.836542">
        <ele>22.833</ele>
        <time>2021-06-11T15:24:14Z</time>
      </trkpt>
      <trkpt lat="37.169879" lon="-1.836747">
        <ele>23.024</ele>
        <time>2021-06-11T15:24:15Z</time>
      </trkpt>
      <trkpt lat="37.169654" lon="-1.837148">
        <ele>22.838</ele>
        <time>2021-06-11T15:24:17Z</time>
      </trkpt>
      <trkpt lat="37.169542" lon="-1.83735">
        <ele>22.981</ele>
        <time>2021-06-11T15:24:18Z</time>
      </trkpt>
      <trkpt lat="37.169431" lon="-1.837553">
        <ele>22.925</ele>
        <time>2021-06-11T15:24:19Z</time>
      </trkpt>
      <trkpt lat="37.16932" lon="-1.837755">
        <ele>22.926</ele>
        <time>2021-06-11T15:24:20Z</time>
      </trkpt>
      <trkpt lat="37.169101" lon="-1.838153">
        <ele>23.108</ele>
        <time>2021-06-11T15:24:22Z</time>
      </trkpt>
      <trkpt lat="37.168889" lon="-1.838552">
        <ele>23.508</ele>
        <time>2021-06-11T15:24:24Z</time>
      </trkpt>
      <trkpt lat="37.168686" lon="-1.838949">
        <ele>23.829</ele>
        <time>2021-06-11T15:24:26Z</time>
      </trkpt>
      <trkpt lat="37.168587" lon="-1.839148">
        <ele>24.047</ele>
        <time>2021-06-11T15:24:27Z</time>
      </trkpt>
      <trkpt lat="37.168487" lon="-1.839346">
        <ele>24.357</ele>
        <time>2021-06-11T15:24:28Z</time>
      </trkpt>
      <trkpt lat="37.16829" lon="-1.839744">
        <ele>24.345</ele>
        <time>2021-06-11T15:24:30Z</time>
      </trkpt>
      <trkpt lat="37.168194" lon="-1.839944">
        <ele>24.320</ele>
        <time>2021-06-11T15:24:31Z</time>
      </trkpt>
      <trkpt lat="37.168006" lon="-1.840342">
        <ele>24.341</ele>
        <time>2021-06-11T15:24:33Z</time>
      </trkpt>
      <trkpt lat="37.167814" lon="-1.840732">
        <ele>24.495</ele>
        <time>2021-06-11T15:24:35Z</time>
      </trkpt>
      <trkpt lat="37.167629" lon="-1.841106">
        <ele>24.348</ele>
        <time>2021-06-11T15:24:37Z</time>
      </trkpt>
      <trkpt lat="37.167446" lon="-1.841481">
        <ele>24.036</ele>
        <time>2021-06-11T15:24:39Z</time>
      </trkpt>
      <trkpt lat="37.167353" lon="-1.84167">
        <ele>24.017</ele>
        <time>2021-06-11T15:24:40Z</time>
      </trkpt>
      <trkpt lat="37.167261" lon="-1.841861">
        <ele>23.818</ele>
        <time>2021-06-11T15:24:41Z</time>
      </trkpt>
      <trkpt lat="37.16717" lon="-1.842053">
        <ele>23.708</ele>
        <time>2021-06-11T15:24:42Z</time>
      </trkpt>
      <trkpt lat="37.167077" lon="-1.842245">
        <ele>23.680</ele>
        <time>2021-06-11T15:24:43Z</time>
      </trkpt>
      <trkpt lat="37.16689" lon="-1.842632">
        <ele>23.688</ele>
        <time>2021-06-11T15:24:45Z</time>
      </trkpt>
      <trkpt lat="37.166705" lon="-1.843021">
        <ele>23.448</ele>
        <time>2021-06-11T15:24:47Z</time>
      </trkpt>
      <trkpt lat="37.166514" lon="-1.84341">
        <ele>23.446</ele>
        <time>2021-06-11T15:24:49Z</time>
      </trkpt>
      <trkpt lat="37.166421" lon="-1.843606">
        <ele>23.381</ele>
        <time>2021-06-11T15:24:50Z</time>
      </trkpt>
      <trkpt lat="37.166236" lon="-1.843998">
        <ele>23.242</ele>
        <time>2021-06-11T15:24:52Z</time>
      </trkpt>
      <trkpt lat="37.166067" lon="-1.844397">
        <ele>23.626</ele>
        <time>2021-06-11T15:24:54Z</time>
      </trkpt>
      <trkpt lat="37.165981" lon="-1.844599">
        <ele>23.849</ele>
        <time>2021-06-11T15:24:55Z</time>
      </trkpt>
      <trkpt lat="37.165809" lon="-1.844992">
        <ele>24.113</ele>
        <time>2021-06-11T15:24:57Z</time>
      </trkpt>
      <trkpt lat="37.165638" lon="-1.845376">
        <ele>23.843</ele>
        <time>2021-06-11T15:24:59Z</time>
      </trkpt>
      <trkpt lat="37.165461" lon="-1.84573">
        <ele>23.607</ele>
        <time>2021-06-11T15:25:01Z</time>
      </trkpt>
      <trkpt lat="37.165292" lon="-1.84604">
        <ele>23.708</ele>
        <time>2021-06-11T15:25:03Z</time>
      </trkpt>
      <trkpt lat="37.165212" lon="-1.846187">
        <ele>24.028</ele>
        <time>2021-06-11T15:25:04Z</time>
      </trkpt>
      <trkpt lat="37.16507" lon="-1.846466">
        <ele>23.886</ele>
        <time>2021-06-11T15:25:06Z</time>
      </trkpt>
      <trkpt lat="37.164957" lon="-1.8467">
        <ele>23.316</ele>
        <time>2021-06-11T15:25:08Z</time>
      </trkpt>
      <trkpt lat="37.164865" lon="-1.846892">
        <ele>22.934</ele>
        <time>2021-06-11T15:25:10Z</time>
      </trkpt>
      <trkpt lat="37.164826" lon="-1.846974">
        <ele>23.129</ele>
        <time>2021-06-11T15:25:11Z</time>
      </trkpt>
      <trkpt lat="37.164757" lon="-1.847114">
        <ele>23.630</ele>
        <time>2021-06-11T15:25:13Z</time>
      </trkpt>
      <trkpt lat="37.164728" lon="-1.847171">
        <ele>23.594</ele>
        <time>2021-06-11T15:25:14Z</time>
      </trkpt>
      <trkpt lat="37.164702" lon="-1.847223">
        <ele>23.727</ele>
        <time>2021-06-11T15:25:15Z</time>
      </trkpt>
      <trkpt lat="37.164661" lon="-1.847309">
        <ele>23.777</ele>
        <time>2021-06-11T15:25:17Z</time>
      </trkpt>
      <trkpt lat="37.164614" lon="-1.847373">
        <ele>23.661</ele>
        <time>2021-06-11T15:25:19Z</time>
      </trkpt>
      <trkpt lat="37.16456" lon="-1.847415">
        <ele>23.327</ele>
        <time>2021-06-11T15:25:20Z</time>
      </trkpt>
      <trkpt lat="37.164398" lon="-1.847414">
        <ele>22.808</ele>
        <time>2021-06-11T15:25:22Z</time>
      </trkpt>
      <trkpt lat="37.164315" lon="-1.847361">
        <ele>22.524</ele>
        <time>2021-06-11T15:25:23Z</time>
      </trkpt>
      <trkpt lat="37.164245" lon="-1.84728">
        <ele>22.342</ele>
        <time>2021-06-11T15:25:24Z</time>
      </trkpt>
      <trkpt lat="37.164187" lon="-1.847181">
        <ele>22.362</ele>
        <time>2021-06-11T15:25:25Z</time>
      </trkpt>
      <trkpt lat="37.164046" lon="-1.846989">
        <ele>22.930</ele>
        <time>2021-06-11T15:25:27Z</time>
      </trkpt>
      <trkpt lat="37.163856" lon="-1.846833">
        <ele>23.175</ele>
        <time>2021-06-11T15:25:29Z</time>
      </trkpt>
      <trkpt lat="37.163642" lon="-1.84668">
        <ele>23.226</ele>
        <time>2021-06-11T15:25:31Z</time>
      </trkpt>
      <trkpt lat="37.163528" lon="-1.846598">
        <ele>23.370</ele>
        <time>2021-06-11T15:25:32Z</time>
      </trkpt>
      <trkpt lat="37.163286" lon="-1.846435">
        <ele>23.443</ele>
        <time>2021-06-11T15:25:34Z</time>
      </trkpt>
      <trkpt lat="37.163158" lon="-1.846363">
        <ele>23.798</ele>
        <time>2021-06-11T15:25:35Z</time>
      </trkpt>
      <trkpt lat="37.162888" lon="-1.846256">
        <ele>24.115</ele>
        <time>2021-06-11T15:25:37Z</time>
      </trkpt>
      <trkpt lat="37.162743" lon="-1.846223">
        <ele>24.126</ele>
        <time>2021-06-11T15:25:38Z</time>
      </trkpt>
      <trkpt lat="37.162594" lon="-1.846198">
        <ele>24.308</ele>
        <time>2021-06-11T15:25:39Z</time>
      </trkpt>
      <trkpt lat="37.162283" lon="-1.846167">
        <ele>24.356</ele>
        <time>2021-06-11T15:25:41Z</time>
      </trkpt>
      <trkpt lat="37.161964" lon="-1.846134">
        <ele>24.454</ele>
        <time>2021-06-11T15:25:43Z</time>
      </trkpt>
      <trkpt lat="37.161645" lon="-1.846095">
        <ele>24.654</ele>
        <time>2021-06-11T15:25:45Z</time>
      </trkpt>
      <trkpt lat="37.16133" lon="-1.846048">
        <ele>24.922</ele>
        <time>2021-06-11T15:25:47Z</time>
      </trkpt>
      <trkpt lat="37.161018" lon="-1.845996">
        <ele>25.057</ele>
        <time>2021-06-11T15:25:49Z</time>
      </trkpt>
      <trkpt lat="37.160696" lon="-1.845945">
        <ele>25.188</ele>
        <time>2021-06-11T15:25:51Z</time>
      </trkpt>
      <trkpt lat="37.160533" lon="-1.845922">
        <ele>24.542</ele>
        <time>2021-06-11T15:25:52Z</time>
      </trkpt>
      <trkpt lat="37.160201" lon="-1.845868">
        <ele>24.365</ele>
        <time>2021-06-11T15:25:54Z</time>
      </trkpt>
      <trkpt lat="37.160034" lon="-1.845842">
        <ele>24.037</ele>
        <time>2021-06-11T15:25:55Z</time>
      </trkpt>
      <trkpt lat="37.159871" lon="-1.845817">
        <ele>23.949</ele>
        <time>2021-06-11T15:25:56Z</time>
      </trkpt>
      <trkpt lat="37.159547" lon="-1.845771">
        <ele>23.813</ele>
        <time>2021-06-11T15:25:58Z</time>
      </trkpt>
      <trkpt lat="37.159384" lon="-1.845746">
        <ele>24.008</ele>
        <time>2021-06-11T15:25:59Z</time>
      </trkpt>
      <trkpt lat="37.159057" lon="-1.845701">
        <ele>24.030</ele>
        <time>2021-06-11T15:26:01Z</time>
      </trkpt>
      <trkpt lat="37.158731" lon="-1.845655">
        <ele>24.248</ele>
        <time>2021-06-11T15:26:03Z</time>
      </trkpt>
      <trkpt lat="37.158407" lon="-1.845609">
        <ele>24.368</ele>
        <time>2021-06-11T15:26:05Z</time>
      </trkpt>
      <trkpt lat="37.158246" lon="-1.845581">
        <ele>24.576</ele>
        <time>2021-06-11T15:26:06Z</time>
      </trkpt>
      <trkpt lat="37.158086" lon="-1.845555">
        <ele>24.721</ele>
        <time>2021-06-11T15:26:07Z</time>
      </trkpt>
      <trkpt lat="37.157771" lon="-1.845511">
        <ele>24.842</ele>
        <time>2021-06-11T15:26:09Z</time>
      </trkpt>
      <trkpt lat="37.157615" lon="-1.845491">
        <ele>25.116</ele>
        <time>2021-06-11T15:26:10Z</time>
      </trkpt>
      <trkpt lat="37.157305" lon="-1.845458">
        <ele>25.549</ele>
        <time>2021-06-11T15:26:12Z</time>
      </trkpt>
      <trkpt lat="37.156995" lon="-1.845445">
        <ele>25.923</ele>
        <time>2021-06-11T15:26:14Z</time>
      </trkpt>
      <trkpt lat="37.156841" lon="-1.845445">
        <ele>26.083</ele>
        <time>2021-06-11T15:26:15Z</time>
      </trkpt>
      <trkpt lat="37.156688" lon="-1.845448">
        <ele>25.811</ele>
        <time>2021-06-11T15:26:16Z</time>
      </trkpt>
      <trkpt lat="37.156376" lon="-1.845467">
        <ele>26.008</ele>
        <time>2021-06-11T15:26:18Z</time>
      </trkpt>
      <trkpt lat="37.156057" lon="-1.845498">
        <ele>26.159</ele>
        <time>2021-06-11T15:26:20Z</time>
      </trkpt>
      <trkpt lat="37.155896" lon="-1.845532">
        <ele>26.737</ele>
        <time>2021-06-11T15:26:21Z</time>
      </trkpt>
      <trkpt lat="37.155576" lon="-1.845629">
        <ele>26.947</ele>
        <time>2021-06-11T15:26:23Z</time>
      </trkpt>
      <trkpt lat="37.155262" lon="-1.845757">
        <ele>27.055</ele>
        <time>2021-06-11T15:26:25Z</time>
      </trkpt>
      <trkpt lat="37.155106" lon="-1.845834">
        <ele>27.260</ele>
        <time>2021-06-11T15:26:26Z</time>
      </trkpt>
      <trkpt lat="37.154952" lon="-1.845919">
        <ele>27.381</ele>
        <time>2021-06-11T15:26:27Z</time>
      </trkpt>
      <trkpt lat="37.154651" lon="-1.846096">
        <ele>27.065</ele>
        <time>2021-06-11T15:26:29Z</time>
      </trkpt>
      <trkpt lat="37.154359" lon="-1.846297">
        <ele>26.768</ele>
        <time>2021-06-11T15:26:31Z</time>
      </trkpt>
      <trkpt lat="37.154213" lon="-1.846401">
        <ele>26.235</ele>
        <time>2021-06-11T15:26:32Z</time>
      </trkpt>
      <trkpt lat="37.153921" lon="-1.846615">
        <ele>25.886</ele>
        <time>2021-06-11T15:26:34Z</time>
      </trkpt>
      <trkpt lat="37.153775" lon="-1.84672">
        <ele>25.614</ele>
        <time>2021-06-11T15:26:35Z</time>
      </trkpt>
      <trkpt lat="37.153485" lon="-1.846927">
        <ele>25.608</ele>
        <time>2021-06-11T15:26:37Z</time>
      </trkpt>
      <trkpt lat="37.153197" lon="-1.847115">
        <ele>25.480</ele>
        <time>2021-06-11T15:26:39Z</time>
      </trkpt>
      <trkpt lat="37.152898" lon="-1.847273">
        <ele>25.268</ele>
        <time>2021-06-11T15:26:41Z</time>
      </trkpt>
      <trkpt lat="37.15274" lon="-1.847326">
        <ele>24.538</ele>
        <time>2021-06-11T15:26:42Z</time>
      </trkpt>
      <trkpt lat="37.15241" lon="-1.847368">
        <ele>23.916</ele>
        <time>2021-06-11T15:26:44Z</time>
      </trkpt>
      <trkpt lat="37.152078" lon="-1.847332">
        <ele>24.081</ele>
        <time>2021-06-11T15:26:46Z</time>
      </trkpt>
      <trkpt lat="37.151914" lon="-1.847285">
        <ele>24.282</ele>
        <time>2021-06-11T15:26:47Z</time>
      </trkpt>
      <trkpt lat="37.151598" lon="-1.847146">
        <ele>24.386</ele>
        <time>2021-06-11T15:26:49Z</time>
      </trkpt>
      <trkpt lat="37.151301" lon="-1.846924">
        <ele>24.779</ele>
        <time>2021-06-11T15:26:51Z</time>
      </trkpt>
      <trkpt lat="37.151023" lon="-1.846663">
        <ele>25.061</ele>
        <time>2021-06-11T15:26:53Z</time>
      </trkpt>
      <trkpt lat="37.150886" lon="-1.846532">
        <ele>25.121</ele>
        <time>2021-06-11T15:26:54Z</time>
      </trkpt>
      <trkpt lat="37.150748" lon="-1.846405">
        <ele>25.413</ele>
        <time>2021-06-11T15:26:55Z</time>
      </trkpt>
      <trkpt lat="37.15047" lon="-1.846158">
        <ele>25.608</ele>
        <time>2021-06-11T15:26:57Z</time>
      </trkpt>
      <trkpt lat="37.150196" lon="-1.845912">
        <ele>25.893</ele>
        <time>2021-06-11T15:26:59Z</time>
      </trkpt>
      <trkpt lat="37.149925" lon="-1.845668">
        <ele>26.281</ele>
        <time>2021-06-11T15:27:01Z</time>
      </trkpt>
      <trkpt lat="37.149654" lon="-1.845423">
        <ele>26.531</ele>
        <time>2021-06-11T15:27:03Z</time>
      </trkpt>
      <trkpt lat="37.149375" lon="-1.845172">
        <ele>26.879</ele>
        <time>2021-06-11T15:27:05Z</time>
      </trkpt>
      <trkpt lat="37.149091" lon="-1.844918">
        <ele>27.014</ele>
        <time>2021-06-11T15:27:07Z</time>
      </trkpt>
      <trkpt lat="37.148808" lon="-1.844657">
        <ele>27.575</ele>
        <time>2021-06-11T15:27:09Z</time>
      </trkpt>
      <trkpt lat="37.148534" lon="-1.844375">
        <ele>28.479</ele>
        <time>2021-06-11T15:27:11Z</time>
      </trkpt>
      <trkpt lat="37.148405" lon="-1.844224">
        <ele>29.472</ele>
        <time>2021-06-11T15:27:12Z</time>
      </trkpt>
      <trkpt lat="37.148172" lon="-1.843888">
        <ele>30.624</ele>
        <time>2021-06-11T15:27:14Z</time>
      </trkpt>
      <trkpt lat="37.148069" lon="-1.843706">
        <ele>32.004</ele>
        <time>2021-06-11T15:27:15Z</time>
      </trkpt>
      <trkpt lat="37.147884" lon="-1.843325">
        <ele>33.614</ele>
        <time>2021-06-11T15:27:17Z</time>
      </trkpt>
      <trkpt lat="37.147802" lon="-1.843129">
        <ele>35.408</ele>
        <time>2021-06-11T15:27:18Z</time>
      </trkpt>
      <trkpt lat="37.147728" lon="-1.842933">
        <ele>36.569</ele>
        <time>2021-06-11T15:27:19Z</time>
      </trkpt>
      <trkpt lat="37.147607" lon="-1.84253">
        <ele>37.787</ele>
        <time>2021-06-11T15:27:21Z</time>
      </trkpt>
      <trkpt lat="37.147502" lon="-1.842122">
        <ele>39.257</ele>
        <time>2021-06-11T15:27:23Z</time>
      </trkpt>
      <trkpt lat="37.147456" lon="-1.841913">
        <ele>40.875</ele>
        <time>2021-06-11T15:27:24Z</time>
      </trkpt>
      <trkpt lat="37.147355" lon="-1.841499">
        <ele>42.670</ele>
        <time>2021-06-11T15:27:26Z</time>
      </trkpt>
      <trkpt lat="37.147248" lon="-1.841085">
        <ele>44.511</ele>
        <time>2021-06-11T15:27:28Z</time>
      </trkpt>
      <trkpt lat="37.147191" lon="-1.840876">
        <ele>45.735</ele>
        <time>2021-06-11T15:27:29Z</time>
      </trkpt>
      <trkpt lat="37.147081" lon="-1.840457">
        <ele>47.448</ele>
        <time>2021-06-11T15:27:31Z</time>
      </trkpt>
      <trkpt lat="37.14703" lon="-1.840245">
        <ele>48.515</ele>
        <time>2021-06-11T15:27:32Z</time>
      </trkpt>
      <trkpt lat="37.146974" lon="-1.840036">
        <ele>49.565</ele>
        <time>2021-06-11T15:27:33Z</time>
      </trkpt>
      <trkpt lat="37.146856" lon="-1.839635">
        <ele>50.211</ele>
        <time>2021-06-11T15:27:35Z</time>
      </trkpt>
      <trkpt lat="37.146785" lon="-1.839451">
        <ele>50.908</ele>
        <time>2021-06-11T15:27:36Z</time>
      </trkpt>
      <trkpt lat="37.146595" lon="-1.839119">
        <ele>51.318</ele>
        <time>2021-06-11T15:27:38Z</time>
      </trkpt>
      <trkpt lat="37.146479" lon="-1.838964">
        <ele>52.046</ele>
        <time>2021-06-11T15:27:39Z</time>
      </trkpt>
      <trkpt lat="37.146214" lon="-1.838681">
        <ele>52.266</ele>
        <time>2021-06-11T15:27:41Z</time>
      </trkpt>
      <trkpt lat="37.145912" lon="-1.838476">
        <ele>52.444</ele>
        <time>2021-06-11T15:27:43Z</time>
      </trkpt>
      <trkpt lat="37.14558" lon="-1.838365">
        <ele>52.599</ele>
        <time>2021-06-11T15:27:45Z</time>
      </trkpt>
      <trkpt lat="37.145229" lon="-1.838336">
        <ele>52.730</ele>
        <time>2021-06-11T15:27:47Z</time>
      </trkpt>
      <trkpt lat="37.144866" lon="-1.838352">
        <ele>51.894</ele>
        <time>2021-06-11T15:27:49Z</time>
      </trkpt>
      <trkpt lat="37.144682" lon="-1.838378">
        <ele>51.187</ele>
        <time>2021-06-11T15:27:50Z</time>
      </trkpt>
      <trkpt lat="37.144496" lon="-1.838406">
        <ele>50.678</ele>
        <time>2021-06-11T15:27:51Z</time>
      </trkpt>
      <trkpt lat="37.144308" lon="-1.838436">
        <ele>50.433</ele>
        <time>2021-06-11T15:27:52Z</time>
      </trkpt>
      <trkpt lat="37.144117" lon="-1.838469">
        <ele>49.826</ele>
        <time>2021-06-11T15:27:53Z</time>
      </trkpt>
      <trkpt lat="37.143735" lon="-1.838533">
        <ele>49.008</ele>
        <time>2021-06-11T15:27:55Z</time>
      </trkpt>
      <trkpt lat="37.143542" lon="-1.838563">
        <ele>48.574</ele>
        <time>2021-06-11T15:27:56Z</time>
      </trkpt>
      <trkpt lat="37.143347" lon="-1.83859">
        <ele>47.992</ele>
        <time>2021-06-11T15:27:57Z</time>
      </trkpt>
      <trkpt lat="37.14296" lon="-1.838652">
        <ele>47.062</ele>
        <time>2021-06-11T15:27:59Z</time>
      </trkpt>
      <trkpt lat="37.142765" lon="-1.838681">
        <ele>46.190</ele>
        <time>2021-06-11T15:28:00Z</time>
      </trkpt>
      <trkpt lat="37.142386" lon="-1.838735">
        <ele>45.295</ele>
        <time>2021-06-11T15:28:02Z</time>
      </trkpt>
      <trkpt lat="37.142202" lon="-1.838762">
        <ele>44.626</ele>
        <time>2021-06-11T15:28:03Z</time>
      </trkpt>
      <trkpt lat="37.141839" lon="-1.838813">
        <ele>44.080</ele>
        <time>2021-06-11T15:28:05Z</time>
      </trkpt>
      <trkpt lat="37.141472" lon="-1.838858">
        <ele>43.533</ele>
        <time>2021-06-11T15:28:07Z</time>
      </trkpt>
      <trkpt lat="37.141289" lon="-1.838887">
        <ele>43.119</ele>
        <time>2021-06-11T15:28:08Z</time>
      </trkpt>
      <trkpt lat="37.140933" lon="-1.838955">
        <ele>43.109</ele>
        <time>2021-06-11T15:28:10Z</time>
      </trkpt>
      <trkpt lat="37.140758" lon="-1.838985">
        <ele>43.119</ele>
        <time>2021-06-11T15:28:11Z</time>
      </trkpt>
      <trkpt lat="37.140417" lon="-1.839033">
        <ele>43.408</ele>
        <time>2021-06-11T15:28:13Z</time>
      </trkpt>
      <trkpt lat="37.140101" lon="-1.839081">
        <ele>43.588</ele>
        <time>2021-06-11T15:28:15Z</time>
      </trkpt>
      <trkpt lat="37.13981" lon="-1.839121">
        <ele>43.736</ele>
        <time>2021-06-11T15:28:17Z</time>
      </trkpt>
      <trkpt lat="37.13955" lon="-1.839153">
        <ele>44.316</ele>
        <time>2021-06-11T15:28:19Z</time>
      </trkpt>
      <trkpt lat="37.13943" lon="-1.839167">
        <ele>44.864</ele>
        <time>2021-06-11T15:28:20Z</time>
      </trkpt>
      <trkpt lat="37.139317" lon="-1.839178">
        <ele>45.229</ele>
        <time>2021-06-11T15:28:21Z</time>
      </trkpt>
      <trkpt lat="37.139117" lon="-1.839206">
        <ele>45.590</ele>
        <time>2021-06-11T15:28:23Z</time>
      </trkpt>
      <trkpt lat="37.138965" lon="-1.839274">
        <ele>45.994</ele>
        <time>2021-06-11T15:28:25Z</time>
      </trkpt>
      <trkpt lat="37.138885" lon="-1.839424">
        <ele>46.427</ele>
        <time>2021-06-11T15:28:27Z</time>
      </trkpt>
      <trkpt lat="37.138864" lon="-1.83952">
        <ele>46.674</ele>
        <time>2021-06-11T15:28:28Z</time>
      </trkpt>
      <trkpt lat="37.138887" lon="-1.839725">
        <ele>47.056</ele>
        <time>2021-06-11T15:28:30Z</time>
      </trkpt>
      <trkpt lat="37.138987" lon="-1.839935">
        <ele>47.821</ele>
        <time>2021-06-11T15:28:32Z</time>
      </trkpt>
      <trkpt lat="37.139038" lon="-1.840049">
        <ele>48.508</ele>
        <time>2021-06-11T15:28:33Z</time>
      </trkpt>
      <trkpt lat="37.139091" lon="-1.840312">
        <ele>49.394</ele>
        <time>2021-06-11T15:28:35Z</time>
      </trkpt>
      <trkpt lat="37.139099" lon="-1.840456">
        <ele>49.912</ele>
        <time>2021-06-11T15:28:36Z</time>
      </trkpt>
      <trkpt lat="37.139074" lon="-1.84075">
        <ele>50.882</ele>
        <time>2021-06-11T15:28:38Z</time>
      </trkpt>
      <trkpt lat="37.139052" lon="-1.841045">
        <ele>52.370</ele>
        <time>2021-06-11T15:28:40Z</time>
      </trkpt>
      <trkpt lat="37.139043" lon="-1.841347">
        <ele>53.815</ele>
        <time>2021-06-11T15:28:42Z</time>
      </trkpt>
      <trkpt lat="37.139043" lon="-1.841499">
        <ele>55.176</ele>
        <time>2021-06-11T15:28:43Z</time>
      </trkpt>
      <trkpt lat="37.139049" lon="-1.841807">
        <ele>56.770</ele>
        <time>2021-06-11T15:28:45Z</time>
      </trkpt>
      <trkpt lat="37.139063" lon="-1.842118">
        <ele>58.263</ele>
        <time>2021-06-11T15:28:47Z</time>
      </trkpt>
      <trkpt lat="37.139087" lon="-1.842423">
        <ele>60.164</ele>
        <time>2021-06-11T15:28:49Z</time>
      </trkpt>
      <trkpt lat="37.139125" lon="-1.842721">
        <ele>61.806</ele>
        <time>2021-06-11T15:28:51Z</time>
      </trkpt>
      <trkpt lat="37.139141" lon="-1.842873">
        <ele>63.116</ele>
        <time>2021-06-11T15:28:52Z</time>
      </trkpt>
      <trkpt lat="37.139138" lon="-1.843161">
        <ele>64.108</ele>
        <time>2021-06-11T15:28:54Z</time>
      </trkpt>
      <trkpt lat="37.139115" lon="-1.843301">
        <ele>65.293</ele>
        <time>2021-06-11T15:28:55Z</time>
      </trkpt>
      <trkpt lat="37.139075" lon="-1.843438">
        <ele>66.051</ele>
        <time>2021-06-11T15:28:56Z</time>
      </trkpt>
      <trkpt lat="37.139029" lon="-1.843569">
        <ele>66.991</ele>
        <time>2021-06-11T15:28:57Z</time>
      </trkpt>
      <trkpt lat="37.13896" lon="-1.84385">
        <ele>68.359</ele>
        <time>2021-06-11T15:28:59Z</time>
      </trkpt>
      <trkpt lat="37.138949" lon="-1.843999">
        <ele>70.484</ele>
        <time>2021-06-11T15:29:00Z</time>
      </trkpt>
      <trkpt lat="37.138984" lon="-1.844289">
        <ele>72.515</ele>
        <time>2021-06-11T15:29:02Z</time>
      </trkpt>
      <trkpt lat="37.139032" lon="-1.844426">
        <ele>73.979</ele>
        <time>2021-06-11T15:29:03Z</time>
      </trkpt>
      <trkpt lat="37.139174" lon="-1.844665">
        <ele>75.962</ele>
        <time>2021-06-11T15:29:05Z</time>
      </trkpt>
      <trkpt lat="37.139256" lon="-1.844775">
        <ele>77.025</ele>
        <time>2021-06-11T15:29:06Z</time>
      </trkpt>
      <trkpt lat="37.139346" lon="-1.844878">
        <ele>78.026</ele>
        <time>2021-06-11T15:29:07Z</time>
      </trkpt>
      <trkpt lat="37.139495" lon="-1.845107">
        <ele>79.408</ele>
        <time>2021-06-11T15:29:09Z</time>
      </trkpt>
      <trkpt lat="37.139548" lon="-1.845237">
        <ele>80.308</ele>
        <time>2021-06-11T15:29:10Z</time>
      </trkpt>
      <trkpt lat="37.139639" lon="-1.845484">
        <ele>82.289</ele>
        <time>2021-06-11T15:29:12Z</time>
      </trkpt>
      <trkpt lat="37.139797" lon="-1.845655">
        <ele>84.097</ele>
        <time>2021-06-11T15:29:14Z</time>
      </trkpt>
      <trkpt lat="37.139992" lon="-1.845757">
        <ele>85.687</ele>
        <time>2021-06-11T15:29:16Z</time>
      </trkpt>
      <trkpt lat="37.140157" lon="-1.845881">
        <ele>86.815</ele>
        <time>2021-06-11T15:29:18Z</time>
      </trkpt>
      <trkpt lat="37.140216" lon="-1.845965">
        <ele>87.470</ele>
        <time>2021-06-11T15:29:19Z</time>
      </trkpt>
      <trkpt lat="37.140258" lon="-1.846183">
        <ele>88.331</ele>
        <time>2021-06-11T15:29:21Z</time>
      </trkpt>
      <trkpt lat="37.14027" lon="-1.846295">
        <ele>88.915</ele>
        <time>2021-06-11T15:29:22Z</time>
      </trkpt>
      <trkpt lat="37.140274" lon="-1.84653">
        <ele>90.128</ele>
        <time>2021-06-11T15:29:24Z</time>
      </trkpt>
      <trkpt lat="37.140283" lon="-1.846757">
        <ele>91.979</ele>
        <time>2021-06-11T15:29:26Z</time>
      </trkpt>
      <trkpt lat="37.140285" lon="-1.846863">
        <ele>93.205</ele>
        <time>2021-06-11T15:29:27Z</time>
      </trkpt>
      <trkpt lat="37.140272" lon="-1.84704">
        <ele>94.825</ele>
        <time>2021-06-11T15:29:29Z</time>
      </trkpt>
      <trkpt lat="37.140253" lon="-1.84717">
        <ele>96.008</ele>
        <time>2021-06-11T15:29:31Z</time>
      </trkpt>
      <trkpt lat="37.140254" lon="-1.847231">
        <ele>97.014</ele>
        <time>2021-06-11T15:29:32Z</time>
      </trkpt>
      <trkpt lat="37.140291" lon="-1.847331">
        <ele>97.562</ele>
        <time>2021-06-11T15:29:34Z</time>
      </trkpt>
      <trkpt lat="37.140323" lon="-1.84739">
        <ele>97.962</ele>
        <time>2021-06-11T15:29:36Z</time>
      </trkpt>
      <trkpt lat="37.14031" lon="-1.847458">
        <ele>98.040</ele>
        <time>2021-06-11T15:29:38Z</time>
      </trkpt>
      <trkpt lat="37.140242" lon="-1.847513">
        <ele>98.315</ele>
        <time>2021-06-11T15:29:40Z</time>
      </trkpt>
      <trkpt lat="37.140201" lon="-1.847547">
        <ele>98.936</ele>
        <time>2021-06-11T15:29:41Z</time>
      </trkpt>
      <trkpt lat="37.140166" lon="-1.847597">
        <ele>99.310</ele>
        <time>2021-06-11T15:29:42Z</time>
      </trkpt>
      <trkpt lat="37.140137" lon="-1.847679">
        <ele>103.243</ele>
        <time>2021-06-11T15:29:44Z</time>
      </trkpt>
      <trkpt lat="37.140119" lon="-1.847742">
        <ele>105.671</ele>
        <time>2021-06-11T15:29:46Z</time>
      </trkpt>
      <trkpt lat="37.140101" lon="-1.847827">
        <ele>107.041</ele>
        <time>2021-06-11T15:29:48Z</time>
      </trkpt>
      <trkpt lat="37.140069" lon="-1.847941">
        <ele>107.915</ele>
        <time>2021-06-11T15:29:50Z</time>
      </trkpt>
      <trkpt lat="37.140042" lon="-1.848033">
        <ele>108.408</ele>
        <time>2021-06-11T15:29:52Z</time>
      </trkpt>
      <trkpt lat="37.140001" lon="-1.848125">
        <ele>108.744</ele>
        <time>2021-06-11T15:29:54Z</time>
      </trkpt>
      <trkpt lat="37.139957" lon="-1.848198">
        <ele>108.952</ele>
        <time>2021-06-11T15:29:56Z</time>
      </trkpt>
      <trkpt lat="37.139917" lon="-1.848265">
        <ele>109.032</ele>
        <time>2021-06-11T15:29:58Z</time>
      </trkpt>
      <trkpt lat="37.139862" lon="-1.848369">
        <ele>109.050</ele>
        <time>2021-06-11T15:30:00Z</time>
      </trkpt>
      <trkpt lat="37.13984" lon="-1.848432">
        <ele>109.095</ele>
        <time>2021-06-11T15:30:01Z</time>
      </trkpt>
      <trkpt lat="37.139817" lon="-1.8485">
        <ele>109.096</ele>
        <time>2021-06-11T15:30:02Z</time>
      </trkpt>
      <trkpt lat="37.139777" lon="-1.848647">
        <ele>109.070</ele>
        <time>2021-06-11T15:30:04Z</time>
      </trkpt>
      <trkpt lat="37.139763" lon="-1.848723">
        <ele>109.093</ele>
        <time>2021-06-11T15:30:05Z</time>
      </trkpt>
      <trkpt lat="37.139737" lon="-1.8489">
        <ele>109.035</ele>
        <time>2021-06-11T15:30:07Z</time>
      </trkpt>
      <trkpt lat="37.139707" lon="-1.849075">
        <ele>109.086</ele>
        <time>2021-06-11T15:30:09Z</time>
      </trkpt>
      <trkpt lat="37.139693" lon="-1.849169">
        <ele>109.014</ele>
        <time>2021-06-11T15:30:10Z</time>
      </trkpt>
      <trkpt lat="37.139682" lon="-1.849264">
        <ele>109.008</ele>
        <time>2021-06-11T15:30:11Z</time>
      </trkpt>
      <trkpt lat="37.139676" lon="-1.849458">
        <ele>109.070</ele>
        <time>2021-06-11T15:30:13Z</time>
      </trkpt>
      <trkpt lat="37.139731" lon="-1.849623">
        <ele>109.058</ele>
        <time>2021-06-11T15:30:15Z</time>
      </trkpt>
      <trkpt lat="37.139781" lon="-1.849683">
        <ele>109.088</ele>
        <time>2021-06-11T15:30:16Z</time>
      </trkpt>
      <trkpt lat="37.139848" lon="-1.849705">
        <ele>109.046</ele>
        <time>2021-06-11T15:30:17Z</time>
      </trkpt>
      <trkpt lat="37.139919" lon="-1.849691">
        <ele>109.071</ele>
        <time>2021-06-11T15:30:18Z</time>
      </trkpt>
      <trkpt lat="37.139989" lon="-1.849671">
        <ele>109.082</ele>
        <time>2021-06-11T15:30:19Z</time>
      </trkpt>
      <trkpt lat="37.140122" lon="-1.849572">
        <ele>109.026</ele>
        <time>2021-06-11T15:30:21Z</time>
      </trkpt>
      <trkpt lat="37.140191" lon="-1.849522">
        <ele>109.039</ele>
        <time>2021-06-11T15:30:22Z</time>
      </trkpt>
      <trkpt lat="37.140322" lon="-1.849401">
        <ele>109.045</ele>
        <time>2021-06-11T15:30:24Z</time>
      </trkpt>
      <trkpt lat="37.140377" lon="-1.849334">
        <ele>109.047</ele>
        <time>2021-06-11T15:30:25Z</time>
      </trkpt>
      <trkpt lat="37.140426" lon="-1.849272">
        <ele>109.011</ele>
        <time>2021-06-11T15:30:26Z</time>
      </trkpt>
      <trkpt lat="37.14051" lon="-1.849141">
        <ele>109.008</ele>
        <time>2021-06-11T15:30:28Z</time>
      </trkpt>
      <trkpt lat="37.140559" lon="-1.849077">
        <ele>109.051</ele>
        <time>2021-06-11T15:30:29Z</time>
      </trkpt>
      <trkpt lat="37.140687" lon="-1.848995">
        <ele>109.079</ele>
        <time>2021-06-11T15:30:31Z</time>
      </trkpt>
      <trkpt lat="37.140756" lon="-1.84899">
        <ele>109.059</ele>
        <time>2021-06-11T15:30:32Z</time>
      </trkpt>
      <trkpt lat="37.140894" lon="-1.849036">
        <ele>109.017</ele>
        <time>2021-06-11T15:30:34Z</time>
      </trkpt>
      <trkpt lat="37.141031" lon="-1.849128">
        <ele>109.082</ele>
        <time>2021-06-11T15:30:36Z</time>
      </trkpt>
      <trkpt lat="37.141097" lon="-1.849176">
        <ele>109.033</ele>
        <time>2021-06-11T15:30:37Z</time>
      </trkpt>
      <trkpt lat="37.141236" lon="-1.849254">
        <ele>109.017</ele>
        <time>2021-06-11T15:30:39Z</time>
      </trkpt>
      <trkpt lat="37.141374" lon="-1.849354">
        <ele>109.030</ele>
        <time>2021-06-11T15:30:41Z</time>
      </trkpt>
      <trkpt lat="37.141513" lon="-1.849462">
        <ele>113.079</ele>
        <time>2021-06-11T15:30:43Z</time>
      </trkpt>
      <trkpt lat="37.14165" lon="-1.849553">
        <ele>117.005</ele>
        <time>2021-06-11T15:30:45Z</time>
      </trkpt>
      <trkpt lat="37.141718" lon="-1.849589">
        <ele>121.025</ele>
        <time>2021-06-11T15:30:46Z</time>
      </trkpt>
      <trkpt lat="37.141783" lon="-1.849631">
        <ele>125.008</ele>
        <time>2021-06-11T15:30:47Z</time>
      </trkpt>
      <trkpt lat="37.141839" lon="-1.849686">
        <ele>129.054</ele>
        <time>2021-06-11T15:30:48Z</time>
      </trkpt>
      <trkpt lat="37.141887" lon="-1.849748">
        <ele>133.082</ele>
        <time>2021-06-11T15:30:49Z</time>
      </trkpt>
      <trkpt lat="37.141953" lon="-1.849915">
        <ele>137.012</ele>
        <time>2021-06-11T15:30:51Z</time>
      </trkpt>
      <trkpt lat="37.141969" lon="-1.850088">
        <ele>141.010</ele>
        <time>2021-06-11T15:30:53Z</time>
      </trkpt>
      <trkpt lat="37.141941" lon="-1.850266">
        <ele>144.445</ele>
        <time>2021-06-11T15:30:55Z</time>
      </trkpt>
      <trkpt lat="37.141921" lon="-1.850359">
        <ele>146.976</ele>
        <time>2021-06-11T15:30:56Z</time>
      </trkpt>
      <trkpt lat="37.141858" lon="-1.85056">
        <ele>149.330</ele>
        <time>2021-06-11T15:30:58Z</time>
      </trkpt>
      <trkpt lat="37.141846" lon="-1.850652">
        <ele>151.443</ele>
        <time>2021-06-11T15:30:59Z</time>
      </trkpt>
      <trkpt lat="37.141833" lon="-1.850743">
        <ele>153.176</ele>
        <time>2021-06-11T15:31:00Z</time>
      </trkpt>
      <trkpt lat="37.141801" lon="-1.85092">
        <ele>154.990</ele>
        <time>2021-06-11T15:31:02Z</time>
      </trkpt>
      <trkpt lat="37.141768" lon="-1.851">
        <ele>156.619</ele>
        <time>2021-06-11T15:31:03Z</time>
      </trkpt>
      <trkpt lat="37.141655" lon="-1.851116">
        <ele>158.208</ele>
        <time>2021-06-11T15:31:05Z</time>
      </trkpt>
      <trkpt lat="37.141591" lon="-1.851155">
        <ele>159.494</ele>
        <time>2021-06-11T15:31:06Z</time>
      </trkpt>
      <trkpt lat="37.141532" lon="-1.851186">
        <ele>160.432</ele>
        <time>2021-06-11T15:31:07Z</time>
      </trkpt>
      <trkpt lat="37.141431" lon="-1.851224">
        <ele>161.382</ele>
        <time>2021-06-11T15:31:09Z</time>
      </trkpt>
      <trkpt lat="37.141353" lon="-1.851186">
        <ele>162.690</ele>
        <time>2021-06-11T15:31:11Z</time>
      </trkpt>
      <trkpt lat="37.141302" lon="-1.851175">
        <ele>163.385</ele>
        <time>2021-06-11T15:31:12Z</time>
      </trkpt>
      <trkpt lat="37.141189" lon="-1.851208">
        <ele>165.036</ele>
        <time>2021-06-11T15:31:14Z</time>
      </trkpt>
      <trkpt lat="37.141129" lon="-1.851239">
        <ele>165.860</ele>
        <time>2021-06-11T15:31:15Z</time>
      </trkpt>
      <trkpt lat="37.14101" lon="-1.851297">
        <ele>166.653</ele>
        <time>2021-06-11T15:31:17Z</time>
      </trkpt>
      <trkpt lat="37.140963" lon="-1.851308">
        <ele>167.672</ele>
        <time>2021-06-11T15:31:18Z</time>
      </trkpt>
      <trkpt lat="37.140905" lon="-1.85131">
        <ele>168.513</ele>
        <time>2021-06-11T15:31:20Z</time>
      </trkpt>
      <trkpt lat="37.14086" lon="-1.851308">
        <ele>170.214</ele>
        <time>2021-06-11T15:31:22Z</time>
      </trkpt>
      <trkpt lat="37.140815" lon="-1.851328">
        <ele>171.108</ele>
        <time>2021-06-11T15:31:24Z</time>
      </trkpt>
      <trkpt lat="37.140774" lon="-1.851355">
        <ele>172.054</ele>
        <time>2021-06-11T15:31:27Z</time>
      </trkpt>
      <trkpt lat="37.140724" lon="-1.851381">
        <ele>172.652</ele>
        <time>2021-06-11T15:32:13Z</time>
      </trkpt>
      <trkpt lat="37.140689" lon="-1.851422">
        <ele>173.032</ele>
        <time>2021-06-11T15:32:16Z</time>
      </trkpt>
      <trkpt lat="37.140733" lon="-1.851408">
        <ele>173.320</ele>
        <time>2021-06-11T15:33:38Z</time>
      </trkpt>
      <trkpt lat="37.140779" lon="-1.851403">
        <ele>173.455</ele>
        <time>2021-06-11T15:33:43Z</time>
      </trkpt>
      <trkpt lat="37.143927" lon="-1.851222">
        <ele>113.916</ele>
        <time>2021-06-11T15:55:38Z</time>
      </trkpt>
      <trkpt lat="37.143945" lon="-1.851054">
        <ele>159.030</ele>
        <time>2021-06-11T15:55:40Z</time>
      </trkpt>
      <trkpt lat="37.143957" lon="-1.850969">
        <ele>165.493</ele>
        <time>2021-06-11T15:55:41Z</time>
      </trkpt>
      <trkpt lat="37.143964" lon="-1.850797">
        <ele>161.429</ele>
        <time>2021-06-11T15:55:43Z</time>
      </trkpt>
      <trkpt lat="37.143968" lon="-1.850709">
        <ele>157.400</ele>
        <time>2021-06-11T15:55:44Z</time>
      </trkpt>
      <trkpt lat="37.143966" lon="-1.850615">
        <ele>153.420</ele>
        <time>2021-06-11T15:55:45Z</time>
      </trkpt>
      <trkpt lat="37.14393" lon="-1.850424">
        <ele>149.408</ele>
        <time>2021-06-11T15:55:47Z</time>
      </trkpt>
      <trkpt lat="37.143893" lon="-1.85033">
        <ele>145.449</ele>
        <time>2021-06-11T15:55:48Z</time>
      </trkpt>
      <trkpt lat="37.143765" lon="-1.850168">
        <ele>141.477</ele>
        <time>2021-06-11T15:55:50Z</time>
      </trkpt>
      <trkpt lat="37.143551" lon="-1.849949">
        <ele>112.137</ele>
        <time>2021-06-11T15:55:53Z</time>
      </trkpt>
      <trkpt lat="37.143477" lon="-1.849749">
        <ele>137.495</ele>
        <time>2021-06-11T15:55:55Z</time>
      </trkpt>
      <trkpt lat="37.143463" lon="-1.849641">
        <ele>133.470</ele>
        <time>2021-06-11T15:55:56Z</time>
      </trkpt>
      <trkpt lat="37.143457" lon="-1.849539">
        <ele>129.481</ele>
        <time>2021-06-11T15:55:57Z</time>
      </trkpt>
      <trkpt lat="37.143423" lon="-1.84936">
        <ele>125.485</ele>
        <time>2021-06-11T15:55:59Z</time>
      </trkpt>
      <trkpt lat="37.143391" lon="-1.849275">
        <ele>121.478</ele>
        <time>2021-06-11T15:56:00Z</time>
      </trkpt>
      <trkpt lat="37.143346" lon="-1.849195">
        <ele>117.478</ele>
        <time>2021-06-11T15:56:01Z</time>
      </trkpt>
      <trkpt lat="37.143293" lon="-1.849121">
        <ele>113.433</ele>
        <time>2021-06-11T15:56:02Z</time>
      </trkpt>
      <trkpt lat="37.143185" lon="-1.848979">
        <ele>109.426</ele>
        <time>2021-06-11T15:56:04Z</time>
      </trkpt>
      <trkpt lat="37.143134" lon="-1.848907">
        <ele>105.408</ele>
        <time>2021-06-11T15:56:05Z</time>
      </trkpt>
      <trkpt lat="37.143082" lon="-1.848839">
        <ele>101.444</ele>
        <time>2021-06-11T15:56:06Z</time>
      </trkpt>
      <trkpt lat="37.142975" lon="-1.848702">
        <ele>97.462</ele>
        <time>2021-06-11T15:56:08Z</time>
      </trkpt>
      <trkpt lat="37.142916" lon="-1.848646">
        <ele>93.462</ele>
        <time>2021-06-11T15:56:09Z</time>
      </trkpt>
      <trkpt lat="37.142848" lon="-1.848596">
        <ele>89.480</ele>
        <time>2021-06-11T15:56:10Z</time>
      </trkpt>
      <trkpt lat="37.142694" lon="-1.848514">
        <ele>85.465</ele>
        <time>2021-06-11T15:56:12Z</time>
      </trkpt>
      <trkpt lat="37.142532" lon="-1.848434">
        <ele>82.316</ele>
        <time>2021-06-11T15:56:14Z</time>
      </trkpt>
      <trkpt lat="37.142416" lon="-1.848292">
        <ele>80.920</ele>
        <time>2021-06-11T15:56:16Z</time>
      </trkpt>
      <trkpt lat="37.142372" lon="-1.848119">
        <ele>80.333</ele>
        <time>2021-06-11T15:56:18Z</time>
      </trkpt>
      <trkpt lat="37.142369" lon="-1.848029">
        <ele>80.093</ele>
        <time>2021-06-11T15:56:19Z</time>
      </trkpt>
      <trkpt lat="37.142379" lon="-1.847859">
        <ele>80.265</ele>
        <time>2021-06-11T15:56:21Z</time>
      </trkpt>
      <trkpt lat="37.142395" lon="-1.847774">
        <ele>80.421</ele>
        <time>2021-06-11T15:56:22Z</time>
      </trkpt>
      <trkpt lat="37.142406" lon="-1.847684">
        <ele>80.808</ele>
        <time>2021-06-11T15:56:23Z</time>
      </trkpt>
      <trkpt lat="37.142402" lon="-1.847491">
        <ele>81.556</ele>
        <time>2021-06-11T15:56:25Z</time>
      </trkpt>
      <trkpt lat="37.142368" lon="-1.847395">
        <ele>81.924</ele>
        <time>2021-06-11T15:56:26Z</time>
      </trkpt>
      <trkpt lat="37.142253" lon="-1.847242">
        <ele>82.554</ele>
        <time>2021-06-11T15:56:28Z</time>
      </trkpt>
      <trkpt lat="37.142089" lon="-1.847154">
        <ele>83.332</ele>
        <time>2021-06-11T15:56:30Z</time>
      </trkpt>
      <trkpt lat="37.141997" lon="-1.847128">
        <ele>83.837</ele>
        <time>2021-06-11T15:56:31Z</time>
      </trkpt>
      <trkpt lat="37.1418" lon="-1.847104">
        <ele>84.928</ele>
        <time>2021-06-11T15:56:33Z</time>
      </trkpt>
      <trkpt lat="37.141603" lon="-1.847121">
        <ele>86.442</ele>
        <time>2021-06-11T15:56:35Z</time>
      </trkpt>
      <trkpt lat="37.141509" lon="-1.847175">
        <ele>87.325</ele>
        <time>2021-06-11T15:56:36Z</time>
      </trkpt>
      <trkpt lat="37.141425" lon="-1.847256">
        <ele>87.968</ele>
        <time>2021-06-11T15:56:37Z</time>
      </trkpt>
      <trkpt lat="37.141286" lon="-1.847454">
        <ele>89.142</ele>
        <time>2021-06-11T15:56:39Z</time>
      </trkpt>
      <trkpt lat="37.141152" lon="-1.847649">
        <ele>90.626</ele>
        <time>2021-06-11T15:56:41Z</time>
      </trkpt>
      <trkpt lat="37.141021" lon="-1.847802">
        <ele>92.008</ele>
        <time>2021-06-11T15:56:43Z</time>
      </trkpt>
      <trkpt lat="37.140955" lon="-1.847855">
        <ele>93.093</ele>
        <time>2021-06-11T15:56:44Z</time>
      </trkpt>
      <trkpt lat="37.140817" lon="-1.8479">
        <ele>94.031</ele>
        <time>2021-06-11T15:56:46Z</time>
      </trkpt>
      <trkpt lat="37.140744" lon="-1.847891">
        <ele>94.751</ele>
        <time>2021-06-11T15:56:47Z</time>
      </trkpt>
      <trkpt lat="37.140599" lon="-1.847821">
        <ele>95.619</ele>
        <time>2021-06-11T15:56:49Z</time>
      </trkpt>
      <trkpt lat="37.140469" lon="-1.8477">
        <ele>96.224</ele>
        <time>2021-06-11T15:56:51Z</time>
      </trkpt>
      <trkpt lat="37.140412" lon="-1.84764">
        <ele>96.975</ele>
        <time>2021-06-11T15:56:52Z</time>
      </trkpt>
      <trkpt lat="37.140327" lon="-1.847545">
        <ele>97.419</ele>
        <time>2021-06-11T15:56:54Z</time>
      </trkpt>
      <trkpt lat="37.140285" lon="-1.847491">
        <ele>98.152</ele>
        <time>2021-06-11T15:56:56Z</time>
      </trkpt>
      <trkpt lat="37.140245" lon="-1.847459">
        <ele>99.075</ele>
        <time>2021-06-11T15:56:59Z</time>
      </trkpt>
      <trkpt lat="37.140199" lon="-1.847401">
        <ele>99.628</ele>
        <time>2021-06-11T15:57:01Z</time>
      </trkpt>
      <trkpt lat="37.140187" lon="-1.847337">
        <ele>99.720</ele>
        <time>2021-06-11T15:57:02Z</time>
      </trkpt>
      <trkpt lat="37.140205" lon="-1.84718">
        <ele>99.008</ele>
        <time>2021-06-11T15:57:04Z</time>
      </trkpt>
      <trkpt lat="37.140235" lon="-1.847012">
        <ele>98.564</ele>
        <time>2021-06-11T15:57:06Z</time>
      </trkpt>
      <trkpt lat="37.140243" lon="-1.846931">
        <ele>97.982</ele>
        <time>2021-06-11T15:57:07Z</time>
      </trkpt>
      <trkpt lat="37.14025" lon="-1.846855">
        <ele>96.942</ele>
        <time>2021-06-11T15:57:08Z</time>
      </trkpt>
      <trkpt lat="37.140255" lon="-1.846682">
        <ele>95.930</ele>
        <time>2021-06-11T15:57:10Z</time>
      </trkpt>
      <trkpt lat="37.140247" lon="-1.846576">
        <ele>95.155</ele>
        <time>2021-06-11T15:57:11Z</time>
      </trkpt>
      <trkpt lat="37.140222" lon="-1.846347">
        <ele>94.716</ele>
        <time>2021-06-11T15:57:13Z</time>
      </trkpt>
      <trkpt lat="37.140209" lon="-1.84623">
        <ele>94.030</ele>
        <time>2021-06-11T15:57:14Z</time>
      </trkpt>
      <trkpt lat="37.140177" lon="-1.846004">
        <ele>93.163</ele>
        <time>2021-06-11T15:57:16Z</time>
      </trkpt>
      <trkpt lat="37.14009" lon="-1.845818">
        <ele>92.021</ele>
        <time>2021-06-11T15:57:18Z</time>
      </trkpt>
      <trkpt lat="37.140021" lon="-1.845748">
        <ele>91.241</ele>
        <time>2021-06-11T15:57:19Z</time>
      </trkpt>
      <trkpt lat="37.139856" lon="-1.845646">
        <ele>90.305</ele>
        <time>2021-06-11T15:57:21Z</time>
      </trkpt>
      <trkpt lat="37.139771" lon="-1.845602">
        <ele>89.608</ele>
        <time>2021-06-11T15:57:22Z</time>
      </trkpt>
      <trkpt lat="37.139695" lon="-1.845552">
        <ele>88.639</ele>
        <time>2021-06-11T15:57:23Z</time>
      </trkpt>
      <trkpt lat="37.139573" lon="-1.845392">
        <ele>87.317</ele>
        <time>2021-06-11T15:57:25Z</time>
      </trkpt>
      <trkpt lat="37.13949" lon="-1.845171">
        <ele>85.717</ele>
        <time>2021-06-11T15:57:27Z</time>
      </trkpt>
      <trkpt lat="37.139397" lon="-1.844942">
        <ele>83.855</ele>
        <time>2021-06-11T15:57:29Z</time>
      </trkpt>
      <trkpt lat="37.139256" lon="-1.844742">
        <ele>82.260</ele>
        <time>2021-06-11T15:57:31Z</time>
      </trkpt>
      <trkpt lat="37.139177" lon="-1.844651">
        <ele>80.981</ele>
        <time>2021-06-11T15:57:32Z</time>
      </trkpt>
      <trkpt lat="37.139033" lon="-1.84446">
        <ele>79.455</ele>
        <time>2021-06-11T15:57:34Z</time>
      </trkpt>
      <trkpt lat="37.138982" lon="-1.84435">
        <ele>78.528</ele>
        <time>2021-06-11T15:57:35Z</time>
      </trkpt>
      <trkpt lat="37.138947" lon="-1.844228">
        <ele>77.288</ele>
        <time>2021-06-11T15:57:36Z</time>
      </trkpt>
      <trkpt lat="37.138911" lon="-1.843957">
        <ele>75.924</ele>
        <time>2021-06-11T15:57:38Z</time>
      </trkpt>
      <trkpt lat="37.138918" lon="-1.843816">
        <ele>74.826</ele>
        <time>2021-06-11T15:57:39Z</time>
      </trkpt>
      <trkpt lat="37.138972" lon="-1.843546">
        <ele>73.308</ele>
        <time>2021-06-11T15:57:41Z</time>
      </trkpt>
      <trkpt lat="37.139058" lon="-1.843282">
        <ele>71.615</ele>
        <time>2021-06-11T15:57:43Z</time>
      </trkpt>
      <trkpt lat="37.139099" lon="-1.843145">
        <ele>70.083</ele>
        <time>2021-06-11T15:57:44Z</time>
      </trkpt>
      <trkpt lat="37.139129" lon="-1.842865">
        <ele>68.223</ele>
        <time>2021-06-11T15:57:46Z</time>
      </trkpt>
      <trkpt lat="37.139124" lon="-1.842579">
        <ele>65.581</ele>
        <time>2021-06-11T15:57:48Z</time>
      </trkpt>
      <trkpt lat="37.13908" lon="-1.842301">
        <ele>63.466</ele>
        <time>2021-06-11T15:57:50Z</time>
      </trkpt>
      <trkpt lat="37.139046" lon="-1.84202">
        <ele>61.497</ele>
        <time>2021-06-11T15:57:52Z</time>
      </trkpt>
      <trkpt lat="37.139038" lon="-1.841876">
        <ele>60.161</ele>
        <time>2021-06-11T15:57:53Z</time>
      </trkpt>
      <trkpt lat="37.139034" lon="-1.841734">
        <ele>59.024</ele>
        <time>2021-06-11T15:57:54Z</time>
      </trkpt>
      <trkpt lat="37.139036" lon="-1.841592">
        <ele>57.671</ele>
        <time>2021-06-11T15:57:55Z</time>
      </trkpt>
      <trkpt lat="37.139032" lon="-1.84131">
        <ele>56.641</ele>
        <time>2021-06-11T15:57:57Z</time>
      </trkpt>
      <trkpt lat="37.139033" lon="-1.84117">
        <ele>55.415</ele>
        <time>2021-06-11T15:57:58Z</time>
      </trkpt>
      <trkpt lat="37.13904" lon="-1.840893">
        <ele>54.608</ele>
        <time>2021-06-11T15:58:00Z</time>
      </trkpt>
      <trkpt lat="37.139045" lon="-1.840753">
        <ele>53.594</ele>
        <time>2021-06-11T15:58:01Z</time>
      </trkpt>
      <trkpt lat="37.139059" lon="-1.840478">
        <ele>52.152</ele>
        <time>2021-06-11T15:58:03Z</time>
      </trkpt>
      <trkpt lat="37.139052" lon="-1.840211">
        <ele>51.242</ele>
        <time>2021-06-11T15:58:05Z</time>
      </trkpt>
      <trkpt lat="37.139039" lon="-1.840085">
        <ele>50.790</ele>
        <time>2021-06-11T15:58:06Z</time>
      </trkpt>
      <trkpt lat="37.138971" lon="-1.839863">
        <ele>49.795</ele>
        <time>2021-06-11T15:58:08Z</time>
      </trkpt>
      <trkpt lat="37.138927" lon="-1.839767">
        <ele>49.366</ele>
        <time>2021-06-11T15:58:09Z</time>
      </trkpt>
      <trkpt lat="37.138875" lon="-1.839682">
        <ele>48.860</ele>
        <time>2021-06-11T15:58:10Z</time>
      </trkpt>
      <trkpt lat="37.138754" lon="-1.839559">
        <ele>48.233</ele>
        <time>2021-06-11T15:58:12Z</time>
      </trkpt>
      <trkpt lat="37.138682" lon="-1.839517">
        <ele>48.182</ele>
        <time>2021-06-11T15:58:13Z</time>
      </trkpt>
      <trkpt lat="37.138547" lon="-1.839399">
        <ele>47.743</ele>
        <time>2021-06-11T15:58:15Z</time>
      </trkpt>
      <trkpt lat="37.138504" lon="-1.839306">
        <ele>47.417</ele>
        <time>2021-06-11T15:58:16Z</time>
      </trkpt>
      <trkpt lat="37.138478" lon="-1.8392">
        <ele>47.208</ele>
        <time>2021-06-11T15:58:17Z</time>
      </trkpt>
      <trkpt lat="37.138405" lon="-1.838987">
        <ele>46.935</ele>
        <time>2021-06-11T15:58:19Z</time>
      </trkpt>
      <trkpt lat="37.138333" lon="-1.838889">
        <ele>46.793</ele>
        <time>2021-06-11T15:58:20Z</time>
      </trkpt>
      <trkpt lat="37.138252" lon="-1.838795">
        <ele>46.623</ele>
        <time>2021-06-11T15:58:21Z</time>
      </trkpt>
      <trkpt lat="37.138083" lon="-1.838589">
        <ele>46.021</ele>
        <time>2021-06-11T15:58:23Z</time>
      </trkpt>
      <trkpt lat="37.137917" lon="-1.838404">
        <ele>45.176</ele>
        <time>2021-06-11T15:58:25Z</time>
      </trkpt>
      <trkpt lat="37.137752" lon="-1.83821">
        <ele>44.527</ele>
        <time>2021-06-11T15:58:27Z</time>
      </trkpt>
      <trkpt lat="37.137578" lon="-1.838005">
        <ele>43.361</ele>
        <time>2021-06-11T15:58:29Z</time>
      </trkpt>
      <trkpt lat="37.13739" lon="-1.837802">
        <ele>41.494</ele>
        <time>2021-06-11T15:58:31Z</time>
      </trkpt>
      <trkpt lat="37.137192" lon="-1.837616">
        <ele>39.495</ele>
        <time>2021-06-11T15:58:33Z</time>
      </trkpt>
      <trkpt lat="37.137089" lon="-1.837523">
        <ele>38.449</ele>
        <time>2021-06-11T15:58:34Z</time>
      </trkpt>
      <trkpt lat="37.136985" lon="-1.837436">
        <ele>37.323</ele>
        <time>2021-06-11T15:58:35Z</time>
      </trkpt>
      <trkpt lat="37.136779" lon="-1.837275">
        <ele>36.108</ele>
        <time>2021-06-11T15:58:37Z</time>
      </trkpt>
      <trkpt lat="37.136676" lon="-1.837199">
        <ele>35.256</ele>
        <time>2021-06-11T15:58:38Z</time>
      </trkpt>
      <trkpt lat="37.136474" lon="-1.837063">
        <ele>33.994</ele>
        <time>2021-06-11T15:58:40Z</time>
      </trkpt>
      <trkpt lat="37.136372" lon="-1.837011">
        <ele>32.984</ele>
        <time>2021-06-11T15:58:41Z</time>
      </trkpt>
      <trkpt lat="37.136267" lon="-1.836966">
        <ele>32.372</ele>
        <time>2021-06-11T15:58:42Z</time>
      </trkpt>
      <trkpt lat="37.136047" lon="-1.836878">
        <ele>30.867</ele>
        <time>2021-06-11T15:58:44Z</time>
      </trkpt>
      <trkpt lat="37.13593" lon="-1.836823">
        <ele>29.828</ele>
        <time>2021-06-11T15:58:45Z</time>
      </trkpt>
      <trkpt lat="37.135823" lon="-1.836755">
        <ele>29.642</ele>
        <time>2021-06-11T15:58:46Z</time>
      </trkpt>
      <trkpt lat="37.13573" lon="-1.836664">
        <ele>29.255</ele>
        <time>2021-06-11T15:58:47Z</time>
      </trkpt>
      <trkpt lat="37.135645" lon="-1.83655">
        <ele>28.937</ele>
        <time>2021-06-11T15:58:48Z</time>
      </trkpt>
      <trkpt lat="37.135499" lon="-1.836288">
        <ele>28.449</ele>
        <time>2021-06-11T15:58:50Z</time>
      </trkpt>
      <trkpt lat="37.135445" lon="-1.836137">
        <ele>28.113</ele>
        <time>2021-06-11T15:58:51Z</time>
      </trkpt>
      <trkpt lat="37.135399" lon="-1.835826">
        <ele>27.608</ele>
        <time>2021-06-11T15:58:53Z</time>
      </trkpt>
      <trkpt lat="37.135401" lon="-1.835669">
        <ele>27.170</ele>
        <time>2021-06-11T15:58:54Z</time>
      </trkpt>
      <trkpt lat="37.135411" lon="-1.835514">
        <ele>26.368</ele>
        <time>2021-06-11T15:58:55Z</time>
      </trkpt>
      <trkpt lat="37.135464" lon="-1.835206">
        <ele>25.868</ele>
        <time>2021-06-11T15:58:57Z</time>
      </trkpt>
      <trkpt lat="37.135497" lon="-1.835049">
        <ele>25.586</ele>
        <time>2021-06-11T15:58:58Z</time>
      </trkpt>
      <trkpt lat="37.135524" lon="-1.83489">
        <ele>25.261</ele>
        <time>2021-06-11T15:58:59Z</time>
      </trkpt>
      <trkpt lat="37.135561" lon="-1.834582">
        <ele>25.052</ele>
        <time>2021-06-11T15:59:01Z</time>
      </trkpt>
      <trkpt lat="37.135565" lon="-1.834428">
        <ele>24.616</ele>
        <time>2021-06-11T15:59:02Z</time>
      </trkpt>
      <trkpt lat="37.135553" lon="-1.834276">
        <ele>24.289</ele>
        <time>2021-06-11T15:59:03Z</time>
      </trkpt>
      <trkpt lat="37.135518" lon="-1.834131">
        <ele>23.914</ele>
        <time>2021-06-11T15:59:04Z</time>
      </trkpt>
      <trkpt lat="37.135401" lon="-1.833872">
        <ele>23.854</ele>
        <time>2021-06-11T15:59:06Z</time>
      </trkpt>
      <trkpt lat="37.135249" lon="-1.833657">
        <ele>23.809</ele>
        <time>2021-06-11T15:59:08Z</time>
      </trkpt>
      <trkpt lat="37.135173" lon="-1.833552">
        <ele>23.808</ele>
        <time>2021-06-11T15:59:09Z</time>
      </trkpt>
      <trkpt lat="37.135102" lon="-1.833442">
        <ele>23.648</ele>
        <time>2021-06-11T15:59:10Z</time>
      </trkpt>
      <trkpt lat="37.134961" lon="-1.833222">
        <ele>23.466</ele>
        <time>2021-06-11T15:59:12Z</time>
      </trkpt>
      <trkpt lat="37.134909" lon="-1.8331">
        <ele>23.196</ele>
        <time>2021-06-11T15:59:13Z</time>
      </trkpt>
      <trkpt lat="37.134877" lon="-1.832969">
        <ele>22.794</ele>
        <time>2021-06-11T15:59:14Z</time>
      </trkpt>
      <trkpt lat="37.134843" lon="-1.832698">
        <ele>22.419</ele>
        <time>2021-06-11T15:59:16Z</time>
      </trkpt>
      <trkpt lat="37.134852" lon="-1.832561">
        <ele>22.070</ele>
        <time>2021-06-11T15:59:17Z</time>
      </trkpt>
      <trkpt lat="37.13492" lon="-1.832293">
        <ele>21.884</ele>
        <time>2021-06-11T15:59:19Z</time>
      </trkpt>
      <trkpt lat="37.134945" lon="-1.832168">
        <ele>21.567</ele>
        <time>2021-06-11T15:59:20Z</time>
      </trkpt>
      <trkpt lat="37.13497" lon="-1.831946">
        <ele>21.213</ele>
        <time>2021-06-11T15:59:22Z</time>
      </trkpt>
      <trkpt lat="37.134969" lon="-1.831773">
        <ele>20.443</ele>
        <time>2021-06-11T15:59:24Z</time>
      </trkpt>
      <trkpt lat="37.134964" lon="-1.831573">
        <ele>19.807</ele>
        <time>2021-06-11T15:59:26Z</time>
      </trkpt>
      <trkpt lat="37.134963" lon="-1.83146">
        <ele>19.208</ele>
        <time>2021-06-11T15:59:27Z</time>
      </trkpt>
      <trkpt lat="37.13496" lon="-1.831343">
        <ele>18.618</ele>
        <time>2021-06-11T15:59:28Z</time>
      </trkpt>
      <trkpt lat="37.134953" lon="-1.831106">
        <ele>17.966</ele>
        <time>2021-06-11T15:59:30Z</time>
      </trkpt>
      <trkpt lat="37.134951" lon="-1.830987">
        <ele>17.326</ele>
        <time>2021-06-11T15:59:31Z</time>
      </trkpt>
      <trkpt lat="37.134944" lon="-1.830867">
        <ele>16.944</ele>
        <time>2021-06-11T15:59:32Z</time>
      </trkpt>
      <trkpt lat="37.134913" lon="-1.830637">
        <ele>16.059</ele>
        <time>2021-06-11T15:59:34Z</time>
      </trkpt>
      <trkpt lat="37.134899" lon="-1.830524">
        <ele>15.560</ele>
        <time>2021-06-11T15:59:35Z</time>
      </trkpt>
      <trkpt lat="37.134851" lon="-1.830318">
        <ele>15.654</ele>
        <time>2021-06-11T15:59:37Z</time>
      </trkpt>
      <trkpt lat="37.134778" lon="-1.830152">
        <ele>15.627</ele>
        <time>2021-06-11T15:59:39Z</time>
      </trkpt>
      <trkpt lat="37.13472" lon="-1.830084">
        <ele>15.544</ele>
        <time>2021-06-11T15:59:40Z</time>
      </trkpt>
      <trkpt lat="37.134568" lon="-1.830007">
        <ele>14.705</ele>
        <time>2021-06-11T15:59:42Z</time>
      </trkpt>
      <trkpt lat="37.134394" lon="-1.830026">
        <ele>14.215</ele>
        <time>2021-06-11T15:59:44Z</time>
      </trkpt>
      <trkpt lat="37.134207" lon="-1.830082">
        <ele>14.008</ele>
        <time>2021-06-11T15:59:46Z</time>
      </trkpt>
      <trkpt lat="37.134108" lon="-1.830101">
        <ele>13.741</ele>
        <time>2021-06-11T15:59:47Z</time>
      </trkpt>
      <trkpt lat="37.134008" lon="-1.830117">
        <ele>13.639</ele>
        <time>2021-06-11T15:59:48Z</time>
      </trkpt>
      <trkpt lat="37.133806" lon="-1.830148">
        <ele>13.719</ele>
        <time>2021-06-11T15:59:50Z</time>
      </trkpt>
      <trkpt lat="37.133606" lon="-1.830176">
        <ele>14.247</ele>
        <time>2021-06-11T15:59:52Z</time>
      </trkpt>
      <trkpt lat="37.133428" lon="-1.830196">
        <ele>14.652</ele>
        <time>2021-06-11T15:59:54Z</time>
      </trkpt>
      <trkpt lat="37.133357" lon="-1.830204">
        <ele>14.923</ele>
        <time>2021-06-11T15:59:55Z</time>
      </trkpt>
      <trkpt lat="37.133229" lon="-1.830223">
        <ele>15.377</ele>
        <time>2021-06-11T15:59:57Z</time>
      </trkpt>
      <trkpt lat="37.133087" lon="-1.83025">
        <ele>15.280</ele>
        <time>2021-06-11T15:59:59Z</time>
      </trkpt>
      <trkpt lat="37.132924" lon="-1.830279">
        <ele>15.498</ele>
        <time>2021-06-11T16:00:01Z</time>
      </trkpt>
      <trkpt lat="37.132836" lon="-1.830292">
        <ele>15.515</ele>
        <time>2021-06-11T16:00:02Z</time>
      </trkpt>
      <trkpt lat="37.132743" lon="-1.830305">
        <ele>15.526</ele>
        <time>2021-06-11T16:00:03Z</time>
      </trkpt>
      <trkpt lat="37.132649" lon="-1.830321">
        <ele>15.508</ele>
        <time>2021-06-11T16:00:04Z</time>
      </trkpt>
      <trkpt lat="37.132553" lon="-1.830339">
        <ele>15.376</ele>
        <time>2021-06-11T16:00:05Z</time>
      </trkpt>
      <trkpt lat="37.132457" lon="-1.830355">
        <ele>15.214</ele>
        <time>2021-06-11T16:00:06Z</time>
      </trkpt>
      <trkpt lat="37.132261" lon="-1.830386">
        <ele>15.514</ele>
        <time>2021-06-11T16:00:08Z</time>
      </trkpt>
      <trkpt lat="37.132066" lon="-1.830422">
        <ele>15.372</ele>
        <time>2021-06-11T16:00:10Z</time>
      </trkpt>
      <trkpt lat="37.131873" lon="-1.830464">
        <ele>15.887</ele>
        <time>2021-06-11T16:00:12Z</time>
      </trkpt>
      <trkpt lat="37.131774" lon="-1.830485">
        <ele>15.948</ele>
        <time>2021-06-11T16:00:13Z</time>
      </trkpt>
      <trkpt lat="37.131591" lon="-1.830516">
        <ele>15.682</ele>
        <time>2021-06-11T16:00:15Z</time>
      </trkpt>
      <trkpt lat="37.131506" lon="-1.830529">
        <ele>15.765</ele>
        <time>2021-06-11T16:00:16Z</time>
      </trkpt>
      <trkpt lat="37.131363" lon="-1.830556">
        <ele>15.746</ele>
        <time>2021-06-11T16:00:18Z</time>
      </trkpt>
      <trkpt lat="37.131245" lon="-1.830574">
        <ele>16.088</ele>
        <time>2021-06-11T16:00:20Z</time>
      </trkpt>
      <trkpt lat="37.131119" lon="-1.830597">
        <ele>16.416</ele>
        <time>2021-06-11T16:00:22Z</time>
      </trkpt>
      <trkpt lat="37.131059" lon="-1.830615">
        <ele>16.508</ele>
        <time>2021-06-11T16:00:23Z</time>
      </trkpt>
      <trkpt lat="37.13101" lon="-1.830638">
        <ele>16.171</ele>
        <time>2021-06-11T16:00:24Z</time>
      </trkpt>
      <trkpt lat="37.130949" lon="-1.830682">
        <ele>15.719</ele>
        <time>2021-06-11T16:00:26Z</time>
      </trkpt>
      <trkpt lat="37.130871" lon="-1.83073">
        <ele>15.449</ele>
        <time>2021-06-11T16:00:28Z</time>
      </trkpt>
      <trkpt lat="37.130812" lon="-1.830741">
        <ele>15.097</ele>
        <time>2021-06-11T16:00:29Z</time>
      </trkpt>
      <trkpt lat="37.130674" lon="-1.830706">
        <ele>14.742</ele>
        <time>2021-06-11T16:00:31Z</time>
      </trkpt>
      <trkpt lat="37.130595" lon="-1.830697">
        <ele>14.653</ele>
        <time>2021-06-11T16:00:32Z</time>
      </trkpt>
      <trkpt lat="37.130441" lon="-1.830721">
        <ele>14.627</ele>
        <time>2021-06-11T16:00:34Z</time>
      </trkpt>
      <trkpt lat="37.13037" lon="-1.830741">
        <ele>14.570</ele>
        <time>2021-06-11T16:00:35Z</time>
      </trkpt>
      <trkpt lat="37.130303" lon="-1.830757">
        <ele>14.411</ele>
        <time>2021-06-11T16:00:36Z</time>
      </trkpt>
      <trkpt lat="37.130182" lon="-1.830776">
        <ele>14.321</ele>
        <time>2021-06-11T16:00:38Z</time>
      </trkpt>
      <trkpt lat="37.130128" lon="-1.830788">
        <ele>14.503</ele>
        <time>2021-06-11T16:00:39Z</time>
      </trkpt>
      <trkpt lat="37.130005" lon="-1.830811">
        <ele>14.608</ele>
        <time>2021-06-11T16:00:41Z</time>
      </trkpt>
      <trkpt lat="37.129935" lon="-1.830822">
        <ele>14.788</ele>
        <time>2021-06-11T16:00:42Z</time>
      </trkpt>
      <trkpt lat="37.129779" lon="-1.830854">
        <ele>14.946</ele>
        <time>2021-06-11T16:00:44Z</time>
      </trkpt>
      <trkpt lat="37.12961" lon="-1.830919">
        <ele>15.526</ele>
        <time>2021-06-11T16:00:46Z</time>
      </trkpt>
      <trkpt lat="37.129446" lon="-1.831021">
        <ele>15.594</ele>
        <time>2021-06-11T16:00:48Z</time>
      </trkpt>
      <trkpt lat="37.129371" lon="-1.831076">
        <ele>15.469</ele>
        <time>2021-06-11T16:00:49Z</time>
      </trkpt>
      <trkpt lat="37.129253" lon="-1.831183">
        <ele>15.650</ele>
        <time>2021-06-11T16:00:51Z</time>
      </trkpt>
      <trkpt lat="37.129207" lon="-1.831229">
        <ele>15.964</ele>
        <time>2021-06-11T16:00:52Z</time>
      </trkpt>
      <trkpt lat="37.129164" lon="-1.831268">
        <ele>15.587</ele>
        <time>2021-06-11T16:00:53Z</time>
      </trkpt>
      <trkpt lat="37.129079" lon="-1.831346">
        <ele>15.422</ele>
        <time>2021-06-11T16:00:55Z</time>
      </trkpt>
      <trkpt lat="37.128979" lon="-1.831455">
        <ele>15.662</ele>
        <time>2021-06-11T16:00:57Z</time>
      </trkpt>
      <trkpt lat="37.128851" lon="-1.831578">
        <ele>15.808</ele>
        <time>2021-06-11T16:00:59Z</time>
      </trkpt>
      <trkpt lat="37.128701" lon="-1.83171">
        <ele>15.908</ele>
        <time>2021-06-11T16:01:01Z</time>
      </trkpt>
      <trkpt lat="37.12862" lon="-1.83178">
        <ele>16.239</ele>
        <time>2021-06-11T16:01:02Z</time>
      </trkpt>
      <trkpt lat="37.128438" lon="-1.831899">
        <ele>16.087</ele>
        <time>2021-06-11T16:01:04Z</time>
      </trkpt>
      <trkpt lat="37.128335" lon="-1.831944">
        <ele>16.127</ele>
        <time>2021-06-11T16:01:05Z</time>
      </trkpt>
      <trkpt lat="37.128226" lon="-1.83198">
        <ele>15.915</ele>
        <time>2021-06-11T16:01:06Z</time>
      </trkpt>
      <trkpt lat="37.128011" lon="-1.832047">
        <ele>16.210</ele>
        <time>2021-06-11T16:01:08Z</time>
      </trkpt>
      <trkpt lat="37.1278" lon="-1.832111">
        <ele>16.431</ele>
        <time>2021-06-11T16:01:10Z</time>
      </trkpt>
      <trkpt lat="37.127587" lon="-1.832178">
        <ele>16.675</ele>
        <time>2021-06-11T16:01:12Z</time>
      </trkpt>
      <trkpt lat="37.127368" lon="-1.832244">
        <ele>16.938</ele>
        <time>2021-06-11T16:01:14Z</time>
      </trkpt>
      <trkpt lat="37.127146" lon="-1.832308">
        <ele>17.426</ele>
        <time>2021-06-11T16:01:16Z</time>
      </trkpt>
      <trkpt lat="37.126919" lon="-1.832352">
        <ele>17.847</ele>
        <time>2021-06-11T16:01:18Z</time>
      </trkpt>
      <trkpt lat="37.126803" lon="-1.832361">
        <ele>18.311</ele>
        <time>2021-06-11T16:01:19Z</time>
      </trkpt>
      <trkpt lat="37.12657" lon="-1.832345">
        <ele>18.608</ele>
        <time>2021-06-11T16:01:21Z</time>
      </trkpt>
      <trkpt lat="37.126455" lon="-1.832321">
        <ele>19.249</ele>
        <time>2021-06-11T16:01:22Z</time>
      </trkpt>
      <trkpt lat="37.12624" lon="-1.832287">
        <ele>18.957</ele>
        <time>2021-06-11T16:01:24Z</time>
      </trkpt>
      <trkpt lat="37.126133" lon="-1.832285">
        <ele>18.767</ele>
        <time>2021-06-11T16:01:25Z</time>
      </trkpt>
      <trkpt lat="37.126024" lon="-1.832294">
        <ele>18.135</ele>
        <time>2021-06-11T16:01:26Z</time>
      </trkpt>
      <trkpt lat="37.125801" lon="-1.832345">
        <ele>17.350</ele>
        <time>2021-06-11T16:01:28Z</time>
      </trkpt>
      <trkpt lat="37.125691" lon="-1.832388">
        <ele>16.311</ele>
        <time>2021-06-11T16:01:29Z</time>
      </trkpt>
      <trkpt lat="37.125475" lon="-1.832483">
        <ele>15.995</ele>
        <time>2021-06-11T16:01:31Z</time>
      </trkpt>
      <trkpt lat="37.125369" lon="-1.83253">
        <ele>15.638</ele>
        <time>2021-06-11T16:01:32Z</time>
      </trkpt>
      <trkpt lat="37.125158" lon="-1.832616">
        <ele>15.258</ele>
        <time>2021-06-11T16:01:34Z</time>
      </trkpt>
      <trkpt lat="37.124966" lon="-1.832694">
        <ele>15.152</ele>
        <time>2021-06-11T16:01:36Z</time>
      </trkpt>
      <trkpt lat="37.12482" lon="-1.832757">
        <ele>14.817</ele>
        <time>2021-06-11T16:01:38Z</time>
      </trkpt>
      <trkpt lat="37.124712" lon="-1.832817">
        <ele>14.308</ele>
        <time>2021-06-11T16:01:40Z</time>
      </trkpt>
      <trkpt lat="37.124606" lon="-1.832921">
        <ele>14.012</ele>
        <time>2021-06-11T16:01:42Z</time>
      </trkpt>
      <trkpt lat="37.124558" lon="-1.832984">
        <ele>14.090</ele>
        <time>2021-06-11T16:01:43Z</time>
      </trkpt>
      <trkpt lat="37.124445" lon="-1.833017">
        <ele>13.820</ele>
        <time>2021-06-11T16:01:45Z</time>
      </trkpt>
      <trkpt lat="37.124387" lon="-1.832981">
        <ele>13.888</ele>
        <time>2021-06-11T16:01:46Z</time>
      </trkpt>
      <trkpt lat="37.12433" lon="-1.832922">
        <ele>14.193</ele>
        <time>2021-06-11T16:01:47Z</time>
      </trkpt>
      <trkpt lat="37.124267" lon="-1.832866">
        <ele>14.494</ele>
        <time>2021-06-11T16:01:48Z</time>
      </trkpt>
      <trkpt lat="37.124111" lon="-1.83283">
        <ele>14.988</ele>
        <time>2021-06-11T16:01:50Z</time>
      </trkpt>
      <trkpt lat="37.12395" lon="-1.832834">
        <ele>15.031</ele>
        <time>2021-06-11T16:01:52Z</time>
      </trkpt>
      <trkpt lat="37.123872" lon="-1.832833">
        <ele>14.898</ele>
        <time>2021-06-11T16:01:53Z</time>
      </trkpt>
      <trkpt lat="37.123733" lon="-1.832837">
        <ele>15.115</ele>
        <time>2021-06-11T16:01:55Z</time>
      </trkpt>
      <trkpt lat="37.12367" lon="-1.832839">
        <ele>15.326</ele>
        <time>2021-06-11T16:01:56Z</time>
      </trkpt>
      <trkpt lat="37.123607" lon="-1.832838">
        <ele>15.708</ele>
        <time>2021-06-11T16:01:57Z</time>
      </trkpt>
      <trkpt lat="37.123458" lon="-1.83285">
        <ele>16.216</ele>
        <time>2021-06-11T16:01:59Z</time>
      </trkpt>
      <trkpt lat="37.123372" lon="-1.832864">
        <ele>16.694</ele>
        <time>2021-06-11T16:02:00Z</time>
      </trkpt>
      <trkpt lat="37.123196" lon="-1.832911">
        <ele>16.784</ele>
        <time>2021-06-11T16:02:02Z</time>
      </trkpt>
      <trkpt lat="37.123102" lon="-1.832941">
        <ele>16.992</ele>
        <time>2021-06-11T16:02:03Z</time>
      </trkpt>
      <trkpt lat="37.122909" lon="-1.833004">
        <ele>17.017</ele>
        <time>2021-06-11T16:02:05Z</time>
      </trkpt>
      <trkpt lat="37.12281" lon="-1.833041">
        <ele>17.158</ele>
        <time>2021-06-11T16:02:06Z</time>
      </trkpt>
      <trkpt lat="37.12261" lon="-1.833114">
        <ele>17.472</ele>
        <time>2021-06-11T16:02:08Z</time>
      </trkpt>
      <trkpt lat="37.122508" lon="-1.833151">
        <ele>17.425</ele>
        <time>2021-06-11T16:02:09Z</time>
      </trkpt>
      <trkpt lat="37.122309" lon="-1.833228">
        <ele>17.799</ele>
        <time>2021-06-11T16:02:11Z</time>
      </trkpt>
      <trkpt lat="37.122115" lon="-1.833303">
        <ele>17.707</ele>
        <time>2021-06-11T16:02:13Z</time>
      </trkpt>
      <trkpt lat="37.12193" lon="-1.833369">
        <ele>17.427</ele>
        <time>2021-06-11T16:02:15Z</time>
      </trkpt>
      <trkpt lat="37.121838" lon="-1.833403">
        <ele>17.508</ele>
        <time>2021-06-11T16:02:16Z</time>
      </trkpt>
      <trkpt lat="37.121661" lon="-1.833473">
        <ele>17.816</ele>
        <time>2021-06-11T16:02:18Z</time>
      </trkpt>
      <trkpt lat="37.121496" lon="-1.833539">
        <ele>18.184</ele>
        <time>2021-06-11T16:02:20Z</time>
      </trkpt>
      <trkpt lat="37.121342" lon="-1.8336">
        <ele>18.274</ele>
        <time>2021-06-11T16:02:22Z</time>
      </trkpt>
      <trkpt lat="37.121213" lon="-1.833644">
        <ele>18.382</ele>
        <time>2021-06-11T16:02:24Z</time>
      </trkpt>
      <trkpt lat="37.121111" lon="-1.833682">
        <ele>18.497</ele>
        <time>2021-06-11T16:02:26Z</time>
      </trkpt>
      <trkpt lat="37.121055" lon="-1.833705">
        <ele>18.418</ele>
        <time>2021-06-11T16:02:27Z</time>
      </trkpt>
      <trkpt lat="37.120991" lon="-1.833733">
        <ele>18.492</ele>
        <time>2021-06-11T16:02:28Z</time>
      </trkpt>
      <trkpt lat="37.120917" lon="-1.833758">
        <ele>18.555</ele>
        <time>2021-06-11T16:02:29Z</time>
      </trkpt>
      <trkpt lat="37.120839" lon="-1.833786">
        <ele>18.514</ele>
        <time>2021-06-11T16:02:30Z</time>
      </trkpt>
      <trkpt lat="37.12067" lon="-1.833845">
        <ele>18.654</ele>
        <time>2021-06-11T16:02:32Z</time>
      </trkpt>
      <trkpt lat="37.120582" lon="-1.833873">
        <ele>18.409</ele>
        <time>2021-06-11T16:02:33Z</time>
      </trkpt>
      <trkpt lat="37.120494" lon="-1.833904">
        <ele>18.508</ele>
        <time>2021-06-11T16:02:34Z</time>
      </trkpt>
      <trkpt lat="37.120324" lon="-1.833964">
        <ele>18.628</ele>
        <time>2021-06-11T16:02:36Z</time>
      </trkpt>
      <trkpt lat="37.120166" lon="-1.834034">
        <ele>18.416</ele>
        <time>2021-06-11T16:02:38Z</time>
      </trkpt>
      <trkpt lat="37.120016" lon="-1.8341">
        <ele>18.446</ele>
        <time>2021-06-11T16:02:40Z</time>
      </trkpt>
      <trkpt lat="37.119942" lon="-1.834132">
        <ele>18.314</ele>
        <time>2021-06-11T16:02:41Z</time>
      </trkpt>
      <trkpt lat="37.119803" lon="-1.834191">
        <ele>18.149</ele>
        <time>2021-06-11T16:02:43Z</time>
      </trkpt>
      <trkpt lat="37.119738" lon="-1.834218">
        <ele>18.010</ele>
        <time>2021-06-11T16:02:44Z</time>
      </trkpt>
      <trkpt lat="37.119623" lon="-1.834271">
        <ele>17.614</ele>
        <time>2021-06-11T16:02:46Z</time>
      </trkpt>
      <trkpt lat="37.119568" lon="-1.834301">
        <ele>17.687</ele>
        <time>2021-06-11T16:02:47Z</time>
      </trkpt>
      <trkpt lat="37.119448" lon="-1.834362">
        <ele>17.168</ele>
        <time>2021-06-11T16:02:49Z</time>
      </trkpt>
      <trkpt lat="37.119387" lon="-1.83439">
        <ele>16.842</ele>
        <time>2021-06-11T16:02:50Z</time>
      </trkpt>
      <trkpt lat="37.119278" lon="-1.83445">
        <ele>16.526</ele>
        <time>2021-06-11T16:02:52Z</time>
      </trkpt>
      <trkpt lat="37.119231" lon="-1.834482">
        <ele>16.008</ele>
        <time>2021-06-11T16:02:53Z</time>
      </trkpt>
      <trkpt lat="37.119141" lon="-1.834533">
        <ele>15.763</ele>
        <time>2021-06-11T16:02:55Z</time>
      </trkpt>
      <trkpt lat="37.119088" lon="-1.834575">
        <ele>15.411</ele>
        <time>2021-06-11T16:02:57Z</time>
      </trkpt>
      <trkpt lat="37.119044" lon="-1.834617">
        <ele>15.081</ele>
        <time>2021-06-11T16:02:59Z</time>
      </trkpt>
      <trkpt lat="37.118992" lon="-1.834668">
        <ele>15.029</ele>
        <time>2021-06-11T16:03:01Z</time>
      </trkpt>
      <trkpt lat="37.118957" lon="-1.834733">
        <ele>15.464</ele>
        <time>2021-06-11T16:03:03Z</time>
      </trkpt>
      <trkpt lat="37.118891" lon="-1.83482">
        <ele>15.785</ele>
        <time>2021-06-11T16:03:05Z</time>
      </trkpt>
      <trkpt lat="37.118767" lon="-1.834874">
        <ele>15.969</ele>
        <time>2021-06-11T16:03:07Z</time>
      </trkpt>
      <trkpt lat="37.118709" lon="-1.834904">
        <ele>16.032</ele>
        <time>2021-06-11T16:03:08Z</time>
      </trkpt>
      <trkpt lat="37.118618" lon="-1.834979">
        <ele>16.149</ele>
        <time>2021-06-11T16:03:10Z</time>
      </trkpt>
      <trkpt lat="37.118582" lon="-1.835019">
        <ele>16.102</ele>
        <time>2021-06-11T16:03:11Z</time>
      </trkpt>
      <trkpt lat="37.118543" lon="-1.83506">
        <ele>16.122</ele>
        <time>2021-06-11T16:03:12Z</time>
      </trkpt>
      <trkpt lat="37.118497" lon="-1.835105">
        <ele>16.108</ele>
        <time>2021-06-11T16:03:13Z</time>
      </trkpt>
      <trkpt lat="37.118395" lon="-1.835213">
        <ele>16.171</ele>
        <time>2021-06-11T16:03:15Z</time>
      </trkpt>
      <trkpt lat="37.118292" lon="-1.83534">
        <ele>16.189</ele>
        <time>2021-06-11T16:03:17Z</time>
      </trkpt>
      <trkpt lat="37.118241" lon="-1.835407">
        <ele>16.129</ele>
        <time>2021-06-11T16:03:18Z</time>
      </trkpt>
      <trkpt lat="37.11819" lon="-1.835476">
        <ele>16.167</ele>
        <time>2021-06-11T16:03:19Z</time>
      </trkpt>
      <trkpt lat="37.118087" lon="-1.835618">
        <ele>16.162</ele>
        <time>2021-06-11T16:03:21Z</time>
      </trkpt>
      <trkpt lat="37.118034" lon="-1.835691">
        <ele>16.173</ele>
        <time>2021-06-11T16:03:22Z</time>
      </trkpt>
      <trkpt lat="37.117927" lon="-1.835844">
        <ele>16.147</ele>
        <time>2021-06-11T16:03:24Z</time>
      </trkpt>
      <trkpt lat="37.11782" lon="-1.835999">
        <ele>16.180</ele>
        <time>2021-06-11T16:03:26Z</time>
      </trkpt>
      <trkpt lat="37.117767" lon="-1.836076">
        <ele>16.113</ele>
        <time>2021-06-11T16:03:27Z</time>
      </trkpt>
      <trkpt lat="37.117666" lon="-1.836236">
        <ele>16.143</ele>
        <time>2021-06-11T16:03:29Z</time>
      </trkpt>
      <trkpt lat="37.117621" lon="-1.836321">
        <ele>16.107</ele>
        <time>2021-06-11T16:03:30Z</time>
      </trkpt>
      <trkpt lat="37.117536" lon="-1.836499">
        <ele>16.108</ele>
        <time>2021-06-11T16:03:32Z</time>
      </trkpt>
      <trkpt lat="37.117445" lon="-1.836682">
        <ele>16.158</ele>
        <time>2021-06-11T16:03:34Z</time>
      </trkpt>
      <trkpt lat="37.1174" lon="-1.836772">
        <ele>16.146</ele>
        <time>2021-06-11T16:03:35Z</time>
      </trkpt>
      <trkpt lat="37.117354" lon="-1.83686">
        <ele>16.126</ele>
        <time>2021-06-11T16:03:36Z</time>
      </trkpt>
      <trkpt lat="37.117255" lon="-1.837028">
        <ele>16.144</ele>
        <time>2021-06-11T16:03:38Z</time>
      </trkpt>
      <trkpt lat="37.117204" lon="-1.83711">
        <ele>16.179</ele>
        <time>2021-06-11T16:03:39Z</time>
      </trkpt>
      <trkpt lat="37.117151" lon="-1.837194">
        <ele>16.190</ele>
        <time>2021-06-11T16:03:40Z</time>
      </trkpt>
      <trkpt lat="37.117034" lon="-1.837356">
        <ele>16.184</ele>
        <time>2021-06-11T16:03:42Z</time>
      </trkpt>
      <trkpt lat="37.11692" lon="-1.837508">
        <ele>16.167</ele>
        <time>2021-06-11T16:03:44Z</time>
      </trkpt>
      <trkpt lat="37.116814" lon="-1.837668">
        <ele>16.179</ele>
        <time>2021-06-11T16:03:46Z</time>
      </trkpt>
      <trkpt lat="37.116769" lon="-1.83776">
        <ele>16.105</ele>
        <time>2021-06-11T16:03:47Z</time>
      </trkpt>
      <trkpt lat="37.116731" lon="-1.83786">
        <ele>16.125</ele>
        <time>2021-06-11T16:03:48Z</time>
      </trkpt>
      <trkpt lat="37.116664" lon="-1.838072">
        <ele>16.108</ele>
        <time>2021-06-11T16:03:50Z</time>
      </trkpt>
      <trkpt lat="37.11663" lon="-1.838182">
        <ele>16.154</ele>
        <time>2021-06-11T16:03:51Z</time>
      </trkpt>
      <trkpt lat="37.11659" lon="-1.838287">
        <ele>16.182</ele>
        <time>2021-06-11T16:03:52Z</time>
      </trkpt>
      <trkpt lat="37.116481" lon="-1.838478">
        <ele>16.192</ele>
        <time>2021-06-11T16:03:54Z</time>
      </trkpt>
      <trkpt lat="37.116418" lon="-1.838562">
        <ele>16.120</ele>
        <time>2021-06-11T16:03:55Z</time>
      </trkpt>
      <trkpt lat="37.11629" lon="-1.838717">
        <ele>16.185</ele>
        <time>2021-06-11T16:03:57Z</time>
      </trkpt>
      <trkpt lat="37.116229" lon="-1.838792">
        <ele>16.126</ele>
        <time>2021-06-11T16:03:58Z</time>
      </trkpt>
      <trkpt lat="37.116126" lon="-1.838918">
        <ele>16.160</ele>
        <time>2021-06-11T16:04:00Z</time>
      </trkpt>
      <trkpt lat="37.116082" lon="-1.838969">
        <ele>16.143</ele>
        <time>2021-06-11T16:04:01Z</time>
      </trkpt>
      <trkpt lat="37.116044" lon="-1.839012">
        <ele>16.177</ele>
        <time>2021-06-11T16:04:02Z</time>
      </trkpt>
      <trkpt lat="37.115964" lon="-1.839095">
        <ele>16.361</ele>
        <time>2021-06-11T16:04:04Z</time>
      </trkpt>
      <trkpt lat="37.115864" lon="-1.839193">
        <ele>16.627</ele>
        <time>2021-06-11T16:04:06Z</time>
      </trkpt>
      <trkpt lat="37.115804" lon="-1.839244">
        <ele>16.108</ele>
        <time>2021-06-11T16:04:07Z</time>
      </trkpt>
      <trkpt lat="37.11566" lon="-1.839343">
        <ele>15.924</ele>
        <time>2021-06-11T16:04:09Z</time>
      </trkpt>
      <trkpt lat="37.115584" lon="-1.839386">
        <ele>15.962</ele>
        <time>2021-06-11T16:04:10Z</time>
      </trkpt>
      <trkpt lat="37.115434" lon="-1.839467">
        <ele>16.112</ele>
        <time>2021-06-11T16:04:12Z</time>
      </trkpt>
      <trkpt lat="37.115293" lon="-1.839556">
        <ele>16.040</ele>
        <time>2021-06-11T16:04:14Z</time>
      </trkpt>
      <trkpt lat="37.115166" lon="-1.839667">
        <ele>16.175</ele>
        <time>2021-06-11T16:04:16Z</time>
      </trkpt>
      <trkpt lat="37.115105" lon="-1.839736">
        <ele>16.586</ele>
        <time>2021-06-11T16:04:17Z</time>
      </trkpt>
      <trkpt lat="37.114994" lon="-1.83992">
        <ele>16.920</ele>
        <time>2021-06-11T16:04:19Z</time>
      </trkpt>
      <trkpt lat="37.114937" lon="-1.840015">
        <ele>16.983</ele>
        <time>2021-06-11T16:04:20Z</time>
      </trkpt>
      <trkpt lat="37.114826" lon="-1.840206">
        <ele>16.838</ele>
        <time>2021-06-11T16:04:22Z</time>
      </trkpt>
      <trkpt lat="37.114773" lon="-1.840297">
        <ele>17.270</ele>
        <time>2021-06-11T16:04:23Z</time>
      </trkpt>
      <trkpt lat="37.114716" lon="-1.840385">
        <ele>17.717</ele>
        <time>2021-06-11T16:04:24Z</time>
      </trkpt>
      <trkpt lat="37.114599" lon="-1.840547">
        <ele>18.308</ele>
        <time>2021-06-11T16:04:26Z</time>
      </trkpt>
      <trkpt lat="37.114542" lon="-1.840625">
        <ele>18.980</ele>
        <time>2021-06-11T16:04:27Z</time>
      </trkpt>
      <trkpt lat="37.114488" lon="-1.840701">
        <ele>19.298</ele>
        <time>2021-06-11T16:04:28Z</time>
      </trkpt>
      <trkpt lat="37.114441" lon="-1.840773">
        <ele>19.298</ele>
        <time>2021-06-11T16:04:29Z</time>
      </trkpt>
      <trkpt lat="37.114362" lon="-1.840905">
        <ele>19.876</ele>
        <time>2021-06-11T16:04:31Z</time>
      </trkpt>
      <trkpt lat="37.114279" lon="-1.841049">
        <ele>20.261</ele>
        <time>2021-06-11T16:04:33Z</time>
      </trkpt>
      <trkpt lat="37.114247" lon="-1.841131">
        <ele>20.382</ele>
        <time>2021-06-11T16:04:34Z</time>
      </trkpt>
      <trkpt lat="37.114207" lon="-1.841297">
        <ele>20.416</ele>
        <time>2021-06-11T16:04:36Z</time>
      </trkpt>
      <trkpt lat="37.114144" lon="-1.841403">
        <ele>20.189</ele>
        <time>2021-06-11T16:04:38Z</time>
      </trkpt>
      <trkpt lat="37.114018" lon="-1.841424">
        <ele>20.056</ele>
        <time>2021-06-11T16:04:40Z</time>
      </trkpt>
      <trkpt lat="37.113878" lon="-1.84148">
        <ele>20.059</ele>
        <time>2021-06-11T16:04:42Z</time>
      </trkpt>
      <trkpt lat="37.113815" lon="-1.841525">
        <ele>20.014</ele>
        <time>2021-06-11T16:04:43Z</time>
      </trkpt>
      <trkpt lat="37.113756" lon="-1.841568">
        <ele>19.808</ele>
        <time>2021-06-11T16:04:44Z</time>
      </trkpt>
      <trkpt lat="37.113634" lon="-1.841656">
        <ele>19.562</ele>
        <time>2021-06-11T16:04:46Z</time>
      </trkpt>
      <trkpt lat="37.113566" lon="-1.841702">
        <ele>19.190</ele>
        <time>2021-06-11T16:04:47Z</time>
      </trkpt>
      <trkpt lat="37.113493" lon="-1.841756">
        <ele>18.860</ele>
        <time>2021-06-11T16:04:48Z</time>
      </trkpt>
      <trkpt lat="37.113339" lon="-1.841872">
        <ele>18.428</ele>
        <time>2021-06-11T16:04:50Z</time>
      </trkpt>
      <trkpt lat="37.113257" lon="-1.84193">
        <ele>18.383</ele>
        <time>2021-06-11T16:04:51Z</time>
      </trkpt>
      <trkpt lat="37.113175" lon="-1.84199">
        <ele>17.974</ele>
        <time>2021-06-11T16:04:52Z</time>
      </trkpt>
      <trkpt lat="37.113002" lon="-1.842114">
        <ele>17.518</ele>
        <time>2021-06-11T16:04:54Z</time>
      </trkpt>
      <trkpt lat="37.112914" lon="-1.842181">
        <ele>16.921</ele>
        <time>2021-06-11T16:04:55Z</time>
      </trkpt>
      <trkpt lat="37.112741" lon="-1.842317">
        <ele>16.847</ele>
        <time>2021-06-11T16:04:57Z</time>
      </trkpt>
      <trkpt lat="37.112566" lon="-1.842446">
        <ele>16.329</ele>
        <time>2021-06-11T16:04:59Z</time>
      </trkpt>
      <trkpt lat="37.112476" lon="-1.842509">
        <ele>15.921</ele>
        <time>2021-06-11T16:05:00Z</time>
      </trkpt>
      <trkpt lat="37.112297" lon="-1.842646">
        <ele>15.708</ele>
        <time>2021-06-11T16:05:02Z</time>
      </trkpt>
      <trkpt lat="37.112113" lon="-1.842796">
        <ele>15.881</ele>
        <time>2021-06-11T16:05:04Z</time>
      </trkpt>
      <trkpt lat="37.112019" lon="-1.842873">
        <ele>15.839</ele>
        <time>2021-06-11T16:05:05Z</time>
      </trkpt>
      <trkpt lat="37.111832" lon="-1.84303">
        <ele>15.779</ele>
        <time>2021-06-11T16:05:07Z</time>
      </trkpt>
      <trkpt lat="37.111739" lon="-1.843106">
        <ele>15.497</ele>
        <time>2021-06-11T16:05:08Z</time>
      </trkpt>
      <trkpt lat="37.111648" lon="-1.843182">
        <ele>15.082</ele>
        <time>2021-06-11T16:05:09Z</time>
      </trkpt>
      <trkpt lat="37.111557" lon="-1.843258">
        <ele>15.023</ele>
        <time>2021-06-11T16:05:10Z</time>
      </trkpt>
      <trkpt lat="37.11138" lon="-1.843404">
        <ele>15.087</ele>
        <time>2021-06-11T16:05:12Z</time>
      </trkpt>
      <trkpt lat="37.111297" lon="-1.843478">
        <ele>15.020</ele>
        <time>2021-06-11T16:05:13Z</time>
      </trkpt>
      <trkpt lat="37.111146" lon="-1.843615">
        <ele>15.273</ele>
        <time>2021-06-11T16:05:15Z</time>
      </trkpt>
      <trkpt lat="37.11108" lon="-1.843678">
        <ele>15.085</ele>
        <time>2021-06-11T16:05:16Z</time>
      </trkpt>
      <trkpt lat="37.110963" lon="-1.843798">
        <ele>14.813</ele>
        <time>2021-06-11T16:05:18Z</time>
      </trkpt>
      <trkpt lat="37.110907" lon="-1.843848">
        <ele>14.808</ele>
        <time>2021-06-11T16:05:19Z</time>
      </trkpt>
      <trkpt lat="37.110805" lon="-1.843932">
        <ele>14.744</ele>
        <time>2021-06-11T16:05:21Z</time>
      </trkpt>
      <trkpt lat="37.110715" lon="-1.843998">
        <ele>14.762</ele>
        <time>2021-06-11T16:05:23Z</time>
      </trkpt>
      <trkpt lat="37.110663" lon="-1.844034">
        <ele>14.982</ele>
        <time>2021-06-11T16:05:24Z</time>
      </trkpt>
      <trkpt lat="37.110545" lon="-1.844108">
        <ele>15.180</ele>
        <time>2021-06-11T16:05:26Z</time>
      </trkpt>
      <trkpt lat="37.110479" lon="-1.844147">
        <ele>15.275</ele>
        <time>2021-06-11T16:05:27Z</time>
      </trkpt>
      <trkpt lat="37.110411" lon="-1.844184">
        <ele>15.286</ele>
        <time>2021-06-11T16:05:28Z</time>
      </trkpt>
      <trkpt lat="37.11027" lon="-1.844257">
        <ele>15.170</ele>
        <time>2021-06-11T16:05:30Z</time>
      </trkpt>
      <trkpt lat="37.110125" lon="-1.844337">
        <ele>15.073</ele>
        <time>2021-06-11T16:05:32Z</time>
      </trkpt>
      <trkpt lat="37.109972" lon="-1.844421">
        <ele>15.046</ele>
        <time>2021-06-11T16:05:34Z</time>
      </trkpt>
      <trkpt lat="37.109893" lon="-1.844465">
        <ele>14.988</ele>
        <time>2021-06-11T16:05:35Z</time>
      </trkpt>
      <trkpt lat="37.109811" lon="-1.844512">
        <ele>15.016</ele>
        <time>2021-06-11T16:05:36Z</time>
      </trkpt>
      <trkpt lat="37.109644" lon="-1.844609">
        <ele>14.608</ele>
        <time>2021-06-11T16:05:38Z</time>
      </trkpt>
      <trkpt lat="37.10948" lon="-1.844697">
        <ele>14.661</ele>
        <time>2021-06-11T16:05:40Z</time>
      </trkpt>
      <trkpt lat="37.109325" lon="-1.84479">
        <ele>14.889</ele>
        <time>2021-06-11T16:05:42Z</time>
      </trkpt>
      <trkpt lat="37.10925" lon="-1.844837">
        <ele>15.049</ele>
        <time>2021-06-11T16:05:43Z</time>
      </trkpt>
      <trkpt lat="37.109107" lon="-1.844936">
        <ele>15.047</ele>
        <time>2021-06-11T16:05:45Z</time>
      </trkpt>
      <trkpt lat="37.108974" lon="-1.845047">
        <ele>14.562</ele>
        <time>2021-06-11T16:05:47Z</time>
      </trkpt>
      <trkpt lat="37.108911" lon="-1.845107">
        <ele>14.213</ele>
        <time>2021-06-11T16:05:48Z</time>
      </trkpt>
      <trkpt lat="37.108788" lon="-1.845236">
        <ele>13.917</ele>
        <time>2021-06-11T16:05:50Z</time>
      </trkpt>
      <trkpt lat="37.108658" lon="-1.845373">
        <ele>13.760</ele>
        <time>2021-06-11T16:05:52Z</time>
      </trkpt>
      <trkpt lat="37.108589" lon="-1.845445">
        <ele>13.362</ele>
        <time>2021-06-11T16:05:53Z</time>
      </trkpt>
      <trkpt lat="37.108517" lon="-1.84552">
        <ele>13.283</ele>
        <time>2021-06-11T16:05:54Z</time>
      </trkpt>
      <trkpt lat="37.10836" lon="-1.845671">
        <ele>13.411</ele>
        <time>2021-06-11T16:05:56Z</time>
      </trkpt>
      <trkpt lat="37.108281" lon="-1.845746">
        <ele>13.608</ele>
        <time>2021-06-11T16:05:57Z</time>
      </trkpt>
      <trkpt lat="37.108205" lon="-1.845815">
        <ele>14.093</ele>
        <time>2021-06-11T16:05:58Z</time>
      </trkpt>
      <trkpt lat="37.108129" lon="-1.845875">
        <ele>14.061</ele>
        <time>2021-06-11T16:05:59Z</time>
      </trkpt>
      <trkpt lat="37.108054" lon="-1.845929">
        <ele>14.251</ele>
        <time>2021-06-11T16:06:00Z</time>
      </trkpt>
      <trkpt lat="37.107884" lon="-1.846003">
        <ele>14.539</ele>
        <time>2021-06-11T16:06:02Z</time>
      </trkpt>
      <trkpt lat="37.10779" lon="-1.846032">
        <ele>14.674</ele>
        <time>2021-06-11T16:06:03Z</time>
      </trkpt>
      <trkpt lat="37.107604" lon="-1.846084">
        <ele>15.395</ele>
        <time>2021-06-11T16:06:05Z</time>
      </trkpt>
      <trkpt lat="37.107512" lon="-1.846107">
        <ele>15.799</ele>
        <time>2021-06-11T16:06:06Z</time>
      </trkpt>
      <trkpt lat="37.107333" lon="-1.84615">
        <ele>16.852</ele>
        <time>2021-06-11T16:06:08Z</time>
      </trkpt>
      <trkpt lat="37.107167" lon="-1.846203">
        <ele>17.417</ele>
        <time>2021-06-11T16:06:10Z</time>
      </trkpt>
      <trkpt lat="37.107012" lon="-1.846249">
        <ele>17.987</ele>
        <time>2021-06-11T16:06:12Z</time>
      </trkpt>
      <trkpt lat="37.106938" lon="-1.846266">
        <ele>18.215</ele>
        <time>2021-06-11T16:06:13Z</time>
      </trkpt>
      <trkpt lat="37.106863" lon="-1.846282">
        <ele>18.908</ele>
        <time>2021-06-11T16:06:14Z</time>
      </trkpt>
      <trkpt lat="37.10672" lon="-1.846323">
        <ele>19.338</ele>
        <time>2021-06-11T16:06:16Z</time>
      </trkpt>
      <trkpt lat="37.106649" lon="-1.846347">
        <ele>19.626</ele>
        <time>2021-06-11T16:06:17Z</time>
      </trkpt>
      <trkpt lat="37.106579" lon="-1.84637">
        <ele>19.976</ele>
        <time>2021-06-11T16:06:18Z</time>
      </trkpt>
      <trkpt lat="37.10644" lon="-1.84641">
        <ele>20.494</ele>
        <time>2021-06-11T16:06:20Z</time>
      </trkpt>
      <trkpt lat="37.106375" lon="-1.846431">
        <ele>20.679</ele>
        <time>2021-06-11T16:06:21Z</time>
      </trkpt>
      <trkpt lat="37.106256" lon="-1.846476">
        <ele>20.930</ele>
        <time>2021-06-11T16:06:23Z</time>
      </trkpt>
      <trkpt lat="37.106197" lon="-1.846501">
        <ele>20.924</ele>
        <time>2021-06-11T16:06:24Z</time>
      </trkpt>
      <trkpt lat="37.106131" lon="-1.846531">
        <ele>21.157</ele>
        <time>2021-06-11T16:06:25Z</time>
      </trkpt>
      <trkpt lat="37.105983" lon="-1.846593">
        <ele>21.339</ele>
        <time>2021-06-11T16:06:27Z</time>
      </trkpt>
      <trkpt lat="37.105833" lon="-1.846646">
        <ele>21.301</ele>
        <time>2021-06-11T16:06:29Z</time>
      </trkpt>
      <trkpt lat="37.105768" lon="-1.846667">
        <ele>21.221</ele>
        <time>2021-06-11T16:06:30Z</time>
      </trkpt>
      <trkpt lat="37.105655" lon="-1.846708">
        <ele>21.408</ele>
        <time>2021-06-11T16:06:32Z</time>
      </trkpt>
      <trkpt lat="37.105604" lon="-1.846734">
        <ele>21.540</ele>
        <time>2021-06-11T16:06:33Z</time>
      </trkpt>
      <trkpt lat="37.105533" lon="-1.846811">
        <ele>21.758</ele>
        <time>2021-06-11T16:06:35Z</time>
      </trkpt>
      <trkpt lat="37.105474" lon="-1.846878">
        <ele>21.578</ele>
        <time>2021-06-11T16:06:37Z</time>
      </trkpt>
      <trkpt lat="37.105388" lon="-1.84687">
        <ele>22.026</ele>
        <time>2021-06-11T16:06:39Z</time>
      </trkpt>
      <trkpt lat="37.105271" lon="-1.846792">
        <ele>22.471</ele>
        <time>2021-06-11T16:06:41Z</time>
      </trkpt>
      <trkpt lat="37.105214" lon="-1.846768">
        <ele>22.652</ele>
        <time>2021-06-11T16:06:42Z</time>
      </trkpt>
      <trkpt lat="37.105151" lon="-1.846757">
        <ele>22.126</ele>
        <time>2021-06-11T16:06:43Z</time>
      </trkpt>
      <trkpt lat="37.105086" lon="-1.846754">
        <ele>21.989</ele>
        <time>2021-06-11T16:06:44Z</time>
      </trkpt>
      <trkpt lat="37.10495" lon="-1.846766">
        <ele>21.758</ele>
        <time>2021-06-11T16:06:46Z</time>
      </trkpt>
      <trkpt lat="37.104807" lon="-1.846783">
        <ele>21.552</ele>
        <time>2021-06-11T16:06:48Z</time>
      </trkpt>
      <trkpt lat="37.104736" lon="-1.846791">
        <ele>21.217</ele>
        <time>2021-06-11T16:06:49Z</time>
      </trkpt>
      <trkpt lat="37.104665" lon="-1.846799">
        <ele>21.108</ele>
        <time>2021-06-11T16:06:50Z</time>
      </trkpt>
      <trkpt lat="37.104595" lon="-1.846807">
        <ele>20.862</ele>
        <time>2021-06-11T16:06:51Z</time>
      </trkpt>
      <trkpt lat="37.104455" lon="-1.846824">
        <ele>20.140</ele>
        <time>2021-06-11T16:06:53Z</time>
      </trkpt>
      <trkpt lat="37.104379" lon="-1.846831">
        <ele>19.750</ele>
        <time>2021-06-11T16:06:54Z</time>
      </trkpt>
      <trkpt lat="37.104298" lon="-1.846841">
        <ele>19.548</ele>
        <time>2021-06-11T16:06:55Z</time>
      </trkpt>
      <trkpt lat="37.104134" lon="-1.846872">
        <ele>19.043</ele>
        <time>2021-06-11T16:06:57Z</time>
      </trkpt>
      <trkpt lat="37.103964" lon="-1.846897">
        <ele>18.684</ele>
        <time>2021-06-11T16:06:59Z</time>
      </trkpt>
      <trkpt lat="37.10379" lon="-1.846932">
        <ele>18.148</ele>
        <time>2021-06-11T16:07:01Z</time>
      </trkpt>
      <trkpt lat="37.103706" lon="-1.846955">
        <ele>17.931</ele>
        <time>2021-06-11T16:07:02Z</time>
      </trkpt>
      <trkpt lat="37.103539" lon="-1.847">
        <ele>17.423</ele>
        <time>2021-06-11T16:07:04Z</time>
      </trkpt>
      <trkpt lat="37.103377" lon="-1.847035">
        <ele>17.283</ele>
        <time>2021-06-11T16:07:06Z</time>
      </trkpt>
      <trkpt lat="37.103293" lon="-1.847051">
        <ele>17.011</ele>
        <time>2021-06-11T16:07:07Z</time>
      </trkpt>
      <trkpt lat="37.103126" lon="-1.847083">
        <ele>16.708</ele>
        <time>2021-06-11T16:07:09Z</time>
      </trkpt>
      <trkpt lat="37.102958" lon="-1.847118">
        <ele>16.999</ele>
        <time>2021-06-11T16:07:11Z</time>
      </trkpt>
      <trkpt lat="37.102791" lon="-1.847156">
        <ele>17.187</ele>
        <time>2021-06-11T16:07:13Z</time>
      </trkpt>
      <trkpt lat="37.102614" lon="-1.847193">
        <ele>16.847</ele>
        <time>2021-06-11T16:07:15Z</time>
      </trkpt>
      <trkpt lat="37.102525" lon="-1.847214">
        <ele>16.945</ele>
        <time>2021-06-11T16:07:16Z</time>
      </trkpt>
      <trkpt lat="37.102436" lon="-1.847232">
        <ele>17.120</ele>
        <time>2021-06-11T16:07:17Z</time>
      </trkpt>
      <trkpt lat="37.102347" lon="-1.847249">
        <ele>17.141</ele>
        <time>2021-06-11T16:07:18Z</time>
      </trkpt>
      <trkpt lat="37.102175" lon="-1.847281">
        <ele>17.215</ele>
        <time>2021-06-11T16:07:20Z</time>
      </trkpt>
      <trkpt lat="37.102088" lon="-1.847296">
        <ele>17.088</ele>
        <time>2021-06-11T16:07:21Z</time>
      </trkpt>
      <trkpt lat="37.101999" lon="-1.847309">
        <ele>17.111</ele>
        <time>2021-06-11T16:07:22Z</time>
      </trkpt>
      <trkpt lat="37.101907" lon="-1.847323">
        <ele>17.421</ele>
        <time>2021-06-11T16:07:23Z</time>
      </trkpt>
      <trkpt lat="37.101724" lon="-1.847355">
        <ele>17.503</ele>
        <time>2021-06-11T16:07:25Z</time>
      </trkpt>
      <trkpt lat="37.101546" lon="-1.847379">
        <ele>17.808</ele>
        <time>2021-06-11T16:07:27Z</time>
      </trkpt>
      <trkpt lat="37.10146" lon="-1.847393">
        <ele>17.338</ele>
        <time>2021-06-11T16:07:28Z</time>
      </trkpt>
      <trkpt lat="37.101294" lon="-1.8474">
        <ele>17.556</ele>
        <time>2021-06-11T16:07:30Z</time>
      </trkpt>
      <trkpt lat="37.101146" lon="-1.847396">
        <ele>17.376</ele>
        <time>2021-06-11T16:07:32Z</time>
      </trkpt>
      <trkpt lat="37.101069" lon="-1.847401">
        <ele>17.554</ele>
        <time>2021-06-11T16:07:33Z</time>
      </trkpt>
      <trkpt lat="37.100899" lon="-1.847442">
        <ele>17.429</ele>
        <time>2021-06-11T16:07:35Z</time>
      </trkpt>
      <trkpt lat="37.10071" lon="-1.847509">
        <ele>17.010</ele>
        <time>2021-06-11T16:07:37Z</time>
      </trkpt>
      <trkpt lat="37.100521" lon="-1.847574">
        <ele>17.014</ele>
        <time>2021-06-11T16:07:39Z</time>
      </trkpt>
      <trkpt lat="37.100325" lon="-1.84763">
        <ele>16.967</ele>
        <time>2021-06-11T16:07:41Z</time>
      </trkpt>
      <trkpt lat="37.100148" lon="-1.847673">
        <ele>17.093</ele>
        <time>2021-06-11T16:07:43Z</time>
      </trkpt>
      <trkpt lat="37.099984" lon="-1.847711">
        <ele>16.965</ele>
        <time>2021-06-11T16:07:45Z</time>
      </trkpt>
      <trkpt lat="37.099821" lon="-1.847747">
        <ele>16.621</ele>
        <time>2021-06-11T16:07:47Z</time>
      </trkpt>
      <trkpt lat="37.099733" lon="-1.847764">
        <ele>16.608</ele>
        <time>2021-06-11T16:07:48Z</time>
      </trkpt>
      <trkpt lat="37.099554" lon="-1.847828">
        <ele>16.416</ele>
        <time>2021-06-11T16:07:50Z</time>
      </trkpt>
      <trkpt lat="37.099391" lon="-1.847962">
        <ele>16.574</ele>
        <time>2021-06-11T16:07:52Z</time>
      </trkpt>
      <trkpt lat="37.099268" lon="-1.848175">
        <ele>16.574</ele>
        <time>2021-06-11T16:07:54Z</time>
      </trkpt>
      <trkpt lat="37.099227" lon="-1.848304">
        <ele>16.442</ele>
        <time>2021-06-11T16:07:55Z</time>
      </trkpt>
      <trkpt lat="37.099189" lon="-1.848435">
        <ele>16.417</ele>
        <time>2021-06-11T16:07:56Z</time>
      </trkpt>
      <trkpt lat="37.099104" lon="-1.848697">
        <ele>16.688</ele>
        <time>2021-06-11T16:07:58Z</time>
      </trkpt>
      <trkpt lat="37.099015" lon="-1.848973">
        <ele>17.252</ele>
        <time>2021-06-11T16:08:00Z</time>
      </trkpt>
      <trkpt lat="37.098972" lon="-1.849114">
        <ele>17.865</ele>
        <time>2021-06-11T16:08:01Z</time>
      </trkpt>
      <trkpt lat="37.098867" lon="-1.849391">
        <ele>19.227</ele>
        <time>2021-06-11T16:08:03Z</time>
      </trkpt>
      <trkpt lat="37.098734" lon="-1.849668">
        <ele>20.468</ele>
        <time>2021-06-11T16:08:05Z</time>
      </trkpt>
      <trkpt lat="37.098583" lon="-1.84993">
        <ele>21.614</ele>
        <time>2021-06-11T16:08:07Z</time>
      </trkpt>
      <trkpt lat="37.098506" lon="-1.850048">
        <ele>22.708</ele>
        <time>2021-06-11T16:08:08Z</time>
      </trkpt>
      <trkpt lat="37.09837" lon="-1.850253">
        <ele>23.439</ele>
        <time>2021-06-11T16:08:10Z</time>
      </trkpt>
      <trkpt lat="37.098307" lon="-1.85035">
        <ele>24.317</ele>
        <time>2021-06-11T16:08:11Z</time>
      </trkpt>
      <trkpt lat="37.09825" lon="-1.850444">
        <ele>25.027</ele>
        <time>2021-06-11T16:08:12Z</time>
      </trkpt>
      <trkpt lat="37.098142" lon="-1.85063">
        <ele>25.555</ele>
        <time>2021-06-11T16:08:14Z</time>
      </trkpt>
      <trkpt lat="37.098081" lon="-1.850729">
        <ele>25.750</ele>
        <time>2021-06-11T16:08:15Z</time>
      </trkpt>
      <trkpt lat="37.097943" lon="-1.850928">
        <ele>26.131</ele>
        <time>2021-06-11T16:08:17Z</time>
      </trkpt>
      <trkpt lat="37.097762" lon="-1.851078">
        <ele>26.135</ele>
        <time>2021-06-11T16:08:19Z</time>
      </trkpt>
      <trkpt lat="37.097651" lon="-1.851122">
        <ele>26.778</ele>
        <time>2021-06-11T16:08:20Z</time>
      </trkpt>
      <trkpt lat="37.097534" lon="-1.851149">
        <ele>27.087</ele>
        <time>2021-06-11T16:08:21Z</time>
      </trkpt>
      <trkpt lat="37.09729" lon="-1.851184">
        <ele>27.842</ele>
        <time>2021-06-11T16:08:23Z</time>
      </trkpt>
      <trkpt lat="37.097166" lon="-1.851204">
        <ele>28.226</ele>
        <time>2021-06-11T16:08:24Z</time>
      </trkpt>
      <trkpt lat="37.09692" lon="-1.851288">
        <ele>29.108</ele>
        <time>2021-06-11T16:08:26Z</time>
      </trkpt>
      <trkpt lat="37.096677" lon="-1.851431">
        <ele>30.015</ele>
        <time>2021-06-11T16:08:28Z</time>
      </trkpt>
      <trkpt lat="37.096556" lon="-1.851518">
        <ele>30.893</ele>
        <time>2021-06-11T16:08:29Z</time>
      </trkpt>
      <trkpt lat="37.096436" lon="-1.851611">
        <ele>31.423</ele>
        <time>2021-06-11T16:08:30Z</time>
      </trkpt>
      <trkpt lat="37.096316" lon="-1.851714">
        <ele>32.071</ele>
        <time>2021-06-11T16:08:31Z</time>
      </trkpt>
      <trkpt lat="37.096072" lon="-1.851937">
        <ele>32.776</ele>
        <time>2021-06-11T16:08:33Z</time>
      </trkpt>
      <trkpt lat="37.095813" lon="-1.852171">
        <ele>33.587</ele>
        <time>2021-06-11T16:08:35Z</time>
      </trkpt>
      <trkpt lat="37.095676" lon="-1.852286">
        <ele>34.441</ele>
        <time>2021-06-11T16:08:36Z</time>
      </trkpt>
      <trkpt lat="37.095395" lon="-1.852512">
        <ele>35.474</ele>
        <time>2021-06-11T16:08:38Z</time>
      </trkpt>
      <trkpt lat="37.095115" lon="-1.852751">
        <ele>36.417</ele>
        <time>2021-06-11T16:08:40Z</time>
      </trkpt>
      <trkpt lat="37.094978" lon="-1.852875">
        <ele>37.387</ele>
        <time>2021-06-11T16:08:41Z</time>
      </trkpt>
      <trkpt lat="37.094705" lon="-1.853114">
        <ele>38.415</ele>
        <time>2021-06-11T16:08:43Z</time>
      </trkpt>
      <trkpt lat="37.094566" lon="-1.85323">
        <ele>39.708</ele>
        <time>2021-06-11T16:08:44Z</time>
      </trkpt>
      <trkpt lat="37.094424" lon="-1.853342">
        <ele>41.298</ele>
        <time>2021-06-11T16:08:45Z</time>
      </trkpt>
      <trkpt lat="37.094131" lon="-1.853543">
        <ele>43.146</ele>
        <time>2021-06-11T16:08:47Z</time>
      </trkpt>
      <trkpt lat="37.093984" lon="-1.853626">
        <ele>45.186</ele>
        <time>2021-06-11T16:08:48Z</time>
      </trkpt>
      <trkpt lat="37.093837" lon="-1.853703">
        <ele>46.964</ele>
        <time>2021-06-11T16:08:49Z</time>
      </trkpt>
      <trkpt lat="37.093687" lon="-1.853774">
        <ele>48.919</ele>
        <time>2021-06-11T16:08:50Z</time>
      </trkpt>
      <trkpt lat="37.093534" lon="-1.853846">
        <ele>51.020</ele>
        <time>2021-06-11T16:08:51Z</time>
      </trkpt>
      <trkpt lat="37.09321" lon="-1.853999">
        <ele>53.614</ele>
        <time>2021-06-11T16:08:53Z</time>
      </trkpt>
      <trkpt lat="37.092872" lon="-1.854144">
        <ele>56.467</ele>
        <time>2021-06-11T16:08:55Z</time>
      </trkpt>
      <trkpt lat="37.092717" lon="-1.854202">
        <ele>58.394</ele>
        <time>2021-06-11T16:08:56Z</time>
      </trkpt>
      <trkpt lat="37.092409" lon="-1.854302">
        <ele>59.857</ele>
        <time>2021-06-11T16:08:58Z</time>
      </trkpt>
      <trkpt lat="37.092085" lon="-1.854411">
        <ele>60.222</ele>
        <time>2021-06-11T16:09:00Z</time>
      </trkpt>
      <trkpt lat="37.091775" lon="-1.854531">
        <ele>60.208</ele>
        <time>2021-06-11T16:09:02Z</time>
      </trkpt>
      <trkpt lat="37.091482" lon="-1.854658">
        <ele>59.126</ele>
        <time>2021-06-11T16:09:04Z</time>
      </trkpt>
      <trkpt lat="37.091335" lon="-1.854718">
        <ele>58.154</ele>
        <time>2021-06-11T16:09:05Z</time>
      </trkpt>
      <trkpt lat="37.091183" lon="-1.854781">
        <ele>57.374</ele>
        <time>2021-06-11T16:09:06Z</time>
      </trkpt>
      <trkpt lat="37.09086" lon="-1.854907">
        <ele>56.042</ele>
        <time>2021-06-11T16:09:08Z</time>
      </trkpt>
      <trkpt lat="37.09069" lon="-1.854956">
        <ele>54.627</ele>
        <time>2021-06-11T16:09:09Z</time>
      </trkpt>
      <trkpt lat="37.090344" lon="-1.855009">
        <ele>53.228</ele>
        <time>2021-06-11T16:09:11Z</time>
      </trkpt>
      <trkpt lat="37.090167" lon="-1.855018">
        <ele>51.842</ele>
        <time>2021-06-11T16:09:12Z</time>
      </trkpt>
      <trkpt lat="37.08983" lon="-1.855019">
        <ele>50.115</ele>
        <time>2021-06-11T16:09:14Z</time>
      </trkpt>
      <trkpt lat="37.089667" lon="-1.855021">
        <ele>49.184</ele>
        <time>2021-06-11T16:09:15Z</time>
      </trkpt>
      <trkpt lat="37.089507" lon="-1.85502">
        <ele>48.007</ele>
        <time>2021-06-11T16:09:16Z</time>
      </trkpt>
      <trkpt lat="37.089349" lon="-1.855019">
        <ele>47.117</ele>
        <time>2021-06-11T16:09:17Z</time>
      </trkpt>
      <trkpt lat="37.089189" lon="-1.855018">
        <ele>45.908</ele>
        <time>2021-06-11T16:09:18Z</time>
      </trkpt>
      <trkpt lat="37.088869" lon="-1.855012">
        <ele>45.095</ele>
        <time>2021-06-11T16:09:20Z</time>
      </trkpt>
      <trkpt lat="37.088705" lon="-1.854999">
        <ele>44.193</ele>
        <time>2021-06-11T16:09:21Z</time>
      </trkpt>
      <trkpt lat="37.088392" lon="-1.854946">
        <ele>43.013</ele>
        <time>2021-06-11T16:09:23Z</time>
      </trkpt>
      <trkpt lat="37.088101" lon="-1.854821">
        <ele>41.731</ele>
        <time>2021-06-11T16:09:25Z</time>
      </trkpt>
      <trkpt lat="37.08785" lon="-1.854579">
        <ele>40.036</ele>
        <time>2021-06-11T16:09:27Z</time>
      </trkpt>
      <trkpt lat="37.087676" lon="-1.854248">
        <ele>38.247</ele>
        <time>2021-06-11T16:09:29Z</time>
      </trkpt>
      <trkpt lat="37.087622" lon="-1.854062">
        <ele>37.161</ele>
        <time>2021-06-11T16:09:30Z</time>
      </trkpt>
      <trkpt lat="37.087567" lon="-1.853678">
        <ele>35.414</ele>
        <time>2021-06-11T16:09:32Z</time>
      </trkpt>
      <trkpt lat="37.087516" lon="-1.853312">
        <ele>33.268</ele>
        <time>2021-06-11T16:09:34Z</time>
      </trkpt>
      <trkpt lat="37.087477" lon="-1.853136">
        <ele>31.542</ele>
        <time>2021-06-11T16:09:35Z</time>
      </trkpt>
      <trkpt lat="37.087349" lon="-1.852821">
        <ele>29.926</ele>
        <time>2021-06-11T16:09:37Z</time>
      </trkpt>
      <trkpt lat="37.087166" lon="-1.852584">
        <ele>28.408</ele>
        <time>2021-06-11T16:09:39Z</time>
      </trkpt>
      <trkpt lat="37.087082" lon="-1.852494">
        <ele>26.963</ele>
        <time>2021-06-11T16:09:40Z</time>
      </trkpt>
      <trkpt lat="37.087009" lon="-1.852423">
        <ele>25.821</ele>
        <time>2021-06-11T16:09:41Z</time>
      </trkpt>
      <trkpt lat="37.086938" lon="-1.852365">
        <ele>25.171</ele>
        <time>2021-06-11T16:09:42Z</time>
      </trkpt>
      <trkpt lat="37.086779" lon="-1.852311">
        <ele>24.359</ele>
        <time>2021-06-11T16:09:44Z</time>
      </trkpt>
      <trkpt lat="37.086648" lon="-1.852207">
        <ele>23.974</ele>
        <time>2021-06-11T16:09:46Z</time>
      </trkpt>
      <trkpt lat="37.086607" lon="-1.852116">
        <ele>23.465</ele>
        <time>2021-06-11T16:09:47Z</time>
      </trkpt>
      <trkpt lat="37.086556" lon="-1.85202">
        <ele>23.059</ele>
        <time>2021-06-11T16:09:48Z</time>
      </trkpt>
      <trkpt lat="37.086401" lon="-1.851841">
        <ele>22.662</ele>
        <time>2021-06-11T16:09:50Z</time>
      </trkpt>
      <trkpt lat="37.086211" lon="-1.851642">
        <ele>22.261</ele>
        <time>2021-06-11T16:09:52Z</time>
      </trkpt>
      <trkpt lat="37.0861" lon="-1.851555">
        <ele>22.021</ele>
        <time>2021-06-11T16:09:53Z</time>
      </trkpt>
      <trkpt lat="37.085982" lon="-1.851473">
        <ele>22.013</ele>
        <time>2021-06-11T16:09:54Z</time>
      </trkpt>
      <trkpt lat="37.085859" lon="-1.851401">
        <ele>21.908</ele>
        <time>2021-06-11T16:09:55Z</time>
      </trkpt>
      <trkpt lat="37.085593" lon="-1.851313">
        <ele>22.093</ele>
        <time>2021-06-11T16:09:57Z</time>
      </trkpt>
      <trkpt lat="37.085334" lon="-1.851273">
        <ele>21.921</ele>
        <time>2021-06-11T16:09:59Z</time>
      </trkpt>
      <trkpt lat="37.085218" lon="-1.851272">
        <ele>21.741</ele>
        <time>2021-06-11T16:10:00Z</time>
      </trkpt>
      <trkpt lat="37.085106" lon="-1.851271">
        <ele>21.769</ele>
        <time>2021-06-11T16:10:01Z</time>
      </trkpt>
      <trkpt lat="37.084888" lon="-1.851266">
        <ele>21.614</ele>
        <time>2021-06-11T16:10:03Z</time>
      </trkpt>
      <trkpt lat="37.084781" lon="-1.851257">
        <ele>21.455</ele>
        <time>2021-06-11T16:10:04Z</time>
      </trkpt>
      <trkpt lat="37.084678" lon="-1.851245">
        <ele>21.229</ele>
        <time>2021-06-11T16:10:05Z</time>
      </trkpt>
      <trkpt lat="37.084579" lon="-1.851232">
        <ele>21.522</ele>
        <time>2021-06-11T16:10:06Z</time>
      </trkpt>
      <trkpt lat="37.084486" lon="-1.851221">
        <ele>21.688</ele>
        <time>2021-06-11T16:10:07Z</time>
      </trkpt>
      <trkpt lat="37.084324" lon="-1.851233">
        <ele>21.524</ele>
        <time>2021-06-11T16:10:09Z</time>
      </trkpt>
      <trkpt lat="37.084249" lon="-1.85127">
        <ele>20.926</ele>
        <time>2021-06-11T16:10:10Z</time>
      </trkpt>
      <trkpt lat="37.084175" lon="-1.851311">
        <ele>20.508</ele>
        <time>2021-06-11T16:10:11Z</time>
      </trkpt>
      <trkpt lat="37.084029" lon="-1.851286">
        <ele>20.465</ele>
        <time>2021-06-11T16:10:13Z</time>
      </trkpt>
      <trkpt lat="37.083948" lon="-1.851241">
        <ele>20.143</ele>
        <time>2021-06-11T16:10:14Z</time>
      </trkpt>
      <trkpt lat="37.083855" lon="-1.851208">
        <ele>20.283</ele>
        <time>2021-06-11T16:10:15Z</time>
      </trkpt>
      <trkpt lat="37.083755" lon="-1.851189">
        <ele>20.291</ele>
        <time>2021-06-11T16:10:16Z</time>
      </trkpt>
      <trkpt lat="37.083536" lon="-1.85118">
        <ele>20.396</ele>
        <time>2021-06-11T16:10:18Z</time>
      </trkpt>
      <trkpt lat="37.083295" lon="-1.851168">
        <ele>20.637</ele>
        <time>2021-06-11T16:10:20Z</time>
      </trkpt>
      <trkpt lat="37.083048" lon="-1.851148">
        <ele>21.111</ele>
        <time>2021-06-11T16:10:22Z</time>
      </trkpt>
      <trkpt lat="37.082803" lon="-1.851133">
        <ele>21.254</ele>
        <time>2021-06-11T16:10:24Z</time>
      </trkpt>
      <trkpt lat="37.082566" lon="-1.851112">
        <ele>21.666</ele>
        <time>2021-06-11T16:10:26Z</time>
      </trkpt>
      <trkpt lat="37.082325" lon="-1.851092">
        <ele>21.629</ele>
        <time>2021-06-11T16:10:28Z</time>
      </trkpt>
      <trkpt lat="37.082201" lon="-1.851085">
        <ele>21.721</ele>
        <time>2021-06-11T16:10:29Z</time>
      </trkpt>
      <trkpt lat="37.082079" lon="-1.851085">
        <ele>21.608</ele>
        <time>2021-06-11T16:10:30Z</time>
      </trkpt>
      <trkpt lat="37.081835" lon="-1.851117">
        <ele>21.953</ele>
        <time>2021-06-11T16:10:32Z</time>
      </trkpt>
      <trkpt lat="37.081588" lon="-1.851191">
        <ele>22.231</ele>
        <time>2021-06-11T16:10:34Z</time>
      </trkpt>
      <trkpt lat="37.081355" lon="-1.851314">
        <ele>22.341</ele>
        <time>2021-06-11T16:10:36Z</time>
      </trkpt>
      <trkpt lat="37.081139" lon="-1.851458">
        <ele>22.449</ele>
        <time>2021-06-11T16:10:38Z</time>
      </trkpt>
      <trkpt lat="37.080942" lon="-1.851587">
        <ele>22.354</ele>
        <time>2021-06-11T16:10:40Z</time>
      </trkpt>
      <trkpt lat="37.080853" lon="-1.851644">
        <ele>22.315</ele>
        <time>2021-06-11T16:10:41Z</time>
      </trkpt>
      <trkpt lat="37.0807" lon="-1.851751">
        <ele>21.889</ele>
        <time>2021-06-11T16:10:43Z</time>
      </trkpt>
      <trkpt lat="37.08064" lon="-1.851824">
        <ele>21.232</ele>
        <time>2021-06-11T16:10:44Z</time>
      </trkpt>
      <trkpt lat="37.080593" lon="-1.851906">
        <ele>20.918</ele>
        <time>2021-06-11T16:10:45Z</time>
      </trkpt>
      <trkpt lat="37.080539" lon="-1.85197">
        <ele>20.598</ele>
        <time>2021-06-11T16:10:46Z</time>
      </trkpt>
      <trkpt lat="37.080468" lon="-1.852002">
        <ele>20.617</ele>
        <time>2021-06-11T16:10:47Z</time>
      </trkpt>
      <trkpt lat="37.08038" lon="-1.852011">
        <ele>20.608</ele>
        <time>2021-06-11T16:10:48Z</time>
      </trkpt>
      <trkpt lat="37.080175" lon="-1.852077">
        <ele>20.648</ele>
        <time>2021-06-11T16:10:50Z</time>
      </trkpt>
      <trkpt lat="37.079962" lon="-1.852221">
        <ele>21.296</ele>
        <time>2021-06-11T16:10:52Z</time>
      </trkpt>
      <trkpt lat="37.079744" lon="-1.852411">
        <ele>21.576</ele>
        <time>2021-06-11T16:10:54Z</time>
      </trkpt>
      <trkpt lat="37.079534" lon="-1.852648">
        <ele>21.914</ele>
        <time>2021-06-11T16:10:56Z</time>
      </trkpt>
      <trkpt lat="37.079327" lon="-1.852895">
        <ele>22.349</ele>
        <time>2021-06-11T16:10:58Z</time>
      </trkpt>
      <trkpt lat="37.079223" lon="-1.853023">
        <ele>22.720</ele>
        <time>2021-06-11T16:10:59Z</time>
      </trkpt>
      <trkpt lat="37.079118" lon="-1.853155">
        <ele>23.014</ele>
        <time>2021-06-11T16:11:00Z</time>
      </trkpt>
      <trkpt lat="37.078908" lon="-1.853412">
        <ele>23.427</ele>
        <time>2021-06-11T16:11:02Z</time>
      </trkpt>
      <trkpt lat="37.078796" lon="-1.853536">
        <ele>23.642</ele>
        <time>2021-06-11T16:11:03Z</time>
      </trkpt>
      <trkpt lat="37.078684" lon="-1.853663">
        <ele>23.722</ele>
        <time>2021-06-11T16:11:04Z</time>
      </trkpt>
      <trkpt lat="37.078469" lon="-1.853938">
        <ele>24.014</ele>
        <time>2021-06-11T16:11:06Z</time>
      </trkpt>
      <trkpt lat="37.078368" lon="-1.854088">
        <ele>24.208</ele>
        <time>2021-06-11T16:11:07Z</time>
      </trkpt>
      <trkpt lat="37.07827" lon="-1.854249">
        <ele>24.891</ele>
        <time>2021-06-11T16:11:08Z</time>
      </trkpt>
      <trkpt lat="37.078179" lon="-1.854423">
        <ele>25.569</ele>
        <time>2021-06-11T16:11:09Z</time>
      </trkpt>
      <trkpt lat="37.078098" lon="-1.854608">
        <ele>26.119</ele>
        <time>2021-06-11T16:11:10Z</time>
      </trkpt>
      <trkpt lat="37.077967" lon="-1.855002">
        <ele>26.937</ele>
        <time>2021-06-11T16:11:12Z</time>
      </trkpt>
      <trkpt lat="37.077871" lon="-1.855404">
        <ele>28.142</ele>
        <time>2021-06-11T16:11:14Z</time>
      </trkpt>
      <trkpt lat="37.077805" lon="-1.85577">
        <ele>29.333</ele>
        <time>2021-06-11T16:11:16Z</time>
      </trkpt>
      <trkpt lat="37.077755" lon="-1.856083">
        <ele>30.557</ele>
        <time>2021-06-11T16:11:18Z</time>
      </trkpt>
      <trkpt lat="37.077731" lon="-1.856227">
        <ele>31.590</ele>
        <time>2021-06-11T16:11:19Z</time>
      </trkpt>
      <trkpt lat="37.077709" lon="-1.85637">
        <ele>32.614</ele>
        <time>2021-06-11T16:11:20Z</time>
      </trkpt>
      <trkpt lat="37.077687" lon="-1.856511">
        <ele>33.554</ele>
        <time>2021-06-11T16:11:21Z</time>
      </trkpt>
      <trkpt lat="37.077662" lon="-1.856649">
        <ele>34.509</ele>
        <time>2021-06-11T16:11:22Z</time>
      </trkpt>
      <trkpt lat="37.077609" lon="-1.856908">
        <ele>35.608</ele>
        <time>2021-06-11T16:11:24Z</time>
      </trkpt>
      <trkpt lat="37.077556" lon="-1.857136">
        <ele>36.538</ele>
        <time>2021-06-11T16:11:26Z</time>
      </trkpt>
      <trkpt lat="37.07753" lon="-1.857233">
        <ele>37.166</ele>
        <time>2021-06-11T16:11:27Z</time>
      </trkpt>
      <trkpt lat="37.077497" lon="-1.857401">
        <ele>37.996</ele>
        <time>2021-06-11T16:11:29Z</time>
      </trkpt>
      <trkpt lat="37.077472" lon="-1.857553">
        <ele>38.554</ele>
        <time>2021-06-11T16:11:31Z</time>
      </trkpt>
      <trkpt lat="37.077429" lon="-1.857613">
        <ele>38.949</ele>
        <time>2021-06-11T16:11:32Z</time>
      </trkpt>
      <trkpt lat="37.077282" lon="-1.857653">
        <ele>39.640</ele>
        <time>2021-06-11T16:11:34Z</time>
      </trkpt>
      <trkpt lat="37.077191" lon="-1.857656">
        <ele>40.244</ele>
        <time>2021-06-11T16:11:35Z</time>
      </trkpt>
      <trkpt lat="37.076991" lon="-1.85771">
        <ele>40.867</ele>
        <time>2021-06-11T16:11:37Z</time>
      </trkpt>
      <trkpt lat="37.076883" lon="-1.85775">
        <ele>41.042</ele>
        <time>2021-06-11T16:11:38Z</time>
      </trkpt>
      <trkpt lat="37.076646" lon="-1.857828">
        <ele>41.522</ele>
        <time>2021-06-11T16:11:40Z</time>
      </trkpt>
      <trkpt lat="37.076517" lon="-1.857864">
        <ele>42.014</ele>
        <time>2021-06-11T16:11:41Z</time>
      </trkpt>
      <trkpt lat="37.076248" lon="-1.857952">
        <ele>42.308</ele>
        <time>2021-06-11T16:11:43Z</time>
      </trkpt>
      <trkpt lat="37.076113" lon="-1.858009">
        <ele>42.431</ele>
        <time>2021-06-11T16:11:44Z</time>
      </trkpt>
      <trkpt lat="37.075979" lon="-1.85808">
        <ele>42.879</ele>
        <time>2021-06-11T16:11:45Z</time>
      </trkpt>
      <trkpt lat="37.075724" lon="-1.858264">
        <ele>43.289</ele>
        <time>2021-06-11T16:11:47Z</time>
      </trkpt>
      <trkpt lat="37.075603" lon="-1.858386">
        <ele>43.627</ele>
        <time>2021-06-11T16:11:48Z</time>
      </trkpt>
      <trkpt lat="37.075381" lon="-1.858665">
        <ele>44.022</ele>
        <time>2021-06-11T16:11:50Z</time>
      </trkpt>
      <trkpt lat="37.075276" lon="-1.858813">
        <ele>44.563</ele>
        <time>2021-06-11T16:11:51Z</time>
      </trkpt>
      <trkpt lat="37.075079" lon="-1.859122">
        <ele>45.997</ele>
        <time>2021-06-11T16:11:53Z</time>
      </trkpt>
      <trkpt lat="37.074981" lon="-1.859278">
        <ele>47.030</ele>
        <time>2021-06-11T16:11:54Z</time>
      </trkpt>
      <trkpt lat="37.07477" lon="-1.859577">
        <ele>48.279</ele>
        <time>2021-06-11T16:11:56Z</time>
      </trkpt>
      <trkpt lat="37.074644" lon="-1.859708">
        <ele>49.305</ele>
        <time>2021-06-11T16:11:57Z</time>
      </trkpt>
      <trkpt lat="37.074506" lon="-1.859829">
        <ele>50.425</ele>
        <time>2021-06-11T16:11:58Z</time>
      </trkpt>
      <trkpt lat="37.074203" lon="-1.860054">
        <ele>51.808</ele>
        <time>2021-06-11T16:12:00Z</time>
      </trkpt>
      <trkpt lat="37.074043" lon="-1.86016">
        <ele>52.914</ele>
        <time>2021-06-11T16:12:01Z</time>
      </trkpt>
      <trkpt lat="37.073884" lon="-1.860261">
        <ele>54.132</ele>
        <time>2021-06-11T16:12:02Z</time>
      </trkpt>
      <trkpt lat="37.073584" lon="-1.860465">
        <ele>55.392</ele>
        <time>2021-06-11T16:12:04Z</time>
      </trkpt>
      <trkpt lat="37.073289" lon="-1.860673">
        <ele>56.460</ele>
        <time>2021-06-11T16:12:06Z</time>
      </trkpt>
      <trkpt lat="37.073142" lon="-1.860777">
        <ele>57.275</ele>
        <time>2021-06-11T16:12:07Z</time>
      </trkpt>
      <trkpt lat="37.072995" lon="-1.860881">
        <ele>58.446</ele>
        <time>2021-06-11T16:12:08Z</time>
      </trkpt>
      <trkpt lat="37.072849" lon="-1.860984">
        <ele>58.760</ele>
        <time>2021-06-11T16:12:09Z</time>
      </trkpt>
      <trkpt lat="37.072558" lon="-1.861185">
        <ele>59.333</ele>
        <time>2021-06-11T16:12:11Z</time>
      </trkpt>
      <trkpt lat="37.072282" lon="-1.861407">
        <ele>60.685</ele>
        <time>2021-06-11T16:12:13Z</time>
      </trkpt>
      <trkpt lat="37.072146" lon="-1.861527">
        <ele>61.789</ele>
        <time>2021-06-11T16:12:14Z</time>
      </trkpt>
      <trkpt lat="37.072012" lon="-1.86165">
        <ele>62.517</ele>
        <time>2021-06-11T16:12:15Z</time>
      </trkpt>
      <trkpt lat="37.071742" lon="-1.861896">
        <ele>63.608</ele>
        <time>2021-06-11T16:12:17Z</time>
      </trkpt>
      <trkpt lat="37.071606" lon="-1.86202">
        <ele>64.815</ele>
        <time>2021-06-11T16:12:18Z</time>
      </trkpt>
      <trkpt lat="37.071473" lon="-1.862145">
        <ele>65.813</ele>
        <time>2021-06-11T16:12:19Z</time>
      </trkpt>
      <trkpt lat="37.07134" lon="-1.862269">
        <ele>66.693</ele>
        <time>2021-06-11T16:12:20Z</time>
      </trkpt>
      <trkpt lat="37.071072" lon="-1.862519">
        <ele>67.451</ele>
        <time>2021-06-11T16:12:22Z</time>
      </trkpt>
      <trkpt lat="37.070937" lon="-1.862645">
        <ele>68.116</ele>
        <time>2021-06-11T16:12:23Z</time>
      </trkpt>
      <trkpt lat="37.070663" lon="-1.862901">
        <ele>69.397</ele>
        <time>2021-06-11T16:12:25Z</time>
      </trkpt>
      <trkpt lat="37.070522" lon="-1.863029">
        <ele>70.021</ele>
        <time>2021-06-11T16:12:26Z</time>
      </trkpt>
      <trkpt lat="37.070383" lon="-1.863159">
        <ele>70.894</ele>
        <time>2021-06-11T16:12:27Z</time>
      </trkpt>
      <trkpt lat="37.070101" lon="-1.863419">
        <ele>71.939</ele>
        <time>2021-06-11T16:12:29Z</time>
      </trkpt>
      <trkpt lat="37.06996" lon="-1.863548">
        <ele>72.901</ele>
        <time>2021-06-11T16:12:30Z</time>
      </trkpt>
      <trkpt lat="37.069818" lon="-1.863677">
        <ele>73.721</ele>
        <time>2021-06-11T16:12:31Z</time>
      </trkpt>
      <trkpt lat="37.069538" lon="-1.863938">
        <ele>74.808</ele>
        <time>2021-06-11T16:12:33Z</time>
      </trkpt>
      <trkpt lat="37.069403" lon="-1.864068">
        <ele>75.880</ele>
        <time>2021-06-11T16:12:34Z</time>
      </trkpt>
      <trkpt lat="37.069267" lon="-1.864198">
        <ele>76.728</ele>
        <time>2021-06-11T16:12:35Z</time>
      </trkpt>
      <trkpt lat="37.068998" lon="-1.864462">
        <ele>77.878</ele>
        <time>2021-06-11T16:12:37Z</time>
      </trkpt>
      <trkpt lat="37.068863" lon="-1.864601">
        <ele>78.966</ele>
        <time>2021-06-11T16:12:38Z</time>
      </trkpt>
      <trkpt lat="37.068596" lon="-1.864897">
        <ele>80.341</ele>
        <time>2021-06-11T16:12:40Z</time>
      </trkpt>
      <trkpt lat="37.068326" lon="-1.865207">
        <ele>82.122</ele>
        <time>2021-06-11T16:12:42Z</time>
      </trkpt>
      <trkpt lat="37.068056" lon="-1.865517">
        <ele>84.086</ele>
        <time>2021-06-11T16:12:44Z</time>
      </trkpt>
      <trkpt lat="37.067922" lon="-1.865678">
        <ele>85.529</ele>
        <time>2021-06-11T16:12:45Z</time>
      </trkpt>
      <trkpt lat="37.067789" lon="-1.865841">
        <ele>86.795</ele>
        <time>2021-06-11T16:12:46Z</time>
      </trkpt>
      <trkpt lat="37.067515" lon="-1.86616">
        <ele>88.149</ele>
        <time>2021-06-11T16:12:48Z</time>
      </trkpt>
      <trkpt lat="37.067234" lon="-1.86648">
        <ele>89.223</ele>
        <time>2021-06-11T16:12:50Z</time>
      </trkpt>
      <trkpt lat="37.067092" lon="-1.866642">
        <ele>90.408</ele>
        <time>2021-06-11T16:12:51Z</time>
      </trkpt>
      <trkpt lat="37.066947" lon="-1.866806">
        <ele>91.446</ele>
        <time>2021-06-11T16:12:52Z</time>
      </trkpt>
      <trkpt lat="37.066663" lon="-1.867124">
        <ele>92.884</ele>
        <time>2021-06-11T16:12:54Z</time>
      </trkpt>
      <trkpt lat="37.066381" lon="-1.867442">
        <ele>93.884</ele>
        <time>2021-06-11T16:12:56Z</time>
      </trkpt>
      <trkpt lat="37.066237" lon="-1.867603">
        <ele>94.942</ele>
        <time>2021-06-11T16:12:57Z</time>
      </trkpt>
      <trkpt lat="37.065949" lon="-1.867922">
        <ele>96.037</ele>
        <time>2021-06-11T16:12:59Z</time>
      </trkpt>
      <trkpt lat="37.0658" lon="-1.868083">
        <ele>96.918</ele>
        <time>2021-06-11T16:13:00Z</time>
      </trkpt>
      <trkpt lat="37.065497" lon="-1.868398">
        <ele>98.352</ele>
        <time>2021-06-11T16:13:02Z</time>
      </trkpt>
      <trkpt lat="37.065188" lon="-1.868708">
        <ele>99.215</ele>
        <time>2021-06-11T16:13:04Z</time>
      </trkpt>
      <trkpt lat="37.065036" lon="-1.868856">
        <ele>100.159</ele>
        <time>2021-06-11T16:13:05Z</time>
      </trkpt>
      <trkpt lat="37.064744" lon="-1.869145">
        <ele>100.803</ele>
        <time>2021-06-11T16:13:07Z</time>
      </trkpt>
      <trkpt lat="37.064598" lon="-1.869293">
        <ele>101.223</ele>
        <time>2021-06-11T16:13:08Z</time>
      </trkpt>
      <trkpt lat="37.064308" lon="-1.869592">
        <ele>101.908</ele>
        <time>2021-06-11T16:13:10Z</time>
      </trkpt>
      <trkpt lat="37.06416" lon="-1.869743">
        <ele>102.512</ele>
        <time>2021-06-11T16:13:11Z</time>
      </trkpt>
      <trkpt lat="37.063862" lon="-1.870044">
        <ele>103.480</ele>
        <time>2021-06-11T16:13:13Z</time>
      </trkpt>
      <trkpt lat="37.063558" lon="-1.87035">
        <ele>105.090</ele>
        <time>2021-06-11T16:13:15Z</time>
      </trkpt>
      <trkpt lat="37.063254" lon="-1.87065">
        <ele>107.638</ele>
        <time>2021-06-11T16:13:17Z</time>
      </trkpt>
      <trkpt lat="37.062962" lon="-1.870937">
        <ele>110.063</ele>
        <time>2021-06-11T16:13:19Z</time>
      </trkpt>
      <trkpt lat="37.06282" lon="-1.871078">
        <ele>111.734</ele>
        <time>2021-06-11T16:13:20Z</time>
      </trkpt>
      <trkpt lat="37.062559" lon="-1.871387">
        <ele>113.798</ele>
        <time>2021-06-11T16:13:22Z</time>
      </trkpt>
      <trkpt lat="37.062446" lon="-1.871563">
        <ele>115.761</ele>
        <time>2021-06-11T16:13:23Z</time>
      </trkpt>
      <trkpt lat="37.062252" lon="-1.871947">
        <ele>118.076</ele>
        <time>2021-06-11T16:13:25Z</time>
      </trkpt>
      <trkpt lat="37.062083" lon="-1.87234">
        <ele>120.190</ele>
        <time>2021-06-11T16:13:27Z</time>
      </trkpt>
      <trkpt lat="37.062013" lon="-1.872551">
        <ele>121.819</ele>
        <time>2021-06-11T16:13:28Z</time>
      </trkpt>
      <trkpt lat="37.061955" lon="-1.872764">
        <ele>123.408</ele>
        <time>2021-06-11T16:13:29Z</time>
      </trkpt>
      <trkpt lat="37.061903" lon="-1.872977">
        <ele>124.744</ele>
        <time>2021-06-11T16:13:30Z</time>
      </trkpt>
      <trkpt lat="37.061807" lon="-1.873407">
        <ele>126.212</ele>
        <time>2021-06-11T16:13:32Z</time>
      </trkpt>
      <trkpt lat="37.061724" lon="-1.87384">
        <ele>128.272</ele>
        <time>2021-06-11T16:13:34Z</time>
      </trkpt>
      <trkpt lat="37.06165" lon="-1.874265">
        <ele>130.130</ele>
        <time>2021-06-11T16:13:36Z</time>
      </trkpt>
      <trkpt lat="37.061623" lon="-1.87448">
        <ele>131.365</ele>
        <time>2021-06-11T16:13:37Z</time>
      </trkpt>
      <trkpt lat="37.061634" lon="-1.87492">
        <ele>132.326</ele>
        <time>2021-06-11T16:13:39Z</time>
      </trkpt>
      <trkpt lat="37.061726" lon="-1.875353">
        <ele>133.470</ele>
        <time>2021-06-11T16:13:41Z</time>
      </trkpt>
      <trkpt lat="37.061792" lon="-1.875788">
        <ele>134.423</ele>
        <time>2021-06-11T16:13:43Z</time>
      </trkpt>
      <trkpt lat="37.061778" lon="-1.876005">
        <ele>135.383</ele>
        <time>2021-06-11T16:13:44Z</time>
      </trkpt>
      <trkpt lat="37.061655" lon="-1.876422">
        <ele>136.725</ele>
        <time>2021-06-11T16:13:46Z</time>
      </trkpt>
      <trkpt lat="37.061568" lon="-1.876628">
        <ele>137.817</ele>
        <time>2021-06-11T16:13:47Z</time>
      </trkpt>
      <trkpt lat="37.061476" lon="-1.876832">
        <ele>138.508</ele>
        <time>2021-06-11T16:13:48Z</time>
      </trkpt>
      <trkpt lat="37.06138" lon="-1.877035">
        <ele>139.465</ele>
        <time>2021-06-11T16:13:49Z</time>
      </trkpt>
      <trkpt lat="37.061202" lon="-1.877453">
        <ele>140.833</ele>
        <time>2021-06-11T16:13:51Z</time>
      </trkpt>
      <trkpt lat="37.061023" lon="-1.877873">
        <ele>142.023</ele>
        <time>2021-06-11T16:13:53Z</time>
      </trkpt>
      <trkpt lat="37.060837" lon="-1.878295">
        <ele>143.281</ele>
        <time>2021-06-11T16:13:55Z</time>
      </trkpt>
      <trkpt lat="37.060644" lon="-1.878719">
        <ele>144.656</ele>
        <time>2021-06-11T16:13:57Z</time>
      </trkpt>
      <trkpt lat="37.060456" lon="-1.879149">
        <ele>146.127</ele>
        <time>2021-06-11T16:13:59Z</time>
      </trkpt>
      <trkpt lat="37.06027" lon="-1.879586">
        <ele>148.081</ele>
        <time>2021-06-11T16:14:01Z</time>
      </trkpt>
      <trkpt lat="37.060176" lon="-1.879803">
        <ele>149.674</ele>
        <time>2021-06-11T16:14:02Z</time>
      </trkpt>
      <trkpt lat="37.059991" lon="-1.880243">
        <ele>151.473</ele>
        <time>2021-06-11T16:14:04Z</time>
      </trkpt>
      <trkpt lat="37.059903" lon="-1.880458">
        <ele>152.585</ele>
        <time>2021-06-11T16:14:05Z</time>
      </trkpt>
      <trkpt lat="37.059716" lon="-1.880884">
        <ele>154.813</ele>
        <time>2021-06-11T16:14:07Z</time>
      </trkpt>
      <trkpt lat="37.059488" lon="-1.881278">
        <ele>157.208</ele>
        <time>2021-06-11T16:14:09Z</time>
      </trkpt>
      <trkpt lat="37.059204" lon="-1.881592">
        <ele>159.254</ele>
        <time>2021-06-11T16:14:11Z</time>
      </trkpt>
      <trkpt lat="37.058853" lon="-1.88177">
        <ele>161.462</ele>
        <time>2021-06-11T16:14:13Z</time>
      </trkpt>
      <trkpt lat="37.058673" lon="-1.881811">
        <ele>163.252</ele>
        <time>2021-06-11T16:14:14Z</time>
      </trkpt>
      <trkpt lat="37.058335" lon="-1.881836">
        <ele>164.660</ele>
        <time>2021-06-11T16:14:16Z</time>
      </trkpt>
      <trkpt lat="37.058035" lon="-1.881775">
        <ele>165.975</ele>
        <time>2021-06-11T16:14:18Z</time>
      </trkpt>
      <trkpt lat="37.057788" lon="-1.881635">
        <ele>166.996</ele>
        <time>2021-06-11T16:14:20Z</time>
      </trkpt>
      <trkpt lat="37.05769" lon="-1.881554">
        <ele>167.460</ele>
        <time>2021-06-11T16:14:21Z</time>
      </trkpt>
      <trkpt lat="37.057606" lon="-1.881476">
        <ele>167.863</ele>
        <time>2021-06-11T16:14:22Z</time>
      </trkpt>
      <trkpt lat="37.057475" lon="-1.881318">
        <ele>167.619</ele>
        <time>2021-06-11T16:14:24Z</time>
      </trkpt>
      <trkpt lat="37.057422" lon="-1.881239">
        <ele>167.709</ele>
        <time>2021-06-11T16:14:25Z</time>
      </trkpt>
      <trkpt lat="37.057358" lon="-1.881176">
        <ele>167.919</ele>
        <time>2021-06-11T16:14:26Z</time>
      </trkpt>
      <trkpt lat="37.057208" lon="-1.881099">
        <ele>168.408</ele>
        <time>2021-06-11T16:14:28Z</time>
      </trkpt>
      <trkpt lat="37.057124" lon="-1.881084">
        <ele>169.178</ele>
        <time>2021-06-11T16:14:29Z</time>
      </trkpt>
      <trkpt lat="37.057034" lon="-1.881073">
        <ele>169.976</ele>
        <time>2021-06-11T16:14:30Z</time>
      </trkpt>
      <trkpt lat="37.056887" lon="-1.881031">
        <ele>170.856</ele>
        <time>2021-06-11T16:14:32Z</time>
      </trkpt>
      <trkpt lat="37.056777" lon="-1.880965">
        <ele>171.474</ele>
        <time>2021-06-11T16:14:34Z</time>
      </trkpt>
      <trkpt lat="37.056723" lon="-1.880934">
        <ele>171.949</ele>
        <time>2021-06-11T16:14:35Z</time>
      </trkpt>
      <trkpt lat="37.056662" lon="-1.880904">
        <ele>172.230</ele>
        <time>2021-06-11T16:14:36Z</time>
      </trkpt>
      <trkpt lat="37.05651" lon="-1.880856">
        <ele>172.154</ele>
        <time>2021-06-11T16:14:38Z</time>
      </trkpt>
      <trkpt lat="37.056425" lon="-1.880835">
        <ele>171.747</ele>
        <time>2021-06-11T16:14:39Z</time>
      </trkpt>
      <trkpt lat="37.056274" lon="-1.880795">
        <ele>171.066</ele>
        <time>2021-06-11T16:14:41Z</time>
      </trkpt>
      <trkpt lat="37.056137" lon="-1.880759">
        <ele>170.629</ele>
        <time>2021-06-11T16:14:43Z</time>
      </trkpt>
      <trkpt lat="37.055957" lon="-1.880712">
        <ele>169.421</ele>
        <time>2021-06-11T16:14:45Z</time>
      </trkpt>
      <trkpt lat="37.05573" lon="-1.880683">
        <ele>167.808</ele>
        <time>2021-06-11T16:14:47Z</time>
      </trkpt>
      <trkpt lat="37.055605" lon="-1.880694">
        <ele>166.463</ele>
        <time>2021-06-11T16:14:48Z</time>
      </trkpt>
      <trkpt lat="37.055354" lon="-1.8808">
        <ele>164.971</ele>
        <time>2021-06-11T16:14:50Z</time>
      </trkpt>
      <trkpt lat="37.055229" lon="-1.880893">
        <ele>163.741</ele>
        <time>2021-06-11T16:14:51Z</time>
      </trkpt>
      <trkpt lat="37.054979" lon="-1.881135">
        <ele>161.949</ele>
        <time>2021-06-11T16:14:53Z</time>
      </trkpt>
      <trkpt lat="37.054852" lon="-1.881257">
        <ele>159.844</ele>
        <time>2021-06-11T16:14:54Z</time>
      </trkpt>
      <trkpt lat="37.054722" lon="-1.881372">
        <ele>157.925</ele>
        <time>2021-06-11T16:14:55Z</time>
      </trkpt>
      <trkpt lat="37.054436" lon="-1.881521">
        <ele>155.489</ele>
        <time>2021-06-11T16:14:57Z</time>
      </trkpt>
      <trkpt lat="37.05428" lon="-1.881542">
        <ele>153.632</ele>
        <time>2021-06-11T16:14:58Z</time>
      </trkpt>
      <trkpt lat="37.053968" lon="-1.881491">
        <ele>151.298</ele>
        <time>2021-06-11T16:15:00Z</time>
      </trkpt>
      <trkpt lat="37.053813" lon="-1.881427">
        <ele>149.315</ele>
        <time>2021-06-11T16:15:01Z</time>
      </trkpt>
      <trkpt lat="37.053668" lon="-1.881338">
        <ele>147.626</ele>
        <time>2021-06-11T16:15:02Z</time>
      </trkpt>
      <trkpt lat="37.053536" lon="-1.881227">
        <ele>146.008</ele>
        <time>2021-06-11T16:15:03Z</time>
      </trkpt>
      <trkpt lat="37.053293" lon="-1.880955">
        <ele>144.326</ele>
        <time>2021-06-11T16:15:05Z</time>
      </trkpt>
      <trkpt lat="37.053056" lon="-1.880659">
        <ele>141.994</ele>
        <time>2021-06-11T16:15:07Z</time>
      </trkpt>
      <trkpt lat="37.052815" lon="-1.880373">
        <ele>139.354</ele>
        <time>2021-06-11T16:15:09Z</time>
      </trkpt>
      <trkpt lat="37.05258" lon="-1.880111">
        <ele>136.242</ele>
        <time>2021-06-11T16:15:11Z</time>
      </trkpt>
      <trkpt lat="37.052467" lon="-1.880003">
        <ele>133.787</ele>
        <time>2021-06-11T16:15:12Z</time>
      </trkpt>
      <trkpt lat="37.052354" lon="-1.879912">
        <ele>132.068</ele>
        <time>2021-06-11T16:15:13Z</time>
      </trkpt>
      <trkpt lat="37.052224" lon="-1.879868">
        <ele>130.852</ele>
        <time>2021-06-11T16:15:14Z</time>
      </trkpt>
      <trkpt lat="37.052073" lon="-1.879873">
        <ele>129.345</ele>
        <time>2021-06-11T16:15:15Z</time>
      </trkpt>
      <trkpt lat="37.05174" lon="-1.879977">
        <ele>127.682</ele>
        <time>2021-06-11T16:15:17Z</time>
      </trkpt>
      <trkpt lat="37.051565" lon="-1.880059">
        <ele>126.443</ele>
        <time>2021-06-11T16:15:18Z</time>
      </trkpt>
      <trkpt lat="37.051205" lon="-1.880212">
        <ele>125.517</ele>
        <time>2021-06-11T16:15:20Z</time>
      </trkpt>
      <trkpt lat="37.051013" lon="-1.880272">
        <ele>124.808</ele>
        <time>2021-06-11T16:15:21Z</time>
      </trkpt>
      <trkpt lat="37.050817" lon="-1.88032">
        <ele>124.725</ele>
        <time>2021-06-11T16:15:22Z</time>
      </trkpt>
      <trkpt lat="37.050423" lon="-1.880395">
        <ele>125.623</ele>
        <time>2021-06-11T16:15:24Z</time>
      </trkpt>
      <trkpt lat="37.050039" lon="-1.880442">
        <ele>127.093</ele>
        <time>2021-06-11T16:15:26Z</time>
      </trkpt>
      <trkpt lat="37.049848" lon="-1.880443">
        <ele>128.161</ele>
        <time>2021-06-11T16:15:27Z</time>
      </trkpt>
      <trkpt lat="37.049658" lon="-1.880426">
        <ele>128.886</ele>
        <time>2021-06-11T16:15:28Z</time>
      </trkpt>
      <trkpt lat="37.049468" lon="-1.880379">
        <ele>129.697</ele>
        <time>2021-06-11T16:15:29Z</time>
      </trkpt>
      <trkpt lat="37.049112" lon="-1.880214">
        <ele>130.521</ele>
        <time>2021-06-11T16:15:31Z</time>
      </trkpt>
      <trkpt lat="37.048807" lon="-1.879943">
        <ele>131.374</ele>
        <time>2021-06-11T16:15:33Z</time>
      </trkpt>
      <trkpt lat="37.048572" lon="-1.879587">
        <ele>132.052</ele>
        <time>2021-06-11T16:15:35Z</time>
      </trkpt>
      <trkpt lat="37.048474" lon="-1.879392">
        <ele>132.753</ele>
        <time>2021-06-11T16:15:36Z</time>
      </trkpt>
      <trkpt lat="37.048314" lon="-1.878991">
        <ele>133.708</ele>
        <time>2021-06-11T16:15:38Z</time>
      </trkpt>
      <trkpt lat="37.048238" lon="-1.878577">
        <ele>135.308</ele>
        <time>2021-06-11T16:15:40Z</time>
      </trkpt>
      <trkpt lat="37.048211" lon="-1.878387">
        <ele>136.822</ele>
        <time>2021-06-11T16:15:41Z</time>
      </trkpt>
      <trkpt lat="37.048177" lon="-1.878218">
        <ele>138.180</ele>
        <time>2021-06-11T16:15:42Z</time>
      </trkpt>
      <trkpt lat="37.048037" lon="-1.877965">
        <ele>139.870</ele>
        <time>2021-06-11T16:15:44Z</time>
      </trkpt>
      <trkpt lat="37.04782" lon="-1.877851">
        <ele>141.778</ele>
        <time>2021-06-11T16:15:46Z</time>
      </trkpt>
      <trkpt lat="37.047692" lon="-1.877869">
        <ele>143.353</ele>
        <time>2021-06-11T16:15:47Z</time>
      </trkpt>
      <trkpt lat="37.047566" lon="-1.877919">
        <ele>144.674</ele>
        <time>2021-06-11T16:15:48Z</time>
      </trkpt>
      <trkpt lat="37.047312" lon="-1.877988">
        <ele>146.148</ele>
        <time>2021-06-11T16:15:50Z</time>
      </trkpt>
      <trkpt lat="37.047182" lon="-1.877964">
        <ele>147.351</ele>
        <time>2021-06-11T16:15:51Z</time>
      </trkpt>
      <trkpt lat="37.047054" lon="-1.8779">
        <ele>148.532</ele>
        <time>2021-06-11T16:15:52Z</time>
      </trkpt>
      <trkpt lat="37.046936" lon="-1.877799">
        <ele>149.192</ele>
        <time>2021-06-11T16:15:53Z</time>
      </trkpt>
      <trkpt lat="37.046774" lon="-1.877496">
        <ele>150.511</ele>
        <time>2021-06-11T16:15:55Z</time>
      </trkpt>
      <trkpt lat="37.046736" lon="-1.877311">
        <ele>151.408</ele>
        <time>2021-06-11T16:15:56Z</time>
      </trkpt>
      <trkpt lat="37.046714" lon="-1.876941">
        <ele>152.780</ele>
        <time>2021-06-11T16:15:58Z</time>
      </trkpt>
      <trkpt lat="37.046704" lon="-1.876575">
        <ele>153.968</ele>
        <time>2021-06-11T16:16:00Z</time>
      </trkpt>
      <trkpt lat="37.046609" lon="-1.87622">
        <ele>155.438</ele>
        <time>2021-06-11T16:16:02Z</time>
      </trkpt>
      <trkpt lat="37.046538" lon="-1.876042">
        <ele>156.256</ele>
        <time>2021-06-11T16:16:03Z</time>
      </trkpt>
      <trkpt lat="37.046343" lon="-1.875687">
        <ele>156.991</ele>
        <time>2021-06-11T16:16:05Z</time>
      </trkpt>
      <trkpt lat="37.046248" lon="-1.87551">
        <ele>157.862</ele>
        <time>2021-06-11T16:16:06Z</time>
      </trkpt>
      <trkpt lat="37.046177" lon="-1.875319">
        <ele>158.626</ele>
        <time>2021-06-11T16:16:07Z</time>
      </trkpt>
      <trkpt lat="37.04614" lon="-1.875104">
        <ele>159.289</ele>
        <time>2021-06-11T16:16:08Z</time>
      </trkpt>
      <trkpt lat="37.046139" lon="-1.874672">
        <ele>159.929</ele>
        <time>2021-06-11T16:16:10Z</time>
      </trkpt>
      <trkpt lat="37.046161" lon="-1.874455">
        <ele>160.500</ele>
        <time>2021-06-11T16:16:11Z</time>
      </trkpt>
      <trkpt lat="37.046201" lon="-1.87424">
        <ele>161.020</ele>
        <time>2021-06-11T16:16:12Z</time>
      </trkpt>
      <trkpt lat="37.046361" lon="-1.873865">
        <ele>161.908</ele>
        <time>2021-06-11T16:16:14Z</time>
      </trkpt>
      <trkpt lat="37.046543" lon="-1.873539">
        <ele>163.349</ele>
        <time>2021-06-11T16:16:16Z</time>
      </trkpt>
      <trkpt lat="37.046598" lon="-1.873183">
        <ele>164.767</ele>
        <time>2021-06-11T16:16:18Z</time>
      </trkpt>
      <trkpt lat="37.046525" lon="-1.872825">
        <ele>166.647</ele>
        <time>2021-06-11T16:16:20Z</time>
      </trkpt>
      <trkpt lat="37.04635" lon="-1.872503">
        <ele>168.525</ele>
        <time>2021-06-11T16:16:22Z</time>
      </trkpt>
      <trkpt lat="37.046235" lon="-1.872361">
        <ele>169.820</ele>
        <time>2021-06-11T16:16:23Z</time>
      </trkpt>
      <trkpt lat="37.046117" lon="-1.87222">
        <ele>170.921</ele>
        <time>2021-06-11T16:16:24Z</time>
      </trkpt>
      <trkpt lat="37.046002" lon="-1.872074">
        <ele>172.135</ele>
        <time>2021-06-11T16:16:25Z</time>
      </trkpt>
      <trkpt lat="37.045886" lon="-1.871944">
        <ele>173.088</ele>
        <time>2021-06-11T16:16:26Z</time>
      </trkpt>
      <trkpt lat="37.045638" lon="-1.871758">
        <ele>174.617</ele>
        <time>2021-06-11T16:16:28Z</time>
      </trkpt>
      <trkpt lat="37.045492" lon="-1.871724">
        <ele>175.987</ele>
        <time>2021-06-11T16:16:29Z</time>
      </trkpt>
      <trkpt lat="37.045188" lon="-1.871778">
        <ele>177.415</ele>
        <time>2021-06-11T16:16:31Z</time>
      </trkpt>
      <trkpt lat="37.045039" lon="-1.871855">
        <ele>178.608</ele>
        <time>2021-06-11T16:16:32Z</time>
      </trkpt>
      <trkpt lat="37.044768" lon="-1.872002">
        <ele>180.318</ele>
        <time>2021-06-11T16:16:34Z</time>
      </trkpt>
      <trkpt lat="37.044653" lon="-1.872072">
        <ele>181.376</ele>
        <time>2021-06-11T16:16:35Z</time>
      </trkpt>
      <trkpt lat="37.044578" lon="-1.872173">
        <ele>182.576</ele>
        <time>2021-06-11T16:16:36Z</time>
      </trkpt>
      <trkpt lat="37.044547" lon="-1.872306">
        <ele>183.494</ele>
        <time>2021-06-11T16:16:37Z</time>
      </trkpt>
      <trkpt lat="37.044586" lon="-1.872585">
        <ele>183.749</ele>
        <time>2021-06-11T16:16:39Z</time>
      </trkpt>
      <trkpt lat="37.044648" lon="-1.872713">
        <ele>183.940</ele>
        <time>2021-06-11T16:16:40Z</time>
      </trkpt>
      <trkpt lat="37.044792" lon="-1.872959">
        <ele>183.084</ele>
        <time>2021-06-11T16:16:42Z</time>
      </trkpt>
      <trkpt lat="37.044818" lon="-1.873269">
        <ele>181.987</ele>
        <time>2021-06-11T16:16:44Z</time>
      </trkpt>
      <trkpt lat="37.044797" lon="-1.873433">
        <ele>180.535</ele>
        <time>2021-06-11T16:16:45Z</time>
      </trkpt>
      <trkpt lat="37.044741" lon="-1.87376">
        <ele>179.086</ele>
        <time>2021-06-11T16:16:47Z</time>
      </trkpt>
      <trkpt lat="37.044716" lon="-1.873929">
        <ele>177.714</ele>
        <time>2021-06-11T16:16:48Z</time>
      </trkpt>
      <trkpt lat="37.044675" lon="-1.874264">
        <ele>176.008</ele>
        <time>2021-06-11T16:16:50Z</time>
      </trkpt>
      <trkpt lat="37.044671" lon="-1.874429">
        <ele>174.590</ele>
        <time>2021-06-11T16:16:51Z</time>
      </trkpt>
      <trkpt lat="37.044718" lon="-1.874754">
        <ele>172.588</ele>
        <time>2021-06-11T16:16:53Z</time>
      </trkpt>
      <trkpt lat="37.044781" lon="-1.875051">
        <ele>170.868</ele>
        <time>2021-06-11T16:16:55Z</time>
      </trkpt>
      <trkpt lat="37.044778" lon="-1.875183">
        <ele>169.596</ele>
        <time>2021-06-11T16:16:56Z</time>
      </trkpt>
      <trkpt lat="37.044738" lon="-1.875311">
        <ele>168.351</ele>
        <time>2021-06-11T16:16:57Z</time>
      </trkpt>
      <trkpt lat="37.044661" lon="-1.875427">
        <ele>167.522</ele>
        <time>2021-06-11T16:16:58Z</time>
      </trkpt>
      <trkpt lat="37.044451" lon="-1.875626">
        <ele>166.346</ele>
        <time>2021-06-11T16:17:00Z</time>
      </trkpt>
      <trkpt lat="37.044221" lon="-1.875794">
        <ele>164.749</ele>
        <time>2021-06-11T16:17:02Z</time>
      </trkpt>
      <trkpt lat="37.044101" lon="-1.875861">
        <ele>163.253</ele>
        <time>2021-06-11T16:17:03Z</time>
      </trkpt>
      <trkpt lat="37.043976" lon="-1.875916">
        <ele>162.104</ele>
        <time>2021-06-11T16:17:04Z</time>
      </trkpt>
      <trkpt lat="37.043722" lon="-1.875984">
        <ele>160.814</ele>
        <time>2021-06-11T16:17:06Z</time>
      </trkpt>
      <trkpt lat="37.043467" lon="-1.87605">
        <ele>159.108</ele>
        <time>2021-06-11T16:17:08Z</time>
      </trkpt>
      <trkpt lat="37.043249" lon="-1.876208">
        <ele>156.932</ele>
        <time>2021-06-11T16:17:10Z</time>
      </trkpt>
      <trkpt lat="37.043115" lon="-1.876489">
        <ele>155.320</ele>
        <time>2021-06-11T16:17:12Z</time>
      </trkpt>
      <trkpt lat="37.042982" lon="-1.876738">
        <ele>153.350</ele>
        <time>2021-06-11T16:17:14Z</time>
      </trkpt>
      <trkpt lat="37.042781" lon="-1.876827">
        <ele>151.238</ele>
        <time>2021-06-11T16:17:16Z</time>
      </trkpt>
      <trkpt lat="37.042533" lon="-1.876776">
        <ele>149.763</ele>
        <time>2021-06-11T16:17:18Z</time>
      </trkpt>
      <trkpt lat="37.042404" lon="-1.876753">
        <ele>148.464</ele>
        <time>2021-06-11T16:17:19Z</time>
      </trkpt>
      <trkpt lat="37.04227" lon="-1.876751">
        <ele>147.528</ele>
        <time>2021-06-11T16:17:20Z</time>
      </trkpt>
      <trkpt lat="37.042139" lon="-1.876773">
        <ele>146.361</ele>
        <time>2021-06-11T16:17:21Z</time>
      </trkpt>
      <trkpt lat="37.041887" lon="-1.876843">
        <ele>144.634</ele>
        <time>2021-06-11T16:17:23Z</time>
      </trkpt>
      <trkpt lat="37.04176" lon="-1.876875">
        <ele>142.855</ele>
        <time>2021-06-11T16:17:24Z</time>
      </trkpt>
      <trkpt lat="37.041632" lon="-1.8769">
        <ele>141.010</ele>
        <time>2021-06-11T16:17:25Z</time>
      </trkpt>
      <trkpt lat="37.041381" lon="-1.876914">
        <ele>139.508</ele>
        <time>2021-06-11T16:17:27Z</time>
      </trkpt>
      <trkpt lat="37.041259" lon="-1.876891">
        <ele>137.910</ele>
        <time>2021-06-11T16:17:28Z</time>
      </trkpt>
      <trkpt lat="37.041033" lon="-1.876772">
        <ele>136.498</ele>
        <time>2021-06-11T16:17:30Z</time>
      </trkpt>
      <trkpt lat="37.040926" lon="-1.8767">
        <ele>134.968</ele>
        <time>2021-06-11T16:17:31Z</time>
      </trkpt>
      <trkpt lat="37.04071" lon="-1.876606">
        <ele>133.166</ele>
        <time>2021-06-11T16:17:33Z</time>
      </trkpt>
      <trkpt lat="37.040499" lon="-1.87665">
        <ele>131.441</ele>
        <time>2021-06-11T16:17:35Z</time>
      </trkpt>
      <trkpt lat="37.040299" lon="-1.876644">
        <ele>129.362</ele>
        <time>2021-06-11T16:17:37Z</time>
      </trkpt>
      <trkpt lat="37.040207" lon="-1.876586">
        <ele>127.946</ele>
        <time>2021-06-11T16:17:38Z</time>
      </trkpt>
      <trkpt lat="37.040088" lon="-1.876347">
        <ele>126.389</ele>
        <time>2021-06-11T16:17:40Z</time>
      </trkpt>
      <trkpt lat="37.040076" lon="-1.876015">
        <ele>124.426</ele>
        <time>2021-06-11T16:17:42Z</time>
      </trkpt>
      <trkpt lat="37.040075" lon="-1.875844">
        <ele>123.247</ele>
        <time>2021-06-11T16:17:43Z</time>
      </trkpt>
      <trkpt lat="37.040064" lon="-1.875679">
        <ele>122.011</ele>
        <time>2021-06-11T16:17:44Z</time>
      </trkpt>
      <trkpt lat="37.040047" lon="-1.875522">
        <ele>121.008</ele>
        <time>2021-06-11T16:17:45Z</time>
      </trkpt>
      <trkpt lat="37.040056" lon="-1.875242">
        <ele>119.879</ele>
        <time>2021-06-11T16:17:47Z</time>
      </trkpt>
      <trkpt lat="37.040102" lon="-1.875133">
        <ele>118.427</ele>
        <time>2021-06-11T16:17:48Z</time>
      </trkpt>
      <trkpt lat="37.040248" lon="-1.875009">
        <ele>117.477</ele>
        <time>2021-06-11T16:17:50Z</time>
      </trkpt>
      <trkpt lat="37.040441" lon="-1.875071">
        <ele>116.255</ele>
        <time>2021-06-11T16:17:52Z</time>
      </trkpt>
      <trkpt lat="37.040531" lon="-1.875147">
        <ele>115.160</ele>
        <time>2021-06-11T16:17:53Z</time>
      </trkpt>
      <trkpt lat="37.040698" lon="-1.875335">
        <ele>113.941</ele>
        <time>2021-06-11T16:17:55Z</time>
      </trkpt>
      <trkpt lat="37.040798" lon="-1.875403">
        <ele>112.545</ele>
        <time>2021-06-11T16:17:56Z</time>
      </trkpt>
      <trkpt lat="37.040908" lon="-1.875424">
        <ele>111.638</ele>
        <time>2021-06-11T16:17:57Z</time>
      </trkpt>
      <trkpt lat="37.041127" lon="-1.875348">
        <ele>111.064</ele>
        <time>2021-06-11T16:17:59Z</time>
      </trkpt>
      <trkpt lat="37.041354" lon="-1.875231">
        <ele>110.506</ele>
        <time>2021-06-11T16:18:01Z</time>
      </trkpt>
      <trkpt lat="37.041596" lon="-1.875202">
        <ele>109.016</ele>
        <time>2021-06-11T16:18:03Z</time>
      </trkpt>
      <trkpt lat="37.041713" lon="-1.875226">
        <ele>107.308</ele>
        <time>2021-06-11T16:18:04Z</time>
      </trkpt>
      <trkpt lat="37.041894" lon="-1.875392">
        <ele>106.283</ele>
        <time>2021-06-11T16:18:06Z</time>
      </trkpt>
      <trkpt lat="37.041973" lon="-1.87566">
        <ele>104.651</ele>
        <time>2021-06-11T16:18:08Z</time>
      </trkpt>
      <trkpt lat="37.042049" lon="-1.875879">
        <ele>103.371</ele>
        <time>2021-06-11T16:18:10Z</time>
      </trkpt>
      <trkpt lat="37.042117" lon="-1.875942">
        <ele>102.419</ele>
        <time>2021-06-11T16:18:11Z</time>
      </trkpt>
      <trkpt lat="37.04228" lon="-1.87593">
        <ele>101.884</ele>
        <time>2021-06-11T16:18:13Z</time>
      </trkpt>
      <trkpt lat="37.042353" lon="-1.87571">
        <ele>100.525</ele>
        <time>2021-06-11T16:18:15Z</time>
      </trkpt>
      <trkpt lat="37.042326" lon="-1.875593">
        <ele>99.759</ele>
        <time>2021-06-11T16:18:16Z</time>
      </trkpt>
      <trkpt lat="37.042263" lon="-1.875492">
        <ele>99.072</ele>
        <time>2021-06-11T16:18:17Z</time>
      </trkpt>
      <trkpt lat="37.04218" lon="-1.875401">
        <ele>98.452</ele>
        <time>2021-06-11T16:18:18Z</time>
      </trkpt>
      <trkpt lat="37.042014" lon="-1.875223">
        <ele>97.353</ele>
        <time>2021-06-11T16:18:20Z</time>
      </trkpt>
      <trkpt lat="37.041848" lon="-1.875051">
        <ele>95.808</ele>
        <time>2021-06-11T16:18:22Z</time>
      </trkpt>
      <trkpt lat="37.041752" lon="-1.874981">
        <ele>94.808</ele>
        <time>2021-06-11T16:18:23Z</time>
      </trkpt>
      <trkpt lat="37.041531" lon="-1.874891">
        <ele>93.072</ele>
        <time>2021-06-11T16:18:25Z</time>
      </trkpt>
      <trkpt lat="37.041293" lon="-1.874852">
        <ele>91.020</ele>
        <time>2021-06-11T16:18:27Z</time>
      </trkpt>
      <trkpt lat="37.04105" lon="-1.874895">
        <ele>88.840</ele>
        <time>2021-06-11T16:18:29Z</time>
      </trkpt>
      <trkpt lat="37.04093" lon="-1.874926">
        <ele>87.588</ele>
        <time>2021-06-11T16:18:30Z</time>
      </trkpt>
      <trkpt lat="37.040812" lon="-1.874923">
        <ele>86.393</ele>
        <time>2021-06-11T16:18:31Z</time>
      </trkpt>
      <trkpt lat="37.040702" lon="-1.874876">
        <ele>85.194</ele>
        <time>2021-06-11T16:18:32Z</time>
      </trkpt>
      <trkpt lat="37.040513" lon="-1.8747">
        <ele>84.178</ele>
        <time>2021-06-11T16:18:34Z</time>
      </trkpt>
      <trkpt lat="37.040369" lon="-1.874475">
        <ele>82.971</ele>
        <time>2021-06-11T16:18:36Z</time>
      </trkpt>
      <trkpt lat="37.040278" lon="-1.87421">
        <ele>81.437</ele>
        <time>2021-06-11T16:18:38Z</time>
      </trkpt>
      <trkpt lat="37.040227" lon="-1.874081">
        <ele>80.549</ele>
        <time>2021-06-11T16:18:39Z</time>
      </trkpt>
      <trkpt lat="37.040046" lon="-1.873923">
        <ele>79.313</ele>
        <time>2021-06-11T16:18:41Z</time>
      </trkpt>
      <trkpt lat="37.039825" lon="-1.873977">
        <ele>77.408</ele>
        <time>2021-06-11T16:18:43Z</time>
      </trkpt>
      <trkpt lat="37.039726" lon="-1.874083">
        <ele>75.840</ele>
        <time>2021-06-11T16:18:44Z</time>
      </trkpt>
      <trkpt lat="37.039553" lon="-1.87435">
        <ele>73.638</ele>
        <time>2021-06-11T16:18:46Z</time>
      </trkpt>
      <trkpt lat="37.039463" lon="-1.874493">
        <ele>71.828</ele>
        <time>2021-06-11T16:18:47Z</time>
      </trkpt>
      <trkpt lat="37.039368" lon="-1.874634">
        <ele>69.956</ele>
        <time>2021-06-11T16:18:48Z</time>
      </trkpt>
      <trkpt lat="37.039166" lon="-1.874913">
        <ele>67.531</ele>
        <time>2021-06-11T16:18:50Z</time>
      </trkpt>
      <trkpt lat="37.039062" lon="-1.875057">
        <ele>65.842</ele>
        <time>2021-06-11T16:18:51Z</time>
      </trkpt>
      <trkpt lat="37.038855" lon="-1.87535">
        <ele>63.556</ele>
        <time>2021-06-11T16:18:53Z</time>
      </trkpt>
      <trkpt lat="37.038754" lon="-1.875501">
        <ele>61.749</ele>
        <time>2021-06-11T16:18:54Z</time>
      </trkpt>
      <trkpt lat="37.038653" lon="-1.875657">
        <ele>60.527</ele>
        <time>2021-06-11T16:18:55Z</time>
      </trkpt>
      <trkpt lat="37.038489" lon="-1.875984">
        <ele>58.568</ele>
        <time>2021-06-11T16:18:57Z</time>
      </trkpt>
      <trkpt lat="37.038406" lon="-1.876145">
        <ele>56.914</ele>
        <time>2021-06-11T16:18:58Z</time>
      </trkpt>
      <trkpt lat="37.038311" lon="-1.876297">
        <ele>56.008</ele>
        <time>2021-06-11T16:18:59Z</time>
      </trkpt>
      <trkpt lat="37.038086" lon="-1.876555">
        <ele>54.689</ele>
        <time>2021-06-11T16:19:01Z</time>
      </trkpt>
      <trkpt lat="37.037959" lon="-1.876655">
        <ele>53.837</ele>
        <time>2021-06-11T16:19:02Z</time>
      </trkpt>
      <trkpt lat="37.037685" lon="-1.876733">
        <ele>53.457</ele>
        <time>2021-06-11T16:19:04Z</time>
      </trkpt>
      <trkpt lat="37.037547" lon="-1.876703">
        <ele>53.145</ele>
        <time>2021-06-11T16:19:05Z</time>
      </trkpt>
      <trkpt lat="37.037271" lon="-1.876575">
        <ele>52.140</ele>
        <time>2021-06-11T16:19:07Z</time>
      </trkpt>
      <trkpt lat="37.037132" lon="-1.876506">
        <ele>51.211</ele>
        <time>2021-06-11T16:19:08Z</time>
      </trkpt>
      <trkpt lat="37.036848" lon="-1.87641">
        <ele>50.515</ele>
        <time>2021-06-11T16:19:10Z</time>
      </trkpt>
      <trkpt lat="37.036569" lon="-1.876428">
        <ele>49.178</ele>
        <time>2021-06-11T16:19:12Z</time>
      </trkpt>
      <trkpt lat="37.036438" lon="-1.876494">
        <ele>47.957</ele>
        <time>2021-06-11T16:19:13Z</time>
      </trkpt>
      <trkpt lat="37.036208" lon="-1.876737">
        <ele>46.400</ele>
        <time>2021-06-11T16:19:15Z</time>
      </trkpt>
      <trkpt lat="37.036107" lon="-1.876903">
        <ele>45.520</ele>
        <time>2021-06-11T16:19:16Z</time>
      </trkpt>
      <trkpt lat="37.035929" lon="-1.877283">
        <ele>44.108</ele>
        <time>2021-06-11T16:19:18Z</time>
      </trkpt>
      <trkpt lat="37.035842" lon="-1.877481">
        <ele>43.232</ele>
        <time>2021-06-11T16:19:19Z</time>
      </trkpt>
      <trkpt lat="37.035615" lon="-1.877838">
        <ele>41.870</ele>
        <time>2021-06-11T16:19:21Z</time>
      </trkpt>
      <trkpt lat="37.035471" lon="-1.87799">
        <ele>40.790</ele>
        <time>2021-06-11T16:19:22Z</time>
      </trkpt>
      <trkpt lat="37.035139" lon="-1.878176">
        <ele>39.958</ele>
        <time>2021-06-11T16:19:24Z</time>
      </trkpt>
      <trkpt lat="37.034961" lon="-1.878208">
        <ele>39.673</ele>
        <time>2021-06-11T16:19:25Z</time>
      </trkpt>
      <trkpt lat="37.034786" lon="-1.878221">
        <ele>39.724</ele>
        <time>2021-06-11T16:19:26Z</time>
      </trkpt>
      <trkpt lat="37.034447" lon="-1.878248">
        <ele>39.848</ele>
        <time>2021-06-11T16:19:28Z</time>
      </trkpt>
      <trkpt lat="37.034123" lon="-1.878287">
        <ele>40.361</ele>
        <time>2021-06-11T16:19:30Z</time>
      </trkpt>
      <trkpt lat="37.033963" lon="-1.878309">
        <ele>41.326</ele>
        <time>2021-06-11T16:19:31Z</time>
      </trkpt>
      <trkpt lat="37.033804" lon="-1.878331">
        <ele>42.247</ele>
        <time>2021-06-11T16:19:32Z</time>
      </trkpt>
      <trkpt lat="37.033496" lon="-1.878389">
        <ele>43.311</ele>
        <time>2021-06-11T16:19:34Z</time>
      </trkpt>
      <trkpt lat="37.033198" lon="-1.878439">
        <ele>44.808</ele>
        <time>2021-06-11T16:19:36Z</time>
      </trkpt>
      <trkpt lat="37.03305" lon="-1.87846">
        <ele>45.739</ele>
        <time>2021-06-11T16:19:37Z</time>
      </trkpt>
      <trkpt lat="37.032787" lon="-1.878572">
        <ele>46.417</ele>
        <time>2021-06-11T16:19:39Z</time>
      </trkpt>
      <trkpt lat="37.032556" lon="-1.87875">
        <ele>47.677</ele>
        <time>2021-06-11T16:19:41Z</time>
      </trkpt>
      <trkpt lat="37.032451" lon="-1.878866">
        <ele>48.335</ele>
        <time>2021-06-11T16:19:42Z</time>
      </trkpt>
      <trkpt lat="37.032251" lon="-1.879142">
        <ele>48.550</ele>
        <time>2021-06-11T16:19:44Z</time>
      </trkpt>
      <trkpt lat="37.032045" lon="-1.879448">
        <ele>48.541</ele>
        <time>2021-06-11T16:19:46Z</time>
      </trkpt>
      <trkpt lat="37.031939" lon="-1.87961">
        <ele>48.595</ele>
        <time>2021-06-11T16:19:47Z</time>
      </trkpt>
      <trkpt lat="37.03183" lon="-1.879775">
        <ele>48.518</ele>
        <time>2021-06-11T16:19:48Z</time>
      </trkpt>
      <trkpt lat="37.031605" lon="-1.880107">
        <ele>47.954</ele>
        <time>2021-06-11T16:19:50Z</time>
      </trkpt>
      <trkpt lat="37.031493" lon="-1.880266">
        <ele>47.756</ele>
        <time>2021-06-11T16:19:51Z</time>
      </trkpt>
      <trkpt lat="37.031267" lon="-1.880586">
        <ele>47.411</ele>
        <time>2021-06-11T16:19:53Z</time>
      </trkpt>
      <trkpt lat="37.031062" lon="-1.880925">
        <ele>46.708</ele>
        <time>2021-06-11T16:19:55Z</time>
      </trkpt>
      <trkpt lat="37.030889" lon="-1.881278">
        <ele>45.982</ele>
        <time>2021-06-11T16:19:57Z</time>
      </trkpt>
      <trkpt lat="37.030809" lon="-1.881465">
        <ele>45.010</ele>
        <time>2021-06-11T16:19:58Z</time>
      </trkpt>
      <trkpt lat="37.030661" lon="-1.881864">
        <ele>44.290</ele>
        <time>2021-06-11T16:20:00Z</time>
      </trkpt>
      <trkpt lat="37.030588" lon="-1.882069">
        <ele>43.588</ele>
        <time>2021-06-11T16:20:01Z</time>
      </trkpt>
      <trkpt lat="37.030512" lon="-1.88226">
        <ele>43.293</ele>
        <time>2021-06-11T16:20:02Z</time>
      </trkpt>
      <trkpt lat="37.03042" lon="-1.882427">
        <ele>42.914</ele>
        <time>2021-06-11T16:20:03Z</time>
      </trkpt>
      <trkpt lat="37.030165" lon="-1.882662">
        <ele>42.998</ele>
        <time>2021-06-11T16:20:05Z</time>
      </trkpt>
      <trkpt lat="37.030007" lon="-1.882721">
        <ele>42.891</ele>
        <time>2021-06-11T16:20:06Z</time>
      </trkpt>
      <trkpt lat="37.029838" lon="-1.882739">
        <ele>43.484</ele>
        <time>2021-06-11T16:20:07Z</time>
      </trkpt>
      <trkpt lat="37.029492" lon="-1.882697">
        <ele>44.507</ele>
        <time>2021-06-11T16:20:09Z</time>
      </trkpt>
      <trkpt lat="37.029154" lon="-1.882639">
        <ele>45.917</ele>
        <time>2021-06-11T16:20:11Z</time>
      </trkpt>
      <trkpt lat="37.028832" lon="-1.882592">
        <ele>47.908</ele>
        <time>2021-06-11T16:20:13Z</time>
      </trkpt>
      <trkpt lat="37.028521" lon="-1.882547">
        <ele>49.575</ele>
        <time>2021-06-11T16:20:15Z</time>
      </trkpt>
      <trkpt lat="37.028371" lon="-1.882524">
        <ele>50.283</ele>
        <time>2021-06-11T16:20:16Z</time>
      </trkpt>
      <trkpt lat="37.028086" lon="-1.88249">
        <ele>50.693</ele>
        <time>2021-06-11T16:20:18Z</time>
      </trkpt>
      <trkpt lat="37.027948" lon="-1.882474">
        <ele>50.921</ele>
        <time>2021-06-11T16:20:19Z</time>
      </trkpt>
      <trkpt lat="37.027675" lon="-1.882406">
        <ele>50.396</ele>
        <time>2021-06-11T16:20:21Z</time>
      </trkpt>
      <trkpt lat="37.027541" lon="-1.882338">
        <ele>50.147</ele>
        <time>2021-06-11T16:20:22Z</time>
      </trkpt>
      <trkpt lat="37.027417" lon="-1.882238">
        <ele>49.651</ele>
        <time>2021-06-11T16:20:23Z</time>
      </trkpt>
      <trkpt lat="37.027307" lon="-1.88211">
        <ele>48.944</ele>
        <time>2021-06-11T16:20:24Z</time>
      </trkpt>
      <trkpt lat="37.02713" lon="-1.881801">
        <ele>48.087</ele>
        <time>2021-06-11T16:20:26Z</time>
      </trkpt>
      <trkpt lat="37.027064" lon="-1.881637">
        <ele>46.542</ele>
        <time>2021-06-11T16:20:27Z</time>
      </trkpt>
      <trkpt lat="37.026926" lon="-1.881309">
        <ele>45.426</ele>
        <time>2021-06-11T16:20:29Z</time>
      </trkpt>
      <trkpt lat="37.026861" lon="-1.881141">
        <ele>44.608</ele>
        <time>2021-06-11T16:20:30Z</time>
      </trkpt>
      <trkpt lat="37.026741" lon="-1.880815">
        <ele>43.225</ele>
        <time>2021-06-11T16:20:32Z</time>
      </trkpt>
      <trkpt lat="37.026676" lon="-1.88066">
        <ele>42.433</ele>
        <time>2021-06-11T16:20:33Z</time>
      </trkpt>
      <trkpt lat="37.026519" lon="-1.880376">
        <ele>40.263</ele>
        <time>2021-06-11T16:20:35Z</time>
      </trkpt>
      <trkpt lat="37.026418" lon="-1.880245">
        <ele>39.171</ele>
        <time>2021-06-11T16:20:36Z</time>
      </trkpt>
      <trkpt lat="37.026182" lon="-1.880062">
        <ele>37.716</ele>
        <time>2021-06-11T16:20:38Z</time>
      </trkpt>
      <trkpt lat="37.026043" lon="-1.88002">
        <ele>36.717</ele>
        <time>2021-06-11T16:20:39Z</time>
      </trkpt>
      <trkpt lat="37.025761" lon="-1.88002">
        <ele>35.371</ele>
        <time>2021-06-11T16:20:41Z</time>
      </trkpt>
      <trkpt lat="37.025503" lon="-1.880145">
        <ele>33.914</ele>
        <time>2021-06-11T16:20:43Z</time>
      </trkpt>
      <trkpt lat="37.025393" lon="-1.880272">
        <ele>32.619</ele>
        <time>2021-06-11T16:20:44Z</time>
      </trkpt>
      <trkpt lat="37.025209" lon="-1.880606">
        <ele>30.409</ele>
        <time>2021-06-11T16:20:46Z</time>
      </trkpt>
      <trkpt lat="37.025028" lon="-1.880956">
        <ele>27.919</ele>
        <time>2021-06-11T16:20:48Z</time>
      </trkpt>
      <trkpt lat="37.024797" lon="-1.881218">
        <ele>25.708</ele>
        <time>2021-06-11T16:20:50Z</time>
      </trkpt>
      <trkpt lat="37.024659" lon="-1.881304">
        <ele>23.828</ele>
        <time>2021-06-11T16:20:51Z</time>
      </trkpt>
      <trkpt lat="37.024372" lon="-1.88137">
        <ele>22.626</ele>
        <time>2021-06-11T16:20:53Z</time>
      </trkpt>
      <trkpt lat="37.02408" lon="-1.881291">
        <ele>21.886</ele>
        <time>2021-06-11T16:20:55Z</time>
      </trkpt>
      <trkpt lat="37.023938" lon="-1.881216">
        <ele>21.454</ele>
        <time>2021-06-11T16:20:56Z</time>
      </trkpt>
      <trkpt lat="37.023797" lon="-1.881131">
        <ele>21.019</ele>
        <time>2021-06-11T16:20:57Z</time>
      </trkpt>
      <trkpt lat="37.023518" lon="-1.880956">
        <ele>20.690</ele>
        <time>2021-06-11T16:20:59Z</time>
      </trkpt>
      <trkpt lat="37.023244" lon="-1.88078">
        <ele>20.434</ele>
        <time>2021-06-11T16:21:01Z</time>
      </trkpt>
      <trkpt lat="37.023112" lon="-1.880698">
        <ele>20.357</ele>
        <time>2021-06-11T16:21:02Z</time>
      </trkpt>
      <trkpt lat="37.02286" lon="-1.88054">
        <ele>19.832</ele>
        <time>2021-06-11T16:21:04Z</time>
      </trkpt>
      <trkpt lat="37.022734" lon="-1.88046">
        <ele>19.592</ele>
        <time>2021-06-11T16:21:05Z</time>
      </trkpt>
      <trkpt lat="37.022485" lon="-1.880304">
        <ele>19.411</ele>
        <time>2021-06-11T16:21:07Z</time>
      </trkpt>
      <trkpt lat="37.022361" lon="-1.880226">
        <ele>19.608</ele>
        <time>2021-06-11T16:21:08Z</time>
      </trkpt>
      <trkpt lat="37.022239" lon="-1.880149">
        <ele>19.830</ele>
        <time>2021-06-11T16:21:09Z</time>
      </trkpt>
      <trkpt lat="37.022119" lon="-1.880073">
        <ele>20.258</ele>
        <time>2021-06-11T16:21:10Z</time>
      </trkpt>
      <trkpt lat="37.021998" lon="-1.880002">
        <ele>20.228</ele>
        <time>2021-06-11T16:21:11Z</time>
      </trkpt>
      <trkpt lat="37.021876" lon="-1.879933">
        <ele>20.276</ele>
        <time>2021-06-11T16:21:12Z</time>
      </trkpt>
      <trkpt lat="37.021637" lon="-1.87979">
        <ele>20.391</ele>
        <time>2021-06-11T16:21:14Z</time>
      </trkpt>
      <trkpt lat="37.021395" lon="-1.879644">
        <ele>20.282</ele>
        <time>2021-06-11T16:21:16Z</time>
      </trkpt>
      <trkpt lat="37.021273" lon="-1.879568">
        <ele>19.956</ele>
        <time>2021-06-11T16:21:17Z</time>
      </trkpt>
      <trkpt lat="37.021148" lon="-1.879493">
        <ele>19.989</ele>
        <time>2021-06-11T16:21:18Z</time>
      </trkpt>
      <trkpt lat="37.020888" lon="-1.879361">
        <ele>19.565</ele>
        <time>2021-06-11T16:21:20Z</time>
      </trkpt>
      <trkpt lat="37.02061" lon="-1.879272">
        <ele>19.068</ele>
        <time>2021-06-11T16:21:22Z</time>
      </trkpt>
      <trkpt lat="37.020332" lon="-1.879241">
        <ele>18.614</ele>
        <time>2021-06-11T16:21:24Z</time>
      </trkpt>
      <trkpt lat="37.020189" lon="-1.879238">
        <ele>18.208</ele>
        <time>2021-06-11T16:21:25Z</time>
      </trkpt>
      <trkpt lat="37.01991" lon="-1.879243">
        <ele>18.163</ele>
        <time>2021-06-11T16:21:27Z</time>
      </trkpt>
      <trkpt lat="37.019767" lon="-1.879246">
        <ele>17.771</ele>
        <time>2021-06-11T16:21:28Z</time>
      </trkpt>
      <trkpt lat="37.019493" lon="-1.879264">
        <ele>17.371</ele>
        <time>2021-06-11T16:21:30Z</time>
      </trkpt>
      <trkpt lat="37.019356" lon="-1.87928">
        <ele>17.119</ele>
        <time>2021-06-11T16:21:31Z</time>
      </trkpt>
      <trkpt lat="37.019078" lon="-1.879331">
        <ele>17.664</ele>
        <time>2021-06-11T16:21:33Z</time>
      </trkpt>
      <trkpt lat="37.018937" lon="-1.879368">
        <ele>17.725</ele>
        <time>2021-06-11T16:21:34Z</time>
      </trkpt>
      <trkpt lat="37.018663" lon="-1.879487">
        <ele>17.929</ele>
        <time>2021-06-11T16:21:36Z</time>
      </trkpt>
      <trkpt lat="37.018533" lon="-1.879566">
        <ele>18.372</ele>
        <time>2021-06-11T16:21:37Z</time>
      </trkpt>
      <trkpt lat="37.018406" lon="-1.879652">
        <ele>18.194</ele>
        <time>2021-06-11T16:21:38Z</time>
      </trkpt>
      <trkpt lat="37.01816" lon="-1.879826">
        <ele>18.457</ele>
        <time>2021-06-11T16:21:40Z</time>
      </trkpt>
      <trkpt lat="37.017912" lon="-1.879999">
        <ele>18.822</ele>
        <time>2021-06-11T16:21:42Z</time>
      </trkpt>
      <trkpt lat="37.017789" lon="-1.88009">
        <ele>19.008</ele>
        <time>2021-06-11T16:21:43Z</time>
      </trkpt>
      <trkpt lat="37.017667" lon="-1.880183">
        <ele>19.266</ele>
        <time>2021-06-11T16:21:44Z</time>
      </trkpt>
      <trkpt lat="37.01742" lon="-1.880358">
        <ele>19.454</ele>
        <time>2021-06-11T16:21:46Z</time>
      </trkpt>
      <trkpt lat="37.01717" lon="-1.880527">
        <ele>19.714</ele>
        <time>2021-06-11T16:21:48Z</time>
      </trkpt>
      <trkpt lat="37.016923" lon="-1.880703">
        <ele>20.142</ele>
        <time>2021-06-11T16:21:50Z</time>
      </trkpt>
      <trkpt lat="37.016799" lon="-1.880793">
        <ele>20.567</ele>
        <time>2021-06-11T16:21:51Z</time>
      </trkpt>
      <trkpt lat="37.016553" lon="-1.880978">
        <ele>21.038</ele>
        <time>2021-06-11T16:21:53Z</time>
      </trkpt>
      <trkpt lat="37.016316" lon="-1.881181">
        <ele>21.642</ele>
        <time>2021-06-11T16:21:55Z</time>
      </trkpt>
      <trkpt lat="37.016097" lon="-1.881403">
        <ele>22.625</ele>
        <time>2021-06-11T16:21:57Z</time>
      </trkpt>
      <trkpt lat="37.015885" lon="-1.881636">
        <ele>23.923</ele>
        <time>2021-06-11T16:21:59Z</time>
      </trkpt>
      <trkpt lat="37.015678" lon="-1.88188">
        <ele>24.883</ele>
        <time>2021-06-11T16:22:01Z</time>
      </trkpt>
      <trkpt lat="37.015463" lon="-1.882129">
        <ele>25.611</ele>
        <time>2021-06-11T16:22:03Z</time>
      </trkpt>
      <trkpt lat="37.01525" lon="-1.882383">
        <ele>26.808</ele>
        <time>2021-06-11T16:22:05Z</time>
      </trkpt>
      <trkpt lat="37.015144" lon="-1.88251">
        <ele>27.629</ele>
        <time>2021-06-11T16:22:06Z</time>
      </trkpt>
      <trkpt lat="37.014932" lon="-1.882764">
        <ele>28.737</ele>
        <time>2021-06-11T16:22:08Z</time>
      </trkpt>
      <trkpt lat="37.014828" lon="-1.882898">
        <ele>29.647</ele>
        <time>2021-06-11T16:22:09Z</time>
      </trkpt>
      <trkpt lat="37.014623" lon="-1.883174">
        <ele>31.125</ele>
        <time>2021-06-11T16:22:11Z</time>
      </trkpt>
      <trkpt lat="37.014523" lon="-1.883317">
        <ele>32.520</ele>
        <time>2021-06-11T16:22:12Z</time>
      </trkpt>
      <trkpt lat="37.01434" lon="-1.883614">
        <ele>34.031</ele>
        <time>2021-06-11T16:22:14Z</time>
      </trkpt>
      <trkpt lat="37.014256" lon="-1.88377">
        <ele>35.195</ele>
        <time>2021-06-11T16:22:15Z</time>
      </trkpt>
      <trkpt lat="37.014092" lon="-1.884077">
        <ele>36.928</ele>
        <time>2021-06-11T16:22:17Z</time>
      </trkpt>
      <trkpt lat="37.013928" lon="-1.88438">
        <ele>38.332</ele>
        <time>2021-06-11T16:22:19Z</time>
      </trkpt>
      <trkpt lat="37.01377" lon="-1.88468">
        <ele>39.892</ele>
        <time>2021-06-11T16:22:21Z</time>
      </trkpt>
      <trkpt lat="37.013694" lon="-1.884831">
        <ele>41.011</ele>
        <time>2021-06-11T16:22:22Z</time>
      </trkpt>
      <trkpt lat="37.01362" lon="-1.884981">
        <ele>42.308</ele>
        <time>2021-06-11T16:22:23Z</time>
      </trkpt>
      <trkpt lat="37.013546" lon="-1.885129">
        <ele>43.380</ele>
        <time>2021-06-11T16:22:24Z</time>
      </trkpt>
      <trkpt lat="37.013472" lon="-1.885273">
        <ele>44.358</ele>
        <time>2021-06-11T16:22:25Z</time>
      </trkpt>
      <trkpt lat="37.013394" lon="-1.885413">
        <ele>45.758</ele>
        <time>2021-06-11T16:22:26Z</time>
      </trkpt>
      <trkpt lat="37.013223" lon="-1.885676">
        <ele>46.986</ele>
        <time>2021-06-11T16:22:28Z</time>
      </trkpt>
      <trkpt lat="37.013024" lon="-1.885922">
        <ele>48.241</ele>
        <time>2021-06-11T16:22:30Z</time>
      </trkpt>
      <trkpt lat="37.012914" lon="-1.886045">
        <ele>49.022</ele>
        <time>2021-06-11T16:22:31Z</time>
      </trkpt>
      <trkpt lat="37.01268" lon="-1.886278">
        <ele>50.736</ele>
        <time>2021-06-11T16:22:33Z</time>
      </trkpt>
      <trkpt lat="37.012441" lon="-1.886499">
        <ele>52.349</ele>
        <time>2021-06-11T16:22:35Z</time>
      </trkpt>
      <trkpt lat="37.012321" lon="-1.886607">
        <ele>53.774</ele>
        <time>2021-06-11T16:22:36Z</time>
      </trkpt>
      <trkpt lat="37.012201" lon="-1.886715">
        <ele>55.056</ele>
        <time>2021-06-11T16:22:37Z</time>
      </trkpt>
      <trkpt lat="37.011973" lon="-1.886938">
        <ele>56.821</ele>
        <time>2021-06-11T16:22:39Z</time>
      </trkpt>
      <trkpt lat="37.011864" lon="-1.887069">
        <ele>58.108</ele>
        <time>2021-06-11T16:22:40Z</time>
      </trkpt>
      <trkpt lat="37.011769" lon="-1.887208">
        <ele>59.044</ele>
        <time>2021-06-11T16:22:41Z</time>
      </trkpt>
      <trkpt lat="37.011618" lon="-1.887509">
        <ele>59.792</ele>
        <time>2021-06-11T16:22:43Z</time>
      </trkpt>
      <trkpt lat="37.011496" lon="-1.887848">
        <ele>60.322</ele>
        <time>2021-06-11T16:22:45Z</time>
      </trkpt>
      <trkpt lat="37.011443" lon="-1.888027">
        <ele>60.120</ele>
        <time>2021-06-11T16:22:46Z</time>
      </trkpt>
      <trkpt lat="37.011395" lon="-1.888205">
        <ele>59.985</ele>
        <time>2021-06-11T16:22:47Z</time>
      </trkpt>
      <trkpt lat="37.011295" lon="-1.888547">
        <ele>59.126</ele>
        <time>2021-06-11T16:22:49Z</time>
      </trkpt>
      <trkpt lat="37.011199" lon="-1.888872">
        <ele>58.080</ele>
        <time>2021-06-11T16:22:51Z</time>
      </trkpt>
      <trkpt lat="37.011148" lon="-1.889032">
        <ele>57.483</ele>
        <time>2021-06-11T16:22:52Z</time>
      </trkpt>
      <trkpt lat="37.011033" lon="-1.889324">
        <ele>56.745</ele>
        <time>2021-06-11T16:22:54Z</time>
      </trkpt>
      <trkpt lat="37.010959" lon="-1.889451">
        <ele>56.347</ele>
        <time>2021-06-11T16:22:55Z</time>
      </trkpt>
      <trkpt lat="37.010871" lon="-1.889559">
        <ele>55.611</ele>
        <time>2021-06-11T16:22:56Z</time>
      </trkpt>
      <trkpt lat="37.010658" lon="-1.889714">
        <ele>54.808</ele>
        <time>2021-06-11T16:22:58Z</time>
      </trkpt>
      <trkpt lat="37.010424" lon="-1.889809">
        <ele>53.811</ele>
        <time>2021-06-11T16:23:00Z</time>
      </trkpt>
      <trkpt lat="37.010184" lon="-1.889864">
        <ele>52.689</ele>
        <time>2021-06-11T16:23:02Z</time>
      </trkpt>
      <trkpt lat="37.010066" lon="-1.889889">
        <ele>51.449</ele>
        <time>2021-06-11T16:23:03Z</time>
      </trkpt>
      <trkpt lat="37.009948" lon="-1.889914">
        <ele>50.467</ele>
        <time>2021-06-11T16:23:04Z</time>
      </trkpt>
      <trkpt lat="37.009718" lon="-1.889966">
        <ele>49.312</ele>
        <time>2021-06-11T16:23:06Z</time>
      </trkpt>
      <trkpt lat="37.00949" lon="-1.890019">
        <ele>48.663</ele>
        <time>2021-06-11T16:23:08Z</time>
      </trkpt>
      <trkpt lat="37.009266" lon="-1.890078">
        <ele>47.697</ele>
        <time>2021-06-11T16:23:10Z</time>
      </trkpt>
      <trkpt lat="37.009048" lon="-1.890133">
        <ele>46.810</ele>
        <time>2021-06-11T16:23:12Z</time>
      </trkpt>
      <trkpt lat="37.008944" lon="-1.890159">
        <ele>46.039</ele>
        <time>2021-06-11T16:23:13Z</time>
      </trkpt>
      <trkpt lat="37.008752" lon="-1.890213">
        <ele>45.101</ele>
        <time>2021-06-11T16:23:15Z</time>
      </trkpt>
      <trkpt lat="37.008663" lon="-1.890248">
        <ele>44.321</ele>
        <time>2021-06-11T16:23:16Z</time>
      </trkpt>
      <trkpt lat="37.008507" lon="-1.890334">
        <ele>43.608</ele>
        <time>2021-06-11T16:23:18Z</time>
      </trkpt>
      <trkpt lat="37.008377" lon="-1.890438">
        <ele>42.780</ele>
        <time>2021-06-11T16:23:20Z</time>
      </trkpt>
      <trkpt lat="37.008249" lon="-1.890547">
        <ele>41.648</ele>
        <time>2021-06-11T16:23:22Z</time>
      </trkpt>
      <trkpt lat="37.008182" lon="-1.890597">
        <ele>41.018</ele>
        <time>2021-06-11T16:23:23Z</time>
      </trkpt>
      <trkpt lat="37.008045" lon="-1.890688">
        <ele>39.876</ele>
        <time>2021-06-11T16:23:25Z</time>
      </trkpt>
      <trkpt lat="37.007972" lon="-1.890728">
        <ele>38.741</ele>
        <time>2021-06-11T16:23:26Z</time>
      </trkpt>
      <trkpt lat="37.007825" lon="-1.890802">
        <ele>38.032</ele>
        <time>2021-06-11T16:23:28Z</time>
      </trkpt>
      <trkpt lat="37.007751" lon="-1.890838">
        <ele>37.446</ele>
        <time>2021-06-11T16:23:29Z</time>
      </trkpt>
      <trkpt lat="37.007597" lon="-1.890896">
        <ele>36.879</ele>
        <time>2021-06-11T16:23:31Z</time>
      </trkpt>
      <trkpt lat="37.007451" lon="-1.890965">
        <ele>36.116</ele>
        <time>2021-06-11T16:23:33Z</time>
      </trkpt>
      <trkpt lat="37.00738" lon="-1.891001">
        <ele>35.676</ele>
        <time>2021-06-11T16:23:34Z</time>
      </trkpt>
      <trkpt lat="37.007238" lon="-1.89106">
        <ele>34.813</ele>
        <time>2021-06-11T16:23:36Z</time>
      </trkpt>
      <trkpt lat="37.007166" lon="-1.891092">
        <ele>33.908</ele>
        <time>2021-06-11T16:23:37Z</time>
      </trkpt>
      <trkpt lat="37.007093" lon="-1.891123">
        <ele>33.268</ele>
        <time>2021-06-11T16:23:38Z</time>
      </trkpt>
      <trkpt lat="37.006943" lon="-1.891182">
        <ele>32.456</ele>
        <time>2021-06-11T16:23:40Z</time>
      </trkpt>
      <trkpt lat="37.006865" lon="-1.891218">
        <ele>31.946</ele>
        <time>2021-06-11T16:23:41Z</time>
      </trkpt>
      <trkpt lat="37.006705" lon="-1.89129">
        <ele>30.814</ele>
        <time>2021-06-11T16:23:43Z</time>
      </trkpt>
      <trkpt lat="37.006537" lon="-1.89136">
        <ele>29.699</ele>
        <time>2021-06-11T16:23:45Z</time>
      </trkpt>
      <trkpt lat="37.006372" lon="-1.891429">
        <ele>28.580</ele>
        <time>2021-06-11T16:23:47Z</time>
      </trkpt>
      <trkpt lat="37.006296" lon="-1.891459">
        <ele>27.834</ele>
        <time>2021-06-11T16:23:48Z</time>
      </trkpt>
      <trkpt lat="37.00622" lon="-1.891486">
        <ele>27.497</ele>
        <time>2021-06-11T16:23:49Z</time>
      </trkpt>
      <trkpt lat="37.006068" lon="-1.891548">
        <ele>26.883</ele>
        <time>2021-06-11T16:23:51Z</time>
      </trkpt>
      <trkpt lat="37.005993" lon="-1.891579">
        <ele>26.125</ele>
        <time>2021-06-11T16:23:52Z</time>
      </trkpt>
      <trkpt lat="37.005873" lon="-1.891639">
        <ele>25.517</ele>
        <time>2021-06-11T16:23:54Z</time>
      </trkpt>
      <trkpt lat="37.005822" lon="-1.891675">
        <ele>24.908</ele>
        <time>2021-06-11T16:23:56Z</time>
      </trkpt>
      <trkpt lat="37.005771" lon="-1.891712">
        <ele>23.915</ele>
        <time>2021-06-11T16:23:59Z</time>
      </trkpt>
      <trkpt lat="37.005716" lon="-1.8917">
        <ele>24.013</ele>
        <time>2021-06-11T16:25:45Z</time>
      </trkpt>
      <trkpt lat="37.005664" lon="-1.891726">
        <ele>24.083</ele>
        <time>2021-06-11T16:25:46Z</time>
      </trkpt>
      <trkpt lat="37.005617" lon="-1.891768">
        <ele>24.071</ele>
        <time>2021-06-11T16:25:47Z</time>
      </trkpt>
      <trkpt lat="37.005567" lon="-1.891898">
        <ele>24.026</ele>
        <time>2021-06-11T16:25:49Z</time>
      </trkpt>
      <trkpt lat="37.005546" lon="-1.891962">
        <ele>24.057</ele>
        <time>2021-06-11T16:25:50Z</time>
      </trkpt>
      <trkpt lat="37.00546" lon="-1.89202">
        <ele>24.011</ele>
        <time>2021-06-11T16:25:52Z</time>
      </trkpt>
      <trkpt lat="37.00541" lon="-1.892016">
        <ele>24.074</ele>
        <time>2021-06-11T16:25:53Z</time>
      </trkpt>
      <trkpt lat="37.005308" lon="-1.891954">
        <ele>24.079</ele>
        <time>2021-06-11T16:25:55Z</time>
      </trkpt>
      <trkpt lat="37.005245" lon="-1.891924">
        <ele>24.005</ele>
        <time>2021-06-11T16:25:56Z</time>
      </trkpt>
      <trkpt lat="37.005107" lon="-1.891895">
        <ele>24.025</ele>
        <time>2021-06-11T16:25:58Z</time>
      </trkpt>
      <trkpt lat="37.005032" lon="-1.891883">
        <ele>24.008</ele>
        <time>2021-06-11T16:25:59Z</time>
      </trkpt>
      <trkpt lat="37.004871" lon="-1.891827">
        <ele>24.014</ele>
        <time>2021-06-11T16:26:01Z</time>
      </trkpt>
      <trkpt lat="37.004699" lon="-1.891756">
        <ele>24.082</ele>
        <time>2021-06-11T16:26:03Z</time>
      </trkpt>
      <trkpt lat="37.004611" lon="-1.89172">
        <ele>24.032</ele>
        <time>2021-06-11T16:26:04Z</time>
      </trkpt>
      <trkpt lat="37.004525" lon="-1.891684">
        <ele>24.050</ele>
        <time>2021-06-11T16:26:05Z</time>
      </trkpt>
      <trkpt lat="37.004445" lon="-1.891654">
        <ele>24.055</ele>
        <time>2021-06-11T16:26:06Z</time>
      </trkpt>
      <trkpt lat="37.00431" lon="-1.891598">
        <ele>24.036</ele>
        <time>2021-06-11T16:26:08Z</time>
      </trkpt>
      <trkpt lat="37.00426" lon="-1.891575">
        <ele>24.060</ele>
        <time>2021-06-11T16:26:09Z</time>
      </trkpt>
      <trkpt lat="37.004175" lon="-1.891542">
        <ele>24.073</ele>
        <time>2021-06-11T16:26:11Z</time>
      </trkpt>
      <trkpt lat="37.004124" lon="-1.891523">
        <ele>24.044</ele>
        <time>2021-06-11T16:26:12Z</time>
      </trkpt>
      <trkpt lat="37.004001" lon="-1.89148">
        <ele>24.005</ele>
        <time>2021-06-11T16:26:14Z</time>
      </trkpt>
      <trkpt lat="37.003852" lon="-1.891427">
        <ele>24.015</ele>
        <time>2021-06-11T16:26:16Z</time>
      </trkpt>
      <trkpt lat="37.003678" lon="-1.891373">
        <ele>24.008</ele>
        <time>2021-06-11T16:26:18Z</time>
      </trkpt>
      <trkpt lat="37.003583" lon="-1.891342">
        <ele>24.011</ele>
        <time>2021-06-11T16:26:19Z</time>
      </trkpt>
      <trkpt lat="37.003391" lon="-1.891271">
        <ele>24.089</ele>
        <time>2021-06-11T16:26:21Z</time>
      </trkpt>
      <trkpt lat="37.003202" lon="-1.8912">
        <ele>24.089</ele>
        <time>2021-06-11T16:26:23Z</time>
      </trkpt>
      <trkpt lat="37.003102" lon="-1.891165">
        <ele>24.067</ele>
        <time>2021-06-11T16:26:24Z</time>
      </trkpt>
      <trkpt lat="37.002916" lon="-1.891102">
        <ele>24.062</ele>
        <time>2021-06-11T16:26:26Z</time>
      </trkpt>
      <trkpt lat="37.002825" lon="-1.89107">
        <ele>24.013</ele>
        <time>2021-06-11T16:26:27Z</time>
      </trkpt>
      <trkpt lat="37.002649" lon="-1.89101">
        <ele>24.057</ele>
        <time>2021-06-11T16:26:29Z</time>
      </trkpt>
      <trkpt lat="37.002564" lon="-1.890981">
        <ele>24.070</ele>
        <time>2021-06-11T16:26:30Z</time>
      </trkpt>
      <trkpt lat="37.002412" lon="-1.890925">
        <ele>24.058</ele>
        <time>2021-06-11T16:26:32Z</time>
      </trkpt>
      <trkpt lat="37.002345" lon="-1.890895">
        <ele>24.052</ele>
        <time>2021-06-11T16:26:33Z</time>
      </trkpt>
      <trkpt lat="37.00229" lon="-1.890873">
        <ele>24.017</ele>
        <time>2021-06-11T16:26:34Z</time>
      </trkpt>
      <trkpt lat="37.002207" lon="-1.890849">
        <ele>24.008</ele>
        <time>2021-06-11T16:26:36Z</time>
      </trkpt>
      <trkpt lat="37.002152" lon="-1.890826">
        <ele>24.092</ele>
        <time>2021-06-11T16:26:38Z</time>
      </trkpt>
      <trkpt lat="37.0021" lon="-1.890807">
        <ele>24.030</ele>
        <time>2021-06-11T16:26:39Z</time>
      </trkpt>
      <trkpt lat="37.001985" lon="-1.890768">
        <ele>24.040</ele>
        <time>2021-06-11T16:26:41Z</time>
      </trkpt>
      <trkpt lat="37.001876" lon="-1.890745">
        <ele>21.938</ele>
        <time>2021-06-11T16:26:43Z</time>
      </trkpt>
      <trkpt lat="37.001737" lon="-1.890762">
        <ele>20.743</ele>
        <time>2021-06-11T16:26:45Z</time>
      </trkpt>
      <trkpt lat="37.001577" lon="-1.890804">
        <ele>19.964</ele>
        <time>2021-06-11T16:26:47Z</time>
      </trkpt>
      <trkpt lat="37.001492" lon="-1.890832">
        <ele>19.578</ele>
        <time>2021-06-11T16:26:48Z</time>
      </trkpt>
      <trkpt lat="37.001325" lon="-1.890901">
        <ele>19.471</ele>
        <time>2021-06-11T16:26:50Z</time>
      </trkpt>
      <trkpt lat="37.001238" lon="-1.890934">
        <ele>19.378</ele>
        <time>2021-06-11T16:26:51Z</time>
      </trkpt>
      <trkpt lat="37.001064" lon="-1.891011">
        <ele>19.033</ele>
        <time>2021-06-11T16:26:53Z</time>
      </trkpt>
      <trkpt lat="37.000978" lon="-1.891051">
        <ele>19.126</ele>
        <time>2021-06-11T16:26:54Z</time>
      </trkpt>
      <trkpt lat="37.000894" lon="-1.891092">
        <ele>19.208</ele>
        <time>2021-06-11T16:26:55Z</time>
      </trkpt>
      <trkpt lat="37.000813" lon="-1.89113">
        <ele>19.524</ele>
        <time>2021-06-11T16:26:56Z</time>
      </trkpt>
      <trkpt lat="37.000658" lon="-1.891196">
        <ele>19.322</ele>
        <time>2021-06-11T16:26:58Z</time>
      </trkpt>
      <trkpt lat="37.000585" lon="-1.891219">
        <ele>19.312</ele>
        <time>2021-06-11T16:26:59Z</time>
      </trkpt>
      <trkpt lat="37.000465" lon="-1.891274">
        <ele>19.490</ele>
        <time>2021-06-11T16:27:01Z</time>
      </trkpt>
      <trkpt lat="37.000416" lon="-1.891294">
        <ele>19.885</ele>
        <time>2021-06-11T16:27:02Z</time>
      </trkpt>
      <trkpt lat="37.000349" lon="-1.891331">
        <ele>19.746</ele>
        <time>2021-06-11T16:27:04Z</time>
      </trkpt>
      <trkpt lat="37.000277" lon="-1.891368">
        <ele>19.460</ele>
        <time>2021-06-11T16:27:06Z</time>
      </trkpt>
      <trkpt lat="37.000218" lon="-1.89139">
        <ele>19.123</ele>
        <time>2021-06-11T16:27:07Z</time>
      </trkpt>
      <trkpt lat="37.000075" lon="-1.891438">
        <ele>19.249</ele>
        <time>2021-06-11T16:27:09Z</time>
      </trkpt>
      <trkpt lat="36.999919" lon="-1.891497">
        <ele>19.602</ele>
        <time>2021-06-11T16:27:11Z</time>
      </trkpt>
      <trkpt lat="36.999839" lon="-1.89152">
        <ele>19.622</ele>
        <time>2021-06-11T16:27:12Z</time>
      </trkpt>
      <trkpt lat="36.999681" lon="-1.891589">
        <ele>19.608</ele>
        <time>2021-06-11T16:27:14Z</time>
      </trkpt>
      <trkpt lat="36.999531" lon="-1.891686">
        <ele>19.761</ele>
        <time>2021-06-11T16:27:16Z</time>
      </trkpt>
      <trkpt lat="36.999464" lon="-1.891743">
        <ele>19.669</ele>
        <time>2021-06-11T16:27:17Z</time>
      </trkpt>
      <trkpt lat="36.999337" lon="-1.891858">
        <ele>19.299</ele>
        <time>2021-06-11T16:27:19Z</time>
      </trkpt>
      <trkpt lat="36.999242" lon="-1.89197">
        <ele>19.087</ele>
        <time>2021-06-11T16:27:21Z</time>
      </trkpt>
      <trkpt lat="36.999212" lon="-1.892033">
        <ele>18.712</ele>
        <time>2021-06-11T16:27:22Z</time>
      </trkpt>
      <trkpt lat="36.999176" lon="-1.892146">
        <ele>18.813</ele>
        <time>2021-06-11T16:27:24Z</time>
      </trkpt>
      <trkpt lat="36.99911" lon="-1.892187">
        <ele>18.647</ele>
        <time>2021-06-11T16:27:26Z</time>
      </trkpt>
      <trkpt lat="36.999031" lon="-1.892144">
        <ele>18.510</ele>
        <time>2021-06-11T16:27:28Z</time>
      </trkpt>
      <trkpt lat="36.998955" lon="-1.892072">
        <ele>18.175</ele>
        <time>2021-06-11T16:27:30Z</time>
      </trkpt>
      <trkpt lat="36.998923" lon="-1.892011">
        <ele>17.728</ele>
        <time>2021-06-11T16:27:31Z</time>
      </trkpt>
      <trkpt lat="36.998865" lon="-1.891864">
        <ele>18.120</ele>
        <time>2021-06-11T16:27:33Z</time>
      </trkpt>
      <trkpt lat="36.998796" lon="-1.891714">
        <ele>18.508</ele>
        <time>2021-06-11T16:27:35Z</time>
      </trkpt>
      <trkpt lat="36.998729" lon="-1.891564">
        <ele>18.594</ele>
        <time>2021-06-11T16:27:37Z</time>
      </trkpt>
      <trkpt lat="36.998675" lon="-1.89144">
        <ele>18.222</ele>
        <time>2021-06-11T16:27:39Z</time>
      </trkpt>
      <trkpt lat="36.998617" lon="-1.891322">
        <ele>17.632</ele>
        <time>2021-06-11T16:27:41Z</time>
      </trkpt>
      <trkpt lat="36.998588" lon="-1.891265">
        <ele>17.030</ele>
        <time>2021-06-11T16:27:42Z</time>
      </trkpt>
      <trkpt lat="36.998543" lon="-1.891174">
        <ele>16.425</ele>
        <time>2021-06-11T16:27:44Z</time>
      </trkpt>
      <trkpt lat="36.998499" lon="-1.891128">
        <ele>16.366</ele>
        <time>2021-06-11T16:27:46Z</time>
      </trkpt>
      <trkpt lat="36.998431" lon="-1.891165">
        <ele>16.120</ele>
        <time>2021-06-11T16:27:48Z</time>
      </trkpt>
      <trkpt lat="36.998393" lon="-1.891205">
        <ele>16.363</ele>
        <time>2021-06-11T16:27:49Z</time>
      </trkpt>
      <trkpt lat="36.998312" lon="-1.891296">
        <ele>16.272</ele>
        <time>2021-06-11T16:27:51Z</time>
      </trkpt>
      <trkpt lat="36.998255" lon="-1.891341">
        <ele>16.213</ele>
        <time>2021-06-11T16:27:52Z</time>
      </trkpt>
      <trkpt lat="36.998142" lon="-1.891416">
        <ele>15.814</ele>
        <time>2021-06-11T16:27:54Z</time>
      </trkpt>
      <trkpt lat="36.998034" lon="-1.891492">
        <ele>15.508</ele>
        <time>2021-06-11T16:27:56Z</time>
      </trkpt>
      <trkpt lat="36.997987" lon="-1.891529">
        <ele>15.434</ele>
        <time>2021-06-11T16:27:57Z</time>
      </trkpt>
      <trkpt lat="36.997904" lon="-1.891594">
        <ele>15.642</ele>
        <time>2021-06-11T16:27:59Z</time>
      </trkpt>
      <trkpt lat="36.997844" lon="-1.891639">
        <ele>15.242</ele>
        <time>2021-06-11T16:28:01Z</time>
      </trkpt>
      <trkpt lat="36.997811" lon="-1.891695">
        <ele>15.440</ele>
        <time>2021-06-11T16:28:03Z</time>
      </trkpt>
      <trkpt lat="36.997842" lon="-1.89177">
        <ele>15.835</ele>
        <time>2021-06-11T16:28:05Z</time>
      </trkpt>
      <trkpt lat="36.997894" lon="-1.891856">
        <ele>15.716</ele>
        <time>2021-06-11T16:28:07Z</time>
      </trkpt>
      <trkpt lat="36.997945" lon="-1.891929">
        <ele>16.260</ele>
        <time>2021-06-11T16:28:09Z</time>
      </trkpt>
      <trkpt lat="36.997993" lon="-1.891925">
        <ele>16.433</ele>
        <time>2021-06-11T16:28:11Z</time>
      </trkpt>
      <trkpt lat="36.998021" lon="-1.891858">
        <ele>16.756</ele>
        <time>2021-06-11T16:28:14Z</time>
      </trkpt>
      <trkpt lat="36.997979" lon="-1.891785">
        <ele>16.659</ele>
        <time>2021-06-11T16:28:16Z</time>
      </trkpt>
      <trkpt lat="36.99794" lon="-1.891721">
        <ele>17.014</ele>
        <time>2021-06-11T16:28:18Z</time>
      </trkpt>
      <trkpt lat="36.997917" lon="-1.89167">
        <ele>17.408</ele>
        <time>2021-06-11T16:28:20Z</time>
      </trkpt>
      <trkpt lat="36.997872" lon="-1.891681">
        <ele>16.512</ele>
        <time>2021-06-11T16:28:44Z</time>
      </trkpt>
      <trkpt lat="36.997901" lon="-1.891726">
        <ele>16.070</ele>
        <time>2021-06-11T16:29:21Z</time>
      </trkpt>
      <trkpt lat="36.997858" lon="-1.891707">
        <ele>15.410</ele>
        <time>2021-06-11T16:34:41Z</time>
      </trkpt>
      <trkpt lat="36.997879" lon="-1.89178">
        <ele>15.168</ele>
        <time>2021-06-11T16:38:53Z</time>
      </trkpt>
      <trkpt lat="36.997918" lon="-1.891832">
        <ele>14.923</ele>
        <time>2021-06-11T16:38:55Z</time>
      </trkpt>
      <trkpt lat="36.99796" lon="-1.891888">
        <ele>14.884</ele>
        <time>2021-06-11T16:38:57Z</time>
      </trkpt>
      <trkpt lat="36.997985" lon="-1.891949">
        <ele>14.748</ele>
        <time>2021-06-11T16:39:00Z</time>
      </trkpt>
      <trkpt lat="36.997996" lon="-1.892014">
        <ele>14.741</ele>
        <time>2021-06-11T16:39:02Z</time>
      </trkpt>
      <trkpt lat="36.998047" lon="-1.892109">
        <ele>14.782</ele>
        <time>2021-06-11T16:39:04Z</time>
      </trkpt>
      <trkpt lat="36.998083" lon="-1.892166">
        <ele>14.743</ele>
        <time>2021-06-11T16:39:05Z</time>
      </trkpt>
      <trkpt lat="36.998114" lon="-1.892217">
        <ele>15.517</ele>
        <time>2021-06-11T16:39:06Z</time>
      </trkpt>
      <trkpt lat="36.99816" lon="-1.892298">
        <ele>16.308</ele>
        <time>2021-06-11T16:39:08Z</time>
      </trkpt>
      <trkpt lat="36.998188" lon="-1.892343">
        <ele>16.595</ele>
        <time>2021-06-11T16:39:09Z</time>
      </trkpt>
      <trkpt lat="36.998248" lon="-1.892405">
        <ele>16.333</ele>
        <time>2021-06-11T16:39:11Z</time>
      </trkpt>
      <trkpt lat="36.998306" lon="-1.89237">
        <ele>16.243</ele>
        <time>2021-06-11T16:39:13Z</time>
      </trkpt>
      <trkpt lat="36.998367" lon="-1.892285">
        <ele>16.111</ele>
        <time>2021-06-11T16:39:15Z</time>
      </trkpt>
      <trkpt lat="36.998405" lon="-1.892225">
        <ele>16.046</ele>
        <time>2021-06-11T16:39:16Z</time>
      </trkpt>
      <trkpt lat="36.998485" lon="-1.892121">
        <ele>15.837</ele>
        <time>2021-06-11T16:39:18Z</time>
      </trkpt>
      <trkpt lat="36.998552" lon="-1.892042">
        <ele>15.881</ele>
        <time>2021-06-11T16:39:20Z</time>
      </trkpt>
      <trkpt lat="36.998589" lon="-1.892002">
        <ele>15.444</ele>
        <time>2021-06-11T16:39:21Z</time>
      </trkpt>
      <trkpt lat="36.998626" lon="-1.89196">
        <ele>15.339</ele>
        <time>2021-06-11T16:39:22Z</time>
      </trkpt>
      <trkpt lat="36.998706" lon="-1.89188">
        <ele>15.401</ele>
        <time>2021-06-11T16:39:24Z</time>
      </trkpt>
      <trkpt lat="36.998742" lon="-1.891845">
        <ele>15.221</ele>
        <time>2021-06-11T16:39:25Z</time>
      </trkpt>
      <trkpt lat="36.998782" lon="-1.891818">
        <ele>15.408</ele>
        <time>2021-06-11T16:39:27Z</time>
      </trkpt>
      <trkpt lat="36.998842" lon="-1.891832">
        <ele>15.460</ele>
        <time>2021-06-11T16:39:29Z</time>
      </trkpt>
      <trkpt lat="36.998883" lon="-1.891867">
        <ele>15.758</ele>
        <time>2021-06-11T16:39:30Z</time>
      </trkpt>
      <trkpt lat="36.998953" lon="-1.891968">
        <ele>15.768</ele>
        <time>2021-06-11T16:39:32Z</time>
      </trkpt>
      <trkpt lat="36.999003" lon="-1.892061">
        <ele>15.766</ele>
        <time>2021-06-11T16:39:34Z</time>
      </trkpt>
      <trkpt lat="36.999064" lon="-1.892067">
        <ele>16.321</ele>
        <time>2021-06-11T16:39:36Z</time>
      </trkpt>
      <trkpt lat="36.999108" lon="-1.892045">
        <ele>16.372</ele>
        <time>2021-06-11T16:39:37Z</time>
      </trkpt>
      <trkpt lat="36.999195" lon="-1.89197">
        <ele>15.826</ele>
        <time>2021-06-11T16:39:39Z</time>
      </trkpt>
      <trkpt lat="36.999245" lon="-1.891916">
        <ele>16.359</ele>
        <time>2021-06-11T16:39:40Z</time>
      </trkpt>
      <trkpt lat="36.999296" lon="-1.891861">
        <ele>16.392</ele>
        <time>2021-06-11T16:39:41Z</time>
      </trkpt>
      <trkpt lat="36.999396" lon="-1.891771">
        <ele>16.673</ele>
        <time>2021-06-11T16:39:43Z</time>
      </trkpt>
      <trkpt lat="36.999448" lon="-1.891724">
        <ele>16.620</ele>
        <time>2021-06-11T16:39:44Z</time>
      </trkpt>
      <trkpt lat="36.999505" lon="-1.891676">
        <ele>16.908</ele>
        <time>2021-06-11T16:39:45Z</time>
      </trkpt>
      <trkpt lat="36.999633" lon="-1.891586">
        <ele>16.646</ele>
        <time>2021-06-11T16:39:47Z</time>
      </trkpt>
      <trkpt lat="36.999697" lon="-1.891545">
        <ele>15.734</ele>
        <time>2021-06-11T16:39:48Z</time>
      </trkpt>
      <trkpt lat="36.999831" lon="-1.891483">
        <ele>14.744</ele>
        <time>2021-06-11T16:39:50Z</time>
      </trkpt>
      <trkpt lat="36.999971" lon="-1.891426">
        <ele>14.472</ele>
        <time>2021-06-11T16:39:52Z</time>
      </trkpt>
      <trkpt lat="37.000041" lon="-1.891398">
        <ele>13.957</ele>
        <time>2021-06-11T16:39:53Z</time>
      </trkpt>
      <trkpt lat="37.000169" lon="-1.891353">
        <ele>13.828</ele>
        <time>2021-06-11T16:39:55Z</time>
      </trkpt>
      <trkpt lat="37.000227" lon="-1.891328">
        <ele>13.422</ele>
        <time>2021-06-11T16:39:56Z</time>
      </trkpt>
      <trkpt lat="37.000279" lon="-1.891306">
        <ele>13.395</ele>
        <time>2021-06-11T16:39:57Z</time>
      </trkpt>
      <trkpt lat="37.000378" lon="-1.891272">
        <ele>13.367</ele>
        <time>2021-06-11T16:39:59Z</time>
      </trkpt>
      <trkpt lat="37.000428" lon="-1.891257">
        <ele>14.181</ele>
        <time>2021-06-11T16:40:01Z</time>
      </trkpt>
      <trkpt lat="37.000493" lon="-1.891238">
        <ele>14.519</ele>
        <time>2021-06-11T16:40:02Z</time>
      </trkpt>
      <trkpt lat="37.000541" lon="-1.891219">
        <ele>14.808</ele>
        <time>2021-06-11T16:40:03Z</time>
      </trkpt>
      <trkpt lat="37.000654" lon="-1.891166">
        <ele>14.913</ele>
        <time>2021-06-11T16:40:06Z</time>
      </trkpt>
      <trkpt lat="37.000732" lon="-1.891132">
        <ele>15.091</ele>
        <time>2021-06-11T16:40:07Z</time>
      </trkpt>
      <trkpt lat="37.000906" lon="-1.891056">
        <ele>15.051</ele>
        <time>2021-06-11T16:40:09Z</time>
      </trkpt>
      <trkpt lat="37.000983" lon="-1.891025">
        <ele>15.049</ele>
        <time>2021-06-11T16:40:10Z</time>
      </trkpt>
      <trkpt lat="37.001115" lon="-1.890973">
        <ele>15.064</ele>
        <time>2021-06-11T16:40:12Z</time>
      </trkpt>
      <trkpt lat="37.001229" lon="-1.890919">
        <ele>15.025</ele>
        <time>2021-06-11T16:40:14Z</time>
      </trkpt>
      <trkpt lat="37.001353" lon="-1.890865">
        <ele>15.069</ele>
        <time>2021-06-11T16:40:16Z</time>
      </trkpt>
      <trkpt lat="37.001473" lon="-1.890803">
        <ele>15.042</ele>
        <time>2021-06-11T16:40:18Z</time>
      </trkpt>
      <trkpt lat="37.001575" lon="-1.890761">
        <ele>15.034</ele>
        <time>2021-06-11T16:40:20Z</time>
      </trkpt>
      <trkpt lat="37.001633" lon="-1.890737">
        <ele>15.055</ele>
        <time>2021-06-11T16:40:22Z</time>
      </trkpt>
      <trkpt lat="37.001687" lon="-1.890714">
        <ele>15.010</ele>
        <time>2021-06-11T16:40:24Z</time>
      </trkpt>
      <trkpt lat="37.001732" lon="-1.890689">
        <ele>13.408</ele>
        <time>2021-06-11T16:44:52Z</time>
      </trkpt>
      <trkpt lat="37.001714" lon="-1.890626">
        <ele>14.350</ele>
        <time>2021-06-11T16:45:43Z</time>
      </trkpt>
      <trkpt lat="37.001705" lon="-1.890561">
        <ele>14.838</ele>
        <time>2021-06-11T16:45:46Z</time>
      </trkpt>
      <trkpt lat="37.001702" lon="-1.890504">
        <ele>15.198</ele>
        <time>2021-06-11T16:45:50Z</time>
      </trkpt>
      <trkpt lat="37.001699" lon="-1.890568">
        <ele>15.336</ele>
        <time>2021-06-11T16:46:34Z</time>
      </trkpt>
      <trkpt lat="37.001688" lon="-1.890629">
        <ele>15.411</ele>
        <time>2021-06-11T16:46:38Z</time>
      </trkpt>
      <trkpt lat="37.00168" lon="-1.890684">
        <ele>15.462</ele>
        <time>2021-06-11T16:46:43Z</time>
      </trkpt>
      <trkpt lat="37.001679" lon="-1.890745">
        <ele>15.466</ele>
        <time>2021-06-11T16:46:50Z</time>
      </trkpt>
      <trkpt lat="37.001704" lon="-1.890806">
        <ele>15.469</ele>
        <time>2021-06-11T16:47:16Z</time>
      </trkpt>
      <trkpt lat="37.001735" lon="-1.890713">
        <ele>42.322</ele>
        <time>2021-06-11T17:12:50Z</time>
      </trkpt>
      <trkpt lat="37.001715" lon="-1.89077">
        <ele>25.762</ele>
        <time>2021-06-11T17:14:54Z</time>
      </trkpt>
      <trkpt lat="37.001651" lon="-1.890792">
        <ele>15.508</ele>
        <time>2021-06-11T17:14:55Z</time>
      </trkpt>
      <trkpt lat="37.001485" lon="-1.890844">
        <ele>15.508</ele>
        <time>2021-06-11T17:14:57Z</time>
      </trkpt>
      <trkpt lat="37.001404" lon="-1.890876">
        <ele>15.599</ele>
        <time>2021-06-11T17:14:58Z</time>
      </trkpt>
      <trkpt lat="37.001192" lon="-1.890952">
        <ele>15.597</ele>
        <time>2021-06-11T17:15:00Z</time>
      </trkpt>
      <trkpt lat="37.001101" lon="-1.890985">
        <ele>15.587</ele>
        <time>2021-06-11T17:15:01Z</time>
      </trkpt>
      <trkpt lat="37.001015" lon="-1.891018">
        <ele>15.575</ele>
        <time>2021-06-11T17:15:02Z</time>
      </trkpt>
      <trkpt lat="37.000936" lon="-1.89105">
        <ele>15.520</ele>
        <time>2021-06-11T17:15:03Z</time>
      </trkpt>
      <trkpt lat="37.000868" lon="-1.891086">
        <ele>15.551</ele>
        <time>2021-06-11T17:15:04Z</time>
      </trkpt>
      <trkpt lat="37.000733" lon="-1.891142">
        <ele>15.555</ele>
        <time>2021-06-11T17:15:06Z</time>
      </trkpt>
      <trkpt lat="37.000659" lon="-1.891162">
        <ele>15.528</ele>
        <time>2021-06-11T17:15:07Z</time>
      </trkpt>
      <trkpt lat="37.00052" lon="-1.891204">
        <ele>15.556</ele>
        <time>2021-06-11T17:15:09Z</time>
      </trkpt>
      <trkpt lat="37.000457" lon="-1.891227">
        <ele>15.559</ele>
        <time>2021-06-11T17:15:10Z</time>
      </trkpt>
      <trkpt lat="37.000403" lon="-1.891247">
        <ele>15.514</ele>
        <time>2021-06-11T17:15:11Z</time>
      </trkpt>
      <trkpt lat="37.000331" lon="-1.891275">
        <ele>15.508</ele>
        <time>2021-06-11T17:15:13Z</time>
      </trkpt>
      <trkpt lat="37.000266" lon="-1.891305">
        <ele>15.572</ele>
        <time>2021-06-11T17:15:15Z</time>
      </trkpt>
      <trkpt lat="37.000145" lon="-1.891356">
        <ele>15.570</ele>
        <time>2021-06-11T17:15:17Z</time>
      </trkpt>
      <trkpt lat="37.000072" lon="-1.891385">
        <ele>15.560</ele>
        <time>2021-06-11T17:15:18Z</time>
      </trkpt>
      <trkpt lat="36.999993" lon="-1.891416">
        <ele>15.538</ele>
        <time>2021-06-11T17:15:19Z</time>
      </trkpt>
      <trkpt lat="36.999909" lon="-1.89145">
        <ele>15.583</ele>
        <time>2021-06-11T17:15:20Z</time>
      </trkpt>
      <trkpt lat="36.99976" lon="-1.891519">
        <ele>15.574</ele>
        <time>2021-06-11T17:15:22Z</time>
      </trkpt>
      <trkpt lat="36.999649" lon="-1.891583">
        <ele>15.548</ele>
        <time>2021-06-11T17:15:24Z</time>
      </trkpt>
      <trkpt lat="36.999591" lon="-1.891614">
        <ele>15.521</ele>
        <time>2021-06-11T17:15:25Z</time>
      </trkpt>
      <trkpt lat="36.999469" lon="-1.891707">
        <ele>15.587</ele>
        <time>2021-06-11T17:15:27Z</time>
      </trkpt>
      <trkpt lat="36.999347" lon="-1.891818">
        <ele>15.542</ele>
        <time>2021-06-11T17:15:29Z</time>
      </trkpt>
      <trkpt lat="36.999296" lon="-1.891872">
        <ele>15.526</ele>
        <time>2021-06-11T17:15:30Z</time>
      </trkpt>
      <trkpt lat="36.999255" lon="-1.891927">
        <ele>15.508</ele>
        <time>2021-06-11T17:15:31Z</time>
      </trkpt>
      <trkpt lat="36.999218" lon="-1.891983">
        <ele>15.595</ele>
        <time>2021-06-11T17:15:32Z</time>
      </trkpt>
      <trkpt lat="36.999195" lon="-1.892039">
        <ele>15.523</ele>
        <time>2021-06-11T17:15:33Z</time>
      </trkpt>
      <trkpt lat="36.999177" lon="-1.892126">
        <ele>15.533</ele>
        <time>2021-06-11T17:15:35Z</time>
      </trkpt>
      <trkpt lat="36.999109" lon="-1.892131">
        <ele>15.541</ele>
        <time>2021-06-11T17:15:37Z</time>
      </trkpt>
      <trkpt lat="36.999044" lon="-1.892114">
        <ele>15.526</ele>
        <time>2021-06-11T17:15:39Z</time>
      </trkpt>
      <trkpt lat="36.998985" lon="-1.892139">
        <ele>15.687</ele>
        <time>2021-06-11T17:15:41Z</time>
      </trkpt>
      <trkpt lat="36.998939" lon="-1.892177">
        <ele>15.651</ele>
        <time>2021-06-11T17:15:42Z</time>
      </trkpt>
      <trkpt lat="36.998871" lon="-1.892243">
        <ele>15.684</ele>
        <time>2021-06-11T17:15:44Z</time>
      </trkpt>
      <trkpt lat="36.998817" lon="-1.892312">
        <ele>15.651</ele>
        <time>2021-06-11T17:15:46Z</time>
      </trkpt>
      <trkpt lat="36.99876" lon="-1.892378">
        <ele>15.601</ele>
        <time>2021-06-11T17:15:48Z</time>
      </trkpt>
      <trkpt lat="36.99871" lon="-1.892427">
        <ele>15.611</ele>
        <time>2021-06-11T17:15:50Z</time>
      </trkpt>
      <trkpt lat="36.99865" lon="-1.892469">
        <ele>15.608</ele>
        <time>2021-06-11T17:16:01Z</time>
      </trkpt>
      <trkpt lat="36.998591" lon="-1.892513">
        <ele>15.612</ele>
        <time>2021-06-11T17:16:03Z</time>
      </trkpt>
      <trkpt lat="36.998532" lon="-1.892572">
        <ele>15.620</ele>
        <time>2021-06-11T17:16:05Z</time>
      </trkpt>
      <trkpt lat="36.998458" lon="-1.892643">
        <ele>15.680</ele>
        <time>2021-06-11T17:16:07Z</time>
      </trkpt>
      <trkpt lat="36.998403" lon="-1.892679">
        <ele>15.648</ele>
        <time>2021-06-11T17:16:08Z</time>
      </trkpt>
      <trkpt lat="36.998301" lon="-1.892745">
        <ele>15.633</ele>
        <time>2021-06-11T17:16:10Z</time>
      </trkpt>
      <trkpt lat="36.99826" lon="-1.892786">
        <ele>15.664</ele>
        <time>2021-06-11T17:16:11Z</time>
      </trkpt>
      <trkpt lat="36.998183" lon="-1.892892">
        <ele>15.668</ele>
        <time>2021-06-11T17:16:13Z</time>
      </trkpt>
      <trkpt lat="36.99814" lon="-1.892946">
        <ele>15.611</ele>
        <time>2021-06-11T17:16:14Z</time>
      </trkpt>
      <trkpt lat="36.998097" lon="-1.893">
        <ele>15.695</ele>
        <time>2021-06-11T17:16:15Z</time>
      </trkpt>
      <trkpt lat="36.998014" lon="-1.893108">
        <ele>15.649</ele>
        <time>2021-06-11T17:16:17Z</time>
      </trkpt>
      <trkpt lat="36.997971" lon="-1.893164">
        <ele>15.623</ele>
        <time>2021-06-11T17:16:18Z</time>
      </trkpt>
      <trkpt lat="36.997931" lon="-1.893215">
        <ele>15.608</ele>
        <time>2021-06-11T17:16:19Z</time>
      </trkpt>
      <trkpt lat="36.997895" lon="-1.893263">
        <ele>15.666</ele>
        <time>2021-06-11T17:16:20Z</time>
      </trkpt>
      <trkpt lat="36.997861" lon="-1.893308">
        <ele>15.684</ele>
        <time>2021-06-11T17:16:21Z</time>
      </trkpt>
      <trkpt lat="36.997799" lon="-1.893413">
        <ele>15.674</ele>
        <time>2021-06-11T17:16:23Z</time>
      </trkpt>
      <trkpt lat="36.997768" lon="-1.893465">
        <ele>15.622</ele>
        <time>2021-06-11T17:16:24Z</time>
      </trkpt>
      <trkpt lat="36.997721" lon="-1.893534">
        <ele>15.667</ele>
        <time>2021-06-11T17:16:26Z</time>
      </trkpt>
      <trkpt lat="36.997689" lon="-1.893586">
        <ele>15.628</ele>
        <time>2021-06-11T17:16:29Z</time>
      </trkpt>
      <trkpt lat="36.997662" lon="-1.893634">
        <ele>15.852</ele>
        <time>2021-06-11T17:16:35Z</time>
      </trkpt>
      <trkpt lat="36.997637" lon="-1.893686">
        <ele>16.085</ele>
        <time>2021-06-11T17:16:38Z</time>
      </trkpt>
      <trkpt lat="36.997601" lon="-1.893744">
        <ele>16.158</ele>
        <time>2021-06-11T17:16:40Z</time>
      </trkpt>
      <trkpt lat="36.997545" lon="-1.893826">
        <ele>16.252</ele>
        <time>2021-06-11T17:16:42Z</time>
      </trkpt>
      <trkpt lat="36.997478" lon="-1.893915">
        <ele>16.317</ele>
        <time>2021-06-11T17:16:44Z</time>
      </trkpt>
      <trkpt lat="36.997417" lon="-1.893978">
        <ele>16.308</ele>
        <time>2021-06-11T17:16:46Z</time>
      </trkpt>
      <trkpt lat="36.997358" lon="-1.894051">
        <ele>16.372</ele>
        <time>2021-06-11T17:16:48Z</time>
      </trkpt>
      <trkpt lat="36.997315" lon="-1.894071">
        <ele>16.350</ele>
        <time>2021-06-11T17:16:49Z</time>
      </trkpt>
      <trkpt lat="36.997217" lon="-1.894111">
        <ele>16.390</ele>
        <time>2021-06-11T17:16:51Z</time>
      </trkpt>
      <trkpt lat="36.997113" lon="-1.894194">
        <ele>16.398</ele>
        <time>2021-06-11T17:16:53Z</time>
      </trkpt>
      <trkpt lat="36.997078" lon="-1.894241">
        <ele>16.313</ele>
        <time>2021-06-11T17:16:54Z</time>
      </trkpt>
      <trkpt lat="36.997042" lon="-1.894302">
        <ele>16.394</ele>
        <time>2021-06-11T17:16:55Z</time>
      </trkpt>
      <trkpt lat="36.996969" lon="-1.894384">
        <ele>16.328</ele>
        <time>2021-06-11T17:16:57Z</time>
      </trkpt>
      <trkpt lat="36.996932" lon="-1.894419">
        <ele>16.361</ele>
        <time>2021-06-11T17:16:58Z</time>
      </trkpt>
      <trkpt lat="36.99689" lon="-1.894518">
        <ele>16.379</ele>
        <time>2021-06-11T17:17:00Z</time>
      </trkpt>
      <trkpt lat="36.996899" lon="-1.894628">
        <ele>16.305</ele>
        <time>2021-06-11T17:17:02Z</time>
      </trkpt>
      <trkpt lat="36.996916" lon="-1.894721">
        <ele>16.325</ele>
        <time>2021-06-11T17:17:04Z</time>
      </trkpt>
      <trkpt lat="36.99691" lon="-1.894849">
        <ele>16.308</ele>
        <time>2021-06-11T17:17:06Z</time>
      </trkpt>
      <trkpt lat="36.99689" lon="-1.894906">
        <ele>16.394</ele>
        <time>2021-06-11T17:17:07Z</time>
      </trkpt>
      <trkpt lat="36.996829" lon="-1.894954">
        <ele>16.312</ele>
        <time>2021-06-11T17:17:09Z</time>
      </trkpt>
      <trkpt lat="36.996781" lon="-1.89495">
        <ele>16.392</ele>
        <time>2021-06-11T17:17:10Z</time>
      </trkpt>
      <trkpt lat="36.996692" lon="-1.894934">
        <ele>16.390</ele>
        <time>2021-06-11T17:17:12Z</time>
      </trkpt>
      <trkpt lat="36.996593" lon="-1.894891">
        <ele>16.345</ele>
        <time>2021-06-11T17:17:14Z</time>
      </trkpt>
      <trkpt lat="36.996511" lon="-1.89478">
        <ele>16.316</ele>
        <time>2021-06-11T17:17:16Z</time>
      </trkpt>
      <trkpt lat="36.996432" lon="-1.894707">
        <ele>16.350</ele>
        <time>2021-06-11T17:17:18Z</time>
      </trkpt>
      <trkpt lat="36.996378" lon="-1.894692">
        <ele>16.373</ele>
        <time>2021-06-11T17:17:20Z</time>
      </trkpt>
      <trkpt lat="36.996326" lon="-1.894737">
        <ele>16.311</ele>
        <time>2021-06-11T17:17:22Z</time>
      </trkpt>
      <trkpt lat="36.996308" lon="-1.894804">
        <ele>16.321</ele>
        <time>2021-06-11T17:17:25Z</time>
      </trkpt>
      <trkpt lat="36.99628" lon="-1.894894">
        <ele>16.303</ele>
        <time>2021-06-11T17:17:27Z</time>
      </trkpt>
      <trkpt lat="36.996238" lon="-1.895017">
        <ele>16.308</ele>
        <time>2021-06-11T17:17:28Z</time>
      </trkpt>
      <trkpt lat="36.996179" lon="-1.895173">
        <ele>16.368</ele>
        <time>2021-06-11T17:17:30Z</time>
      </trkpt>
      <trkpt lat="36.996158" lon="-1.895231">
        <ele>16.376</ele>
        <time>2021-06-11T17:17:31Z</time>
      </trkpt>
      <trkpt lat="36.996122" lon="-1.895323">
        <ele>16.376</ele>
        <time>2021-06-11T17:17:33Z</time>
      </trkpt>
      <trkpt lat="36.996102" lon="-1.895385">
        <ele>16.384</ele>
        <time>2021-06-11T17:17:36Z</time>
      </trkpt>
      <trkpt lat="36.996075" lon="-1.895456">
        <ele>16.359</ele>
        <time>2021-06-11T17:17:39Z</time>
      </trkpt>
      <trkpt lat="36.996028" lon="-1.895569">
        <ele>16.340</ele>
        <time>2021-06-11T17:17:41Z</time>
      </trkpt>
      <trkpt lat="36.995992" lon="-1.895645">
        <ele>16.344</ele>
        <time>2021-06-11T17:17:42Z</time>
      </trkpt>
      <trkpt lat="36.995868" lon="-1.895809">
        <ele>16.387</ele>
        <time>2021-06-11T17:17:44Z</time>
      </trkpt>
      <trkpt lat="36.99572" lon="-1.895961">
        <ele>16.367</ele>
        <time>2021-06-11T17:17:46Z</time>
      </trkpt>
      <trkpt lat="36.995604" lon="-1.89607">
        <ele>16.381</ele>
        <time>2021-06-11T17:17:48Z</time>
      </trkpt>
      <trkpt lat="36.995552" lon="-1.896117">
        <ele>16.319</ele>
        <time>2021-06-11T17:17:49Z</time>
      </trkpt>
      <trkpt lat="36.995452" lon="-1.896209">
        <ele>16.308</ele>
        <time>2021-06-11T17:17:51Z</time>
      </trkpt>
      <trkpt lat="36.995402" lon="-1.896255">
        <ele>16.313</ele>
        <time>2021-06-11T17:17:52Z</time>
      </trkpt>
      <trkpt lat="36.995349" lon="-1.896306">
        <ele>16.311</ele>
        <time>2021-06-11T17:17:53Z</time>
      </trkpt>
      <trkpt lat="36.995214" lon="-1.896427">
        <ele>16.311</ele>
        <time>2021-06-11T17:17:55Z</time>
      </trkpt>
      <trkpt lat="36.995069" lon="-1.896552">
        <ele>16.329</ele>
        <time>2021-06-11T17:17:57Z</time>
      </trkpt>
      <trkpt lat="36.994996" lon="-1.896615">
        <ele>16.314</ele>
        <time>2021-06-11T17:17:58Z</time>
      </trkpt>
      <trkpt lat="36.994858" lon="-1.896739">
        <ele>16.345</ele>
        <time>2021-06-11T17:18:00Z</time>
      </trkpt>
      <trkpt lat="36.99479" lon="-1.8968">
        <ele>16.359</ele>
        <time>2021-06-11T17:18:01Z</time>
      </trkpt>
      <trkpt lat="36.99468" lon="-1.896904">
        <ele>16.332</ele>
        <time>2021-06-11T17:18:03Z</time>
      </trkpt>
      <trkpt lat="36.994556" lon="-1.89702">
        <ele>16.376</ele>
        <time>2021-06-11T17:18:05Z</time>
      </trkpt>
      <trkpt lat="36.994492" lon="-1.897065">
        <ele>16.390</ele>
        <time>2021-06-11T17:18:06Z</time>
      </trkpt>
      <trkpt lat="36.994366" lon="-1.897177">
        <ele>15.919</ele>
        <time>2021-06-11T17:18:08Z</time>
      </trkpt>
      <trkpt lat="36.994241" lon="-1.897282">
        <ele>15.108</ele>
        <time>2021-06-11T17:18:10Z</time>
      </trkpt>
      <trkpt lat="36.994118" lon="-1.897377">
        <ele>14.834</ele>
        <time>2021-06-11T17:18:12Z</time>
      </trkpt>
      <trkpt lat="36.99397" lon="-1.897507">
        <ele>14.972</ele>
        <time>2021-06-11T17:18:14Z</time>
      </trkpt>
      <trkpt lat="36.993885" lon="-1.897583">
        <ele>14.452</ele>
        <time>2021-06-11T17:18:15Z</time>
      </trkpt>
      <trkpt lat="36.993813" lon="-1.897649">
        <ele>14.250</ele>
        <time>2021-06-11T17:18:16Z</time>
      </trkpt>
      <trkpt lat="36.993737" lon="-1.897719">
        <ele>14.055</ele>
        <time>2021-06-11T17:18:17Z</time>
      </trkpt>
      <trkpt lat="36.993659" lon="-1.897796">
        <ele>13.816</ele>
        <time>2021-06-11T17:18:18Z</time>
      </trkpt>
      <trkpt lat="36.993508" lon="-1.897957">
        <ele>13.840</ele>
        <time>2021-06-11T17:18:20Z</time>
      </trkpt>
      <trkpt lat="36.993358" lon="-1.898119">
        <ele>13.933</ele>
        <time>2021-06-11T17:18:22Z</time>
      </trkpt>
      <trkpt lat="36.99324" lon="-1.898259">
        <ele>14.031</ele>
        <time>2021-06-11T17:18:24Z</time>
      </trkpt>
      <trkpt lat="36.993181" lon="-1.898333">
        <ele>14.061</ele>
        <time>2021-06-11T17:18:25Z</time>
      </trkpt>
      <trkpt lat="36.99313" lon="-1.898392">
        <ele>13.807</ele>
        <time>2021-06-11T17:18:26Z</time>
      </trkpt>
      <trkpt lat="36.993049" lon="-1.898489">
        <ele>13.508</ele>
        <time>2021-06-11T17:18:28Z</time>
      </trkpt>
      <trkpt lat="36.993014" lon="-1.898529">
        <ele>13.050</ele>
        <time>2021-06-11T17:18:29Z</time>
      </trkpt>
      <trkpt lat="36.992945" lon="-1.898606">
        <ele>12.788</ele>
        <time>2021-06-11T17:18:31Z</time>
      </trkpt>
      <trkpt lat="36.992856" lon="-1.898706">
        <ele>12.948</ele>
        <time>2021-06-11T17:18:33Z</time>
      </trkpt>
      <trkpt lat="36.992769" lon="-1.898808">
        <ele>12.626</ele>
        <time>2021-06-11T17:18:35Z</time>
      </trkpt>
      <trkpt lat="36.992681" lon="-1.898948">
        <ele>12.991</ele>
        <time>2021-06-11T17:18:37Z</time>
      </trkpt>
      <trkpt lat="36.992639" lon="-1.899112">
        <ele>13.192</ele>
        <time>2021-06-11T17:18:39Z</time>
      </trkpt>
      <trkpt lat="36.992604" lon="-1.899183">
        <ele>13.256</ele>
        <time>2021-06-11T17:18:40Z</time>
      </trkpt>
      <trkpt lat="36.992472" lon="-1.899242">
        <ele>13.519</ele>
        <time>2021-06-11T17:18:42Z</time>
      </trkpt>
      <trkpt lat="36.992399" lon="-1.89925">
        <ele>13.455</ele>
        <time>2021-06-11T17:18:43Z</time>
      </trkpt>
      <trkpt lat="36.992328" lon="-1.899273">
        <ele>13.407</ele>
        <time>2021-06-11T17:18:44Z</time>
      </trkpt>
      <trkpt lat="36.992264" lon="-1.899304">
        <ele>13.417</ele>
        <time>2021-06-11T17:18:45Z</time>
      </trkpt>
      <trkpt lat="36.992165" lon="-1.899376">
        <ele>13.208</ele>
        <time>2021-06-11T17:18:47Z</time>
      </trkpt>
      <trkpt lat="36.992086" lon="-1.899441">
        <ele>12.912</ele>
        <time>2021-06-11T17:18:49Z</time>
      </trkpt>
      <trkpt lat="36.992047" lon="-1.89947">
        <ele>12.710</ele>
        <time>2021-06-11T17:18:50Z</time>
      </trkpt>
      <trkpt lat="36.992002" lon="-1.899504">
        <ele>12.660</ele>
        <time>2021-06-11T17:18:51Z</time>
      </trkpt>
      <trkpt lat="36.991913" lon="-1.899569">
        <ele>12.838</ele>
        <time>2021-06-11T17:18:53Z</time>
      </trkpt>
      <trkpt lat="36.991808" lon="-1.899641">
        <ele>12.713</ele>
        <time>2021-06-11T17:18:55Z</time>
      </trkpt>
      <trkpt lat="36.991745" lon="-1.89968">
        <ele>12.494</ele>
        <time>2021-06-11T17:18:56Z</time>
      </trkpt>
      <trkpt lat="36.991672" lon="-1.899721">
        <ele>12.628</ele>
        <time>2021-06-11T17:18:57Z</time>
      </trkpt>
      <trkpt lat="36.991593" lon="-1.899766">
        <ele>12.911</ele>
        <time>2021-06-11T17:18:58Z</time>
      </trkpt>
      <trkpt lat="36.991442" lon="-1.899878">
        <ele>13.392</ele>
        <time>2021-06-11T17:19:00Z</time>
      </trkpt>
      <trkpt lat="36.991347" lon="-1.899938">
        <ele>13.973</ele>
        <time>2021-06-11T17:19:01Z</time>
      </trkpt>
      <trkpt lat="36.991268" lon="-1.89999">
        <ele>14.020</ele>
        <time>2021-06-11T17:19:02Z</time>
      </trkpt>
      <trkpt lat="36.991111" lon="-1.900086">
        <ele>14.408</ele>
        <time>2021-06-11T17:19:04Z</time>
      </trkpt>
      <trkpt lat="36.991025" lon="-1.90014">
        <ele>14.646</ele>
        <time>2021-06-11T17:19:05Z</time>
      </trkpt>
      <trkpt lat="36.990936" lon="-1.900194">
        <ele>14.984</ele>
        <time>2021-06-11T17:19:06Z</time>
      </trkpt>
      <trkpt lat="36.990812" lon="-1.900272">
        <ele>14.864</ele>
        <time>2021-06-11T17:19:08Z</time>
      </trkpt>
      <trkpt lat="36.990696" lon="-1.900344">
        <ele>14.692</ele>
        <time>2021-06-11T17:19:10Z</time>
      </trkpt>
      <trkpt lat="36.990646" lon="-1.900372">
        <ele>14.537</ele>
        <time>2021-06-11T17:19:11Z</time>
      </trkpt>
      <trkpt lat="36.990585" lon="-1.900417">
        <ele>14.118</ele>
        <time>2021-06-11T17:19:13Z</time>
      </trkpt>
      <trkpt lat="36.990492" lon="-1.900468">
        <ele>13.892</ele>
        <time>2021-06-11T17:19:15Z</time>
      </trkpt>
      <trkpt lat="36.990367" lon="-1.900539">
        <ele>13.425</ele>
        <time>2021-06-11T17:19:17Z</time>
      </trkpt>
      <trkpt lat="36.990248" lon="-1.900617">
        <ele>13.276</ele>
        <time>2021-06-11T17:19:19Z</time>
      </trkpt>
      <trkpt lat="36.990188" lon="-1.900651">
        <ele>13.490</ele>
        <time>2021-06-11T17:19:20Z</time>
      </trkpt>
      <trkpt lat="36.990125" lon="-1.900681">
        <ele>13.519</ele>
        <time>2021-06-11T17:19:21Z</time>
      </trkpt>
      <trkpt lat="36.990061" lon="-1.900705">
        <ele>13.408</ele>
        <time>2021-06-11T17:19:22Z</time>
      </trkpt>
      <trkpt lat="36.989924" lon="-1.900769">
        <ele>13.374</ele>
        <time>2021-06-11T17:19:24Z</time>
      </trkpt>
      <trkpt lat="36.989854" lon="-1.900812">
        <ele>13.262</ele>
        <time>2021-06-11T17:19:25Z</time>
      </trkpt>
      <trkpt lat="36.989721" lon="-1.900881">
        <ele>13.082</ele>
        <time>2021-06-11T17:19:27Z</time>
      </trkpt>
      <trkpt lat="36.989628" lon="-1.900933">
        <ele>12.920</ele>
        <time>2021-06-11T17:19:29Z</time>
      </trkpt>
      <trkpt lat="36.989541" lon="-1.900979">
        <ele>13.215</ele>
        <time>2021-06-11T17:19:31Z</time>
      </trkpt>
      <trkpt lat="36.989421" lon="-1.901045">
        <ele>13.436</ele>
        <time>2021-06-11T17:19:33Z</time>
      </trkpt>
      <trkpt lat="36.989284" lon="-1.90112">
        <ele>13.680</ele>
        <time>2021-06-11T17:19:35Z</time>
      </trkpt>
      <trkpt lat="36.989218" lon="-1.901156">
        <ele>13.863</ele>
        <time>2021-06-11T17:19:36Z</time>
      </trkpt>
      <trkpt lat="36.989157" lon="-1.901188">
        <ele>13.912</ele>
        <time>2021-06-11T17:19:37Z</time>
      </trkpt>
      <trkpt lat="36.989102" lon="-1.901216">
        <ele>13.832</ele>
        <time>2021-06-11T17:19:38Z</time>
      </trkpt>
      <trkpt lat="36.988998" lon="-1.901263">
        <ele>14.005</ele>
        <time>2021-06-11T17:19:40Z</time>
      </trkpt>
      <trkpt lat="36.988934" lon="-1.901289">
        <ele>14.108</ele>
        <time>2021-06-11T17:19:41Z</time>
      </trkpt>
      <trkpt lat="36.988864" lon="-1.901318">
        <ele>14.178</ele>
        <time>2021-06-11T17:19:42Z</time>
      </trkpt>
      <trkpt lat="36.98872" lon="-1.901383">
        <ele>14.076</ele>
        <time>2021-06-11T17:19:44Z</time>
      </trkpt>
      <trkpt lat="36.988648" lon="-1.901413">
        <ele>14.166</ele>
        <time>2021-06-11T17:19:45Z</time>
      </trkpt>
      <trkpt lat="36.988585" lon="-1.901444">
        <ele>14.254</ele>
        <time>2021-06-11T17:19:46Z</time>
      </trkpt>
      <trkpt lat="36.988526" lon="-1.901471">
        <ele>14.529</ele>
        <time>2021-06-11T17:19:47Z</time>
      </trkpt>
      <trkpt lat="36.988463" lon="-1.901493">
        <ele>14.770</ele>
        <time>2021-06-11T17:19:48Z</time>
      </trkpt>
      <trkpt lat="36.988365" lon="-1.901528">
        <ele>15.094</ele>
        <time>2021-06-11T17:19:50Z</time>
      </trkpt>
      <trkpt lat="36.98825" lon="-1.901567">
        <ele>15.067</ele>
        <time>2021-06-11T17:19:52Z</time>
      </trkpt>
      <trkpt lat="36.988091" lon="-1.901631">
        <ele>15.247</ele>
        <time>2021-06-11T17:19:54Z</time>
      </trkpt>
      <trkpt lat="36.987943" lon="-1.901701">
        <ele>15.429</ele>
        <time>2021-06-11T17:19:56Z</time>
      </trkpt>
      <trkpt lat="36.987797" lon="-1.901763">
        <ele>15.921</ele>
        <time>2021-06-11T17:19:58Z</time>
      </trkpt>
      <trkpt lat="36.987645" lon="-1.901825">
        <ele>16.208</ele>
        <time>2021-06-11T17:20:00Z</time>
      </trkpt>
      <trkpt lat="36.987565" lon="-1.901859">
        <ele>16.441</ele>
        <time>2021-06-11T17:20:01Z</time>
      </trkpt>
      <trkpt lat="36.987457" lon="-1.901914">
        <ele>16.579</ele>
        <time>2021-06-11T17:20:03Z</time>
      </trkpt>
      <trkpt lat="36.987397" lon="-1.901942">
        <ele>16.589</ele>
        <time>2021-06-11T17:20:04Z</time>
      </trkpt>
      <trkpt lat="36.987296" lon="-1.901997">
        <ele>16.267</ele>
        <time>2021-06-11T17:20:06Z</time>
      </trkpt>
      <trkpt lat="36.987194" lon="-1.902019">
        <ele>16.232</ele>
        <time>2021-06-11T17:20:08Z</time>
      </trkpt>
      <trkpt lat="36.987074" lon="-1.902051">
        <ele>16.393</ele>
        <time>2021-06-11T17:20:10Z</time>
      </trkpt>
      <trkpt lat="36.986919" lon="-1.90209">
        <ele>16.817</ele>
        <time>2021-06-11T17:20:12Z</time>
      </trkpt>
      <trkpt lat="36.986747" lon="-1.902149">
        <ele>17.040</ele>
        <time>2021-06-11T17:20:14Z</time>
      </trkpt>
      <trkpt lat="36.986568" lon="-1.902218">
        <ele>17.159</ele>
        <time>2021-06-11T17:20:16Z</time>
      </trkpt>
      <trkpt lat="36.98648" lon="-1.902251">
        <ele>17.203</ele>
        <time>2021-06-11T17:20:17Z</time>
      </trkpt>
      <trkpt lat="36.986315" lon="-1.902311">
        <ele>17.523</ele>
        <time>2021-06-11T17:20:19Z</time>
      </trkpt>
      <trkpt lat="36.98621" lon="-1.902345">
        <ele>17.708</ele>
        <time>2021-06-11T17:20:20Z</time>
      </trkpt>
      <trkpt lat="36.986118" lon="-1.90237">
        <ele>17.882</ele>
        <time>2021-06-11T17:20:21Z</time>
      </trkpt>
      <trkpt lat="36.985948" lon="-1.902411">
        <ele>18.050</ele>
        <time>2021-06-11T17:20:23Z</time>
      </trkpt>
      <trkpt lat="36.9858" lon="-1.902444">
        <ele>18.170</ele>
        <time>2021-06-11T17:20:25Z</time>
      </trkpt>
      <trkpt lat="36.985702" lon="-1.902462">
        <ele>18.258</ele>
        <time>2021-06-11T17:20:26Z</time>
      </trkpt>
      <trkpt lat="36.985522" lon="-1.902488">
        <ele>18.553</ele>
        <time>2021-06-11T17:20:28Z</time>
      </trkpt>
      <trkpt lat="36.985336" lon="-1.902513">
        <ele>18.824</ele>
        <time>2021-06-11T17:20:30Z</time>
      </trkpt>
      <trkpt lat="36.985219" lon="-1.902522">
        <ele>19.118</ele>
        <time>2021-06-11T17:20:31Z</time>
      </trkpt>
      <trkpt lat="36.985117" lon="-1.902532">
        <ele>19.451</ele>
        <time>2021-06-11T17:20:32Z</time>
      </trkpt>
      <trkpt lat="36.984903" lon="-1.902557">
        <ele>19.595</ele>
        <time>2021-06-11T17:20:34Z</time>
      </trkpt>
      <trkpt lat="36.984677" lon="-1.902571">
        <ele>19.649</ele>
        <time>2021-06-11T17:20:36Z</time>
      </trkpt>
      <trkpt lat="36.984422" lon="-1.902565">
        <ele>19.223</ele>
        <time>2021-06-11T17:20:38Z</time>
      </trkpt>
      <trkpt lat="36.984295" lon="-1.902561">
        <ele>19.008</ele>
        <time>2021-06-11T17:20:39Z</time>
      </trkpt>
      <trkpt lat="36.98403" lon="-1.902565">
        <ele>18.756</ele>
        <time>2021-06-11T17:20:41Z</time>
      </trkpt>
      <trkpt lat="36.983763" lon="-1.902582">
        <ele>18.424</ele>
        <time>2021-06-11T17:20:43Z</time>
      </trkpt>
      <trkpt lat="36.98351" lon="-1.902607">
        <ele>18.694</ele>
        <time>2021-06-11T17:20:45Z</time>
      </trkpt>
      <trkpt lat="36.983265" lon="-1.902619">
        <ele>18.432</ele>
        <time>2021-06-11T17:20:47Z</time>
      </trkpt>
      <trkpt lat="36.983144" lon="-1.902622">
        <ele>18.037</ele>
        <time>2021-06-11T17:20:48Z</time>
      </trkpt>
      <trkpt lat="36.982897" lon="-1.902632">
        <ele>17.268</ele>
        <time>2021-06-11T17:20:50Z</time>
      </trkpt>
      <trkpt lat="36.982641" lon="-1.902647">
        <ele>17.092</ele>
        <time>2021-06-11T17:20:52Z</time>
      </trkpt>
      <trkpt lat="36.982387" lon="-1.902655">
        <ele>16.745</ele>
        <time>2021-06-11T17:20:54Z</time>
      </trkpt>
      <trkpt lat="36.982125" lon="-1.902666">
        <ele>16.778</ele>
        <time>2021-06-11T17:20:56Z</time>
      </trkpt>
      <trkpt lat="36.981852" lon="-1.902672">
        <ele>16.533</ele>
        <time>2021-06-11T17:20:58Z</time>
      </trkpt>
      <trkpt lat="36.98157" lon="-1.90266">
        <ele>16.126</ele>
        <time>2021-06-11T17:21:00Z</time>
      </trkpt>
      <trkpt lat="36.981393" lon="-1.902648">
        <ele>15.808</ele>
        <time>2021-06-11T17:21:01Z</time>
      </trkpt>
      <trkpt lat="36.981088" lon="-1.902633">
        <ele>15.474</ele>
        <time>2021-06-11T17:21:03Z</time>
      </trkpt>
      <trkpt lat="36.980803" lon="-1.902608">
        <ele>15.222</ele>
        <time>2021-06-11T17:21:05Z</time>
      </trkpt>
      <trkpt lat="36.980631" lon="-1.902589">
        <ele>14.922</ele>
        <time>2021-06-11T17:21:06Z</time>
      </trkpt>
      <trkpt lat="36.980344" lon="-1.902555">
        <ele>14.750</ele>
        <time>2021-06-11T17:21:08Z</time>
      </trkpt>
      <trkpt lat="36.980049" lon="-1.902526">
        <ele>14.595</ele>
        <time>2021-06-11T17:21:10Z</time>
      </trkpt>
      <trkpt lat="36.979745" lon="-1.902503">
        <ele>14.486</ele>
        <time>2021-06-11T17:21:12Z</time>
      </trkpt>
      <trkpt lat="36.979452" lon="-1.902483">
        <ele>14.560</ele>
        <time>2021-06-11T17:21:14Z</time>
      </trkpt>
      <trkpt lat="36.979155" lon="-1.902443">
        <ele>14.633</ele>
        <time>2021-06-11T17:21:16Z</time>
      </trkpt>
      <trkpt lat="36.978876" lon="-1.90241">
        <ele>14.747</ele>
        <time>2021-06-11T17:21:18Z</time>
      </trkpt>
      <trkpt lat="36.978713" lon="-1.902396">
        <ele>15.029</ele>
        <time>2021-06-11T17:21:19Z</time>
      </trkpt>
      <trkpt lat="36.978423" lon="-1.902376">
        <ele>15.221</ele>
        <time>2021-06-11T17:21:21Z</time>
      </trkpt>
      <trkpt lat="36.978155" lon="-1.90236">
        <ele>15.308</ele>
        <time>2021-06-11T17:21:23Z</time>
      </trkpt>
      <trkpt lat="36.97802" lon="-1.902348">
        <ele>15.761</ele>
        <time>2021-06-11T17:21:24Z</time>
      </trkpt>
      <trkpt lat="36.977752" lon="-1.902321">
        <ele>16.229</ele>
        <time>2021-06-11T17:21:26Z</time>
      </trkpt>
      <trkpt lat="36.977617" lon="-1.90231">
        <ele>16.459</ele>
        <time>2021-06-11T17:21:27Z</time>
      </trkpt>
      <trkpt lat="36.97737" lon="-1.902293">
        <ele>16.067</ele>
        <time>2021-06-11T17:21:29Z</time>
      </trkpt>
      <trkpt lat="36.977225" lon="-1.902281">
        <ele>15.872</ele>
        <time>2021-06-11T17:21:30Z</time>
      </trkpt>
      <trkpt lat="36.97695" lon="-1.902258">
        <ele>15.253</ele>
        <time>2021-06-11T17:21:32Z</time>
      </trkpt>
      <trkpt lat="36.976813" lon="-1.902247">
        <ele>15.117</ele>
        <time>2021-06-11T17:21:33Z</time>
      </trkpt>
      <trkpt lat="36.976533" lon="-1.902217">
        <ele>14.850</ele>
        <time>2021-06-11T17:21:35Z</time>
      </trkpt>
      <trkpt lat="36.976246" lon="-1.902187">
        <ele>14.559</ele>
        <time>2021-06-11T17:21:37Z</time>
      </trkpt>
      <trkpt lat="36.976101" lon="-1.902171">
        <ele>14.203</ele>
        <time>2021-06-11T17:21:38Z</time>
      </trkpt>
      <trkpt lat="36.97594" lon="-1.902155">
        <ele>13.723</ele>
        <time>2021-06-11T17:21:39Z</time>
      </trkpt>
      <trkpt lat="36.975803" lon="-1.902144">
        <ele>14.008</ele>
        <time>2021-06-11T17:21:40Z</time>
      </trkpt>
      <trkpt lat="36.975512" lon="-1.902123">
        <ele>14.132</ele>
        <time>2021-06-11T17:21:42Z</time>
      </trkpt>
      <trkpt lat="36.975361" lon="-1.902108">
        <ele>14.480</ele>
        <time>2021-06-11T17:21:43Z</time>
      </trkpt>
      <trkpt lat="36.975067" lon="-1.902083">
        <ele>14.730</ele>
        <time>2021-06-11T17:21:45Z</time>
      </trkpt>
      <trkpt lat="36.974903" lon="-1.902077">
        <ele>15.248</ele>
        <time>2021-06-11T17:21:46Z</time>
      </trkpt>
      <trkpt lat="36.974601" lon="-1.902061">
        <ele>15.553</ele>
        <time>2021-06-11T17:21:48Z</time>
      </trkpt>
      <trkpt lat="36.974456" lon="-1.902052">
        <ele>15.544</ele>
        <time>2021-06-11T17:21:49Z</time>
      </trkpt>
      <trkpt lat="36.974149" lon="-1.902021">
        <ele>15.378</ele>
        <time>2021-06-11T17:21:51Z</time>
      </trkpt>
      <trkpt lat="36.973837" lon="-1.901986">
        <ele>15.471</ele>
        <time>2021-06-11T17:21:53Z</time>
      </trkpt>
      <trkpt lat="36.973517" lon="-1.901956">
        <ele>15.677</ele>
        <time>2021-06-11T17:21:55Z</time>
      </trkpt>
      <trkpt lat="36.973186" lon="-1.901945">
        <ele>15.761</ele>
        <time>2021-06-11T17:21:57Z</time>
      </trkpt>
      <trkpt lat="36.972874" lon="-1.90195">
        <ele>15.827</ele>
        <time>2021-06-11T17:21:59Z</time>
      </trkpt>
      <trkpt lat="36.972574" lon="-1.901964">
        <ele>15.808</ele>
        <time>2021-06-11T17:22:01Z</time>
      </trkpt>
      <trkpt lat="36.972404" lon="-1.901976">
        <ele>15.774</ele>
        <time>2021-06-11T17:22:02Z</time>
      </trkpt>
      <trkpt lat="36.972271" lon="-1.901989">
        <ele>15.652</ele>
        <time>2021-06-11T17:22:03Z</time>
      </trkpt>
      <trkpt lat="36.972028" lon="-1.902023">
        <ele>15.272</ele>
        <time>2021-06-11T17:22:05Z</time>
      </trkpt>
      <trkpt lat="36.971887" lon="-1.902042">
        <ele>15.480</ele>
        <time>2021-06-11T17:22:06Z</time>
      </trkpt>
      <trkpt lat="36.971777" lon="-1.90206">
        <ele>15.155</ele>
        <time>2021-06-11T17:22:07Z</time>
      </trkpt>
      <trkpt lat="36.971576" lon="-1.902098">
        <ele>15.276</ele>
        <time>2021-06-11T17:22:09Z</time>
      </trkpt>
      <trkpt lat="36.971381" lon="-1.902173">
        <ele>15.290</ele>
        <time>2021-06-11T17:22:11Z</time>
      </trkpt>
      <trkpt lat="36.971247" lon="-1.902151">
        <ele>14.883</ele>
        <time>2021-06-11T17:22:13Z</time>
      </trkpt>
      <trkpt lat="36.971127" lon="-1.902001">
        <ele>15.057</ele>
        <time>2021-06-11T17:22:15Z</time>
      </trkpt>
      <trkpt lat="36.971056" lon="-1.901948">
        <ele>14.800</ele>
        <time>2021-06-11T17:22:16Z</time>
      </trkpt>
      <trkpt lat="36.970856" lon="-1.901914">
        <ele>14.820</ele>
        <time>2021-06-11T17:22:18Z</time>
      </trkpt>
      <trkpt lat="36.97062" lon="-1.901914">
        <ele>15.208</ele>
        <time>2021-06-11T17:22:20Z</time>
      </trkpt>
      <trkpt lat="36.970364" lon="-1.901899">
        <ele>15.562</ele>
        <time>2021-06-11T17:22:22Z</time>
      </trkpt>
      <trkpt lat="36.970233" lon="-1.901881">
        <ele>15.440</ele>
        <time>2021-06-11T17:22:23Z</time>
      </trkpt>
      <trkpt lat="36.970101" lon="-1.901858">
        <ele>15.390</ele>
        <time>2021-06-11T17:22:24Z</time>
      </trkpt>
      <trkpt lat="36.969836" lon="-1.901799">
        <ele>14.918</ele>
        <time>2021-06-11T17:22:26Z</time>
      </trkpt>
      <trkpt lat="36.969701" lon="-1.901758">
        <ele>14.853</ele>
        <time>2021-06-11T17:22:27Z</time>
      </trkpt>
      <trkpt lat="36.969565" lon="-1.901716">
        <ele>14.934</ele>
        <time>2021-06-11T17:22:28Z</time>
      </trkpt>
      <trkpt lat="36.969304" lon="-1.901635">
        <ele>14.938</ele>
        <time>2021-06-11T17:22:30Z</time>
      </trkpt>
      <trkpt lat="36.969001" lon="-1.901548">
        <ele>15.351</ele>
        <time>2021-06-11T17:22:32Z</time>
      </trkpt>
      <trkpt lat="36.968867" lon="-1.901508">
        <ele>15.322</ele>
        <time>2021-06-11T17:22:33Z</time>
      </trkpt>
      <trkpt lat="36.968598" lon="-1.901436">
        <ele>15.262</ele>
        <time>2021-06-11T17:22:35Z</time>
      </trkpt>
      <trkpt lat="36.968331" lon="-1.901376">
        <ele>15.308</ele>
        <time>2021-06-11T17:22:37Z</time>
      </trkpt>
      <trkpt lat="36.968203" lon="-1.901353">
        <ele>15.408</ele>
        <time>2021-06-11T17:22:38Z</time>
      </trkpt>
      <trkpt lat="36.967942" lon="-1.901332">
        <ele>15.339</ele>
        <time>2021-06-11T17:22:40Z</time>
      </trkpt>
      <trkpt lat="36.967784" lon="-1.901339">
        <ele>15.397</ele>
        <time>2021-06-11T17:22:41Z</time>
      </trkpt>
      <trkpt lat="36.967643" lon="-1.901359">
        <ele>15.447</ele>
        <time>2021-06-11T17:22:42Z</time>
      </trkpt>
      <trkpt lat="36.967347" lon="-1.901398">
        <ele>15.265</ele>
        <time>2021-06-11T17:22:44Z</time>
      </trkpt>
      <trkpt lat="36.967046" lon="-1.901437">
        <ele>14.960</ele>
        <time>2021-06-11T17:22:46Z</time>
      </trkpt>
      <trkpt lat="36.966897" lon="-1.901455">
        <ele>14.531</ele>
        <time>2021-06-11T17:22:47Z</time>
      </trkpt>
      <trkpt lat="36.966607" lon="-1.901492">
        <ele>14.175</ele>
        <time>2021-06-11T17:22:49Z</time>
      </trkpt>
      <trkpt lat="36.966297" lon="-1.901535">
        <ele>14.138</ele>
        <time>2021-06-11T17:22:51Z</time>
      </trkpt>
      <trkpt lat="36.966017" lon="-1.901579">
        <ele>13.929</ele>
        <time>2021-06-11T17:22:53Z</time>
      </trkpt>
      <trkpt lat="36.965724" lon="-1.901619">
        <ele>14.100</ele>
        <time>2021-06-11T17:22:55Z</time>
      </trkpt>
      <trkpt lat="36.965417" lon="-1.901658">
        <ele>14.220</ele>
        <time>2021-06-11T17:22:57Z</time>
      </trkpt>
      <trkpt lat="36.965102" lon="-1.901696">
        <ele>14.408</ele>
        <time>2021-06-11T17:22:59Z</time>
      </trkpt>
      <trkpt lat="36.96478" lon="-1.901732">
        <ele>14.689</ele>
        <time>2021-06-11T17:23:01Z</time>
      </trkpt>
      <trkpt lat="36.964578" lon="-1.901749">
        <ele>14.717</ele>
        <time>2021-06-11T17:23:02Z</time>
      </trkpt>
      <trkpt lat="36.964231" lon="-1.901784">
        <ele>14.817</ele>
        <time>2021-06-11T17:23:04Z</time>
      </trkpt>
      <trkpt lat="36.963833" lon="-1.901948">
        <ele>14.715</ele>
        <time>2021-06-11T17:23:06Z</time>
      </trkpt>
      <trkpt lat="36.963488" lon="-1.902201">
        <ele>15.050</ele>
        <time>2021-06-11T17:23:08Z</time>
      </trkpt>
      <trkpt lat="36.963319" lon="-1.902335">
        <ele>15.211</ele>
        <time>2021-06-11T17:23:09Z</time>
      </trkpt>
      <trkpt lat="36.962963" lon="-1.902627">
        <ele>15.425</ele>
        <time>2021-06-11T17:23:11Z</time>
      </trkpt>
      <trkpt lat="36.962599" lon="-1.902921">
        <ele>15.998</ele>
        <time>2021-06-11T17:23:13Z</time>
      </trkpt>
      <trkpt lat="36.962242" lon="-1.903198">
        <ele>16.284</ele>
        <time>2021-06-11T17:23:15Z</time>
      </trkpt>
      <trkpt lat="36.962061" lon="-1.903342">
        <ele>16.607</ele>
        <time>2021-06-11T17:23:16Z</time>
      </trkpt>
      <trkpt lat="36.961694" lon="-1.903625">
        <ele>16.817</ele>
        <time>2021-06-11T17:23:18Z</time>
      </trkpt>
      <trkpt lat="36.961342" lon="-1.903878">
        <ele>18.708</ele>
        <time>2021-06-11T17:23:20Z</time>
      </trkpt>
      <trkpt lat="36.960972" lon="-1.904083">
        <ele>20.995</ele>
        <time>2021-06-11T17:23:22Z</time>
      </trkpt>
      <trkpt lat="36.960575" lon="-1.904195">
        <ele>23.673</ele>
        <time>2021-06-11T17:23:24Z</time>
      </trkpt>
      <trkpt lat="36.96015" lon="-1.904239">
        <ele>26.763</ele>
        <time>2021-06-11T17:23:26Z</time>
      </trkpt>
      <trkpt lat="36.959725" lon="-1.904277">
        <ele>29.861</ele>
        <time>2021-06-11T17:23:28Z</time>
      </trkpt>
      <trkpt lat="36.959513" lon="-1.904301">
        <ele>32.346</ele>
        <time>2021-06-11T17:23:29Z</time>
      </trkpt>
      <trkpt lat="36.959126" lon="-1.90436">
        <ele>34.637</ele>
        <time>2021-06-11T17:23:31Z</time>
      </trkpt>
      <trkpt lat="36.958905" lon="-1.904393">
        <ele>36.311</ele>
        <time>2021-06-11T17:23:32Z</time>
      </trkpt>
      <trkpt lat="36.958711" lon="-1.904419">
        <ele>38.664</ele>
        <time>2021-06-11T17:23:33Z</time>
      </trkpt>
      <trkpt lat="36.958526" lon="-1.90444">
        <ele>40.719</ele>
        <time>2021-06-11T17:23:34Z</time>
      </trkpt>
      <trkpt lat="36.958153" lon="-1.904439">
        <ele>43.209</ele>
        <time>2021-06-11T17:23:36Z</time>
      </trkpt>
      <trkpt lat="36.957794" lon="-1.90434">
        <ele>45.919</ele>
        <time>2021-06-11T17:23:38Z</time>
      </trkpt>
      <trkpt lat="36.957439" lon="-1.904155">
        <ele>48.408</ele>
        <time>2021-06-11T17:23:40Z</time>
      </trkpt>
      <trkpt lat="36.957129" lon="-1.903972">
        <ele>50.848</ele>
        <time>2021-06-11T17:23:42Z</time>
      </trkpt>
      <trkpt lat="36.956962" lon="-1.903877">
        <ele>52.786</ele>
        <time>2021-06-11T17:23:43Z</time>
      </trkpt>
      <trkpt lat="36.956805" lon="-1.903788">
        <ele>54.046</ele>
        <time>2021-06-11T17:23:44Z</time>
      </trkpt>
      <trkpt lat="36.956648" lon="-1.903703">
        <ele>55.364</ele>
        <time>2021-06-11T17:23:45Z</time>
      </trkpt>
      <trkpt lat="36.956339" lon="-1.903572">
        <ele>56.919</ele>
        <time>2021-06-11T17:23:47Z</time>
      </trkpt>
      <trkpt lat="36.956183" lon="-1.903541">
        <ele>58.460</ele>
        <time>2021-06-11T17:23:48Z</time>
      </trkpt>
      <trkpt lat="36.955888" lon="-1.903543">
        <ele>60.014</ele>
        <time>2021-06-11T17:23:50Z</time>
      </trkpt>
      <trkpt lat="36.955753" lon="-1.903583">
        <ele>61.427</ele>
        <time>2021-06-11T17:23:51Z</time>
      </trkpt>
      <trkpt lat="36.955624" lon="-1.903653">
        <ele>62.417</ele>
        <time>2021-06-11T17:23:52Z</time>
      </trkpt>
      <trkpt lat="36.955382" lon="-1.903862">
        <ele>63.587</ele>
        <time>2021-06-11T17:23:54Z</time>
      </trkpt>
      <trkpt lat="36.955271" lon="-1.903974">
        <ele>64.715</ele>
        <time>2021-06-11T17:23:55Z</time>
      </trkpt>
      <trkpt lat="36.955044" lon="-1.9042">
        <ele>66.108</ele>
        <time>2021-06-11T17:23:57Z</time>
      </trkpt>
      <trkpt lat="36.954921" lon="-1.904302">
        <ele>66.898</ele>
        <time>2021-06-11T17:23:58Z</time>
      </trkpt>
      <trkpt lat="36.954634" lon="-1.904434">
        <ele>68.396</ele>
        <time>2021-06-11T17:24:00Z</time>
      </trkpt>
      <trkpt lat="36.954352" lon="-1.904494">
        <ele>69.866</ele>
        <time>2021-06-11T17:24:02Z</time>
      </trkpt>
      <trkpt lat="36.954182" lon="-1.904504">
        <ele>70.994</ele>
        <time>2021-06-11T17:24:03Z</time>
      </trkpt>
      <trkpt lat="36.953914" lon="-1.904492">
        <ele>72.499</ele>
        <time>2021-06-11T17:24:05Z</time>
      </trkpt>
      <trkpt lat="36.953754" lon="-1.904488">
        <ele>73.950</ele>
        <time>2021-06-11T17:24:06Z</time>
      </trkpt>
      <trkpt lat="36.953526" lon="-1.904482">
        <ele>75.224</ele>
        <time>2021-06-11T17:24:08Z</time>
      </trkpt>
      <trkpt lat="36.953387" lon="-1.904483">
        <ele>76.177</ele>
        <time>2021-06-11T17:24:09Z</time>
      </trkpt>
      <trkpt lat="36.953176" lon="-1.904528">
        <ele>76.782</ele>
        <time>2021-06-11T17:24:11Z</time>
      </trkpt>
      <trkpt lat="36.953074" lon="-1.904584">
        <ele>76.743</ele>
        <time>2021-06-11T17:24:12Z</time>
      </trkpt>
      <trkpt lat="36.952975" lon="-1.904664">
        <ele>76.717</ele>
        <time>2021-06-11T17:24:13Z</time>
      </trkpt>
      <trkpt lat="36.952796" lon="-1.904854">
        <ele>77.008</ele>
        <time>2021-06-11T17:24:15Z</time>
      </trkpt>
      <trkpt lat="36.952632" lon="-1.905044">
        <ele>76.895</ele>
        <time>2021-06-11T17:24:17Z</time>
      </trkpt>
      <trkpt lat="36.952559" lon="-1.905132">
        <ele>77.163</ele>
        <time>2021-06-11T17:24:18Z</time>
      </trkpt>
      <trkpt lat="36.952464" lon="-1.905264">
        <ele>77.323</ele>
        <time>2021-06-11T17:24:20Z</time>
      </trkpt>
      <trkpt lat="36.952423" lon="-1.905327">
        <ele>77.651</ele>
        <time>2021-06-11T17:24:22Z</time>
      </trkpt>
      <trkpt lat="36.952374" lon="-1.905374">
        <ele>77.956</ele>
        <time>2021-06-11T17:24:25Z</time>
      </trkpt>
      <trkpt lat="36.952314" lon="-1.905437">
        <ele>78.397</ele>
        <time>2021-06-11T17:24:27Z</time>
      </trkpt>
      <trkpt lat="36.95219" lon="-1.905591">
        <ele>78.581</ele>
        <time>2021-06-11T17:24:29Z</time>
      </trkpt>
      <trkpt lat="36.952067" lon="-1.905747">
        <ele>78.494</ele>
        <time>2021-06-11T17:24:31Z</time>
      </trkpt>
      <trkpt lat="36.951914" lon="-1.905929">
        <ele>78.051</ele>
        <time>2021-06-11T17:24:33Z</time>
      </trkpt>
      <trkpt lat="36.95182" lon="-1.906042">
        <ele>77.401</ele>
        <time>2021-06-11T17:24:34Z</time>
      </trkpt>
      <trkpt lat="36.951638" lon="-1.906254">
        <ele>77.011</ele>
        <time>2021-06-11T17:24:36Z</time>
      </trkpt>
      <trkpt lat="36.951424" lon="-1.906465">
        <ele>76.408</ele>
        <time>2021-06-11T17:24:38Z</time>
      </trkpt>
      <trkpt lat="36.9512" lon="-1.90668">
        <ele>74.982</ele>
        <time>2021-06-11T17:24:40Z</time>
      </trkpt>
      <trkpt lat="36.951088" lon="-1.90682">
        <ele>73.770</ele>
        <time>2021-06-11T17:24:41Z</time>
      </trkpt>
      <trkpt lat="36.950891" lon="-1.907163">
        <ele>72.180</ele>
        <time>2021-06-11T17:24:43Z</time>
      </trkpt>
      <trkpt lat="36.9507" lon="-1.907583">
        <ele>70.128</ele>
        <time>2021-06-11T17:24:45Z</time>
      </trkpt>
      <trkpt lat="36.950606" lon="-1.907797">
        <ele>68.713</ele>
        <time>2021-06-11T17:24:46Z</time>
      </trkpt>
      <trkpt lat="36.950509" lon="-1.90802">
        <ele>67.844</ele>
        <time>2021-06-11T17:24:47Z</time>
      </trkpt>
      <trkpt lat="36.950411" lon="-1.908247">
        <ele>67.098</ele>
        <time>2021-06-11T17:24:48Z</time>
      </trkpt>
      <trkpt lat="36.950211" lon="-1.908756">
        <ele>67.321</ele>
        <time>2021-06-11T17:24:50Z</time>
      </trkpt>
      <trkpt lat="36.950113" lon="-1.909019">
        <ele>67.689</ele>
        <time>2021-06-11T17:24:51Z</time>
      </trkpt>
      <trkpt lat="36.949925" lon="-1.909547">
        <ele>68.606</ele>
        <time>2021-06-11T17:24:53Z</time>
      </trkpt>
      <trkpt lat="36.949738" lon="-1.91008">
        <ele>70.426</ele>
        <time>2021-06-11T17:24:55Z</time>
      </trkpt>
      <trkpt lat="36.949567" lon="-1.910534">
        <ele>72.408</ele>
        <time>2021-06-11T17:24:57Z</time>
      </trkpt>
      <trkpt lat="36.949372" lon="-1.911036">
        <ele>74.735</ele>
        <time>2021-06-11T17:24:59Z</time>
      </trkpt>
      <trkpt lat="36.949278" lon="-1.91128">
        <ele>76.543</ele>
        <time>2021-06-11T17:25:00Z</time>
      </trkpt>
      <trkpt lat="36.949096" lon="-1.91176">
        <ele>78.643</ele>
        <time>2021-06-11T17:25:02Z</time>
      </trkpt>
      <trkpt lat="36.948922" lon="-1.912228">
        <ele>80.641</ele>
        <time>2021-06-11T17:25:04Z</time>
      </trkpt>
      <trkpt lat="36.948842" lon="-1.912459">
        <ele>81.936</ele>
        <time>2021-06-11T17:25:05Z</time>
      </trkpt>
      <trkpt lat="36.948764" lon="-1.912697">
        <ele>82.937</ele>
        <time>2021-06-11T17:25:06Z</time>
      </trkpt>
      <trkpt lat="36.94861" lon="-1.913195">
        <ele>83.041</ele>
        <time>2021-06-11T17:25:08Z</time>
      </trkpt>
      <trkpt lat="36.948461" lon="-1.913701">
        <ele>82.594</ele>
        <time>2021-06-11T17:25:10Z</time>
      </trkpt>
      <trkpt lat="36.948317" lon="-1.914179">
        <ele>82.918</ele>
        <time>2021-06-11T17:25:12Z</time>
      </trkpt>
      <trkpt lat="36.94825" lon="-1.914405">
        <ele>83.598</ele>
        <time>2021-06-11T17:25:13Z</time>
      </trkpt>
      <trkpt lat="36.948188" lon="-1.914627">
        <ele>84.017</ele>
        <time>2021-06-11T17:25:14Z</time>
      </trkpt>
      <trkpt lat="36.948064" lon="-1.915057">
        <ele>84.508</ele>
        <time>2021-06-11T17:25:16Z</time>
      </trkpt>
      <trkpt lat="36.947923" lon="-1.915445">
        <ele>85.028</ele>
        <time>2021-06-11T17:25:18Z</time>
      </trkpt>
      <trkpt lat="36.94783" lon="-1.915613">
        <ele>85.676</ele>
        <time>2021-06-11T17:25:19Z</time>
      </trkpt>
      <trkpt lat="36.947709" lon="-1.915762">
        <ele>85.816</ele>
        <time>2021-06-11T17:25:20Z</time>
      </trkpt>
      <trkpt lat="36.94741" lon="-1.916027">
        <ele>86.434</ele>
        <time>2021-06-11T17:25:22Z</time>
      </trkpt>
      <trkpt lat="36.94707" lon="-1.916273">
        <ele>86.599</ele>
        <time>2021-06-11T17:25:24Z</time>
      </trkpt>
      <trkpt lat="36.946721" lon="-1.916526">
        <ele>86.680</ele>
        <time>2021-06-11T17:25:26Z</time>
      </trkpt>
      <trkpt lat="36.946549" lon="-1.916659">
        <ele>86.654</ele>
        <time>2021-06-11T17:25:27Z</time>
      </trkpt>
      <trkpt lat="36.946391" lon="-1.916805">
        <ele>86.987</ele>
        <time>2021-06-11T17:25:28Z</time>
      </trkpt>
      <trkpt lat="36.946149" lon="-1.917187">
        <ele>87.213</ele>
        <time>2021-06-11T17:25:30Z</time>
      </trkpt>
      <trkpt lat="36.946068" lon="-1.917422">
        <ele>87.343</ele>
        <time>2021-06-11T17:25:31Z</time>
      </trkpt>
      <trkpt lat="36.946003" lon="-1.917923">
        <ele>88.407</ele>
        <time>2021-06-11T17:25:33Z</time>
      </trkpt>
      <trkpt lat="36.94606" lon="-1.91842">
        <ele>89.908</ele>
        <time>2021-06-11T17:25:35Z</time>
      </trkpt>
      <trkpt lat="36.946116" lon="-1.918686">
        <ele>91.238</ele>
        <time>2021-06-11T17:25:36Z</time>
      </trkpt>
      <trkpt lat="36.946164" lon="-1.918903">
        <ele>92.686</ele>
        <time>2021-06-11T17:25:37Z</time>
      </trkpt>
      <trkpt lat="36.946228" lon="-1.919321">
        <ele>94.056</ele>
        <time>2021-06-11T17:25:39Z</time>
      </trkpt>
      <trkpt lat="36.94622" lon="-1.919753">
        <ele>94.434</ele>
        <time>2021-06-11T17:25:41Z</time>
      </trkpt>
      <trkpt lat="36.94619" lon="-1.919996">
        <ele>94.779</ele>
        <time>2021-06-11T17:25:42Z</time>
      </trkpt>
      <trkpt lat="36.946156" lon="-1.920249">
        <ele>95.080</ele>
        <time>2021-06-11T17:25:43Z</time>
      </trkpt>
      <trkpt lat="36.946126" lon="-1.920479">
        <ele>95.184</ele>
        <time>2021-06-11T17:25:44Z</time>
      </trkpt>
      <trkpt lat="36.946064" lon="-1.920972">
        <ele>94.847</ele>
        <time>2021-06-11T17:25:46Z</time>
      </trkpt>
      <trkpt lat="36.946012" lon="-1.921433">
        <ele>94.712</ele>
        <time>2021-06-11T17:25:48Z</time>
      </trkpt>
      <trkpt lat="36.945978" lon="-1.92171">
        <ele>95.532</ele>
        <time>2021-06-11T17:25:49Z</time>
      </trkpt>
      <trkpt lat="36.94595" lon="-1.921939">
        <ele>96.305</ele>
        <time>2021-06-11T17:25:50Z</time>
      </trkpt>
      <trkpt lat="36.945897" lon="-1.922393">
        <ele>97.408</ele>
        <time>2021-06-11T17:25:52Z</time>
      </trkpt>
      <trkpt lat="36.945868" lon="-1.922615">
        <ele>98.468</ele>
        <time>2021-06-11T17:25:53Z</time>
      </trkpt>
      <trkpt lat="36.945774" lon="-1.923036">
        <ele>99.936</ele>
        <time>2021-06-11T17:25:55Z</time>
      </trkpt>
      <trkpt lat="36.945702" lon="-1.923239">
        <ele>100.566</ele>
        <time>2021-06-11T17:25:56Z</time>
      </trkpt>
      <trkpt lat="36.945546" lon="-1.923635">
        <ele>100.894</ele>
        <time>2021-06-11T17:25:58Z</time>
      </trkpt>
      <trkpt lat="36.945452" lon="-1.923881">
        <ele>101.139</ele>
        <time>2021-06-11T17:25:59Z</time>
      </trkpt>
      <trkpt lat="36.945282" lon="-1.924325">
        <ele>101.180</ele>
        <time>2021-06-11T17:26:01Z</time>
      </trkpt>
      <trkpt lat="36.945131" lon="-1.924702">
        <ele>100.934</ele>
        <time>2021-06-11T17:26:03Z</time>
      </trkpt>
      <trkpt lat="36.944979" lon="-1.925091">
        <ele>100.637</ele>
        <time>2021-06-11T17:26:05Z</time>
      </trkpt>
      <trkpt lat="36.944916" lon="-1.925266">
        <ele>100.229</ele>
        <time>2021-06-11T17:26:06Z</time>
      </trkpt>
      <trkpt lat="36.944849" lon="-1.925453">
        <ele>100.000</ele>
        <time>2021-06-11T17:26:07Z</time>
      </trkpt>
      <trkpt lat="36.944808" lon="-1.925599">
        <ele>99.420</ele>
        <time>2021-06-11T17:26:08Z</time>
      </trkpt>
      <trkpt lat="36.944775" lon="-1.925909">
        <ele>99.008</ele>
        <time>2021-06-11T17:26:10Z</time>
      </trkpt>
      <trkpt lat="36.944799" lon="-1.926201">
        <ele>98.079</ele>
        <time>2021-06-11T17:26:12Z</time>
      </trkpt>
      <trkpt lat="36.94485" lon="-1.926468">
        <ele>96.747</ele>
        <time>2021-06-11T17:26:14Z</time>
      </trkpt>
      <trkpt lat="36.944896" lon="-1.926584">
        <ele>95.247</ele>
        <time>2021-06-11T17:26:15Z</time>
      </trkpt>
      <trkpt lat="36.945051" lon="-1.926744">
        <ele>93.795</ele>
        <time>2021-06-11T17:26:17Z</time>
      </trkpt>
      <trkpt lat="36.945276" lon="-1.926802">
        <ele>91.320</ele>
        <time>2021-06-11T17:26:19Z</time>
      </trkpt>
      <trkpt lat="36.945495" lon="-1.926793">
        <ele>89.071</ele>
        <time>2021-06-11T17:26:21Z</time>
      </trkpt>
      <trkpt lat="36.945591" lon="-1.926818">
        <ele>87.215</ele>
        <time>2021-06-11T17:26:22Z</time>
      </trkpt>
      <trkpt lat="36.94572" lon="-1.92701">
        <ele>84.668</ele>
        <time>2021-06-11T17:26:24Z</time>
      </trkpt>
      <trkpt lat="36.945725" lon="-1.927141">
        <ele>82.818</ele>
        <time>2021-06-11T17:26:25Z</time>
      </trkpt>
      <trkpt lat="36.945595" lon="-1.927361">
        <ele>80.898</ele>
        <time>2021-06-11T17:26:27Z</time>
      </trkpt>
      <trkpt lat="36.94536" lon="-1.927467">
        <ele>78.617</ele>
        <time>2021-06-11T17:26:29Z</time>
      </trkpt>
      <trkpt lat="36.945266" lon="-1.927564">
        <ele>76.908</ele>
        <time>2021-06-11T17:26:30Z</time>
      </trkpt>
      <trkpt lat="36.945227" lon="-1.927702">
        <ele>75.768</ele>
        <time>2021-06-11T17:26:31Z</time>
      </trkpt>
      <trkpt lat="36.945242" lon="-1.927998">
        <ele>73.846</ele>
        <time>2021-06-11T17:26:33Z</time>
      </trkpt>
      <trkpt lat="36.945145" lon="-1.92832">
        <ele>71.396</ele>
        <time>2021-06-11T17:26:35Z</time>
      </trkpt>
      <trkpt lat="36.944955" lon="-1.928499">
        <ele>69.184</ele>
        <time>2021-06-11T17:26:37Z</time>
      </trkpt>
      <trkpt lat="36.944878" lon="-1.928575">
        <ele>67.289</ele>
        <time>2021-06-11T17:26:38Z</time>
      </trkpt>
      <trkpt lat="36.944831" lon="-1.92867">
        <ele>65.790</ele>
        <time>2021-06-11T17:26:39Z</time>
      </trkpt>
      <trkpt lat="36.944832" lon="-1.928915">
        <ele>63.814</ele>
        <time>2021-06-11T17:26:41Z</time>
      </trkpt>
      <trkpt lat="36.944867" lon="-1.929075">
        <ele>62.857</ele>
        <time>2021-06-11T17:26:42Z</time>
      </trkpt>
      <trkpt lat="36.944948" lon="-1.929367">
        <ele>61.392</ele>
        <time>2021-06-11T17:26:44Z</time>
      </trkpt>
      <trkpt lat="36.94497" lon="-1.929656">
        <ele>58.973</ele>
        <time>2021-06-11T17:26:46Z</time>
      </trkpt>
      <trkpt lat="36.944922" lon="-1.929756">
        <ele>56.920</ele>
        <time>2021-06-11T17:26:47Z</time>
      </trkpt>
      <trkpt lat="36.94472" lon="-1.929821">
        <ele>54.708</ele>
        <time>2021-06-11T17:26:49Z</time>
      </trkpt>
      <trkpt lat="36.944467" lon="-1.929796">
        <ele>52.916</ele>
        <time>2021-06-11T17:26:51Z</time>
      </trkpt>
      <trkpt lat="36.944323" lon="-1.929788">
        <ele>51.694</ele>
        <time>2021-06-11T17:26:52Z</time>
      </trkpt>
      <trkpt lat="36.944208" lon="-1.9298">
        <ele>50.354</ele>
        <time>2021-06-11T17:26:53Z</time>
      </trkpt>
      <trkpt lat="36.944024" lon="-1.929931">
        <ele>48.552</ele>
        <time>2021-06-11T17:26:55Z</time>
      </trkpt>
      <trkpt lat="36.943937" lon="-1.930201">
        <ele>46.627</ele>
        <time>2021-06-11T17:26:57Z</time>
      </trkpt>
      <trkpt lat="36.94391" lon="-1.930351">
        <ele>45.018</ele>
        <time>2021-06-11T17:26:58Z</time>
      </trkpt>
      <trkpt lat="36.943881" lon="-1.930503">
        <ele>44.182</ele>
        <time>2021-06-11T17:26:59Z</time>
      </trkpt>
      <trkpt lat="36.943777" lon="-1.930781">
        <ele>42.775</ele>
        <time>2021-06-11T17:27:01Z</time>
      </trkpt>
      <trkpt lat="36.943651" lon="-1.931003">
        <ele>41.546</ele>
        <time>2021-06-11T17:27:03Z</time>
      </trkpt>
      <trkpt lat="36.943564" lon="-1.931112">
        <ele>39.988</ele>
        <time>2021-06-11T17:27:04Z</time>
      </trkpt>
      <trkpt lat="36.943376" lon="-1.931297">
        <ele>38.516</ele>
        <time>2021-06-11T17:27:06Z</time>
      </trkpt>
      <trkpt lat="36.943271" lon="-1.931392">
        <ele>37.508</ele>
        <time>2021-06-11T17:27:07Z</time>
      </trkpt>
      <trkpt lat="36.943096" lon="-1.931553">
        <ele>35.761</ele>
        <time>2021-06-11T17:27:09Z</time>
      </trkpt>
      <trkpt lat="36.943009" lon="-1.931641">
        <ele>34.659</ele>
        <time>2021-06-11T17:27:10Z</time>
      </trkpt>
      <trkpt lat="36.94284" lon="-1.931812">
        <ele>33.459</ele>
        <time>2021-06-11T17:27:12Z</time>
      </trkpt>
      <trkpt lat="36.942697" lon="-1.931989">
        <ele>32.347</ele>
        <time>2021-06-11T17:27:14Z</time>
      </trkpt>
      <trkpt lat="36.942607" lon="-1.932105">
        <ele>31.532</ele>
        <time>2021-06-11T17:27:15Z</time>
      </trkpt>
      <trkpt lat="36.942463" lon="-1.932295">
        <ele>31.023</ele>
        <time>2021-06-11T17:27:17Z</time>
      </trkpt>
      <trkpt lat="36.942395" lon="-1.932391">
        <ele>30.517</ele>
        <time>2021-06-11T17:27:18Z</time>
      </trkpt>
      <trkpt lat="36.942334" lon="-1.932489">
        <ele>29.680</ele>
        <time>2021-06-11T17:27:19Z</time>
      </trkpt>
      <trkpt lat="36.942214" lon="-1.93269">
        <ele>28.777</ele>
        <time>2021-06-11T17:27:21Z</time>
      </trkpt>
      <trkpt lat="36.942147" lon="-1.93279">
        <ele>28.261</ele>
        <time>2021-06-11T17:27:22Z</time>
      </trkpt>
      <trkpt lat="36.942008" lon="-1.932996">
        <ele>27.627</ele>
        <time>2021-06-11T17:27:24Z</time>
      </trkpt>
      <trkpt lat="36.941881" lon="-1.933175">
        <ele>26.608</ele>
        <time>2021-06-11T17:27:26Z</time>
      </trkpt>
      <trkpt lat="36.941789" lon="-1.933302">
        <ele>25.754</ele>
        <time>2021-06-11T17:27:28Z</time>
      </trkpt>
      <trkpt lat="36.941753" lon="-1.933349">
        <ele>25.172</ele>
        <time>2021-06-11T17:27:29Z</time>
      </trkpt>
      <trkpt lat="36.941678" lon="-1.933457">
        <ele>24.312</ele>
        <time>2021-06-11T17:27:31Z</time>
      </trkpt>
      <trkpt lat="36.941582" lon="-1.933622">
        <ele>22.760</ele>
        <time>2021-06-11T17:27:33Z</time>
      </trkpt>
      <trkpt lat="36.941483" lon="-1.933822">
        <ele>21.185</ele>
        <time>2021-06-11T17:27:35Z</time>
      </trkpt>
      <trkpt lat="36.941425" lon="-1.933942">
        <ele>20.056</ele>
        <time>2021-06-11T17:27:36Z</time>
      </trkpt>
      <trkpt lat="36.941335" lon="-1.934161">
        <ele>18.780</ele>
        <time>2021-06-11T17:27:38Z</time>
      </trkpt>
      <trkpt lat="36.941258" lon="-1.934378">
        <ele>17.553</ele>
        <time>2021-06-11T17:27:40Z</time>
      </trkpt>
      <trkpt lat="36.941192" lon="-1.934629">
        <ele>16.571</ele>
        <time>2021-06-11T17:27:42Z</time>
      </trkpt>
      <trkpt lat="36.941134" lon="-1.934847">
        <ele>15.641</ele>
        <time>2021-06-11T17:27:44Z</time>
      </trkpt>
      <trkpt lat="36.941096" lon="-1.934979">
        <ele>15.215</ele>
        <time>2021-06-11T17:27:45Z</time>
      </trkpt>
      <trkpt lat="36.941067" lon="-1.935079">
        <ele>14.908</ele>
        <time>2021-06-11T17:27:46Z</time>
      </trkpt>
      <trkpt lat="36.94104" lon="-1.935172">
        <ele>14.844</ele>
        <time>2021-06-11T17:27:47Z</time>
      </trkpt>
      <trkpt lat="36.940989" lon="-1.935335">
        <ele>14.482</ele>
        <time>2021-06-11T17:27:49Z</time>
      </trkpt>
      <trkpt lat="36.940962" lon="-1.935424">
        <ele>14.372</ele>
        <time>2021-06-11T17:27:50Z</time>
      </trkpt>
      <trkpt lat="36.940937" lon="-1.935506">
        <ele>14.050</ele>
        <time>2021-06-11T17:27:51Z</time>
      </trkpt>
      <trkpt lat="36.940879" lon="-1.935684">
        <ele>13.985</ele>
        <time>2021-06-11T17:27:53Z</time>
      </trkpt>
      <trkpt lat="36.940818" lon="-1.935887">
        <ele>13.876</ele>
        <time>2021-06-11T17:27:55Z</time>
      </trkpt>
      <trkpt lat="36.94076" lon="-1.936081">
        <ele>13.640</ele>
        <time>2021-06-11T17:27:57Z</time>
      </trkpt>
      <trkpt lat="36.940731" lon="-1.936203">
        <ele>13.663</ele>
        <time>2021-06-11T17:27:58Z</time>
      </trkpt>
      <trkpt lat="36.940725" lon="-1.936387">
        <ele>13.196</ele>
        <time>2021-06-11T17:28:00Z</time>
      </trkpt>
      <trkpt lat="36.94074" lon="-1.936492">
        <ele>13.231</ele>
        <time>2021-06-11T17:28:01Z</time>
      </trkpt>
      <trkpt lat="36.940788" lon="-1.936638">
        <ele>12.924</ele>
        <time>2021-06-11T17:28:03Z</time>
      </trkpt>
      <trkpt lat="36.940865" lon="-1.936722">
        <ele>12.108</ele>
        <time>2021-06-11T17:28:05Z</time>
      </trkpt>
      <trkpt lat="36.940925" lon="-1.936749">
        <ele>11.846</ele>
        <time>2021-06-11T17:28:06Z</time>
      </trkpt>
      <trkpt lat="36.940979" lon="-1.936762">
        <ele>11.644</ele>
        <time>2021-06-11T17:28:07Z</time>
      </trkpt>
      <trkpt lat="36.941036" lon="-1.936771">
        <ele>11.464</ele>
        <time>2021-06-11T17:28:08Z</time>
      </trkpt>
      <trkpt lat="36.941177" lon="-1.936794">
        <ele>11.332</ele>
        <time>2021-06-11T17:28:10Z</time>
      </trkpt>
      <trkpt lat="36.941357" lon="-1.936856">
        <ele>10.837</ele>
        <time>2021-06-11T17:28:12Z</time>
      </trkpt>
      <trkpt lat="36.941458" lon="-1.936913">
        <ele>10.668</ele>
        <time>2021-06-11T17:28:13Z</time>
      </trkpt>
      <trkpt lat="36.941551" lon="-1.936989">
        <ele>11.042</ele>
        <time>2021-06-11T17:28:14Z</time>
      </trkpt>
      <trkpt lat="36.941708" lon="-1.937195">
        <ele>11.575</ele>
        <time>2021-06-11T17:28:16Z</time>
      </trkpt>
      <trkpt lat="36.941775" lon="-1.937313">
        <ele>11.712</ele>
        <time>2021-06-11T17:28:17Z</time>
      </trkpt>
      <trkpt lat="36.941841" lon="-1.937439">
        <ele>12.032</ele>
        <time>2021-06-11T17:28:18Z</time>
      </trkpt>
      <trkpt lat="36.941904" lon="-1.937562">
        <ele>12.105</ele>
        <time>2021-06-11T17:28:19Z</time>
      </trkpt>
      <trkpt lat="36.941992" lon="-1.937812">
        <ele>12.308</ele>
        <time>2021-06-11T17:28:21Z</time>
      </trkpt>
      <trkpt lat="36.942017" lon="-1.937996">
        <ele>12.518</ele>
        <time>2021-06-11T17:28:22Z</time>
      </trkpt>
      <trkpt lat="36.942016" lon="-1.93816">
        <ele>12.726</ele>
        <time>2021-06-11T17:28:23Z</time>
      </trkpt>
      <trkpt lat="36.941962" lon="-1.9385">
        <ele>12.616</ele>
        <time>2021-06-11T17:28:25Z</time>
      </trkpt>
      <trkpt lat="36.94192" lon="-1.938682">
        <ele>12.784</ele>
        <time>2021-06-11T17:28:26Z</time>
      </trkpt>
      <trkpt lat="36.941846" lon="-1.939026">
        <ele>12.949</ele>
        <time>2021-06-11T17:28:28Z</time>
      </trkpt>
      <trkpt lat="36.941806" lon="-1.939241">
        <ele>13.140</ele>
        <time>2021-06-11T17:28:29Z</time>
      </trkpt>
      <trkpt lat="36.941739" lon="-1.939633">
        <ele>12.754</ele>
        <time>2021-06-11T17:28:31Z</time>
      </trkpt>
      <trkpt lat="36.941711" lon="-1.93983">
        <ele>12.857</ele>
        <time>2021-06-11T17:28:32Z</time>
      </trkpt>
      <trkpt lat="36.941683" lon="-1.940032">
        <ele>12.941</ele>
        <time>2021-06-11T17:28:33Z</time>
      </trkpt>
      <trkpt lat="36.941632" lon="-1.940425">
        <ele>12.881</ele>
        <time>2021-06-11T17:28:35Z</time>
      </trkpt>
      <trkpt lat="36.941607" lon="-1.940642">
        <ele>12.909</ele>
        <time>2021-06-11T17:28:36Z</time>
      </trkpt>
      <trkpt lat="36.941586" lon="-1.940861">
        <ele>13.308</ele>
        <time>2021-06-11T17:28:37Z</time>
      </trkpt>
      <trkpt lat="36.941569" lon="-1.941288">
        <ele>14.021</ele>
        <time>2021-06-11T17:28:39Z</time>
      </trkpt>
      <trkpt lat="36.941575" lon="-1.941506">
        <ele>14.229</ele>
        <time>2021-06-11T17:28:40Z</time>
      </trkpt>
      <trkpt lat="36.941588" lon="-1.941726">
        <ele>14.899</ele>
        <time>2021-06-11T17:28:41Z</time>
      </trkpt>
      <trkpt lat="36.941604" lon="-1.941948">
        <ele>15.017</ele>
        <time>2021-06-11T17:28:42Z</time>
      </trkpt>
      <trkpt lat="36.941646" lon="-1.942382">
        <ele>15.932</ele>
        <time>2021-06-11T17:28:44Z</time>
      </trkpt>
      <trkpt lat="36.941676" lon="-1.942625">
        <ele>16.463</ele>
        <time>2021-06-11T17:28:45Z</time>
      </trkpt>
      <trkpt lat="36.941742" lon="-1.943004">
        <ele>16.977</ele>
        <time>2021-06-11T17:28:47Z</time>
      </trkpt>
      <trkpt lat="36.9418" lon="-1.943359">
        <ele>16.620</ele>
        <time>2021-06-11T17:28:49Z</time>
      </trkpt>
      <trkpt lat="36.941861" lon="-1.943652">
        <ele>16.542</ele>
        <time>2021-06-11T17:28:51Z</time>
      </trkpt>
      <trkpt lat="36.9419" lon="-1.943833">
        <ele>16.422</ele>
        <time>2021-06-11T17:28:52Z</time>
      </trkpt>
      <trkpt lat="36.941992" lon="-1.944124">
        <ele>17.114</ele>
        <time>2021-06-11T17:28:54Z</time>
      </trkpt>
      <trkpt lat="36.942148" lon="-1.944332">
        <ele>18.008</ele>
        <time>2021-06-11T17:28:56Z</time>
      </trkpt>
      <trkpt lat="36.942368" lon="-1.944338">
        <ele>19.541</ele>
        <time>2021-06-11T17:28:58Z</time>
      </trkpt>
      <trkpt lat="36.942562" lon="-1.944205">
        <ele>21.449</ele>
        <time>2021-06-11T17:29:00Z</time>
      </trkpt>
      <trkpt lat="36.942694" lon="-1.94412">
        <ele>22.759</ele>
        <time>2021-06-11T17:29:01Z</time>
      </trkpt>
      <trkpt lat="36.942812" lon="-1.94405">
        <ele>23.877</ele>
        <time>2021-06-11T17:29:02Z</time>
      </trkpt>
      <trkpt lat="36.942935" lon="-1.943981">
        <ele>24.852</ele>
        <time>2021-06-11T17:29:03Z</time>
      </trkpt>
      <trkpt lat="36.943182" lon="-1.943842">
        <ele>26.253</ele>
        <time>2021-06-11T17:29:05Z</time>
      </trkpt>
      <trkpt lat="36.943316" lon="-1.943765">
        <ele>27.227</ele>
        <time>2021-06-11T17:29:06Z</time>
      </trkpt>
      <trkpt lat="36.943461" lon="-1.943681">
        <ele>27.940</ele>
        <time>2021-06-11T17:29:07Z</time>
      </trkpt>
      <trkpt lat="36.943706" lon="-1.943536">
        <ele>28.953</ele>
        <time>2021-06-11T17:29:09Z</time>
      </trkpt>
      <trkpt lat="36.943944" lon="-1.943435">
        <ele>30.504</ele>
        <time>2021-06-11T17:29:11Z</time>
      </trkpt>
      <trkpt lat="36.944093" lon="-1.943438">
        <ele>32.114</ele>
        <time>2021-06-11T17:29:12Z</time>
      </trkpt>
      <trkpt lat="36.944216" lon="-1.943499">
        <ele>33.508</ele>
        <time>2021-06-11T17:29:13Z</time>
      </trkpt>
      <trkpt lat="36.944433" lon="-1.943683">
        <ele>36.052</ele>
        <time>2021-06-11T17:29:15Z</time>
      </trkpt>
      <trkpt lat="36.944552" lon="-1.943795">
        <ele>37.910</ele>
        <time>2021-06-11T17:29:16Z</time>
      </trkpt>
      <trkpt lat="36.944664" lon="-1.943929">
        <ele>39.570</ele>
        <time>2021-06-11T17:29:17Z</time>
      </trkpt>
      <trkpt lat="36.94475" lon="-1.944084">
        <ele>40.588</ele>
        <time>2021-06-11T17:29:18Z</time>
      </trkpt>
      <trkpt lat="36.944805" lon="-1.944251">
        <ele>41.533</ele>
        <time>2021-06-11T17:29:19Z</time>
      </trkpt>
      <trkpt lat="36.944886" lon="-1.944618">
        <ele>43.044</ele>
        <time>2021-06-11T17:29:21Z</time>
      </trkpt>
      <trkpt lat="36.944922" lon="-1.9448">
        <ele>44.228</ele>
        <time>2021-06-11T17:29:22Z</time>
      </trkpt>
      <trkpt lat="36.944976" lon="-1.945171">
        <ele>45.221</ele>
        <time>2021-06-11T17:29:24Z</time>
      </trkpt>
      <trkpt lat="36.945019" lon="-1.945412">
        <ele>46.584</ele>
        <time>2021-06-11T17:29:25Z</time>
      </trkpt>
      <trkpt lat="36.945122" lon="-1.945829">
        <ele>47.507</ele>
        <time>2021-06-11T17:29:27Z</time>
      </trkpt>
      <trkpt lat="36.945194" lon="-1.946028">
        <ele>48.217</ele>
        <time>2021-06-11T17:29:28Z</time>
      </trkpt>
      <trkpt lat="36.945376" lon="-1.946402">
        <ele>48.908</ele>
        <time>2021-06-11T17:29:30Z</time>
      </trkpt>
      <trkpt lat="36.945588" lon="-1.946765">
        <ele>50.115</ele>
        <time>2021-06-11T17:29:32Z</time>
      </trkpt>
      <trkpt lat="36.945809" lon="-1.947132">
        <ele>52.093</ele>
        <time>2021-06-11T17:29:34Z</time>
      </trkpt>
      <trkpt lat="36.946009" lon="-1.947463">
        <ele>53.913</ele>
        <time>2021-06-11T17:29:36Z</time>
      </trkpt>
      <trkpt lat="36.946111" lon="-1.947655">
        <ele>55.631</ele>
        <time>2021-06-11T17:29:37Z</time>
      </trkpt>
      <trkpt lat="36.946223" lon="-1.947861">
        <ele>56.726</ele>
        <time>2021-06-11T17:29:38Z</time>
      </trkpt>
      <trkpt lat="36.946413" lon="-1.948218">
        <ele>58.177</ele>
        <time>2021-06-11T17:29:40Z</time>
      </trkpt>
      <trkpt lat="36.946512" lon="-1.948405">
        <ele>59.561</ele>
        <time>2021-06-11T17:29:41Z</time>
      </trkpt>
      <trkpt lat="36.946718" lon="-1.948798">
        <ele>60.864</ele>
        <time>2021-06-11T17:29:43Z</time>
      </trkpt>
      <trkpt lat="36.946921" lon="-1.949177">
        <ele>62.782</ele>
        <time>2021-06-11T17:29:45Z</time>
      </trkpt>
      <trkpt lat="36.947104" lon="-1.949558">
        <ele>64.343</ele>
        <time>2021-06-11T17:29:47Z</time>
      </trkpt>
      <trkpt lat="36.947227" lon="-1.949957">
        <ele>66.817</ele>
        <time>2021-06-11T17:29:49Z</time>
      </trkpt>
      <trkpt lat="36.947288" lon="-1.95022">
        <ele>69.208</ele>
        <time>2021-06-11T17:29:50Z</time>
      </trkpt>
      <trkpt lat="36.947322" lon="-1.950437">
        <ele>71.125</ele>
        <time>2021-06-11T17:29:51Z</time>
      </trkpt>
      <trkpt lat="36.947342" lon="-1.950661">
        <ele>72.933</ele>
        <time>2021-06-11T17:29:52Z</time>
      </trkpt>
      <trkpt lat="36.947358" lon="-1.951101">
        <ele>74.723</ele>
        <time>2021-06-11T17:29:54Z</time>
      </trkpt>
      <trkpt lat="36.94739" lon="-1.951457">
        <ele>75.881</ele>
        <time>2021-06-11T17:29:56Z</time>
      </trkpt>
      <trkpt lat="36.947492" lon="-1.951833">
        <ele>76.946</ele>
        <time>2021-06-11T17:29:58Z</time>
      </trkpt>
      <trkpt lat="36.94761" lon="-1.952145">
        <ele>78.447</ele>
        <time>2021-06-11T17:30:00Z</time>
      </trkpt>
      <trkpt lat="36.947689" lon="-1.952343">
        <ele>79.281</ele>
        <time>2021-06-11T17:30:01Z</time>
      </trkpt>
      <trkpt lat="36.947816" lon="-1.952685">
        <ele>80.854</ele>
        <time>2021-06-11T17:30:03Z</time>
      </trkpt>
      <trkpt lat="36.947924" lon="-1.953003">
        <ele>81.787</ele>
        <time>2021-06-11T17:30:05Z</time>
      </trkpt>
      <trkpt lat="36.947981" lon="-1.953181">
        <ele>82.442</ele>
        <time>2021-06-11T17:30:06Z</time>
      </trkpt>
      <trkpt lat="36.948035" lon="-1.953354">
        <ele>82.926</ele>
        <time>2021-06-11T17:30:07Z</time>
      </trkpt>
      <trkpt lat="36.948087" lon="-1.953554">
        <ele>83.108</ele>
        <time>2021-06-11T17:30:08Z</time>
      </trkpt>
      <trkpt lat="36.94813" lon="-1.953901">
        <ele>83.335</ele>
        <time>2021-06-11T17:30:10Z</time>
      </trkpt>
      <trkpt lat="36.948148" lon="-1.954297">
        <ele>83.213</ele>
        <time>2021-06-11T17:30:12Z</time>
      </trkpt>
      <trkpt lat="36.948162" lon="-1.954658">
        <ele>82.933</ele>
        <time>2021-06-11T17:30:14Z</time>
      </trkpt>
      <trkpt lat="36.948183" lon="-1.954981">
        <ele>82.731</ele>
        <time>2021-06-11T17:30:16Z</time>
      </trkpt>
      <trkpt lat="36.948251" lon="-1.955264">
        <ele>82.486</ele>
        <time>2021-06-11T17:30:18Z</time>
      </trkpt>
      <trkpt lat="36.948318" lon="-1.955407">
        <ele>82.457</ele>
        <time>2021-06-11T17:30:19Z</time>
      </trkpt>
      <trkpt lat="36.9485" lon="-1.955713">
        <ele>82.291</ele>
        <time>2021-06-11T17:30:21Z</time>
      </trkpt>
      <trkpt lat="36.948603" lon="-1.955882">
        <ele>82.044</ele>
        <time>2021-06-11T17:30:22Z</time>
      </trkpt>
      <trkpt lat="36.948721" lon="-1.956078">
        <ele>81.743</ele>
        <time>2021-06-11T17:30:23Z</time>
      </trkpt>
      <trkpt lat="36.948924" lon="-1.956421">
        <ele>81.164</ele>
        <time>2021-06-11T17:30:25Z</time>
      </trkpt>
      <trkpt lat="36.94903" lon="-1.956595">
        <ele>81.210</ele>
        <time>2021-06-11T17:30:26Z</time>
      </trkpt>
      <trkpt lat="36.949131" lon="-1.956784">
        <ele>80.908</ele>
        <time>2021-06-11T17:30:27Z</time>
      </trkpt>
      <trkpt lat="36.949299" lon="-1.957173">
        <ele>81.341</ele>
        <time>2021-06-11T17:30:29Z</time>
      </trkpt>
      <trkpt lat="36.949368" lon="-1.957447">
        <ele>81.689</ele>
        <time>2021-06-11T17:30:30Z</time>
      </trkpt>
      <trkpt lat="36.949415" lon="-1.957938">
        <ele>82.329</ele>
        <time>2021-06-11T17:30:32Z</time>
      </trkpt>
      <trkpt lat="36.949453" lon="-1.958407">
        <ele>82.847</ele>
        <time>2021-06-11T17:30:34Z</time>
      </trkpt>
      <trkpt lat="36.949484" lon="-1.958825">
        <ele>83.412</ele>
        <time>2021-06-11T17:30:36Z</time>
      </trkpt>
      <trkpt lat="36.949489" lon="-1.959058">
        <ele>83.893</ele>
        <time>2021-06-11T17:30:37Z</time>
      </trkpt>
      <trkpt lat="36.949458" lon="-1.959414">
        <ele>83.697</ele>
        <time>2021-06-11T17:30:39Z</time>
      </trkpt>
      <trkpt lat="36.949423" lon="-1.959762">
        <ele>84.090</ele>
        <time>2021-06-11T17:30:41Z</time>
      </trkpt>
      <trkpt lat="36.949395" lon="-1.960146">
        <ele>84.451</ele>
        <time>2021-06-11T17:30:43Z</time>
      </trkpt>
      <trkpt lat="36.949367" lon="-1.96049">
        <ele>85.001</ele>
        <time>2021-06-11T17:30:45Z</time>
      </trkpt>
      <trkpt lat="36.949352" lon="-1.960671">
        <ele>85.311</ele>
        <time>2021-06-11T17:30:46Z</time>
      </trkpt>
      <trkpt lat="36.949317" lon="-1.961049">
        <ele>85.208</ele>
        <time>2021-06-11T17:30:48Z</time>
      </trkpt>
      <trkpt lat="36.949301" lon="-1.961227">
        <ele>85.222</ele>
        <time>2021-06-11T17:30:49Z</time>
      </trkpt>
      <trkpt lat="36.949285" lon="-1.961414">
        <ele>85.140</ele>
        <time>2021-06-11T17:30:50Z</time>
      </trkpt>
      <trkpt lat="36.949255" lon="-1.961789">
        <ele>84.520</ele>
        <time>2021-06-11T17:30:52Z</time>
      </trkpt>
      <trkpt lat="36.949234" lon="-1.962222">
        <ele>84.338</ele>
        <time>2021-06-11T17:30:54Z</time>
      </trkpt>
      <trkpt lat="36.949217" lon="-1.962606">
        <ele>84.253</ele>
        <time>2021-06-11T17:30:56Z</time>
      </trkpt>
      <trkpt lat="36.949209" lon="-1.962839">
        <ele>84.164</ele>
        <time>2021-06-11T17:30:57Z</time>
      </trkpt>
      <trkpt lat="36.9492" lon="-1.963256">
        <ele>84.318</ele>
        <time>2021-06-11T17:30:59Z</time>
      </trkpt>
      <trkpt lat="36.949193" lon="-1.963685">
        <ele>84.651</ele>
        <time>2021-06-11T17:31:01Z</time>
      </trkpt>
      <trkpt lat="36.949186" lon="-1.963895">
        <ele>84.835</ele>
        <time>2021-06-11T17:31:02Z</time>
      </trkpt>
      <trkpt lat="36.94918" lon="-1.964109">
        <ele>84.986</ele>
        <time>2021-06-11T17:31:03Z</time>
      </trkpt>
      <trkpt lat="36.949173" lon="-1.964514">
        <ele>85.214</ele>
        <time>2021-06-11T17:31:05Z</time>
      </trkpt>
      <trkpt lat="36.949163" lon="-1.964948">
        <ele>85.108</ele>
        <time>2021-06-11T17:31:07Z</time>
      </trkpt>
      <trkpt lat="36.949162" lon="-1.96519">
        <ele>84.480</ele>
        <time>2021-06-11T17:31:08Z</time>
      </trkpt>
      <trkpt lat="36.949207" lon="-1.965612">
        <ele>84.358</ele>
        <time>2021-06-11T17:31:10Z</time>
      </trkpt>
      <trkpt lat="36.949321" lon="-1.966029">
        <ele>84.388</ele>
        <time>2021-06-11T17:31:12Z</time>
      </trkpt>
      <trkpt lat="36.949461" lon="-1.966444">
        <ele>84.766</ele>
        <time>2021-06-11T17:31:14Z</time>
      </trkpt>
      <trkpt lat="36.949599" lon="-1.966837">
        <ele>85.691</ele>
        <time>2021-06-11T17:31:16Z</time>
      </trkpt>
      <trkpt lat="36.949731" lon="-1.967276">
        <ele>87.032</ele>
        <time>2021-06-11T17:31:18Z</time>
      </trkpt>
      <trkpt lat="36.949781" lon="-1.967498">
        <ele>88.396</ele>
        <time>2021-06-11T17:31:19Z</time>
      </trkpt>
      <trkpt lat="36.94982" lon="-1.967693">
        <ele>89.329</ele>
        <time>2021-06-11T17:31:20Z</time>
      </trkpt>
      <trkpt lat="36.949915" lon="-1.968065">
        <ele>89.382</ele>
        <time>2021-06-11T17:31:22Z</time>
      </trkpt>
      <trkpt lat="36.949981" lon="-1.968247">
        <ele>89.043</ele>
        <time>2021-06-11T17:31:23Z</time>
      </trkpt>
      <trkpt lat="36.950129" lon="-1.968584">
        <ele>87.817</ele>
        <time>2021-06-11T17:31:25Z</time>
      </trkpt>
      <trkpt lat="36.950274" lon="-1.969016">
        <ele>86.108</ele>
        <time>2021-06-11T17:31:27Z</time>
      </trkpt>
      <trkpt lat="36.95033" lon="-1.969273">
        <ele>85.085</ele>
        <time>2021-06-11T17:31:28Z</time>
      </trkpt>
      <trkpt lat="36.950386" lon="-1.969759">
        <ele>83.833</ele>
        <time>2021-06-11T17:31:30Z</time>
      </trkpt>
      <trkpt lat="36.950432" lon="-1.970258">
        <ele>84.163</ele>
        <time>2021-06-11T17:31:32Z</time>
      </trkpt>
      <trkpt lat="36.950458" lon="-1.970512">
        <ele>84.711</ele>
        <time>2021-06-11T17:31:33Z</time>
      </trkpt>
      <trkpt lat="36.95051" lon="-1.970989">
        <ele>85.376</ele>
        <time>2021-06-11T17:31:35Z</time>
      </trkpt>
      <trkpt lat="36.950543" lon="-1.971241">
        <ele>85.887</ele>
        <time>2021-06-11T17:31:36Z</time>
      </trkpt>
      <trkpt lat="36.950583" lon="-1.971515">
        <ele>86.561</ele>
        <time>2021-06-11T17:31:37Z</time>
      </trkpt>
      <trkpt lat="36.950619" lon="-1.971732">
        <ele>87.484</ele>
        <time>2021-06-11T17:31:38Z</time>
      </trkpt>
      <trkpt lat="36.950652" lon="-1.971945">
        <ele>88.169</ele>
        <time>2021-06-11T17:31:39Z</time>
      </trkpt>
      <trkpt lat="36.950675" lon="-1.972347">
        <ele>89.504</ele>
        <time>2021-06-11T17:31:41Z</time>
      </trkpt>
      <trkpt lat="36.950649" lon="-1.972617">
        <ele>90.224</ele>
        <time>2021-06-11T17:31:42Z</time>
      </trkpt>
      <trkpt lat="36.950558" lon="-1.973084">
        <ele>90.808</ele>
        <time>2021-06-11T17:31:44Z</time>
      </trkpt>
      <trkpt lat="36.95047" lon="-1.973584">
        <ele>91.773</ele>
        <time>2021-06-11T17:31:46Z</time>
      </trkpt>
      <trkpt lat="36.950392" lon="-1.97408">
        <ele>92.631</ele>
        <time>2021-06-11T17:31:48Z</time>
      </trkpt>
      <trkpt lat="36.950354" lon="-1.974554">
        <ele>93.831</ele>
        <time>2021-06-11T17:31:50Z</time>
      </trkpt>
      <trkpt lat="36.950345" lon="-1.974852">
        <ele>94.789</ele>
        <time>2021-06-11T17:31:51Z</time>
      </trkpt>
      <trkpt lat="36.950346" lon="-1.975101">
        <ele>95.594</ele>
        <time>2021-06-11T17:31:52Z</time>
      </trkpt>
      <trkpt lat="36.950354" lon="-1.975587">
        <ele>96.845</ele>
        <time>2021-06-11T17:31:54Z</time>
      </trkpt>
      <trkpt lat="36.950348" lon="-1.976138">
        <ele>98.289</ele>
        <time>2021-06-11T17:31:56Z</time>
      </trkpt>
      <trkpt lat="36.950343" lon="-1.976613">
        <ele>99.762</ele>
        <time>2021-06-11T17:31:58Z</time>
      </trkpt>
      <trkpt lat="36.950338" lon="-1.97709">
        <ele>101.012</ele>
        <time>2021-06-11T17:32:00Z</time>
      </trkpt>
      <trkpt lat="36.950333" lon="-1.977589">
        <ele>102.632</ele>
        <time>2021-06-11T17:32:02Z</time>
      </trkpt>
      <trkpt lat="36.950343" lon="-1.978028">
        <ele>103.605</ele>
        <time>2021-06-11T17:32:04Z</time>
      </trkpt>
      <trkpt lat="36.950414" lon="-1.978481">
        <ele>105.408</ele>
        <time>2021-06-11T17:32:06Z</time>
      </trkpt>
      <trkpt lat="36.950525" lon="-1.978908">
        <ele>107.088</ele>
        <time>2021-06-11T17:32:08Z</time>
      </trkpt>
      <trkpt lat="36.950681" lon="-1.979186">
        <ele>109.226</ele>
        <time>2021-06-11T17:32:10Z</time>
      </trkpt>
      <trkpt lat="36.950821" lon="-1.979301">
        <ele>110.796</ele>
        <time>2021-06-11T17:32:11Z</time>
      </trkpt>
      <trkpt lat="36.951147" lon="-1.979384">
        <ele>111.694</ele>
        <time>2021-06-11T17:32:13Z</time>
      </trkpt>
      <trkpt lat="36.951502" lon="-1.979432">
        <ele>112.049</ele>
        <time>2021-06-11T17:32:15Z</time>
      </trkpt>
      <trkpt lat="36.951857" lon="-1.979496">
        <ele>112.420</ele>
        <time>2021-06-11T17:32:17Z</time>
      </trkpt>
      <trkpt lat="36.952208" lon="-1.979569">
        <ele>112.324</ele>
        <time>2021-06-11T17:32:19Z</time>
      </trkpt>
      <trkpt lat="36.952372" lon="-1.979608">
        <ele>112.487</ele>
        <time>2021-06-11T17:32:20Z</time>
      </trkpt>
      <trkpt lat="36.952675" lon="-1.979679">
        <ele>112.382</ele>
        <time>2021-06-11T17:32:22Z</time>
      </trkpt>
      <trkpt lat="36.952932" lon="-1.979727">
        <ele>112.343</ele>
        <time>2021-06-11T17:32:24Z</time>
      </trkpt>
      <trkpt lat="36.953132" lon="-1.979768">
        <ele>112.817</ele>
        <time>2021-06-11T17:32:26Z</time>
      </trkpt>
      <trkpt lat="36.953228" lon="-1.979839">
        <ele>113.508</ele>
        <time>2021-06-11T17:32:28Z</time>
      </trkpt>
      <trkpt lat="36.953198" lon="-1.979974">
        <ele>113.745</ele>
        <time>2021-06-11T17:32:30Z</time>
      </trkpt>
      <trkpt lat="36.953146" lon="-1.980066">
        <ele>113.883</ele>
        <time>2021-06-11T17:32:31Z</time>
      </trkpt>
      <trkpt lat="36.953017" lon="-1.980273">
        <ele>113.633</ele>
        <time>2021-06-11T17:32:33Z</time>
      </trkpt>
      <trkpt lat="36.952889" lon="-1.98051">
        <ele>113.491</ele>
        <time>2021-06-11T17:32:35Z</time>
      </trkpt>
      <trkpt lat="36.952728" lon="-1.980839">
        <ele>113.346</ele>
        <time>2021-06-11T17:32:37Z</time>
      </trkpt>
      <trkpt lat="36.952652" lon="-1.980995">
        <ele>113.797</ele>
        <time>2021-06-11T17:32:38Z</time>
      </trkpt>
      <trkpt lat="36.952489" lon="-1.981342">
        <ele>114.511</ele>
        <time>2021-06-11T17:32:40Z</time>
      </trkpt>
      <trkpt lat="36.952315" lon="-1.98169">
        <ele>116.044</ele>
        <time>2021-06-11T17:32:42Z</time>
      </trkpt>
      <trkpt lat="36.952229" lon="-1.981859">
        <ele>117.339</ele>
        <time>2021-06-11T17:32:43Z</time>
      </trkpt>
      <trkpt lat="36.95206" lon="-1.982205">
        <ele>119.101</ele>
        <time>2021-06-11T17:32:45Z</time>
      </trkpt>
      <trkpt lat="36.951974" lon="-1.982378">
        <ele>120.621</ele>
        <time>2021-06-11T17:32:46Z</time>
      </trkpt>
      <trkpt lat="36.951812" lon="-1.982703">
        <ele>122.808</ele>
        <time>2021-06-11T17:32:48Z</time>
      </trkpt>
      <trkpt lat="36.951712" lon="-1.982913">
        <ele>124.380</ele>
        <time>2021-06-11T17:32:49Z</time>
      </trkpt>
      <trkpt lat="36.951572" lon="-1.983245">
        <ele>125.678</ele>
        <time>2021-06-11T17:32:51Z</time>
      </trkpt>
      <trkpt lat="36.951482" lon="-1.983452">
        <ele>126.818</ele>
        <time>2021-06-11T17:32:52Z</time>
      </trkpt>
      <trkpt lat="36.951315" lon="-1.983816">
        <ele>127.796</ele>
        <time>2021-06-11T17:32:54Z</time>
      </trkpt>
      <trkpt lat="36.951228" lon="-1.984003">
        <ele>128.261</ele>
        <time>2021-06-11T17:32:55Z</time>
      </trkpt>
      <trkpt lat="36.951141" lon="-1.984193">
        <ele>129.092</ele>
        <time>2021-06-11T17:32:56Z</time>
      </trkpt>
      <trkpt lat="36.951055" lon="-1.984387">
        <ele>129.246</ele>
        <time>2021-06-11T17:32:57Z</time>
      </trkpt>
      <trkpt lat="36.950971" lon="-1.984585">
        <ele>130.079</ele>
        <time>2021-06-11T17:32:58Z</time>
      </trkpt>
      <trkpt lat="36.950809" lon="-1.984975">
        <ele>130.729</ele>
        <time>2021-06-11T17:33:00Z</time>
      </trkpt>
      <trkpt lat="36.950657" lon="-1.985361">
        <ele>131.700</ele>
        <time>2021-06-11T17:33:02Z</time>
      </trkpt>
      <trkpt lat="36.95058" lon="-1.985557">
        <ele>132.720</ele>
        <time>2021-06-11T17:33:03Z</time>
      </trkpt>
      <trkpt lat="36.950433" lon="-1.985908">
        <ele>132.408</ele>
        <time>2021-06-11T17:33:05Z</time>
      </trkpt>
      <trkpt lat="36.950357" lon="-1.986091">
        <ele>131.779</ele>
        <time>2021-06-11T17:33:06Z</time>
      </trkpt>
      <trkpt lat="36.950287" lon="-1.986269">
        <ele>131.287</ele>
        <time>2021-06-11T17:33:07Z</time>
      </trkpt>
      <trkpt lat="36.950209" lon="-1.986467">
        <ele>130.167</ele>
        <time>2021-06-11T17:33:08Z</time>
      </trkpt>
      <trkpt lat="36.950088" lon="-1.986776">
        <ele>128.985</ele>
        <time>2021-06-11T17:33:10Z</time>
      </trkpt>
      <trkpt lat="36.949988" lon="-1.987026">
        <ele>127.870</ele>
        <time>2021-06-11T17:33:12Z</time>
      </trkpt>
      <trkpt lat="36.949895" lon="-1.987248">
        <ele>127.031</ele>
        <time>2021-06-11T17:33:14Z</time>
      </trkpt>
      <trkpt lat="36.949848" lon="-1.987354">
        <ele>126.715</ele>
        <time>2021-06-11T17:33:15Z</time>
      </trkpt>
      <trkpt lat="36.949751" lon="-1.987562">
        <ele>125.468</ele>
        <time>2021-06-11T17:33:17Z</time>
      </trkpt>
      <trkpt lat="36.949635" lon="-1.987813">
        <ele>124.436</ele>
        <time>2021-06-11T17:33:19Z</time>
      </trkpt>
      <trkpt lat="36.949581" lon="-1.987963">
        <ele>124.117</ele>
        <time>2021-06-11T17:33:20Z</time>
      </trkpt>
      <trkpt lat="36.949518" lon="-1.988208">
        <ele>123.818</ele>
        <time>2021-06-11T17:33:22Z</time>
      </trkpt>
      <trkpt lat="36.949436" lon="-1.988507">
        <ele>124.308</ele>
        <time>2021-06-11T17:33:24Z</time>
      </trkpt>
      <trkpt lat="36.949352" lon="-1.988838">
        <ele>125.410</ele>
        <time>2021-06-11T17:33:26Z</time>
      </trkpt>
      <trkpt lat="36.949311" lon="-1.989057">
        <ele>126.968</ele>
        <time>2021-06-11T17:33:27Z</time>
      </trkpt>
      <trkpt lat="36.949248" lon="-1.989452">
        <ele>128.468</ele>
        <time>2021-06-11T17:33:29Z</time>
      </trkpt>
      <trkpt lat="36.949217" lon="-1.989642">
        <ele>129.596</ele>
        <time>2021-06-11T17:33:30Z</time>
      </trkpt>
      <trkpt lat="36.949168" lon="-1.990056">
        <ele>129.321</ele>
        <time>2021-06-11T17:33:32Z</time>
      </trkpt>
      <trkpt lat="36.949145" lon="-1.990275">
        <ele>128.952</ele>
        <time>2021-06-11T17:33:33Z</time>
      </trkpt>
      <trkpt lat="36.949121" lon="-1.990503">
        <ele>128.356</ele>
        <time>2021-06-11T17:33:34Z</time>
      </trkpt>
      <trkpt lat="36.949076" lon="-1.990935">
        <ele>127.679</ele>
        <time>2021-06-11T17:33:36Z</time>
      </trkpt>
      <trkpt lat="36.949002" lon="-1.991443">
        <ele>127.767</ele>
        <time>2021-06-11T17:33:38Z</time>
      </trkpt>
      <trkpt lat="36.948923" lon="-1.991872">
        <ele>128.281</ele>
        <time>2021-06-11T17:33:40Z</time>
      </trkpt>
      <trkpt lat="36.948886" lon="-1.992091">
        <ele>128.619</ele>
        <time>2021-06-11T17:33:41Z</time>
      </trkpt>
      <trkpt lat="36.948824" lon="-1.992552">
        <ele>129.408</ele>
        <time>2021-06-11T17:33:43Z</time>
      </trkpt>
      <trkpt lat="36.948763" lon="-1.992997">
        <ele>130.183</ele>
        <time>2021-06-11T17:33:45Z</time>
      </trkpt>
      <trkpt lat="36.948727" lon="-1.993223">
        <ele>130.571</ele>
        <time>2021-06-11T17:33:46Z</time>
      </trkpt>
      <trkpt lat="36.948688" lon="-1.99345">
        <ele>131.071</ele>
        <time>2021-06-11T17:33:47Z</time>
      </trkpt>
      <trkpt lat="36.948645" lon="-1.993676">
        <ele>131.519</ele>
        <time>2021-06-11T17:33:48Z</time>
      </trkpt>
      <trkpt lat="36.948593" lon="-1.9939">
        <ele>131.854</ele>
        <time>2021-06-11T17:33:49Z</time>
      </trkpt>
      <trkpt lat="36.948447" lon="-1.994335">
        <ele>131.985</ele>
        <time>2021-06-11T17:33:51Z</time>
      </trkpt>
      <trkpt lat="36.948348" lon="-1.994539">
        <ele>132.129</ele>
        <time>2021-06-11T17:33:52Z</time>
      </trkpt>
      <trkpt lat="36.94814" lon="-1.994919">
        <ele>132.622</ele>
        <time>2021-06-11T17:33:54Z</time>
      </trkpt>
      <trkpt lat="36.947947" lon="-1.995303">
        <ele>133.141</ele>
        <time>2021-06-11T17:33:56Z</time>
      </trkpt>
      <trkpt lat="36.9478" lon="-1.995727">
        <ele>134.681</ele>
        <time>2021-06-11T17:33:58Z</time>
      </trkpt>
      <trkpt lat="36.947731" lon="-1.995922">
        <ele>136.009</ele>
        <time>2021-06-11T17:33:59Z</time>
      </trkpt>
      <trkpt lat="36.947588" lon="-1.996306">
        <ele>136.708</ele>
        <time>2021-06-11T17:34:01Z</time>
      </trkpt>
      <trkpt lat="36.947512" lon="-1.996499">
        <ele>137.731</ele>
        <time>2021-06-11T17:34:02Z</time>
      </trkpt>
      <trkpt lat="36.947371" lon="-1.996859">
        <ele>138.489</ele>
        <time>2021-06-11T17:34:04Z</time>
      </trkpt>
      <trkpt lat="36.947213" lon="-1.997273">
        <ele>139.389</ele>
        <time>2021-06-11T17:34:06Z</time>
      </trkpt>
      <trkpt lat="36.947049" lon="-1.997718">
        <ele>140.077</ele>
        <time>2021-06-11T17:34:08Z</time>
      </trkpt>
      <trkpt lat="36.946975" lon="-1.997924">
        <ele>140.062</ele>
        <time>2021-06-11T17:34:09Z</time>
      </trkpt>
      <trkpt lat="36.946818" lon="-1.998358">
        <ele>139.533</ele>
        <time>2021-06-11T17:34:11Z</time>
      </trkpt>
      <trkpt lat="36.946743" lon="-1.998565">
        <ele>139.427</ele>
        <time>2021-06-11T17:34:12Z</time>
      </trkpt>
      <trkpt lat="36.946608" lon="-1.998968">
        <ele>139.560</ele>
        <time>2021-06-11T17:34:14Z</time>
      </trkpt>
      <trkpt lat="36.946545" lon="-1.999347">
        <ele>139.631</ele>
        <time>2021-06-11T17:34:16Z</time>
      </trkpt>
      <trkpt lat="36.946613" lon="-1.999728">
        <ele>139.561</ele>
        <time>2021-06-11T17:34:18Z</time>
      </trkpt>
      <trkpt lat="36.946761" lon="-2.000086">
        <ele>139.807</ele>
        <time>2021-06-11T17:34:20Z</time>
      </trkpt>
      <trkpt lat="36.946861" lon="-2.000315">
        <ele>140.208</ele>
        <time>2021-06-11T17:34:21Z</time>
      </trkpt>
      <trkpt lat="36.947013" lon="-2.000702">
        <ele>140.790</ele>
        <time>2021-06-11T17:34:23Z</time>
      </trkpt>
      <trkpt lat="36.947089" lon="-2.000918">
        <ele>141.698</ele>
        <time>2021-06-11T17:34:24Z</time>
      </trkpt>
      <trkpt lat="36.947165" lon="-2.001133">
        <ele>142.168</ele>
        <time>2021-06-11T17:34:25Z</time>
      </trkpt>
      <trkpt lat="36.947249" lon="-2.001373">
        <ele>142.886</ele>
        <time>2021-06-11T17:34:26Z</time>
      </trkpt>
      <trkpt lat="36.947319" lon="-2.001576">
        <ele>143.291</ele>
        <time>2021-06-11T17:34:27Z</time>
      </trkpt>
      <trkpt lat="36.947387" lon="-2.001785">
        <ele>143.612</ele>
        <time>2021-06-11T17:34:28Z</time>
      </trkpt>
      <trkpt lat="36.947532" lon="-2.002208">
        <ele>144.846</ele>
        <time>2021-06-11T17:34:30Z</time>
      </trkpt>
      <trkpt lat="36.947675" lon="-2.002642">
        <ele>145.959</ele>
        <time>2021-06-11T17:34:32Z</time>
      </trkpt>
      <trkpt lat="36.947807" lon="-2.003068">
        <ele>146.912</ele>
        <time>2021-06-11T17:34:34Z</time>
      </trkpt>
      <trkpt lat="36.947874" lon="-2.003277">
        <ele>148.132</ele>
        <time>2021-06-11T17:34:35Z</time>
      </trkpt>
      <trkpt lat="36.94799" lon="-2.003666">
        <ele>150.005</ele>
        <time>2021-06-11T17:34:37Z</time>
      </trkpt>
      <trkpt lat="36.948041" lon="-2.004138">
        <ele>152.508</ele>
        <time>2021-06-11T17:34:39Z</time>
      </trkpt>
      <trkpt lat="36.948028" lon="-2.004356">
        <ele>154.788</ele>
        <time>2021-06-11T17:34:40Z</time>
      </trkpt>
      <trkpt lat="36.948007" lon="-2.004579">
        <ele>156.276</ele>
        <time>2021-06-11T17:34:41Z</time>
      </trkpt>
      <trkpt lat="36.947956" lon="-2.005045">
        <ele>158.536</ele>
        <time>2021-06-11T17:34:43Z</time>
      </trkpt>
      <trkpt lat="36.947913" lon="-2.005499">
        <ele>160.884</ele>
        <time>2021-06-11T17:34:45Z</time>
      </trkpt>
      <trkpt lat="36.947872" lon="-2.005931">
        <ele>162.679</ele>
        <time>2021-06-11T17:34:47Z</time>
      </trkpt>
      <trkpt lat="36.947837" lon="-2.006429">
        <ele>165.610</ele>
        <time>2021-06-11T17:34:49Z</time>
      </trkpt>
      <trkpt lat="36.947832" lon="-2.006703">
        <ele>168.334</ele>
        <time>2021-06-11T17:34:50Z</time>
      </trkpt>
      <trkpt lat="36.94783" lon="-2.007137">
        <ele>171.617</ele>
        <time>2021-06-11T17:34:52Z</time>
      </trkpt>
      <trkpt lat="36.947828" lon="-2.007393">
        <ele>174.234</ele>
        <time>2021-06-11T17:34:53Z</time>
      </trkpt>
      <trkpt lat="36.947828" lon="-2.007636">
        <ele>176.755</ele>
        <time>2021-06-11T17:34:54Z</time>
      </trkpt>
      <trkpt lat="36.947828" lon="-2.007863">
        <ele>178.510</ele>
        <time>2021-06-11T17:34:55Z</time>
      </trkpt>
      <trkpt lat="36.947836" lon="-2.008322">
        <ele>181.008</ele>
        <time>2021-06-11T17:34:57Z</time>
      </trkpt>
      <trkpt lat="36.947859" lon="-2.00855">
        <ele>183.160</ele>
        <time>2021-06-11T17:34:58Z</time>
      </trkpt>
      <trkpt lat="36.947884" lon="-2.008776">
        <ele>184.918</ele>
        <time>2021-06-11T17:34:59Z</time>
      </trkpt>
      <trkpt lat="36.947893" lon="-2.009199">
        <ele>186.998</ele>
        <time>2021-06-11T17:35:01Z</time>
      </trkpt>
      <trkpt lat="36.947779" lon="-2.009552">
        <ele>189.926</ele>
        <time>2021-06-11T17:35:03Z</time>
      </trkpt>
      <trkpt lat="36.94759" lon="-2.00985">
        <ele>192.851</ele>
        <time>2021-06-11T17:35:05Z</time>
      </trkpt>
      <trkpt lat="36.947481" lon="-2.01002">
        <ele>194.542</ele>
        <time>2021-06-11T17:35:06Z</time>
      </trkpt>
      <trkpt lat="36.947273" lon="-2.010382">
        <ele>195.616</ele>
        <time>2021-06-11T17:35:08Z</time>
      </trkpt>
      <trkpt lat="36.947166" lon="-2.010582">
        <ele>196.119</ele>
        <time>2021-06-11T17:35:09Z</time>
      </trkpt>
      <trkpt lat="36.946941" lon="-2.010994">
        <ele>196.969</ele>
        <time>2021-06-11T17:35:11Z</time>
      </trkpt>
      <trkpt lat="36.946806" lon="-2.011227">
        <ele>197.704</ele>
        <time>2021-06-11T17:35:12Z</time>
      </trkpt>
      <trkpt lat="36.946591" lon="-2.011602">
        <ele>199.224</ele>
        <time>2021-06-11T17:35:14Z</time>
      </trkpt>
      <trkpt lat="36.946401" lon="-2.01197">
        <ele>201.108</ele>
        <time>2021-06-11T17:35:16Z</time>
      </trkpt>
      <trkpt lat="36.946231" lon="-2.012353">
        <ele>203.443</ele>
        <time>2021-06-11T17:35:18Z</time>
      </trkpt>
      <trkpt lat="36.946149" lon="-2.012575">
        <ele>205.081</ele>
        <time>2021-06-11T17:35:19Z</time>
      </trkpt>
      <trkpt lat="36.946032" lon="-2.012987">
        <ele>207.051</ele>
        <time>2021-06-11T17:35:21Z</time>
      </trkpt>
      <trkpt lat="36.945861" lon="-2.013331">
        <ele>209.119</ele>
        <time>2021-06-11T17:35:23Z</time>
      </trkpt>
      <trkpt lat="36.94563" lon="-2.013645">
        <ele>210.744</ele>
        <time>2021-06-11T17:35:25Z</time>
      </trkpt>
      <trkpt lat="36.945529" lon="-2.013833">
        <ele>211.945</ele>
        <time>2021-06-11T17:35:26Z</time>
      </trkpt>
      <trkpt lat="36.945322" lon="-2.014221">
        <ele>212.729</ele>
        <time>2021-06-11T17:35:28Z</time>
      </trkpt>
      <trkpt lat="36.945097" lon="-2.014625">
        <ele>213.942</ele>
        <time>2021-06-11T17:35:30Z</time>
      </trkpt>
      <trkpt lat="36.944936" lon="-2.015021">
        <ele>214.323</ele>
        <time>2021-06-11T17:35:32Z</time>
      </trkpt>
      <trkpt lat="36.944894" lon="-2.015234">
        <ele>215.283</ele>
        <time>2021-06-11T17:35:33Z</time>
      </trkpt>
      <trkpt lat="36.944868" lon="-2.015454">
        <ele>215.511</ele>
        <time>2021-06-11T17:35:34Z</time>
      </trkpt>
      <trkpt lat="36.944787" lon="-2.01587">
        <ele>215.608</ele>
        <time>2021-06-11T17:35:36Z</time>
      </trkpt>
      <trkpt lat="36.944591" lon="-2.016292">
        <ele>215.619</ele>
        <time>2021-06-11T17:35:38Z</time>
      </trkpt>
      <trkpt lat="36.944462" lon="-2.016515">
        <ele>215.347</ele>
        <time>2021-06-11T17:35:39Z</time>
      </trkpt>
      <trkpt lat="36.944367" lon="-2.016707">
        <ele>214.587</ele>
        <time>2021-06-11T17:35:40Z</time>
      </trkpt>
      <trkpt lat="36.944286" lon="-2.016914">
        <ele>213.635</ele>
        <time>2021-06-11T17:35:41Z</time>
      </trkpt>
      <trkpt lat="36.944106" lon="-2.017328">
        <ele>213.040</ele>
        <time>2021-06-11T17:35:43Z</time>
      </trkpt>
      <trkpt lat="36.943992" lon="-2.017509">
        <ele>212.531</ele>
        <time>2021-06-11T17:35:44Z</time>
      </trkpt>
      <trkpt lat="36.94386" lon="-2.017665">
        <ele>212.965</ele>
        <time>2021-06-11T17:35:45Z</time>
      </trkpt>
      <trkpt lat="36.943565" lon="-2.017874">
        <ele>213.328</ele>
        <time>2021-06-11T17:35:47Z</time>
      </trkpt>
      <trkpt lat="36.94337" lon="-2.017986">
        <ele>213.898</ele>
        <time>2021-06-11T17:35:48Z</time>
      </trkpt>
      <trkpt lat="36.94321" lon="-2.018076">
        <ele>214.115</ele>
        <time>2021-06-11T17:35:49Z</time>
      </trkpt>
      <trkpt lat="36.942955" lon="-2.018326">
        <ele>215.326</ele>
        <time>2021-06-11T17:35:51Z</time>
      </trkpt>
      <trkpt lat="36.942855" lon="-2.018487">
        <ele>216.308</ele>
        <time>2021-06-11T17:35:52Z</time>
      </trkpt>
      <trkpt lat="36.942759" lon="-2.018662">
        <ele>217.056</ele>
        <time>2021-06-11T17:35:53Z</time>
      </trkpt>
      <trkpt lat="36.94257" lon="-2.019026">
        <ele>218.254</ele>
        <time>2021-06-11T17:35:55Z</time>
      </trkpt>
      <trkpt lat="36.942358" lon="-2.019398">
        <ele>219.324</ele>
        <time>2021-06-11T17:35:57Z</time>
      </trkpt>
      <trkpt lat="36.942242" lon="-2.019567">
        <ele>220.272</ele>
        <time>2021-06-11T17:35:58Z</time>
      </trkpt>
      <trkpt lat="36.941979" lon="-2.019883">
        <ele>220.377</ele>
        <time>2021-06-11T17:36:00Z</time>
      </trkpt>
      <trkpt lat="36.941853" lon="-2.020034">
        <ele>220.788</ele>
        <time>2021-06-11T17:36:01Z</time>
      </trkpt>
      <trkpt lat="36.941749" lon="-2.02019">
        <ele>221.372</ele>
        <time>2021-06-11T17:36:02Z</time>
      </trkpt>
      <trkpt lat="36.941624" lon="-2.020557">
        <ele>221.935</ele>
        <time>2021-06-11T17:36:04Z</time>
      </trkpt>
      <trkpt lat="36.941576" lon="-2.020773">
        <ele>222.591</ele>
        <time>2021-06-11T17:36:05Z</time>
      </trkpt>
      <trkpt lat="36.941526" lon="-2.02102">
        <ele>223.181</ele>
        <time>2021-06-11T17:36:06Z</time>
      </trkpt>
      <trkpt lat="36.941458" lon="-2.021428">
        <ele>223.519</ele>
        <time>2021-06-11T17:36:08Z</time>
      </trkpt>
      <trkpt lat="36.941418" lon="-2.021691">
        <ele>223.708</ele>
        <time>2021-06-11T17:36:09Z</time>
      </trkpt>
      <trkpt lat="36.941352" lon="-2.022111">
        <ele>223.896</ele>
        <time>2021-06-11T17:36:11Z</time>
      </trkpt>
      <trkpt lat="36.941275" lon="-2.022342">
        <ele>223.924</ele>
        <time>2021-06-11T17:36:12Z</time>
      </trkpt>
      <trkpt lat="36.941171" lon="-2.022499">
        <ele>224.074</ele>
        <time>2021-06-11T17:36:13Z</time>
      </trkpt>
      <trkpt lat="36.940873" lon="-2.022752">
        <ele>224.082</ele>
        <time>2021-06-11T17:36:15Z</time>
      </trkpt>
      <trkpt lat="36.94056" lon="-2.022996">
        <ele>224.127</ele>
        <time>2021-06-11T17:36:17Z</time>
      </trkpt>
      <trkpt lat="36.940398" lon="-2.023121">
        <ele>224.368</ele>
        <time>2021-06-11T17:36:18Z</time>
      </trkpt>
      <trkpt lat="36.940241" lon="-2.023255">
        <ele>224.332</ele>
        <time>2021-06-11T17:36:19Z</time>
      </trkpt>
      <trkpt lat="36.940082" lon="-2.02339">
        <ele>224.325</ele>
        <time>2021-06-11T17:36:20Z</time>
      </trkpt>
      <trkpt lat="36.939751" lon="-2.023673">
        <ele>224.786</ele>
        <time>2021-06-11T17:36:22Z</time>
      </trkpt>
      <trkpt lat="36.939453" lon="-2.02394">
        <ele>224.960</ele>
        <time>2021-06-11T17:36:24Z</time>
      </trkpt>
      <trkpt lat="36.939279" lon="-2.024117">
        <ele>225.126</ele>
        <time>2021-06-11T17:36:25Z</time>
      </trkpt>
      <trkpt lat="36.938991" lon="-2.02442">
        <ele>225.908</ele>
        <time>2021-06-11T17:36:27Z</time>
      </trkpt>
      <trkpt lat="36.938858" lon="-2.024558">
        <ele>226.375</ele>
        <time>2021-06-11T17:36:28Z</time>
      </trkpt>
      <trkpt lat="36.938728" lon="-2.02469">
        <ele>226.363</ele>
        <time>2021-06-11T17:36:29Z</time>
      </trkpt>
      <trkpt lat="36.938484" lon="-2.024937">
        <ele>226.733</ele>
        <time>2021-06-11T17:36:31Z</time>
      </trkpt>
      <trkpt lat="36.938376" lon="-2.025057">
        <ele>226.891</ele>
        <time>2021-06-11T17:36:32Z</time>
      </trkpt>
      <trkpt lat="36.938273" lon="-2.025172">
        <ele>226.986</ele>
        <time>2021-06-11T17:36:33Z</time>
      </trkpt>
      <trkpt lat="36.938066" lon="-2.025377">
        <ele>227.247</ele>
        <time>2021-06-11T17:36:35Z</time>
      </trkpt>
      <trkpt lat="36.937903" lon="-2.025598">
        <ele>226.931</ele>
        <time>2021-06-11T17:36:37Z</time>
      </trkpt>
      <trkpt lat="36.937831" lon="-2.025752">
        <ele>226.524</ele>
        <time>2021-06-11T17:36:38Z</time>
      </trkpt>
      <trkpt lat="36.937721" lon="-2.026107">
        <ele>226.241</ele>
        <time>2021-06-11T17:36:40Z</time>
      </trkpt>
      <trkpt lat="36.937683" lon="-2.026293">
        <ele>226.081</ele>
        <time>2021-06-11T17:36:41Z</time>
      </trkpt>
      <trkpt lat="36.937643" lon="-2.026499">
        <ele>225.809</ele>
        <time>2021-06-11T17:36:42Z</time>
      </trkpt>
      <trkpt lat="36.937583" lon="-2.02684">
        <ele>225.308</ele>
        <time>2021-06-11T17:36:44Z</time>
      </trkpt>
      <trkpt lat="36.937465" lon="-2.027199">
        <ele>225.141</ele>
        <time>2021-06-11T17:36:46Z</time>
      </trkpt>
      <trkpt lat="36.937385" lon="-2.027334">
        <ele>224.699</ele>
        <time>2021-06-11T17:36:47Z</time>
      </trkpt>
      <trkpt lat="36.937288" lon="-2.027466">
        <ele>224.089</ele>
        <time>2021-06-11T17:36:48Z</time>
      </trkpt>
      <trkpt lat="36.937096" lon="-2.027716">
        <ele>223.727</ele>
        <time>2021-06-11T17:36:50Z</time>
      </trkpt>
      <trkpt lat="36.936977" lon="-2.027895">
        <ele>223.282</ele>
        <time>2021-06-11T17:36:51Z</time>
      </trkpt>
      <trkpt lat="36.936793" lon="-2.028218">
        <ele>222.313</ele>
        <time>2021-06-11T17:36:53Z</time>
      </trkpt>
      <trkpt lat="36.936624" lon="-2.028542">
        <ele>221.367</ele>
        <time>2021-06-11T17:36:55Z</time>
      </trkpt>
      <trkpt lat="36.936495" lon="-2.028884">
        <ele>220.690</ele>
        <time>2021-06-11T17:36:57Z</time>
      </trkpt>
      <trkpt lat="36.936442" lon="-2.029284">
        <ele>219.994</ele>
        <time>2021-06-11T17:36:59Z</time>
      </trkpt>
      <trkpt lat="36.936477" lon="-2.029683">
        <ele>219.057</ele>
        <time>2021-06-11T17:37:01Z</time>
      </trkpt>
      <trkpt lat="36.936489" lon="-2.030059">
        <ele>218.122</ele>
        <time>2021-06-11T17:37:03Z</time>
      </trkpt>
      <trkpt lat="36.936472" lon="-2.030251">
        <ele>217.408</ele>
        <time>2021-06-11T17:37:04Z</time>
      </trkpt>
      <trkpt lat="36.936362" lon="-2.030599">
        <ele>216.816</ele>
        <time>2021-06-11T17:37:06Z</time>
      </trkpt>
      <trkpt lat="36.936164" lon="-2.030919">
        <ele>215.974</ele>
        <time>2021-06-11T17:37:08Z</time>
      </trkpt>
      <trkpt lat="36.936052" lon="-2.031077">
        <ele>215.524</ele>
        <time>2021-06-11T17:37:09Z</time>
      </trkpt>
      <trkpt lat="36.935827" lon="-2.031417">
        <ele>214.952</ele>
        <time>2021-06-11T17:37:11Z</time>
      </trkpt>
      <trkpt lat="36.935606" lon="-2.031777">
        <ele>214.077</ele>
        <time>2021-06-11T17:37:13Z</time>
      </trkpt>
      <trkpt lat="36.935396" lon="-2.032144">
        <ele>212.998</ele>
        <time>2021-06-11T17:37:15Z</time>
      </trkpt>
      <trkpt lat="36.935218" lon="-2.032534">
        <ele>212.172</ele>
        <time>2021-06-11T17:37:17Z</time>
      </trkpt>
      <trkpt lat="36.935069" lon="-2.032954">
        <ele>211.535</ele>
        <time>2021-06-11T17:37:19Z</time>
      </trkpt>
      <trkpt lat="36.934993" lon="-2.033165">
        <ele>211.371</ele>
        <time>2021-06-11T17:37:20Z</time>
      </trkpt>
      <trkpt lat="36.934839" lon="-2.03358">
        <ele>211.041</ele>
        <time>2021-06-11T17:37:22Z</time>
      </trkpt>
      <trkpt lat="36.93476" lon="-2.033786">
        <ele>211.215</ele>
        <time>2021-06-11T17:37:23Z</time>
      </trkpt>
      <trkpt lat="36.934678" lon="-2.033991">
        <ele>211.108</ele>
        <time>2021-06-11T17:37:24Z</time>
      </trkpt>
      <trkpt lat="36.934482" lon="-2.034378">
        <ele>211.534</ele>
        <time>2021-06-11T17:37:26Z</time>
      </trkpt>
      <trkpt lat="36.934353" lon="-2.034579">
        <ele>211.792</ele>
        <time>2021-06-11T17:37:27Z</time>
      </trkpt>
      <trkpt lat="36.934233" lon="-2.034739">
        <ele>212.082</ele>
        <time>2021-06-11T17:37:28Z</time>
      </trkpt>
      <trkpt lat="36.933968" lon="-2.035033">
        <ele>211.780</ele>
        <time>2021-06-11T17:37:30Z</time>
      </trkpt>
      <trkpt lat="36.933826" lon="-2.035158">
        <ele>211.565</ele>
        <time>2021-06-11T17:37:31Z</time>
      </trkpt>
      <trkpt lat="36.933683" lon="-2.035281">
        <ele>211.256</ele>
        <time>2021-06-11T17:37:32Z</time>
      </trkpt>
      <trkpt lat="36.933435" lon="-2.035589">
        <ele>211.060</ele>
        <time>2021-06-11T17:37:34Z</time>
      </trkpt>
      <trkpt lat="36.933236" lon="-2.035975">
        <ele>210.993</ele>
        <time>2021-06-11T17:37:36Z</time>
      </trkpt>
      <trkpt lat="36.933101" lon="-2.036368">
        <ele>210.768</ele>
        <time>2021-06-11T17:37:38Z</time>
      </trkpt>
      <trkpt lat="36.932988" lon="-2.036824">
        <ele>210.442</ele>
        <time>2021-06-11T17:37:40Z</time>
      </trkpt>
      <trkpt lat="36.932834" lon="-2.03719">
        <ele>210.226</ele>
        <time>2021-06-11T17:37:42Z</time>
      </trkpt>
      <trkpt lat="36.932629" lon="-2.037516">
        <ele>210.308</ele>
        <time>2021-06-11T17:37:44Z</time>
      </trkpt>
      <trkpt lat="36.932418" lon="-2.037815">
        <ele>210.423</ele>
        <time>2021-06-11T17:37:46Z</time>
      </trkpt>
      <trkpt lat="36.932173" lon="-2.038094">
        <ele>210.461</ele>
        <time>2021-06-11T17:37:48Z</time>
      </trkpt>
      <trkpt lat="36.93194" lon="-2.038301">
        <ele>210.631</ele>
        <time>2021-06-11T17:37:50Z</time>
      </trkpt>
      <trkpt lat="36.931864" lon="-2.038402">
        <ele>211.039</ele>
        <time>2021-06-11T17:37:51Z</time>
      </trkpt>
      <trkpt lat="36.931793" lon="-2.038682">
        <ele>210.954</ele>
        <time>2021-06-11T17:37:53Z</time>
      </trkpt>
      <trkpt lat="36.931705" lon="-2.038968">
        <ele>210.595</ele>
        <time>2021-06-11T17:37:55Z</time>
      </trkpt>
      <trkpt lat="36.931516" lon="-2.039165">
        <ele>210.889</ele>
        <time>2021-06-11T17:37:57Z</time>
      </trkpt>
      <trkpt lat="36.931375" lon="-2.039276">
        <ele>210.732</ele>
        <time>2021-06-11T17:37:58Z</time>
      </trkpt>
      <trkpt lat="36.931264" lon="-2.039382">
        <ele>210.663</ele>
        <time>2021-06-11T17:37:59Z</time>
      </trkpt>
      <trkpt lat="36.931091" lon="-2.039663">
        <ele>211.144</ele>
        <time>2021-06-11T17:38:01Z</time>
      </trkpt>
      <trkpt lat="36.931033" lon="-2.039829">
        <ele>211.518</ele>
        <time>2021-06-11T17:38:02Z</time>
      </trkpt>
      <trkpt lat="36.930968" lon="-2.040198">
        <ele>211.008</ele>
        <time>2021-06-11T17:38:04Z</time>
      </trkpt>
      <trkpt lat="36.930941" lon="-2.040406">
        <ele>211.153</ele>
        <time>2021-06-11T17:38:05Z</time>
      </trkpt>
      <trkpt lat="36.930904" lon="-2.040641">
        <ele>211.011</ele>
        <time>2021-06-11T17:38:06Z</time>
      </trkpt>
      <trkpt lat="36.930841" lon="-2.041042">
        <ele>210.831</ele>
        <time>2021-06-11T17:38:08Z</time>
      </trkpt>
      <trkpt lat="36.93077" lon="-2.041517">
        <ele>210.559</ele>
        <time>2021-06-11T17:38:10Z</time>
      </trkpt>
      <trkpt lat="36.930732" lon="-2.041762">
        <ele>210.234</ele>
        <time>2021-06-11T17:38:11Z</time>
      </trkpt>
      <trkpt lat="36.930656" lon="-2.042219">
        <ele>209.745</ele>
        <time>2021-06-11T17:38:13Z</time>
      </trkpt>
      <trkpt lat="36.930587" lon="-2.042664">
        <ele>209.079</ele>
        <time>2021-06-11T17:38:15Z</time>
      </trkpt>
      <trkpt lat="36.930528" lon="-2.043114">
        <ele>207.972</ele>
        <time>2021-06-11T17:38:17Z</time>
      </trkpt>
      <trkpt lat="36.930504" lon="-2.043333">
        <ele>206.986</ele>
        <time>2021-06-11T17:38:18Z</time>
      </trkpt>
      <trkpt lat="36.930476" lon="-2.043548">
        <ele>206.160</ele>
        <time>2021-06-11T17:38:19Z</time>
      </trkpt>
      <trkpt lat="36.930407" lon="-2.043963">
        <ele>205.626</ele>
        <time>2021-06-11T17:38:21Z</time>
      </trkpt>
      <trkpt lat="36.93036" lon="-2.044218">
        <ele>205.508</ele>
        <time>2021-06-11T17:38:22Z</time>
      </trkpt>
      <trkpt lat="36.930265" lon="-2.044663">
        <ele>205.055</ele>
        <time>2021-06-11T17:38:24Z</time>
      </trkpt>
      <trkpt lat="36.930218" lon="-2.044889">
        <ele>204.883</ele>
        <time>2021-06-11T17:38:25Z</time>
      </trkpt>
      <trkpt lat="36.930128" lon="-2.045327">
        <ele>204.473</ele>
        <time>2021-06-11T17:38:27Z</time>
      </trkpt>
      <trkpt lat="36.930093" lon="-2.04555">
        <ele>204.141</ele>
        <time>2021-06-11T17:38:28Z</time>
      </trkpt>
      <trkpt lat="36.930031" lon="-2.046004">
        <ele>203.696</ele>
        <time>2021-06-11T17:38:30Z</time>
      </trkpt>
      <trkpt lat="36.929996" lon="-2.046215">
        <ele>202.967</ele>
        <time>2021-06-11T17:38:31Z</time>
      </trkpt>
      <trkpt lat="36.929951" lon="-2.046431">
        <ele>202.311</ele>
        <time>2021-06-11T17:38:32Z</time>
      </trkpt>
      <trkpt lat="36.929904" lon="-2.04665">
        <ele>201.994</ele>
        <time>2021-06-11T17:38:33Z</time>
      </trkpt>
      <trkpt lat="36.929798" lon="-2.047093">
        <ele>201.556</ele>
        <time>2021-06-11T17:38:35Z</time>
      </trkpt>
      <trkpt lat="36.929686" lon="-2.047527">
        <ele>200.559</ele>
        <time>2021-06-11T17:38:37Z</time>
      </trkpt>
      <trkpt lat="36.929579" lon="-2.047945">
        <ele>199.914</ele>
        <time>2021-06-11T17:38:39Z</time>
      </trkpt>
      <trkpt lat="36.929517" lon="-2.048195">
        <ele>199.508</ele>
        <time>2021-06-11T17:38:40Z</time>
      </trkpt>
      <trkpt lat="36.929413" lon="-2.048604">
        <ele>199.252</ele>
        <time>2021-06-11T17:38:42Z</time>
      </trkpt>
      <trkpt lat="36.929357" lon="-2.048807">
        <ele>199.220</ele>
        <time>2021-06-11T17:38:43Z</time>
      </trkpt>
      <trkpt lat="36.92924" lon="-2.049218">
        <ele>199.380</ele>
        <time>2021-06-11T17:38:45Z</time>
      </trkpt>
      <trkpt lat="36.929135" lon="-2.049622">
        <ele>199.568</ele>
        <time>2021-06-11T17:38:47Z</time>
      </trkpt>
      <trkpt lat="36.929076" lon="-2.049856">
        <ele>199.753</ele>
        <time>2021-06-11T17:38:48Z</time>
      </trkpt>
      <trkpt lat="36.929024" lon="-2.050044">
        <ele>199.784</ele>
        <time>2021-06-11T17:38:49Z</time>
      </trkpt>
      <trkpt lat="36.928907" lon="-2.050414">
        <ele>200.248</ele>
        <time>2021-06-11T17:38:51Z</time>
      </trkpt>
      <trkpt lat="36.928846" lon="-2.050595">
        <ele>200.871</ele>
        <time>2021-06-11T17:38:52Z</time>
      </trkpt>
      <trkpt lat="36.928739" lon="-2.050947">
        <ele>201.099</ele>
        <time>2021-06-11T17:38:54Z</time>
      </trkpt>
      <trkpt lat="36.928634" lon="-2.051254">
        <ele>201.207</ele>
        <time>2021-06-11T17:38:56Z</time>
      </trkpt>
      <trkpt lat="36.928442" lon="-2.051505">
        <ele>201.627</ele>
        <time>2021-06-11T17:38:58Z</time>
      </trkpt>
      <trkpt lat="36.928192" lon="-2.051711">
        <ele>202.108</ele>
        <time>2021-06-11T17:39:00Z</time>
      </trkpt>
      <trkpt lat="36.928037" lon="-2.051836">
        <ele>202.816</ele>
        <time>2021-06-11T17:39:01Z</time>
      </trkpt>
      <trkpt lat="36.927903" lon="-2.051954">
        <ele>203.394</ele>
        <time>2021-06-11T17:39:02Z</time>
      </trkpt>
      <trkpt lat="36.927772" lon="-2.052096">
        <ele>203.994</ele>
        <time>2021-06-11T17:39:03Z</time>
      </trkpt>
      <trkpt lat="36.927517" lon="-2.052397">
        <ele>204.652</ele>
        <time>2021-06-11T17:39:05Z</time>
      </trkpt>
      <trkpt lat="36.927359" lon="-2.052577">
        <ele>204.997</ele>
        <time>2021-06-11T17:39:06Z</time>
      </trkpt>
      <trkpt lat="36.927085" lon="-2.052813">
        <ele>205.688</ele>
        <time>2021-06-11T17:39:08Z</time>
      </trkpt>
      <trkpt lat="36.926925" lon="-2.052927">
        <ele>206.072</ele>
        <time>2021-06-11T17:39:09Z</time>
      </trkpt>
      <trkpt lat="36.92676" lon="-2.053033">
        <ele>206.255</ele>
        <time>2021-06-11T17:39:10Z</time>
      </trkpt>
      <trkpt lat="36.926478" lon="-2.053196">
        <ele>206.068</ele>
        <time>2021-06-11T17:39:12Z</time>
      </trkpt>
      <trkpt lat="36.926315" lon="-2.053323">
        <ele>205.742</ele>
        <time>2021-06-11T17:39:13Z</time>
      </trkpt>
      <trkpt lat="36.926183" lon="-2.053456">
        <ele>205.426</ele>
        <time>2021-06-11T17:39:14Z</time>
      </trkpt>
      <trkpt lat="36.925939" lon="-2.05377">
        <ele>205.308</ele>
        <time>2021-06-11T17:39:16Z</time>
      </trkpt>
      <trkpt lat="36.925817" lon="-2.053935">
        <ele>205.283</ele>
        <time>2021-06-11T17:39:17Z</time>
      </trkpt>
      <trkpt lat="36.925588" lon="-2.054263">
        <ele>204.741</ele>
        <time>2021-06-11T17:39:19Z</time>
      </trkpt>
      <trkpt lat="36.925392" lon="-2.054618">
        <ele>204.081</ele>
        <time>2021-06-11T17:39:21Z</time>
      </trkpt>
      <trkpt lat="36.925225" lon="-2.055007">
        <ele>204.049</ele>
        <time>2021-06-11T17:39:23Z</time>
      </trkpt>
      <trkpt lat="36.925147" lon="-2.055213">
        <ele>203.644</ele>
        <time>2021-06-11T17:39:24Z</time>
      </trkpt>
      <trkpt lat="36.925002" lon="-2.055637">
        <ele>203.475</ele>
        <time>2021-06-11T17:39:26Z</time>
      </trkpt>
      <trkpt lat="36.924889" lon="-2.056051">
        <ele>202.729</ele>
        <time>2021-06-11T17:39:28Z</time>
      </trkpt>
      <trkpt lat="36.924778" lon="-2.056465">
        <ele>202.022</ele>
        <time>2021-06-11T17:39:30Z</time>
      </trkpt>
      <trkpt lat="36.924674" lon="-2.056838">
        <ele>200.984</ele>
        <time>2021-06-11T17:39:32Z</time>
      </trkpt>
      <trkpt lat="36.92461" lon="-2.057071">
        <ele>200.107</ele>
        <time>2021-06-11T17:39:33Z</time>
      </trkpt>
      <trkpt lat="36.924574" lon="-2.057259">
        <ele>199.017</ele>
        <time>2021-06-11T17:39:34Z</time>
      </trkpt>
      <trkpt lat="36.924552" lon="-2.057639">
        <ele>198.108</ele>
        <time>2021-06-11T17:39:36Z</time>
      </trkpt>
      <trkpt lat="36.924523" lon="-2.057977">
        <ele>197.525</ele>
        <time>2021-06-11T17:39:38Z</time>
      </trkpt>
      <trkpt lat="36.924485" lon="-2.058174">
        <ele>196.943</ele>
        <time>2021-06-11T17:39:39Z</time>
      </trkpt>
      <trkpt lat="36.924444" lon="-2.058387">
        <ele>196.893</ele>
        <time>2021-06-11T17:39:40Z</time>
      </trkpt>
      <trkpt lat="36.92442" lon="-2.058775">
        <ele>196.651</ele>
        <time>2021-06-11T17:39:42Z</time>
      </trkpt>
      <trkpt lat="36.924428" lon="-2.059173">
        <ele>195.836</ele>
        <time>2021-06-11T17:39:44Z</time>
      </trkpt>
      <trkpt lat="36.924421" lon="-2.059364">
        <ele>195.147</ele>
        <time>2021-06-11T17:39:45Z</time>
      </trkpt>
      <trkpt lat="36.924362" lon="-2.059731">
        <ele>194.361</ele>
        <time>2021-06-11T17:39:47Z</time>
      </trkpt>
      <trkpt lat="36.924315" lon="-2.059892">
        <ele>193.664</ele>
        <time>2021-06-11T17:39:48Z</time>
      </trkpt>
      <trkpt lat="36.924235" lon="-2.06008">
        <ele>193.194</ele>
        <time>2021-06-11T17:39:50Z</time>
      </trkpt>
      <trkpt lat="36.924081" lon="-2.06029">
        <ele>192.457</ele>
        <time>2021-06-11T17:39:51Z</time>
      </trkpt>
      <trkpt lat="36.923898" lon="-2.060495">
        <ele>191.222</ele>
        <time>2021-06-11T17:39:53Z</time>
      </trkpt>
      <trkpt lat="36.923797" lon="-2.060601">
        <ele>190.108</ele>
        <time>2021-06-11T17:39:54Z</time>
      </trkpt>
      <trkpt lat="36.92364" lon="-2.060764">
        <ele>188.916</ele>
        <time>2021-06-11T17:39:56Z</time>
      </trkpt>
      <trkpt lat="36.92356" lon="-2.060875">
        <ele>188.094</ele>
        <time>2021-06-11T17:39:57Z</time>
      </trkpt>
      <trkpt lat="36.92351" lon="-2.060984">
        <ele>187.054</ele>
        <time>2021-06-11T17:39:58Z</time>
      </trkpt>
      <trkpt lat="36.92343" lon="-2.061252">
        <ele>186.712</ele>
        <time>2021-06-11T17:40:00Z</time>
      </trkpt>
      <trkpt lat="36.923324" lon="-2.06149">
        <ele>187.177</ele>
        <time>2021-06-11T17:40:02Z</time>
      </trkpt>
      <trkpt lat="36.923178" lon="-2.061719">
        <ele>188.268</ele>
        <time>2021-06-11T17:40:04Z</time>
      </trkpt>
      <trkpt lat="36.9231" lon="-2.061808">
        <ele>189.152</ele>
        <time>2021-06-11T17:40:05Z</time>
      </trkpt>
      <trkpt lat="36.923014" lon="-2.061888">
        <ele>189.615</ele>
        <time>2021-06-11T17:40:06Z</time>
      </trkpt>
      <trkpt lat="36.922918" lon="-2.061956">
        <ele>189.733</ele>
        <time>2021-06-11T17:40:07Z</time>
      </trkpt>
      <trkpt lat="36.922706" lon="-2.062069">
        <ele>189.623</ele>
        <time>2021-06-11T17:40:09Z</time>
      </trkpt>
      <trkpt lat="36.922605" lon="-2.06212">
        <ele>189.515</ele>
        <time>2021-06-11T17:40:10Z</time>
      </trkpt>
      <trkpt lat="36.922428" lon="-2.06221">
        <ele>189.408</ele>
        <time>2021-06-11T17:40:12Z</time>
      </trkpt>
      <trkpt lat="36.922301" lon="-2.06231">
        <ele>189.620</ele>
        <time>2021-06-11T17:40:14Z</time>
      </trkpt>
      <trkpt lat="36.922193" lon="-2.062427">
        <ele>189.988</ele>
        <time>2021-06-11T17:40:16Z</time>
      </trkpt>
      <trkpt lat="36.922094" lon="-2.062606">
        <ele>190.178</ele>
        <time>2021-06-11T17:40:18Z</time>
      </trkpt>
      <trkpt lat="36.921974" lon="-2.062807">
        <ele>190.326</ele>
        <time>2021-06-11T17:40:20Z</time>
      </trkpt>
      <trkpt lat="36.921816" lon="-2.063013">
        <ele>190.281</ele>
        <time>2021-06-11T17:40:22Z</time>
      </trkpt>
      <trkpt lat="36.921641" lon="-2.063204">
        <ele>190.472</ele>
        <time>2021-06-11T17:40:24Z</time>
      </trkpt>
      <trkpt lat="36.921554" lon="-2.063291">
        <ele>190.646</ele>
        <time>2021-06-11T17:40:25Z</time>
      </trkpt>
      <trkpt lat="36.921469" lon="-2.063367">
        <ele>190.919</ele>
        <time>2021-06-11T17:40:26Z</time>
      </trkpt>
      <trkpt lat="36.921305" lon="-2.063473">
        <ele>191.118</ele>
        <time>2021-06-11T17:40:28Z</time>
      </trkpt>
      <trkpt lat="36.921219" lon="-2.063523">
        <ele>191.398</ele>
        <time>2021-06-11T17:40:29Z</time>
      </trkpt>
      <trkpt lat="36.921061" lon="-2.063585">
        <ele>191.817</ele>
        <time>2021-06-11T17:40:31Z</time>
      </trkpt>
      <trkpt lat="36.920857" lon="-2.063639">
        <ele>192.008</ele>
        <time>2021-06-11T17:40:33Z</time>
      </trkpt>
      <trkpt lat="36.92075" lon="-2.063676">
        <ele>192.258</ele>
        <time>2021-06-11T17:40:34Z</time>
      </trkpt>
      <trkpt lat="36.920518" lon="-2.06375">
        <ele>192.356</ele>
        <time>2021-06-11T17:40:36Z</time>
      </trkpt>
      <trkpt lat="36.920403" lon="-2.063775">
        <ele>192.246</ele>
        <time>2021-06-11T17:40:37Z</time>
      </trkpt>
      <trkpt lat="36.920173" lon="-2.063785">
        <ele>192.594</ele>
        <time>2021-06-11T17:40:39Z</time>
      </trkpt>
      <trkpt lat="36.920032" lon="-2.063794">
        <ele>192.799</ele>
        <time>2021-06-11T17:40:40Z</time>
      </trkpt>
      <trkpt lat="36.919906" lon="-2.063806">
        <ele>192.820</ele>
        <time>2021-06-11T17:40:41Z</time>
      </trkpt>
      <trkpt lat="36.919658" lon="-2.063866">
        <ele>193.334</ele>
        <time>2021-06-11T17:40:43Z</time>
      </trkpt>
      <trkpt lat="36.919392" lon="-2.063974">
        <ele>193.237</ele>
        <time>2021-06-11T17:40:45Z</time>
      </trkpt>
      <trkpt lat="36.919138" lon="-2.064076">
        <ele>192.993</ele>
        <time>2021-06-11T17:40:47Z</time>
      </trkpt>
      <trkpt lat="36.918984" lon="-2.064104">
        <ele>193.265</ele>
        <time>2021-06-11T17:40:48Z</time>
      </trkpt>
      <trkpt lat="36.918847" lon="-2.064107">
        <ele>193.321</ele>
        <time>2021-06-11T17:40:49Z</time>
      </trkpt>
      <trkpt lat="36.918572" lon="-2.064117">
        <ele>193.208</ele>
        <time>2021-06-11T17:40:51Z</time>
      </trkpt>
      <trkpt lat="36.918314" lon="-2.064166">
        <ele>193.666</ele>
        <time>2021-06-11T17:40:53Z</time>
      </trkpt>
      <trkpt lat="36.918069" lon="-2.064272">
        <ele>194.044</ele>
        <time>2021-06-11T17:40:55Z</time>
      </trkpt>
      <trkpt lat="36.917818" lon="-2.064386">
        <ele>194.124</ele>
        <time>2021-06-11T17:40:57Z</time>
      </trkpt>
      <trkpt lat="36.917662" lon="-2.064441">
        <ele>194.642</ele>
        <time>2021-06-11T17:40:58Z</time>
      </trkpt>
      <trkpt lat="36.917381" lon="-2.064489">
        <ele>195.217</ele>
        <time>2021-06-11T17:41:00Z</time>
      </trkpt>
      <trkpt lat="36.917248" lon="-2.064501">
        <ele>195.528</ele>
        <time>2021-06-11T17:41:01Z</time>
      </trkpt>
      <trkpt lat="36.916967" lon="-2.064559">
        <ele>196.022</ele>
        <time>2021-06-11T17:41:03Z</time>
      </trkpt>
      <trkpt lat="36.916705" lon="-2.06467">
        <ele>196.285</ele>
        <time>2021-06-11T17:41:05Z</time>
      </trkpt>
      <trkpt lat="36.916543" lon="-2.064728">
        <ele>196.438</ele>
        <time>2021-06-11T17:41:06Z</time>
      </trkpt>
      <trkpt lat="36.916406" lon="-2.064771">
        <ele>196.470</ele>
        <time>2021-06-11T17:41:07Z</time>
      </trkpt>
      <trkpt lat="36.916129" lon="-2.064828">
        <ele>196.617</ele>
        <time>2021-06-11T17:41:09Z</time>
      </trkpt>
      <trkpt lat="36.915982" lon="-2.064854">
        <ele>197.108</ele>
        <time>2021-06-11T17:41:10Z</time>
      </trkpt>
      <trkpt lat="36.91584" lon="-2.064874">
        <ele>197.180</ele>
        <time>2021-06-11T17:41:11Z</time>
      </trkpt>
      <trkpt lat="36.915701" lon="-2.064895">
        <ele>197.148</ele>
        <time>2021-06-11T17:41:12Z</time>
      </trkpt>
      <trkpt lat="36.915488" lon="-2.064936">
        <ele>197.548</ele>
        <time>2021-06-11T17:41:14Z</time>
      </trkpt>
      <trkpt lat="36.915366" lon="-2.064963">
        <ele>197.516</ele>
        <time>2021-06-11T17:41:15Z</time>
      </trkpt>
      <trkpt lat="36.915267" lon="-2.064984">
        <ele>197.611</ele>
        <time>2021-06-11T17:41:16Z</time>
      </trkpt>
      <trkpt lat="36.915067" lon="-2.065022">
        <ele>197.872</ele>
        <time>2021-06-11T17:41:18Z</time>
      </trkpt>
      <trkpt lat="36.914964" lon="-2.065041">
        <ele>198.126</ele>
        <time>2021-06-11T17:41:19Z</time>
      </trkpt>
      <trkpt lat="36.914865" lon="-2.065061">
        <ele>198.569</ele>
        <time>2021-06-11T17:41:20Z</time>
      </trkpt>
      <trkpt lat="36.914712" lon="-2.065098">
        <ele>199.243</ele>
        <time>2021-06-11T17:41:22Z</time>
      </trkpt>
      <trkpt lat="36.914649" lon="-2.065107">
        <ele>199.364</ele>
        <time>2021-06-11T17:41:23Z</time>
      </trkpt>
      <trkpt lat="36.914514" lon="-2.06513">
        <ele>200.010</ele>
        <time>2021-06-11T17:41:25Z</time>
      </trkpt>
      <trkpt lat="36.914343" lon="-2.065157">
        <ele>200.608</ele>
        <time>2021-06-11T17:41:27Z</time>
      </trkpt>
      <trkpt lat="36.914151" lon="-2.065187">
        <ele>201.071</ele>
        <time>2021-06-11T17:41:29Z</time>
      </trkpt>
      <trkpt lat="36.914029" lon="-2.065203">
        <ele>201.129</ele>
        <time>2021-06-11T17:41:30Z</time>
      </trkpt>
      <trkpt lat="36.913919" lon="-2.065217">
        <ele>201.469</ele>
        <time>2021-06-11T17:41:31Z</time>
      </trkpt>
      <trkpt lat="36.913693" lon="-2.065223">
        <ele>201.067</ele>
        <time>2021-06-11T17:41:33Z</time>
      </trkpt>
      <trkpt lat="36.91349" lon="-2.065222">
        <ele>200.592</ele>
        <time>2021-06-11T17:41:35Z</time>
      </trkpt>
      <trkpt lat="36.913306" lon="-2.065211">
        <ele>199.993</ele>
        <time>2021-06-11T17:41:37Z</time>
      </trkpt>
      <trkpt lat="36.913156" lon="-2.065204">
        <ele>199.377</ele>
        <time>2021-06-11T17:41:39Z</time>
      </trkpt>
      <trkpt lat="36.913029" lon="-2.065221">
        <ele>198.850</ele>
        <time>2021-06-11T17:41:41Z</time>
      </trkpt>
      <trkpt lat="36.912979" lon="-2.065241">
        <ele>198.394</ele>
        <time>2021-06-11T17:41:42Z</time>
      </trkpt>
      <trkpt lat="36.912919" lon="-2.065275">
        <ele>198.057</ele>
        <time>2021-06-11T17:41:45Z</time>
      </trkpt>
      <trkpt lat="36.912874" lon="-2.065261">
        <ele>197.522</ele>
        <time>2021-06-11T17:41:46Z</time>
      </trkpt>
      <trkpt lat="36.912816" lon="-2.06522">
        <ele>197.408</ele>
        <time>2021-06-11T17:41:47Z</time>
      </trkpt>
      <trkpt lat="36.912688" lon="-2.065074">
        <ele>197.246</ele>
        <time>2021-06-11T17:41:49Z</time>
      </trkpt>
      <trkpt lat="36.912512" lon="-2.064871">
        <ele>197.534</ele>
        <time>2021-06-11T17:41:51Z</time>
      </trkpt>
      <trkpt lat="36.912331" lon="-2.064681">
        <ele>198.254</ele>
        <time>2021-06-11T17:41:53Z</time>
      </trkpt>
      <trkpt lat="36.912153" lon="-2.064459">
        <ele>198.972</ele>
        <time>2021-06-11T17:41:55Z</time>
      </trkpt>
      <trkpt lat="36.91199" lon="-2.064204">
        <ele>199.147</ele>
        <time>2021-06-11T17:41:57Z</time>
      </trkpt>
      <trkpt lat="36.911841" lon="-2.063959">
        <ele>199.188</ele>
        <time>2021-06-11T17:41:59Z</time>
      </trkpt>
      <trkpt lat="36.911668" lon="-2.063743">
        <ele>199.522</ele>
        <time>2021-06-11T17:42:01Z</time>
      </trkpt>
      <trkpt lat="36.911563" lon="-2.063645">
        <ele>199.675</ele>
        <time>2021-06-11T17:42:02Z</time>
      </trkpt>
      <trkpt lat="36.911454" lon="-2.063558">
        <ele>199.842</ele>
        <time>2021-06-11T17:42:03Z</time>
      </trkpt>
      <trkpt lat="36.911257" lon="-2.063435">
        <ele>200.122</ele>
        <time>2021-06-11T17:42:05Z</time>
      </trkpt>
      <trkpt lat="36.911137" lon="-2.063363">
        <ele>200.314</ele>
        <time>2021-06-11T17:42:06Z</time>
      </trkpt>
      <trkpt lat="36.910942" lon="-2.063232">
        <ele>200.808</ele>
        <time>2021-06-11T17:42:08Z</time>
      </trkpt>
      <trkpt lat="36.910751" lon="-2.063024">
        <ele>201.381</ele>
        <time>2021-06-11T17:42:10Z</time>
      </trkpt>
      <trkpt lat="36.910679" lon="-2.062894">
        <ele>201.599</ele>
        <time>2021-06-11T17:42:11Z</time>
      </trkpt>
      <trkpt lat="36.910551" lon="-2.062598">
        <ele>201.549</ele>
        <time>2021-06-11T17:42:13Z</time>
      </trkpt>
      <trkpt lat="36.910436" lon="-2.062332">
        <ele>201.847</ele>
        <time>2021-06-11T17:42:15Z</time>
      </trkpt>
      <trkpt lat="36.910364" lon="-2.0622">
        <ele>202.112</ele>
        <time>2021-06-11T17:42:16Z</time>
      </trkpt>
      <trkpt lat="36.910189" lon="-2.061942">
        <ele>203.353</ele>
        <time>2021-06-11T17:42:18Z</time>
      </trkpt>
      <trkpt lat="36.910094" lon="-2.061821">
        <ele>203.757</ele>
        <time>2021-06-11T17:42:19Z</time>
      </trkpt>
      <trkpt lat="36.909895" lon="-2.061567">
        <ele>204.390</ele>
        <time>2021-06-11T17:42:21Z</time>
      </trkpt>
      <trkpt lat="36.909667" lon="-2.061302">
        <ele>204.736</ele>
        <time>2021-06-11T17:42:23Z</time>
      </trkpt>
      <trkpt lat="36.909406" lon="-2.061049">
        <ele>205.417</ele>
        <time>2021-06-11T17:42:25Z</time>
      </trkpt>
      <trkpt lat="36.909273" lon="-2.060917">
        <ele>205.918</ele>
        <time>2021-06-11T17:42:26Z</time>
      </trkpt>
      <trkpt lat="36.909031" lon="-2.060621">
        <ele>206.408</ele>
        <time>2021-06-11T17:42:28Z</time>
      </trkpt>
      <trkpt lat="36.908872" lon="-2.06023">
        <ele>207.380</ele>
        <time>2021-06-11T17:42:30Z</time>
      </trkpt>
      <trkpt lat="36.908849" lon="-2.060015">
        <ele>208.298</ele>
        <time>2021-06-11T17:42:31Z</time>
      </trkpt>
      <trkpt lat="36.908884" lon="-2.059558">
        <ele>208.898</ele>
        <time>2021-06-11T17:42:33Z</time>
      </trkpt>
      <trkpt lat="36.908909" lon="-2.05934">
        <ele>209.046</ele>
        <time>2021-06-11T17:42:34Z</time>
      </trkpt>
      <trkpt lat="36.908959" lon="-2.058897">
        <ele>209.451</ele>
        <time>2021-06-11T17:42:36Z</time>
      </trkpt>
      <trkpt lat="36.908981" lon="-2.058653">
        <ele>210.042</ele>
        <time>2021-06-11T17:42:37Z</time>
      </trkpt>
      <trkpt lat="36.909009" lon="-2.058257">
        <ele>211.026</ele>
        <time>2021-06-11T17:42:39Z</time>
      </trkpt>
      <trkpt lat="36.909039" lon="-2.05783">
        <ele>212.369</ele>
        <time>2021-06-11T17:42:41Z</time>
      </trkpt>
      <trkpt lat="36.909048" lon="-2.057614">
        <ele>213.348</ele>
        <time>2021-06-11T17:42:42Z</time>
      </trkpt>
      <trkpt lat="36.909052" lon="-2.05742">
        <ele>214.161</ele>
        <time>2021-06-11T17:42:43Z</time>
      </trkpt>
      <trkpt lat="36.909049" lon="-2.057217">
        <ele>214.517</ele>
        <time>2021-06-11T17:42:44Z</time>
      </trkpt>
      <trkpt lat="36.909033" lon="-2.056809">
        <ele>214.908</ele>
        <time>2021-06-11T17:42:46Z</time>
      </trkpt>
      <trkpt lat="36.909016" lon="-2.056405">
        <ele>215.261</ele>
        <time>2021-06-11T17:42:48Z</time>
      </trkpt>
      <trkpt lat="36.908996" lon="-2.056159">
        <ele>215.749</ele>
        <time>2021-06-11T17:42:49Z</time>
      </trkpt>
      <trkpt lat="36.908934" lon="-2.055718">
        <ele>215.719</ele>
        <time>2021-06-11T17:42:51Z</time>
      </trkpt>
      <trkpt lat="36.908859" lon="-2.05532">
        <ele>216.017</ele>
        <time>2021-06-11T17:42:53Z</time>
      </trkpt>
      <trkpt lat="36.908802" lon="-2.055065">
        <ele>216.562</ele>
        <time>2021-06-11T17:42:54Z</time>
      </trkpt>
      <trkpt lat="36.908739" lon="-2.054861">
        <ele>217.223</ele>
        <time>2021-06-11T17:42:55Z</time>
      </trkpt>
      <trkpt lat="36.908669" lon="-2.054657">
        <ele>217.637</ele>
        <time>2021-06-11T17:42:56Z</time>
      </trkpt>
      <trkpt lat="36.90851" lon="-2.054269">
        <ele>218.210</ele>
        <time>2021-06-11T17:42:58Z</time>
      </trkpt>
      <trkpt lat="36.908387" lon="-2.054045">
        <ele>218.697</ele>
        <time>2021-06-11T17:42:59Z</time>
      </trkpt>
      <trkpt lat="36.908263" lon="-2.053871">
        <ele>218.723</ele>
        <time>2021-06-11T17:43:00Z</time>
      </trkpt>
      <trkpt lat="36.90813" lon="-2.053705">
        <ele>218.725</ele>
        <time>2021-06-11T17:43:01Z</time>
      </trkpt>
      <trkpt lat="36.907831" lon="-2.053391">
        <ele>219.308</ele>
        <time>2021-06-11T17:43:03Z</time>
      </trkpt>
      <trkpt lat="36.907557" lon="-2.053112">
        <ele>219.646</ele>
        <time>2021-06-11T17:43:05Z</time>
      </trkpt>
      <trkpt lat="36.907395" lon="-2.052927">
        <ele>220.174</ele>
        <time>2021-06-11T17:43:06Z</time>
      </trkpt>
      <trkpt lat="36.90726" lon="-2.052764">
        <ele>220.764</ele>
        <time>2021-06-11T17:43:07Z</time>
      </trkpt>
      <trkpt lat="36.907004" lon="-2.05245">
        <ele>221.132</ele>
        <time>2021-06-11T17:43:09Z</time>
      </trkpt>
      <trkpt lat="36.906864" lon="-2.05228">
        <ele>221.797</ele>
        <time>2021-06-11T17:43:10Z</time>
      </trkpt>
      <trkpt lat="36.906709" lon="-2.052094">
        <ele>222.698</ele>
        <time>2021-06-11T17:43:11Z</time>
      </trkpt>
      <trkpt lat="36.906581" lon="-2.051942">
        <ele>223.072</ele>
        <time>2021-06-11T17:43:12Z</time>
      </trkpt>
      <trkpt lat="36.906452" lon="-2.051791">
        <ele>223.855</ele>
        <time>2021-06-11T17:43:13Z</time>
      </trkpt>
      <trkpt lat="36.906188" lon="-2.051477">
        <ele>224.723</ele>
        <time>2021-06-11T17:43:15Z</time>
      </trkpt>
      <trkpt lat="36.906063" lon="-2.051333">
        <ele>225.483</ele>
        <time>2021-06-11T17:43:16Z</time>
      </trkpt>
      <trkpt lat="36.9058" lon="-2.051036">
        <ele>226.111</ele>
        <time>2021-06-11T17:43:18Z</time>
      </trkpt>
      <trkpt lat="36.90567" lon="-2.050891">
        <ele>226.608</ele>
        <time>2021-06-11T17:43:19Z</time>
      </trkpt>
      <trkpt lat="36.905414" lon="-2.050598">
        <ele>227.229</ele>
        <time>2021-06-11T17:43:21Z</time>
      </trkpt>
      <trkpt lat="36.905169" lon="-2.050319">
        <ele>227.997</ele>
        <time>2021-06-11T17:43:23Z</time>
      </trkpt>
      <trkpt lat="36.905013" lon="-2.050145">
        <ele>228.777</ele>
        <time>2021-06-11T17:43:24Z</time>
      </trkpt>
      <trkpt lat="36.904877" lon="-2.050012">
        <ele>229.935</ele>
        <time>2021-06-11T17:43:25Z</time>
      </trkpt>
      <trkpt lat="36.904552" lon="-2.04981">
        <ele>231.790</ele>
        <time>2021-06-11T17:43:27Z</time>
      </trkpt>
      <trkpt lat="36.904205" lon="-2.049677">
        <ele>233.821</ele>
        <time>2021-06-11T17:43:29Z</time>
      </trkpt>
      <trkpt lat="36.904" lon="-2.049608">
        <ele>235.315</ele>
        <time>2021-06-11T17:43:30Z</time>
      </trkpt>
      <trkpt lat="36.903662" lon="-2.049505">
        <ele>236.398</ele>
        <time>2021-06-11T17:43:32Z</time>
      </trkpt>
      <trkpt lat="36.903485" lon="-2.049461">
        <ele>237.822</ele>
        <time>2021-06-11T17:43:33Z</time>
      </trkpt>
      <trkpt lat="36.903143" lon="-2.04942">
        <ele>239.362</ele>
        <time>2021-06-11T17:43:35Z</time>
      </trkpt>
      <trkpt lat="36.902913" lon="-2.049412">
        <ele>240.808</ele>
        <time>2021-06-11T17:43:36Z</time>
      </trkpt>
      <trkpt lat="36.902535" lon="-2.049415">
        <ele>242.008</ele>
        <time>2021-06-11T17:43:38Z</time>
      </trkpt>
      <trkpt lat="36.902337" lon="-2.049419">
        <ele>243.199</ele>
        <time>2021-06-11T17:43:39Z</time>
      </trkpt>
      <trkpt lat="36.901966" lon="-2.049435">
        <ele>244.747</ele>
        <time>2021-06-11T17:43:41Z</time>
      </trkpt>
      <trkpt lat="36.901758" lon="-2.049437">
        <ele>245.747</ele>
        <time>2021-06-11T17:43:42Z</time>
      </trkpt>
      <trkpt lat="36.901349" lon="-2.049427">
        <ele>247.025</ele>
        <time>2021-06-11T17:43:44Z</time>
      </trkpt>
      <trkpt lat="36.900941" lon="-2.049425">
        <ele>248.770</ele>
        <time>2021-06-11T17:43:46Z</time>
      </trkpt>
      <trkpt lat="36.900533" lon="-2.049422">
        <ele>250.371</ele>
        <time>2021-06-11T17:43:48Z</time>
      </trkpt>
      <trkpt lat="36.900329" lon="-2.049419">
        <ele>251.525</ele>
        <time>2021-06-11T17:43:49Z</time>
      </trkpt>
      <trkpt lat="36.899901" lon="-2.049415">
        <ele>252.628</ele>
        <time>2021-06-11T17:43:51Z</time>
      </trkpt>
      <trkpt lat="36.899538" lon="-2.04942">
        <ele>253.946</ele>
        <time>2021-06-11T17:43:53Z</time>
      </trkpt>
      <trkpt lat="36.899338" lon="-2.049423">
        <ele>255.188</ele>
        <time>2021-06-11T17:43:54Z</time>
      </trkpt>
      <trkpt lat="36.899144" lon="-2.049426">
        <ele>256.216</ele>
        <time>2021-06-11T17:43:55Z</time>
      </trkpt>
      <trkpt lat="36.898955" lon="-2.049425">
        <ele>257.308</ele>
        <time>2021-06-11T17:43:56Z</time>
      </trkpt>
      <trkpt lat="36.898767" lon="-2.049422">
        <ele>258.121</ele>
        <time>2021-06-11T17:43:57Z</time>
      </trkpt>
      <trkpt lat="36.898387" lon="-2.049396">
        <ele>258.599</ele>
        <time>2021-06-11T17:43:59Z</time>
      </trkpt>
      <trkpt lat="36.898015" lon="-2.049312">
        <ele>258.099</ele>
        <time>2021-06-11T17:44:01Z</time>
      </trkpt>
      <trkpt lat="36.897649" lon="-2.049155">
        <ele>257.517</ele>
        <time>2021-06-11T17:44:03Z</time>
      </trkpt>
      <trkpt lat="36.897278" lon="-2.048953">
        <ele>256.522</ele>
        <time>2021-06-11T17:44:05Z</time>
      </trkpt>
      <trkpt lat="36.897087" lon="-2.048839">
        <ele>255.763</ele>
        <time>2021-06-11T17:44:06Z</time>
      </trkpt>
      <trkpt lat="36.896695" lon="-2.048599">
        <ele>255.087</ele>
        <time>2021-06-11T17:44:08Z</time>
      </trkpt>
      <trkpt lat="36.896493" lon="-2.048478">
        <ele>253.940</ele>
        <time>2021-06-11T17:44:09Z</time>
      </trkpt>
      <trkpt lat="36.896076" lon="-2.048238">
        <ele>252.775</ele>
        <time>2021-06-11T17:44:11Z</time>
      </trkpt>
      <trkpt lat="36.895845" lon="-2.048108">
        <ele>251.528</ele>
        <time>2021-06-11T17:44:12Z</time>
      </trkpt>
      <trkpt lat="36.895444" lon="-2.047893">
        <ele>249.820</ele>
        <time>2021-06-11T17:44:14Z</time>
      </trkpt>
      <trkpt lat="36.895038" lon="-2.047678">
        <ele>247.808</ele>
        <time>2021-06-11T17:44:16Z</time>
      </trkpt>
      <trkpt lat="36.894623" lon="-2.047452">
        <ele>247.024</ele>
        <time>2021-06-11T17:44:18Z</time>
      </trkpt>
      <trkpt lat="36.894412" lon="-2.04733">
        <ele>247.152</ele>
        <time>2021-06-11T17:44:19Z</time>
      </trkpt>
      <trkpt lat="36.894011" lon="-2.047102">
        <ele>247.432</ele>
        <time>2021-06-11T17:44:21Z</time>
      </trkpt>
      <trkpt lat="36.893793" lon="-2.04698">
        <ele>248.020</ele>
        <time>2021-06-11T17:44:22Z</time>
      </trkpt>
      <trkpt lat="36.893551" lon="-2.04684">
        <ele>248.425</ele>
        <time>2021-06-11T17:44:23Z</time>
      </trkpt>
      <trkpt lat="36.893148" lon="-2.046618">
        <ele>249.026</ele>
        <time>2021-06-11T17:44:25Z</time>
      </trkpt>
      <trkpt lat="36.89273" lon="-2.046382">
        <ele>249.920</ele>
        <time>2021-06-11T17:44:27Z</time>
      </trkpt>
      <trkpt lat="36.892319" lon="-2.046145">
        <ele>251.033</ele>
        <time>2021-06-11T17:44:29Z</time>
      </trkpt>
      <trkpt lat="36.892123" lon="-2.046029">
        <ele>252.032</ele>
        <time>2021-06-11T17:44:30Z</time>
      </trkpt>
      <trkpt lat="36.891711" lon="-2.045793">
        <ele>253.292</ele>
        <time>2021-06-11T17:44:32Z</time>
      </trkpt>
      <trkpt lat="36.891343" lon="-2.04558">
        <ele>254.511</ele>
        <time>2021-06-11T17:44:34Z</time>
      </trkpt>
      <trkpt lat="36.891103" lon="-2.045441">
        <ele>255.708</ele>
        <time>2021-06-11T17:44:35Z</time>
      </trkpt>
      <trkpt lat="36.890907" lon="-2.04533">
        <ele>257.010</ele>
        <time>2021-06-11T17:44:36Z</time>
      </trkpt>
      <trkpt lat="36.890522" lon="-2.045109">
        <ele>257.988</ele>
        <time>2021-06-11T17:44:38Z</time>
      </trkpt>
      <trkpt lat="36.890308" lon="-2.044984">
        <ele>258.818</ele>
        <time>2021-06-11T17:44:39Z</time>
      </trkpt>
      <trkpt lat="36.889941" lon="-2.044773">
        <ele>259.376</ele>
        <time>2021-06-11T17:44:41Z</time>
      </trkpt>
      <trkpt lat="36.889735" lon="-2.044666">
        <ele>259.931</ele>
        <time>2021-06-11T17:44:42Z</time>
      </trkpt>
      <trkpt lat="36.88953" lon="-2.044567">
        <ele>260.592</ele>
        <time>2021-06-11T17:44:43Z</time>
      </trkpt>
      <trkpt lat="36.889098" lon="-2.044394">
        <ele>261.136</ele>
        <time>2021-06-11T17:44:45Z</time>
      </trkpt>
      <trkpt lat="36.8887" lon="-2.044278">
        <ele>261.939</ele>
        <time>2021-06-11T17:44:47Z</time>
      </trkpt>
      <trkpt lat="36.88834" lon="-2.04421">
        <ele>263.016</ele>
        <time>2021-06-11T17:44:49Z</time>
      </trkpt>
      <trkpt lat="36.8881" lon="-2.04419">
        <ele>263.876</ele>
        <time>2021-06-11T17:44:50Z</time>
      </trkpt>
      <trkpt lat="36.887898" lon="-2.044194">
        <ele>264.813</ele>
        <time>2021-06-11T17:44:51Z</time>
      </trkpt>
      <trkpt lat="36.887468" lon="-2.044212">
        <ele>265.508</ele>
        <time>2021-06-11T17:44:53Z</time>
      </trkpt>
      <trkpt lat="36.887041" lon="-2.044218">
        <ele>266.288</ele>
        <time>2021-06-11T17:44:55Z</time>
      </trkpt>
      <trkpt lat="36.886604" lon="-2.044155">
        <ele>266.636</ele>
        <time>2021-06-11T17:44:57Z</time>
      </trkpt>
      <trkpt lat="36.88616" lon="-2.044024">
        <ele>267.366</ele>
        <time>2021-06-11T17:44:59Z</time>
      </trkpt>
      <trkpt lat="36.885955" lon="-2.043948">
        <ele>267.724</ele>
        <time>2021-06-11T17:45:00Z</time>
      </trkpt>
      <trkpt lat="36.885751" lon="-2.043871">
        <ele>268.229</ele>
        <time>2021-06-11T17:45:01Z</time>
      </trkpt>
      <trkpt lat="36.885353" lon="-2.043732">
        <ele>268.510</ele>
        <time>2021-06-11T17:45:03Z</time>
      </trkpt>
      <trkpt lat="36.884965" lon="-2.043595">
        <ele>268.714</ele>
        <time>2021-06-11T17:45:05Z</time>
      </trkpt>
      <trkpt lat="36.884754" lon="-2.043508">
        <ele>269.177</ele>
        <time>2021-06-11T17:45:06Z</time>
      </trkpt>
      <trkpt lat="36.884432" lon="-2.043264">
        <ele>269.591</ele>
        <time>2021-06-11T17:45:08Z</time>
      </trkpt>
      <trkpt lat="36.884298" lon="-2.043098">
        <ele>269.881</ele>
        <time>2021-06-11T17:45:09Z</time>
      </trkpt>
      <trkpt lat="36.884074" lon="-2.042713">
        <ele>269.719</ele>
        <time>2021-06-11T17:45:11Z</time>
      </trkpt>
      <trkpt lat="36.883951" lon="-2.042481">
        <ele>269.708</ele>
        <time>2021-06-11T17:45:12Z</time>
      </trkpt>
      <trkpt lat="36.883759" lon="-2.042121">
        <ele>269.676</ele>
        <time>2021-06-11T17:45:14Z</time>
      </trkpt>
      <trkpt lat="36.883564" lon="-2.041776">
        <ele>268.954</ele>
        <time>2021-06-11T17:45:16Z</time>
      </trkpt>
      <trkpt lat="36.88338" lon="-2.041439">
        <ele>268.184</ele>
        <time>2021-06-11T17:45:18Z</time>
      </trkpt>
      <trkpt lat="36.883178" lon="-2.041087">
        <ele>266.682</ele>
        <time>2021-06-11T17:45:20Z</time>
      </trkpt>
      <trkpt lat="36.882984" lon="-2.040768">
        <ele>265.137</ele>
        <time>2021-06-11T17:45:22Z</time>
      </trkpt>
      <trkpt lat="36.882879" lon="-2.040592">
        <ele>264.058</ele>
        <time>2021-06-11T17:45:23Z</time>
      </trkpt>
      <trkpt lat="36.882778" lon="-2.040427">
        <ele>263.212</ele>
        <time>2021-06-11T17:45:24Z</time>
      </trkpt>
      <trkpt lat="36.882671" lon="-2.040261">
        <ele>262.475</ele>
        <time>2021-06-11T17:45:25Z</time>
      </trkpt>
      <trkpt lat="36.882444" lon="-2.039948">
        <ele>261.768</ele>
        <time>2021-06-11T17:45:27Z</time>
      </trkpt>
      <trkpt lat="36.882181" lon="-2.039665">
        <ele>260.642</ele>
        <time>2021-06-11T17:45:29Z</time>
      </trkpt>
      <trkpt lat="36.88191" lon="-2.039428">
        <ele>259.026</ele>
        <time>2021-06-11T17:45:31Z</time>
      </trkpt>
      <trkpt lat="36.881774" lon="-2.039304">
        <ele>257.408</ele>
        <time>2021-06-11T17:45:32Z</time>
      </trkpt>
      <trkpt lat="36.881502" lon="-2.039048">
        <ele>255.343</ele>
        <time>2021-06-11T17:45:34Z</time>
      </trkpt>
      <trkpt lat="36.88127" lon="-2.038817">
        <ele>253.571</ele>
        <time>2021-06-11T17:45:36Z</time>
      </trkpt>
      <trkpt lat="36.88106" lon="-2.038586">
        <ele>251.791</ele>
        <time>2021-06-11T17:45:38Z</time>
      </trkpt>
      <trkpt lat="36.880831" lon="-2.03832">
        <ele>249.219</ele>
        <time>2021-06-11T17:45:40Z</time>
      </trkpt>
      <trkpt lat="36.880724" lon="-2.038179">
        <ele>247.284</ele>
        <time>2021-06-11T17:45:41Z</time>
      </trkpt>
      <trkpt lat="36.880625" lon="-2.038031">
        <ele>245.685</ele>
        <time>2021-06-11T17:45:42Z</time>
      </trkpt>
      <trkpt lat="36.880538" lon="-2.037875">
        <ele>243.979</ele>
        <time>2021-06-11T17:45:43Z</time>
      </trkpt>
      <trkpt lat="36.880411" lon="-2.037459">
        <ele>240.972</ele>
        <time>2021-06-11T17:45:45Z</time>
      </trkpt>
      <trkpt lat="36.880372" lon="-2.037248">
        <ele>238.523</ele>
        <time>2021-06-11T17:45:46Z</time>
      </trkpt>
      <trkpt lat="36.880291" lon="-2.036834">
        <ele>235.783</ele>
        <time>2021-06-11T17:45:48Z</time>
      </trkpt>
      <trkpt lat="36.880229" lon="-2.036575">
        <ele>233.011</ele>
        <time>2021-06-11T17:45:49Z</time>
      </trkpt>
      <trkpt lat="36.880119" lon="-2.036153">
        <ele>229.308</ele>
        <time>2021-06-11T17:45:51Z</time>
      </trkpt>
      <trkpt lat="36.880008" lon="-2.03573">
        <ele>225.689</ele>
        <time>2021-06-11T17:45:53Z</time>
      </trkpt>
      <trkpt lat="36.879893" lon="-2.035274">
        <ele>222.947</ele>
        <time>2021-06-11T17:45:55Z</time>
      </trkpt>
      <trkpt lat="36.879844" lon="-2.035068">
        <ele>219.677</ele>
        <time>2021-06-11T17:45:56Z</time>
      </trkpt>
      <trkpt lat="36.879743" lon="-2.034658">
        <ele>216.285</ele>
        <time>2021-06-11T17:45:58Z</time>
      </trkpt>
      <trkpt lat="36.879647" lon="-2.034258">
        <ele>212.220</ele>
        <time>2021-06-11T17:46:00Z</time>
      </trkpt>
      <trkpt lat="36.879568" lon="-2.033862">
        <ele>208.271</ele>
        <time>2021-06-11T17:46:02Z</time>
      </trkpt>
      <trkpt lat="36.879586" lon="-2.033519">
        <ele>204.715</ele>
        <time>2021-06-11T17:46:04Z</time>
      </trkpt>
      <trkpt lat="36.879736" lon="-2.033177">
        <ele>200.778</ele>
        <time>2021-06-11T17:46:06Z</time>
      </trkpt>
      <trkpt lat="36.879844" lon="-2.033035">
        <ele>197.253</ele>
        <time>2021-06-11T17:46:07Z</time>
      </trkpt>
      <trkpt lat="36.880119" lon="-2.032858">
        <ele>194.104</ele>
        <time>2021-06-11T17:46:09Z</time>
      </trkpt>
      <trkpt lat="36.880275" lon="-2.032825">
        <ele>192.414</ele>
        <time>2021-06-11T17:46:10Z</time>
      </trkpt>
      <trkpt lat="36.880444" lon="-2.032818">
        <ele>190.508</ele>
        <time>2021-06-11T17:46:11Z</time>
      </trkpt>
      <trkpt lat="36.880732" lon="-2.032872">
        <ele>187.912</ele>
        <time>2021-06-11T17:46:13Z</time>
      </trkpt>
      <trkpt lat="36.881013" lon="-2.03295">
        <ele>184.870</ele>
        <time>2021-06-11T17:46:15Z</time>
      </trkpt>
      <trkpt lat="36.88127" lon="-2.032957">
        <ele>181.310</ele>
        <time>2021-06-11T17:46:17Z</time>
      </trkpt>
      <trkpt lat="36.88148" lon="-2.0328">
        <ele>178.478</ele>
        <time>2021-06-11T17:46:19Z</time>
      </trkpt>
      <trkpt lat="36.881539" lon="-2.032662">
        <ele>176.063</ele>
        <time>2021-06-11T17:46:20Z</time>
      </trkpt>
      <trkpt lat="36.881525" lon="-2.032335">
        <ele>173.784</ele>
        <time>2021-06-11T17:46:22Z</time>
      </trkpt>
      <trkpt lat="36.88146" lon="-2.032177">
        <ele>171.968</ele>
        <time>2021-06-11T17:46:23Z</time>
      </trkpt>
      <trkpt lat="36.881224" lon="-2.031942">
        <ele>169.451</ele>
        <time>2021-06-11T17:46:25Z</time>
      </trkpt>
      <trkpt lat="36.880896" lon="-2.031852">
        <ele>166.068</ele>
        <time>2021-06-11T17:46:27Z</time>
      </trkpt>
      <trkpt lat="36.880515" lon="-2.031827">
        <ele>162.542</ele>
        <time>2021-06-11T17:46:29Z</time>
      </trkpt>
      <trkpt lat="36.880309" lon="-2.031808">
        <ele>160.126</ele>
        <time>2021-06-11T17:46:30Z</time>
      </trkpt>
      <trkpt lat="36.879881" lon="-2.031774">
        <ele>158.208</ele>
        <time>2021-06-11T17:46:32Z</time>
      </trkpt>
      <trkpt lat="36.879651" lon="-2.031758">
        <ele>156.173</ele>
        <time>2021-06-11T17:46:33Z</time>
      </trkpt>
      <trkpt lat="36.87942" lon="-2.03174">
        <ele>154.411</ele>
        <time>2021-06-11T17:46:34Z</time>
      </trkpt>
      <trkpt lat="36.879195" lon="-2.031728">
        <ele>152.961</ele>
        <time>2021-06-11T17:46:35Z</time>
      </trkpt>
      <trkpt lat="36.878975" lon="-2.031728">
        <ele>151.799</ele>
        <time>2021-06-11T17:46:36Z</time>
      </trkpt>
      <trkpt lat="36.878538" lon="-2.031767">
        <ele>150.024</ele>
        <time>2021-06-11T17:46:38Z</time>
      </trkpt>
      <trkpt lat="36.878307" lon="-2.031808">
        <ele>149.065</ele>
        <time>2021-06-11T17:46:39Z</time>
      </trkpt>
      <trkpt lat="36.878076" lon="-2.031852">
        <ele>148.289</ele>
        <time>2021-06-11T17:46:40Z</time>
      </trkpt>
      <trkpt lat="36.877635" lon="-2.031973">
        <ele>147.012</ele>
        <time>2021-06-11T17:46:42Z</time>
      </trkpt>
      <trkpt lat="36.877234" lon="-2.032111">
        <ele>145.049</ele>
        <time>2021-06-11T17:46:44Z</time>
      </trkpt>
      <trkpt lat="36.876867" lon="-2.032251">
        <ele>143.402</ele>
        <time>2021-06-11T17:46:46Z</time>
      </trkpt>
      <trkpt lat="36.876683" lon="-2.032311">
        <ele>141.922</ele>
        <time>2021-06-11T17:46:47Z</time>
      </trkpt>
      <trkpt lat="36.876504" lon="-2.032366">
        <ele>141.008</ele>
        <time>2021-06-11T17:46:48Z</time>
      </trkpt>
      <trkpt lat="36.876331" lon="-2.032409">
        <ele>140.371</ele>
        <time>2021-06-11T17:46:49Z</time>
      </trkpt>
      <trkpt lat="36.875979" lon="-2.032391">
        <ele>138.829</ele>
        <time>2021-06-11T17:46:51Z</time>
      </trkpt>
      <trkpt lat="36.875639" lon="-2.032253">
        <ele>136.939</ele>
        <time>2021-06-11T17:46:53Z</time>
      </trkpt>
      <trkpt lat="36.875477" lon="-2.032151">
        <ele>134.847</ele>
        <time>2021-06-11T17:46:54Z</time>
      </trkpt>
      <trkpt lat="36.875324" lon="-2.032028">
        <ele>133.372</ele>
        <time>2021-06-11T17:46:55Z</time>
      </trkpt>
      <trkpt lat="36.875172" lon="-2.031892">
        <ele>132.163</ele>
        <time>2021-06-11T17:46:56Z</time>
      </trkpt>
      <trkpt lat="36.875031" lon="-2.031742">
        <ele>130.617</ele>
        <time>2021-06-11T17:46:57Z</time>
      </trkpt>
      <trkpt lat="36.874793" lon="-2.031403">
        <ele>128.010</ele>
        <time>2021-06-11T17:46:59Z</time>
      </trkpt>
      <trkpt lat="36.874701" lon="-2.031214">
        <ele>125.533</ele>
        <time>2021-06-11T17:47:00Z</time>
      </trkpt>
      <trkpt lat="36.874632" lon="-2.031005">
        <ele>123.023</ele>
        <time>2021-06-11T17:47:01Z</time>
      </trkpt>
      <trkpt lat="36.874574" lon="-2.030788">
        <ele>120.415</ele>
        <time>2021-06-11T17:47:02Z</time>
      </trkpt>
      <trkpt lat="36.874439" lon="-2.030364">
        <ele>117.108</ele>
        <time>2021-06-11T17:47:04Z</time>
      </trkpt>
      <trkpt lat="36.874182" lon="-2.030061">
        <ele>114.410</ele>
        <time>2021-06-11T17:47:06Z</time>
      </trkpt>
      <trkpt lat="36.874017" lon="-2.029952">
        <ele>112.388</ele>
        <time>2021-06-11T17:47:07Z</time>
      </trkpt>
      <trkpt lat="36.873669" lon="-2.029752">
        <ele>111.138</ele>
        <time>2021-06-11T17:47:09Z</time>
      </trkpt>
      <trkpt lat="36.873498" lon="-2.029637">
        <ele>110.186</ele>
        <time>2021-06-11T17:47:10Z</time>
      </trkpt>
      <trkpt lat="36.873328" lon="-2.029513">
        <ele>109.081</ele>
        <time>2021-06-11T17:47:11Z</time>
      </trkpt>
      <trkpt lat="36.872989" lon="-2.029269">
        <ele>107.742</ele>
        <time>2021-06-11T17:47:13Z</time>
      </trkpt>
      <trkpt lat="36.872648" lon="-2.029045">
        <ele>105.856</ele>
        <time>2021-06-11T17:47:15Z</time>
      </trkpt>
      <trkpt lat="36.872297" lon="-2.028828">
        <ele>102.869</ele>
        <time>2021-06-11T17:47:17Z</time>
      </trkpt>
      <trkpt lat="36.871942" lon="-2.028575">
        <ele>101.573</ele>
        <time>2021-06-11T17:47:19Z</time>
      </trkpt>
      <trkpt lat="36.871635" lon="-2.028257">
        <ele>101.985</ele>
        <time>2021-06-11T17:47:21Z</time>
      </trkpt>
      <trkpt lat="36.871368" lon="-2.027898">
        <ele>102.813</ele>
        <time>2021-06-11T17:47:23Z</time>
      </trkpt>
      <trkpt lat="36.871125" lon="-2.027538">
        <ele>103.308</ele>
        <time>2021-06-11T17:47:25Z</time>
      </trkpt>
      <trkpt lat="36.87101" lon="-2.027363">
        <ele>103.834</ele>
        <time>2021-06-11T17:47:26Z</time>
      </trkpt>
      <trkpt lat="36.870894" lon="-2.027187">
        <ele>103.852</ele>
        <time>2021-06-11T17:47:27Z</time>
      </trkpt>
      <trkpt lat="36.870775" lon="-2.027013">
        <ele>103.612</ele>
        <time>2021-06-11T17:47:28Z</time>
      </trkpt>
      <trkpt lat="36.87053" lon="-2.026682">
        <ele>103.680</ele>
        <time>2021-06-11T17:47:30Z</time>
      </trkpt>
      <trkpt lat="36.870408" lon="-2.026532">
        <ele>103.375</ele>
        <time>2021-06-11T17:47:31Z</time>
      </trkpt>
      <trkpt lat="36.870162" lon="-2.026277">
        <ele>102.236</ele>
        <time>2021-06-11T17:47:33Z</time>
      </trkpt>
      <trkpt lat="36.870036" lon="-2.02616">
        <ele>101.470</ele>
        <time>2021-06-11T17:47:34Z</time>
      </trkpt>
      <trkpt lat="36.869814" lon="-2.025962">
        <ele>101.083</ele>
        <time>2021-06-11T17:47:36Z</time>
      </trkpt>
      <trkpt lat="36.869753" lon="-2.025913">
        <ele>100.125</ele>
        <time>2021-06-11T17:47:37Z</time>
      </trkpt>
      <trkpt lat="36.869674" lon="-2.025908">
        <ele>99.926</ele>
        <time>2021-06-11T17:47:39Z</time>
      </trkpt>
      <trkpt lat="36.869576" lon="-2.026006">
        <ele>99.908</ele>
        <time>2021-06-11T17:47:41Z</time>
      </trkpt>
      <trkpt lat="36.869516" lon="-2.026083">
        <ele>100.008</ele>
        <time>2021-06-11T17:47:42Z</time>
      </trkpt>
      <trkpt lat="36.869361" lon="-2.026228">
        <ele>100.639</ele>
        <time>2021-06-11T17:47:44Z</time>
      </trkpt>
      <trkpt lat="36.869136" lon="-2.026342">
        <ele>101.787</ele>
        <time>2021-06-11T17:47:46Z</time>
      </trkpt>
      <trkpt lat="36.869013" lon="-2.026403">
        <ele>102.747</ele>
        <time>2021-06-11T17:47:47Z</time>
      </trkpt>
      <trkpt lat="36.868769" lon="-2.026544">
        <ele>104.065</ele>
        <time>2021-06-11T17:47:49Z</time>
      </trkpt>
      <trkpt lat="36.868513" lon="-2.026706">
        <ele>104.330</ele>
        <time>2021-06-11T17:47:51Z</time>
      </trkpt>
      <trkpt lat="36.868381" lon="-2.026788">
        <ele>105.341</ele>
        <time>2021-06-11T17:47:52Z</time>
      </trkpt>
      <trkpt lat="36.86811" lon="-2.026948">
        <ele>106.015</ele>
        <time>2021-06-11T17:47:54Z</time>
      </trkpt>
      <trkpt lat="36.867822" lon="-2.027096">
        <ele>106.968</ele>
        <time>2021-06-11T17:47:56Z</time>
      </trkpt>
      <trkpt lat="36.867522" lon="-2.027266">
        <ele>108.263</ele>
        <time>2021-06-11T17:47:58Z</time>
      </trkpt>
      <trkpt lat="36.867367" lon="-2.027355">
        <ele>108.844</ele>
        <time>2021-06-11T17:47:59Z</time>
      </trkpt>
      <trkpt lat="36.86706" lon="-2.027487">
        <ele>108.818</ele>
        <time>2021-06-11T17:48:01Z</time>
      </trkpt>
      <trkpt lat="36.866731" lon="-2.027572">
        <ele>108.108</ele>
        <time>2021-06-11T17:48:03Z</time>
      </trkpt>
      <trkpt lat="36.866442" lon="-2.027685">
        <ele>106.333</ele>
        <time>2021-06-11T17:48:05Z</time>
      </trkpt>
      <trkpt lat="36.866321" lon="-2.027766">
        <ele>104.761</ele>
        <time>2021-06-11T17:48:06Z</time>
      </trkpt>
      <trkpt lat="36.866217" lon="-2.027891">
        <ele>103.421</ele>
        <time>2021-06-11T17:48:07Z</time>
      </trkpt>
      <trkpt lat="36.866132" lon="-2.028044">
        <ele>102.199</ele>
        <time>2021-06-11T17:48:08Z</time>
      </trkpt>
      <trkpt lat="36.866059" lon="-2.028212">
        <ele>100.574</ele>
        <time>2021-06-11T17:48:09Z</time>
      </trkpt>
      <trkpt lat="36.865953" lon="-2.028569">
        <ele>98.995</ele>
        <time>2021-06-11T17:48:11Z</time>
      </trkpt>
      <trkpt lat="36.865914" lon="-2.028737">
        <ele>97.669</ele>
        <time>2021-06-11T17:48:12Z</time>
      </trkpt>
      <trkpt lat="36.865818" lon="-2.028966">
        <ele>96.092</ele>
        <time>2021-06-11T17:48:14Z</time>
      </trkpt>
      <trkpt lat="36.86565" lon="-2.028994">
        <ele>94.644</ele>
        <time>2021-06-11T17:48:16Z</time>
      </trkpt>
      <trkpt lat="36.865562" lon="-2.028915">
        <ele>93.305</ele>
        <time>2021-06-11T17:48:17Z</time>
      </trkpt>
      <trkpt lat="36.865382" lon="-2.028681">
        <ele>91.615</ele>
        <time>2021-06-11T17:48:19Z</time>
      </trkpt>
      <trkpt lat="36.865255" lon="-2.028603">
        <ele>90.108</ele>
        <time>2021-06-11T17:48:20Z</time>
      </trkpt>
      <trkpt lat="36.865103" lon="-2.028574">
        <ele>88.961</ele>
        <time>2021-06-11T17:48:21Z</time>
      </trkpt>
      <trkpt lat="36.864935" lon="-2.028572">
        <ele>87.659</ele>
        <time>2021-06-11T17:48:22Z</time>
      </trkpt>
      <trkpt lat="36.864582" lon="-2.02851">
        <ele>85.659</ele>
        <time>2021-06-11T17:48:24Z</time>
      </trkpt>
      <trkpt lat="36.864413" lon="-2.02843">
        <ele>83.977</ele>
        <time>2021-06-11T17:48:25Z</time>
      </trkpt>
      <trkpt lat="36.864134" lon="-2.028146">
        <ele>82.312</ele>
        <time>2021-06-11T17:48:27Z</time>
      </trkpt>
      <trkpt lat="36.864012" lon="-2.027981">
        <ele>80.973</ele>
        <time>2021-06-11T17:48:28Z</time>
      </trkpt>
      <trkpt lat="36.863883" lon="-2.027839">
        <ele>80.297</ele>
        <time>2021-06-11T17:48:29Z</time>
      </trkpt>
      <trkpt lat="36.863589" lon="-2.02764">
        <ele>78.740</ele>
        <time>2021-06-11T17:48:31Z</time>
      </trkpt>
      <trkpt lat="36.863257" lon="-2.027508">
        <ele>77.693</ele>
        <time>2021-06-11T17:48:33Z</time>
      </trkpt>
      <trkpt lat="36.862973" lon="-2.027357">
        <ele>76.365</ele>
        <time>2021-06-11T17:48:35Z</time>
      </trkpt>
      <trkpt lat="36.862837" lon="-2.027321">
        <ele>74.921</ele>
        <time>2021-06-11T17:48:36Z</time>
      </trkpt>
      <trkpt lat="36.862548" lon="-2.027439">
        <ele>73.008</ele>
        <time>2021-06-11T17:48:38Z</time>
      </trkpt>
      <trkpt lat="36.862399" lon="-2.027556">
        <ele>71.566</ele>
        <time>2021-06-11T17:48:39Z</time>
      </trkpt>
      <trkpt lat="36.862088" lon="-2.027779">
        <ele>70.294</ele>
        <time>2021-06-11T17:48:41Z</time>
      </trkpt>
      <trkpt lat="36.861732" lon="-2.02787">
        <ele>68.564</ele>
        <time>2021-06-11T17:48:43Z</time>
      </trkpt>
      <trkpt lat="36.861358" lon="-2.027864">
        <ele>67.092</ele>
        <time>2021-06-11T17:48:45Z</time>
      </trkpt>
      <trkpt lat="36.860997" lon="-2.027859">
        <ele>65.197</ele>
        <time>2021-06-11T17:48:47Z</time>
      </trkpt>
      <trkpt lat="36.860833" lon="-2.027843">
        <ele>63.698</ele>
        <time>2021-06-11T17:48:48Z</time>
      </trkpt>
      <trkpt lat="36.860554" lon="-2.027717">
        <ele>62.012</ele>
        <time>2021-06-11T17:48:50Z</time>
      </trkpt>
      <trkpt lat="36.860442" lon="-2.027587">
        <ele>60.895</ele>
        <time>2021-06-11T17:48:51Z</time>
      </trkpt>
      <trkpt lat="36.860338" lon="-2.027444">
        <ele>60.179</ele>
        <time>2021-06-11T17:48:52Z</time>
      </trkpt>
      <trkpt lat="36.86021" lon="-2.027325">
        <ele>58.605</ele>
        <time>2021-06-11T17:48:53Z</time>
      </trkpt>
      <trkpt lat="36.859866" lon="-2.027209">
        <ele>57.825</ele>
        <time>2021-06-11T17:48:55Z</time>
      </trkpt>
      <trkpt lat="36.859651" lon="-2.027192">
        <ele>56.708</ele>
        <time>2021-06-11T17:48:56Z</time>
      </trkpt>
      <trkpt lat="36.85927" lon="-2.027169">
        <ele>56.184</ele>
        <time>2021-06-11T17:48:58Z</time>
      </trkpt>
      <trkpt lat="36.858903" lon="-2.027145">
        <ele>55.142</ele>
        <time>2021-06-11T17:49:00Z</time>
      </trkpt>
      <trkpt lat="36.858669" lon="-2.027111">
        <ele>54.542</ele>
        <time>2021-06-11T17:49:01Z</time>
      </trkpt>
      <trkpt lat="36.858281" lon="-2.027024">
        <ele>53.290</ele>
        <time>2021-06-11T17:49:03Z</time>
      </trkpt>
      <trkpt lat="36.857923" lon="-2.026937">
        <ele>51.945</ele>
        <time>2021-06-11T17:49:05Z</time>
      </trkpt>
      <trkpt lat="36.857705" lon="-2.026894">
        <ele>50.956</ele>
        <time>2021-06-11T17:49:06Z</time>
      </trkpt>
      <trkpt lat="36.857328" lon="-2.026884">
        <ele>50.290</ele>
        <time>2021-06-11T17:49:08Z</time>
      </trkpt>
      <trkpt lat="36.857146" lon="-2.026916">
        <ele>49.933</ele>
        <time>2021-06-11T17:49:09Z</time>
      </trkpt>
      <trkpt lat="36.856777" lon="-2.027029">
        <ele>49.199</ele>
        <time>2021-06-11T17:49:11Z</time>
      </trkpt>
      <trkpt lat="36.856399" lon="-2.027162">
        <ele>48.207</ele>
        <time>2021-06-11T17:49:13Z</time>
      </trkpt>
      <trkpt lat="36.856186" lon="-2.027229">
        <ele>47.227</ele>
        <time>2021-06-11T17:49:14Z</time>
      </trkpt>
      <trkpt lat="36.855795" lon="-2.027355">
        <ele>45.708</ele>
        <time>2021-06-11T17:49:16Z</time>
      </trkpt>
      <trkpt lat="36.855591" lon="-2.027407">
        <ele>44.936</ele>
        <time>2021-06-11T17:49:17Z</time>
      </trkpt>
      <trkpt lat="36.855171" lon="-2.027484">
        <ele>43.474</ele>
        <time>2021-06-11T17:49:19Z</time>
      </trkpt>
      <trkpt lat="36.854811" lon="-2.027533">
        <ele>42.054</ele>
        <time>2021-06-11T17:49:21Z</time>
      </trkpt>
      <trkpt lat="36.854594" lon="-2.027563">
        <ele>41.712</ele>
        <time>2021-06-11T17:49:22Z</time>
      </trkpt>
      <trkpt lat="36.854413" lon="-2.027603">
        <ele>41.447</ele>
        <time>2021-06-11T17:49:23Z</time>
      </trkpt>
      <trkpt lat="36.854223" lon="-2.027662">
        <ele>41.388</ele>
        <time>2021-06-11T17:49:24Z</time>
      </trkpt>
      <trkpt lat="36.853854" lon="-2.027789">
        <ele>41.042</ele>
        <time>2021-06-11T17:49:26Z</time>
      </trkpt>
      <trkpt lat="36.853665" lon="-2.027865">
        <ele>40.795</ele>
        <time>2021-06-11T17:49:27Z</time>
      </trkpt>
      <trkpt lat="36.853308" lon="-2.028009">
        <ele>40.991</ele>
        <time>2021-06-11T17:49:29Z</time>
      </trkpt>
      <trkpt lat="36.853097" lon="-2.028098">
        <ele>40.481</ele>
        <time>2021-06-11T17:49:30Z</time>
      </trkpt>
      <trkpt lat="36.852761" lon="-2.028293">
        <ele>40.019</ele>
        <time>2021-06-11T17:49:32Z</time>
      </trkpt>
      <trkpt lat="36.852415" lon="-2.028488">
        <ele>40.208</ele>
        <time>2021-06-11T17:49:34Z</time>
      </trkpt>
      <trkpt lat="36.852077" lon="-2.028684">
        <ele>40.326</ele>
        <time>2021-06-11T17:49:36Z</time>
      </trkpt>
      <trkpt lat="36.851745" lon="-2.028965">
        <ele>40.664</ele>
        <time>2021-06-11T17:49:38Z</time>
      </trkpt>
      <trkpt lat="36.85159" lon="-2.029162">
        <ele>40.924</ele>
        <time>2021-06-11T17:49:39Z</time>
      </trkpt>
      <trkpt lat="36.851383" lon="-2.029541">
        <ele>41.322</ele>
        <time>2021-06-11T17:49:41Z</time>
      </trkpt>
      <trkpt lat="36.851177" lon="-2.029957">
        <ele>42.167</ele>
        <time>2021-06-11T17:49:43Z</time>
      </trkpt>
      <trkpt lat="36.850963" lon="-2.030369">
        <ele>42.858</ele>
        <time>2021-06-11T17:49:45Z</time>
      </trkpt>
      <trkpt lat="36.850738" lon="-2.030769">
        <ele>43.282</ele>
        <time>2021-06-11T17:49:47Z</time>
      </trkpt>
      <trkpt lat="36.850625" lon="-2.030968">
        <ele>43.275</ele>
        <time>2021-06-11T17:49:48Z</time>
      </trkpt>
      <trkpt lat="36.850411" lon="-2.031362">
        <ele>43.578</ele>
        <time>2021-06-11T17:49:50Z</time>
      </trkpt>
      <trkpt lat="36.850308" lon="-2.031561">
        <ele>43.633</ele>
        <time>2021-06-11T17:49:51Z</time>
      </trkpt>
      <trkpt lat="36.850207" lon="-2.031769">
        <ele>43.726</ele>
        <time>2021-06-11T17:49:52Z</time>
      </trkpt>
      <trkpt lat="36.850103" lon="-2.031982">
        <ele>44.108</ele>
        <time>2021-06-11T17:49:53Z</time>
      </trkpt>
      <trkpt lat="36.849929" lon="-2.032352">
        <ele>44.864</ele>
        <time>2021-06-11T17:49:55Z</time>
      </trkpt>
      <trkpt lat="36.849787" lon="-2.032671">
        <ele>46.182</ele>
        <time>2021-06-11T17:49:57Z</time>
      </trkpt>
      <trkpt lat="36.849699" lon="-2.032854">
        <ele>46.992</ele>
        <time>2021-06-11T17:49:58Z</time>
      </trkpt>
      <trkpt lat="36.849634" lon="-2.032994">
        <ele>47.340</ele>
        <time>2021-06-11T17:49:59Z</time>
      </trkpt>
      <trkpt lat="36.849569" lon="-2.033126">
        <ele>47.415</ele>
        <time>2021-06-11T17:50:00Z</time>
      </trkpt>
      <trkpt lat="36.849505" lon="-2.033257">
        <ele>47.516</ele>
        <time>2021-06-11T17:50:01Z</time>
      </trkpt>
      <trkpt lat="36.849409" lon="-2.033496">
        <ele>47.960</ele>
        <time>2021-06-11T17:50:03Z</time>
      </trkpt>
      <trkpt lat="36.849372" lon="-2.033634">
        <ele>48.173</ele>
        <time>2021-06-11T17:50:04Z</time>
      </trkpt>
      <trkpt lat="36.849343" lon="-2.033779">
        <ele>48.759</ele>
        <time>2021-06-11T17:50:05Z</time>
      </trkpt>
      <trkpt lat="36.849312" lon="-2.033952">
        <ele>49.103</ele>
        <time>2021-06-11T17:50:06Z</time>
      </trkpt>
      <trkpt lat="36.849276" lon="-2.034277">
        <ele>49.623</ele>
        <time>2021-06-11T17:50:08Z</time>
      </trkpt>
      <trkpt lat="36.849251" lon="-2.034446">
        <ele>50.308</ele>
        <time>2021-06-11T17:50:09Z</time>
      </trkpt>
      <trkpt lat="36.849193" lon="-2.034808">
        <ele>51.122</ele>
        <time>2021-06-11T17:50:11Z</time>
      </trkpt>
      <trkpt lat="36.849103" lon="-2.03517">
        <ele>52.520</ele>
        <time>2021-06-11T17:50:13Z</time>
      </trkpt>
      <trkpt lat="36.848982" lon="-2.035523">
        <ele>54.110</ele>
        <time>2021-06-11T17:50:15Z</time>
      </trkpt>
      <trkpt lat="36.848843" lon="-2.035842">
        <ele>55.088</ele>
        <time>2021-06-11T17:50:17Z</time>
      </trkpt>
      <trkpt lat="36.848686" lon="-2.036059">
        <ele>55.713</ele>
        <time>2021-06-11T17:50:19Z</time>
      </trkpt>
      <trkpt lat="36.848561" lon="-2.036169">
        <ele>56.254</ele>
        <time>2021-06-11T17:50:20Z</time>
      </trkpt>
      <trkpt lat="36.848304" lon="-2.036267">
        <ele>56.478</ele>
        <time>2021-06-11T17:50:22Z</time>
      </trkpt>
      <trkpt lat="36.847998" lon="-2.036271">
        <ele>56.991</ele>
        <time>2021-06-11T17:50:24Z</time>
      </trkpt>
      <trkpt lat="36.847835" lon="-2.03623">
        <ele>57.519</ele>
        <time>2021-06-11T17:50:25Z</time>
      </trkpt>
      <trkpt lat="36.847484" lon="-2.036121">
        <ele>57.409</ele>
        <time>2021-06-11T17:50:27Z</time>
      </trkpt>
      <trkpt lat="36.847161" lon="-2.03607">
        <ele>57.719</ele>
        <time>2021-06-11T17:50:29Z</time>
      </trkpt>
      <trkpt lat="36.846825" lon="-2.036141">
        <ele>58.408</ele>
        <time>2021-06-11T17:50:31Z</time>
      </trkpt>
      <trkpt lat="36.84651" lon="-2.036331">
        <ele>59.358</ele>
        <time>2021-06-11T17:50:33Z</time>
      </trkpt>
      <trkpt lat="36.846344" lon="-2.036434">
        <ele>59.866</ele>
        <time>2021-06-11T17:50:34Z</time>
      </trkpt>
      <trkpt lat="36.846038" lon="-2.036636">
        <ele>60.476</ele>
        <time>2021-06-11T17:50:36Z</time>
      </trkpt>
      <trkpt lat="36.845873" lon="-2.036738">
        <ele>60.844</ele>
        <time>2021-06-11T17:50:37Z</time>
      </trkpt>
      <trkpt lat="36.845705" lon="-2.036838">
        <ele>61.479</ele>
        <time>2021-06-11T17:50:38Z</time>
      </trkpt>
      <trkpt lat="36.845378" lon="-2.037082">
        <ele>62.510</ele>
        <time>2021-06-11T17:50:40Z</time>
      </trkpt>
      <trkpt lat="36.845095" lon="-2.037412">
        <ele>63.394</ele>
        <time>2021-06-11T17:50:42Z</time>
      </trkpt>
      <trkpt lat="36.84498" lon="-2.037596">
        <ele>63.957</ele>
        <time>2021-06-11T17:50:43Z</time>
      </trkpt>
      <trkpt lat="36.844836" lon="-2.037983">
        <ele>64.362</ele>
        <time>2021-06-11T17:50:45Z</time>
      </trkpt>
      <trkpt lat="36.844798" lon="-2.038181">
        <ele>64.883</ele>
        <time>2021-06-11T17:50:46Z</time>
      </trkpt>
      <trkpt lat="36.84478" lon="-2.038409">
        <ele>64.811</ele>
        <time>2021-06-11T17:50:47Z</time>
      </trkpt>
      <trkpt lat="36.844781" lon="-2.038796">
        <ele>65.508</ele>
        <time>2021-06-11T17:50:49Z</time>
      </trkpt>
      <trkpt lat="36.844752" lon="-2.039187">
        <ele>66.873</ele>
        <time>2021-06-11T17:50:51Z</time>
      </trkpt>
      <trkpt lat="36.844728" lon="-2.039408">
        <ele>67.731</ele>
        <time>2021-06-11T17:50:52Z</time>
      </trkpt>
      <trkpt lat="36.844701" lon="-2.039654">
        <ele>68.341</ele>
        <time>2021-06-11T17:50:53Z</time>
      </trkpt>
      <trkpt lat="36.844651" lon="-2.040061">
        <ele>69.329</ele>
        <time>2021-06-11T17:50:55Z</time>
      </trkpt>
      <trkpt lat="36.844606" lon="-2.040298">
        <ele>70.224</ele>
        <time>2021-06-11T17:50:56Z</time>
      </trkpt>
      <trkpt lat="36.844491" lon="-2.040705">
        <ele>71.255</ele>
        <time>2021-06-11T17:50:58Z</time>
      </trkpt>
      <trkpt lat="36.844405" lon="-2.040914">
        <ele>72.359</ele>
        <time>2021-06-11T17:50:59Z</time>
      </trkpt>
      <trkpt lat="36.844304" lon="-2.041119">
        <ele>73.272</ele>
        <time>2021-06-11T17:51:00Z</time>
      </trkpt>
      <trkpt lat="36.844083" lon="-2.041519">
        <ele>74.121</ele>
        <time>2021-06-11T17:51:02Z</time>
      </trkpt>
      <trkpt lat="36.843898" lon="-2.041849">
        <ele>74.441</ele>
        <time>2021-06-11T17:51:04Z</time>
      </trkpt>
      <trkpt lat="36.843713" lon="-2.04221">
        <ele>74.705</ele>
        <time>2021-06-11T17:51:06Z</time>
      </trkpt>
      <trkpt lat="36.843642" lon="-2.04236">
        <ele>75.608</ele>
        <time>2021-06-11T17:51:07Z</time>
      </trkpt>
      <trkpt lat="36.843568" lon="-2.042499">
        <ele>76.459</ele>
        <time>2021-06-11T17:51:08Z</time>
      </trkpt>
      <trkpt lat="36.843485" lon="-2.042625">
        <ele>77.257</ele>
        <time>2021-06-11T17:51:09Z</time>
      </trkpt>
      <trkpt lat="36.843262" lon="-2.042821">
        <ele>78.517</ele>
        <time>2021-06-11T17:51:11Z</time>
      </trkpt>
      <trkpt lat="36.842974" lon="-2.04289">
        <ele>79.915</ele>
        <time>2021-06-11T17:51:13Z</time>
      </trkpt>
      <trkpt lat="36.842819" lon="-2.042879">
        <ele>80.690</ele>
        <time>2021-06-11T17:51:14Z</time>
      </trkpt>
      <trkpt lat="36.842499" lon="-2.042816">
        <ele>80.771</ele>
        <time>2021-06-11T17:51:16Z</time>
      </trkpt>
      <trkpt lat="36.842165" lon="-2.042697">
        <ele>81.025</ele>
        <time>2021-06-11T17:51:18Z</time>
      </trkpt>
      <trkpt lat="36.841842" lon="-2.042515">
        <ele>81.018</ele>
        <time>2021-06-11T17:51:20Z</time>
      </trkpt>
      <trkpt lat="36.841668" lon="-2.042388">
        <ele>81.126</ele>
        <time>2021-06-11T17:51:21Z</time>
      </trkpt>
      <trkpt lat="36.841327" lon="-2.042109">
        <ele>80.547</ele>
        <time>2021-06-11T17:51:23Z</time>
      </trkpt>
      <trkpt lat="36.841133" lon="-2.041958">
        <ele>80.411</ele>
        <time>2021-06-11T17:51:24Z</time>
      </trkpt>
      <trkpt lat="36.840958" lon="-2.041843">
        <ele>79.808</ele>
        <time>2021-06-11T17:51:25Z</time>
      </trkpt>
      <trkpt lat="36.840582" lon="-2.041653">
        <ele>79.549</ele>
        <time>2021-06-11T17:51:27Z</time>
      </trkpt>
      <trkpt lat="36.840174" lon="-2.041496">
        <ele>78.497</ele>
        <time>2021-06-11T17:51:29Z</time>
      </trkpt>
      <trkpt lat="36.839756" lon="-2.041338">
        <ele>78.237</ele>
        <time>2021-06-11T17:51:31Z</time>
      </trkpt>
      <trkpt lat="36.839547" lon="-2.041265">
        <ele>78.485</ele>
        <time>2021-06-11T17:51:32Z</time>
      </trkpt>
      <trkpt lat="36.839143" lon="-2.041133">
        <ele>79.090</ele>
        <time>2021-06-11T17:51:34Z</time>
      </trkpt>
      <trkpt lat="36.838913" lon="-2.041058">
        <ele>79.091</ele>
        <time>2021-06-11T17:51:35Z</time>
      </trkpt>
      <trkpt lat="36.838711" lon="-2.040999">
        <ele>79.545</ele>
        <time>2021-06-11T17:51:36Z</time>
      </trkpt>
      <trkpt lat="36.838313" lon="-2.040871">
        <ele>80.918</ele>
        <time>2021-06-11T17:51:38Z</time>
      </trkpt>
      <trkpt lat="36.837891" lon="-2.04079">
        <ele>82.769</ele>
        <time>2021-06-11T17:51:40Z</time>
      </trkpt>
      <trkpt lat="36.83749" lon="-2.040776">
        <ele>84.604</ele>
        <time>2021-06-11T17:51:42Z</time>
      </trkpt>
      <trkpt lat="36.837074" lon="-2.040784">
        <ele>85.724</ele>
        <time>2021-06-11T17:51:44Z</time>
      </trkpt>
      <trkpt lat="36.83667" lon="-2.040769">
        <ele>86.408</ele>
        <time>2021-06-11T17:51:46Z</time>
      </trkpt>
      <trkpt lat="36.836455" lon="-2.040722">
        <ele>87.463</ele>
        <time>2021-06-11T17:51:47Z</time>
      </trkpt>
      <trkpt lat="36.836235" lon="-2.04065">
        <ele>87.721</ele>
        <time>2021-06-11T17:51:48Z</time>
      </trkpt>
      <trkpt lat="36.835832" lon="-2.040501">
        <ele>87.941</ele>
        <time>2021-06-11T17:51:50Z</time>
      </trkpt>
      <trkpt lat="36.835416" lon="-2.040369">
        <ele>88.669</ele>
        <time>2021-06-11T17:51:52Z</time>
      </trkpt>
      <trkpt lat="36.835198" lon="-2.040355">
        <ele>88.864</ele>
        <time>2021-06-11T17:51:53Z</time>
      </trkpt>
      <trkpt lat="36.834978" lon="-2.040359">
        <ele>88.835</ele>
        <time>2021-06-11T17:51:54Z</time>
      </trkpt>
      <trkpt lat="36.834533" lon="-2.04039">
        <ele>88.239</ele>
        <time>2021-06-11T17:51:56Z</time>
      </trkpt>
      <trkpt lat="36.834303" lon="-2.040397">
        <ele>87.872</ele>
        <time>2021-06-11T17:51:57Z</time>
      </trkpt>
      <trkpt lat="36.834046" lon="-2.040382">
        <ele>87.655</ele>
        <time>2021-06-11T17:51:58Z</time>
      </trkpt>
      <trkpt lat="36.833612" lon="-2.04032">
        <ele>88.207</ele>
        <time>2021-06-11T17:52:00Z</time>
      </trkpt>
      <trkpt lat="36.833389" lon="-2.040297">
        <ele>88.717</ele>
        <time>2021-06-11T17:52:01Z</time>
      </trkpt>
      <trkpt lat="36.832985" lon="-2.040269">
        <ele>90.508</ele>
        <time>2021-06-11T17:52:03Z</time>
      </trkpt>
      <trkpt lat="36.832529" lon="-2.04024">
        <ele>93.012</ele>
        <time>2021-06-11T17:52:05Z</time>
      </trkpt>
      <trkpt lat="36.832131" lon="-2.040232">
        <ele>95.790</ele>
        <time>2021-06-11T17:52:07Z</time>
      </trkpt>
      <trkpt lat="36.831736" lon="-2.040259">
        <ele>99.710</ele>
        <time>2021-06-11T17:52:09Z</time>
      </trkpt>
      <trkpt lat="36.831332" lon="-2.04033">
        <ele>103.168</ele>
        <time>2021-06-11T17:52:11Z</time>
      </trkpt>
      <trkpt lat="36.830976" lon="-2.04042">
        <ele>106.113</ele>
        <time>2021-06-11T17:52:13Z</time>
      </trkpt>
      <trkpt lat="36.830631" lon="-2.040504">
        <ele>110.164</ele>
        <time>2021-06-11T17:52:15Z</time>
      </trkpt>
      <trkpt lat="36.83029" lon="-2.04057">
        <ele>114.198</ele>
        <time>2021-06-11T17:52:17Z</time>
      </trkpt>
      <trkpt lat="36.830123" lon="-2.040599">
        <ele>118.131</ele>
        <time>2021-06-11T17:52:18Z</time>
      </trkpt>
      <trkpt lat="36.829804" lon="-2.0406">
        <ele>122.123</ele>
        <time>2021-06-11T17:52:20Z</time>
      </trkpt>
      <trkpt lat="36.829539" lon="-2.040514">
        <ele>126.183</ele>
        <time>2021-06-11T17:52:22Z</time>
      </trkpt>
      <trkpt lat="36.829401" lon="-2.040449">
        <ele>129.211</ele>
        <time>2021-06-11T17:52:23Z</time>
      </trkpt>
      <trkpt lat="36.829209" lon="-2.040343">
        <ele>131.008</ele>
        <time>2021-06-11T17:52:25Z</time>
      </trkpt>
      <trkpt lat="36.82909" lon="-2.040273">
        <ele>131.989</ele>
        <time>2021-06-11T17:52:26Z</time>
      </trkpt>
      <trkpt lat="36.828898" lon="-2.040152">
        <ele>131.797</ele>
        <time>2021-06-11T17:52:28Z</time>
      </trkpt>
      <trkpt lat="36.828793" lon="-2.040087">
        <ele>131.577</ele>
        <time>2021-06-11T17:52:29Z</time>
      </trkpt>
      <trkpt lat="36.828686" lon="-2.040019">
        <ele>130.225</ele>
        <time>2021-06-11T17:52:30Z</time>
      </trkpt>
      <trkpt lat="36.82849" lon="-2.039887">
        <ele>128.120</ele>
        <time>2021-06-11T17:52:32Z</time>
      </trkpt>
      <trkpt lat="36.828299" lon="-2.03977">
        <ele>125.981</ele>
        <time>2021-06-11T17:52:34Z</time>
      </trkpt>
      <trkpt lat="36.828128" lon="-2.039667">
        <ele>124.065</ele>
        <time>2021-06-11T17:52:36Z</time>
      </trkpt>
      <trkpt lat="36.828061" lon="-2.039633">
        <ele>122.248</ele>
        <time>2021-06-11T17:52:37Z</time>
      </trkpt>
      <trkpt lat="36.827944" lon="-2.039653">
        <ele>120.234</ele>
        <time>2021-06-11T17:52:39Z</time>
      </trkpt>
      <trkpt lat="36.8279" lon="-2.039724">
        <ele>118.855</ele>
        <time>2021-06-11T17:52:40Z</time>
      </trkpt>
      <trkpt lat="36.827886" lon="-2.03983">
        <ele>117.410</ele>
        <time>2021-06-11T17:52:41Z</time>
      </trkpt>
      <trkpt lat="36.82791" lon="-2.04009">
        <ele>116.208</ele>
        <time>2021-06-11T17:52:43Z</time>
      </trkpt>
      <trkpt lat="36.82791" lon="-2.040224">
        <ele>115.030</ele>
        <time>2021-06-11T17:52:44Z</time>
      </trkpt>
      <trkpt lat="36.827872" lon="-2.040347">
        <ele>114.218</ele>
        <time>2021-06-11T17:52:45Z</time>
      </trkpt>
      <trkpt lat="36.82772" lon="-2.040517">
        <ele>113.258</ele>
        <time>2021-06-11T17:52:47Z</time>
      </trkpt>
      <trkpt lat="36.827541" lon="-2.040619">
        <ele>112.216</ele>
        <time>2021-06-11T17:52:49Z</time>
      </trkpt>
      <trkpt lat="36.827424" lon="-2.040676">
        <ele>111.141</ele>
        <time>2021-06-11T17:52:50Z</time>
      </trkpt>
      <trkpt lat="36.827226" lon="-2.040699">
        <ele>109.862</ele>
        <time>2021-06-11T17:52:52Z</time>
      </trkpt>
      <trkpt lat="36.826995" lon="-2.040667">
        <ele>108.186</ele>
        <time>2021-06-11T17:52:54Z</time>
      </trkpt>
      <trkpt lat="36.826894" lon="-2.040651">
        <ele>106.649</ele>
        <time>2021-06-11T17:52:55Z</time>
      </trkpt>
      <trkpt lat="36.826672" lon="-2.040636">
        <ele>105.282</ele>
        <time>2021-06-11T17:52:57Z</time>
      </trkpt>
      <trkpt lat="36.826556" lon="-2.040642">
        <ele>104.343</ele>
        <time>2021-06-11T17:52:58Z</time>
      </trkpt>
      <trkpt lat="36.826329" lon="-2.04067">
        <ele>103.317</ele>
        <time>2021-06-11T17:53:00Z</time>
      </trkpt>
      <trkpt lat="36.826106" lon="-2.04073">
        <ele>101.408</ele>
        <time>2021-06-11T17:53:02Z</time>
      </trkpt>
      <trkpt lat="36.825984" lon="-2.040786">
        <ele>100.075</ele>
        <time>2021-06-11T17:53:03Z</time>
      </trkpt>
      <trkpt lat="36.825761" lon="-2.040928">
        <ele>97.583</ele>
        <time>2021-06-11T17:53:05Z</time>
      </trkpt>
      <trkpt lat="36.825667" lon="-2.041015">
        <ele>95.563</ele>
        <time>2021-06-11T17:53:06Z</time>
      </trkpt>
      <trkpt lat="36.825543" lon="-2.041233">
        <ele>93.741</ele>
        <time>2021-06-11T17:53:08Z</time>
      </trkpt>
      <trkpt lat="36.825562" lon="-2.041524">
        <ele>90.746</ele>
        <time>2021-06-11T17:53:10Z</time>
      </trkpt>
      <trkpt lat="36.825684" lon="-2.04187">
        <ele>86.947</ele>
        <time>2021-06-11T17:53:12Z</time>
      </trkpt>
      <trkpt lat="36.825748" lon="-2.042061">
        <ele>84.231</ele>
        <time>2021-06-11T17:53:13Z</time>
      </trkpt>
      <trkpt lat="36.825837" lon="-2.042491">
        <ele>81.194</ele>
        <time>2021-06-11T17:53:15Z</time>
      </trkpt>
      <trkpt lat="36.825856" lon="-2.042725">
        <ele>78.819</ele>
        <time>2021-06-11T17:53:16Z</time>
      </trkpt>
      <trkpt lat="36.825858" lon="-2.042996">
        <ele>76.809</ele>
        <time>2021-06-11T17:53:17Z</time>
      </trkpt>
      <trkpt lat="36.82581" lon="-2.043448">
        <ele>74.619</ele>
        <time>2021-06-11T17:53:19Z</time>
      </trkpt>
      <trkpt lat="36.825777" lon="-2.043701">
        <ele>73.008</ele>
        <time>2021-06-11T17:53:20Z</time>
      </trkpt>
      <trkpt lat="36.825702" lon="-2.044186">
        <ele>71.438</ele>
        <time>2021-06-11T17:53:22Z</time>
      </trkpt>
      <trkpt lat="36.825643" lon="-2.044677">
        <ele>69.976</ele>
        <time>2021-06-11T17:53:24Z</time>
      </trkpt>
      <trkpt lat="36.825619" lon="-2.044919">
        <ele>68.646</ele>
        <time>2021-06-11T17:53:25Z</time>
      </trkpt>
      <trkpt lat="36.825572" lon="-2.045397">
        <ele>67.244</ele>
        <time>2021-06-11T17:53:27Z</time>
      </trkpt>
      <trkpt lat="36.825521" lon="-2.045876">
        <ele>65.979</ele>
        <time>2021-06-11T17:53:29Z</time>
      </trkpt>
      <trkpt lat="36.825497" lon="-2.046112">
        <ele>65.350</ele>
        <time>2021-06-11T17:53:30Z</time>
      </trkpt>
      <trkpt lat="36.825468" lon="-2.046344">
        <ele>64.594</ele>
        <time>2021-06-11T17:53:31Z</time>
      </trkpt>
      <trkpt lat="36.825378" lon="-2.046783">
        <ele>63.817</ele>
        <time>2021-06-11T17:53:33Z</time>
      </trkpt>
      <trkpt lat="36.825297" lon="-2.046995">
        <ele>63.356</ele>
        <time>2021-06-11T17:53:34Z</time>
      </trkpt>
      <trkpt lat="36.825059" lon="-2.047304">
        <ele>63.259</ele>
        <time>2021-06-11T17:53:36Z</time>
      </trkpt>
      <trkpt lat="36.824896" lon="-2.047397">
        <ele>63.014</ele>
        <time>2021-06-11T17:53:37Z</time>
      </trkpt>
      <trkpt lat="36.824698" lon="-2.047459">
        <ele>63.008</ele>
        <time>2021-06-11T17:53:38Z</time>
      </trkpt>
      <trkpt lat="36.824525" lon="-2.047487">
        <ele>63.442</ele>
        <time>2021-06-11T17:53:39Z</time>
      </trkpt>
      <trkpt lat="36.824186" lon="-2.047573">
        <ele>63.650</ele>
        <time>2021-06-11T17:53:41Z</time>
      </trkpt>
      <trkpt lat="36.824019" lon="-2.047659">
        <ele>63.780</ele>
        <time>2021-06-11T17:53:42Z</time>
      </trkpt>
      <trkpt lat="36.823858" lon="-2.047769">
        <ele>63.548</ele>
        <time>2021-06-11T17:53:43Z</time>
      </trkpt>
      <trkpt lat="36.823554" lon="-2.048016">
        <ele>63.343</ele>
        <time>2021-06-11T17:53:45Z</time>
      </trkpt>
      <trkpt lat="36.823386" lon="-2.048151">
        <ele>63.384</ele>
        <time>2021-06-11T17:53:46Z</time>
      </trkpt>
      <trkpt lat="36.823054" lon="-2.048416">
        <ele>62.528</ele>
        <time>2021-06-11T17:53:48Z</time>
      </trkpt>
      <trkpt lat="36.822749" lon="-2.048694">
        <ele>62.311</ele>
        <time>2021-06-11T17:53:50Z</time>
      </trkpt>
      <trkpt lat="36.822504" lon="-2.049048">
        <ele>62.082</ele>
        <time>2021-06-11T17:53:52Z</time>
      </trkpt>
      <trkpt lat="36.822405" lon="-2.049257">
        <ele>62.143</ele>
        <time>2021-06-11T17:53:53Z</time>
      </trkpt>
      <trkpt lat="36.822311" lon="-2.049511">
        <ele>62.217</ele>
        <time>2021-06-11T17:53:54Z</time>
      </trkpt>
      <trkpt lat="36.822185" lon="-2.049943">
        <ele>63.308</ele>
        <time>2021-06-11T17:53:56Z</time>
      </trkpt>
      <trkpt lat="36.822037" lon="-2.050418">
        <ele>64.045</ele>
        <time>2021-06-11T17:53:58Z</time>
      </trkpt>
      <trkpt lat="36.821895" lon="-2.050886">
        <ele>64.473</ele>
        <time>2021-06-11T17:54:00Z</time>
      </trkpt>
      <trkpt lat="36.82183" lon="-2.051115">
        <ele>64.333</ele>
        <time>2021-06-11T17:54:01Z</time>
      </trkpt>
      <trkpt lat="36.82176" lon="-2.051339">
        <ele>64.641</ele>
        <time>2021-06-11T17:54:02Z</time>
      </trkpt>
      <trkpt lat="36.821685" lon="-2.051547">
        <ele>64.876</ele>
        <time>2021-06-11T17:54:03Z</time>
      </trkpt>
      <trkpt lat="36.821553" lon="-2.051925">
        <ele>65.817</ele>
        <time>2021-06-11T17:54:05Z</time>
      </trkpt>
      <trkpt lat="36.821493" lon="-2.052147">
        <ele>66.111</ele>
        <time>2021-06-11T17:54:06Z</time>
      </trkpt>
      <trkpt lat="36.821418" lon="-2.052549">
        <ele>65.714</ele>
        <time>2021-06-11T17:54:08Z</time>
      </trkpt>
      <trkpt lat="36.821377" lon="-2.052755">
        <ele>65.779</ele>
        <time>2021-06-11T17:54:09Z</time>
      </trkpt>
      <trkpt lat="36.821289" lon="-2.053162">
        <ele>65.605</ele>
        <time>2021-06-11T17:54:11Z</time>
      </trkpt>
      <trkpt lat="36.821165" lon="-2.053576">
        <ele>64.725</ele>
        <time>2021-06-11T17:54:13Z</time>
      </trkpt>
      <trkpt lat="36.82109" lon="-2.053786">
        <ele>63.408</ele>
        <time>2021-06-11T17:54:14Z</time>
      </trkpt>
      <trkpt lat="36.820919" lon="-2.054197">
        <ele>61.484</ele>
        <time>2021-06-11T17:54:16Z</time>
      </trkpt>
      <trkpt lat="36.820738" lon="-2.054624">
        <ele>59.622</ele>
        <time>2021-06-11T17:54:18Z</time>
      </trkpt>
      <trkpt lat="36.820561" lon="-2.055063">
        <ele>58.042</ele>
        <time>2021-06-11T17:54:20Z</time>
      </trkpt>
      <trkpt lat="36.820392" lon="-2.055481">
        <ele>56.890</ele>
        <time>2021-06-11T17:54:22Z</time>
      </trkpt>
      <trkpt lat="36.820289" lon="-2.055728">
        <ele>56.225</ele>
        <time>2021-06-11T17:54:23Z</time>
      </trkpt>
      <trkpt lat="36.820115" lon="-2.056114">
        <ele>55.836</ele>
        <time>2021-06-11T17:54:25Z</time>
      </trkpt>
      <trkpt lat="36.82001" lon="-2.056345">
        <ele>55.630</ele>
        <time>2021-06-11T17:54:26Z</time>
      </trkpt>
      <trkpt lat="36.819916" lon="-2.056546">
        <ele>55.753</ele>
        <time>2021-06-11T17:54:27Z</time>
      </trkpt>
      <trkpt lat="36.819719" lon="-2.056954">
        <ele>55.582</ele>
        <time>2021-06-11T17:54:29Z</time>
      </trkpt>
      <trkpt lat="36.819619" lon="-2.057162">
        <ele>55.343</ele>
        <time>2021-06-11T17:54:30Z</time>
      </trkpt>
      <trkpt lat="36.81952" lon="-2.057375">
        <ele>55.817</ele>
        <time>2021-06-11T17:54:31Z</time>
      </trkpt>
      <trkpt lat="36.819327" lon="-2.057801">
        <ele>56.108</ele>
        <time>2021-06-11T17:54:33Z</time>
      </trkpt>
      <trkpt lat="36.819147" lon="-2.058234">
        <ele>56.825</ele>
        <time>2021-06-11T17:54:35Z</time>
      </trkpt>
      <trkpt lat="36.81906" lon="-2.058452">
        <ele>57.943</ele>
        <time>2021-06-11T17:54:36Z</time>
      </trkpt>
      <trkpt lat="36.8189" lon="-2.058845">
        <ele>58.853</ele>
        <time>2021-06-11T17:54:38Z</time>
      </trkpt>
      <trkpt lat="36.818713" lon="-2.059267">
        <ele>61.051</ele>
        <time>2021-06-11T17:54:40Z</time>
      </trkpt>
      <trkpt lat="36.818497" lon="-2.059644">
        <ele>62.646</ele>
        <time>2021-06-11T17:54:42Z</time>
      </trkpt>
      <trkpt lat="36.818241" lon="-2.059987">
        <ele>63.967</ele>
        <time>2021-06-11T17:54:44Z</time>
      </trkpt>
      <trkpt lat="36.818102" lon="-2.060141">
        <ele>64.751</ele>
        <time>2021-06-11T17:54:45Z</time>
      </trkpt>
      <trkpt lat="36.817805" lon="-2.060419">
        <ele>65.194</ele>
        <time>2021-06-11T17:54:47Z</time>
      </trkpt>
      <trkpt lat="36.81748" lon="-2.060651">
        <ele>64.922</ele>
        <time>2021-06-11T17:54:49Z</time>
      </trkpt>
      <trkpt lat="36.817305" lon="-2.06074">
        <ele>64.862</ele>
        <time>2021-06-11T17:54:50Z</time>
      </trkpt>
      <trkpt lat="36.816938" lon="-2.060851">
        <ele>64.308</ele>
        <time>2021-06-11T17:54:52Z</time>
      </trkpt>
      <trkpt lat="36.816751" lon="-2.060893">
        <ele>63.908</ele>
        <time>2021-06-11T17:54:53Z</time>
      </trkpt>
      <trkpt lat="36.81657" lon="-2.060945">
        <ele>63.759</ele>
        <time>2021-06-11T17:54:54Z</time>
      </trkpt>
      <trkpt lat="36.816397" lon="-2.061011">
        <ele>63.917</ele>
        <time>2021-06-11T17:54:55Z</time>
      </trkpt>
      <trkpt lat="36.816069" lon="-2.061214">
        <ele>63.677</ele>
        <time>2021-06-11T17:54:57Z</time>
      </trkpt>
      <trkpt lat="36.815911" lon="-2.061336">
        <ele>63.135</ele>
        <time>2021-06-11T17:54:58Z</time>
      </trkpt>
      <trkpt lat="36.815759" lon="-2.061464">
        <ele>62.310</ele>
        <time>2021-06-11T17:54:59Z</time>
      </trkpt>
      <trkpt lat="36.81561" lon="-2.061594">
        <ele>61.261</ele>
        <time>2021-06-11T17:55:00Z</time>
      </trkpt>
      <trkpt lat="36.815458" lon="-2.061717">
        <ele>60.115</ele>
        <time>2021-06-11T17:55:01Z</time>
      </trkpt>
      <trkpt lat="36.81513" lon="-2.061878">
        <ele>59.058</ele>
        <time>2021-06-11T17:55:03Z</time>
      </trkpt>
      <trkpt lat="36.814952" lon="-2.061915">
        <ele>58.259</ele>
        <time>2021-06-11T17:55:04Z</time>
      </trkpt>
      <trkpt lat="36.814591" lon="-2.061907">
        <ele>56.903</ele>
        <time>2021-06-11T17:55:06Z</time>
      </trkpt>
      <trkpt lat="36.814408" lon="-2.061889">
        <ele>55.923</ele>
        <time>2021-06-11T17:55:07Z</time>
      </trkpt>
      <trkpt lat="36.814226" lon="-2.061873">
        <ele>55.308</ele>
        <time>2021-06-11T17:55:08Z</time>
      </trkpt>
      <trkpt lat="36.813857" lon="-2.06186">
        <ele>53.772</ele>
        <time>2021-06-11T17:55:10Z</time>
      </trkpt>
      <trkpt lat="36.813671" lon="-2.061855">
        <ele>52.670</ele>
        <time>2021-06-11T17:55:11Z</time>
      </trkpt>
      <trkpt lat="36.813484" lon="-2.061847">
        <ele>51.820</ele>
        <time>2021-06-11T17:55:12Z</time>
      </trkpt>
      <trkpt lat="36.813099" lon="-2.061812">
        <ele>50.188</ele>
        <time>2021-06-11T17:55:14Z</time>
      </trkpt>
      <trkpt lat="36.812906" lon="-2.061781">
        <ele>48.223</ele>
        <time>2021-06-11T17:55:15Z</time>
      </trkpt>
      <trkpt lat="36.812516" lon="-2.061702">
        <ele>45.794</ele>
        <time>2021-06-11T17:55:17Z</time>
      </trkpt>
      <trkpt lat="36.812319" lon="-2.061664">
        <ele>43.628</ele>
        <time>2021-06-11T17:55:18Z</time>
      </trkpt>
      <trkpt lat="36.811925" lon="-2.06159">
        <ele>41.211</ele>
        <time>2021-06-11T17:55:20Z</time>
      </trkpt>
      <trkpt lat="36.811732" lon="-2.061553">
        <ele>39.026</ele>
        <time>2021-06-11T17:55:21Z</time>
      </trkpt>
      <trkpt lat="36.81135" lon="-2.06148">
        <ele>37.447</ele>
        <time>2021-06-11T17:55:23Z</time>
      </trkpt>
      <trkpt lat="36.811167" lon="-2.06145">
        <ele>35.911</ele>
        <time>2021-06-11T17:55:24Z</time>
      </trkpt>
      <trkpt lat="36.810821" lon="-2.061445">
        <ele>34.908</ele>
        <time>2021-06-11T17:55:26Z</time>
      </trkpt>
      <trkpt lat="36.81049" lon="-2.061574">
        <ele>33.649</ele>
        <time>2021-06-11T17:55:28Z</time>
      </trkpt>
      <trkpt lat="36.810152" lon="-2.061758">
        <ele>32.547</ele>
        <time>2021-06-11T17:55:30Z</time>
      </trkpt>
      <trkpt lat="36.809974" lon="-2.061856">
        <ele>31.737</ele>
        <time>2021-06-11T17:55:31Z</time>
      </trkpt>
      <trkpt lat="36.809617" lon="-2.062048">
        <ele>30.585</ele>
        <time>2021-06-11T17:55:33Z</time>
      </trkpt>
      <trkpt lat="36.809411" lon="-2.062157">
        <ele>29.350</ele>
        <time>2021-06-11T17:55:34Z</time>
      </trkpt>
      <trkpt lat="36.809235" lon="-2.062245">
        <ele>27.841</ele>
        <time>2021-06-11T17:55:35Z</time>
      </trkpt>
      <trkpt lat="36.809054" lon="-2.062339">
        <ele>26.555</ele>
        <time>2021-06-11T17:55:36Z</time>
      </trkpt>
      <trkpt lat="36.808684" lon="-2.062526">
        <ele>25.268</ele>
        <time>2021-06-11T17:55:38Z</time>
      </trkpt>
      <trkpt lat="36.808492" lon="-2.062618">
        <ele>24.272</ele>
        <time>2021-06-11T17:55:39Z</time>
      </trkpt>
      <trkpt lat="36.808299" lon="-2.06271">
        <ele>23.213</ele>
        <time>2021-06-11T17:55:40Z</time>
      </trkpt>
      <trkpt lat="36.807933" lon="-2.06289">
        <ele>21.914</ele>
        <time>2021-06-11T17:55:42Z</time>
      </trkpt>
      <trkpt lat="36.807765" lon="-2.062976">
        <ele>21.408</ele>
        <time>2021-06-11T17:55:43Z</time>
      </trkpt>
      <trkpt lat="36.80747" lon="-2.063212">
        <ele>20.534</ele>
        <time>2021-06-11T17:55:45Z</time>
      </trkpt>
      <trkpt lat="36.807238" lon="-2.063546">
        <ele>19.352</ele>
        <time>2021-06-11T17:55:47Z</time>
      </trkpt>
      <trkpt lat="36.807154" lon="-2.063748">
        <ele>18.332</ele>
        <time>2021-06-11T17:55:48Z</time>
      </trkpt>
      <trkpt lat="36.807005" lon="-2.064196">
        <ele>18.140</ele>
        <time>2021-06-11T17:55:50Z</time>
      </trkpt>
      <trkpt lat="36.806873" lon="-2.064621">
        <ele>17.665</ele>
        <time>2021-06-11T17:55:52Z</time>
      </trkpt>
      <trkpt lat="36.806798" lon="-2.064868">
        <ele>17.296</ele>
        <time>2021-06-11T17:55:53Z</time>
      </trkpt>
      <trkpt lat="36.806724" lon="-2.065123">
        <ele>17.570</ele>
        <time>2021-06-11T17:55:54Z</time>
      </trkpt>
      <trkpt lat="36.806589" lon="-2.065592">
        <ele>18.013</ele>
        <time>2021-06-11T17:55:56Z</time>
      </trkpt>
      <trkpt lat="36.80652" lon="-2.065826">
        <ele>18.653</ele>
        <time>2021-06-11T17:55:57Z</time>
      </trkpt>
      <trkpt lat="36.806384" lon="-2.066285">
        <ele>20.004</ele>
        <time>2021-06-11T17:55:59Z</time>
      </trkpt>
      <trkpt lat="36.806251" lon="-2.066738">
        <ele>21.614</ele>
        <time>2021-06-11T17:56:01Z</time>
      </trkpt>
      <trkpt lat="36.806183" lon="-2.066963">
        <ele>22.708</ele>
        <time>2021-06-11T17:56:02Z</time>
      </trkpt>
      <trkpt lat="36.806118" lon="-2.06719">
        <ele>23.192</ele>
        <time>2021-06-11T17:56:03Z</time>
      </trkpt>
      <trkpt lat="36.806028" lon="-2.067652">
        <ele>23.550</ele>
        <time>2021-06-11T17:56:05Z</time>
      </trkpt>
      <trkpt lat="36.806009" lon="-2.067896">
        <ele>23.440</ele>
        <time>2021-06-11T17:56:06Z</time>
      </trkpt>
      <trkpt lat="36.806004" lon="-2.06817">
        <ele>23.688</ele>
        <time>2021-06-11T17:56:07Z</time>
      </trkpt>
      <trkpt lat="36.806006" lon="-2.068404">
        <ele>23.863</ele>
        <time>2021-06-11T17:56:08Z</time>
      </trkpt>
      <trkpt lat="36.806006" lon="-2.068909">
        <ele>23.844</ele>
        <time>2021-06-11T17:56:10Z</time>
      </trkpt>
      <trkpt lat="36.806016" lon="-2.06941">
        <ele>23.778</ele>
        <time>2021-06-11T17:56:12Z</time>
      </trkpt>
      <trkpt lat="36.806024" lon="-2.069652">
        <ele>23.561</ele>
        <time>2021-06-11T17:56:13Z</time>
      </trkpt>
      <trkpt lat="36.806037" lon="-2.070158">
        <ele>23.679</ele>
        <time>2021-06-11T17:56:15Z</time>
      </trkpt>
      <trkpt lat="36.806038" lon="-2.070651">
        <ele>23.705</ele>
        <time>2021-06-11T17:56:17Z</time>
      </trkpt>
      <trkpt lat="36.806036" lon="-2.071162">
        <ele>24.525</ele>
        <time>2021-06-11T17:56:19Z</time>
      </trkpt>
      <trkpt lat="36.80603" lon="-2.071701">
        <ele>25.308</ele>
        <time>2021-06-11T17:56:21Z</time>
      </trkpt>
      <trkpt lat="36.806034" lon="-2.072184">
        <ele>26.074</ele>
        <time>2021-06-11T17:56:23Z</time>
      </trkpt>
      <trkpt lat="36.806036" lon="-2.072478">
        <ele>27.132</ele>
        <time>2021-06-11T17:56:24Z</time>
      </trkpt>
      <trkpt lat="36.806044" lon="-2.072968">
        <ele>27.952</ele>
        <time>2021-06-11T17:56:26Z</time>
      </trkpt>
      <trkpt lat="36.806048" lon="-2.073408">
        <ele>28.730</ele>
        <time>2021-06-11T17:56:28Z</time>
      </trkpt>
      <trkpt lat="36.80606" lon="-2.07393">
        <ele>30.325</ele>
        <time>2021-06-11T17:56:30Z</time>
      </trkpt>
      <trkpt lat="36.806065" lon="-2.07416">
        <ele>32.056</ele>
        <time>2021-06-11T17:56:31Z</time>
      </trkpt>
      <trkpt lat="36.806074" lon="-2.074633">
        <ele>34.090</ele>
        <time>2021-06-11T17:56:33Z</time>
      </trkpt>
      <trkpt lat="36.806077" lon="-2.07511">
        <ele>36.073</ele>
        <time>2021-06-11T17:56:35Z</time>
      </trkpt>
      <trkpt lat="36.806081" lon="-2.075597">
        <ele>37.945</ele>
        <time>2021-06-11T17:56:37Z</time>
      </trkpt>
      <trkpt lat="36.806082" lon="-2.075822">
        <ele>39.147</ele>
        <time>2021-06-11T17:56:38Z</time>
      </trkpt>
      <trkpt lat="36.806087" lon="-2.076274">
        <ele>40.911</ele>
        <time>2021-06-11T17:56:40Z</time>
      </trkpt>
      <trkpt lat="36.806091" lon="-2.076693">
        <ele>42.808</ele>
        <time>2021-06-11T17:56:42Z</time>
      </trkpt>
      <trkpt lat="36.806097" lon="-2.076935">
        <ele>44.281</ele>
        <time>2021-06-11T17:56:43Z</time>
      </trkpt>
      <trkpt lat="36.806111" lon="-2.077121">
        <ele>45.389</ele>
        <time>2021-06-11T17:56:44Z</time>
      </trkpt>
      <trkpt lat="36.80617" lon="-2.077523">
        <ele>45.969</ele>
        <time>2021-06-11T17:56:46Z</time>
      </trkpt>
      <trkpt lat="36.806212" lon="-2.077745">
        <ele>46.237</ele>
        <time>2021-06-11T17:56:47Z</time>
      </trkpt>
      <trkpt lat="36.8063" lon="-2.07821">
        <ele>46.412</ele>
        <time>2021-06-11T17:56:49Z</time>
      </trkpt>
      <trkpt lat="36.806342" lon="-2.078455">
        <ele>46.063</ele>
        <time>2021-06-11T17:56:50Z</time>
      </trkpt>
      <trkpt lat="36.806413" lon="-2.078952">
        <ele>45.527</ele>
        <time>2021-06-11T17:56:52Z</time>
      </trkpt>
      <trkpt lat="36.806452" lon="-2.079247">
        <ele>45.330</ele>
        <time>2021-06-11T17:56:53Z</time>
      </trkpt>
      <trkpt lat="36.806495" lon="-2.079536">
        <ele>45.219</ele>
        <time>2021-06-11T17:56:54Z</time>
      </trkpt>
      <trkpt lat="36.806545" lon="-2.079831">
        <ele>45.109</ele>
        <time>2021-06-11T17:56:55Z</time>
      </trkpt>
      <trkpt lat="36.806599" lon="-2.080128">
        <ele>45.019</ele>
        <time>2021-06-11T17:56:56Z</time>
      </trkpt>
      <trkpt lat="36.806644" lon="-2.080387">
        <ele>44.508</ele>
        <time>2021-06-11T17:56:57Z</time>
      </trkpt>
      <trkpt lat="36.806682" lon="-2.080652">
        <ele>44.478</ele>
        <time>2021-06-11T17:56:58Z</time>
      </trkpt>
      <trkpt lat="36.806711" lon="-2.080921">
        <ele>44.146</ele>
        <time>2021-06-11T17:56:59Z</time>
      </trkpt>
      <trkpt lat="36.806759" lon="-2.081448">
        <ele>43.826</ele>
        <time>2021-06-11T17:57:01Z</time>
      </trkpt>
      <trkpt lat="36.806782" lon="-2.081711">
        <ele>44.014</ele>
        <time>2021-06-11T17:57:02Z</time>
      </trkpt>
      <trkpt lat="36.806826" lon="-2.082187">
        <ele>45.039</ele>
        <time>2021-06-11T17:57:04Z</time>
      </trkpt>
      <trkpt lat="36.806867" lon="-2.082744">
        <ele>46.110</ele>
        <time>2021-06-11T17:57:06Z</time>
      </trkpt>
      <trkpt lat="36.806908" lon="-2.083293">
        <ele>47.454</ele>
        <time>2021-06-11T17:57:08Z</time>
      </trkpt>
      <trkpt lat="36.806949" lon="-2.08379">
        <ele>48.737</ele>
        <time>2021-06-11T17:57:10Z</time>
      </trkpt>
      <trkpt lat="36.806987" lon="-2.084299">
        <ele>49.727</ele>
        <time>2021-06-11T17:57:12Z</time>
      </trkpt>
      <trkpt lat="36.807011" lon="-2.084825">
        <ele>50.668</ele>
        <time>2021-06-11T17:57:14Z</time>
      </trkpt>
      <trkpt lat="36.80702" lon="-2.085323">
        <ele>51.314</ele>
        <time>2021-06-11T17:57:16Z</time>
      </trkpt>
      <trkpt lat="36.807038" lon="-2.085868">
        <ele>52.008</ele>
        <time>2021-06-11T17:57:18Z</time>
      </trkpt>
      <trkpt lat="36.807045" lon="-2.086146">
        <ele>52.299</ele>
        <time>2021-06-11T17:57:19Z</time>
      </trkpt>
      <trkpt lat="36.807042" lon="-2.086697">
        <ele>53.387</ele>
        <time>2021-06-11T17:57:21Z</time>
      </trkpt>
      <trkpt lat="36.807021" lon="-2.086962">
        <ele>54.427</ele>
        <time>2021-06-11T17:57:22Z</time>
      </trkpt>
      <trkpt lat="36.806972" lon="-2.087219">
        <ele>55.955</ele>
        <time>2021-06-11T17:57:23Z</time>
      </trkpt>
      <trkpt lat="36.806774" lon="-2.087687">
        <ele>57.770</ele>
        <time>2021-06-11T17:57:25Z</time>
      </trkpt>
      <trkpt lat="36.806483" lon="-2.088093">
        <ele>60.071</ele>
        <time>2021-06-11T17:57:27Z</time>
      </trkpt>
      <trkpt lat="36.806325" lon="-2.088277">
        <ele>61.545</ele>
        <time>2021-06-11T17:57:28Z</time>
      </trkpt>
      <trkpt lat="36.805984" lon="-2.088649">
        <ele>63.748</ele>
        <time>2021-06-11T17:57:30Z</time>
      </trkpt>
      <trkpt lat="36.805827" lon="-2.088815">
        <ele>65.592</ele>
        <time>2021-06-11T17:57:31Z</time>
      </trkpt>
      <trkpt lat="36.805668" lon="-2.088987">
        <ele>66.973</ele>
        <time>2021-06-11T17:57:32Z</time>
      </trkpt>
      <trkpt lat="36.805347" lon="-2.08934">
        <ele>68.220</ele>
        <time>2021-06-11T17:57:34Z</time>
      </trkpt>
      <trkpt lat="36.805025" lon="-2.089682">
        <ele>68.508</ele>
        <time>2021-06-11T17:57:36Z</time>
      </trkpt>
      <trkpt lat="36.804692" lon="-2.090025">
        <ele>68.816</ele>
        <time>2021-06-11T17:57:38Z</time>
      </trkpt>
      <trkpt lat="36.804528" lon="-2.090201">
        <ele>68.964</ele>
        <time>2021-06-11T17:57:39Z</time>
      </trkpt>
      <trkpt lat="36.804197" lon="-2.090556">
        <ele>69.094</ele>
        <time>2021-06-11T17:57:41Z</time>
      </trkpt>
      <trkpt lat="36.80387" lon="-2.090929">
        <ele>69.112</ele>
        <time>2021-06-11T17:57:43Z</time>
      </trkpt>
      <trkpt lat="36.803559" lon="-2.091289">
        <ele>69.297</ele>
        <time>2021-06-11T17:57:45Z</time>
      </trkpt>
      <trkpt lat="36.803406" lon="-2.091463">
        <ele>69.138</ele>
        <time>2021-06-11T17:57:46Z</time>
      </trkpt>
      <trkpt lat="36.80325" lon="-2.091637">
        <ele>69.412</ele>
        <time>2021-06-11T17:57:47Z</time>
      </trkpt>
      <trkpt lat="36.802957" lon="-2.091962">
        <ele>69.985</ele>
        <time>2021-06-11T17:57:49Z</time>
      </trkpt>
      <trkpt lat="36.802623" lon="-2.092337">
        <ele>70.752</ele>
        <time>2021-06-11T17:57:51Z</time>
      </trkpt>
      <trkpt lat="36.802313" lon="-2.092678">
        <ele>71.353</ele>
        <time>2021-06-11T17:57:53Z</time>
      </trkpt>
      <trkpt lat="36.80214" lon="-2.092865">
        <ele>71.708</ele>
        <time>2021-06-11T17:57:54Z</time>
      </trkpt>
      <trkpt lat="36.801867" lon="-2.093198">
        <ele>72.108</ele>
        <time>2021-06-11T17:57:56Z</time>
      </trkpt>
      <trkpt lat="36.801737" lon="-2.093391">
        <ele>71.962</ele>
        <time>2021-06-11T17:57:57Z</time>
      </trkpt>
      <trkpt lat="36.801617" lon="-2.093598">
        <ele>72.090</ele>
        <time>2021-06-11T17:57:58Z</time>
      </trkpt>
      <trkpt lat="36.801401" lon="-2.094008">
        <ele>71.870</ele>
        <time>2021-06-11T17:58:00Z</time>
      </trkpt>
      <trkpt lat="36.80127" lon="-2.094251">
        <ele>71.638</ele>
        <time>2021-06-11T17:58:01Z</time>
      </trkpt>
      <trkpt lat="36.801154" lon="-2.094455">
        <ele>71.433</ele>
        <time>2021-06-11T17:58:02Z</time>
      </trkpt>
      <trkpt lat="36.800928" lon="-2.094835">
        <ele>71.694</ele>
        <time>2021-06-11T17:58:04Z</time>
      </trkpt>
      <trkpt lat="36.80068" lon="-2.095234">
        <ele>72.618</ele>
        <time>2021-06-11T17:58:06Z</time>
      </trkpt>
      <trkpt lat="36.800545" lon="-2.095448">
        <ele>73.161</ele>
        <time>2021-06-11T17:58:07Z</time>
      </trkpt>
      <trkpt lat="36.800363" lon="-2.095771">
        <ele>74.164</ele>
        <time>2021-06-11T17:58:09Z</time>
      </trkpt>
      <trkpt lat="36.80027" lon="-2.095995">
        <ele>75.206</ele>
        <time>2021-06-11T17:58:10Z</time>
      </trkpt>
      <trkpt lat="36.80022" lon="-2.096203">
        <ele>76.216</ele>
        <time>2021-06-11T17:58:11Z</time>
      </trkpt>
      <trkpt lat="36.800149" lon="-2.096652">
        <ele>77.508</ele>
        <time>2021-06-11T17:58:13Z</time>
      </trkpt>
      <trkpt lat="36.800109" lon="-2.096882">
        <ele>78.823</ele>
        <time>2021-06-11T17:58:14Z</time>
      </trkpt>
      <trkpt lat="36.799971" lon="-2.097327">
        <ele>80.611</ele>
        <time>2021-06-11T17:58:16Z</time>
      </trkpt>
      <trkpt lat="36.7998" lon="-2.097723">
        <ele>81.781</ele>
        <time>2021-06-11T17:58:18Z</time>
      </trkpt>
      <trkpt lat="36.799684" lon="-2.097978">
        <ele>82.829</ele>
        <time>2021-06-11T17:58:19Z</time>
      </trkpt>
      <trkpt lat="36.799483" lon="-2.098393">
        <ele>83.774</ele>
        <time>2021-06-11T17:58:21Z</time>
      </trkpt>
      <trkpt lat="36.799286" lon="-2.098809">
        <ele>84.775</ele>
        <time>2021-06-11T17:58:23Z</time>
      </trkpt>
      <trkpt lat="36.799176" lon="-2.099043">
        <ele>85.059</ele>
        <time>2021-06-11T17:58:24Z</time>
      </trkpt>
      <trkpt lat="36.799" lon="-2.09943">
        <ele>85.272</ele>
        <time>2021-06-11T17:58:26Z</time>
      </trkpt>
      <trkpt lat="36.798917" lon="-2.099628">
        <ele>85.474</ele>
        <time>2021-06-11T17:58:27Z</time>
      </trkpt>
      <trkpt lat="36.798766" lon="-2.100061">
        <ele>85.656</ele>
        <time>2021-06-11T17:58:29Z</time>
      </trkpt>
      <trkpt lat="36.798631" lon="-2.100533">
        <ele>85.421</ele>
        <time>2021-06-11T17:58:31Z</time>
      </trkpt>
      <trkpt lat="36.798541" lon="-2.101028">
        <ele>85.408</ele>
        <time>2021-06-11T17:58:33Z</time>
      </trkpt>
      <trkpt lat="36.798514" lon="-2.101286">
        <ele>85.584</ele>
        <time>2021-06-11T17:58:34Z</time>
      </trkpt>
      <trkpt lat="36.798465" lon="-2.101805">
        <ele>85.432</ele>
        <time>2021-06-11T17:58:36Z</time>
      </trkpt>
      <trkpt lat="36.798394" lon="-2.1023">
        <ele>86.332</ele>
        <time>2021-06-11T17:58:38Z</time>
      </trkpt>
      <trkpt lat="36.798338" lon="-2.102594">
        <ele>86.880</ele>
        <time>2021-06-11T17:58:39Z</time>
      </trkpt>
      <trkpt lat="36.798218" lon="-2.103072">
        <ele>87.725</ele>
        <time>2021-06-11T17:58:41Z</time>
      </trkpt>
      <trkpt lat="36.798153" lon="-2.103316">
        <ele>88.476</ele>
        <time>2021-06-11T17:58:42Z</time>
      </trkpt>
      <trkpt lat="36.798087" lon="-2.103559">
        <ele>89.120</ele>
        <time>2021-06-11T17:58:43Z</time>
      </trkpt>
      <trkpt lat="36.797957" lon="-2.104038">
        <ele>90.233</ele>
        <time>2021-06-11T17:58:45Z</time>
      </trkpt>
      <trkpt lat="36.797888" lon="-2.104279">
        <ele>91.212</ele>
        <time>2021-06-11T17:58:46Z</time>
      </trkpt>
      <trkpt lat="36.797751" lon="-2.104761">
        <ele>92.732</ele>
        <time>2021-06-11T17:58:48Z</time>
      </trkpt>
      <trkpt lat="36.797623" lon="-2.105211">
        <ele>93.605</ele>
        <time>2021-06-11T17:58:50Z</time>
      </trkpt>
      <trkpt lat="36.797534" lon="-2.105494">
        <ele>94.108</ele>
        <time>2021-06-11T17:58:51Z</time>
      </trkpt>
      <trkpt lat="36.797373" lon="-2.105921">
        <ele>94.698</ele>
        <time>2021-06-11T17:58:53Z</time>
      </trkpt>
      <trkpt lat="36.797261" lon="-2.10617">
        <ele>94.426</ele>
        <time>2021-06-11T17:58:54Z</time>
      </trkpt>
      <trkpt lat="36.797053" lon="-2.10659">
        <ele>94.796</ele>
        <time>2021-06-11T17:58:56Z</time>
      </trkpt>
      <trkpt lat="36.796847" lon="-2.107012">
        <ele>94.314</ele>
        <time>2021-06-11T17:58:58Z</time>
      </trkpt>
      <trkpt lat="36.796746" lon="-2.107221">
        <ele>93.739</ele>
        <time>2021-06-11T17:58:59Z</time>
      </trkpt>
      <trkpt lat="36.796642" lon="-2.107429">
        <ele>93.030</ele>
        <time>2021-06-11T17:59:00Z</time>
      </trkpt>
      <trkpt lat="36.796543" lon="-2.107634">
        <ele>92.314</ele>
        <time>2021-06-11T17:59:01Z</time>
      </trkpt>
      <trkpt lat="36.796355" lon="-2.108036">
        <ele>91.677</ele>
        <time>2021-06-11T17:59:03Z</time>
      </trkpt>
      <trkpt lat="36.796198" lon="-2.108391">
        <ele>91.091</ele>
        <time>2021-06-11T17:59:05Z</time>
      </trkpt>
      <trkpt lat="36.796109" lon="-2.108602">
        <ele>90.581</ele>
        <time>2021-06-11T17:59:06Z</time>
      </trkpt>
      <trkpt lat="36.795953" lon="-2.108967">
        <ele>90.119</ele>
        <time>2021-06-11T17:59:08Z</time>
      </trkpt>
      <trkpt lat="36.795821" lon="-2.109309">
        <ele>89.308</ele>
        <time>2021-06-11T17:59:10Z</time>
      </trkpt>
      <trkpt lat="36.795748" lon="-2.109504">
        <ele>88.876</ele>
        <time>2021-06-11T17:59:11Z</time>
      </trkpt>
      <trkpt lat="36.795675" lon="-2.109697">
        <ele>88.034</ele>
        <time>2021-06-11T17:59:12Z</time>
      </trkpt>
      <trkpt lat="36.795534" lon="-2.110087">
        <ele>87.214</ele>
        <time>2021-06-11T17:59:14Z</time>
      </trkpt>
      <trkpt lat="36.795464" lon="-2.110289">
        <ele>86.272</ele>
        <time>2021-06-11T17:59:15Z</time>
      </trkpt>
      <trkpt lat="36.79533" lon="-2.110671">
        <ele>85.567</ele>
        <time>2021-06-11T17:59:17Z</time>
      </trkpt>
      <trkpt lat="36.795258" lon="-2.110867">
        <ele>85.038</ele>
        <time>2021-06-11T17:59:18Z</time>
      </trkpt>
      <trkpt lat="36.795184" lon="-2.111063">
        <ele>84.782</ele>
        <time>2021-06-11T17:59:19Z</time>
      </trkpt>
      <trkpt lat="36.795045" lon="-2.11145">
        <ele>84.055</ele>
        <time>2021-06-11T17:59:21Z</time>
      </trkpt>
      <trkpt lat="36.794975" lon="-2.111646">
        <ele>83.637</ele>
        <time>2021-06-11T17:59:22Z</time>
      </trkpt>
      <trkpt lat="36.794906" lon="-2.11184">
        <ele>82.949</ele>
        <time>2021-06-11T17:59:23Z</time>
      </trkpt>
      <trkpt lat="36.794833" lon="-2.112033">
        <ele>82.513</ele>
        <time>2021-06-11T17:59:24Z</time>
      </trkpt>
      <trkpt lat="36.794754" lon="-2.112229">
        <ele>82.008</ele>
        <time>2021-06-11T17:59:25Z</time>
      </trkpt>
      <trkpt lat="36.794596" lon="-2.112607">
        <ele>81.880</ele>
        <time>2021-06-11T17:59:27Z</time>
      </trkpt>
      <trkpt lat="36.794462" lon="-2.112954">
        <ele>82.288</ele>
        <time>2021-06-11T17:59:29Z</time>
      </trkpt>
      <trkpt lat="36.794352" lon="-2.113272">
        <ele>82.718</ele>
        <time>2021-06-11T17:59:31Z</time>
      </trkpt>
      <trkpt lat="36.794295" lon="-2.113549">
        <ele>83.156</ele>
        <time>2021-06-11T17:59:33Z</time>
      </trkpt>
      <trkpt lat="36.79432" lon="-2.113812">
        <ele>83.441</ele>
        <time>2021-06-11T17:59:35Z</time>
      </trkpt>
      <trkpt lat="36.794445" lon="-2.114095">
        <ele>83.452</ele>
        <time>2021-06-11T17:59:37Z</time>
      </trkpt>
      <trkpt lat="36.794526" lon="-2.114243">
        <ele>83.446</ele>
        <time>2021-06-11T17:59:38Z</time>
      </trkpt>
      <trkpt lat="36.79461" lon="-2.114398">
        <ele>83.169</ele>
        <time>2021-06-11T17:59:39Z</time>
      </trkpt>
      <trkpt lat="36.794696" lon="-2.114559">
        <ele>83.075</ele>
        <time>2021-06-11T17:59:40Z</time>
      </trkpt>
      <trkpt lat="36.794784" lon="-2.114725">
        <ele>82.828</ele>
        <time>2021-06-11T17:59:41Z</time>
      </trkpt>
      <trkpt lat="36.794872" lon="-2.114903">
        <ele>82.620</ele>
        <time>2021-06-11T17:59:42Z</time>
      </trkpt>
      <trkpt lat="36.795064" lon="-2.115257">
        <ele>82.008</ele>
        <time>2021-06-11T17:59:44Z</time>
      </trkpt>
      <trkpt lat="36.795185" lon="-2.115447">
        <ele>81.644</ele>
        <time>2021-06-11T17:59:45Z</time>
      </trkpt>
      <trkpt lat="36.79542" lon="-2.115722">
        <ele>81.382</ele>
        <time>2021-06-11T17:59:47Z</time>
      </trkpt>
      <trkpt lat="36.795564" lon="-2.115888">
        <ele>81.452</ele>
        <time>2021-06-11T17:59:48Z</time>
      </trkpt>
      <trkpt lat="36.795793" lon="-2.116147">
        <ele>82.120</ele>
        <time>2021-06-11T17:59:50Z</time>
      </trkpt>
      <trkpt lat="36.796047" lon="-2.116429">
        <ele>83.285</ele>
        <time>2021-06-11T17:59:52Z</time>
      </trkpt>
      <trkpt lat="36.79632" lon="-2.116671">
        <ele>84.026</ele>
        <time>2021-06-11T17:59:54Z</time>
      </trkpt>
      <trkpt lat="36.796454" lon="-2.11679">
        <ele>85.030</ele>
        <time>2021-06-11T17:59:55Z</time>
      </trkpt>
      <trkpt lat="36.796691" lon="-2.117068">
        <ele>86.493</ele>
        <time>2021-06-11T17:59:57Z</time>
      </trkpt>
      <trkpt lat="36.796782" lon="-2.11724">
        <ele>87.848</ele>
        <time>2021-06-11T17:59:58Z</time>
      </trkpt>
      <trkpt lat="36.7969" lon="-2.11763">
        <ele>89.361</ele>
        <time>2021-06-11T18:00:00Z</time>
      </trkpt>
      <trkpt lat="36.79694" lon="-2.118078">
        <ele>90.517</ele>
        <time>2021-06-11T18:00:02Z</time>
      </trkpt>
      <trkpt lat="36.796964" lon="-2.118537">
        <ele>91.808</ele>
        <time>2021-06-11T18:00:04Z</time>
      </trkpt>
      <trkpt lat="36.79699" lon="-2.118766">
        <ele>92.511</ele>
        <time>2021-06-11T18:00:05Z</time>
      </trkpt>
      <trkpt lat="36.797074" lon="-2.119243">
        <ele>93.599</ele>
        <time>2021-06-11T18:00:07Z</time>
      </trkpt>
      <trkpt lat="36.797164" lon="-2.119661">
        <ele>94.649</ele>
        <time>2021-06-11T18:00:09Z</time>
      </trkpt>
      <trkpt lat="36.79721" lon="-2.119877">
        <ele>95.867</ele>
        <time>2021-06-11T18:00:10Z</time>
      </trkpt>
      <trkpt lat="36.797301" lon="-2.120317">
        <ele>96.972</ele>
        <time>2021-06-11T18:00:12Z</time>
      </trkpt>
      <trkpt lat="36.797344" lon="-2.120544">
        <ele>97.843</ele>
        <time>2021-06-11T18:00:13Z</time>
      </trkpt>
      <trkpt lat="36.797385" lon="-2.120772">
        <ele>98.337</ele>
        <time>2021-06-11T18:00:14Z</time>
      </trkpt>
      <trkpt lat="36.797466" lon="-2.121223">
        <ele>99.040</ele>
        <time>2021-06-11T18:00:16Z</time>
      </trkpt>
      <trkpt lat="36.797609" lon="-2.121632">
        <ele>100.257</ele>
        <time>2021-06-11T18:00:18Z</time>
      </trkpt>
      <trkpt lat="36.79785" lon="-2.121971">
        <ele>101.000</ele>
        <time>2021-06-11T18:00:20Z</time>
      </trkpt>
      <trkpt lat="36.798176" lon="-2.122273">
        <ele>101.920</ele>
        <time>2021-06-11T18:00:22Z</time>
      </trkpt>
      <trkpt lat="36.798349" lon="-2.122408">
        <ele>102.908</ele>
        <time>2021-06-11T18:00:23Z</time>
      </trkpt>
      <trkpt lat="36.798683" lon="-2.122694">
        <ele>103.862</ele>
        <time>2021-06-11T18:00:25Z</time>
      </trkpt>
      <trkpt lat="36.798846" lon="-2.122849">
        <ele>104.940</ele>
        <time>2021-06-11T18:00:26Z</time>
      </trkpt>
      <trkpt lat="36.798999" lon="-2.123017">
        <ele>105.990</ele>
        <time>2021-06-11T18:00:27Z</time>
      </trkpt>
      <trkpt lat="36.799158" lon="-2.123213">
        <ele>107.078</ele>
        <time>2021-06-11T18:00:28Z</time>
      </trkpt>
      <trkpt lat="36.799282" lon="-2.123391">
        <ele>108.093</ele>
        <time>2021-06-11T18:00:29Z</time>
      </trkpt>
      <trkpt lat="36.799515" lon="-2.123771">
        <ele>108.764</ele>
        <time>2021-06-11T18:00:31Z</time>
      </trkpt>
      <trkpt lat="36.799758" lon="-2.124159">
        <ele>109.648</ele>
        <time>2021-06-11T18:00:33Z</time>
      </trkpt>
      <trkpt lat="36.800009" lon="-2.124529">
        <ele>110.441</ele>
        <time>2021-06-11T18:00:35Z</time>
      </trkpt>
      <trkpt lat="36.800255" lon="-2.124886">
        <ele>111.768</ele>
        <time>2021-06-11T18:00:37Z</time>
      </trkpt>
      <trkpt lat="36.800513" lon="-2.125264">
        <ele>112.842</ele>
        <time>2021-06-11T18:00:39Z</time>
      </trkpt>
      <trkpt lat="36.800635" lon="-2.125439">
        <ele>113.526</ele>
        <time>2021-06-11T18:00:40Z</time>
      </trkpt>
      <trkpt lat="36.800883" lon="-2.125825">
        <ele>114.008</ele>
        <time>2021-06-11T18:00:42Z</time>
      </trkpt>
      <trkpt lat="36.801109" lon="-2.126202">
        <ele>114.553</ele>
        <time>2021-06-11T18:00:44Z</time>
      </trkpt>
      <trkpt lat="36.801242" lon="-2.126426">
        <ele>114.781</ele>
        <time>2021-06-11T18:00:45Z</time>
      </trkpt>
      <trkpt lat="36.801505" lon="-2.126871">
        <ele>115.231</ele>
        <time>2021-06-11T18:00:47Z</time>
      </trkpt>
      <trkpt lat="36.801741" lon="-2.127265">
        <ele>115.159</ele>
        <time>2021-06-11T18:00:49Z</time>
      </trkpt>
      <trkpt lat="36.801995" lon="-2.127667">
        <ele>115.384</ele>
        <time>2021-06-11T18:00:51Z</time>
      </trkpt>
      <trkpt lat="36.802117" lon="-2.127864">
        <ele>115.445</ele>
        <time>2021-06-11T18:00:52Z</time>
      </trkpt>
      <trkpt lat="36.80234" lon="-2.128259">
        <ele>114.719</ele>
        <time>2021-06-11T18:00:54Z</time>
      </trkpt>
      <trkpt lat="36.802478" lon="-2.128496">
        <ele>114.382</ele>
        <time>2021-06-11T18:00:55Z</time>
      </trkpt>
      <trkpt lat="36.802697" lon="-2.128928">
        <ele>113.537</ele>
        <time>2021-06-11T18:00:57Z</time>
      </trkpt>
      <trkpt lat="36.802886" lon="-2.129366">
        <ele>113.449</ele>
        <time>2021-06-11T18:00:59Z</time>
      </trkpt>
      <trkpt lat="36.803117" lon="-2.129816">
        <ele>113.313</ele>
        <time>2021-06-11T18:01:01Z</time>
      </trkpt>
      <trkpt lat="36.803346" lon="-2.130192">
        <ele>113.408</ele>
        <time>2021-06-11T18:01:03Z</time>
      </trkpt>
      <trkpt lat="36.803482" lon="-2.13041">
        <ele>113.720</ele>
        <time>2021-06-11T18:01:04Z</time>
      </trkpt>
      <trkpt lat="36.803613" lon="-2.130625">
        <ele>113.948</ele>
        <time>2021-06-11T18:01:05Z</time>
      </trkpt>
      <trkpt lat="36.803761" lon="-2.130868">
        <ele>114.038</ele>
        <time>2021-06-11T18:01:06Z</time>
      </trkpt>
      <trkpt lat="36.803886" lon="-2.131069">
        <ele>114.046</ele>
        <time>2021-06-11T18:01:07Z</time>
      </trkpt>
      <trkpt lat="36.804129" lon="-2.131457">
        <ele>114.051</ele>
        <time>2021-06-11T18:01:09Z</time>
      </trkpt>
      <trkpt lat="36.804281" lon="-2.131705">
        <ele>114.292</ele>
        <time>2021-06-11T18:01:10Z</time>
      </trkpt>
      <trkpt lat="36.804402" lon="-2.131902">
        <ele>114.286</ele>
        <time>2021-06-11T18:01:11Z</time>
      </trkpt>
      <trkpt lat="36.804648" lon="-2.132245">
        <ele>114.269</ele>
        <time>2021-06-11T18:01:13Z</time>
      </trkpt>
      <trkpt lat="36.804888" lon="-2.132484">
        <ele>113.924</ele>
        <time>2021-06-11T18:01:15Z</time>
      </trkpt>
      <trkpt lat="36.805012" lon="-2.132582">
        <ele>113.504</ele>
        <time>2021-06-11T18:01:16Z</time>
      </trkpt>
      <trkpt lat="36.805219" lon="-2.132737">
        <ele>113.414</ele>
        <time>2021-06-11T18:01:18Z</time>
      </trkpt>
      <trkpt lat="36.805328" lon="-2.132815">
        <ele>113.508</ele>
        <time>2021-06-11T18:01:19Z</time>
      </trkpt>
      <trkpt lat="36.805404" lon="-2.132868">
        <ele>113.679</ele>
        <time>2021-06-11T18:01:20Z</time>
      </trkpt>
      <trkpt lat="36.805537" lon="-2.132945">
        <ele>113.787</ele>
        <time>2021-06-11T18:01:22Z</time>
      </trkpt>
      <trkpt lat="36.805658" lon="-2.133012">
        <ele>114.237</ele>
        <time>2021-06-11T18:01:24Z</time>
      </trkpt>
      <trkpt lat="36.805712" lon="-2.133183">
        <ele>114.095</ele>
        <time>2021-06-11T18:01:26Z</time>
      </trkpt>
      <trkpt lat="36.805722" lon="-2.133412">
        <ele>113.870</ele>
        <time>2021-06-11T18:01:28Z</time>
      </trkpt>
      <trkpt lat="36.805821" lon="-2.133653">
        <ele>114.231</ele>
        <time>2021-06-11T18:01:30Z</time>
      </trkpt>
      <trkpt lat="36.805973" lon="-2.133932">
        <ele>113.645</ele>
        <time>2021-06-11T18:01:32Z</time>
      </trkpt>
      <trkpt lat="36.806068" lon="-2.134081">
        <ele>113.418</ele>
        <time>2021-06-11T18:01:33Z</time>
      </trkpt>
      <trkpt lat="36.806287" lon="-2.134381">
        <ele>112.672</ele>
        <time>2021-06-11T18:01:35Z</time>
      </trkpt>
      <trkpt lat="36.806537" lon="-2.134701">
        <ele>112.313</ele>
        <time>2021-06-11T18:01:37Z</time>
      </trkpt>
      <trkpt lat="36.806766" lon="-2.135005">
        <ele>112.114</ele>
        <time>2021-06-11T18:01:39Z</time>
      </trkpt>
      <trkpt lat="36.806922" lon="-2.13521">
        <ele>112.108</ele>
        <time>2021-06-11T18:01:40Z</time>
      </trkpt>
      <trkpt lat="36.807182" lon="-2.13556">
        <ele>111.654</ele>
        <time>2021-06-11T18:01:42Z</time>
      </trkpt>
      <trkpt lat="36.807447" lon="-2.135912">
        <ele>110.712</ele>
        <time>2021-06-11T18:01:44Z</time>
      </trkpt>
      <trkpt lat="36.807731" lon="-2.136286">
        <ele>109.782</ele>
        <time>2021-06-11T18:01:46Z</time>
      </trkpt>
      <trkpt lat="36.807984" lon="-2.136618">
        <ele>109.060</ele>
        <time>2021-06-11T18:01:48Z</time>
      </trkpt>
      <trkpt lat="36.808147" lon="-2.136834">
        <ele>108.785</ele>
        <time>2021-06-11T18:01:49Z</time>
      </trkpt>
      <trkpt lat="36.808406" lon="-2.137209">
        <ele>107.856</ele>
        <time>2021-06-11T18:01:51Z</time>
      </trkpt>
      <trkpt lat="36.808629" lon="-2.137564">
        <ele>107.390</ele>
        <time>2021-06-11T18:01:53Z</time>
      </trkpt>
      <trkpt lat="36.808742" lon="-2.137784">
        <ele>106.763</ele>
        <time>2021-06-11T18:01:54Z</time>
      </trkpt>
      <trkpt lat="36.80891" lon="-2.13825">
        <ele>106.566</ele>
        <time>2021-06-11T18:01:56Z</time>
      </trkpt>
      <trkpt lat="36.80909" lon="-2.138735">
        <ele>106.929</ele>
        <time>2021-06-11T18:01:58Z</time>
      </trkpt>
      <trkpt lat="36.80919" lon="-2.138937">
        <ele>106.821</ele>
        <time>2021-06-11T18:01:59Z</time>
      </trkpt>
      <trkpt lat="36.809421" lon="-2.139339">
        <ele>106.608</ele>
        <time>2021-06-11T18:02:01Z</time>
      </trkpt>
      <trkpt lat="36.809655" lon="-2.139717">
        <ele>106.093</ele>
        <time>2021-06-11T18:02:03Z</time>
      </trkpt>
      <trkpt lat="36.809788" lon="-2.139945">
        <ele>105.741</ele>
        <time>2021-06-11T18:02:04Z</time>
      </trkpt>
      <trkpt lat="36.810011" lon="-2.140318">
        <ele>105.251</ele>
        <time>2021-06-11T18:02:06Z</time>
      </trkpt>
      <trkpt lat="36.810138" lon="-2.140535">
        <ele>104.979</ele>
        <time>2021-06-11T18:02:07Z</time>
      </trkpt>
      <trkpt lat="36.810247" lon="-2.140717">
        <ele>104.734</ele>
        <time>2021-06-11T18:02:08Z</time>
      </trkpt>
      <trkpt lat="36.810463" lon="-2.141083">
        <ele>104.585</ele>
        <time>2021-06-11T18:02:10Z</time>
      </trkpt>
      <trkpt lat="36.810575" lon="-2.141272">
        <ele>104.459</ele>
        <time>2021-06-11T18:02:11Z</time>
      </trkpt>
      <trkpt lat="36.810799" lon="-2.141654">
        <ele>103.722</ele>
        <time>2021-06-11T18:02:13Z</time>
      </trkpt>
      <trkpt lat="36.811011" lon="-2.141994">
        <ele>103.054</ele>
        <time>2021-06-11T18:02:15Z</time>
      </trkpt>
      <trkpt lat="36.811146" lon="-2.142199">
        <ele>102.456</ele>
        <time>2021-06-11T18:02:16Z</time>
      </trkpt>
      <trkpt lat="36.811402" lon="-2.142479">
        <ele>101.911</ele>
        <time>2021-06-11T18:02:18Z</time>
      </trkpt>
      <trkpt lat="36.811577" lon="-2.142595">
        <ele>101.608</ele>
        <time>2021-06-11T18:02:19Z</time>
      </trkpt>
      <trkpt lat="36.811743" lon="-2.142677">
        <ele>100.912</ele>
        <time>2021-06-11T18:02:20Z</time>
      </trkpt>
      <trkpt lat="36.812096" lon="-2.142861">
        <ele>100.780</ele>
        <time>2021-06-11T18:02:22Z</time>
      </trkpt>
      <trkpt lat="36.812263" lon="-2.14296">
        <ele>100.640</ele>
        <time>2021-06-11T18:02:23Z</time>
      </trkpt>
      <trkpt lat="36.812596" lon="-2.143166">
        <ele>100.468</ele>
        <time>2021-06-11T18:02:25Z</time>
      </trkpt>
      <trkpt lat="36.812798" lon="-2.143305">
        <ele>100.213</ele>
        <time>2021-06-11T18:02:26Z</time>
      </trkpt>
      <trkpt lat="36.813103" lon="-2.143577">
        <ele>100.134</ele>
        <time>2021-06-11T18:02:28Z</time>
      </trkpt>
      <trkpt lat="36.81325" lon="-2.143741">
        <ele>100.318</ele>
        <time>2021-06-11T18:02:29Z</time>
      </trkpt>
      <trkpt lat="36.813528" lon="-2.144126">
        <ele>100.011</ele>
        <time>2021-06-11T18:02:31Z</time>
      </trkpt>
      <trkpt lat="36.813764" lon="-2.144514">
        <ele>99.373</ele>
        <time>2021-06-11T18:02:33Z</time>
      </trkpt>
      <trkpt lat="36.813898" lon="-2.144728">
        <ele>98.785</ele>
        <time>2021-06-11T18:02:34Z</time>
      </trkpt>
      <trkpt lat="36.814168" lon="-2.14516">
        <ele>98.113</ele>
        <time>2021-06-11T18:02:36Z</time>
      </trkpt>
      <trkpt lat="36.814433" lon="-2.14558">
        <ele>97.408</ele>
        <time>2021-06-11T18:02:38Z</time>
      </trkpt>
      <trkpt lat="36.814678" lon="-2.145956">
        <ele>96.894</ele>
        <time>2021-06-11T18:02:40Z</time>
      </trkpt>
      <trkpt lat="36.814923" lon="-2.146322">
        <ele>95.822</ele>
        <time>2021-06-11T18:02:42Z</time>
      </trkpt>
      <trkpt lat="36.815162" lon="-2.146692">
        <ele>95.382</ele>
        <time>2021-06-11T18:02:44Z</time>
      </trkpt>
      <trkpt lat="36.815408" lon="-2.147054">
        <ele>94.870</ele>
        <time>2021-06-11T18:02:46Z</time>
      </trkpt>
      <trkpt lat="36.815533" lon="-2.147239">
        <ele>94.525</ele>
        <time>2021-06-11T18:02:47Z</time>
      </trkpt>
      <trkpt lat="36.815783" lon="-2.147626">
        <ele>94.076</ele>
        <time>2021-06-11T18:02:49Z</time>
      </trkpt>
      <trkpt lat="36.815991" lon="-2.147985">
        <ele>92.970</ele>
        <time>2021-06-11T18:02:51Z</time>
      </trkpt>
      <trkpt lat="36.816121" lon="-2.148231">
        <ele>92.683</ele>
        <time>2021-06-11T18:02:52Z</time>
      </trkpt>
      <trkpt lat="36.81632" lon="-2.148604">
        <ele>92.183</ele>
        <time>2021-06-11T18:02:54Z</time>
      </trkpt>
      <trkpt lat="36.816435" lon="-2.148808">
        <ele>91.925</ele>
        <time>2021-06-11T18:02:55Z</time>
      </trkpt>
      <trkpt lat="36.816553" lon="-2.149025">
        <ele>91.517</ele>
        <time>2021-06-11T18:02:56Z</time>
      </trkpt>
      <trkpt lat="36.816742" lon="-2.149373">
        <ele>91.108</ele>
        <time>2021-06-11T18:02:58Z</time>
      </trkpt>
      <trkpt lat="36.816897" lon="-2.149657">
        <ele>90.695</ele>
        <time>2021-06-11T18:03:00Z</time>
      </trkpt>
      <trkpt lat="36.817065" lon="-2.149963">
        <ele>90.453</ele>
        <time>2021-06-11T18:03:02Z</time>
      </trkpt>
      <trkpt lat="36.817216" lon="-2.150236">
        <ele>90.323</ele>
        <time>2021-06-11T18:03:04Z</time>
      </trkpt>
      <trkpt lat="36.817295" lon="-2.150376">
        <ele>89.951</ele>
        <time>2021-06-11T18:03:05Z</time>
      </trkpt>
      <trkpt lat="36.81744" lon="-2.150609">
        <ele>89.826</ele>
        <time>2021-06-11T18:03:07Z</time>
      </trkpt>
      <trkpt lat="36.817524" lon="-2.15072">
        <ele>89.577</ele>
        <time>2021-06-11T18:03:08Z</time>
      </trkpt>
      <trkpt lat="36.817721" lon="-2.150896">
        <ele>89.211</ele>
        <time>2021-06-11T18:03:10Z</time>
      </trkpt>
      <trkpt lat="36.81793" lon="-2.151023">
        <ele>88.964</ele>
        <time>2021-06-11T18:03:12Z</time>
      </trkpt>
      <trkpt lat="36.818029" lon="-2.151082">
        <ele>88.648</ele>
        <time>2021-06-11T18:03:13Z</time>
      </trkpt>
      <trkpt lat="36.818125" lon="-2.151138">
        <ele>88.461</ele>
        <time>2021-06-11T18:03:14Z</time>
      </trkpt>
      <trkpt lat="36.818216" lon="-2.151192">
        <ele>88.217</ele>
        <time>2021-06-11T18:03:15Z</time>
      </trkpt>
      <trkpt lat="36.818333" lon="-2.151306">
        <ele>88.308</ele>
        <time>2021-06-11T18:03:17Z</time>
      </trkpt>
      <trkpt lat="36.818355" lon="-2.151389">
        <ele>88.141</ele>
        <time>2021-06-11T18:03:18Z</time>
      </trkpt>
      <trkpt lat="36.818311" lon="-2.151572">
        <ele>87.859</ele>
        <time>2021-06-11T18:03:20Z</time>
      </trkpt>
      <trkpt lat="36.818263" lon="-2.151667">
        <ele>87.869</ele>
        <time>2021-06-11T18:03:21Z</time>
      </trkpt>
      <trkpt lat="36.818163" lon="-2.151885">
        <ele>87.857</ele>
        <time>2021-06-11T18:03:23Z</time>
      </trkpt>
      <trkpt lat="36.818112" lon="-2.152024">
        <ele>87.862</ele>
        <time>2021-06-11T18:03:24Z</time>
      </trkpt>
      <trkpt lat="36.81806" lon="-2.152181">
        <ele>88.043</ele>
        <time>2021-06-11T18:03:25Z</time>
      </trkpt>
      <trkpt lat="36.818009" lon="-2.152352">
        <ele>88.157</ele>
        <time>2021-06-11T18:03:26Z</time>
      </trkpt>
      <trkpt lat="36.817892" lon="-2.152752">
        <ele>88.390</ele>
        <time>2021-06-11T18:03:28Z</time>
      </trkpt>
      <trkpt lat="36.817761" lon="-2.153133">
        <ele>87.854</ele>
        <time>2021-06-11T18:03:30Z</time>
      </trkpt>
      <trkpt lat="36.817623" lon="-2.153574">
        <ele>87.456</ele>
        <time>2021-06-11T18:03:32Z</time>
      </trkpt>
      <trkpt lat="36.817503" lon="-2.154037">
        <ele>87.111</ele>
        <time>2021-06-11T18:03:34Z</time>
      </trkpt>
      <trkpt lat="36.817367" lon="-2.154499">
        <ele>86.508</ele>
        <time>2021-06-11T18:03:36Z</time>
      </trkpt>
      <trkpt lat="36.817297" lon="-2.154724">
        <ele>86.222</ele>
        <time>2021-06-11T18:03:37Z</time>
      </trkpt>
      <trkpt lat="36.81716" lon="-2.155164">
        <ele>85.920</ele>
        <time>2021-06-11T18:03:39Z</time>
      </trkpt>
      <trkpt lat="36.817094" lon="-2.155377">
        <ele>85.450</ele>
        <time>2021-06-11T18:03:40Z</time>
      </trkpt>
      <trkpt lat="36.81703" lon="-2.155587">
        <ele>85.048</ele>
        <time>2021-06-11T18:03:41Z</time>
      </trkpt>
      <trkpt lat="36.8169" lon="-2.156">
        <ele>84.963</ele>
        <time>2021-06-11T18:03:43Z</time>
      </trkpt>
      <trkpt lat="36.816785" lon="-2.156378">
        <ele>84.834</ele>
        <time>2021-06-11T18:03:45Z</time>
      </trkpt>
      <trkpt lat="36.816726" lon="-2.156563">
        <ele>84.618</ele>
        <time>2021-06-11T18:03:46Z</time>
      </trkpt>
      <trkpt lat="36.816665" lon="-2.156754">
        <ele>84.541</ele>
        <time>2021-06-11T18:03:47Z</time>
      </trkpt>
      <trkpt lat="36.816537" lon="-2.157162">
        <ele>84.379</ele>
        <time>2021-06-11T18:03:49Z</time>
      </trkpt>
      <trkpt lat="36.816399" lon="-2.157619">
        <ele>83.905</ele>
        <time>2021-06-11T18:03:51Z</time>
      </trkpt>
      <trkpt lat="36.816337" lon="-2.157852">
        <ele>83.825</ele>
        <time>2021-06-11T18:03:52Z</time>
      </trkpt>
      <trkpt lat="36.81627" lon="-2.15808">
        <ele>83.708</ele>
        <time>2021-06-11T18:03:53Z</time>
      </trkpt>
      <trkpt lat="36.816191" lon="-2.158328">
        <ele>83.634</ele>
        <time>2021-06-11T18:03:54Z</time>
      </trkpt>
      <trkpt lat="36.81606" lon="-2.158746">
        <ele>83.192</ele>
        <time>2021-06-11T18:03:56Z</time>
      </trkpt>
      <trkpt lat="36.815927" lon="-2.15921">
        <ele>82.782</ele>
        <time>2021-06-11T18:03:58Z</time>
      </trkpt>
      <trkpt lat="36.815796" lon="-2.159654">
        <ele>81.890</ele>
        <time>2021-06-11T18:04:00Z</time>
      </trkpt>
      <trkpt lat="36.815733" lon="-2.159878">
        <ele>81.425</ele>
        <time>2021-06-11T18:04:01Z</time>
      </trkpt>
      <trkpt lat="36.81568" lon="-2.1601">
        <ele>80.756</ele>
        <time>2021-06-11T18:04:02Z</time>
      </trkpt>
      <trkpt lat="36.815627" lon="-2.160564">
        <ele>79.540</ele>
        <time>2021-06-11T18:04:04Z</time>
      </trkpt>
      <trkpt lat="36.815619" lon="-2.161053">
        <ele>78.943</ele>
        <time>2021-06-11T18:04:06Z</time>
      </trkpt>
      <trkpt lat="36.815623" lon="-2.161302">
        <ele>78.677</ele>
        <time>2021-06-11T18:04:07Z</time>
      </trkpt>
      <trkpt lat="36.815631" lon="-2.161552">
        <ele>78.261</ele>
        <time>2021-06-11T18:04:08Z</time>
      </trkpt>
      <trkpt lat="36.815654" lon="-2.162049">
        <ele>78.127</ele>
        <time>2021-06-11T18:04:10Z</time>
      </trkpt>
      <trkpt lat="36.815682" lon="-2.162555">
        <ele>78.208</ele>
        <time>2021-06-11T18:04:12Z</time>
      </trkpt>
      <trkpt lat="36.815713" lon="-2.163064">
        <ele>78.184</ele>
        <time>2021-06-11T18:04:14Z</time>
      </trkpt>
      <trkpt lat="36.81574" lon="-2.163586">
        <ele>78.022</ele>
        <time>2021-06-11T18:04:16Z</time>
      </trkpt>
      <trkpt lat="36.815753" lon="-2.163848">
        <ele>77.812</ele>
        <time>2021-06-11T18:04:17Z</time>
      </trkpt>
      <trkpt lat="36.815767" lon="-2.16411">
        <ele>77.710</ele>
        <time>2021-06-11T18:04:18Z</time>
      </trkpt>
      <trkpt lat="36.81578" lon="-2.164366">
        <ele>77.575</ele>
        <time>2021-06-11T18:04:19Z</time>
      </trkpt>
      <trkpt lat="36.815793" lon="-2.164879">
        <ele>77.526</ele>
        <time>2021-06-11T18:04:21Z</time>
      </trkpt>
      <trkpt lat="36.8158" lon="-2.165132">
        <ele>77.870</ele>
        <time>2021-06-11T18:04:22Z</time>
      </trkpt>
      <trkpt lat="36.815807" lon="-2.165385">
        <ele>77.783</ele>
        <time>2021-06-11T18:04:23Z</time>
      </trkpt>
      <trkpt lat="36.815817" lon="-2.165635">
        <ele>77.923</ele>
        <time>2021-06-11T18:04:24Z</time>
      </trkpt>
      <trkpt lat="36.815835" lon="-2.166132">
        <ele>77.383</ele>
        <time>2021-06-11T18:04:26Z</time>
      </trkpt>
      <trkpt lat="36.81586" lon="-2.166641">
        <ele>76.611</ele>
        <time>2021-06-11T18:04:28Z</time>
      </trkpt>
      <trkpt lat="36.815874" lon="-2.166896">
        <ele>75.808</ele>
        <time>2021-06-11T18:04:29Z</time>
      </trkpt>
      <trkpt lat="36.815886" lon="-2.167153">
        <ele>75.289</ele>
        <time>2021-06-11T18:04:30Z</time>
      </trkpt>
      <trkpt lat="36.8159" lon="-2.167413">
        <ele>74.877</ele>
        <time>2021-06-11T18:04:31Z</time>
      </trkpt>
      <trkpt lat="36.815925" lon="-2.167929">
        <ele>74.277</ele>
        <time>2021-06-11T18:04:33Z</time>
      </trkpt>
      <trkpt lat="36.815942" lon="-2.168456">
        <ele>73.695</ele>
        <time>2021-06-11T18:04:35Z</time>
      </trkpt>
      <trkpt lat="36.815954" lon="-2.168719">
        <ele>72.960</ele>
        <time>2021-06-11T18:04:36Z</time>
      </trkpt>
      <trkpt lat="36.815964" lon="-2.168985">
        <ele>72.541</ele>
        <time>2021-06-11T18:04:37Z</time>
      </trkpt>
      <trkpt lat="36.815978" lon="-2.169511">
        <ele>72.365</ele>
        <time>2021-06-11T18:04:39Z</time>
      </trkpt>
      <trkpt lat="36.815999" lon="-2.170039">
        <ele>71.828</ele>
        <time>2021-06-11T18:04:41Z</time>
      </trkpt>
      <trkpt lat="36.816013" lon="-2.170305">
        <ele>71.395</ele>
        <time>2021-06-11T18:04:42Z</time>
      </trkpt>
      <trkpt lat="36.816036" lon="-2.170841">
        <ele>70.649</ele>
        <time>2021-06-11T18:04:44Z</time>
      </trkpt>
      <trkpt lat="36.816058" lon="-2.171413">
        <ele>70.123</ele>
        <time>2021-06-11T18:04:46Z</time>
      </trkpt>
      <trkpt lat="36.816069" lon="-2.171667">
        <ele>70.008</ele>
        <time>2021-06-11T18:04:47Z</time>
      </trkpt>
      <trkpt lat="36.816084" lon="-2.17216">
        <ele>69.426</ele>
        <time>2021-06-11T18:04:49Z</time>
      </trkpt>
      <trkpt lat="36.816094" lon="-2.172473">
        <ele>68.874</ele>
        <time>2021-06-11T18:04:50Z</time>
      </trkpt>
      <trkpt lat="36.816114" lon="-2.173001">
        <ele>68.134</ele>
        <time>2021-06-11T18:04:52Z</time>
      </trkpt>
      <trkpt lat="36.816135" lon="-2.173481">
        <ele>67.692</ele>
        <time>2021-06-11T18:04:54Z</time>
      </trkpt>
      <trkpt lat="36.816147" lon="-2.173746">
        <ele>67.127</ele>
        <time>2021-06-11T18:04:55Z</time>
      </trkpt>
      <trkpt lat="36.81617" lon="-2.174299">
        <ele>66.878</ele>
        <time>2021-06-11T18:04:57Z</time>
      </trkpt>
      <trkpt lat="36.81618" lon="-2.17478">
        <ele>66.232</ele>
        <time>2021-06-11T18:04:59Z</time>
      </trkpt>
      <trkpt lat="36.816194" lon="-2.175296">
        <ele>66.075</ele>
        <time>2021-06-11T18:05:01Z</time>
      </trkpt>
      <trkpt lat="36.816216" lon="-2.175755">
        <ele>65.231</ele>
        <time>2021-06-11T18:05:03Z</time>
      </trkpt>
      <trkpt lat="36.81624" lon="-2.176259">
        <ele>64.461</ele>
        <time>2021-06-11T18:05:05Z</time>
      </trkpt>
      <trkpt lat="36.816252" lon="-2.176546">
        <ele>63.807</ele>
        <time>2021-06-11T18:05:06Z</time>
      </trkpt>
      <trkpt lat="36.816273" lon="-2.176992">
        <ele>63.208</ele>
        <time>2021-06-11T18:05:08Z</time>
      </trkpt>
      <trkpt lat="36.816285" lon="-2.177256">
        <ele>62.770</ele>
        <time>2021-06-11T18:05:09Z</time>
      </trkpt>
      <trkpt lat="36.816297" lon="-2.177532">
        <ele>62.288</ele>
        <time>2021-06-11T18:05:10Z</time>
      </trkpt>
      <trkpt lat="36.81631" lon="-2.177977">
        <ele>61.798</ele>
        <time>2021-06-11T18:05:12Z</time>
      </trkpt>
      <trkpt lat="36.816318" lon="-2.17827">
        <ele>61.366</ele>
        <time>2021-06-11T18:05:13Z</time>
      </trkpt>
      <trkpt lat="36.816337" lon="-2.178736">
        <ele>60.861</ele>
        <time>2021-06-11T18:05:15Z</time>
      </trkpt>
      <trkpt lat="36.816356" lon="-2.17922">
        <ele>60.662</ele>
        <time>2021-06-11T18:05:17Z</time>
      </trkpt>
      <trkpt lat="36.816366" lon="-2.17946">
        <ele>60.496</ele>
        <time>2021-06-11T18:05:18Z</time>
      </trkpt>
      <trkpt lat="36.816394" lon="-2.179939">
        <ele>59.989</ele>
        <time>2021-06-11T18:05:20Z</time>
      </trkpt>
      <trkpt lat="36.816426" lon="-2.180423">
        <ele>59.319</ele>
        <time>2021-06-11T18:05:22Z</time>
      </trkpt>
      <trkpt lat="36.816472" lon="-2.180817">
        <ele>59.209</ele>
        <time>2021-06-11T18:05:24Z</time>
      </trkpt>
      <trkpt lat="36.816517" lon="-2.181223">
        <ele>58.919</ele>
        <time>2021-06-11T18:05:26Z</time>
      </trkpt>
      <trkpt lat="36.81656" lon="-2.181648">
        <ele>58.808</ele>
        <time>2021-06-11T18:05:28Z</time>
      </trkpt>
      <trkpt lat="36.816597" lon="-2.182047">
        <ele>58.128</ele>
        <time>2021-06-11T18:05:30Z</time>
      </trkpt>
      <trkpt lat="36.816639" lon="-2.182471">
        <ele>57.966</ele>
        <time>2021-06-11T18:05:32Z</time>
      </trkpt>
      <trkpt lat="36.816687" lon="-2.182905">
        <ele>57.486</ele>
        <time>2021-06-11T18:05:34Z</time>
      </trkpt>
      <trkpt lat="36.816706" lon="-2.183116">
        <ele>57.214</ele>
        <time>2021-06-11T18:05:35Z</time>
      </trkpt>
      <trkpt lat="36.81674" lon="-2.183527">
        <ele>56.849</ele>
        <time>2021-06-11T18:05:37Z</time>
      </trkpt>
      <trkpt lat="36.816779" lon="-2.183979">
        <ele>56.350</ele>
        <time>2021-06-11T18:05:39Z</time>
      </trkpt>
      <trkpt lat="36.816793" lon="-2.18418">
        <ele>55.894</ele>
        <time>2021-06-11T18:05:40Z</time>
      </trkpt>
      <trkpt lat="36.816825" lon="-2.184559">
        <ele>55.687</ele>
        <time>2021-06-11T18:05:42Z</time>
      </trkpt>
      <trkpt lat="36.816849" lon="-2.184784">
        <ele>55.458</ele>
        <time>2021-06-11T18:05:43Z</time>
      </trkpt>
      <trkpt lat="36.816873" lon="-2.184984">
        <ele>55.652</ele>
        <time>2021-06-11T18:05:44Z</time>
      </trkpt>
      <trkpt lat="36.816922" lon="-2.185386">
        <ele>56.117</ele>
        <time>2021-06-11T18:05:46Z</time>
      </trkpt>
      <trkpt lat="36.816955" lon="-2.185753">
        <ele>56.208</ele>
        <time>2021-06-11T18:05:48Z</time>
      </trkpt>
      <trkpt lat="36.816977" lon="-2.185994">
        <ele>56.312</ele>
        <time>2021-06-11T18:05:49Z</time>
      </trkpt>
      <trkpt lat="36.817019" lon="-2.186413">
        <ele>55.840</ele>
        <time>2021-06-11T18:05:51Z</time>
      </trkpt>
      <trkpt lat="36.817062" lon="-2.186816">
        <ele>55.550</ele>
        <time>2021-06-11T18:05:53Z</time>
      </trkpt>
      <trkpt lat="36.817095" lon="-2.187211">
        <ele>54.968</ele>
        <time>2021-06-11T18:05:55Z</time>
      </trkpt>
      <trkpt lat="36.817137" lon="-2.187664">
        <ele>54.693</ele>
        <time>2021-06-11T18:05:57Z</time>
      </trkpt>
      <trkpt lat="36.817176" lon="-2.18808">
        <ele>54.214</ele>
        <time>2021-06-11T18:05:59Z</time>
      </trkpt>
      <trkpt lat="36.81722" lon="-2.188514">
        <ele>53.778</ele>
        <time>2021-06-11T18:06:01Z</time>
      </trkpt>
      <trkpt lat="36.817257" lon="-2.188909">
        <ele>53.471</ele>
        <time>2021-06-11T18:06:03Z</time>
      </trkpt>
      <trkpt lat="36.8173" lon="-2.189336">
        <ele>53.422</ele>
        <time>2021-06-11T18:06:05Z</time>
      </trkpt>
      <trkpt lat="36.817326" lon="-2.189575">
        <ele>53.462</ele>
        <time>2021-06-11T18:06:06Z</time>
      </trkpt>
      <trkpt lat="36.817371" lon="-2.189988">
        <ele>53.508</ele>
        <time>2021-06-11T18:06:08Z</time>
      </trkpt>
      <trkpt lat="36.817418" lon="-2.19044">
        <ele>53.408</ele>
        <time>2021-06-11T18:06:10Z</time>
      </trkpt>
      <trkpt lat="36.817466" lon="-2.190855">
        <ele>53.299</ele>
        <time>2021-06-11T18:06:12Z</time>
      </trkpt>
      <trkpt lat="36.817488" lon="-2.191101">
        <ele>53.057</ele>
        <time>2021-06-11T18:06:13Z</time>
      </trkpt>
      <trkpt lat="36.817507" lon="-2.191317">
        <ele>53.217</ele>
        <time>2021-06-11T18:06:14Z</time>
      </trkpt>
      <trkpt lat="36.817547" lon="-2.191747">
        <ele>52.785</ele>
        <time>2021-06-11T18:06:16Z</time>
      </trkpt>
      <trkpt lat="36.817569" lon="-2.191953">
        <ele>52.340</ele>
        <time>2021-06-11T18:06:17Z</time>
      </trkpt>
      <trkpt lat="36.817614" lon="-2.19237">
        <ele>52.211</ele>
        <time>2021-06-11T18:06:19Z</time>
      </trkpt>
      <trkpt lat="36.817638" lon="-2.192588">
        <ele>52.645</ele>
        <time>2021-06-11T18:06:20Z</time>
      </trkpt>
      <trkpt lat="36.817677" lon="-2.192983">
        <ele>52.938</ele>
        <time>2021-06-11T18:06:22Z</time>
      </trkpt>
      <trkpt lat="36.817699" lon="-2.193222">
        <ele>53.091</ele>
        <time>2021-06-11T18:06:23Z</time>
      </trkpt>
      <trkpt lat="36.817734" lon="-2.193638">
        <ele>52.981</ele>
        <time>2021-06-11T18:06:25Z</time>
      </trkpt>
      <trkpt lat="36.817761" lon="-2.194046">
        <ele>52.919</ele>
        <time>2021-06-11T18:06:27Z</time>
      </trkpt>
      <trkpt lat="36.817799" lon="-2.194462">
        <ele>53.108</ele>
        <time>2021-06-11T18:06:29Z</time>
      </trkpt>
      <trkpt lat="36.817829" lon="-2.194676">
        <ele>52.636</ele>
        <time>2021-06-11T18:06:30Z</time>
      </trkpt>
      <trkpt lat="36.817856" lon="-2.194896">
        <ele>52.494</ele>
        <time>2021-06-11T18:06:31Z</time>
      </trkpt>
      <trkpt lat="36.81788" lon="-2.195089">
        <ele>52.454</ele>
        <time>2021-06-11T18:06:32Z</time>
      </trkpt>
      <trkpt lat="36.817903" lon="-2.195287">
        <ele>52.132</ele>
        <time>2021-06-11T18:06:33Z</time>
      </trkpt>
      <trkpt lat="36.817933" lon="-2.195696">
        <ele>52.867</ele>
        <time>2021-06-11T18:06:35Z</time>
      </trkpt>
      <trkpt lat="36.817926" lon="-2.1961">
        <ele>53.538</ele>
        <time>2021-06-11T18:06:37Z</time>
      </trkpt>
      <trkpt lat="36.817906" lon="-2.1963">
        <ele>54.332</ele>
        <time>2021-06-11T18:06:38Z</time>
      </trkpt>
      <trkpt lat="36.81783" lon="-2.196711">
        <ele>55.185</ele>
        <time>2021-06-11T18:06:40Z</time>
      </trkpt>
      <trkpt lat="36.81777" lon="-2.19691">
        <ele>55.895</ele>
        <time>2021-06-11T18:06:41Z</time>
      </trkpt>
      <trkpt lat="36.817631" lon="-2.197316">
        <ele>56.649</ele>
        <time>2021-06-11T18:06:43Z</time>
      </trkpt>
      <trkpt lat="36.817496" lon="-2.197679">
        <ele>56.923</ele>
        <time>2021-06-11T18:06:45Z</time>
      </trkpt>
      <trkpt lat="36.817415" lon="-2.197894">
        <ele>56.608</ele>
        <time>2021-06-11T18:06:46Z</time>
      </trkpt>
      <trkpt lat="36.817278" lon="-2.198259">
        <ele>55.966</ele>
        <time>2021-06-11T18:06:48Z</time>
      </trkpt>
      <trkpt lat="36.817205" lon="-2.198467">
        <ele>55.464</ele>
        <time>2021-06-11T18:06:49Z</time>
      </trkpt>
      <trkpt lat="36.817141" lon="-2.198655">
        <ele>54.694</ele>
        <time>2021-06-11T18:06:50Z</time>
      </trkpt>
      <trkpt lat="36.817075" lon="-2.198854">
        <ele>54.292</ele>
        <time>2021-06-11T18:06:51Z</time>
      </trkpt>
      <trkpt lat="36.816936" lon="-2.199256">
        <ele>54.337</ele>
        <time>2021-06-11T18:06:53Z</time>
      </trkpt>
      <trkpt lat="36.81679" lon="-2.19965">
        <ele>54.198</ele>
        <time>2021-06-11T18:06:55Z</time>
      </trkpt>
      <trkpt lat="36.816662" lon="-2.200031">
        <ele>54.512</ele>
        <time>2021-06-11T18:06:57Z</time>
      </trkpt>
      <trkpt lat="36.816529" lon="-2.200421">
        <ele>54.535</ele>
        <time>2021-06-11T18:06:59Z</time>
      </trkpt>
      <trkpt lat="36.816375" lon="-2.200833">
        <ele>54.134</ele>
        <time>2021-06-11T18:07:01Z</time>
      </trkpt>
      <trkpt lat="36.816294" lon="-2.201062">
        <ele>53.555</ele>
        <time>2021-06-11T18:07:02Z</time>
      </trkpt>
      <trkpt lat="36.816178" lon="-2.201476">
        <ele>52.310</ele>
        <time>2021-06-11T18:07:04Z</time>
      </trkpt>
      <trkpt lat="36.816119" lon="-2.201981">
        <ele>51.108</ele>
        <time>2021-06-11T18:07:06Z</time>
      </trkpt>
      <trkpt lat="36.816106" lon="-2.202272">
        <ele>50.550</ele>
        <time>2021-06-11T18:07:07Z</time>
      </trkpt>
      <trkpt lat="36.816097" lon="-2.202781">
        <ele>50.078</ele>
        <time>2021-06-11T18:07:09Z</time>
      </trkpt>
      <trkpt lat="36.816097" lon="-2.203285">
        <ele>48.978</ele>
        <time>2021-06-11T18:07:11Z</time>
      </trkpt>
      <trkpt lat="36.816095" lon="-2.203778">
        <ele>48.156</ele>
        <time>2021-06-11T18:07:13Z</time>
      </trkpt>
      <trkpt lat="36.816094" lon="-2.204263">
        <ele>47.741</ele>
        <time>2021-06-11T18:07:15Z</time>
      </trkpt>
      <trkpt lat="36.816089" lon="-2.204528">
        <ele>47.082</ele>
        <time>2021-06-11T18:07:16Z</time>
      </trkpt>
      <trkpt lat="36.816086" lon="-2.204771">
        <ele>46.466</ele>
        <time>2021-06-11T18:07:17Z</time>
      </trkpt>
      <trkpt lat="36.816085" lon="-2.205283">
        <ele>45.949</ele>
        <time>2021-06-11T18:07:19Z</time>
      </trkpt>
      <trkpt lat="36.816081" lon="-2.205779">
        <ele>45.183</ele>
        <time>2021-06-11T18:07:21Z</time>
      </trkpt>
      <trkpt lat="36.816082" lon="-2.206313">
        <ele>44.625</ele>
        <time>2021-06-11T18:07:23Z</time>
      </trkpt>
      <trkpt lat="36.816079" lon="-2.206811">
        <ele>43.917</ele>
        <time>2021-06-11T18:07:25Z</time>
      </trkpt>
      <trkpt lat="36.816075" lon="-2.207275">
        <ele>42.908</ele>
        <time>2021-06-11T18:07:27Z</time>
      </trkpt>
      <trkpt lat="36.816067" lon="-2.207797">
        <ele>42.635</ele>
        <time>2021-06-11T18:07:29Z</time>
      </trkpt>
      <trkpt lat="36.816066" lon="-2.208072">
        <ele>42.923</ele>
        <time>2021-06-11T18:07:30Z</time>
      </trkpt>
      <trkpt lat="36.816067" lon="-2.208333">
        <ele>42.893</ele>
        <time>2021-06-11T18:07:31Z</time>
      </trkpt>
      <trkpt lat="36.816067" lon="-2.208575">
        <ele>42.631</ele>
        <time>2021-06-11T18:07:32Z</time>
      </trkpt>
      <trkpt lat="36.816063" lon="-2.209073">
        <ele>42.696</ele>
        <time>2021-06-11T18:07:34Z</time>
      </trkpt>
      <trkpt lat="36.816058" lon="-2.209571">
        <ele>43.157</ele>
        <time>2021-06-11T18:07:36Z</time>
      </trkpt>
      <trkpt lat="36.816052" lon="-2.210069">
        <ele>43.351</ele>
        <time>2021-06-11T18:07:38Z</time>
      </trkpt>
      <trkpt lat="36.816037" lon="-2.210573">
        <ele>43.434</ele>
        <time>2021-06-11T18:07:40Z</time>
      </trkpt>
      <trkpt lat="36.816026" lon="-2.21081">
        <ele>43.489</ele>
        <time>2021-06-11T18:07:41Z</time>
      </trkpt>
      <trkpt lat="36.815999" lon="-2.211287">
        <ele>43.506</ele>
        <time>2021-06-11T18:07:43Z</time>
      </trkpt>
      <trkpt lat="36.815991" lon="-2.211528">
        <ele>43.626</ele>
        <time>2021-06-11T18:07:44Z</time>
      </trkpt>
      <trkpt lat="36.815974" lon="-2.212023">
        <ele>43.208</ele>
        <time>2021-06-11T18:07:46Z</time>
      </trkpt>
      <trkpt lat="36.815954" lon="-2.212521">
        <ele>42.375</ele>
        <time>2021-06-11T18:07:48Z</time>
      </trkpt>
      <trkpt lat="36.815945" lon="-2.212786">
        <ele>41.563</ele>
        <time>2021-06-11T18:07:49Z</time>
      </trkpt>
      <trkpt lat="36.815937" lon="-2.213044">
        <ele>40.883</ele>
        <time>2021-06-11T18:07:50Z</time>
      </trkpt>
      <trkpt lat="36.815911" lon="-2.21358">
        <ele>39.961</ele>
        <time>2021-06-11T18:07:52Z</time>
      </trkpt>
      <trkpt lat="36.815891" lon="-2.21409">
        <ele>39.166</ele>
        <time>2021-06-11T18:07:54Z</time>
      </trkpt>
      <trkpt lat="36.815881" lon="-2.2144">
        <ele>38.557</ele>
        <time>2021-06-11T18:07:55Z</time>
      </trkpt>
      <trkpt lat="36.815874" lon="-2.214664">
        <ele>37.991</ele>
        <time>2021-06-11T18:07:56Z</time>
      </trkpt>
      <trkpt lat="36.815856" lon="-2.215171">
        <ele>37.384</ele>
        <time>2021-06-11T18:07:58Z</time>
      </trkpt>
      <trkpt lat="36.815845" lon="-2.215457">
        <ele>36.832</ele>
        <time>2021-06-11T18:07:59Z</time>
      </trkpt>
      <trkpt lat="36.815832" lon="-2.215741">
        <ele>36.792</ele>
        <time>2021-06-11T18:08:00Z</time>
      </trkpt>
      <trkpt lat="36.815819" lon="-2.216019">
        <ele>36.611</ele>
        <time>2021-06-11T18:08:01Z</time>
      </trkpt>
      <trkpt lat="36.815808" lon="-2.216294">
        <ele>36.408</ele>
        <time>2021-06-11T18:08:02Z</time>
      </trkpt>
      <trkpt lat="36.815797" lon="-2.2166">
        <ele>36.280</ele>
        <time>2021-06-11T18:08:03Z</time>
      </trkpt>
      <trkpt lat="36.815774" lon="-2.217103">
        <ele>35.318</ele>
        <time>2021-06-11T18:08:05Z</time>
      </trkpt>
      <trkpt lat="36.815765" lon="-2.217407">
        <ele>34.778</ele>
        <time>2021-06-11T18:08:06Z</time>
      </trkpt>
      <trkpt lat="36.815749" lon="-2.217915">
        <ele>34.256</ele>
        <time>2021-06-11T18:08:08Z</time>
      </trkpt>
      <trkpt lat="36.815729" lon="-2.218446">
        <ele>34.061</ele>
        <time>2021-06-11T18:08:10Z</time>
      </trkpt>
      <trkpt lat="36.815718" lon="-2.218931">
        <ele>33.552</ele>
        <time>2021-06-11T18:08:12Z</time>
      </trkpt>
      <trkpt lat="36.815698" lon="-2.219468">
        <ele>33.216</ele>
        <time>2021-06-11T18:08:14Z</time>
      </trkpt>
      <trkpt lat="36.81568" lon="-2.219914">
        <ele>32.999</ele>
        <time>2021-06-11T18:08:16Z</time>
      </trkpt>
      <trkpt lat="36.815667" lon="-2.220123">
        <ele>32.923</ele>
        <time>2021-06-11T18:08:17Z</time>
      </trkpt>
      <trkpt lat="36.815632" lon="-2.22053">
        <ele>33.383</ele>
        <time>2021-06-11T18:08:19Z</time>
      </trkpt>
      <trkpt lat="36.815612" lon="-2.220884">
        <ele>33.211</ele>
        <time>2021-06-11T18:08:21Z</time>
      </trkpt>
      <trkpt lat="36.815604" lon="-2.221078">
        <ele>32.708</ele>
        <time>2021-06-11T18:08:22Z</time>
      </trkpt>
      <trkpt lat="36.815597" lon="-2.221262">
        <ele>32.459</ele>
        <time>2021-06-11T18:08:23Z</time>
      </trkpt>
      <trkpt lat="36.81558" lon="-2.221623">
        <ele>32.357</ele>
        <time>2021-06-11T18:08:25Z</time>
      </trkpt>
      <trkpt lat="36.815573" lon="-2.221787">
        <ele>31.777</ele>
        <time>2021-06-11T18:08:26Z</time>
      </trkpt>
      <trkpt lat="36.815558" lon="-2.222118">
        <ele>31.365</ele>
        <time>2021-06-11T18:08:28Z</time>
      </trkpt>
      <trkpt lat="36.815546" lon="-2.222428">
        <ele>30.750</ele>
        <time>2021-06-11T18:08:30Z</time>
      </trkpt>
      <trkpt lat="36.815538" lon="-2.222598">
        <ele>30.691</ele>
        <time>2021-06-11T18:08:31Z</time>
      </trkpt>
      <trkpt lat="36.81553" lon="-2.222901">
        <ele>30.045</ele>
        <time>2021-06-11T18:08:33Z</time>
      </trkpt>
      <trkpt lat="36.815525" lon="-2.223192">
        <ele>29.258</ele>
        <time>2021-06-11T18:08:35Z</time>
      </trkpt>
      <trkpt lat="36.815523" lon="-2.223318">
        <ele>28.842</ele>
        <time>2021-06-11T18:08:36Z</time>
      </trkpt>
      <trkpt lat="36.815509" lon="-2.223549">
        <ele>28.222</ele>
        <time>2021-06-11T18:08:38Z</time>
      </trkpt>
      <trkpt lat="36.815497" lon="-2.223709">
        <ele>27.714</ele>
        <time>2021-06-11T18:08:40Z</time>
      </trkpt>
      <trkpt lat="36.815494" lon="-2.223806">
        <ele>27.308</ele>
        <time>2021-06-11T18:08:41Z</time>
      </trkpt>
      <trkpt lat="36.815495" lon="-2.223919">
        <ele>27.111</ele>
        <time>2021-06-11T18:08:42Z</time>
      </trkpt>
      <trkpt lat="36.815492" lon="-2.22403">
        <ele>26.829</ele>
        <time>2021-06-11T18:08:43Z</time>
      </trkpt>
      <trkpt lat="36.815488" lon="-2.224145">
        <ele>26.699</ele>
        <time>2021-06-11T18:08:44Z</time>
      </trkpt>
      <trkpt lat="36.815478" lon="-2.224398">
        <ele>26.817</ele>
        <time>2021-06-11T18:08:46Z</time>
      </trkpt>
      <trkpt lat="36.815465" lon="-2.224676">
        <ele>26.732</ele>
        <time>2021-06-11T18:08:48Z</time>
      </trkpt>
      <trkpt lat="36.815445" lon="-2.224971">
        <ele>26.963</ele>
        <time>2021-06-11T18:08:50Z</time>
      </trkpt>
      <trkpt lat="36.815442" lon="-2.225245">
        <ele>27.077</ele>
        <time>2021-06-11T18:08:52Z</time>
      </trkpt>
      <trkpt lat="36.81543" lon="-2.225517">
        <ele>27.080</ele>
        <time>2021-06-11T18:08:54Z</time>
      </trkpt>
      <trkpt lat="36.81541" lon="-2.225679">
        <ele>27.378</ele>
        <time>2021-06-11T18:08:55Z</time>
      </trkpt>
      <trkpt lat="36.815363" lon="-2.225947">
        <ele>27.933</ele>
        <time>2021-06-11T18:08:57Z</time>
      </trkpt>
      <trkpt lat="36.815331" lon="-2.226093">
        <ele>28.226</ele>
        <time>2021-06-11T18:08:58Z</time>
      </trkpt>
      <trkpt lat="36.815249" lon="-2.226396">
        <ele>27.808</ele>
        <time>2021-06-11T18:09:00Z</time>
      </trkpt>
      <trkpt lat="36.815212" lon="-2.226534">
        <ele>27.764</ele>
        <time>2021-06-11T18:09:01Z</time>
      </trkpt>
      <trkpt lat="36.815172" lon="-2.226669">
        <ele>27.412</ele>
        <time>2021-06-11T18:09:02Z</time>
      </trkpt>
      <trkpt lat="36.815107" lon="-2.226903">
        <ele>27.122</ele>
        <time>2021-06-11T18:09:04Z</time>
      </trkpt>
      <trkpt lat="36.815066" lon="-2.227034">
        <ele>26.920</ele>
        <time>2021-06-11T18:09:05Z</time>
      </trkpt>
      <trkpt lat="36.815025" lon="-2.227171">
        <ele>26.785</ele>
        <time>2021-06-11T18:09:06Z</time>
      </trkpt>
      <trkpt lat="36.81496" lon="-2.227403">
        <ele>27.136</ele>
        <time>2021-06-11T18:09:08Z</time>
      </trkpt>
      <trkpt lat="36.814926" lon="-2.227519">
        <ele>27.250</ele>
        <time>2021-06-11T18:09:09Z</time>
      </trkpt>
      <trkpt lat="36.814894" lon="-2.227642">
        <ele>27.263</ele>
        <time>2021-06-11T18:09:10Z</time>
      </trkpt>
      <trkpt lat="36.814845" lon="-2.227873">
        <ele>27.237</ele>
        <time>2021-06-11T18:09:12Z</time>
      </trkpt>
      <trkpt lat="36.814814" lon="-2.228025">
        <ele>27.249</ele>
        <time>2021-06-11T18:09:13Z</time>
      </trkpt>
      <trkpt lat="36.81477" lon="-2.228292">
        <ele>27.113</ele>
        <time>2021-06-11T18:09:15Z</time>
      </trkpt>
      <trkpt lat="36.814738" lon="-2.228574">
        <ele>27.108</ele>
        <time>2021-06-11T18:09:17Z</time>
      </trkpt>
      <trkpt lat="36.814718" lon="-2.228839">
        <ele>26.650</ele>
        <time>2021-06-11T18:09:19Z</time>
      </trkpt>
      <trkpt lat="36.814706" lon="-2.229006">
        <ele>26.448</ele>
        <time>2021-06-11T18:09:20Z</time>
      </trkpt>
      <trkpt lat="36.814686" lon="-2.229279">
        <ele>25.788</ele>
        <time>2021-06-11T18:09:22Z</time>
      </trkpt>
      <trkpt lat="36.814673" lon="-2.229453">
        <ele>25.326</ele>
        <time>2021-06-11T18:09:23Z</time>
      </trkpt>
      <trkpt lat="36.814648" lon="-2.22972">
        <ele>24.991</ele>
        <time>2021-06-11T18:09:25Z</time>
      </trkpt>
      <trkpt lat="36.814625" lon="-2.229876">
        <ele>24.682</ele>
        <time>2021-06-11T18:09:26Z</time>
      </trkpt>
      <trkpt lat="36.814589" lon="-2.230042">
        <ele>24.226</ele>
        <time>2021-06-11T18:09:27Z</time>
      </trkpt>
      <trkpt lat="36.814486" lon="-2.23033">
        <ele>23.819</ele>
        <time>2021-06-11T18:09:29Z</time>
      </trkpt>
      <trkpt lat="36.814379" lon="-2.230591">
        <ele>23.832</ele>
        <time>2021-06-11T18:09:31Z</time>
      </trkpt>
      <trkpt lat="36.814321" lon="-2.230734">
        <ele>23.692</ele>
        <time>2021-06-11T18:09:32Z</time>
      </trkpt>
      <trkpt lat="36.814254" lon="-2.230891">
        <ele>23.611</ele>
        <time>2021-06-11T18:09:33Z</time>
      </trkpt>
      <trkpt lat="36.814195" lon="-2.23102">
        <ele>23.408</ele>
        <time>2021-06-11T18:09:34Z</time>
      </trkpt>
      <trkpt lat="36.814135" lon="-2.231153">
        <ele>23.230</ele>
        <time>2021-06-11T18:09:35Z</time>
      </trkpt>
      <trkpt lat="36.814023" lon="-2.23142">
        <ele>23.428</ele>
        <time>2021-06-11T18:09:37Z</time>
      </trkpt>
      <trkpt lat="36.813966" lon="-2.231561">
        <ele>23.468</ele>
        <time>2021-06-11T18:09:38Z</time>
      </trkpt>
      <trkpt lat="36.813853" lon="-2.231847">
        <ele>23.646</ele>
        <time>2021-06-11T18:09:40Z</time>
      </trkpt>
      <trkpt lat="36.813726" lon="-2.232145">
        <ele>23.381</ele>
        <time>2021-06-11T18:09:42Z</time>
      </trkpt>
      <trkpt lat="36.813623" lon="-2.232398">
        <ele>23.132</ele>
        <time>2021-06-11T18:09:44Z</time>
      </trkpt>
      <trkpt lat="36.813556" lon="-2.232559">
        <ele>23.016</ele>
        <time>2021-06-11T18:09:45Z</time>
      </trkpt>
      <trkpt lat="36.813503" lon="-2.23269">
        <ele>23.049</ele>
        <time>2021-06-11T18:09:46Z</time>
      </trkpt>
      <trkpt lat="36.813389" lon="-2.232955">
        <ele>23.074</ele>
        <time>2021-06-11T18:09:48Z</time>
      </trkpt>
      <trkpt lat="36.813276" lon="-2.233229">
        <ele>22.556</ele>
        <time>2021-06-11T18:09:50Z</time>
      </trkpt>
      <trkpt lat="36.813223" lon="-2.233353">
        <ele>22.421</ele>
        <time>2021-06-11T18:09:51Z</time>
      </trkpt>
      <trkpt lat="36.813167" lon="-2.233478">
        <ele>22.308</ele>
        <time>2021-06-11T18:09:52Z</time>
      </trkpt>
      <trkpt lat="36.813071" lon="-2.233726">
        <ele>22.414</ele>
        <time>2021-06-11T18:09:54Z</time>
      </trkpt>
      <trkpt lat="36.812992" lon="-2.233974">
        <ele>22.472</ele>
        <time>2021-06-11T18:09:56Z</time>
      </trkpt>
      <trkpt lat="36.812949" lon="-2.234212">
        <ele>22.792</ele>
        <time>2021-06-11T18:09:58Z</time>
      </trkpt>
      <trkpt lat="36.81294" lon="-2.234383">
        <ele>22.660</ele>
        <time>2021-06-11T18:09:59Z</time>
      </trkpt>
      <trkpt lat="36.812907" lon="-2.234679">
        <ele>22.485</ele>
        <time>2021-06-11T18:10:01Z</time>
      </trkpt>
      <trkpt lat="36.812881" lon="-2.234876">
        <ele>22.256</ele>
        <time>2021-06-11T18:10:02Z</time>
      </trkpt>
      <trkpt lat="36.812915" lon="-2.235196">
        <ele>22.270</ele>
        <time>2021-06-11T18:10:04Z</time>
      </trkpt>
      <trkpt lat="36.812985" lon="-2.235585">
        <ele>22.473</ele>
        <time>2021-06-11T18:10:06Z</time>
      </trkpt>
      <trkpt lat="36.813028" lon="-2.2358">
        <ele>22.182</ele>
        <time>2021-06-11T18:10:07Z</time>
      </trkpt>
      <trkpt lat="36.813074" lon="-2.23599">
        <ele>22.243</ele>
        <time>2021-06-11T18:10:08Z</time>
      </trkpt>
      <trkpt lat="36.813179" lon="-2.236375">
        <ele>22.017</ele>
        <time>2021-06-11T18:10:10Z</time>
      </trkpt>
      <trkpt lat="36.813239" lon="-2.23656">
        <ele>21.808</ele>
        <time>2021-06-11T18:10:11Z</time>
      </trkpt>
      <trkpt lat="36.813364" lon="-2.23692">
        <ele>21.515</ele>
        <time>2021-06-11T18:10:13Z</time>
      </trkpt>
      <trkpt lat="36.813489" lon="-2.237269">
        <ele>21.343</ele>
        <time>2021-06-11T18:10:15Z</time>
      </trkpt>
      <trkpt lat="36.813557" lon="-2.237447">
        <ele>21.233</ele>
        <time>2021-06-11T18:10:16Z</time>
      </trkpt>
      <trkpt lat="36.813696" lon="-2.237803">
        <ele>21.161</ele>
        <time>2021-06-11T18:10:18Z</time>
      </trkpt>
      <trkpt lat="36.813766" lon="-2.237984">
        <ele>20.956</ele>
        <time>2021-06-11T18:10:19Z</time>
      </trkpt>
      <trkpt lat="36.813895" lon="-2.238338">
        <ele>20.847</ele>
        <time>2021-06-11T18:10:21Z</time>
      </trkpt>
      <trkpt lat="36.813979" lon="-2.238571">
        <ele>20.741</ele>
        <time>2021-06-11T18:10:22Z</time>
      </trkpt>
      <trkpt lat="36.814049" lon="-2.238768">
        <ele>20.924</ele>
        <time>2021-06-11T18:10:23Z</time>
      </trkpt>
      <trkpt lat="36.814201" lon="-2.239182">
        <ele>21.088</ele>
        <time>2021-06-11T18:10:25Z</time>
      </trkpt>
      <trkpt lat="36.81428" lon="-2.239388">
        <ele>20.824</ele>
        <time>2021-06-11T18:10:26Z</time>
      </trkpt>
      <trkpt lat="36.814438" lon="-2.239811">
        <ele>21.026</ele>
        <time>2021-06-11T18:10:28Z</time>
      </trkpt>
      <trkpt lat="36.814584" lon="-2.240217">
        <ele>21.108</ele>
        <time>2021-06-11T18:10:30Z</time>
      </trkpt>
      <trkpt lat="36.814764" lon="-2.240711">
        <ele>21.065</ele>
        <time>2021-06-11T18:10:32Z</time>
      </trkpt>
      <trkpt lat="36.814847" lon="-2.240924">
        <ele>20.883</ele>
        <time>2021-06-11T18:10:33Z</time>
      </trkpt>
      <trkpt lat="36.815015" lon="-2.241364">
        <ele>20.673</ele>
        <time>2021-06-11T18:10:35Z</time>
      </trkpt>
      <trkpt lat="36.815188" lon="-2.241818">
        <ele>20.491</ele>
        <time>2021-06-11T18:10:37Z</time>
      </trkpt>
      <trkpt lat="36.815272" lon="-2.242047">
        <ele>20.276</ele>
        <time>2021-06-11T18:10:38Z</time>
      </trkpt>
      <trkpt lat="36.81544" lon="-2.242522">
        <ele>20.217</ele>
        <time>2021-06-11T18:10:40Z</time>
      </trkpt>
      <trkpt lat="36.815525" lon="-2.242747">
        <ele>20.671</ele>
        <time>2021-06-11T18:10:41Z</time>
      </trkpt>
      <trkpt lat="36.815609" lon="-2.242974">
        <ele>20.854</ele>
        <time>2021-06-11T18:10:42Z</time>
      </trkpt>
      <trkpt lat="36.815772" lon="-2.24343">
        <ele>20.736</ele>
        <time>2021-06-11T18:10:44Z</time>
      </trkpt>
      <trkpt lat="36.815853" lon="-2.243664">
        <ele>20.917</ele>
        <time>2021-06-11T18:10:45Z</time>
      </trkpt>
      <trkpt lat="36.816008" lon="-2.244107">
        <ele>21.018</ele>
        <time>2021-06-11T18:10:47Z</time>
      </trkpt>
      <trkpt lat="36.816176" lon="-2.24455">
        <ele>21.208</ele>
        <time>2021-06-11T18:10:49Z</time>
      </trkpt>
      <trkpt lat="36.816338" lon="-2.244955">
        <ele>21.690</ele>
        <time>2021-06-11T18:10:51Z</time>
      </trkpt>
      <trkpt lat="36.816441" lon="-2.245184">
        <ele>22.198</ele>
        <time>2021-06-11T18:10:52Z</time>
      </trkpt>
      <trkpt lat="36.816537" lon="-2.245385">
        <ele>22.268</ele>
        <time>2021-06-11T18:10:53Z</time>
      </trkpt>
      <trkpt lat="36.816744" lon="-2.245777">
        <ele>22.636</ele>
        <time>2021-06-11T18:10:55Z</time>
      </trkpt>
      <trkpt lat="36.816969" lon="-2.246149">
        <ele>22.631</ele>
        <time>2021-06-11T18:10:57Z</time>
      </trkpt>
      <trkpt lat="36.817216" lon="-2.246516">
        <ele>23.062</ele>
        <time>2021-06-11T18:10:59Z</time>
      </trkpt>
      <trkpt lat="36.817463" lon="-2.246874">
        <ele>23.736</ele>
        <time>2021-06-11T18:11:01Z</time>
      </trkpt>
      <trkpt lat="36.8176" lon="-2.247065">
        <ele>24.069</ele>
        <time>2021-06-11T18:11:02Z</time>
      </trkpt>
      <trkpt lat="36.817739" lon="-2.247254">
        <ele>24.647</ele>
        <time>2021-06-11T18:11:03Z</time>
      </trkpt>
      <trkpt lat="36.817878" lon="-2.247444">
        <ele>25.129</ele>
        <time>2021-06-11T18:11:04Z</time>
      </trkpt>
      <trkpt lat="36.818017" lon="-2.247632">
        <ele>25.221</ele>
        <time>2021-06-11T18:11:05Z</time>
      </trkpt>
      <trkpt lat="36.818296" lon="-2.247994">
        <ele>25.608</ele>
        <time>2021-06-11T18:11:07Z</time>
      </trkpt>
      <trkpt lat="36.818454" lon="-2.248198">
        <ele>25.941</ele>
        <time>2021-06-11T18:11:08Z</time>
      </trkpt>
      <trkpt lat="36.818713" lon="-2.248545">
        <ele>26.589</ele>
        <time>2021-06-11T18:11:10Z</time>
      </trkpt>
      <trkpt lat="36.818972" lon="-2.248897">
        <ele>26.519</ele>
        <time>2021-06-11T18:11:12Z</time>
      </trkpt>
      <trkpt lat="36.819238" lon="-2.249252">
        <ele>26.757</ele>
        <time>2021-06-11T18:11:14Z</time>
      </trkpt>
      <trkpt lat="36.819493" lon="-2.249592">
        <ele>26.782</ele>
        <time>2021-06-11T18:11:16Z</time>
      </trkpt>
      <trkpt lat="36.819626" lon="-2.249772">
        <ele>27.123</ele>
        <time>2021-06-11T18:11:17Z</time>
      </trkpt>
      <trkpt lat="36.819757" lon="-2.24995">
        <ele>27.317</ele>
        <time>2021-06-11T18:11:18Z</time>
      </trkpt>
      <trkpt lat="36.819898" lon="-2.250149">
        <ele>27.710</ele>
        <time>2021-06-11T18:11:19Z</time>
      </trkpt>
      <trkpt lat="36.820107" lon="-2.250534">
        <ele>27.877</ele>
        <time>2021-06-11T18:11:21Z</time>
      </trkpt>
      <trkpt lat="36.820184" lon="-2.250742">
        <ele>28.161</ele>
        <time>2021-06-11T18:11:22Z</time>
      </trkpt>
      <trkpt lat="36.820314" lon="-2.251159">
        <ele>27.927</ele>
        <time>2021-06-11T18:11:24Z</time>
      </trkpt>
      <trkpt lat="36.820402" lon="-2.251423">
        <ele>27.808</ele>
        <time>2021-06-11T18:11:25Z</time>
      </trkpt>
      <trkpt lat="36.820474" lon="-2.251641">
        <ele>27.924</ele>
        <time>2021-06-11T18:11:26Z</time>
      </trkpt>
      <trkpt lat="36.820545" lon="-2.251862">
        <ele>28.022</ele>
        <time>2021-06-11T18:11:27Z</time>
      </trkpt>
      <trkpt lat="36.820673" lon="-2.252296">
        <ele>28.472</ele>
        <time>2021-06-11T18:11:29Z</time>
      </trkpt>
      <trkpt lat="36.820729" lon="-2.252526">
        <ele>28.660</ele>
        <time>2021-06-11T18:11:30Z</time>
      </trkpt>
      <trkpt lat="36.820826" lon="-2.252954">
        <ele>28.935</ele>
        <time>2021-06-11T18:11:32Z</time>
      </trkpt>
      <trkpt lat="36.820877" lon="-2.253188">
        <ele>29.886</ele>
        <time>2021-06-11T18:11:33Z</time>
      </trkpt>
      <trkpt lat="36.820928" lon="-2.253438">
        <ele>30.510</ele>
        <time>2021-06-11T18:11:34Z</time>
      </trkpt>
      <trkpt lat="36.821026" lon="-2.253875">
        <ele>31.233</ele>
        <time>2021-06-11T18:11:36Z</time>
      </trkpt>
      <trkpt lat="36.821079" lon="-2.254086">
        <ele>31.486</ele>
        <time>2021-06-11T18:11:37Z</time>
      </trkpt>
      <trkpt lat="36.821148" lon="-2.254297">
        <ele>31.960</ele>
        <time>2021-06-11T18:11:38Z</time>
      </trkpt>
      <trkpt lat="36.82131" lon="-2.254679">
        <ele>32.526</ele>
        <time>2021-06-11T18:11:40Z</time>
      </trkpt>
      <trkpt lat="36.821413" lon="-2.254892">
        <ele>32.908</ele>
        <time>2021-06-11T18:11:41Z</time>
      </trkpt>
      <trkpt lat="36.821621" lon="-2.255304">
        <ele>33.375</ele>
        <time>2021-06-11T18:11:43Z</time>
      </trkpt>
      <trkpt lat="36.821822" lon="-2.255717">
        <ele>32.953</ele>
        <time>2021-06-11T18:11:45Z</time>
      </trkpt>
      <trkpt lat="36.822027" lon="-2.256141">
        <ele>32.243</ele>
        <time>2021-06-11T18:11:47Z</time>
      </trkpt>
      <trkpt lat="36.822134" lon="-2.256355">
        <ele>31.671</ele>
        <time>2021-06-11T18:11:48Z</time>
      </trkpt>
      <trkpt lat="36.822242" lon="-2.256566">
        <ele>31.256</ele>
        <time>2021-06-11T18:11:49Z</time>
      </trkpt>
      <trkpt lat="36.82235" lon="-2.256776">
        <ele>30.897</ele>
        <time>2021-06-11T18:11:50Z</time>
      </trkpt>
      <trkpt lat="36.822457" lon="-2.256987">
        <ele>30.281</ele>
        <time>2021-06-11T18:11:51Z</time>
      </trkpt>
      <trkpt lat="36.822579" lon="-2.257227">
        <ele>30.254</ele>
        <time>2021-06-11T18:11:52Z</time>
      </trkpt>
      <trkpt lat="36.822785" lon="-2.257606">
        <ele>30.183</ele>
        <time>2021-06-11T18:11:54Z</time>
      </trkpt>
      <trkpt lat="36.822905" lon="-2.257824">
        <ele>30.125</ele>
        <time>2021-06-11T18:11:55Z</time>
      </trkpt>
      <trkpt lat="36.823025" lon="-2.258031">
        <ele>29.717</ele>
        <time>2021-06-11T18:11:56Z</time>
      </trkpt>
      <trkpt lat="36.823147" lon="-2.258244">
        <ele>29.508</ele>
        <time>2021-06-11T18:11:57Z</time>
      </trkpt>
      <trkpt lat="36.823384" lon="-2.25865">
        <ele>29.155</ele>
        <time>2021-06-11T18:11:59Z</time>
      </trkpt>
      <trkpt lat="36.823615" lon="-2.259048">
        <ele>28.533</ele>
        <time>2021-06-11T18:12:01Z</time>
      </trkpt>
      <trkpt lat="36.823842" lon="-2.259432">
        <ele>28.153</ele>
        <time>2021-06-11T18:12:03Z</time>
      </trkpt>
      <trkpt lat="36.823962" lon="-2.259642">
        <ele>28.111</ele>
        <time>2021-06-11T18:12:04Z</time>
      </trkpt>
      <trkpt lat="36.824078" lon="-2.259849">
        <ele>28.586</ele>
        <time>2021-06-11T18:12:05Z</time>
      </trkpt>
      <trkpt lat="36.8242" lon="-2.260068">
        <ele>28.617</ele>
        <time>2021-06-11T18:12:06Z</time>
      </trkpt>
      <trkpt lat="36.824314" lon="-2.260279">
        <ele>28.861</ele>
        <time>2021-06-11T18:12:07Z</time>
      </trkpt>
      <trkpt lat="36.824519" lon="-2.260666">
        <ele>29.364</ele>
        <time>2021-06-11T18:12:09Z</time>
      </trkpt>
      <trkpt lat="36.824736" lon="-2.26104">
        <ele>30.111</ele>
        <time>2021-06-11T18:12:11Z</time>
      </trkpt>
      <trkpt lat="36.824846" lon="-2.261232">
        <ele>30.521</ele>
        <time>2021-06-11T18:12:12Z</time>
      </trkpt>
      <trkpt lat="36.825066" lon="-2.26161">
        <ele>30.503</ele>
        <time>2021-06-11T18:12:14Z</time>
      </trkpt>
      <trkpt lat="36.825287" lon="-2.261997">
        <ele>30.808</ele>
        <time>2021-06-11T18:12:16Z</time>
      </trkpt>
      <trkpt lat="36.825507" lon="-2.262377">
        <ele>31.238</ele>
        <time>2021-06-11T18:12:18Z</time>
      </trkpt>
      <trkpt lat="36.825615" lon="-2.262567">
        <ele>31.746</ele>
        <time>2021-06-11T18:12:19Z</time>
      </trkpt>
      <trkpt lat="36.825825" lon="-2.262944">
        <ele>32.256</ele>
        <time>2021-06-11T18:12:21Z</time>
      </trkpt>
      <trkpt lat="36.826031" lon="-2.263319">
        <ele>32.634</ele>
        <time>2021-06-11T18:12:23Z</time>
      </trkpt>
      <trkpt lat="36.826229" lon="-2.263678">
        <ele>33.419</ele>
        <time>2021-06-11T18:12:25Z</time>
      </trkpt>
      <trkpt lat="36.82643" lon="-2.264009">
        <ele>33.640</ele>
        <time>2021-06-11T18:12:27Z</time>
      </trkpt>
      <trkpt lat="36.826535" lon="-2.264184">
        <ele>34.214</ele>
        <time>2021-06-11T18:12:28Z</time>
      </trkpt>
      <trkpt lat="36.826639" lon="-2.264367">
        <ele>34.677</ele>
        <time>2021-06-11T18:12:29Z</time>
      </trkpt>
      <trkpt lat="36.826744" lon="-2.264553">
        <ele>34.683</ele>
        <time>2021-06-11T18:12:30Z</time>
      </trkpt>
      <trkpt lat="36.826851" lon="-2.264744">
        <ele>34.825</ele>
        <time>2021-06-11T18:12:31Z</time>
      </trkpt>
      <trkpt lat="36.827068" lon="-2.265112">
        <ele>34.817</ele>
        <time>2021-06-11T18:12:33Z</time>
      </trkpt>
      <trkpt lat="36.827204" lon="-2.265339">
        <ele>34.908</ele>
        <time>2021-06-11T18:12:34Z</time>
      </trkpt>
      <trkpt lat="36.82743" lon="-2.265732">
        <ele>34.815</ele>
        <time>2021-06-11T18:12:36Z</time>
      </trkpt>
      <trkpt lat="36.827658" lon="-2.266149">
        <ele>34.853</ele>
        <time>2021-06-11T18:12:38Z</time>
      </trkpt>
      <trkpt lat="36.827771" lon="-2.266359">
        <ele>34.543</ele>
        <time>2021-06-11T18:12:39Z</time>
      </trkpt>
      <trkpt lat="36.827888" lon="-2.266567">
        <ele>34.431</ele>
        <time>2021-06-11T18:12:40Z</time>
      </trkpt>
      <trkpt lat="36.828137" lon="-2.266975">
        <ele>34.766</ele>
        <time>2021-06-11T18:12:42Z</time>
      </trkpt>
      <trkpt lat="36.828262" lon="-2.267184">
        <ele>34.387</ele>
        <time>2021-06-11T18:12:43Z</time>
      </trkpt>
      <trkpt lat="36.828503" lon="-2.26761">
        <ele>33.921</ele>
        <time>2021-06-11T18:12:45Z</time>
      </trkpt>
      <trkpt lat="36.828737" lon="-2.268031">
        <ele>32.994</ele>
        <time>2021-06-11T18:12:47Z</time>
      </trkpt>
      <trkpt lat="36.828851" lon="-2.268244">
        <ele>32.597</ele>
        <time>2021-06-11T18:12:48Z</time>
      </trkpt>
      <trkpt lat="36.829059" lon="-2.268652">
        <ele>31.923</ele>
        <time>2021-06-11T18:12:50Z</time>
      </trkpt>
      <trkpt lat="36.829174" lon="-2.268889">
        <ele>31.625</ele>
        <time>2021-06-11T18:12:51Z</time>
      </trkpt>
      <trkpt lat="36.829281" lon="-2.269131">
        <ele>31.408</ele>
        <time>2021-06-11T18:12:52Z</time>
      </trkpt>
      <trkpt lat="36.829462" lon="-2.269575">
        <ele>31.416</ele>
        <time>2021-06-11T18:12:54Z</time>
      </trkpt>
      <trkpt lat="36.829622" lon="-2.269998">
        <ele>31.134</ele>
        <time>2021-06-11T18:12:56Z</time>
      </trkpt>
      <trkpt lat="36.829705" lon="-2.270232">
        <ele>30.934</ele>
        <time>2021-06-11T18:12:57Z</time>
      </trkpt>
      <trkpt lat="36.82979" lon="-2.270495">
        <ele>30.892</ele>
        <time>2021-06-11T18:12:58Z</time>
      </trkpt>
      <trkpt lat="36.829856" lon="-2.270716">
        <ele>30.797</ele>
        <time>2021-06-11T18:12:59Z</time>
      </trkpt>
      <trkpt lat="36.829968" lon="-2.27115">
        <ele>31.388</ele>
        <time>2021-06-11T18:13:01Z</time>
      </trkpt>
      <trkpt lat="36.830026" lon="-2.2714">
        <ele>32.162</ele>
        <time>2021-06-11T18:13:02Z</time>
      </trkpt>
      <trkpt lat="36.830135" lon="-2.271886">
        <ele>32.945</ele>
        <time>2021-06-11T18:13:04Z</time>
      </trkpt>
      <trkpt lat="36.830239" lon="-2.272406">
        <ele>33.642</ele>
        <time>2021-06-11T18:13:06Z</time>
      </trkpt>
      <trkpt lat="36.830282" lon="-2.272644">
        <ele>34.322</ele>
        <time>2021-06-11T18:13:07Z</time>
      </trkpt>
      <trkpt lat="36.830379" lon="-2.273127">
        <ele>34.614</ele>
        <time>2021-06-11T18:13:09Z</time>
      </trkpt>
      <trkpt lat="36.830434" lon="-2.273382">
        <ele>34.908</ele>
        <time>2021-06-11T18:13:10Z</time>
      </trkpt>
      <trkpt lat="36.830525" lon="-2.273839">
        <ele>35.651</ele>
        <time>2021-06-11T18:13:12Z</time>
      </trkpt>
      <trkpt lat="36.830581" lon="-2.274139">
        <ele>36.049</ele>
        <time>2021-06-11T18:13:13Z</time>
      </trkpt>
      <trkpt lat="36.830625" lon="-2.274383">
        <ele>36.419</ele>
        <time>2021-06-11T18:13:14Z</time>
      </trkpt>
      <trkpt lat="36.830713" lon="-2.274874">
        <ele>36.497</ele>
        <time>2021-06-11T18:13:16Z</time>
      </trkpt>
      <trkpt lat="36.830809" lon="-2.275344">
        <ele>36.542</ele>
        <time>2021-06-11T18:13:18Z</time>
      </trkpt>
      <trkpt lat="36.830921" lon="-2.275843">
        <ele>36.673</ele>
        <time>2021-06-11T18:13:20Z</time>
      </trkpt>
      <trkpt lat="36.830994" lon="-2.276119">
        <ele>36.627</ele>
        <time>2021-06-11T18:13:21Z</time>
      </trkpt>
      <trkpt lat="36.831061" lon="-2.276345">
        <ele>36.770</ele>
        <time>2021-06-11T18:13:22Z</time>
      </trkpt>
      <trkpt lat="36.831223" lon="-2.276804">
        <ele>36.514</ele>
        <time>2021-06-11T18:13:24Z</time>
      </trkpt>
      <trkpt lat="36.831316" lon="-2.277031">
        <ele>36.154</ele>
        <time>2021-06-11T18:13:25Z</time>
      </trkpt>
      <trkpt lat="36.831502" lon="-2.277462">
        <ele>35.909</ele>
        <time>2021-06-11T18:13:27Z</time>
      </trkpt>
      <trkpt lat="36.831611" lon="-2.277716">
        <ele>35.608</ele>
        <time>2021-06-11T18:13:28Z</time>
      </trkpt>
      <trkpt lat="36.831707" lon="-2.277935">
        <ele>35.438</ele>
        <time>2021-06-11T18:13:29Z</time>
      </trkpt>
      <trkpt lat="36.831801" lon="-2.278157">
        <ele>35.016</ele>
        <time>2021-06-11T18:13:30Z</time>
      </trkpt>
      <trkpt lat="36.831992" lon="-2.278596">
        <ele>34.566</ele>
        <time>2021-06-11T18:13:32Z</time>
      </trkpt>
      <trkpt lat="36.832087" lon="-2.278818">
        <ele>34.384</ele>
        <time>2021-06-11T18:13:33Z</time>
      </trkpt>
      <trkpt lat="36.832266" lon="-2.279225">
        <ele>35.049</ele>
        <time>2021-06-11T18:13:35Z</time>
      </trkpt>
      <trkpt lat="36.832453" lon="-2.279674">
        <ele>35.150</ele>
        <time>2021-06-11T18:13:37Z</time>
      </trkpt>
      <trkpt lat="36.832634" lon="-2.280118">
        <ele>35.594</ele>
        <time>2021-06-11T18:13:39Z</time>
      </trkpt>
      <trkpt lat="36.832725" lon="-2.280337">
        <ele>35.967</ele>
        <time>2021-06-11T18:13:40Z</time>
      </trkpt>
      <trkpt lat="36.832822" lon="-2.280556">
        <ele>35.986</ele>
        <time>2021-06-11T18:13:41Z</time>
      </trkpt>
      <trkpt lat="36.832929" lon="-2.280807">
        <ele>35.760</ele>
        <time>2021-06-11T18:13:42Z</time>
      </trkpt>
      <trkpt lat="36.833017" lon="-2.281021">
        <ele>35.726</ele>
        <time>2021-06-11T18:13:43Z</time>
      </trkpt>
      <trkpt lat="36.833189" lon="-2.281458">
        <ele>35.608</ele>
        <time>2021-06-11T18:13:45Z</time>
      </trkpt>
      <trkpt lat="36.833269" lon="-2.281675">
        <ele>35.455</ele>
        <time>2021-06-11T18:13:46Z</time>
      </trkpt>
      <trkpt lat="36.833454" lon="-2.282103">
        <ele>35.133</ele>
        <time>2021-06-11T18:13:48Z</time>
      </trkpt>
      <trkpt lat="36.833648" lon="-2.282536">
        <ele>34.973</ele>
        <time>2021-06-11T18:13:50Z</time>
      </trkpt>
      <trkpt lat="36.833837" lon="-2.28298">
        <ele>34.451</ele>
        <time>2021-06-11T18:13:52Z</time>
      </trkpt>
      <trkpt lat="36.833933" lon="-2.283203">
        <ele>34.016</ele>
        <time>2021-06-11T18:13:53Z</time>
      </trkpt>
      <trkpt lat="36.834127" lon="-2.283603">
        <ele>33.377</ele>
        <time>2021-06-11T18:13:55Z</time>
      </trkpt>
      <trkpt lat="36.834244" lon="-2.28382">
        <ele>32.781</ele>
        <time>2021-06-11T18:13:56Z</time>
      </trkpt>
      <trkpt lat="36.834364" lon="-2.284028">
        <ele>32.434</ele>
        <time>2021-06-11T18:13:57Z</time>
      </trkpt>
      <trkpt lat="36.834597" lon="-2.284444">
        <ele>31.891</ele>
        <time>2021-06-11T18:13:59Z</time>
      </trkpt>
      <trkpt lat="36.83471" lon="-2.284655">
        <ele>31.781</ele>
        <time>2021-06-11T18:14:00Z</time>
      </trkpt>
      <trkpt lat="36.834824" lon="-2.284864">
        <ele>31.819</ele>
        <time>2021-06-11T18:14:01Z</time>
      </trkpt>
      <trkpt lat="36.834938" lon="-2.28507">
        <ele>31.508</ele>
        <time>2021-06-11T18:14:02Z</time>
      </trkpt>
      <trkpt lat="36.83516" lon="-2.285485">
        <ele>31.726</ele>
        <time>2021-06-11T18:14:04Z</time>
      </trkpt>
      <trkpt lat="36.835373" lon="-2.2859">
        <ele>32.024</ele>
        <time>2021-06-11T18:14:06Z</time>
      </trkpt>
      <trkpt lat="36.835482" lon="-2.286103">
        <ele>32.494</ele>
        <time>2021-06-11T18:14:07Z</time>
      </trkpt>
      <trkpt lat="36.83561" lon="-2.286329">
        <ele>32.862</ele>
        <time>2021-06-11T18:14:08Z</time>
      </trkpt>
      <trkpt lat="36.835717" lon="-2.286519">
        <ele>33.197</ele>
        <time>2021-06-11T18:14:09Z</time>
      </trkpt>
      <trkpt lat="36.83593" lon="-2.286915">
        <ele>33.558</ele>
        <time>2021-06-11T18:14:11Z</time>
      </trkpt>
      <trkpt lat="36.83616" lon="-2.287333">
        <ele>34.062</ele>
        <time>2021-06-11T18:14:13Z</time>
      </trkpt>
      <trkpt lat="36.836377" lon="-2.287745">
        <ele>34.775</ele>
        <time>2021-06-11T18:14:15Z</time>
      </trkpt>
      <trkpt lat="36.836476" lon="-2.287957">
        <ele>35.059</ele>
        <time>2021-06-11T18:14:16Z</time>
      </trkpt>
      <trkpt lat="36.836654" lon="-2.288386">
        <ele>35.603</ele>
        <time>2021-06-11T18:14:18Z</time>
      </trkpt>
      <trkpt lat="36.836735" lon="-2.288608">
        <ele>36.123</ele>
        <time>2021-06-11T18:14:19Z</time>
      </trkpt>
      <trkpt lat="36.836885" lon="-2.28901">
        <ele>36.408</ele>
        <time>2021-06-11T18:14:21Z</time>
      </trkpt>
      <trkpt lat="36.836985" lon="-2.289266">
        <ele>36.772</ele>
        <time>2021-06-11T18:14:22Z</time>
      </trkpt>
      <trkpt lat="36.837147" lon="-2.28967">
        <ele>37.510</ele>
        <time>2021-06-11T18:14:24Z</time>
      </trkpt>
      <trkpt lat="36.837328" lon="-2.290143">
        <ele>38.140</ele>
        <time>2021-06-11T18:14:26Z</time>
      </trkpt>
      <trkpt lat="36.837406" lon="-2.290346">
        <ele>38.458</ele>
        <time>2021-06-11T18:14:27Z</time>
      </trkpt>
      <trkpt lat="36.837554" lon="-2.290719">
        <ele>38.323</ele>
        <time>2021-06-11T18:14:29Z</time>
      </trkpt>
      <trkpt lat="36.837688" lon="-2.291066">
        <ele>38.864</ele>
        <time>2021-06-11T18:14:31Z</time>
      </trkpt>
      <trkpt lat="36.837806" lon="-2.291381">
        <ele>39.118</ele>
        <time>2021-06-11T18:14:33Z</time>
      </trkpt>
      <trkpt lat="36.837916" lon="-2.291681">
        <ele>39.691</ele>
        <time>2021-06-11T18:14:35Z</time>
      </trkpt>
      <trkpt lat="36.838062" lon="-2.292016">
        <ele>39.994</ele>
        <time>2021-06-11T18:14:37Z</time>
      </trkpt>
      <trkpt lat="36.838137" lon="-2.292163">
        <ele>40.357</ele>
        <time>2021-06-11T18:14:38Z</time>
      </trkpt>
      <trkpt lat="36.838329" lon="-2.292467">
        <ele>40.422</ele>
        <time>2021-06-11T18:14:40Z</time>
      </trkpt>
      <trkpt lat="36.838433" lon="-2.292614">
        <ele>40.408</ele>
        <time>2021-06-11T18:14:41Z</time>
      </trkpt>
      <trkpt lat="36.838545" lon="-2.292762">
        <ele>40.426</ele>
        <time>2021-06-11T18:14:42Z</time>
      </trkpt>
      <trkpt lat="36.838793" lon="-2.293031">
        <ele>40.694</ele>
        <time>2021-06-11T18:14:44Z</time>
      </trkpt>
      <trkpt lat="36.838926" lon="-2.293157">
        <ele>40.974</ele>
        <time>2021-06-11T18:14:45Z</time>
      </trkpt>
      <trkpt lat="36.839201" lon="-2.293407">
        <ele>41.032</ele>
        <time>2021-06-11T18:14:47Z</time>
      </trkpt>
      <trkpt lat="36.839331" lon="-2.293527">
        <ele>41.497</ele>
        <time>2021-06-11T18:14:48Z</time>
      </trkpt>
      <trkpt lat="36.839567" lon="-2.293761">
        <ele>41.858</ele>
        <time>2021-06-11T18:14:50Z</time>
      </trkpt>
      <trkpt lat="36.839709" lon="-2.293907">
        <ele>42.012</ele>
        <time>2021-06-11T18:14:51Z</time>
      </trkpt>
      <trkpt lat="36.839832" lon="-2.294031">
        <ele>42.195</ele>
        <time>2021-06-11T18:14:52Z</time>
      </trkpt>
      <trkpt lat="36.840093" lon="-2.294283">
        <ele>42.589</ele>
        <time>2021-06-11T18:14:54Z</time>
      </trkpt>
      <trkpt lat="36.840348" lon="-2.294533">
        <ele>42.606</ele>
        <time>2021-06-11T18:14:56Z</time>
      </trkpt>
      <trkpt lat="36.840617" lon="-2.294789">
        <ele>42.626</ele>
        <time>2021-06-11T18:14:58Z</time>
      </trkpt>
      <trkpt lat="36.840881" lon="-2.295045">
        <ele>42.708</ele>
        <time>2021-06-11T18:15:00Z</time>
      </trkpt>
      <trkpt lat="36.841125" lon="-2.295314">
        <ele>42.745</ele>
        <time>2021-06-11T18:15:02Z</time>
      </trkpt>
      <trkpt lat="36.841319" lon="-2.295599">
        <ele>42.893</ele>
        <time>2021-06-11T18:15:04Z</time>
      </trkpt>
      <trkpt lat="36.84152" lon="-2.295937">
        <ele>42.673</ele>
        <time>2021-06-11T18:15:06Z</time>
      </trkpt>
      <trkpt lat="36.841728" lon="-2.296278">
        <ele>42.581</ele>
        <time>2021-06-11T18:15:08Z</time>
      </trkpt>
      <trkpt lat="36.841908" lon="-2.296565">
        <ele>42.436</ele>
        <time>2021-06-11T18:15:10Z</time>
      </trkpt>
      <trkpt lat="36.841995" lon="-2.296704">
        <ele>41.997</ele>
        <time>2021-06-11T18:15:11Z</time>
      </trkpt>
      <trkpt lat="36.842158" lon="-2.29696">
        <ele>41.981</ele>
        <time>2021-06-11T18:15:13Z</time>
      </trkpt>
      <trkpt lat="36.84231" lon="-2.297189">
        <ele>42.264</ele>
        <time>2021-06-11T18:15:15Z</time>
      </trkpt>
      <trkpt lat="36.842446" lon="-2.297401">
        <ele>42.815</ele>
        <time>2021-06-11T18:15:17Z</time>
      </trkpt>
      <trkpt lat="36.842566" lon="-2.297604">
        <ele>42.965</ele>
        <time>2021-06-11T18:15:19Z</time>
      </trkpt>
      <trkpt lat="36.84269" lon="-2.297818">
        <ele>42.911</ele>
        <time>2021-06-11T18:15:21Z</time>
      </trkpt>
      <trkpt lat="36.842747" lon="-2.297933">
        <ele>42.708</ele>
        <time>2021-06-11T18:15:22Z</time>
      </trkpt>
      <trkpt lat="36.842857" lon="-2.298186">
        <ele>43.028</ele>
        <time>2021-06-11T18:15:24Z</time>
      </trkpt>
      <trkpt lat="36.842911" lon="-2.298327">
        <ele>43.256</ele>
        <time>2021-06-11T18:15:25Z</time>
      </trkpt>
      <trkpt lat="36.843016" lon="-2.29863">
        <ele>43.256</ele>
        <time>2021-06-11T18:15:27Z</time>
      </trkpt>
      <trkpt lat="36.843109" lon="-2.298948">
        <ele>43.124</ele>
        <time>2021-06-11T18:15:29Z</time>
      </trkpt>
      <trkpt lat="36.843178" lon="-2.299257">
        <ele>43.069</ele>
        <time>2021-06-11T18:15:31Z</time>
      </trkpt>
      <trkpt lat="36.843224" lon="-2.299591">
        <ele>42.940</ele>
        <time>2021-06-11T18:15:33Z</time>
      </trkpt>
      <trkpt lat="36.843252" lon="-2.299912">
        <ele>42.724</ele>
        <time>2021-06-11T18:15:35Z</time>
      </trkpt>
      <trkpt lat="36.843292" lon="-2.300294">
        <ele>42.687</ele>
        <time>2021-06-11T18:15:37Z</time>
      </trkpt>
      <trkpt lat="36.843313" lon="-2.300465">
        <ele>43.084</ele>
        <time>2021-06-11T18:15:38Z</time>
      </trkpt>
      <trkpt lat="36.843356" lon="-2.300831">
        <ele>43.207</ele>
        <time>2021-06-11T18:15:40Z</time>
      </trkpt>
      <trkpt lat="36.843382" lon="-2.301012">
        <ele>43.417</ele>
        <time>2021-06-11T18:15:41Z</time>
      </trkpt>
      <trkpt lat="36.843445" lon="-2.301348">
        <ele>43.408</ele>
        <time>2021-06-11T18:15:43Z</time>
      </trkpt>
      <trkpt lat="36.843481" lon="-2.301503">
        <ele>43.365</ele>
        <time>2021-06-11T18:15:44Z</time>
      </trkpt>
      <trkpt lat="36.843516" lon="-2.301651">
        <ele>43.573</ele>
        <time>2021-06-11T18:15:45Z</time>
      </trkpt>
      <trkpt lat="36.843586" lon="-2.301938">
        <ele>43.963</ele>
        <time>2021-06-11T18:15:47Z</time>
      </trkpt>
      <trkpt lat="36.843639" lon="-2.302181">
        <ele>44.381</ele>
        <time>2021-06-11T18:15:49Z</time>
      </trkpt>
      <trkpt lat="36.843681" lon="-2.302409">
        <ele>44.526</ele>
        <time>2021-06-11T18:15:51Z</time>
      </trkpt>
      <trkpt lat="36.843709" lon="-2.302601">
        <ele>44.757</ele>
        <time>2021-06-11T18:15:53Z</time>
      </trkpt>
      <trkpt lat="36.843729" lon="-2.302709">
        <ele>44.661</ele>
        <time>2021-06-11T18:15:54Z</time>
      </trkpt>
      <trkpt lat="36.84377" lon="-2.30287">
        <ele>44.614</ele>
        <time>2021-06-11T18:15:56Z</time>
      </trkpt>
      <trkpt lat="36.84379" lon="-2.302954">
        <ele>44.959</ele>
        <time>2021-06-11T18:15:57Z</time>
      </trkpt>
      <trkpt lat="36.843828" lon="-2.303123">
        <ele>44.903</ele>
        <time>2021-06-11T18:15:59Z</time>
      </trkpt>
      <trkpt lat="36.843866" lon="-2.303303">
        <ele>45.323</ele>
        <time>2021-06-11T18:16:01Z</time>
      </trkpt>
      <trkpt lat="36.843921" lon="-2.30347">
        <ele>45.608</ele>
        <time>2021-06-11T18:16:03Z</time>
      </trkpt>
      <trkpt lat="36.843991" lon="-2.30362">
        <ele>45.892</ele>
        <time>2021-06-11T18:16:05Z</time>
      </trkpt>
      <trkpt lat="36.844037" lon="-2.303691">
        <ele>45.950</ele>
        <time>2021-06-11T18:16:06Z</time>
      </trkpt>
      <trkpt lat="36.844158" lon="-2.303826">
        <ele>46.130</ele>
        <time>2021-06-11T18:16:08Z</time>
      </trkpt>
      <trkpt lat="36.844214" lon="-2.303888">
        <ele>46.268</ele>
        <time>2021-06-11T18:16:09Z</time>
      </trkpt>
      <trkpt lat="36.844298" lon="-2.304034">
        <ele>46.493</ele>
        <time>2021-06-11T18:16:11Z</time>
      </trkpt>
      <trkpt lat="36.844321" lon="-2.304136">
        <ele>46.164</ele>
        <time>2021-06-11T18:16:12Z</time>
      </trkpt>
      <trkpt lat="36.844324" lon="-2.304222">
        <ele>45.978</ele>
        <time>2021-06-11T18:16:13Z</time>
      </trkpt>
      <trkpt lat="36.844346" lon="-2.304386">
        <ele>46.141</ele>
        <time>2021-06-11T18:16:15Z</time>
      </trkpt>
      <trkpt lat="36.844387" lon="-2.304475">
        <ele>46.858</ele>
        <time>2021-06-11T18:16:16Z</time>
      </trkpt>
      <trkpt lat="36.844487" lon="-2.304598">
        <ele>47.152</ele>
        <time>2021-06-11T18:16:18Z</time>
      </trkpt>
      <trkpt lat="36.844541" lon="-2.304648">
        <ele>47.517</ele>
        <time>2021-06-11T18:16:19Z</time>
      </trkpt>
      <trkpt lat="36.84466" lon="-2.304756">
        <ele>47.508</ele>
        <time>2021-06-11T18:16:21Z</time>
      </trkpt>
      <trkpt lat="36.844734" lon="-2.304822">
        <ele>47.682</ele>
        <time>2021-06-11T18:16:22Z</time>
      </trkpt>
      <trkpt lat="36.844898" lon="-2.304988">
        <ele>47.910</ele>
        <time>2021-06-11T18:16:24Z</time>
      </trkpt>
      <trkpt lat="36.84498" lon="-2.305079">
        <ele>48.070</ele>
        <time>2021-06-11T18:16:25Z</time>
      </trkpt>
      <trkpt lat="36.845165" lon="-2.305281">
        <ele>48.828</ele>
        <time>2021-06-11T18:16:27Z</time>
      </trkpt>
      <trkpt lat="36.845262" lon="-2.305384">
        <ele>49.533</ele>
        <time>2021-06-11T18:16:28Z</time>
      </trkpt>
      <trkpt lat="36.845464" lon="-2.305593">
        <ele>50.014</ele>
        <time>2021-06-11T18:16:30Z</time>
      </trkpt>
      <trkpt lat="36.845689" lon="-2.305807">
        <ele>49.998</ele>
        <time>2021-06-11T18:16:32Z</time>
      </trkpt>
      <trkpt lat="36.845925" lon="-2.306037">
        <ele>49.661</ele>
        <time>2021-06-11T18:16:34Z</time>
      </trkpt>
      <trkpt lat="36.846129" lon="-2.306231">
        <ele>49.411</ele>
        <time>2021-06-11T18:16:36Z</time>
      </trkpt>
      <trkpt lat="36.846243" lon="-2.306348">
        <ele>49.521</ele>
        <time>2021-06-11T18:16:37Z</time>
      </trkpt>
      <trkpt lat="36.846366" lon="-2.306476">
        <ele>49.903</ele>
        <time>2021-06-11T18:16:38Z</time>
      </trkpt>
      <trkpt lat="36.846566" lon="-2.306691">
        <ele>50.608</ele>
        <time>2021-06-11T18:16:40Z</time>
      </trkpt>
      <trkpt lat="36.846685" lon="-2.306816">
        <ele>51.278</ele>
        <time>2021-06-11T18:16:41Z</time>
      </trkpt>
      <trkpt lat="36.846789" lon="-2.306924">
        <ele>51.736</ele>
        <time>2021-06-11T18:16:42Z</time>
      </trkpt>
      <trkpt lat="36.847006" lon="-2.30714">
        <ele>52.346</ele>
        <time>2021-06-11T18:16:44Z</time>
      </trkpt>
      <trkpt lat="36.847114" lon="-2.307248">
        <ele>52.654</ele>
        <time>2021-06-11T18:16:45Z</time>
      </trkpt>
      <trkpt lat="36.847329" lon="-2.307468">
        <ele>53.179</ele>
        <time>2021-06-11T18:16:47Z</time>
      </trkpt>
      <trkpt lat="36.847438" lon="-2.30758">
        <ele>53.250</ele>
        <time>2021-06-11T18:16:48Z</time>
      </trkpt>
      <trkpt lat="36.847545" lon="-2.307691">
        <ele>53.734</ele>
        <time>2021-06-11T18:16:49Z</time>
      </trkpt>
      <trkpt lat="36.84776" lon="-2.307912">
        <ele>54.457</ele>
        <time>2021-06-11T18:16:51Z</time>
      </trkpt>
      <trkpt lat="36.847952" lon="-2.308111">
        <ele>54.955</ele>
        <time>2021-06-11T18:16:53Z</time>
      </trkpt>
      <trkpt lat="36.848053" lon="-2.308213">
        <ele>55.407</ele>
        <time>2021-06-11T18:16:54Z</time>
      </trkpt>
      <trkpt lat="36.848158" lon="-2.308318">
        <ele>56.117</ele>
        <time>2021-06-11T18:16:55Z</time>
      </trkpt>
      <trkpt lat="36.848241" lon="-2.308402">
        <ele>56.408</ele>
        <time>2021-06-11T18:16:56Z</time>
      </trkpt>
      <trkpt lat="36.848406" lon="-2.308569">
        <ele>57.092</ele>
        <time>2021-06-11T18:16:58Z</time>
      </trkpt>
      <trkpt lat="36.848487" lon="-2.308648">
        <ele>57.350</ele>
        <time>2021-06-11T18:16:59Z</time>
      </trkpt>
      <trkpt lat="36.84863" lon="-2.308786">
        <ele>57.430</ele>
        <time>2021-06-11T18:17:01Z</time>
      </trkpt>
      <trkpt lat="36.84871" lon="-2.308865">
        <ele>57.618</ele>
        <time>2021-06-11T18:17:02Z</time>
      </trkpt>
      <trkpt lat="36.848776" lon="-2.308929">
        <ele>57.613</ele>
        <time>2021-06-11T18:17:03Z</time>
      </trkpt>
      <trkpt lat="36.848869" lon="-2.309023">
        <ele>57.964</ele>
        <time>2021-06-11T18:17:05Z</time>
      </trkpt>
      <trkpt lat="36.848956" lon="-2.309112">
        <ele>58.228</ele>
        <time>2021-06-11T18:17:07Z</time>
      </trkpt>
      <trkpt lat="36.848998" lon="-2.309165">
        <ele>58.361</ele>
        <time>2021-06-11T18:17:08Z</time>
      </trkpt>
      <trkpt lat="36.849093" lon="-2.30927">
        <ele>58.546</ele>
        <time>2021-06-11T18:17:10Z</time>
      </trkpt>
      <trkpt lat="36.849217" lon="-2.309369">
        <ele>58.988</ele>
        <time>2021-06-11T18:17:12Z</time>
      </trkpt>
      <trkpt lat="36.849352" lon="-2.309467">
        <ele>59.216</ele>
        <time>2021-06-11T18:17:14Z</time>
      </trkpt>
      <trkpt lat="36.849423" lon="-2.309558">
        <ele>59.608</ele>
        <time>2021-06-11T18:17:15Z</time>
      </trkpt>
      <trkpt lat="36.849478" lon="-2.309638">
        <ele>60.021</ele>
        <time>2021-06-11T18:17:16Z</time>
      </trkpt>
      <trkpt lat="36.849579" lon="-2.309767">
        <ele>60.079</ele>
        <time>2021-06-11T18:17:18Z</time>
      </trkpt>
      <trkpt lat="36.849706" lon="-2.30989">
        <ele>59.779</ele>
        <time>2021-06-11T18:17:20Z</time>
      </trkpt>
      <trkpt lat="36.849833" lon="-2.310012">
        <ele>59.867</ele>
        <time>2021-06-11T18:17:22Z</time>
      </trkpt>
      <trkpt lat="36.849986" lon="-2.310155">
        <ele>60.162</ele>
        <time>2021-06-11T18:17:24Z</time>
      </trkpt>
      <trkpt lat="36.850065" lon="-2.310236">
        <ele>60.253</ele>
        <time>2021-06-11T18:17:25Z</time>
      </trkpt>
      <trkpt lat="36.850146" lon="-2.310317">
        <ele>60.567</ele>
        <time>2021-06-11T18:17:26Z</time>
      </trkpt>
      <trkpt lat="36.850312" lon="-2.310484">
        <ele>61.430</ele>
        <time>2021-06-11T18:17:28Z</time>
      </trkpt>
      <trkpt lat="36.850391" lon="-2.310565">
        <ele>62.054</ele>
        <time>2021-06-11T18:17:29Z</time>
      </trkpt>
      <trkpt lat="36.850555" lon="-2.310731">
        <ele>62.356</ele>
        <time>2021-06-11T18:17:31Z</time>
      </trkpt>
      <trkpt lat="36.850627" lon="-2.310801">
        <ele>62.211</ele>
        <time>2021-06-11T18:17:32Z</time>
      </trkpt>
      <trkpt lat="36.850731" lon="-2.310908">
        <ele>62.408</ele>
        <time>2021-06-11T18:17:34Z</time>
      </trkpt>
      <trkpt lat="36.850782" lon="-2.310961">
        <ele>62.572</ele>
        <time>2021-06-11T18:17:35Z</time>
      </trkpt>
      <trkpt lat="36.850831" lon="-2.311012">
        <ele>62.490</ele>
        <time>2021-06-11T18:17:36Z</time>
      </trkpt>
      <trkpt lat="36.850948" lon="-2.31113">
        <ele>62.690</ele>
        <time>2021-06-11T18:17:38Z</time>
      </trkpt>
      <trkpt lat="36.851101" lon="-2.311296">
        <ele>62.968</ele>
        <time>2021-06-11T18:17:40Z</time>
      </trkpt>
      <trkpt lat="36.851246" lon="-2.311457">
        <ele>63.493</ele>
        <time>2021-06-11T18:17:42Z</time>
      </trkpt>
      <trkpt lat="36.851398" lon="-2.311629">
        <ele>63.734</ele>
        <time>2021-06-11T18:17:44Z</time>
      </trkpt>
      <trkpt lat="36.851527" lon="-2.31182">
        <ele>64.348</ele>
        <time>2021-06-11T18:17:46Z</time>
      </trkpt>
      <trkpt lat="36.851626" lon="-2.312012">
        <ele>65.031</ele>
        <time>2021-06-11T18:17:48Z</time>
      </trkpt>
      <trkpt lat="36.851704" lon="-2.312237">
        <ele>65.391</ele>
        <time>2021-06-11T18:17:50Z</time>
      </trkpt>
      <trkpt lat="36.851777" lon="-2.312421">
        <ele>65.981</ele>
        <time>2021-06-11T18:17:52Z</time>
      </trkpt>
      <trkpt lat="36.851844" lon="-2.312521">
        <ele>66.119</ele>
        <time>2021-06-11T18:17:54Z</time>
      </trkpt>
      <trkpt lat="36.851971" lon="-2.312571">
        <ele>66.008</ele>
        <time>2021-06-11T18:17:56Z</time>
      </trkpt>
      <trkpt lat="36.852132" lon="-2.312602">
        <ele>65.816</ele>
        <time>2021-06-11T18:17:58Z</time>
      </trkpt>
      <trkpt lat="36.852262" lon="-2.31276">
        <ele>66.024</ele>
        <time>2021-06-11T18:18:00Z</time>
      </trkpt>
      <trkpt lat="36.852286" lon="-2.312879">
        <ele>66.134</ele>
        <time>2021-06-11T18:18:01Z</time>
      </trkpt>
      <trkpt lat="36.852274" lon="-2.31301">
        <ele>66.592</ele>
        <time>2021-06-11T18:18:02Z</time>
      </trkpt>
      <trkpt lat="36.852235" lon="-2.313146">
        <ele>66.667</ele>
        <time>2021-06-11T18:18:03Z</time>
      </trkpt>
      <trkpt lat="36.852138" lon="-2.313441">
        <ele>66.718</ele>
        <time>2021-06-11T18:18:05Z</time>
      </trkpt>
      <trkpt lat="36.852118" lon="-2.313804">
        <ele>66.652</ele>
        <time>2021-06-11T18:18:07Z</time>
      </trkpt>
      <trkpt lat="36.852123" lon="-2.314003">
        <ele>66.455</ele>
        <time>2021-06-11T18:18:08Z</time>
      </trkpt>
      <trkpt lat="36.85213" lon="-2.314423">
        <ele>66.436</ele>
        <time>2021-06-11T18:18:10Z</time>
      </trkpt>
      <trkpt lat="36.852123" lon="-2.314865">
        <ele>66.317</ele>
        <time>2021-06-11T18:18:12Z</time>
      </trkpt>
      <trkpt lat="36.852112" lon="-2.315357">
        <ele>65.518</ele>
        <time>2021-06-11T18:18:14Z</time>
      </trkpt>
      <trkpt lat="36.852107" lon="-2.315588">
        <ele>65.008</ele>
        <time>2021-06-11T18:18:15Z</time>
      </trkpt>
      <trkpt lat="36.852104" lon="-2.315818">
        <ele>64.560</ele>
        <time>2021-06-11T18:18:16Z</time>
      </trkpt>
      <trkpt lat="36.852102" lon="-2.316041">
        <ele>64.468</ele>
        <time>2021-06-11T18:18:17Z</time>
      </trkpt>
      <trkpt lat="36.852096" lon="-2.316477">
        <ele>63.938</ele>
        <time>2021-06-11T18:18:19Z</time>
      </trkpt>
      <trkpt lat="36.852096" lon="-2.316694">
        <ele>63.526</ele>
        <time>2021-06-11T18:18:20Z</time>
      </trkpt>
      <trkpt lat="36.852092" lon="-2.317125">
        <ele>63.291</ele>
        <time>2021-06-11T18:18:22Z</time>
      </trkpt>
      <trkpt lat="36.852096" lon="-2.317571">
        <ele>62.992</ele>
        <time>2021-06-11T18:18:24Z</time>
      </trkpt>
      <trkpt lat="36.852104" lon="-2.317975">
        <ele>62.596</ele>
        <time>2021-06-11T18:18:26Z</time>
      </trkpt>
      <trkpt lat="36.852109" lon="-2.318338">
        <ele>62.119</ele>
        <time>2021-06-11T18:18:28Z</time>
      </trkpt>
      <trkpt lat="36.85211" lon="-2.318558">
        <ele>61.558</ele>
        <time>2021-06-11T18:18:29Z</time>
      </trkpt>
      <trkpt lat="36.852109" lon="-2.318917">
        <ele>61.352</ele>
        <time>2021-06-11T18:18:31Z</time>
      </trkpt>
      <trkpt lat="36.852113" lon="-2.319229">
        <ele>60.617</ele>
        <time>2021-06-11T18:18:33Z</time>
      </trkpt>
      <trkpt lat="36.852111" lon="-2.319371">
        <ele>60.308</ele>
        <time>2021-06-11T18:18:34Z</time>
      </trkpt>
      <trkpt lat="36.852111" lon="-2.31962">
        <ele>59.982</ele>
        <time>2021-06-11T18:18:36Z</time>
      </trkpt>
      <trkpt lat="36.852152" lon="-2.31986">
        <ele>60.060</ele>
        <time>2021-06-11T18:18:38Z</time>
      </trkpt>
      <trkpt lat="36.852214" lon="-2.319978">
        <ele>60.260</ele>
        <time>2021-06-11T18:18:39Z</time>
      </trkpt>
      <trkpt lat="36.85228" lon="-2.320073">
        <ele>60.068</ele>
        <time>2021-06-11T18:18:40Z</time>
      </trkpt>
      <trkpt lat="36.852345" lon="-2.320311">
        <ele>60.253</ele>
        <time>2021-06-11T18:18:42Z</time>
      </trkpt>
      <trkpt lat="36.852261" lon="-2.320553">
        <ele>60.494</ele>
        <time>2021-06-11T18:18:44Z</time>
      </trkpt>
      <trkpt lat="36.852143" lon="-2.320818">
        <ele>60.418</ele>
        <time>2021-06-11T18:18:46Z</time>
      </trkpt>
      <trkpt lat="36.852098" lon="-2.321178">
        <ele>60.261</ele>
        <time>2021-06-11T18:18:48Z</time>
      </trkpt>
      <trkpt lat="36.852109" lon="-2.321607">
        <ele>60.289</ele>
        <time>2021-06-11T18:18:50Z</time>
      </trkpt>
      <trkpt lat="36.852114" lon="-2.322076">
        <ele>59.506</ele>
        <time>2021-06-11T18:18:52Z</time>
      </trkpt>
      <trkpt lat="36.852121" lon="-2.322565">
        <ele>59.126</ele>
        <time>2021-06-11T18:18:54Z</time>
      </trkpt>
      <trkpt lat="36.852145" lon="-2.323091">
        <ele>58.608</ele>
        <time>2021-06-11T18:18:56Z</time>
      </trkpt>
      <trkpt lat="36.852149" lon="-2.32362">
        <ele>57.895</ele>
        <time>2021-06-11T18:18:58Z</time>
      </trkpt>
      <trkpt lat="36.852149" lon="-2.323891">
        <ele>57.223</ele>
        <time>2021-06-11T18:18:59Z</time>
      </trkpt>
      <trkpt lat="36.852153" lon="-2.324445">
        <ele>56.423</ele>
        <time>2021-06-11T18:19:01Z</time>
      </trkpt>
      <trkpt lat="36.852147" lon="-2.324965">
        <ele>55.611</ele>
        <time>2021-06-11T18:19:03Z</time>
      </trkpt>
      <trkpt lat="36.852141" lon="-2.325253">
        <ele>55.156</ele>
        <time>2021-06-11T18:19:04Z</time>
      </trkpt>
      <trkpt lat="36.852138" lon="-2.325822">
        <ele>54.497</ele>
        <time>2021-06-11T18:19:06Z</time>
      </trkpt>
      <trkpt lat="36.852147" lon="-2.326325">
        <ele>53.331</ele>
        <time>2021-06-11T18:19:08Z</time>
      </trkpt>
      <trkpt lat="36.852152" lon="-2.326595">
        <ele>52.874</ele>
        <time>2021-06-11T18:19:09Z</time>
      </trkpt>
      <trkpt lat="36.85215" lon="-2.327133">
        <ele>51.588</ele>
        <time>2021-06-11T18:19:11Z</time>
      </trkpt>
      <trkpt lat="36.852149" lon="-2.327649">
        <ele>50.624</ele>
        <time>2021-06-11T18:19:13Z</time>
      </trkpt>
      <trkpt lat="36.852148" lon="-2.327898">
        <ele>50.026</ele>
        <time>2021-06-11T18:19:14Z</time>
      </trkpt>
      <trkpt lat="36.852147" lon="-2.328382">
        <ele>48.708</ele>
        <time>2021-06-11T18:19:16Z</time>
      </trkpt>
      <trkpt lat="36.852143" lon="-2.328694">
        <ele>47.835</ele>
        <time>2021-06-11T18:19:17Z</time>
      </trkpt>
      <trkpt lat="36.852142" lon="-2.328957">
        <ele>47.373</ele>
        <time>2021-06-11T18:19:18Z</time>
      </trkpt>
      <trkpt lat="36.852153" lon="-2.329489">
        <ele>46.633</ele>
        <time>2021-06-11T18:19:20Z</time>
      </trkpt>
      <trkpt lat="36.852158" lon="-2.330043">
        <ele>45.811</ele>
        <time>2021-06-11T18:19:22Z</time>
      </trkpt>
      <trkpt lat="36.852161" lon="-2.330309">
        <ele>45.126</ele>
        <time>2021-06-11T18:19:23Z</time>
      </trkpt>
      <trkpt lat="36.852158" lon="-2.33085">
        <ele>44.777</ele>
        <time>2021-06-11T18:19:25Z</time>
      </trkpt>
      <trkpt lat="36.852158" lon="-2.331122">
        <ele>44.271</ele>
        <time>2021-06-11T18:19:26Z</time>
      </trkpt>
      <trkpt lat="36.852163" lon="-2.331666">
        <ele>43.754</ele>
        <time>2021-06-11T18:19:28Z</time>
      </trkpt>
      <trkpt lat="36.85217" lon="-2.332163">
        <ele>42.911</ele>
        <time>2021-06-11T18:19:30Z</time>
      </trkpt>
      <trkpt lat="36.852173" lon="-2.332469">
        <ele>42.821</ele>
        <time>2021-06-11T18:19:31Z</time>
      </trkpt>
      <trkpt lat="36.85217" lon="-2.332978">
        <ele>43.003</ele>
        <time>2021-06-11T18:19:33Z</time>
      </trkpt>
      <trkpt lat="36.852167" lon="-2.333237">
        <ele>43.308</ele>
        <time>2021-06-11T18:19:34Z</time>
      </trkpt>
      <trkpt lat="36.852169" lon="-2.333728">
        <ele>43.788</ele>
        <time>2021-06-11T18:19:36Z</time>
      </trkpt>
      <trkpt lat="36.852172" lon="-2.333993">
        <ele>43.466</ele>
        <time>2021-06-11T18:19:37Z</time>
      </trkpt>
      <trkpt lat="36.852177" lon="-2.334285">
        <ele>43.556</ele>
        <time>2021-06-11T18:19:38Z</time>
      </trkpt>
      <trkpt lat="36.852199" lon="-2.334791">
        <ele>43.584</ele>
        <time>2021-06-11T18:19:40Z</time>
      </trkpt>
      <trkpt lat="36.852232" lon="-2.335275">
        <ele>43.539</ele>
        <time>2021-06-11T18:19:42Z</time>
      </trkpt>
      <trkpt lat="36.852251" lon="-2.335519">
        <ele>43.710</ele>
        <time>2021-06-11T18:19:43Z</time>
      </trkpt>
      <trkpt lat="36.852305" lon="-2.33601">
        <ele>43.964</ele>
        <time>2021-06-11T18:19:45Z</time>
      </trkpt>
      <trkpt lat="36.852331" lon="-2.336261">
        <ele>44.497</ele>
        <time>2021-06-11T18:19:46Z</time>
      </trkpt>
      <trkpt lat="36.852385" lon="-2.336728">
        <ele>44.773</ele>
        <time>2021-06-11T18:19:48Z</time>
      </trkpt>
      <trkpt lat="36.852424" lon="-2.337013">
        <ele>45.385</ele>
        <time>2021-06-11T18:19:49Z</time>
      </trkpt>
      <trkpt lat="36.852463" lon="-2.337246">
        <ele>45.913</ele>
        <time>2021-06-11T18:19:50Z</time>
      </trkpt>
      <trkpt lat="36.852506" lon="-2.337481">
        <ele>46.008</ele>
        <time>2021-06-11T18:19:51Z</time>
      </trkpt>
      <trkpt lat="36.852555" lon="-2.337716">
        <ele>45.864</ele>
        <time>2021-06-11T18:19:52Z</time>
      </trkpt>
      <trkpt lat="36.852656" lon="-2.338173">
        <ele>46.072</ele>
        <time>2021-06-11T18:19:54Z</time>
      </trkpt>
      <trkpt lat="36.852707" lon="-2.338405">
        <ele>46.112</ele>
        <time>2021-06-11T18:19:55Z</time>
      </trkpt>
      <trkpt lat="36.852762" lon="-2.338633">
        <ele>46.450</ele>
        <time>2021-06-11T18:19:56Z</time>
      </trkpt>
      <trkpt lat="36.85288" lon="-2.33909">
        <ele>46.795</ele>
        <time>2021-06-11T18:19:58Z</time>
      </trkpt>
      <trkpt lat="36.853004" lon="-2.33952">
        <ele>47.096</ele>
        <time>2021-06-11T18:20:00Z</time>
      </trkpt>
      <trkpt lat="36.853139" lon="-2.339959">
        <ele>47.430</ele>
        <time>2021-06-11T18:20:02Z</time>
      </trkpt>
      <trkpt lat="36.853268" lon="-2.340339">
        <ele>47.923</ele>
        <time>2021-06-11T18:20:04Z</time>
      </trkpt>
      <trkpt lat="36.853348" lon="-2.34055">
        <ele>48.213</ele>
        <time>2021-06-11T18:20:05Z</time>
      </trkpt>
      <trkpt lat="36.853499" lon="-2.34096">
        <ele>48.343</ele>
        <time>2021-06-11T18:20:07Z</time>
      </trkpt>
      <trkpt lat="36.853656" lon="-2.341381">
        <ele>48.307</ele>
        <time>2021-06-11T18:20:09Z</time>
      </trkpt>
      <trkpt lat="36.853724" lon="-2.341573">
        <ele>48.608</ele>
        <time>2021-06-11T18:20:10Z</time>
      </trkpt>
      <trkpt lat="36.853857" lon="-2.341933">
        <ele>48.618</ele>
        <time>2021-06-11T18:20:12Z</time>
      </trkpt>
      <trkpt lat="36.853941" lon="-2.342151">
        <ele>48.886</ele>
        <time>2021-06-11T18:20:13Z</time>
      </trkpt>
      <trkpt lat="36.854009" lon="-2.34233">
        <ele>48.526</ele>
        <time>2021-06-11T18:20:14Z</time>
      </trkpt>
      <trkpt lat="36.854137" lon="-2.342699">
        <ele>48.444</ele>
        <time>2021-06-11T18:20:16Z</time>
      </trkpt>
      <trkpt lat="36.854202" lon="-2.342876">
        <ele>48.769</ele>
        <time>2021-06-11T18:20:17Z</time>
      </trkpt>
      <trkpt lat="36.85433" lon="-2.343214">
        <ele>48.750</ele>
        <time>2021-06-11T18:20:19Z</time>
      </trkpt>
      <trkpt lat="36.854449" lon="-2.343523">
        <ele>48.384</ele>
        <time>2021-06-11T18:20:21Z</time>
      </trkpt>
      <trkpt lat="36.854556" lon="-2.34382">
        <ele>47.817</ele>
        <time>2021-06-11T18:20:23Z</time>
      </trkpt>
      <trkpt lat="36.854654" lon="-2.344077">
        <ele>48.093</ele>
        <time>2021-06-11T18:20:25Z</time>
      </trkpt>
      <trkpt lat="36.854751" lon="-2.344282">
        <ele>48.165</ele>
        <time>2021-06-11T18:20:27Z</time>
      </trkpt>
      <trkpt lat="36.854825" lon="-2.344402">
        <ele>48.021</ele>
        <time>2021-06-11T18:20:28Z</time>
      </trkpt>
      <trkpt lat="36.854982" lon="-2.34456">
        <ele>47.908</ele>
        <time>2021-06-11T18:20:30Z</time>
      </trkpt>
      <trkpt lat="36.855066" lon="-2.344634">
        <ele>48.166</ele>
        <time>2021-06-11T18:20:31Z</time>
      </trkpt>
      <trkpt lat="36.855174" lon="-2.344823">
        <ele>47.874</ele>
        <time>2021-06-11T18:20:33Z</time>
      </trkpt>
      <trkpt lat="36.85518" lon="-2.345055">
        <ele>47.644</ele>
        <time>2021-06-11T18:20:35Z</time>
      </trkpt>
      <trkpt lat="36.855166" lon="-2.345176">
        <ele>47.472</ele>
        <time>2021-06-11T18:20:36Z</time>
      </trkpt>
      <trkpt lat="36.85519" lon="-2.345433">
        <ele>47.477</ele>
        <time>2021-06-11T18:20:38Z</time>
      </trkpt>
      <trkpt lat="36.855234" lon="-2.345588">
        <ele>47.458</ele>
        <time>2021-06-11T18:20:39Z</time>
      </trkpt>
      <trkpt lat="36.855352" lon="-2.345896">
        <ele>47.462</ele>
        <time>2021-06-11T18:20:41Z</time>
      </trkpt>
      <trkpt lat="36.855466" lon="-2.346211">
        <ele>47.625</ele>
        <time>2021-06-11T18:20:43Z</time>
      </trkpt>
      <trkpt lat="36.855578" lon="-2.346556">
        <ele>47.656</ele>
        <time>2021-06-11T18:20:45Z</time>
      </trkpt>
      <trkpt lat="36.855703" lon="-2.346914">
        <ele>48.159</ele>
        <time>2021-06-11T18:20:47Z</time>
      </trkpt>
      <trkpt lat="36.85576" lon="-2.347105">
        <ele>48.314</ele>
        <time>2021-06-11T18:20:48Z</time>
      </trkpt>
      <trkpt lat="36.855876" lon="-2.347508">
        <ele>49.008</ele>
        <time>2021-06-11T18:20:50Z</time>
      </trkpt>
      <trkpt lat="36.855935" lon="-2.3477">
        <ele>49.482</ele>
        <time>2021-06-11T18:20:51Z</time>
      </trkpt>
      <trkpt lat="36.855993" lon="-2.347896">
        <ele>49.510</ele>
        <time>2021-06-11T18:20:52Z</time>
      </trkpt>
      <trkpt lat="36.856051" lon="-2.348099">
        <ele>49.620</ele>
        <time>2021-06-11T18:20:53Z</time>
      </trkpt>
      <trkpt lat="36.856166" lon="-2.348507">
        <ele>49.998</ele>
        <time>2021-06-11T18:20:55Z</time>
      </trkpt>
      <trkpt lat="36.85622" lon="-2.348713">
        <ele>50.193</ele>
        <time>2021-06-11T18:20:56Z</time>
      </trkpt>
      <trkpt lat="36.85632" lon="-2.349129">
        <ele>50.344</ele>
        <time>2021-06-11T18:20:58Z</time>
      </trkpt>
      <trkpt lat="36.856367" lon="-2.349335">
        <ele>50.738</ele>
        <time>2021-06-11T18:20:59Z</time>
      </trkpt>
      <trkpt lat="36.856451" lon="-2.349746">
        <ele>50.721</ele>
        <time>2021-06-11T18:21:01Z</time>
      </trkpt>
      <trkpt lat="36.856541" lon="-2.350171">
        <ele>51.158</ele>
        <time>2021-06-11T18:21:03Z</time>
      </trkpt>
      <trkpt lat="36.856617" lon="-2.350555">
        <ele>51.752</ele>
        <time>2021-06-11T18:21:05Z</time>
      </trkpt>
      <trkpt lat="36.856659" lon="-2.35079">
        <ele>51.917</ele>
        <time>2021-06-11T18:21:06Z</time>
      </trkpt>
      <trkpt lat="36.856719" lon="-2.351175">
        <ele>52.108</ele>
        <time>2021-06-11T18:21:08Z</time>
      </trkpt>
      <trkpt lat="36.856755" lon="-2.351414">
        <ele>52.622</ele>
        <time>2021-06-11T18:21:09Z</time>
      </trkpt>
      <trkpt lat="36.85681" lon="-2.35182">
        <ele>53.160</ele>
        <time>2021-06-11T18:21:11Z</time>
      </trkpt>
      <trkpt lat="36.85684" lon="-2.352029">
        <ele>53.560</ele>
        <time>2021-06-11T18:21:12Z</time>
      </trkpt>
      <trkpt lat="36.856899" lon="-2.352462">
        <ele>53.838</ele>
        <time>2021-06-11T18:21:14Z</time>
      </trkpt>
      <trkpt lat="36.856944" lon="-2.352873">
        <ele>54.323</ele>
        <time>2021-06-11T18:21:16Z</time>
      </trkpt>
      <trkpt lat="36.856965" lon="-2.353083">
        <ele>54.654</ele>
        <time>2021-06-11T18:21:17Z</time>
      </trkpt>
      <trkpt lat="36.856987" lon="-2.353298">
        <ele>54.888</ele>
        <time>2021-06-11T18:21:18Z</time>
      </trkpt>
      <trkpt lat="36.857019" lon="-2.353714">
        <ele>54.611</ele>
        <time>2021-06-11T18:21:20Z</time>
      </trkpt>
      <trkpt lat="36.857036" lon="-2.353961">
        <ele>54.661</ele>
        <time>2021-06-11T18:21:21Z</time>
      </trkpt>
      <trkpt lat="36.857064" lon="-2.354408">
        <ele>54.721</ele>
        <time>2021-06-11T18:21:23Z</time>
      </trkpt>
      <trkpt lat="36.857093" lon="-2.354874">
        <ele>55.413</ele>
        <time>2021-06-11T18:21:25Z</time>
      </trkpt>
      <trkpt lat="36.857117" lon="-2.355348">
        <ele>56.008</ele>
        <time>2021-06-11T18:21:27Z</time>
      </trkpt>
      <trkpt lat="36.857124" lon="-2.355841">
        <ele>56.593</ele>
        <time>2021-06-11T18:21:29Z</time>
      </trkpt>
      <trkpt lat="36.857123" lon="-2.356089">
        <ele>56.471</ele>
        <time>2021-06-11T18:21:30Z</time>
      </trkpt>
      <trkpt lat="36.85712" lon="-2.356601">
        <ele>56.671</ele>
        <time>2021-06-11T18:21:32Z</time>
      </trkpt>
      <trkpt lat="36.857117" lon="-2.357096">
        <ele>56.449</ele>
        <time>2021-06-11T18:21:34Z</time>
      </trkpt>
      <trkpt lat="36.857108" lon="-2.357548">
        <ele>56.474</ele>
        <time>2021-06-11T18:21:36Z</time>
      </trkpt>
      <trkpt lat="36.857093" lon="-2.357848">
        <ele>56.355</ele>
        <time>2021-06-11T18:21:37Z</time>
      </trkpt>
      <trkpt lat="36.857054" lon="-2.358318">
        <ele>55.869</ele>
        <time>2021-06-11T18:21:39Z</time>
      </trkpt>
      <trkpt lat="36.857027" lon="-2.358612">
        <ele>55.532</ele>
        <time>2021-06-11T18:21:40Z</time>
      </trkpt>
      <trkpt lat="36.856991" lon="-2.359072">
        <ele>55.527</ele>
        <time>2021-06-11T18:21:42Z</time>
      </trkpt>
      <trkpt lat="36.856969" lon="-2.359338">
        <ele>55.668</ele>
        <time>2021-06-11T18:21:43Z</time>
      </trkpt>
      <trkpt lat="36.856946" lon="-2.359583">
        <ele>55.414</ele>
        <time>2021-06-11T18:21:44Z</time>
      </trkpt>
      <trkpt lat="36.856895" lon="-2.360046">
        <ele>55.008</ele>
        <time>2021-06-11T18:21:46Z</time>
      </trkpt>
      <trkpt lat="36.856858" lon="-2.360317">
        <ele>54.869</ele>
        <time>2021-06-11T18:21:47Z</time>
      </trkpt>
      <trkpt lat="36.856793" lon="-2.360797">
        <ele>54.337</ele>
        <time>2021-06-11T18:21:49Z</time>
      </trkpt>
      <trkpt lat="36.856717" lon="-2.361278">
        <ele>54.127</ele>
        <time>2021-06-11T18:21:51Z</time>
      </trkpt>
      <trkpt lat="36.85663" lon="-2.361762">
        <ele>54.275</ele>
        <time>2021-06-11T18:21:53Z</time>
      </trkpt>
      <trkpt lat="36.856586" lon="-2.362007">
        <ele>54.430</ele>
        <time>2021-06-11T18:21:54Z</time>
      </trkpt>
      <trkpt lat="36.856493" lon="-2.36249">
        <ele>54.751</ele>
        <time>2021-06-11T18:21:56Z</time>
      </trkpt>
      <trkpt lat="36.856442" lon="-2.362732">
        <ele>55.365</ele>
        <time>2021-06-11T18:21:57Z</time>
      </trkpt>
      <trkpt lat="36.856387" lon="-2.362978">
        <ele>55.418</ele>
        <time>2021-06-11T18:21:58Z</time>
      </trkpt>
      <trkpt lat="36.856277" lon="-2.363442">
        <ele>55.939</ele>
        <time>2021-06-11T18:22:00Z</time>
      </trkpt>
      <trkpt lat="36.856211" lon="-2.363713">
        <ele>56.101</ele>
        <time>2021-06-11T18:22:01Z</time>
      </trkpt>
      <trkpt lat="36.856153" lon="-2.363951">
        <ele>56.421</ele>
        <time>2021-06-11T18:22:02Z</time>
      </trkpt>
      <trkpt lat="36.856093" lon="-2.364188">
        <ele>56.608</ele>
        <time>2021-06-11T18:22:03Z</time>
      </trkpt>
      <trkpt lat="36.855974" lon="-2.364639">
        <ele>56.720</ele>
        <time>2021-06-11T18:22:05Z</time>
      </trkpt>
      <trkpt lat="36.855907" lon="-2.364874">
        <ele>56.758</ele>
        <time>2021-06-11T18:22:06Z</time>
      </trkpt>
      <trkpt lat="36.855832" lon="-2.365127">
        <ele>56.818</ele>
        <time>2021-06-11T18:22:07Z</time>
      </trkpt>
      <trkpt lat="36.855689" lon="-2.365572">
        <ele>56.656</ele>
        <time>2021-06-11T18:22:09Z</time>
      </trkpt>
      <trkpt lat="36.855608" lon="-2.365819">
        <ele>56.461</ele>
        <time>2021-06-11T18:22:10Z</time>
      </trkpt>
      <trkpt lat="36.855456" lon="-2.366268">
        <ele>55.992</ele>
        <time>2021-06-11T18:22:12Z</time>
      </trkpt>
      <trkpt lat="36.855308" lon="-2.366688">
        <ele>55.856</ele>
        <time>2021-06-11T18:22:14Z</time>
      </trkpt>
      <trkpt lat="36.855212" lon="-2.366959">
        <ele>55.539</ele>
        <time>2021-06-11T18:22:15Z</time>
      </trkpt>
      <trkpt lat="36.855132" lon="-2.367177">
        <ele>54.953</ele>
        <time>2021-06-11T18:22:16Z</time>
      </trkpt>
      <trkpt lat="36.854962" lon="-2.367596">
        <ele>54.504</ele>
        <time>2021-06-11T18:22:18Z</time>
      </trkpt>
      <trkpt lat="36.854854" lon="-2.367855">
        <ele>54.114</ele>
        <time>2021-06-11T18:22:19Z</time>
      </trkpt>
      <trkpt lat="36.854761" lon="-2.368068">
        <ele>53.708</ele>
        <time>2021-06-11T18:22:20Z</time>
      </trkpt>
      <trkpt lat="36.854582" lon="-2.368485">
        <ele>53.272</ele>
        <time>2021-06-11T18:22:22Z</time>
      </trkpt>
      <trkpt lat="36.854476" lon="-2.368724">
        <ele>52.940</ele>
        <time>2021-06-11T18:22:23Z</time>
      </trkpt>
      <trkpt lat="36.854365" lon="-2.368971">
        <ele>52.140</ele>
        <time>2021-06-11T18:22:24Z</time>
      </trkpt>
      <trkpt lat="36.854172" lon="-2.369389">
        <ele>51.748</ele>
        <time>2021-06-11T18:22:26Z</time>
      </trkpt>
      <trkpt lat="36.854069" lon="-2.369605">
        <ele>51.213</ele>
        <time>2021-06-11T18:22:27Z</time>
      </trkpt>
      <trkpt lat="36.853874" lon="-2.370026">
        <ele>50.444</ele>
        <time>2021-06-11T18:22:29Z</time>
      </trkpt>
      <trkpt lat="36.853684" lon="-2.370457">
        <ele>49.728</ele>
        <time>2021-06-11T18:22:31Z</time>
      </trkpt>
      <trkpt lat="36.85357" lon="-2.370714">
        <ele>49.451</ele>
        <time>2021-06-11T18:22:32Z</time>
      </trkpt>
      <trkpt lat="36.853363" lon="-2.371141">
        <ele>49.092</ele>
        <time>2021-06-11T18:22:34Z</time>
      </trkpt>
      <trkpt lat="36.853164" lon="-2.371562">
        <ele>48.873</ele>
        <time>2021-06-11T18:22:36Z</time>
      </trkpt>
      <trkpt lat="36.853058" lon="-2.371788">
        <ele>48.720</ele>
        <time>2021-06-11T18:22:37Z</time>
      </trkpt>
      <trkpt lat="36.852954" lon="-2.37201">
        <ele>48.408</ele>
        <time>2021-06-11T18:22:38Z</time>
      </trkpt>
      <trkpt lat="36.852838" lon="-2.372256">
        <ele>47.926</ele>
        <time>2021-06-11T18:22:39Z</time>
      </trkpt>
      <trkpt lat="36.852662" lon="-2.37267">
        <ele>47.764</ele>
        <time>2021-06-11T18:22:41Z</time>
      </trkpt>
      <trkpt lat="36.85248" lon="-2.37309">
        <ele>47.114</ele>
        <time>2021-06-11T18:22:43Z</time>
      </trkpt>
      <trkpt lat="36.852287" lon="-2.373516">
        <ele>46.562</ele>
        <time>2021-06-11T18:22:45Z</time>
      </trkpt>
      <trkpt lat="36.852189" lon="-2.373729">
        <ele>45.957</ele>
        <time>2021-06-11T18:22:46Z</time>
      </trkpt>
      <trkpt lat="36.851997" lon="-2.374143">
        <ele>45.668</ele>
        <time>2021-06-11T18:22:48Z</time>
      </trkpt>
      <trkpt lat="36.851887" lon="-2.374384">
        <ele>45.312</ele>
        <time>2021-06-11T18:22:49Z</time>
      </trkpt>
      <trkpt lat="36.851705" lon="-2.374785">
        <ele>45.125</ele>
        <time>2021-06-11T18:22:51Z</time>
      </trkpt>
      <trkpt lat="36.851599" lon="-2.375023">
        <ele>44.675</ele>
        <time>2021-06-11T18:22:52Z</time>
      </trkpt>
      <trkpt lat="36.851496" lon="-2.37525">
        <ele>44.028</ele>
        <time>2021-06-11T18:22:53Z</time>
      </trkpt>
      <trkpt lat="36.85129" lon="-2.375696">
        <ele>43.520</ele>
        <time>2021-06-11T18:22:55Z</time>
      </trkpt>
      <trkpt lat="36.851191" lon="-2.37591">
        <ele>43.008</ele>
        <time>2021-06-11T18:22:56Z</time>
      </trkpt>
      <trkpt lat="36.851089" lon="-2.376129">
        <ele>43.044</ele>
        <time>2021-06-11T18:22:57Z</time>
      </trkpt>
      <trkpt lat="36.850988" lon="-2.376352">
        <ele>43.062</ele>
        <time>2021-06-11T18:22:58Z</time>
      </trkpt>
      <trkpt lat="36.850884" lon="-2.376578">
        <ele>43.192</ele>
        <time>2021-06-11T18:22:59Z</time>
      </trkpt>
      <trkpt lat="36.850675" lon="-2.37705">
        <ele>43.030</ele>
        <time>2021-06-11T18:23:01Z</time>
      </trkpt>
      <trkpt lat="36.8505" lon="-2.377495">
        <ele>42.595</ele>
        <time>2021-06-11T18:23:03Z</time>
      </trkpt>
      <trkpt lat="36.850326" lon="-2.37799">
        <ele>42.186</ele>
        <time>2021-06-11T18:23:05Z</time>
      </trkpt>
      <trkpt lat="36.850227" lon="-2.378263">
        <ele>41.580</ele>
        <time>2021-06-11T18:23:06Z</time>
      </trkpt>
      <trkpt lat="36.850072" lon="-2.378709">
        <ele>40.763</ele>
        <time>2021-06-11T18:23:08Z</time>
      </trkpt>
      <trkpt lat="36.84998" lon="-2.378984">
        <ele>40.252</ele>
        <time>2021-06-11T18:23:09Z</time>
      </trkpt>
      <trkpt lat="36.849908" lon="-2.37921">
        <ele>39.753</ele>
        <time>2021-06-11T18:23:10Z</time>
      </trkpt>
      <trkpt lat="36.84984" lon="-2.37944">
        <ele>39.608</ele>
        <time>2021-06-11T18:23:11Z</time>
      </trkpt>
      <trkpt lat="36.849704" lon="-2.379927">
        <ele>39.108</ele>
        <time>2021-06-11T18:23:13Z</time>
      </trkpt>
      <trkpt lat="36.849642" lon="-2.380168">
        <ele>38.762</ele>
        <time>2021-06-11T18:23:14Z</time>
      </trkpt>
      <trkpt lat="36.849525" lon="-2.380654">
        <ele>38.170</ele>
        <time>2021-06-11T18:23:16Z</time>
      </trkpt>
      <trkpt lat="36.849469" lon="-2.3809">
        <ele>37.430</ele>
        <time>2021-06-11T18:23:17Z</time>
      </trkpt>
      <trkpt lat="36.849365" lon="-2.381396">
        <ele>37.138</ele>
        <time>2021-06-11T18:23:19Z</time>
      </trkpt>
      <trkpt lat="36.849315" lon="-2.381653">
        <ele>36.953</ele>
        <time>2021-06-11T18:23:20Z</time>
      </trkpt>
      <trkpt lat="36.849263" lon="-2.381911">
        <ele>36.654</ele>
        <time>2021-06-11T18:23:21Z</time>
      </trkpt>
      <trkpt lat="36.849211" lon="-2.382168">
        <ele>36.248</ele>
        <time>2021-06-11T18:23:22Z</time>
      </trkpt>
      <trkpt lat="36.849106" lon="-2.382687">
        <ele>35.781</ele>
        <time>2021-06-11T18:23:24Z</time>
      </trkpt>
      <trkpt lat="36.849006" lon="-2.383165">
        <ele>35.557</ele>
        <time>2021-06-11T18:23:26Z</time>
      </trkpt>
      <trkpt lat="36.848938" lon="-2.383447">
        <ele>35.200</ele>
        <time>2021-06-11T18:23:27Z</time>
      </trkpt>
      <trkpt lat="36.848871" lon="-2.3837">
        <ele>35.020</ele>
        <time>2021-06-11T18:23:28Z</time>
      </trkpt>
      <trkpt lat="36.848722" lon="-2.384215">
        <ele>34.708</ele>
        <time>2021-06-11T18:23:30Z</time>
      </trkpt>
      <trkpt lat="36.848641" lon="-2.384462">
        <ele>34.612</ele>
        <time>2021-06-11T18:23:31Z</time>
      </trkpt>
      <trkpt lat="36.848469" lon="-2.384943">
        <ele>34.270</ele>
        <time>2021-06-11T18:23:33Z</time>
      </trkpt>
      <trkpt lat="36.848369" lon="-2.385217">
        <ele>33.990</ele>
        <time>2021-06-11T18:23:34Z</time>
      </trkpt>
      <trkpt lat="36.848175" lon="-2.385698">
        <ele>33.798</ele>
        <time>2021-06-11T18:23:36Z</time>
      </trkpt>
      <trkpt lat="36.847989" lon="-2.386132">
        <ele>33.593</ele>
        <time>2021-06-11T18:23:38Z</time>
      </trkpt>
      <trkpt lat="36.847763" lon="-2.386615">
        <ele>33.174</ele>
        <time>2021-06-11T18:23:40Z</time>
      </trkpt>
      <trkpt lat="36.847632" lon="-2.386883">
        <ele>33.018</ele>
        <time>2021-06-11T18:23:41Z</time>
      </trkpt>
      <trkpt lat="36.847405" lon="-2.387328">
        <ele>33.071</ele>
        <time>2021-06-11T18:23:43Z</time>
      </trkpt>
      <trkpt lat="36.847182" lon="-2.38779">
        <ele>32.921</ele>
        <time>2021-06-11T18:23:45Z</time>
      </trkpt>
      <trkpt lat="36.846963" lon="-2.388274">
        <ele>32.241</ele>
        <time>2021-06-11T18:23:47Z</time>
      </trkpt>
      <trkpt lat="36.846753" lon="-2.388735">
        <ele>32.005</ele>
        <time>2021-06-11T18:23:49Z</time>
      </trkpt>
      <trkpt lat="36.846567" lon="-2.389164">
        <ele>31.308</ele>
        <time>2021-06-11T18:23:51Z</time>
      </trkpt>
      <trkpt lat="36.846368" lon="-2.389662">
        <ele>30.379</ele>
        <time>2021-06-11T18:23:53Z</time>
      </trkpt>
      <trkpt lat="36.846195" lon="-2.390128">
        <ele>30.047</ele>
        <time>2021-06-11T18:23:55Z</time>
      </trkpt>
      <trkpt lat="36.846095" lon="-2.390394">
        <ele>29.637</ele>
        <time>2021-06-11T18:23:56Z</time>
      </trkpt>
      <trkpt lat="36.846014" lon="-2.390616">
        <ele>29.535</ele>
        <time>2021-06-11T18:23:57Z</time>
      </trkpt>
      <trkpt lat="36.845848" lon="-2.391099">
        <ele>29.720</ele>
        <time>2021-06-11T18:23:59Z</time>
      </trkpt>
      <trkpt lat="36.845779" lon="-2.391329">
        <ele>29.791</ele>
        <time>2021-06-11T18:24:00Z</time>
      </trkpt>
      <trkpt lat="36.84565" lon="-2.391794">
        <ele>28.925</ele>
        <time>2021-06-11T18:24:02Z</time>
      </trkpt>
      <trkpt lat="36.845585" lon="-2.392031">
        <ele>28.668</ele>
        <time>2021-06-11T18:24:03Z</time>
      </trkpt>
      <trkpt lat="36.845461" lon="-2.392497">
        <ele>28.629</ele>
        <time>2021-06-11T18:24:05Z</time>
      </trkpt>
      <trkpt lat="36.845402" lon="-2.392743">
        <ele>28.400</ele>
        <time>2021-06-11T18:24:06Z</time>
      </trkpt>
      <trkpt lat="36.845336" lon="-2.393023">
        <ele>28.320</ele>
        <time>2021-06-11T18:24:07Z</time>
      </trkpt>
      <trkpt lat="36.845231" lon="-2.393462">
        <ele>28.208</ele>
        <time>2021-06-11T18:24:09Z</time>
      </trkpt>
      <trkpt lat="36.845118" lon="-2.393973">
        <ele>28.129</ele>
        <time>2021-06-11T18:24:11Z</time>
      </trkpt>
      <trkpt lat="36.845058" lon="-2.394252">
        <ele>27.997</ele>
        <time>2021-06-11T18:24:12Z</time>
      </trkpt>
      <trkpt lat="36.844952" lon="-2.394742">
        <ele>28.167</ele>
        <time>2021-06-11T18:24:14Z</time>
      </trkpt>
      <trkpt lat="36.84483" lon="-2.395204">
        <ele>28.575</ele>
        <time>2021-06-11T18:24:16Z</time>
      </trkpt>
      <trkpt lat="36.844755" lon="-2.395438">
        <ele>29.070</ele>
        <time>2021-06-11T18:24:17Z</time>
      </trkpt>
      <trkpt lat="36.844677" lon="-2.395671">
        <ele>29.321</ele>
        <time>2021-06-11T18:24:18Z</time>
      </trkpt>
      <trkpt lat="36.844522" lon="-2.396131">
        <ele>29.335</ele>
        <time>2021-06-11T18:24:20Z</time>
      </trkpt>
      <trkpt lat="36.844371" lon="-2.3966">
        <ele>30.538</ele>
        <time>2021-06-11T18:24:22Z</time>
      </trkpt>
      <trkpt lat="36.844235" lon="-2.397029">
        <ele>30.765</ele>
        <time>2021-06-11T18:24:24Z</time>
      </trkpt>
      <trkpt lat="36.844095" lon="-2.397512">
        <ele>31.668</ele>
        <time>2021-06-11T18:24:26Z</time>
      </trkpt>
      <trkpt lat="36.844038" lon="-2.397738">
        <ele>32.414</ele>
        <time>2021-06-11T18:24:27Z</time>
      </trkpt>
      <trkpt lat="36.843936" lon="-2.398164">
        <ele>32.508</ele>
        <time>2021-06-11T18:24:29Z</time>
      </trkpt>
      <trkpt lat="36.843883" lon="-2.398405">
        <ele>32.873</ele>
        <time>2021-06-11T18:24:30Z</time>
      </trkpt>
      <trkpt lat="36.843835" lon="-2.398645">
        <ele>32.851</ele>
        <time>2021-06-11T18:24:31Z</time>
      </trkpt>
      <trkpt lat="36.843793" lon="-2.398877">
        <ele>32.781</ele>
        <time>2021-06-11T18:24:32Z</time>
      </trkpt>
      <trkpt lat="36.843758" lon="-2.399113">
        <ele>32.749</ele>
        <time>2021-06-11T18:24:33Z</time>
      </trkpt>
      <trkpt lat="36.843721" lon="-2.399356">
        <ele>32.784</ele>
        <time>2021-06-11T18:24:34Z</time>
      </trkpt>
      <trkpt lat="36.843646" lon="-2.399842">
        <ele>32.615</ele>
        <time>2021-06-11T18:24:36Z</time>
      </trkpt>
      <trkpt lat="36.843623" lon="-2.400071">
        <ele>32.249</ele>
        <time>2021-06-11T18:24:37Z</time>
      </trkpt>
      <trkpt lat="36.843594" lon="-2.400497">
        <ele>32.262</ele>
        <time>2021-06-11T18:24:39Z</time>
      </trkpt>
      <trkpt lat="36.843565" lon="-2.401023">
        <ele>32.214</ele>
        <time>2021-06-11T18:24:41Z</time>
      </trkpt>
      <trkpt lat="36.843555" lon="-2.401464">
        <ele>32.054</ele>
        <time>2021-06-11T18:24:43Z</time>
      </trkpt>
      <trkpt lat="36.843553" lon="-2.401981">
        <ele>31.709</ele>
        <time>2021-06-11T18:24:45Z</time>
      </trkpt>
      <trkpt lat="36.843571" lon="-2.402456">
        <ele>31.308</ele>
        <time>2021-06-11T18:24:47Z</time>
      </trkpt>
      <trkpt lat="36.8436" lon="-2.402978">
        <ele>30.528</ele>
        <time>2021-06-11T18:24:49Z</time>
      </trkpt>
      <trkpt lat="36.843641" lon="-2.403458">
        <ele>29.956</ele>
        <time>2021-06-11T18:24:51Z</time>
      </trkpt>
      <trkpt lat="36.843672" lon="-2.403707">
        <ele>29.466</ele>
        <time>2021-06-11T18:24:52Z</time>
      </trkpt>
      <trkpt lat="36.843702" lon="-2.403956">
        <ele>29.164</ele>
        <time>2021-06-11T18:24:53Z</time>
      </trkpt>
      <trkpt lat="36.843772" lon="-2.40444">
        <ele>28.519</ele>
        <time>2021-06-11T18:24:55Z</time>
      </trkpt>
      <trkpt lat="36.84382" lon="-2.404721">
        <ele>27.870</ele>
        <time>2021-06-11T18:24:56Z</time>
      </trkpt>
      <trkpt lat="36.843926" lon="-2.405209">
        <ele>27.614</ele>
        <time>2021-06-11T18:24:58Z</time>
      </trkpt>
      <trkpt lat="36.843983" lon="-2.40544">
        <ele>27.547</ele>
        <time>2021-06-11T18:24:59Z</time>
      </trkpt>
      <trkpt lat="36.844097" lon="-2.405884">
        <ele>27.727</ele>
        <time>2021-06-11T18:25:01Z</time>
      </trkpt>
      <trkpt lat="36.844239" lon="-2.406398">
        <ele>28.268</ele>
        <time>2021-06-11T18:25:03Z</time>
      </trkpt>
      <trkpt lat="36.844373" lon="-2.40683">
        <ele>28.814</ele>
        <time>2021-06-11T18:25:05Z</time>
      </trkpt>
      <trkpt lat="36.844531" lon="-2.407286">
        <ele>29.808</ele>
        <time>2021-06-11T18:25:07Z</time>
      </trkpt>
      <trkpt lat="36.844621" lon="-2.407538">
        <ele>30.849</ele>
        <time>2021-06-11T18:25:08Z</time>
      </trkpt>
      <trkpt lat="36.844767" lon="-2.407951">
        <ele>31.857</ele>
        <time>2021-06-11T18:25:10Z</time>
      </trkpt>
      <trkpt lat="36.84486" lon="-2.408208">
        <ele>32.637</ele>
        <time>2021-06-11T18:25:11Z</time>
      </trkpt>
      <trkpt lat="36.845003" lon="-2.408624">
        <ele>33.595</ele>
        <time>2021-06-11T18:25:13Z</time>
      </trkpt>
      <trkpt lat="36.84508" lon="-2.408855">
        <ele>34.390</ele>
        <time>2021-06-11T18:25:14Z</time>
      </trkpt>
      <trkpt lat="36.845231" lon="-2.409345">
        <ele>35.981</ele>
        <time>2021-06-11T18:25:16Z</time>
      </trkpt>
      <trkpt lat="36.845344" lon="-2.409771">
        <ele>37.395</ele>
        <time>2021-06-11T18:25:18Z</time>
      </trkpt>
      <trkpt lat="36.845463" lon="-2.410282">
        <ele>38.218</ele>
        <time>2021-06-11T18:25:20Z</time>
      </trkpt>
      <trkpt lat="36.845558" lon="-2.410772">
        <ele>39.159</ele>
        <time>2021-06-11T18:25:22Z</time>
      </trkpt>
      <trkpt lat="36.845625" lon="-2.411229">
        <ele>39.603</ele>
        <time>2021-06-11T18:25:24Z</time>
      </trkpt>
      <trkpt lat="36.845657" lon="-2.411494">
        <ele>40.023</ele>
        <time>2021-06-11T18:25:25Z</time>
      </trkpt>
      <trkpt lat="36.845681" lon="-2.411753">
        <ele>40.208</ele>
        <time>2021-06-11T18:25:26Z</time>
      </trkpt>
      <trkpt lat="36.845702" lon="-2.412042">
        <ele>40.692</ele>
        <time>2021-06-11T18:25:27Z</time>
      </trkpt>
      <trkpt lat="36.845718" lon="-2.412287">
        <ele>40.770</ele>
        <time>2021-06-11T18:25:28Z</time>
      </trkpt>
      <trkpt lat="36.845732" lon="-2.412792">
        <ele>41.390</ele>
        <time>2021-06-11T18:25:30Z</time>
      </trkpt>
      <trkpt lat="36.845731" lon="-2.413304">
        <ele>41.848</ele>
        <time>2021-06-11T18:25:32Z</time>
      </trkpt>
      <trkpt lat="36.845713" lon="-2.413834">
        <ele>41.863</ele>
        <time>2021-06-11T18:25:34Z</time>
      </trkpt>
      <trkpt lat="36.845677" lon="-2.414331">
        <ele>42.294</ele>
        <time>2021-06-11T18:25:36Z</time>
      </trkpt>
      <trkpt lat="36.845613" lon="-2.414837">
        <ele>42.388</ele>
        <time>2021-06-11T18:25:38Z</time>
      </trkpt>
      <trkpt lat="36.845537" lon="-2.415335">
        <ele>41.921</ele>
        <time>2021-06-11T18:25:40Z</time>
      </trkpt>
      <trkpt lat="36.845487" lon="-2.415611">
        <ele>41.628</ele>
        <time>2021-06-11T18:25:41Z</time>
      </trkpt>
      <trkpt lat="36.845391" lon="-2.416093">
        <ele>41.689</ele>
        <time>2021-06-11T18:25:43Z</time>
      </trkpt>
      <trkpt lat="36.845279" lon="-2.416551">
        <ele>41.817</ele>
        <time>2021-06-11T18:25:45Z</time>
      </trkpt>
      <trkpt lat="36.845157" lon="-2.417022">
        <ele>42.008</ele>
        <time>2021-06-11T18:25:47Z</time>
      </trkpt>
      <trkpt lat="36.845104" lon="-2.417239">
        <ele>42.249</ele>
        <time>2021-06-11T18:25:48Z</time>
      </trkpt>
      <trkpt lat="36.845049" lon="-2.417455">
        <ele>42.747</ele>
        <time>2021-06-11T18:25:49Z</time>
      </trkpt>
      <trkpt lat="36.844996" lon="-2.417664">
        <ele>43.287</ele>
        <time>2021-06-11T18:25:50Z</time>
      </trkpt>
      <trkpt lat="36.844894" lon="-2.418049">
        <ele>43.145</ele>
        <time>2021-06-11T18:25:52Z</time>
      </trkpt>
      <trkpt lat="36.844804" lon="-2.41841">
        <ele>43.420</ele>
        <time>2021-06-11T18:25:54Z</time>
      </trkpt>
      <trkpt lat="36.844763" lon="-2.41858">
        <ele>43.681</ele>
        <time>2021-06-11T18:25:55Z</time>
      </trkpt>
      <trkpt lat="36.844686" lon="-2.418915">
        <ele>44.015</ele>
        <time>2021-06-11T18:25:57Z</time>
      </trkpt>
      <trkpt lat="36.844616" lon="-2.419208">
        <ele>44.478</ele>
        <time>2021-06-11T18:25:59Z</time>
      </trkpt>
      <trkpt lat="36.844551" lon="-2.419494">
        <ele>44.665</ele>
        <time>2021-06-11T18:26:01Z</time>
      </trkpt>
      <trkpt lat="36.844522" lon="-2.419623">
        <ele>44.468</ele>
        <time>2021-06-11T18:26:02Z</time>
      </trkpt>
      <trkpt lat="36.844463" lon="-2.419864">
        <ele>44.114</ele>
        <time>2021-06-11T18:26:04Z</time>
      </trkpt>
      <trkpt lat="36.844421" lon="-2.420109">
        <ele>43.608</ele>
        <time>2021-06-11T18:26:06Z</time>
      </trkpt>
      <trkpt lat="36.844409" lon="-2.420236">
        <ele>43.343</ele>
        <time>2021-06-11T18:26:07Z</time>
      </trkpt>
      <trkpt lat="36.844409" lon="-2.420417">
        <ele>42.661</ele>
        <time>2021-06-11T18:26:09Z</time>
      </trkpt>
      <trkpt lat="36.844442" lon="-2.420603">
        <ele>41.811</ele>
        <time>2021-06-11T18:26:11Z</time>
      </trkpt>
      <trkpt lat="36.844474" lon="-2.420705">
        <ele>41.219</ele>
        <time>2021-06-11T18:26:12Z</time>
      </trkpt>
      <trkpt lat="36.844555" lon="-2.420936">
        <ele>40.894</ele>
        <time>2021-06-11T18:26:14Z</time>
      </trkpt>
      <trkpt lat="36.844583" lon="-2.421058">
        <ele>40.415</ele>
        <time>2021-06-11T18:26:15Z</time>
      </trkpt>
      <trkpt lat="36.844586" lon="-2.42119">
        <ele>40.059</ele>
        <time>2021-06-11T18:26:16Z</time>
      </trkpt>
      <trkpt lat="36.844525" lon="-2.421436">
        <ele>39.762</ele>
        <time>2021-06-11T18:26:18Z</time>
      </trkpt>
      <trkpt lat="36.844469" lon="-2.421548">
        <ele>39.613</ele>
        <time>2021-06-11T18:26:19Z</time>
      </trkpt>
      <trkpt lat="36.844396" lon="-2.421646">
        <ele>39.543</ele>
        <time>2021-06-11T18:26:20Z</time>
      </trkpt>
      <trkpt lat="36.844222" lon="-2.421821">
        <ele>39.407</ele>
        <time>2021-06-11T18:26:22Z</time>
      </trkpt>
      <trkpt lat="36.844122" lon="-2.421908">
        <ele>39.508</ele>
        <time>2021-06-11T18:26:23Z</time>
      </trkpt>
      <trkpt lat="36.844022" lon="-2.42201">
        <ele>39.788</ele>
        <time>2021-06-11T18:26:24Z</time>
      </trkpt>
      <trkpt lat="36.843842" lon="-2.422285">
        <ele>39.946</ele>
        <time>2021-06-11T18:26:26Z</time>
      </trkpt>
      <trkpt lat="36.84377" lon="-2.42246">
        <ele>40.376</ele>
        <time>2021-06-11T18:26:27Z</time>
      </trkpt>
      <trkpt lat="36.843654" lon="-2.422853">
        <ele>40.034</ele>
        <time>2021-06-11T18:26:29Z</time>
      </trkpt>
      <trkpt lat="36.843551" lon="-2.423265">
        <ele>39.869</ele>
        <time>2021-06-11T18:26:31Z</time>
      </trkpt>
      <trkpt lat="36.843436" lon="-2.423694">
        <ele>39.850</ele>
        <time>2021-06-11T18:26:33Z</time>
      </trkpt>
      <trkpt lat="36.843314" lon="-2.424125">
        <ele>40.194</ele>
        <time>2021-06-11T18:26:35Z</time>
      </trkpt>
      <trkpt lat="36.843256" lon="-2.424336">
        <ele>40.347</ele>
        <time>2021-06-11T18:26:36Z</time>
      </trkpt>
      <trkpt lat="36.84314" lon="-2.424752">
        <ele>40.595</ele>
        <time>2021-06-11T18:26:38Z</time>
      </trkpt>
      <trkpt lat="36.843079" lon="-2.424965">
        <ele>40.749</ele>
        <time>2021-06-11T18:26:39Z</time>
      </trkpt>
      <trkpt lat="36.843019" lon="-2.425177">
        <ele>41.023</ele>
        <time>2021-06-11T18:26:40Z</time>
      </trkpt>
      <trkpt lat="36.842957" lon="-2.425408">
        <ele>41.008</ele>
        <time>2021-06-11T18:26:41Z</time>
      </trkpt>
      <trkpt lat="36.842901" lon="-2.425625">
        <ele>41.186</ele>
        <time>2021-06-11T18:26:42Z</time>
      </trkpt>
      <trkpt lat="36.842804" lon="-2.426023">
        <ele>41.284</ele>
        <time>2021-06-11T18:26:44Z</time>
      </trkpt>
      <trkpt lat="36.842751" lon="-2.426229">
        <ele>41.434</ele>
        <time>2021-06-11T18:26:45Z</time>
      </trkpt>
      <trkpt lat="36.842648" lon="-2.426625">
        <ele>41.992</ele>
        <time>2021-06-11T18:26:47Z</time>
      </trkpt>
      <trkpt lat="36.842599" lon="-2.426819">
        <ele>42.367</ele>
        <time>2021-06-11T18:26:48Z</time>
      </trkpt>
      <trkpt lat="36.842496" lon="-2.427201">
        <ele>42.418</ele>
        <time>2021-06-11T18:26:50Z</time>
      </trkpt>
      <trkpt lat="36.8424" lon="-2.427565">
        <ele>42.422</ele>
        <time>2021-06-11T18:26:52Z</time>
      </trkpt>
      <trkpt lat="36.842356" lon="-2.427738">
        <ele>42.595</ele>
        <time>2021-06-11T18:26:53Z</time>
      </trkpt>
      <trkpt lat="36.84227" lon="-2.42807">
        <ele>42.654</ele>
        <time>2021-06-11T18:26:55Z</time>
      </trkpt>
      <trkpt lat="36.842214" lon="-2.428267">
        <ele>42.656</ele>
        <time>2021-06-11T18:26:56Z</time>
      </trkpt>
      <trkpt lat="36.842128" lon="-2.42858">
        <ele>42.411</ele>
        <time>2021-06-11T18:26:58Z</time>
      </trkpt>
      <trkpt lat="36.842075" lon="-2.428781">
        <ele>42.008</ele>
        <time>2021-06-11T18:26:59Z</time>
      </trkpt>
      <trkpt lat="36.841986" lon="-2.429115">
        <ele>41.662</ele>
        <time>2021-06-11T18:27:01Z</time>
      </trkpt>
      <trkpt lat="36.841943" lon="-2.429285">
        <ele>41.650</ele>
        <time>2021-06-11T18:27:02Z</time>
      </trkpt>
      <trkpt lat="36.841901" lon="-2.429452">
        <ele>41.510</ele>
        <time>2021-06-11T18:27:03Z</time>
      </trkpt>
      <trkpt lat="36.84182" lon="-2.429771">
        <ele>41.558</ele>
        <time>2021-06-11T18:27:05Z</time>
      </trkpt>
      <trkpt lat="36.841777" lon="-2.429942">
        <ele>41.783</ele>
        <time>2021-06-11T18:27:06Z</time>
      </trkpt>
      <trkpt lat="36.841696" lon="-2.430271">
        <ele>41.434</ele>
        <time>2021-06-11T18:27:08Z</time>
      </trkpt>
      <trkpt lat="36.841629" lon="-2.430539">
        <ele>41.668</ele>
        <time>2021-06-11T18:27:10Z</time>
      </trkpt>
      <trkpt lat="36.841559" lon="-2.43082">
        <ele>41.551</ele>
        <time>2021-06-11T18:27:12Z</time>
      </trkpt>
      <trkpt lat="36.841531" lon="-2.430926">
        <ele>41.462</ele>
        <time>2021-06-11T18:27:13Z</time>
      </trkpt>
      <trkpt lat="36.841503" lon="-2.431024">
        <ele>41.183</ele>
        <time>2021-06-11T18:27:14Z</time>
      </trkpt>
      <trkpt lat="36.84146" lon="-2.43118">
        <ele>41.011</ele>
        <time>2021-06-11T18:27:16Z</time>
      </trkpt>
      <trkpt lat="36.841438" lon="-2.431265">
        <ele>40.908</ele>
        <time>2021-06-11T18:27:17Z</time>
      </trkpt>
      <trkpt lat="36.84142" lon="-2.431346">
        <ele>40.923</ele>
        <time>2021-06-11T18:27:18Z</time>
      </trkpt>
      <trkpt lat="36.841405" lon="-2.431414">
        <ele>41.091</ele>
        <time>2021-06-11T18:27:19Z</time>
      </trkpt>
      <trkpt lat="36.841386" lon="-2.431541">
        <ele>41.691</ele>
        <time>2021-06-11T18:27:21Z</time>
      </trkpt>
      <trkpt lat="36.841384" lon="-2.431672">
        <ele>41.029</ele>
        <time>2021-06-11T18:27:23Z</time>
      </trkpt>
      <trkpt lat="36.841408" lon="-2.431773">
        <ele>40.984</ele>
        <time>2021-06-11T18:27:26Z</time>
      </trkpt>
      <trkpt lat="36.841427" lon="-2.431846">
        <ele>40.865</ele>
        <time>2021-06-11T18:27:29Z</time>
      </trkpt>
      <trkpt lat="36.84146" lon="-2.431921">
        <ele>40.729</ele>
        <time>2021-06-11T18:27:30Z</time>
      </trkpt>
      <trkpt lat="36.841517" lon="-2.432015">
        <ele>40.532</ele>
        <time>2021-06-11T18:27:31Z</time>
      </trkpt>
      <trkpt lat="36.841574" lon="-2.432118">
        <ele>40.465</ele>
        <time>2021-06-11T18:27:32Z</time>
      </trkpt>
      <trkpt lat="36.841619" lon="-2.432244">
        <ele>39.968</ele>
        <time>2021-06-11T18:27:33Z</time>
      </trkpt>
      <trkpt lat="36.841634" lon="-2.432484">
        <ele>39.714</ele>
        <time>2021-06-11T18:27:35Z</time>
      </trkpt>
      <trkpt lat="36.841569" lon="-2.432698">
        <ele>39.708</ele>
        <time>2021-06-11T18:27:37Z</time>
      </trkpt>
      <trkpt lat="36.841455" lon="-2.432859">
        <ele>40.133</ele>
        <time>2021-06-11T18:27:39Z</time>
      </trkpt>
      <trkpt lat="36.841345" lon="-2.433014">
        <ele>40.231</ele>
        <time>2021-06-11T18:27:41Z</time>
      </trkpt>
      <trkpt lat="36.841295" lon="-2.433118">
        <ele>40.351</ele>
        <time>2021-06-11T18:27:42Z</time>
      </trkpt>
      <trkpt lat="36.841264" lon="-2.433274">
        <ele>40.479</ele>
        <time>2021-06-11T18:27:44Z</time>
      </trkpt>
      <trkpt lat="36.841273" lon="-2.433396">
        <ele>40.144</ele>
        <time>2021-06-11T18:27:46Z</time>
      </trkpt>
      <trkpt lat="36.841288" lon="-2.433458">
        <ele>39.915</ele>
        <time>2021-06-11T18:27:47Z</time>
      </trkpt>
      <trkpt lat="36.841307" lon="-2.433559">
        <ele>39.229</ele>
        <time>2021-06-11T18:27:49Z</time>
      </trkpt>
      <trkpt lat="36.841327" lon="-2.433648">
        <ele>38.842</ele>
        <time>2021-06-11T18:27:51Z</time>
      </trkpt>
      <trkpt lat="36.841364" lon="-2.433774">
        <ele>38.423</ele>
        <time>2021-06-11T18:27:53Z</time>
      </trkpt>
      <trkpt lat="36.841419" lon="-2.433963">
        <ele>38.283</ele>
        <time>2021-06-11T18:27:55Z</time>
      </trkpt>
      <trkpt lat="36.841457" lon="-2.43409">
        <ele>37.911</ele>
        <time>2021-06-11T18:27:56Z</time>
      </trkpt>
      <trkpt lat="36.841507" lon="-2.434245">
        <ele>37.808</ele>
        <time>2021-06-11T18:27:57Z</time>
      </trkpt>
      <trkpt lat="36.841621" lon="-2.43454">
        <ele>37.659</ele>
        <time>2021-06-11T18:27:59Z</time>
      </trkpt>
      <trkpt lat="36.841694" lon="-2.434701">
        <ele>37.287</ele>
        <time>2021-06-11T18:28:00Z</time>
      </trkpt>
      <trkpt lat="36.841854" lon="-2.435047">
        <ele>37.537</ele>
        <time>2021-06-11T18:28:02Z</time>
      </trkpt>
      <trkpt lat="36.842028" lon="-2.435411">
        <ele>37.685</ele>
        <time>2021-06-11T18:28:04Z</time>
      </trkpt>
      <trkpt lat="36.842126" lon="-2.435619">
        <ele>37.970</ele>
        <time>2021-06-11T18:28:05Z</time>
      </trkpt>
      <trkpt lat="36.842231" lon="-2.435836">
        <ele>38.121</ele>
        <time>2021-06-11T18:28:06Z</time>
      </trkpt>
      <trkpt lat="36.842343" lon="-2.436067">
        <ele>38.625</ele>
        <time>2021-06-11T18:28:07Z</time>
      </trkpt>
      <trkpt lat="36.842545" lon="-2.436478">
        <ele>39.178</ele>
        <time>2021-06-11T18:28:09Z</time>
      </trkpt>
      <trkpt lat="36.842728" lon="-2.436854">
        <ele>39.846</ele>
        <time>2021-06-11T18:28:11Z</time>
      </trkpt>
      <trkpt lat="36.842829" lon="-2.43707">
        <ele>40.688</ele>
        <time>2021-06-11T18:28:12Z</time>
      </trkpt>
      <trkpt lat="36.842907" lon="-2.437237">
        <ele>41.516</ele>
        <time>2021-06-11T18:28:13Z</time>
      </trkpt>
      <trkpt lat="36.843065" lon="-2.437567">
        <ele>42.608</ele>
        <time>2021-06-11T18:28:15Z</time>
      </trkpt>
      <trkpt lat="36.843207" lon="-2.437899">
        <ele>43.811</ele>
        <time>2021-06-11T18:28:17Z</time>
      </trkpt>
      <trkpt lat="36.843266" lon="-2.438062">
        <ele>44.219</ele>
        <time>2021-06-11T18:28:18Z</time>
      </trkpt>
      <trkpt lat="36.843354" lon="-2.438377">
        <ele>44.649</ele>
        <time>2021-06-11T18:28:20Z</time>
      </trkpt>
      <trkpt lat="36.843388" lon="-2.438554">
        <ele>44.977</ele>
        <time>2021-06-11T18:28:21Z</time>
      </trkpt>
      <trkpt lat="36.843417" lon="-2.438752">
        <ele>44.622</ele>
        <time>2021-06-11T18:28:22Z</time>
      </trkpt>
      <trkpt lat="36.843446" lon="-2.439077">
        <ele>44.243</ele>
        <time>2021-06-11T18:28:24Z</time>
      </trkpt>
      <trkpt lat="36.843454" lon="-2.439394">
        <ele>44.017</ele>
        <time>2021-06-11T18:28:26Z</time>
      </trkpt>
      <trkpt lat="36.84345" lon="-2.439533">
        <ele>43.980</ele>
        <time>2021-06-11T18:28:27Z</time>
      </trkpt>
      <trkpt lat="36.843438" lon="-2.439667">
        <ele>43.581</ele>
        <time>2021-06-11T18:28:28Z</time>
      </trkpt>
      <trkpt lat="36.843425" lon="-2.439798">
        <ele>43.361</ele>
        <time>2021-06-11T18:28:29Z</time>
      </trkpt>
      <trkpt lat="36.843395" lon="-2.440042">
        <ele>43.217</ele>
        <time>2021-06-11T18:28:31Z</time>
      </trkpt>
      <trkpt lat="36.843375" lon="-2.440138">
        <ele>42.708</ele>
        <time>2021-06-11T18:28:32Z</time>
      </trkpt>
      <trkpt lat="36.843338" lon="-2.440278">
        <ele>42.365</ele>
        <time>2021-06-11T18:28:34Z</time>
      </trkpt>
      <trkpt lat="36.843319" lon="-2.440332">
        <ele>41.893</ele>
        <time>2021-06-11T18:28:36Z</time>
      </trkpt>
      <trkpt lat="36.843288" lon="-2.44038">
        <ele>41.583</ele>
        <time>2021-06-11T18:28:44Z</time>
      </trkpt>
      <trkpt lat="36.843266" lon="-2.440492">
        <ele>37.581</ele>
        <time>2021-06-11T18:28:47Z</time>
      </trkpt>
      <trkpt lat="36.843246" lon="-2.440564">
        <ele>34.326</ele>
        <time>2021-06-11T18:28:48Z</time>
      </trkpt>
      <trkpt lat="36.843222" lon="-2.440646">
        <ele>32.497</ele>
        <time>2021-06-11T18:28:49Z</time>
      </trkpt>
      <trkpt lat="36.843175" lon="-2.440789">
        <ele>31.381</ele>
        <time>2021-06-11T18:28:51Z</time>
      </trkpt>
      <trkpt lat="36.843155" lon="-2.440854">
        <ele>30.684</ele>
        <time>2021-06-11T18:28:52Z</time>
      </trkpt>
      <trkpt lat="36.843136" lon="-2.440925">
        <ele>30.225</ele>
        <time>2021-06-11T18:28:53Z</time>
      </trkpt>
      <trkpt lat="36.843131" lon="-2.441042">
        <ele>30.026</ele>
        <time>2021-06-11T18:28:55Z</time>
      </trkpt>
      <trkpt lat="36.843144" lon="-2.4412">
        <ele>29.908</ele>
        <time>2021-06-11T18:28:57Z</time>
      </trkpt>
      <trkpt lat="36.843154" lon="-2.441305">
        <ele>29.808</ele>
        <time>2021-06-11T18:28:58Z</time>
      </trkpt>
      <trkpt lat="36.843158" lon="-2.441419">
        <ele>29.819</ele>
        <time>2021-06-11T18:28:59Z</time>
      </trkpt>
      <trkpt lat="36.843144" lon="-2.441546">
        <ele>29.887</ele>
        <time>2021-06-11T18:29:00Z</time>
      </trkpt>
      <trkpt lat="36.843044" lon="-2.441735">
        <ele>29.827</ele>
        <time>2021-06-11T18:29:02Z</time>
      </trkpt>
      <trkpt lat="36.842959" lon="-2.441798">
        <ele>29.835</ele>
        <time>2021-06-11T18:29:03Z</time>
      </trkpt>
      <trkpt lat="36.842764" lon="-2.441842">
        <ele>29.820</ele>
        <time>2021-06-11T18:29:05Z</time>
      </trkpt>
      <trkpt lat="36.842638" lon="-2.441864">
        <ele>29.831</ele>
        <time>2021-06-11T18:29:06Z</time>
      </trkpt>
      <trkpt lat="36.842531" lon="-2.441905">
        <ele>29.885</ele>
        <time>2021-06-11T18:29:07Z</time>
      </trkpt>
      <trkpt lat="36.842337" lon="-2.442052">
        <ele>29.828</ele>
        <time>2021-06-11T18:29:09Z</time>
      </trkpt>
      <trkpt lat="36.842228" lon="-2.442156">
        <ele>29.849</ele>
        <time>2021-06-11T18:29:10Z</time>
      </trkpt>
      <trkpt lat="36.842106" lon="-2.442271">
        <ele>29.802</ele>
        <time>2021-06-11T18:29:11Z</time>
      </trkpt>
      <trkpt lat="36.841886" lon="-2.442451">
        <ele>29.822</ele>
        <time>2021-06-11T18:29:13Z</time>
      </trkpt>
      <trkpt lat="36.841675" lon="-2.442601">
        <ele>29.808</ele>
        <time>2021-06-11T18:29:15Z</time>
      </trkpt>
      <trkpt lat="36.841468" lon="-2.442763">
        <ele>29.821</ele>
        <time>2021-06-11T18:29:17Z</time>
      </trkpt>
      <trkpt lat="36.841372" lon="-2.442832">
        <ele>29.839</ele>
        <time>2021-06-11T18:29:18Z</time>
      </trkpt>
      <trkpt lat="36.841199" lon="-2.442975">
        <ele>29.999</ele>
        <time>2021-06-11T18:29:20Z</time>
      </trkpt>
      <trkpt lat="36.841012" lon="-2.443127">
        <ele>29.977</ele>
        <time>2021-06-11T18:29:22Z</time>
      </trkpt>
      <trkpt lat="36.840857" lon="-2.443232">
        <ele>29.942</ele>
        <time>2021-06-11T18:29:24Z</time>
      </trkpt>
      <trkpt lat="36.840679" lon="-2.44336">
        <ele>29.923</ele>
        <time>2021-06-11T18:29:26Z</time>
      </trkpt>
      <trkpt lat="36.840602" lon="-2.443415">
        <ele>29.977</ele>
        <time>2021-06-11T18:29:27Z</time>
      </trkpt>
      <trkpt lat="36.840429" lon="-2.443533">
        <ele>29.970</ele>
        <time>2021-06-11T18:29:29Z</time>
      </trkpt>
      <trkpt lat="36.840313" lon="-2.443613">
        <ele>29.983</ele>
        <time>2021-06-11T18:29:30Z</time>
      </trkpt>
      <trkpt lat="36.840214" lon="-2.443686">
        <ele>29.925</ele>
        <time>2021-06-11T18:29:31Z</time>
      </trkpt>
      <trkpt lat="36.840108" lon="-2.443756">
        <ele>29.917</ele>
        <time>2021-06-11T18:29:32Z</time>
      </trkpt>
      <trkpt lat="36.839907" lon="-2.443895">
        <ele>29.908</ele>
        <time>2021-06-11T18:29:34Z</time>
      </trkpt>
      <trkpt lat="36.839723" lon="-2.444036">
        <ele>29.925</ele>
        <time>2021-06-11T18:29:36Z</time>
      </trkpt>
      <trkpt lat="36.839533" lon="-2.44417">
        <ele>29.923</ele>
        <time>2021-06-11T18:29:38Z</time>
      </trkpt>
      <trkpt lat="36.839415" lon="-2.444257">
        <ele>29.953</ele>
        <time>2021-06-11T18:29:39Z</time>
      </trkpt>
      <trkpt lat="36.839224" lon="-2.444412">
        <ele>29.911</ele>
        <time>2021-06-11T18:29:41Z</time>
      </trkpt>
      <trkpt lat="36.839108" lon="-2.444515">
        <ele>28.176</ele>
        <time>2021-06-11T18:29:42Z</time>
      </trkpt>
      <trkpt lat="36.839011" lon="-2.444608">
        <ele>26.597</ele>
        <time>2021-06-11T18:29:43Z</time>
      </trkpt>
      <trkpt lat="36.838857" lon="-2.444844">
        <ele>25.421</ele>
        <time>2021-06-11T18:29:45Z</time>
      </trkpt>
      <trkpt lat="36.838756" lon="-2.44515">
        <ele>24.724</ele>
        <time>2021-06-11T18:29:47Z</time>
      </trkpt>
      <trkpt lat="36.838683" lon="-2.445449">
        <ele>25.189</ele>
        <time>2021-06-11T18:29:49Z</time>
      </trkpt>
      <trkpt lat="36.838642" lon="-2.445598">
        <ele>25.406</ele>
        <time>2021-06-11T18:29:50Z</time>
      </trkpt>
      <trkpt lat="36.838566" lon="-2.44588">
        <ele>26.026</ele>
        <time>2021-06-11T18:29:52Z</time>
      </trkpt>
      <trkpt lat="36.838527" lon="-2.446013">
        <ele>26.408</ele>
        <time>2021-06-11T18:29:53Z</time>
      </trkpt>
      <trkpt lat="36.838489" lon="-2.446136">
        <ele>26.525</ele>
        <time>2021-06-11T18:29:54Z</time>
      </trkpt>
      <trkpt lat="36.838415" lon="-2.446369">
        <ele>26.453</ele>
        <time>2021-06-11T18:29:56Z</time>
      </trkpt>
      <trkpt lat="36.838383" lon="-2.446478">
        <ele>26.453</ele>
        <time>2021-06-11T18:29:57Z</time>
      </trkpt>
      <trkpt lat="36.838348" lon="-2.446581">
        <ele>26.411</ele>
        <time>2021-06-11T18:29:58Z</time>
      </trkpt>
      <trkpt lat="36.838292" lon="-2.446746">
        <ele>25.716</ele>
        <time>2021-06-11T18:30:00Z</time>
      </trkpt>
      <trkpt lat="36.838255" lon="-2.446851">
        <ele>25.537</ele>
        <time>2021-06-11T18:30:01Z</time>
      </trkpt>
      <trkpt lat="36.838204" lon="-2.446986">
        <ele>24.841</ele>
        <time>2021-06-11T18:30:03Z</time>
      </trkpt>
      <trkpt lat="36.838158" lon="-2.447094">
        <ele>24.564</ele>
        <time>2021-06-11T18:30:05Z</time>
      </trkpt>
      <trkpt lat="36.838116" lon="-2.447172">
        <ele>24.279</ele>
        <time>2021-06-11T18:30:07Z</time>
      </trkpt>
      <trkpt lat="36.838095" lon="-2.447235">
        <ele>23.805</ele>
        <time>2021-06-11T18:30:09Z</time>
      </trkpt>
      <trkpt lat="36.838057" lon="-2.447377">
        <ele>22.425</ele>
        <time>2021-06-11T18:30:27Z</time>
      </trkpt>
      <trkpt lat="36.837979" lon="-2.4476">
        <ele>21.608</ele>
        <time>2021-06-11T18:30:29Z</time>
      </trkpt>
      <trkpt lat="36.837928" lon="-2.447739">
        <ele>21.134</ele>
        <time>2021-06-11T18:30:30Z</time>
      </trkpt>
      <trkpt lat="36.837836" lon="-2.447986">
        <ele>20.842</ele>
        <time>2021-06-11T18:30:32Z</time>
      </trkpt>
      <trkpt lat="36.837743" lon="-2.448253">
        <ele>20.642</ele>
        <time>2021-06-11T18:30:34Z</time>
      </trkpt>
      <trkpt lat="36.837697" lon="-2.448379">
        <ele>20.580</ele>
        <time>2021-06-11T18:30:35Z</time>
      </trkpt>
      <trkpt lat="36.837606" lon="-2.448632">
        <ele>20.515</ele>
        <time>2021-06-11T18:30:37Z</time>
      </trkpt>
      <trkpt lat="36.837553" lon="-2.448804">
        <ele>20.546</ele>
        <time>2021-06-11T18:30:38Z</time>
      </trkpt>
      <trkpt lat="36.837486" lon="-2.449081">
        <ele>20.560</ele>
        <time>2021-06-11T18:30:40Z</time>
      </trkpt>
      <trkpt lat="36.837429" lon="-2.449375">
        <ele>20.573</ele>
        <time>2021-06-11T18:30:42Z</time>
      </trkpt>
      <trkpt lat="36.837402" lon="-2.449542">
        <ele>20.527</ele>
        <time>2021-06-11T18:30:43Z</time>
      </trkpt>
      <trkpt lat="36.83739" lon="-2.449684">
        <ele>20.568</ele>
        <time>2021-06-11T18:30:44Z</time>
      </trkpt>
      <trkpt lat="36.837369" lon="-2.449936">
        <ele>20.514</ele>
        <time>2021-06-11T18:30:46Z</time>
      </trkpt>
      <trkpt lat="36.837358" lon="-2.450088">
        <ele>20.508</ele>
        <time>2021-06-11T18:30:47Z</time>
      </trkpt>
      <trkpt lat="36.837348" lon="-2.450302">
        <ele>20.599</ele>
        <time>2021-06-11T18:30:49Z</time>
      </trkpt>
      <trkpt lat="36.83734" lon="-2.450476">
        <ele>20.557</ele>
        <time>2021-06-11T18:30:51Z</time>
      </trkpt>
      <trkpt lat="36.837338" lon="-2.450585">
        <ele>20.567</ele>
        <time>2021-06-11T18:30:52Z</time>
      </trkpt>
      <trkpt lat="36.837325" lon="-2.450733">
        <ele>20.555</ele>
        <time>2021-06-11T18:30:54Z</time>
      </trkpt>
      <trkpt lat="36.837303" lon="-2.450905">
        <ele>20.530</ele>
        <time>2021-06-11T18:30:56Z</time>
      </trkpt>
      <trkpt lat="36.837294" lon="-2.451">
        <ele>20.581</ele>
        <time>2021-06-11T18:30:57Z</time>
      </trkpt>
      <trkpt lat="36.837274" lon="-2.451197">
        <ele>20.555</ele>
        <time>2021-06-11T18:30:59Z</time>
      </trkpt>
      <trkpt lat="36.837258" lon="-2.451412">
        <ele>20.568</ele>
        <time>2021-06-11T18:31:01Z</time>
      </trkpt>
      <trkpt lat="36.837246" lon="-2.45162">
        <ele>20.596</ele>
        <time>2021-06-11T18:31:03Z</time>
      </trkpt>
      <trkpt lat="36.837219" lon="-2.451813">
        <ele>20.531</ele>
        <time>2021-06-11T18:31:05Z</time>
      </trkpt>
      <trkpt lat="36.837207" lon="-2.452022">
        <ele>20.524</ele>
        <time>2021-06-11T18:31:07Z</time>
      </trkpt>
      <trkpt lat="36.837197" lon="-2.452129">
        <ele>20.508</ele>
        <time>2021-06-11T18:31:08Z</time>
      </trkpt>
      <trkpt lat="36.837176" lon="-2.452308">
        <ele>20.596</ele>
        <time>2021-06-11T18:31:10Z</time>
      </trkpt>
      <trkpt lat="36.837166" lon="-2.452501">
        <ele>20.534</ele>
        <time>2021-06-11T18:31:12Z</time>
      </trkpt>
      <trkpt lat="36.837155" lon="-2.452685">
        <ele>20.514</ele>
        <time>2021-06-11T18:31:14Z</time>
      </trkpt>
      <trkpt lat="36.837142" lon="-2.452765">
        <ele>20.572</ele>
        <time>2021-06-11T18:31:15Z</time>
      </trkpt>
      <trkpt lat="36.837051" lon="-2.452881">
        <ele>20.547</ele>
        <time>2021-06-11T18:31:17Z</time>
      </trkpt>
      <trkpt lat="36.836981" lon="-2.452928">
        <ele>20.588</ele>
        <time>2021-06-11T18:31:18Z</time>
      </trkpt>
      <trkpt lat="36.836906" lon="-2.452995">
        <ele>20.592</ele>
        <time>2021-06-11T18:31:19Z</time>
      </trkpt>
      <trkpt lat="36.836794" lon="-2.453177">
        <ele>20.585</ele>
        <time>2021-06-11T18:31:21Z</time>
      </trkpt>
      <trkpt lat="36.836706" lon="-2.453396">
        <ele>20.567</ele>
        <time>2021-06-11T18:31:23Z</time>
      </trkpt>
      <trkpt lat="36.836661" lon="-2.453537">
        <ele>20.281</ele>
        <time>2021-06-11T18:31:24Z</time>
      </trkpt>
      <trkpt lat="36.836612" lon="-2.453677">
        <ele>20.019</ele>
        <time>2021-06-11T18:31:25Z</time>
      </trkpt>
      <trkpt lat="36.836562" lon="-2.453809">
        <ele>19.808</ele>
        <time>2021-06-11T18:31:26Z</time>
      </trkpt>
      <trkpt lat="36.836468" lon="-2.454066">
        <ele>19.733</ele>
        <time>2021-06-11T18:31:28Z</time>
      </trkpt>
      <trkpt lat="36.836423" lon="-2.454181">
        <ele>19.621</ele>
        <time>2021-06-11T18:31:29Z</time>
      </trkpt>
      <trkpt lat="36.836381" lon="-2.454286">
        <ele>19.641</ele>
        <time>2021-06-11T18:31:30Z</time>
      </trkpt>
      <trkpt lat="36.836305" lon="-2.454481">
        <ele>19.829</ele>
        <time>2021-06-11T18:31:32Z</time>
      </trkpt>
      <trkpt lat="36.836274" lon="-2.454577">
        <ele>19.614</ele>
        <time>2021-06-11T18:31:33Z</time>
      </trkpt>
      <trkpt lat="36.836244" lon="-2.454673">
        <ele>19.545</ele>
        <time>2021-06-11T18:31:34Z</time>
      </trkpt>
      <trkpt lat="36.836209" lon="-2.454764">
        <ele>19.649</ele>
        <time>2021-06-11T18:31:35Z</time>
      </trkpt>
      <trkpt lat="36.836145" lon="-2.454935">
        <ele>19.652</ele>
        <time>2021-06-11T18:31:37Z</time>
      </trkpt>
      <trkpt lat="36.836119" lon="-2.455013">
        <ele>19.553</ele>
        <time>2021-06-11T18:31:38Z</time>
      </trkpt>
      <trkpt lat="36.836071" lon="-2.455147">
        <ele>19.604</ele>
        <time>2021-06-11T18:31:40Z</time>
      </trkpt>
      <trkpt lat="36.836037" lon="-2.455257">
        <ele>19.614</ele>
        <time>2021-06-11T18:31:42Z</time>
      </trkpt>
      <trkpt lat="36.83603" lon="-2.455318">
        <ele>19.908</ele>
        <time>2021-06-11T18:31:45Z</time>
      </trkpt>
      <trkpt lat="36.835986" lon="-2.455298">
        <ele>18.012</ele>
        <time>2021-06-11T18:33:05Z</time>
      </trkpt>
      <trkpt lat="36.835946" lon="-2.455324">
        <ele>16.930</ele>
        <time>2021-06-11T18:33:55Z</time>
      </trkpt>
      <trkpt lat="36.835906" lon="-2.45539">
        <ele>16.220</ele>
        <time>2021-06-11T18:33:57Z</time>
      </trkpt>
      <trkpt lat="36.835846" lon="-2.455426">
        <ele>15.878</ele>
        <time>2021-06-11T18:33:59Z</time>
      </trkpt>
      <trkpt lat="36.835803" lon="-2.455454">
        <ele>15.583</ele>
        <time>2021-06-11T18:34:00Z</time>
      </trkpt>
      <trkpt lat="36.835766" lon="-2.455502">
        <ele>15.354</ele>
        <time>2021-06-11T18:34:01Z</time>
      </trkpt>
      <trkpt lat="36.835692" lon="-2.455652">
        <ele>15.258</ele>
        <time>2021-06-11T18:34:03Z</time>
      </trkpt>
      <trkpt lat="36.835655" lon="-2.455729">
        <ele>15.151</ele>
        <time>2021-06-11T18:34:04Z</time>
      </trkpt>
      <trkpt lat="36.835623" lon="-2.455795">
        <ele>15.184</ele>
        <time>2021-06-11T18:34:05Z</time>
      </trkpt>
      <trkpt lat="36.835569" lon="-2.455902">
        <ele>15.107</ele>
        <time>2021-06-11T18:34:07Z</time>
      </trkpt>
      <trkpt lat="36.835539" lon="-2.45597">
        <ele>15.117</ele>
        <time>2021-06-11T18:34:09Z</time>
      </trkpt>
      <trkpt lat="36.835519" lon="-2.456073">
        <ele>15.108</ele>
        <time>2021-06-11T18:34:11Z</time>
      </trkpt>
      <trkpt lat="36.835513" lon="-2.456156">
        <ele>15.155</ele>
        <time>2021-06-11T18:34:12Z</time>
      </trkpt>
      <trkpt lat="36.835504" lon="-2.456248">
        <ele>15.143</ele>
        <time>2021-06-11T18:34:13Z</time>
      </trkpt>
      <trkpt lat="36.835416" lon="-2.456388">
        <ele>15.133</ele>
        <time>2021-06-11T18:34:15Z</time>
      </trkpt>
      <trkpt lat="36.835348" lon="-2.456425">
        <ele>15.131</ele>
        <time>2021-06-11T18:34:16Z</time>
      </trkpt>
      <trkpt lat="36.835195" lon="-2.456505">
        <ele>15.156</ele>
        <time>2021-06-11T18:34:18Z</time>
      </trkpt>
      <trkpt lat="36.835121" lon="-2.456575">
        <ele>15.157</ele>
        <time>2021-06-11T18:34:19Z</time>
      </trkpt>
      <trkpt lat="36.835034" lon="-2.456701">
        <ele>15.171</ele>
        <time>2021-06-11T18:34:21Z</time>
      </trkpt>
      <trkpt lat="36.835001" lon="-2.45677">
        <ele>15.184</ele>
        <time>2021-06-11T18:34:22Z</time>
      </trkpt>
      <trkpt lat="36.834939" lon="-2.456894">
        <ele>15.163</ele>
        <time>2021-06-11T18:34:24Z</time>
      </trkpt>
      <trkpt lat="36.834907" lon="-2.456952">
        <ele>15.144</ele>
        <time>2021-06-11T18:34:25Z</time>
      </trkpt>
      <trkpt lat="36.834873" lon="-2.457048">
        <ele>15.118</ele>
        <time>2021-06-11T18:34:27Z</time>
      </trkpt>
      <trkpt lat="36.834835" lon="-2.457133">
        <ele>15.108</ele>
        <time>2021-06-11T18:34:29Z</time>
      </trkpt>
      <trkpt lat="36.834811" lon="-2.457223">
        <ele>15.153</ele>
        <time>2021-06-11T18:34:31Z</time>
      </trkpt>
      <trkpt lat="36.834793" lon="-2.457321">
        <ele>15.011</ele>
        <time>2021-06-11T18:34:33Z</time>
      </trkpt>
      <trkpt lat="36.834765" lon="-2.457394">
        <ele>15.041</ele>
        <time>2021-06-11T18:34:34Z</time>
      </trkpt>
      <trkpt lat="36.834691" lon="-2.457561">
        <ele>15.079</ele>
        <time>2021-06-11T18:34:36Z</time>
      </trkpt>
      <trkpt lat="36.834645" lon="-2.457655">
        <ele>15.094</ele>
        <time>2021-06-11T18:34:37Z</time>
      </trkpt>
      <trkpt lat="36.834596" lon="-2.457755">
        <ele>15.075</ele>
        <time>2021-06-11T18:34:38Z</time>
      </trkpt>
      <trkpt lat="36.834543" lon="-2.457876">
        <ele>15.069</ele>
        <time>2021-06-11T18:34:39Z</time>
      </trkpt>
      <trkpt lat="36.834503" lon="-2.457978">
        <ele>15.032</ele>
        <time>2021-06-11T18:34:40Z</time>
      </trkpt>
      <trkpt lat="36.83446" lon="-2.458081">
        <ele>15.013</ele>
        <time>2021-06-11T18:34:41Z</time>
      </trkpt>
      <trkpt lat="36.83437" lon="-2.458289">
        <ele>15.043</ele>
        <time>2021-06-11T18:34:43Z</time>
      </trkpt>
      <trkpt lat="36.834279" lon="-2.458493">
        <ele>15.007</ele>
        <time>2021-06-11T18:34:45Z</time>
      </trkpt>
      <trkpt lat="36.834232" lon="-2.458613">
        <ele>15.008</ele>
        <time>2021-06-11T18:34:46Z</time>
      </trkpt>
      <trkpt lat="36.834176" lon="-2.458754">
        <ele>15.028</ele>
        <time>2021-06-11T18:34:47Z</time>
      </trkpt>
      <trkpt lat="36.834124" lon="-2.458865">
        <ele>15.056</ele>
        <time>2021-06-11T18:34:48Z</time>
      </trkpt>
      <trkpt lat="36.834024" lon="-2.459092">
        <ele>15.076</ele>
        <time>2021-06-11T18:34:50Z</time>
      </trkpt>
      <trkpt lat="36.833982" lon="-2.459211">
        <ele>15.064</ele>
        <time>2021-06-11T18:34:51Z</time>
      </trkpt>
      <trkpt lat="36.833902" lon="-2.459441">
        <ele>15.029</ele>
        <time>2021-06-11T18:34:53Z</time>
      </trkpt>
      <trkpt lat="36.83382" lon="-2.459629">
        <ele>15.070</ele>
        <time>2021-06-11T18:34:55Z</time>
      </trkpt>
      <trkpt lat="36.833779" lon="-2.459728">
        <ele>15.094</ele>
        <time>2021-06-11T18:34:56Z</time>
      </trkpt>
      <trkpt lat="36.833743" lon="-2.459827">
        <ele>15.097</ele>
        <time>2021-06-11T18:34:57Z</time>
      </trkpt>
      <trkpt lat="36.833711" lon="-2.459949">
        <ele>15.052</ele>
        <time>2021-06-11T18:34:59Z</time>
      </trkpt>
      <trkpt lat="36.833702" lon="-2.460006">
        <ele>15.053</ele>
        <time>2021-06-11T18:35:01Z</time>
      </trkpt>
      <trkpt lat="36.833694" lon="-2.460093">
        <ele>15.008</ele>
        <time>2021-06-11T18:35:03Z</time>
      </trkpt>
      <trkpt lat="36.833673" lon="-2.460251">
        <ele>15.008</ele>
        <time>2021-06-11T18:35:05Z</time>
      </trkpt>
      <trkpt lat="36.833644" lon="-2.460353">
        <ele>15.082</ele>
        <time>2021-06-11T18:35:06Z</time>
      </trkpt>
      <trkpt lat="36.833561" lon="-2.460574">
        <ele>15.030</ele>
        <time>2021-06-11T18:35:08Z</time>
      </trkpt>
      <trkpt lat="36.83351" lon="-2.460814">
        <ele>15.040</ele>
        <time>2021-06-11T18:35:10Z</time>
      </trkpt>
      <trkpt lat="36.833506" lon="-2.460945">
        <ele>15.098</ele>
        <time>2021-06-11T18:35:11Z</time>
      </trkpt>
      <trkpt lat="36.833508" lon="-2.461062">
        <ele>15.083</ele>
        <time>2021-06-11T18:35:12Z</time>
      </trkpt>
      <trkpt lat="36.83352" lon="-2.461198">
        <ele>15.014</ele>
        <time>2021-06-11T18:35:14Z</time>
      </trkpt>
      <trkpt lat="36.833522" lon="-2.461265">
        <ele>15.038</ele>
        <time>2021-06-11T18:35:16Z</time>
      </trkpt>
      <trkpt lat="36.833536" lon="-2.461207">
        <ele>14.761</ele>
        <time>2021-06-11T18:35:22Z</time>
      </trkpt>
      <trkpt lat="36.833514" lon="-2.461312">
        <ele>13.062</ele>
        <time>2021-06-11T18:35:42Z</time>
      </trkpt>
      <trkpt lat="36.833507" lon="-2.461458">
        <ele>12.083</ele>
        <time>2021-06-11T18:35:43Z</time>
      </trkpt>
      <trkpt lat="36.833517" lon="-2.461806">
        <ele>11.411</ele>
        <time>2021-06-11T18:35:45Z</time>
      </trkpt>
      <trkpt lat="36.833574" lon="-2.462158">
        <ele>11.008</ele>
        <time>2021-06-11T18:35:47Z</time>
      </trkpt>
      <trkpt lat="36.833683" lon="-2.462495">
        <ele>10.853</ele>
        <time>2021-06-11T18:35:49Z</time>
      </trkpt>
      <trkpt lat="36.833789" lon="-2.462746">
        <ele>10.751</ele>
        <time>2021-06-11T18:35:51Z</time>
      </trkpt>
      <trkpt lat="36.833846" lon="-2.462889">
        <ele>10.651</ele>
        <time>2021-06-11T18:35:52Z</time>
      </trkpt>
      <trkpt lat="36.833931" lon="-2.463139">
        <ele>10.629</ele>
        <time>2021-06-11T18:35:54Z</time>
      </trkpt>
      <trkpt lat="36.834021" lon="-2.46337">
        <ele>10.644</ele>
        <time>2021-06-11T18:35:56Z</time>
      </trkpt>
      <trkpt lat="36.83408" lon="-2.463573">
        <ele>10.695</ele>
        <time>2021-06-11T18:35:58Z</time>
      </trkpt>
      <trkpt lat="36.834069" lon="-2.463667">
        <ele>10.649</ele>
        <time>2021-06-11T18:35:59Z</time>
      </trkpt>
      <trkpt lat="36.833968" lon="-2.463815">
        <ele>10.622</ele>
        <time>2021-06-11T18:36:01Z</time>
      </trkpt>
      <trkpt lat="36.8339" lon="-2.463874">
        <ele>10.615</ele>
        <time>2021-06-11T18:36:02Z</time>
      </trkpt>
      <trkpt lat="36.83379" lon="-2.463999">
        <ele>10.665</ele>
        <time>2021-06-11T18:36:04Z</time>
      </trkpt>
      <trkpt lat="36.833782" lon="-2.464194">
        <ele>10.611</ele>
        <time>2021-06-11T18:36:06Z</time>
      </trkpt>
      <trkpt lat="36.833828" lon="-2.464281">
        <ele>10.608</ele>
        <time>2021-06-11T18:36:07Z</time>
      </trkpt>
      <trkpt lat="36.833887" lon="-2.464369">
        <ele>10.618</ele>
        <time>2021-06-11T18:36:08Z</time>
      </trkpt>
      <trkpt lat="36.834025" lon="-2.464553">
        <ele>10.696</ele>
        <time>2021-06-11T18:36:10Z</time>
      </trkpt>
      <trkpt lat="36.834085" lon="-2.464643">
        <ele>10.636</ele>
        <time>2021-06-11T18:36:11Z</time>
      </trkpt>
      <trkpt lat="36.834142" lon="-2.464736">
        <ele>10.624</ele>
        <time>2021-06-11T18:36:12Z</time>
      </trkpt>
      <trkpt lat="36.834247" lon="-2.464919">
        <ele>10.619</ele>
        <time>2021-06-11T18:36:14Z</time>
      </trkpt>
      <trkpt lat="36.834373" lon="-2.465129">
        <ele>10.680</ele>
        <time>2021-06-11T18:36:16Z</time>
      </trkpt>
      <trkpt lat="36.83444" lon="-2.465245">
        <ele>10.614</ele>
        <time>2021-06-11T18:36:17Z</time>
      </trkpt>
      <trkpt lat="36.834554" lon="-2.46544">
        <ele>10.667</ele>
        <time>2021-06-11T18:36:19Z</time>
      </trkpt>
      <trkpt lat="36.834662" lon="-2.465641">
        <ele>10.687</ele>
        <time>2021-06-11T18:36:21Z</time>
      </trkpt>
      <trkpt lat="36.834764" lon="-2.465851">
        <ele>10.642</ele>
        <time>2021-06-11T18:36:23Z</time>
      </trkpt>
      <trkpt lat="36.834879" lon="-2.466053">
        <ele>10.626</ele>
        <time>2021-06-11T18:36:25Z</time>
      </trkpt>
      <trkpt lat="36.834988" lon="-2.466236">
        <ele>10.608</ele>
        <time>2021-06-11T18:36:27Z</time>
      </trkpt>
      <trkpt lat="36.835052" lon="-2.466361">
        <ele>10.655</ele>
        <time>2021-06-11T18:36:28Z</time>
      </trkpt>
      <trkpt lat="36.835161" lon="-2.466565">
        <ele>10.643</ele>
        <time>2021-06-11T18:36:30Z</time>
      </trkpt>
      <trkpt lat="36.835274" lon="-2.46677">
        <ele>10.663</ele>
        <time>2021-06-11T18:36:32Z</time>
      </trkpt>
      <trkpt lat="36.83538" lon="-2.466951">
        <ele>10.691</ele>
        <time>2021-06-11T18:36:34Z</time>
      </trkpt>
      <trkpt lat="36.835438" lon="-2.467045">
        <ele>10.656</ele>
        <time>2021-06-11T18:36:35Z</time>
      </trkpt>
      <trkpt lat="36.835514" lon="-2.46716">
        <ele>10.687</ele>
        <time>2021-06-11T18:36:37Z</time>
      </trkpt>
      <trkpt lat="36.8356" lon="-2.467163">
        <ele>10.691</ele>
        <time>2021-06-11T18:36:39Z</time>
      </trkpt>
      <trkpt lat="36.835649" lon="-2.467062">
        <ele>11.974</ele>
        <time>2021-06-11T18:36:41Z</time>
      </trkpt>
      <trkpt lat="36.835663" lon="-2.467001">
        <ele>12.589</ele>
        <time>2021-06-11T18:36:42Z</time>
      </trkpt>
      <trkpt lat="36.835689" lon="-2.466916">
        <ele>13.106</ele>
        <time>2021-06-11T18:36:44Z</time>
      </trkpt>
      <trkpt lat="36.835746" lon="-2.466884">
        <ele>13.226</ele>
        <time>2021-06-11T18:36:45Z</time>
      </trkpt>
      <trkpt lat="36.835864" lon="-2.466879">
        <ele>13.408</ele>
        <time>2021-06-11T18:36:47Z</time>
      </trkpt>
      <trkpt lat="36.835943" lon="-2.466856">
        <ele>13.395</ele>
        <time>2021-06-11T18:36:49Z</time>
      </trkpt>
      <trkpt lat="36.836036" lon="-2.46683">
        <ele>13.153</ele>
        <time>2021-06-11T18:36:51Z</time>
      </trkpt>
      <trkpt lat="36.836088" lon="-2.466835">
        <ele>12.993</ele>
        <time>2021-06-11T18:36:52Z</time>
      </trkpt>
      <trkpt lat="36.836184" lon="-2.466918">
        <ele>13.271</ele>
        <time>2021-06-11T18:36:54Z</time>
      </trkpt>
      <trkpt lat="36.836231" lon="-2.467003">
        <ele>13.136</ele>
        <time>2021-06-11T18:36:55Z</time>
      </trkpt>
      <trkpt lat="36.836286" lon="-2.467222">
        <ele>13.017</ele>
        <time>2021-06-11T18:36:57Z</time>
      </trkpt>
      <trkpt lat="36.836317" lon="-2.467325">
        <ele>12.611</ele>
        <time>2021-06-11T18:36:58Z</time>
      </trkpt>
      <trkpt lat="36.836396" lon="-2.467515">
        <ele>13.144</ele>
        <time>2021-06-11T18:37:00Z</time>
      </trkpt>
      <trkpt lat="36.836434" lon="-2.467603">
        <ele>13.353</ele>
        <time>2021-06-11T18:37:01Z</time>
      </trkpt>
      <trkpt lat="36.836468" lon="-2.467692">
        <ele>13.304</ele>
        <time>2021-06-11T18:37:02Z</time>
      </trkpt>
      <trkpt lat="36.836521" lon="-2.467863">
        <ele>13.614</ele>
        <time>2021-06-11T18:37:04Z</time>
      </trkpt>
      <trkpt lat="36.83655" lon="-2.467956">
        <ele>13.808</ele>
        <time>2021-06-11T18:37:05Z</time>
      </trkpt>
      <trkpt lat="36.836581" lon="-2.468056">
        <ele>14.062</ele>
        <time>2021-06-11T18:37:06Z</time>
      </trkpt>
      <trkpt lat="36.836605" lon="-2.468137">
        <ele>14.140</ele>
        <time>2021-06-11T18:37:07Z</time>
      </trkpt>
      <trkpt lat="36.836626" lon="-2.468222">
        <ele>14.210</ele>
        <time>2021-06-11T18:37:08Z</time>
      </trkpt>
      <trkpt lat="36.836678" lon="-2.46839">
        <ele>14.648</ele>
        <time>2021-06-11T18:37:10Z</time>
      </trkpt>
      <trkpt lat="36.836727" lon="-2.468536">
        <ele>14.733</ele>
        <time>2021-06-11T18:37:12Z</time>
      </trkpt>
      <trkpt lat="36.836747" lon="-2.468625">
        <ele>14.734</ele>
        <time>2021-06-11T18:37:13Z</time>
      </trkpt>
      <trkpt lat="36.83678" lon="-2.468772">
        <ele>14.378</ele>
        <time>2021-06-11T18:37:15Z</time>
      </trkpt>
      <trkpt lat="36.836803" lon="-2.468853">
        <ele>14.531</ele>
        <time>2021-06-11T18:37:16Z</time>
      </trkpt>
      <trkpt lat="36.836849" lon="-2.469009">
        <ele>15.263</ele>
        <time>2021-06-11T18:37:18Z</time>
      </trkpt>
      <trkpt lat="36.83688" lon="-2.469123">
        <ele>15.444</ele>
        <time>2021-06-11T18:37:20Z</time>
      </trkpt>
      <trkpt lat="36.836949" lon="-2.469192">
        <ele>15.718</ele>
        <time>2021-06-11T18:37:22Z</time>
      </trkpt>
      <trkpt lat="36.837047" lon="-2.469166">
        <ele>15.908</ele>
        <time>2021-06-11T18:37:24Z</time>
      </trkpt>
      <trkpt lat="36.837154" lon="-2.469147">
        <ele>16.643</ele>
        <time>2021-06-11T18:37:26Z</time>
      </trkpt>
      <trkpt lat="36.837238" lon="-2.469147">
        <ele>17.041</ele>
        <time>2021-06-11T18:37:28Z</time>
      </trkpt>
      <trkpt lat="36.837318" lon="-2.469136">
        <ele>17.461</ele>
        <time>2021-06-11T18:37:30Z</time>
      </trkpt>
      <trkpt lat="36.837376" lon="-2.469132">
        <ele>17.329</ele>
        <time>2021-06-11T18:37:32Z</time>
      </trkpt>
      <trkpt lat="36.837419" lon="-2.469105">
        <ele>16.824</ele>
        <time>2021-06-11T18:37:34Z</time>
      </trkpt>
      <trkpt lat="36.837469" lon="-2.469094">
        <ele>16.975</ele>
        <time>2021-06-11T18:37:36Z</time>
      </trkpt>
      <trkpt lat="36.837514" lon="-2.469082">
        <ele>16.929</ele>
        <time>2021-06-11T18:37:37Z</time>
      </trkpt>
      <trkpt lat="36.837585" lon="-2.469062">
        <ele>17.262</ele>
        <time>2021-06-11T18:37:39Z</time>
      </trkpt>
      <trkpt lat="36.837638" lon="-2.46901">
        <ele>17.434</ele>
        <time>2021-06-11T18:37:40Z</time>
      </trkpt>
      <trkpt lat="36.837734" lon="-2.468888">
        <ele>17.855</ele>
        <time>2021-06-11T18:37:42Z</time>
      </trkpt>
      <trkpt lat="36.837841" lon="-2.468817">
        <ele>18.510</ele>
        <time>2021-06-11T18:37:44Z</time>
      </trkpt>
      <trkpt lat="36.837933" lon="-2.468807">
        <ele>19.208</ele>
        <time>2021-06-11T18:37:46Z</time>
      </trkpt>
      <trkpt lat="36.837992" lon="-2.468836">
        <ele>18.580</ele>
        <time>2021-06-11T18:37:47Z</time>
      </trkpt>
      <trkpt lat="36.838053" lon="-2.468872">
        <ele>17.738</ele>
        <time>2021-06-11T18:37:48Z</time>
      </trkpt>
      <trkpt lat="36.838145" lon="-2.468917">
        <ele>18.448</ele>
        <time>2021-06-11T18:37:50Z</time>
      </trkpt>
      <trkpt lat="36.838233" lon="-2.468913">
        <ele>19.196</ele>
        <time>2021-06-11T18:37:52Z</time>
      </trkpt>
      <trkpt lat="36.83833" lon="-2.468895">
        <ele>19.451</ele>
        <time>2021-06-11T18:37:54Z</time>
      </trkpt>
      <trkpt lat="36.838406" lon="-2.468885">
        <ele>20.192</ele>
        <time>2021-06-11T18:37:56Z</time>
      </trkpt>
      <trkpt lat="36.838485" lon="-2.468883">
        <ele>20.866</ele>
        <time>2021-06-11T18:37:58Z</time>
      </trkpt>
      <trkpt lat="36.838561" lon="-2.46885">
        <ele>21.389</ele>
        <time>2021-06-11T18:38:00Z</time>
      </trkpt>
      <trkpt lat="36.838645" lon="-2.468825">
        <ele>21.731</ele>
        <time>2021-06-11T18:38:02Z</time>
      </trkpt>
      <trkpt lat="36.838703" lon="-2.468822">
        <ele>21.861</ele>
        <time>2021-06-11T18:38:03Z</time>
      </trkpt>
      <trkpt lat="36.838816" lon="-2.468811">
        <ele>22.007</ele>
        <time>2021-06-11T18:38:05Z</time>
      </trkpt>
      <trkpt lat="36.838886" lon="-2.468805">
        <ele>22.808</ele>
        <time>2021-06-11T18:38:06Z</time>
      </trkpt>
      <trkpt lat="36.839004" lon="-2.46884">
        <ele>22.760</ele>
        <time>2021-06-11T18:38:08Z</time>
      </trkpt>
      <trkpt lat="36.839064" lon="-2.468856">
        <ele>22.758</ele>
        <time>2021-06-11T18:38:09Z</time>
      </trkpt>
      <trkpt lat="36.839147" lon="-2.468838">
        <ele>23.978</ele>
        <time>2021-06-11T18:38:11Z</time>
      </trkpt>
      <trkpt lat="36.839227" lon="-2.468828">
        <ele>24.426</ele>
        <time>2021-06-11T18:38:13Z</time>
      </trkpt>
      <trkpt lat="36.83932" lon="-2.468831">
        <ele>24.631</ele>
        <time>2021-06-11T18:38:15Z</time>
      </trkpt>
      <trkpt lat="36.839418" lon="-2.468825">
        <ele>25.212</ele>
        <time>2021-06-11T18:38:17Z</time>
      </trkpt>
      <trkpt lat="36.839508" lon="-2.468829">
        <ele>25.766</ele>
        <time>2021-06-11T18:38:18Z</time>
      </trkpt>
      <trkpt lat="36.83967" lon="-2.468858">
        <ele>26.289</ele>
        <time>2021-06-11T18:38:20Z</time>
      </trkpt>
      <trkpt lat="36.839785" lon="-2.468848">
        <ele>26.123</ele>
        <time>2021-06-11T18:38:22Z</time>
      </trkpt>
      <trkpt lat="36.83988" lon="-2.468864">
        <ele>25.883</ele>
        <time>2021-06-11T18:38:24Z</time>
      </trkpt>
      <trkpt lat="36.839951" lon="-2.468885">
        <ele>25.311</ele>
        <time>2021-06-11T18:38:26Z</time>
      </trkpt>
      <trkpt lat="36.839986" lon="-2.468834">
        <ele>24.808</ele>
        <time>2021-06-11T18:38:29Z</time>
      </trkpt>
      <trkpt lat="36.839991" lon="-2.468778">
        <ele>25.579</ele>
        <time>2021-06-11T18:39:52Z</time>
      </trkpt>
      <trkpt lat="36.80427" lon="-2.581248">
        <ele>26.893</ele>
        <time>2021-06-16T09:07:19Z</time>
      </trkpt>
      <trkpt lat="36.804227" lon="-2.581222">
        <ele>25.165</ele>
        <time>2021-06-16T09:08:44Z</time>
      </trkpt>
      <trkpt lat="36.804266" lon="-2.58126">
        <ele>25.221</ele>
        <time>2021-06-16T09:09:28Z</time>
      </trkpt>
      <trkpt lat="36.804236" lon="-2.581217">
        <ele>25.308</ele>
        <time>2021-06-16T09:10:11Z</time>
      </trkpt>
      <trkpt lat="36.804259" lon="-2.581168">
        <ele>25.456</ele>
        <time>2021-06-16T09:10:37Z</time>
      </trkpt>
      <trkpt lat="36.804295" lon="-2.581237">
        <ele>25.324</ele>
        <time>2021-06-16T09:11:20Z</time>
      </trkpt>
      <trkpt lat="36.804275" lon="-2.581308">
        <ele>25.388</ele>
        <time>2021-06-16T09:11:21Z</time>
      </trkpt>
      <trkpt lat="36.804175" lon="-2.581453">
        <ele>25.377</ele>
        <time>2021-06-16T09:11:23Z</time>
      </trkpt>
      <trkpt lat="36.804084" lon="-2.581609">
        <ele>25.380</ele>
        <time>2021-06-16T09:11:25Z</time>
      </trkpt>
      <trkpt lat="36.804043" lon="-2.58169">
        <ele>25.367</ele>
        <time>2021-06-16T09:11:26Z</time>
      </trkpt>
      <trkpt lat="36.804003" lon="-2.581773">
        <ele>25.324</ele>
        <time>2021-06-16T09:11:27Z</time>
      </trkpt>
      <trkpt lat="36.803924" lon="-2.581916">
        <ele>25.364</ele>
        <time>2021-06-16T09:11:29Z</time>
      </trkpt>
      <trkpt lat="36.803892" lon="-2.581975">
        <ele>25.362</ele>
        <time>2021-06-16T09:11:30Z</time>
      </trkpt>
      <trkpt lat="36.803839" lon="-2.582063">
        <ele>25.383</ele>
        <time>2021-06-16T09:11:32Z</time>
      </trkpt>
      <trkpt lat="36.803791" lon="-2.582147">
        <ele>25.311</ele>
        <time>2021-06-16T09:11:34Z</time>
      </trkpt>
      <trkpt lat="36.803716" lon="-2.582267">
        <ele>25.308</ele>
        <time>2021-06-16T09:11:36Z</time>
      </trkpt>
      <trkpt lat="36.803674" lon="-2.58234">
        <ele>25.323</ele>
        <time>2021-06-16T09:11:37Z</time>
      </trkpt>
      <trkpt lat="36.803563" lon="-2.582493">
        <ele>25.311</ele>
        <time>2021-06-16T09:11:39Z</time>
      </trkpt>
      <trkpt lat="36.803416" lon="-2.582642">
        <ele>25.365</ele>
        <time>2021-06-16T09:11:41Z</time>
      </trkpt>
      <trkpt lat="36.803356" lon="-2.582712">
        <ele>25.354</ele>
        <time>2021-06-16T09:11:42Z</time>
      </trkpt>
      <trkpt lat="36.803256" lon="-2.582787">
        <ele>25.397</ele>
        <time>2021-06-16T09:11:44Z</time>
      </trkpt>
      <trkpt lat="36.803197" lon="-2.582825">
        <ele>25.384</ele>
        <time>2021-06-16T09:11:46Z</time>
      </trkpt>
      <trkpt lat="36.803116" lon="-2.58289">
        <ele>25.311</ele>
        <time>2021-06-16T09:11:48Z</time>
      </trkpt>
      <trkpt lat="36.803063" lon="-2.582935">
        <ele>25.391</ele>
        <time>2021-06-16T09:11:49Z</time>
      </trkpt>
      <trkpt lat="36.802966" lon="-2.583041">
        <ele>25.349</ele>
        <time>2021-06-16T09:11:51Z</time>
      </trkpt>
      <trkpt lat="36.802905" lon="-2.5831">
        <ele>25.302</ele>
        <time>2021-06-16T09:11:52Z</time>
      </trkpt>
      <trkpt lat="36.802777" lon="-2.583255">
        <ele>25.322</ele>
        <time>2021-06-16T09:11:54Z</time>
      </trkpt>
      <trkpt lat="36.802712" lon="-2.58334">
        <ele>25.308</ele>
        <time>2021-06-16T09:11:55Z</time>
      </trkpt>
      <trkpt lat="36.802654" lon="-2.583435">
        <ele>25.331</ele>
        <time>2021-06-16T09:11:56Z</time>
      </trkpt>
      <trkpt lat="36.802563" lon="-2.583632">
        <ele>25.379</ele>
        <time>2021-06-16T09:11:58Z</time>
      </trkpt>
      <trkpt lat="36.802487" lon="-2.583783">
        <ele>25.333</ele>
        <time>2021-06-16T09:12:00Z</time>
      </trkpt>
      <trkpt lat="36.80243" lon="-2.583915">
        <ele>25.362</ele>
        <time>2021-06-16T09:12:02Z</time>
      </trkpt>
      <trkpt lat="36.802425" lon="-2.583992">
        <ele>25.395</ele>
        <time>2021-06-16T09:12:03Z</time>
      </trkpt>
      <trkpt lat="36.802432" lon="-2.584073">
        <ele>25.342</ele>
        <time>2021-06-16T09:12:04Z</time>
      </trkpt>
      <trkpt lat="36.802491" lon="-2.584242">
        <ele>25.369</ele>
        <time>2021-06-16T09:12:06Z</time>
      </trkpt>
      <trkpt lat="36.802563" lon="-2.58442">
        <ele>25.349</ele>
        <time>2021-06-16T09:12:08Z</time>
      </trkpt>
      <trkpt lat="36.802601" lon="-2.5845">
        <ele>25.397</ele>
        <time>2021-06-16T09:12:09Z</time>
      </trkpt>
      <trkpt lat="36.802806" lon="-2.584596">
        <ele>25.323</ele>
        <time>2021-06-16T09:12:11Z</time>
      </trkpt>
      <trkpt lat="36.803058" lon="-2.584641">
        <ele>25.325</ele>
        <time>2021-06-16T09:12:13Z</time>
      </trkpt>
      <trkpt lat="36.803262" lon="-2.58474">
        <ele>25.308</ele>
        <time>2021-06-16T09:12:15Z</time>
      </trkpt>
      <trkpt lat="36.80346" lon="-2.58483">
        <ele>26.036</ele>
        <time>2021-06-16T09:12:17Z</time>
      </trkpt>
      <trkpt lat="36.803662" lon="-2.584901">
        <ele>27.124</ele>
        <time>2021-06-16T09:12:19Z</time>
      </trkpt>
      <trkpt lat="36.803858" lon="-2.584988">
        <ele>29.528</ele>
        <time>2021-06-16T09:12:21Z</time>
      </trkpt>
      <trkpt lat="36.803946" lon="-2.585042">
        <ele>31.357</ele>
        <time>2021-06-16T09:12:22Z</time>
      </trkpt>
      <trkpt lat="36.804123" lon="-2.585148">
        <ele>32.350</ele>
        <time>2021-06-16T09:12:24Z</time>
      </trkpt>
      <trkpt lat="36.80419" lon="-2.585216">
        <ele>33.687</ele>
        <time>2021-06-16T09:12:25Z</time>
      </trkpt>
      <trkpt lat="36.804343" lon="-2.585331">
        <ele>35.684</ele>
        <time>2021-06-16T09:12:27Z</time>
      </trkpt>
      <trkpt lat="36.804423" lon="-2.585373">
        <ele>37.094</ele>
        <time>2021-06-16T09:12:28Z</time>
      </trkpt>
      <trkpt lat="36.804505" lon="-2.585407">
        <ele>38.274</ele>
        <time>2021-06-16T09:12:29Z</time>
      </trkpt>
      <trkpt lat="36.804581" lon="-2.585437">
        <ele>38.956</ele>
        <time>2021-06-16T09:12:30Z</time>
      </trkpt>
      <trkpt lat="36.804655" lon="-2.585467">
        <ele>39.721</ele>
        <time>2021-06-16T09:12:31Z</time>
      </trkpt>
      <trkpt lat="36.804716" lon="-2.585501">
        <ele>40.008</ele>
        <time>2021-06-16T09:12:32Z</time>
      </trkpt>
      <trkpt lat="36.804835" lon="-2.58556">
        <ele>40.414</ele>
        <time>2021-06-16T09:12:34Z</time>
      </trkpt>
      <trkpt lat="36.804893" lon="-2.585591">
        <ele>40.962</ele>
        <time>2021-06-16T09:12:35Z</time>
      </trkpt>
      <trkpt lat="36.805008" lon="-2.585647">
        <ele>41.416</ele>
        <time>2021-06-16T09:12:37Z</time>
      </trkpt>
      <trkpt lat="36.805064" lon="-2.58568">
        <ele>42.055</ele>
        <time>2021-06-16T09:12:38Z</time>
      </trkpt>
      <trkpt lat="36.805121" lon="-2.585719">
        <ele>42.748</ele>
        <time>2021-06-16T09:12:39Z</time>
      </trkpt>
      <trkpt lat="36.805178" lon="-2.585759">
        <ele>43.555</ele>
        <time>2021-06-16T09:12:40Z</time>
      </trkpt>
      <trkpt lat="36.805305" lon="-2.58584">
        <ele>44.722</ele>
        <time>2021-06-16T09:12:42Z</time>
      </trkpt>
      <trkpt lat="36.805376" lon="-2.585879">
        <ele>45.212</ele>
        <time>2021-06-16T09:12:43Z</time>
      </trkpt>
      <trkpt lat="36.805449" lon="-2.585921">
        <ele>45.434</ele>
        <time>2021-06-16T09:12:44Z</time>
      </trkpt>
      <trkpt lat="36.805527" lon="-2.585961">
        <ele>45.755</ele>
        <time>2021-06-16T09:12:45Z</time>
      </trkpt>
      <trkpt lat="36.805607" lon="-2.585996">
        <ele>46.010</ele>
        <time>2021-06-16T09:12:46Z</time>
      </trkpt>
      <trkpt lat="36.80568" lon="-2.586032">
        <ele>45.808</ele>
        <time>2021-06-16T09:12:47Z</time>
      </trkpt>
      <trkpt lat="36.805825" lon="-2.586102">
        <ele>45.450</ele>
        <time>2021-06-16T09:12:49Z</time>
      </trkpt>
      <trkpt lat="36.805898" lon="-2.586137">
        <ele>45.248</ele>
        <time>2021-06-16T09:12:50Z</time>
      </trkpt>
      <trkpt lat="36.806044" lon="-2.586212">
        <ele>45.412</ele>
        <time>2021-06-16T09:12:52Z</time>
      </trkpt>
      <trkpt lat="36.8062" lon="-2.586278">
        <ele>45.931</ele>
        <time>2021-06-16T09:12:54Z</time>
      </trkpt>
      <trkpt lat="36.806327" lon="-2.586339">
        <ele>46.294</ele>
        <time>2021-06-16T09:12:56Z</time>
      </trkpt>
      <trkpt lat="36.806372" lon="-2.586367">
        <ele>45.911</ele>
        <time>2021-06-16T09:12:57Z</time>
      </trkpt>
      <trkpt lat="36.806465" lon="-2.586418">
        <ele>46.548</ele>
        <time>2021-06-16T09:12:59Z</time>
      </trkpt>
      <trkpt lat="36.806512" lon="-2.586439">
        <ele>46.518</ele>
        <time>2021-06-16T09:13:00Z</time>
      </trkpt>
      <trkpt lat="36.806625" lon="-2.586498">
        <ele>45.723</ele>
        <time>2021-06-16T09:13:02Z</time>
      </trkpt>
      <trkpt lat="36.806757" lon="-2.586558">
        <ele>45.183</ele>
        <time>2021-06-16T09:13:04Z</time>
      </trkpt>
      <trkpt lat="36.806829" lon="-2.586591">
        <ele>44.911</ele>
        <time>2021-06-16T09:13:05Z</time>
      </trkpt>
      <trkpt lat="36.806972" lon="-2.586669">
        <ele>45.508</ele>
        <time>2021-06-16T09:13:07Z</time>
      </trkpt>
      <trkpt lat="36.807042" lon="-2.586712">
        <ele>46.189</ele>
        <time>2021-06-16T09:13:08Z</time>
      </trkpt>
      <trkpt lat="36.807113" lon="-2.586751">
        <ele>46.467</ele>
        <time>2021-06-16T09:13:09Z</time>
      </trkpt>
      <trkpt lat="36.807253" lon="-2.586828">
        <ele>47.041</ele>
        <time>2021-06-16T09:13:11Z</time>
      </trkpt>
      <trkpt lat="36.807385" lon="-2.586915">
        <ele>47.860</ele>
        <time>2021-06-16T09:13:13Z</time>
      </trkpt>
      <trkpt lat="36.80745" lon="-2.586954">
        <ele>48.793</ele>
        <time>2021-06-16T09:13:14Z</time>
      </trkpt>
      <trkpt lat="36.807567" lon="-2.587007">
        <ele>49.430</ele>
        <time>2021-06-16T09:13:16Z</time>
      </trkpt>
      <trkpt lat="36.80765" lon="-2.587033">
        <ele>49.987</ele>
        <time>2021-06-16T09:13:18Z</time>
      </trkpt>
      <trkpt lat="36.80771" lon="-2.587079">
        <ele>49.177</ele>
        <time>2021-06-16T09:13:24Z</time>
      </trkpt>
      <trkpt lat="36.807778" lon="-2.587115">
        <ele>48.788</ele>
        <time>2021-06-16T09:13:26Z</time>
      </trkpt>
      <trkpt lat="36.807863" lon="-2.58716">
        <ele>48.424</ele>
        <time>2021-06-16T09:13:28Z</time>
      </trkpt>
      <trkpt lat="36.807957" lon="-2.587216">
        <ele>48.226</ele>
        <time>2021-06-16T09:13:30Z</time>
      </trkpt>
      <trkpt lat="36.808006" lon="-2.587249">
        <ele>48.108</ele>
        <time>2021-06-16T09:13:31Z</time>
      </trkpt>
      <trkpt lat="36.808112" lon="-2.5873">
        <ele>48.165</ele>
        <time>2021-06-16T09:13:33Z</time>
      </trkpt>
      <trkpt lat="36.808168" lon="-2.587325">
        <ele>48.193</ele>
        <time>2021-06-16T09:13:34Z</time>
      </trkpt>
      <trkpt lat="36.808259" lon="-2.587378">
        <ele>48.197</ele>
        <time>2021-06-16T09:13:36Z</time>
      </trkpt>
      <trkpt lat="36.808303" lon="-2.587404">
        <ele>48.126</ele>
        <time>2021-06-16T09:13:38Z</time>
      </trkpt>
      <trkpt lat="36.808332" lon="-2.587448">
        <ele>48.839</ele>
        <time>2021-06-16T09:14:14Z</time>
      </trkpt>
      <trkpt lat="36.808393" lon="-2.587506">
        <ele>49.266</ele>
        <time>2021-06-16T09:14:16Z</time>
      </trkpt>
      <trkpt lat="36.808484" lon="-2.587567">
        <ele>49.573</ele>
        <time>2021-06-16T09:14:18Z</time>
      </trkpt>
      <trkpt lat="36.808544" lon="-2.587628">
        <ele>49.793</ele>
        <time>2021-06-16T09:14:19Z</time>
      </trkpt>
      <trkpt lat="36.8086" lon="-2.587684">
        <ele>49.853</ele>
        <time>2021-06-16T09:14:20Z</time>
      </trkpt>
      <trkpt lat="36.808699" lon="-2.587769">
        <ele>49.904</ele>
        <time>2021-06-16T09:14:22Z</time>
      </trkpt>
      <trkpt lat="36.808805" lon="-2.587841">
        <ele>49.914</ele>
        <time>2021-06-16T09:14:24Z</time>
      </trkpt>
      <trkpt lat="36.808857" lon="-2.587875">
        <ele>49.908</ele>
        <time>2021-06-16T09:14:25Z</time>
      </trkpt>
      <trkpt lat="36.808948" lon="-2.587938">
        <ele>49.972</ele>
        <time>2021-06-16T09:14:27Z</time>
      </trkpt>
      <trkpt lat="36.809035" lon="-2.587999">
        <ele>49.930</ele>
        <time>2021-06-16T09:14:29Z</time>
      </trkpt>
      <trkpt lat="36.80908" lon="-2.588027">
        <ele>49.924</ele>
        <time>2021-06-16T09:14:30Z</time>
      </trkpt>
      <trkpt lat="36.809149" lon="-2.588076">
        <ele>49.953</ele>
        <time>2021-06-16T09:14:32Z</time>
      </trkpt>
      <trkpt lat="36.809224" lon="-2.588126">
        <ele>49.976</ele>
        <time>2021-06-16T09:14:34Z</time>
      </trkpt>
      <trkpt lat="36.809268" lon="-2.588169">
        <ele>49.953</ele>
        <time>2021-06-16T09:14:35Z</time>
      </trkpt>
      <trkpt lat="36.80939" lon="-2.588258">
        <ele>49.970</ele>
        <time>2021-06-16T09:14:37Z</time>
      </trkpt>
      <trkpt lat="36.809472" lon="-2.588303">
        <ele>49.970</ele>
        <time>2021-06-16T09:14:38Z</time>
      </trkpt>
      <trkpt lat="36.809641" lon="-2.588407">
        <ele>49.925</ele>
        <time>2021-06-16T09:14:40Z</time>
      </trkpt>
      <trkpt lat="36.809785" lon="-2.588489">
        <ele>49.926</ele>
        <time>2021-06-16T09:14:42Z</time>
      </trkpt>
      <trkpt lat="36.809833" lon="-2.588495">
        <ele>49.908</ele>
        <time>2021-06-16T09:14:44Z</time>
      </trkpt>
      <trkpt lat="36.809922" lon="-2.588558">
        <ele>50.508</ele>
        <time>2021-06-16T09:14:51Z</time>
      </trkpt>
      <trkpt lat="36.809982" lon="-2.588599">
        <ele>50.859</ele>
        <time>2021-06-16T09:14:52Z</time>
      </trkpt>
      <trkpt lat="36.81005" lon="-2.588633">
        <ele>51.097</ele>
        <time>2021-06-16T09:14:53Z</time>
      </trkpt>
      <trkpt lat="36.810152" lon="-2.58868">
        <ele>51.121</ele>
        <time>2021-06-16T09:14:55Z</time>
      </trkpt>
      <trkpt lat="36.810208" lon="-2.588708">
        <ele>51.250</ele>
        <time>2021-06-16T09:14:57Z</time>
      </trkpt>
      <trkpt lat="36.810283" lon="-2.58869">
        <ele>51.293</ele>
        <time>2021-06-16T09:14:59Z</time>
      </trkpt>
      <trkpt lat="36.810374" lon="-2.588641">
        <ele>51.270</ele>
        <time>2021-06-16T09:15:01Z</time>
      </trkpt>
      <trkpt lat="36.810453" lon="-2.588663">
        <ele>51.267</ele>
        <time>2021-06-16T09:15:03Z</time>
      </trkpt>
      <trkpt lat="36.810484" lon="-2.588716">
        <ele>51.287</ele>
        <time>2021-06-16T09:15:04Z</time>
      </trkpt>
      <trkpt lat="36.810493" lon="-2.588788">
        <ele>51.222</ele>
        <time>2021-06-16T09:15:05Z</time>
      </trkpt>
      <trkpt lat="36.810481" lon="-2.588866">
        <ele>51.262</ele>
        <time>2021-06-16T09:15:06Z</time>
      </trkpt>
      <trkpt lat="36.810459" lon="-2.588948">
        <ele>51.208</ele>
        <time>2021-06-16T09:15:07Z</time>
      </trkpt>
      <trkpt lat="36.810405" lon="-2.589133">
        <ele>51.208</ele>
        <time>2021-06-16T09:15:09Z</time>
      </trkpt>
      <trkpt lat="36.810375" lon="-2.589242">
        <ele>51.249</ele>
        <time>2021-06-16T09:15:10Z</time>
      </trkpt>
      <trkpt lat="36.810315" lon="-2.58948">
        <ele>51.257</ele>
        <time>2021-06-16T09:15:12Z</time>
      </trkpt>
      <trkpt lat="36.810289" lon="-2.589608">
        <ele>51.211</ele>
        <time>2021-06-16T09:15:13Z</time>
      </trkpt>
      <trkpt lat="36.810268" lon="-2.589737">
        <ele>51.270</ele>
        <time>2021-06-16T09:15:14Z</time>
      </trkpt>
      <trkpt lat="36.810229" lon="-2.58997">
        <ele>51.273</ele>
        <time>2021-06-16T09:15:16Z</time>
      </trkpt>
      <trkpt lat="36.810214" lon="-2.590085">
        <ele>51.250</ele>
        <time>2021-06-16T09:15:17Z</time>
      </trkpt>
      <trkpt lat="36.810195" lon="-2.590192">
        <ele>51.227</ele>
        <time>2021-06-16T09:15:18Z</time>
      </trkpt>
      <trkpt lat="36.810149" lon="-2.590403">
        <ele>51.227</ele>
        <time>2021-06-16T09:15:20Z</time>
      </trkpt>
      <trkpt lat="36.810128" lon="-2.590513">
        <ele>51.232</ele>
        <time>2021-06-16T09:15:21Z</time>
      </trkpt>
      <trkpt lat="36.810092" lon="-2.590732">
        <ele>51.292</ele>
        <time>2021-06-16T09:15:23Z</time>
      </trkpt>
      <trkpt lat="36.810064" lon="-2.590963">
        <ele>51.211</ele>
        <time>2021-06-16T09:15:25Z</time>
      </trkpt>
      <trkpt lat="36.810025" lon="-2.591181">
        <ele>51.208</ele>
        <time>2021-06-16T09:15:27Z</time>
      </trkpt>
      <trkpt lat="36.810004" lon="-2.59129">
        <ele>51.220</ele>
        <time>2021-06-16T09:15:28Z</time>
      </trkpt>
      <trkpt lat="36.809985" lon="-2.591402">
        <ele>51.268</ele>
        <time>2021-06-16T09:15:29Z</time>
      </trkpt>
      <trkpt lat="36.809953" lon="-2.591627">
        <ele>51.232</ele>
        <time>2021-06-16T09:15:31Z</time>
      </trkpt>
      <trkpt lat="36.809909" lon="-2.591861">
        <ele>51.281</ele>
        <time>2021-06-16T09:15:33Z</time>
      </trkpt>
      <trkpt lat="36.809895" lon="-2.591974">
        <ele>51.224</ele>
        <time>2021-06-16T09:15:34Z</time>
      </trkpt>
      <trkpt lat="36.809883" lon="-2.592082">
        <ele>51.251</ele>
        <time>2021-06-16T09:15:35Z</time>
      </trkpt>
      <trkpt lat="36.809845" lon="-2.592301">
        <ele>51.248</ele>
        <time>2021-06-16T09:15:37Z</time>
      </trkpt>
      <trkpt lat="36.809794" lon="-2.592515">
        <ele>51.248</ele>
        <time>2021-06-16T09:15:39Z</time>
      </trkpt>
      <trkpt lat="36.809762" lon="-2.592734">
        <ele>51.255</ele>
        <time>2021-06-16T09:15:41Z</time>
      </trkpt>
      <trkpt lat="36.809747" lon="-2.59284">
        <ele>51.207</ele>
        <time>2021-06-16T09:15:42Z</time>
      </trkpt>
      <trkpt lat="36.809719" lon="-2.593044">
        <ele>51.217</ele>
        <time>2021-06-16T09:15:44Z</time>
      </trkpt>
      <trkpt lat="36.809685" lon="-2.593255">
        <ele>51.208</ele>
        <time>2021-06-16T09:15:46Z</time>
      </trkpt>
      <trkpt lat="36.809649" lon="-2.593463">
        <ele>51.232</ele>
        <time>2021-06-16T09:15:48Z</time>
      </trkpt>
      <trkpt lat="36.809625" lon="-2.593565">
        <ele>55.240</ele>
        <time>2021-06-16T09:15:49Z</time>
      </trkpt>
      <trkpt lat="36.809597" lon="-2.59374">
        <ele>59.034</ele>
        <time>2021-06-16T09:15:51Z</time>
      </trkpt>
      <trkpt lat="36.8096" lon="-2.593796">
        <ele>61.013</ele>
        <time>2021-06-16T09:15:52Z</time>
      </trkpt>
      <trkpt lat="36.809631" lon="-2.593855">
        <ele>62.526</ele>
        <time>2021-06-16T09:15:55Z</time>
      </trkpt>
      <trkpt lat="36.809658" lon="-2.593775">
        <ele>61.893</ele>
        <time>2021-06-16T09:16:01Z</time>
      </trkpt>
      <trkpt lat="36.809654" lon="-2.593688">
        <ele>61.480</ele>
        <time>2021-06-16T09:16:03Z</time>
      </trkpt>
      <trkpt lat="36.809675" lon="-2.593597">
        <ele>61.160</ele>
        <time>2021-06-16T09:16:05Z</time>
      </trkpt>
      <trkpt lat="36.809713" lon="-2.593523">
        <ele>60.948</ele>
        <time>2021-06-16T09:16:07Z</time>
      </trkpt>
      <trkpt lat="36.809678" lon="-2.593587">
        <ele>60.861</ele>
        <time>2021-06-16T09:18:45Z</time>
      </trkpt>
      <trkpt lat="36.809669" lon="-2.593711">
        <ele>60.717</ele>
        <time>2021-06-16T09:18:47Z</time>
      </trkpt>
      <trkpt lat="36.809664" lon="-2.593776">
        <ele>60.708</ele>
        <time>2021-06-16T09:18:48Z</time>
      </trkpt>
      <trkpt lat="36.809656" lon="-2.593836">
        <ele>60.791</ele>
        <time>2021-06-16T09:18:49Z</time>
      </trkpt>
      <trkpt lat="36.809631" lon="-2.593967">
        <ele>60.729</ele>
        <time>2021-06-16T09:18:51Z</time>
      </trkpt>
      <trkpt lat="36.80959" lon="-2.594072">
        <ele>60.773</ele>
        <time>2021-06-16T09:18:53Z</time>
      </trkpt>
      <trkpt lat="36.80954" lon="-2.594112">
        <ele>60.762</ele>
        <time>2021-06-16T09:18:55Z</time>
      </trkpt>
      <trkpt lat="36.809496" lon="-2.594179">
        <ele>60.745</ele>
        <time>2021-06-16T09:19:02Z</time>
      </trkpt>
      <trkpt lat="36.809461" lon="-2.594318">
        <ele>60.782</ele>
        <time>2021-06-16T09:19:04Z</time>
      </trkpt>
      <trkpt lat="36.809446" lon="-2.594446">
        <ele>60.729</ele>
        <time>2021-06-16T09:19:05Z</time>
      </trkpt>
      <trkpt lat="36.809426" lon="-2.594578">
        <ele>60.789</ele>
        <time>2021-06-16T09:19:06Z</time>
      </trkpt>
      <trkpt lat="36.809379" lon="-2.594841">
        <ele>60.723</ele>
        <time>2021-06-16T09:19:08Z</time>
      </trkpt>
      <trkpt lat="36.809352" lon="-2.594973">
        <ele>60.783</ele>
        <time>2021-06-16T09:19:09Z</time>
      </trkpt>
      <trkpt lat="36.809302" lon="-2.595232">
        <ele>60.711</ele>
        <time>2021-06-16T09:19:11Z</time>
      </trkpt>
      <trkpt lat="36.809277" lon="-2.595358">
        <ele>60.708</ele>
        <time>2021-06-16T09:19:12Z</time>
      </trkpt>
      <trkpt lat="36.809226" lon="-2.595603">
        <ele>60.779</ele>
        <time>2021-06-16T09:19:14Z</time>
      </trkpt>
      <trkpt lat="36.809205" lon="-2.595721">
        <ele>60.737</ele>
        <time>2021-06-16T09:19:15Z</time>
      </trkpt>
      <trkpt lat="36.809165" lon="-2.595948">
        <ele>60.751</ele>
        <time>2021-06-16T09:19:17Z</time>
      </trkpt>
      <trkpt lat="36.809132" lon="-2.596181">
        <ele>60.770</ele>
        <time>2021-06-16T09:19:19Z</time>
      </trkpt>
      <trkpt lat="36.809105" lon="-2.59642">
        <ele>60.743</ele>
        <time>2021-06-16T09:19:21Z</time>
      </trkpt>
      <trkpt lat="36.809099" lon="-2.596663">
        <ele>60.760</ele>
        <time>2021-06-16T09:19:23Z</time>
      </trkpt>
      <trkpt lat="36.809109" lon="-2.596901">
        <ele>60.727</ele>
        <time>2021-06-16T09:19:25Z</time>
      </trkpt>
      <trkpt lat="36.809124" lon="-2.597026">
        <ele>60.787</ele>
        <time>2021-06-16T09:19:26Z</time>
      </trkpt>
      <trkpt lat="36.809144" lon="-2.597146">
        <ele>60.789</ele>
        <time>2021-06-16T09:19:27Z</time>
      </trkpt>
      <trkpt lat="36.809212" lon="-2.597352">
        <ele>60.706</ele>
        <time>2021-06-16T09:19:29Z</time>
      </trkpt>
      <trkpt lat="36.809271" lon="-2.597428">
        <ele>60.726</ele>
        <time>2021-06-16T09:19:30Z</time>
      </trkpt>
      <trkpt lat="36.809345" lon="-2.597478">
        <ele>60.708</ele>
        <time>2021-06-16T09:19:31Z</time>
      </trkpt>
      <trkpt lat="36.809428" lon="-2.5975">
        <ele>60.725</ele>
        <time>2021-06-16T09:19:32Z</time>
      </trkpt>
      <trkpt lat="36.809616" lon="-2.59752">
        <ele>60.763</ele>
        <time>2021-06-16T09:19:34Z</time>
      </trkpt>
      <trkpt lat="36.809832" lon="-2.597551">
        <ele>60.777</ele>
        <time>2021-06-16T09:19:36Z</time>
      </trkpt>
      <trkpt lat="36.809947" lon="-2.597574">
        <ele>60.776</ele>
        <time>2021-06-16T09:19:37Z</time>
      </trkpt>
      <trkpt lat="36.810065" lon="-2.597603">
        <ele>60.719</ele>
        <time>2021-06-16T09:19:38Z</time>
      </trkpt>
      <trkpt lat="36.810308" lon="-2.597662">
        <ele>60.766</ele>
        <time>2021-06-16T09:19:40Z</time>
      </trkpt>
      <trkpt lat="36.810547" lon="-2.59772">
        <ele>62.483</ele>
        <time>2021-06-16T09:19:42Z</time>
      </trkpt>
      <trkpt lat="36.810787" lon="-2.597779">
        <ele>63.853</ele>
        <time>2021-06-16T09:19:44Z</time>
      </trkpt>
      <trkpt lat="36.811028" lon="-2.597835">
        <ele>64.325</ele>
        <time>2021-06-16T09:19:46Z</time>
      </trkpt>
      <trkpt lat="36.811278" lon="-2.597892">
        <ele>65.326</ele>
        <time>2021-06-16T09:19:48Z</time>
      </trkpt>
      <trkpt lat="36.811405" lon="-2.597928">
        <ele>66.608</ele>
        <time>2021-06-16T09:19:49Z</time>
      </trkpt>
      <trkpt lat="36.811665" lon="-2.598">
        <ele>67.708</ele>
        <time>2021-06-16T09:19:51Z</time>
      </trkpt>
      <trkpt lat="36.811922" lon="-2.59806">
        <ele>68.469</ele>
        <time>2021-06-16T09:19:53Z</time>
      </trkpt>
      <trkpt lat="36.812049" lon="-2.598087">
        <ele>68.557</ele>
        <time>2021-06-16T09:19:54Z</time>
      </trkpt>
      <trkpt lat="36.812304" lon="-2.59814">
        <ele>68.651</ele>
        <time>2021-06-16T09:19:56Z</time>
      </trkpt>
      <trkpt lat="36.812431" lon="-2.598159">
        <ele>68.810</ele>
        <time>2021-06-16T09:19:57Z</time>
      </trkpt>
      <trkpt lat="36.812682" lon="-2.598203">
        <ele>69.123</ele>
        <time>2021-06-16T09:19:59Z</time>
      </trkpt>
      <trkpt lat="36.812806" lon="-2.598229">
        <ele>69.540</ele>
        <time>2021-06-16T09:20:00Z</time>
      </trkpt>
      <trkpt lat="36.813025" lon="-2.598266">
        <ele>69.937</ele>
        <time>2021-06-16T09:20:02Z</time>
      </trkpt>
      <trkpt lat="36.813095" lon="-2.598282">
        <ele>69.267</ele>
        <time>2021-06-16T09:20:04Z</time>
      </trkpt>
      <trkpt lat="36.813024" lon="-2.598267">
        <ele>68.494</ele>
        <time>2021-06-16T09:20:06Z</time>
      </trkpt>
      <trkpt lat="36.813085" lon="-2.598286">
        <ele>69.757</ele>
        <time>2021-06-16T09:21:18Z</time>
      </trkpt>
      <trkpt lat="36.81316" lon="-2.598312">
        <ele>70.522</ele>
        <time>2021-06-16T09:21:20Z</time>
      </trkpt>
      <trkpt lat="36.813282" lon="-2.598352">
        <ele>71.008</ele>
        <time>2021-06-16T09:21:22Z</time>
      </trkpt>
      <trkpt lat="36.813357" lon="-2.598372">
        <ele>71.326</ele>
        <time>2021-06-16T09:21:23Z</time>
      </trkpt>
      <trkpt lat="36.813437" lon="-2.598394">
        <ele>71.584</ele>
        <time>2021-06-16T09:21:24Z</time>
      </trkpt>
      <trkpt lat="36.813519" lon="-2.598415">
        <ele>71.668</ele>
        <time>2021-06-16T09:21:25Z</time>
      </trkpt>
      <trkpt lat="36.813682" lon="-2.598451">
        <ele>71.797</ele>
        <time>2021-06-16T09:21:27Z</time>
      </trkpt>
      <trkpt lat="36.813852" lon="-2.598494">
        <ele>71.870</ele>
        <time>2021-06-16T09:21:29Z</time>
      </trkpt>
      <trkpt lat="36.813936" lon="-2.598515">
        <ele>71.867</ele>
        <time>2021-06-16T09:21:30Z</time>
      </trkpt>
      <trkpt lat="36.814019" lon="-2.598537">
        <ele>71.864</ele>
        <time>2021-06-16T09:21:31Z</time>
      </trkpt>
      <trkpt lat="36.814198" lon="-2.598581">
        <ele>71.874</ele>
        <time>2021-06-16T09:21:33Z</time>
      </trkpt>
      <trkpt lat="36.814383" lon="-2.598628">
        <ele>71.817</ele>
        <time>2021-06-16T09:21:35Z</time>
      </trkpt>
      <trkpt lat="36.814476" lon="-2.598652">
        <ele>71.887</ele>
        <time>2021-06-16T09:21:36Z</time>
      </trkpt>
      <trkpt lat="36.814658" lon="-2.598695">
        <ele>71.815</ele>
        <time>2021-06-16T09:21:38Z</time>
      </trkpt>
      <trkpt lat="36.814833" lon="-2.598731">
        <ele>71.808</ele>
        <time>2021-06-16T09:21:40Z</time>
      </trkpt>
      <trkpt lat="36.814914" lon="-2.598752">
        <ele>71.858</ele>
        <time>2021-06-16T09:21:41Z</time>
      </trkpt>
      <trkpt lat="36.815047" lon="-2.598781">
        <ele>71.816</ele>
        <time>2021-06-16T09:21:43Z</time>
      </trkpt>
      <trkpt lat="36.81511" lon="-2.598792">
        <ele>71.890</ele>
        <time>2021-06-16T09:21:44Z</time>
      </trkpt>
      <trkpt lat="36.815185" lon="-2.598805">
        <ele>71.819</ele>
        <time>2021-06-16T09:21:47Z</time>
      </trkpt>
      <trkpt lat="36.815232" lon="-2.598809">
        <ele>71.852</ele>
        <time>2021-06-16T09:21:49Z</time>
      </trkpt>
      <trkpt lat="36.81529" lon="-2.598814">
        <ele>71.869</ele>
        <time>2021-06-16T09:21:52Z</time>
      </trkpt>
      <trkpt lat="36.81534" lon="-2.598822">
        <ele>71.866</ele>
        <time>2021-06-16T09:21:56Z</time>
      </trkpt>
      <trkpt lat="36.815395" lon="-2.598831">
        <ele>71.846</ele>
        <time>2021-06-16T09:22:00Z</time>
      </trkpt>
      <trkpt lat="36.815449" lon="-2.598845">
        <ele>71.852</ele>
        <time>2021-06-16T09:22:03Z</time>
      </trkpt>
      <trkpt lat="36.815499" lon="-2.598869">
        <ele>71.853</ele>
        <time>2021-06-16T09:22:05Z</time>
      </trkpt>
      <trkpt lat="36.815567" lon="-2.598896">
        <ele>71.808</ele>
        <time>2021-06-16T09:22:07Z</time>
      </trkpt>
      <trkpt lat="36.815691" lon="-2.598879">
        <ele>71.808</ele>
        <time>2021-06-16T09:22:09Z</time>
      </trkpt>
      <trkpt lat="36.815835" lon="-2.598857">
        <ele>71.852</ele>
        <time>2021-06-16T09:22:11Z</time>
      </trkpt>
      <trkpt lat="36.815908" lon="-2.598876">
        <ele>71.870</ele>
        <time>2021-06-16T09:22:12Z</time>
      </trkpt>
      <trkpt lat="36.815976" lon="-2.598914">
        <ele>71.864</ele>
        <time>2021-06-16T09:22:13Z</time>
      </trkpt>
      <trkpt lat="36.816088" lon="-2.599018">
        <ele>71.833</ele>
        <time>2021-06-16T09:22:15Z</time>
      </trkpt>
      <trkpt lat="36.816212" lon="-2.599114">
        <ele>71.896</ele>
        <time>2021-06-16T09:22:17Z</time>
      </trkpt>
      <trkpt lat="36.816342" lon="-2.599117">
        <ele>71.843</ele>
        <time>2021-06-16T09:22:19Z</time>
      </trkpt>
      <trkpt lat="36.81642" lon="-2.599096">
        <ele>71.860</ele>
        <time>2021-06-16T09:22:20Z</time>
      </trkpt>
      <trkpt lat="36.816503" lon="-2.59907">
        <ele>71.810</ele>
        <time>2021-06-16T09:22:21Z</time>
      </trkpt>
      <trkpt lat="36.816683" lon="-2.599022">
        <ele>71.847</ele>
        <time>2021-06-16T09:22:23Z</time>
      </trkpt>
      <trkpt lat="36.816883" lon="-2.598975">
        <ele>71.829</ele>
        <time>2021-06-16T09:22:25Z</time>
      </trkpt>
      <trkpt lat="36.816987" lon="-2.598955">
        <ele>71.821</ele>
        <time>2021-06-16T09:22:26Z</time>
      </trkpt>
      <trkpt lat="36.817195" lon="-2.598904">
        <ele>71.808</ele>
        <time>2021-06-16T09:22:28Z</time>
      </trkpt>
      <trkpt lat="36.817405" lon="-2.598855">
        <ele>71.861</ele>
        <time>2021-06-16T09:22:30Z</time>
      </trkpt>
      <trkpt lat="36.817508" lon="-2.59883">
        <ele>71.859</ele>
        <time>2021-06-16T09:22:31Z</time>
      </trkpt>
      <trkpt lat="36.817707" lon="-2.598787">
        <ele>71.873</ele>
        <time>2021-06-16T09:22:33Z</time>
      </trkpt>
      <trkpt lat="36.817806" lon="-2.598769">
        <ele>71.822</ele>
        <time>2021-06-16T09:22:34Z</time>
      </trkpt>
      <trkpt lat="36.817993" lon="-2.598729">
        <ele>71.835</ele>
        <time>2021-06-16T09:22:36Z</time>
      </trkpt>
      <trkpt lat="36.818091" lon="-2.598706">
        <ele>71.852</ele>
        <time>2021-06-16T09:22:37Z</time>
      </trkpt>
      <trkpt lat="36.818284" lon="-2.598666">
        <ele>71.819</ele>
        <time>2021-06-16T09:22:39Z</time>
      </trkpt>
      <trkpt lat="36.818441" lon="-2.598625">
        <ele>71.849</ele>
        <time>2021-06-16T09:22:41Z</time>
      </trkpt>
      <trkpt lat="36.818618" lon="-2.598587">
        <ele>71.869</ele>
        <time>2021-06-16T09:22:43Z</time>
      </trkpt>
      <trkpt lat="36.818712" lon="-2.598566">
        <ele>71.804</ele>
        <time>2021-06-16T09:22:45Z</time>
      </trkpt>
      <trkpt lat="36.818792" lon="-2.598546">
        <ele>71.824</ele>
        <time>2021-06-16T09:22:47Z</time>
      </trkpt>
      <trkpt lat="36.818854" lon="-2.598537">
        <ele>71.808</ele>
        <time>2021-06-16T09:22:49Z</time>
      </trkpt>
      <trkpt lat="36.818932" lon="-2.59852">
        <ele>71.823</ele>
        <time>2021-06-16T09:22:51Z</time>
      </trkpt>
      <trkpt lat="36.819014" lon="-2.598502">
        <ele>71.861</ele>
        <time>2021-06-16T09:22:53Z</time>
      </trkpt>
      <trkpt lat="36.819074" lon="-2.598473">
        <ele>71.825</ele>
        <time>2021-06-16T09:22:55Z</time>
      </trkpt>
      <trkpt lat="36.819142" lon="-2.598423">
        <ele>71.884</ele>
        <time>2021-06-16T09:22:57Z</time>
      </trkpt>
      <trkpt lat="36.81918" lon="-2.598368">
        <ele>71.857</ele>
        <time>2021-06-16T09:22:58Z</time>
      </trkpt>
      <trkpt lat="36.819219" lon="-2.598214">
        <ele>71.834</ele>
        <time>2021-06-16T09:23:00Z</time>
      </trkpt>
      <trkpt lat="36.819214" lon="-2.598139">
        <ele>71.881</ele>
        <time>2021-06-16T09:23:01Z</time>
      </trkpt>
      <trkpt lat="36.819167" lon="-2.598003">
        <ele>71.861</ele>
        <time>2021-06-16T09:23:03Z</time>
      </trkpt>
      <trkpt lat="36.819142" lon="-2.597936">
        <ele>71.812</ele>
        <time>2021-06-16T09:23:04Z</time>
      </trkpt>
      <trkpt lat="36.819089" lon="-2.597816">
        <ele>71.732</ele>
        <time>2021-06-16T09:23:06Z</time>
      </trkpt>
      <trkpt lat="36.819047" lon="-2.597692">
        <ele>71.705</ele>
        <time>2021-06-16T09:23:08Z</time>
      </trkpt>
      <trkpt lat="36.819045" lon="-2.597608">
        <ele>71.708</ele>
        <time>2021-06-16T09:23:10Z</time>
      </trkpt>
      <trkpt lat="36.819062" lon="-2.597527">
        <ele>75.738</ele>
        <time>2021-06-16T09:23:12Z</time>
      </trkpt>
      <trkpt lat="36.819083" lon="-2.597463">
        <ele>79.796</ele>
        <time>2021-06-16T09:23:14Z</time>
      </trkpt>
      <trkpt lat="36.81913" lon="-2.597459">
        <ele>83.730</ele>
        <time>2021-06-16T09:23:17Z</time>
      </trkpt>
      <trkpt lat="36.819186" lon="-2.597425">
        <ele>87.799</ele>
        <time>2021-06-16T09:23:19Z</time>
      </trkpt>
      <trkpt lat="36.819151" lon="-2.597462">
        <ele>91.752</ele>
        <time>2021-06-16T09:23:45Z</time>
      </trkpt>
      <trkpt lat="36.819109" lon="-2.597484">
        <ele>95.789</ele>
        <time>2021-06-16T09:24:07Z</time>
      </trkpt>
      <trkpt lat="36.819147" lon="-2.597516">
        <ele>98.936</ele>
        <time>2021-06-16T09:25:02Z</time>
      </trkpt>
      <trkpt lat="36.81919" lon="-2.597498">
        <ele>100.826</ele>
        <time>2021-06-16T09:25:26Z</time>
      </trkpt>
      <trkpt lat="36.819141" lon="-2.597497">
        <ele>101.991</ele>
        <time>2021-06-16T09:26:06Z</time>
      </trkpt>
      <trkpt lat="36.81917" lon="-2.597541">
        <ele>102.681</ele>
        <time>2021-06-16T09:27:05Z</time>
      </trkpt>
      <trkpt lat="36.819192" lon="-2.597607">
        <ele>103.019</ele>
        <time>2021-06-16T09:27:42Z</time>
      </trkpt>
      <trkpt lat="36.819208" lon="-2.597687">
        <ele>103.208</ele>
        <time>2021-06-16T09:27:44Z</time>
      </trkpt>
      <trkpt lat="36.819204" lon="-2.597762">
        <ele>103.366</ele>
        <time>2021-06-16T09:27:46Z</time>
      </trkpt>
      <trkpt lat="36.8192" lon="-2.597831">
        <ele>103.474</ele>
        <time>2021-06-16T09:27:48Z</time>
      </trkpt>
      <trkpt lat="36.819175" lon="-2.597914">
        <ele>103.428</ele>
        <time>2021-06-16T09:27:52Z</time>
      </trkpt>
      <trkpt lat="36.819241" lon="-2.598043">
        <ele>103.457</ele>
        <time>2021-06-16T09:27:54Z</time>
      </trkpt>
      <trkpt lat="36.819321" lon="-2.598057">
        <ele>103.460</ele>
        <time>2021-06-16T09:27:56Z</time>
      </trkpt>
      <trkpt lat="36.819401" lon="-2.598052">
        <ele>103.497</ele>
        <time>2021-06-16T09:27:58Z</time>
      </trkpt>
      <trkpt lat="36.819501" lon="-2.59808">
        <ele>103.424</ele>
        <time>2021-06-16T09:28:00Z</time>
      </trkpt>
      <trkpt lat="36.819616" lon="-2.598161">
        <ele>103.494</ele>
        <time>2021-06-16T09:28:02Z</time>
      </trkpt>
      <trkpt lat="36.819744" lon="-2.598275">
        <ele>103.454</ele>
        <time>2021-06-16T09:28:04Z</time>
      </trkpt>
      <trkpt lat="36.819901" lon="-2.598302">
        <ele>103.456</ele>
        <time>2021-06-16T09:28:06Z</time>
      </trkpt>
      <trkpt lat="36.820067" lon="-2.598249">
        <ele>103.411</ele>
        <time>2021-06-16T09:28:08Z</time>
      </trkpt>
      <trkpt lat="36.820155" lon="-2.598215">
        <ele>103.408</ele>
        <time>2021-06-16T09:28:09Z</time>
      </trkpt>
      <trkpt lat="36.820245" lon="-2.598185">
        <ele>103.442</ele>
        <time>2021-06-16T09:28:10Z</time>
      </trkpt>
      <trkpt lat="36.820434" lon="-2.598126">
        <ele>103.450</ele>
        <time>2021-06-16T09:28:12Z</time>
      </trkpt>
      <trkpt lat="36.820529" lon="-2.598095">
        <ele>103.444</ele>
        <time>2021-06-16T09:28:13Z</time>
      </trkpt>
      <trkpt lat="36.820625" lon="-2.598063">
        <ele>103.483</ele>
        <time>2021-06-16T09:28:14Z</time>
      </trkpt>
      <trkpt lat="36.820815" lon="-2.598006">
        <ele>103.426</ele>
        <time>2021-06-16T09:28:16Z</time>
      </trkpt>
      <trkpt lat="36.820999" lon="-2.597952">
        <ele>103.493</ele>
        <time>2021-06-16T09:28:18Z</time>
      </trkpt>
      <trkpt lat="36.821088" lon="-2.597921">
        <ele>103.490</ele>
        <time>2021-06-16T09:28:19Z</time>
      </trkpt>
      <trkpt lat="36.821252" lon="-2.59784">
        <ele>103.460</ele>
        <time>2021-06-16T09:28:21Z</time>
      </trkpt>
      <trkpt lat="36.821327" lon="-2.597802">
        <ele>103.493</ele>
        <time>2021-06-16T09:28:22Z</time>
      </trkpt>
      <trkpt lat="36.821469" lon="-2.597791">
        <ele>103.465</ele>
        <time>2021-06-16T09:28:24Z</time>
      </trkpt>
      <trkpt lat="36.821564" lon="-2.597895">
        <ele>103.421</ele>
        <time>2021-06-16T09:28:26Z</time>
      </trkpt>
      <trkpt lat="36.821563" lon="-2.598053">
        <ele>103.408</ele>
        <time>2021-06-16T09:28:28Z</time>
      </trkpt>
      <trkpt lat="36.821522" lon="-2.598125">
        <ele>103.456</ele>
        <time>2021-06-16T09:28:29Z</time>
      </trkpt>
      <trkpt lat="36.821388" lon="-2.598207">
        <ele>103.424</ele>
        <time>2021-06-16T09:28:31Z</time>
      </trkpt>
      <trkpt lat="36.821303" lon="-2.598216">
        <ele>103.428</ele>
        <time>2021-06-16T09:28:32Z</time>
      </trkpt>
      <trkpt lat="36.821113" lon="-2.598219">
        <ele>103.497</ele>
        <time>2021-06-16T09:28:34Z</time>
      </trkpt>
      <trkpt lat="36.8209" lon="-2.598315">
        <ele>103.460</ele>
        <time>2021-06-16T09:28:36Z</time>
      </trkpt>
      <trkpt lat="36.820672" lon="-2.598487">
        <ele>103.437</ele>
        <time>2021-06-16T09:28:38Z</time>
      </trkpt>
      <trkpt lat="36.82055" lon="-2.598589">
        <ele>103.494</ele>
        <time>2021-06-16T09:28:39Z</time>
      </trkpt>
      <trkpt lat="36.820421" lon="-2.598702">
        <ele>103.464</ele>
        <time>2021-06-16T09:28:40Z</time>
      </trkpt>
      <trkpt lat="36.820156" lon="-2.598943">
        <ele>103.444</ele>
        <time>2021-06-16T09:28:42Z</time>
      </trkpt>
      <trkpt lat="36.820018" lon="-2.599074">
        <ele>104.205</ele>
        <time>2021-06-16T09:28:43Z</time>
      </trkpt>
      <trkpt lat="36.819741" lon="-2.599356">
        <ele>103.815</ele>
        <time>2021-06-16T09:28:45Z</time>
      </trkpt>
      <trkpt lat="36.819605" lon="-2.599509">
        <ele>103.708</ele>
        <time>2021-06-16T09:28:46Z</time>
      </trkpt>
      <trkpt lat="36.81933" lon="-2.599825">
        <ele>102.871</ele>
        <time>2021-06-16T09:28:48Z</time>
      </trkpt>
      <trkpt lat="36.819194" lon="-2.599993">
        <ele>102.489</ele>
        <time>2021-06-16T09:28:49Z</time>
      </trkpt>
      <trkpt lat="36.818921" lon="-2.600329">
        <ele>101.643</ele>
        <time>2021-06-16T09:28:51Z</time>
      </trkpt>
      <trkpt lat="36.818645" lon="-2.600675">
        <ele>101.312</ele>
        <time>2021-06-16T09:28:53Z</time>
      </trkpt>
      <trkpt lat="36.818506" lon="-2.600849">
        <ele>100.925</ele>
        <time>2021-06-16T09:28:54Z</time>
      </trkpt>
      <trkpt lat="36.81823" lon="-2.601198">
        <ele>100.442</ele>
        <time>2021-06-16T09:28:56Z</time>
      </trkpt>
      <trkpt lat="36.818094" lon="-2.601374">
        <ele>100.099</ele>
        <time>2021-06-16T09:28:57Z</time>
      </trkpt>
      <trkpt lat="36.817818" lon="-2.60173">
        <ele>99.349</ele>
        <time>2021-06-16T09:28:59Z</time>
      </trkpt>
      <trkpt lat="36.817542" lon="-2.602085">
        <ele>99.057</ele>
        <time>2021-06-16T09:29:01Z</time>
      </trkpt>
      <trkpt lat="36.817399" lon="-2.602261">
        <ele>98.800</ele>
        <time>2021-06-16T09:29:02Z</time>
      </trkpt>
      <trkpt lat="36.817117" lon="-2.602617">
        <ele>98.120</ele>
        <time>2021-06-16T09:29:04Z</time>
      </trkpt>
      <trkpt lat="36.816976" lon="-2.602797">
        <ele>97.708</ele>
        <time>2021-06-16T09:29:05Z</time>
      </trkpt>
      <trkpt lat="36.816699" lon="-2.603162">
        <ele>97.272</ele>
        <time>2021-06-16T09:29:07Z</time>
      </trkpt>
      <trkpt lat="36.816559" lon="-2.603345">
        <ele>96.840</ele>
        <time>2021-06-16T09:29:08Z</time>
      </trkpt>
      <trkpt lat="36.816287" lon="-2.603705">
        <ele>96.164</ele>
        <time>2021-06-16T09:29:10Z</time>
      </trkpt>
      <trkpt lat="36.816007" lon="-2.604061">
        <ele>95.073</ele>
        <time>2021-06-16T09:29:12Z</time>
      </trkpt>
      <trkpt lat="36.815867" lon="-2.60424">
        <ele>94.396</ele>
        <time>2021-06-16T09:29:13Z</time>
      </trkpt>
      <trkpt lat="36.815731" lon="-2.604419">
        <ele>93.443</ele>
        <time>2021-06-16T09:29:14Z</time>
      </trkpt>
      <trkpt lat="36.815458" lon="-2.604787">
        <ele>92.770</ele>
        <time>2021-06-16T09:29:16Z</time>
      </trkpt>
      <trkpt lat="36.815193" lon="-2.60516">
        <ele>91.770</ele>
        <time>2021-06-16T09:29:18Z</time>
      </trkpt>
      <trkpt lat="36.815064" lon="-2.605355">
        <ele>91.275</ele>
        <time>2021-06-16T09:29:19Z</time>
      </trkpt>
      <trkpt lat="36.814809" lon="-2.60576">
        <ele>90.328</ele>
        <time>2021-06-16T09:29:21Z</time>
      </trkpt>
      <trkpt lat="36.814567" lon="-2.606177">
        <ele>89.120</ele>
        <time>2021-06-16T09:29:23Z</time>
      </trkpt>
      <trkpt lat="36.81445" lon="-2.606388">
        <ele>88.608</ele>
        <time>2021-06-16T09:29:24Z</time>
      </trkpt>
      <trkpt lat="36.814235" lon="-2.606828">
        <ele>87.824</ele>
        <time>2021-06-16T09:29:26Z</time>
      </trkpt>
      <trkpt lat="36.814131" lon="-2.60705">
        <ele>87.012</ele>
        <time>2021-06-16T09:29:27Z</time>
      </trkpt>
      <trkpt lat="36.813941" lon="-2.607501">
        <ele>86.466</ele>
        <time>2021-06-16T09:29:29Z</time>
      </trkpt>
      <trkpt lat="36.813855" lon="-2.607731">
        <ele>85.545</ele>
        <time>2021-06-16T09:29:30Z</time>
      </trkpt>
      <trkpt lat="36.813774" lon="-2.607961">
        <ele>85.188</ele>
        <time>2021-06-16T09:29:31Z</time>
      </trkpt>
      <trkpt lat="36.813622" lon="-2.608424">
        <ele>84.935</ele>
        <time>2021-06-16T09:29:33Z</time>
      </trkpt>
      <trkpt lat="36.813487" lon="-2.608876">
        <ele>84.512</ele>
        <time>2021-06-16T09:29:35Z</time>
      </trkpt>
      <trkpt lat="36.813421" lon="-2.609106">
        <ele>84.182</ele>
        <time>2021-06-16T09:29:36Z</time>
      </trkpt>
      <trkpt lat="36.813303" lon="-2.609575">
        <ele>84.531</ele>
        <time>2021-06-16T09:29:38Z</time>
      </trkpt>
      <trkpt lat="36.813192" lon="-2.610038">
        <ele>84.961</ele>
        <time>2021-06-16T09:29:40Z</time>
      </trkpt>
      <trkpt lat="36.813093" lon="-2.61048">
        <ele>85.107</ele>
        <time>2021-06-16T09:29:42Z</time>
      </trkpt>
      <trkpt lat="36.813046" lon="-2.6107">
        <ele>85.808</ele>
        <time>2021-06-16T09:29:43Z</time>
      </trkpt>
      <trkpt lat="36.81296" lon="-2.611137">
        <ele>86.260</ele>
        <time>2021-06-16T09:29:45Z</time>
      </trkpt>
      <trkpt lat="36.81292" lon="-2.611361">
        <ele>86.568</ele>
        <time>2021-06-16T09:29:46Z</time>
      </trkpt>
      <trkpt lat="36.812843" lon="-2.611811">
        <ele>86.862</ele>
        <time>2021-06-16T09:29:48Z</time>
      </trkpt>
      <trkpt lat="36.812806" lon="-2.612037">
        <ele>87.291</ele>
        <time>2021-06-16T09:29:49Z</time>
      </trkpt>
      <trkpt lat="36.812737" lon="-2.612494">
        <ele>88.124</ele>
        <time>2021-06-16T09:29:51Z</time>
      </trkpt>
      <trkpt lat="36.812705" lon="-2.612725">
        <ele>89.141</ele>
        <time>2021-06-16T09:29:52Z</time>
      </trkpt>
      <trkpt lat="36.812677" lon="-2.612952">
        <ele>89.748</ele>
        <time>2021-06-16T09:29:53Z</time>
      </trkpt>
      <trkpt lat="36.812631" lon="-2.613409">
        <ele>90.268</ele>
        <time>2021-06-16T09:29:55Z</time>
      </trkpt>
      <trkpt lat="36.812609" lon="-2.613643">
        <ele>90.527</ele>
        <time>2021-06-16T09:29:56Z</time>
      </trkpt>
      <trkpt lat="36.812565" lon="-2.614124">
        <ele>90.668</ele>
        <time>2021-06-16T09:29:58Z</time>
      </trkpt>
      <trkpt lat="36.81255" lon="-2.61436">
        <ele>90.914</ele>
        <time>2021-06-16T09:29:59Z</time>
      </trkpt>
      <trkpt lat="36.812539" lon="-2.614588">
        <ele>91.108</ele>
        <time>2021-06-16T09:30:00Z</time>
      </trkpt>
      <trkpt lat="36.812512" lon="-2.615064">
        <ele>91.849</ele>
        <time>2021-06-16T09:30:02Z</time>
      </trkpt>
      <trkpt lat="36.8125" lon="-2.615311">
        <ele>92.487</ele>
        <time>2021-06-16T09:30:03Z</time>
      </trkpt>
      <trkpt lat="36.812479" lon="-2.615796">
        <ele>93.231</ele>
        <time>2021-06-16T09:30:05Z</time>
      </trkpt>
      <trkpt lat="36.812472" lon="-2.616043">
        <ele>93.940</ele>
        <time>2021-06-16T09:30:06Z</time>
      </trkpt>
      <trkpt lat="36.812469" lon="-2.616528">
        <ele>94.493</ele>
        <time>2021-06-16T09:30:08Z</time>
      </trkpt>
      <trkpt lat="36.812471" lon="-2.616772">
        <ele>94.340</ele>
        <time>2021-06-16T09:30:09Z</time>
      </trkpt>
      <trkpt lat="36.812474" lon="-2.617018">
        <ele>94.467</ele>
        <time>2021-06-16T09:30:10Z</time>
      </trkpt>
      <trkpt lat="36.812485" lon="-2.617506">
        <ele>94.847</ele>
        <time>2021-06-16T09:30:12Z</time>
      </trkpt>
      <trkpt lat="36.812503" lon="-2.617997">
        <ele>95.029</ele>
        <time>2021-06-16T09:30:14Z</time>
      </trkpt>
      <trkpt lat="36.812529" lon="-2.618471">
        <ele>95.600</ele>
        <time>2021-06-16T09:30:16Z</time>
      </trkpt>
      <trkpt lat="36.812556" lon="-2.618924">
        <ele>96.320</ele>
        <time>2021-06-16T09:30:18Z</time>
      </trkpt>
      <trkpt lat="36.812568" lon="-2.619361">
        <ele>97.108</ele>
        <time>2021-06-16T09:30:20Z</time>
      </trkpt>
      <trkpt lat="36.812587" lon="-2.61979">
        <ele>97.749</ele>
        <time>2021-06-16T09:30:22Z</time>
      </trkpt>
      <trkpt lat="36.812594" lon="-2.620006">
        <ele>98.027</ele>
        <time>2021-06-16T09:30:23Z</time>
      </trkpt>
      <trkpt lat="36.812603" lon="-2.62044">
        <ele>98.311</ele>
        <time>2021-06-16T09:30:25Z</time>
      </trkpt>
      <trkpt lat="36.812603" lon="-2.620661">
        <ele>98.850</ele>
        <time>2021-06-16T09:30:26Z</time>
      </trkpt>
      <trkpt lat="36.812604" lon="-2.620892">
        <ele>99.073</ele>
        <time>2021-06-16T09:30:27Z</time>
      </trkpt>
      <trkpt lat="36.812605" lon="-2.621345">
        <ele>99.960</ele>
        <time>2021-06-16T09:30:29Z</time>
      </trkpt>
      <trkpt lat="36.812603" lon="-2.621573">
        <ele>100.537</ele>
        <time>2021-06-16T09:30:30Z</time>
      </trkpt>
      <trkpt lat="36.812599" lon="-2.621803">
        <ele>101.167</ele>
        <time>2021-06-16T09:30:31Z</time>
      </trkpt>
      <trkpt lat="36.812583" lon="-2.622265">
        <ele>101.951</ele>
        <time>2021-06-16T09:30:33Z</time>
      </trkpt>
      <trkpt lat="36.812575" lon="-2.622503">
        <ele>102.801</ele>
        <time>2021-06-16T09:30:34Z</time>
      </trkpt>
      <trkpt lat="36.812564" lon="-2.62274">
        <ele>103.211</ele>
        <time>2021-06-16T09:30:35Z</time>
      </trkpt>
      <trkpt lat="36.81255" lon="-2.622977">
        <ele>103.608</ele>
        <time>2021-06-16T09:30:36Z</time>
      </trkpt>
      <trkpt lat="36.812533" lon="-2.623216">
        <ele>104.432</ele>
        <time>2021-06-16T09:30:37Z</time>
      </trkpt>
      <trkpt lat="36.812501" lon="-2.6237">
        <ele>105.060</ele>
        <time>2021-06-16T09:30:39Z</time>
      </trkpt>
      <trkpt lat="36.812455" lon="-2.624182">
        <ele>105.874</ele>
        <time>2021-06-16T09:30:41Z</time>
      </trkpt>
      <trkpt lat="36.812397" lon="-2.624658">
        <ele>106.653</ele>
        <time>2021-06-16T09:30:43Z</time>
      </trkpt>
      <trkpt lat="36.812326" lon="-2.625157">
        <ele>107.516</ele>
        <time>2021-06-16T09:30:45Z</time>
      </trkpt>
      <trkpt lat="36.812265" lon="-2.625584">
        <ele>108.533</ele>
        <time>2021-06-16T09:30:47Z</time>
      </trkpt>
      <trkpt lat="36.812227" lon="-2.625817">
        <ele>109.220</ele>
        <time>2021-06-16T09:30:48Z</time>
      </trkpt>
      <trkpt lat="36.812186" lon="-2.62608">
        <ele>109.870</ele>
        <time>2021-06-16T09:30:49Z</time>
      </trkpt>
      <trkpt lat="36.81211" lon="-2.626513">
        <ele>110.575</ele>
        <time>2021-06-16T09:30:51Z</time>
      </trkpt>
      <trkpt lat="36.812021" lon="-2.627">
        <ele>111.528</ele>
        <time>2021-06-16T09:30:53Z</time>
      </trkpt>
      <trkpt lat="36.811972" lon="-2.627272">
        <ele>112.620</ele>
        <time>2021-06-16T09:30:54Z</time>
      </trkpt>
      <trkpt lat="36.81189" lon="-2.627718">
        <ele>114.008</ele>
        <time>2021-06-16T09:30:56Z</time>
      </trkpt>
      <trkpt lat="36.811799" lon="-2.628207">
        <ele>115.274</ele>
        <time>2021-06-16T09:30:58Z</time>
      </trkpt>
      <trkpt lat="36.811703" lon="-2.628683">
        <ele>116.122</ele>
        <time>2021-06-16T09:31:00Z</time>
      </trkpt>
      <trkpt lat="36.811655" lon="-2.628921">
        <ele>116.916</ele>
        <time>2021-06-16T09:31:01Z</time>
      </trkpt>
      <trkpt lat="36.811552" lon="-2.629421">
        <ele>117.675</ele>
        <time>2021-06-16T09:31:03Z</time>
      </trkpt>
      <trkpt lat="36.811465" lon="-2.629853">
        <ele>119.068</ele>
        <time>2021-06-16T09:31:05Z</time>
      </trkpt>
      <trkpt lat="36.811358" lon="-2.630344">
        <ele>119.915</ele>
        <time>2021-06-16T09:31:07Z</time>
      </trkpt>
      <trkpt lat="36.811271" lon="-2.630761">
        <ele>120.742</ele>
        <time>2021-06-16T09:31:09Z</time>
      </trkpt>
      <trkpt lat="36.811174" lon="-2.631233">
        <ele>121.982</ele>
        <time>2021-06-16T09:31:11Z</time>
      </trkpt>
      <trkpt lat="36.811081" lon="-2.631706">
        <ele>123.072</ele>
        <time>2021-06-16T09:31:13Z</time>
      </trkpt>
      <trkpt lat="36.811041" lon="-2.631939">
        <ele>123.913</ele>
        <time>2021-06-16T09:31:14Z</time>
      </trkpt>
      <trkpt lat="36.811" lon="-2.632176">
        <ele>124.814</ele>
        <time>2021-06-16T09:31:15Z</time>
      </trkpt>
      <trkpt lat="36.810959" lon="-2.632445">
        <ele>125.608</ele>
        <time>2021-06-16T09:31:16Z</time>
      </trkpt>
      <trkpt lat="36.810908" lon="-2.632893">
        <ele>126.074</ele>
        <time>2021-06-16T09:31:18Z</time>
      </trkpt>
      <trkpt lat="36.810884" lon="-2.633134">
        <ele>126.282</ele>
        <time>2021-06-16T09:31:19Z</time>
      </trkpt>
      <trkpt lat="36.810865" lon="-2.63341">
        <ele>126.416</ele>
        <time>2021-06-16T09:31:20Z</time>
      </trkpt>
      <trkpt lat="36.810851" lon="-2.633874">
        <ele>127.855</ele>
        <time>2021-06-16T09:31:22Z</time>
      </trkpt>
      <trkpt lat="36.810852" lon="-2.63413">
        <ele>129.218</ele>
        <time>2021-06-16T09:31:23Z</time>
      </trkpt>
      <trkpt lat="36.810869" lon="-2.634627">
        <ele>130.475</ele>
        <time>2021-06-16T09:31:25Z</time>
      </trkpt>
      <trkpt lat="36.810901" lon="-2.635118">
        <ele>131.672</ele>
        <time>2021-06-16T09:31:27Z</time>
      </trkpt>
      <trkpt lat="36.810953" lon="-2.635638">
        <ele>133.272</ele>
        <time>2021-06-16T09:31:29Z</time>
      </trkpt>
      <trkpt lat="36.811012" lon="-2.636086">
        <ele>134.899</ele>
        <time>2021-06-16T09:31:31Z</time>
      </trkpt>
      <trkpt lat="36.811056" lon="-2.636338">
        <ele>136.407</ele>
        <time>2021-06-16T09:31:32Z</time>
      </trkpt>
      <trkpt lat="36.811108" lon="-2.636619">
        <ele>137.727</ele>
        <time>2021-06-16T09:31:33Z</time>
      </trkpt>
      <trkpt lat="36.811213" lon="-2.637063">
        <ele>138.508</ele>
        <time>2021-06-16T09:31:35Z</time>
      </trkpt>
      <trkpt lat="36.811271" lon="-2.637311">
        <ele>139.126</ele>
        <time>2021-06-16T09:31:36Z</time>
      </trkpt>
      <trkpt lat="36.811416" lon="-2.637812">
        <ele>139.784</ele>
        <time>2021-06-16T09:31:38Z</time>
      </trkpt>
      <trkpt lat="36.811565" lon="-2.638234">
        <ele>140.258</ele>
        <time>2021-06-16T09:31:40Z</time>
      </trkpt>
      <trkpt lat="36.811651" lon="-2.638463">
        <ele>141.237</ele>
        <time>2021-06-16T09:31:41Z</time>
      </trkpt>
      <trkpt lat="36.811834" lon="-2.638903">
        <ele>142.830</ele>
        <time>2021-06-16T09:31:43Z</time>
      </trkpt>
      <trkpt lat="36.811932" lon="-2.639122">
        <ele>144.047</ele>
        <time>2021-06-16T09:31:44Z</time>
      </trkpt>
      <trkpt lat="36.812036" lon="-2.639338">
        <ele>145.094</ele>
        <time>2021-06-16T09:31:45Z</time>
      </trkpt>
      <trkpt lat="36.812147" lon="-2.639549">
        <ele>145.954</ele>
        <time>2021-06-16T09:31:46Z</time>
      </trkpt>
      <trkpt lat="36.812258" lon="-2.63976">
        <ele>146.141</ele>
        <time>2021-06-16T09:31:47Z</time>
      </trkpt>
      <trkpt lat="36.81248" lon="-2.640173">
        <ele>146.381</ele>
        <time>2021-06-16T09:31:49Z</time>
      </trkpt>
      <trkpt lat="36.812584" lon="-2.640384">
        <ele>146.709</ele>
        <time>2021-06-16T09:31:50Z</time>
      </trkpt>
      <trkpt lat="36.81278" lon="-2.640811">
        <ele>147.408</ele>
        <time>2021-06-16T09:31:52Z</time>
      </trkpt>
      <trkpt lat="36.812877" lon="-2.641026">
        <ele>148.251</ele>
        <time>2021-06-16T09:31:53Z</time>
      </trkpt>
      <trkpt lat="36.812972" lon="-2.641247">
        <ele>148.699</ele>
        <time>2021-06-16T09:31:54Z</time>
      </trkpt>
      <trkpt lat="36.813149" lon="-2.641697">
        <ele>148.963</ele>
        <time>2021-06-16T09:31:56Z</time>
      </trkpt>
      <trkpt lat="36.813234" lon="-2.64193">
        <ele>149.362</ele>
        <time>2021-06-16T09:31:57Z</time>
      </trkpt>
      <trkpt lat="36.813383" lon="-2.642403">
        <ele>150.665</ele>
        <time>2021-06-16T09:31:59Z</time>
      </trkpt>
      <trkpt lat="36.813503" lon="-2.642885">
        <ele>151.722</ele>
        <time>2021-06-16T09:32:01Z</time>
      </trkpt>
      <trkpt lat="36.813557" lon="-2.643125">
        <ele>152.659</ele>
        <time>2021-06-16T09:32:02Z</time>
      </trkpt>
      <trkpt lat="36.813661" lon="-2.643605">
        <ele>153.789</ele>
        <time>2021-06-16T09:32:04Z</time>
      </trkpt>
      <trkpt lat="36.813707" lon="-2.643844">
        <ele>154.895</ele>
        <time>2021-06-16T09:32:05Z</time>
      </trkpt>
      <trkpt lat="36.813748" lon="-2.644087">
        <ele>155.949</ele>
        <time>2021-06-16T09:32:06Z</time>
      </trkpt>
      <trkpt lat="36.813814" lon="-2.644581">
        <ele>157.023</ele>
        <time>2021-06-16T09:32:08Z</time>
      </trkpt>
      <trkpt lat="36.813865" lon="-2.645077">
        <ele>158.008</ele>
        <time>2021-06-16T09:32:10Z</time>
      </trkpt>
      <trkpt lat="36.813904" lon="-2.64558">
        <ele>159.236</ele>
        <time>2021-06-16T09:32:12Z</time>
      </trkpt>
      <trkpt lat="36.813918" lon="-2.645833">
        <ele>159.954</ele>
        <time>2021-06-16T09:32:13Z</time>
      </trkpt>
      <trkpt lat="36.813936" lon="-2.646323">
        <ele>161.158</ele>
        <time>2021-06-16T09:32:15Z</time>
      </trkpt>
      <trkpt lat="36.813938" lon="-2.646564">
        <ele>162.197</ele>
        <time>2021-06-16T09:32:16Z</time>
      </trkpt>
      <trkpt lat="36.813941" lon="-2.64681">
        <ele>162.920</ele>
        <time>2021-06-16T09:32:17Z</time>
      </trkpt>
      <trkpt lat="36.813944" lon="-2.64706">
        <ele>163.867</ele>
        <time>2021-06-16T09:32:18Z</time>
      </trkpt>
      <trkpt lat="36.813942" lon="-2.647559">
        <ele>164.444</ele>
        <time>2021-06-16T09:32:20Z</time>
      </trkpt>
      <trkpt lat="36.813937" lon="-2.647806">
        <ele>164.754</ele>
        <time>2021-06-16T09:32:21Z</time>
      </trkpt>
      <trkpt lat="36.813921" lon="-2.648314">
        <ele>165.484</ele>
        <time>2021-06-16T09:32:23Z</time>
      </trkpt>
      <trkpt lat="36.813894" lon="-2.648836">
        <ele>166.207</ele>
        <time>2021-06-16T09:32:25Z</time>
      </trkpt>
      <trkpt lat="36.813876" lon="-2.649098">
        <ele>166.417</ele>
        <time>2021-06-16T09:32:26Z</time>
      </trkpt>
      <trkpt lat="36.813829" lon="-2.649662">
        <ele>167.108</ele>
        <time>2021-06-16T09:32:28Z</time>
      </trkpt>
      <trkpt lat="36.813771" lon="-2.650149">
        <ele>168.065</ele>
        <time>2021-06-16T09:32:30Z</time>
      </trkpt>
      <trkpt lat="36.813701" lon="-2.650682">
        <ele>169.093</ele>
        <time>2021-06-16T09:32:32Z</time>
      </trkpt>
      <trkpt lat="36.813667" lon="-2.650941">
        <ele>169.677</ele>
        <time>2021-06-16T09:32:33Z</time>
      </trkpt>
      <trkpt lat="36.813633" lon="-2.651201">
        <ele>170.486</ele>
        <time>2021-06-16T09:32:34Z</time>
      </trkpt>
      <trkpt lat="36.813559" lon="-2.651748">
        <ele>170.949</ele>
        <time>2021-06-16T09:32:36Z</time>
      </trkpt>
      <trkpt lat="36.813493" lon="-2.652204">
        <ele>171.146</ele>
        <time>2021-06-16T09:32:38Z</time>
      </trkpt>
      <trkpt lat="36.813455" lon="-2.652459">
        <ele>171.763</ele>
        <time>2021-06-16T09:32:39Z</time>
      </trkpt>
      <trkpt lat="36.813376" lon="-2.652962">
        <ele>171.933</ele>
        <time>2021-06-16T09:32:41Z</time>
      </trkpt>
      <trkpt lat="36.813303" lon="-2.653461">
        <ele>172.275</ele>
        <time>2021-06-16T09:32:43Z</time>
      </trkpt>
      <trkpt lat="36.813234" lon="-2.653999">
        <ele>172.528</ele>
        <time>2021-06-16T09:32:45Z</time>
      </trkpt>
      <trkpt lat="36.813184" lon="-2.654466">
        <ele>172.720</ele>
        <time>2021-06-16T09:32:47Z</time>
      </trkpt>
      <trkpt lat="36.813138" lon="-2.654994">
        <ele>173.008</ele>
        <time>2021-06-16T09:32:49Z</time>
      </trkpt>
      <trkpt lat="36.813105" lon="-2.655493">
        <ele>173.154</ele>
        <time>2021-06-16T09:32:51Z</time>
      </trkpt>
      <trkpt lat="36.81309" lon="-2.655755">
        <ele>173.212</ele>
        <time>2021-06-16T09:32:52Z</time>
      </trkpt>
      <trkpt lat="36.81308" lon="-2.656015">
        <ele>173.126</ele>
        <time>2021-06-16T09:32:53Z</time>
      </trkpt>
      <trkpt lat="36.81307" lon="-2.656275">
        <ele>173.145</ele>
        <time>2021-06-16T09:32:54Z</time>
      </trkpt>
      <trkpt lat="36.813057" lon="-2.656796">
        <ele>173.358</ele>
        <time>2021-06-16T09:32:56Z</time>
      </trkpt>
      <trkpt lat="36.813055" lon="-2.657057">
        <ele>173.765</ele>
        <time>2021-06-16T09:32:57Z</time>
      </trkpt>
      <trkpt lat="36.813054" lon="-2.657314">
        <ele>173.882</ele>
        <time>2021-06-16T09:32:58Z</time>
      </trkpt>
      <trkpt lat="36.813055" lon="-2.657566">
        <ele>174.042</ele>
        <time>2021-06-16T09:32:59Z</time>
      </trkpt>
      <trkpt lat="36.813053" lon="-2.658064">
        <ele>174.444</ele>
        <time>2021-06-16T09:33:01Z</time>
      </trkpt>
      <trkpt lat="36.81305" lon="-2.658348">
        <ele>175.205</ele>
        <time>2021-06-16T09:33:02Z</time>
      </trkpt>
      <trkpt lat="36.813036" lon="-2.658803">
        <ele>175.315</ele>
        <time>2021-06-16T09:33:04Z</time>
      </trkpt>
      <trkpt lat="36.813021" lon="-2.659055">
        <ele>175.308</ele>
        <time>2021-06-16T09:33:05Z</time>
      </trkpt>
      <trkpt lat="36.813007" lon="-2.659306">
        <ele>175.121</ele>
        <time>2021-06-16T09:33:06Z</time>
      </trkpt>
      <trkpt lat="36.81299" lon="-2.659588">
        <ele>174.579</ele>
        <time>2021-06-16T09:33:07Z</time>
      </trkpt>
      <trkpt lat="36.812936" lon="-2.660047">
        <ele>174.423</ele>
        <time>2021-06-16T09:33:09Z</time>
      </trkpt>
      <trkpt lat="36.812895" lon="-2.660296">
        <ele>174.542</ele>
        <time>2021-06-16T09:33:10Z</time>
      </trkpt>
      <trkpt lat="36.812842" lon="-2.660568">
        <ele>174.375</ele>
        <time>2021-06-16T09:33:11Z</time>
      </trkpt>
      <trkpt lat="36.812743" lon="-2.660998">
        <ele>174.332</ele>
        <time>2021-06-16T09:33:13Z</time>
      </trkpt>
      <trkpt lat="36.812687" lon="-2.661227">
        <ele>174.019</ele>
        <time>2021-06-16T09:33:14Z</time>
      </trkpt>
      <trkpt lat="36.812628" lon="-2.661455">
        <ele>173.779</ele>
        <time>2021-06-16T09:33:15Z</time>
      </trkpt>
      <trkpt lat="36.812556" lon="-2.661714">
        <ele>173.374</ele>
        <time>2021-06-16T09:33:16Z</time>
      </trkpt>
      <trkpt lat="36.812428" lon="-2.662126">
        <ele>173.256</ele>
        <time>2021-06-16T09:33:18Z</time>
      </trkpt>
      <trkpt lat="36.812349" lon="-2.662354">
        <ele>173.521</ele>
        <time>2021-06-16T09:33:19Z</time>
      </trkpt>
      <trkpt lat="36.812258" lon="-2.662601">
        <ele>173.208</ele>
        <time>2021-06-16T09:33:20Z</time>
      </trkpt>
      <trkpt lat="36.812093" lon="-2.663001">
        <ele>173.234</ele>
        <time>2021-06-16T09:33:22Z</time>
      </trkpt>
      <trkpt lat="36.811907" lon="-2.663432">
        <ele>172.892</ele>
        <time>2021-06-16T09:33:24Z</time>
      </trkpt>
      <trkpt lat="36.811807" lon="-2.663663">
        <ele>172.716</ele>
        <time>2021-06-16T09:33:25Z</time>
      </trkpt>
      <trkpt lat="36.811623" lon="-2.664024">
        <ele>172.525</ele>
        <time>2021-06-16T09:33:27Z</time>
      </trkpt>
      <trkpt lat="36.811414" lon="-2.664425">
        <ele>172.418</ele>
        <time>2021-06-16T09:33:29Z</time>
      </trkpt>
      <trkpt lat="36.811191" lon="-2.664816">
        <ele>172.125</ele>
        <time>2021-06-16T09:33:31Z</time>
      </trkpt>
      <trkpt lat="36.811078" lon="-2.665004">
        <ele>172.192</ele>
        <time>2021-06-16T09:33:32Z</time>
      </trkpt>
      <trkpt lat="36.810835" lon="-2.6654">
        <ele>172.532</ele>
        <time>2021-06-16T09:33:34Z</time>
      </trkpt>
      <trkpt lat="36.810619" lon="-2.665742">
        <ele>173.472</ele>
        <time>2021-06-16T09:33:36Z</time>
      </trkpt>
      <trkpt lat="36.810499" lon="-2.665926">
        <ele>174.213</ele>
        <time>2021-06-16T09:33:37Z</time>
      </trkpt>
      <trkpt lat="36.81037" lon="-2.666122">
        <ele>174.814</ele>
        <time>2021-06-16T09:33:38Z</time>
      </trkpt>
      <trkpt lat="36.810133" lon="-2.666465">
        <ele>175.408</ele>
        <time>2021-06-16T09:33:40Z</time>
      </trkpt>
      <trkpt lat="36.810005" lon="-2.666642">
        <ele>176.114</ele>
        <time>2021-06-16T09:33:41Z</time>
      </trkpt>
      <trkpt lat="36.809732" lon="-2.66701">
        <ele>176.892</ele>
        <time>2021-06-16T09:33:43Z</time>
      </trkpt>
      <trkpt lat="36.809486" lon="-2.667325">
        <ele>177.826</ele>
        <time>2021-06-16T09:33:45Z</time>
      </trkpt>
      <trkpt lat="36.809346" lon="-2.667496">
        <ele>179.285</ele>
        <time>2021-06-16T09:33:46Z</time>
      </trkpt>
      <trkpt lat="36.809189" lon="-2.667686">
        <ele>180.058</ele>
        <time>2021-06-16T09:33:47Z</time>
      </trkpt>
      <trkpt lat="36.808934" lon="-2.667993">
        <ele>181.185</ele>
        <time>2021-06-16T09:33:49Z</time>
      </trkpt>
      <trkpt lat="36.808642" lon="-2.668327">
        <ele>182.032</ele>
        <time>2021-06-16T09:33:51Z</time>
      </trkpt>
      <trkpt lat="36.808471" lon="-2.668511">
        <ele>182.942</ele>
        <time>2021-06-16T09:33:52Z</time>
      </trkpt>
      <trkpt lat="36.808192" lon="-2.668802">
        <ele>184.152</ele>
        <time>2021-06-16T09:33:54Z</time>
      </trkpt>
      <trkpt lat="36.808038" lon="-2.66896">
        <ele>184.953</ele>
        <time>2021-06-16T09:33:55Z</time>
      </trkpt>
      <trkpt lat="36.807867" lon="-2.669136">
        <ele>185.308</ele>
        <time>2021-06-16T09:33:56Z</time>
      </trkpt>
      <trkpt lat="36.807586" lon="-2.66943">
        <ele>186.208</ele>
        <time>2021-06-16T09:33:58Z</time>
      </trkpt>
      <trkpt lat="36.80743" lon="-2.669591">
        <ele>187.052</ele>
        <time>2021-06-16T09:33:59Z</time>
      </trkpt>
      <trkpt lat="36.807113" lon="-2.66994">
        <ele>187.980</ele>
        <time>2021-06-16T09:34:01Z</time>
      </trkpt>
      <trkpt lat="36.806844" lon="-2.670256">
        <ele>188.774</ele>
        <time>2021-06-16T09:34:03Z</time>
      </trkpt>
      <trkpt lat="36.806698" lon="-2.670437">
        <ele>189.333</ele>
        <time>2021-06-16T09:34:04Z</time>
      </trkpt>
      <trkpt lat="36.806539" lon="-2.670642">
        <ele>189.716</ele>
        <time>2021-06-16T09:34:05Z</time>
      </trkpt>
      <trkpt lat="36.806296" lon="-2.671">
        <ele>190.233</ele>
        <time>2021-06-16T09:34:07Z</time>
      </trkpt>
      <trkpt lat="36.806165" lon="-2.671202">
        <ele>190.690</ele>
        <time>2021-06-16T09:34:08Z</time>
      </trkpt>
      <trkpt lat="36.805892" lon="-2.671629">
        <ele>191.550</ele>
        <time>2021-06-16T09:34:10Z</time>
      </trkpt>
      <trkpt lat="36.805663" lon="-2.672006">
        <ele>192.358</ele>
        <time>2021-06-16T09:34:12Z</time>
      </trkpt>
      <trkpt lat="36.805395" lon="-2.672446">
        <ele>192.452</ele>
        <time>2021-06-16T09:34:14Z</time>
      </trkpt>
      <trkpt lat="36.805164" lon="-2.672834">
        <ele>192.717</ele>
        <time>2021-06-16T09:34:16Z</time>
      </trkpt>
      <trkpt lat="36.805036" lon="-2.673052">
        <ele>192.608</ele>
        <time>2021-06-16T09:34:17Z</time>
      </trkpt>
      <trkpt lat="36.804769" lon="-2.673508">
        <ele>192.222</ele>
        <time>2021-06-16T09:34:19Z</time>
      </trkpt>
      <trkpt lat="36.804537" lon="-2.673887">
        <ele>192.380</ele>
        <time>2021-06-16T09:34:21Z</time>
      </trkpt>
      <trkpt lat="36.804408" lon="-2.674094">
        <ele>192.564</ele>
        <time>2021-06-16T09:34:22Z</time>
      </trkpt>
      <trkpt lat="36.804266" lon="-2.674317">
        <ele>192.453</ele>
        <time>2021-06-16T09:34:23Z</time>
      </trkpt>
      <trkpt lat="36.804032" lon="-2.674664">
        <ele>192.596</ele>
        <time>2021-06-16T09:34:25Z</time>
      </trkpt>
      <trkpt lat="36.803765" lon="-2.675034">
        <ele>192.353</ele>
        <time>2021-06-16T09:34:27Z</time>
      </trkpt>
      <trkpt lat="36.803613" lon="-2.67524">
        <ele>192.210</ele>
        <time>2021-06-16T09:34:28Z</time>
      </trkpt>
      <trkpt lat="36.803362" lon="-2.675567">
        <ele>192.270</ele>
        <time>2021-06-16T09:34:30Z</time>
      </trkpt>
      <trkpt lat="36.803221" lon="-2.675746">
        <ele>191.852</ele>
        <time>2021-06-16T09:34:31Z</time>
      </trkpt>
      <trkpt lat="36.803075" lon="-2.675931">
        <ele>191.453</ele>
        <time>2021-06-16T09:34:32Z</time>
      </trkpt>
      <trkpt lat="36.802794" lon="-2.676272">
        <ele>190.708</ele>
        <time>2021-06-16T09:34:34Z</time>
      </trkpt>
      <trkpt lat="36.802649" lon="-2.676443">
        <ele>190.308</ele>
        <time>2021-06-16T09:34:35Z</time>
      </trkpt>
      <trkpt lat="36.802505" lon="-2.676612">
        <ele>189.882</ele>
        <time>2021-06-16T09:34:36Z</time>
      </trkpt>
      <trkpt lat="36.802361" lon="-2.676779">
        <ele>189.120</ele>
        <time>2021-06-16T09:34:37Z</time>
      </trkpt>
      <trkpt lat="36.802218" lon="-2.676946">
        <ele>188.644</ele>
        <time>2021-06-16T09:34:38Z</time>
      </trkpt>
      <trkpt lat="36.802074" lon="-2.677111">
        <ele>188.223</ele>
        <time>2021-06-16T09:34:39Z</time>
      </trkpt>
      <trkpt lat="36.801768" lon="-2.677464">
        <ele>187.476</ele>
        <time>2021-06-16T09:34:41Z</time>
      </trkpt>
      <trkpt lat="36.801505" lon="-2.677761">
        <ele>186.163</ele>
        <time>2021-06-16T09:34:43Z</time>
      </trkpt>
      <trkpt lat="36.801359" lon="-2.677927">
        <ele>185.280</ele>
        <time>2021-06-16T09:34:44Z</time>
      </trkpt>
      <trkpt lat="36.801073" lon="-2.678261">
        <ele>184.450</ele>
        <time>2021-06-16T09:34:46Z</time>
      </trkpt>
      <trkpt lat="36.800787" lon="-2.6786">
        <ele>183.982</ele>
        <time>2021-06-16T09:34:48Z</time>
      </trkpt>
      <trkpt lat="36.800504" lon="-2.678948">
        <ele>183.343</ele>
        <time>2021-06-16T09:34:50Z</time>
      </trkpt>
      <trkpt lat="36.800231" lon="-2.679309">
        <ele>182.017</ele>
        <time>2021-06-16T09:34:52Z</time>
      </trkpt>
      <trkpt lat="36.799959" lon="-2.67968">
        <ele>180.508</ele>
        <time>2021-06-16T09:34:54Z</time>
      </trkpt>
      <trkpt lat="36.799687" lon="-2.680061">
        <ele>179.325</ele>
        <time>2021-06-16T09:34:56Z</time>
      </trkpt>
      <trkpt lat="36.799555" lon="-2.680257">
        <ele>178.073</ele>
        <time>2021-06-16T09:34:57Z</time>
      </trkpt>
      <trkpt lat="36.799424" lon="-2.68045">
        <ele>176.857</ele>
        <time>2021-06-16T09:34:58Z</time>
      </trkpt>
      <trkpt lat="36.799169" lon="-2.680842">
        <ele>175.616</ele>
        <time>2021-06-16T09:35:00Z</time>
      </trkpt>
      <trkpt lat="36.799035" lon="-2.681043">
        <ele>174.779</ele>
        <time>2021-06-16T09:35:01Z</time>
      </trkpt>
      <trkpt lat="36.798901" lon="-2.68125">
        <ele>174.076</ele>
        <time>2021-06-16T09:35:02Z</time>
      </trkpt>
      <trkpt lat="36.798769" lon="-2.681456">
        <ele>173.523</ele>
        <time>2021-06-16T09:35:03Z</time>
      </trkpt>
      <trkpt lat="36.79864" lon="-2.681654">
        <ele>172.663</ele>
        <time>2021-06-16T09:35:04Z</time>
      </trkpt>
      <trkpt lat="36.798377" lon="-2.682044">
        <ele>171.424</ele>
        <time>2021-06-16T09:35:06Z</time>
      </trkpt>
      <trkpt lat="36.798242" lon="-2.68224">
        <ele>170.304</ele>
        <time>2021-06-16T09:35:07Z</time>
      </trkpt>
      <trkpt lat="36.798107" lon="-2.682432">
        <ele>169.614</ele>
        <time>2021-06-16T09:35:08Z</time>
      </trkpt>
      <trkpt lat="36.797973" lon="-2.682624">
        <ele>169.208</ele>
        <time>2021-06-16T09:35:09Z</time>
      </trkpt>
      <trkpt lat="36.797837" lon="-2.682815">
        <ele>168.759</ele>
        <time>2021-06-16T09:35:10Z</time>
      </trkpt>
      <trkpt lat="36.797559" lon="-2.683187">
        <ele>168.227</ele>
        <time>2021-06-16T09:35:12Z</time>
      </trkpt>
      <trkpt lat="36.797276" lon="-2.683533">
        <ele>168.061</ele>
        <time>2021-06-16T09:35:14Z</time>
      </trkpt>
      <trkpt lat="36.797136" lon="-2.683699">
        <ele>167.960</ele>
        <time>2021-06-16T09:35:15Z</time>
      </trkpt>
      <trkpt lat="36.796995" lon="-2.683868">
        <ele>167.643</ele>
        <time>2021-06-16T09:35:16Z</time>
      </trkpt>
      <trkpt lat="36.796857" lon="-2.684034">
        <ele>167.590</ele>
        <time>2021-06-16T09:35:17Z</time>
      </trkpt>
      <trkpt lat="36.79672" lon="-2.684199">
        <ele>167.637</ele>
        <time>2021-06-16T09:35:18Z</time>
      </trkpt>
      <trkpt lat="36.79645" lon="-2.684527">
        <ele>167.557</ele>
        <time>2021-06-16T09:35:20Z</time>
      </trkpt>
      <trkpt lat="36.796316" lon="-2.684691">
        <ele>167.036</ele>
        <time>2021-06-16T09:35:21Z</time>
      </trkpt>
      <trkpt lat="36.796052" lon="-2.685026">
        <ele>166.517</ele>
        <time>2021-06-16T09:35:23Z</time>
      </trkpt>
      <trkpt lat="36.795791" lon="-2.685362">
        <ele>166.318</ele>
        <time>2021-06-16T09:35:25Z</time>
      </trkpt>
      <trkpt lat="36.79554" lon="-2.685704">
        <ele>166.808</ele>
        <time>2021-06-16T09:35:27Z</time>
      </trkpt>
      <trkpt lat="36.795422" lon="-2.685884">
        <ele>166.920</ele>
        <time>2021-06-16T09:35:28Z</time>
      </trkpt>
      <trkpt lat="36.795198" lon="-2.686263">
        <ele>166.978</ele>
        <time>2021-06-16T09:35:30Z</time>
      </trkpt>
      <trkpt lat="36.794985" lon="-2.686655">
        <ele>167.122</ele>
        <time>2021-06-16T09:35:32Z</time>
      </trkpt>
      <trkpt lat="36.794884" lon="-2.68685">
        <ele>167.461</ele>
        <time>2021-06-16T09:35:33Z</time>
      </trkpt>
      <trkpt lat="36.794699" lon="-2.687245">
        <ele>168.224</ele>
        <time>2021-06-16T09:35:35Z</time>
      </trkpt>
      <trkpt lat="36.794607" lon="-2.687449">
        <ele>168.411</ele>
        <time>2021-06-16T09:35:36Z</time>
      </trkpt>
      <trkpt lat="36.794516" lon="-2.687656">
        <ele>168.898</ele>
        <time>2021-06-16T09:35:37Z</time>
      </trkpt>
      <trkpt lat="36.794353" lon="-2.688068">
        <ele>168.458</ele>
        <time>2021-06-16T09:35:39Z</time>
      </trkpt>
      <trkpt lat="36.794283" lon="-2.688283">
        <ele>168.498</ele>
        <time>2021-06-16T09:35:40Z</time>
      </trkpt>
      <trkpt lat="36.79415" lon="-2.688723">
        <ele>168.515</ele>
        <time>2021-06-16T09:35:42Z</time>
      </trkpt>
      <trkpt lat="36.794089" lon="-2.688952">
        <ele>168.826</ele>
        <time>2021-06-16T09:35:43Z</time>
      </trkpt>
      <trkpt lat="36.794029" lon="-2.689181">
        <ele>168.908</ele>
        <time>2021-06-16T09:35:44Z</time>
      </trkpt>
      <trkpt lat="36.793919" lon="-2.68964">
        <ele>169.626</ele>
        <time>2021-06-16T09:35:46Z</time>
      </trkpt>
      <trkpt lat="36.793874" lon="-2.689874">
        <ele>169.934</ele>
        <time>2021-06-16T09:35:47Z</time>
      </trkpt>
      <trkpt lat="36.793798" lon="-2.690352">
        <ele>170.268</ele>
        <time>2021-06-16T09:35:49Z</time>
      </trkpt>
      <trkpt lat="36.793758" lon="-2.690592">
        <ele>170.587</ele>
        <time>2021-06-16T09:35:50Z</time>
      </trkpt>
      <trkpt lat="36.79368" lon="-2.691076">
        <ele>170.950</ele>
        <time>2021-06-16T09:35:52Z</time>
      </trkpt>
      <trkpt lat="36.793643" lon="-2.69132">
        <ele>171.237</ele>
        <time>2021-06-16T09:35:53Z</time>
      </trkpt>
      <trkpt lat="36.793605" lon="-2.691565">
        <ele>171.324</ele>
        <time>2021-06-16T09:35:54Z</time>
      </trkpt>
      <trkpt lat="36.793565" lon="-2.69181">
        <ele>171.594</ele>
        <time>2021-06-16T09:35:55Z</time>
      </trkpt>
      <trkpt lat="36.793484" lon="-2.692298">
        <ele>171.826</ele>
        <time>2021-06-16T09:35:57Z</time>
      </trkpt>
      <trkpt lat="36.793399" lon="-2.692783">
        <ele>171.747</ele>
        <time>2021-06-16T09:35:59Z</time>
      </trkpt>
      <trkpt lat="36.793358" lon="-2.693029">
        <ele>171.711</ele>
        <time>2021-06-16T09:36:00Z</time>
      </trkpt>
      <trkpt lat="36.79328" lon="-2.69352">
        <ele>172.108</ele>
        <time>2021-06-16T09:36:02Z</time>
      </trkpt>
      <trkpt lat="36.793201" lon="-2.694007">
        <ele>172.399</ele>
        <time>2021-06-16T09:36:04Z</time>
      </trkpt>
      <trkpt lat="36.793117" lon="-2.694484">
        <ele>172.387</ele>
        <time>2021-06-16T09:36:06Z</time>
      </trkpt>
      <trkpt lat="36.793081" lon="-2.694726">
        <ele>172.591</ele>
        <time>2021-06-16T09:36:07Z</time>
      </trkpt>
      <trkpt lat="36.793049" lon="-2.694966">
        <ele>173.030</ele>
        <time>2021-06-16T09:36:08Z</time>
      </trkpt>
      <trkpt lat="36.792972" lon="-2.695455">
        <ele>173.413</ele>
        <time>2021-06-16T09:36:10Z</time>
      </trkpt>
      <trkpt lat="36.792884" lon="-2.695933">
        <ele>173.920</ele>
        <time>2021-06-16T09:36:12Z</time>
      </trkpt>
      <trkpt lat="36.792805" lon="-2.696409">
        <ele>173.797</ele>
        <time>2021-06-16T09:36:14Z</time>
      </trkpt>
      <trkpt lat="36.792768" lon="-2.696653">
        <ele>173.147</ele>
        <time>2021-06-16T09:36:15Z</time>
      </trkpt>
      <trkpt lat="36.792703" lon="-2.697141">
        <ele>173.133</ele>
        <time>2021-06-16T09:36:17Z</time>
      </trkpt>
      <trkpt lat="36.792666" lon="-2.697383">
        <ele>173.323</ele>
        <time>2021-06-16T09:36:18Z</time>
      </trkpt>
      <trkpt lat="36.792581" lon="-2.697874">
        <ele>173.915</ele>
        <time>2021-06-16T09:36:20Z</time>
      </trkpt>
      <trkpt lat="36.79254" lon="-2.698123">
        <ele>174.308</ele>
        <time>2021-06-16T09:36:21Z</time>
      </trkpt>
      <trkpt lat="36.792457" lon="-2.698616">
        <ele>174.440</ele>
        <time>2021-06-16T09:36:23Z</time>
      </trkpt>
      <trkpt lat="36.792413" lon="-2.698862">
        <ele>174.128</ele>
        <time>2021-06-16T09:36:24Z</time>
      </trkpt>
      <trkpt lat="36.792332" lon="-2.699353">
        <ele>173.742</ele>
        <time>2021-06-16T09:36:26Z</time>
      </trkpt>
      <trkpt lat="36.79225" lon="-2.699841">
        <ele>173.741</ele>
        <time>2021-06-16T09:36:28Z</time>
      </trkpt>
      <trkpt lat="36.792167" lon="-2.700323">
        <ele>173.394</ele>
        <time>2021-06-16T09:36:30Z</time>
      </trkpt>
      <trkpt lat="36.792123" lon="-2.700563">
        <ele>172.951</ele>
        <time>2021-06-16T09:36:31Z</time>
      </trkpt>
      <trkpt lat="36.792048" lon="-2.701044">
        <ele>172.628</ele>
        <time>2021-06-16T09:36:33Z</time>
      </trkpt>
      <trkpt lat="36.791974" lon="-2.701527">
        <ele>172.448</ele>
        <time>2021-06-16T09:36:35Z</time>
      </trkpt>
      <trkpt lat="36.79189" lon="-2.702009">
        <ele>171.728</ele>
        <time>2021-06-16T09:36:37Z</time>
      </trkpt>
      <trkpt lat="36.791851" lon="-2.702253">
        <ele>171.489</ele>
        <time>2021-06-16T09:36:38Z</time>
      </trkpt>
      <trkpt lat="36.791773" lon="-2.702741">
        <ele>170.117</ele>
        <time>2021-06-16T09:36:40Z</time>
      </trkpt>
      <trkpt lat="36.791693" lon="-2.70323">
        <ele>169.608</ele>
        <time>2021-06-16T09:36:42Z</time>
      </trkpt>
      <trkpt lat="36.791652" lon="-2.703477">
        <ele>168.849</ele>
        <time>2021-06-16T09:36:43Z</time>
      </trkpt>
      <trkpt lat="36.791611" lon="-2.703723">
        <ele>168.117</ele>
        <time>2021-06-16T09:36:44Z</time>
      </trkpt>
      <trkpt lat="36.791573" lon="-2.703963">
        <ele>167.451</ele>
        <time>2021-06-16T09:36:45Z</time>
      </trkpt>
      <trkpt lat="36.791536" lon="-2.704203">
        <ele>166.890</ele>
        <time>2021-06-16T09:36:46Z</time>
      </trkpt>
      <trkpt lat="36.791455" lon="-2.704678">
        <ele>165.633</ele>
        <time>2021-06-16T09:36:48Z</time>
      </trkpt>
      <trkpt lat="36.791416" lon="-2.704918">
        <ele>164.760</ele>
        <time>2021-06-16T09:36:49Z</time>
      </trkpt>
      <trkpt lat="36.791339" lon="-2.705397">
        <ele>163.857</ele>
        <time>2021-06-16T09:36:51Z</time>
      </trkpt>
      <trkpt lat="36.791261" lon="-2.705865">
        <ele>163.567</ele>
        <time>2021-06-16T09:36:53Z</time>
      </trkpt>
      <trkpt lat="36.791217" lon="-2.706099">
        <ele>162.821</ele>
        <time>2021-06-16T09:36:54Z</time>
      </trkpt>
      <trkpt lat="36.79114" lon="-2.706575">
        <ele>161.841</ele>
        <time>2021-06-16T09:36:56Z</time>
      </trkpt>
      <trkpt lat="36.791103" lon="-2.706808">
        <ele>160.905</ele>
        <time>2021-06-16T09:36:57Z</time>
      </trkpt>
      <trkpt lat="36.791023" lon="-2.707274">
        <ele>159.808</ele>
        <time>2021-06-16T09:36:59Z</time>
      </trkpt>
      <trkpt lat="36.790984" lon="-2.707511">
        <ele>159.199</ele>
        <time>2021-06-16T09:37:00Z</time>
      </trkpt>
      <trkpt lat="36.790907" lon="-2.707974">
        <ele>158.247</ele>
        <time>2021-06-16T09:37:02Z</time>
      </trkpt>
      <trkpt lat="36.79087" lon="-2.708207">
        <ele>157.621</ele>
        <time>2021-06-16T09:37:03Z</time>
      </trkpt>
      <trkpt lat="36.790795" lon="-2.708675">
        <ele>156.620</ele>
        <time>2021-06-16T09:37:05Z</time>
      </trkpt>
      <trkpt lat="36.790708" lon="-2.709163">
        <ele>156.013</ele>
        <time>2021-06-16T09:37:07Z</time>
      </trkpt>
      <trkpt lat="36.790631" lon="-2.709642">
        <ele>155.620</ele>
        <time>2021-06-16T09:37:09Z</time>
      </trkpt>
      <trkpt lat="36.790591" lon="-2.709887">
        <ele>155.657</ele>
        <time>2021-06-16T09:37:10Z</time>
      </trkpt>
      <trkpt lat="36.790511" lon="-2.710366">
        <ele>154.827</ele>
        <time>2021-06-16T09:37:12Z</time>
      </trkpt>
      <trkpt lat="36.790469" lon="-2.710606">
        <ele>154.216</ele>
        <time>2021-06-16T09:37:13Z</time>
      </trkpt>
      <trkpt lat="36.790397" lon="-2.711088">
        <ele>153.476</ele>
        <time>2021-06-16T09:37:15Z</time>
      </trkpt>
      <trkpt lat="36.790361" lon="-2.711327">
        <ele>152.513</ele>
        <time>2021-06-16T09:37:16Z</time>
      </trkpt>
      <trkpt lat="36.790322" lon="-2.711569">
        <ele>152.108</ele>
        <time>2021-06-16T09:37:17Z</time>
      </trkpt>
      <trkpt lat="36.790243" lon="-2.712058">
        <ele>150.958</ele>
        <time>2021-06-16T09:37:19Z</time>
      </trkpt>
      <trkpt lat="36.790205" lon="-2.712304">
        <ele>150.386</ele>
        <time>2021-06-16T09:37:20Z</time>
      </trkpt>
      <trkpt lat="36.790126" lon="-2.712781">
        <ele>149.020</ele>
        <time>2021-06-16T09:37:22Z</time>
      </trkpt>
      <trkpt lat="36.790086" lon="-2.713025">
        <ele>147.829</ele>
        <time>2021-06-16T09:37:23Z</time>
      </trkpt>
      <trkpt lat="36.790044" lon="-2.713269">
        <ele>146.882</ele>
        <time>2021-06-16T09:37:24Z</time>
      </trkpt>
      <trkpt lat="36.789959" lon="-2.713755">
        <ele>145.449</ele>
        <time>2021-06-16T09:37:26Z</time>
      </trkpt>
      <trkpt lat="36.789881" lon="-2.714247">
        <ele>144.226</ele>
        <time>2021-06-16T09:37:28Z</time>
      </trkpt>
      <trkpt lat="36.7898" lon="-2.714746">
        <ele>142.656</ele>
        <time>2021-06-16T09:37:30Z</time>
      </trkpt>
      <trkpt lat="36.789757" lon="-2.715">
        <ele>141.621</ele>
        <time>2021-06-16T09:37:31Z</time>
      </trkpt>
      <trkpt lat="36.789673" lon="-2.715498">
        <ele>140.741</ele>
        <time>2021-06-16T09:37:33Z</time>
      </trkpt>
      <trkpt lat="36.789628" lon="-2.715748">
        <ele>140.105</ele>
        <time>2021-06-16T09:37:34Z</time>
      </trkpt>
      <trkpt lat="36.789585" lon="-2.716">
        <ele>140.208</ele>
        <time>2021-06-16T09:37:35Z</time>
      </trkpt>
      <trkpt lat="36.789545" lon="-2.716245">
        <ele>139.829</ele>
        <time>2021-06-16T09:37:36Z</time>
      </trkpt>
      <trkpt lat="36.789462" lon="-2.716732">
        <ele>138.717</ele>
        <time>2021-06-16T09:37:38Z</time>
      </trkpt>
      <trkpt lat="36.78942" lon="-2.716974">
        <ele>137.831</ele>
        <time>2021-06-16T09:37:39Z</time>
      </trkpt>
      <trkpt lat="36.789384" lon="-2.717215">
        <ele>137.160</ele>
        <time>2021-06-16T09:37:40Z</time>
      </trkpt>
      <trkpt lat="36.789313" lon="-2.71769">
        <ele>136.523</ele>
        <time>2021-06-16T09:37:42Z</time>
      </trkpt>
      <trkpt lat="36.789275" lon="-2.717927">
        <ele>136.310</ele>
        <time>2021-06-16T09:37:43Z</time>
      </trkpt>
      <trkpt lat="36.789201" lon="-2.718395">
        <ele>135.997</ele>
        <time>2021-06-16T09:37:45Z</time>
      </trkpt>
      <trkpt lat="36.789162" lon="-2.718624">
        <ele>135.567</ele>
        <time>2021-06-16T09:37:46Z</time>
      </trkpt>
      <trkpt lat="36.789117" lon="-2.718855">
        <ele>135.657</ele>
        <time>2021-06-16T09:37:47Z</time>
      </trkpt>
      <trkpt lat="36.789047" lon="-2.719327">
        <ele>135.300</ele>
        <time>2021-06-16T09:37:49Z</time>
      </trkpt>
      <trkpt lat="36.789006" lon="-2.719563">
        <ele>135.420</ele>
        <time>2021-06-16T09:37:50Z</time>
      </trkpt>
      <trkpt lat="36.788926" lon="-2.720031">
        <ele>134.908</ele>
        <time>2021-06-16T09:37:52Z</time>
      </trkpt>
      <trkpt lat="36.788846" lon="-2.720503">
        <ele>134.572</ele>
        <time>2021-06-16T09:37:54Z</time>
      </trkpt>
      <trkpt lat="36.788778" lon="-2.720971">
        <ele>134.060</ele>
        <time>2021-06-16T09:37:56Z</time>
      </trkpt>
      <trkpt lat="36.78874" lon="-2.721209">
        <ele>134.024</ele>
        <time>2021-06-16T09:37:57Z</time>
      </trkpt>
      <trkpt lat="36.78867" lon="-2.721677">
        <ele>133.143</ele>
        <time>2021-06-16T09:37:59Z</time>
      </trkpt>
      <trkpt lat="36.788633" lon="-2.721918">
        <ele>132.756</ele>
        <time>2021-06-16T09:38:00Z</time>
      </trkpt>
      <trkpt lat="36.788594" lon="-2.722156">
        <ele>132.533</ele>
        <time>2021-06-16T09:38:01Z</time>
      </trkpt>
      <trkpt lat="36.788511" lon="-2.722629">
        <ele>132.240</ele>
        <time>2021-06-16T09:38:03Z</time>
      </trkpt>
      <trkpt lat="36.788467" lon="-2.722868">
        <ele>132.450</ele>
        <time>2021-06-16T09:38:04Z</time>
      </trkpt>
      <trkpt lat="36.788423" lon="-2.723106">
        <ele>132.034</ele>
        <time>2021-06-16T09:38:05Z</time>
      </trkpt>
      <trkpt lat="36.78838" lon="-2.723342">
        <ele>131.455</ele>
        <time>2021-06-16T09:38:06Z</time>
      </trkpt>
      <trkpt lat="36.788293" lon="-2.72382">
        <ele>130.810</ele>
        <time>2021-06-16T09:38:08Z</time>
      </trkpt>
      <trkpt lat="36.788215" lon="-2.724297">
        <ele>130.108</ele>
        <time>2021-06-16T09:38:10Z</time>
      </trkpt>
      <trkpt lat="36.788176" lon="-2.724538">
        <ele>129.680</ele>
        <time>2021-06-16T09:38:11Z</time>
      </trkpt>
      <trkpt lat="36.7881" lon="-2.725015">
        <ele>129.078</ele>
        <time>2021-06-16T09:38:13Z</time>
      </trkpt>
      <trkpt lat="36.788028" lon="-2.725488">
        <ele>128.372</ele>
        <time>2021-06-16T09:38:15Z</time>
      </trkpt>
      <trkpt lat="36.787992" lon="-2.725722">
        <ele>127.921</ele>
        <time>2021-06-16T09:38:16Z</time>
      </trkpt>
      <trkpt lat="36.787955" lon="-2.725953">
        <ele>127.774</ele>
        <time>2021-06-16T09:38:17Z</time>
      </trkpt>
      <trkpt lat="36.787884" lon="-2.726401">
        <ele>127.211</ele>
        <time>2021-06-16T09:38:19Z</time>
      </trkpt>
      <trkpt lat="36.787845" lon="-2.726628">
        <ele>126.858</ele>
        <time>2021-06-16T09:38:20Z</time>
      </trkpt>
      <trkpt lat="36.78777" lon="-2.727099">
        <ele>126.158</ele>
        <time>2021-06-16T09:38:22Z</time>
      </trkpt>
      <trkpt lat="36.787692" lon="-2.727568">
        <ele>125.411</ele>
        <time>2021-06-16T09:38:24Z</time>
      </trkpt>
      <trkpt lat="36.787649" lon="-2.727808">
        <ele>125.021</ele>
        <time>2021-06-16T09:38:25Z</time>
      </trkpt>
      <trkpt lat="36.787572" lon="-2.728288">
        <ele>123.903</ele>
        <time>2021-06-16T09:38:27Z</time>
      </trkpt>
      <trkpt lat="36.787531" lon="-2.728532">
        <ele>123.008</ele>
        <time>2021-06-16T09:38:28Z</time>
      </trkpt>
      <trkpt lat="36.787451" lon="-2.729017">
        <ele>121.998</ele>
        <time>2021-06-16T09:38:30Z</time>
      </trkpt>
      <trkpt lat="36.787411" lon="-2.729258">
        <ele>121.636</ele>
        <time>2021-06-16T09:38:31Z</time>
      </trkpt>
      <trkpt lat="36.787369" lon="-2.729504">
        <ele>120.850</ele>
        <time>2021-06-16T09:38:32Z</time>
      </trkpt>
      <trkpt lat="36.787289" lon="-2.729986">
        <ele>119.949</ele>
        <time>2021-06-16T09:38:34Z</time>
      </trkpt>
      <trkpt lat="36.787211" lon="-2.730456">
        <ele>119.352</ele>
        <time>2021-06-16T09:38:36Z</time>
      </trkpt>
      <trkpt lat="36.787173" lon="-2.73069">
        <ele>118.539</ele>
        <time>2021-06-16T09:38:37Z</time>
      </trkpt>
      <trkpt lat="36.787133" lon="-2.730924">
        <ele>117.866</ele>
        <time>2021-06-16T09:38:38Z</time>
      </trkpt>
      <trkpt lat="36.787048" lon="-2.731406">
        <ele>117.226</ele>
        <time>2021-06-16T09:38:40Z</time>
      </trkpt>
      <trkpt lat="36.78697" lon="-2.731882">
        <ele>116.514</ele>
        <time>2021-06-16T09:38:42Z</time>
      </trkpt>
      <trkpt lat="36.786896" lon="-2.732345">
        <ele>115.554</ele>
        <time>2021-06-16T09:38:44Z</time>
      </trkpt>
      <trkpt lat="36.78686" lon="-2.732573">
        <ele>114.509</ele>
        <time>2021-06-16T09:38:45Z</time>
      </trkpt>
      <trkpt lat="36.78679" lon="-2.733028">
        <ele>113.308</ele>
        <time>2021-06-16T09:38:47Z</time>
      </trkpt>
      <trkpt lat="36.786717" lon="-2.733476">
        <ele>112.058</ele>
        <time>2021-06-16T09:38:49Z</time>
      </trkpt>
      <trkpt lat="36.78664" lon="-2.733926">
        <ele>110.886</ele>
        <time>2021-06-16T09:38:51Z</time>
      </trkpt>
      <trkpt lat="36.786602" lon="-2.73415">
        <ele>109.390</ele>
        <time>2021-06-16T09:38:52Z</time>
      </trkpt>
      <trkpt lat="36.786527" lon="-2.734601">
        <ele>108.269</ele>
        <time>2021-06-16T09:38:54Z</time>
      </trkpt>
      <trkpt lat="36.786455" lon="-2.73505">
        <ele>107.592</ele>
        <time>2021-06-16T09:38:56Z</time>
      </trkpt>
      <trkpt lat="36.786422" lon="-2.735274">
        <ele>106.039</ele>
        <time>2021-06-16T09:38:57Z</time>
      </trkpt>
      <trkpt lat="36.786385" lon="-2.735505">
        <ele>105.256</ele>
        <time>2021-06-16T09:38:58Z</time>
      </trkpt>
      <trkpt lat="36.786308" lon="-2.735965">
        <ele>104.616</ele>
        <time>2021-06-16T09:39:00Z</time>
      </trkpt>
      <trkpt lat="36.786269" lon="-2.736196">
        <ele>103.697</ele>
        <time>2021-06-16T09:39:01Z</time>
      </trkpt>
      <trkpt lat="36.786233" lon="-2.73643">
        <ele>102.623</ele>
        <time>2021-06-16T09:39:02Z</time>
      </trkpt>
      <trkpt lat="36.78616" lon="-2.73689">
        <ele>101.525</ele>
        <time>2021-06-16T09:39:04Z</time>
      </trkpt>
      <trkpt lat="36.786123" lon="-2.737123">
        <ele>100.408</ele>
        <time>2021-06-16T09:39:05Z</time>
      </trkpt>
      <trkpt lat="36.786085" lon="-2.73736">
        <ele>99.916</ele>
        <time>2021-06-16T09:39:06Z</time>
      </trkpt>
      <trkpt lat="36.786008" lon="-2.737836">
        <ele>99.854</ele>
        <time>2021-06-16T09:39:08Z</time>
      </trkpt>
      <trkpt lat="36.785928" lon="-2.738309">
        <ele>100.198</ele>
        <time>2021-06-16T09:39:10Z</time>
      </trkpt>
      <trkpt lat="36.785881" lon="-2.738552">
        <ele>100.237</ele>
        <time>2021-06-16T09:39:11Z</time>
      </trkpt>
      <trkpt lat="36.785801" lon="-2.739024">
        <ele>100.140</ele>
        <time>2021-06-16T09:39:13Z</time>
      </trkpt>
      <trkpt lat="36.785763" lon="-2.739261">
        <ele>99.777</ele>
        <time>2021-06-16T09:39:14Z</time>
      </trkpt>
      <trkpt lat="36.785692" lon="-2.739729">
        <ele>99.024</ele>
        <time>2021-06-16T09:39:16Z</time>
      </trkpt>
      <trkpt lat="36.785654" lon="-2.739964">
        <ele>98.334</ele>
        <time>2021-06-16T09:39:17Z</time>
      </trkpt>
      <trkpt lat="36.785579" lon="-2.74043">
        <ele>97.856</ele>
        <time>2021-06-16T09:39:19Z</time>
      </trkpt>
      <trkpt lat="36.7855" lon="-2.740897">
        <ele>97.159</ele>
        <time>2021-06-16T09:39:21Z</time>
      </trkpt>
      <trkpt lat="36.78542" lon="-2.741363">
        <ele>96.414</ele>
        <time>2021-06-16T09:39:23Z</time>
      </trkpt>
      <trkpt lat="36.785342" lon="-2.741836">
        <ele>95.508</ele>
        <time>2021-06-16T09:39:25Z</time>
      </trkpt>
      <trkpt lat="36.785303" lon="-2.742071">
        <ele>94.712</ele>
        <time>2021-06-16T09:39:26Z</time>
      </trkpt>
      <trkpt lat="36.785221" lon="-2.74253">
        <ele>93.740</ele>
        <time>2021-06-16T09:39:28Z</time>
      </trkpt>
      <trkpt lat="36.785182" lon="-2.74276">
        <ele>92.964</ele>
        <time>2021-06-16T09:39:29Z</time>
      </trkpt>
      <trkpt lat="36.785103" lon="-2.743226">
        <ele>92.493</ele>
        <time>2021-06-16T09:39:31Z</time>
      </trkpt>
      <trkpt lat="36.785027" lon="-2.743685">
        <ele>91.766</ele>
        <time>2021-06-16T09:39:33Z</time>
      </trkpt>
      <trkpt lat="36.784989" lon="-2.743918">
        <ele>90.923</ele>
        <time>2021-06-16T09:39:34Z</time>
      </trkpt>
      <trkpt lat="36.784916" lon="-2.744379">
        <ele>90.510</ele>
        <time>2021-06-16T09:39:36Z</time>
      </trkpt>
      <trkpt lat="36.784848" lon="-2.74484">
        <ele>90.750</ele>
        <time>2021-06-16T09:39:38Z</time>
      </trkpt>
      <trkpt lat="36.784812" lon="-2.745066">
        <ele>90.687</ele>
        <time>2021-06-16T09:39:39Z</time>
      </trkpt>
      <trkpt lat="36.784736" lon="-2.745525">
        <ele>89.942</ele>
        <time>2021-06-16T09:39:41Z</time>
      </trkpt>
      <trkpt lat="36.784658" lon="-2.745987">
        <ele>89.626</ele>
        <time>2021-06-16T09:39:43Z</time>
      </trkpt>
      <trkpt lat="36.78458" lon="-2.746451">
        <ele>89.308</ele>
        <time>2021-06-16T09:39:45Z</time>
      </trkpt>
      <trkpt lat="36.784539" lon="-2.746683">
        <ele>89.145</ele>
        <time>2021-06-16T09:39:46Z</time>
      </trkpt>
      <trkpt lat="36.784463" lon="-2.747144">
        <ele>89.143</ele>
        <time>2021-06-16T09:39:48Z</time>
      </trkpt>
      <trkpt lat="36.784386" lon="-2.747591">
        <ele>89.277</ele>
        <time>2021-06-16T09:39:50Z</time>
      </trkpt>
      <trkpt lat="36.784347" lon="-2.747813">
        <ele>88.846</ele>
        <time>2021-06-16T09:39:51Z</time>
      </trkpt>
      <trkpt lat="36.78431" lon="-2.748042">
        <ele>88.459</ele>
        <time>2021-06-16T09:39:52Z</time>
      </trkpt>
      <trkpt lat="36.784237" lon="-2.748492">
        <ele>88.236</ele>
        <time>2021-06-16T09:39:54Z</time>
      </trkpt>
      <trkpt lat="36.784199" lon="-2.748722">
        <ele>87.943</ele>
        <time>2021-06-16T09:39:55Z</time>
      </trkpt>
      <trkpt lat="36.784124" lon="-2.74918">
        <ele>87.513</ele>
        <time>2021-06-16T09:39:57Z</time>
      </trkpt>
      <trkpt lat="36.784083" lon="-2.749411">
        <ele>86.872</ele>
        <time>2021-06-16T09:39:58Z</time>
      </trkpt>
      <trkpt lat="36.784002" lon="-2.749878">
        <ele>86.313</ele>
        <time>2021-06-16T09:40:00Z</time>
      </trkpt>
      <trkpt lat="36.783922" lon="-2.750328">
        <ele>85.814</ele>
        <time>2021-06-16T09:40:02Z</time>
      </trkpt>
      <trkpt lat="36.783882" lon="-2.750563">
        <ele>85.508</ele>
        <time>2021-06-16T09:40:03Z</time>
      </trkpt>
      <trkpt lat="36.783841" lon="-2.750801">
        <ele>85.024</ele>
        <time>2021-06-16T09:40:04Z</time>
      </trkpt>
      <trkpt lat="36.783753" lon="-2.751275">
        <ele>84.012</ele>
        <time>2021-06-16T09:40:06Z</time>
      </trkpt>
      <trkpt lat="36.783703" lon="-2.751514">
        <ele>83.246</ele>
        <time>2021-06-16T09:40:07Z</time>
      </trkpt>
      <trkpt lat="36.783604" lon="-2.751992">
        <ele>82.085</ele>
        <time>2021-06-16T09:40:09Z</time>
      </trkpt>
      <trkpt lat="36.783553" lon="-2.752233">
        <ele>81.188</ele>
        <time>2021-06-16T09:40:10Z</time>
      </trkpt>
      <trkpt lat="36.783452" lon="-2.752695">
        <ele>80.385</ele>
        <time>2021-06-16T09:40:12Z</time>
      </trkpt>
      <trkpt lat="36.783344" lon="-2.753152">
        <ele>79.772</ele>
        <time>2021-06-16T09:40:14Z</time>
      </trkpt>
      <trkpt lat="36.78323" lon="-2.753611">
        <ele>78.832</ele>
        <time>2021-06-16T09:40:16Z</time>
      </trkpt>
      <trkpt lat="36.783168" lon="-2.753844">
        <ele>77.966</ele>
        <time>2021-06-16T09:40:17Z</time>
      </trkpt>
      <trkpt lat="36.783049" lon="-2.754306">
        <ele>77.229</ele>
        <time>2021-06-16T09:40:19Z</time>
      </trkpt>
      <trkpt lat="36.78299" lon="-2.75454">
        <ele>77.121</ele>
        <time>2021-06-16T09:40:20Z</time>
      </trkpt>
      <trkpt lat="36.782858" lon="-2.755003">
        <ele>76.208</ele>
        <time>2021-06-16T09:40:22Z</time>
      </trkpt>
      <trkpt lat="36.782725" lon="-2.755458">
        <ele>75.693</ele>
        <time>2021-06-16T09:40:24Z</time>
      </trkpt>
      <trkpt lat="36.782659" lon="-2.755685">
        <ele>75.341</ele>
        <time>2021-06-16T09:40:25Z</time>
      </trkpt>
      <trkpt lat="36.782596" lon="-2.755913">
        <ele>74.955</ele>
        <time>2021-06-16T09:40:26Z</time>
      </trkpt>
      <trkpt lat="36.78253" lon="-2.756138">
        <ele>74.114</ele>
        <time>2021-06-16T09:40:27Z</time>
      </trkpt>
      <trkpt lat="36.782392" lon="-2.75659">
        <ele>73.687</ele>
        <time>2021-06-16T09:40:29Z</time>
      </trkpt>
      <trkpt lat="36.782235" lon="-2.757039">
        <ele>73.024</ele>
        <time>2021-06-16T09:40:31Z</time>
      </trkpt>
      <trkpt lat="36.78208" lon="-2.757482">
        <ele>72.411</ele>
        <time>2021-06-16T09:40:33Z</time>
      </trkpt>
      <trkpt lat="36.782002" lon="-2.757701">
        <ele>72.191</ele>
        <time>2021-06-16T09:40:34Z</time>
      </trkpt>
      <trkpt lat="36.781844" lon="-2.758127">
        <ele>71.369</ele>
        <time>2021-06-16T09:40:36Z</time>
      </trkpt>
      <trkpt lat="36.781765" lon="-2.758339">
        <ele>70.804</ele>
        <time>2021-06-16T09:40:37Z</time>
      </trkpt>
      <trkpt lat="36.781602" lon="-2.758761">
        <ele>70.524</ele>
        <time>2021-06-16T09:40:39Z</time>
      </trkpt>
      <trkpt lat="36.781519" lon="-2.75897">
        <ele>70.208</ele>
        <time>2021-06-16T09:40:40Z</time>
      </trkpt>
      <trkpt lat="36.781434" lon="-2.759178">
        <ele>70.443</ele>
        <time>2021-06-16T09:40:41Z</time>
      </trkpt>
      <trkpt lat="36.781256" lon="-2.759583">
        <ele>69.571</ele>
        <time>2021-06-16T09:40:43Z</time>
      </trkpt>
      <trkpt lat="36.781074" lon="-2.760005">
        <ele>68.995</ele>
        <time>2021-06-16T09:40:45Z</time>
      </trkpt>
      <trkpt lat="36.780886" lon="-2.760438">
        <ele>68.234</ele>
        <time>2021-06-16T09:40:47Z</time>
      </trkpt>
      <trkpt lat="36.78069" lon="-2.760868">
        <ele>67.547</ele>
        <time>2021-06-16T09:40:49Z</time>
      </trkpt>
      <trkpt lat="36.780486" lon="-2.761294">
        <ele>66.914</ele>
        <time>2021-06-16T09:40:51Z</time>
      </trkpt>
      <trkpt lat="36.780386" lon="-2.761504">
        <ele>66.021</ele>
        <time>2021-06-16T09:40:52Z</time>
      </trkpt>
      <trkpt lat="36.780285" lon="-2.761716">
        <ele>65.441</ele>
        <time>2021-06-16T09:40:53Z</time>
      </trkpt>
      <trkpt lat="36.780078" lon="-2.762139">
        <ele>65.545</ele>
        <time>2021-06-16T09:40:55Z</time>
      </trkpt>
      <trkpt lat="36.779975" lon="-2.762348">
        <ele>65.047</ele>
        <time>2021-06-16T09:40:56Z</time>
      </trkpt>
      <trkpt lat="36.779767" lon="-2.762767">
        <ele>64.311</ele>
        <time>2021-06-16T09:40:58Z</time>
      </trkpt>
      <trkpt lat="36.779554" lon="-2.763171">
        <ele>63.408</ele>
        <time>2021-06-16T09:41:00Z</time>
      </trkpt>
      <trkpt lat="36.77934" lon="-2.763573">
        <ele>62.421</ele>
        <time>2021-06-16T09:41:02Z</time>
      </trkpt>
      <trkpt lat="36.779237" lon="-2.763776">
        <ele>61.219</ele>
        <time>2021-06-16T09:41:03Z</time>
      </trkpt>
      <trkpt lat="36.779034" lon="-2.764185">
        <ele>59.533</ele>
        <time>2021-06-16T09:41:05Z</time>
      </trkpt>
      <trkpt lat="36.778928" lon="-2.764388">
        <ele>58.162</ele>
        <time>2021-06-16T09:41:06Z</time>
      </trkpt>
      <trkpt lat="36.778713" lon="-2.76479">
        <ele>57.235</ele>
        <time>2021-06-16T09:41:08Z</time>
      </trkpt>
      <trkpt lat="36.778605" lon="-2.764991">
        <ele>56.242</ele>
        <time>2021-06-16T09:41:09Z</time>
      </trkpt>
      <trkpt lat="36.778392" lon="-2.765399">
        <ele>55.559</ele>
        <time>2021-06-16T09:41:11Z</time>
      </trkpt>
      <trkpt lat="36.77818" lon="-2.76581">
        <ele>54.729</ele>
        <time>2021-06-16T09:41:13Z</time>
      </trkpt>
      <trkpt lat="36.778074" lon="-2.766012">
        <ele>53.847</ele>
        <time>2021-06-16T09:41:14Z</time>
      </trkpt>
      <trkpt lat="36.777964" lon="-2.766216">
        <ele>53.329</ele>
        <time>2021-06-16T09:41:15Z</time>
      </trkpt>
      <trkpt lat="36.777853" lon="-2.766422">
        <ele>52.921</ele>
        <time>2021-06-16T09:41:16Z</time>
      </trkpt>
      <trkpt lat="36.777637" lon="-2.766833">
        <ele>52.308</ele>
        <time>2021-06-16T09:41:18Z</time>
      </trkpt>
      <trkpt lat="36.777531" lon="-2.767041">
        <ele>51.661</ele>
        <time>2021-06-16T09:41:19Z</time>
      </trkpt>
      <trkpt lat="36.77733" lon="-2.767451">
        <ele>51.039</ele>
        <time>2021-06-16T09:41:21Z</time>
      </trkpt>
      <trkpt lat="36.777228" lon="-2.767658">
        <ele>50.663</ele>
        <time>2021-06-16T09:41:22Z</time>
      </trkpt>
      <trkpt lat="36.777021" lon="-2.768071">
        <ele>49.942</ele>
        <time>2021-06-16T09:41:24Z</time>
      </trkpt>
      <trkpt lat="36.776921" lon="-2.768279">
        <ele>49.715</ele>
        <time>2021-06-16T09:41:25Z</time>
      </trkpt>
      <trkpt lat="36.77672" lon="-2.768696">
        <ele>49.842</ele>
        <time>2021-06-16T09:41:27Z</time>
      </trkpt>
      <trkpt lat="36.776625" lon="-2.76891">
        <ele>50.189</ele>
        <time>2021-06-16T09:41:28Z</time>
      </trkpt>
      <trkpt lat="36.776432" lon="-2.769332">
        <ele>49.939</ele>
        <time>2021-06-16T09:41:30Z</time>
      </trkpt>
      <trkpt lat="36.776337" lon="-2.769543">
        <ele>49.499</ele>
        <time>2021-06-16T09:41:31Z</time>
      </trkpt>
      <trkpt lat="36.776152" lon="-2.76996">
        <ele>49.007</ele>
        <time>2021-06-16T09:41:33Z</time>
      </trkpt>
      <trkpt lat="36.775977" lon="-2.770383">
        <ele>48.527</ele>
        <time>2021-06-16T09:41:35Z</time>
      </trkpt>
      <trkpt lat="36.77589" lon="-2.770594">
        <ele>48.308</ele>
        <time>2021-06-16T09:41:36Z</time>
      </trkpt>
      <trkpt lat="36.775803" lon="-2.770804">
        <ele>48.136</ele>
        <time>2021-06-16T09:41:37Z</time>
      </trkpt>
      <trkpt lat="36.775634" lon="-2.771227">
        <ele>48.314</ele>
        <time>2021-06-16T09:41:39Z</time>
      </trkpt>
      <trkpt lat="36.775462" lon="-2.771653">
        <ele>48.478</ele>
        <time>2021-06-16T09:41:41Z</time>
      </trkpt>
      <trkpt lat="36.775289" lon="-2.772077">
        <ele>48.627</ele>
        <time>2021-06-16T09:41:43Z</time>
      </trkpt>
      <trkpt lat="36.77512" lon="-2.772496">
        <ele>48.650</ele>
        <time>2021-06-16T09:41:45Z</time>
      </trkpt>
      <trkpt lat="36.775037" lon="-2.772706">
        <ele>48.677</ele>
        <time>2021-06-16T09:41:46Z</time>
      </trkpt>
      <trkpt lat="36.774954" lon="-2.772914">
        <ele>48.644</ele>
        <time>2021-06-16T09:41:47Z</time>
      </trkpt>
      <trkpt lat="36.774871" lon="-2.773123">
        <ele>48.364</ele>
        <time>2021-06-16T09:41:48Z</time>
      </trkpt>
      <trkpt lat="36.774788" lon="-2.773332">
        <ele>48.311</ele>
        <time>2021-06-16T09:41:49Z</time>
      </trkpt>
      <trkpt lat="36.774617" lon="-2.773758">
        <ele>48.121</ele>
        <time>2021-06-16T09:41:51Z</time>
      </trkpt>
      <trkpt lat="36.774437" lon="-2.774196">
        <ele>48.103</ele>
        <time>2021-06-16T09:41:53Z</time>
      </trkpt>
      <trkpt lat="36.774345" lon="-2.774415">
        <ele>48.308</ele>
        <time>2021-06-16T09:41:54Z</time>
      </trkpt>
      <trkpt lat="36.77425" lon="-2.774633">
        <ele>48.588</ele>
        <time>2021-06-16T09:41:55Z</time>
      </trkpt>
      <trkpt lat="36.774064" lon="-2.775063">
        <ele>48.846</ele>
        <time>2021-06-16T09:41:57Z</time>
      </trkpt>
      <trkpt lat="36.77397" lon="-2.775276">
        <ele>48.950</ele>
        <time>2021-06-16T09:41:58Z</time>
      </trkpt>
      <trkpt lat="36.77378" lon="-2.775695">
        <ele>49.319</ele>
        <time>2021-06-16T09:42:00Z</time>
      </trkpt>
      <trkpt lat="36.773682" lon="-2.775909">
        <ele>49.612</ele>
        <time>2021-06-16T09:42:01Z</time>
      </trkpt>
      <trkpt lat="36.773483" lon="-2.776323">
        <ele>50.199</ele>
        <time>2021-06-16T09:42:03Z</time>
      </trkpt>
      <trkpt lat="36.773382" lon="-2.776527">
        <ele>50.556</ele>
        <time>2021-06-16T09:42:04Z</time>
      </trkpt>
      <trkpt lat="36.77328" lon="-2.776731">
        <ele>50.756</ele>
        <time>2021-06-16T09:42:05Z</time>
      </trkpt>
      <trkpt lat="36.773076" lon="-2.777138">
        <ele>51.049</ele>
        <time>2021-06-16T09:42:07Z</time>
      </trkpt>
      <trkpt lat="36.772866" lon="-2.777538">
        <ele>50.802</ele>
        <time>2021-06-16T09:42:09Z</time>
      </trkpt>
      <trkpt lat="36.77276" lon="-2.777734">
        <ele>50.622</ele>
        <time>2021-06-16T09:42:10Z</time>
      </trkpt>
      <trkpt lat="36.772655" lon="-2.777931">
        <ele>50.708</ele>
        <time>2021-06-16T09:42:11Z</time>
      </trkpt>
      <trkpt lat="36.772547" lon="-2.778127">
        <ele>51.021</ele>
        <time>2021-06-16T09:42:12Z</time>
      </trkpt>
      <trkpt lat="36.772323" lon="-2.778523">
        <ele>51.569</ele>
        <time>2021-06-16T09:42:14Z</time>
      </trkpt>
      <trkpt lat="36.772205" lon="-2.778718">
        <ele>52.063</ele>
        <time>2021-06-16T09:42:15Z</time>
      </trkpt>
      <trkpt lat="36.771968" lon="-2.779095">
        <ele>52.412</ele>
        <time>2021-06-16T09:42:17Z</time>
      </trkpt>
      <trkpt lat="36.771847" lon="-2.779288">
        <ele>52.945</ele>
        <time>2021-06-16T09:42:18Z</time>
      </trkpt>
      <trkpt lat="36.771602" lon="-2.779665">
        <ele>53.142</ele>
        <time>2021-06-16T09:42:20Z</time>
      </trkpt>
      <trkpt lat="36.771478" lon="-2.779852">
        <ele>52.779</ele>
        <time>2021-06-16T09:42:21Z</time>
      </trkpt>
      <trkpt lat="36.771231" lon="-2.780225">
        <ele>53.179</ele>
        <time>2021-06-16T09:42:23Z</time>
      </trkpt>
      <trkpt lat="36.770974" lon="-2.780588">
        <ele>53.265</ele>
        <time>2021-06-16T09:42:25Z</time>
      </trkpt>
      <trkpt lat="36.770713" lon="-2.780945">
        <ele>53.768</ele>
        <time>2021-06-16T09:42:27Z</time>
      </trkpt>
      <trkpt lat="36.770448" lon="-2.781289">
        <ele>54.014</ele>
        <time>2021-06-16T09:42:29Z</time>
      </trkpt>
      <trkpt lat="36.77018" lon="-2.781621">
        <ele>54.308</ele>
        <time>2021-06-16T09:42:31Z</time>
      </trkpt>
      <trkpt lat="36.769906" lon="-2.781966">
        <ele>54.733</ele>
        <time>2021-06-16T09:42:33Z</time>
      </trkpt>
      <trkpt lat="36.769762" lon="-2.78214">
        <ele>54.881</ele>
        <time>2021-06-16T09:42:34Z</time>
      </trkpt>
      <trkpt lat="36.769618" lon="-2.782311">
        <ele>55.065</ele>
        <time>2021-06-16T09:42:35Z</time>
      </trkpt>
      <trkpt lat="36.769326" lon="-2.782643">
        <ele>55.394</ele>
        <time>2021-06-16T09:42:37Z</time>
      </trkpt>
      <trkpt lat="36.769179" lon="-2.78281">
        <ele>55.757</ele>
        <time>2021-06-16T09:42:38Z</time>
      </trkpt>
      <trkpt lat="36.768879" lon="-2.783134">
        <ele>55.984</ele>
        <time>2021-06-16T09:42:40Z</time>
      </trkpt>
      <trkpt lat="36.768581" lon="-2.783449">
        <ele>55.741</ele>
        <time>2021-06-16T09:42:42Z</time>
      </trkpt>
      <trkpt lat="36.768272" lon="-2.783764">
        <ele>56.281</ele>
        <time>2021-06-16T09:42:44Z</time>
      </trkpt>
      <trkpt lat="36.767961" lon="-2.784059">
        <ele>57.254</ele>
        <time>2021-06-16T09:42:46Z</time>
      </trkpt>
      <trkpt lat="36.767802" lon="-2.784202">
        <ele>57.256</ele>
        <time>2021-06-16T09:42:47Z</time>
      </trkpt>
      <trkpt lat="36.767643" lon="-2.784348">
        <ele>57.511</ele>
        <time>2021-06-16T09:42:48Z</time>
      </trkpt>
      <trkpt lat="36.767338" lon="-2.78464">
        <ele>57.408</ele>
        <time>2021-06-16T09:42:50Z</time>
      </trkpt>
      <trkpt lat="36.767186" lon="-2.78479">
        <ele>57.292</ele>
        <time>2021-06-16T09:42:51Z</time>
      </trkpt>
      <trkpt lat="36.766879" lon="-2.785091">
        <ele>57.110</ele>
        <time>2021-06-16T09:42:53Z</time>
      </trkpt>
      <trkpt lat="36.766568" lon="-2.78539">
        <ele>57.274</ele>
        <time>2021-06-16T09:42:55Z</time>
      </trkpt>
      <trkpt lat="36.766411" lon="-2.785541">
        <ele>57.273</ele>
        <time>2021-06-16T09:42:56Z</time>
      </trkpt>
      <trkpt lat="36.766097" lon="-2.785842">
        <ele>57.076</ele>
        <time>2021-06-16T09:42:58Z</time>
      </trkpt>
      <trkpt lat="36.765938" lon="-2.785992">
        <ele>56.893</ele>
        <time>2021-06-16T09:42:59Z</time>
      </trkpt>
      <trkpt lat="36.765627" lon="-2.786301">
        <ele>57.250</ele>
        <time>2021-06-16T09:43:01Z</time>
      </trkpt>
      <trkpt lat="36.765321" lon="-2.786619">
        <ele>57.310</ele>
        <time>2021-06-16T09:43:03Z</time>
      </trkpt>
      <trkpt lat="36.765028" lon="-2.786961">
        <ele>57.376</ele>
        <time>2021-06-16T09:43:05Z</time>
      </trkpt>
      <trkpt lat="36.764883" lon="-2.787132">
        <ele>57.490</ele>
        <time>2021-06-16T09:43:06Z</time>
      </trkpt>
      <trkpt lat="36.764742" lon="-2.787303">
        <ele>57.119</ele>
        <time>2021-06-16T09:43:07Z</time>
      </trkpt>
      <trkpt lat="36.76447" lon="-2.787654">
        <ele>57.608</ele>
        <time>2021-06-16T09:43:09Z</time>
      </trkpt>
      <trkpt lat="36.764332" lon="-2.787834">
        <ele>57.524</ele>
        <time>2021-06-16T09:43:10Z</time>
      </trkpt>
      <trkpt lat="36.764069" lon="-2.788202">
        <ele>57.582</ele>
        <time>2021-06-16T09:43:12Z</time>
      </trkpt>
      <trkpt lat="36.763815" lon="-2.788579">
        <ele>57.986</ele>
        <time>2021-06-16T09:43:14Z</time>
      </trkpt>
      <trkpt lat="36.763574" lon="-2.788966">
        <ele>57.845</ele>
        <time>2021-06-16T09:43:16Z</time>
      </trkpt>
      <trkpt lat="36.763335" lon="-2.789364">
        <ele>57.868</ele>
        <time>2021-06-16T09:43:18Z</time>
      </trkpt>
      <trkpt lat="36.76311" lon="-2.789756">
        <ele>57.685</ele>
        <time>2021-06-16T09:43:20Z</time>
      </trkpt>
      <trkpt lat="36.763001" lon="-2.789956">
        <ele>57.482</ele>
        <time>2021-06-16T09:43:21Z</time>
      </trkpt>
      <trkpt lat="36.762785" lon="-2.79036">
        <ele>57.142</ele>
        <time>2021-06-16T09:43:23Z</time>
      </trkpt>
      <trkpt lat="36.762568" lon="-2.790772">
        <ele>57.255</ele>
        <time>2021-06-16T09:43:25Z</time>
      </trkpt>
      <trkpt lat="36.762362" lon="-2.791178">
        <ele>56.807</ele>
        <time>2021-06-16T09:43:27Z</time>
      </trkpt>
      <trkpt lat="36.762258" lon="-2.791383">
        <ele>56.517</ele>
        <time>2021-06-16T09:43:28Z</time>
      </trkpt>
      <trkpt lat="36.762046" lon="-2.791798">
        <ele>56.308</ele>
        <time>2021-06-16T09:43:30Z</time>
      </trkpt>
      <trkpt lat="36.76194" lon="-2.792008">
        <ele>56.172</ele>
        <time>2021-06-16T09:43:31Z</time>
      </trkpt>
      <trkpt lat="36.761832" lon="-2.792216">
        <ele>56.270</ele>
        <time>2021-06-16T09:43:32Z</time>
      </trkpt>
      <trkpt lat="36.761727" lon="-2.792422">
        <ele>56.454</ele>
        <time>2021-06-16T09:43:33Z</time>
      </trkpt>
      <trkpt lat="36.761621" lon="-2.792632">
        <ele>56.473</ele>
        <time>2021-06-16T09:43:34Z</time>
      </trkpt>
      <trkpt lat="36.761405" lon="-2.793058">
        <ele>56.236</ele>
        <time>2021-06-16T09:43:36Z</time>
      </trkpt>
      <trkpt lat="36.761192" lon="-2.793483">
        <ele>56.013</ele>
        <time>2021-06-16T09:43:38Z</time>
      </trkpt>
      <trkpt lat="36.761083" lon="-2.793697">
        <ele>56.030</ele>
        <time>2021-06-16T09:43:39Z</time>
      </trkpt>
      <trkpt lat="36.76097" lon="-2.793904">
        <ele>55.670</ele>
        <time>2021-06-16T09:43:40Z</time>
      </trkpt>
      <trkpt lat="36.760858" lon="-2.794108">
        <ele>55.752</ele>
        <time>2021-06-16T09:43:41Z</time>
      </trkpt>
      <trkpt lat="36.760627" lon="-2.794506">
        <ele>56.153</ele>
        <time>2021-06-16T09:43:43Z</time>
      </trkpt>
      <trkpt lat="36.760388" lon="-2.794893">
        <ele>55.908</ele>
        <time>2021-06-16T09:43:45Z</time>
      </trkpt>
      <trkpt lat="36.760146" lon="-2.795273">
        <ele>55.508</ele>
        <time>2021-06-16T09:43:47Z</time>
      </trkpt>
      <trkpt lat="36.759904" lon="-2.795643">
        <ele>55.212</ele>
        <time>2021-06-16T09:43:49Z</time>
      </trkpt>
      <trkpt lat="36.759774" lon="-2.795826">
        <ele>55.150</ele>
        <time>2021-06-16T09:43:50Z</time>
      </trkpt>
      <trkpt lat="36.759522" lon="-2.796188">
        <ele>54.974</ele>
        <time>2021-06-16T09:43:52Z</time>
      </trkpt>
      <trkpt lat="36.759394" lon="-2.796368">
        <ele>54.863</ele>
        <time>2021-06-16T09:43:53Z</time>
      </trkpt>
      <trkpt lat="36.759135" lon="-2.796722">
        <ele>54.586</ele>
        <time>2021-06-16T09:43:55Z</time>
      </trkpt>
      <trkpt lat="36.758871" lon="-2.797082">
        <ele>54.743</ele>
        <time>2021-06-16T09:43:57Z</time>
      </trkpt>
      <trkpt lat="36.758737" lon="-2.797263">
        <ele>54.770</ele>
        <time>2021-06-16T09:43:58Z</time>
      </trkpt>
      <trkpt lat="36.758607" lon="-2.797445">
        <ele>54.780</ele>
        <time>2021-06-16T09:43:59Z</time>
      </trkpt>
      <trkpt lat="36.758352" lon="-2.797815">
        <ele>54.151</ele>
        <time>2021-06-16T09:44:01Z</time>
      </trkpt>
      <trkpt lat="36.75823" lon="-2.798007">
        <ele>53.901</ele>
        <time>2021-06-16T09:44:02Z</time>
      </trkpt>
      <trkpt lat="36.758115" lon="-2.798207">
        <ele>53.711</ele>
        <time>2021-06-16T09:44:03Z</time>
      </trkpt>
      <trkpt lat="36.757898" lon="-2.798618">
        <ele>53.508</ele>
        <time>2021-06-16T09:44:05Z</time>
      </trkpt>
      <trkpt lat="36.757693" lon="-2.799033">
        <ele>53.232</ele>
        <time>2021-06-16T09:44:07Z</time>
      </trkpt>
      <trkpt lat="36.757507" lon="-2.799459">
        <ele>53.380</ele>
        <time>2021-06-16T09:44:09Z</time>
      </trkpt>
      <trkpt lat="36.757422" lon="-2.799676">
        <ele>53.834</ele>
        <time>2021-06-16T09:44:10Z</time>
      </trkpt>
      <trkpt lat="36.757272" lon="-2.800111">
        <ele>54.323</ele>
        <time>2021-06-16T09:44:12Z</time>
      </trkpt>
      <trkpt lat="36.757127" lon="-2.800553">
        <ele>54.916</ele>
        <time>2021-06-16T09:44:14Z</time>
      </trkpt>
      <trkpt lat="36.757066" lon="-2.800782">
        <ele>55.843</ele>
        <time>2021-06-16T09:44:15Z</time>
      </trkpt>
      <trkpt lat="36.756952" lon="-2.801237">
        <ele>56.480</ele>
        <time>2021-06-16T09:44:17Z</time>
      </trkpt>
      <trkpt lat="36.756901" lon="-2.801471">
        <ele>56.790</ele>
        <time>2021-06-16T09:44:18Z</time>
      </trkpt>
      <trkpt lat="36.756814" lon="-2.801937">
        <ele>57.713</ele>
        <time>2021-06-16T09:44:20Z</time>
      </trkpt>
      <trkpt lat="36.756744" lon="-2.802411">
        <ele>58.843</ele>
        <time>2021-06-16T09:44:22Z</time>
      </trkpt>
      <trkpt lat="36.756684" lon="-2.802878">
        <ele>59.407</ele>
        <time>2021-06-16T09:44:24Z</time>
      </trkpt>
      <trkpt lat="36.756655" lon="-2.803112">
        <ele>59.908</ele>
        <time>2021-06-16T09:44:25Z</time>
      </trkpt>
      <trkpt lat="36.75664" lon="-2.803603">
        <ele>61.068</ele>
        <time>2021-06-16T09:44:27Z</time>
      </trkpt>
      <trkpt lat="36.75664" lon="-2.803854">
        <ele>61.946</ele>
        <time>2021-06-16T09:44:28Z</time>
      </trkpt>
      <trkpt lat="36.756644" lon="-2.804343">
        <ele>63.290</ele>
        <time>2021-06-16T09:44:30Z</time>
      </trkpt>
      <trkpt lat="36.756666" lon="-2.804831">
        <ele>64.719</ele>
        <time>2021-06-16T09:44:32Z</time>
      </trkpt>
      <trkpt lat="36.756707" lon="-2.805326">
        <ele>65.912</ele>
        <time>2021-06-16T09:44:34Z</time>
      </trkpt>
      <trkpt lat="36.756773" lon="-2.805821">
        <ele>66.949</ele>
        <time>2021-06-16T09:44:36Z</time>
      </trkpt>
      <trkpt lat="36.756815" lon="-2.806064">
        <ele>67.036</ele>
        <time>2021-06-16T09:44:37Z</time>
      </trkpt>
      <trkpt lat="36.756862" lon="-2.8063">
        <ele>67.666</ele>
        <time>2021-06-16T09:44:38Z</time>
      </trkpt>
      <trkpt lat="36.756964" lon="-2.806765">
        <ele>68.166</ele>
        <time>2021-06-16T09:44:40Z</time>
      </trkpt>
      <trkpt lat="36.757021" lon="-2.807">
        <ele>68.429</ele>
        <time>2021-06-16T09:44:41Z</time>
      </trkpt>
      <trkpt lat="36.757079" lon="-2.807236">
        <ele>68.821</ele>
        <time>2021-06-16T09:44:42Z</time>
      </trkpt>
      <trkpt lat="36.757218" lon="-2.807701">
        <ele>68.708</ele>
        <time>2021-06-16T09:44:44Z</time>
      </trkpt>
      <trkpt lat="36.757299" lon="-2.807928">
        <ele>68.723</ele>
        <time>2021-06-16T09:44:45Z</time>
      </trkpt>
      <trkpt lat="36.75747" lon="-2.808373">
        <ele>68.761</ele>
        <time>2021-06-16T09:44:47Z</time>
      </trkpt>
      <trkpt lat="36.757565" lon="-2.808597">
        <ele>68.895</ele>
        <time>2021-06-16T09:44:48Z</time>
      </trkpt>
      <trkpt lat="36.757666" lon="-2.808817">
        <ele>68.764</ele>
        <time>2021-06-16T09:44:49Z</time>
      </trkpt>
      <trkpt lat="36.757864" lon="-2.809256">
        <ele>68.837</ele>
        <time>2021-06-16T09:44:51Z</time>
      </trkpt>
      <trkpt lat="36.757961" lon="-2.809477">
        <ele>69.274</ele>
        <time>2021-06-16T09:44:52Z</time>
      </trkpt>
      <trkpt lat="36.758059" lon="-2.809698">
        <ele>69.331</ele>
        <time>2021-06-16T09:44:53Z</time>
      </trkpt>
      <trkpt lat="36.758154" lon="-2.809916">
        <ele>69.411</ele>
        <time>2021-06-16T09:44:54Z</time>
      </trkpt>
      <trkpt lat="36.758247" lon="-2.810138">
        <ele>69.371</ele>
        <time>2021-06-16T09:44:55Z</time>
      </trkpt>
      <trkpt lat="36.758416" lon="-2.810578">
        <ele>69.341</ele>
        <time>2021-06-16T09:44:57Z</time>
      </trkpt>
      <trkpt lat="36.758574" lon="-2.811032">
        <ele>69.815</ele>
        <time>2021-06-16T09:44:59Z</time>
      </trkpt>
      <trkpt lat="36.758648" lon="-2.811262">
        <ele>70.208</ele>
        <time>2021-06-16T09:45:00Z</time>
      </trkpt>
      <trkpt lat="36.758719" lon="-2.81149">
        <ele>70.524</ele>
        <time>2021-06-16T09:45:01Z</time>
      </trkpt>
      <trkpt lat="36.758847" lon="-2.811949">
        <ele>70.962</ele>
        <time>2021-06-16T09:45:03Z</time>
      </trkpt>
      <trkpt lat="36.75897" lon="-2.812411">
        <ele>71.486</ele>
        <time>2021-06-16T09:45:05Z</time>
      </trkpt>
      <trkpt lat="36.759073" lon="-2.812875">
        <ele>72.185</ele>
        <time>2021-06-16T09:45:07Z</time>
      </trkpt>
      <trkpt lat="36.75912" lon="-2.813109">
        <ele>72.398</ele>
        <time>2021-06-16T09:45:08Z</time>
      </trkpt>
      <trkpt lat="36.759194" lon="-2.813574">
        <ele>72.925</ele>
        <time>2021-06-16T09:45:10Z</time>
      </trkpt>
      <trkpt lat="36.759232" lon="-2.813811">
        <ele>73.622</ele>
        <time>2021-06-16T09:45:11Z</time>
      </trkpt>
      <trkpt lat="36.759271" lon="-2.814042">
        <ele>74.492</ele>
        <time>2021-06-16T09:45:12Z</time>
      </trkpt>
      <trkpt lat="36.75935" lon="-2.814485">
        <ele>74.939</ele>
        <time>2021-06-16T09:45:14Z</time>
      </trkpt>
      <trkpt lat="36.759433" lon="-2.814932">
        <ele>75.001</ele>
        <time>2021-06-16T09:45:16Z</time>
      </trkpt>
      <trkpt lat="36.759479" lon="-2.815159">
        <ele>75.521</ele>
        <time>2021-06-16T09:45:17Z</time>
      </trkpt>
      <trkpt lat="36.759571" lon="-2.815613">
        <ele>75.308</ele>
        <time>2021-06-16T09:45:19Z</time>
      </trkpt>
      <trkpt lat="36.759621" lon="-2.815842">
        <ele>75.810</ele>
        <time>2021-06-16T09:45:20Z</time>
      </trkpt>
      <trkpt lat="36.759728" lon="-2.816298">
        <ele>76.318</ele>
        <time>2021-06-16T09:45:22Z</time>
      </trkpt>
      <trkpt lat="36.759846" lon="-2.816754">
        <ele>76.662</ele>
        <time>2021-06-16T09:45:24Z</time>
      </trkpt>
      <trkpt lat="36.759918" lon="-2.816984">
        <ele>77.151</ele>
        <time>2021-06-16T09:45:25Z</time>
      </trkpt>
      <trkpt lat="36.760072" lon="-2.817445">
        <ele>78.084</ele>
        <time>2021-06-16T09:45:27Z</time>
      </trkpt>
      <trkpt lat="36.760239" lon="-2.817902">
        <ele>78.791</ele>
        <time>2021-06-16T09:45:29Z</time>
      </trkpt>
      <trkpt lat="36.760416" lon="-2.818344">
        <ele>79.818</ele>
        <time>2021-06-16T09:45:31Z</time>
      </trkpt>
      <trkpt lat="36.76051" lon="-2.818559">
        <ele>80.658</ele>
        <time>2021-06-16T09:45:32Z</time>
      </trkpt>
      <trkpt lat="36.760705" lon="-2.818981">
        <ele>81.615</ele>
        <time>2021-06-16T09:45:34Z</time>
      </trkpt>
      <trkpt lat="36.760808" lon="-2.819193">
        <ele>82.165</ele>
        <time>2021-06-16T09:45:35Z</time>
      </trkpt>
      <trkpt lat="36.760913" lon="-2.819401">
        <ele>82.511</ele>
        <time>2021-06-16T09:45:36Z</time>
      </trkpt>
      <trkpt lat="36.761021" lon="-2.819605">
        <ele>82.808</ele>
        <time>2021-06-16T09:45:37Z</time>
      </trkpt>
      <trkpt lat="36.761242" lon="-2.820016">
        <ele>83.398</ele>
        <time>2021-06-16T09:45:39Z</time>
      </trkpt>
      <trkpt lat="36.761359" lon="-2.820218">
        <ele>83.596</ele>
        <time>2021-06-16T09:45:40Z</time>
      </trkpt>
      <trkpt lat="36.761598" lon="-2.82061">
        <ele>83.880</ele>
        <time>2021-06-16T09:45:42Z</time>
      </trkpt>
      <trkpt lat="36.76172" lon="-2.820804">
        <ele>84.199</ele>
        <time>2021-06-16T09:45:43Z</time>
      </trkpt>
      <trkpt lat="36.761967" lon="-2.821189">
        <ele>84.272</ele>
        <time>2021-06-16T09:45:45Z</time>
      </trkpt>
      <trkpt lat="36.762223" lon="-2.82157">
        <ele>84.489</ele>
        <time>2021-06-16T09:45:47Z</time>
      </trkpt>
      <trkpt lat="36.762482" lon="-2.821954">
        <ele>84.246</ele>
        <time>2021-06-16T09:45:49Z</time>
      </trkpt>
      <trkpt lat="36.762742" lon="-2.822322">
        <ele>84.276</ele>
        <time>2021-06-16T09:45:51Z</time>
      </trkpt>
      <trkpt lat="36.762875" lon="-2.822509">
        <ele>84.581</ele>
        <time>2021-06-16T09:45:52Z</time>
      </trkpt>
      <trkpt lat="36.763142" lon="-2.822879">
        <ele>84.661</ele>
        <time>2021-06-16T09:45:54Z</time>
      </trkpt>
      <trkpt lat="36.763277" lon="-2.823063">
        <ele>84.617</ele>
        <time>2021-06-16T09:45:55Z</time>
      </trkpt>
      <trkpt lat="36.763542" lon="-2.82342">
        <ele>85.108</ele>
        <time>2021-06-16T09:45:57Z</time>
      </trkpt>
      <trkpt lat="36.76381" lon="-2.823773">
        <ele>85.745</ele>
        <time>2021-06-16T09:45:59Z</time>
      </trkpt>
      <trkpt lat="36.763942" lon="-2.823952">
        <ele>86.383</ele>
        <time>2021-06-16T09:46:00Z</time>
      </trkpt>
      <trkpt lat="36.764205" lon="-2.824312">
        <ele>86.717</ele>
        <time>2021-06-16T09:46:02Z</time>
      </trkpt>
      <trkpt lat="36.764334" lon="-2.824493">
        <ele>86.876</ele>
        <time>2021-06-16T09:46:03Z</time>
      </trkpt>
      <trkpt lat="36.7646" lon="-2.824847">
        <ele>87.049</ele>
        <time>2021-06-16T09:46:05Z</time>
      </trkpt>
      <trkpt lat="36.764734" lon="-2.825025">
        <ele>87.236</ele>
        <time>2021-06-16T09:46:06Z</time>
      </trkpt>
      <trkpt lat="36.764865" lon="-2.825201">
        <ele>87.413</ele>
        <time>2021-06-16T09:46:07Z</time>
      </trkpt>
      <trkpt lat="36.765116" lon="-2.825561">
        <ele>88.183</ele>
        <time>2021-06-16T09:46:09Z</time>
      </trkpt>
      <trkpt lat="36.765242" lon="-2.825741">
        <ele>89.262</ele>
        <time>2021-06-16T09:46:10Z</time>
      </trkpt>
      <trkpt lat="36.765496" lon="-2.826107">
        <ele>90.483</ele>
        <time>2021-06-16T09:46:12Z</time>
      </trkpt>
      <trkpt lat="36.76562" lon="-2.826292">
        <ele>91.411</ele>
        <time>2021-06-16T09:46:13Z</time>
      </trkpt>
      <trkpt lat="36.76586" lon="-2.826668">
        <ele>92.508</ele>
        <time>2021-06-16T09:46:15Z</time>
      </trkpt>
      <trkpt lat="36.766091" lon="-2.827047">
        <ele>93.833</ele>
        <time>2021-06-16T09:46:17Z</time>
      </trkpt>
      <trkpt lat="36.766208" lon="-2.827239">
        <ele>94.711</ele>
        <time>2021-06-16T09:46:18Z</time>
      </trkpt>
      <trkpt lat="36.766431" lon="-2.827623">
        <ele>95.685</ele>
        <time>2021-06-16T09:46:20Z</time>
      </trkpt>
      <trkpt lat="36.766645" lon="-2.828006">
        <ele>96.824</ele>
        <time>2021-06-16T09:46:22Z</time>
      </trkpt>
      <trkpt lat="36.766852" lon="-2.828393">
        <ele>97.417</ele>
        <time>2021-06-16T09:46:24Z</time>
      </trkpt>
      <trkpt lat="36.767049" lon="-2.828787">
        <ele>98.214</ele>
        <time>2021-06-16T09:46:26Z</time>
      </trkpt>
      <trkpt lat="36.76714" lon="-2.82899">
        <ele>98.821</ele>
        <time>2021-06-16T09:46:27Z</time>
      </trkpt>
      <trkpt lat="36.76731" lon="-2.829406">
        <ele>99.751</ele>
        <time>2021-06-16T09:46:29Z</time>
      </trkpt>
      <trkpt lat="36.767389" lon="-2.82962">
        <ele>100.497</ele>
        <time>2021-06-16T09:46:30Z</time>
      </trkpt>
      <trkpt lat="36.767468" lon="-2.829838">
        <ele>101.323</ele>
        <time>2021-06-16T09:46:31Z</time>
      </trkpt>
      <trkpt lat="36.767623" lon="-2.830277">
        <ele>101.825</ele>
        <time>2021-06-16T09:46:33Z</time>
      </trkpt>
      <trkpt lat="36.767708" lon="-2.830506">
        <ele>102.708</ele>
        <time>2021-06-16T09:46:34Z</time>
      </trkpt>
      <trkpt lat="36.76779" lon="-2.830733">
        <ele>103.446</ele>
        <time>2021-06-16T09:46:35Z</time>
      </trkpt>
      <trkpt lat="36.767951" lon="-2.831168">
        <ele>103.634</ele>
        <time>2021-06-16T09:46:37Z</time>
      </trkpt>
      <trkpt lat="36.76803" lon="-2.831379">
        <ele>103.928</ele>
        <time>2021-06-16T09:46:38Z</time>
      </trkpt>
      <trkpt lat="36.768107" lon="-2.831588">
        <ele>104.347</ele>
        <time>2021-06-16T09:46:39Z</time>
      </trkpt>
      <trkpt lat="36.768186" lon="-2.831799">
        <ele>105.090</ele>
        <time>2021-06-16T09:46:40Z</time>
      </trkpt>
      <trkpt lat="36.768263" lon="-2.83201">
        <ele>105.617</ele>
        <time>2021-06-16T09:46:41Z</time>
      </trkpt>
      <trkpt lat="36.768412" lon="-2.832437">
        <ele>106.494</ele>
        <time>2021-06-16T09:46:43Z</time>
      </trkpt>
      <trkpt lat="36.768493" lon="-2.832651">
        <ele>107.424</ele>
        <time>2021-06-16T09:46:44Z</time>
      </trkpt>
      <trkpt lat="36.768651" lon="-2.833085">
        <ele>108.659</ele>
        <time>2021-06-16T09:46:46Z</time>
      </trkpt>
      <trkpt lat="36.768731" lon="-2.833305">
        <ele>109.703</ele>
        <time>2021-06-16T09:46:47Z</time>
      </trkpt>
      <trkpt lat="36.768886" lon="-2.833727">
        <ele>110.623</ele>
        <time>2021-06-16T09:46:49Z</time>
      </trkpt>
      <trkpt lat="36.768961" lon="-2.833941">
        <ele>111.608</ele>
        <time>2021-06-16T09:46:50Z</time>
      </trkpt>
      <trkpt lat="36.769033" lon="-2.834154">
        <ele>111.932</ele>
        <time>2021-06-16T09:46:51Z</time>
      </trkpt>
      <trkpt lat="36.76917" lon="-2.834592">
        <ele>112.840</ele>
        <time>2021-06-16T09:46:53Z</time>
      </trkpt>
      <trkpt lat="36.769281" lon="-2.835051">
        <ele>113.994</ele>
        <time>2021-06-16T09:46:55Z</time>
      </trkpt>
      <trkpt lat="36.769323" lon="-2.835289">
        <ele>114.663</ele>
        <time>2021-06-16T09:46:56Z</time>
      </trkpt>
      <trkpt lat="36.769366" lon="-2.835525">
        <ele>115.486</ele>
        <time>2021-06-16T09:46:57Z</time>
      </trkpt>
      <trkpt lat="36.769428" lon="-2.836005">
        <ele>116.383</ele>
        <time>2021-06-16T09:46:59Z</time>
      </trkpt>
      <trkpt lat="36.769449" lon="-2.836245">
        <ele>116.980</ele>
        <time>2021-06-16T09:47:00Z</time>
      </trkpt>
      <trkpt lat="36.769469" lon="-2.836732">
        <ele>117.680</ele>
        <time>2021-06-16T09:47:02Z</time>
      </trkpt>
      <trkpt lat="36.769455" lon="-2.837215">
        <ele>118.328</ele>
        <time>2021-06-16T09:47:04Z</time>
      </trkpt>
      <trkpt lat="36.769441" lon="-2.837456">
        <ele>118.889</ele>
        <time>2021-06-16T09:47:05Z</time>
      </trkpt>
      <trkpt lat="36.769383" lon="-2.837931">
        <ele>119.117</ele>
        <time>2021-06-16T09:47:07Z</time>
      </trkpt>
      <trkpt lat="36.769347" lon="-2.838165">
        <ele>119.408</ele>
        <time>2021-06-16T09:47:08Z</time>
      </trkpt>
      <trkpt lat="36.769311" lon="-2.8384">
        <ele>119.619</ele>
        <time>2021-06-16T09:47:09Z</time>
      </trkpt>
      <trkpt lat="36.769217" lon="-2.838867">
        <ele>119.717</ele>
        <time>2021-06-16T09:47:11Z</time>
      </trkpt>
      <trkpt lat="36.769105" lon="-2.839337">
        <ele>120.311</ele>
        <time>2021-06-16T09:47:13Z</time>
      </trkpt>
      <trkpt lat="36.768979" lon="-2.839811">
        <ele>120.760</ele>
        <time>2021-06-16T09:47:15Z</time>
      </trkpt>
      <trkpt lat="36.768918" lon="-2.840047">
        <ele>120.863</ele>
        <time>2021-06-16T09:47:16Z</time>
      </trkpt>
      <trkpt lat="36.768857" lon="-2.840279">
        <ele>121.080</ele>
        <time>2021-06-16T09:47:17Z</time>
      </trkpt>
      <trkpt lat="36.768733" lon="-2.840743">
        <ele>121.677</ele>
        <time>2021-06-16T09:47:19Z</time>
      </trkpt>
      <trkpt lat="36.768615" lon="-2.841201">
        <ele>122.037</ele>
        <time>2021-06-16T09:47:21Z</time>
      </trkpt>
      <trkpt lat="36.768556" lon="-2.84143">
        <ele>121.911</ele>
        <time>2021-06-16T09:47:22Z</time>
      </trkpt>
      <trkpt lat="36.768439" lon="-2.841889">
        <ele>122.121</ele>
        <time>2021-06-16T09:47:24Z</time>
      </trkpt>
      <trkpt lat="36.768379" lon="-2.842119">
        <ele>122.603</ele>
        <time>2021-06-16T09:47:25Z</time>
      </trkpt>
      <trkpt lat="36.76832" lon="-2.842346">
        <ele>123.008</ele>
        <time>2021-06-16T09:47:26Z</time>
      </trkpt>
      <trkpt lat="36.768261" lon="-2.842573">
        <ele>123.178</ele>
        <time>2021-06-16T09:47:27Z</time>
      </trkpt>
      <trkpt lat="36.768146" lon="-2.843034">
        <ele>123.726</ele>
        <time>2021-06-16T09:47:29Z</time>
      </trkpt>
      <trkpt lat="36.768036" lon="-2.843485">
        <ele>123.930</ele>
        <time>2021-06-16T09:47:31Z</time>
      </trkpt>
      <trkpt lat="36.767981" lon="-2.843709">
        <ele>123.739</ele>
        <time>2021-06-16T09:47:32Z</time>
      </trkpt>
      <trkpt lat="36.767922" lon="-2.843931">
        <ele>123.862</ele>
        <time>2021-06-16T09:47:33Z</time>
      </trkpt>
      <trkpt lat="36.767806" lon="-2.844374">
        <ele>123.539</ele>
        <time>2021-06-16T09:47:35Z</time>
      </trkpt>
      <trkpt lat="36.767748" lon="-2.844597">
        <ele>123.486</ele>
        <time>2021-06-16T09:47:36Z</time>
      </trkpt>
      <trkpt lat="36.767687" lon="-2.844816">
        <ele>123.586</ele>
        <time>2021-06-16T09:47:37Z</time>
      </trkpt>
      <trkpt lat="36.767627" lon="-2.845038">
        <ele>123.267</ele>
        <time>2021-06-16T09:47:38Z</time>
      </trkpt>
      <trkpt lat="36.767507" lon="-2.845488">
        <ele>123.281</ele>
        <time>2021-06-16T09:47:40Z</time>
      </trkpt>
      <trkpt lat="36.767448" lon="-2.845716">
        <ele>123.319</ele>
        <time>2021-06-16T09:47:41Z</time>
      </trkpt>
      <trkpt lat="36.767328" lon="-2.846165">
        <ele>123.008</ele>
        <time>2021-06-16T09:47:43Z</time>
      </trkpt>
      <trkpt lat="36.767224" lon="-2.846585">
        <ele>123.273</ele>
        <time>2021-06-16T09:47:45Z</time>
      </trkpt>
      <trkpt lat="36.767175" lon="-2.846788">
        <ele>122.951</ele>
        <time>2021-06-16T09:47:46Z</time>
      </trkpt>
      <trkpt lat="36.767077" lon="-2.847187">
        <ele>122.415</ele>
        <time>2021-06-16T09:47:48Z</time>
      </trkpt>
      <trkpt lat="36.766971" lon="-2.847599">
        <ele>122.424</ele>
        <time>2021-06-16T09:47:50Z</time>
      </trkpt>
      <trkpt lat="36.766857" lon="-2.848046">
        <ele>121.987</ele>
        <time>2021-06-16T09:47:52Z</time>
      </trkpt>
      <trkpt lat="36.7668" lon="-2.848277">
        <ele>121.564</ele>
        <time>2021-06-16T09:47:53Z</time>
      </trkpt>
      <trkpt lat="36.766742" lon="-2.848512">
        <ele>121.151</ele>
        <time>2021-06-16T09:47:54Z</time>
      </trkpt>
      <trkpt lat="36.766627" lon="-2.848984">
        <ele>121.141</ele>
        <time>2021-06-16T09:47:56Z</time>
      </trkpt>
      <trkpt lat="36.766567" lon="-2.849222">
        <ele>120.713</ele>
        <time>2021-06-16T09:47:57Z</time>
      </trkpt>
      <trkpt lat="36.766442" lon="-2.849695">
        <ele>120.643</ele>
        <time>2021-06-16T09:47:59Z</time>
      </trkpt>
      <trkpt lat="36.766316" lon="-2.850177">
        <ele>120.207</ele>
        <time>2021-06-16T09:48:01Z</time>
      </trkpt>
      <trkpt lat="36.766249" lon="-2.85042">
        <ele>119.808</ele>
        <time>2021-06-16T09:48:02Z</time>
      </trkpt>
      <trkpt lat="36.766109" lon="-2.8509">
        <ele>119.748</ele>
        <time>2021-06-16T09:48:04Z</time>
      </trkpt>
      <trkpt lat="36.766039" lon="-2.851138">
        <ele>119.576</ele>
        <time>2021-06-16T09:48:05Z</time>
      </trkpt>
      <trkpt lat="36.765894" lon="-2.851613">
        <ele>118.960</ele>
        <time>2021-06-16T09:48:07Z</time>
      </trkpt>
      <trkpt lat="36.76582" lon="-2.851852">
        <ele>118.699</ele>
        <time>2021-06-16T09:48:08Z</time>
      </trkpt>
      <trkpt lat="36.765674" lon="-2.85232">
        <ele>118.062</ele>
        <time>2021-06-16T09:48:10Z</time>
      </trkpt>
      <trkpt lat="36.765518" lon="-2.852787">
        <ele>117.459</ele>
        <time>2021-06-16T09:48:12Z</time>
      </trkpt>
      <trkpt lat="36.765436" lon="-2.853019">
        <ele>117.436</ele>
        <time>2021-06-16T09:48:13Z</time>
      </trkpt>
      <trkpt lat="36.765268" lon="-2.85347">
        <ele>117.016</ele>
        <time>2021-06-16T09:48:15Z</time>
      </trkpt>
      <trkpt lat="36.765186" lon="-2.853698">
        <ele>117.152</ele>
        <time>2021-06-16T09:48:16Z</time>
      </trkpt>
      <trkpt lat="36.765022" lon="-2.85416">
        <ele>116.453</ele>
        <time>2021-06-16T09:48:18Z</time>
      </trkpt>
      <trkpt lat="36.764857" lon="-2.854614">
        <ele>115.508</ele>
        <time>2021-06-16T09:48:20Z</time>
      </trkpt>
      <trkpt lat="36.764773" lon="-2.85484">
        <ele>114.808</ele>
        <time>2021-06-16T09:48:21Z</time>
      </trkpt>
      <trkpt lat="36.764692" lon="-2.855065">
        <ele>113.962</ele>
        <time>2021-06-16T09:48:22Z</time>
      </trkpt>
      <trkpt lat="36.764527" lon="-2.855512">
        <ele>112.930</ele>
        <time>2021-06-16T09:48:24Z</time>
      </trkpt>
      <trkpt lat="36.764366" lon="-2.855959">
        <ele>111.664</ele>
        <time>2021-06-16T09:48:26Z</time>
      </trkpt>
      <trkpt lat="36.764203" lon="-2.856404">
        <ele>110.673</ele>
        <time>2021-06-16T09:48:28Z</time>
      </trkpt>
      <trkpt lat="36.764038" lon="-2.856855">
        <ele>109.796</ele>
        <time>2021-06-16T09:48:30Z</time>
      </trkpt>
      <trkpt lat="36.763957" lon="-2.85708">
        <ele>109.063</ele>
        <time>2021-06-16T09:48:31Z</time>
      </trkpt>
      <trkpt lat="36.763795" lon="-2.857526">
        <ele>108.550</ele>
        <time>2021-06-16T09:48:33Z</time>
      </trkpt>
      <trkpt lat="36.763631" lon="-2.857975">
        <ele>108.110</ele>
        <time>2021-06-16T09:48:35Z</time>
      </trkpt>
      <trkpt lat="36.763545" lon="-2.858199">
        <ele>107.564</ele>
        <time>2021-06-16T09:48:36Z</time>
      </trkpt>
      <trkpt lat="36.763374" lon="-2.858654">
        <ele>107.106</ele>
        <time>2021-06-16T09:48:38Z</time>
      </trkpt>
      <trkpt lat="36.763206" lon="-2.859105">
        <ele>106.916</ele>
        <time>2021-06-16T09:48:40Z</time>
      </trkpt>
      <trkpt lat="36.763037" lon="-2.859551">
        <ele>106.608</ele>
        <time>2021-06-16T09:48:42Z</time>
      </trkpt>
      <trkpt lat="36.762955" lon="-2.859774">
        <ele>106.483</ele>
        <time>2021-06-16T09:48:43Z</time>
      </trkpt>
      <trkpt lat="36.762875" lon="-2.859996">
        <ele>106.261</ele>
        <time>2021-06-16T09:48:44Z</time>
      </trkpt>
      <trkpt lat="36.762793" lon="-2.860217">
        <ele>106.035</ele>
        <time>2021-06-16T09:48:45Z</time>
      </trkpt>
      <trkpt lat="36.76271" lon="-2.860434">
        <ele>106.074</ele>
        <time>2021-06-16T09:48:46Z</time>
      </trkpt>
      <trkpt lat="36.762549" lon="-2.860869">
        <ele>105.977</ele>
        <time>2021-06-16T09:48:48Z</time>
      </trkpt>
      <trkpt lat="36.762391" lon="-2.861304">
        <ele>105.874</ele>
        <time>2021-06-16T09:48:50Z</time>
      </trkpt>
      <trkpt lat="36.762314" lon="-2.861522">
        <ele>105.631</ele>
        <time>2021-06-16T09:48:51Z</time>
      </trkpt>
      <trkpt lat="36.762157" lon="-2.861957">
        <ele>105.151</ele>
        <time>2021-06-16T09:48:53Z</time>
      </trkpt>
      <trkpt lat="36.762077" lon="-2.862172">
        <ele>104.968</ele>
        <time>2021-06-16T09:48:54Z</time>
      </trkpt>
      <trkpt lat="36.761998" lon="-2.862387">
        <ele>104.342</ele>
        <time>2021-06-16T09:48:55Z</time>
      </trkpt>
      <trkpt lat="36.76184" lon="-2.862814">
        <ele>104.026</ele>
        <time>2021-06-16T09:48:57Z</time>
      </trkpt>
      <trkpt lat="36.76176" lon="-2.86303">
        <ele>103.608</ele>
        <time>2021-06-16T09:48:58Z</time>
      </trkpt>
      <trkpt lat="36.761683" lon="-2.863243">
        <ele>103.583</ele>
        <time>2021-06-16T09:48:59Z</time>
      </trkpt>
      <trkpt lat="36.761606" lon="-2.863455">
        <ele>103.061</ele>
        <time>2021-06-16T09:49:00Z</time>
      </trkpt>
      <trkpt lat="36.76153" lon="-2.863665">
        <ele>102.685</ele>
        <time>2021-06-16T09:49:01Z</time>
      </trkpt>
      <trkpt lat="36.761456" lon="-2.863874">
        <ele>102.134</ele>
        <time>2021-06-16T09:49:02Z</time>
      </trkpt>
      <trkpt lat="36.761379" lon="-2.864081">
        <ele>101.987</ele>
        <time>2021-06-16T09:49:03Z</time>
      </trkpt>
      <trkpt lat="36.761227" lon="-2.864497">
        <ele>102.244</ele>
        <time>2021-06-16T09:49:05Z</time>
      </trkpt>
      <trkpt lat="36.761148" lon="-2.86471">
        <ele>102.411</ele>
        <time>2021-06-16T09:49:06Z</time>
      </trkpt>
      <trkpt lat="36.760985" lon="-2.865137">
        <ele>101.961</ele>
        <time>2021-06-16T09:49:08Z</time>
      </trkpt>
      <trkpt lat="36.760907" lon="-2.865354">
        <ele>101.589</ele>
        <time>2021-06-16T09:49:09Z</time>
      </trkpt>
      <trkpt lat="36.76075" lon="-2.865788">
        <ele>100.806</ele>
        <time>2021-06-16T09:49:11Z</time>
      </trkpt>
      <trkpt lat="36.760665" lon="-2.866002">
        <ele>100.626</ele>
        <time>2021-06-16T09:49:12Z</time>
      </trkpt>
      <trkpt lat="36.760584" lon="-2.866219">
        <ele>100.208</ele>
        <time>2021-06-16T09:49:13Z</time>
      </trkpt>
      <trkpt lat="36.760416" lon="-2.866652">
        <ele>99.615</ele>
        <time>2021-06-16T09:49:15Z</time>
      </trkpt>
      <trkpt lat="36.760239" lon="-2.867083">
        <ele>98.953</ele>
        <time>2021-06-16T09:49:17Z</time>
      </trkpt>
      <trkpt lat="36.760067" lon="-2.867505">
        <ele>98.447</ele>
        <time>2021-06-16T09:49:19Z</time>
      </trkpt>
      <trkpt lat="36.759982" lon="-2.867717">
        <ele>97.836</ele>
        <time>2021-06-16T09:49:20Z</time>
      </trkpt>
      <trkpt lat="36.759814" lon="-2.868143">
        <ele>97.149</ele>
        <time>2021-06-16T09:49:22Z</time>
      </trkpt>
      <trkpt lat="36.759728" lon="-2.868356">
        <ele>96.786</ele>
        <time>2021-06-16T09:49:23Z</time>
      </trkpt>
      <trkpt lat="36.759559" lon="-2.868785">
        <ele>96.313</ele>
        <time>2021-06-16T09:49:25Z</time>
      </trkpt>
      <trkpt lat="36.759476" lon="-2.868998">
        <ele>96.083</ele>
        <time>2021-06-16T09:49:26Z</time>
      </trkpt>
      <trkpt lat="36.759312" lon="-2.869421">
        <ele>95.462</ele>
        <time>2021-06-16T09:49:28Z</time>
      </trkpt>
      <trkpt lat="36.759153" lon="-2.869842">
        <ele>95.183</ele>
        <time>2021-06-16T09:49:30Z</time>
      </trkpt>
      <trkpt lat="36.759076" lon="-2.870053">
        <ele>94.611</ele>
        <time>2021-06-16T09:49:31Z</time>
      </trkpt>
      <trkpt lat="36.758922" lon="-2.87047">
        <ele>94.608</ele>
        <time>2021-06-16T09:49:33Z</time>
      </trkpt>
      <trkpt lat="36.758842" lon="-2.870677">
        <ele>94.763</ele>
        <time>2021-06-16T09:49:34Z</time>
      </trkpt>
      <trkpt lat="36.75869" lon="-2.871097">
        <ele>94.631</ele>
        <time>2021-06-16T09:49:36Z</time>
      </trkpt>
      <trkpt lat="36.758614" lon="-2.871306">
        <ele>94.925</ele>
        <time>2021-06-16T09:49:37Z</time>
      </trkpt>
      <trkpt lat="36.758463" lon="-2.871723">
        <ele>94.524</ele>
        <time>2021-06-16T09:49:39Z</time>
      </trkpt>
      <trkpt lat="36.758311" lon="-2.872146">
        <ele>94.497</ele>
        <time>2021-06-16T09:49:41Z</time>
      </trkpt>
      <trkpt lat="36.758236" lon="-2.87236">
        <ele>94.294</ele>
        <time>2021-06-16T09:49:42Z</time>
      </trkpt>
      <trkpt lat="36.75816" lon="-2.872574">
        <ele>93.861</ele>
        <time>2021-06-16T09:49:43Z</time>
      </trkpt>
      <trkpt lat="36.758013" lon="-2.873004">
        <ele>93.331</ele>
        <time>2021-06-16T09:49:45Z</time>
      </trkpt>
      <trkpt lat="36.757859" lon="-2.873433">
        <ele>93.139</ele>
        <time>2021-06-16T09:49:47Z</time>
      </trkpt>
      <trkpt lat="36.75778" lon="-2.873648">
        <ele>92.901</ele>
        <time>2021-06-16T09:49:48Z</time>
      </trkpt>
      <trkpt lat="36.75762" lon="-2.874075">
        <ele>92.821</ele>
        <time>2021-06-16T09:49:50Z</time>
      </trkpt>
      <trkpt lat="36.757456" lon="-2.874507">
        <ele>92.808</ele>
        <time>2021-06-16T09:49:52Z</time>
      </trkpt>
      <trkpt lat="36.757304" lon="-2.874945">
        <ele>92.510</ele>
        <time>2021-06-16T09:49:54Z</time>
      </trkpt>
      <trkpt lat="36.757152" lon="-2.875381">
        <ele>92.138</ele>
        <time>2021-06-16T09:49:56Z</time>
      </trkpt>
      <trkpt lat="36.757075" lon="-2.875597">
        <ele>92.122</ele>
        <time>2021-06-16T09:49:57Z</time>
      </trkpt>
      <trkpt lat="36.757" lon="-2.875811">
        <ele>92.011</ele>
        <time>2021-06-16T09:49:58Z</time>
      </trkpt>
      <trkpt lat="36.756848" lon="-2.876231">
        <ele>92.234</ele>
        <time>2021-06-16T09:50:00Z</time>
      </trkpt>
      <trkpt lat="36.756776" lon="-2.876441">
        <ele>92.091</ele>
        <time>2021-06-16T09:50:01Z</time>
      </trkpt>
      <trkpt lat="36.756628" lon="-2.87686">
        <ele>91.848</ele>
        <time>2021-06-16T09:50:03Z</time>
      </trkpt>
      <trkpt lat="36.756551" lon="-2.877068">
        <ele>91.598</ele>
        <time>2021-06-16T09:50:04Z</time>
      </trkpt>
      <trkpt lat="36.756398" lon="-2.877486">
        <ele>90.544</ele>
        <time>2021-06-16T09:50:06Z</time>
      </trkpt>
      <trkpt lat="36.756254" lon="-2.877906">
        <ele>90.305</ele>
        <time>2021-06-16T09:50:08Z</time>
      </trkpt>
      <trkpt lat="36.756184" lon="-2.878119">
        <ele>89.915</ele>
        <time>2021-06-16T09:50:09Z</time>
      </trkpt>
      <trkpt lat="36.756044" lon="-2.878541">
        <ele>90.008</ele>
        <time>2021-06-16T09:50:11Z</time>
      </trkpt>
      <trkpt lat="36.755907" lon="-2.878955">
        <ele>89.711</ele>
        <time>2021-06-16T09:50:13Z</time>
      </trkpt>
      <trkpt lat="36.755777" lon="-2.879381">
        <ele>89.299</ele>
        <time>2021-06-16T09:50:15Z</time>
      </trkpt>
      <trkpt lat="36.755713" lon="-2.879599">
        <ele>89.083</ele>
        <time>2021-06-16T09:50:16Z</time>
      </trkpt>
      <trkpt lat="36.755595" lon="-2.880045">
        <ele>88.632</ele>
        <time>2021-06-16T09:50:18Z</time>
      </trkpt>
      <trkpt lat="36.755538" lon="-2.880275">
        <ele>88.485</ele>
        <time>2021-06-16T09:50:19Z</time>
      </trkpt>
      <trkpt lat="36.755438" lon="-2.880738">
        <ele>88.742</ele>
        <time>2021-06-16T09:50:21Z</time>
      </trkpt>
      <trkpt lat="36.755339" lon="-2.881197">
        <ele>88.499</ele>
        <time>2021-06-16T09:50:23Z</time>
      </trkpt>
      <trkpt lat="36.755246" lon="-2.88166">
        <ele>88.559</ele>
        <time>2021-06-16T09:50:25Z</time>
      </trkpt>
      <trkpt lat="36.755202" lon="-2.881894">
        <ele>88.992</ele>
        <time>2021-06-16T09:50:26Z</time>
      </trkpt>
      <trkpt lat="36.755112" lon="-2.88236">
        <ele>88.973</ele>
        <time>2021-06-16T09:50:28Z</time>
      </trkpt>
      <trkpt lat="36.755067" lon="-2.882597">
        <ele>89.220</ele>
        <time>2021-06-16T09:50:29Z</time>
      </trkpt>
      <trkpt lat="36.754973" lon="-2.883064">
        <ele>89.008</ele>
        <time>2021-06-16T09:50:31Z</time>
      </trkpt>
      <trkpt lat="36.754927" lon="-2.8833">
        <ele>88.626</ele>
        <time>2021-06-16T09:50:32Z</time>
      </trkpt>
      <trkpt lat="36.754835" lon="-2.883772">
        <ele>88.344</ele>
        <time>2021-06-16T09:50:34Z</time>
      </trkpt>
      <trkpt lat="36.754788" lon="-2.884009">
        <ele>88.148</ele>
        <time>2021-06-16T09:50:35Z</time>
      </trkpt>
      <trkpt lat="36.754695" lon="-2.884477">
        <ele>87.937</ele>
        <time>2021-06-16T09:50:37Z</time>
      </trkpt>
      <trkpt lat="36.754614" lon="-2.884928">
        <ele>87.980</ele>
        <time>2021-06-16T09:50:39Z</time>
      </trkpt>
      <trkpt lat="36.754551" lon="-2.88538">
        <ele>87.457</ele>
        <time>2021-06-16T09:50:41Z</time>
      </trkpt>
      <trkpt lat="36.754522" lon="-2.885604">
        <ele>87.134</ele>
        <time>2021-06-16T09:50:42Z</time>
      </trkpt>
      <trkpt lat="36.754483" lon="-2.886061">
        <ele>86.744</ele>
        <time>2021-06-16T09:50:44Z</time>
      </trkpt>
      <trkpt lat="36.754468" lon="-2.886293">
        <ele>86.658</ele>
        <time>2021-06-16T09:50:45Z</time>
      </trkpt>
      <trkpt lat="36.754456" lon="-2.886522">
        <ele>86.652</ele>
        <time>2021-06-16T09:50:46Z</time>
      </trkpt>
      <trkpt lat="36.754447" lon="-2.886982">
        <ele>85.817</ele>
        <time>2021-06-16T09:50:48Z</time>
      </trkpt>
      <trkpt lat="36.754444" lon="-2.887211">
        <ele>85.108</ele>
        <time>2021-06-16T09:50:49Z</time>
      </trkpt>
      <trkpt lat="36.754434" lon="-2.887673">
        <ele>84.562</ele>
        <time>2021-06-16T09:50:51Z</time>
      </trkpt>
      <trkpt lat="36.754427" lon="-2.887911">
        <ele>84.350</ele>
        <time>2021-06-16T09:50:52Z</time>
      </trkpt>
      <trkpt lat="36.754414" lon="-2.888379">
        <ele>83.894</ele>
        <time>2021-06-16T09:50:54Z</time>
      </trkpt>
      <trkpt lat="36.754404" lon="-2.88862">
        <ele>84.113</ele>
        <time>2021-06-16T09:50:55Z</time>
      </trkpt>
      <trkpt lat="36.754393" lon="-2.888861">
        <ele>84.356</ele>
        <time>2021-06-16T09:50:56Z</time>
      </trkpt>
      <trkpt lat="36.754375" lon="-2.889098">
        <ele>84.273</ele>
        <time>2021-06-16T09:50:57Z</time>
      </trkpt>
      <trkpt lat="36.75434" lon="-2.889578">
        <ele>83.830</ele>
        <time>2021-06-16T09:50:59Z</time>
      </trkpt>
      <trkpt lat="36.754314" lon="-2.88982">
        <ele>83.990</ele>
        <time>2021-06-16T09:51:00Z</time>
      </trkpt>
      <trkpt lat="36.754264" lon="-2.890292">
        <ele>83.577</ele>
        <time>2021-06-16T09:51:02Z</time>
      </trkpt>
      <trkpt lat="36.754215" lon="-2.890743">
        <ele>83.361</ele>
        <time>2021-06-16T09:51:04Z</time>
      </trkpt>
      <trkpt lat="36.754196" lon="-2.890959">
        <ele>83.527</ele>
        <time>2021-06-16T09:51:05Z</time>
      </trkpt>
      <trkpt lat="36.754174" lon="-2.891364">
        <ele>83.508</ele>
        <time>2021-06-16T09:51:07Z</time>
      </trkpt>
      <trkpt lat="36.754169" lon="-2.891552">
        <ele>83.194</ele>
        <time>2021-06-16T09:51:08Z</time>
      </trkpt>
      <trkpt lat="36.75418" lon="-2.89173">
        <ele>83.072</ele>
        <time>2021-06-16T09:51:09Z</time>
      </trkpt>
      <trkpt lat="36.754256" lon="-2.892056">
        <ele>82.396</ele>
        <time>2021-06-16T09:51:11Z</time>
      </trkpt>
      <trkpt lat="36.754317" lon="-2.892207">
        <ele>81.875</ele>
        <time>2021-06-16T09:51:12Z</time>
      </trkpt>
      <trkpt lat="36.754385" lon="-2.89235">
        <ele>81.628</ele>
        <time>2021-06-16T09:51:13Z</time>
      </trkpt>
      <trkpt lat="36.754462" lon="-2.892478">
        <ele>81.335</ele>
        <time>2021-06-16T09:51:14Z</time>
      </trkpt>
      <trkpt lat="36.754624" lon="-2.892712">
        <ele>80.562</ele>
        <time>2021-06-16T09:51:16Z</time>
      </trkpt>
      <trkpt lat="36.754705" lon="-2.892825">
        <ele>79.732</ele>
        <time>2021-06-16T09:51:17Z</time>
      </trkpt>
      <trkpt lat="36.754781" lon="-2.892941">
        <ele>78.618</ele>
        <time>2021-06-16T09:51:18Z</time>
      </trkpt>
      <trkpt lat="36.754845" lon="-2.893072">
        <ele>77.998</ele>
        <time>2021-06-16T09:51:19Z</time>
      </trkpt>
      <trkpt lat="36.754926" lon="-2.893381">
        <ele>77.117</ele>
        <time>2021-06-16T09:51:21Z</time>
      </trkpt>
      <trkpt lat="36.754953" lon="-2.893545">
        <ele>76.708</ele>
        <time>2021-06-16T09:51:22Z</time>
      </trkpt>
      <trkpt lat="36.75496" lon="-2.893719">
        <ele>76.348</ele>
        <time>2021-06-16T09:51:23Z</time>
      </trkpt>
      <trkpt lat="36.754913" lon="-2.89406">
        <ele>75.736</ele>
        <time>2021-06-16T09:51:25Z</time>
      </trkpt>
      <trkpt lat="36.754862" lon="-2.894219">
        <ele>75.120</ele>
        <time>2021-06-16T09:51:26Z</time>
      </trkpt>
      <trkpt lat="36.754795" lon="-2.894366">
        <ele>74.379</ele>
        <time>2021-06-16T09:51:27Z</time>
      </trkpt>
      <trkpt lat="36.75472" lon="-2.8945">
        <ele>73.692</ele>
        <time>2021-06-16T09:51:28Z</time>
      </trkpt>
      <trkpt lat="36.754636" lon="-2.894616">
        <ele>72.899</ele>
        <time>2021-06-16T09:51:29Z</time>
      </trkpt>
      <trkpt lat="36.754445" lon="-2.89481">
        <ele>72.336</ele>
        <time>2021-06-16T09:51:31Z</time>
      </trkpt>
      <trkpt lat="36.754222" lon="-2.894931">
        <ele>71.296</ele>
        <time>2021-06-16T09:51:33Z</time>
      </trkpt>
      <trkpt lat="36.753982" lon="-2.895004">
        <ele>70.777</ele>
        <time>2021-06-16T09:51:35Z</time>
      </trkpt>
      <trkpt lat="36.753861" lon="-2.895039">
        <ele>70.261</ele>
        <time>2021-06-16T09:51:36Z</time>
      </trkpt>
      <trkpt lat="36.753741" lon="-2.895067">
        <ele>70.027</ele>
        <time>2021-06-16T09:51:37Z</time>
      </trkpt>
      <trkpt lat="36.753484" lon="-2.895138">
        <ele>69.908</ele>
        <time>2021-06-16T09:51:39Z</time>
      </trkpt>
      <trkpt lat="36.753353" lon="-2.895177">
        <ele>69.974</ele>
        <time>2021-06-16T09:51:40Z</time>
      </trkpt>
      <trkpt lat="36.75309" lon="-2.895253">
        <ele>69.442</ele>
        <time>2021-06-16T09:51:42Z</time>
      </trkpt>
      <trkpt lat="36.752831" lon="-2.895364">
        <ele>69.356</ele>
        <time>2021-06-16T09:51:44Z</time>
      </trkpt>
      <trkpt lat="36.752712" lon="-2.895452">
        <ele>69.025</ele>
        <time>2021-06-16T09:51:45Z</time>
      </trkpt>
      <trkpt lat="36.752602" lon="-2.895565">
        <ele>68.068</ele>
        <time>2021-06-16T09:51:46Z</time>
      </trkpt>
      <trkpt lat="36.752501" lon="-2.895693">
        <ele>67.365</ele>
        <time>2021-06-16T09:51:47Z</time>
      </trkpt>
      <trkpt lat="36.752307" lon="-2.895967">
        <ele>66.322</ele>
        <time>2021-06-16T09:51:49Z</time>
      </trkpt>
      <trkpt lat="36.752208" lon="-2.896107">
        <ele>65.312</ele>
        <time>2021-06-16T09:51:50Z</time>
      </trkpt>
      <trkpt lat="36.752106" lon="-2.896249">
        <ele>64.737</ele>
        <time>2021-06-16T09:51:51Z</time>
      </trkpt>
      <trkpt lat="36.752002" lon="-2.896391">
        <ele>63.849</ele>
        <time>2021-06-16T09:51:52Z</time>
      </trkpt>
      <trkpt lat="36.751786" lon="-2.896673">
        <ele>62.713</ele>
        <time>2021-06-16T09:51:54Z</time>
      </trkpt>
      <trkpt lat="36.751577" lon="-2.896958">
        <ele>62.108</ele>
        <time>2021-06-16T09:51:56Z</time>
      </trkpt>
      <trkpt lat="36.751368" lon="-2.897253">
        <ele>61.450</ele>
        <time>2021-06-16T09:51:58Z</time>
      </trkpt>
      <trkpt lat="36.751265" lon="-2.897405">
        <ele>60.838</ele>
        <time>2021-06-16T09:51:59Z</time>
      </trkpt>
      <trkpt lat="36.751166" lon="-2.897555">
        <ele>60.452</ele>
        <time>2021-06-16T09:52:00Z</time>
      </trkpt>
      <trkpt lat="36.751067" lon="-2.897704">
        <ele>59.421</ele>
        <time>2021-06-16T09:52:01Z</time>
      </trkpt>
      <trkpt lat="36.750969" lon="-2.897856">
        <ele>59.034</ele>
        <time>2021-06-16T09:52:02Z</time>
      </trkpt>
      <trkpt lat="36.750773" lon="-2.898169">
        <ele>57.761</ele>
        <time>2021-06-16T09:52:04Z</time>
      </trkpt>
      <trkpt lat="36.750673" lon="-2.898326">
        <ele>56.798</ele>
        <time>2021-06-16T09:52:05Z</time>
      </trkpt>
      <trkpt lat="36.750574" lon="-2.898483">
        <ele>55.698</ele>
        <time>2021-06-16T09:52:06Z</time>
      </trkpt>
      <trkpt lat="36.750478" lon="-2.898641">
        <ele>55.045</ele>
        <time>2021-06-16T09:52:07Z</time>
      </trkpt>
      <trkpt lat="36.750292" lon="-2.898953">
        <ele>53.547</ele>
        <time>2021-06-16T09:52:09Z</time>
      </trkpt>
      <trkpt lat="36.750197" lon="-2.89911">
        <ele>52.411</ele>
        <time>2021-06-16T09:52:10Z</time>
      </trkpt>
      <trkpt lat="36.75002" lon="-2.899432">
        <ele>50.808</ele>
        <time>2021-06-16T09:52:12Z</time>
      </trkpt>
      <trkpt lat="36.749927" lon="-2.899593">
        <ele>49.381</ele>
        <time>2021-06-16T09:52:13Z</time>
      </trkpt>
      <trkpt lat="36.749836" lon="-2.899756">
        <ele>48.519</ele>
        <time>2021-06-16T09:52:14Z</time>
      </trkpt>
      <trkpt lat="36.749641" lon="-2.900073">
        <ele>48.083</ele>
        <time>2021-06-16T09:52:16Z</time>
      </trkpt>
      <trkpt lat="36.749543" lon="-2.900231">
        <ele>47.322</ele>
        <time>2021-06-16T09:52:17Z</time>
      </trkpt>
      <trkpt lat="36.749444" lon="-2.900387">
        <ele>46.485</ele>
        <time>2021-06-16T09:52:18Z</time>
      </trkpt>
      <trkpt lat="36.74925" lon="-2.900692">
        <ele>46.112</ele>
        <time>2021-06-16T09:52:20Z</time>
      </trkpt>
      <trkpt lat="36.749063" lon="-2.900989">
        <ele>44.669</ele>
        <time>2021-06-16T09:52:22Z</time>
      </trkpt>
      <trkpt lat="36.748894" lon="-2.901279">
        <ele>43.169</ele>
        <time>2021-06-16T09:52:24Z</time>
      </trkpt>
      <trkpt lat="36.748816" lon="-2.90142">
        <ele>42.459</ele>
        <time>2021-06-16T09:52:25Z</time>
      </trkpt>
      <trkpt lat="36.748743" lon="-2.901564">
        <ele>41.703</ele>
        <time>2021-06-16T09:52:26Z</time>
      </trkpt>
      <trkpt lat="36.748674" lon="-2.901711">
        <ele>41.223</ele>
        <time>2021-06-16T09:52:27Z</time>
      </trkpt>
      <trkpt lat="36.748562" lon="-2.902016">
        <ele>39.908</ele>
        <time>2021-06-16T09:52:29Z</time>
      </trkpt>
      <trkpt lat="36.748497" lon="-2.90235">
        <ele>38.442</ele>
        <time>2021-06-16T09:52:31Z</time>
      </trkpt>
      <trkpt lat="36.748472" lon="-2.902521">
        <ele>37.590</ele>
        <time>2021-06-16T09:52:32Z</time>
      </trkpt>
      <trkpt lat="36.748449" lon="-2.902697">
        <ele>37.254</ele>
        <time>2021-06-16T09:52:33Z</time>
      </trkpt>
      <trkpt lat="36.748429" lon="-2.903063">
        <ele>36.643</ele>
        <time>2021-06-16T09:52:35Z</time>
      </trkpt>
      <trkpt lat="36.748458" lon="-2.903416">
        <ele>35.746</ele>
        <time>2021-06-16T09:52:37Z</time>
      </trkpt>
      <trkpt lat="36.74849" lon="-2.903589">
        <ele>34.823</ele>
        <time>2021-06-16T09:52:38Z</time>
      </trkpt>
      <trkpt lat="36.748581" lon="-2.903909">
        <ele>34.750</ele>
        <time>2021-06-16T09:52:40Z</time>
      </trkpt>
      <trkpt lat="36.74868" lon="-2.904193">
        <ele>35.340</ele>
        <time>2021-06-16T09:52:42Z</time>
      </trkpt>
      <trkpt lat="36.748782" lon="-2.904439">
        <ele>35.462</ele>
        <time>2021-06-16T09:52:44Z</time>
      </trkpt>
      <trkpt lat="36.748882" lon="-2.904644">
        <ele>35.683</ele>
        <time>2021-06-16T09:52:46Z</time>
      </trkpt>
      <trkpt lat="36.748981" lon="-2.904818">
        <ele>35.811</ele>
        <time>2021-06-16T09:52:48Z</time>
      </trkpt>
      <trkpt lat="36.749038" lon="-2.904894">
        <ele>35.908</ele>
        <time>2021-06-16T09:52:49Z</time>
      </trkpt>
      <trkpt lat="36.749163" lon="-2.905039">
        <ele>36.173</ele>
        <time>2021-06-16T09:52:51Z</time>
      </trkpt>
      <trkpt lat="36.749216" lon="-2.905126">
        <ele>35.991</ele>
        <time>2021-06-16T09:52:52Z</time>
      </trkpt>
      <trkpt lat="36.749256" lon="-2.905228">
        <ele>35.695</ele>
        <time>2021-06-16T09:52:53Z</time>
      </trkpt>
      <trkpt lat="36.749305" lon="-2.905455">
        <ele>34.884</ele>
        <time>2021-06-16T09:52:55Z</time>
      </trkpt>
      <trkpt lat="36.749379" lon="-2.905688">
        <ele>34.167</ele>
        <time>2021-06-16T09:52:57Z</time>
      </trkpt>
      <trkpt lat="36.74943" lon="-2.905801">
        <ele>33.984</ele>
        <time>2021-06-16T09:52:58Z</time>
      </trkpt>
      <trkpt lat="36.749486" lon="-2.905915">
        <ele>33.721</ele>
        <time>2021-06-16T09:52:59Z</time>
      </trkpt>
      <trkpt lat="36.749598" lon="-2.906143">
        <ele>33.421</ele>
        <time>2021-06-16T09:53:01Z</time>
      </trkpt>
      <trkpt lat="36.749706" lon="-2.906368">
        <ele>32.649</ele>
        <time>2021-06-16T09:53:03Z</time>
      </trkpt>
      <trkpt lat="36.749815" lon="-2.906591">
        <ele>31.602</ele>
        <time>2021-06-16T09:53:05Z</time>
      </trkpt>
      <trkpt lat="36.749908" lon="-2.906825">
        <ele>30.722</ele>
        <time>2021-06-16T09:53:07Z</time>
      </trkpt>
      <trkpt lat="36.749961" lon="-2.906943">
        <ele>30.408</ele>
        <time>2021-06-16T09:53:08Z</time>
      </trkpt>
      <trkpt lat="36.750069" lon="-2.907175">
        <ele>30.251</ele>
        <time>2021-06-16T09:53:10Z</time>
      </trkpt>
      <trkpt lat="36.750176" lon="-2.907404">
        <ele>30.029</ele>
        <time>2021-06-16T09:53:12Z</time>
      </trkpt>
      <trkpt lat="36.750289" lon="-2.907636">
        <ele>29.563</ele>
        <time>2021-06-16T09:53:14Z</time>
      </trkpt>
      <trkpt lat="36.750345" lon="-2.90775">
        <ele>29.232</ele>
        <time>2021-06-16T09:53:15Z</time>
      </trkpt>
      <trkpt lat="36.750456" lon="-2.907981">
        <ele>28.925</ele>
        <time>2021-06-16T09:53:17Z</time>
      </trkpt>
      <trkpt lat="36.750573" lon="-2.908223">
        <ele>28.272</ele>
        <time>2021-06-16T09:53:19Z</time>
      </trkpt>
      <trkpt lat="36.750633" lon="-2.908348">
        <ele>28.099</ele>
        <time>2021-06-16T09:53:20Z</time>
      </trkpt>
      <trkpt lat="36.750694" lon="-2.908475">
        <ele>27.879</ele>
        <time>2021-06-16T09:53:21Z</time>
      </trkpt>
      <trkpt lat="36.750818" lon="-2.908735">
        <ele>27.685</ele>
        <time>2021-06-16T09:53:23Z</time>
      </trkpt>
      <trkpt lat="36.750943" lon="-2.908996">
        <ele>27.289</ele>
        <time>2021-06-16T09:53:25Z</time>
      </trkpt>
      <trkpt lat="36.751068" lon="-2.909259">
        <ele>26.417</ele>
        <time>2021-06-16T09:53:27Z</time>
      </trkpt>
      <trkpt lat="36.751131" lon="-2.909391">
        <ele>26.308</ele>
        <time>2021-06-16T09:53:28Z</time>
      </trkpt>
      <trkpt lat="36.75119" lon="-2.909523">
        <ele>25.975</ele>
        <time>2021-06-16T09:53:29Z</time>
      </trkpt>
      <trkpt lat="36.751252" lon="-2.909651">
        <ele>25.473</ele>
        <time>2021-06-16T09:53:30Z</time>
      </trkpt>
      <trkpt lat="36.751365" lon="-2.909895">
        <ele>25.037</ele>
        <time>2021-06-16T09:53:32Z</time>
      </trkpt>
      <trkpt lat="36.751463" lon="-2.910115">
        <ele>24.846</ele>
        <time>2021-06-16T09:53:34Z</time>
      </trkpt>
      <trkpt lat="36.751554" lon="-2.910303">
        <ele>24.589</ele>
        <time>2021-06-16T09:53:36Z</time>
      </trkpt>
      <trkpt lat="36.751652" lon="-2.910456">
        <ele>25.086</ele>
        <time>2021-06-16T09:53:38Z</time>
      </trkpt>
      <trkpt lat="36.751731" lon="-2.910612">
        <ele>25.553</ele>
        <time>2021-06-16T09:53:40Z</time>
      </trkpt>
      <trkpt lat="36.751782" lon="-2.910801">
        <ele>25.173</ele>
        <time>2021-06-16T09:53:42Z</time>
      </trkpt>
      <trkpt lat="36.751824" lon="-2.910899">
        <ele>24.736</ele>
        <time>2021-06-16T09:53:43Z</time>
      </trkpt>
      <trkpt lat="36.751923" lon="-2.911103">
        <ele>24.617</ele>
        <time>2021-06-16T09:53:45Z</time>
      </trkpt>
      <trkpt lat="36.752031" lon="-2.911327">
        <ele>25.018</ele>
        <time>2021-06-16T09:53:47Z</time>
      </trkpt>
      <trkpt lat="36.752139" lon="-2.91156">
        <ele>25.308</ele>
        <time>2021-06-16T09:53:49Z</time>
      </trkpt>
      <trkpt lat="36.752193" lon="-2.911684">
        <ele>25.460</ele>
        <time>2021-06-16T09:53:50Z</time>
      </trkpt>
      <trkpt lat="36.752317" lon="-2.911932">
        <ele>25.398</ele>
        <time>2021-06-16T09:53:52Z</time>
      </trkpt>
      <trkpt lat="36.752442" lon="-2.91219">
        <ele>25.172</ele>
        <time>2021-06-16T09:53:54Z</time>
      </trkpt>
      <trkpt lat="36.752508" lon="-2.912323">
        <ele>25.241</ele>
        <time>2021-06-16T09:53:55Z</time>
      </trkpt>
      <trkpt lat="36.752635" lon="-2.912596">
        <ele>25.374</ele>
        <time>2021-06-16T09:53:57Z</time>
      </trkpt>
      <trkpt lat="36.752762" lon="-2.912878">
        <ele>25.411</ele>
        <time>2021-06-16T09:53:59Z</time>
      </trkpt>
      <trkpt lat="36.752887" lon="-2.913151">
        <ele>25.848</ele>
        <time>2021-06-16T09:54:01Z</time>
      </trkpt>
      <trkpt lat="36.752953" lon="-2.913289">
        <ele>26.358</ele>
        <time>2021-06-16T09:54:02Z</time>
      </trkpt>
      <trkpt lat="36.753078" lon="-2.913556">
        <ele>26.665</ele>
        <time>2021-06-16T09:54:04Z</time>
      </trkpt>
      <trkpt lat="36.753214" lon="-2.913821">
        <ele>26.668</ele>
        <time>2021-06-16T09:54:06Z</time>
      </trkpt>
      <trkpt lat="36.753341" lon="-2.914096">
        <ele>26.414</ele>
        <time>2021-06-16T09:54:08Z</time>
      </trkpt>
      <trkpt lat="36.753478" lon="-2.914385">
        <ele>26.808</ele>
        <time>2021-06-16T09:54:10Z</time>
      </trkpt>
      <trkpt lat="36.753547" lon="-2.914532">
        <ele>27.373</ele>
        <time>2021-06-16T09:54:11Z</time>
      </trkpt>
      <trkpt lat="36.753676" lon="-2.914834">
        <ele>27.861</ele>
        <time>2021-06-16T09:54:13Z</time>
      </trkpt>
      <trkpt lat="36.753732" lon="-2.914996">
        <ele>28.395</ele>
        <time>2021-06-16T09:54:14Z</time>
      </trkpt>
      <trkpt lat="36.753826" lon="-2.915346">
        <ele>29.264</ele>
        <time>2021-06-16T09:54:16Z</time>
      </trkpt>
      <trkpt lat="36.753893" lon="-2.915708">
        <ele>29.747</ele>
        <time>2021-06-16T09:54:18Z</time>
      </trkpt>
      <trkpt lat="36.753909" lon="-2.915896">
        <ele>30.394</ele>
        <time>2021-06-16T09:54:19Z</time>
      </trkpt>
      <trkpt lat="36.75391" lon="-2.916281">
        <ele>30.321</ele>
        <time>2021-06-16T09:54:21Z</time>
      </trkpt>
      <trkpt lat="36.753894" lon="-2.91647">
        <ele>30.341</ele>
        <time>2021-06-16T09:54:22Z</time>
      </trkpt>
      <trkpt lat="36.753868" lon="-2.916659">
        <ele>30.365</ele>
        <time>2021-06-16T09:54:23Z</time>
      </trkpt>
      <trkpt lat="36.753829" lon="-2.916849">
        <ele>30.368</ele>
        <time>2021-06-16T09:54:24Z</time>
      </trkpt>
      <trkpt lat="36.753732" lon="-2.917221">
        <ele>30.214</ele>
        <time>2021-06-16T09:54:26Z</time>
      </trkpt>
      <trkpt lat="36.753632" lon="-2.917601">
        <ele>29.708</ele>
        <time>2021-06-16T09:54:28Z</time>
      </trkpt>
      <trkpt lat="36.753582" lon="-2.917789">
        <ele>29.413</ele>
        <time>2021-06-16T09:54:29Z</time>
      </trkpt>
      <trkpt lat="36.753499" lon="-2.918169">
        <ele>28.871</ele>
        <time>2021-06-16T09:54:31Z</time>
      </trkpt>
      <trkpt lat="36.753484" lon="-2.918371">
        <ele>27.845</ele>
        <time>2021-06-16T09:54:32Z</time>
      </trkpt>
      <trkpt lat="36.753482" lon="-2.918794">
        <ele>27.614</ele>
        <time>2021-06-16T09:54:34Z</time>
      </trkpt>
      <trkpt lat="36.753503" lon="-2.91924">
        <ele>27.877</ele>
        <time>2021-06-16T09:54:36Z</time>
      </trkpt>
      <trkpt lat="36.753531" lon="-2.919467">
        <ele>28.284</ele>
        <time>2021-06-16T09:54:37Z</time>
      </trkpt>
      <trkpt lat="36.753613" lon="-2.919918">
        <ele>28.881</ele>
        <time>2021-06-16T09:54:39Z</time>
      </trkpt>
      <trkpt lat="36.753658" lon="-2.920142">
        <ele>29.271</ele>
        <time>2021-06-16T09:54:40Z</time>
      </trkpt>
      <trkpt lat="36.753698" lon="-2.920366">
        <ele>29.581</ele>
        <time>2021-06-16T09:54:41Z</time>
      </trkpt>
      <trkpt lat="36.753723" lon="-2.920582">
        <ele>29.361</ele>
        <time>2021-06-16T09:54:42Z</time>
      </trkpt>
      <trkpt lat="36.753716" lon="-2.921001">
        <ele>28.617</ele>
        <time>2021-06-16T09:54:44Z</time>
      </trkpt>
      <trkpt lat="36.753689" lon="-2.92122">
        <ele>28.108</ele>
        <time>2021-06-16T09:54:45Z</time>
      </trkpt>
      <trkpt lat="36.753652" lon="-2.921434">
        <ele>27.295</ele>
        <time>2021-06-16T09:54:46Z</time>
      </trkpt>
      <trkpt lat="36.753559" lon="-2.921848">
        <ele>26.473</ele>
        <time>2021-06-16T09:54:48Z</time>
      </trkpt>
      <trkpt lat="36.753508" lon="-2.922054">
        <ele>25.787</ele>
        <time>2021-06-16T09:54:49Z</time>
      </trkpt>
      <trkpt lat="36.753458" lon="-2.922264">
        <ele>25.146</ele>
        <time>2021-06-16T09:54:50Z</time>
      </trkpt>
      <trkpt lat="36.753411" lon="-2.922476">
        <ele>24.819</ele>
        <time>2021-06-16T09:54:51Z</time>
      </trkpt>
      <trkpt lat="36.753321" lon="-2.9229">
        <ele>24.796</ele>
        <time>2021-06-16T09:54:53Z</time>
      </trkpt>
      <trkpt lat="36.753225" lon="-2.923325">
        <ele>24.943</ele>
        <time>2021-06-16T09:54:55Z</time>
      </trkpt>
      <trkpt lat="36.753177" lon="-2.92354">
        <ele>24.623</ele>
        <time>2021-06-16T09:54:56Z</time>
      </trkpt>
      <trkpt lat="36.753129" lon="-2.923751">
        <ele>24.038</ele>
        <time>2021-06-16T09:54:57Z</time>
      </trkpt>
      <trkpt lat="36.753049" lon="-2.924167">
        <ele>23.470</ele>
        <time>2021-06-16T09:54:59Z</time>
      </trkpt>
      <trkpt lat="36.753017" lon="-2.924379">
        <ele>23.317</ele>
        <time>2021-06-16T09:55:00Z</time>
      </trkpt>
      <trkpt lat="36.753003" lon="-2.924807">
        <ele>23.208</ele>
        <time>2021-06-16T09:55:02Z</time>
      </trkpt>
      <trkpt lat="36.753028" lon="-2.925025">
        <ele>23.560</ele>
        <time>2021-06-16T09:55:03Z</time>
      </trkpt>
      <trkpt lat="36.75306" lon="-2.925241">
        <ele>23.868</ele>
        <time>2021-06-16T09:55:04Z</time>
      </trkpt>
      <trkpt lat="36.753142" lon="-2.925673">
        <ele>24.162</ele>
        <time>2021-06-16T09:55:06Z</time>
      </trkpt>
      <trkpt lat="36.753222" lon="-2.926107">
        <ele>24.571</ele>
        <time>2021-06-16T09:55:08Z</time>
      </trkpt>
      <trkpt lat="36.753261" lon="-2.926326">
        <ele>24.824</ele>
        <time>2021-06-16T09:55:09Z</time>
      </trkpt>
      <trkpt lat="36.7533" lon="-2.926542">
        <ele>25.071</ele>
        <time>2021-06-16T09:55:10Z</time>
      </trkpt>
      <trkpt lat="36.753352" lon="-2.926961">
        <ele>25.128</ele>
        <time>2021-06-16T09:55:12Z</time>
      </trkpt>
      <trkpt lat="36.753358" lon="-2.92717">
        <ele>24.968</ele>
        <time>2021-06-16T09:55:13Z</time>
      </trkpt>
      <trkpt lat="36.753316" lon="-2.927583">
        <ele>25.251</ele>
        <time>2021-06-16T09:55:15Z</time>
      </trkpt>
      <trkpt lat="36.753212" lon="-2.928">
        <ele>25.201</ele>
        <time>2021-06-16T09:55:17Z</time>
      </trkpt>
      <trkpt lat="36.753156" lon="-2.928202">
        <ele>25.011</ele>
        <time>2021-06-16T09:55:18Z</time>
      </trkpt>
      <trkpt lat="36.753049" lon="-2.928596">
        <ele>25.008</ele>
        <time>2021-06-16T09:55:20Z</time>
      </trkpt>
      <trkpt lat="36.752947" lon="-2.928981">
        <ele>25.092</ele>
        <time>2021-06-16T09:55:22Z</time>
      </trkpt>
      <trkpt lat="36.752895" lon="-2.929172">
        <ele>24.960</ele>
        <time>2021-06-16T09:55:23Z</time>
      </trkpt>
      <trkpt lat="36.752809" lon="-2.929542">
        <ele>24.784</ele>
        <time>2021-06-16T09:55:25Z</time>
      </trkpt>
      <trkpt lat="36.752766" lon="-2.929732">
        <ele>24.813</ele>
        <time>2021-06-16T09:55:26Z</time>
      </trkpt>
      <trkpt lat="36.752701" lon="-2.93011">
        <ele>24.966</ele>
        <time>2021-06-16T09:55:28Z</time>
      </trkpt>
      <trkpt lat="36.752652" lon="-2.930487">
        <ele>26.363</ele>
        <time>2021-06-16T09:55:30Z</time>
      </trkpt>
      <trkpt lat="36.752627" lon="-2.930879">
        <ele>27.170</ele>
        <time>2021-06-16T09:55:32Z</time>
      </trkpt>
      <trkpt lat="36.75263" lon="-2.931067">
        <ele>27.330</ele>
        <time>2021-06-16T09:55:33Z</time>
      </trkpt>
      <trkpt lat="36.752635" lon="-2.931253">
        <ele>27.624</ele>
        <time>2021-06-16T09:55:34Z</time>
      </trkpt>
      <trkpt lat="36.752653" lon="-2.931639">
        <ele>27.804</ele>
        <time>2021-06-16T09:55:36Z</time>
      </trkpt>
      <trkpt lat="36.752673" lon="-2.931835">
        <ele>27.414</ele>
        <time>2021-06-16T09:55:37Z</time>
      </trkpt>
      <trkpt lat="36.752699" lon="-2.932032">
        <ele>27.008</ele>
        <time>2021-06-16T09:55:38Z</time>
      </trkpt>
      <trkpt lat="36.75273" lon="-2.932229">
        <ele>27.149</ele>
        <time>2021-06-16T09:55:39Z</time>
      </trkpt>
      <trkpt lat="36.752811" lon="-2.932629">
        <ele>27.537</ele>
        <time>2021-06-16T09:55:41Z</time>
      </trkpt>
      <trkpt lat="36.752903" lon="-2.933028">
        <ele>27.721</ele>
        <time>2021-06-16T09:55:43Z</time>
      </trkpt>
      <trkpt lat="36.752952" lon="-2.933221">
        <ele>27.950</ele>
        <time>2021-06-16T09:55:44Z</time>
      </trkpt>
      <trkpt lat="36.753048" lon="-2.93361">
        <ele>27.773</ele>
        <time>2021-06-16T09:55:46Z</time>
      </trkpt>
      <trkpt lat="36.753094" lon="-2.933799">
        <ele>27.770</ele>
        <time>2021-06-16T09:55:47Z</time>
      </trkpt>
      <trkpt lat="36.753141" lon="-2.933987">
        <ele>27.437</ele>
        <time>2021-06-16T09:55:48Z</time>
      </trkpt>
      <trkpt lat="36.753233" lon="-2.934354">
        <ele>27.157</ele>
        <time>2021-06-16T09:55:50Z</time>
      </trkpt>
      <trkpt lat="36.753328" lon="-2.934738">
        <ele>27.157</ele>
        <time>2021-06-16T09:55:52Z</time>
      </trkpt>
      <trkpt lat="36.753423" lon="-2.935128">
        <ele>27.100</ele>
        <time>2021-06-16T09:55:54Z</time>
      </trkpt>
      <trkpt lat="36.753468" lon="-2.93532">
        <ele>26.920</ele>
        <time>2021-06-16T09:55:55Z</time>
      </trkpt>
      <trkpt lat="36.753513" lon="-2.935518">
        <ele>26.608</ele>
        <time>2021-06-16T09:55:56Z</time>
      </trkpt>
      <trkpt lat="36.753561" lon="-2.935718">
        <ele>26.272</ele>
        <time>2021-06-16T09:55:57Z</time>
      </trkpt>
      <trkpt lat="36.753651" lon="-2.936071">
        <ele>25.730</ele>
        <time>2021-06-16T09:55:59Z</time>
      </trkpt>
      <trkpt lat="36.75373" lon="-2.936402">
        <ele>25.514</ele>
        <time>2021-06-16T09:56:01Z</time>
      </trkpt>
      <trkpt lat="36.753764" lon="-2.936571">
        <ele>25.233</ele>
        <time>2021-06-16T09:56:02Z</time>
      </trkpt>
      <trkpt lat="36.753832" lon="-2.936915">
        <ele>25.276</ele>
        <time>2021-06-16T09:56:04Z</time>
      </trkpt>
      <trkpt lat="36.753862" lon="-2.937078">
        <ele>24.573</ele>
        <time>2021-06-16T09:56:05Z</time>
      </trkpt>
      <trkpt lat="36.753924" lon="-2.937401">
        <ele>23.680</ele>
        <time>2021-06-16T09:56:07Z</time>
      </trkpt>
      <trkpt lat="36.75395" lon="-2.937565">
        <ele>22.770</ele>
        <time>2021-06-16T09:56:08Z</time>
      </trkpt>
      <trkpt lat="36.754002" lon="-2.937903">
        <ele>22.526</ele>
        <time>2021-06-16T09:56:10Z</time>
      </trkpt>
      <trkpt lat="36.754054" lon="-2.938255">
        <ele>22.447</ele>
        <time>2021-06-16T09:56:12Z</time>
      </trkpt>
      <trkpt lat="36.75412" lon="-2.938606">
        <ele>21.911</ele>
        <time>2021-06-16T09:56:14Z</time>
      </trkpt>
      <trkpt lat="36.754203" lon="-2.938953">
        <ele>21.608</ele>
        <time>2021-06-16T09:56:16Z</time>
      </trkpt>
      <trkpt lat="36.754254" lon="-2.939125">
        <ele>21.419</ele>
        <time>2021-06-16T09:56:17Z</time>
      </trkpt>
      <trkpt lat="36.754311" lon="-2.939296">
        <ele>21.447</ele>
        <time>2021-06-16T09:56:18Z</time>
      </trkpt>
      <trkpt lat="36.754433" lon="-2.939638">
        <ele>21.661</ele>
        <time>2021-06-16T09:56:20Z</time>
      </trkpt>
      <trkpt lat="36.754494" lon="-2.93981">
        <ele>21.810</ele>
        <time>2021-06-16T09:56:21Z</time>
      </trkpt>
      <trkpt lat="36.754609" lon="-2.940157">
        <ele>21.843</ele>
        <time>2021-06-16T09:56:23Z</time>
      </trkpt>
      <trkpt lat="36.754735" lon="-2.940502">
        <ele>21.640</ele>
        <time>2021-06-16T09:56:25Z</time>
      </trkpt>
      <trkpt lat="36.754867" lon="-2.940852">
        <ele>21.567</ele>
        <time>2021-06-16T09:56:27Z</time>
      </trkpt>
      <trkpt lat="36.755005" lon="-2.941196">
        <ele>21.437</ele>
        <time>2021-06-16T09:56:29Z</time>
      </trkpt>
      <trkpt lat="36.755079" lon="-2.941369">
        <ele>21.338</ele>
        <time>2021-06-16T09:56:30Z</time>
      </trkpt>
      <trkpt lat="36.755239" lon="-2.941688">
        <ele>20.970</ele>
        <time>2021-06-16T09:56:32Z</time>
      </trkpt>
      <trkpt lat="36.755321" lon="-2.941828">
        <ele>20.517</ele>
        <time>2021-06-16T09:56:33Z</time>
      </trkpt>
      <trkpt lat="36.755399" lon="-2.941966">
        <ele>20.408</ele>
        <time>2021-06-16T09:56:34Z</time>
      </trkpt>
      <trkpt lat="36.755474" lon="-2.942098">
        <ele>20.160</ele>
        <time>2021-06-16T09:56:35Z</time>
      </trkpt>
      <trkpt lat="36.755617" lon="-2.942365">
        <ele>20.038</ele>
        <time>2021-06-16T09:56:37Z</time>
      </trkpt>
      <trkpt lat="36.755688" lon="-2.942502">
        <ele>19.682</ele>
        <time>2021-06-16T09:56:38Z</time>
      </trkpt>
      <trkpt lat="36.755759" lon="-2.94264">
        <ele>19.461</ele>
        <time>2021-06-16T09:56:39Z</time>
      </trkpt>
      <trkpt lat="36.755908" lon="-2.942928">
        <ele>19.124</ele>
        <time>2021-06-16T09:56:41Z</time>
      </trkpt>
      <trkpt lat="36.756058" lon="-2.943241">
        <ele>18.561</ele>
        <time>2021-06-16T09:56:43Z</time>
      </trkpt>
      <trkpt lat="36.756136" lon="-2.943414">
        <ele>18.188</ele>
        <time>2021-06-16T09:56:44Z</time>
      </trkpt>
      <trkpt lat="36.756294" lon="-2.943791">
        <ele>17.618</ele>
        <time>2021-06-16T09:56:46Z</time>
      </trkpt>
      <trkpt lat="36.756449" lon="-2.94425">
        <ele>16.974</ele>
        <time>2021-06-16T09:56:48Z</time>
      </trkpt>
      <trkpt lat="36.756524" lon="-2.944496">
        <ele>16.256</ele>
        <time>2021-06-16T09:56:49Z</time>
      </trkpt>
      <trkpt lat="36.756669" lon="-2.94499">
        <ele>15.621</ele>
        <time>2021-06-16T09:56:51Z</time>
      </trkpt>
      <trkpt lat="36.756739" lon="-2.945237">
        <ele>15.408</ele>
        <time>2021-06-16T09:56:52Z</time>
      </trkpt>
      <trkpt lat="36.756868" lon="-2.945738">
        <ele>15.654</ele>
        <time>2021-06-16T09:56:54Z</time>
      </trkpt>
      <trkpt lat="36.75693" lon="-2.945979">
        <ele>15.282</ele>
        <time>2021-06-16T09:56:55Z</time>
      </trkpt>
      <trkpt lat="36.757038" lon="-2.946457">
        <ele>15.566</ele>
        <time>2021-06-16T09:56:57Z</time>
      </trkpt>
      <trkpt lat="36.757127" lon="-2.946902">
        <ele>16.545</ele>
        <time>2021-06-16T09:56:59Z</time>
      </trkpt>
      <trkpt lat="36.7572" lon="-2.947305">
        <ele>17.098</ele>
        <time>2021-06-16T09:57:01Z</time>
      </trkpt>
      <trkpt lat="36.757269" lon="-2.947679">
        <ele>17.835</ele>
        <time>2021-06-16T09:57:03Z</time>
      </trkpt>
      <trkpt lat="36.757339" lon="-2.947971">
        <ele>17.432</ele>
        <time>2021-06-16T09:57:05Z</time>
      </trkpt>
      <trkpt lat="36.757392" lon="-2.948242">
        <ele>17.472</ele>
        <time>2021-06-16T09:57:07Z</time>
      </trkpt>
      <trkpt lat="36.757437" lon="-2.948496">
        <ele>17.144</ele>
        <time>2021-06-16T09:57:09Z</time>
      </trkpt>
      <trkpt lat="36.75746" lon="-2.948614">
        <ele>17.105</ele>
        <time>2021-06-16T09:57:10Z</time>
      </trkpt>
      <trkpt lat="36.757483" lon="-2.948732">
        <ele>17.115</ele>
        <time>2021-06-16T09:57:11Z</time>
      </trkpt>
      <trkpt lat="36.757525" lon="-2.948954">
        <ele>17.208</ele>
        <time>2021-06-16T09:57:13Z</time>
      </trkpt>
      <trkpt lat="36.757548" lon="-2.949071">
        <ele>17.541</ele>
        <time>2021-06-16T09:57:14Z</time>
      </trkpt>
      <trkpt lat="36.757593" lon="-2.949327">
        <ele>18.349</ele>
        <time>2021-06-16T09:57:16Z</time>
      </trkpt>
      <trkpt lat="36.757615" lon="-2.949453">
        <ele>18.863</ele>
        <time>2021-06-16T09:57:17Z</time>
      </trkpt>
      <trkpt lat="36.757641" lon="-2.949585">
        <ele>19.112</ele>
        <time>2021-06-16T09:57:18Z</time>
      </trkpt>
      <trkpt lat="36.757673" lon="-2.949712">
        <ele>18.625</ele>
        <time>2021-06-16T09:57:19Z</time>
      </trkpt>
      <trkpt lat="36.757734" lon="-2.949996">
        <ele>18.352</ele>
        <time>2021-06-16T09:57:21Z</time>
      </trkpt>
      <trkpt lat="36.757793" lon="-2.950356">
        <ele>18.579</ele>
        <time>2021-06-16T09:57:23Z</time>
      </trkpt>
      <trkpt lat="36.757867" lon="-2.950782">
        <ele>18.249</ele>
        <time>2021-06-16T09:57:25Z</time>
      </trkpt>
      <trkpt lat="36.757916" lon="-2.95102">
        <ele>18.078</ele>
        <time>2021-06-16T09:57:26Z</time>
      </trkpt>
      <trkpt lat="36.757966" lon="-2.95127">
        <ele>17.533</ele>
        <time>2021-06-16T09:57:27Z</time>
      </trkpt>
      <trkpt lat="36.758015" lon="-2.951525">
        <ele>17.626</ele>
        <time>2021-06-16T09:57:28Z</time>
      </trkpt>
      <trkpt lat="36.758116" lon="-2.952035">
        <ele>18.108</ele>
        <time>2021-06-16T09:57:30Z</time>
      </trkpt>
      <trkpt lat="36.758232" lon="-2.952552">
        <ele>18.364</ele>
        <time>2021-06-16T09:57:32Z</time>
      </trkpt>
      <trkpt lat="36.758294" lon="-2.952805">
        <ele>18.242</ele>
        <time>2021-06-16T09:57:33Z</time>
      </trkpt>
      <trkpt lat="36.758407" lon="-2.953298">
        <ele>18.256</ele>
        <time>2021-06-16T09:57:35Z</time>
      </trkpt>
      <trkpt lat="36.758458" lon="-2.953543">
        <ele>18.655</ele>
        <time>2021-06-16T09:57:36Z</time>
      </trkpt>
      <trkpt lat="36.758559" lon="-2.954005">
        <ele>18.618</ele>
        <time>2021-06-16T09:57:38Z</time>
      </trkpt>
      <trkpt lat="36.758606" lon="-2.954227">
        <ele>19.395</ele>
        <time>2021-06-16T09:57:39Z</time>
      </trkpt>
      <trkpt lat="36.758649" lon="-2.954442">
        <ele>19.862</ele>
        <time>2021-06-16T09:57:40Z</time>
      </trkpt>
      <trkpt lat="36.75873" lon="-2.954845">
        <ele>20.582</ele>
        <time>2021-06-16T09:57:42Z</time>
      </trkpt>
      <trkpt lat="36.758765" lon="-2.955025">
        <ele>21.121</ele>
        <time>2021-06-16T09:57:43Z</time>
      </trkpt>
      <trkpt lat="36.758802" lon="-2.955201">
        <ele>21.741</ele>
        <time>2021-06-16T09:57:44Z</time>
      </trkpt>
      <trkpt lat="36.758873" lon="-2.955537">
        <ele>22.205</ele>
        <time>2021-06-16T09:57:46Z</time>
      </trkpt>
      <trkpt lat="36.758944" lon="-2.955881">
        <ele>23.408</ele>
        <time>2021-06-16T09:57:48Z</time>
      </trkpt>
      <trkpt lat="36.758981" lon="-2.956052">
        <ele>24.129</ele>
        <time>2021-06-16T09:57:49Z</time>
      </trkpt>
      <trkpt lat="36.759066" lon="-2.956376">
        <ele>24.547</ele>
        <time>2021-06-16T09:57:51Z</time>
      </trkpt>
      <trkpt lat="36.759148" lon="-2.956704">
        <ele>24.891</ele>
        <time>2021-06-16T09:57:53Z</time>
      </trkpt>
      <trkpt lat="36.759231" lon="-2.957029">
        <ele>25.890</ele>
        <time>2021-06-16T09:57:55Z</time>
      </trkpt>
      <trkpt lat="36.759275" lon="-2.957193">
        <ele>26.493</ele>
        <time>2021-06-16T09:57:56Z</time>
      </trkpt>
      <trkpt lat="36.759363" lon="-2.957512">
        <ele>26.880</ele>
        <time>2021-06-16T09:57:58Z</time>
      </trkpt>
      <trkpt lat="36.759407" lon="-2.957669">
        <ele>26.987</ele>
        <time>2021-06-16T09:57:59Z</time>
      </trkpt>
      <trkpt lat="36.759494" lon="-2.957958">
        <ele>27.057</ele>
        <time>2021-06-16T09:58:01Z</time>
      </trkpt>
      <trkpt lat="36.759537" lon="-2.9581">
        <ele>27.148</ele>
        <time>2021-06-16T09:58:02Z</time>
      </trkpt>
      <trkpt lat="36.759619" lon="-2.958375">
        <ele>27.461</ele>
        <time>2021-06-16T09:58:04Z</time>
      </trkpt>
      <trkpt lat="36.759697" lon="-2.958632">
        <ele>27.617</ele>
        <time>2021-06-16T09:58:06Z</time>
      </trkpt>
      <trkpt lat="36.75973" lon="-2.958764">
        <ele>27.708</ele>
        <time>2021-06-16T09:58:07Z</time>
      </trkpt>
      <trkpt lat="36.759789" lon="-2.959043">
        <ele>28.081</ele>
        <time>2021-06-16T09:58:09Z</time>
      </trkpt>
      <trkpt lat="36.759821" lon="-2.959185">
        <ele>28.269</ele>
        <time>2021-06-16T09:58:10Z</time>
      </trkpt>
      <trkpt lat="36.75987" lon="-2.959483">
        <ele>28.873</ele>
        <time>2021-06-16T09:58:12Z</time>
      </trkpt>
      <trkpt lat="36.759897" lon="-2.959807">
        <ele>28.962</ele>
        <time>2021-06-16T09:58:14Z</time>
      </trkpt>
      <trkpt lat="36.759905" lon="-2.959971">
        <ele>28.875</ele>
        <time>2021-06-16T09:58:15Z</time>
      </trkpt>
      <trkpt lat="36.759916" lon="-2.960305">
        <ele>28.922</ele>
        <time>2021-06-16T09:58:17Z</time>
      </trkpt>
      <trkpt lat="36.759919" lon="-2.960476">
        <ele>28.659</ele>
        <time>2021-06-16T09:58:18Z</time>
      </trkpt>
      <trkpt lat="36.759917" lon="-2.960823">
        <ele>28.849</ele>
        <time>2021-06-16T09:58:20Z</time>
      </trkpt>
      <trkpt lat="36.759909" lon="-2.960999">
        <ele>28.624</ele>
        <time>2021-06-16T09:58:21Z</time>
      </trkpt>
      <trkpt lat="36.759889" lon="-2.961353">
        <ele>28.604</ele>
        <time>2021-06-16T09:58:23Z</time>
      </trkpt>
      <trkpt lat="36.759872" lon="-2.961534">
        <ele>29.014</ele>
        <time>2021-06-16T09:58:24Z</time>
      </trkpt>
      <trkpt lat="36.759848" lon="-2.961897">
        <ele>28.808</ele>
        <time>2021-06-16T09:58:26Z</time>
      </trkpt>
      <trkpt lat="36.759836" lon="-2.962272">
        <ele>28.989</ele>
        <time>2021-06-16T09:58:28Z</time>
      </trkpt>
      <trkpt lat="36.75983" lon="-2.962454">
        <ele>28.987</ele>
        <time>2021-06-16T09:58:29Z</time>
      </trkpt>
      <trkpt lat="36.759818" lon="-2.962832">
        <ele>29.151</ele>
        <time>2021-06-16T09:58:31Z</time>
      </trkpt>
      <trkpt lat="36.759808" lon="-2.963025">
        <ele>29.210</ele>
        <time>2021-06-16T09:58:32Z</time>
      </trkpt>
      <trkpt lat="36.759792" lon="-2.963404">
        <ele>29.583</ele>
        <time>2021-06-16T09:58:34Z</time>
      </trkpt>
      <trkpt lat="36.759786" lon="-2.963788">
        <ele>29.550</ele>
        <time>2021-06-16T09:58:36Z</time>
      </trkpt>
      <trkpt lat="36.759779" lon="-2.963984">
        <ele>29.917</ele>
        <time>2021-06-16T09:58:37Z</time>
      </trkpt>
      <trkpt lat="36.759761" lon="-2.964367">
        <ele>30.867</ele>
        <time>2021-06-16T09:58:39Z</time>
      </trkpt>
      <trkpt lat="36.759751" lon="-2.964558">
        <ele>31.262</ele>
        <time>2021-06-16T09:58:40Z</time>
      </trkpt>
      <trkpt lat="36.75974" lon="-2.964929">
        <ele>31.683</ele>
        <time>2021-06-16T09:58:42Z</time>
      </trkpt>
      <trkpt lat="36.759732" lon="-2.965114">
        <ele>32.111</ele>
        <time>2021-06-16T09:58:43Z</time>
      </trkpt>
      <trkpt lat="36.759714" lon="-2.965462">
        <ele>32.808</ele>
        <time>2021-06-16T09:58:45Z</time>
      </trkpt>
      <trkpt lat="36.759706" lon="-2.965636">
        <ele>33.743</ele>
        <time>2021-06-16T09:58:46Z</time>
      </trkpt>
      <trkpt lat="36.759696" lon="-2.96581">
        <ele>34.051</ele>
        <time>2021-06-16T09:58:47Z</time>
      </trkpt>
      <trkpt lat="36.759674" lon="-2.966142">
        <ele>34.735</ele>
        <time>2021-06-16T09:58:49Z</time>
      </trkpt>
      <trkpt lat="36.759659" lon="-2.966482">
        <ele>35.484</ele>
        <time>2021-06-16T09:58:51Z</time>
      </trkpt>
      <trkpt lat="36.759639" lon="-2.966811">
        <ele>36.547</ele>
        <time>2021-06-16T09:58:53Z</time>
      </trkpt>
      <trkpt lat="36.759628" lon="-2.967139">
        <ele>37.174</ele>
        <time>2021-06-16T09:58:55Z</time>
      </trkpt>
      <trkpt lat="36.759617" lon="-2.967462">
        <ele>37.991</ele>
        <time>2021-06-16T09:58:57Z</time>
      </trkpt>
      <trkpt lat="36.759613" lon="-2.967621">
        <ele>37.931</ele>
        <time>2021-06-16T09:58:58Z</time>
      </trkpt>
      <trkpt lat="36.759611" lon="-2.967779">
        <ele>38.183</ele>
        <time>2021-06-16T09:58:59Z</time>
      </trkpt>
      <trkpt lat="36.759612" lon="-2.968089">
        <ele>38.625</ele>
        <time>2021-06-16T09:59:01Z</time>
      </trkpt>
      <trkpt lat="36.75963" lon="-2.968392">
        <ele>39.117</ele>
        <time>2021-06-16T09:59:03Z</time>
      </trkpt>
      <trkpt lat="36.759678" lon="-2.968679">
        <ele>39.408</ele>
        <time>2021-06-16T09:59:05Z</time>
      </trkpt>
      <trkpt lat="36.759754" lon="-2.968935">
        <ele>39.965</ele>
        <time>2021-06-16T09:59:07Z</time>
      </trkpt>
      <trkpt lat="36.759807" lon="-2.969047">
        <ele>40.173</ele>
        <time>2021-06-16T09:59:08Z</time>
      </trkpt>
      <trkpt lat="36.759932" lon="-2.969235">
        <ele>40.347</ele>
        <time>2021-06-16T09:59:10Z</time>
      </trkpt>
      <trkpt lat="36.760036" lon="-2.969406">
        <ele>40.786</ele>
        <time>2021-06-16T09:59:12Z</time>
      </trkpt>
      <trkpt lat="36.760064" lon="-2.969494">
        <ele>41.029</ele>
        <time>2021-06-16T09:59:13Z</time>
      </trkpt>
      <trkpt lat="36.760071" lon="-2.969679">
        <ele>41.586</ele>
        <time>2021-06-16T09:59:15Z</time>
      </trkpt>
      <trkpt lat="36.76002" lon="-2.969886">
        <ele>41.873</ele>
        <time>2021-06-16T09:59:17Z</time>
      </trkpt>
      <trkpt lat="36.75992" lon="-2.970078">
        <ele>42.163</ele>
        <time>2021-06-16T09:59:19Z</time>
      </trkpt>
      <trkpt lat="36.759761" lon="-2.970226">
        <ele>42.324</ele>
        <time>2021-06-16T09:59:21Z</time>
      </trkpt>
      <trkpt lat="36.759684" lon="-2.970309">
        <ele>42.504</ele>
        <time>2021-06-16T09:59:22Z</time>
      </trkpt>
      <trkpt lat="36.759563" lon="-2.97053">
        <ele>42.814</ele>
        <time>2021-06-16T09:59:24Z</time>
      </trkpt>
      <trkpt lat="36.75952" lon="-2.970662">
        <ele>42.908</ele>
        <time>2021-06-16T09:59:25Z</time>
      </trkpt>
      <trkpt lat="36.759488" lon="-2.970802">
        <ele>42.959</ele>
        <time>2021-06-16T09:59:26Z</time>
      </trkpt>
      <trkpt lat="36.759468" lon="-2.970946">
        <ele>43.127</ele>
        <time>2021-06-16T09:59:27Z</time>
      </trkpt>
      <trkpt lat="36.759455" lon="-2.971093">
        <ele>42.991</ele>
        <time>2021-06-16T09:59:28Z</time>
      </trkpt>
      <trkpt lat="36.759439" lon="-2.971397">
        <ele>42.740</ele>
        <time>2021-06-16T09:59:30Z</time>
      </trkpt>
      <trkpt lat="36.759428" lon="-2.971735">
        <ele>42.793</ele>
        <time>2021-06-16T09:59:32Z</time>
      </trkpt>
      <trkpt lat="36.759412" lon="-2.972081">
        <ele>42.460</ele>
        <time>2021-06-16T09:59:34Z</time>
      </trkpt>
      <trkpt lat="36.759407" lon="-2.972258">
        <ele>42.437</ele>
        <time>2021-06-16T09:59:35Z</time>
      </trkpt>
      <trkpt lat="36.759401" lon="-2.972619">
        <ele>42.777</ele>
        <time>2021-06-16T09:59:37Z</time>
      </trkpt>
      <trkpt lat="36.759396" lon="-2.972806">
        <ele>42.737</ele>
        <time>2021-06-16T09:59:38Z</time>
      </trkpt>
      <trkpt lat="36.759381" lon="-2.973181">
        <ele>42.749</ele>
        <time>2021-06-16T09:59:40Z</time>
      </trkpt>
      <trkpt lat="36.75937" lon="-2.973368">
        <ele>42.913</ele>
        <time>2021-06-16T09:59:41Z</time>
      </trkpt>
      <trkpt lat="36.759361" lon="-2.973556">
        <ele>42.908</ele>
        <time>2021-06-16T09:59:42Z</time>
      </trkpt>
      <trkpt lat="36.75934" lon="-2.973922">
        <ele>43.070</ele>
        <time>2021-06-16T09:59:44Z</time>
      </trkpt>
      <trkpt lat="36.759329" lon="-2.974104">
        <ele>42.938</ele>
        <time>2021-06-16T09:59:45Z</time>
      </trkpt>
      <trkpt lat="36.759306" lon="-2.97447">
        <ele>43.082</ele>
        <time>2021-06-16T09:59:47Z</time>
      </trkpt>
      <trkpt lat="36.759297" lon="-2.974655">
        <ele>43.051</ele>
        <time>2021-06-16T09:59:48Z</time>
      </trkpt>
      <trkpt lat="36.759287" lon="-2.974844">
        <ele>43.444</ele>
        <time>2021-06-16T09:59:49Z</time>
      </trkpt>
      <trkpt lat="36.759279" lon="-2.975217">
        <ele>43.461</ele>
        <time>2021-06-16T09:59:51Z</time>
      </trkpt>
      <trkpt lat="36.759261" lon="-2.975598">
        <ele>43.288</ele>
        <time>2021-06-16T09:59:53Z</time>
      </trkpt>
      <trkpt lat="36.759234" lon="-2.975987">
        <ele>42.688</ele>
        <time>2021-06-16T09:59:55Z</time>
      </trkpt>
      <trkpt lat="36.75922" lon="-2.97618">
        <ele>42.469</ele>
        <time>2021-06-16T09:59:56Z</time>
      </trkpt>
      <trkpt lat="36.75918" lon="-2.97656">
        <ele>42.404</ele>
        <time>2021-06-16T09:59:58Z</time>
      </trkpt>
      <trkpt lat="36.759116" lon="-2.976923">
        <ele>42.424</ele>
        <time>2021-06-16T10:00:00Z</time>
      </trkpt>
      <trkpt lat="36.759037" lon="-2.97725">
        <ele>41.708</ele>
        <time>2021-06-16T10:00:02Z</time>
      </trkpt>
      <trkpt lat="36.758993" lon="-2.977409">
        <ele>41.333</ele>
        <time>2021-06-16T10:00:03Z</time>
      </trkpt>
      <trkpt lat="36.75895" lon="-2.977564">
        <ele>40.571</ele>
        <time>2021-06-16T10:00:04Z</time>
      </trkpt>
      <trkpt lat="36.758851" lon="-2.977857">
        <ele>39.765</ele>
        <time>2021-06-16T10:00:06Z</time>
      </trkpt>
      <trkpt lat="36.758753" lon="-2.97812">
        <ele>39.324</ele>
        <time>2021-06-16T10:00:08Z</time>
      </trkpt>
      <trkpt lat="36.758707" lon="-2.978252">
        <ele>39.047</ele>
        <time>2021-06-16T10:00:09Z</time>
      </trkpt>
      <trkpt lat="36.758666" lon="-2.97838">
        <ele>38.424</ele>
        <time>2021-06-16T10:00:10Z</time>
      </trkpt>
      <trkpt lat="36.758627" lon="-2.978502">
        <ele>38.461</ele>
        <time>2021-06-16T10:00:11Z</time>
      </trkpt>
      <trkpt lat="36.758573" lon="-2.978754">
        <ele>37.811</ele>
        <time>2021-06-16T10:00:13Z</time>
      </trkpt>
      <trkpt lat="36.758547" lon="-2.979009">
        <ele>37.056</ele>
        <time>2021-06-16T10:00:15Z</time>
      </trkpt>
      <trkpt lat="36.758542" lon="-2.979135">
        <ele>36.359</ele>
        <time>2021-06-16T10:00:16Z</time>
      </trkpt>
      <trkpt lat="36.758524" lon="-2.979393">
        <ele>35.414</ele>
        <time>2021-06-16T10:00:18Z</time>
      </trkpt>
      <trkpt lat="36.758508" lon="-2.979531">
        <ele>34.608</ele>
        <time>2021-06-16T10:00:19Z</time>
      </trkpt>
      <trkpt lat="36.758488" lon="-2.979672">
        <ele>34.572</ele>
        <time>2021-06-16T10:00:20Z</time>
      </trkpt>
      <trkpt lat="36.75848" lon="-2.979976">
        <ele>34.450</ele>
        <time>2021-06-16T10:00:22Z</time>
      </trkpt>
      <trkpt lat="36.758501" lon="-2.980285">
        <ele>34.564</ele>
        <time>2021-06-16T10:00:24Z</time>
      </trkpt>
      <trkpt lat="36.758521" lon="-2.98044">
        <ele>34.083</ele>
        <time>2021-06-16T10:00:25Z</time>
      </trkpt>
      <trkpt lat="36.758586" lon="-2.980741">
        <ele>34.076</ele>
        <time>2021-06-16T10:00:27Z</time>
      </trkpt>
      <trkpt lat="36.758623" lon="-2.980882">
        <ele>34.023</ele>
        <time>2021-06-16T10:00:28Z</time>
      </trkpt>
      <trkpt lat="36.758667" lon="-2.981016">
        <ele>34.040</ele>
        <time>2021-06-16T10:00:29Z</time>
      </trkpt>
      <trkpt lat="36.758786" lon="-2.98127">
        <ele>33.860</ele>
        <time>2021-06-16T10:00:31Z</time>
      </trkpt>
      <trkpt lat="36.758865" lon="-2.981391">
        <ele>33.744</ele>
        <time>2021-06-16T10:00:32Z</time>
      </trkpt>
      <trkpt lat="36.759044" lon="-2.981611">
        <ele>33.505</ele>
        <time>2021-06-16T10:00:34Z</time>
      </trkpt>
      <trkpt lat="36.759136" lon="-2.981718">
        <ele>33.415</ele>
        <time>2021-06-16T10:00:35Z</time>
      </trkpt>
      <trkpt lat="36.759228" lon="-2.981819">
        <ele>33.208</ele>
        <time>2021-06-16T10:00:36Z</time>
      </trkpt>
      <trkpt lat="36.759407" lon="-2.982018">
        <ele>33.021</ele>
        <time>2021-06-16T10:00:38Z</time>
      </trkpt>
      <trkpt lat="36.759578" lon="-2.982217">
        <ele>33.139</ele>
        <time>2021-06-16T10:00:40Z</time>
      </trkpt>
      <trkpt lat="36.759733" lon="-2.982397">
        <ele>33.143</ele>
        <time>2021-06-16T10:00:42Z</time>
      </trkpt>
      <trkpt lat="36.759871" lon="-2.982529">
        <ele>33.612</ele>
        <time>2021-06-16T10:00:44Z</time>
      </trkpt>
      <trkpt lat="36.759932" lon="-2.982584">
        <ele>34.375</ele>
        <time>2021-06-16T10:00:45Z</time>
      </trkpt>
      <trkpt lat="36.760045" lon="-2.982686">
        <ele>34.872</ele>
        <time>2021-06-16T10:00:47Z</time>
      </trkpt>
      <trkpt lat="36.760084" lon="-2.982768">
        <ele>35.059</ele>
        <time>2021-06-16T10:00:48Z</time>
      </trkpt>
      <trkpt lat="36.760083" lon="-2.982975">
        <ele>34.999</ele>
        <time>2021-06-16T10:00:50Z</time>
      </trkpt>
      <trkpt lat="36.760049" lon="-2.983081">
        <ele>34.785</ele>
        <time>2021-06-16T10:00:51Z</time>
      </trkpt>
      <trkpt lat="36.75994" lon="-2.983287">
        <ele>34.489</ele>
        <time>2021-06-16T10:00:53Z</time>
      </trkpt>
      <trkpt lat="36.759877" lon="-2.983393">
        <ele>34.617</ele>
        <time>2021-06-16T10:00:54Z</time>
      </trkpt>
      <trkpt lat="36.759758" lon="-2.983625">
        <ele>34.608</ele>
        <time>2021-06-16T10:00:56Z</time>
      </trkpt>
      <trkpt lat="36.759702" lon="-2.983754">
        <ele>34.395</ele>
        <time>2021-06-16T10:00:57Z</time>
      </trkpt>
      <trkpt lat="36.75958" lon="-2.984025">
        <ele>34.693</ele>
        <time>2021-06-16T10:00:59Z</time>
      </trkpt>
      <trkpt lat="36.75943" lon="-2.98429">
        <ele>34.837</ele>
        <time>2021-06-16T10:01:01Z</time>
      </trkpt>
      <trkpt lat="36.759354" lon="-2.984419">
        <ele>35.166</ele>
        <time>2021-06-16T10:01:02Z</time>
      </trkpt>
      <trkpt lat="36.759278" lon="-2.984548">
        <ele>35.739</ele>
        <time>2021-06-16T10:01:03Z</time>
      </trkpt>
      <trkpt lat="36.759204" lon="-2.98468">
        <ele>35.916</ele>
        <time>2021-06-16T10:01:04Z</time>
      </trkpt>
      <trkpt lat="36.75913" lon="-2.984814">
        <ele>36.553</ele>
        <time>2021-06-16T10:01:05Z</time>
      </trkpt>
      <trkpt lat="36.758981" lon="-2.985073">
        <ele>36.783</ele>
        <time>2021-06-16T10:01:07Z</time>
      </trkpt>
      <trkpt lat="36.758914" lon="-2.985205">
        <ele>37.095</ele>
        <time>2021-06-16T10:01:08Z</time>
      </trkpt>
      <trkpt lat="36.758854" lon="-2.985344">
        <ele>37.649</ele>
        <time>2021-06-16T10:01:09Z</time>
      </trkpt>
      <trkpt lat="36.7588" lon="-2.985485">
        <ele>37.823</ele>
        <time>2021-06-16T10:01:10Z</time>
      </trkpt>
      <trkpt lat="36.758703" lon="-2.985765">
        <ele>38.308</ele>
        <time>2021-06-16T10:01:12Z</time>
      </trkpt>
      <trkpt lat="36.758594" lon="-2.986033">
        <ele>38.696</ele>
        <time>2021-06-16T10:01:14Z</time>
      </trkpt>
      <trkpt lat="36.758459" lon="-2.986293">
        <ele>39.074</ele>
        <time>2021-06-16T10:01:16Z</time>
      </trkpt>
      <trkpt lat="36.758391" lon="-2.986413">
        <ele>39.028</ele>
        <time>2021-06-16T10:01:17Z</time>
      </trkpt>
      <trkpt lat="36.758317" lon="-2.986526">
        <ele>39.527</ele>
        <time>2021-06-16T10:01:18Z</time>
      </trkpt>
      <trkpt lat="36.758238" lon="-2.986636">
        <ele>40.050</ele>
        <time>2021-06-16T10:01:19Z</time>
      </trkpt>
      <trkpt lat="36.758092" lon="-2.986852">
        <ele>40.347</ele>
        <time>2021-06-16T10:01:21Z</time>
      </trkpt>
      <trkpt lat="36.757973" lon="-2.987033">
        <ele>40.474</ele>
        <time>2021-06-16T10:01:23Z</time>
      </trkpt>
      <trkpt lat="36.757875" lon="-2.987182">
        <ele>40.274</ele>
        <time>2021-06-16T10:01:25Z</time>
      </trkpt>
      <trkpt lat="36.757815" lon="-2.98725">
        <ele>40.313</ele>
        <time>2021-06-16T10:01:26Z</time>
      </trkpt>
      <trkpt lat="36.757674" lon="-2.987325">
        <ele>40.143</ele>
        <time>2021-06-16T10:01:28Z</time>
      </trkpt>
      <trkpt lat="36.757594" lon="-2.987328">
        <ele>39.807</ele>
        <time>2021-06-16T10:01:29Z</time>
      </trkpt>
      <trkpt lat="36.757423" lon="-2.987328">
        <ele>39.308</ele>
        <time>2021-06-16T10:01:31Z</time>
      </trkpt>
      <trkpt lat="36.757234" lon="-2.987353">
        <ele>38.788</ele>
        <time>2021-06-16T10:01:33Z</time>
      </trkpt>
      <trkpt lat="36.757026" lon="-2.98739">
        <ele>37.956</ele>
        <time>2021-06-16T10:01:35Z</time>
      </trkpt>
      <trkpt lat="36.756805" lon="-2.987421">
        <ele>37.290</ele>
        <time>2021-06-16T10:01:37Z</time>
      </trkpt>
      <trkpt lat="36.756692" lon="-2.987438">
        <ele>36.689</ele>
        <time>2021-06-16T10:01:38Z</time>
      </trkpt>
      <trkpt lat="36.756468" lon="-2.987464">
        <ele>36.332</ele>
        <time>2021-06-16T10:01:40Z</time>
      </trkpt>
      <trkpt lat="36.75625" lon="-2.987491">
        <ele>36.129</ele>
        <time>2021-06-16T10:01:42Z</time>
      </trkpt>
      <trkpt lat="36.756142" lon="-2.987509">
        <ele>35.996</ele>
        <time>2021-06-16T10:01:43Z</time>
      </trkpt>
      <trkpt lat="36.755936" lon="-2.987535">
        <ele>34.816</ele>
        <time>2021-06-16T10:01:45Z</time>
      </trkpt>
      <trkpt lat="36.755835" lon="-2.987547">
        <ele>33.966</ele>
        <time>2021-06-16T10:01:46Z</time>
      </trkpt>
      <trkpt lat="36.755729" lon="-2.987562">
        <ele>32.829</ele>
        <time>2021-06-16T10:01:47Z</time>
      </trkpt>
      <trkpt lat="36.755624" lon="-2.98758">
        <ele>32.121</ele>
        <time>2021-06-16T10:01:48Z</time>
      </trkpt>
      <trkpt lat="36.755413" lon="-2.987617">
        <ele>31.608</ele>
        <time>2021-06-16T10:01:50Z</time>
      </trkpt>
      <trkpt lat="36.755192" lon="-2.987655">
        <ele>31.413</ele>
        <time>2021-06-16T10:01:52Z</time>
      </trkpt>
      <trkpt lat="36.75497" lon="-2.987681">
        <ele>30.591</ele>
        <time>2021-06-16T10:01:54Z</time>
      </trkpt>
      <trkpt lat="36.754858" lon="-2.987693">
        <ele>29.515</ele>
        <time>2021-06-16T10:01:55Z</time>
      </trkpt>
      <trkpt lat="36.754631" lon="-2.987719">
        <ele>27.874</ele>
        <time>2021-06-16T10:01:57Z</time>
      </trkpt>
      <trkpt lat="36.754514" lon="-2.987735">
        <ele>26.917</ele>
        <time>2021-06-16T10:01:58Z</time>
      </trkpt>
      <trkpt lat="36.754283" lon="-2.987771">
        <ele>25.974</ele>
        <time>2021-06-16T10:02:00Z</time>
      </trkpt>
      <trkpt lat="36.75417" lon="-2.987787">
        <ele>25.071</ele>
        <time>2021-06-16T10:02:01Z</time>
      </trkpt>
      <trkpt lat="36.75406" lon="-2.987808">
        <ele>24.331</ele>
        <time>2021-06-16T10:02:02Z</time>
      </trkpt>
      <trkpt lat="36.753844" lon="-2.987901">
        <ele>23.152</ele>
        <time>2021-06-16T10:02:04Z</time>
      </trkpt>
      <trkpt lat="36.753742" lon="-2.987976">
        <ele>22.453</ele>
        <time>2021-06-16T10:02:05Z</time>
      </trkpt>
      <trkpt lat="36.753546" lon="-2.988119">
        <ele>21.208</ele>
        <time>2021-06-16T10:02:07Z</time>
      </trkpt>
      <trkpt lat="36.753331" lon="-2.988227">
        <ele>19.708</ele>
        <time>2021-06-16T10:02:09Z</time>
      </trkpt>
      <trkpt lat="36.75322" lon="-2.988296">
        <ele>19.152</ele>
        <time>2021-06-16T10:02:10Z</time>
      </trkpt>
      <trkpt lat="36.753051" lon="-2.988515">
        <ele>18.760</ele>
        <time>2021-06-16T10:02:12Z</time>
      </trkpt>
      <trkpt lat="36.752983" lon="-2.988656">
        <ele>18.264</ele>
        <time>2021-06-16T10:02:13Z</time>
      </trkpt>
      <trkpt lat="36.752851" lon="-2.988956">
        <ele>18.253</ele>
        <time>2021-06-16T10:02:15Z</time>
      </trkpt>
      <trkpt lat="36.752798" lon="-2.989115">
        <ele>18.046</ele>
        <time>2021-06-16T10:02:16Z</time>
      </trkpt>
      <trkpt lat="36.752681" lon="-2.989433">
        <ele>17.623</ele>
        <time>2021-06-16T10:02:18Z</time>
      </trkpt>
      <trkpt lat="36.752621" lon="-2.989581">
        <ele>17.230</ele>
        <time>2021-06-16T10:02:19Z</time>
      </trkpt>
      <trkpt lat="36.752492" lon="-2.989864">
        <ele>17.270</ele>
        <time>2021-06-16T10:02:21Z</time>
      </trkpt>
      <trkpt lat="36.752432" lon="-2.990011">
        <ele>16.931</ele>
        <time>2021-06-16T10:02:22Z</time>
      </trkpt>
      <trkpt lat="36.752332" lon="-2.990306">
        <ele>16.861</ele>
        <time>2021-06-16T10:02:24Z</time>
      </trkpt>
      <trkpt lat="36.752287" lon="-2.990449">
        <ele>16.607</ele>
        <time>2021-06-16T10:02:25Z</time>
      </trkpt>
      <trkpt lat="36.752197" lon="-2.99075">
        <ele>16.208</ele>
        <time>2021-06-16T10:02:27Z</time>
      </trkpt>
      <trkpt lat="36.752153" lon="-2.990906">
        <ele>16.050</ele>
        <time>2021-06-16T10:02:28Z</time>
      </trkpt>
      <trkpt lat="36.752066" lon="-2.991215">
        <ele>15.868</ele>
        <time>2021-06-16T10:02:30Z</time>
      </trkpt>
      <trkpt lat="36.751979" lon="-2.991529">
        <ele>15.972</ele>
        <time>2021-06-16T10:02:32Z</time>
      </trkpt>
      <trkpt lat="36.751938" lon="-2.991684">
        <ele>15.861</ele>
        <time>2021-06-16T10:02:33Z</time>
      </trkpt>
      <trkpt lat="36.751855" lon="-2.991981">
        <ele>15.944</ele>
        <time>2021-06-16T10:02:35Z</time>
      </trkpt>
      <trkpt lat="36.751769" lon="-2.992266">
        <ele>16.811</ele>
        <time>2021-06-16T10:02:37Z</time>
      </trkpt>
      <trkpt lat="36.751687" lon="-2.992552">
        <ele>17.078</ele>
        <time>2021-06-16T10:02:39Z</time>
      </trkpt>
      <trkpt lat="36.751611" lon="-2.992822">
        <ele>16.928</ele>
        <time>2021-06-16T10:02:41Z</time>
      </trkpt>
      <trkpt lat="36.751579" lon="-2.992948">
        <ele>17.055</ele>
        <time>2021-06-16T10:02:42Z</time>
      </trkpt>
      <trkpt lat="36.751522" lon="-2.99318">
        <ele>17.207</ele>
        <time>2021-06-16T10:02:44Z</time>
      </trkpt>
      <trkpt lat="36.751509" lon="-2.993302">
        <ele>17.717</ele>
        <time>2021-06-16T10:02:45Z</time>
      </trkpt>
      <trkpt lat="36.751503" lon="-2.993426">
        <ele>18.108</ele>
        <time>2021-06-16T10:02:46Z</time>
      </trkpt>
      <trkpt lat="36.751488" lon="-2.993541">
        <ele>18.332</ele>
        <time>2021-06-16T10:02:47Z</time>
      </trkpt>
      <trkpt lat="36.7514" lon="-2.99373">
        <ele>18.650</ele>
        <time>2021-06-16T10:02:49Z</time>
      </trkpt>
      <trkpt lat="36.751238" lon="-2.993863">
        <ele>19.114</ele>
        <time>2021-06-16T10:02:51Z</time>
      </trkpt>
      <trkpt lat="36.751153" lon="-2.993942">
        <ele>19.883</ele>
        <time>2021-06-16T10:02:52Z</time>
      </trkpt>
      <trkpt lat="36.75102" lon="-2.99416">
        <ele>20.516</ele>
        <time>2021-06-16T10:02:54Z</time>
      </trkpt>
      <trkpt lat="36.750908" lon="-2.99441">
        <ele>20.863</ele>
        <time>2021-06-16T10:02:56Z</time>
      </trkpt>
      <trkpt lat="36.750849" lon="-2.994539">
        <ele>21.180</ele>
        <time>2021-06-16T10:02:57Z</time>
      </trkpt>
      <trkpt lat="36.750719" lon="-2.994795">
        <ele>21.730</ele>
        <time>2021-06-16T10:02:59Z</time>
      </trkpt>
      <trkpt lat="36.75065" lon="-2.994923">
        <ele>21.993</ele>
        <time>2021-06-16T10:03:00Z</time>
      </trkpt>
      <trkpt lat="36.750505" lon="-2.995172">
        <ele>22.465</ele>
        <time>2021-06-16T10:03:02Z</time>
      </trkpt>
      <trkpt lat="36.750424" lon="-2.995294">
        <ele>22.821</ele>
        <time>2021-06-16T10:03:03Z</time>
      </trkpt>
      <trkpt lat="36.750263" lon="-2.995541">
        <ele>23.308</ele>
        <time>2021-06-16T10:03:05Z</time>
      </trkpt>
      <trkpt lat="36.750183" lon="-2.995668">
        <ele>23.826</ele>
        <time>2021-06-16T10:03:06Z</time>
      </trkpt>
      <trkpt lat="36.750022" lon="-2.995915">
        <ele>23.944</ele>
        <time>2021-06-16T10:03:08Z</time>
      </trkpt>
      <trkpt lat="36.74994" lon="-2.996038">
        <ele>24.188</ele>
        <time>2021-06-16T10:03:09Z</time>
      </trkpt>
      <trkpt lat="36.74986" lon="-2.99616">
        <ele>24.587</ele>
        <time>2021-06-16T10:03:10Z</time>
      </trkpt>
      <trkpt lat="36.749783" lon="-2.996282">
        <ele>24.830</ele>
        <time>2021-06-16T10:03:11Z</time>
      </trkpt>
      <trkpt lat="36.749622" lon="-2.99653">
        <ele>25.217</ele>
        <time>2021-06-16T10:03:13Z</time>
      </trkpt>
      <trkpt lat="36.749464" lon="-2.996779">
        <ele>25.324</ele>
        <time>2021-06-16T10:03:15Z</time>
      </trkpt>
      <trkpt lat="36.749386" lon="-2.996908">
        <ele>25.034</ele>
        <time>2021-06-16T10:03:16Z</time>
      </trkpt>
      <trkpt lat="36.74922" lon="-2.997168">
        <ele>24.796</ele>
        <time>2021-06-16T10:03:18Z</time>
      </trkpt>
      <trkpt lat="36.749137" lon="-2.997298">
        <ele>24.631</ele>
        <time>2021-06-16T10:03:19Z</time>
      </trkpt>
      <trkpt lat="36.748972" lon="-2.997554">
        <ele>23.924</ele>
        <time>2021-06-16T10:03:21Z</time>
      </trkpt>
      <trkpt lat="36.748888" lon="-2.997678">
        <ele>23.808</ele>
        <time>2021-06-16T10:03:22Z</time>
      </trkpt>
      <trkpt lat="36.748809" lon="-2.997798">
        <ele>23.976</ele>
        <time>2021-06-16T10:03:23Z</time>
      </trkpt>
      <trkpt lat="36.748664" lon="-2.998024">
        <ele>23.734</ele>
        <time>2021-06-16T10:03:25Z</time>
      </trkpt>
      <trkpt lat="36.748593" lon="-2.99813">
        <ele>23.418</ele>
        <time>2021-06-16T10:03:26Z</time>
      </trkpt>
      <trkpt lat="36.748521" lon="-2.998238">
        <ele>23.397</ele>
        <time>2021-06-16T10:03:27Z</time>
      </trkpt>
      <trkpt lat="36.748445" lon="-2.998351">
        <ele>23.580</ele>
        <time>2021-06-16T10:03:28Z</time>
      </trkpt>
      <trkpt lat="36.748292" lon="-2.998592">
        <ele>23.467</ele>
        <time>2021-06-16T10:03:30Z</time>
      </trkpt>
      <trkpt lat="36.748214" lon="-2.998713">
        <ele>23.084</ele>
        <time>2021-06-16T10:03:31Z</time>
      </trkpt>
      <trkpt lat="36.748138" lon="-2.998835">
        <ele>22.594</ele>
        <time>2021-06-16T10:03:32Z</time>
      </trkpt>
      <trkpt lat="36.747979" lon="-2.999076">
        <ele>22.215</ele>
        <time>2021-06-16T10:03:34Z</time>
      </trkpt>
      <trkpt lat="36.747902" lon="-2.999197">
        <ele>21.965</ele>
        <time>2021-06-16T10:03:35Z</time>
      </trkpt>
      <trkpt lat="36.747757" lon="-2.99943">
        <ele>21.711</ele>
        <time>2021-06-16T10:03:37Z</time>
      </trkpt>
      <trkpt lat="36.7477" lon="-2.999652">
        <ele>20.708</ele>
        <time>2021-06-16T10:03:39Z</time>
      </trkpt>
      <trkpt lat="36.747733" lon="-2.999898">
        <ele>19.748</ele>
        <time>2021-06-16T10:03:41Z</time>
      </trkpt>
      <trkpt lat="36.747743" lon="-3.000145">
        <ele>19.156</ele>
        <time>2021-06-16T10:03:43Z</time>
      </trkpt>
      <trkpt lat="36.747678" lon="-3.000368">
        <ele>18.850</ele>
        <time>2021-06-16T10:03:45Z</time>
      </trkpt>
      <trkpt lat="36.747642" lon="-3.000601">
        <ele>18.669</ele>
        <time>2021-06-16T10:03:47Z</time>
      </trkpt>
      <trkpt lat="36.747669" lon="-3.00085">
        <ele>18.442</ele>
        <time>2021-06-16T10:03:49Z</time>
      </trkpt>
      <trkpt lat="36.747731" lon="-3.001113">
        <ele>18.399</ele>
        <time>2021-06-16T10:03:51Z</time>
      </trkpt>
      <trkpt lat="36.747753" lon="-3.001245">
        <ele>18.116</ele>
        <time>2021-06-16T10:03:52Z</time>
      </trkpt>
      <trkpt lat="36.747772" lon="-3.001372">
        <ele>17.936</ele>
        <time>2021-06-16T10:03:53Z</time>
      </trkpt>
      <trkpt lat="36.747786" lon="-3.001491">
        <ele>18.164</ele>
        <time>2021-06-16T10:03:54Z</time>
      </trkpt>
      <trkpt lat="36.747803" lon="-3.00161">
        <ele>18.006</ele>
        <time>2021-06-16T10:03:55Z</time>
      </trkpt>
      <trkpt lat="36.747821" lon="-3.001737">
        <ele>17.516</ele>
        <time>2021-06-16T10:03:56Z</time>
      </trkpt>
      <trkpt lat="36.747857" lon="-3.001981">
        <ele>17.308</ele>
        <time>2021-06-16T10:03:58Z</time>
      </trkpt>
      <trkpt lat="36.747896" lon="-3.002199">
        <ele>16.763</ele>
        <time>2021-06-16T10:04:00Z</time>
      </trkpt>
      <trkpt lat="36.747921" lon="-3.002398">
        <ele>16.951</ele>
        <time>2021-06-16T10:04:02Z</time>
      </trkpt>
      <trkpt lat="36.747936" lon="-3.002501">
        <ele>16.835</ele>
        <time>2021-06-16T10:04:03Z</time>
      </trkpt>
      <trkpt lat="36.747972" lon="-3.002706">
        <ele>16.774</ele>
        <time>2021-06-16T10:04:05Z</time>
      </trkpt>
      <trkpt lat="36.748007" lon="-3.002912">
        <ele>17.157</ele>
        <time>2021-06-16T10:04:07Z</time>
      </trkpt>
      <trkpt lat="36.748022" lon="-3.003027">
        <ele>17.534</ele>
        <time>2021-06-16T10:04:08Z</time>
      </trkpt>
      <trkpt lat="36.748034" lon="-3.003144">
        <ele>17.741</ele>
        <time>2021-06-16T10:04:09Z</time>
      </trkpt>
      <trkpt lat="36.748067" lon="-3.003392">
        <ele>18.481</ele>
        <time>2021-06-16T10:04:11Z</time>
      </trkpt>
      <trkpt lat="36.748107" lon="-3.003632">
        <ele>18.654</ele>
        <time>2021-06-16T10:04:13Z</time>
      </trkpt>
      <trkpt lat="36.748118" lon="-3.003748">
        <ele>18.956</ele>
        <time>2021-06-16T10:04:14Z</time>
      </trkpt>
      <trkpt lat="36.748156" lon="-3.003981">
        <ele>19.411</ele>
        <time>2021-06-16T10:04:16Z</time>
      </trkpt>
      <trkpt lat="36.748199" lon="-3.004201">
        <ele>19.908</ele>
        <time>2021-06-16T10:04:18Z</time>
      </trkpt>
      <trkpt lat="36.748245" lon="-3.004428">
        <ele>19.432</ele>
        <time>2021-06-16T10:04:20Z</time>
      </trkpt>
      <trkpt lat="36.748289" lon="-3.004668">
        <ele>20.090</ele>
        <time>2021-06-16T10:04:22Z</time>
      </trkpt>
      <trkpt lat="36.748306" lon="-3.004781">
        <ele>19.874</ele>
        <time>2021-06-16T10:04:23Z</time>
      </trkpt>
      <trkpt lat="36.748321" lon="-3.004892">
        <ele>19.843</ele>
        <time>2021-06-16T10:04:24Z</time>
      </trkpt>
      <trkpt lat="36.748369" lon="-3.005139">
        <ele>19.656</ele>
        <time>2021-06-16T10:04:26Z</time>
      </trkpt>
      <trkpt lat="36.748384" lon="-3.005264">
        <ele>19.693</ele>
        <time>2021-06-16T10:04:27Z</time>
      </trkpt>
      <trkpt lat="36.748423" lon="-3.005527">
        <ele>19.540</ele>
        <time>2021-06-16T10:04:29Z</time>
      </trkpt>
      <trkpt lat="36.748452" lon="-3.005785">
        <ele>19.580</ele>
        <time>2021-06-16T10:04:31Z</time>
      </trkpt>
      <trkpt lat="36.748471" lon="-3.0059">
        <ele>19.772</ele>
        <time>2021-06-16T10:04:32Z</time>
      </trkpt>
      <trkpt lat="36.748504" lon="-3.006109">
        <ele>19.613</ele>
        <time>2021-06-16T10:04:34Z</time>
      </trkpt>
      <trkpt lat="36.748517" lon="-3.006216">
        <ele>19.714</ele>
        <time>2021-06-16T10:04:35Z</time>
      </trkpt>
      <trkpt lat="36.748544" lon="-3.006411">
        <ele>20.408</ele>
        <time>2021-06-16T10:04:37Z</time>
      </trkpt>
      <trkpt lat="36.748558" lon="-3.006502">
        <ele>20.944</ele>
        <time>2021-06-16T10:04:38Z</time>
      </trkpt>
      <trkpt lat="36.748576" lon="-3.006671">
        <ele>20.882</ele>
        <time>2021-06-16T10:04:40Z</time>
      </trkpt>
      <trkpt lat="36.748577" lon="-3.006751">
        <ele>20.856</ele>
        <time>2021-06-16T10:04:41Z</time>
      </trkpt>
      <trkpt lat="36.748606" lon="-3.00688">
        <ele>20.895</ele>
        <time>2021-06-16T10:04:43Z</time>
      </trkpt>
      <trkpt lat="36.748658" lon="-3.007001">
        <ele>20.838</ele>
        <time>2021-06-16T10:04:45Z</time>
      </trkpt>
      <trkpt lat="36.748696" lon="-3.007057">
        <ele>20.955</ele>
        <time>2021-06-16T10:04:46Z</time>
      </trkpt>
      <trkpt lat="36.748737" lon="-3.007111">
        <ele>20.382</ele>
        <time>2021-06-16T10:04:47Z</time>
      </trkpt>
      <trkpt lat="36.74879" lon="-3.007227">
        <ele>19.722</ele>
        <time>2021-06-16T10:04:49Z</time>
      </trkpt>
      <trkpt lat="36.748786" lon="-3.007298">
        <ele>19.543</ele>
        <time>2021-06-16T10:04:50Z</time>
      </trkpt>
      <trkpt lat="36.748764" lon="-3.00737">
        <ele>18.864</ele>
        <time>2021-06-16T10:04:51Z</time>
      </trkpt>
      <trkpt lat="36.748724" lon="-3.007537">
        <ele>18.110</ele>
        <time>2021-06-16T10:04:53Z</time>
      </trkpt>
      <trkpt lat="36.748728" lon="-3.00773">
        <ele>17.208</ele>
        <time>2021-06-16T10:04:55Z</time>
      </trkpt>
      <trkpt lat="36.748742" lon="-3.007819">
        <ele>16.761</ele>
        <time>2021-06-16T10:04:56Z</time>
      </trkpt>
      <trkpt lat="36.748758" lon="-3.0079">
        <ele>16.579</ele>
        <time>2021-06-16T10:04:57Z</time>
      </trkpt>
      <trkpt lat="36.748784" lon="-3.008046">
        <ele>16.843</ele>
        <time>2021-06-16T10:04:59Z</time>
      </trkpt>
      <trkpt lat="36.748804" lon="-3.00819">
        <ele>17.852</ele>
        <time>2021-06-16T10:05:01Z</time>
      </trkpt>
      <trkpt lat="36.748831" lon="-3.008335">
        <ele>18.945</ele>
        <time>2021-06-16T10:05:03Z</time>
      </trkpt>
      <trkpt lat="36.748868" lon="-3.008491">
        <ele>19.122</ele>
        <time>2021-06-16T10:05:05Z</time>
      </trkpt>
      <trkpt lat="36.74888" lon="-3.008602">
        <ele>19.419</ele>
        <time>2021-06-16T10:05:07Z</time>
      </trkpt>
      <trkpt lat="36.748833" lon="-3.008618">
        <ele>18.649</ele>
        <time>2021-06-16T10:05:09Z</time>
      </trkpt>
      <trkpt lat="36.748783" lon="-3.008546">
        <ele>17.925</ele>
        <time>2021-06-16T10:05:11Z</time>
      </trkpt>
      <trkpt lat="36.748771" lon="-3.008481">
        <ele>16.926</ele>
        <time>2021-06-16T10:05:12Z</time>
      </trkpt>
      <trkpt lat="36.748747" lon="-3.008312">
        <ele>16.708</ele>
        <time>2021-06-16T10:05:14Z</time>
      </trkpt>
      <trkpt lat="36.748719" lon="-3.008135">
        <ele>17.108</ele>
        <time>2021-06-16T10:05:16Z</time>
      </trkpt>
      <trkpt lat="36.74872" lon="-3.00804">
        <ele>17.529</ele>
        <time>2021-06-16T10:05:17Z</time>
      </trkpt>
      <trkpt lat="36.748687" lon="-3.007853">
        <ele>17.587</ele>
        <time>2021-06-16T10:05:19Z</time>
      </trkpt>
      <trkpt lat="36.748654" lon="-3.007689">
        <ele>17.861</ele>
        <time>2021-06-16T10:05:21Z</time>
      </trkpt>
      <trkpt lat="36.748634" lon="-3.007531">
        <ele>18.040</ele>
        <time>2021-06-16T10:05:23Z</time>
      </trkpt>
      <trkpt lat="36.748623" lon="-3.007413">
        <ele>18.273</ele>
        <time>2021-06-16T10:05:25Z</time>
      </trkpt>
      <trkpt lat="36.748598" lon="-3.007298">
        <ele>18.650</ele>
        <time>2021-06-16T10:05:27Z</time>
      </trkpt>
      <trkpt lat="36.748591" lon="-3.007231">
        <ele>18.447</ele>
        <time>2021-06-16T10:05:28Z</time>
      </trkpt>
      <trkpt lat="36.748622" lon="-3.007117">
        <ele>18.377</ele>
        <time>2021-06-16T10:05:30Z</time>
      </trkpt>
      <trkpt lat="36.74868" lon="-3.007081">
        <ele>18.053</ele>
        <time>2021-06-16T10:05:32Z</time>
      </trkpt>
      <trkpt lat="36.748759" lon="-3.007095">
        <ele>17.804</ele>
        <time>2021-06-16T10:05:33Z</time>
      </trkpt>
      <trkpt lat="36.748935" lon="-3.00715">
        <ele>17.214</ele>
        <time>2021-06-16T10:05:35Z</time>
      </trkpt>
      <trkpt lat="36.749133" lon="-3.007173">
        <ele>16.808</ele>
        <time>2021-06-16T10:05:37Z</time>
      </trkpt>
      <trkpt lat="36.749342" lon="-3.007165">
        <ele>16.882</ele>
        <time>2021-06-16T10:05:39Z</time>
      </trkpt>
      <trkpt lat="36.749553" lon="-3.007148">
        <ele>17.530</ele>
        <time>2021-06-16T10:05:41Z</time>
      </trkpt>
      <trkpt lat="36.749773" lon="-3.007133">
        <ele>18.564</ele>
        <time>2021-06-16T10:05:43Z</time>
      </trkpt>
      <trkpt lat="36.749987" lon="-3.007098">
        <ele>19.323</ele>
        <time>2021-06-16T10:05:45Z</time>
      </trkpt>
      <trkpt lat="36.750094" lon="-3.007073">
        <ele>19.886</ele>
        <time>2021-06-16T10:05:46Z</time>
      </trkpt>
      <trkpt lat="36.750198" lon="-3.007045">
        <ele>19.923</ele>
        <time>2021-06-16T10:05:47Z</time>
      </trkpt>
      <trkpt lat="36.750415" lon="-3.006969">
        <ele>20.390</ele>
        <time>2021-06-16T10:05:49Z</time>
      </trkpt>
      <trkpt lat="36.750527" lon="-3.006919">
        <ele>20.830</ele>
        <time>2021-06-16T10:05:50Z</time>
      </trkpt>
      <trkpt lat="36.750752" lon="-3.006804">
        <ele>21.459</ele>
        <time>2021-06-16T10:05:52Z</time>
      </trkpt>
      <trkpt lat="36.750859" lon="-3.006733">
        <ele>21.703</ele>
        <time>2021-06-16T10:05:53Z</time>
      </trkpt>
      <trkpt lat="36.750962" lon="-3.006653">
        <ele>22.323</ele>
        <time>2021-06-16T10:05:54Z</time>
      </trkpt>
      <trkpt lat="36.75106" lon="-3.006569">
        <ele>23.108</ele>
        <time>2021-06-16T10:05:55Z</time>
      </trkpt>
      <trkpt lat="36.751155" lon="-3.006481">
        <ele>23.612</ele>
        <time>2021-06-16T10:05:56Z</time>
      </trkpt>
      <trkpt lat="36.751325" lon="-3.00627">
        <ele>23.750</ele>
        <time>2021-06-16T10:05:58Z</time>
      </trkpt>
      <trkpt lat="36.751479" lon="-3.006043">
        <ele>23.434</ele>
        <time>2021-06-16T10:06:00Z</time>
      </trkpt>
      <trkpt lat="36.751622" lon="-3.0058">
        <ele>22.913</ele>
        <time>2021-06-16T10:06:02Z</time>
      </trkpt>
      <trkpt lat="36.751695" lon="-3.005675">
        <ele>22.656</ele>
        <time>2021-06-16T10:06:03Z</time>
      </trkpt>
      <trkpt lat="36.751843" lon="-3.005433">
        <ele>22.653</ele>
        <time>2021-06-16T10:06:05Z</time>
      </trkpt>
      <trkpt lat="36.751921" lon="-3.005313">
        <ele>22.660</ele>
        <time>2021-06-16T10:06:06Z</time>
      </trkpt>
      <trkpt lat="36.751999" lon="-3.005202">
        <ele>22.560</ele>
        <time>2021-06-16T10:06:07Z</time>
      </trkpt>
      <trkpt lat="36.752083" lon="-3.005098">
        <ele>22.678</ele>
        <time>2021-06-16T10:06:08Z</time>
      </trkpt>
      <trkpt lat="36.752278" lon="-3.004879">
        <ele>23.033</ele>
        <time>2021-06-16T10:06:10Z</time>
      </trkpt>
      <trkpt lat="36.75238" lon="-3.004774">
        <ele>23.826</ele>
        <time>2021-06-16T10:06:11Z</time>
      </trkpt>
      <trkpt lat="36.752584" lon="-3.004576">
        <ele>24.208</ele>
        <time>2021-06-16T10:06:13Z</time>
      </trkpt>
      <trkpt lat="36.752689" lon="-3.004477">
        <ele>24.954</ele>
        <time>2021-06-16T10:06:14Z</time>
      </trkpt>
      <trkpt lat="36.752795" lon="-3.004382">
        <ele>25.482</ele>
        <time>2021-06-16T10:06:15Z</time>
      </trkpt>
      <trkpt lat="36.753005" lon="-3.004198">
        <ele>25.896</ele>
        <time>2021-06-16T10:06:17Z</time>
      </trkpt>
      <trkpt lat="36.753103" lon="-3.004108">
        <ele>26.745</ele>
        <time>2021-06-16T10:06:18Z</time>
      </trkpt>
      <trkpt lat="36.753291" lon="-3.003932">
        <ele>27.128</ele>
        <time>2021-06-16T10:06:20Z</time>
      </trkpt>
      <trkpt lat="36.753466" lon="-3.003767">
        <ele>27.265</ele>
        <time>2021-06-16T10:06:22Z</time>
      </trkpt>
      <trkpt lat="36.753544" lon="-3.003692">
        <ele>27.852</ele>
        <time>2021-06-16T10:06:23Z</time>
      </trkpt>
      <trkpt lat="36.753663" lon="-3.003532">
        <ele>27.992</ele>
        <time>2021-06-16T10:06:25Z</time>
      </trkpt>
      <trkpt lat="36.753764" lon="-3.003359">
        <ele>27.715</ele>
        <time>2021-06-16T10:06:27Z</time>
      </trkpt>
      <trkpt lat="36.753837" lon="-3.003302">
        <ele>27.865</ele>
        <time>2021-06-16T10:06:28Z</time>
      </trkpt>
      <trkpt lat="36.75392" lon="-3.003276">
        <ele>27.811</ele>
        <time>2021-06-16T10:06:29Z</time>
      </trkpt>
      <trkpt lat="36.754092" lon="-3.003212">
        <ele>28.008</ele>
        <time>2021-06-16T10:06:31Z</time>
      </trkpt>
      <trkpt lat="36.75426" lon="-3.003067">
        <ele>28.178</ele>
        <time>2021-06-16T10:06:33Z</time>
      </trkpt>
      <trkpt lat="36.754347" lon="-3.002984">
        <ele>28.256</ele>
        <time>2021-06-16T10:06:34Z</time>
      </trkpt>
      <trkpt lat="36.754541" lon="-3.002824">
        <ele>28.590</ele>
        <time>2021-06-16T10:06:36Z</time>
      </trkpt>
      <trkpt lat="36.754642" lon="-3.002744">
        <ele>28.869</ele>
        <time>2021-06-16T10:06:37Z</time>
      </trkpt>
      <trkpt lat="36.754854" lon="-3.002577">
        <ele>29.272</ele>
        <time>2021-06-16T10:06:39Z</time>
      </trkpt>
      <trkpt lat="36.754961" lon="-3.002494">
        <ele>29.689</ele>
        <time>2021-06-16T10:06:40Z</time>
      </trkpt>
      <trkpt lat="36.75507" lon="-3.002415">
        <ele>29.626</ele>
        <time>2021-06-16T10:06:41Z</time>
      </trkpt>
      <trkpt lat="36.755282" lon="-3.002252">
        <ele>29.766</ele>
        <time>2021-06-16T10:06:43Z</time>
      </trkpt>
      <trkpt lat="36.755387" lon="-3.002173">
        <ele>30.093</ele>
        <time>2021-06-16T10:06:44Z</time>
      </trkpt>
      <trkpt lat="36.755605" lon="-3.002028">
        <ele>30.265</ele>
        <time>2021-06-16T10:06:46Z</time>
      </trkpt>
      <trkpt lat="36.755714" lon="-3.00196">
        <ele>30.621</ele>
        <time>2021-06-16T10:06:47Z</time>
      </trkpt>
      <trkpt lat="36.755953" lon="-3.001864">
        <ele>30.808</ele>
        <time>2021-06-16T10:06:49Z</time>
      </trkpt>
      <trkpt lat="36.756079" lon="-3.001826">
        <ele>31.396</ele>
        <time>2021-06-16T10:06:50Z</time>
      </trkpt>
      <trkpt lat="36.75632" lon="-3.001738">
        <ele>31.364</ele>
        <time>2021-06-16T10:06:52Z</time>
      </trkpt>
      <trkpt lat="36.756441" lon="-3.001692">
        <ele>31.668</ele>
        <time>2021-06-16T10:06:53Z</time>
      </trkpt>
      <trkpt lat="36.756565" lon="-3.001644">
        <ele>31.687</ele>
        <time>2021-06-16T10:06:54Z</time>
      </trkpt>
      <trkpt lat="36.756813" lon="-3.001539">
        <ele>31.370</ele>
        <time>2021-06-16T10:06:56Z</time>
      </trkpt>
      <trkpt lat="36.75693" lon="-3.001473">
        <ele>31.197</ele>
        <time>2021-06-16T10:06:57Z</time>
      </trkpt>
      <trkpt lat="36.757161" lon="-3.001335">
        <ele>31.054</ele>
        <time>2021-06-16T10:06:59Z</time>
      </trkpt>
      <trkpt lat="36.757274" lon="-3.001268">
        <ele>30.834</ele>
        <time>2021-06-16T10:07:00Z</time>
      </trkpt>
      <trkpt lat="36.757382" lon="-3.001199">
        <ele>30.935</ele>
        <time>2021-06-16T10:07:01Z</time>
      </trkpt>
      <trkpt lat="36.757485" lon="-3.001129">
        <ele>30.986</ele>
        <time>2021-06-16T10:07:02Z</time>
      </trkpt>
      <trkpt lat="36.757683" lon="-3.000997">
        <ele>30.414</ele>
        <time>2021-06-16T10:07:04Z</time>
      </trkpt>
      <trkpt lat="36.757858" lon="-3.000891">
        <ele>31.008</ele>
        <time>2021-06-16T10:07:06Z</time>
      </trkpt>
      <trkpt lat="36.757936" lon="-3.000836">
        <ele>31.210</ele>
        <time>2021-06-16T10:07:07Z</time>
      </trkpt>
      <trkpt lat="36.758005" lon="-3.000765">
        <ele>31.318</ele>
        <time>2021-06-16T10:07:08Z</time>
      </trkpt>
      <trkpt lat="36.758112" lon="-3.000581">
        <ele>31.562</ele>
        <time>2021-06-16T10:07:10Z</time>
      </trkpt>
      <trkpt lat="36.758163" lon="-3.000481">
        <ele>31.641</ele>
        <time>2021-06-16T10:07:11Z</time>
      </trkpt>
      <trkpt lat="36.758315" lon="-3.000356">
        <ele>31.414</ele>
        <time>2021-06-16T10:07:13Z</time>
      </trkpt>
      <trkpt lat="36.758498" lon="-3.000282">
        <ele>31.511</ele>
        <time>2021-06-16T10:07:15Z</time>
      </trkpt>
      <trkpt lat="36.758669" lon="-3.000157">
        <ele>31.868</ele>
        <time>2021-06-16T10:07:17Z</time>
      </trkpt>
      <trkpt lat="36.758826" lon="-3.00">
        <ele>32.148</ele>
        <time>2021-06-16T10:07:19Z</time>
      </trkpt>
      <trkpt lat="36.758883" lon="-2.999916">
        <ele>31.891</ele>
        <time>2021-06-16T10:07:20Z</time>
      </trkpt>
      <trkpt lat="36.758917" lon="-2.999822">
        <ele>31.981</ele>
        <time>2021-06-16T10:07:21Z</time>
      </trkpt>
      <trkpt lat="36.75893" lon="-2.999724">
        <ele>32.019</ele>
        <time>2021-06-16T10:07:22Z</time>
      </trkpt>
      <trkpt lat="36.758939" lon="-2.999623">
        <ele>32.108</ele>
        <time>2021-06-16T10:07:23Z</time>
      </trkpt>
      <trkpt lat="36.759009" lon="-2.999471">
        <ele>32.776</ele>
        <time>2021-06-16T10:07:25Z</time>
      </trkpt>
      <trkpt lat="36.759075" lon="-2.999444">
        <ele>33.134</ele>
        <time>2021-06-16T10:07:26Z</time>
      </trkpt>
      <trkpt lat="36.759201" lon="-2.999508">
        <ele>33.368</ele>
        <time>2021-06-16T10:07:28Z</time>
      </trkpt>
      <trkpt lat="36.759252" lon="-2.999685">
        <ele>33.297</ele>
        <time>2021-06-16T10:07:30Z</time>
      </trkpt>
      <trkpt lat="36.759197" lon="-2.999872">
        <ele>33.230</ele>
        <time>2021-06-16T10:07:32Z</time>
      </trkpt>
      <trkpt lat="36.759088" lon="-3.000034">
        <ele>32.967</ele>
        <time>2021-06-16T10:07:34Z</time>
      </trkpt>
      <trkpt lat="36.759051" lon="-3.000139">
        <ele>32.974</ele>
        <time>2021-06-16T10:07:35Z</time>
      </trkpt>
      <trkpt lat="36.75903" lon="-3.000262">
        <ele>33.294</ele>
        <time>2021-06-16T10:07:36Z</time>
      </trkpt>
      <trkpt lat="36.75902" lon="-3.000538">
        <ele>33.953</ele>
        <time>2021-06-16T10:07:38Z</time>
      </trkpt>
      <trkpt lat="36.759059" lon="-3.000846">
        <ele>34.804</ele>
        <time>2021-06-16T10:07:40Z</time>
      </trkpt>
      <trkpt lat="36.759083" lon="-3.001008">
        <ele>35.414</ele>
        <time>2021-06-16T10:07:41Z</time>
      </trkpt>
      <trkpt lat="36.759144" lon="-3.001338">
        <ele>36.408</ele>
        <time>2021-06-16T10:07:43Z</time>
      </trkpt>
      <trkpt lat="36.759187" lon="-3.001504">
        <ele>37.522</ele>
        <time>2021-06-16T10:07:44Z</time>
      </trkpt>
      <trkpt lat="36.759302" lon="-3.001833">
        <ele>39.030</ele>
        <time>2021-06-16T10:07:46Z</time>
      </trkpt>
      <trkpt lat="36.759436" lon="-3.002156">
        <ele>40.524</ele>
        <time>2021-06-16T10:07:48Z</time>
      </trkpt>
      <trkpt lat="36.759507" lon="-3.002322">
        <ele>41.483</ele>
        <time>2021-06-16T10:07:49Z</time>
      </trkpt>
      <trkpt lat="36.759651" lon="-3.002646">
        <ele>41.986</ele>
        <time>2021-06-16T10:07:51Z</time>
      </trkpt>
      <trkpt lat="36.759721" lon="-3.002811">
        <ele>42.623</ele>
        <time>2021-06-16T10:07:52Z</time>
      </trkpt>
      <trkpt lat="36.759794" lon="-3.002976">
        <ele>43.330</ele>
        <time>2021-06-16T10:07:53Z</time>
      </trkpt>
      <trkpt lat="36.759873" lon="-3.003138">
        <ele>43.770</ele>
        <time>2021-06-16T10:07:54Z</time>
      </trkpt>
      <trkpt lat="36.760033" lon="-3.003462">
        <ele>44.877</ele>
        <time>2021-06-16T10:07:56Z</time>
      </trkpt>
      <trkpt lat="36.760199" lon="-3.003794">
        <ele>46.661</ele>
        <time>2021-06-16T10:07:58Z</time>
      </trkpt>
      <trkpt lat="36.760376" lon="-3.004135">
        <ele>48.527</ele>
        <time>2021-06-16T10:08:00Z</time>
      </trkpt>
      <trkpt lat="36.760467" lon="-3.004306">
        <ele>49.708</ele>
        <time>2021-06-16T10:08:01Z</time>
      </trkpt>
      <trkpt lat="36.760557" lon="-3.004477">
        <ele>51.084</ele>
        <time>2021-06-16T10:08:02Z</time>
      </trkpt>
      <trkpt lat="36.760729" lon="-3.004831">
        <ele>52.352</ele>
        <time>2021-06-16T10:08:04Z</time>
      </trkpt>
      <trkpt lat="36.760813" lon="-3.00501">
        <ele>53.256</ele>
        <time>2021-06-16T10:08:05Z</time>
      </trkpt>
      <trkpt lat="36.760967" lon="-3.005372">
        <ele>54.815</ele>
        <time>2021-06-16T10:08:07Z</time>
      </trkpt>
      <trkpt lat="36.7611" lon="-3.005747">
        <ele>56.378</ele>
        <time>2021-06-16T10:08:09Z</time>
      </trkpt>
      <trkpt lat="36.761213" lon="-3.006135">
        <ele>57.385</ele>
        <time>2021-06-16T10:08:11Z</time>
      </trkpt>
      <trkpt lat="36.761306" lon="-3.006524">
        <ele>58.012</ele>
        <time>2021-06-16T10:08:13Z</time>
      </trkpt>
      <trkpt lat="36.761341" lon="-3.006728">
        <ele>59.152</ele>
        <time>2021-06-16T10:08:14Z</time>
      </trkpt>
      <trkpt lat="36.76137" lon="-3.006934">
        <ele>60.118</ele>
        <time>2021-06-16T10:08:15Z</time>
      </trkpt>
      <trkpt lat="36.761412" lon="-3.007347">
        <ele>61.298</ele>
        <time>2021-06-16T10:08:17Z</time>
      </trkpt>
      <trkpt lat="36.761427" lon="-3.007551">
        <ele>61.817</ele>
        <time>2021-06-16T10:08:18Z</time>
      </trkpt>
      <trkpt lat="36.761435" lon="-3.007968">
        <ele>63.708</ele>
        <time>2021-06-16T10:08:20Z</time>
      </trkpt>
      <trkpt lat="36.761427" lon="-3.008378">
        <ele>65.738</ele>
        <time>2021-06-16T10:08:22Z</time>
      </trkpt>
      <trkpt lat="36.761385" lon="-3.008792">
        <ele>67.676</ele>
        <time>2021-06-16T10:08:24Z</time>
      </trkpt>
      <trkpt lat="36.76131" lon="-3.009202">
        <ele>70.150</ele>
        <time>2021-06-16T10:08:26Z</time>
      </trkpt>
      <trkpt lat="36.761215" lon="-3.009615">
        <ele>72.259</ele>
        <time>2021-06-16T10:08:28Z</time>
      </trkpt>
      <trkpt lat="36.761105" lon="-3.010021">
        <ele>73.782</ele>
        <time>2021-06-16T10:08:30Z</time>
      </trkpt>
      <trkpt lat="36.760965" lon="-3.010413">
        <ele>75.279</ele>
        <time>2021-06-16T10:08:32Z</time>
      </trkpt>
      <trkpt lat="36.760799" lon="-3.010794">
        <ele>76.676</ele>
        <time>2021-06-16T10:08:34Z</time>
      </trkpt>
      <trkpt lat="36.760611" lon="-3.011161">
        <ele>77.826</ele>
        <time>2021-06-16T10:08:36Z</time>
      </trkpt>
      <trkpt lat="36.760397" lon="-3.011514">
        <ele>79.648</ele>
        <time>2021-06-16T10:08:38Z</time>
      </trkpt>
      <trkpt lat="36.760163" lon="-3.011857">
        <ele>81.761</ele>
        <time>2021-06-16T10:08:40Z</time>
      </trkpt>
      <trkpt lat="36.760042" lon="-3.012027">
        <ele>83.217</ele>
        <time>2021-06-16T10:08:41Z</time>
      </trkpt>
      <trkpt lat="36.759925" lon="-3.012196">
        <ele>84.708</ele>
        <time>2021-06-16T10:08:42Z</time>
      </trkpt>
      <trkpt lat="36.759689" lon="-3.012536">
        <ele>86.551</ele>
        <time>2021-06-16T10:08:44Z</time>
      </trkpt>
      <trkpt lat="36.759461" lon="-3.012889">
        <ele>88.589</ele>
        <time>2021-06-16T10:08:46Z</time>
      </trkpt>
      <trkpt lat="36.759352" lon="-3.013077">
        <ele>90.183</ele>
        <time>2021-06-16T10:08:47Z</time>
      </trkpt>
      <trkpt lat="36.759248" lon="-3.01327">
        <ele>91.332</ele>
        <time>2021-06-16T10:08:48Z</time>
      </trkpt>
      <trkpt lat="36.759064" lon="-3.013669">
        <ele>92.645</ele>
        <time>2021-06-16T10:08:50Z</time>
      </trkpt>
      <trkpt lat="36.758907" lon="-3.014082">
        <ele>93.682</ele>
        <time>2021-06-16T10:08:52Z</time>
      </trkpt>
      <trkpt lat="36.758776" lon="-3.014513">
        <ele>94.879</ele>
        <time>2021-06-16T10:08:54Z</time>
      </trkpt>
      <trkpt lat="36.758728" lon="-3.014739">
        <ele>95.959</ele>
        <time>2021-06-16T10:08:55Z</time>
      </trkpt>
      <trkpt lat="36.758685" lon="-3.014961">
        <ele>97.286</ele>
        <time>2021-06-16T10:08:56Z</time>
      </trkpt>
      <trkpt lat="36.758646" lon="-3.015183">
        <ele>98.160</ele>
        <time>2021-06-16T10:08:57Z</time>
      </trkpt>
      <trkpt lat="36.758585" lon="-3.015627">
        <ele>99.526</ele>
        <time>2021-06-16T10:08:59Z</time>
      </trkpt>
      <trkpt lat="36.758569" lon="-3.015849">
        <ele>100.208</ele>
        <time>2021-06-16T10:09:00Z</time>
      </trkpt>
      <trkpt lat="36.758566" lon="-3.016072">
        <ele>101.085</ele>
        <time>2021-06-16T10:09:01Z</time>
      </trkpt>
      <trkpt lat="36.758573" lon="-3.01629">
        <ele>101.683</ele>
        <time>2021-06-16T10:09:02Z</time>
      </trkpt>
      <trkpt lat="36.758585" lon="-3.01651">
        <ele>102.387</ele>
        <time>2021-06-16T10:09:03Z</time>
      </trkpt>
      <trkpt lat="36.758633" lon="-3.016949">
        <ele>103.226</ele>
        <time>2021-06-16T10:09:05Z</time>
      </trkpt>
      <trkpt lat="36.758663" lon="-3.017165">
        <ele>104.029</ele>
        <time>2021-06-16T10:09:06Z</time>
      </trkpt>
      <trkpt lat="36.758729" lon="-3.017598">
        <ele>104.366</ele>
        <time>2021-06-16T10:09:08Z</time>
      </trkpt>
      <trkpt lat="36.758787" lon="-3.018027">
        <ele>104.493</ele>
        <time>2021-06-16T10:09:10Z</time>
      </trkpt>
      <trkpt lat="36.758815" lon="-3.018244">
        <ele>104.473</ele>
        <time>2021-06-16T10:09:11Z</time>
      </trkpt>
      <trkpt lat="36.75884" lon="-3.018464">
        <ele>104.676</ele>
        <time>2021-06-16T10:09:12Z</time>
      </trkpt>
      <trkpt lat="36.758859" lon="-3.018684">
        <ele>104.890</ele>
        <time>2021-06-16T10:09:13Z</time>
      </trkpt>
      <trkpt lat="36.75889" lon="-3.019124">
        <ele>105.119</ele>
        <time>2021-06-16T10:09:15Z</time>
      </trkpt>
      <trkpt lat="36.758915" lon="-3.019579">
        <ele>105.208</ele>
        <time>2021-06-16T10:09:17Z</time>
      </trkpt>
      <trkpt lat="36.758911" lon="-3.020035">
        <ele>105.194</ele>
        <time>2021-06-16T10:09:19Z</time>
      </trkpt>
      <trkpt lat="36.758888" lon="-3.020491">
        <ele>105.052</ele>
        <time>2021-06-16T10:09:21Z</time>
      </trkpt>
      <trkpt lat="36.758847" lon="-3.020952">
        <ele>104.726</ele>
        <time>2021-06-16T10:09:23Z</time>
      </trkpt>
      <trkpt lat="36.758778" lon="-3.021424">
        <ele>105.455</ele>
        <time>2021-06-16T10:09:25Z</time>
      </trkpt>
      <trkpt lat="36.758734" lon="-3.021662">
        <ele>106.388</ele>
        <time>2021-06-16T10:09:26Z</time>
      </trkpt>
      <trkpt lat="36.758685" lon="-3.021895">
        <ele>107.225</ele>
        <time>2021-06-16T10:09:27Z</time>
      </trkpt>
      <trkpt lat="36.75863" lon="-3.022127">
        <ele>107.532</ele>
        <time>2021-06-16T10:09:28Z</time>
      </trkpt>
      <trkpt lat="36.758509" lon="-3.022586">
        <ele>107.562</ele>
        <time>2021-06-16T10:09:30Z</time>
      </trkpt>
      <trkpt lat="36.758374" lon="-3.023022">
        <ele>106.717</ele>
        <time>2021-06-16T10:09:32Z</time>
      </trkpt>
      <trkpt lat="36.758304" lon="-3.023241">
        <ele>106.587</ele>
        <time>2021-06-16T10:09:33Z</time>
      </trkpt>
      <trkpt lat="36.758148" lon="-3.023664">
        <ele>106.015</ele>
        <time>2021-06-16T10:09:35Z</time>
      </trkpt>
      <trkpt lat="36.757975" lon="-3.024074">
        <ele>105.508</ele>
        <time>2021-06-16T10:09:37Z</time>
      </trkpt>
      <trkpt lat="36.757783" lon="-3.024471">
        <ele>105.018</ele>
        <time>2021-06-16T10:09:39Z</time>
      </trkpt>
      <trkpt lat="36.757582" lon="-3.024856">
        <ele>104.136</ele>
        <time>2021-06-16T10:09:41Z</time>
      </trkpt>
      <trkpt lat="36.757369" lon="-3.025211">
        <ele>104.080</ele>
        <time>2021-06-16T10:09:43Z</time>
      </trkpt>
      <trkpt lat="36.75726" lon="-3.025385">
        <ele>103.699</ele>
        <time>2021-06-16T10:09:44Z</time>
      </trkpt>
      <trkpt lat="36.757153" lon="-3.025559">
        <ele>103.362</ele>
        <time>2021-06-16T10:09:45Z</time>
      </trkpt>
      <trkpt lat="36.756946" lon="-3.025908">
        <ele>103.249</ele>
        <time>2021-06-16T10:09:47Z</time>
      </trkpt>
      <trkpt lat="36.756741" lon="-3.026273">
        <ele>103.076</ele>
        <time>2021-06-16T10:09:49Z</time>
      </trkpt>
      <trkpt lat="36.756551" lon="-3.026659">
        <ele>103.046</ele>
        <time>2021-06-16T10:09:51Z</time>
      </trkpt>
      <trkpt lat="36.756462" lon="-3.026858">
        <ele>103.389</ele>
        <time>2021-06-16T10:09:52Z</time>
      </trkpt>
      <trkpt lat="36.756382" lon="-3.027063">
        <ele>103.406</ele>
        <time>2021-06-16T10:09:53Z</time>
      </trkpt>
      <trkpt lat="36.756251" lon="-3.027495">
        <ele>104.026</ele>
        <time>2021-06-16T10:09:55Z</time>
      </trkpt>
      <trkpt lat="36.756151" lon="-3.027954">
        <ele>104.308</ele>
        <time>2021-06-16T10:09:57Z</time>
      </trkpt>
      <trkpt lat="36.756083" lon="-3.02841">
        <ele>105.015</ele>
        <time>2021-06-16T10:09:59Z</time>
      </trkpt>
      <trkpt lat="36.75603" lon="-3.02886">
        <ele>105.193</ele>
        <time>2021-06-16T10:10:01Z</time>
      </trkpt>
      <trkpt lat="36.756015" lon="-3.029083">
        <ele>105.957</ele>
        <time>2021-06-16T10:10:02Z</time>
      </trkpt>
      <trkpt lat="36.756022" lon="-3.029527">
        <ele>106.146</ele>
        <time>2021-06-16T10:10:04Z</time>
      </trkpt>
      <trkpt lat="36.756069" lon="-3.029981">
        <ele>106.259</ele>
        <time>2021-06-16T10:10:06Z</time>
      </trkpt>
      <trkpt lat="36.756095" lon="-3.030206">
        <ele>106.246</ele>
        <time>2021-06-16T10:10:07Z</time>
      </trkpt>
      <trkpt lat="36.756116" lon="-3.030427">
        <ele>106.213</ele>
        <time>2021-06-16T10:10:08Z</time>
      </trkpt>
      <trkpt lat="36.756156" lon="-3.030868">
        <ele>106.143</ele>
        <time>2021-06-16T10:10:10Z</time>
      </trkpt>
      <trkpt lat="36.756173" lon="-3.031091">
        <ele>106.534</ele>
        <time>2021-06-16T10:10:11Z</time>
      </trkpt>
      <trkpt lat="36.756187" lon="-3.031313">
        <ele>106.855</ele>
        <time>2021-06-16T10:10:12Z</time>
      </trkpt>
      <trkpt lat="36.756206" lon="-3.031756">
        <ele>106.910</ele>
        <time>2021-06-16T10:10:14Z</time>
      </trkpt>
      <trkpt lat="36.756196" lon="-3.03221">
        <ele>107.108</ele>
        <time>2021-06-16T10:10:16Z</time>
      </trkpt>
      <trkpt lat="36.756177" lon="-3.032441">
        <ele>107.310</ele>
        <time>2021-06-16T10:10:17Z</time>
      </trkpt>
      <trkpt lat="36.756124" lon="-3.032905">
        <ele>106.978</ele>
        <time>2021-06-16T10:10:19Z</time>
      </trkpt>
      <trkpt lat="36.756031" lon="-3.033364">
        <ele>107.082</ele>
        <time>2021-06-16T10:10:21Z</time>
      </trkpt>
      <trkpt lat="36.755976" lon="-3.033589">
        <ele>106.631</ele>
        <time>2021-06-16T10:10:22Z</time>
      </trkpt>
      <trkpt lat="36.755837" lon="-3.034031">
        <ele>106.234</ele>
        <time>2021-06-16T10:10:24Z</time>
      </trkpt>
      <trkpt lat="36.755671" lon="-3.034458">
        <ele>105.131</ele>
        <time>2021-06-16T10:10:26Z</time>
      </trkpt>
      <trkpt lat="36.755578" lon="-3.034663">
        <ele>104.128</ele>
        <time>2021-06-16T10:10:27Z</time>
      </trkpt>
      <trkpt lat="36.755378" lon="-3.035064">
        <ele>103.078</ele>
        <time>2021-06-16T10:10:29Z</time>
      </trkpt>
      <trkpt lat="36.755269" lon="-3.035258">
        <ele>101.968</ele>
        <time>2021-06-16T10:10:30Z</time>
      </trkpt>
      <trkpt lat="36.755043" lon="-3.035641">
        <ele>100.642</ele>
        <time>2021-06-16T10:10:32Z</time>
      </trkpt>
      <trkpt lat="36.754928" lon="-3.035829">
        <ele>99.226</ele>
        <time>2021-06-16T10:10:33Z</time>
      </trkpt>
      <trkpt lat="36.754703" lon="-3.036193">
        <ele>97.608</ele>
        <time>2021-06-16T10:10:35Z</time>
      </trkpt>
      <trkpt lat="36.754487" lon="-3.036566">
        <ele>96.173</ele>
        <time>2021-06-16T10:10:37Z</time>
      </trkpt>
      <trkpt lat="36.75438" lon="-3.03676">
        <ele>95.061</ele>
        <time>2021-06-16T10:10:38Z</time>
      </trkpt>
      <trkpt lat="36.754278" lon="-3.036955">
        <ele>94.225</ele>
        <time>2021-06-16T10:10:39Z</time>
      </trkpt>
      <trkpt lat="36.754108" lon="-3.037365">
        <ele>92.634</ele>
        <time>2021-06-16T10:10:41Z</time>
      </trkpt>
      <trkpt lat="36.753967" lon="-3.03779">
        <ele>91.177</ele>
        <time>2021-06-16T10:10:43Z</time>
      </trkpt>
      <trkpt lat="36.753903" lon="-3.038004">
        <ele>89.614</ele>
        <time>2021-06-16T10:10:44Z</time>
      </trkpt>
      <trkpt lat="36.753844" lon="-3.038221">
        <ele>88.461</ele>
        <time>2021-06-16T10:10:45Z</time>
      </trkpt>
      <trkpt lat="36.753783" lon="-3.038438">
        <ele>87.181</ele>
        <time>2021-06-16T10:10:46Z</time>
      </trkpt>
      <trkpt lat="36.75372" lon="-3.038654">
        <ele>86.357</ele>
        <time>2021-06-16T10:10:47Z</time>
      </trkpt>
      <trkpt lat="36.753654" lon="-3.038869">
        <ele>85.300</ele>
        <time>2021-06-16T10:10:48Z</time>
      </trkpt>
      <trkpt lat="36.753584" lon="-3.039082">
        <ele>83.920</ele>
        <time>2021-06-16T10:10:49Z</time>
      </trkpt>
      <trkpt lat="36.753426" lon="-3.039504">
        <ele>82.508</ele>
        <time>2021-06-16T10:10:51Z</time>
      </trkpt>
      <trkpt lat="36.753337" lon="-3.039715">
        <ele>80.832</ele>
        <time>2021-06-16T10:10:52Z</time>
      </trkpt>
      <trkpt lat="36.753244" lon="-3.039921">
        <ele>79.420</ele>
        <time>2021-06-16T10:10:53Z</time>
      </trkpt>
      <trkpt lat="36.753037" lon="-3.040314">
        <ele>78.244</ele>
        <time>2021-06-16T10:10:55Z</time>
      </trkpt>
      <trkpt lat="36.75292" lon="-3.0405">
        <ele>77.413</ele>
        <time>2021-06-16T10:10:56Z</time>
      </trkpt>
      <trkpt lat="36.752671" lon="-3.040855">
        <ele>76.396</ele>
        <time>2021-06-16T10:10:58Z</time>
      </trkpt>
      <trkpt lat="36.752396" lon="-3.041186">
        <ele>75.213</ele>
        <time>2021-06-16T10:11:00Z</time>
      </trkpt>
      <trkpt lat="36.752248" lon="-3.041344">
        <ele>74.370</ele>
        <time>2021-06-16T10:11:01Z</time>
      </trkpt>
      <trkpt lat="36.751952" lon="-3.04164">
        <ele>73.060</ele>
        <time>2021-06-16T10:11:03Z</time>
      </trkpt>
      <trkpt lat="36.751645" lon="-3.041912">
        <ele>71.439</ele>
        <time>2021-06-16T10:11:05Z</time>
      </trkpt>
      <trkpt lat="36.751333" lon="-3.042189">
        <ele>69.701</ele>
        <time>2021-06-16T10:11:07Z</time>
      </trkpt>
      <trkpt lat="36.751022" lon="-3.042469">
        <ele>67.721</ele>
        <time>2021-06-16T10:11:09Z</time>
      </trkpt>
      <trkpt lat="36.750725" lon="-3.042769">
        <ele>65.508</ele>
        <time>2021-06-16T10:11:11Z</time>
      </trkpt>
      <trkpt lat="36.750446" lon="-3.043091">
        <ele>63.220</ele>
        <time>2021-06-16T10:11:13Z</time>
      </trkpt>
      <trkpt lat="36.750317" lon="-3.043262">
        <ele>61.358</ele>
        <time>2021-06-16T10:11:14Z</time>
      </trkpt>
      <trkpt lat="36.750075" lon="-3.043622">
        <ele>59.152</ele>
        <time>2021-06-16T10:11:16Z</time>
      </trkpt>
      <trkpt lat="36.74996" lon="-3.043811">
        <ele>57.371</ele>
        <time>2021-06-16T10:11:17Z</time>
      </trkpt>
      <trkpt lat="36.749851" lon="-3.044003">
        <ele>55.984</ele>
        <time>2021-06-16T10:11:18Z</time>
      </trkpt>
      <trkpt lat="36.749651" lon="-3.044405">
        <ele>54.481</ele>
        <time>2021-06-16T10:11:20Z</time>
      </trkpt>
      <trkpt lat="36.749472" lon="-3.044827">
        <ele>53.058</ele>
        <time>2021-06-16T10:11:22Z</time>
      </trkpt>
      <trkpt lat="36.749319" lon="-3.045257">
        <ele>51.988</ele>
        <time>2021-06-16T10:11:24Z</time>
      </trkpt>
      <trkpt lat="36.749196" lon="-3.045706">
        <ele>50.038</ele>
        <time>2021-06-16T10:11:26Z</time>
      </trkpt>
      <trkpt lat="36.749115" lon="-3.046165">
        <ele>48.470</ele>
        <time>2021-06-16T10:11:28Z</time>
      </trkpt>
      <trkpt lat="36.749081" lon="-3.046398">
        <ele>47.317</ele>
        <time>2021-06-16T10:11:29Z</time>
      </trkpt>
      <trkpt lat="36.749051" lon="-3.046634">
        <ele>46.608</ele>
        <time>2021-06-16T10:11:30Z</time>
      </trkpt>
      <trkpt lat="36.74901" lon="-3.047098">
        <ele>45.980</ele>
        <time>2021-06-16T10:11:32Z</time>
      </trkpt>
      <trkpt lat="36.748991" lon="-3.047334">
        <ele>45.558</ele>
        <time>2021-06-16T10:11:33Z</time>
      </trkpt>
      <trkpt lat="36.748964" lon="-3.047801">
        <ele>44.582</ele>
        <time>2021-06-16T10:11:35Z</time>
      </trkpt>
      <trkpt lat="36.748961" lon="-3.048032">
        <ele>44.431</ele>
        <time>2021-06-16T10:11:36Z</time>
      </trkpt>
      <trkpt lat="36.748956" lon="-3.048261">
        <ele>43.874</ele>
        <time>2021-06-16T10:11:37Z</time>
      </trkpt>
      <trkpt lat="36.748954" lon="-3.048716">
        <ele>43.911</ele>
        <time>2021-06-16T10:11:39Z</time>
      </trkpt>
      <trkpt lat="36.748965" lon="-3.049183">
        <ele>44.288</ele>
        <time>2021-06-16T10:11:41Z</time>
      </trkpt>
      <trkpt lat="36.748989" lon="-3.049655">
        <ele>45.088</ele>
        <time>2021-06-16T10:11:43Z</time>
      </trkpt>
      <trkpt lat="36.749004" lon="-3.049885">
        <ele>45.314</ele>
        <time>2021-06-16T10:11:44Z</time>
      </trkpt>
      <trkpt lat="36.749027" lon="-3.05011">
        <ele>45.854</ele>
        <time>2021-06-16T10:11:45Z</time>
      </trkpt>
      <trkpt lat="36.749103" lon="-3.050533">
        <ele>45.609</ele>
        <time>2021-06-16T10:11:47Z</time>
      </trkpt>
      <trkpt lat="36.749176" lon="-3.050941">
        <ele>46.008</ele>
        <time>2021-06-16T10:11:49Z</time>
      </trkpt>
      <trkpt lat="36.749245" lon="-3.051337">
        <ele>46.618</ele>
        <time>2021-06-16T10:11:51Z</time>
      </trkpt>
      <trkpt lat="36.749288" lon="-3.051532">
        <ele>46.996</ele>
        <time>2021-06-16T10:11:52Z</time>
      </trkpt>
      <trkpt lat="36.749332" lon="-3.051727">
        <ele>47.660</ele>
        <time>2021-06-16T10:11:53Z</time>
      </trkpt>
      <trkpt lat="36.749419" lon="-3.052098">
        <ele>48.369</ele>
        <time>2021-06-16T10:11:55Z</time>
      </trkpt>
      <trkpt lat="36.749506" lon="-3.052444">
        <ele>48.822</ele>
        <time>2021-06-16T10:11:57Z</time>
      </trkpt>
      <trkpt lat="36.74955" lon="-3.052598">
        <ele>49.249</ele>
        <time>2021-06-16T10:11:58Z</time>
      </trkpt>
      <trkpt lat="36.749636" lon="-3.052891">
        <ele>49.756</ele>
        <time>2021-06-16T10:12:00Z</time>
      </trkpt>
      <trkpt lat="36.749679" lon="-3.05302">
        <ele>49.756</ele>
        <time>2021-06-16T10:12:01Z</time>
      </trkpt>
      <trkpt lat="36.749718" lon="-3.053143">
        <ele>50.035</ele>
        <time>2021-06-16T10:12:02Z</time>
      </trkpt>
      <trkpt lat="36.749756" lon="-3.053261">
        <ele>49.886</ele>
        <time>2021-06-16T10:12:03Z</time>
      </trkpt>
      <trkpt lat="36.749832" lon="-3.053458">
        <ele>49.114</ele>
        <time>2021-06-16T10:12:05Z</time>
      </trkpt>
      <trkpt lat="36.749877" lon="-3.053541">
        <ele>49.008</ele>
        <time>2021-06-16T10:12:06Z</time>
      </trkpt>
      <trkpt lat="36.750005" lon="-3.053662">
        <ele>49.080</ele>
        <time>2021-06-16T10:12:08Z</time>
      </trkpt>
      <trkpt lat="36.750085" lon="-3.053695">
        <ele>48.918</ele>
        <time>2021-06-16T10:12:09Z</time>
      </trkpt>
      <trkpt lat="36.750238" lon="-3.053749">
        <ele>48.952</ele>
        <time>2021-06-16T10:12:11Z</time>
      </trkpt>
      <trkpt lat="36.750318" lon="-3.053884">
        <ele>48.221</ele>
        <time>2021-06-16T10:12:13Z</time>
      </trkpt>
      <trkpt lat="36.750277" lon="-3.054021">
        <ele>48.054</ele>
        <time>2021-06-16T10:12:15Z</time>
      </trkpt>
      <trkpt lat="36.750136" lon="-3.054087">
        <ele>47.981</ele>
        <time>2021-06-16T10:12:17Z</time>
      </trkpt>
      <trkpt lat="36.750055" lon="-3.054079">
        <ele>47.948</ele>
        <time>2021-06-16T10:12:18Z</time>
      </trkpt>
      <trkpt lat="36.749885" lon="-3.054076">
        <ele>47.138</ele>
        <time>2021-06-16T10:12:20Z</time>
      </trkpt>
      <trkpt lat="36.749795" lon="-3.054096">
        <ele>46.259</ele>
        <time>2021-06-16T10:12:21Z</time>
      </trkpt>
      <trkpt lat="36.749608" lon="-3.054162">
        <ele>45.303</ele>
        <time>2021-06-16T10:12:23Z</time>
      </trkpt>
      <trkpt lat="36.749429" lon="-3.054249">
        <ele>44.723</ele>
        <time>2021-06-16T10:12:25Z</time>
      </trkpt>
      <trkpt lat="36.749285" lon="-3.054403">
        <ele>43.708</ele>
        <time>2021-06-16T10:12:27Z</time>
      </trkpt>
      <trkpt lat="36.749159" lon="-3.054582">
        <ele>42.842</ele>
        <time>2021-06-16T10:12:29Z</time>
      </trkpt>
      <trkpt lat="36.749095" lon="-3.054665">
        <ele>42.510</ele>
        <time>2021-06-16T10:12:30Z</time>
      </trkpt>
      <trkpt lat="36.749029" lon="-3.054744">
        <ele>42.124</ele>
        <time>2021-06-16T10:12:31Z</time>
      </trkpt>
      <trkpt lat="36.748968" lon="-3.054829">
        <ele>41.433</ele>
        <time>2021-06-16T10:12:32Z</time>
      </trkpt>
      <trkpt lat="36.748914" lon="-3.054929">
        <ele>40.996</ele>
        <time>2021-06-16T10:12:33Z</time>
      </trkpt>
      <trkpt lat="36.748826" lon="-3.055173">
        <ele>40.643</ele>
        <time>2021-06-16T10:12:35Z</time>
      </trkpt>
      <trkpt lat="36.748781" lon="-3.055302">
        <ele>40.390</ele>
        <time>2021-06-16T10:12:36Z</time>
      </trkpt>
      <trkpt lat="36.748688" lon="-3.05557">
        <ele>39.340</ele>
        <time>2021-06-16T10:12:38Z</time>
      </trkpt>
      <trkpt lat="36.748634" lon="-3.055705">
        <ele>39.043</ele>
        <time>2021-06-16T10:12:39Z</time>
      </trkpt>
      <trkpt lat="36.748499" lon="-3.055955">
        <ele>37.864</ele>
        <time>2021-06-16T10:12:41Z</time>
      </trkpt>
      <trkpt lat="36.748416" lon="-3.056065">
        <ele>36.910</ele>
        <time>2021-06-16T10:12:42Z</time>
      </trkpt>
      <trkpt lat="36.748231" lon="-3.056253">
        <ele>35.708</ele>
        <time>2021-06-16T10:12:44Z</time>
      </trkpt>
      <trkpt lat="36.748133" lon="-3.056328">
        <ele>34.721</ele>
        <time>2021-06-16T10:12:45Z</time>
      </trkpt>
      <trkpt lat="36.747951" lon="-3.056477">
        <ele>33.569</ele>
        <time>2021-06-16T10:12:47Z</time>
      </trkpt>
      <trkpt lat="36.747873" lon="-3.056561">
        <ele>32.743</ele>
        <time>2021-06-16T10:12:48Z</time>
      </trkpt>
      <trkpt lat="36.7478" lon="-3.056643">
        <ele>32.692</ele>
        <time>2021-06-16T10:12:49Z</time>
      </trkpt>
      <trkpt lat="36.74764" lon="-3.056731">
        <ele>32.385</ele>
        <time>2021-06-16T10:12:51Z</time>
      </trkpt>
      <trkpt lat="36.747552" lon="-3.056744">
        <ele>31.992</ele>
        <time>2021-06-16T10:12:52Z</time>
      </trkpt>
      <trkpt lat="36.747392" lon="-3.056833">
        <ele>31.429</ele>
        <time>2021-06-16T10:12:54Z</time>
      </trkpt>
      <trkpt lat="36.747335" lon="-3.057063">
        <ele>31.029</ele>
        <time>2021-06-16T10:12:56Z</time>
      </trkpt>
      <trkpt lat="36.747341" lon="-3.057199">
        <ele>30.518</ele>
        <time>2021-06-16T10:12:57Z</time>
      </trkpt>
      <trkpt lat="36.74737" lon="-3.057488">
        <ele>30.098</ele>
        <time>2021-06-16T10:12:59Z</time>
      </trkpt>
      <trkpt lat="36.747406" lon="-3.057807">
        <ele>29.617</ele>
        <time>2021-06-16T10:13:01Z</time>
      </trkpt>
      <trkpt lat="36.747426" lon="-3.05797">
        <ele>29.408</ele>
        <time>2021-06-16T10:13:02Z</time>
      </trkpt>
      <trkpt lat="36.747442" lon="-3.05813">
        <ele>29.518</ele>
        <time>2021-06-16T10:13:03Z</time>
      </trkpt>
      <trkpt lat="36.747463" lon="-3.058288">
        <ele>28.926</ele>
        <time>2021-06-16T10:13:04Z</time>
      </trkpt>
      <trkpt lat="36.747522" lon="-3.058572">
        <ele>28.060</ele>
        <time>2021-06-16T10:13:06Z</time>
      </trkpt>
      <trkpt lat="36.747597" lon="-3.058837">
        <ele>27.819</ele>
        <time>2021-06-16T10:13:08Z</time>
      </trkpt>
      <trkpt lat="36.747701" lon="-3.059109">
        <ele>28.362</ele>
        <time>2021-06-16T10:13:10Z</time>
      </trkpt>
      <trkpt lat="36.747845" lon="-3.05938">
        <ele>28.729</ele>
        <time>2021-06-16T10:13:12Z</time>
      </trkpt>
      <trkpt lat="36.747925" lon="-3.059519">
        <ele>29.196</ele>
        <time>2021-06-16T10:13:13Z</time>
      </trkpt>
      <trkpt lat="36.747996" lon="-3.059671">
        <ele>29.516</ele>
        <time>2021-06-16T10:13:14Z</time>
      </trkpt>
      <trkpt lat="36.748084" lon="-3.060022">
        <ele>29.758</ele>
        <time>2021-06-16T10:13:16Z</time>
      </trkpt>
      <trkpt lat="36.748102" lon="-3.060213">
        <ele>29.652</ele>
        <time>2021-06-16T10:13:17Z</time>
      </trkpt>
      <trkpt lat="36.748067" lon="-3.060594">
        <ele>30.217</ele>
        <time>2021-06-16T10:13:19Z</time>
      </trkpt>
      <trkpt lat="36.747958" lon="-3.060947">
        <ele>30.308</ele>
        <time>2021-06-16T10:13:21Z</time>
      </trkpt>
      <trkpt lat="36.747883" lon="-3.06112">
        <ele>29.942</ele>
        <time>2021-06-16T10:13:22Z</time>
      </trkpt>
      <trkpt lat="36.747744" lon="-3.061474">
        <ele>30.070</ele>
        <time>2021-06-16T10:13:24Z</time>
      </trkpt>
      <trkpt lat="36.747695" lon="-3.061661">
        <ele>29.914</ele>
        <time>2021-06-16T10:13:25Z</time>
      </trkpt>
      <trkpt lat="36.747659" lon="-3.06205">
        <ele>29.213</ele>
        <time>2021-06-16T10:13:27Z</time>
      </trkpt>
      <trkpt lat="36.747686" lon="-3.06245">
        <ele>28.686</ele>
        <time>2021-06-16T10:13:29Z</time>
      </trkpt>
      <trkpt lat="36.747735" lon="-3.06285">
        <ele>28.023</ele>
        <time>2021-06-16T10:13:31Z</time>
      </trkpt>
      <trkpt lat="36.747759" lon="-3.063048">
        <ele>27.440</ele>
        <time>2021-06-16T10:13:32Z</time>
      </trkpt>
      <trkpt lat="36.747772" lon="-3.063249">
        <ele>26.930</ele>
        <time>2021-06-16T10:13:33Z</time>
      </trkpt>
      <trkpt lat="36.747744" lon="-3.063649">
        <ele>27.082</ele>
        <time>2021-06-16T10:13:35Z</time>
      </trkpt>
      <trkpt lat="36.747625" lon="-3.064018">
        <ele>27.443</ele>
        <time>2021-06-16T10:13:37Z</time>
      </trkpt>
      <trkpt lat="36.747477" lon="-3.064335">
        <ele>27.217</ele>
        <time>2021-06-16T10:13:39Z</time>
      </trkpt>
      <trkpt lat="36.74732" lon="-3.064592">
        <ele>27.108</ele>
        <time>2021-06-16T10:13:41Z</time>
      </trkpt>
      <trkpt lat="36.747243" lon="-3.064713">
        <ele>26.965</ele>
        <time>2021-06-16T10:13:42Z</time>
      </trkpt>
      <trkpt lat="36.747106" lon="-3.064934">
        <ele>27.293</ele>
        <time>2021-06-16T10:13:44Z</time>
      </trkpt>
      <trkpt lat="36.747046" lon="-3.065052">
        <ele>27.227</ele>
        <time>2021-06-16T10:13:45Z</time>
      </trkpt>
      <trkpt lat="36.746995" lon="-3.065178">
        <ele>26.956</ele>
        <time>2021-06-16T10:13:46Z</time>
      </trkpt>
      <trkpt lat="36.746934" lon="-3.065471">
        <ele>26.689</ele>
        <time>2021-06-16T10:13:48Z</time>
      </trkpt>
      <trkpt lat="36.746918" lon="-3.065625">
        <ele>26.746</ele>
        <time>2021-06-16T10:13:49Z</time>
      </trkpt>
      <trkpt lat="36.746907" lon="-3.06578">
        <ele>26.893</ele>
        <time>2021-06-16T10:13:50Z</time>
      </trkpt>
      <trkpt lat="36.746917" lon="-3.066109">
        <ele>26.773</ele>
        <time>2021-06-16T10:13:52Z</time>
      </trkpt>
      <trkpt lat="36.746981" lon="-3.066442">
        <ele>26.274</ele>
        <time>2021-06-16T10:13:54Z</time>
      </trkpt>
      <trkpt lat="36.74705" lon="-3.066793">
        <ele>24.956</ele>
        <time>2021-06-16T10:13:56Z</time>
      </trkpt>
      <trkpt lat="36.74707" lon="-3.067146">
        <ele>23.621</ele>
        <time>2021-06-16T10:13:58Z</time>
      </trkpt>
      <trkpt lat="36.747046" lon="-3.067511">
        <ele>22.508</ele>
        <time>2021-06-16T10:14:00Z</time>
      </trkpt>
      <trkpt lat="36.747005" lon="-3.067874">
        <ele>21.774</ele>
        <time>2021-06-16T10:14:02Z</time>
      </trkpt>
      <trkpt lat="36.746947" lon="-3.068228">
        <ele>20.652</ele>
        <time>2021-06-16T10:14:04Z</time>
      </trkpt>
      <trkpt lat="36.746874" lon="-3.068581">
        <ele>19.446</ele>
        <time>2021-06-16T10:14:06Z</time>
      </trkpt>
      <trkpt lat="36.746834" lon="-3.068763">
        <ele>18.895</ele>
        <time>2021-06-16T10:14:07Z</time>
      </trkpt>
      <trkpt lat="36.746747" lon="-3.069123">
        <ele>17.878</ele>
        <time>2021-06-16T10:14:09Z</time>
      </trkpt>
      <trkpt lat="36.746701" lon="-3.069306">
        <ele>17.125</ele>
        <time>2021-06-16T10:14:10Z</time>
      </trkpt>
      <trkpt lat="36.746659" lon="-3.069491">
        <ele>16.482</ele>
        <time>2021-06-16T10:14:11Z</time>
      </trkpt>
      <trkpt lat="36.746576" lon="-3.069869">
        <ele>15.652</ele>
        <time>2021-06-16T10:14:13Z</time>
      </trkpt>
      <trkpt lat="36.746505" lon="-3.07025">
        <ele>14.769</ele>
        <time>2021-06-16T10:14:15Z</time>
      </trkpt>
      <trkpt lat="36.746475" lon="-3.07063">
        <ele>14.404</ele>
        <time>2021-06-16T10:14:17Z</time>
      </trkpt>
      <trkpt lat="36.746477" lon="-3.071011">
        <ele>14.324</ele>
        <time>2021-06-16T10:14:19Z</time>
      </trkpt>
      <trkpt lat="36.746519" lon="-3.071393">
        <ele>14.308</ele>
        <time>2021-06-16T10:14:21Z</time>
      </trkpt>
      <trkpt lat="36.746544" lon="-3.071581">
        <ele>14.183</ele>
        <time>2021-06-16T10:14:22Z</time>
      </trkpt>
      <trkpt lat="36.746595" lon="-3.071956">
        <ele>13.871</ele>
        <time>2021-06-16T10:14:24Z</time>
      </trkpt>
      <trkpt lat="36.74664" lon="-3.072325">
        <ele>13.745</ele>
        <time>2021-06-16T10:14:26Z</time>
      </trkpt>
      <trkpt lat="36.74668" lon="-3.07269">
        <ele>12.994</ele>
        <time>2021-06-16T10:14:28Z</time>
      </trkpt>
      <trkpt lat="36.746716" lon="-3.073051">
        <ele>12.177</ele>
        <time>2021-06-16T10:14:30Z</time>
      </trkpt>
      <trkpt lat="36.746756" lon="-3.073422">
        <ele>11.954</ele>
        <time>2021-06-16T10:14:32Z</time>
      </trkpt>
      <trkpt lat="36.746803" lon="-3.073794">
        <ele>12.241</ele>
        <time>2021-06-16T10:14:34Z</time>
      </trkpt>
      <trkpt lat="36.746851" lon="-3.074178">
        <ele>13.361</ele>
        <time>2021-06-16T10:14:36Z</time>
      </trkpt>
      <trkpt lat="36.746883" lon="-3.074366">
        <ele>14.589</ele>
        <time>2021-06-16T10:14:37Z</time>
      </trkpt>
      <trkpt lat="36.746912" lon="-3.074559">
        <ele>15.606</ele>
        <time>2021-06-16T10:14:38Z</time>
      </trkpt>
      <trkpt lat="36.746988" lon="-3.07493">
        <ele>17.026</ele>
        <time>2021-06-16T10:14:40Z</time>
      </trkpt>
      <trkpt lat="36.74703" lon="-3.075115">
        <ele>18.208</ele>
        <time>2021-06-16T10:14:41Z</time>
      </trkpt>
      <trkpt lat="36.747076" lon="-3.075308">
        <ele>19.265</ele>
        <time>2021-06-16T10:14:42Z</time>
      </trkpt>
      <trkpt lat="36.747176" lon="-3.075672">
        <ele>19.953</ele>
        <time>2021-06-16T10:14:44Z</time>
      </trkpt>
      <trkpt lat="36.747221" lon="-3.07586">
        <ele>21.147</ele>
        <time>2021-06-16T10:14:45Z</time>
      </trkpt>
      <trkpt lat="36.747298" lon="-3.076243">
        <ele>21.546</ele>
        <time>2021-06-16T10:14:47Z</time>
      </trkpt>
      <trkpt lat="36.747347" lon="-3.076635">
        <ele>21.999</ele>
        <time>2021-06-16T10:14:49Z</time>
      </trkpt>
      <trkpt lat="36.747361" lon="-3.07683">
        <ele>22.256</ele>
        <time>2021-06-16T10:14:50Z</time>
      </trkpt>
      <trkpt lat="36.747351" lon="-3.077229">
        <ele>23.293</ele>
        <time>2021-06-16T10:14:52Z</time>
      </trkpt>
      <trkpt lat="36.747344" lon="-3.077428">
        <ele>23.553</ele>
        <time>2021-06-16T10:14:53Z</time>
      </trkpt>
      <trkpt lat="36.747335" lon="-3.07763">
        <ele>24.274</ele>
        <time>2021-06-16T10:14:54Z</time>
      </trkpt>
      <trkpt lat="36.747323" lon="-3.078036">
        <ele>24.556</ele>
        <time>2021-06-16T10:14:56Z</time>
      </trkpt>
      <trkpt lat="36.747328" lon="-3.078442">
        <ele>24.921</ele>
        <time>2021-06-16T10:14:58Z</time>
      </trkpt>
      <trkpt lat="36.747348" lon="-3.078644">
        <ele>25.208</ele>
        <time>2021-06-16T10:14:59Z</time>
      </trkpt>
      <trkpt lat="36.747409" lon="-3.07905">
        <ele>25.684</ele>
        <time>2021-06-16T10:15:01Z</time>
      </trkpt>
      <trkpt lat="36.747499" lon="-3.079447">
        <ele>25.542</ele>
        <time>2021-06-16T10:15:03Z</time>
      </trkpt>
      <trkpt lat="36.747548" lon="-3.079649">
        <ele>25.626</ele>
        <time>2021-06-16T10:15:04Z</time>
      </trkpt>
      <trkpt lat="36.747643" lon="-3.080058">
        <ele>25.595</ele>
        <time>2021-06-16T10:15:06Z</time>
      </trkpt>
      <trkpt lat="36.74769" lon="-3.080263">
        <ele>24.768</ele>
        <time>2021-06-16T10:15:07Z</time>
      </trkpt>
      <trkpt lat="36.747736" lon="-3.080464">
        <ele>24.045</ele>
        <time>2021-06-16T10:15:08Z</time>
      </trkpt>
      <trkpt lat="36.747823" lon="-3.080858">
        <ele>23.082</ele>
        <time>2021-06-16T10:15:10Z</time>
      </trkpt>
      <trkpt lat="36.747867" lon="-3.081052">
        <ele>23.212</ele>
        <time>2021-06-16T10:15:11Z</time>
      </trkpt>
      <trkpt lat="36.747911" lon="-3.08125">
        <ele>23.573</ele>
        <time>2021-06-16T10:15:12Z</time>
      </trkpt>
      <trkpt lat="36.748001" lon="-3.081647">
        <ele>23.385</ele>
        <time>2021-06-16T10:15:14Z</time>
      </trkpt>
      <trkpt lat="36.748066" lon="-3.082042">
        <ele>23.013</ele>
        <time>2021-06-16T10:15:16Z</time>
      </trkpt>
      <trkpt lat="36.748111" lon="-3.082436">
        <ele>22.508</ele>
        <time>2021-06-16T10:15:18Z</time>
      </trkpt>
      <trkpt lat="36.74813" lon="-3.082638">
        <ele>22.194</ele>
        <time>2021-06-16T10:15:19Z</time>
      </trkpt>
      <trkpt lat="36.748153" lon="-3.083033">
        <ele>21.892</ele>
        <time>2021-06-16T10:15:21Z</time>
      </trkpt>
      <trkpt lat="36.748156" lon="-3.083236">
        <ele>21.776</ele>
        <time>2021-06-16T10:15:22Z</time>
      </trkpt>
      <trkpt lat="36.748164" lon="-3.083637">
        <ele>22.145</ele>
        <time>2021-06-16T10:15:24Z</time>
      </trkpt>
      <trkpt lat="36.74817" lon="-3.083831">
        <ele>22.638</ele>
        <time>2021-06-16T10:15:25Z</time>
      </trkpt>
      <trkpt lat="36.748179" lon="-3.084227">
        <ele>23.255</ele>
        <time>2021-06-16T10:15:27Z</time>
      </trkpt>
      <trkpt lat="36.748182" lon="-3.08443">
        <ele>23.432</ele>
        <time>2021-06-16T10:15:28Z</time>
      </trkpt>
      <trkpt lat="36.748189" lon="-3.084631">
        <ele>23.622</ele>
        <time>2021-06-16T10:15:29Z</time>
      </trkpt>
      <trkpt lat="36.748199" lon="-3.085029">
        <ele>24.333</ele>
        <time>2021-06-16T10:15:31Z</time>
      </trkpt>
      <trkpt lat="36.748205" lon="-3.08523">
        <ele>24.623</ele>
        <time>2021-06-16T10:15:32Z</time>
      </trkpt>
      <trkpt lat="36.748211" lon="-3.085621">
        <ele>25.415</ele>
        <time>2021-06-16T10:15:34Z</time>
      </trkpt>
      <trkpt lat="36.748229" lon="-3.085998">
        <ele>26.008</ele>
        <time>2021-06-16T10:15:36Z</time>
      </trkpt>
      <trkpt lat="36.748274" lon="-3.086357">
        <ele>26.840</ele>
        <time>2021-06-16T10:15:38Z</time>
      </trkpt>
      <trkpt lat="36.748323" lon="-3.086538">
        <ele>27.648</ele>
        <time>2021-06-16T10:15:39Z</time>
      </trkpt>
      <trkpt lat="36.748461" lon="-3.086897">
        <ele>28.242</ele>
        <time>2021-06-16T10:15:41Z</time>
      </trkpt>
      <trkpt lat="36.748531" lon="-3.087074">
        <ele>28.931</ele>
        <time>2021-06-16T10:15:42Z</time>
      </trkpt>
      <trkpt lat="36.748662" lon="-3.08744">
        <ele>29.224</ele>
        <time>2021-06-16T10:15:44Z</time>
      </trkpt>
      <trkpt lat="36.748717" lon="-3.087631">
        <ele>29.051</ele>
        <time>2021-06-16T10:15:45Z</time>
      </trkpt>
      <trkpt lat="36.748759" lon="-3.087827">
        <ele>28.888</ele>
        <time>2021-06-16T10:15:46Z</time>
      </trkpt>
      <trkpt lat="36.748798" lon="-3.08823">
        <ele>28.488</ele>
        <time>2021-06-16T10:15:48Z</time>
      </trkpt>
      <trkpt lat="36.748807" lon="-3.088435">
        <ele>28.142</ele>
        <time>2021-06-16T10:15:49Z</time>
      </trkpt>
      <trkpt lat="36.748812" lon="-3.088647">
        <ele>28.122</ele>
        <time>2021-06-16T10:15:50Z</time>
      </trkpt>
      <trkpt lat="36.748819" lon="-3.089067">
        <ele>29.114</ele>
        <time>2021-06-16T10:15:52Z</time>
      </trkpt>
      <trkpt lat="36.748826" lon="-3.089469">
        <ele>29.708</ele>
        <time>2021-06-16T10:15:54Z</time>
      </trkpt>
      <trkpt lat="36.748832" lon="-3.089863">
        <ele>30.391</ele>
        <time>2021-06-16T10:15:56Z</time>
      </trkpt>
      <trkpt lat="36.748835" lon="-3.090061">
        <ele>30.879</ele>
        <time>2021-06-16T10:15:57Z</time>
      </trkpt>
      <trkpt lat="36.748822" lon="-3.090456">
        <ele>32.213</ele>
        <time>2021-06-16T10:15:59Z</time>
      </trkpt>
      <trkpt lat="36.748787" lon="-3.090845">
        <ele>33.482</ele>
        <time>2021-06-16T10:16:01Z</time>
      </trkpt>
      <trkpt lat="36.748758" lon="-3.091037">
        <ele>34.645</ele>
        <time>2021-06-16T10:16:02Z</time>
      </trkpt>
      <trkpt lat="36.748719" lon="-3.091222">
        <ele>35.632</ele>
        <time>2021-06-16T10:16:03Z</time>
      </trkpt>
      <trkpt lat="36.748645" lon="-3.091595">
        <ele>36.399</ele>
        <time>2021-06-16T10:16:05Z</time>
      </trkpt>
      <trkpt lat="36.748601" lon="-3.091953">
        <ele>36.989</ele>
        <time>2021-06-16T10:16:07Z</time>
      </trkpt>
      <trkpt lat="36.748633" lon="-3.0923">
        <ele>38.065</ele>
        <time>2021-06-16T10:16:09Z</time>
      </trkpt>
      <trkpt lat="36.748678" lon="-3.092478">
        <ele>38.968</ele>
        <time>2021-06-16T10:16:10Z</time>
      </trkpt>
      <trkpt lat="36.748742" lon="-3.092643">
        <ele>39.914</ele>
        <time>2021-06-16T10:16:11Z</time>
      </trkpt>
      <trkpt lat="36.748935" lon="-3.092924">
        <ele>40.708</ele>
        <time>2021-06-16T10:16:13Z</time>
      </trkpt>
      <trkpt lat="36.749056" lon="-3.093044">
        <ele>41.333</ele>
        <time>2021-06-16T10:16:14Z</time>
      </trkpt>
      <trkpt lat="36.749318" lon="-3.093246">
        <ele>41.491</ele>
        <time>2021-06-16T10:16:16Z</time>
      </trkpt>
      <trkpt lat="36.749586" lon="-3.093433">
        <ele>42.285</ele>
        <time>2021-06-16T10:16:18Z</time>
      </trkpt>
      <trkpt lat="36.749725" lon="-3.093527">
        <ele>42.734</ele>
        <time>2021-06-16T10:16:19Z</time>
      </trkpt>
      <trkpt lat="36.749864" lon="-3.093622">
        <ele>43.377</ele>
        <time>2021-06-16T10:16:20Z</time>
      </trkpt>
      <trkpt lat="36.750133" lon="-3.093824">
        <ele>43.854</ele>
        <time>2021-06-16T10:16:22Z</time>
      </trkpt>
      <trkpt lat="36.750262" lon="-3.093936">
        <ele>44.311</ele>
        <time>2021-06-16T10:16:23Z</time>
      </trkpt>
      <trkpt lat="36.750482" lon="-3.094226">
        <ele>45.431</ele>
        <time>2021-06-16T10:16:25Z</time>
      </trkpt>
      <trkpt lat="36.750564" lon="-3.094403">
        <ele>45.562</ele>
        <time>2021-06-16T10:16:26Z</time>
      </trkpt>
      <trkpt lat="36.750632" lon="-3.094586">
        <ele>46.083</ele>
        <time>2021-06-16T10:16:27Z</time>
      </trkpt>
      <trkpt lat="36.750668" lon="-3.094977">
        <ele>47.011</ele>
        <time>2021-06-16T10:16:29Z</time>
      </trkpt>
      <trkpt lat="36.750639" lon="-3.095181">
        <ele>47.508</ele>
        <time>2021-06-16T10:16:30Z</time>
      </trkpt>
      <trkpt lat="36.750594" lon="-3.095383">
        <ele>48.233</ele>
        <time>2021-06-16T10:16:31Z</time>
      </trkpt>
      <trkpt lat="36.750456" lon="-3.095747">
        <ele>49.881</ele>
        <time>2021-06-16T10:16:33Z</time>
      </trkpt>
      <trkpt lat="36.750266" lon="-3.096077">
        <ele>52.045</ele>
        <time>2021-06-16T10:16:35Z</time>
      </trkpt>
      <trkpt lat="36.750083" lon="-3.096396">
        <ele>54.044</ele>
        <time>2021-06-16T10:16:37Z</time>
      </trkpt>
      <trkpt lat="36.750005" lon="-3.096564">
        <ele>55.877</ele>
        <time>2021-06-16T10:16:38Z</time>
      </trkpt>
      <trkpt lat="36.749885" lon="-3.096913">
        <ele>57.934</ele>
        <time>2021-06-16T10:16:40Z</time>
      </trkpt>
      <trkpt lat="36.749843" lon="-3.097099">
        <ele>59.881</ele>
        <time>2021-06-16T10:16:41Z</time>
      </trkpt>
      <trkpt lat="36.7498" lon="-3.097478">
        <ele>61.411</ele>
        <time>2021-06-16T10:16:43Z</time>
      </trkpt>
      <trkpt lat="36.749812" lon="-3.097849">
        <ele>63.254</ele>
        <time>2021-06-16T10:16:45Z</time>
      </trkpt>
      <trkpt lat="36.749849" lon="-3.098037">
        <ele>64.456</ele>
        <time>2021-06-16T10:16:46Z</time>
      </trkpt>
      <trkpt lat="36.74995" lon="-3.098416">
        <ele>65.511</ele>
        <time>2021-06-16T10:16:48Z</time>
      </trkpt>
      <trkpt lat="36.750056" lon="-3.098802">
        <ele>66.708</ele>
        <time>2021-06-16T10:16:50Z</time>
      </trkpt>
      <trkpt lat="36.750162" lon="-3.099197">
        <ele>68.362</ele>
        <time>2021-06-16T10:16:52Z</time>
      </trkpt>
      <trkpt lat="36.750214" lon="-3.099397">
        <ele>69.810</ele>
        <time>2021-06-16T10:16:53Z</time>
      </trkpt>
      <trkpt lat="36.750318" lon="-3.099791">
        <ele>71.344</ele>
        <time>2021-06-16T10:16:55Z</time>
      </trkpt>
      <trkpt lat="36.75037" lon="-3.099995">
        <ele>72.123</ele>
        <time>2021-06-16T10:16:56Z</time>
      </trkpt>
      <trkpt lat="36.750412" lon="-3.100199">
        <ele>72.996</ele>
        <time>2021-06-16T10:16:57Z</time>
      </trkpt>
      <trkpt lat="36.750455" lon="-3.100608">
        <ele>73.483</ele>
        <time>2021-06-16T10:16:59Z</time>
      </trkpt>
      <trkpt lat="36.750469" lon="-3.101015">
        <ele>73.960</ele>
        <time>2021-06-16T10:17:01Z</time>
      </trkpt>
      <trkpt lat="36.75048" lon="-3.10122">
        <ele>74.080</ele>
        <time>2021-06-16T10:17:02Z</time>
      </trkpt>
      <trkpt lat="36.750517" lon="-3.101631">
        <ele>74.358</ele>
        <time>2021-06-16T10:17:04Z</time>
      </trkpt>
      <trkpt lat="36.750614" lon="-3.102028">
        <ele>74.852</ele>
        <time>2021-06-16T10:17:06Z</time>
      </trkpt>
      <trkpt lat="36.750681" lon="-3.102215">
        <ele>75.817</ele>
        <time>2021-06-16T10:17:07Z</time>
      </trkpt>
      <trkpt lat="36.750857" lon="-3.102569">
        <ele>77.008</ele>
        <time>2021-06-16T10:17:09Z</time>
      </trkpt>
      <trkpt lat="36.751059" lon="-3.102917">
        <ele>78.282</ele>
        <time>2021-06-16T10:17:11Z</time>
      </trkpt>
      <trkpt lat="36.751165" lon="-3.103091">
        <ele>79.010</ele>
        <time>2021-06-16T10:17:12Z</time>
      </trkpt>
      <trkpt lat="36.751272" lon="-3.103263">
        <ele>79.374</ele>
        <time>2021-06-16T10:17:13Z</time>
      </trkpt>
      <trkpt lat="36.751478" lon="-3.10361">
        <ele>79.963</ele>
        <time>2021-06-16T10:17:15Z</time>
      </trkpt>
      <trkpt lat="36.751668" lon="-3.103957">
        <ele>79.966</ele>
        <time>2021-06-16T10:17:17Z</time>
      </trkpt>
      <trkpt lat="36.751775" lon="-3.104353">
        <ele>80.083</ele>
        <time>2021-06-16T10:17:19Z</time>
      </trkpt>
      <trkpt lat="36.751761" lon="-3.104785">
        <ele>80.490</ele>
        <time>2021-06-16T10:17:21Z</time>
      </trkpt>
      <trkpt lat="36.751639" lon="-3.105182">
        <ele>81.160</ele>
        <time>2021-06-16T10:17:23Z</time>
      </trkpt>
      <trkpt lat="36.751548" lon="-3.105368">
        <ele>81.598</ele>
        <time>2021-06-16T10:17:24Z</time>
      </trkpt>
      <trkpt lat="36.751363" lon="-3.105732">
        <ele>82.115</ele>
        <time>2021-06-16T10:17:26Z</time>
      </trkpt>
      <trkpt lat="36.751276" lon="-3.105912">
        <ele>82.626</ele>
        <time>2021-06-16T10:17:27Z</time>
      </trkpt>
      <trkpt lat="36.751172" lon="-3.106303">
        <ele>83.108</ele>
        <time>2021-06-16T10:17:29Z</time>
      </trkpt>
      <trkpt lat="36.751161" lon="-3.106723">
        <ele>83.626</ele>
        <time>2021-06-16T10:17:31Z</time>
      </trkpt>
      <trkpt lat="36.751227" lon="-3.107127">
        <ele>84.264</ele>
        <time>2021-06-16T10:17:33Z</time>
      </trkpt>
      <trkpt lat="36.751313" lon="-3.107306">
        <ele>84.698</ele>
        <time>2021-06-16T10:17:34Z</time>
      </trkpt>
      <trkpt lat="36.751423" lon="-3.107473">
        <ele>84.527</ele>
        <time>2021-06-16T10:17:35Z</time>
      </trkpt>
      <trkpt lat="36.751637" lon="-3.107805">
        <ele>84.160</ele>
        <time>2021-06-16T10:17:37Z</time>
      </trkpt>
      <trkpt lat="36.751849" lon="-3.108152">
        <ele>83.957</ele>
        <time>2021-06-16T10:17:39Z</time>
      </trkpt>
      <trkpt lat="36.752053" lon="-3.108523">
        <ele>83.644</ele>
        <time>2021-06-16T10:17:41Z</time>
      </trkpt>
      <trkpt lat="36.752223" lon="-3.108915">
        <ele>83.994</ele>
        <time>2021-06-16T10:17:43Z</time>
      </trkpt>
      <trkpt lat="36.752299" lon="-3.109352">
        <ele>84.796</ele>
        <time>2021-06-16T10:17:45Z</time>
      </trkpt>
      <trkpt lat="36.752249" lon="-3.109802">
        <ele>85.031</ele>
        <time>2021-06-16T10:17:47Z</time>
      </trkpt>
      <trkpt lat="36.752163" lon="-3.110223">
        <ele>85.424</ele>
        <time>2021-06-16T10:17:49Z</time>
      </trkpt>
      <trkpt lat="36.752107" lon="-3.110633">
        <ele>86.008</ele>
        <time>2021-06-16T10:17:51Z</time>
      </trkpt>
      <trkpt lat="36.752152" lon="-3.111048">
        <ele>86.046</ele>
        <time>2021-06-16T10:17:53Z</time>
      </trkpt>
      <trkpt lat="36.752201" lon="-3.111254">
        <ele>86.034</ele>
        <time>2021-06-16T10:17:54Z</time>
      </trkpt>
      <trkpt lat="36.752263" lon="-3.111453">
        <ele>86.388</ele>
        <time>2021-06-16T10:17:55Z</time>
      </trkpt>
      <trkpt lat="36.752333" lon="-3.111652">
        <ele>86.457</ele>
        <time>2021-06-16T10:17:56Z</time>
      </trkpt>
      <trkpt lat="36.752453" lon="-3.11205">
        <ele>86.430</ele>
        <time>2021-06-16T10:17:58Z</time>
      </trkpt>
      <trkpt lat="36.752524" lon="-3.112465">
        <ele>86.047</ele>
        <time>2021-06-16T10:18:00Z</time>
      </trkpt>
      <trkpt lat="36.752542" lon="-3.112677">
        <ele>85.714</ele>
        <time>2021-06-16T10:18:01Z</time>
      </trkpt>
      <trkpt lat="36.752566" lon="-3.11311">
        <ele>85.314</ele>
        <time>2021-06-16T10:18:03Z</time>
      </trkpt>
      <trkpt lat="36.752582" lon="-3.113328">
        <ele>85.331</ele>
        <time>2021-06-16T10:18:04Z</time>
      </trkpt>
      <trkpt lat="36.752596" lon="-3.11354">
        <ele>85.161</ele>
        <time>2021-06-16T10:18:05Z</time>
      </trkpt>
      <trkpt lat="36.75261" lon="-3.113961">
        <ele>84.707</ele>
        <time>2021-06-16T10:18:07Z</time>
      </trkpt>
      <trkpt lat="36.752591" lon="-3.11417">
        <ele>84.408</ele>
        <time>2021-06-16T10:18:08Z</time>
      </trkpt>
      <trkpt lat="36.752478" lon="-3.114578">
        <ele>84.250</ele>
        <time>2021-06-16T10:18:10Z</time>
      </trkpt>
      <trkpt lat="36.752287" lon="-3.114944">
        <ele>83.278</ele>
        <time>2021-06-16T10:18:12Z</time>
      </trkpt>
      <trkpt lat="36.7522" lon="-3.115135">
        <ele>82.532</ele>
        <time>2021-06-16T10:18:13Z</time>
      </trkpt>
      <trkpt lat="36.752136" lon="-3.11534">
        <ele>81.791</ele>
        <time>2021-06-16T10:18:14Z</time>
      </trkpt>
      <trkpt lat="36.752062" lon="-3.115756">
        <ele>80.494</ele>
        <time>2021-06-16T10:18:16Z</time>
      </trkpt>
      <trkpt lat="36.752021" lon="-3.115958">
        <ele>79.631</ele>
        <time>2021-06-16T10:18:17Z</time>
      </trkpt>
      <trkpt lat="36.751896" lon="-3.116333">
        <ele>78.198</ele>
        <time>2021-06-16T10:18:19Z</time>
      </trkpt>
      <trkpt lat="36.751813" lon="-3.116507">
        <ele>76.858</ele>
        <time>2021-06-16T10:18:20Z</time>
      </trkpt>
      <trkpt lat="36.751731" lon="-3.116681">
        <ele>75.957</ele>
        <time>2021-06-16T10:18:21Z</time>
      </trkpt>
      <trkpt lat="36.751661" lon="-3.116861">
        <ele>75.300</ele>
        <time>2021-06-16T10:18:22Z</time>
      </trkpt>
      <trkpt lat="36.751594" lon="-3.117258">
        <ele>73.920</ele>
        <time>2021-06-16T10:18:24Z</time>
      </trkpt>
      <trkpt lat="36.751598" lon="-3.117467">
        <ele>72.608</ele>
        <time>2021-06-16T10:18:25Z</time>
      </trkpt>
      <trkpt lat="36.751622" lon="-3.117683">
        <ele>71.042</ele>
        <time>2021-06-16T10:18:26Z</time>
      </trkpt>
      <trkpt lat="36.75168" lon="-3.11812">
        <ele>69.560</ele>
        <time>2021-06-16T10:18:28Z</time>
      </trkpt>
      <trkpt lat="36.75177" lon="-3.118562">
        <ele>67.654</ele>
        <time>2021-06-16T10:18:30Z</time>
      </trkpt>
      <trkpt lat="36.751864" lon="-3.119016">
        <ele>66.083</ele>
        <time>2021-06-16T10:18:32Z</time>
      </trkpt>
      <trkpt lat="36.751943" lon="-3.119468">
        <ele>64.316</ele>
        <time>2021-06-16T10:18:34Z</time>
      </trkpt>
      <trkpt lat="36.751975" lon="-3.119698">
        <ele>63.633</ele>
        <time>2021-06-16T10:18:35Z</time>
      </trkpt>
      <trkpt lat="36.751998" lon="-3.120157">
        <ele>62.640</ele>
        <time>2021-06-16T10:18:37Z</time>
      </trkpt>
      <trkpt lat="36.75198" lon="-3.120592">
        <ele>61.950</ele>
        <time>2021-06-16T10:18:39Z</time>
      </trkpt>
      <trkpt lat="36.751956" lon="-3.121004">
        <ele>61.031</ele>
        <time>2021-06-16T10:18:41Z</time>
      </trkpt>
      <trkpt lat="36.751928" lon="-3.121413">
        <ele>61.061</ele>
        <time>2021-06-16T10:18:43Z</time>
      </trkpt>
      <trkpt lat="36.751928" lon="-3.121799">
        <ele>61.807</ele>
        <time>2021-06-16T10:18:45Z</time>
      </trkpt>
      <trkpt lat="36.751958" lon="-3.121985">
        <ele>62.708</ele>
        <time>2021-06-16T10:18:46Z</time>
      </trkpt>
      <trkpt lat="36.752019" lon="-3.122168">
        <ele>63.910</ele>
        <time>2021-06-16T10:18:47Z</time>
      </trkpt>
      <trkpt lat="36.752091" lon="-3.122343">
        <ele>65.048</ele>
        <time>2021-06-16T10:18:48Z</time>
      </trkpt>
      <trkpt lat="36.752253" lon="-3.122688">
        <ele>66.462</ele>
        <time>2021-06-16T10:18:50Z</time>
      </trkpt>
      <trkpt lat="36.752342" lon="-3.122855">
        <ele>67.881</ele>
        <time>2021-06-16T10:18:51Z</time>
      </trkpt>
      <trkpt lat="36.752505" lon="-3.123192">
        <ele>69.874</ele>
        <time>2021-06-16T10:18:53Z</time>
      </trkpt>
      <trkpt lat="36.752567" lon="-3.123368">
        <ele>71.291</ele>
        <time>2021-06-16T10:18:54Z</time>
      </trkpt>
      <trkpt lat="36.752602" lon="-3.123556">
        <ele>73.098</ele>
        <time>2021-06-16T10:18:55Z</time>
      </trkpt>
      <trkpt lat="36.752609" lon="-3.12375">
        <ele>73.878</ele>
        <time>2021-06-16T10:18:56Z</time>
      </trkpt>
      <trkpt lat="36.752593" lon="-3.123942">
        <ele>74.295</ele>
        <time>2021-06-16T10:18:57Z</time>
      </trkpt>
      <trkpt lat="36.752516" lon="-3.124342">
        <ele>75.249</ele>
        <time>2021-06-16T10:18:59Z</time>
      </trkpt>
      <trkpt lat="36.752469" lon="-3.124545">
        <ele>75.923</ele>
        <time>2021-06-16T10:19:00Z</time>
      </trkpt>
      <trkpt lat="36.752395" lon="-3.124942">
        <ele>76.908</ele>
        <time>2021-06-16T10:19:02Z</time>
      </trkpt>
      <trkpt lat="36.75237" lon="-3.125142">
        <ele>77.486</ele>
        <time>2021-06-16T10:19:03Z</time>
      </trkpt>
      <trkpt lat="36.752361" lon="-3.125545">
        <ele>78.444</ele>
        <time>2021-06-16T10:19:05Z</time>
      </trkpt>
      <trkpt lat="36.752397" lon="-3.125952">
        <ele>79.028</ele>
        <time>2021-06-16T10:19:07Z</time>
      </trkpt>
      <trkpt lat="36.752435" lon="-3.126156">
        <ele>79.197</ele>
        <time>2021-06-16T10:19:08Z</time>
      </trkpt>
      <trkpt lat="36.752484" lon="-3.126362">
        <ele>79.470</ele>
        <time>2021-06-16T10:19:09Z</time>
      </trkpt>
      <trkpt lat="36.752534" lon="-3.126567">
        <ele>79.317</ele>
        <time>2021-06-16T10:19:10Z</time>
      </trkpt>
      <trkpt lat="36.752626" lon="-3.126985">
        <ele>79.424</ele>
        <time>2021-06-16T10:19:12Z</time>
      </trkpt>
      <trkpt lat="36.752671" lon="-3.127196">
        <ele>79.814</ele>
        <time>2021-06-16T10:19:13Z</time>
      </trkpt>
      <trkpt lat="36.752763" lon="-3.127603">
        <ele>79.766</ele>
        <time>2021-06-16T10:19:15Z</time>
      </trkpt>
      <trkpt lat="36.752879" lon="-3.128013">
        <ele>79.629</ele>
        <time>2021-06-16T10:19:17Z</time>
      </trkpt>
      <trkpt lat="36.753028" lon="-3.128392">
        <ele>78.921</ele>
        <time>2021-06-16T10:19:19Z</time>
      </trkpt>
      <trkpt lat="36.7531" lon="-3.128585">
        <ele>78.308</ele>
        <time>2021-06-16T10:19:20Z</time>
      </trkpt>
      <trkpt lat="36.75316" lon="-3.128781">
        <ele>77.483</ele>
        <time>2021-06-16T10:19:21Z</time>
      </trkpt>
      <trkpt lat="36.75323" lon="-3.129196">
        <ele>76.511</ele>
        <time>2021-06-16T10:19:23Z</time>
      </trkpt>
      <trkpt lat="36.753232" lon="-3.129413">
        <ele>75.735</ele>
        <time>2021-06-16T10:19:24Z</time>
      </trkpt>
      <trkpt lat="36.753156" lon="-3.129842">
        <ele>75.814</ele>
        <time>2021-06-16T10:19:26Z</time>
      </trkpt>
      <trkpt lat="36.753081" lon="-3.130048">
        <ele>76.267</ele>
        <time>2021-06-16T10:19:27Z</time>
      </trkpt>
      <trkpt lat="36.752915" lon="-3.130447">
        <ele>76.974</ele>
        <time>2021-06-16T10:19:29Z</time>
      </trkpt>
      <trkpt lat="36.752855" lon="-3.130656">
        <ele>77.321</ele>
        <time>2021-06-16T10:19:30Z</time>
      </trkpt>
      <trkpt lat="36.752786" lon="-3.1311">
        <ele>77.831</ele>
        <time>2021-06-16T10:19:32Z</time>
      </trkpt>
      <trkpt lat="36.752776" lon="-3.13155">
        <ele>78.775</ele>
        <time>2021-06-16T10:19:34Z</time>
      </trkpt>
      <trkpt lat="36.752767" lon="-3.131773">
        <ele>78.828</ele>
        <time>2021-06-16T10:19:35Z</time>
      </trkpt>
      <trkpt lat="36.752704" lon="-3.132221">
        <ele>80.320</ele>
        <time>2021-06-16T10:19:37Z</time>
      </trkpt>
      <trkpt lat="36.75267" lon="-3.132441">
        <ele>81.808</ele>
        <time>2021-06-16T10:19:38Z</time>
      </trkpt>
      <trkpt lat="36.752651" lon="-3.132655">
        <ele>83.024</ele>
        <time>2021-06-16T10:19:39Z</time>
      </trkpt>
      <trkpt lat="36.752654" lon="-3.132864">
        <ele>84.022</ele>
        <time>2021-06-16T10:19:40Z</time>
      </trkpt>
      <trkpt lat="36.752712" lon="-3.133277">
        <ele>85.776</ele>
        <time>2021-06-16T10:19:42Z</time>
      </trkpt>
      <trkpt lat="36.752737" lon="-3.13348">
        <ele>86.735</ele>
        <time>2021-06-16T10:19:43Z</time>
      </trkpt>
      <trkpt lat="36.752734" lon="-3.133683">
        <ele>87.228</ele>
        <time>2021-06-16T10:19:44Z</time>
      </trkpt>
      <trkpt lat="36.75271" lon="-3.133887">
        <ele>88.335</ele>
        <time>2021-06-16T10:19:45Z</time>
      </trkpt>
      <trkpt lat="36.752667" lon="-3.134093">
        <ele>89.362</ele>
        <time>2021-06-16T10:19:46Z</time>
      </trkpt>
      <trkpt lat="36.752606" lon="-3.134296">
        <ele>89.822</ele>
        <time>2021-06-16T10:19:47Z</time>
      </trkpt>
      <trkpt lat="36.752445" lon="-3.134687">
        <ele>91.019</ele>
        <time>2021-06-16T10:19:49Z</time>
      </trkpt>
      <trkpt lat="36.752335" lon="-3.134866">
        <ele>92.009</ele>
        <time>2021-06-16T10:19:50Z</time>
      </trkpt>
      <trkpt lat="36.752101" lon="-3.135187">
        <ele>92.919</ele>
        <time>2021-06-16T10:19:52Z</time>
      </trkpt>
      <trkpt lat="36.751977" lon="-3.135347">
        <ele>93.408</ele>
        <time>2021-06-16T10:19:53Z</time>
      </trkpt>
      <trkpt lat="36.751746" lon="-3.135672">
        <ele>94.618</ele>
        <time>2021-06-16T10:19:55Z</time>
      </trkpt>
      <trkpt lat="36.751543" lon="-3.136024">
        <ele>96.036</ele>
        <time>2021-06-16T10:19:57Z</time>
      </trkpt>
      <trkpt lat="36.751381" lon="-3.136392">
        <ele>97.360</ele>
        <time>2021-06-16T10:19:59Z</time>
      </trkpt>
      <trkpt lat="36.751249" lon="-3.136771">
        <ele>98.319</ele>
        <time>2021-06-16T10:20:01Z</time>
      </trkpt>
      <trkpt lat="36.751149" lon="-3.137172">
        <ele>99.962</ele>
        <time>2021-06-16T10:20:03Z</time>
      </trkpt>
      <trkpt lat="36.75108" lon="-3.137578">
        <ele>101.329</ele>
        <time>2021-06-16T10:20:05Z</time>
      </trkpt>
      <trkpt lat="36.751053" lon="-3.137786">
        <ele>102.536</ele>
        <time>2021-06-16T10:20:06Z</time>
      </trkpt>
      <trkpt lat="36.751027" lon="-3.137994">
        <ele>103.356</ele>
        <time>2021-06-16T10:20:07Z</time>
      </trkpt>
      <trkpt lat="36.750977" lon="-3.138409">
        <ele>104.183</ele>
        <time>2021-06-16T10:20:09Z</time>
      </trkpt>
      <trkpt lat="36.750953" lon="-3.138622">
        <ele>104.625</ele>
        <time>2021-06-16T10:20:10Z</time>
      </trkpt>
      <trkpt lat="36.750903" lon="-3.139044">
        <ele>104.917</ele>
        <time>2021-06-16T10:20:12Z</time>
      </trkpt>
      <trkpt lat="36.750879" lon="-3.139256">
        <ele>104.908</ele>
        <time>2021-06-16T10:20:13Z</time>
      </trkpt>
      <trkpt lat="36.750857" lon="-3.139463">
        <ele>104.715</ele>
        <time>2021-06-16T10:20:14Z</time>
      </trkpt>
      <trkpt lat="36.750833" lon="-3.13967">
        <ele>104.873</ele>
        <time>2021-06-16T10:20:15Z</time>
      </trkpt>
      <trkpt lat="36.750787" lon="-3.14008">
        <ele>104.557</ele>
        <time>2021-06-16T10:20:17Z</time>
      </trkpt>
      <trkpt lat="36.750777" lon="-3.140284">
        <ele>104.326</ele>
        <time>2021-06-16T10:20:18Z</time>
      </trkpt>
      <trkpt lat="36.750807" lon="-3.140682">
        <ele>104.189</ele>
        <time>2021-06-16T10:20:20Z</time>
      </trkpt>
      <trkpt lat="36.75092" lon="-3.141056">
        <ele>103.646</ele>
        <time>2021-06-16T10:20:22Z</time>
      </trkpt>
      <trkpt lat="36.751005" lon="-3.141221">
        <ele>103.013</ele>
        <time>2021-06-16T10:20:23Z</time>
      </trkpt>
      <trkpt lat="36.751227" lon="-3.141478">
        <ele>101.973</ele>
        <time>2021-06-16T10:20:25Z</time>
      </trkpt>
      <trkpt lat="36.751349" lon="-3.141582">
        <ele>101.125</ele>
        <time>2021-06-16T10:20:26Z</time>
      </trkpt>
      <trkpt lat="36.751599" lon="-3.141791">
        <ele>100.026</ele>
        <time>2021-06-16T10:20:28Z</time>
      </trkpt>
      <trkpt lat="36.751724" lon="-3.141906">
        <ele>98.708</ele>
        <time>2021-06-16T10:20:29Z</time>
      </trkpt>
      <trkpt lat="36.751849" lon="-3.142023">
        <ele>97.408</ele>
        <time>2021-06-16T10:20:30Z</time>
      </trkpt>
      <trkpt lat="36.752095" lon="-3.142256">
        <ele>96.469</ele>
        <time>2021-06-16T10:20:32Z</time>
      </trkpt>
      <trkpt lat="36.752336" lon="-3.142478">
        <ele>95.517</ele>
        <time>2021-06-16T10:20:34Z</time>
      </trkpt>
      <trkpt lat="36.752572" lon="-3.142699">
        <ele>94.651</ele>
        <time>2021-06-16T10:20:36Z</time>
      </trkpt>
      <trkpt lat="36.752684" lon="-3.142798">
        <ele>93.930</ele>
        <time>2021-06-16T10:20:37Z</time>
      </trkpt>
      <trkpt lat="36.752884" lon="-3.142973">
        <ele>93.573</ele>
        <time>2021-06-16T10:20:39Z</time>
      </trkpt>
      <trkpt lat="36.75298" lon="-3.143061">
        <ele>93.740</ele>
        <time>2021-06-16T10:20:40Z</time>
      </trkpt>
      <trkpt lat="36.753066" lon="-3.143139">
        <ele>94.347</ele>
        <time>2021-06-16T10:20:41Z</time>
      </trkpt>
      <trkpt lat="36.753203" lon="-3.143254">
        <ele>94.827</ele>
        <time>2021-06-16T10:20:43Z</time>
      </trkpt>
      <trkpt lat="36.753258" lon="-3.143303">
        <ele>94.791</ele>
        <time>2021-06-16T10:20:44Z</time>
      </trkpt>
      <trkpt lat="36.753367" lon="-3.143396">
        <ele>95.081</ele>
        <time>2021-06-16T10:20:46Z</time>
      </trkpt>
      <trkpt lat="36.753425" lon="-3.143449">
        <ele>95.019</ele>
        <time>2021-06-16T10:20:47Z</time>
      </trkpt>
      <trkpt lat="36.753489" lon="-3.143508">
        <ele>95.208</ele>
        <time>2021-06-16T10:20:48Z</time>
      </trkpt>
      <trkpt lat="36.753557" lon="-3.143569">
        <ele>95.476</ele>
        <time>2021-06-16T10:20:49Z</time>
      </trkpt>
      <trkpt lat="36.753693" lon="-3.143703">
        <ele>96.044</ele>
        <time>2021-06-16T10:20:51Z</time>
      </trkpt>
      <trkpt lat="36.753752" lon="-3.143758">
        <ele>96.578</ele>
        <time>2021-06-16T10:20:52Z</time>
      </trkpt>
      <trkpt lat="36.753828" lon="-3.143836">
        <ele>97.467</ele>
        <time>2021-06-16T10:20:54Z</time>
      </trkpt>
      <trkpt lat="36.75386" lon="-3.143912">
        <ele>97.450</ele>
        <time>2021-06-16T10:20:57Z</time>
      </trkpt>
      <trkpt lat="36.753792" lon="-3.143896">
        <ele>97.087</ele>
        <time>2021-06-16T10:20:59Z</time>
      </trkpt>
      <trkpt lat="36.753708" lon="-3.143784">
        <ele>96.884</ele>
        <time>2021-06-16T10:21:01Z</time>
      </trkpt>
      <trkpt lat="36.753661" lon="-3.143723">
        <ele>96.334</ele>
        <time>2021-06-16T10:21:02Z</time>
      </trkpt>
      <trkpt lat="36.753594" lon="-3.143654">
        <ele>96.076</ele>
        <time>2021-06-16T10:21:03Z</time>
      </trkpt>
      <trkpt lat="36.753425" lon="-3.143497">
        <ele>95.690</ele>
        <time>2021-06-16T10:21:05Z</time>
      </trkpt>
      <trkpt lat="36.75333" lon="-3.143407">
        <ele>95.419</ele>
        <time>2021-06-16T10:21:06Z</time>
      </trkpt>
      <trkpt lat="36.753231" lon="-3.143313">
        <ele>95.308</ele>
        <time>2021-06-16T10:21:07Z</time>
      </trkpt>
      <trkpt lat="36.753024" lon="-3.143118">
        <ele>95.414</ele>
        <time>2021-06-16T10:21:09Z</time>
      </trkpt>
      <trkpt lat="36.752923" lon="-3.14302">
        <ele>94.982</ele>
        <time>2021-06-16T10:21:10Z</time>
      </trkpt>
      <trkpt lat="36.752729" lon="-3.142843">
        <ele>94.356</ele>
        <time>2021-06-16T10:21:12Z</time>
      </trkpt>
      <trkpt lat="36.752639" lon="-3.142763">
        <ele>93.725</ele>
        <time>2021-06-16T10:21:13Z</time>
      </trkpt>
      <trkpt lat="36.752555" lon="-3.142689">
        <ele>93.418</ele>
        <time>2021-06-16T10:21:14Z</time>
      </trkpt>
      <trkpt lat="36.752402" lon="-3.142562">
        <ele>93.455</ele>
        <time>2021-06-16T10:21:16Z</time>
      </trkpt>
      <trkpt lat="36.752329" lon="-3.142517">
        <ele>93.212</ele>
        <time>2021-06-16T10:21:17Z</time>
      </trkpt>
      <trkpt lat="36.752254" lon="-3.142498">
        <ele>93.072</ele>
        <time>2021-06-16T10:21:18Z</time>
      </trkpt>
      <trkpt lat="36.752102" lon="-3.14256">
        <ele>93.074</ele>
        <time>2021-06-16T10:21:20Z</time>
      </trkpt>
      <trkpt lat="36.752035" lon="-3.14264">
        <ele>92.956</ele>
        <time>2021-06-16T10:21:21Z</time>
      </trkpt>
      <trkpt lat="36.751972" lon="-3.142861">
        <ele>92.021</ele>
        <time>2021-06-16T10:21:23Z</time>
      </trkpt>
      <trkpt lat="36.751981" lon="-3.142985">
        <ele>91.008</ele>
        <time>2021-06-16T10:21:24Z</time>
      </trkpt>
      <trkpt lat="36.752048" lon="-3.143231">
        <ele>90.774</ele>
        <time>2021-06-16T10:21:26Z</time>
      </trkpt>
      <trkpt lat="36.752187" lon="-3.143451">
        <ele>89.682</ele>
        <time>2021-06-16T10:21:28Z</time>
      </trkpt>
      <trkpt lat="36.752386" lon="-3.14361">
        <ele>88.396</ele>
        <time>2021-06-16T10:21:30Z</time>
      </trkpt>
      <trkpt lat="36.75259" lon="-3.1437">
        <ele>86.595</ele>
        <time>2021-06-16T10:21:32Z</time>
      </trkpt>
      <trkpt lat="36.75275" lon="-3.143802">
        <ele>85.298</ele>
        <time>2021-06-16T10:21:34Z</time>
      </trkpt>
      <trkpt lat="36.752795" lon="-3.143887">
        <ele>83.915</ele>
        <time>2021-06-16T10:21:35Z</time>
      </trkpt>
      <trkpt lat="36.752813" lon="-3.143992">
        <ele>83.152</ele>
        <time>2021-06-16T10:21:36Z</time>
      </trkpt>
      <trkpt lat="36.752775" lon="-3.144242">
        <ele>82.062</ele>
        <time>2021-06-16T10:21:38Z</time>
      </trkpt>
      <trkpt lat="36.752696" lon="-3.144509">
        <ele>81.228</ele>
        <time>2021-06-16T10:21:40Z</time>
      </trkpt>
      <trkpt lat="36.752669" lon="-3.144652">
        <ele>80.489</ele>
        <time>2021-06-16T10:21:41Z</time>
      </trkpt>
      <trkpt lat="36.752655" lon="-3.144946">
        <ele>79.417</ele>
        <time>2021-06-16T10:21:43Z</time>
      </trkpt>
      <trkpt lat="36.752683" lon="-3.145084">
        <ele>78.508</ele>
        <time>2021-06-16T10:21:44Z</time>
      </trkpt>
      <trkpt lat="36.752795" lon="-3.145342">
        <ele>77.599</ele>
        <time>2021-06-16T10:21:46Z</time>
      </trkpt>
      <trkpt lat="36.752888" lon="-3.145445">
        <ele>76.317</ele>
        <time>2021-06-16T10:21:47Z</time>
      </trkpt>
      <trkpt lat="36.753116" lon="-3.145603">
        <ele>74.921</ele>
        <time>2021-06-16T10:21:49Z</time>
      </trkpt>
      <trkpt lat="36.753241" lon="-3.145661">
        <ele>73.690</ele>
        <time>2021-06-16T10:21:50Z</time>
      </trkpt>
      <trkpt lat="36.753371" lon="-3.145715">
        <ele>72.333</ele>
        <time>2021-06-16T10:21:51Z</time>
      </trkpt>
      <trkpt lat="36.753623" lon="-3.145812">
        <ele>70.720</ele>
        <time>2021-06-16T10:21:53Z</time>
      </trkpt>
      <trkpt lat="36.753861" lon="-3.145914">
        <ele>68.967</ele>
        <time>2021-06-16T10:21:55Z</time>
      </trkpt>
      <trkpt lat="36.754064" lon="-3.146032">
        <ele>67.747</ele>
        <time>2021-06-16T10:21:57Z</time>
      </trkpt>
      <trkpt lat="36.754256" lon="-3.146166">
        <ele>66.718</ele>
        <time>2021-06-16T10:21:59Z</time>
      </trkpt>
      <trkpt lat="36.754456" lon="-3.14628">
        <ele>65.398</ele>
        <time>2021-06-16T10:22:01Z</time>
      </trkpt>
      <trkpt lat="36.754669" lon="-3.146326">
        <ele>64.117</ele>
        <time>2021-06-16T10:22:03Z</time>
      </trkpt>
      <trkpt lat="36.754759" lon="-3.146377">
        <ele>63.508</ele>
        <time>2021-06-16T10:22:04Z</time>
      </trkpt>
      <trkpt lat="36.754834" lon="-3.146458">
        <ele>62.538</ele>
        <time>2021-06-16T10:22:05Z</time>
      </trkpt>
      <trkpt lat="36.754946" lon="-3.14669">
        <ele>61.766</ele>
        <time>2021-06-16T10:22:07Z</time>
      </trkpt>
      <trkpt lat="36.754993" lon="-3.14698">
        <ele>60.950</ele>
        <time>2021-06-16T10:22:09Z</time>
      </trkpt>
      <trkpt lat="36.75498" lon="-3.147132">
        <ele>59.959</ele>
        <time>2021-06-16T10:22:10Z</time>
      </trkpt>
      <trkpt lat="36.754847" lon="-3.147398">
        <ele>59.122</ele>
        <time>2021-06-16T10:22:12Z</time>
      </trkpt>
      <trkpt lat="36.754755" lon="-3.147508">
        <ele>58.439</ele>
        <time>2021-06-16T10:22:13Z</time>
      </trkpt>
      <trkpt lat="36.754645" lon="-3.147595">
        <ele>57.756</ele>
        <time>2021-06-16T10:22:14Z</time>
      </trkpt>
      <trkpt lat="36.754517" lon="-3.147654">
        <ele>56.976</ele>
        <time>2021-06-16T10:22:15Z</time>
      </trkpt>
      <trkpt lat="36.754252" lon="-3.147668">
        <ele>56.124</ele>
        <time>2021-06-16T10:22:17Z</time>
      </trkpt>
      <trkpt lat="36.754128" lon="-3.147624">
        <ele>55.604</ele>
        <time>2021-06-16T10:22:18Z</time>
      </trkpt>
      <trkpt lat="36.75401" lon="-3.147568">
        <ele>55.714</ele>
        <time>2021-06-16T10:22:19Z</time>
      </trkpt>
      <trkpt lat="36.753906" lon="-3.147503">
        <ele>55.508</ele>
        <time>2021-06-16T10:22:20Z</time>
      </trkpt>
      <trkpt lat="36.753724" lon="-3.147313">
        <ele>55.669</ele>
        <time>2021-06-16T10:22:22Z</time>
      </trkpt>
      <trkpt lat="36.753633" lon="-3.147216">
        <ele>55.737</ele>
        <time>2021-06-16T10:22:23Z</time>
      </trkpt>
      <trkpt lat="36.753534" lon="-3.147133">
        <ele>55.611</ele>
        <time>2021-06-16T10:22:24Z</time>
      </trkpt>
      <trkpt lat="36.753291" lon="-3.146985">
        <ele>55.220</ele>
        <time>2021-06-16T10:22:26Z</time>
      </trkpt>
      <trkpt lat="36.753159" lon="-3.146927">
        <ele>54.873</ele>
        <time>2021-06-16T10:22:27Z</time>
      </trkpt>
      <trkpt lat="36.752871" lon="-3.146849">
        <ele>55.010</ele>
        <time>2021-06-16T10:22:29Z</time>
      </trkpt>
      <trkpt lat="36.752728" lon="-3.146813">
        <ele>55.177</ele>
        <time>2021-06-16T10:22:30Z</time>
      </trkpt>
      <trkpt lat="36.752437" lon="-3.146742">
        <ele>55.427</ele>
        <time>2021-06-16T10:22:32Z</time>
      </trkpt>
      <trkpt lat="36.752289" lon="-3.146705">
        <ele>55.223</ele>
        <time>2021-06-16T10:22:33Z</time>
      </trkpt>
      <trkpt lat="36.75199" lon="-3.146658">
        <ele>54.583</ele>
        <time>2021-06-16T10:22:35Z</time>
      </trkpt>
      <trkpt lat="36.751702" lon="-3.14666">
        <ele>51.911</ele>
        <time>2021-06-16T10:22:37Z</time>
      </trkpt>
      <trkpt lat="36.751552" lon="-3.146665">
        <ele>49.308</ele>
        <time>2021-06-16T10:22:38Z</time>
      </trkpt>
      <trkpt lat="36.751255" lon="-3.146686">
        <ele>47.069</ele>
        <time>2021-06-16T10:22:40Z</time>
      </trkpt>
      <trkpt lat="36.750948" lon="-3.146771">
        <ele>44.757</ele>
        <time>2021-06-16T10:22:42Z</time>
      </trkpt>
      <trkpt lat="36.750651" lon="-3.146902">
        <ele>41.961</ele>
        <time>2021-06-16T10:22:44Z</time>
      </trkpt>
      <trkpt lat="36.750372" lon="-3.147069">
        <ele>38.930</ele>
        <time>2021-06-16T10:22:46Z</time>
      </trkpt>
      <trkpt lat="36.750241" lon="-3.14717">
        <ele>36.223</ele>
        <time>2021-06-16T10:22:47Z</time>
      </trkpt>
      <trkpt lat="36.750114" lon="-3.147277">
        <ele>34.260</ele>
        <time>2021-06-16T10:22:48Z</time>
      </trkpt>
      <trkpt lat="36.749869" lon="-3.147512">
        <ele>31.897</ele>
        <time>2021-06-16T10:22:50Z</time>
      </trkpt>
      <trkpt lat="36.749754" lon="-3.147644">
        <ele>29.717</ele>
        <time>2021-06-16T10:22:51Z</time>
      </trkpt>
      <trkpt lat="36.749532" lon="-3.147925">
        <ele>27.951</ele>
        <time>2021-06-16T10:22:53Z</time>
      </trkpt>
      <trkpt lat="36.749322" lon="-3.148218">
        <ele>25.901</ele>
        <time>2021-06-16T10:22:55Z</time>
      </trkpt>
      <trkpt lat="36.749218" lon="-3.148366">
        <ele>24.111</ele>
        <time>2021-06-16T10:22:56Z</time>
      </trkpt>
      <trkpt lat="36.749115" lon="-3.148518">
        <ele>22.708</ele>
        <time>2021-06-16T10:22:57Z</time>
      </trkpt>
      <trkpt lat="36.748918" lon="-3.148826">
        <ele>21.382</ele>
        <time>2021-06-16T10:22:59Z</time>
      </trkpt>
      <trkpt lat="36.74872" lon="-3.14913">
        <ele>19.430</ele>
        <time>2021-06-16T10:23:01Z</time>
      </trkpt>
      <trkpt lat="36.748625" lon="-3.149286">
        <ele>17.414</ele>
        <time>2021-06-16T10:23:02Z</time>
      </trkpt>
      <trkpt lat="36.748467" lon="-3.149609">
        <ele>15.673</ele>
        <time>2021-06-16T10:23:04Z</time>
      </trkpt>
      <trkpt lat="36.748397" lon="-3.149777">
        <ele>14.036</ele>
        <time>2021-06-16T10:23:05Z</time>
      </trkpt>
      <trkpt lat="36.748285" lon="-3.150122">
        <ele>12.583</ele>
        <time>2021-06-16T10:23:07Z</time>
      </trkpt>
      <trkpt lat="36.748223" lon="-3.150479">
        <ele>11.340</ele>
        <time>2021-06-16T10:23:09Z</time>
      </trkpt>
      <trkpt lat="36.748204" lon="-3.150657">
        <ele>10.580</ele>
        <time>2021-06-16T10:23:10Z</time>
      </trkpt>
      <trkpt lat="36.748185" lon="-3.151001">
        <ele>9.551</ele>
        <time>2021-06-16T10:23:12Z</time>
      </trkpt>
      <trkpt lat="36.748182" lon="-3.15117">
        <ele>8.601</ele>
        <time>2021-06-16T10:23:13Z</time>
      </trkpt>
      <trkpt lat="36.748187" lon="-3.151334">
        <ele>7.811</ele>
        <time>2021-06-16T10:23:14Z</time>
      </trkpt>
      <trkpt lat="36.748195" lon="-3.151655">
        <ele>7.108</ele>
        <time>2021-06-16T10:23:16Z</time>
      </trkpt>
      <trkpt lat="36.748199" lon="-3.151951">
        <ele>6.162</ele>
        <time>2021-06-16T10:23:18Z</time>
      </trkpt>
      <trkpt lat="36.748202" lon="-3.152085">
        <ele>5.450</ele>
        <time>2021-06-16T10:23:19Z</time>
      </trkpt>
      <trkpt lat="36.748198" lon="-3.15229">
        <ele>4.894</ele>
        <time>2021-06-16T10:23:21Z</time>
      </trkpt>
      <trkpt lat="36.748198" lon="-3.15236">
        <ele>4.883</ele>
        <time>2021-06-16T10:23:22Z</time>
      </trkpt>
      <trkpt lat="36.748199" lon="-3.152419">
        <ele>4.876</ele>
        <time>2021-06-16T10:23:23Z</time>
      </trkpt>
      <trkpt lat="36.7482" lon="-3.152539">
        <ele>4.863</ele>
        <time>2021-06-16T10:23:25Z</time>
      </trkpt>
      <trkpt lat="36.748202" lon="-3.152618">
        <ele>4.990</ele>
        <time>2021-06-16T10:23:26Z</time>
      </trkpt>
      <trkpt lat="36.748217" lon="-3.15278">
        <ele>4.540</ele>
        <time>2021-06-16T10:23:28Z</time>
      </trkpt>
      <trkpt lat="36.748216" lon="-3.152886">
        <ele>4.339</ele>
        <time>2021-06-16T10:23:29Z</time>
      </trkpt>
      <trkpt lat="36.748212" lon="-3.153109">
        <ele>3.701</ele>
        <time>2021-06-16T10:23:31Z</time>
      </trkpt>
      <trkpt lat="36.748208" lon="-3.153212">
        <ele>3.921</ele>
        <time>2021-06-16T10:23:32Z</time>
      </trkpt>
      <trkpt lat="36.748203" lon="-3.153412">
        <ele>4.508</ele>
        <time>2021-06-16T10:23:34Z</time>
      </trkpt>
      <trkpt lat="36.748199" lon="-3.153572">
        <ele>4.790</ele>
        <time>2021-06-16T10:23:36Z</time>
      </trkpt>
      <trkpt lat="36.748198" lon="-3.153642">
        <ele>4.748</ele>
        <time>2021-06-16T10:23:37Z</time>
      </trkpt>
      <trkpt lat="36.748191" lon="-3.153719">
        <ele>4.842</ele>
        <time>2021-06-16T10:23:38Z</time>
      </trkpt>
      <trkpt lat="36.748185" lon="-3.153811">
        <ele>5.381</ele>
        <time>2021-06-16T10:23:39Z</time>
      </trkpt>
      <trkpt lat="36.748173" lon="-3.154017">
        <ele>5.254</ele>
        <time>2021-06-16T10:23:41Z</time>
      </trkpt>
      <trkpt lat="36.748169" lon="-3.154123">
        <ele>5.491</ele>
        <time>2021-06-16T10:23:42Z</time>
      </trkpt>
      <trkpt lat="36.748167" lon="-3.154349">
        <ele>5.418</ele>
        <time>2021-06-16T10:23:44Z</time>
      </trkpt>
      <trkpt lat="36.748161" lon="-3.154465">
        <ele>5.278</ele>
        <time>2021-06-16T10:23:45Z</time>
      </trkpt>
      <trkpt lat="36.748157" lon="-3.154573">
        <ele>5.957</ele>
        <time>2021-06-16T10:23:46Z</time>
      </trkpt>
      <trkpt lat="36.748157" lon="-3.154677">
        <ele>6.700</ele>
        <time>2021-06-16T10:23:47Z</time>
      </trkpt>
      <trkpt lat="36.748153" lon="-3.154789">
        <ele>7.320</ele>
        <time>2021-06-16T10:23:48Z</time>
      </trkpt>
      <trkpt lat="36.748141" lon="-3.155027">
        <ele>7.508</ele>
        <time>2021-06-16T10:23:50Z</time>
      </trkpt>
      <trkpt lat="36.74814" lon="-3.155138">
        <ele>8.052</ele>
        <time>2021-06-16T10:23:51Z</time>
      </trkpt>
      <trkpt lat="36.748144" lon="-3.155305">
        <ele>7.760</ele>
        <time>2021-06-16T10:23:53Z</time>
      </trkpt>
      <trkpt lat="36.748132" lon="-3.155427">
        <ele>8.044</ele>
        <time>2021-06-16T10:23:55Z</time>
      </trkpt>
      <trkpt lat="36.748116" lon="-3.155583">
        <ele>8.393</ele>
        <time>2021-06-16T10:23:57Z</time>
      </trkpt>
      <trkpt lat="36.748096" lon="-3.155785">
        <ele>8.886</ele>
        <time>2021-06-16T10:23:59Z</time>
      </trkpt>
      <trkpt lat="36.748092" lon="-3.155895">
        <ele>9.743</ele>
        <time>2021-06-16T10:24:00Z</time>
      </trkpt>
      <trkpt lat="36.748061" lon="-3.156134">
        <ele>10.330</ele>
        <time>2021-06-16T10:24:02Z</time>
      </trkpt>
      <trkpt lat="36.748042" lon="-3.156261">
        <ele>10.310</ele>
        <time>2021-06-16T10:24:03Z</time>
      </trkpt>
      <trkpt lat="36.748025" lon="-3.156393">
        <ele>10.811</ele>
        <time>2021-06-16T10:24:04Z</time>
      </trkpt>
      <trkpt lat="36.747999" lon="-3.156527">
        <ele>10.821</ele>
        <time>2021-06-16T10:24:05Z</time>
      </trkpt>
      <trkpt lat="36.747942" lon="-3.156797">
        <ele>10.203</ele>
        <time>2021-06-16T10:24:07Z</time>
      </trkpt>
      <trkpt lat="36.747915" lon="-3.156935">
        <ele>10.108</ele>
        <time>2021-06-16T10:24:08Z</time>
      </trkpt>
      <trkpt lat="36.747891" lon="-3.157076">
        <ele>9.238</ele>
        <time>2021-06-16T10:24:09Z</time>
      </trkpt>
      <trkpt lat="36.747843" lon="-3.157358">
        <ele>8.196</ele>
        <time>2021-06-16T10:24:11Z</time>
      </trkpt>
      <trkpt lat="36.74782" lon="-3.157495">
        <ele>7.260</ele>
        <time>2021-06-16T10:24:12Z</time>
      </trkpt>
      <trkpt lat="36.747776" lon="-3.15776">
        <ele>6.789</ele>
        <time>2021-06-16T10:24:14Z</time>
      </trkpt>
      <trkpt lat="36.747751" lon="-3.157895">
        <ele>6.562</ele>
        <time>2021-06-16T10:24:15Z</time>
      </trkpt>
      <trkpt lat="36.747692" lon="-3.158178">
        <ele>6.839</ele>
        <time>2021-06-16T10:24:17Z</time>
      </trkpt>
      <trkpt lat="36.747661" lon="-3.158324">
        <ele>7.316</ele>
        <time>2021-06-16T10:24:18Z</time>
      </trkpt>
      <trkpt lat="36.747631" lon="-3.15847">
        <ele>7.816</ele>
        <time>2021-06-16T10:24:19Z</time>
      </trkpt>
      <trkpt lat="36.747576" lon="-3.158766">
        <ele>7.667</ele>
        <time>2021-06-16T10:24:21Z</time>
      </trkpt>
      <trkpt lat="36.747525" lon="-3.159058">
        <ele>7.481</ele>
        <time>2021-06-16T10:24:23Z</time>
      </trkpt>
      <trkpt lat="36.74747" lon="-3.159352">
        <ele>7.719</ele>
        <time>2021-06-16T10:24:25Z</time>
      </trkpt>
      <trkpt lat="36.74744" lon="-3.159503">
        <ele>8.008</ele>
        <time>2021-06-16T10:24:26Z</time>
      </trkpt>
      <trkpt lat="36.747386" lon="-3.159811">
        <ele>8.123</ele>
        <time>2021-06-16T10:24:28Z</time>
      </trkpt>
      <trkpt lat="36.74736" lon="-3.159966">
        <ele>8.011</ele>
        <time>2021-06-16T10:24:29Z</time>
      </trkpt>
      <trkpt lat="36.747331" lon="-3.16012">
        <ele>7.795</ele>
        <time>2021-06-16T10:24:30Z</time>
      </trkpt>
      <trkpt lat="36.747269" lon="-3.160432">
        <ele>7.614</ele>
        <time>2021-06-16T10:24:32Z</time>
      </trkpt>
      <trkpt lat="36.747206" lon="-3.160735">
        <ele>7.647</ele>
        <time>2021-06-16T10:24:34Z</time>
      </trkpt>
      <trkpt lat="36.747144" lon="-3.161049">
        <ele>7.584</ele>
        <time>2021-06-16T10:24:36Z</time>
      </trkpt>
      <trkpt lat="36.747084" lon="-3.161355">
        <ele>7.361</ele>
        <time>2021-06-16T10:24:38Z</time>
      </trkpt>
      <trkpt lat="36.747039" lon="-3.161657">
        <ele>7.741</ele>
        <time>2021-06-16T10:24:40Z</time>
      </trkpt>
      <trkpt lat="36.747024" lon="-3.161802">
        <ele>8.489</ele>
        <time>2021-06-16T10:24:41Z</time>
      </trkpt>
      <trkpt lat="36.747017" lon="-3.161944">
        <ele>8.706</ele>
        <time>2021-06-16T10:24:42Z</time>
      </trkpt>
      <trkpt lat="36.747024" lon="-3.162229">
        <ele>9.226</ele>
        <time>2021-06-16T10:24:44Z</time>
      </trkpt>
      <trkpt lat="36.747034" lon="-3.162375">
        <ele>9.508</ele>
        <time>2021-06-16T10:24:45Z</time>
      </trkpt>
      <trkpt lat="36.747052" lon="-3.162526">
        <ele>9.875</ele>
        <time>2021-06-16T10:24:46Z</time>
      </trkpt>
      <trkpt lat="36.747099" lon="-3.162833">
        <ele>10.163</ele>
        <time>2021-06-16T10:24:48Z</time>
      </trkpt>
      <trkpt lat="36.747159" lon="-3.163145">
        <ele>10.587</ele>
        <time>2021-06-16T10:24:50Z</time>
      </trkpt>
      <trkpt lat="36.74719" lon="-3.163304">
        <ele>10.516</ele>
        <time>2021-06-16T10:24:51Z</time>
      </trkpt>
      <trkpt lat="36.747252" lon="-3.163618">
        <ele>10.889</ele>
        <time>2021-06-16T10:24:53Z</time>
      </trkpt>
      <trkpt lat="36.747284" lon="-3.163772">
        <ele>10.826</ele>
        <time>2021-06-16T10:24:54Z</time>
      </trkpt>
      <trkpt lat="36.747316" lon="-3.163928">
        <ele>11.113</ele>
        <time>2021-06-16T10:24:55Z</time>
      </trkpt>
      <trkpt lat="36.747349" lon="-3.164082">
        <ele>11.293</ele>
        <time>2021-06-16T10:24:56Z</time>
      </trkpt>
      <trkpt lat="36.747411" lon="-3.164386">
        <ele>11.677</ele>
        <time>2021-06-16T10:24:58Z</time>
      </trkpt>
      <trkpt lat="36.747466" lon="-3.164682">
        <ele>12.361</ele>
        <time>2021-06-16T10:25:00Z</time>
      </trkpt>
      <trkpt lat="36.747516" lon="-3.164949">
        <ele>12.927</ele>
        <time>2021-06-16T10:25:02Z</time>
      </trkpt>
      <trkpt lat="36.747577" lon="-3.165172">
        <ele>13.608</ele>
        <time>2021-06-16T10:25:04Z</time>
      </trkpt>
      <trkpt lat="36.747651" lon="-3.165366">
        <ele>14.254</ele>
        <time>2021-06-16T10:25:06Z</time>
      </trkpt>
      <trkpt lat="36.747696" lon="-3.165468">
        <ele>14.882</ele>
        <time>2021-06-16T10:25:07Z</time>
      </trkpt>
      <trkpt lat="36.747833" lon="-3.165666">
        <ele>15.466</ele>
        <time>2021-06-16T10:25:09Z</time>
      </trkpt>
      <trkpt lat="36.748023" lon="-3.165812">
        <ele>15.895</ele>
        <time>2021-06-16T10:25:11Z</time>
      </trkpt>
      <trkpt lat="36.74813" lon="-3.165867">
        <ele>16.468</ele>
        <time>2021-06-16T10:25:12Z</time>
      </trkpt>
      <trkpt lat="36.74836" lon="-3.165954">
        <ele>16.735</ele>
        <time>2021-06-16T10:25:14Z</time>
      </trkpt>
      <trkpt lat="36.748606" lon="-3.166033">
        <ele>17.462</ele>
        <time>2021-06-16T10:25:16Z</time>
      </trkpt>
      <trkpt lat="36.74873" lon="-3.166069">
        <ele>18.012</ele>
        <time>2021-06-16T10:25:17Z</time>
      </trkpt>
      <trkpt lat="36.748962" lon="-3.166147">
        <ele>18.795</ele>
        <time>2021-06-16T10:25:19Z</time>
      </trkpt>
      <trkpt lat="36.749158" lon="-3.166241">
        <ele>19.149</ele>
        <time>2021-06-16T10:25:21Z</time>
      </trkpt>
      <trkpt lat="36.749302" lon="-3.166343">
        <ele>19.423</ele>
        <time>2021-06-16T10:25:23Z</time>
      </trkpt>
      <trkpt lat="36.749352" lon="-3.16647">
        <ele>19.208</ele>
        <time>2021-06-16T10:25:25Z</time>
      </trkpt>
      <trkpt lat="36.749287" lon="-3.166622">
        <ele>18.846</ele>
        <time>2021-06-16T10:25:27Z</time>
      </trkpt>
      <trkpt lat="36.74917" lon="-3.166802">
        <ele>18.354</ele>
        <time>2021-06-16T10:25:29Z</time>
      </trkpt>
      <trkpt lat="36.749059" lon="-3.167029">
        <ele>18.558</ele>
        <time>2021-06-16T10:25:31Z</time>
      </trkpt>
      <trkpt lat="36.748996" lon="-3.167281">
        <ele>19.157</ele>
        <time>2021-06-16T10:25:33Z</time>
      </trkpt>
      <trkpt lat="36.748995" lon="-3.167415">
        <ele>19.630</ele>
        <time>2021-06-16T10:25:34Z</time>
      </trkpt>
      <trkpt lat="36.749082" lon="-3.167674">
        <ele>20.557</ele>
        <time>2021-06-16T10:25:36Z</time>
      </trkpt>
      <trkpt lat="36.749232" lon="-3.16789">
        <ele>21.884</ele>
        <time>2021-06-16T10:25:38Z</time>
      </trkpt>
      <trkpt lat="36.749319" lon="-3.167996">
        <ele>22.824</ele>
        <time>2021-06-16T10:25:39Z</time>
      </trkpt>
      <trkpt lat="36.749495" lon="-3.168221">
        <ele>24.214</ele>
        <time>2021-06-16T10:25:41Z</time>
      </trkpt>
      <trkpt lat="36.749586" lon="-3.16834">
        <ele>25.154</ele>
        <time>2021-06-16T10:25:42Z</time>
      </trkpt>
      <trkpt lat="36.749682" lon="-3.168458">
        <ele>26.009</ele>
        <time>2021-06-16T10:25:43Z</time>
      </trkpt>
      <trkpt lat="36.749874" lon="-3.1687">
        <ele>26.508</ele>
        <time>2021-06-16T10:25:45Z</time>
      </trkpt>
      <trkpt lat="36.749973" lon="-3.168826">
        <ele>27.398</ele>
        <time>2021-06-16T10:25:46Z</time>
      </trkpt>
      <trkpt lat="36.750073" lon="-3.168953">
        <ele>27.986</ele>
        <time>2021-06-16T10:25:47Z</time>
      </trkpt>
      <trkpt lat="36.750267" lon="-3.169191">
        <ele>28.690</ele>
        <time>2021-06-16T10:25:49Z</time>
      </trkpt>
      <trkpt lat="36.750365" lon="-3.169316">
        <ele>29.069</ele>
        <time>2021-06-16T10:25:50Z</time>
      </trkpt>
      <trkpt lat="36.750465" lon="-3.169444">
        <ele>29.172</ele>
        <time>2021-06-16T10:25:51Z</time>
      </trkpt>
      <trkpt lat="36.750662" lon="-3.169702">
        <ele>29.249</ele>
        <time>2021-06-16T10:25:53Z</time>
      </trkpt>
      <trkpt lat="36.75086" lon="-3.169958">
        <ele>29.726</ele>
        <time>2021-06-16T10:25:55Z</time>
      </trkpt>
      <trkpt lat="36.751049" lon="-3.170209">
        <ele>30.486</ele>
        <time>2021-06-16T10:25:57Z</time>
      </trkpt>
      <trkpt lat="36.751141" lon="-3.17033">
        <ele>30.571</ele>
        <time>2021-06-16T10:25:58Z</time>
      </trkpt>
      <trkpt lat="36.751232" lon="-3.170447">
        <ele>30.841</ele>
        <time>2021-06-16T10:25:59Z</time>
      </trkpt>
      <trkpt lat="36.751404" lon="-3.17067">
        <ele>30.915</ele>
        <time>2021-06-16T10:26:01Z</time>
      </trkpt>
      <trkpt lat="36.751567" lon="-3.170889">
        <ele>31.708</ele>
        <time>2021-06-16T10:26:03Z</time>
      </trkpt>
      <trkpt lat="36.751722" lon="-3.171082">
        <ele>32.214</ele>
        <time>2021-06-16T10:26:05Z</time>
      </trkpt>
      <trkpt lat="36.751797" lon="-3.171153">
        <ele>32.282</ele>
        <time>2021-06-16T10:26:06Z</time>
      </trkpt>
      <trkpt lat="36.751961" lon="-3.171216">
        <ele>32.616</ele>
        <time>2021-06-16T10:26:08Z</time>
      </trkpt>
      <trkpt lat="36.752122" lon="-3.171178">
        <ele>33.335</ele>
        <time>2021-06-16T10:26:10Z</time>
      </trkpt>
      <trkpt lat="36.752292" lon="-3.171115">
        <ele>33.778</ele>
        <time>2021-06-16T10:26:12Z</time>
      </trkpt>
      <trkpt lat="36.752459" lon="-3.170995">
        <ele>34.215</ele>
        <time>2021-06-16T10:26:14Z</time>
      </trkpt>
      <trkpt lat="36.752545" lon="-3.170913">
        <ele>34.762</ele>
        <time>2021-06-16T10:26:15Z</time>
      </trkpt>
      <trkpt lat="36.752627" lon="-3.170821">
        <ele>35.342</ele>
        <time>2021-06-16T10:26:16Z</time>
      </trkpt>
      <trkpt lat="36.752779" lon="-3.170646">
        <ele>36.697</ele>
        <time>2021-06-16T10:26:18Z</time>
      </trkpt>
      <trkpt lat="36.752914" lon="-3.170497">
        <ele>37.923</ele>
        <time>2021-06-16T10:26:20Z</time>
      </trkpt>
      <trkpt lat="36.752987" lon="-3.170352">
        <ele>39.025</ele>
        <time>2021-06-16T10:26:22Z</time>
      </trkpt>
      <trkpt lat="36.753015" lon="-3.170272">
        <ele>40.108</ele>
        <time>2021-06-16T10:26:23Z</time>
      </trkpt>
      <trkpt lat="36.753069" lon="-3.170221">
        <ele>40.946</ele>
        <time>2021-06-16T10:26:24Z</time>
      </trkpt>
      <trkpt lat="36.75321" lon="-3.170238">
        <ele>42.134</ele>
        <time>2021-06-16T10:26:26Z</time>
      </trkpt>
      <trkpt lat="36.753261" lon="-3.1703">
        <ele>42.318</ele>
        <time>2021-06-16T10:26:27Z</time>
      </trkpt>
      <trkpt lat="36.75329" lon="-3.170481">
        <ele>42.447</ele>
        <time>2021-06-16T10:26:29Z</time>
      </trkpt>
      <trkpt lat="36.75328" lon="-3.170735">
        <ele>42.110</ele>
        <time>2021-06-16T10:26:31Z</time>
      </trkpt>
      <trkpt lat="36.753376" lon="-3.170999">
        <ele>41.767</ele>
        <time>2021-06-16T10:26:33Z</time>
      </trkpt>
      <trkpt lat="36.75345" lon="-3.171126">
        <ele>41.934</ele>
        <time>2021-06-16T10:26:34Z</time>
      </trkpt>
      <trkpt lat="36.753592" lon="-3.171398">
        <ele>42.114</ele>
        <time>2021-06-16T10:26:36Z</time>
      </trkpt>
      <trkpt lat="36.753703" lon="-3.171707">
        <ele>43.194</ele>
        <time>2021-06-16T10:26:38Z</time>
      </trkpt>
      <trkpt lat="36.753744" lon="-3.17187">
        <ele>43.757</ele>
        <time>2021-06-16T10:26:39Z</time>
      </trkpt>
      <trkpt lat="36.753774" lon="-3.172038">
        <ele>44.322</ele>
        <time>2021-06-16T10:26:40Z</time>
      </trkpt>
      <trkpt lat="36.753817" lon="-3.172381">
        <ele>44.708</ele>
        <time>2021-06-16T10:26:42Z</time>
      </trkpt>
      <trkpt lat="36.753834" lon="-3.172555">
        <ele>44.876</ele>
        <time>2021-06-16T10:26:43Z</time>
      </trkpt>
      <trkpt lat="36.753845" lon="-3.17292">
        <ele>45.514</ele>
        <time>2021-06-16T10:26:45Z</time>
      </trkpt>
      <trkpt lat="36.753839" lon="-3.173112">
        <ele>46.158</ele>
        <time>2021-06-16T10:26:46Z</time>
      </trkpt>
      <trkpt lat="36.753807" lon="-3.173496">
        <ele>47.677</ele>
        <time>2021-06-16T10:26:48Z</time>
      </trkpt>
      <trkpt lat="36.753767" lon="-3.173687">
        <ele>48.770</ele>
        <time>2021-06-16T10:26:49Z</time>
      </trkpt>
      <trkpt lat="36.753701" lon="-3.173877">
        <ele>49.957</ele>
        <time>2021-06-16T10:26:50Z</time>
      </trkpt>
      <trkpt lat="36.753642" lon="-3.174059">
        <ele>50.714</ele>
        <time>2021-06-16T10:26:51Z</time>
      </trkpt>
      <trkpt lat="36.753504" lon="-3.174406">
        <ele>52.144</ele>
        <time>2021-06-16T10:26:53Z</time>
      </trkpt>
      <trkpt lat="36.75333" lon="-3.174729">
        <ele>53.285</ele>
        <time>2021-06-16T10:26:55Z</time>
      </trkpt>
      <trkpt lat="36.753234" lon="-3.174881">
        <ele>54.089</ele>
        <time>2021-06-16T10:26:56Z</time>
      </trkpt>
      <trkpt lat="36.753134" lon="-3.175028">
        <ele>55.017</ele>
        <time>2021-06-16T10:26:57Z</time>
      </trkpt>
      <trkpt lat="36.75292" lon="-3.1753">
        <ele>56.108</ele>
        <time>2021-06-16T10:26:59Z</time>
      </trkpt>
      <trkpt lat="36.75268" lon="-3.175548">
        <ele>56.975</ele>
        <time>2021-06-16T10:27:01Z</time>
      </trkpt>
      <trkpt lat="36.752555" lon="-3.175665">
        <ele>57.543</ele>
        <time>2021-06-16T10:27:02Z</time>
      </trkpt>
      <trkpt lat="36.752308" lon="-3.175895">
        <ele>58.547</ele>
        <time>2021-06-16T10:27:04Z</time>
      </trkpt>
      <trkpt lat="36.752183" lon="-3.176008">
        <ele>59.286</ele>
        <time>2021-06-16T10:27:05Z</time>
      </trkpt>
      <trkpt lat="36.751939" lon="-3.17625">
        <ele>60.259</ele>
        <time>2021-06-16T10:27:07Z</time>
      </trkpt>
      <trkpt lat="36.751705" lon="-3.176511">
        <ele>61.356</ele>
        <time>2021-06-16T10:27:09Z</time>
      </trkpt>
      <trkpt lat="36.751594" lon="-3.176658">
        <ele>62.433</ele>
        <time>2021-06-16T10:27:10Z</time>
      </trkpt>
      <trkpt lat="36.751381" lon="-3.176968">
        <ele>63.393</ele>
        <time>2021-06-16T10:27:12Z</time>
      </trkpt>
      <trkpt lat="36.751179" lon="-3.177295">
        <ele>64.163</ele>
        <time>2021-06-16T10:27:14Z</time>
      </trkpt>
      <trkpt lat="36.750996" lon="-3.177657">
        <ele>65.344</ele>
        <time>2021-06-16T10:27:16Z</time>
      </trkpt>
      <trkpt lat="36.750831" lon="-3.178044">
        <ele>67.118</ele>
        <time>2021-06-16T10:27:18Z</time>
      </trkpt>
      <trkpt lat="36.750692" lon="-3.17845">
        <ele>69.008</ele>
        <time>2021-06-16T10:27:20Z</time>
      </trkpt>
      <trkpt lat="36.750626" lon="-3.178657">
        <ele>70.413</ele>
        <time>2021-06-16T10:27:21Z</time>
      </trkpt>
      <trkpt lat="36.75057" lon="-3.178868">
        <ele>72.051</ele>
        <time>2021-06-16T10:27:22Z</time>
      </trkpt>
      <trkpt lat="36.750483" lon="-3.179301">
        <ele>73.765</ele>
        <time>2021-06-16T10:27:24Z</time>
      </trkpt>
      <trkpt lat="36.750452" lon="-3.179523">
        <ele>74.894</ele>
        <time>2021-06-16T10:27:25Z</time>
      </trkpt>
      <trkpt lat="36.750427" lon="-3.179748">
        <ele>75.857</ele>
        <time>2021-06-16T10:27:26Z</time>
      </trkpt>
      <trkpt lat="36.750388" lon="-3.1802">
        <ele>76.534</ele>
        <time>2021-06-16T10:27:28Z</time>
      </trkpt>
      <trkpt lat="36.750376" lon="-3.180661">
        <ele>77.291</ele>
        <time>2021-06-16T10:27:30Z</time>
      </trkpt>
      <trkpt lat="36.750378" lon="-3.180891">
        <ele>77.951</ele>
        <time>2021-06-16T10:27:31Z</time>
      </trkpt>
      <trkpt lat="36.750384" lon="-3.181119">
        <ele>79.087</ele>
        <time>2021-06-16T10:27:32Z</time>
      </trkpt>
      <trkpt lat="36.750396" lon="-3.181569">
        <ele>79.442</ele>
        <time>2021-06-16T10:27:34Z</time>
      </trkpt>
      <trkpt lat="36.750415" lon="-3.182008">
        <ele>80.226</ele>
        <time>2021-06-16T10:27:36Z</time>
      </trkpt>
      <trkpt lat="36.750439" lon="-3.18244">
        <ele>80.808</ele>
        <time>2021-06-16T10:27:38Z</time>
      </trkpt>
      <trkpt lat="36.750453" lon="-3.182658">
        <ele>81.585</ele>
        <time>2021-06-16T10:27:39Z</time>
      </trkpt>
      <trkpt lat="36.750477" lon="-3.183085">
        <ele>81.843</ele>
        <time>2021-06-16T10:27:41Z</time>
      </trkpt>
      <trkpt lat="36.75054" lon="-3.183503">
        <ele>82.777</ele>
        <time>2021-06-16T10:27:43Z</time>
      </trkpt>
      <trkpt lat="36.750647" lon="-3.183926">
        <ele>83.546</ele>
        <time>2021-06-16T10:27:45Z</time>
      </trkpt>
      <trkpt lat="36.75072" lon="-3.184134">
        <ele>84.379</ele>
        <time>2021-06-16T10:27:46Z</time>
      </trkpt>
      <trkpt lat="36.750911" lon="-3.184524">
        <ele>85.066</ele>
        <time>2021-06-16T10:27:48Z</time>
      </trkpt>
      <trkpt lat="36.751021" lon="-3.184706">
        <ele>85.243</ele>
        <time>2021-06-16T10:27:49Z</time>
      </trkpt>
      <trkpt lat="36.75126" lon="-3.185047">
        <ele>85.563</ele>
        <time>2021-06-16T10:27:51Z</time>
      </trkpt>
      <trkpt lat="36.751492" lon="-3.185376">
        <ele>85.663</ele>
        <time>2021-06-16T10:27:53Z</time>
      </trkpt>
      <trkpt lat="36.751711" lon="-3.185728">
        <ele>85.844</ele>
        <time>2021-06-16T10:27:55Z</time>
      </trkpt>
      <trkpt lat="36.751849" lon="-3.186143">
        <ele>86.418</ele>
        <time>2021-06-16T10:27:57Z</time>
      </trkpt>
      <trkpt lat="36.751921" lon="-3.186595">
        <ele>86.408</ele>
        <time>2021-06-16T10:27:59Z</time>
      </trkpt>
      <trkpt lat="36.751935" lon="-3.186829">
        <ele>86.783</ele>
        <time>2021-06-16T10:28:00Z</time>
      </trkpt>
      <trkpt lat="36.751905" lon="-3.187281">
        <ele>86.451</ele>
        <time>2021-06-16T10:28:02Z</time>
      </trkpt>
      <trkpt lat="36.751861" lon="-3.187498">
        <ele>86.245</ele>
        <time>2021-06-16T10:28:03Z</time>
      </trkpt>
      <trkpt lat="36.751709" lon="-3.187925">
        <ele>85.784</ele>
        <time>2021-06-16T10:28:05Z</time>
      </trkpt>
      <trkpt lat="36.751506" lon="-3.188329">
        <ele>85.057</ele>
        <time>2021-06-16T10:28:07Z</time>
      </trkpt>
      <trkpt lat="36.751404" lon="-3.188528">
        <ele>84.084</ele>
        <time>2021-06-16T10:28:08Z</time>
      </trkpt>
      <trkpt lat="36.7512" lon="-3.188924">
        <ele>82.671</ele>
        <time>2021-06-16T10:28:10Z</time>
      </trkpt>
      <trkpt lat="36.75101" lon="-3.18931">
        <ele>80.981</ele>
        <time>2021-06-16T10:28:12Z</time>
      </trkpt>
      <trkpt lat="36.750818" lon="-3.189697">
        <ele>78.723</ele>
        <time>2021-06-16T10:28:14Z</time>
      </trkpt>
      <trkpt lat="36.750722" lon="-3.18989">
        <ele>77.883</ele>
        <time>2021-06-16T10:28:15Z</time>
      </trkpt>
      <trkpt lat="36.750628" lon="-3.190084">
        <ele>76.611</ele>
        <time>2021-06-16T10:28:16Z</time>
      </trkpt>
      <trkpt lat="36.750442" lon="-3.190481">
        <ele>75.208</ele>
        <time>2021-06-16T10:28:18Z</time>
      </trkpt>
      <trkpt lat="36.750268" lon="-3.190896">
        <ele>73.669</ele>
        <time>2021-06-16T10:28:20Z</time>
      </trkpt>
      <trkpt lat="36.750122" lon="-3.191313">
        <ele>72.177</ele>
        <time>2021-06-16T10:28:22Z</time>
      </trkpt>
      <trkpt lat="36.750064" lon="-3.191528">
        <ele>70.141</ele>
        <time>2021-06-16T10:28:23Z</time>
      </trkpt>
      <trkpt lat="36.750019" lon="-3.191751">
        <ele>68.760</ele>
        <time>2021-06-16T10:28:24Z</time>
      </trkpt>
      <trkpt lat="36.74995" lon="-3.192208">
        <ele>66.963</ele>
        <time>2021-06-16T10:28:26Z</time>
      </trkpt>
      <trkpt lat="36.74991" lon="-3.192671">
        <ele>64.880</ele>
        <time>2021-06-16T10:28:28Z</time>
      </trkpt>
      <trkpt lat="36.749919" lon="-3.193143">
        <ele>62.817</ele>
        <time>2021-06-16T10:28:30Z</time>
      </trkpt>
      <trkpt lat="36.74994" lon="-3.193379">
        <ele>60.917</ele>
        <time>2021-06-16T10:28:31Z</time>
      </trkpt>
      <trkpt lat="36.749971" lon="-3.193612">
        <ele>59.347</ele>
        <time>2021-06-16T10:28:32Z</time>
      </trkpt>
      <trkpt lat="36.750005" lon="-3.193844">
        <ele>58.129</ele>
        <time>2021-06-16T10:28:33Z</time>
      </trkpt>
      <trkpt lat="36.750084" lon="-3.194315">
        <ele>57.421</ele>
        <time>2021-06-16T10:28:35Z</time>
      </trkpt>
      <trkpt lat="36.75021" lon="-3.194761">
        <ele>55.608</ele>
        <time>2021-06-16T10:28:37Z</time>
      </trkpt>
      <trkpt lat="36.750351" lon="-3.195208">
        <ele>54.061</ele>
        <time>2021-06-16T10:28:39Z</time>
      </trkpt>
      <trkpt lat="36.750432" lon="-3.195428">
        <ele>52.389</ele>
        <time>2021-06-16T10:28:40Z</time>
      </trkpt>
      <trkpt lat="36.750522" lon="-3.19565">
        <ele>50.913</ele>
        <time>2021-06-16T10:28:41Z</time>
      </trkpt>
      <trkpt lat="36.750707" lon="-3.196094">
        <ele>49.362</ele>
        <time>2021-06-16T10:28:43Z</time>
      </trkpt>
      <trkpt lat="36.750892" lon="-3.196545">
        <ele>47.835</ele>
        <time>2021-06-16T10:28:45Z</time>
      </trkpt>
      <trkpt lat="36.75097" lon="-3.196775">
        <ele>46.692</ele>
        <time>2021-06-16T10:28:46Z</time>
      </trkpt>
      <trkpt lat="36.751089" lon="-3.197248">
        <ele>45.819</ele>
        <time>2021-06-16T10:28:48Z</time>
      </trkpt>
      <trkpt lat="36.751132" lon="-3.197488">
        <ele>45.529</ele>
        <time>2021-06-16T10:28:49Z</time>
      </trkpt>
      <trkpt lat="36.751194" lon="-3.197967">
        <ele>45.519</ele>
        <time>2021-06-16T10:28:51Z</time>
      </trkpt>
      <trkpt lat="36.751219" lon="-3.198434">
        <ele>45.509</ele>
        <time>2021-06-16T10:28:53Z</time>
      </trkpt>
      <trkpt lat="36.751242" lon="-3.198892">
        <ele>45.719</ele>
        <time>2021-06-16T10:28:55Z</time>
      </trkpt>
      <trkpt lat="36.751263" lon="-3.199119">
        <ele>46.108</ele>
        <time>2021-06-16T10:28:56Z</time>
      </trkpt>
      <trkpt lat="36.751289" lon="-3.199345">
        <ele>46.828</ele>
        <time>2021-06-16T10:28:57Z</time>
      </trkpt>
      <trkpt lat="36.751313" lon="-3.199568">
        <ele>47.436</ele>
        <time>2021-06-16T10:28:58Z</time>
      </trkpt>
      <trkpt lat="36.75134" lon="-3.199786">
        <ele>48.230</ele>
        <time>2021-06-16T10:28:59Z</time>
      </trkpt>
      <trkpt lat="36.751403" lon="-3.200215">
        <ele>48.939</ele>
        <time>2021-06-16T10:29:01Z</time>
      </trkpt>
      <trkpt lat="36.751429" lon="-3.200426">
        <ele>49.452</ele>
        <time>2021-06-16T10:29:02Z</time>
      </trkpt>
      <trkpt lat="36.751428" lon="-3.200862">
        <ele>50.069</ele>
        <time>2021-06-16T10:29:04Z</time>
      </trkpt>
      <trkpt lat="36.751414" lon="-3.201086">
        <ele>51.056</ele>
        <time>2021-06-16T10:29:05Z</time>
      </trkpt>
      <trkpt lat="36.751394" lon="-3.201314">
        <ele>52.866</ele>
        <time>2021-06-16T10:29:06Z</time>
      </trkpt>
      <trkpt lat="36.751349" lon="-3.20177">
        <ele>54.088</ele>
        <time>2021-06-16T10:29:08Z</time>
      </trkpt>
      <trkpt lat="36.75133" lon="-3.201999">
        <ele>54.524</ele>
        <time>2021-06-16T10:29:09Z</time>
      </trkpt>
      <trkpt lat="36.751312" lon="-3.202225">
        <ele>55.026</ele>
        <time>2021-06-16T10:29:10Z</time>
      </trkpt>
      <trkpt lat="36.751276" lon="-3.202678">
        <ele>55.708</ele>
        <time>2021-06-16T10:29:12Z</time>
      </trkpt>
      <trkpt lat="36.751258" lon="-3.202899">
        <ele>56.855</ele>
        <time>2021-06-16T10:29:13Z</time>
      </trkpt>
      <trkpt lat="36.751193" lon="-3.203326">
        <ele>57.433</ele>
        <time>2021-06-16T10:29:15Z</time>
      </trkpt>
      <trkpt lat="36.751024" lon="-3.203717">
        <ele>58.567</ele>
        <time>2021-06-16T10:29:17Z</time>
      </trkpt>
      <trkpt lat="36.750756" lon="-3.204034">
        <ele>59.036</ele>
        <time>2021-06-16T10:29:19Z</time>
      </trkpt>
      <trkpt lat="36.750607" lon="-3.204173">
        <ele>59.199</ele>
        <time>2021-06-16T10:29:20Z</time>
      </trkpt>
      <trkpt lat="36.750325" lon="-3.204467">
        <ele>59.196</ele>
        <time>2021-06-16T10:29:22Z</time>
      </trkpt>
      <trkpt lat="36.750095" lon="-3.204813">
        <ele>59.013</ele>
        <time>2021-06-16T10:29:24Z</time>
      </trkpt>
      <trkpt lat="36.749973" lon="-3.20498">
        <ele>58.563</ele>
        <time>2021-06-16T10:29:25Z</time>
      </trkpt>
      <trkpt lat="36.749681" lon="-3.205272">
        <ele>57.269</ele>
        <time>2021-06-16T10:29:27Z</time>
      </trkpt>
      <trkpt lat="36.749364" lon="-3.205522">
        <ele>55.704</ele>
        <time>2021-06-16T10:29:29Z</time>
      </trkpt>
      <trkpt lat="36.749052" lon="-3.205779">
        <ele>54.124</ele>
        <time>2021-06-16T10:29:31Z</time>
      </trkpt>
      <trkpt lat="36.748776" lon="-3.206096">
        <ele>51.908</ele>
        <time>2021-06-16T10:29:33Z</time>
      </trkpt>
      <trkpt lat="36.748649" lon="-3.206275">
        <ele>50.223</ele>
        <time>2021-06-16T10:29:34Z</time>
      </trkpt>
      <trkpt lat="36.748394" lon="-3.206623">
        <ele>48.751</ele>
        <time>2021-06-16T10:29:36Z</time>
      </trkpt>
      <trkpt lat="36.748089" lon="-3.20689">
        <ele>47.335</ele>
        <time>2021-06-16T10:29:38Z</time>
      </trkpt>
      <trkpt lat="36.747921" lon="-3.206994">
        <ele>46.064</ele>
        <time>2021-06-16T10:29:39Z</time>
      </trkpt>
      <trkpt lat="36.747602" lon="-3.207233">
        <ele>44.487</ele>
        <time>2021-06-16T10:29:41Z</time>
      </trkpt>
      <trkpt lat="36.747324" lon="-3.207561">
        <ele>43.274</ele>
        <time>2021-06-16T10:29:43Z</time>
      </trkpt>
      <trkpt lat="36.747193" lon="-3.207732">
        <ele>42.591</ele>
        <time>2021-06-16T10:29:44Z</time>
      </trkpt>
      <trkpt lat="36.746937" lon="-3.208065">
        <ele>42.081</ele>
        <time>2021-06-16T10:29:46Z</time>
      </trkpt>
      <trkpt lat="36.746812" lon="-3.208235">
        <ele>41.253</ele>
        <time>2021-06-16T10:29:47Z</time>
      </trkpt>
      <trkpt lat="36.746697" lon="-3.208418">
        <ele>41.204</ele>
        <time>2021-06-16T10:29:48Z</time>
      </trkpt>
      <trkpt lat="36.746499" lon="-3.208816">
        <ele>40.814</ele>
        <time>2021-06-16T10:29:50Z</time>
      </trkpt>
      <trkpt lat="36.74641" lon="-3.209024">
        <ele>40.508</ele>
        <time>2021-06-16T10:29:51Z</time>
      </trkpt>
      <trkpt lat="36.746322" lon="-3.209231">
        <ele>40.332</ele>
        <time>2021-06-16T10:29:52Z</time>
      </trkpt>
      <trkpt lat="36.746232" lon="-3.20943">
        <ele>40.120</ele>
        <time>2021-06-16T10:29:53Z</time>
      </trkpt>
      <trkpt lat="36.746057" lon="-3.209811">
        <ele>39.464</ele>
        <time>2021-06-16T10:29:55Z</time>
      </trkpt>
      <trkpt lat="36.745983" lon="-3.210004">
        <ele>39.433</ele>
        <time>2021-06-16T10:29:56Z</time>
      </trkpt>
      <trkpt lat="36.745877" lon="-3.210397">
        <ele>39.846</ele>
        <time>2021-06-16T10:29:58Z</time>
      </trkpt>
      <trkpt lat="36.745841" lon="-3.210814">
        <ele>40.793</ele>
        <time>2021-06-16T10:30:00Z</time>
      </trkpt>
      <trkpt lat="36.745835" lon="-3.21103">
        <ele>41.580</ele>
        <time>2021-06-16T10:30:01Z</time>
      </trkpt>
      <trkpt lat="36.745826" lon="-3.211458">
        <ele>42.480</ele>
        <time>2021-06-16T10:30:03Z</time>
      </trkpt>
      <trkpt lat="36.745882" lon="-3.21188">
        <ele>42.835</ele>
        <time>2021-06-16T10:30:05Z</time>
      </trkpt>
      <trkpt lat="36.745944" lon="-3.212079">
        <ele>43.386</ele>
        <time>2021-06-16T10:30:06Z</time>
      </trkpt>
      <trkpt lat="36.746042" lon="-3.212256">
        <ele>43.514</ele>
        <time>2021-06-16T10:30:07Z</time>
      </trkpt>
      <trkpt lat="36.746307" lon="-3.212556">
        <ele>43.508</ele>
        <time>2021-06-16T10:30:09Z</time>
      </trkpt>
      <trkpt lat="36.746452" lon="-3.212695">
        <ele>43.480</ele>
        <time>2021-06-16T10:30:10Z</time>
      </trkpt>
      <trkpt lat="36.746735" lon="-3.212996">
        <ele>43.778</ele>
        <time>2021-06-16T10:30:12Z</time>
      </trkpt>
      <trkpt lat="36.746861" lon="-3.213171">
        <ele>43.722</ele>
        <time>2021-06-16T10:30:13Z</time>
      </trkpt>
      <trkpt lat="36.746973" lon="-3.213364">
        <ele>43.961</ele>
        <time>2021-06-16T10:30:14Z</time>
      </trkpt>
      <trkpt lat="36.747153" lon="-3.213794">
        <ele>43.914</ele>
        <time>2021-06-16T10:30:16Z</time>
      </trkpt>
      <trkpt lat="36.747214" lon="-3.214026">
        <ele>44.511</ele>
        <time>2021-06-16T10:30:17Z</time>
      </trkpt>
      <trkpt lat="36.747275" lon="-3.214505">
        <ele>44.858</ele>
        <time>2021-06-16T10:30:19Z</time>
      </trkpt>
      <trkpt lat="36.747283" lon="-3.214748">
        <ele>45.428</ele>
        <time>2021-06-16T10:30:20Z</time>
      </trkpt>
      <trkpt lat="36.747287" lon="-3.214985">
        <ele>45.463</ele>
        <time>2021-06-16T10:30:21Z</time>
      </trkpt>
      <trkpt lat="36.747309" lon="-3.215441">
        <ele>45.244</ele>
        <time>2021-06-16T10:30:23Z</time>
      </trkpt>
      <trkpt lat="36.747343" lon="-3.215896">
        <ele>45.418</ele>
        <time>2021-06-16T10:30:25Z</time>
      </trkpt>
      <trkpt lat="36.747372" lon="-3.216114">
        <ele>45.208</ele>
        <time>2021-06-16T10:30:26Z</time>
      </trkpt>
      <trkpt lat="36.747477" lon="-3.216539">
        <ele>45.693</ele>
        <time>2021-06-16T10:30:28Z</time>
      </trkpt>
      <trkpt lat="36.747566" lon="-3.21674">
        <ele>45.541</ele>
        <time>2021-06-16T10:30:29Z</time>
      </trkpt>
      <trkpt lat="36.747801" lon="-3.217098">
        <ele>45.355</ele>
        <time>2021-06-16T10:30:31Z</time>
      </trkpt>
      <trkpt lat="36.747929" lon="-3.217273">
        <ele>45.434</ele>
        <time>2021-06-16T10:30:32Z</time>
      </trkpt>
      <trkpt lat="36.748053" lon="-3.217451">
        <ele>45.477</ele>
        <time>2021-06-16T10:30:33Z</time>
      </trkpt>
      <trkpt lat="36.74823" lon="-3.21787">
        <ele>45.494</ele>
        <time>2021-06-16T10:30:35Z</time>
      </trkpt>
      <trkpt lat="36.748333" lon="-3.218344">
        <ele>45.391</ele>
        <time>2021-06-16T10:30:37Z</time>
      </trkpt>
      <trkpt lat="36.748382" lon="-3.218574">
        <ele>45.231</ele>
        <time>2021-06-16T10:30:38Z</time>
      </trkpt>
      <trkpt lat="36.748527" lon="-3.218998">
        <ele>44.458</ele>
        <time>2021-06-16T10:30:40Z</time>
      </trkpt>
      <trkpt lat="36.74863" lon="-3.219194">
        <ele>43.552</ele>
        <time>2021-06-16T10:30:41Z</time>
      </trkpt>
      <trkpt lat="36.748862" lon="-3.219567">
        <ele>42.317</ele>
        <time>2021-06-16T10:30:43Z</time>
      </trkpt>
      <trkpt lat="36.748978" lon="-3.21975">
        <ele>41.408</ele>
        <time>2021-06-16T10:30:44Z</time>
      </trkpt>
      <trkpt lat="36.749096" lon="-3.219934">
        <ele>40.932</ele>
        <time>2021-06-16T10:30:45Z</time>
      </trkpt>
      <trkpt lat="36.749327" lon="-3.220294">
        <ele>40.380</ele>
        <time>2021-06-16T10:30:47Z</time>
      </trkpt>
      <trkpt lat="36.749434" lon="-3.220469">
        <ele>39.764</ele>
        <time>2021-06-16T10:30:48Z</time>
      </trkpt>
      <trkpt lat="36.749535" lon="-3.220643">
        <ele>39.433</ele>
        <time>2021-06-16T10:30:49Z</time>
      </trkpt>
      <trkpt lat="36.749731" lon="-3.220978">
        <ele>38.416</ele>
        <time>2021-06-16T10:30:51Z</time>
      </trkpt>
      <trkpt lat="36.749827" lon="-3.221138">
        <ele>37.853</ele>
        <time>2021-06-16T10:30:52Z</time>
      </trkpt>
      <trkpt lat="36.75001" lon="-3.221438">
        <ele>37.330</ele>
        <time>2021-06-16T10:30:54Z</time>
      </trkpt>
      <trkpt lat="36.750178" lon="-3.221745">
        <ele>37.360</ele>
        <time>2021-06-16T10:30:56Z</time>
      </trkpt>
      <trkpt lat="36.750249" lon="-3.221913">
        <ele>37.058</ele>
        <time>2021-06-16T10:30:57Z</time>
      </trkpt>
      <trkpt lat="36.750331" lon="-3.22229">
        <ele>37.052</ele>
        <time>2021-06-16T10:30:59Z</time>
      </trkpt>
      <trkpt lat="36.750354" lon="-3.222678">
        <ele>37.117</ele>
        <time>2021-06-16T10:31:01Z</time>
      </trkpt>
      <trkpt lat="36.750356" lon="-3.222872">
        <ele>36.908</ele>
        <time>2021-06-16T10:31:02Z</time>
      </trkpt>
      <trkpt lat="36.750356" lon="-3.223071">
        <ele>36.942</ele>
        <time>2021-06-16T10:31:03Z</time>
      </trkpt>
      <trkpt lat="36.750401" lon="-3.223477">
        <ele>37.090</ele>
        <time>2021-06-16T10:31:05Z</time>
      </trkpt>
      <trkpt lat="36.750446" lon="-3.223686">
        <ele>36.614</ele>
        <time>2021-06-16T10:31:06Z</time>
      </trkpt>
      <trkpt lat="36.750497" lon="-3.223897">
        <ele>36.523</ele>
        <time>2021-06-16T10:31:07Z</time>
      </trkpt>
      <trkpt lat="36.750614" lon="-3.224326">
        <ele>36.966</ele>
        <time>2021-06-16T10:31:09Z</time>
      </trkpt>
      <trkpt lat="36.750736" lon="-3.224752">
        <ele>37.253</ele>
        <time>2021-06-16T10:31:11Z</time>
      </trkpt>
      <trkpt lat="36.750859" lon="-3.225185">
        <ele>37.250</ele>
        <time>2021-06-16T10:31:13Z</time>
      </trkpt>
      <trkpt lat="36.750987" lon="-3.225612">
        <ele>37.560</ele>
        <time>2021-06-16T10:31:15Z</time>
      </trkpt>
      <trkpt lat="36.75105" lon="-3.225821">
        <ele>37.495</ele>
        <time>2021-06-16T10:31:16Z</time>
      </trkpt>
      <trkpt lat="36.751175" lon="-3.226257">
        <ele>38.149</ele>
        <time>2021-06-16T10:31:18Z</time>
      </trkpt>
      <trkpt lat="36.751308" lon="-3.226693">
        <ele>38.423</ele>
        <time>2021-06-16T10:31:20Z</time>
      </trkpt>
      <trkpt lat="36.751379" lon="-3.226917">
        <ele>38.608</ele>
        <time>2021-06-16T10:31:21Z</time>
      </trkpt>
      <trkpt lat="36.75154" lon="-3.227348">
        <ele>38.366</ele>
        <time>2021-06-16T10:31:23Z</time>
      </trkpt>
      <trkpt lat="36.75172" lon="-3.227752">
        <ele>38.214</ele>
        <time>2021-06-16T10:31:25Z</time>
      </trkpt>
      <trkpt lat="36.751895" lon="-3.228136">
        <ele>38.178</ele>
        <time>2021-06-16T10:31:27Z</time>
      </trkpt>
      <trkpt lat="36.751973" lon="-3.228334">
        <ele>37.947</ele>
        <time>2021-06-16T10:31:28Z</time>
      </trkpt>
      <trkpt lat="36.752034" lon="-3.228542">
        <ele>37.520</ele>
        <time>2021-06-16T10:31:29Z</time>
      </trkpt>
      <trkpt lat="36.752103" lon="-3.228986">
        <ele>37.227</ele>
        <time>2021-06-16T10:31:31Z</time>
      </trkpt>
      <trkpt lat="36.752121" lon="-3.229216">
        <ele>36.654</ele>
        <time>2021-06-16T10:31:32Z</time>
      </trkpt>
      <trkpt lat="36.752152" lon="-3.229684">
        <ele>36.174</ele>
        <time>2021-06-16T10:31:34Z</time>
      </trkpt>
      <trkpt lat="36.75216" lon="-3.230152">
        <ele>35.597</ele>
        <time>2021-06-16T10:31:36Z</time>
      </trkpt>
      <trkpt lat="36.752151" lon="-3.230381">
        <ele>35.123</ele>
        <time>2021-06-16T10:31:37Z</time>
      </trkpt>
      <trkpt lat="36.752092" lon="-3.230843">
        <ele>35.125</ele>
        <time>2021-06-16T10:31:39Z</time>
      </trkpt>
      <trkpt lat="36.752051" lon="-3.231072">
        <ele>35.308</ele>
        <time>2021-06-16T10:31:40Z</time>
      </trkpt>
      <trkpt lat="36.751907" lon="-3.231507">
        <ele>34.216</ele>
        <time>2021-06-16T10:31:42Z</time>
      </trkpt>
      <trkpt lat="36.751714" lon="-3.2319">
        <ele>33.844</ele>
        <time>2021-06-16T10:31:44Z</time>
      </trkpt>
      <trkpt lat="36.751611" lon="-3.232089">
        <ele>33.018</ele>
        <time>2021-06-16T10:31:45Z</time>
      </trkpt>
      <trkpt lat="36.751407" lon="-3.232449">
        <ele>31.947</ele>
        <time>2021-06-16T10:31:47Z</time>
      </trkpt>
      <trkpt lat="36.75131" lon="-3.232626">
        <ele>31.370</ele>
        <time>2021-06-16T10:31:48Z</time>
      </trkpt>
      <trkpt lat="36.751156" lon="-3.232989">
        <ele>30.017</ele>
        <time>2021-06-16T10:31:50Z</time>
      </trkpt>
      <trkpt lat="36.751098" lon="-3.233177">
        <ele>28.974</ele>
        <time>2021-06-16T10:31:51Z</time>
      </trkpt>
      <trkpt lat="36.751051" lon="-3.233573">
        <ele>27.844</ele>
        <time>2021-06-16T10:31:53Z</time>
      </trkpt>
      <trkpt lat="36.75106" lon="-3.233773">
        <ele>26.794</ele>
        <time>2021-06-16T10:31:54Z</time>
      </trkpt>
      <trkpt lat="36.75109" lon="-3.233973">
        <ele>25.757</ele>
        <time>2021-06-16T10:31:55Z</time>
      </trkpt>
      <trkpt lat="36.751188" lon="-3.234363">
        <ele>24.622</ele>
        <time>2021-06-16T10:31:57Z</time>
      </trkpt>
      <trkpt lat="36.751264" lon="-3.234552">
        <ele>23.908</ele>
        <time>2021-06-16T10:31:58Z</time>
      </trkpt>
      <trkpt lat="36.751457" lon="-3.234908">
        <ele>23.296</ele>
        <time>2021-06-16T10:32:00Z</time>
      </trkpt>
      <trkpt lat="36.751652" lon="-3.235256">
        <ele>22.734</ele>
        <time>2021-06-16T10:32:02Z</time>
      </trkpt>
      <trkpt lat="36.751752" lon="-3.235429">
        <ele>22.518</ele>
        <time>2021-06-16T10:32:03Z</time>
      </trkpt>
      <trkpt lat="36.751849" lon="-3.235602">
        <ele>21.757</ele>
        <time>2021-06-16T10:32:04Z</time>
      </trkpt>
      <trkpt lat="36.752036" lon="-3.235951">
        <ele>21.230</ele>
        <time>2021-06-16T10:32:06Z</time>
      </trkpt>
      <trkpt lat="36.752131" lon="-3.23612">
        <ele>21.047</ele>
        <time>2021-06-16T10:32:07Z</time>
      </trkpt>
      <trkpt lat="36.752308" lon="-3.236445">
        <ele>20.784</ele>
        <time>2021-06-16T10:32:09Z</time>
      </trkpt>
      <trkpt lat="36.752468" lon="-3.236741">
        <ele>21.124</ele>
        <time>2021-06-16T10:32:11Z</time>
      </trkpt>
      <trkpt lat="36.752546" lon="-3.236883">
        <ele>21.546</ele>
        <time>2021-06-16T10:32:12Z</time>
      </trkpt>
      <trkpt lat="36.752624" lon="-3.237027">
        <ele>21.488</ele>
        <time>2021-06-16T10:32:13Z</time>
      </trkpt>
      <trkpt lat="36.752784" lon="-3.237316">
        <ele>21.616</ele>
        <time>2021-06-16T10:32:15Z</time>
      </trkpt>
      <trkpt lat="36.752863" lon="-3.237463">
        <ele>21.708</ele>
        <time>2021-06-16T10:32:16Z</time>
      </trkpt>
      <trkpt lat="36.753006" lon="-3.237767">
        <ele>22.681</ele>
        <time>2021-06-16T10:32:18Z</time>
      </trkpt>
      <trkpt lat="36.75313" lon="-3.238098">
        <ele>22.939</ele>
        <time>2021-06-16T10:32:20Z</time>
      </trkpt>
      <trkpt lat="36.753242" lon="-3.238447">
        <ele>23.513</ele>
        <time>2021-06-16T10:32:22Z</time>
      </trkpt>
      <trkpt lat="36.753343" lon="-3.238797">
        <ele>24.232</ele>
        <time>2021-06-16T10:32:24Z</time>
      </trkpt>
      <trkpt lat="36.7534" lon="-3.238967">
        <ele>25.085</ele>
        <time>2021-06-16T10:32:25Z</time>
      </trkpt>
      <trkpt lat="36.753515" lon="-3.23931">
        <ele>24.282</ele>
        <time>2021-06-16T10:32:27Z</time>
      </trkpt>
      <trkpt lat="36.753645" lon="-3.239642">
        <ele>24.019</ele>
        <time>2021-06-16T10:32:29Z</time>
      </trkpt>
      <trkpt lat="36.753714" lon="-3.239812">
        <ele>23.049</ele>
        <time>2021-06-16T10:32:30Z</time>
      </trkpt>
      <trkpt lat="36.753782" lon="-3.239982">
        <ele>22.321</ele>
        <time>2021-06-16T10:32:31Z</time>
      </trkpt>
      <trkpt lat="36.753852" lon="-3.240153">
        <ele>21.641</ele>
        <time>2021-06-16T10:32:32Z</time>
      </trkpt>
      <trkpt lat="36.753995" lon="-3.240497">
        <ele>20.405</ele>
        <time>2021-06-16T10:32:34Z</time>
      </trkpt>
      <trkpt lat="36.754138" lon="-3.240844">
        <ele>19.508</ele>
        <time>2021-06-16T10:32:36Z</time>
      </trkpt>
      <trkpt lat="36.754275" lon="-3.241205">
        <ele>18.769</ele>
        <time>2021-06-16T10:32:38Z</time>
      </trkpt>
      <trkpt lat="36.754343" lon="-3.241394">
        <ele>18.397</ele>
        <time>2021-06-16T10:32:39Z</time>
      </trkpt>
      <trkpt lat="36.754411" lon="-3.241583">
        <ele>18.081</ele>
        <time>2021-06-16T10:32:40Z</time>
      </trkpt>
      <trkpt lat="36.754475" lon="-3.241772">
        <ele>17.710</ele>
        <time>2021-06-16T10:32:41Z</time>
      </trkpt>
      <trkpt lat="36.754584" lon="-3.242162">
        <ele>16.893</ele>
        <time>2021-06-16T10:32:43Z</time>
      </trkpt>
      <trkpt lat="36.754619" lon="-3.242369">
        <ele>16.880</ele>
        <time>2021-06-16T10:32:44Z</time>
      </trkpt>
      <trkpt lat="36.754668" lon="-3.242791">
        <ele>16.377</ele>
        <time>2021-06-16T10:32:46Z</time>
      </trkpt>
      <trkpt lat="36.754682" lon="-3.242996">
        <ele>15.527</ele>
        <time>2021-06-16T10:32:47Z</time>
      </trkpt>
      <trkpt lat="36.754695" lon="-3.243196">
        <ele>14.165</ele>
        <time>2021-06-16T10:32:48Z</time>
      </trkpt>
      <trkpt lat="36.754705" lon="-3.243396">
        <ele>12.868</ele>
        <time>2021-06-16T10:32:49Z</time>
      </trkpt>
      <trkpt lat="36.754709" lon="-3.243813">
        <ele>12.014</ele>
        <time>2021-06-16T10:32:51Z</time>
      </trkpt>
      <trkpt lat="36.754715" lon="-3.244232">
        <ele>11.008</ele>
        <time>2021-06-16T10:32:53Z</time>
      </trkpt>
      <trkpt lat="36.754732" lon="-3.244647">
        <ele>10.533</ele>
        <time>2021-06-16T10:32:55Z</time>
      </trkpt>
      <trkpt lat="36.754757" lon="-3.245067">
        <ele>9.431</ele>
        <time>2021-06-16T10:32:57Z</time>
      </trkpt>
      <trkpt lat="36.754771" lon="-3.245278">
        <ele>8.445</ele>
        <time>2021-06-16T10:32:58Z</time>
      </trkpt>
      <trkpt lat="36.754773" lon="-3.245505">
        <ele>8.584</ele>
        <time>2021-06-16T10:32:59Z</time>
      </trkpt>
      <trkpt lat="36.754771" lon="-3.245738">
        <ele>8.417</ele>
        <time>2021-06-16T10:33:00Z</time>
      </trkpt>
      <trkpt lat="36.754782" lon="-3.246199">
        <ele>8.414</ele>
        <time>2021-06-16T10:33:02Z</time>
      </trkpt>
      <trkpt lat="36.754789" lon="-3.246421">
        <ele>8.311</ele>
        <time>2021-06-16T10:33:03Z</time>
      </trkpt>
      <trkpt lat="36.754786" lon="-3.246642">
        <ele>8.031</ele>
        <time>2021-06-16T10:33:04Z</time>
      </trkpt>
      <trkpt lat="36.754738" lon="-3.24711">
        <ele>8.883</ele>
        <time>2021-06-16T10:33:06Z</time>
      </trkpt>
      <trkpt lat="36.754669" lon="-3.24758">
        <ele>9.625</ele>
        <time>2021-06-16T10:33:08Z</time>
      </trkpt>
      <trkpt lat="36.754635" lon="-3.24781">
        <ele>10.217</ele>
        <time>2021-06-16T10:33:09Z</time>
      </trkpt>
      <trkpt lat="36.754603" lon="-3.248038">
        <ele>10.408</ele>
        <time>2021-06-16T10:33:10Z</time>
      </trkpt>
      <trkpt lat="36.754573" lon="-3.248264">
        <ele>11.125</ele>
        <time>2021-06-16T10:33:11Z</time>
      </trkpt>
      <trkpt lat="36.754523" lon="-3.248711">
        <ele>11.733</ele>
        <time>2021-06-16T10:33:13Z</time>
      </trkpt>
      <trkpt lat="36.754511" lon="-3.248931">
        <ele>11.357</ele>
        <time>2021-06-16T10:33:14Z</time>
      </trkpt>
      <trkpt lat="36.75451" lon="-3.249148">
        <ele>10.916</ele>
        <time>2021-06-16T10:33:15Z</time>
      </trkpt>
      <trkpt lat="36.754535" lon="-3.24957">
        <ele>11.059</ele>
        <time>2021-06-16T10:33:17Z</time>
      </trkpt>
      <trkpt lat="36.754551" lon="-3.249776">
        <ele>11.286</ele>
        <time>2021-06-16T10:33:18Z</time>
      </trkpt>
      <trkpt lat="36.754565" lon="-3.249978">
        <ele>11.033</ele>
        <time>2021-06-16T10:33:19Z</time>
      </trkpt>
      <trkpt lat="36.754531" lon="-3.250393">
        <ele>11.323</ele>
        <time>2021-06-16T10:33:21Z</time>
      </trkpt>
      <trkpt lat="36.754428" lon="-3.250816">
        <ele>12.168</ele>
        <time>2021-06-16T10:33:23Z</time>
      </trkpt>
      <trkpt lat="36.754281" lon="-3.251227">
        <ele>12.342</ele>
        <time>2021-06-16T10:33:25Z</time>
      </trkpt>
      <trkpt lat="36.754196" lon="-3.251433">
        <ele>12.326</ele>
        <time>2021-06-16T10:33:26Z</time>
      </trkpt>
      <trkpt lat="36.754038" lon="-3.251844">
        <ele>12.408</ele>
        <time>2021-06-16T10:33:28Z</time>
      </trkpt>
      <trkpt lat="36.75397" lon="-3.252057">
        <ele>12.683</ele>
        <time>2021-06-16T10:33:29Z</time>
      </trkpt>
      <trkpt lat="36.75391" lon="-3.252274">
        <ele>12.561</ele>
        <time>2021-06-16T10:33:30Z</time>
      </trkpt>
      <trkpt lat="36.753823" lon="-3.252734">
        <ele>12.195</ele>
        <time>2021-06-16T10:33:32Z</time>
      </trkpt>
      <trkpt lat="36.753775" lon="-3.25321">
        <ele>12.144</ele>
        <time>2021-06-16T10:33:34Z</time>
      </trkpt>
      <trkpt lat="36.753726" lon="-3.253692">
        <ele>11.727</ele>
        <time>2021-06-16T10:33:36Z</time>
      </trkpt>
      <trkpt lat="36.7537" lon="-3.253932">
        <ele>11.554</ele>
        <time>2021-06-16T10:33:37Z</time>
      </trkpt>
      <trkpt lat="36.753666" lon="-3.254403">
        <ele>11.691</ele>
        <time>2021-06-16T10:33:39Z</time>
      </trkpt>
      <trkpt lat="36.753675" lon="-3.254869">
        <ele>11.821</ele>
        <time>2021-06-16T10:33:41Z</time>
      </trkpt>
      <trkpt lat="36.753719" lon="-3.255329">
        <ele>11.752</ele>
        <time>2021-06-16T10:33:43Z</time>
      </trkpt>
      <trkpt lat="36.753762" lon="-3.255768">
        <ele>11.753</ele>
        <time>2021-06-16T10:33:45Z</time>
      </trkpt>
      <trkpt lat="36.753776" lon="-3.256191">
        <ele>11.408</ele>
        <time>2021-06-16T10:33:47Z</time>
      </trkpt>
      <trkpt lat="36.753771" lon="-3.2564">
        <ele>11.408</ele>
        <time>2021-06-16T10:33:48Z</time>
      </trkpt>
      <trkpt lat="36.753758" lon="-3.256606">
        <ele>11.292</ele>
        <time>2021-06-16T10:33:49Z</time>
      </trkpt>
      <trkpt lat="36.753714" lon="-3.257035">
        <ele>11.450</ele>
        <time>2021-06-16T10:33:51Z</time>
      </trkpt>
      <trkpt lat="36.753671" lon="-3.257446">
        <ele>11.044</ele>
        <time>2021-06-16T10:33:53Z</time>
      </trkpt>
      <trkpt lat="36.753652" lon="-3.257652">
        <ele>10.513</ele>
        <time>2021-06-16T10:33:54Z</time>
      </trkpt>
      <trkpt lat="36.753646" lon="-3.257851">
        <ele>10.826</ele>
        <time>2021-06-16T10:33:55Z</time>
      </trkpt>
      <trkpt lat="36.753677" lon="-3.25824">
        <ele>11.073</ele>
        <time>2021-06-16T10:33:57Z</time>
      </trkpt>
      <trkpt lat="36.753699" lon="-3.258435">
        <ele>11.040</ele>
        <time>2021-06-16T10:33:58Z</time>
      </trkpt>
      <trkpt lat="36.753738" lon="-3.258809">
        <ele>11.350</ele>
        <time>2021-06-16T10:34:00Z</time>
      </trkpt>
      <trkpt lat="36.753759" lon="-3.259168">
        <ele>11.512</ele>
        <time>2021-06-16T10:34:02Z</time>
      </trkpt>
      <trkpt lat="36.753757" lon="-3.259345">
        <ele>11.532</ele>
        <time>2021-06-16T10:34:03Z</time>
      </trkpt>
      <trkpt lat="36.753741" lon="-3.259522">
        <ele>11.605</ele>
        <time>2021-06-16T10:34:04Z</time>
      </trkpt>
      <trkpt lat="36.753715" lon="-3.259698">
        <ele>11.808</ele>
        <time>2021-06-16T10:34:05Z</time>
      </trkpt>
      <trkpt lat="36.753647" lon="-3.260027">
        <ele>11.918</ele>
        <time>2021-06-16T10:34:07Z</time>
      </trkpt>
      <trkpt lat="36.753571" lon="-3.260338">
        <ele>12.186</ele>
        <time>2021-06-16T10:34:09Z</time>
      </trkpt>
      <trkpt lat="36.753527" lon="-3.26049">
        <ele>11.990</ele>
        <time>2021-06-16T10:34:10Z</time>
      </trkpt>
      <trkpt lat="36.753485" lon="-3.260643">
        <ele>11.849</ele>
        <time>2021-06-16T10:34:11Z</time>
      </trkpt>
      <trkpt lat="36.753403" lon="-3.260944">
        <ele>11.422</ele>
        <time>2021-06-16T10:34:13Z</time>
      </trkpt>
      <trkpt lat="36.753364" lon="-3.261097">
        <ele>11.439</ele>
        <time>2021-06-16T10:34:14Z</time>
      </trkpt>
      <trkpt lat="36.753288" lon="-3.261383">
        <ele>11.366</ele>
        <time>2021-06-16T10:34:16Z</time>
      </trkpt>
      <trkpt lat="36.753249" lon="-3.261529">
        <ele>11.336</ele>
        <time>2021-06-16T10:34:17Z</time>
      </trkpt>
      <trkpt lat="36.753175" lon="-3.261824">
        <ele>11.125</ele>
        <time>2021-06-16T10:34:19Z</time>
      </trkpt>
      <trkpt lat="36.753096" lon="-3.262116">
        <ele>11.126</ele>
        <time>2021-06-16T10:34:21Z</time>
      </trkpt>
      <trkpt lat="36.753054" lon="-3.262254">
        <ele>11.308</ele>
        <time>2021-06-16T10:34:22Z</time>
      </trkpt>
      <trkpt lat="36.753012" lon="-3.262387">
        <ele>11.608</ele>
        <time>2021-06-16T10:34:23Z</time>
      </trkpt>
      <trkpt lat="36.752945" lon="-3.262645">
        <ele>11.489</ele>
        <time>2021-06-16T10:34:25Z</time>
      </trkpt>
      <trkpt lat="36.75292" lon="-3.262769">
        <ele>11.627</ele>
        <time>2021-06-16T10:34:26Z</time>
      </trkpt>
      <trkpt lat="36.752867" lon="-3.263018">
        <ele>11.911</ele>
        <time>2021-06-16T10:34:28Z</time>
      </trkpt>
      <trkpt lat="36.752838" lon="-3.263148">
        <ele>11.720</ele>
        <time>2021-06-16T10:34:29Z</time>
      </trkpt>
      <trkpt lat="36.752769" lon="-3.26338">
        <ele>12.713</ele>
        <time>2021-06-16T10:34:31Z</time>
      </trkpt>
      <trkpt lat="36.752675" lon="-3.26365">
        <ele>13.170</ele>
        <time>2021-06-16T10:34:33Z</time>
      </trkpt>
      <trkpt lat="36.752589" lon="-3.263901">
        <ele>13.027</ele>
        <time>2021-06-16T10:34:35Z</time>
      </trkpt>
      <trkpt lat="36.752477" lon="-3.264149">
        <ele>12.077</ele>
        <time>2021-06-16T10:34:37Z</time>
      </trkpt>
      <trkpt lat="36.75236" lon="-3.264395">
        <ele>11.528</ele>
        <time>2021-06-16T10:34:39Z</time>
      </trkpt>
      <trkpt lat="36.752258" lon="-3.26467">
        <ele>11.289</ele>
        <time>2021-06-16T10:34:41Z</time>
      </trkpt>
      <trkpt lat="36.752207" lon="-3.264807">
        <ele>10.417</ele>
        <time>2021-06-16T10:34:42Z</time>
      </trkpt>
      <trkpt lat="36.752091" lon="-3.265083">
        <ele>10.208</ele>
        <time>2021-06-16T10:34:44Z</time>
      </trkpt>
      <trkpt lat="36.752023" lon="-3.265223">
        <ele>9.249</ele>
        <time>2021-06-16T10:34:45Z</time>
      </trkpt>
      <trkpt lat="36.751882" lon="-3.265517">
        <ele>8.747</ele>
        <time>2021-06-16T10:34:47Z</time>
      </trkpt>
      <trkpt lat="36.751815" lon="-3.265662">
        <ele>8.751</ele>
        <time>2021-06-16T10:34:48Z</time>
      </trkpt>
      <trkpt lat="36.751698" lon="-3.265927">
        <ele>8.680</ele>
        <time>2021-06-16T10:34:50Z</time>
      </trkpt>
      <trkpt lat="36.751638" lon="-3.266047">
        <ele>7.823</ele>
        <time>2021-06-16T10:34:51Z</time>
      </trkpt>
      <trkpt lat="36.751525" lon="-3.266257">
        <ele>7.240</ele>
        <time>2021-06-16T10:34:53Z</time>
      </trkpt>
      <trkpt lat="36.751477" lon="-3.266348">
        <ele>7.577</ele>
        <time>2021-06-16T10:34:54Z</time>
      </trkpt>
      <trkpt lat="36.751405" lon="-3.266494">
        <ele>7.467</ele>
        <time>2021-06-16T10:34:56Z</time>
      </trkpt>
      <trkpt lat="36.751377" lon="-3.266547">
        <ele>6.249</ele>
        <time>2021-06-16T10:34:57Z</time>
      </trkpt>
      <trkpt lat="36.751348" lon="-3.266592">
        <ele>5.402</ele>
        <time>2021-06-16T10:35:00Z</time>
      </trkpt>
      <trkpt lat="36.751287" lon="-3.266599">
        <ele>6.122</ele>
        <time>2021-06-16T10:36:08Z</time>
      </trkpt>
      <trkpt lat="36.751229" lon="-3.266703">
        <ele>6.508</ele>
        <time>2021-06-16T10:36:10Z</time>
      </trkpt>
      <trkpt lat="36.751138" lon="-3.266898">
        <ele>6.731</ele>
        <time>2021-06-16T10:36:12Z</time>
      </trkpt>
      <trkpt lat="36.751033" lon="-3.267111">
        <ele>6.869</ele>
        <time>2021-06-16T10:36:14Z</time>
      </trkpt>
      <trkpt lat="36.750974" lon="-3.267231">
        <ele>6.943</ele>
        <time>2021-06-16T10:36:15Z</time>
      </trkpt>
      <trkpt lat="36.750842" lon="-3.267484">
        <ele>6.922</ele>
        <time>2021-06-16T10:36:17Z</time>
      </trkpt>
      <trkpt lat="36.750771" lon="-3.267603">
        <ele>6.915</ele>
        <time>2021-06-16T10:36:18Z</time>
      </trkpt>
      <trkpt lat="36.750602" lon="-3.267816">
        <ele>6.982</ele>
        <time>2021-06-16T10:36:20Z</time>
      </trkpt>
      <trkpt lat="36.750509" lon="-3.267924">
        <ele>6.989</ele>
        <time>2021-06-16T10:36:21Z</time>
      </trkpt>
      <trkpt lat="36.750313" lon="-3.268091">
        <ele>6.939</ele>
        <time>2021-06-16T10:36:23Z</time>
      </trkpt>
      <trkpt lat="36.750114" lon="-3.268258">
        <ele>6.952</ele>
        <time>2021-06-16T10:36:25Z</time>
      </trkpt>
      <trkpt lat="36.750017" lon="-3.268349">
        <ele>6.953</ele>
        <time>2021-06-16T10:36:26Z</time>
      </trkpt>
      <trkpt lat="36.749921" lon="-3.268441">
        <ele>6.908</ele>
        <time>2021-06-16T10:36:27Z</time>
      </trkpt>
      <trkpt lat="36.749726" lon="-3.268649">
        <ele>6.908</ele>
        <time>2021-06-16T10:36:29Z</time>
      </trkpt>
      <trkpt lat="36.749632" lon="-3.26877">
        <ele>6.992</ele>
        <time>2021-06-16T10:36:30Z</time>
      </trkpt>
      <trkpt lat="36.749448" lon="-3.269003">
        <ele>6.970</ele>
        <time>2021-06-16T10:36:32Z</time>
      </trkpt>
      <trkpt lat="36.749361" lon="-3.269122">
        <ele>6.994</ele>
        <time>2021-06-16T10:36:33Z</time>
      </trkpt>
      <trkpt lat="36.749292" lon="-3.269256">
        <ele>6.963</ele>
        <time>2021-06-16T10:36:34Z</time>
      </trkpt>
      <trkpt lat="36.749199" lon="-3.269576">
        <ele>6.976</ele>
        <time>2021-06-16T10:36:36Z</time>
      </trkpt>
      <trkpt lat="36.74915" lon="-3.269737">
        <ele>6.973</ele>
        <time>2021-06-16T10:36:37Z</time>
      </trkpt>
      <trkpt lat="36.749101" lon="-3.269901">
        <ele>6.930</ele>
        <time>2021-06-16T10:36:38Z</time>
      </trkpt>
      <trkpt lat="36.749051" lon="-3.270246">
        <ele>6.930</ele>
        <time>2021-06-16T10:36:40Z</time>
      </trkpt>
      <trkpt lat="36.749047" lon="-3.270425">
        <ele>6.964</ele>
        <time>2021-06-16T10:36:41Z</time>
      </trkpt>
      <trkpt lat="36.74905" lon="-3.270763">
        <ele>6.906</ele>
        <time>2021-06-16T10:36:43Z</time>
      </trkpt>
      <trkpt lat="36.749097" lon="-3.271106">
        <ele>6.916</ele>
        <time>2021-06-16T10:36:45Z</time>
      </trkpt>
      <trkpt lat="36.749123" lon="-3.27129">
        <ele>6.908</ele>
        <time>2021-06-16T10:36:46Z</time>
      </trkpt>
      <trkpt lat="36.749175" lon="-3.271475">
        <ele>6.913</ele>
        <time>2021-06-16T10:36:47Z</time>
      </trkpt>
      <trkpt lat="36.749292" lon="-3.271842">
        <ele>6.911</ele>
        <time>2021-06-16T10:36:49Z</time>
      </trkpt>
      <trkpt lat="36.749342" lon="-3.272025">
        <ele>6.925</ele>
        <time>2021-06-16T10:36:50Z</time>
      </trkpt>
      <trkpt lat="36.749392" lon="-3.27221">
        <ele>6.934</ele>
        <time>2021-06-16T10:36:51Z</time>
      </trkpt>
      <trkpt lat="36.749457" lon="-3.27258">
        <ele>6.977</ele>
        <time>2021-06-16T10:36:53Z</time>
      </trkpt>
      <trkpt lat="36.749448" lon="-3.272758">
        <ele>6.944</ele>
        <time>2021-06-16T10:36:54Z</time>
      </trkpt>
      <trkpt lat="36.749383" lon="-3.273101">
        <ele>6.981</ele>
        <time>2021-06-16T10:36:56Z</time>
      </trkpt>
      <trkpt lat="36.749343" lon="-3.273258">
        <ele>6.921</ele>
        <time>2021-06-16T10:36:57Z</time>
      </trkpt>
      <trkpt lat="36.7492" lon="-3.273543">
        <ele>6.957</ele>
        <time>2021-06-16T10:36:59Z</time>
      </trkpt>
      <trkpt lat="36.749038" lon="-3.273825">
        <ele>6.900</ele>
        <time>2021-06-16T10:37:01Z</time>
      </trkpt>
      <trkpt lat="36.748893" lon="-3.274116">
        <ele>6.920</ele>
        <time>2021-06-16T10:37:03Z</time>
      </trkpt>
      <trkpt lat="36.748751" lon="-3.274405">
        <ele>6.908</ele>
        <time>2021-06-16T10:37:05Z</time>
      </trkpt>
      <trkpt lat="36.748679" lon="-3.274547">
        <ele>8.912</ele>
        <time>2021-06-16T10:37:06Z</time>
      </trkpt>
      <trkpt lat="36.748536" lon="-3.274824">
        <ele>11.040</ele>
        <time>2021-06-16T10:37:08Z</time>
      </trkpt>
      <trkpt lat="36.748396" lon="-3.27512">
        <ele>11.664</ele>
        <time>2021-06-16T10:37:10Z</time>
      </trkpt>
      <trkpt lat="36.748331" lon="-3.275275">
        <ele>11.313</ele>
        <time>2021-06-16T10:37:11Z</time>
      </trkpt>
      <trkpt lat="36.748273" lon="-3.275434">
        <ele>11.636</ele>
        <time>2021-06-16T10:37:12Z</time>
      </trkpt>
      <trkpt lat="36.748172" lon="-3.275766">
        <ele>11.423</ele>
        <time>2021-06-16T10:37:14Z</time>
      </trkpt>
      <trkpt lat="36.748117" lon="-3.275944">
        <ele>12.030</ele>
        <time>2021-06-16T10:37:15Z</time>
      </trkpt>
      <trkpt lat="36.748066" lon="-3.276124">
        <ele>11.760</ele>
        <time>2021-06-16T10:37:16Z</time>
      </trkpt>
      <trkpt lat="36.748013" lon="-3.276307">
        <ele>12.574</ele>
        <time>2021-06-16T10:37:17Z</time>
      </trkpt>
      <trkpt lat="36.747913" lon="-3.276667">
        <ele>12.556</ele>
        <time>2021-06-16T10:37:19Z</time>
      </trkpt>
      <trkpt lat="36.747825" lon="-3.277012">
        <ele>12.021</ele>
        <time>2021-06-16T10:37:21Z</time>
      </trkpt>
      <trkpt lat="36.747739" lon="-3.277348">
        <ele>11.608</ele>
        <time>2021-06-16T10:37:23Z</time>
      </trkpt>
      <trkpt lat="36.747693" lon="-3.277514">
        <ele>11.264</ele>
        <time>2021-06-16T10:37:24Z</time>
      </trkpt>
      <trkpt lat="36.747603" lon="-3.277843">
        <ele>11.732</ele>
        <time>2021-06-16T10:37:26Z</time>
      </trkpt>
      <trkpt lat="36.74752" lon="-3.278163">
        <ele>11.896</ele>
        <time>2021-06-16T10:37:28Z</time>
      </trkpt>
      <trkpt lat="36.747469" lon="-3.278324">
        <ele>12.235</ele>
        <time>2021-06-16T10:37:29Z</time>
      </trkpt>
      <trkpt lat="36.747368" lon="-3.278649">
        <ele>12.948</ele>
        <time>2021-06-16T10:37:31Z</time>
      </trkpt>
      <trkpt lat="36.747286" lon="-3.278972">
        <ele>13.545</ele>
        <time>2021-06-16T10:37:33Z</time>
      </trkpt>
      <trkpt lat="36.747243" lon="-3.279136">
        <ele>13.292</ele>
        <time>2021-06-16T10:37:34Z</time>
      </trkpt>
      <trkpt lat="36.747198" lon="-3.279302">
        <ele>13.392</ele>
        <time>2021-06-16T10:37:35Z</time>
      </trkpt>
      <trkpt lat="36.747151" lon="-3.279468">
        <ele>13.196</ele>
        <time>2021-06-16T10:37:36Z</time>
      </trkpt>
      <trkpt lat="36.747058" lon="-3.279791">
        <ele>13.331</ele>
        <time>2021-06-16T10:37:38Z</time>
      </trkpt>
      <trkpt lat="36.746942" lon="-3.2801">
        <ele>12.724</ele>
        <time>2021-06-16T10:37:40Z</time>
      </trkpt>
      <trkpt lat="36.746778" lon="-3.280383">
        <ele>12.608</ele>
        <time>2021-06-16T10:37:42Z</time>
      </trkpt>
      <trkpt lat="36.746576" lon="-3.280639">
        <ele>12.046</ele>
        <time>2021-06-16T10:37:44Z</time>
      </trkpt>
      <trkpt lat="36.746456" lon="-3.280748">
        <ele>11.444</ele>
        <time>2021-06-16T10:37:45Z</time>
      </trkpt>
      <trkpt lat="36.746326" lon="-3.28084">
        <ele>11.178</ele>
        <time>2021-06-16T10:37:46Z</time>
      </trkpt>
      <trkpt lat="36.746064" lon="-3.281019">
        <ele>11.377</ele>
        <time>2021-06-16T10:37:48Z</time>
      </trkpt>
      <trkpt lat="36.745941" lon="-3.281114">
        <ele>10.850</ele>
        <time>2021-06-16T10:37:49Z</time>
      </trkpt>
      <trkpt lat="36.745714" lon="-3.281301">
        <ele>9.637</ele>
        <time>2021-06-16T10:37:51Z</time>
      </trkpt>
      <trkpt lat="36.745497" lon="-3.281517">
        <ele>8.994</ele>
        <time>2021-06-16T10:37:53Z</time>
      </trkpt>
      <trkpt lat="36.745398" lon="-3.28165">
        <ele>8.564</ele>
        <time>2021-06-16T10:37:54Z</time>
      </trkpt>
      <trkpt lat="36.745231" lon="-3.281947">
        <ele>7.364</ele>
        <time>2021-06-16T10:37:56Z</time>
      </trkpt>
      <trkpt lat="36.745068" lon="-3.282258">
        <ele>7.206</ele>
        <time>2021-06-16T10:37:58Z</time>
      </trkpt>
      <trkpt lat="36.744917" lon="-3.282571">
        <ele>7.416</ele>
        <time>2021-06-16T10:38:00Z</time>
      </trkpt>
      <trkpt lat="36.744777" lon="-3.282887">
        <ele>8.208</ele>
        <time>2021-06-16T10:38:02Z</time>
      </trkpt>
      <trkpt lat="36.744623" lon="-3.283204">
        <ele>8.793</ele>
        <time>2021-06-16T10:38:04Z</time>
      </trkpt>
      <trkpt lat="36.744549" lon="-3.283364">
        <ele>9.111</ele>
        <time>2021-06-16T10:38:05Z</time>
      </trkpt>
      <trkpt lat="36.744395" lon="-3.283675">
        <ele>9.455</ele>
        <time>2021-06-16T10:38:07Z</time>
      </trkpt>
      <trkpt lat="36.744245" lon="-3.283986">
        <ele>9.614</ele>
        <time>2021-06-16T10:38:09Z</time>
      </trkpt>
      <trkpt lat="36.744178" lon="-3.284143">
        <ele>10.137</ele>
        <time>2021-06-16T10:38:10Z</time>
      </trkpt>
      <trkpt lat="36.744066" lon="-3.284481">
        <ele>10.664</ele>
        <time>2021-06-16T10:38:12Z</time>
      </trkpt>
      <trkpt lat="36.743987" lon="-3.284837">
        <ele>12.411</ele>
        <time>2021-06-16T10:38:14Z</time>
      </trkpt>
      <trkpt lat="36.743942" lon="-3.285016">
        <ele>14.121</ele>
        <time>2021-06-16T10:38:15Z</time>
      </trkpt>
      <trkpt lat="36.743895" lon="-3.2852">
        <ele>14.933</ele>
        <time>2021-06-16T10:38:16Z</time>
      </trkpt>
      <trkpt lat="36.743806" lon="-3.285555">
        <ele>15.123</ele>
        <time>2021-06-16T10:38:18Z</time>
      </trkpt>
      <trkpt lat="36.743717" lon="-3.285906">
        <ele>15.315</ele>
        <time>2021-06-16T10:38:20Z</time>
      </trkpt>
      <trkpt lat="36.743673" lon="-3.286079">
        <ele>16.108</ele>
        <time>2021-06-16T10:38:21Z</time>
      </trkpt>
      <trkpt lat="36.743484" lon="-3.287293">
        <ele>15.650</ele>
        <time>2021-06-16T10:38:28Z</time>
      </trkpt>
      <trkpt lat="36.743422" lon="-3.287455">
        <ele>16.138</ele>
        <time>2021-06-16T10:38:29Z</time>
      </trkpt>
      <trkpt lat="36.74329" lon="-3.287771">
        <ele>16.442</ele>
        <time>2021-06-16T10:38:31Z</time>
      </trkpt>
      <trkpt lat="36.743212" lon="-3.287922">
        <ele>16.521</ele>
        <time>2021-06-16T10:38:32Z</time>
      </trkpt>
      <trkpt lat="36.743133" lon="-3.288072">
        <ele>16.464</ele>
        <time>2021-06-16T10:38:33Z</time>
      </trkpt>
      <trkpt lat="36.742988" lon="-3.288382">
        <ele>16.551</ele>
        <time>2021-06-16T10:38:35Z</time>
      </trkpt>
      <trkpt lat="36.74292" lon="-3.288536">
        <ele>16.558</ele>
        <time>2021-06-16T10:38:36Z</time>
      </trkpt>
      <trkpt lat="36.742859" lon="-3.288689">
        <ele>16.668</ele>
        <time>2021-06-16T10:38:37Z</time>
      </trkpt>
      <trkpt lat="36.74282" lon="-3.288848">
        <ele>16.627</ele>
        <time>2021-06-16T10:38:38Z</time>
      </trkpt>
      <trkpt lat="36.742771" lon="-3.28918">
        <ele>16.568</ele>
        <time>2021-06-16T10:38:40Z</time>
      </trkpt>
      <trkpt lat="36.742733" lon="-3.289514">
        <ele>15.714</ele>
        <time>2021-06-16T10:38:42Z</time>
      </trkpt>
      <trkpt lat="36.742682" lon="-3.289857">
        <ele>15.208</ele>
        <time>2021-06-16T10:38:44Z</time>
      </trkpt>
      <trkpt lat="36.742585" lon="-3.290213">
        <ele>14.679</ele>
        <time>2021-06-16T10:38:46Z</time>
      </trkpt>
      <trkpt lat="36.742464" lon="-3.290567">
        <ele>14.367</ele>
        <time>2021-06-16T10:38:48Z</time>
      </trkpt>
      <trkpt lat="36.742356" lon="-3.290919">
        <ele>13.191</ele>
        <time>2021-06-16T10:38:50Z</time>
      </trkpt>
      <trkpt lat="36.742242" lon="-3.291266">
        <ele>13.060</ele>
        <time>2021-06-16T10:38:52Z</time>
      </trkpt>
      <trkpt lat="36.742146" lon="-3.291615">
        <ele>13.083</ele>
        <time>2021-06-16T10:38:54Z</time>
      </trkpt>
      <trkpt lat="36.742107" lon="-3.291793">
        <ele>12.450</ele>
        <time>2021-06-16T10:38:55Z</time>
      </trkpt>
      <trkpt lat="36.742077" lon="-3.292146">
        <ele>12.167</ele>
        <time>2021-06-16T10:38:57Z</time>
      </trkpt>
      <trkpt lat="36.742074" lon="-3.292325">
        <ele>12.157</ele>
        <time>2021-06-16T10:38:58Z</time>
      </trkpt>
      <trkpt lat="36.742071" lon="-3.292502">
        <ele>12.649</ele>
        <time>2021-06-16T10:38:59Z</time>
      </trkpt>
      <trkpt lat="36.742072" lon="-3.292853">
        <ele>12.502</ele>
        <time>2021-06-16T10:39:01Z</time>
      </trkpt>
      <trkpt lat="36.742073" lon="-3.293031">
        <ele>11.922</ele>
        <time>2021-06-16T10:39:02Z</time>
      </trkpt>
      <trkpt lat="36.742069" lon="-3.293216">
        <ele>11.408</ele>
        <time>2021-06-16T10:39:03Z</time>
      </trkpt>
      <trkpt lat="36.742054" lon="-3.293596">
        <ele>11.221</ele>
        <time>2021-06-16T10:39:05Z</time>
      </trkpt>
      <trkpt lat="36.742032" lon="-3.293787">
        <ele>11.119</ele>
        <time>2021-06-16T10:39:06Z</time>
      </trkpt>
      <trkpt lat="36.742005" lon="-3.293974">
        <ele>10.393</ele>
        <time>2021-06-16T10:39:07Z</time>
      </trkpt>
      <trkpt lat="36.741965" lon="-3.294157">
        <ele>10.012</ele>
        <time>2021-06-16T10:39:08Z</time>
      </trkpt>
      <trkpt lat="36.741884" lon="-3.29453">
        <ele>9.925</ele>
        <time>2021-06-16T10:39:10Z</time>
      </trkpt>
      <trkpt lat="36.741817" lon="-3.294906">
        <ele>9.522</ele>
        <time>2021-06-16T10:39:12Z</time>
      </trkpt>
      <trkpt lat="36.741779" lon="-3.295094">
        <ele>9.249</ele>
        <time>2021-06-16T10:39:13Z</time>
      </trkpt>
      <trkpt lat="36.74174" lon="-3.295279">
        <ele>9.059</ele>
        <time>2021-06-16T10:39:14Z</time>
      </trkpt>
      <trkpt lat="36.741655" lon="-3.295645">
        <ele>9.094</ele>
        <time>2021-06-16T10:39:16Z</time>
      </trkpt>
      <trkpt lat="36.741565" lon="-3.296008">
        <ele>9.157</ele>
        <time>2021-06-16T10:39:18Z</time>
      </trkpt>
      <trkpt lat="36.74152" lon="-3.296186">
        <ele>9.222</ele>
        <time>2021-06-16T10:39:19Z</time>
      </trkpt>
      <trkpt lat="36.741472" lon="-3.296366">
        <ele>8.908</ele>
        <time>2021-06-16T10:39:20Z</time>
      </trkpt>
      <trkpt lat="36.741426" lon="-3.296543">
        <ele>8.686</ele>
        <time>2021-06-16T10:39:21Z</time>
      </trkpt>
      <trkpt lat="36.74134" lon="-3.296897">
        <ele>8.234</ele>
        <time>2021-06-16T10:39:23Z</time>
      </trkpt>
      <trkpt lat="36.741301" lon="-3.297068">
        <ele>7.938</ele>
        <time>2021-06-16T10:39:24Z</time>
      </trkpt>
      <trkpt lat="36.741217" lon="-3.297422">
        <ele>7.317</ele>
        <time>2021-06-16T10:39:26Z</time>
      </trkpt>
      <trkpt lat="36.741177" lon="-3.297601">
        <ele>6.810</ele>
        <time>2021-06-16T10:39:27Z</time>
      </trkpt>
      <trkpt lat="36.741091" lon="-3.297957">
        <ele>6.587</ele>
        <time>2021-06-16T10:39:29Z</time>
      </trkpt>
      <trkpt lat="36.74105" lon="-3.298134">
        <ele>6.684</ele>
        <time>2021-06-16T10:39:30Z</time>
      </trkpt>
      <trkpt lat="36.74098" lon="-3.298492">
        <ele>6.684</ele>
        <time>2021-06-16T10:39:32Z</time>
      </trkpt>
      <trkpt lat="36.740931" lon="-3.298868">
        <ele>7.158</ele>
        <time>2021-06-16T10:39:34Z</time>
      </trkpt>
      <trkpt lat="36.740914" lon="-3.299262">
        <ele>7.352</ele>
        <time>2021-06-16T10:39:36Z</time>
      </trkpt>
      <trkpt lat="36.740922" lon="-3.299658">
        <ele>7.617</ele>
        <time>2021-06-16T10:39:38Z</time>
      </trkpt>
      <trkpt lat="36.740945" lon="-3.299857">
        <ele>7.708</ele>
        <time>2021-06-16T10:39:39Z</time>
      </trkpt>
      <trkpt lat="36.74104" lon="-3.300256">
        <ele>8.282</ele>
        <time>2021-06-16T10:39:41Z</time>
      </trkpt>
      <trkpt lat="36.741103" lon="-3.300448">
        <ele>9.060</ele>
        <time>2021-06-16T10:39:42Z</time>
      </trkpt>
      <trkpt lat="36.741167" lon="-3.300641">
        <ele>9.844</ele>
        <time>2021-06-16T10:39:43Z</time>
      </trkpt>
      <trkpt lat="36.741298" lon="-3.301022">
        <ele>11.293</ele>
        <time>2021-06-16T10:39:45Z</time>
      </trkpt>
      <trkpt lat="36.741419" lon="-3.301403">
        <ele>12.986</ele>
        <time>2021-06-16T10:39:47Z</time>
      </trkpt>
      <trkpt lat="36.741535" lon="-3.301779">
        <ele>14.693</ele>
        <time>2021-06-16T10:39:49Z</time>
      </trkpt>
      <trkpt lat="36.741644" lon="-3.302155">
        <ele>16.710</ele>
        <time>2021-06-16T10:39:51Z</time>
      </trkpt>
      <trkpt lat="36.741699" lon="-3.302345">
        <ele>18.240</ele>
        <time>2021-06-16T10:39:52Z</time>
      </trkpt>
      <trkpt lat="36.741808" lon="-3.302724">
        <ele>20.378</ele>
        <time>2021-06-16T10:39:54Z</time>
      </trkpt>
      <trkpt lat="36.741913" lon="-3.303106">
        <ele>22.433</ele>
        <time>2021-06-16T10:39:56Z</time>
      </trkpt>
      <trkpt lat="36.741972" lon="-3.303293">
        <ele>24.026</ele>
        <time>2021-06-16T10:39:57Z</time>
      </trkpt>
      <trkpt lat="36.742035" lon="-3.303478">
        <ele>25.308</ele>
        <time>2021-06-16T10:39:58Z</time>
      </trkpt>
      <trkpt lat="36.742109" lon="-3.303656">
        <ele>26.694</ele>
        <time>2021-06-16T10:39:59Z</time>
      </trkpt>
      <trkpt lat="36.742313" lon="-3.30398">
        <ele>28.132</ele>
        <time>2021-06-16T10:40:01Z</time>
      </trkpt>
      <trkpt lat="36.742579" lon="-3.304248">
        <ele>29.446</ele>
        <time>2021-06-16T10:40:03Z</time>
      </trkpt>
      <trkpt lat="36.742729" lon="-3.304355">
        <ele>30.415</ele>
        <time>2021-06-16T10:40:04Z</time>
      </trkpt>
      <trkpt lat="36.743053" lon="-3.304504">
        <ele>31.938</ele>
        <time>2021-06-16T10:40:06Z</time>
      </trkpt>
      <trkpt lat="36.743225" lon="-3.304547">
        <ele>33.895</ele>
        <time>2021-06-16T10:40:07Z</time>
      </trkpt>
      <trkpt lat="36.743568" lon="-3.304577">
        <ele>35.512</ele>
        <time>2021-06-16T10:40:09Z</time>
      </trkpt>
      <trkpt lat="36.743743" lon="-3.30457">
        <ele>37.082</ele>
        <time>2021-06-16T10:40:10Z</time>
      </trkpt>
      <trkpt lat="36.744099" lon="-3.304555">
        <ele>39.118</ele>
        <time>2021-06-16T10:40:12Z</time>
      </trkpt>
      <trkpt lat="36.744278" lon="-3.304554">
        <ele>41.098</ele>
        <time>2021-06-16T10:40:13Z</time>
      </trkpt>
      <trkpt lat="36.744642" lon="-3.3046">
        <ele>43.717</ele>
        <time>2021-06-16T10:40:15Z</time>
      </trkpt>
      <trkpt lat="36.744994" lon="-3.304723">
        <ele>46.408</ele>
        <time>2021-06-16T10:40:17Z</time>
      </trkpt>
      <trkpt lat="36.745166" lon="-3.304813">
        <ele>48.428</ele>
        <time>2021-06-16T10:40:18Z</time>
      </trkpt>
      <trkpt lat="36.745497" lon="-3.305034">
        <ele>50.666</ele>
        <time>2021-06-16T10:40:20Z</time>
      </trkpt>
      <trkpt lat="36.745649" lon="-3.30517">
        <ele>52.270</ele>
        <time>2021-06-16T10:40:21Z</time>
      </trkpt>
      <trkpt lat="36.745917" lon="-3.305492">
        <ele>54.629</ele>
        <time>2021-06-16T10:40:23Z</time>
      </trkpt>
      <trkpt lat="36.746036" lon="-3.305673">
        <ele>56.392</ele>
        <time>2021-06-16T10:40:24Z</time>
      </trkpt>
      <trkpt lat="36.746239" lon="-3.306063">
        <ele>58.979</ele>
        <time>2021-06-16T10:40:26Z</time>
      </trkpt>
      <trkpt lat="36.746319" lon="-3.306271">
        <ele>60.726</ele>
        <time>2021-06-16T10:40:27Z</time>
      </trkpt>
      <trkpt lat="36.746392" lon="-3.306478">
        <ele>62.026</ele>
        <time>2021-06-16T10:40:28Z</time>
      </trkpt>
      <trkpt lat="36.746455" lon="-3.306687">
        <ele>63.333</ele>
        <time>2021-06-16T10:40:29Z</time>
      </trkpt>
      <trkpt lat="36.746527" lon="-3.307126">
        <ele>64.723</ele>
        <time>2021-06-16T10:40:31Z</time>
      </trkpt>
      <trkpt lat="36.746553" lon="-3.307343">
        <ele>66.215</ele>
        <time>2021-06-16T10:40:32Z</time>
      </trkpt>
      <trkpt lat="36.746581" lon="-3.307554">
        <ele>67.308</ele>
        <time>2021-06-16T10:40:33Z</time>
      </trkpt>
      <trkpt lat="36.746619" lon="-3.307763">
        <ele>68.650</ele>
        <time>2021-06-16T10:40:34Z</time>
      </trkpt>
      <trkpt lat="36.746745" lon="-3.308156">
        <ele>70.218</ele>
        <time>2021-06-16T10:40:36Z</time>
      </trkpt>
      <trkpt lat="36.74696" lon="-3.308483">
        <ele>72.192</ele>
        <time>2021-06-16T10:40:38Z</time>
      </trkpt>
      <trkpt lat="36.747073" lon="-3.308636">
        <ele>73.241</ele>
        <time>2021-06-16T10:40:39Z</time>
      </trkpt>
      <trkpt lat="36.747281" lon="-3.308954">
        <ele>75.384</ele>
        <time>2021-06-16T10:40:41Z</time>
      </trkpt>
      <trkpt lat="36.747422" lon="-3.30934">
        <ele>77.371</ele>
        <time>2021-06-16T10:40:43Z</time>
      </trkpt>
      <trkpt lat="36.74746" lon="-3.309554">
        <ele>78.988</ele>
        <time>2021-06-16T10:40:44Z</time>
      </trkpt>
      <trkpt lat="36.74745" lon="-3.309992">
        <ele>80.578</ele>
        <time>2021-06-16T10:40:46Z</time>
      </trkpt>
      <trkpt lat="36.747361" lon="-3.310418">
        <ele>82.072</ele>
        <time>2021-06-16T10:40:48Z</time>
      </trkpt>
      <trkpt lat="36.747242" lon="-3.310836">
        <ele>83.413</ele>
        <time>2021-06-16T10:40:50Z</time>
      </trkpt>
      <trkpt lat="36.747141" lon="-3.31127">
        <ele>84.714</ele>
        <time>2021-06-16T10:40:52Z</time>
      </trkpt>
      <trkpt lat="36.747105" lon="-3.311493">
        <ele>86.008</ele>
        <time>2021-06-16T10:40:53Z</time>
      </trkpt>
      <trkpt lat="36.747079" lon="-3.311722">
        <ele>87.084</ele>
        <time>2021-06-16T10:40:54Z</time>
      </trkpt>
      <trkpt lat="36.747068" lon="-3.311954">
        <ele>87.912</ele>
        <time>2021-06-16T10:40:55Z</time>
      </trkpt>
      <trkpt lat="36.747071" lon="-3.31219">
        <ele>89.376</ele>
        <time>2021-06-16T10:40:56Z</time>
      </trkpt>
      <trkpt lat="36.747115" lon="-3.312659">
        <ele>90.635</ele>
        <time>2021-06-16T10:40:58Z</time>
      </trkpt>
      <trkpt lat="36.747217" lon="-3.313104">
        <ele>92.018</ele>
        <time>2021-06-16T10:41:00Z</time>
      </trkpt>
      <trkpt lat="36.747292" lon="-3.313315">
        <ele>93.495</ele>
        <time>2021-06-16T10:41:01Z</time>
      </trkpt>
      <trkpt lat="36.747453" lon="-3.313719">
        <ele>94.622</ele>
        <time>2021-06-16T10:41:03Z</time>
      </trkpt>
      <trkpt lat="36.747545" lon="-3.313908">
        <ele>95.582</ele>
        <time>2021-06-16T10:41:04Z</time>
      </trkpt>
      <trkpt lat="36.747743" lon="-3.314242">
        <ele>96.559</ele>
        <time>2021-06-16T10:41:06Z</time>
      </trkpt>
      <trkpt lat="36.74784" lon="-3.314381">
        <ele>97.503</ele>
        <time>2021-06-16T10:41:07Z</time>
      </trkpt>
      <trkpt lat="36.747927" lon="-3.314508">
        <ele>98.223</ele>
        <time>2021-06-16T10:41:08Z</time>
      </trkpt>
      <trkpt lat="36.748071" lon="-3.314682">
        <ele>99.508</ele>
        <time>2021-06-16T10:41:10Z</time>
      </trkpt>
      <trkpt lat="36.748144" lon="-3.314729">
        <ele>100.462</ele>
        <time>2021-06-16T10:41:11Z</time>
      </trkpt>
      <trkpt lat="36.7483" lon="-3.314758">
        <ele>101.520</ele>
        <time>2021-06-16T10:41:13Z</time>
      </trkpt>
      <trkpt lat="36.748411" lon="-3.314826">
        <ele>102.514</ele>
        <time>2021-06-16T10:41:15Z</time>
      </trkpt>
      <trkpt lat="36.7484" lon="-3.314961">
        <ele>103.293</ele>
        <time>2021-06-16T10:41:17Z</time>
      </trkpt>
      <trkpt lat="36.74829" lon="-3.315027">
        <ele>103.956</ele>
        <time>2021-06-16T10:41:19Z</time>
      </trkpt>
      <trkpt lat="36.748177" lon="-3.314976">
        <ele>104.253</ele>
        <time>2021-06-16T10:41:21Z</time>
      </trkpt>
      <trkpt lat="36.748142" lon="-3.314908">
        <ele>104.390</ele>
        <time>2021-06-16T10:41:22Z</time>
      </trkpt>
      <trkpt lat="36.748129" lon="-3.314834">
        <ele>104.620</ele>
        <time>2021-06-16T10:41:23Z</time>
      </trkpt>
      <trkpt lat="36.748193" lon="-3.314714">
        <ele>104.975</ele>
        <time>2021-06-16T10:41:25Z</time>
      </trkpt>
      <trkpt lat="36.748287" lon="-3.314673">
        <ele>105.028</ele>
        <time>2021-06-16T10:41:27Z</time>
      </trkpt>
      <trkpt lat="36.748336" lon="-3.314642">
        <ele>105.420</ele>
        <time>2021-06-16T10:41:28Z</time>
      </trkpt>
      <trkpt lat="36.748382" lon="-3.314584">
        <ele>105.508</ele>
        <time>2021-06-16T10:41:29Z</time>
      </trkpt>
      <trkpt lat="36.748422" lon="-3.314389">
        <ele>105.354</ele>
        <time>2021-06-16T10:41:31Z</time>
      </trkpt>
      <trkpt lat="36.748352" lon="-3.31417">
        <ele>105.392</ele>
        <time>2021-06-16T10:41:33Z</time>
      </trkpt>
      <trkpt lat="36.748212" lon="-3.313973">
        <ele>104.886</ele>
        <time>2021-06-16T10:41:35Z</time>
      </trkpt>
      <trkpt lat="36.748129" lon="-3.313882">
        <ele>104.985</ele>
        <time>2021-06-16T10:41:36Z</time>
      </trkpt>
      <trkpt lat="36.747957" lon="-3.313709">
        <ele>105.688</ele>
        <time>2021-06-16T10:41:38Z</time>
      </trkpt>
      <trkpt lat="36.747875" lon="-3.31363">
        <ele>106.515</ele>
        <time>2021-06-16T10:41:39Z</time>
      </trkpt>
      <trkpt lat="36.747728" lon="-3.313464">
        <ele>107.332</ele>
        <time>2021-06-16T10:41:41Z</time>
      </trkpt>
      <trkpt lat="36.747673" lon="-3.313365">
        <ele>108.232</ele>
        <time>2021-06-16T10:41:42Z</time>
      </trkpt>
      <trkpt lat="36.747632" lon="-3.313255">
        <ele>109.347</ele>
        <time>2021-06-16T10:41:43Z</time>
      </trkpt>
      <trkpt lat="36.747611" lon="-3.313139">
        <ele>110.129</ele>
        <time>2021-06-16T10:41:44Z</time>
      </trkpt>
      <trkpt lat="36.747606" lon="-3.313019">
        <ele>110.821</ele>
        <time>2021-06-16T10:41:45Z</time>
      </trkpt>
      <trkpt lat="36.747658" lon="-3.31279">
        <ele>112.608</ele>
        <time>2021-06-16T10:41:47Z</time>
      </trkpt>
      <trkpt lat="36.747714" lon="-3.312688">
        <ele>114.041</ele>
        <time>2021-06-16T10:41:48Z</time>
      </trkpt>
      <trkpt lat="36.747787" lon="-3.312598">
        <ele>114.869</ele>
        <time>2021-06-16T10:41:49Z</time>
      </trkpt>
      <trkpt lat="36.747873" lon="-3.312522">
        <ele>115.933</ele>
        <time>2021-06-16T10:41:50Z</time>
      </trkpt>
      <trkpt lat="36.748072" lon="-3.312433">
        <ele>116.562</ele>
        <time>2021-06-16T10:41:52Z</time>
      </trkpt>
      <trkpt lat="36.748183" lon="-3.312432">
        <ele>116.995</ele>
        <time>2021-06-16T10:41:53Z</time>
      </trkpt>
      <trkpt lat="36.748411" lon="-3.312468">
        <ele>117.682</ele>
        <time>2021-06-16T10:41:55Z</time>
      </trkpt>
      <trkpt lat="36.748524" lon="-3.312494">
        <ele>118.049</ele>
        <time>2021-06-16T10:41:56Z</time>
      </trkpt>
      <trkpt lat="36.748742" lon="-3.312553">
        <ele>119.419</ele>
        <time>2021-06-16T10:41:58Z</time>
      </trkpt>
      <trkpt lat="36.748846" lon="-3.31258">
        <ele>119.934</ele>
        <time>2021-06-16T10:41:59Z</time>
      </trkpt>
      <trkpt lat="36.748949" lon="-3.312611">
        <ele>120.755</ele>
        <time>2021-06-16T10:42:00Z</time>
      </trkpt>
      <trkpt lat="36.749144" lon="-3.312666">
        <ele>121.210</ele>
        <time>2021-06-16T10:42:02Z</time>
      </trkpt>
      <trkpt lat="36.749225" lon="-3.312685">
        <ele>122.108</ele>
        <time>2021-06-16T10:42:03Z</time>
      </trkpt>
      <trkpt lat="36.749384" lon="-3.312707">
        <ele>122.990</ele>
        <time>2021-06-16T10:42:05Z</time>
      </trkpt>
      <trkpt lat="36.74945" lon="-3.312721">
        <ele>122.758</ele>
        <time>2021-06-16T10:42:06Z</time>
      </trkpt>
      <trkpt lat="36.749518" lon="-3.312742">
        <ele>124.292</ele>
        <time>2021-06-16T10:42:08Z</time>
      </trkpt>
      <trkpt lat="36.749477" lon="-3.312818">
        <ele>125.171</ele>
        <time>2021-06-16T10:42:11Z</time>
      </trkpt>
      <trkpt lat="36.749432" lon="-3.312857">
        <ele>126.484</ele>
        <time>2021-06-16T10:42:13Z</time>
      </trkpt>
      <trkpt lat="36.749382" lon="-3.31279">
        <ele>126.611</ele>
        <time>2021-06-16T10:42:16Z</time>
      </trkpt>
      <trkpt lat="36.74933" lon="-3.312726">
        <ele>126.418</ele>
        <time>2021-06-16T10:42:18Z</time>
      </trkpt>
      <trkpt lat="36.749236" lon="-3.312688">
        <ele>125.788</ele>
        <time>2021-06-16T10:42:20Z</time>
      </trkpt>
      <trkpt lat="36.749161" lon="-3.312682">
        <ele>125.313</ele>
        <time>2021-06-16T10:42:21Z</time>
      </trkpt>
      <trkpt lat="36.749002" lon="-3.312669">
        <ele>124.543</ele>
        <time>2021-06-16T10:42:23Z</time>
      </trkpt>
      <trkpt lat="36.748844" lon="-3.312635">
        <ele>124.107</ele>
        <time>2021-06-16T10:42:25Z</time>
      </trkpt>
      <trkpt lat="36.748757" lon="-3.312615">
        <ele>123.608</ele>
        <time>2021-06-16T10:42:26Z</time>
      </trkpt>
      <trkpt lat="36.748669" lon="-3.312595">
        <ele>123.218</ele>
        <time>2021-06-16T10:42:27Z</time>
      </trkpt>
      <trkpt lat="36.748485" lon="-3.312558">
        <ele>122.276</ele>
        <time>2021-06-16T10:42:29Z</time>
      </trkpt>
      <trkpt lat="36.748387" lon="-3.312539">
        <ele>120.910</ele>
        <time>2021-06-16T10:42:30Z</time>
      </trkpt>
      <trkpt lat="36.748174" lon="-3.312505">
        <ele>119.629</ele>
        <time>2021-06-16T10:42:32Z</time>
      </trkpt>
      <trkpt lat="36.748064" lon="-3.3125">
        <ele>118.862</ele>
        <time>2021-06-16T10:42:33Z</time>
      </trkpt>
      <trkpt lat="36.747959" lon="-3.312522">
        <ele>118.059</ele>
        <time>2021-06-16T10:42:34Z</time>
      </trkpt>
      <trkpt lat="36.747777" lon="-3.312644">
        <ele>117.096</ele>
        <time>2021-06-16T10:42:36Z</time>
      </trkpt>
      <trkpt lat="36.747705" lon="-3.312751">
        <ele>116.056</ele>
        <time>2021-06-16T10:42:37Z</time>
      </trkpt>
      <trkpt lat="36.747654" lon="-3.312879">
        <ele>115.051</ele>
        <time>2021-06-16T10:42:38Z</time>
      </trkpt>
      <trkpt lat="36.747637" lon="-3.313163">
        <ele>113.901</ele>
        <time>2021-06-16T10:42:40Z</time>
      </trkpt>
      <trkpt lat="36.747728" lon="-3.313437">
        <ele>112.211</ele>
        <time>2021-06-16T10:42:42Z</time>
      </trkpt>
      <trkpt lat="36.747895" lon="-3.313643">
        <ele>110.208</ele>
        <time>2021-06-16T10:42:44Z</time>
      </trkpt>
      <trkpt lat="36.747996" lon="-3.313731">
        <ele>108.532</ele>
        <time>2021-06-16T10:42:45Z</time>
      </trkpt>
      <trkpt lat="36.748096" lon="-3.313817">
        <ele>107.530</ele>
        <time>2021-06-16T10:42:46Z</time>
      </trkpt>
      <trkpt lat="36.748265" lon="-3.313994">
        <ele>106.774</ele>
        <time>2021-06-16T10:42:48Z</time>
      </trkpt>
      <trkpt lat="36.748328" lon="-3.314098">
        <ele>106.593</ele>
        <time>2021-06-16T10:42:49Z</time>
      </trkpt>
      <trkpt lat="36.74839" lon="-3.314205">
        <ele>106.466</ele>
        <time>2021-06-16T10:42:50Z</time>
      </trkpt>
      <trkpt lat="36.748451" lon="-3.314308">
        <ele>106.073</ele>
        <time>2021-06-16T10:42:51Z</time>
      </trkpt>
      <trkpt lat="36.74851" lon="-3.314525">
        <ele>106.290</ele>
        <time>2021-06-16T10:42:53Z</time>
      </trkpt>
      <trkpt lat="36.748451" lon="-3.314744">
        <ele>106.730</ele>
        <time>2021-06-16T10:42:55Z</time>
      </trkpt>
      <trkpt lat="36.74843" lon="-3.314839">
        <ele>107.232</ele>
        <time>2021-06-16T10:42:56Z</time>
      </trkpt>
      <trkpt lat="36.748421" lon="-3.314921">
        <ele>107.292</ele>
        <time>2021-06-16T10:42:57Z</time>
      </trkpt>
      <trkpt lat="36.748404" lon="-3.314987">
        <ele>107.511</ele>
        <time>2021-06-16T10:42:58Z</time>
      </trkpt>
      <trkpt lat="36.748325" lon="-3.315047">
        <ele>107.608</ele>
        <time>2021-06-16T10:43:00Z</time>
      </trkpt>
      <trkpt lat="36.748221" lon="-3.315009">
        <ele>107.390</ele>
        <time>2021-06-16T10:43:02Z</time>
      </trkpt>
      <trkpt lat="36.748183" lon="-3.314957">
        <ele>106.728</ele>
        <time>2021-06-16T10:43:03Z</time>
      </trkpt>
      <trkpt lat="36.748152" lon="-3.314891">
        <ele>106.242</ele>
        <time>2021-06-16T10:43:04Z</time>
      </trkpt>
      <trkpt lat="36.748161" lon="-3.314795">
        <ele>105.761</ele>
        <time>2021-06-16T10:43:06Z</time>
      </trkpt>
      <trkpt lat="36.748203" lon="-3.314714">
        <ele>105.164</ele>
        <time>2021-06-16T10:43:08Z</time>
      </trkpt>
      <trkpt lat="36.74828" lon="-3.314691">
        <ele>104.421</ele>
        <time>2021-06-16T10:43:10Z</time>
      </trkpt>
      <trkpt lat="36.748378" lon="-3.314743">
        <ele>104.288</ele>
        <time>2021-06-16T10:43:12Z</time>
      </trkpt>
      <trkpt lat="36.748413" lon="-3.314797">
        <ele>104.618</ele>
        <time>2021-06-16T10:43:13Z</time>
      </trkpt>
      <trkpt lat="36.74843" lon="-3.314863">
        <ele>105.033</ele>
        <time>2021-06-16T10:43:14Z</time>
      </trkpt>
      <trkpt lat="36.748428" lon="-3.314919">
        <ele>105.023</ele>
        <time>2021-06-16T10:43:15Z</time>
      </trkpt>
      <trkpt lat="36.748356" lon="-3.314997">
        <ele>105.515</ele>
        <time>2021-06-16T10:43:17Z</time>
      </trkpt>
      <trkpt lat="36.748274" lon="-3.315007">
        <ele>105.508</ele>
        <time>2021-06-16T10:43:19Z</time>
      </trkpt>
      <trkpt lat="36.748197" lon="-3.314956">
        <ele>105.550</ele>
        <time>2021-06-16T10:43:21Z</time>
      </trkpt>
      <trkpt lat="36.748147" lon="-3.314875">
        <ele>105.818</ele>
        <time>2021-06-16T10:43:23Z</time>
      </trkpt>
      <trkpt lat="36.748122" lon="-3.314788">
        <ele>105.762</ele>
        <time>2021-06-16T10:43:25Z</time>
      </trkpt>
      <trkpt lat="36.748077" lon="-3.314708">
        <ele>105.221</ele>
        <time>2021-06-16T10:43:27Z</time>
      </trkpt>
      <trkpt lat="36.747982" lon="-3.314567">
        <ele>104.554</ele>
        <time>2021-06-16T10:43:29Z</time>
      </trkpt>
      <trkpt lat="36.747924" lon="-3.314482">
        <ele>103.821</ele>
        <time>2021-06-16T10:43:30Z</time>
      </trkpt>
      <trkpt lat="36.747859" lon="-3.314383">
        <ele>103.368</ele>
        <time>2021-06-16T10:43:31Z</time>
      </trkpt>
      <trkpt lat="36.747787" lon="-3.314278">
        <ele>102.648</ele>
        <time>2021-06-16T10:43:32Z</time>
      </trkpt>
      <trkpt lat="36.747643" lon="-3.314055">
        <ele>101.883</ele>
        <time>2021-06-16T10:43:34Z</time>
      </trkpt>
      <trkpt lat="36.747501" lon="-3.313818">
        <ele>100.925</ele>
        <time>2021-06-16T10:43:36Z</time>
      </trkpt>
      <trkpt lat="36.747354" lon="-3.313547">
        <ele>99.017</ele>
        <time>2021-06-16T10:43:38Z</time>
      </trkpt>
      <trkpt lat="36.747287" lon="-3.313403">
        <ele>97.208</ele>
        <time>2021-06-16T10:43:39Z</time>
      </trkpt>
      <trkpt lat="36.747176" lon="-3.313093">
        <ele>95.655</ele>
        <time>2021-06-16T10:43:41Z</time>
      </trkpt>
      <trkpt lat="36.747133" lon="-3.312929">
        <ele>94.483</ele>
        <time>2021-06-16T10:43:42Z</time>
      </trkpt>
      <trkpt lat="36.747097" lon="-3.312763">
        <ele>93.877</ele>
        <time>2021-06-16T10:43:43Z</time>
      </trkpt>
      <trkpt lat="36.747045" lon="-3.312425">
        <ele>92.726</ele>
        <time>2021-06-16T10:43:45Z</time>
      </trkpt>
      <trkpt lat="36.747029" lon="-3.312253">
        <ele>92.179</ele>
        <time>2021-06-16T10:43:46Z</time>
      </trkpt>
      <trkpt lat="36.747016" lon="-3.311897">
        <ele>91.156</ele>
        <time>2021-06-16T10:43:48Z</time>
      </trkpt>
      <trkpt lat="36.747022" lon="-3.311716">
        <ele>90.413</ele>
        <time>2021-06-16T10:43:49Z</time>
      </trkpt>
      <trkpt lat="36.747034" lon="-3.311534">
        <ele>89.573</ele>
        <time>2021-06-16T10:43:50Z</time>
      </trkpt>
      <trkpt lat="36.747085" lon="-3.311166">
        <ele>88.664</ele>
        <time>2021-06-16T10:43:52Z</time>
      </trkpt>
      <trkpt lat="36.747121" lon="-3.310981">
        <ele>87.706</ele>
        <time>2021-06-16T10:43:53Z</time>
      </trkpt>
      <trkpt lat="36.747204" lon="-3.310634">
        <ele>86.516</ele>
        <time>2021-06-16T10:43:55Z</time>
      </trkpt>
      <trkpt lat="36.747256" lon="-3.310464">
        <ele>85.708</ele>
        <time>2021-06-16T10:43:56Z</time>
      </trkpt>
      <trkpt lat="36.747347" lon="-3.310126">
        <ele>84.793</ele>
        <time>2021-06-16T10:43:58Z</time>
      </trkpt>
      <trkpt lat="36.747385" lon="-3.309957">
        <ele>83.521</ele>
        <time>2021-06-16T10:43:59Z</time>
      </trkpt>
      <trkpt lat="36.747423" lon="-3.309614">
        <ele>82.685</ele>
        <time>2021-06-16T10:44:01Z</time>
      </trkpt>
      <trkpt lat="36.747409" lon="-3.309434">
        <ele>81.834</ele>
        <time>2021-06-16T10:44:02Z</time>
      </trkpt>
      <trkpt lat="36.747317" lon="-3.30909">
        <ele>80.937</ele>
        <time>2021-06-16T10:44:04Z</time>
      </trkpt>
      <trkpt lat="36.747242" lon="-3.30893">
        <ele>80.324</ele>
        <time>2021-06-16T10:44:05Z</time>
      </trkpt>
      <trkpt lat="36.747057" lon="-3.30864">
        <ele>79.211</ele>
        <time>2021-06-16T10:44:07Z</time>
      </trkpt>
      <trkpt lat="36.746849" lon="-3.308383">
        <ele>78.041</ele>
        <time>2021-06-16T10:44:09Z</time>
      </trkpt>
      <trkpt lat="36.746748" lon="-3.308256">
        <ele>76.732</ele>
        <time>2021-06-16T10:44:10Z</time>
      </trkpt>
      <trkpt lat="36.746664" lon="-3.308126">
        <ele>75.792</ele>
        <time>2021-06-16T10:44:11Z</time>
      </trkpt>
      <trkpt lat="36.746547" lon="-3.307829">
        <ele>74.411</ele>
        <time>2021-06-16T10:44:13Z</time>
      </trkpt>
      <trkpt lat="36.746511" lon="-3.307673">
        <ele>73.508</ele>
        <time>2021-06-16T10:44:14Z</time>
      </trkpt>
      <trkpt lat="36.74646" lon="-3.307351">
        <ele>72.290</ele>
        <time>2021-06-16T10:44:16Z</time>
      </trkpt>
      <trkpt lat="36.746444" lon="-3.307183">
        <ele>71.128</ele>
        <time>2021-06-16T10:44:17Z</time>
      </trkpt>
      <trkpt lat="36.746425" lon="-3.307014">
        <ele>69.692</ele>
        <time>2021-06-16T10:44:18Z</time>
      </trkpt>
      <trkpt lat="36.746398" lon="-3.306847">
        <ele>68.571</ele>
        <time>2021-06-16T10:44:19Z</time>
      </trkpt>
      <trkpt lat="36.746322" lon="-3.306524">
        <ele>67.234</ele>
        <time>2021-06-16T10:44:21Z</time>
      </trkpt>
      <trkpt lat="36.746281" lon="-3.306364">
        <ele>66.051</ele>
        <time>2021-06-16T10:44:22Z</time>
      </trkpt>
      <trkpt lat="36.746235" lon="-3.306204">
        <ele>64.778</ele>
        <time>2021-06-16T10:44:23Z</time>
      </trkpt>
      <trkpt lat="36.746103" lon="-3.305895">
        <ele>63.028</ele>
        <time>2021-06-16T10:44:25Z</time>
      </trkpt>
      <trkpt lat="36.746019" lon="-3.30575">
        <ele>61.981</ele>
        <time>2021-06-16T10:44:26Z</time>
      </trkpt>
      <trkpt lat="36.745926" lon="-3.305606">
        <ele>61.361</ele>
        <time>2021-06-16T10:44:27Z</time>
      </trkpt>
      <trkpt lat="36.745827" lon="-3.305468">
        <ele>60.517</ele>
        <time>2021-06-16T10:44:28Z</time>
      </trkpt>
      <trkpt lat="36.745612" lon="-3.305222">
        <ele>59.308</ele>
        <time>2021-06-16T10:44:30Z</time>
      </trkpt>
      <trkpt lat="36.74537" lon="-3.30502">
        <ele>57.985</ele>
        <time>2021-06-16T10:44:32Z</time>
      </trkpt>
      <trkpt lat="36.745099" lon="-3.304857">
        <ele>57.273</ele>
        <time>2021-06-16T10:44:34Z</time>
      </trkpt>
      <trkpt lat="36.744808" lon="-3.304726">
        <ele>56.667</ele>
        <time>2021-06-16T10:44:36Z</time>
      </trkpt>
      <trkpt lat="36.744661" lon="-3.304685">
        <ele>55.646</ele>
        <time>2021-06-16T10:44:37Z</time>
      </trkpt>
      <trkpt lat="36.744518" lon="-3.304662">
        <ele>54.969</ele>
        <time>2021-06-16T10:44:38Z</time>
      </trkpt>
      <trkpt lat="36.744378" lon="-3.304653">
        <ele>54.086</ele>
        <time>2021-06-16T10:44:39Z</time>
      </trkpt>
      <trkpt lat="36.744105" lon="-3.304659">
        <ele>52.553</ele>
        <time>2021-06-16T10:44:41Z</time>
      </trkpt>
      <trkpt lat="36.743832" lon="-3.304692">
        <ele>50.673</ele>
        <time>2021-06-16T10:44:43Z</time>
      </trkpt>
      <trkpt lat="36.743696" lon="-3.304712">
        <ele>48.862</ele>
        <time>2021-06-16T10:44:44Z</time>
      </trkpt>
      <trkpt lat="36.743432" lon="-3.304746">
        <ele>46.783</ele>
        <time>2021-06-16T10:44:46Z</time>
      </trkpt>
      <trkpt lat="36.743302" lon="-3.304752">
        <ele>44.711</ele>
        <time>2021-06-16T10:44:47Z</time>
      </trkpt>
      <trkpt lat="36.74305" lon="-3.304745">
        <ele>42.208</ele>
        <time>2021-06-16T10:44:49Z</time>
      </trkpt>
      <trkpt lat="36.742825" lon="-3.304717">
        <ele>39.463</ele>
        <time>2021-06-16T10:44:51Z</time>
      </trkpt>
      <trkpt lat="36.742603" lon="-3.304693">
        <ele>37.191</ele>
        <time>2021-06-16T10:44:53Z</time>
      </trkpt>
      <trkpt lat="36.742394" lon="-3.304704">
        <ele>35.495</ele>
        <time>2021-06-16T10:44:55Z</time>
      </trkpt>
      <trkpt lat="36.742235" lon="-3.304748">
        <ele>34.664</ele>
        <time>2021-06-16T10:44:57Z</time>
      </trkpt>
      <trkpt lat="36.742181" lon="-3.304793">
        <ele>34.097</ele>
        <time>2021-06-16T10:44:58Z</time>
      </trkpt>
      <trkpt lat="36.742117" lon="-3.304953">
        <ele>33.534</ele>
        <time>2021-06-16T10:45:00Z</time>
      </trkpt>
      <trkpt lat="36.742079" lon="-3.305192">
        <ele>33.251</ele>
        <time>2021-06-16T10:45:02Z</time>
      </trkpt>
      <trkpt lat="36.742057" lon="-3.305332">
        <ele>33.021</ele>
        <time>2021-06-16T10:45:03Z</time>
      </trkpt>
      <trkpt lat="36.742006" lon="-3.305627">
        <ele>32.928</ele>
        <time>2021-06-16T10:45:05Z</time>
      </trkpt>
      <trkpt lat="36.741939" lon="-3.305936">
        <ele>33.589</ele>
        <time>2021-06-16T10:45:07Z</time>
      </trkpt>
      <trkpt lat="36.741903" lon="-3.306096">
        <ele>34.117</ele>
        <time>2021-06-16T10:45:08Z</time>
      </trkpt>
      <trkpt lat="36.741869" lon="-3.306256">
        <ele>34.608</ele>
        <time>2021-06-16T10:45:09Z</time>
      </trkpt>
      <trkpt lat="36.741825" lon="-3.30641">
        <ele>35.069</ele>
        <time>2021-06-16T10:45:10Z</time>
      </trkpt>
      <trkpt lat="36.741763" lon="-3.306552">
        <ele>34.567</ele>
        <time>2021-06-16T10:45:11Z</time>
      </trkpt>
      <trkpt lat="36.741682" lon="-3.306674">
        <ele>33.931</ele>
        <time>2021-06-16T10:45:12Z</time>
      </trkpt>
      <trkpt lat="36.741474" lon="-3.306867">
        <ele>33.320</ele>
        <time>2021-06-16T10:45:14Z</time>
      </trkpt>
      <trkpt lat="36.74125" lon="-3.307045">
        <ele>32.793</ele>
        <time>2021-06-16T10:45:16Z</time>
      </trkpt>
      <trkpt lat="36.741147" lon="-3.307158">
        <ele>31.870</ele>
        <time>2021-06-16T10:45:17Z</time>
      </trkpt>
      <trkpt lat="36.741047" lon="-3.307282">
        <ele>31.087</ele>
        <time>2021-06-16T10:45:18Z</time>
      </trkpt>
      <trkpt lat="36.740953" lon="-3.307428">
        <ele>30.067</ele>
        <time>2021-06-16T10:45:19Z</time>
      </trkpt>
      <trkpt lat="36.740864" lon="-3.307589">
        <ele>29.157</ele>
        <time>2021-06-16T10:45:20Z</time>
      </trkpt>
      <trkpt lat="36.74069" lon="-3.307911">
        <ele>28.300</ele>
        <time>2021-06-16T10:45:22Z</time>
      </trkpt>
      <trkpt lat="36.740605" lon="-3.308072">
        <ele>27.920</ele>
        <time>2021-06-16T10:45:23Z</time>
      </trkpt>
      <trkpt lat="36.740445" lon="-3.308381">
        <ele>26.308</ele>
        <time>2021-06-16T10:45:25Z</time>
      </trkpt>
      <trkpt lat="36.740247" lon="-3.308647">
        <ele>24.752</ele>
        <time>2021-06-16T10:45:27Z</time>
      </trkpt>
      <trkpt lat="36.740025" lon="-3.308854">
        <ele>23.360</ele>
        <time>2021-06-16T10:45:29Z</time>
      </trkpt>
      <trkpt lat="36.739825" lon="-3.309076">
        <ele>22.154</ele>
        <time>2021-06-16T10:45:31Z</time>
      </trkpt>
      <trkpt lat="36.739663" lon="-3.309353">
        <ele>20.933</ele>
        <time>2021-06-16T10:45:33Z</time>
      </trkpt>
      <trkpt lat="36.739585" lon="-3.309505">
        <ele>19.896</ele>
        <time>2021-06-16T10:45:34Z</time>
      </trkpt>
      <trkpt lat="36.739444" lon="-3.309827">
        <ele>18.923</ele>
        <time>2021-06-16T10:45:36Z</time>
      </trkpt>
      <trkpt lat="36.739386" lon="-3.309993">
        <ele>18.240</ele>
        <time>2021-06-16T10:45:37Z</time>
      </trkpt>
      <trkpt lat="36.739334" lon="-3.310318">
        <ele>17.730</ele>
        <time>2021-06-16T10:45:39Z</time>
      </trkpt>
      <trkpt lat="36.739341" lon="-3.310467">
        <ele>17.124</ele>
        <time>2021-06-16T10:45:40Z</time>
      </trkpt>
      <trkpt lat="36.739426" lon="-3.310733">
        <ele>16.004</ele>
        <time>2021-06-16T10:45:42Z</time>
      </trkpt>
      <trkpt lat="36.739503" lon="-3.310861">
        <ele>14.914</ele>
        <time>2021-06-16T10:45:43Z</time>
      </trkpt>
      <trkpt lat="36.739591" lon="-3.310988">
        <ele>14.208</ele>
        <time>2021-06-16T10:45:44Z</time>
      </trkpt>
      <trkpt lat="36.739774" lon="-3.311252">
        <ele>13.739</ele>
        <time>2021-06-16T10:45:46Z</time>
      </trkpt>
      <trkpt lat="36.73995" lon="-3.311526">
        <ele>12.877</ele>
        <time>2021-06-16T10:45:48Z</time>
      </trkpt>
      <trkpt lat="36.740032" lon="-3.311673">
        <ele>12.681</ele>
        <time>2021-06-16T10:45:49Z</time>
      </trkpt>
      <trkpt lat="36.740203" lon="-3.311964">
        <ele>12.750</ele>
        <time>2021-06-16T10:45:51Z</time>
      </trkpt>
      <trkpt lat="36.740398" lon="-3.312252">
        <ele>12.223</ele>
        <time>2021-06-16T10:45:53Z</time>
      </trkpt>
      <trkpt lat="36.740475" lon="-3.312406">
        <ele>11.990</ele>
        <time>2021-06-16T10:45:54Z</time>
      </trkpt>
      <trkpt lat="36.740614" lon="-3.312727">
        <ele>11.587</ele>
        <time>2021-06-16T10:45:56Z</time>
      </trkpt>
      <trkpt lat="36.740795" lon="-3.312994">
        <ele>10.947</ele>
        <time>2021-06-16T10:45:58Z</time>
      </trkpt>
      <trkpt lat="36.740894" lon="-3.31312">
        <ele>10.474</ele>
        <time>2021-06-16T10:45:59Z</time>
      </trkpt>
      <trkpt lat="36.741069" lon="-3.313391">
        <ele>10.056</ele>
        <time>2021-06-16T10:46:01Z</time>
      </trkpt>
      <trkpt lat="36.741152" lon="-3.31353">
        <ele>9.921</ele>
        <time>2021-06-16T10:46:02Z</time>
      </trkpt>
      <trkpt lat="36.741323" lon="-3.313808">
        <ele>10.508</ele>
        <time>2021-06-16T10:46:04Z</time>
      </trkpt>
      <trkpt lat="36.741414" lon="-3.313942">
        <ele>11.014</ele>
        <time>2021-06-16T10:46:05Z</time>
      </trkpt>
      <trkpt lat="36.741614" lon="-3.314194">
        <ele>11.542</ele>
        <time>2021-06-16T10:46:07Z</time>
      </trkpt>
      <trkpt lat="36.741709" lon="-3.314328">
        <ele>12.166</ele>
        <time>2021-06-16T10:46:08Z</time>
      </trkpt>
      <trkpt lat="36.741867" lon="-3.314631">
        <ele>13.235</ele>
        <time>2021-06-16T10:46:10Z</time>
      </trkpt>
      <trkpt lat="36.741989" lon="-3.314956">
        <ele>13.838</ele>
        <time>2021-06-16T10:46:12Z</time>
      </trkpt>
      <trkpt lat="36.742028" lon="-3.315138">
        <ele>14.745</ele>
        <time>2021-06-16T10:46:13Z</time>
      </trkpt>
      <trkpt lat="36.742064" lon="-3.315507">
        <ele>15.492</ele>
        <time>2021-06-16T10:46:15Z</time>
      </trkpt>
      <trkpt lat="36.742073" lon="-3.315695">
        <ele>15.572</ele>
        <time>2021-06-16T10:46:16Z</time>
      </trkpt>
      <trkpt lat="36.742085" lon="-3.316069">
        <ele>15.539</ele>
        <time>2021-06-16T10:46:18Z</time>
      </trkpt>
      <trkpt lat="36.742084" lon="-3.316261">
        <ele>15.601</ele>
        <time>2021-06-16T10:46:19Z</time>
      </trkpt>
      <trkpt lat="36.742092" lon="-3.316636">
        <ele>15.421</ele>
        <time>2021-06-16T10:46:21Z</time>
      </trkpt>
      <trkpt lat="36.742092" lon="-3.316826">
        <ele>15.208</ele>
        <time>2021-06-16T10:46:22Z</time>
      </trkpt>
      <trkpt lat="36.742067" lon="-3.317193">
        <ele>14.310</ele>
        <time>2021-06-16T10:46:24Z</time>
      </trkpt>
      <trkpt lat="36.742034" lon="-3.317374">
        <ele>13.568</ele>
        <time>2021-06-16T10:46:25Z</time>
      </trkpt>
      <trkpt lat="36.741991" lon="-3.317744">
        <ele>13.082</ele>
        <time>2021-06-16T10:46:27Z</time>
      </trkpt>
      <trkpt lat="36.741989" lon="-3.317934">
        <ele>12.691</ele>
        <time>2021-06-16T10:46:28Z</time>
      </trkpt>
      <trkpt lat="36.741985" lon="-3.318326">
        <ele>12.684</ele>
        <time>2021-06-16T10:46:30Z</time>
      </trkpt>
      <trkpt lat="36.741941" lon="-3.318719">
        <ele>12.491</ele>
        <time>2021-06-16T10:46:32Z</time>
      </trkpt>
      <trkpt lat="36.741911" lon="-3.318917">
        <ele>11.948</ele>
        <time>2021-06-16T10:46:33Z</time>
      </trkpt>
      <trkpt lat="36.741877" lon="-3.319109">
        <ele>11.738</ele>
        <time>2021-06-16T10:46:34Z</time>
      </trkpt>
      <trkpt lat="36.741841" lon="-3.319296">
        <ele>10.872</ele>
        <time>2021-06-16T10:46:35Z</time>
      </trkpt>
      <trkpt lat="36.741806" lon="-3.319644">
        <ele>10.413</ele>
        <time>2021-06-16T10:46:37Z</time>
      </trkpt>
      <trkpt lat="36.741823" lon="-3.319815">
        <ele>10.714</ele>
        <time>2021-06-16T10:46:38Z</time>
      </trkpt>
      <trkpt lat="36.741913" lon="-3.320159">
        <ele>10.408</ele>
        <time>2021-06-16T10:46:40Z</time>
      </trkpt>
      <trkpt lat="36.741968" lon="-3.320334">
        <ele>10.384</ele>
        <time>2021-06-16T10:46:41Z</time>
      </trkpt>
      <trkpt lat="36.742023" lon="-3.320509">
        <ele>10.682</ele>
        <time>2021-06-16T10:46:42Z</time>
      </trkpt>
      <trkpt lat="36.742077" lon="-3.320687">
        <ele>11.086</ele>
        <time>2021-06-16T10:46:43Z</time>
      </trkpt>
      <trkpt lat="36.742165" lon="-3.321051">
        <ele>11.515</ele>
        <time>2021-06-16T10:46:45Z</time>
      </trkpt>
      <trkpt lat="36.742199" lon="-3.321424">
        <ele>12.068</ele>
        <time>2021-06-16T10:46:47Z</time>
      </trkpt>
      <trkpt lat="36.742198" lon="-3.321606">
        <ele>12.685</ele>
        <time>2021-06-16T10:46:48Z</time>
      </trkpt>
      <trkpt lat="36.742176" lon="-3.321788">
        <ele>13.012</ele>
        <time>2021-06-16T10:46:49Z</time>
      </trkpt>
      <trkpt lat="36.742142" lon="-3.321971">
        <ele>13.172</ele>
        <time>2021-06-16T10:46:50Z</time>
      </trkpt>
      <trkpt lat="36.742021" lon="-3.322337">
        <ele>13.839</ele>
        <time>2021-06-16T10:46:52Z</time>
      </trkpt>
      <trkpt lat="36.741945" lon="-3.32251">
        <ele>14.301</ele>
        <time>2021-06-16T10:46:53Z</time>
      </trkpt>
      <trkpt lat="36.741747" lon="-3.322818">
        <ele>14.921</ele>
        <time>2021-06-16T10:46:55Z</time>
      </trkpt>
      <trkpt lat="36.741514" lon="-3.323066">
        <ele>15.808</ele>
        <time>2021-06-16T10:46:57Z</time>
      </trkpt>
      <trkpt lat="36.741419" lon="-3.323202">
        <ele>16.490</ele>
        <time>2021-06-16T10:46:58Z</time>
      </trkpt>
      <trkpt lat="36.741345" lon="-3.323349">
        <ele>17.398</ele>
        <time>2021-06-16T10:46:59Z</time>
      </trkpt>
      <trkpt lat="36.741266" lon="-3.323688">
        <ele>18.232</ele>
        <time>2021-06-16T10:47:01Z</time>
      </trkpt>
      <trkpt lat="36.741233" lon="-3.323867">
        <ele>18.591</ele>
        <time>2021-06-16T10:47:02Z</time>
      </trkpt>
      <trkpt lat="36.741147" lon="-3.324233">
        <ele>19.344</ele>
        <time>2021-06-16T10:47:04Z</time>
      </trkpt>
      <trkpt lat="36.741006" lon="-3.32458">
        <ele>19.631</ele>
        <time>2021-06-16T10:47:06Z</time>
      </trkpt>
      <trkpt lat="36.740928" lon="-3.324753">
        <ele>20.118</ele>
        <time>2021-06-16T10:47:07Z</time>
      </trkpt>
      <trkpt lat="36.74078" lon="-3.325116">
        <ele>21.168</ele>
        <time>2021-06-16T10:47:09Z</time>
      </trkpt>
      <trkpt lat="36.740714" lon="-3.325306">
        <ele>22.181</ele>
        <time>2021-06-16T10:47:10Z</time>
      </trkpt>
      <trkpt lat="36.740582" lon="-3.32569">
        <ele>22.861</ele>
        <time>2021-06-16T10:47:12Z</time>
      </trkpt>
      <trkpt lat="36.740459" lon="-3.326076">
        <ele>24.017</ele>
        <time>2021-06-16T10:47:14Z</time>
      </trkpt>
      <trkpt lat="36.740413" lon="-3.326272">
        <ele>25.508</ele>
        <time>2021-06-16T10:47:15Z</time>
      </trkpt>
      <trkpt lat="36.740373" lon="-3.326467">
        <ele>27.055</ele>
        <time>2021-06-16T10:47:16Z</time>
      </trkpt>
      <trkpt lat="36.740305" lon="-3.326861">
        <ele>29.073</ele>
        <time>2021-06-16T10:47:18Z</time>
      </trkpt>
      <trkpt lat="36.740265" lon="-3.327251">
        <ele>31.047</ele>
        <time>2021-06-16T10:47:20Z</time>
      </trkpt>
      <trkpt lat="36.740161" lon="-3.327635">
        <ele>32.796</ele>
        <time>2021-06-16T10:47:22Z</time>
      </trkpt>
      <trkpt lat="36.740035" lon="-3.328008">
        <ele>33.629</ele>
        <time>2021-06-16T10:47:24Z</time>
      </trkpt>
      <trkpt lat="36.739875" lon="-3.328376">
        <ele>35.176</ele>
        <time>2021-06-16T10:47:26Z</time>
      </trkpt>
      <trkpt lat="36.739794" lon="-3.328557">
        <ele>36.053</ele>
        <time>2021-06-16T10:47:27Z</time>
      </trkpt>
      <trkpt lat="36.739664" lon="-3.32892">
        <ele>37.413</ele>
        <time>2021-06-16T10:47:29Z</time>
      </trkpt>
      <trkpt lat="36.739582" lon="-3.329303">
        <ele>38.163</ele>
        <time>2021-06-16T10:47:31Z</time>
      </trkpt>
      <trkpt lat="36.739537" lon="-3.329491">
        <ele>38.644</ele>
        <time>2021-06-16T10:47:32Z</time>
      </trkpt>
      <trkpt lat="36.739445" lon="-3.329877">
        <ele>39.118</ele>
        <time>2021-06-16T10:47:34Z</time>
      </trkpt>
      <trkpt lat="36.739374" lon="-3.330265">
        <ele>40.808</ele>
        <time>2021-06-16T10:47:36Z</time>
      </trkpt>
      <trkpt lat="36.739341" lon="-3.330459">
        <ele>42.723</ele>
        <time>2021-06-16T10:47:37Z</time>
      </trkpt>
      <trkpt lat="36.739309" lon="-3.330653">
        <ele>44.741</ele>
        <time>2021-06-16T10:47:38Z</time>
      </trkpt>
      <trkpt lat="36.739276" lon="-3.330845">
        <ele>46.335</ele>
        <time>2021-06-16T10:47:39Z</time>
      </trkpt>
      <trkpt lat="36.739235" lon="-3.331227">
        <ele>48.484</ele>
        <time>2021-06-16T10:47:41Z</time>
      </trkpt>
      <trkpt lat="36.739218" lon="-3.331423">
        <ele>50.167</ele>
        <time>2021-06-16T10:47:42Z</time>
      </trkpt>
      <trkpt lat="36.739213" lon="-3.331622">
        <ele>51.114</ele>
        <time>2021-06-16T10:47:43Z</time>
      </trkpt>
      <trkpt lat="36.739227" lon="-3.332015">
        <ele>52.521</ele>
        <time>2021-06-16T10:47:45Z</time>
      </trkpt>
      <trkpt lat="36.739239" lon="-3.33221">
        <ele>54.031</ele>
        <time>2021-06-16T10:47:46Z</time>
      </trkpt>
      <trkpt lat="36.739264" lon="-3.332386">
        <ele>56.099</ele>
        <time>2021-06-16T10:47:47Z</time>
      </trkpt>
      <trkpt lat="36.739309" lon="-3.332546">
        <ele>57.307</ele>
        <time>2021-06-16T10:47:48Z</time>
      </trkpt>
      <trkpt lat="36.739366" lon="-3.332704">
        <ele>59.027</ele>
        <time>2021-06-16T10:47:49Z</time>
      </trkpt>
      <trkpt lat="36.739515" lon="-3.333015">
        <ele>60.308</ele>
        <time>2021-06-16T10:47:51Z</time>
      </trkpt>
      <trkpt lat="36.739596" lon="-3.333172">
        <ele>60.956</ele>
        <time>2021-06-16T10:47:52Z</time>
      </trkpt>
      <trkpt lat="36.739761" lon="-3.333485">
        <ele>62.224</ele>
        <time>2021-06-16T10:47:54Z</time>
      </trkpt>
      <trkpt lat="36.739847" lon="-3.33364">
        <ele>63.398</ele>
        <time>2021-06-16T10:47:55Z</time>
      </trkpt>
      <trkpt lat="36.739934" lon="-3.333793">
        <ele>64.867</ele>
        <time>2021-06-16T10:47:56Z</time>
      </trkpt>
      <trkpt lat="36.740023" lon="-3.333942">
        <ele>65.820</ele>
        <time>2021-06-16T10:47:57Z</time>
      </trkpt>
      <trkpt lat="36.740207" lon="-3.334226">
        <ele>67.037</ele>
        <time>2021-06-16T10:47:59Z</time>
      </trkpt>
      <trkpt lat="36.740279" lon="-3.334372">
        <ele>68.454</ele>
        <time>2021-06-16T10:48:00Z</time>
      </trkpt>
      <trkpt lat="36.740362" lon="-3.334687">
        <ele>69.684</ele>
        <time>2021-06-16T10:48:02Z</time>
      </trkpt>
      <trkpt lat="36.740358" lon="-3.334858">
        <ele>71.612</ele>
        <time>2021-06-16T10:48:03Z</time>
      </trkpt>
      <trkpt lat="36.740338" lon="-3.335031">
        <ele>73.532</ele>
        <time>2021-06-16T10:48:04Z</time>
      </trkpt>
      <trkpt lat="36.740305" lon="-3.33539">
        <ele>75.605</ele>
        <time>2021-06-16T10:48:06Z</time>
      </trkpt>
      <trkpt lat="36.740276" lon="-3.335756">
        <ele>78.108</ele>
        <time>2021-06-16T10:48:08Z</time>
      </trkpt>
      <trkpt lat="36.740243" lon="-3.33612">
        <ele>79.328</ele>
        <time>2021-06-16T10:48:10Z</time>
      </trkpt>
      <trkpt lat="36.740214" lon="-3.336302">
        <ele>80.786</ele>
        <time>2021-06-16T10:48:11Z</time>
      </trkpt>
      <trkpt lat="36.740172" lon="-3.336484">
        <ele>82.320</ele>
        <time>2021-06-16T10:48:12Z</time>
      </trkpt>
      <trkpt lat="36.74011" lon="-3.336851">
        <ele>83.669</ele>
        <time>2021-06-16T10:48:14Z</time>
      </trkpt>
      <trkpt lat="36.740099" lon="-3.337035">
        <ele>84.632</ele>
        <time>2021-06-16T10:48:15Z</time>
      </trkpt>
      <trkpt lat="36.740097" lon="-3.337222">
        <ele>85.529</ele>
        <time>2021-06-16T10:48:16Z</time>
      </trkpt>
      <trkpt lat="36.740085" lon="-3.337411">
        <ele>86.986</ele>
        <time>2021-06-16T10:48:17Z</time>
      </trkpt>
      <trkpt lat="36.740061" lon="-3.337773">
        <ele>88.746</ele>
        <time>2021-06-16T10:48:19Z</time>
      </trkpt>
      <trkpt lat="36.740085" lon="-3.338117">
        <ele>90.569</ele>
        <time>2021-06-16T10:48:21Z</time>
      </trkpt>
      <trkpt lat="36.74013" lon="-3.338287">
        <ele>91.704</ele>
        <time>2021-06-16T10:48:22Z</time>
      </trkpt>
      <trkpt lat="36.740248" lon="-3.338605">
        <ele>93.824</ele>
        <time>2021-06-16T10:48:24Z</time>
      </trkpt>
      <trkpt lat="36.740388" lon="-3.338909">
        <ele>95.508</ele>
        <time>2021-06-16T10:48:26Z</time>
      </trkpt>
      <trkpt lat="36.74056" lon="-3.339175">
        <ele>96.873</ele>
        <time>2021-06-16T10:48:28Z</time>
      </trkpt>
      <trkpt lat="36.740713" lon="-3.33936">
        <ele>98.681</ele>
        <time>2021-06-16T10:48:30Z</time>
      </trkpt>
      <trkpt lat="36.740785" lon="-3.339529">
        <ele>100.065</ele>
        <time>2021-06-16T10:48:32Z</time>
      </trkpt>
      <trkpt lat="36.740743" lon="-3.339727">
        <ele>101.664</ele>
        <time>2021-06-16T10:48:34Z</time>
      </trkpt>
      <trkpt lat="36.740655" lon="-3.339798">
        <ele>102.787</ele>
        <time>2021-06-16T10:48:35Z</time>
      </trkpt>
      <trkpt lat="36.740552" lon="-3.339847">
        <ele>103.164</ele>
        <time>2021-06-16T10:48:36Z</time>
      </trkpt>
      <trkpt lat="36.740328" lon="-3.339847">
        <ele>103.781</ele>
        <time>2021-06-16T10:48:38Z</time>
      </trkpt>
      <trkpt lat="36.740176" lon="-3.339988">
        <ele>104.421</ele>
        <time>2021-06-16T10:48:40Z</time>
      </trkpt>
      <trkpt lat="36.740059" lon="-3.340232">
        <ele>104.592</ele>
        <time>2021-06-16T10:48:42Z</time>
      </trkpt>
      <trkpt lat="36.739993" lon="-3.34036">
        <ele>104.573</ele>
        <time>2021-06-16T10:48:43Z</time>
      </trkpt>
      <trkpt lat="36.73983" lon="-3.340601">
        <ele>104.320</ele>
        <time>2021-06-16T10:48:45Z</time>
      </trkpt>
      <trkpt lat="36.739715" lon="-3.340693">
        <ele>104.808</ele>
        <time>2021-06-16T10:48:46Z</time>
      </trkpt>
      <trkpt lat="36.739585" lon="-3.340765">
        <ele>104.426</ele>
        <time>2021-06-16T10:48:47Z</time>
      </trkpt>
      <trkpt lat="36.739448" lon="-3.340823">
        <ele>103.724</ele>
        <time>2021-06-16T10:48:48Z</time>
      </trkpt>
      <trkpt lat="36.739172" lon="-3.340926">
        <ele>103.038</ele>
        <time>2021-06-16T10:48:50Z</time>
      </trkpt>
      <trkpt lat="36.739041" lon="-3.340997">
        <ele>102.437</ele>
        <time>2021-06-16T10:48:51Z</time>
      </trkpt>
      <trkpt lat="36.73892" lon="-3.341092">
        <ele>102.020</ele>
        <time>2021-06-16T10:48:52Z</time>
      </trkpt>
      <trkpt lat="36.73871" lon="-3.341338">
        <ele>101.247</ele>
        <time>2021-06-16T10:48:54Z</time>
      </trkpt>
      <trkpt lat="36.738613" lon="-3.341475">
        <ele>100.754</ele>
        <time>2021-06-16T10:48:55Z</time>
      </trkpt>
      <trkpt lat="36.738514" lon="-3.341615">
        <ele>100.214</ele>
        <time>2021-06-16T10:48:56Z</time>
      </trkpt>
      <trkpt lat="36.738314" lon="-3.34189">
        <ele>99.558</ele>
        <time>2021-06-16T10:48:58Z</time>
      </trkpt>
      <trkpt lat="36.738126" lon="-3.342153">
        <ele>98.952</ele>
        <time>2021-06-16T10:49:00Z</time>
      </trkpt>
      <trkpt lat="36.738039" lon="-3.342291">
        <ele>98.117</ele>
        <time>2021-06-16T10:49:01Z</time>
      </trkpt>
      <trkpt lat="36.737891" lon="-3.34259">
        <ele>97.008</ele>
        <time>2021-06-16T10:49:03Z</time>
      </trkpt>
      <trkpt lat="36.737819" lon="-3.342744">
        <ele>96.362</ele>
        <time>2021-06-16T10:49:04Z</time>
      </trkpt>
      <trkpt lat="36.73774" lon="-3.342895">
        <ele>95.940</ele>
        <time>2021-06-16T10:49:05Z</time>
      </trkpt>
      <trkpt lat="36.737659" lon="-3.343035">
        <ele>95.174</ele>
        <time>2021-06-16T10:49:06Z</time>
      </trkpt>
      <trkpt lat="36.737484" lon="-3.34329">
        <ele>94.463</ele>
        <time>2021-06-16T10:49:08Z</time>
      </trkpt>
      <trkpt lat="36.737395" lon="-3.343415">
        <ele>93.916</ele>
        <time>2021-06-16T10:49:09Z</time>
      </trkpt>
      <trkpt lat="36.737239" lon="-3.343679">
        <ele>92.513</ele>
        <time>2021-06-16T10:49:11Z</time>
      </trkpt>
      <trkpt lat="36.73709" lon="-3.343951">
        <ele>91.350</ele>
        <time>2021-06-16T10:49:13Z</time>
      </trkpt>
      <trkpt lat="36.737007" lon="-3.344079">
        <ele>90.410</ele>
        <time>2021-06-16T10:49:14Z</time>
      </trkpt>
      <trkpt lat="36.736907" lon="-3.344196">
        <ele>90.079</ele>
        <time>2021-06-16T10:49:15Z</time>
      </trkpt>
      <trkpt lat="36.736699" lon="-3.34442">
        <ele>89.105</ele>
        <time>2021-06-16T10:49:17Z</time>
      </trkpt>
      <trkpt lat="36.736491" lon="-3.344655">
        <ele>88.425</ele>
        <time>2021-06-16T10:49:19Z</time>
      </trkpt>
      <trkpt lat="36.736385" lon="-3.344767">
        <ele>88.008</ele>
        <time>2021-06-16T10:49:20Z</time>
      </trkpt>
      <trkpt lat="36.736202" lon="-3.34499">
        <ele>88.174</ele>
        <time>2021-06-16T10:49:22Z</time>
      </trkpt>
      <trkpt lat="36.736077" lon="-3.345261">
        <ele>87.482</ele>
        <time>2021-06-16T10:49:24Z</time>
      </trkpt>
      <trkpt lat="36.736043" lon="-3.345421">
        <ele>86.376</ele>
        <time>2021-06-16T10:49:25Z</time>
      </trkpt>
      <trkpt lat="36.736011" lon="-3.345586">
        <ele>85.345</ele>
        <time>2021-06-16T10:49:26Z</time>
      </trkpt>
      <trkpt lat="36.735894" lon="-3.345902">
        <ele>84.738</ele>
        <time>2021-06-16T10:49:28Z</time>
      </trkpt>
      <trkpt lat="36.735799" lon="-3.346037">
        <ele>83.955</ele>
        <time>2021-06-16T10:49:29Z</time>
      </trkpt>
      <trkpt lat="36.73558" lon="-3.346278">
        <ele>83.022</ele>
        <time>2021-06-16T10:49:31Z</time>
      </trkpt>
      <trkpt lat="36.735358" lon="-3.346515">
        <ele>81.962</ele>
        <time>2021-06-16T10:49:33Z</time>
      </trkpt>
      <trkpt lat="36.735243" lon="-3.346634">
        <ele>81.148</ele>
        <time>2021-06-16T10:49:34Z</time>
      </trkpt>
      <trkpt lat="36.735027" lon="-3.346883">
        <ele>79.561</ele>
        <time>2021-06-16T10:49:36Z</time>
      </trkpt>
      <trkpt lat="36.734816" lon="-3.347132">
        <ele>77.317</ele>
        <time>2021-06-16T10:49:38Z</time>
      </trkpt>
      <trkpt lat="36.734607" lon="-3.347356">
        <ele>75.108</ele>
        <time>2021-06-16T10:49:40Z</time>
      </trkpt>
      <trkpt lat="36.734499" lon="-3.347473">
        <ele>73.361</ele>
        <time>2021-06-16T10:49:41Z</time>
      </trkpt>
      <trkpt lat="36.734388" lon="-3.34759">
        <ele>71.799</ele>
        <time>2021-06-16T10:49:42Z</time>
      </trkpt>
      <trkpt lat="36.7343" lon="-3.347711">
        <ele>70.573</ele>
        <time>2021-06-16T10:49:43Z</time>
      </trkpt>
      <trkpt lat="36.73419" lon="-3.347976">
        <ele>68.872</ele>
        <time>2021-06-16T10:49:45Z</time>
      </trkpt>
      <trkpt lat="36.734167" lon="-3.348121">
        <ele>67.535</ele>
        <time>2021-06-16T10:49:46Z</time>
      </trkpt>
      <trkpt lat="36.734114" lon="-3.348396">
        <ele>65.632</ele>
        <time>2021-06-16T10:49:48Z</time>
      </trkpt>
      <trkpt lat="36.733935" lon="-3.348562">
        <ele>64.149</ele>
        <time>2021-06-16T10:49:50Z</time>
      </trkpt>
      <trkpt lat="36.733709" lon="-3.348656">
        <ele>62.419</ele>
        <time>2021-06-16T10:49:52Z</time>
      </trkpt>
      <trkpt lat="36.733541" lon="-3.348858">
        <ele>61.091</ele>
        <time>2021-06-16T10:49:54Z</time>
      </trkpt>
      <trkpt lat="36.733471" lon="-3.348986">
        <ele>60.181</ele>
        <time>2021-06-16T10:49:55Z</time>
      </trkpt>
      <trkpt lat="36.733347" lon="-3.349244">
        <ele>59.119</ele>
        <time>2021-06-16T10:49:57Z</time>
      </trkpt>
      <trkpt lat="36.733291" lon="-3.349375">
        <ele>58.308</ele>
        <time>2021-06-16T10:49:58Z</time>
      </trkpt>
      <trkpt lat="36.733255" lon="-3.349512">
        <ele>57.626</ele>
        <time>2021-06-16T10:49:59Z</time>
      </trkpt>
      <trkpt lat="36.733248" lon="-3.349655">
        <ele>57.024</ele>
        <time>2021-06-16T10:50:00Z</time>
      </trkpt>
      <trkpt lat="36.733272" lon="-3.3498">
        <ele>56.158</ele>
        <time>2021-06-16T10:50:01Z</time>
      </trkpt>
      <trkpt lat="36.733325" lon="-3.350083">
        <ele>54.857</ele>
        <time>2021-06-16T10:50:03Z</time>
      </trkpt>
      <trkpt lat="36.733317" lon="-3.35023">
        <ele>53.720</ele>
        <time>2021-06-16T10:50:04Z</time>
      </trkpt>
      <trkpt lat="36.733289" lon="-3.350377">
        <ele>52.947</ele>
        <time>2021-06-16T10:50:05Z</time>
      </trkpt>
      <trkpt lat="36.733218" lon="-3.350683">
        <ele>51.994</ele>
        <time>2021-06-16T10:50:07Z</time>
      </trkpt>
      <trkpt lat="36.733247" lon="-3.350964">
        <ele>50.344</ele>
        <time>2021-06-16T10:50:09Z</time>
      </trkpt>
      <trkpt lat="36.733302" lon="-3.351086">
        <ele>48.968</ele>
        <time>2021-06-16T10:50:10Z</time>
      </trkpt>
      <trkpt lat="36.733355" lon="-3.351322">
        <ele>47.542</ele>
        <time>2021-06-16T10:50:12Z</time>
      </trkpt>
      <trkpt lat="36.733304" lon="-3.351458">
        <ele>46.526</ele>
        <time>2021-06-16T10:50:13Z</time>
      </trkpt>
      <trkpt lat="36.733233" lon="-3.351751">
        <ele>45.008</ele>
        <time>2021-06-16T10:50:15Z</time>
      </trkpt>
      <trkpt lat="36.733336" lon="-3.351995">
        <ele>43.673</ele>
        <time>2021-06-16T10:50:17Z</time>
      </trkpt>
      <trkpt lat="36.733422" lon="-3.352088">
        <ele>42.831</ele>
        <time>2021-06-16T10:50:18Z</time>
      </trkpt>
      <trkpt lat="36.733579" lon="-3.352259">
        <ele>42.235</ele>
        <time>2021-06-16T10:50:20Z</time>
      </trkpt>
      <trkpt lat="36.733614" lon="-3.352371">
        <ele>41.284</ele>
        <time>2021-06-16T10:50:21Z</time>
      </trkpt>
      <trkpt lat="36.733581" lon="-3.352609">
        <ele>40.457</ele>
        <time>2021-06-16T10:50:23Z</time>
      </trkpt>
      <trkpt lat="36.733426" lon="-3.352838">
        <ele>38.934</ele>
        <time>2021-06-16T10:50:25Z</time>
      </trkpt>
      <trkpt lat="36.733175" lon="-3.352996">
        <ele>37.341</ele>
        <time>2021-06-16T10:50:27Z</time>
      </trkpt>
      <trkpt lat="36.733034" lon="-3.353045">
        <ele>36.541</ele>
        <time>2021-06-16T10:50:28Z</time>
      </trkpt>
      <trkpt lat="36.732901" lon="-3.353101">
        <ele>35.556</ele>
        <time>2021-06-16T10:50:29Z</time>
      </trkpt>
      <trkpt lat="36.732647" lon="-3.353227">
        <ele>34.259</ele>
        <time>2021-06-16T10:50:31Z</time>
      </trkpt>
      <trkpt lat="36.732524" lon="-3.35329">
        <ele>33.014</ele>
        <time>2021-06-16T10:50:32Z</time>
      </trkpt>
      <trkpt lat="36.732403" lon="-3.353352">
        <ele>31.608</ele>
        <time>2021-06-16T10:50:33Z</time>
      </trkpt>
      <trkpt lat="36.732183" lon="-3.353451">
        <ele>30.332</ele>
        <time>2021-06-16T10:50:35Z</time>
      </trkpt>
      <trkpt lat="36.732032" lon="-3.353589">
        <ele>29.580</ele>
        <time>2021-06-16T10:50:37Z</time>
      </trkpt>
      <trkpt lat="36.732007" lon="-3.353697">
        <ele>28.434</ele>
        <time>2021-06-16T10:50:38Z</time>
      </trkpt>
      <trkpt lat="36.732014" lon="-3.353825">
        <ele>27.673</ele>
        <time>2021-06-16T10:50:39Z</time>
      </trkpt>
      <trkpt lat="36.732059" lon="-3.354093">
        <ele>26.756</ele>
        <time>2021-06-16T10:50:41Z</time>
      </trkpt>
      <trkpt lat="36.732063" lon="-3.35423">
        <ele>26.133</ele>
        <time>2021-06-16T10:50:42Z</time>
      </trkpt>
      <trkpt lat="36.731977" lon="-3.354486">
        <ele>25.680</ele>
        <time>2021-06-16T10:50:44Z</time>
      </trkpt>
      <trkpt lat="36.731891" lon="-3.354598">
        <ele>25.470</ele>
        <time>2021-06-16T10:50:45Z</time>
      </trkpt>
      <trkpt lat="36.73168" lon="-3.354771">
        <ele>25.317</ele>
        <time>2021-06-16T10:50:47Z</time>
      </trkpt>
      <trkpt lat="36.731454" lon="-3.354816">
        <ele>24.687</ele>
        <time>2021-06-16T10:50:49Z</time>
      </trkpt>
      <trkpt lat="36.731226" lon="-3.354801">
        <ele>23.915</ele>
        <time>2021-06-16T10:50:51Z</time>
      </trkpt>
      <trkpt lat="36.731" lon="-3.354777">
        <ele>22.808</ele>
        <time>2021-06-16T10:50:53Z</time>
      </trkpt>
      <trkpt lat="36.730886" lon="-3.354759">
        <ele>21.618</ele>
        <time>2021-06-16T10:50:54Z</time>
      </trkpt>
      <trkpt lat="36.730669" lon="-3.354714">
        <ele>20.676</ele>
        <time>2021-06-16T10:50:56Z</time>
      </trkpt>
      <trkpt lat="36.730569" lon="-3.354694">
        <ele>19.530</ele>
        <time>2021-06-16T10:50:57Z</time>
      </trkpt>
      <trkpt lat="36.7304" lon="-3.354667">
        <ele>18.559</ele>
        <time>2021-06-16T10:50:59Z</time>
      </trkpt>
      <trkpt lat="36.730274" lon="-3.354661">
        <ele>17.462</ele>
        <time>2021-06-16T10:51:01Z</time>
      </trkpt>
      <trkpt lat="36.730181" lon="-3.354748">
        <ele>17.219</ele>
        <time>2021-06-16T10:51:03Z</time>
      </trkpt>
      <trkpt lat="36.730138" lon="-3.354904">
        <ele>17.446</ele>
        <time>2021-06-16T10:51:05Z</time>
      </trkpt>
      <trkpt lat="36.730141" lon="-3.355105">
        <ele>17.976</ele>
        <time>2021-06-16T10:51:07Z</time>
      </trkpt>
      <trkpt lat="36.730167" lon="-3.355213">
        <ele>18.652</ele>
        <time>2021-06-16T10:51:08Z</time>
      </trkpt>
      <trkpt lat="36.730252" lon="-3.355436">
        <ele>19.353</ele>
        <time>2021-06-16T10:51:10Z</time>
      </trkpt>
      <trkpt lat="36.730298" lon="-3.355555">
        <ele>19.708</ele>
        <time>2021-06-16T10:51:11Z</time>
      </trkpt>
      <trkpt lat="36.730341" lon="-3.35568">
        <ele>19.808</ele>
        <time>2021-06-16T10:51:12Z</time>
      </trkpt>
      <trkpt lat="36.730417" lon="-3.355943">
        <ele>21.032</ele>
        <time>2021-06-16T10:51:14Z</time>
      </trkpt>
      <trkpt lat="36.730503" lon="-3.356231">
        <ele>22.350</ele>
        <time>2021-06-16T10:51:16Z</time>
      </trkpt>
      <trkpt lat="36.730596" lon="-3.356522">
        <ele>23.594</ele>
        <time>2021-06-16T10:51:18Z</time>
      </trkpt>
      <trkpt lat="36.730641" lon="-3.356661">
        <ele>24.253</ele>
        <time>2021-06-16T10:51:19Z</time>
      </trkpt>
      <trkpt lat="36.730726" lon="-3.356912">
        <ele>25.386</ele>
        <time>2021-06-16T10:51:21Z</time>
      </trkpt>
      <trkpt lat="36.730768" lon="-3.357024">
        <ele>26.053</ele>
        <time>2021-06-16T10:51:22Z</time>
      </trkpt>
      <trkpt lat="36.73081" lon="-3.357125">
        <ele>26.690</ele>
        <time>2021-06-16T10:51:23Z</time>
      </trkpt>
      <trkpt lat="36.730935" lon="-3.357262">
        <ele>26.270</ele>
        <time>2021-06-16T10:51:25Z</time>
      </trkpt>
      <trkpt lat="36.731008" lon="-3.357309">
        <ele>26.019</ele>
        <time>2021-06-16T10:51:26Z</time>
      </trkpt>
      <trkpt lat="36.731142" lon="-3.357326">
        <ele>25.709</ele>
        <time>2021-06-16T10:51:28Z</time>
      </trkpt>
      <trkpt lat="36.731203" lon="-3.357334">
        <ele>25.619</ele>
        <time>2021-06-16T10:51:29Z</time>
      </trkpt>
      <trkpt lat="36.731326" lon="-3.357307">
        <ele>25.808</ele>
        <time>2021-06-16T10:51:31Z</time>
      </trkpt>
      <trkpt lat="36.731392" lon="-3.357262">
        <ele>26.648</ele>
        <time>2021-06-16T10:51:32Z</time>
      </trkpt>
      <trkpt lat="36.731528" lon="-3.357151">
        <ele>27.476</ele>
        <time>2021-06-16T10:51:34Z</time>
      </trkpt>
      <trkpt lat="36.731601" lon="-3.357087">
        <ele>28.150</ele>
        <time>2021-06-16T10:51:35Z</time>
      </trkpt>
      <trkpt lat="36.731675" lon="-3.357025">
        <ele>28.949</ele>
        <time>2021-06-16T10:51:36Z</time>
      </trkpt>
      <trkpt lat="36.731746" lon="-3.356955">
        <ele>29.672</ele>
        <time>2021-06-16T10:51:37Z</time>
      </trkpt>
      <trkpt lat="36.731828" lon="-3.356756">
        <ele>30.479</ele>
        <time>2021-06-16T10:51:39Z</time>
      </trkpt>
      <trkpt lat="36.731808" lon="-3.356512">
        <ele>31.176</ele>
        <time>2021-06-16T10:51:41Z</time>
      </trkpt>
      <trkpt lat="36.731682" lon="-3.356313">
        <ele>31.486</ele>
        <time>2021-06-16T10:51:43Z</time>
      </trkpt>
      <trkpt lat="36.731585" lon="-3.356256">
        <ele>31.515</ele>
        <time>2021-06-16T10:51:44Z</time>
      </trkpt>
      <trkpt lat="36.731371" lon="-3.356238">
        <ele>31.765</ele>
        <time>2021-06-16T10:51:46Z</time>
      </trkpt>
      <trkpt lat="36.731196" lon="-3.35637">
        <ele>32.111</ele>
        <time>2021-06-16T10:51:48Z</time>
      </trkpt>
      <trkpt lat="36.731122" lon="-3.356473">
        <ele>32.308</ele>
        <time>2021-06-16T10:51:49Z</time>
      </trkpt>
      <trkpt lat="36.731047" lon="-3.356581">
        <ele>32.398</ele>
        <time>2021-06-16T10:51:50Z</time>
      </trkpt>
      <trkpt lat="36.730887" lon="-3.356806">
        <ele>32.246</ele>
        <time>2021-06-16T10:51:52Z</time>
      </trkpt>
      <trkpt lat="36.730714" lon="-3.357066">
        <ele>32.050</ele>
        <time>2021-06-16T10:51:54Z</time>
      </trkpt>
      <trkpt lat="36.730619" lon="-3.3572">
        <ele>32.049</ele>
        <time>2021-06-16T10:51:55Z</time>
      </trkpt>
      <trkpt lat="36.730423" lon="-3.357479">
        <ele>31.562</ele>
        <time>2021-06-16T10:51:57Z</time>
      </trkpt>
      <trkpt lat="36.730226" lon="-3.357765">
        <ele>31.429</ele>
        <time>2021-06-16T10:51:59Z</time>
      </trkpt>
      <trkpt lat="36.730126" lon="-3.357913">
        <ele>31.446</ele>
        <time>2021-06-16T10:52:00Z</time>
      </trkpt>
      <trkpt lat="36.729906" lon="-3.358207">
        <ele>31.386</ele>
        <time>2021-06-16T10:52:02Z</time>
      </trkpt>
      <trkpt lat="36.729784" lon="-3.358357">
        <ele>31.283</ele>
        <time>2021-06-16T10:52:03Z</time>
      </trkpt>
      <trkpt lat="36.729654" lon="-3.358506">
        <ele>31.125</ele>
        <time>2021-06-16T10:52:04Z</time>
      </trkpt>
      <trkpt lat="36.729514" lon="-3.358647">
        <ele>30.617</ele>
        <time>2021-06-16T10:52:05Z</time>
      </trkpt>
      <trkpt lat="36.729217" lon="-3.358907">
        <ele>30.308</ele>
        <time>2021-06-16T10:52:07Z</time>
      </trkpt>
      <trkpt lat="36.72906" lon="-3.359028">
        <ele>29.775</ele>
        <time>2021-06-16T10:52:08Z</time>
      </trkpt>
      <trkpt lat="36.728739" lon="-3.359253">
        <ele>28.773</ele>
        <time>2021-06-16T10:52:10Z</time>
      </trkpt>
      <trkpt lat="36.728398" lon="-3.359455">
        <ele>27.917</ele>
        <time>2021-06-16T10:52:12Z</time>
      </trkpt>
      <trkpt lat="36.728046" lon="-3.359611">
        <ele>27.426</ele>
        <time>2021-06-16T10:52:14Z</time>
      </trkpt>
      <trkpt lat="36.727684" lon="-3.359725">
        <ele>26.489</ele>
        <time>2021-06-16T10:52:16Z</time>
      </trkpt>
      <trkpt lat="36.727316" lon="-3.35981">
        <ele>25.586</ele>
        <time>2021-06-16T10:52:18Z</time>
      </trkpt>
      <trkpt lat="36.726953" lon="-3.35989">
        <ele>24.593</ele>
        <time>2021-06-16T10:52:20Z</time>
      </trkpt>
      <trkpt lat="36.726773" lon="-3.359933">
        <ele>23.973</ele>
        <time>2021-06-16T10:52:21Z</time>
      </trkpt>
      <trkpt lat="36.72642" lon="-3.360033">
        <ele>23.145</ele>
        <time>2021-06-16T10:52:23Z</time>
      </trkpt>
      <trkpt lat="36.726082" lon="-3.360165">
        <ele>22.147</ele>
        <time>2021-06-16T10:52:25Z</time>
      </trkpt>
      <trkpt lat="36.72592" lon="-3.360246">
        <ele>21.411</ele>
        <time>2021-06-16T10:52:26Z</time>
      </trkpt>
      <trkpt lat="36.725761" lon="-3.360337">
        <ele>20.908</ele>
        <time>2021-06-16T10:52:27Z</time>
      </trkpt>
      <trkpt lat="36.72546" lon="-3.360557">
        <ele>20.681</ele>
        <time>2021-06-16T10:52:29Z</time>
      </trkpt>
      <trkpt lat="36.725163" lon="-3.360806">
        <ele>19.939</ele>
        <time>2021-06-16T10:52:31Z</time>
      </trkpt>
      <trkpt lat="36.724871" lon="-3.361077">
        <ele>19.473</ele>
        <time>2021-06-16T10:52:33Z</time>
      </trkpt>
      <trkpt lat="36.724585" lon="-3.361368">
        <ele>18.622</ele>
        <time>2021-06-16T10:52:35Z</time>
      </trkpt>
      <trkpt lat="36.724441" lon="-3.36152">
        <ele>17.745</ele>
        <time>2021-06-16T10:52:36Z</time>
      </trkpt>
      <trkpt lat="36.724151" lon="-3.361826">
        <ele>16.642</ele>
        <time>2021-06-16T10:52:38Z</time>
      </trkpt>
      <trkpt lat="36.724005" lon="-3.361979">
        <ele>15.559</ele>
        <time>2021-06-16T10:52:39Z</time>
      </trkpt>
      <trkpt lat="36.723856" lon="-3.36213">
        <ele>14.649</ele>
        <time>2021-06-16T10:52:40Z</time>
      </trkpt>
      <trkpt lat="36.72357" lon="-3.362429">
        <ele>14.057</ele>
        <time>2021-06-16T10:52:42Z</time>
      </trkpt>
      <trkpt lat="36.723426" lon="-3.362574">
        <ele>13.300</ele>
        <time>2021-06-16T10:52:43Z</time>
      </trkpt>
      <trkpt lat="36.72328" lon="-3.362718">
        <ele>12.520</ele>
        <time>2021-06-16T10:52:44Z</time>
      </trkpt>
      <trkpt lat="36.723133" lon="-3.362862">
        <ele>12.108</ele>
        <time>2021-06-16T10:52:45Z</time>
      </trkpt>
      <trkpt lat="36.722984" lon="-3.363008">
        <ele>11.512</ele>
        <time>2021-06-16T10:52:46Z</time>
      </trkpt>
      <trkpt lat="36.722694" lon="-3.363298">
        <ele>10.870</ele>
        <time>2021-06-16T10:52:48Z</time>
      </trkpt>
      <trkpt lat="36.722554" lon="-3.363443">
        <ele>10.294</ele>
        <time>2021-06-16T10:52:49Z</time>
      </trkpt>
      <trkpt lat="36.72228" lon="-3.363728">
        <ele>9.993</ele>
        <time>2021-06-16T10:52:51Z</time>
      </trkpt>
      <trkpt lat="36.722144" lon="-3.363866">
        <ele>9.666</ele>
        <time>2021-06-16T10:52:52Z</time>
      </trkpt>
      <trkpt lat="36.72187" lon="-3.364144">
        <ele>9.533</ele>
        <time>2021-06-16T10:52:54Z</time>
      </trkpt>
      <trkpt lat="36.721587" lon="-3.36442">
        <ele>9.480</ele>
        <time>2021-06-16T10:52:56Z</time>
      </trkpt>
      <trkpt lat="36.7213" lon="-3.364683">
        <ele>9.160</ele>
        <time>2021-06-16T10:52:58Z</time>
      </trkpt>
      <trkpt lat="36.721156" lon="-3.364812">
        <ele>9.092</ele>
        <time>2021-06-16T10:52:59Z</time>
      </trkpt>
      <trkpt lat="36.720844" lon="-3.365029">
        <ele>9.273</ele>
        <time>2021-06-16T10:53:01Z</time>
      </trkpt>
      <trkpt lat="36.72049" lon="-3.365132">
        <ele>10.520</ele>
        <time>2021-06-16T10:53:03Z</time>
      </trkpt>
      <trkpt lat="36.720118" lon="-3.365128">
        <ele>11.508</ele>
        <time>2021-06-16T10:53:05Z</time>
      </trkpt>
      <trkpt lat="36.719747" lon="-3.365017">
        <ele>12.556</ele>
        <time>2021-06-16T10:53:07Z</time>
      </trkpt>
      <trkpt lat="36.719568" lon="-3.364927">
        <ele>13.084</ele>
        <time>2021-06-16T10:53:08Z</time>
      </trkpt>
      <trkpt lat="36.719229" lon="-3.364674">
        <ele>14.368</ele>
        <time>2021-06-16T10:53:10Z</time>
      </trkpt>
      <trkpt lat="36.719064" lon="-3.364532">
        <ele>15.737</ele>
        <time>2021-06-16T10:53:11Z</time>
      </trkpt>
      <trkpt lat="36.718901" lon="-3.364391">
        <ele>16.980</ele>
        <time>2021-06-16T10:53:12Z</time>
      </trkpt>
      <trkpt lat="36.718587" lon="-3.364121">
        <ele>18.277</ele>
        <time>2021-06-16T10:53:14Z</time>
      </trkpt>
      <trkpt lat="36.718293" lon="-3.363843">
        <ele>19.894</ele>
        <time>2021-06-16T10:53:16Z</time>
      </trkpt>
      <trkpt lat="36.718002" lon="-3.363566">
        <ele>21.894</ele>
        <time>2021-06-16T10:53:18Z</time>
      </trkpt>
      <trkpt lat="36.717725" lon="-3.363311">
        <ele>24.097</ele>
        <time>2021-06-16T10:53:20Z</time>
      </trkpt>
      <trkpt lat="36.717442" lon="-3.363143">
        <ele>25.723</ele>
        <time>2021-06-16T10:53:22Z</time>
      </trkpt>
      <trkpt lat="36.717292" lon="-3.363116">
        <ele>27.325</ele>
        <time>2021-06-16T10:53:23Z</time>
      </trkpt>
      <trkpt lat="36.716981" lon="-3.363152">
        <ele>28.508</ele>
        <time>2021-06-16T10:53:25Z</time>
      </trkpt>
      <trkpt lat="36.716835" lon="-3.363232">
        <ele>30.186</ele>
        <time>2021-06-16T10:53:26Z</time>
      </trkpt>
      <trkpt lat="36.716735" lon="-3.363404">
        <ele>32.064</ele>
        <time>2021-06-16T10:53:27Z</time>
      </trkpt>
      <trkpt lat="36.716607" lon="-3.363842">
        <ele>34.198</ele>
        <time>2021-06-16T10:53:29Z</time>
      </trkpt>
      <trkpt lat="36.716558" lon="-3.364061">
        <ele>35.667</ele>
        <time>2021-06-16T10:53:30Z</time>
      </trkpt>
      <trkpt lat="36.716444" lon="-3.364482">
        <ele>37.820</ele>
        <time>2021-06-16T10:53:32Z</time>
      </trkpt>
      <trkpt lat="36.716376" lon="-3.364684">
        <ele>39.417</ele>
        <time>2021-06-16T10:53:33Z</time>
      </trkpt>
      <trkpt lat="36.716251" lon="-3.365081">
        <ele>41.644</ele>
        <time>2021-06-16T10:53:35Z</time>
      </trkpt>
      <trkpt lat="36.716096" lon="-3.365443">
        <ele>42.854</ele>
        <time>2021-06-16T10:53:37Z</time>
      </trkpt>
      <trkpt lat="36.715968" lon="-3.365577">
        <ele>44.518</ele>
        <time>2021-06-16T10:53:38Z</time>
      </trkpt>
      <trkpt lat="36.71566" lon="-3.365727">
        <ele>47.298</ele>
        <time>2021-06-16T10:53:40Z</time>
      </trkpt>
      <trkpt lat="36.715494" lon="-3.365753">
        <ele>49.317</ele>
        <time>2021-06-16T10:53:41Z</time>
      </trkpt>
      <trkpt lat="36.715173" lon="-3.365813">
        <ele>51.408</ele>
        <time>2021-06-16T10:53:43Z</time>
      </trkpt>
      <trkpt lat="36.714913" lon="-3.366006">
        <ele>54.068</ele>
        <time>2021-06-16T10:53:45Z</time>
      </trkpt>
      <trkpt lat="36.714765" lon="-3.366349">
        <ele>57.676</ele>
        <time>2021-06-16T10:53:47Z</time>
      </trkpt>
      <trkpt lat="36.714754" lon="-3.366753">
        <ele>60.630</ele>
        <time>2021-06-16T10:53:49Z</time>
      </trkpt>
      <trkpt lat="36.714784" lon="-3.366958">
        <ele>62.649</ele>
        <time>2021-06-16T10:53:50Z</time>
      </trkpt>
      <trkpt lat="36.714826" lon="-3.367164">
        <ele>64.042</ele>
        <time>2021-06-16T10:53:51Z</time>
      </trkpt>
      <trkpt lat="36.714927" lon="-3.367558">
        <ele>66.369</ele>
        <time>2021-06-16T10:53:53Z</time>
      </trkpt>
      <trkpt lat="36.715018" lon="-3.367961">
        <ele>68.396</ele>
        <time>2021-06-16T10:53:55Z</time>
      </trkpt>
      <trkpt lat="36.715105" lon="-3.368381">
        <ele>70.026</ele>
        <time>2021-06-16T10:53:57Z</time>
      </trkpt>
      <trkpt lat="36.715146" lon="-3.368586">
        <ele>72.033</ele>
        <time>2021-06-16T10:53:58Z</time>
      </trkpt>
      <trkpt lat="36.715227" lon="-3.369">
        <ele>74.423</ele>
        <time>2021-06-16T10:54:00Z</time>
      </trkpt>
      <trkpt lat="36.715266" lon="-3.369195">
        <ele>75.815</ele>
        <time>2021-06-16T10:54:01Z</time>
      </trkpt>
      <trkpt lat="36.715276" lon="-3.369397">
        <ele>77.108</ele>
        <time>2021-06-16T10:54:02Z</time>
      </trkpt>
      <trkpt lat="36.715197" lon="-3.369809">
        <ele>78.750</ele>
        <time>2021-06-16T10:54:04Z</time>
      </trkpt>
      <trkpt lat="36.715129" lon="-3.369999">
        <ele>79.978</ele>
        <time>2021-06-16T10:54:05Z</time>
      </trkpt>
      <trkpt lat="36.715018" lon="-3.37037">
        <ele>81.892</ele>
        <time>2021-06-16T10:54:07Z</time>
      </trkpt>
      <trkpt lat="36.715017" lon="-3.370564">
        <ele>82.841</ele>
        <time>2021-06-16T10:54:08Z</time>
      </trkpt>
      <trkpt lat="36.715054" lon="-3.370753">
        <ele>84.334</ele>
        <time>2021-06-16T10:54:09Z</time>
      </trkpt>
      <trkpt lat="36.715118" lon="-3.370935">
        <ele>86.021</ele>
        <time>2021-06-16T10:54:10Z</time>
      </trkpt>
      <trkpt lat="36.715295" lon="-3.371255">
        <ele>88.078</ele>
        <time>2021-06-16T10:54:12Z</time>
      </trkpt>
      <trkpt lat="36.715402" lon="-3.371393">
        <ele>90.428</ele>
        <time>2021-06-16T10:54:13Z</time>
      </trkpt>
      <trkpt lat="36.715492" lon="-3.371546">
        <ele>92.236</ele>
        <time>2021-06-16T10:54:14Z</time>
      </trkpt>
      <trkpt lat="36.715565" lon="-3.371714">
        <ele>93.417</ele>
        <time>2021-06-16T10:54:15Z</time>
      </trkpt>
      <trkpt lat="36.715651" lon="-3.37209">
        <ele>93.918</ele>
        <time>2021-06-16T10:54:17Z</time>
      </trkpt>
      <trkpt lat="36.715658" lon="-3.372287">
        <ele>95.508</ele>
        <time>2021-06-16T10:54:18Z</time>
      </trkpt>
      <trkpt lat="36.715656" lon="-3.372673">
        <ele>96.690</ele>
        <time>2021-06-16T10:54:20Z</time>
      </trkpt>
      <trkpt lat="36.715634" lon="-3.373087">
        <ele>98.328</ele>
        <time>2021-06-16T10:54:22Z</time>
      </trkpt>
      <trkpt lat="36.715617" lon="-3.373497">
        <ele>100.592</ele>
        <time>2021-06-16T10:54:24Z</time>
      </trkpt>
      <trkpt lat="36.7156" lon="-3.37391">
        <ele>102.881</ele>
        <time>2021-06-16T10:54:26Z</time>
      </trkpt>
      <trkpt lat="36.715595" lon="-3.374116">
        <ele>105.054</ele>
        <time>2021-06-16T10:54:27Z</time>
      </trkpt>
      <trkpt lat="36.71561" lon="-3.374517">
        <ele>107.051</ele>
        <time>2021-06-16T10:54:29Z</time>
      </trkpt>
      <trkpt lat="36.715685" lon="-3.374907">
        <ele>109.028</ele>
        <time>2021-06-16T10:54:31Z</time>
      </trkpt>
      <trkpt lat="36.715753" lon="-3.375097">
        <ele>110.998</ele>
        <time>2021-06-16T10:54:32Z</time>
      </trkpt>
      <trkpt lat="36.71582" lon="-3.375288">
        <ele>112.769</ele>
        <time>2021-06-16T10:54:33Z</time>
      </trkpt>
      <trkpt lat="36.715908" lon="-3.375681">
        <ele>113.704</ele>
        <time>2021-06-16T10:54:35Z</time>
      </trkpt>
      <trkpt lat="36.715903" lon="-3.376095">
        <ele>114.724</ele>
        <time>2021-06-16T10:54:37Z</time>
      </trkpt>
      <trkpt lat="36.715819" lon="-3.376509">
        <ele>116.308</ele>
        <time>2021-06-16T10:54:39Z</time>
      </trkpt>
      <trkpt lat="36.715642" lon="-3.37691">
        <ele>118.413</ele>
        <time>2021-06-16T10:54:41Z</time>
      </trkpt>
      <trkpt lat="36.715544" lon="-3.377108">
        <ele>120.451</ele>
        <time>2021-06-16T10:54:42Z</time>
      </trkpt>
      <trkpt lat="36.715452" lon="-3.377302">
        <ele>121.815</ele>
        <time>2021-06-16T10:54:43Z</time>
      </trkpt>
      <trkpt lat="36.715269" lon="-3.377698">
        <ele>123.024</ele>
        <time>2021-06-16T10:54:45Z</time>
      </trkpt>
      <trkpt lat="36.71511" lon="-3.378097">
        <ele>123.627</ele>
        <time>2021-06-16T10:54:47Z</time>
      </trkpt>
      <trkpt lat="36.715036" lon="-3.37829">
        <ele>123.944</ele>
        <time>2021-06-16T10:54:48Z</time>
      </trkpt>
      <trkpt lat="36.71488" lon="-3.378657">
        <ele>124.431</ele>
        <time>2021-06-16T10:54:50Z</time>
      </trkpt>
      <trkpt lat="36.714732" lon="-3.379006">
        <ele>124.221</ele>
        <time>2021-06-16T10:54:52Z</time>
      </trkpt>
      <trkpt lat="36.71466" lon="-3.379174">
        <ele>124.561</ele>
        <time>2021-06-16T10:54:53Z</time>
      </trkpt>
      <trkpt lat="36.714515" lon="-3.379518">
        <ele>124.121</ele>
        <time>2021-06-16T10:54:55Z</time>
      </trkpt>
      <trkpt lat="36.714387" lon="-3.3799">
        <ele>123.913</ele>
        <time>2021-06-16T10:54:57Z</time>
      </trkpt>
      <trkpt lat="36.714284" lon="-3.380311">
        <ele>123.808</ele>
        <time>2021-06-16T10:54:59Z</time>
      </trkpt>
      <trkpt lat="36.713854" lon="-3.383782">
        <ele>120.053</ele>
        <time>2021-06-16T10:55:16Z</time>
      </trkpt>
      <trkpt lat="36.713573" lon="-3.384046">
        <ele>116.251</ele>
        <time>2021-06-16T10:55:18Z</time>
      </trkpt>
      <trkpt lat="36.7133" lon="-3.384313">
        <ele>112.775</ele>
        <time>2021-06-16T10:55:20Z</time>
      </trkpt>
      <trkpt lat="36.713031" lon="-3.38459">
        <ele>109.834</ele>
        <time>2021-06-16T10:55:22Z</time>
      </trkpt>
      <trkpt lat="36.712916" lon="-3.38474">
        <ele>107.957</ele>
        <time>2021-06-16T10:55:23Z</time>
      </trkpt>
      <trkpt lat="36.712822" lon="-3.384899">
        <ele>106.794</ele>
        <time>2021-06-16T10:55:24Z</time>
      </trkpt>
      <trkpt lat="36.712715" lon="-3.385265">
        <ele>104.561</ele>
        <time>2021-06-16T10:55:26Z</time>
      </trkpt>
      <trkpt lat="36.712689" lon="-3.385466">
        <ele>102.941</ele>
        <time>2021-06-16T10:55:27Z</time>
      </trkpt>
      <trkpt lat="36.712688" lon="-3.385679">
        <ele>101.059</ele>
        <time>2021-06-16T10:55:28Z</time>
      </trkpt>
      <trkpt lat="36.712713" lon="-3.385893">
        <ele>99.303</ele>
        <time>2021-06-16T10:55:29Z</time>
      </trkpt>
      <trkpt lat="36.712797" lon="-3.386319">
        <ele>97.223</ele>
        <time>2021-06-16T10:55:31Z</time>
      </trkpt>
      <trkpt lat="36.712825" lon="-3.386758">
        <ele>95.508</ele>
        <time>2021-06-16T10:55:33Z</time>
      </trkpt>
      <trkpt lat="36.71275" lon="-3.387181">
        <ele>93.742</ele>
        <time>2021-06-16T10:55:35Z</time>
      </trkpt>
      <trkpt lat="36.712692" lon="-3.387391">
        <ele>91.820</ele>
        <time>2021-06-16T10:55:36Z</time>
      </trkpt>
      <trkpt lat="36.712621" lon="-3.387825">
        <ele>89.524</ele>
        <time>2021-06-16T10:55:38Z</time>
      </trkpt>
      <trkpt lat="36.71263" lon="-3.388044">
        <ele>88.043</ele>
        <time>2021-06-16T10:55:39Z</time>
      </trkpt>
      <trkpt lat="36.712727" lon="-3.388464">
        <ele>86.086</ele>
        <time>2021-06-16T10:55:41Z</time>
      </trkpt>
      <trkpt lat="36.712877" lon="-3.388859">
        <ele>84.353</ele>
        <time>2021-06-16T10:55:43Z</time>
      </trkpt>
      <trkpt lat="36.712957" lon="-3.389043">
        <ele>82.570</ele>
        <time>2021-06-16T10:55:44Z</time>
      </trkpt>
      <trkpt lat="36.713022" lon="-3.389415">
        <ele>81.160</ele>
        <time>2021-06-16T10:55:46Z</time>
      </trkpt>
      <trkpt lat="36.712919" lon="-3.389765">
        <ele>79.375</ele>
        <time>2021-06-16T10:55:48Z</time>
      </trkpt>
      <trkpt lat="36.712827" lon="-3.389897">
        <ele>77.828</ele>
        <time>2021-06-16T10:55:49Z</time>
      </trkpt>
      <trkpt lat="36.712708" lon="-3.390018">
        <ele>76.120</ele>
        <time>2021-06-16T10:55:50Z</time>
      </trkpt>
      <trkpt lat="36.712581" lon="-3.390119">
        <ele>74.608</ele>
        <time>2021-06-16T10:55:51Z</time>
      </trkpt>
      <trkpt lat="36.712266" lon="-3.390132">
        <ele>73.454</ele>
        <time>2021-06-16T10:55:53Z</time>
      </trkpt>
      <trkpt lat="36.712061" lon="-3.390021">
        <ele>72.892</ele>
        <time>2021-06-16T10:55:54Z</time>
      </trkpt>
      <trkpt lat="36.711862" lon="-3.389894">
        <ele>71.956</ele>
        <time>2021-06-16T10:55:55Z</time>
      </trkpt>
      <trkpt lat="36.711484" lon="-3.38975">
        <ele>69.195</ele>
        <time>2021-06-16T10:55:57Z</time>
      </trkpt>
      <trkpt lat="36.711117" lon="-3.38977">
        <ele>66.078</ele>
        <time>2021-06-16T10:55:59Z</time>
      </trkpt>
      <trkpt lat="36.710945" lon="-3.389838">
        <ele>63.595</ele>
        <time>2021-06-16T10:56:00Z</time>
      </trkpt>
      <trkpt lat="36.710787" lon="-3.389947">
        <ele>61.392</ele>
        <time>2021-06-16T10:56:01Z</time>
      </trkpt>
      <trkpt lat="36.710531" lon="-3.390253">
        <ele>59.832</ele>
        <time>2021-06-16T10:56:03Z</time>
      </trkpt>
      <trkpt lat="36.710443" lon="-3.390455">
        <ele>58.136</ele>
        <time>2021-06-16T10:56:04Z</time>
      </trkpt>
      <trkpt lat="36.710342" lon="-3.390901">
        <ele>55.617</ele>
        <time>2021-06-16T10:56:06Z</time>
      </trkpt>
      <trkpt lat="36.710342" lon="-3.391135">
        <ele>53.818</ele>
        <time>2021-06-16T10:56:07Z</time>
      </trkpt>
      <trkpt lat="36.710374" lon="-3.391613">
        <ele>51.508</ele>
        <time>2021-06-16T10:56:09Z</time>
      </trkpt>
      <trkpt lat="36.710354" lon="-3.392077">
        <ele>49.370</ele>
        <time>2021-06-16T10:56:11Z</time>
      </trkpt>
      <trkpt lat="36.710297" lon="-3.392297">
        <ele>47.518</ele>
        <time>2021-06-16T10:56:12Z</time>
      </trkpt>
      <trkpt lat="36.710068" lon="-3.392646">
        <ele>45.992</ele>
        <time>2021-06-16T10:56:14Z</time>
      </trkpt>
      <trkpt lat="36.70974" lon="-3.392824">
        <ele>44.561</ele>
        <time>2021-06-16T10:56:16Z</time>
      </trkpt>
      <trkpt lat="36.709386" lon="-3.392902">
        <ele>43.414</ele>
        <time>2021-06-16T10:56:18Z</time>
      </trkpt>
      <trkpt lat="36.709049" lon="-3.393009">
        <ele>42.571</ele>
        <time>2021-06-16T10:56:20Z</time>
      </trkpt>
      <trkpt lat="36.708892" lon="-3.393098">
        <ele>41.738</ele>
        <time>2021-06-16T10:56:21Z</time>
      </trkpt>
      <trkpt lat="36.708749" lon="-3.393213">
        <ele>41.158</ele>
        <time>2021-06-16T10:56:22Z</time>
      </trkpt>
      <trkpt lat="36.708619" lon="-3.393348">
        <ele>41.123</ele>
        <time>2021-06-16T10:56:23Z</time>
      </trkpt>
      <trkpt lat="36.708505" lon="-3.393499">
        <ele>40.883</ele>
        <time>2021-06-16T10:56:24Z</time>
      </trkpt>
      <trkpt lat="36.708405" lon="-3.393665">
        <ele>41.011</ele>
        <time>2021-06-16T10:56:25Z</time>
      </trkpt>
      <trkpt lat="36.708253" lon="-3.394037">
        <ele>41.108</ele>
        <time>2021-06-16T10:56:27Z</time>
      </trkpt>
      <trkpt lat="36.708208" lon="-3.394238">
        <ele>41.069</ele>
        <time>2021-06-16T10:56:28Z</time>
      </trkpt>
      <trkpt lat="36.708177" lon="-3.394442">
        <ele>40.867</ele>
        <time>2021-06-16T10:56:29Z</time>
      </trkpt>
      <trkpt lat="36.708158" lon="-3.39465">
        <ele>40.971</ele>
        <time>2021-06-16T10:56:30Z</time>
      </trkpt>
      <trkpt lat="36.70815" lon="-3.394858">
        <ele>41.280</ele>
        <time>2021-06-16T10:56:31Z</time>
      </trkpt>
      <trkpt lat="36.708148" lon="-3.395284">
        <ele>41.913</ele>
        <time>2021-06-16T10:56:33Z</time>
      </trkpt>
      <trkpt lat="36.708143" lon="-3.395502">
        <ele>42.410</ele>
        <time>2021-06-16T10:56:34Z</time>
      </trkpt>
      <trkpt lat="36.708116" lon="-3.395939">
        <ele>43.297</ele>
        <time>2021-06-16T10:56:36Z</time>
      </trkpt>
      <trkpt lat="36.708092" lon="-3.39638">
        <ele>44.177</ele>
        <time>2021-06-16T10:56:38Z</time>
      </trkpt>
      <trkpt lat="36.708072" lon="-3.396808">
        <ele>46.016</ele>
        <time>2021-06-16T10:56:40Z</time>
      </trkpt>
      <trkpt lat="36.708006" lon="-3.397209">
        <ele>47.076</ele>
        <time>2021-06-16T10:56:42Z</time>
      </trkpt>
      <trkpt lat="36.707805" lon="-3.397551">
        <ele>48.213</ele>
        <time>2021-06-16T10:56:44Z</time>
      </trkpt>
      <trkpt lat="36.70755" lon="-3.397836">
        <ele>49.208</ele>
        <time>2021-06-16T10:56:46Z</time>
      </trkpt>
      <trkpt lat="36.707296" lon="-3.398105">
        <ele>50.748</ele>
        <time>2021-06-16T10:56:48Z</time>
      </trkpt>
      <trkpt lat="36.707087" lon="-3.398422">
        <ele>52.286</ele>
        <time>2021-06-16T10:56:50Z</time>
      </trkpt>
      <trkpt lat="36.706982" lon="-3.398815">
        <ele>53.050</ele>
        <time>2021-06-16T10:56:52Z</time>
      </trkpt>
      <trkpt lat="36.706977" lon="-3.399031">
        <ele>53.639</ele>
        <time>2021-06-16T10:56:53Z</time>
      </trkpt>
      <trkpt lat="36.706992" lon="-3.399244">
        <ele>53.712</ele>
        <time>2021-06-16T10:56:54Z</time>
      </trkpt>
      <trkpt lat="36.707103" lon="-3.399636">
        <ele>53.819</ele>
        <time>2021-06-16T10:56:56Z</time>
      </trkpt>
      <trkpt lat="36.707171" lon="-3.399823">
        <ele>53.986</ele>
        <time>2021-06-16T10:56:57Z</time>
      </trkpt>
      <trkpt lat="36.70739" lon="-3.400139">
        <ele>54.356</ele>
        <time>2021-06-16T10:56:59Z</time>
      </trkpt>
      <trkpt lat="36.707553" lon="-3.400244">
        <ele>54.066</ele>
        <time>2021-06-16T10:57:00Z</time>
      </trkpt>
      <trkpt lat="36.707715" lon="-3.40034">
        <ele>53.629</ele>
        <time>2021-06-16T10:57:01Z</time>
      </trkpt>
      <trkpt lat="36.707874" lon="-3.400437">
        <ele>53.621</ele>
        <time>2021-06-16T10:57:02Z</time>
      </trkpt>
      <trkpt lat="36.708174" lon="-3.400659">
        <ele>53.708</ele>
        <time>2021-06-16T10:57:04Z</time>
      </trkpt>
      <trkpt lat="36.70829" lon="-3.400823">
        <ele>54.053</ele>
        <time>2021-06-16T10:57:05Z</time>
      </trkpt>
      <trkpt lat="36.708438" lon="-3.401223">
        <ele>54.251</ele>
        <time>2021-06-16T10:57:07Z</time>
      </trkpt>
      <trkpt lat="36.708485" lon="-3.401675">
        <ele>54.835</ele>
        <time>2021-06-16T10:57:09Z</time>
      </trkpt>
      <trkpt lat="36.708452" lon="-3.402135">
        <ele>54.714</ele>
        <time>2021-06-16T10:57:11Z</time>
      </trkpt>
      <trkpt lat="36.708431" lon="-3.402362">
        <ele>54.567</ele>
        <time>2021-06-16T10:57:12Z</time>
      </trkpt>
      <trkpt lat="36.708409" lon="-3.402584">
        <ele>54.514</ele>
        <time>2021-06-16T10:57:13Z</time>
      </trkpt>
      <trkpt lat="36.708394" lon="-3.402809">
        <ele>54.451</ele>
        <time>2021-06-16T10:57:14Z</time>
      </trkpt>
      <trkpt lat="36.708375" lon="-3.403256">
        <ele>54.931</ele>
        <time>2021-06-16T10:57:16Z</time>
      </trkpt>
      <trkpt lat="36.708345" lon="-3.4037">
        <ele>55.937</ele>
        <time>2021-06-16T10:57:18Z</time>
      </trkpt>
      <trkpt lat="36.708256" lon="-3.404128">
        <ele>56.849</ele>
        <time>2021-06-16T10:57:20Z</time>
      </trkpt>
      <trkpt lat="36.708173" lon="-3.404328">
        <ele>57.113</ele>
        <time>2021-06-16T10:57:21Z</time>
      </trkpt>
      <trkpt lat="36.707948" lon="-3.404678">
        <ele>57.608</ele>
        <time>2021-06-16T10:57:23Z</time>
      </trkpt>
      <trkpt lat="36.707809" lon="-3.404835">
        <ele>57.620</ele>
        <time>2021-06-16T10:57:24Z</time>
      </trkpt>
      <trkpt lat="36.707662" lon="-3.404982">
        <ele>57.588</ele>
        <time>2021-06-16T10:57:25Z</time>
      </trkpt>
      <trkpt lat="36.707358" lon="-3.405238">
        <ele>57.692</ele>
        <time>2021-06-16T10:57:27Z</time>
      </trkpt>
      <trkpt lat="36.707014" lon="-3.405404">
        <ele>57.751</ele>
        <time>2021-06-16T10:57:29Z</time>
      </trkpt>
      <trkpt lat="36.706647" lon="-3.405443">
        <ele>58.284</ele>
        <time>2021-06-16T10:57:31Z</time>
      </trkpt>
      <trkpt lat="36.706469" lon="-3.405433">
        <ele>58.341</ele>
        <time>2021-06-16T10:57:32Z</time>
      </trkpt>
      <trkpt lat="36.706134" lon="-3.40543">
        <ele>58.458</ele>
        <time>2021-06-16T10:57:34Z</time>
      </trkpt>
      <trkpt lat="36.705971" lon="-3.405461">
        <ele>58.748</ele>
        <time>2021-06-16T10:57:35Z</time>
      </trkpt>
      <trkpt lat="36.705664" lon="-3.405603">
        <ele>59.179</ele>
        <time>2021-06-16T10:57:37Z</time>
      </trkpt>
      <trkpt lat="36.70552" lon="-3.405722">
        <ele>59.505</ele>
        <time>2021-06-16T10:57:38Z</time>
      </trkpt>
      <trkpt lat="36.705338" lon="-3.406084">
        <ele>59.625</ele>
        <time>2021-06-16T10:57:40Z</time>
      </trkpt>
      <trkpt lat="36.705283" lon="-3.406293">
        <ele>59.608</ele>
        <time>2021-06-16T10:57:41Z</time>
      </trkpt>
      <trkpt lat="36.705227" lon="-3.406734">
        <ele>59.414</ele>
        <time>2021-06-16T10:57:43Z</time>
      </trkpt>
      <trkpt lat="36.705201" lon="-3.40695">
        <ele>59.592</ele>
        <time>2021-06-16T10:57:44Z</time>
      </trkpt>
      <trkpt lat="36.705155" lon="-3.407155">
        <ele>59.446</ele>
        <time>2021-06-16T10:57:45Z</time>
      </trkpt>
      <trkpt lat="36.705075" lon="-3.407337">
        <ele>59.695</ele>
        <time>2021-06-16T10:57:46Z</time>
      </trkpt>
      <trkpt lat="36.704797" lon="-3.407601">
        <ele>59.048</ele>
        <time>2021-06-16T10:57:48Z</time>
      </trkpt>
      <trkpt lat="36.704624" lon="-3.407681">
        <ele>58.855</ele>
        <time>2021-06-16T10:57:49Z</time>
      </trkpt>
      <trkpt lat="36.704263" lon="-3.407675">
        <ele>58.242</ele>
        <time>2021-06-16T10:57:51Z</time>
      </trkpt>
      <trkpt lat="36.703917" lon="-3.407585">
        <ele>57.892</ele>
        <time>2021-06-16T10:57:53Z</time>
      </trkpt>
      <trkpt lat="36.703743" lon="-3.407568">
        <ele>57.144</ele>
        <time>2021-06-16T10:57:54Z</time>
      </trkpt>
      <trkpt lat="36.703569" lon="-3.40758">
        <ele>56.805</ele>
        <time>2021-06-16T10:57:55Z</time>
      </trkpt>
      <trkpt lat="36.703397" lon="-3.407619">
        <ele>56.215</ele>
        <time>2021-06-16T10:57:56Z</time>
      </trkpt>
      <trkpt lat="36.703067" lon="-3.407774">
        <ele>55.408</ele>
        <time>2021-06-16T10:57:58Z</time>
      </trkpt>
      <trkpt lat="36.702917" lon="-3.407895">
        <ele>55.221</ele>
        <time>2021-06-16T10:57:59Z</time>
      </trkpt>
      <trkpt lat="36.702777" lon="-3.408041">
        <ele>55.029</ele>
        <time>2021-06-16T10:58:00Z</time>
      </trkpt>
      <trkpt lat="36.702649" lon="-3.408205">
        <ele>55.153</ele>
        <time>2021-06-16T10:58:01Z</time>
      </trkpt>
      <trkpt lat="36.702467" lon="-3.408581">
        <ele>55.132</ele>
        <time>2021-06-16T10:58:03Z</time>
      </trkpt>
      <trkpt lat="36.702376" lon="-3.409012">
        <ele>54.375</ele>
        <time>2021-06-16T10:58:05Z</time>
      </trkpt>
      <trkpt lat="36.702366" lon="-3.409238">
        <ele>54.142</ele>
        <time>2021-06-16T10:58:06Z</time>
      </trkpt>
      <trkpt lat="36.702411" lon="-3.409683">
        <ele>53.549</ele>
        <time>2021-06-16T10:58:08Z</time>
      </trkpt>
      <trkpt lat="36.702536" lon="-3.4101">
        <ele>52.859</ele>
        <time>2021-06-16T10:58:10Z</time>
      </trkpt>
      <trkpt lat="36.702636" lon="-3.410292">
        <ele>52.143</ele>
        <time>2021-06-16T10:58:11Z</time>
      </trkpt>
      <trkpt lat="36.702758" lon="-3.410461">
        <ele>51.864</ele>
        <time>2021-06-16T10:58:12Z</time>
      </trkpt>
      <trkpt lat="36.702896" lon="-3.41061">
        <ele>51.810</ele>
        <time>2021-06-16T10:58:13Z</time>
      </trkpt>
      <trkpt lat="36.70304" lon="-3.41074">
        <ele>52.008</ele>
        <time>2021-06-16T10:58:14Z</time>
      </trkpt>
      <trkpt lat="36.703371" lon="-3.410929">
        <ele>52.121</ele>
        <time>2021-06-16T10:58:16Z</time>
      </trkpt>
      <trkpt lat="36.703542" lon="-3.41099">
        <ele>52.479</ele>
        <time>2021-06-16T10:58:17Z</time>
      </trkpt>
      <trkpt lat="36.70388" lon="-3.411064">
        <ele>53.163</ele>
        <time>2021-06-16T10:58:19Z</time>
      </trkpt>
      <trkpt lat="36.704188" lon="-3.411172">
        <ele>53.262</ele>
        <time>2021-06-16T10:58:21Z</time>
      </trkpt>
      <trkpt lat="36.704316" lon="-3.41128">
        <ele>52.935</ele>
        <time>2021-06-16T10:58:22Z</time>
      </trkpt>
      <trkpt lat="36.704537" lon="-3.411571">
        <ele>52.742</ele>
        <time>2021-06-16T10:58:24Z</time>
      </trkpt>
      <trkpt lat="36.704642" lon="-3.411736">
        <ele>52.369</ele>
        <time>2021-06-16T10:58:25Z</time>
      </trkpt>
      <trkpt lat="36.704746" lon="-3.411905">
        <ele>51.799</ele>
        <time>2021-06-16T10:58:26Z</time>
      </trkpt>
      <trkpt lat="36.70485" lon="-3.412072">
        <ele>51.386</ele>
        <time>2021-06-16T10:58:27Z</time>
      </trkpt>
      <trkpt lat="36.705012" lon="-3.412428">
        <ele>50.360</ele>
        <time>2021-06-16T10:58:29Z</time>
      </trkpt>
      <trkpt lat="36.705117" lon="-3.412816">
        <ele>48.626</ele>
        <time>2021-06-16T10:58:31Z</time>
      </trkpt>
      <trkpt lat="36.705178" lon="-3.413212">
        <ele>46.608</ele>
        <time>2021-06-16T10:58:33Z</time>
      </trkpt>
      <trkpt lat="36.705192" lon="-3.413406">
        <ele>44.955</ele>
        <time>2021-06-16T10:58:34Z</time>
      </trkpt>
      <trkpt lat="36.705185" lon="-3.413781">
        <ele>43.293</ele>
        <time>2021-06-16T10:58:36Z</time>
      </trkpt>
      <trkpt lat="36.705131" lon="-3.414175">
        <ele>41.267</ele>
        <time>2021-06-16T10:58:38Z</time>
      </trkpt>
      <trkpt lat="36.705104" lon="-3.414368">
        <ele>39.346</ele>
        <time>2021-06-16T10:58:39Z</time>
      </trkpt>
      <trkpt lat="36.705076" lon="-3.414558">
        <ele>37.719</ele>
        <time>2021-06-16T10:58:40Z</time>
      </trkpt>
      <trkpt lat="36.705023" lon="-3.414938">
        <ele>35.896</ele>
        <time>2021-06-16T10:58:42Z</time>
      </trkpt>
      <trkpt lat="36.704972" lon="-3.415314">
        <ele>35.083</ele>
        <time>2021-06-16T10:58:44Z</time>
      </trkpt>
      <trkpt lat="36.704948" lon="-3.4155">
        <ele>34.693</ele>
        <time>2021-06-16T10:58:45Z</time>
      </trkpt>
      <trkpt lat="36.704843" lon="-3.415857">
        <ele>34.568</ele>
        <time>2021-06-16T10:58:47Z</time>
      </trkpt>
      <trkpt lat="36.704754" lon="-3.416029">
        <ele>34.242</ele>
        <time>2021-06-16T10:58:48Z</time>
      </trkpt>
      <trkpt lat="36.704509" lon="-3.416325">
        <ele>33.026</ele>
        <time>2021-06-16T10:58:50Z</time>
      </trkpt>
      <trkpt lat="36.704222" lon="-3.416509">
        <ele>31.508</ele>
        <time>2021-06-16T10:58:52Z</time>
      </trkpt>
      <trkpt lat="36.703917" lon="-3.416539">
        <ele>29.773</ele>
        <time>2021-06-16T10:58:54Z</time>
      </trkpt>
      <trkpt lat="36.703757" lon="-3.416469">
        <ele>28.281</ele>
        <time>2021-06-16T10:58:55Z</time>
      </trkpt>
      <trkpt lat="36.703603" lon="-3.416377">
        <ele>26.725</ele>
        <time>2021-06-16T10:58:56Z</time>
      </trkpt>
      <trkpt lat="36.703331" lon="-3.416232">
        <ele>24.534</ele>
        <time>2021-06-16T10:58:58Z</time>
      </trkpt>
      <trkpt lat="36.703106" lon="-3.416111">
        <ele>22.337</ele>
        <time>2021-06-16T10:59:00Z</time>
      </trkpt>
      <trkpt lat="36.703003" lon="-3.416056">
        <ele>20.684</ele>
        <time>2021-06-16T10:59:01Z</time>
      </trkpt>
      <trkpt lat="36.702901" lon="-3.416006">
        <ele>19.231</ele>
        <time>2021-06-16T10:59:02Z</time>
      </trkpt>
      <trkpt lat="36.70272" lon="-3.415932">
        <ele>18.131</ele>
        <time>2021-06-16T10:59:04Z</time>
      </trkpt>
      <trkpt lat="36.702556" lon="-3.41588">
        <ele>16.382</ele>
        <time>2021-06-16T10:59:06Z</time>
      </trkpt>
      <trkpt lat="36.702485" lon="-3.415861">
        <ele>15.343</ele>
        <time>2021-06-16T10:59:07Z</time>
      </trkpt>
      <trkpt lat="36.702419" lon="-3.415841">
        <ele>14.317</ele>
        <time>2021-06-16T10:59:08Z</time>
      </trkpt>
      <trkpt lat="36.702304" lon="-3.415813">
        <ele>13.908</ele>
        <time>2021-06-16T10:59:10Z</time>
      </trkpt>
      <trkpt lat="36.702247" lon="-3.415801">
        <ele>13.755</ele>
        <time>2021-06-16T10:59:11Z</time>
      </trkpt>
      <trkpt lat="36.702195" lon="-3.415791">
        <ele>13.393</ele>
        <time>2021-06-16T10:59:12Z</time>
      </trkpt>
      <trkpt lat="36.702111" lon="-3.415778">
        <ele>12.047</ele>
        <time>2021-06-16T10:59:14Z</time>
      </trkpt>
      <trkpt lat="36.702053" lon="-3.415768">
        <ele>11.016</ele>
        <time>2021-06-16T10:59:16Z</time>
      </trkpt>
      <trkpt lat="36.702005" lon="-3.415756">
        <ele>10.829</ele>
        <time>2021-06-16T10:59:18Z</time>
      </trkpt>
      <trkpt lat="36.70194" lon="-3.415768">
        <ele>8.976</ele>
        <time>2021-06-16T10:59:45Z</time>
      </trkpt>
      <trkpt lat="36.701873" lon="-3.415759">
        <ele>7.863</ele>
        <time>2021-06-16T10:59:46Z</time>
      </trkpt>
      <trkpt lat="36.701787" lon="-3.415768">
        <ele>7.123</ele>
        <time>2021-06-16T10:59:47Z</time>
      </trkpt>
      <trkpt lat="36.701593" lon="-3.415863">
        <ele>6.771</ele>
        <time>2021-06-16T10:59:49Z</time>
      </trkpt>
      <trkpt lat="36.701412" lon="-3.416024">
        <ele>6.441</ele>
        <time>2021-06-16T10:59:51Z</time>
      </trkpt>
      <trkpt lat="36.701327" lon="-3.416112">
        <ele>6.215</ele>
        <time>2021-06-16T10:59:52Z</time>
      </trkpt>
      <trkpt lat="36.701248" lon="-3.416198">
        <ele>6.108</ele>
        <time>2021-06-16T10:59:53Z</time>
      </trkpt>
      <trkpt lat="36.701109" lon="-3.416369">
        <ele>6.024</ele>
        <time>2021-06-16T10:59:55Z</time>
      </trkpt>
      <trkpt lat="36.700976" lon="-3.416533">
        <ele>6.092</ele>
        <time>2021-06-16T10:59:57Z</time>
      </trkpt>
      <trkpt lat="36.700916" lon="-3.416618">
        <ele>6.086</ele>
        <time>2021-06-16T10:59:58Z</time>
      </trkpt>
      <trkpt lat="36.700834" lon="-3.416819">
        <ele>6.095</ele>
        <time>2021-06-16T11:00:00Z</time>
      </trkpt>
      <trkpt lat="36.700809" lon="-3.416931">
        <ele>6.048</ele>
        <time>2021-06-16T11:00:01Z</time>
      </trkpt>
      <trkpt lat="36.700799" lon="-3.41718">
        <ele>6.045</ele>
        <time>2021-06-16T11:00:03Z</time>
      </trkpt>
      <trkpt lat="36.700809" lon="-3.417438">
        <ele>6.092</ele>
        <time>2021-06-16T11:00:05Z</time>
      </trkpt>
      <trkpt lat="36.700826" lon="-3.417697">
        <ele>6.052</ele>
        <time>2021-06-16T11:00:07Z</time>
      </trkpt>
      <trkpt lat="36.700836" lon="-3.417966">
        <ele>6.067</ele>
        <time>2021-06-16T11:00:09Z</time>
      </trkpt>
      <trkpt lat="36.700855" lon="-3.418245">
        <ele>6.081</ele>
        <time>2021-06-16T11:00:11Z</time>
      </trkpt>
      <trkpt lat="36.700856" lon="-3.418394">
        <ele>6.019</ele>
        <time>2021-06-16T11:00:12Z</time>
      </trkpt>
      <trkpt lat="36.700859" lon="-3.418548">
        <ele>6.008</ele>
        <time>2021-06-16T11:00:13Z</time>
      </trkpt>
      <trkpt lat="36.700856" lon="-3.418882">
        <ele>6.073</ele>
        <time>2021-06-16T11:00:15Z</time>
      </trkpt>
      <trkpt lat="36.70086" lon="-3.419219">
        <ele>6.051</ele>
        <time>2021-06-16T11:00:17Z</time>
      </trkpt>
      <trkpt lat="36.700859" lon="-3.419397">
        <ele>6.075</ele>
        <time>2021-06-16T11:00:18Z</time>
      </trkpt>
      <trkpt lat="36.700866" lon="-3.419748">
        <ele>6.014</ele>
        <time>2021-06-16T11:00:20Z</time>
      </trkpt>
      <trkpt lat="36.700866" lon="-3.420107">
        <ele>6.087</ele>
        <time>2021-06-16T11:00:22Z</time>
      </trkpt>
      <trkpt lat="36.700862" lon="-3.420294">
        <ele>6.054</ele>
        <time>2021-06-16T11:00:23Z</time>
      </trkpt>
      <trkpt lat="36.700857" lon="-3.420669">
        <ele>6.061</ele>
        <time>2021-06-16T11:00:25Z</time>
      </trkpt>
      <trkpt lat="36.70086" lon="-3.420851">
        <ele>6.071</ele>
        <time>2021-06-16T11:00:26Z</time>
      </trkpt>
      <trkpt lat="36.700859" lon="-3.421035">
        <ele>6.084</ele>
        <time>2021-06-16T11:00:27Z</time>
      </trkpt>
      <trkpt lat="36.700849" lon="-3.421434">
        <ele>6.007</ele>
        <time>2021-06-16T11:00:29Z</time>
      </trkpt>
      <trkpt lat="36.700853" lon="-3.421839">
        <ele>6.017</ele>
        <time>2021-06-16T11:00:31Z</time>
      </trkpt>
      <trkpt lat="36.700859" lon="-3.422258">
        <ele>6.008</ele>
        <time>2021-06-16T11:00:33Z</time>
      </trkpt>
      <trkpt lat="36.700859" lon="-3.422696">
        <ele>6.135</ele>
        <time>2021-06-16T11:00:35Z</time>
      </trkpt>
      <trkpt lat="36.700863" lon="-3.42313">
        <ele>6.123</ele>
        <time>2021-06-16T11:00:37Z</time>
      </trkpt>
      <trkpt lat="36.700866" lon="-3.423349">
        <ele>6.127</ele>
        <time>2021-06-16T11:00:38Z</time>
      </trkpt>
      <trkpt lat="36.700876" lon="-3.423784">
        <ele>6.166</ele>
        <time>2021-06-16T11:00:40Z</time>
      </trkpt>
      <trkpt lat="36.700886" lon="-3.424229">
        <ele>6.179</ele>
        <time>2021-06-16T11:00:42Z</time>
      </trkpt>
      <trkpt lat="36.70088" lon="-3.424688">
        <ele>6.196</ele>
        <time>2021-06-16T11:00:44Z</time>
      </trkpt>
      <trkpt lat="36.700878" lon="-3.424917">
        <ele>6.563</ele>
        <time>2021-06-16T11:00:45Z</time>
      </trkpt>
      <trkpt lat="36.700877" lon="-3.425368">
        <ele>6.793</ele>
        <time>2021-06-16T11:00:47Z</time>
      </trkpt>
      <trkpt lat="36.700876" lon="-3.425817">
        <ele>6.823</ele>
        <time>2021-06-16T11:00:49Z</time>
      </trkpt>
      <trkpt lat="36.700875" lon="-3.426046">
        <ele>7.083</ele>
        <time>2021-06-16T11:00:50Z</time>
      </trkpt>
      <trkpt lat="36.700875" lon="-3.426498">
        <ele>7.111</ele>
        <time>2021-06-16T11:00:52Z</time>
      </trkpt>
      <trkpt lat="36.700886" lon="-3.426957">
        <ele>7.308</ele>
        <time>2021-06-16T11:00:54Z</time>
      </trkpt>
      <trkpt lat="36.700881" lon="-3.427181">
        <ele>7.319</ele>
        <time>2021-06-16T11:00:55Z</time>
      </trkpt>
      <trkpt lat="36.700877" lon="-3.427405">
        <ele>7.967</ele>
        <time>2021-06-16T11:00:56Z</time>
      </trkpt>
      <trkpt lat="36.70087" lon="-3.427839">
        <ele>8.481</ele>
        <time>2021-06-16T11:00:58Z</time>
      </trkpt>
      <trkpt lat="36.700872" lon="-3.428263">
        <ele>8.530</ele>
        <time>2021-06-16T11:01:00Z</time>
      </trkpt>
      <trkpt lat="36.700881" lon="-3.428671">
        <ele>8.813</ele>
        <time>2021-06-16T11:01:02Z</time>
      </trkpt>
      <trkpt lat="36.700883" lon="-3.428876">
        <ele>8.950</ele>
        <time>2021-06-16T11:01:03Z</time>
      </trkpt>
      <trkpt lat="36.70088" lon="-3.429282">
        <ele>9.257</ele>
        <time>2021-06-16T11:01:05Z</time>
      </trkpt>
      <trkpt lat="36.700878" lon="-3.429492">
        <ele>9.367</ele>
        <time>2021-06-16T11:01:06Z</time>
      </trkpt>
      <trkpt lat="36.700887" lon="-3.429908">
        <ele>9.988</ele>
        <time>2021-06-16T11:01:08Z</time>
      </trkpt>
      <trkpt lat="36.700888" lon="-3.430118">
        <ele>10.024</ele>
        <time>2021-06-16T11:01:09Z</time>
      </trkpt>
      <trkpt lat="36.700891" lon="-3.430331">
        <ele>10.426</ele>
        <time>2021-06-16T11:01:10Z</time>
      </trkpt>
      <trkpt lat="36.700894" lon="-3.43054">
        <ele>10.708</ele>
        <time>2021-06-16T11:01:11Z</time>
      </trkpt>
      <trkpt lat="36.700894" lon="-3.430742">
        <ele>10.585</ele>
        <time>2021-06-16T11:01:12Z</time>
      </trkpt>
      <trkpt lat="36.700894" lon="-3.431153">
        <ele>10.153</ele>
        <time>2021-06-16T11:01:14Z</time>
      </trkpt>
      <trkpt lat="36.70089" lon="-3.43156">
        <ele>9.667</ele>
        <time>2021-06-16T11:01:16Z</time>
      </trkpt>
      <trkpt lat="36.700891" lon="-3.431771">
        <ele>9.396</ele>
        <time>2021-06-16T11:01:17Z</time>
      </trkpt>
      <trkpt lat="36.700891" lon="-3.432168">
        <ele>8.729</ele>
        <time>2021-06-16T11:01:19Z</time>
      </trkpt>
      <trkpt lat="36.700894" lon="-3.432366">
        <ele>8.176</ele>
        <time>2021-06-16T11:01:20Z</time>
      </trkpt>
      <trkpt lat="36.700901" lon="-3.432765">
        <ele>7.623</ele>
        <time>2021-06-16T11:01:22Z</time>
      </trkpt>
      <trkpt lat="36.700901" lon="-3.432966">
        <ele>7.083</ele>
        <time>2021-06-16T11:01:23Z</time>
      </trkpt>
      <trkpt lat="36.700902" lon="-3.43337">
        <ele>7.054</ele>
        <time>2021-06-16T11:01:25Z</time>
      </trkpt>
      <trkpt lat="36.700901" lon="-3.433572">
        <ele>6.856</ele>
        <time>2021-06-16T11:01:26Z</time>
      </trkpt>
      <trkpt lat="36.700901" lon="-3.43377">
        <ele>6.511</ele>
        <time>2021-06-16T11:01:27Z</time>
      </trkpt>
      <trkpt lat="36.700905" lon="-3.43416">
        <ele>6.408</ele>
        <time>2021-06-16T11:01:29Z</time>
      </trkpt>
      <trkpt lat="36.700906" lon="-3.434351">
        <ele>6.292</ele>
        <time>2021-06-16T11:01:30Z</time>
      </trkpt>
      <trkpt lat="36.700907" lon="-3.434716">
        <ele>6.270</ele>
        <time>2021-06-16T11:01:32Z</time>
      </trkpt>
      <trkpt lat="36.700908" lon="-3.43488">
        <ele>6.354</ele>
        <time>2021-06-16T11:01:33Z</time>
      </trkpt>
      <trkpt lat="36.700913" lon="-3.435178">
        <ele>6.413</ele>
        <time>2021-06-16T11:01:35Z</time>
      </trkpt>
      <trkpt lat="36.700912" lon="-3.435312">
        <ele>6.236</ele>
        <time>2021-06-16T11:01:36Z</time>
      </trkpt>
      <trkpt lat="36.700912" lon="-3.435422">
        <ele>6.083</ele>
        <time>2021-06-16T11:01:37Z</time>
      </trkpt>
      <trkpt lat="36.700924" lon="-3.435571">
        <ele>5.910</ele>
        <time>2021-06-16T11:01:39Z</time>
      </trkpt>
      <trkpt lat="36.700939" lon="-3.435662">
        <ele>5.930</ele>
        <time>2021-06-16T11:01:41Z</time>
      </trkpt>
      <trkpt lat="36.700963" lon="-3.435738">
        <ele>5.917</ele>
        <time>2021-06-16T11:01:44Z</time>
      </trkpt>
      <trkpt lat="36.700968" lon="-3.435808">
        <ele>6.187</ele>
        <time>2021-06-16T11:01:46Z</time>
      </trkpt>
      <trkpt lat="36.700964" lon="-3.435914">
        <ele>6.515</ele>
        <time>2021-06-16T11:01:48Z</time>
      </trkpt>
      <trkpt lat="36.700967" lon="-3.435979">
        <ele>6.408</ele>
        <time>2021-06-16T11:01:51Z</time>
      </trkpt>
      <trkpt lat="36.700946" lon="-3.436052">
        <ele>5.578</ele>
        <time>2021-06-16T11:05:43Z</time>
      </trkpt>
      <trkpt lat="36.700921" lon="-3.436162">
        <ele>5.056</ele>
        <time>2021-06-16T11:05:51Z</time>
      </trkpt>
      <trkpt lat="36.700925" lon="-3.436243">
        <ele>4.760</ele>
        <time>2021-06-16T11:05:52Z</time>
      </trkpt>
      <trkpt lat="36.700973" lon="-3.436388">
        <ele>4.589</ele>
        <time>2021-06-16T11:05:54Z</time>
      </trkpt>
      <trkpt lat="36.701003" lon="-3.436562">
        <ele>4.442</ele>
        <time>2021-06-16T11:05:56Z</time>
      </trkpt>
      <trkpt lat="36.700982" lon="-3.436664">
        <ele>4.389</ele>
        <time>2021-06-16T11:05:57Z</time>
      </trkpt>
      <trkpt lat="36.700924" lon="-3.436903">
        <ele>4.276</ele>
        <time>2021-06-16T11:05:59Z</time>
      </trkpt>
      <trkpt lat="36.700917" lon="-3.437197">
        <ele>4.246</ele>
        <time>2021-06-16T11:06:01Z</time>
      </trkpt>
      <trkpt lat="36.700913" lon="-3.437525">
        <ele>4.249</ele>
        <time>2021-06-16T11:06:03Z</time>
      </trkpt>
      <trkpt lat="36.700914" lon="-3.437879">
        <ele>4.202</ele>
        <time>2021-06-16T11:06:05Z</time>
      </trkpt>
      <trkpt lat="36.700916" lon="-3.438065">
        <ele>4.222</ele>
        <time>2021-06-16T11:06:06Z</time>
      </trkpt>
      <trkpt lat="36.700918" lon="-3.438253">
        <ele>4.208</ele>
        <time>2021-06-16T11:06:07Z</time>
      </trkpt>
      <trkpt lat="36.700921" lon="-3.438444">
        <ele>4.261</ele>
        <time>2021-06-16T11:06:08Z</time>
      </trkpt>
      <trkpt lat="36.700922" lon="-3.438639">
        <ele>4.239</ele>
        <time>2021-06-16T11:06:09Z</time>
      </trkpt>
      <trkpt lat="36.700922" lon="-3.438837">
        <ele>4.283</ele>
        <time>2021-06-16T11:06:10Z</time>
      </trkpt>
      <trkpt lat="36.700927" lon="-3.439239">
        <ele>4.282</ele>
        <time>2021-06-16T11:06:12Z</time>
      </trkpt>
      <trkpt lat="36.700927" lon="-3.439441">
        <ele>4.225</ele>
        <time>2021-06-16T11:06:13Z</time>
      </trkpt>
      <trkpt lat="36.700931" lon="-3.439847">
        <ele>4.242</ele>
        <time>2021-06-16T11:06:15Z</time>
      </trkpt>
      <trkpt lat="36.700932" lon="-3.440053">
        <ele>4.289</ele>
        <time>2021-06-16T11:06:16Z</time>
      </trkpt>
      <trkpt lat="36.700933" lon="-3.440258">
        <ele>4.289</ele>
        <time>2021-06-16T11:06:17Z</time>
      </trkpt>
      <trkpt lat="36.700937" lon="-3.440658">
        <ele>4.245</ele>
        <time>2021-06-16T11:06:19Z</time>
      </trkpt>
      <trkpt lat="36.700937" lon="-3.441065">
        <ele>4.247</ele>
        <time>2021-06-16T11:06:21Z</time>
      </trkpt>
      <trkpt lat="36.700935" lon="-3.441271">
        <ele>4.211</ele>
        <time>2021-06-16T11:06:22Z</time>
      </trkpt>
      <trkpt lat="36.700931" lon="-3.441468">
        <ele>4.208</ele>
        <time>2021-06-16T11:06:23Z</time>
      </trkpt>
      <trkpt lat="36.70093" lon="-3.441652">
        <ele>4.231</ele>
        <time>2021-06-16T11:06:24Z</time>
      </trkpt>
      <trkpt lat="36.700928" lon="-3.441822">
        <ele>4.219</ele>
        <time>2021-06-16T11:06:25Z</time>
      </trkpt>
      <trkpt lat="36.700926" lon="-3.442117">
        <ele>4.213</ele>
        <time>2021-06-16T11:06:27Z</time>
      </trkpt>
      <trkpt lat="36.700941" lon="-3.442377">
        <ele>4.292</ele>
        <time>2021-06-16T11:06:29Z</time>
      </trkpt>
      <trkpt lat="36.700955" lon="-3.442494">
        <ele>4.275</ele>
        <time>2021-06-16T11:06:30Z</time>
      </trkpt>
      <trkpt lat="36.700982" lon="-3.442641">
        <ele>4.142</ele>
        <time>2021-06-16T11:06:32Z</time>
      </trkpt>
      <trkpt lat="36.701011" lon="-3.442721">
        <ele>4.099</ele>
        <time>2021-06-16T11:06:37Z</time>
      </trkpt>
      <trkpt lat="36.70103" lon="-3.442833">
        <ele>4.029</ele>
        <time>2021-06-16T11:06:39Z</time>
      </trkpt>
      <trkpt lat="36.701023" lon="-3.442923">
        <ele>4.057</ele>
        <time>2021-06-16T11:06:40Z</time>
      </trkpt>
      <trkpt lat="36.700964" lon="-3.44314">
        <ele>4.000</ele>
        <time>2021-06-16T11:06:42Z</time>
      </trkpt>
      <trkpt lat="36.700927" lon="-3.443401">
        <ele>4.020</ele>
        <time>2021-06-16T11:06:44Z</time>
      </trkpt>
      <trkpt lat="36.700929" lon="-3.443547">
        <ele>4.008</ele>
        <time>2021-06-16T11:06:45Z</time>
      </trkpt>
      <trkpt lat="36.700936" lon="-3.4437">
        <ele>4.032</ele>
        <time>2021-06-16T11:06:46Z</time>
      </trkpt>
      <trkpt lat="36.700941" lon="-3.44386">
        <ele>4.010</ele>
        <time>2021-06-16T11:06:47Z</time>
      </trkpt>
      <trkpt lat="36.700938" lon="-3.444209">
        <ele>4.034</ele>
        <time>2021-06-16T11:06:49Z</time>
      </trkpt>
      <trkpt lat="36.700932" lon="-3.444582">
        <ele>4.053</ele>
        <time>2021-06-16T11:06:51Z</time>
      </trkpt>
      <trkpt lat="36.700933" lon="-3.444775">
        <ele>3.776</ele>
        <time>2021-06-16T11:06:52Z</time>
      </trkpt>
      <trkpt lat="36.700933" lon="-3.444975">
        <ele>3.413</ele>
        <time>2021-06-16T11:06:53Z</time>
      </trkpt>
      <trkpt lat="36.700933" lon="-3.445395">
        <ele>3.460</ele>
        <time>2021-06-16T11:06:55Z</time>
      </trkpt>
      <trkpt lat="36.700936" lon="-3.445836">
        <ele>3.790</ele>
        <time>2021-06-16T11:06:57Z</time>
      </trkpt>
      <trkpt lat="36.700936" lon="-3.446066">
        <ele>3.821</ele>
        <time>2021-06-16T11:06:58Z</time>
      </trkpt>
      <trkpt lat="36.700931" lon="-3.446531">
        <ele>4.141</ele>
        <time>2021-06-16T11:07:00Z</time>
      </trkpt>
      <trkpt lat="36.70093" lon="-3.446767">
        <ele>3.905</ele>
        <time>2021-06-16T11:07:01Z</time>
      </trkpt>
      <trkpt lat="36.70093" lon="-3.447004">
        <ele>3.608</ele>
        <time>2021-06-16T11:07:02Z</time>
      </trkpt>
      <trkpt lat="36.700933" lon="-3.447245">
        <ele>3.599</ele>
        <time>2021-06-16T11:07:03Z</time>
      </trkpt>
      <trkpt lat="36.700937" lon="-3.447727">
        <ele>3.697</ele>
        <time>2021-06-16T11:07:05Z</time>
      </trkpt>
      <trkpt lat="36.700934" lon="-3.448214">
        <ele>3.811</ele>
        <time>2021-06-16T11:07:07Z</time>
      </trkpt>
      <trkpt lat="36.700931" lon="-3.448704">
        <ele>3.720</ele>
        <time>2021-06-16T11:07:09Z</time>
      </trkpt>
      <trkpt lat="36.700935" lon="-3.448948">
        <ele>3.813</ele>
        <time>2021-06-16T11:07:10Z</time>
      </trkpt>
      <trkpt lat="36.700937" lon="-3.449195">
        <ele>3.870</ele>
        <time>2021-06-16T11:07:11Z</time>
      </trkpt>
      <trkpt lat="36.70094" lon="-3.449438">
        <ele>4.577</ele>
        <time>2021-06-16T11:07:12Z</time>
      </trkpt>
      <trkpt lat="36.700942" lon="-3.449917">
        <ele>4.387</ele>
        <time>2021-06-16T11:07:14Z</time>
      </trkpt>
      <trkpt lat="36.70094" lon="-3.450384">
        <ele>4.328</ele>
        <time>2021-06-16T11:07:16Z</time>
      </trkpt>
      <trkpt lat="36.70094" lon="-3.450611">
        <ele>4.289</ele>
        <time>2021-06-16T11:07:17Z</time>
      </trkpt>
      <trkpt lat="36.700938" lon="-3.451047">
        <ele>3.917</ele>
        <time>2021-06-16T11:07:19Z</time>
      </trkpt>
      <trkpt lat="36.700941" lon="-3.451252">
        <ele>3.508</ele>
        <time>2021-06-16T11:07:20Z</time>
      </trkpt>
      <trkpt lat="36.700948" lon="-3.451651">
        <ele>2.859</ele>
        <time>2021-06-16T11:07:22Z</time>
      </trkpt>
      <trkpt lat="36.70095" lon="-3.451839">
        <ele>2.537</ele>
        <time>2021-06-16T11:07:23Z</time>
      </trkpt>
      <trkpt lat="36.70095" lon="-3.452198">
        <ele>2.491</ele>
        <time>2021-06-16T11:07:25Z</time>
      </trkpt>
      <trkpt lat="36.700949" lon="-3.452365">
        <ele>2.630</ele>
        <time>2021-06-16T11:07:26Z</time>
      </trkpt>
      <trkpt lat="36.700956" lon="-3.452659">
        <ele>2.623</ele>
        <time>2021-06-16T11:07:28Z</time>
      </trkpt>
      <trkpt lat="36.70098" lon="-3.452792">
        <ele>2.450</ele>
        <time>2021-06-16T11:07:29Z</time>
      </trkpt>
      <trkpt lat="36.701019" lon="-3.452918">
        <ele>2.597</ele>
        <time>2021-06-16T11:07:30Z</time>
      </trkpt>
      <trkpt lat="36.701044" lon="-3.453041">
        <ele>2.287</ele>
        <time>2021-06-16T11:07:31Z</time>
      </trkpt>
      <trkpt lat="36.701037" lon="-3.45317">
        <ele>2.214</ele>
        <time>2021-06-16T11:07:32Z</time>
      </trkpt>
      <trkpt lat="36.701004" lon="-3.453311">
        <ele>2.054</ele>
        <time>2021-06-16T11:07:33Z</time>
      </trkpt>
      <trkpt lat="36.700947" lon="-3.453631">
        <ele>1.809</ele>
        <time>2021-06-16T11:07:35Z</time>
      </trkpt>
      <trkpt lat="36.700945" lon="-3.453818">
        <ele>1.908</ele>
        <time>2021-06-16T11:07:36Z</time>
      </trkpt>
      <trkpt lat="36.700949" lon="-3.454016">
        <ele>1.868</ele>
        <time>2021-06-16T11:07:37Z</time>
      </trkpt>
      <trkpt lat="36.700947" lon="-3.454434">
        <ele>1.286</ele>
        <time>2021-06-16T11:07:39Z</time>
      </trkpt>
      <trkpt lat="36.700939" lon="-3.454653">
        <ele>0.540</ele>
        <time>2021-06-16T11:07:40Z</time>
      </trkpt>
      <trkpt lat="36.700934" lon="-3.454884">
        <ele>0.639</ele>
        <time>2021-06-16T11:07:41Z</time>
      </trkpt>
      <trkpt lat="36.700944" lon="-3.455373">
        <ele>0.972</ele>
        <time>2021-06-16T11:07:43Z</time>
      </trkpt>
      <trkpt lat="36.700968" lon="-3.455883">
        <ele>1.799</ele>
        <time>2021-06-16T11:07:45Z</time>
      </trkpt>
      <trkpt lat="36.700967" lon="-3.456407">
        <ele>3.066</ele>
        <time>2021-06-16T11:07:47Z</time>
      </trkpt>
      <trkpt lat="36.700959" lon="-3.456657">
        <ele>4.026</ele>
        <time>2021-06-16T11:07:48Z</time>
      </trkpt>
      <trkpt lat="36.700907" lon="-3.457155">
        <ele>5.519</ele>
        <time>2021-06-16T11:07:50Z</time>
      </trkpt>
      <trkpt lat="36.700777" lon="-3.457645">
        <ele>7.409</ele>
        <time>2021-06-16T11:07:52Z</time>
      </trkpt>
      <trkpt lat="36.700582" lon="-3.458093">
        <ele>9.419</ele>
        <time>2021-06-16T11:07:54Z</time>
      </trkpt>
      <trkpt lat="36.700318" lon="-3.458483">
        <ele>11.608</ele>
        <time>2021-06-16T11:07:56Z</time>
      </trkpt>
      <trkpt lat="36.699999" lon="-3.458818">
        <ele>13.588</ele>
        <time>2021-06-16T11:07:58Z</time>
      </trkpt>
      <trkpt lat="36.699826" lon="-3.458964">
        <ele>14.596</ele>
        <time>2021-06-16T11:07:59Z</time>
      </trkpt>
      <trkpt lat="36.699653" lon="-3.459093">
        <ele>15.540</ele>
        <time>2021-06-16T11:08:00Z</time>
      </trkpt>
      <trkpt lat="36.699301" lon="-3.459311">
        <ele>17.149</ele>
        <time>2021-06-16T11:08:02Z</time>
      </trkpt>
      <trkpt lat="36.698957" lon="-3.459539">
        <ele>18.542</ele>
        <time>2021-06-16T11:08:04Z</time>
      </trkpt>
      <trkpt lat="36.698659" lon="-3.459847">
        <ele>20.119</ele>
        <time>2021-06-16T11:08:06Z</time>
      </trkpt>
      <trkpt lat="36.698416" lon="-3.460226">
        <ele>21.966</ele>
        <time>2021-06-16T11:08:08Z</time>
      </trkpt>
      <trkpt lat="36.698224" lon="-3.460656">
        <ele>23.136</ele>
        <time>2021-06-16T11:08:10Z</time>
      </trkpt>
      <trkpt lat="36.698135" lon="-3.460875">
        <ele>24.259</ele>
        <time>2021-06-16T11:08:11Z</time>
      </trkpt>
      <trkpt lat="36.697971" lon="-3.461321">
        <ele>25.603</ele>
        <time>2021-06-16T11:08:13Z</time>
      </trkpt>
      <trkpt lat="36.697878" lon="-3.461543">
        <ele>26.823</ele>
        <time>2021-06-16T11:08:14Z</time>
      </trkpt>
      <trkpt lat="36.697646" lon="-3.461954">
        <ele>28.608</ele>
        <time>2021-06-16T11:08:16Z</time>
      </trkpt>
      <trkpt lat="36.69736" lon="-3.462325">
        <ele>30.462</ele>
        <time>2021-06-16T11:08:18Z</time>
      </trkpt>
      <trkpt lat="36.697207" lon="-3.462501">
        <ele>31.980</ele>
        <time>2021-06-16T11:08:19Z</time>
      </trkpt>
      <trkpt lat="36.696898" lon="-3.462845">
        <ele>33.614</ele>
        <time>2021-06-16T11:08:21Z</time>
      </trkpt>
      <trkpt lat="36.696747" lon="-3.463021">
        <ele>34.923</ele>
        <time>2021-06-16T11:08:22Z</time>
      </trkpt>
      <trkpt lat="36.696595" lon="-3.463192">
        <ele>36.216</ele>
        <time>2021-06-16T11:08:23Z</time>
      </trkpt>
      <trkpt lat="36.696308" lon="-3.463521">
        <ele>37.783</ele>
        <time>2021-06-16T11:08:25Z</time>
      </trkpt>
      <trkpt lat="36.696059" lon="-3.463866">
        <ele>39.240</ele>
        <time>2021-06-16T11:08:27Z</time>
      </trkpt>
      <trkpt lat="36.695956" lon="-3.464054">
        <ele>40.170</ele>
        <time>2021-06-16T11:08:28Z</time>
      </trkpt>
      <trkpt lat="36.695793" lon="-3.464466">
        <ele>41.314</ele>
        <time>2021-06-16T11:08:30Z</time>
      </trkpt>
      <trkpt lat="36.695647" lon="-3.464903">
        <ele>42.254</ele>
        <time>2021-06-16T11:08:32Z</time>
      </trkpt>
      <trkpt lat="36.695456" lon="-3.467224">
        <ele>44.509</ele>
        <time>2021-06-16T11:08:43Z</time>
      </trkpt>
      <trkpt lat="36.695466" lon="-3.467436">
        <ele>46.608</ele>
        <time>2021-06-16T11:08:44Z</time>
      </trkpt>
      <trkpt lat="36.695516" lon="-3.467858">
        <ele>48.988</ele>
        <time>2021-06-16T11:08:46Z</time>
      </trkpt>
      <trkpt lat="36.695554" lon="-3.46807">
        <ele>50.166</ele>
        <time>2021-06-16T11:08:47Z</time>
      </trkpt>
      <trkpt lat="36.695602" lon="-3.468278">
        <ele>50.790</ele>
        <time>2021-06-16T11:08:48Z</time>
      </trkpt>
      <trkpt lat="36.695742" lon="-3.468679">
        <ele>51.419</ele>
        <time>2021-06-16T11:08:50Z</time>
      </trkpt>
      <trkpt lat="36.695912" lon="-3.469064">
        <ele>51.882</ele>
        <time>2021-06-16T11:08:52Z</time>
      </trkpt>
      <trkpt lat="36.696137" lon="-3.46942">
        <ele>52.439</ele>
        <time>2021-06-16T11:08:54Z</time>
      </trkpt>
      <trkpt lat="36.696265" lon="-3.469596">
        <ele>52.246</ele>
        <time>2021-06-16T11:08:55Z</time>
      </trkpt>
      <trkpt lat="36.696394" lon="-3.469777">
        <ele>52.136</ele>
        <time>2021-06-16T11:08:56Z</time>
      </trkpt>
      <trkpt lat="36.696638" lon="-3.470154">
        <ele>52.285</ele>
        <time>2021-06-16T11:08:58Z</time>
      </trkpt>
      <trkpt lat="36.696888" lon="-3.470517">
        <ele>52.289</ele>
        <time>2021-06-16T11:09:00Z</time>
      </trkpt>
      <trkpt lat="36.697132" lon="-3.470909">
        <ele>51.817</ele>
        <time>2021-06-16T11:09:02Z</time>
      </trkpt>
      <trkpt lat="36.697256" lon="-3.471106">
        <ele>51.308</ele>
        <time>2021-06-16T11:09:03Z</time>
      </trkpt>
      <trkpt lat="36.697507" lon="-3.471504">
        <ele>51.335</ele>
        <time>2021-06-16T11:09:05Z</time>
      </trkpt>
      <trkpt lat="36.697751" lon="-3.471912">
        <ele>50.533</ele>
        <time>2021-06-16T11:09:07Z</time>
      </trkpt>
      <trkpt lat="36.697872" lon="-3.472126">
        <ele>49.887</ele>
        <time>2021-06-16T11:09:08Z</time>
      </trkpt>
      <trkpt lat="36.698099" lon="-3.472561">
        <ele>48.656</ele>
        <time>2021-06-16T11:09:10Z</time>
      </trkpt>
      <trkpt lat="36.698209" lon="-3.472774">
        <ele>47.619</ele>
        <time>2021-06-16T11:09:11Z</time>
      </trkpt>
      <trkpt lat="36.698408" lon="-3.473196">
        <ele>46.676</ele>
        <time>2021-06-16T11:09:13Z</time>
      </trkpt>
      <trkpt lat="36.698578" lon="-3.473623">
        <ele>45.593</ele>
        <time>2021-06-16T11:09:15Z</time>
      </trkpt>
      <trkpt lat="36.698719" lon="-3.474073">
        <ele>44.573</ele>
        <time>2021-06-16T11:09:17Z</time>
      </trkpt>
      <trkpt lat="36.69883" lon="-3.474535">
        <ele>43.271</ele>
        <time>2021-06-16T11:09:19Z</time>
      </trkpt>
      <trkpt lat="36.698913" lon="-3.47499">
        <ele>41.441</ele>
        <time>2021-06-16T11:09:21Z</time>
      </trkpt>
      <trkpt lat="36.698983" lon="-3.475413">
        <ele>39.315</ele>
        <time>2021-06-16T11:09:23Z</time>
      </trkpt>
      <trkpt lat="36.699011" lon="-3.475775">
        <ele>37.108</ele>
        <time>2021-06-16T11:09:25Z</time>
      </trkpt>
      <trkpt lat="36.699019" lon="-3.475958">
        <ele>35.734</ele>
        <time>2021-06-16T11:09:26Z</time>
      </trkpt>
      <trkpt lat="36.699034" lon="-3.47633">
        <ele>34.562</ele>
        <time>2021-06-16T11:09:28Z</time>
      </trkpt>
      <trkpt lat="36.699053" lon="-3.4767">
        <ele>32.666</ele>
        <time>2021-06-16T11:09:30Z</time>
      </trkpt>
      <trkpt lat="36.699074" lon="-3.477072">
        <ele>30.135</ele>
        <time>2021-06-16T11:09:32Z</time>
      </trkpt>
      <trkpt lat="36.699091" lon="-3.477434">
        <ele>27.748</ele>
        <time>2021-06-16T11:09:34Z</time>
      </trkpt>
      <trkpt lat="36.699096" lon="-3.477619">
        <ele>25.685</ele>
        <time>2021-06-16T11:09:35Z</time>
      </trkpt>
      <trkpt lat="36.699103" lon="-3.477806">
        <ele>24.082</ele>
        <time>2021-06-16T11:09:36Z</time>
      </trkpt>
      <trkpt lat="36.699111" lon="-3.477992">
        <ele>22.832</ele>
        <time>2021-06-16T11:09:37Z</time>
      </trkpt>
      <trkpt lat="36.699132" lon="-3.478354">
        <ele>21.179</ele>
        <time>2021-06-16T11:09:39Z</time>
      </trkpt>
      <trkpt lat="36.699148" lon="-3.478537">
        <ele>19.905</ele>
        <time>2021-06-16T11:09:40Z</time>
      </trkpt>
      <trkpt lat="36.699163" lon="-3.478717">
        <ele>19.125</ele>
        <time>2021-06-16T11:09:41Z</time>
      </trkpt>
      <trkpt lat="36.699182" lon="-3.479055">
        <ele>17.408</ele>
        <time>2021-06-16T11:09:43Z</time>
      </trkpt>
      <trkpt lat="36.69919" lon="-3.479214">
        <ele>15.844</ele>
        <time>2021-06-16T11:09:44Z</time>
      </trkpt>
      <trkpt lat="36.699201" lon="-3.479361">
        <ele>14.652</ele>
        <time>2021-06-16T11:09:45Z</time>
      </trkpt>
      <trkpt lat="36.699235" lon="-3.479646">
        <ele>13.396</ele>
        <time>2021-06-16T11:09:47Z</time>
      </trkpt>
      <trkpt lat="36.699251" lon="-3.479782">
        <ele>12.545</ele>
        <time>2021-06-16T11:09:48Z</time>
      </trkpt>
      <trkpt lat="36.699311" lon="-3.480025">
        <ele>11.628</ele>
        <time>2021-06-16T11:09:50Z</time>
      </trkpt>
      <trkpt lat="36.699374" lon="-3.480111">
        <ele>11.315</ele>
        <time>2021-06-16T11:09:51Z</time>
      </trkpt>
      <trkpt lat="36.699496" lon="-3.480266">
        <ele>10.672</ele>
        <time>2021-06-16T11:09:53Z</time>
      </trkpt>
      <trkpt lat="36.699531" lon="-3.48036">
        <ele>10.182</ele>
        <time>2021-06-16T11:09:54Z</time>
      </trkpt>
      <trkpt lat="36.699528" lon="-3.480461">
        <ele>9.538</ele>
        <time>2021-06-16T11:09:55Z</time>
      </trkpt>
      <trkpt lat="36.699498" lon="-3.480683">
        <ele>8.670</ele>
        <time>2021-06-16T11:09:57Z</time>
      </trkpt>
      <trkpt lat="36.699512" lon="-3.480793">
        <ele>7.917</ele>
        <time>2021-06-16T11:09:58Z</time>
      </trkpt>
      <trkpt lat="36.699575" lon="-3.481022">
        <ele>7.208</ele>
        <time>2021-06-16T11:10:00Z</time>
      </trkpt>
      <trkpt lat="36.699672" lon="-3.481261">
        <ele>6.780</ele>
        <time>2021-06-16T11:10:02Z</time>
      </trkpt>
      <trkpt lat="36.699749" lon="-3.48151">
        <ele>6.868</ele>
        <time>2021-06-16T11:10:04Z</time>
      </trkpt>
      <trkpt lat="36.699786" lon="-3.481634">
        <ele>6.772</ele>
        <time>2021-06-16T11:10:05Z</time>
      </trkpt>
      <trkpt lat="36.699817" lon="-3.481759">
        <ele>6.541</ele>
        <time>2021-06-16T11:10:06Z</time>
      </trkpt>
      <trkpt lat="36.699875" lon="-3.481999">
        <ele>6.294</ele>
        <time>2021-06-16T11:10:08Z</time>
      </trkpt>
      <trkpt lat="36.699923" lon="-3.48217">
        <ele>6.071</ele>
        <time>2021-06-16T11:10:10Z</time>
      </trkpt>
      <trkpt lat="36.699954" lon="-3.482283">
        <ele>5.878</ele>
        <time>2021-06-16T11:10:12Z</time>
      </trkpt>
      <trkpt lat="36.699984" lon="-3.482344">
        <ele>5.998</ele>
        <time>2021-06-16T11:10:14Z</time>
      </trkpt>
      <trkpt lat="36.700007" lon="-3.482416">
        <ele>5.473</ele>
        <time>2021-06-16T11:10:16Z</time>
      </trkpt>
      <trkpt lat="36.700059" lon="-3.482439">
        <ele>6.585</ele>
        <time>2021-06-16T11:10:35Z</time>
      </trkpt>
      <trkpt lat="36.7001" lon="-3.482471">
        <ele>7.213</ele>
        <time>2021-06-16T11:10:42Z</time>
      </trkpt>
      <trkpt lat="36.700138" lon="-3.482596">
        <ele>7.608</ele>
        <time>2021-06-16T11:10:44Z</time>
      </trkpt>
      <trkpt lat="36.700159" lon="-3.482685">
        <ele>7.974</ele>
        <time>2021-06-16T11:10:45Z</time>
      </trkpt>
      <trkpt lat="36.700214" lon="-3.482882">
        <ele>8.172</ele>
        <time>2021-06-16T11:10:47Z</time>
      </trkpt>
      <trkpt lat="36.700246" lon="-3.482981">
        <ele>8.226</ele>
        <time>2021-06-16T11:10:48Z</time>
      </trkpt>
      <trkpt lat="36.700309" lon="-3.483197">
        <ele>8.365</ele>
        <time>2021-06-16T11:10:50Z</time>
      </trkpt>
      <trkpt lat="36.700378" lon="-3.483427">
        <ele>8.328</ele>
        <time>2021-06-16T11:10:52Z</time>
      </trkpt>
      <trkpt lat="36.700422" lon="-3.48355">
        <ele>8.335</ele>
        <time>2021-06-16T11:10:53Z</time>
      </trkpt>
      <trkpt lat="36.700463" lon="-3.483669">
        <ele>8.322</ele>
        <time>2021-06-16T11:10:54Z</time>
      </trkpt>
      <trkpt lat="36.700506" lon="-3.483785">
        <ele>8.352</ele>
        <time>2021-06-16T11:10:55Z</time>
      </trkpt>
      <trkpt lat="36.700605" lon="-3.484024">
        <ele>8.376</ele>
        <time>2021-06-16T11:10:57Z</time>
      </trkpt>
      <trkpt lat="36.700658" lon="-3.484153">
        <ele>8.390</ele>
        <time>2021-06-16T11:10:58Z</time>
      </trkpt>
      <trkpt lat="36.700785" lon="-3.484406">
        <ele>8.319</ele>
        <time>2021-06-16T11:11:00Z</time>
      </trkpt>
      <trkpt lat="36.700855" lon="-3.484528">
        <ele>8.308</ele>
        <time>2021-06-16T11:11:01Z</time>
      </trkpt>
      <trkpt lat="36.700926" lon="-3.484655">
        <ele>8.354</ele>
        <time>2021-06-16T11:11:02Z</time>
      </trkpt>
      <trkpt lat="36.701101" lon="-3.484881">
        <ele>8.352</ele>
        <time>2021-06-16T11:11:04Z</time>
      </trkpt>
      <trkpt lat="36.701261" lon="-3.485115">
        <ele>8.366</ele>
        <time>2021-06-16T11:11:06Z</time>
      </trkpt>
      <trkpt lat="36.701403" lon="-3.485355">
        <ele>8.365</ele>
        <time>2021-06-16T11:11:08Z</time>
      </trkpt>
      <trkpt lat="36.701546" lon="-3.485599">
        <ele>8.398</ele>
        <time>2021-06-16T11:11:10Z</time>
      </trkpt>
      <trkpt lat="36.701614" lon="-3.485727">
        <ele>8.355</ele>
        <time>2021-06-16T11:11:11Z</time>
      </trkpt>
      <trkpt lat="36.701682" lon="-3.485852">
        <ele>8.342</ele>
        <time>2021-06-16T11:11:12Z</time>
      </trkpt>
      <trkpt lat="36.701821" lon="-3.486091">
        <ele>8.392</ele>
        <time>2021-06-16T11:11:14Z</time>
      </trkpt>
      <trkpt lat="36.701959" lon="-3.486327">
        <ele>8.394</ele>
        <time>2021-06-16T11:11:16Z</time>
      </trkpt>
      <trkpt lat="36.702092" lon="-3.486572">
        <ele>8.357</ele>
        <time>2021-06-16T11:11:18Z</time>
      </trkpt>
      <trkpt lat="36.70223" lon="-3.486792">
        <ele>8.322</ele>
        <time>2021-06-16T11:11:20Z</time>
      </trkpt>
      <trkpt lat="36.702304" lon="-3.486903">
        <ele>8.308</ele>
        <time>2021-06-16T11:11:21Z</time>
      </trkpt>
      <trkpt lat="36.702374" lon="-3.487018">
        <ele>8.396</ele>
        <time>2021-06-16T11:11:22Z</time>
      </trkpt>
      <trkpt lat="36.702443" lon="-3.48713">
        <ele>8.394</ele>
        <time>2021-06-16T11:11:23Z</time>
      </trkpt>
      <trkpt lat="36.70259" lon="-3.487354">
        <ele>8.318</ele>
        <time>2021-06-16T11:11:25Z</time>
      </trkpt>
      <trkpt lat="36.702762" lon="-3.487548">
        <ele>8.397</ele>
        <time>2021-06-16T11:11:27Z</time>
      </trkpt>
      <trkpt lat="36.702854" lon="-3.487636">
        <ele>8.330</ele>
        <time>2021-06-16T11:11:28Z</time>
      </trkpt>
      <trkpt lat="36.702949" lon="-3.487714">
        <ele>8.347</ele>
        <time>2021-06-16T11:11:29Z</time>
      </trkpt>
      <trkpt lat="36.703141" lon="-3.487867">
        <ele>8.324</ele>
        <time>2021-06-16T11:11:31Z</time>
      </trkpt>
      <trkpt lat="36.703243" lon="-3.487946">
        <ele>8.354</ele>
        <time>2021-06-16T11:11:32Z</time>
      </trkpt>
      <trkpt lat="36.703451" lon="-3.48809">
        <ele>8.355</ele>
        <time>2021-06-16T11:11:34Z</time>
      </trkpt>
      <trkpt lat="36.703631" lon="-3.488258">
        <ele>8.307</ele>
        <time>2021-06-16T11:11:36Z</time>
      </trkpt>
      <trkpt lat="36.703719" lon="-3.488358">
        <ele>8.317</ele>
        <time>2021-06-16T11:11:37Z</time>
      </trkpt>
      <trkpt lat="36.703879" lon="-3.488573">
        <ele>8.308</ele>
        <time>2021-06-16T11:11:39Z</time>
      </trkpt>
      <trkpt lat="36.703956" lon="-3.488686">
        <ele>6.332</ele>
        <time>2021-06-16T11:11:40Z</time>
      </trkpt>
      <trkpt lat="36.704114" lon="-3.488922">
        <ele>5.420</ele>
        <time>2021-06-16T11:11:42Z</time>
      </trkpt>
      <trkpt lat="36.704234" lon="-3.489147">
        <ele>4.724</ele>
        <time>2021-06-16T11:11:44Z</time>
      </trkpt>
      <trkpt lat="36.704292" lon="-3.489251">
        <ele>4.443</ele>
        <time>2021-06-16T11:11:45Z</time>
      </trkpt>
      <trkpt lat="36.704408" lon="-3.489439">
        <ele>4.446</ele>
        <time>2021-06-16T11:11:47Z</time>
      </trkpt>
      <trkpt lat="36.704461" lon="-3.489538">
        <ele>4.973</ele>
        <time>2021-06-16T11:11:48Z</time>
      </trkpt>
      <trkpt lat="36.704568" lon="-3.489738">
        <ele>4.870</ele>
        <time>2021-06-16T11:11:50Z</time>
      </trkpt>
      <trkpt lat="36.704679" lon="-3.48993">
        <ele>4.430</ele>
        <time>2021-06-16T11:11:52Z</time>
      </trkpt>
      <trkpt lat="36.704734" lon="-3.49003">
        <ele>4.272</ele>
        <time>2021-06-16T11:11:53Z</time>
      </trkpt>
      <trkpt lat="36.704847" lon="-3.490218">
        <ele>4.013</ele>
        <time>2021-06-16T11:11:55Z</time>
      </trkpt>
      <trkpt lat="36.704951" lon="-3.490393">
        <ele>3.614</ele>
        <time>2021-06-16T11:11:57Z</time>
      </trkpt>
      <trkpt lat="36.704993" lon="-3.490479">
        <ele>3.508</ele>
        <time>2021-06-16T11:11:58Z</time>
      </trkpt>
      <trkpt lat="36.705036" lon="-3.490566">
        <ele>3.154</ele>
        <time>2021-06-16T11:11:59Z</time>
      </trkpt>
      <trkpt lat="36.705123" lon="-3.490716">
        <ele>3.782</ele>
        <time>2021-06-16T11:12:01Z</time>
      </trkpt>
      <trkpt lat="36.70516" lon="-3.4908">
        <ele>4.466</ele>
        <time>2021-06-16T11:12:02Z</time>
      </trkpt>
      <trkpt lat="36.705245" lon="-3.490964">
        <ele>5.165</ele>
        <time>2021-06-16T11:12:04Z</time>
      </trkpt>
      <trkpt lat="36.705338" lon="-3.491137">
        <ele>5.498</ele>
        <time>2021-06-16T11:12:06Z</time>
      </trkpt>
      <trkpt lat="36.705392" lon="-3.49121">
        <ele>4.965</ele>
        <time>2021-06-16T11:12:07Z</time>
      </trkpt>
      <trkpt lat="36.705442" lon="-3.491274">
        <ele>4.342</ele>
        <time>2021-06-16T11:12:08Z</time>
      </trkpt>
      <trkpt lat="36.705538" lon="-3.491398">
        <ele>3.882</ele>
        <time>2021-06-16T11:12:10Z</time>
      </trkpt>
      <trkpt lat="36.705566" lon="-3.491457">
        <ele>2.869</ele>
        <time>2021-06-16T11:12:11Z</time>
      </trkpt>
      <trkpt lat="36.705593" lon="-3.491511">
        <ele>2.004</ele>
        <time>2021-06-16T11:12:12Z</time>
      </trkpt>
      <trkpt lat="36.705634" lon="-3.491572">
        <ele>1.924</ele>
        <time>2021-06-16T11:12:14Z</time>
      </trkpt>
      <trkpt lat="36.705666" lon="-3.491614">
        <ele>2.708</ele>
        <time>2021-06-16T11:12:16Z</time>
      </trkpt>
      <trkpt lat="36.705636" lon="-3.491657">
        <ele>4.343</ele>
        <time>2021-06-16T11:12:30Z</time>
      </trkpt>
      <trkpt lat="36.705689" lon="-3.491715">
        <ele>5.241</ele>
        <time>2021-06-16T11:12:40Z</time>
      </trkpt>
      <trkpt lat="36.705722" lon="-3.49176">
        <ele>5.765</ele>
        <time>2021-06-16T11:12:41Z</time>
      </trkpt>
      <trkpt lat="36.705815" lon="-3.491866">
        <ele>6.054</ele>
        <time>2021-06-16T11:12:43Z</time>
      </trkpt>
      <trkpt lat="36.705914" lon="-3.491982">
        <ele>6.277</ele>
        <time>2021-06-16T11:12:45Z</time>
      </trkpt>
      <trkpt lat="36.705956" lon="-3.492036">
        <ele>6.364</ele>
        <time>2021-06-16T11:12:46Z</time>
      </trkpt>
      <trkpt lat="36.706036" lon="-3.492158">
        <ele>6.471</ele>
        <time>2021-06-16T11:12:48Z</time>
      </trkpt>
      <trkpt lat="36.706087" lon="-3.492212">
        <ele>6.481</ele>
        <time>2021-06-16T11:12:49Z</time>
      </trkpt>
      <trkpt lat="36.706213" lon="-3.492303">
        <ele>6.596</ele>
        <time>2021-06-16T11:12:51Z</time>
      </trkpt>
      <trkpt lat="36.706359" lon="-3.492372">
        <ele>6.531</ele>
        <time>2021-06-16T11:12:53Z</time>
      </trkpt>
      <trkpt lat="36.706519" lon="-3.492424">
        <ele>6.524</ele>
        <time>2021-06-16T11:12:55Z</time>
      </trkpt>
      <trkpt lat="36.706615" lon="-3.492434">
        <ele>6.508</ele>
        <time>2021-06-16T11:12:56Z</time>
      </trkpt>
      <trkpt lat="36.706712" lon="-3.492436">
        <ele>6.596</ele>
        <time>2021-06-16T11:12:57Z</time>
      </trkpt>
      <trkpt lat="36.706919" lon="-3.492421">
        <ele>6.564</ele>
        <time>2021-06-16T11:12:59Z</time>
      </trkpt>
      <trkpt lat="36.707032" lon="-3.492407">
        <ele>6.548</ele>
        <time>2021-06-16T11:13:00Z</time>
      </trkpt>
      <trkpt lat="36.707248" lon="-3.492375">
        <ele>6.567</ele>
        <time>2021-06-16T11:13:02Z</time>
      </trkpt>
      <trkpt lat="36.707454" lon="-3.492353">
        <ele>6.550</ele>
        <time>2021-06-16T11:13:04Z</time>
      </trkpt>
      <trkpt lat="36.707555" lon="-3.49234">
        <ele>6.567</ele>
        <time>2021-06-16T11:13:05Z</time>
      </trkpt>
      <trkpt lat="36.707649" lon="-3.49233">
        <ele>6.524</ele>
        <time>2021-06-16T11:13:06Z</time>
      </trkpt>
      <trkpt lat="36.707789" lon="-3.492317">
        <ele>6.524</ele>
        <time>2021-06-16T11:13:08Z</time>
      </trkpt>
      <trkpt lat="36.707862" lon="-3.492301">
        <ele>6.572</ele>
        <time>2021-06-16T11:13:10Z</time>
      </trkpt>
      <trkpt lat="36.70789" lon="-3.492252">
        <ele>6.613</ele>
        <time>2021-06-16T11:13:30Z</time>
      </trkpt>
      <trkpt lat="36.707959" lon="-3.492246">
        <ele>6.714</ele>
        <time>2021-06-16T11:13:37Z</time>
      </trkpt>
      <trkpt lat="36.70808" lon="-3.492235">
        <ele>6.808</ele>
        <time>2021-06-16T11:13:39Z</time>
      </trkpt>
      <trkpt lat="36.708161" lon="-3.492229">
        <ele>6.884</ele>
        <time>2021-06-16T11:13:40Z</time>
      </trkpt>
      <trkpt lat="36.70832" lon="-3.492219">
        <ele>6.872</ele>
        <time>2021-06-16T11:13:42Z</time>
      </trkpt>
      <trkpt lat="36.708394" lon="-3.492216">
        <ele>6.886</ele>
        <time>2021-06-16T11:13:43Z</time>
      </trkpt>
      <trkpt lat="36.70855" lon="-3.492216">
        <ele>6.875</ele>
        <time>2021-06-16T11:13:45Z</time>
      </trkpt>
      <trkpt lat="36.708724" lon="-3.492225">
        <ele>6.898</ele>
        <time>2021-06-16T11:13:47Z</time>
      </trkpt>
      <trkpt lat="36.70882" lon="-3.492232">
        <ele>6.885</ele>
        <time>2021-06-16T11:13:48Z</time>
      </trkpt>
      <trkpt lat="36.709032" lon="-3.492263">
        <ele>6.852</ele>
        <time>2021-06-16T11:13:50Z</time>
      </trkpt>
      <trkpt lat="36.709262" lon="-3.492315">
        <ele>6.822</ele>
        <time>2021-06-16T11:13:52Z</time>
      </trkpt>
      <trkpt lat="36.709382" lon="-3.492343">
        <ele>6.896</ele>
        <time>2021-06-16T11:13:53Z</time>
      </trkpt>
      <trkpt lat="36.709622" lon="-3.492414">
        <ele>6.831</ele>
        <time>2021-06-16T11:13:55Z</time>
      </trkpt>
      <trkpt lat="36.709859" lon="-3.492503">
        <ele>6.824</ele>
        <time>2021-06-16T11:13:57Z</time>
      </trkpt>
      <trkpt lat="36.709983" lon="-3.492552">
        <ele>6.808</ele>
        <time>2021-06-16T11:13:58Z</time>
      </trkpt>
      <trkpt lat="36.710227" lon="-3.492663">
        <ele>6.826</ele>
        <time>2021-06-16T11:14:00Z</time>
      </trkpt>
      <trkpt lat="36.710351" lon="-3.492724">
        <ele>6.834</ele>
        <time>2021-06-16T11:14:01Z</time>
      </trkpt>
      <trkpt lat="36.710601" lon="-3.492867">
        <ele>6.828</ele>
        <time>2021-06-16T11:14:03Z</time>
      </trkpt>
      <trkpt lat="36.710851" lon="-3.493044">
        <ele>6.867</ele>
        <time>2021-06-16T11:14:05Z</time>
      </trkpt>
      <trkpt lat="36.710977" lon="-3.493138">
        <ele>6.890</ele>
        <time>2021-06-16T11:14:06Z</time>
      </trkpt>
      <trkpt lat="36.711233" lon="-3.493332">
        <ele>6.877</ele>
        <time>2021-06-16T11:14:08Z</time>
      </trkpt>
      <trkpt lat="36.711364" lon="-3.493427">
        <ele>6.874</ele>
        <time>2021-06-16T11:14:09Z</time>
      </trkpt>
      <trkpt lat="36.711624" lon="-3.493606">
        <ele>6.874</ele>
        <time>2021-06-16T11:14:11Z</time>
      </trkpt>
      <trkpt lat="36.711872" lon="-3.493782">
        <ele>6.871</ele>
        <time>2021-06-16T11:14:13Z</time>
      </trkpt>
      <trkpt lat="36.712115" lon="-3.49396">
        <ele>6.841</ele>
        <time>2021-06-16T11:14:15Z</time>
      </trkpt>
      <trkpt lat="36.712355" lon="-3.494136">
        <ele>6.815</ele>
        <time>2021-06-16T11:14:17Z</time>
      </trkpt>
      <trkpt lat="36.712472" lon="-3.494225">
        <ele>6.808</ele>
        <time>2021-06-16T11:14:18Z</time>
      </trkpt>
      <trkpt lat="36.712714" lon="-3.494398">
        <ele>6.864</ele>
        <time>2021-06-16T11:14:20Z</time>
      </trkpt>
      <trkpt lat="36.712839" lon="-3.494485">
        <ele>6.822</ele>
        <time>2021-06-16T11:14:21Z</time>
      </trkpt>
      <trkpt lat="36.713097" lon="-3.494659">
        <ele>6.836</ele>
        <time>2021-06-16T11:14:23Z</time>
      </trkpt>
      <trkpt lat="36.713356" lon="-3.494838">
        <ele>6.855</ele>
        <time>2021-06-16T11:14:25Z</time>
      </trkpt>
      <trkpt lat="36.713487" lon="-3.494928">
        <ele>6.838</ele>
        <time>2021-06-16T11:14:26Z</time>
      </trkpt>
      <trkpt lat="36.713616" lon="-3.495018">
        <ele>6.865</ele>
        <time>2021-06-16T11:14:27Z</time>
      </trkpt>
      <trkpt lat="36.713875" lon="-3.495209">
        <ele>6.832</ele>
        <time>2021-06-16T11:14:29Z</time>
      </trkpt>
      <trkpt lat="36.714132" lon="-3.495404">
        <ele>6.892</ele>
        <time>2021-06-16T11:14:31Z</time>
      </trkpt>
      <trkpt lat="36.714263" lon="-3.495501">
        <ele>6.897</ele>
        <time>2021-06-16T11:14:32Z</time>
      </trkpt>
      <trkpt lat="36.714537" lon="-3.495691">
        <ele>6.823</ele>
        <time>2021-06-16T11:14:34Z</time>
      </trkpt>
      <trkpt lat="36.714672" lon="-3.495787">
        <ele>6.825</ele>
        <time>2021-06-16T11:14:35Z</time>
      </trkpt>
      <trkpt lat="36.714934" lon="-3.495989">
        <ele>10.108</ele>
        <time>2021-06-16T11:14:37Z</time>
      </trkpt>
      <trkpt lat="36.715061" lon="-3.496096">
        <ele>12.416</ele>
        <time>2021-06-16T11:14:38Z</time>
      </trkpt>
      <trkpt lat="36.715317" lon="-3.496322">
        <ele>14.194</ele>
        <time>2021-06-16T11:14:40Z</time>
      </trkpt>
      <trkpt lat="36.71557" lon="-3.496553">
        <ele>15.088</ele>
        <time>2021-06-16T11:14:42Z</time>
      </trkpt>
      <trkpt lat="36.715687" lon="-3.49667">
        <ele>15.057</ele>
        <time>2021-06-16T11:14:43Z</time>
      </trkpt>
      <trkpt lat="36.715799" lon="-3.496787">
        <ele>15.360</ele>
        <time>2021-06-16T11:14:44Z</time>
      </trkpt>
      <trkpt lat="36.715912" lon="-3.496904">
        <ele>15.617</ele>
        <time>2021-06-16T11:14:45Z</time>
      </trkpt>
      <trkpt lat="36.716028" lon="-3.497024">
        <ele>15.644</ele>
        <time>2021-06-16T11:14:46Z</time>
      </trkpt>
      <trkpt lat="36.716258" lon="-3.497267">
        <ele>15.594</ele>
        <time>2021-06-16T11:14:48Z</time>
      </trkpt>
      <trkpt lat="36.716377" lon="-3.497389">
        <ele>15.335</ele>
        <time>2021-06-16T11:14:49Z</time>
      </trkpt>
      <trkpt lat="36.716616" lon="-3.497641">
        <ele>14.886</ele>
        <time>2021-06-16T11:14:51Z</time>
      </trkpt>
      <trkpt lat="36.716868" lon="-3.497887">
        <ele>15.214</ele>
        <time>2021-06-16T11:14:53Z</time>
      </trkpt>
      <trkpt lat="36.716996" lon="-3.498003">
        <ele>15.608</ele>
        <time>2021-06-16T11:14:54Z</time>
      </trkpt>
      <trkpt lat="36.717281" lon="-3.498203">
        <ele>15.640</ele>
        <time>2021-06-16T11:14:56Z</time>
      </trkpt>
      <trkpt lat="36.71743" lon="-3.49829">
        <ele>15.358</ele>
        <time>2021-06-16T11:14:57Z</time>
      </trkpt>
      <trkpt lat="36.717581" lon="-3.498365">
        <ele>15.562</ele>
        <time>2021-06-16T11:14:58Z</time>
      </trkpt>
      <trkpt lat="36.717891" lon="-3.498494">
        <ele>15.061</ele>
        <time>2021-06-16T11:15:00Z</time>
      </trkpt>
      <trkpt lat="36.718188" lon="-3.49861">
        <ele>14.554</ele>
        <time>2021-06-16T11:15:02Z</time>
      </trkpt>
      <trkpt lat="36.718329" lon="-3.498666">
        <ele>14.311</ele>
        <time>2021-06-16T11:15:03Z</time>
      </trkpt>
      <trkpt lat="36.718467" lon="-3.49872">
        <ele>14.498</ele>
        <time>2021-06-16T11:15:04Z</time>
      </trkpt>
      <trkpt lat="36.718602" lon="-3.498772">
        <ele>14.468</ele>
        <time>2021-06-16T11:15:05Z</time>
      </trkpt>
      <trkpt lat="36.718734" lon="-3.498824">
        <ele>14.281</ele>
        <time>2021-06-16T11:15:06Z</time>
      </trkpt>
      <trkpt lat="36.718992" lon="-3.498929">
        <ele>14.461</ele>
        <time>2021-06-16T11:15:08Z</time>
      </trkpt>
      <trkpt lat="36.719232" lon="-3.499029">
        <ele>14.117</ele>
        <time>2021-06-16T11:15:10Z</time>
      </trkpt>
      <trkpt lat="36.719352" lon="-3.499079">
        <ele>13.808</ele>
        <time>2021-06-16T11:15:11Z</time>
      </trkpt>
      <trkpt lat="36.719586" lon="-3.499185">
        <ele>13.715</ele>
        <time>2021-06-16T11:15:13Z</time>
      </trkpt>
      <trkpt lat="36.719822" lon="-3.499296">
        <ele>13.973</ele>
        <time>2021-06-16T11:15:15Z</time>
      </trkpt>
      <trkpt lat="36.720064" lon="-3.499429">
        <ele>13.987</ele>
        <time>2021-06-16T11:15:17Z</time>
      </trkpt>
      <trkpt lat="36.720192" lon="-3.499518">
        <ele>14.186</ele>
        <time>2021-06-16T11:15:18Z</time>
      </trkpt>
      <trkpt lat="36.720483" lon="-3.499733">
        <ele>14.459</ele>
        <time>2021-06-16T11:15:20Z</time>
      </trkpt>
      <trkpt lat="36.720809" lon="-3.499939">
        <ele>14.776</ele>
        <time>2021-06-16T11:15:22Z</time>
      </trkpt>
      <trkpt lat="36.720979" lon="-3.500047">
        <ele>15.213</ele>
        <time>2021-06-16T11:15:23Z</time>
      </trkpt>
      <trkpt lat="36.7213" lon="-3.500288">
        <ele>15.493</ele>
        <time>2021-06-16T11:15:25Z</time>
      </trkpt>
      <trkpt lat="36.721459" lon="-3.500421">
        <ele>15.737</ele>
        <time>2021-06-16T11:15:26Z</time>
      </trkpt>
      <trkpt lat="36.721616" lon="-3.50056">
        <ele>15.949</ele>
        <time>2021-06-16T11:15:27Z</time>
      </trkpt>
      <trkpt lat="36.72177" lon="-3.500701">
        <ele>16.113</ele>
        <time>2021-06-16T11:15:28Z</time>
      </trkpt>
      <trkpt lat="36.72207" lon="-3.500991">
        <ele>16.108</ele>
        <time>2021-06-16T11:15:30Z</time>
      </trkpt>
      <trkpt lat="36.722351" lon="-3.501293">
        <ele>16.750</ele>
        <time>2021-06-16T11:15:32Z</time>
      </trkpt>
      <trkpt lat="36.722489" lon="-3.501445">
        <ele>17.178</ele>
        <time>2021-06-16T11:15:33Z</time>
      </trkpt>
      <trkpt lat="36.722765" lon="-3.501739">
        <ele>17.482</ele>
        <time>2021-06-16T11:15:35Z</time>
      </trkpt>
      <trkpt lat="36.722901" lon="-3.501883">
        <ele>17.361</ele>
        <time>2021-06-16T11:15:36Z</time>
      </trkpt>
      <trkpt lat="36.723037" lon="-3.502028">
        <ele>16.954</ele>
        <time>2021-06-16T11:15:37Z</time>
      </trkpt>
      <trkpt lat="36.723305" lon="-3.50232">
        <ele>16.581</ele>
        <time>2021-06-16T11:15:39Z</time>
      </trkpt>
      <trkpt lat="36.723442" lon="-3.502467">
        <ele>16.618</ele>
        <time>2021-06-16T11:15:40Z</time>
      </trkpt>
      <trkpt lat="36.723714" lon="-3.502764">
        <ele>16.558</ele>
        <time>2021-06-16T11:15:42Z</time>
      </trkpt>
      <trkpt lat="36.723851" lon="-3.502907">
        <ele>16.632</ele>
        <time>2021-06-16T11:15:43Z</time>
      </trkpt>
      <trkpt lat="36.724113" lon="-3.503179">
        <ele>16.292</ele>
        <time>2021-06-16T11:15:45Z</time>
      </trkpt>
      <trkpt lat="36.724244" lon="-3.503309">
        <ele>15.911</ele>
        <time>2021-06-16T11:15:46Z</time>
      </trkpt>
      <trkpt lat="36.724371" lon="-3.503436">
        <ele>15.308</ele>
        <time>2021-06-16T11:15:47Z</time>
      </trkpt>
      <trkpt lat="36.724505" lon="-3.503559">
        <ele>14.790</ele>
        <time>2021-06-16T11:15:48Z</time>
      </trkpt>
      <trkpt lat="36.72477" lon="-3.503792">
        <ele>13.938</ele>
        <time>2021-06-16T11:15:50Z</time>
      </trkpt>
      <trkpt lat="36.725042" lon="-3.504002">
        <ele>13.452</ele>
        <time>2021-06-16T11:15:52Z</time>
      </trkpt>
      <trkpt lat="36.725313" lon="-3.504202">
        <ele>13.021</ele>
        <time>2021-06-16T11:15:54Z</time>
      </trkpt>
      <trkpt lat="36.725563" lon="-3.504382">
        <ele>12.984</ele>
        <time>2021-06-16T11:15:56Z</time>
      </trkpt>
      <trkpt lat="36.725816" lon="-3.504551">
        <ele>12.311</ele>
        <time>2021-06-16T11:15:58Z</time>
      </trkpt>
      <trkpt lat="36.725943" lon="-3.504636">
        <ele>12.298</ele>
        <time>2021-06-16T11:15:59Z</time>
      </trkpt>
      <trkpt lat="36.726185" lon="-3.504806">
        <ele>12.148</ele>
        <time>2021-06-16T11:16:01Z</time>
      </trkpt>
      <trkpt lat="36.726302" lon="-3.504889">
        <ele>12.151</ele>
        <time>2021-06-16T11:16:02Z</time>
      </trkpt>
      <trkpt lat="36.726508" lon="-3.505038">
        <ele>12.101</ele>
        <time>2021-06-16T11:16:04Z</time>
      </trkpt>
      <trkpt lat="36.7266" lon="-3.505101">
        <ele>12.411</ele>
        <time>2021-06-16T11:16:05Z</time>
      </trkpt>
      <trkpt lat="36.726684" lon="-3.505153">
        <ele>12.108</ele>
        <time>2021-06-16T11:16:06Z</time>
      </trkpt>
      <trkpt lat="36.726757" lon="-3.505194">
        <ele>12.232</ele>
        <time>2021-06-16T11:16:07Z</time>
      </trkpt>
      <trkpt lat="36.726872" lon="-3.50523">
        <ele>12.180</ele>
        <time>2021-06-16T11:16:09Z</time>
      </trkpt>
      <trkpt lat="36.726932" lon="-3.505231">
        <ele>12.164</ele>
        <time>2021-06-16T11:16:10Z</time>
      </trkpt>
      <trkpt lat="36.727088" lon="-3.505187">
        <ele>12.073</ele>
        <time>2021-06-16T11:16:12Z</time>
      </trkpt>
      <trkpt lat="36.727175" lon="-3.505156">
        <ele>12.186</ele>
        <time>2021-06-16T11:16:13Z</time>
      </trkpt>
      <trkpt lat="36.727271" lon="-3.505147">
        <ele>12.083</ele>
        <time>2021-06-16T11:16:14Z</time>
      </trkpt>
      <trkpt lat="36.727366" lon="-3.50517">
        <ele>11.960</ele>
        <time>2021-06-16T11:16:15Z</time>
      </trkpt>
      <trkpt lat="36.727532" lon="-3.505291">
        <ele>11.840</ele>
        <time>2021-06-16T11:16:17Z</time>
      </trkpt>
      <trkpt lat="36.727617" lon="-3.505519">
        <ele>11.571</ele>
        <time>2021-06-16T11:16:19Z</time>
      </trkpt>
      <trkpt lat="36.727644" lon="-3.505778">
        <ele>11.041</ele>
        <time>2021-06-16T11:16:21Z</time>
      </trkpt>
      <trkpt lat="36.727765" lon="-3.505994">
        <ele>11.115</ele>
        <time>2021-06-16T11:16:23Z</time>
      </trkpt>
      <trkpt lat="36.727858" lon="-3.50608">
        <ele>10.808</ele>
        <time>2021-06-16T11:16:24Z</time>
      </trkpt>
      <trkpt lat="36.727958" lon="-3.506162">
        <ele>10.864</ele>
        <time>2021-06-16T11:16:25Z</time>
      </trkpt>
      <trkpt lat="36.728164" lon="-3.506342">
        <ele>10.852</ele>
        <time>2021-06-16T11:16:27Z</time>
      </trkpt>
      <trkpt lat="36.728266" lon="-3.506438">
        <ele>10.546</ele>
        <time>2021-06-16T11:16:28Z</time>
      </trkpt>
      <trkpt lat="36.72847" lon="-3.506632">
        <ele>10.025</ele>
        <time>2021-06-16T11:16:30Z</time>
      </trkpt>
      <trkpt lat="36.728665" lon="-3.506839">
        <ele>9.778</ele>
        <time>2021-06-16T11:16:32Z</time>
      </trkpt>
      <trkpt lat="36.728759" lon="-3.50695">
        <ele>9.515</ele>
        <time>2021-06-16T11:16:33Z</time>
      </trkpt>
      <trkpt lat="36.72885" lon="-3.507062">
        <ele>9.632</ele>
        <time>2021-06-16T11:16:34Z</time>
      </trkpt>
      <trkpt lat="36.728941" lon="-3.507171">
        <ele>9.312</ele>
        <time>2021-06-16T11:16:35Z</time>
      </trkpt>
      <trkpt lat="36.729099" lon="-3.507368">
        <ele>9.184</ele>
        <time>2021-06-16T11:16:37Z</time>
      </trkpt>
      <trkpt lat="36.729167" lon="-3.507457">
        <ele>8.907</ele>
        <time>2021-06-16T11:16:38Z</time>
      </trkpt>
      <trkpt lat="36.729287" lon="-3.507634">
        <ele>8.617</ele>
        <time>2021-06-16T11:16:40Z</time>
      </trkpt>
      <trkpt lat="36.729399" lon="-3.507794">
        <ele>8.408</ele>
        <time>2021-06-16T11:16:42Z</time>
      </trkpt>
      <trkpt lat="36.729451" lon="-3.507868">
        <ele>8.565</ele>
        <time>2021-06-16T11:16:43Z</time>
      </trkpt>
      <trkpt lat="36.729542" lon="-3.507986">
        <ele>8.493</ele>
        <time>2021-06-16T11:16:45Z</time>
      </trkpt>
      <trkpt lat="36.729581" lon="-3.508027">
        <ele>8.287</ele>
        <time>2021-06-16T11:16:46Z</time>
      </trkpt>
      <trkpt lat="36.729633" lon="-3.508055">
        <ele>8.096</ele>
        <time>2021-06-16T11:16:48Z</time>
      </trkpt>
      <trkpt lat="36.729679" lon="-3.508066">
        <ele>7.959</ele>
        <time>2021-06-16T11:16:50Z</time>
      </trkpt>
      <trkpt lat="36.72976" lon="-3.508101">
        <ele>8.146</ele>
        <time>2021-06-16T11:16:52Z</time>
      </trkpt>
      <trkpt lat="36.729858" lon="-3.508175">
        <ele>8.483</ele>
        <time>2021-06-16T11:16:54Z</time>
      </trkpt>
      <trkpt lat="36.729902" lon="-3.508228">
        <ele>8.933</ele>
        <time>2021-06-16T11:16:55Z</time>
      </trkpt>
      <trkpt lat="36.729937" lon="-3.508276">
        <ele>9.014</ele>
        <time>2021-06-16T11:16:56Z</time>
      </trkpt>
      <trkpt lat="36.729963" lon="-3.508351">
        <ele>9.154</ele>
        <time>2021-06-16T11:16:58Z</time>
      </trkpt>
      <trkpt lat="36.729956" lon="-3.508421">
        <ele>9.409</ele>
        <time>2021-06-16T11:17:00Z</time>
      </trkpt>
      <trkpt lat="36.729899" lon="-3.508439">
        <ele>9.208</ele>
        <time>2021-06-16T11:18:19Z</time>
      </trkpt>
      <trkpt lat="36.729847" lon="-3.508497">
        <ele>9.118</ele>
        <time>2021-06-16T11:18:21Z</time>
      </trkpt>
      <trkpt lat="36.729717" lon="-3.508564">
        <ele>9.086</ele>
        <time>2021-06-16T11:18:23Z</time>
      </trkpt>
      <trkpt lat="36.729638" lon="-3.508565">
        <ele>9.040</ele>
        <time>2021-06-16T11:18:24Z</time>
      </trkpt>
      <trkpt lat="36.729571" lon="-3.508529">
        <ele>9.029</ele>
        <time>2021-06-16T11:18:25Z</time>
      </trkpt>
      <trkpt lat="36.729524" lon="-3.508464">
        <ele>9.082</ele>
        <time>2021-06-16T11:18:26Z</time>
      </trkpt>
      <trkpt lat="36.729496" lon="-3.508289">
        <ele>9.059</ele>
        <time>2021-06-16T11:18:28Z</time>
      </trkpt>
      <trkpt lat="36.729572" lon="-3.508147">
        <ele>9.096</ele>
        <time>2021-06-16T11:18:30Z</time>
      </trkpt>
      <trkpt lat="36.72964" lon="-3.508105">
        <ele>9.076</ele>
        <time>2021-06-16T11:18:31Z</time>
      </trkpt>
      <trkpt lat="36.729713" lon="-3.508086">
        <ele>9.018</ele>
        <time>2021-06-16T11:18:32Z</time>
      </trkpt>
      <trkpt lat="36.729787" lon="-3.508087">
        <ele>9.098</ele>
        <time>2021-06-16T11:18:33Z</time>
      </trkpt>
      <trkpt lat="36.729934" lon="-3.508114">
        <ele>9.017</ele>
        <time>2021-06-16T11:18:35Z</time>
      </trkpt>
      <trkpt lat="36.730009" lon="-3.508131">
        <ele>9.008</ele>
        <time>2021-06-16T11:18:36Z</time>
      </trkpt>
      <trkpt lat="36.730175" lon="-3.508175">
        <ele>9.068</ele>
        <time>2021-06-16T11:18:38Z</time>
      </trkpt>
      <trkpt lat="36.730266" lon="-3.5082">
        <ele>9.046</ele>
        <time>2021-06-16T11:18:39Z</time>
      </trkpt>
      <trkpt lat="36.730456" lon="-3.508265">
        <ele>9.070</ele>
        <time>2021-06-16T11:18:41Z</time>
      </trkpt>
      <trkpt lat="36.730639" lon="-3.508345">
        <ele>9.069</ele>
        <time>2021-06-16T11:18:43Z</time>
      </trkpt>
      <trkpt lat="36.730734" lon="-3.508387">
        <ele>9.082</ele>
        <time>2021-06-16T11:18:44Z</time>
      </trkpt>
      <trkpt lat="36.730921" lon="-3.508475">
        <ele>9.039</ele>
        <time>2021-06-16T11:18:46Z</time>
      </trkpt>
      <trkpt lat="36.731006" lon="-3.508517">
        <ele>9.046</ele>
        <time>2021-06-16T11:18:47Z</time>
      </trkpt>
      <trkpt lat="36.731161" lon="-3.508597">
        <ele>9.086</ele>
        <time>2021-06-16T11:18:49Z</time>
      </trkpt>
      <trkpt lat="36.731223" lon="-3.508631">
        <ele>9.064</ele>
        <time>2021-06-16T11:18:50Z</time>
      </trkpt>
      <trkpt lat="36.731278" lon="-3.508661">
        <ele>9.006</ele>
        <time>2021-06-16T11:18:51Z</time>
      </trkpt>
      <trkpt lat="36.731374" lon="-3.508711">
        <ele>9.016</ele>
        <time>2021-06-16T11:18:53Z</time>
      </trkpt>
      <trkpt lat="36.73149" lon="-3.508787">
        <ele>9.008</ele>
        <time>2021-06-16T11:18:55Z</time>
      </trkpt>
      <trkpt lat="36.731597" lon="-3.508868">
        <ele>9.083</ele>
        <time>2021-06-16T11:18:57Z</time>
      </trkpt>
      <trkpt lat="36.731643" lon="-3.508903">
        <ele>9.051</ele>
        <time>2021-06-16T11:18:58Z</time>
      </trkpt>
      <trkpt lat="36.731681" lon="-3.508934">
        <ele>9.065</ele>
        <time>2021-06-16T11:18:59Z</time>
      </trkpt>
      <trkpt lat="36.73176" lon="-3.508995">
        <ele>9.064</ele>
        <time>2021-06-16T11:19:01Z</time>
      </trkpt>
      <trkpt lat="36.731812" lon="-3.509034">
        <ele>9.097</ele>
        <time>2021-06-16T11:19:02Z</time>
      </trkpt>
      <trkpt lat="36.731939" lon="-3.509133">
        <ele>9.034</ele>
        <time>2021-06-16T11:19:04Z</time>
      </trkpt>
      <trkpt lat="36.732085" lon="-3.509253">
        <ele>9.031</ele>
        <time>2021-06-16T11:19:06Z</time>
      </trkpt>
      <trkpt lat="36.732224" lon="-3.509362">
        <ele>9.031</ele>
        <time>2021-06-16T11:19:08Z</time>
      </trkpt>
      <trkpt lat="36.732313" lon="-3.509428">
        <ele>9.047</ele>
        <time>2021-06-16T11:19:10Z</time>
      </trkpt>
      <trkpt lat="36.73237" lon="-3.50947">
        <ele>9.029</ele>
        <time>2021-06-16T11:19:12Z</time>
      </trkpt>
      <trkpt lat="36.732417" lon="-3.509511">
        <ele>9.021</ele>
        <time>2021-06-16T11:19:13Z</time>
      </trkpt>
      <trkpt lat="36.732471" lon="-3.509556">
        <ele>9.008</ele>
        <time>2021-06-16T11:19:14Z</time>
      </trkpt>
      <trkpt lat="36.732598" lon="-3.509658">
        <ele>9.091</ele>
        <time>2021-06-16T11:19:16Z</time>
      </trkpt>
      <trkpt lat="36.732726" lon="-3.509761">
        <ele>10.989</ele>
        <time>2021-06-16T11:19:18Z</time>
      </trkpt>
      <trkpt lat="36.732794" lon="-3.509814">
        <ele>11.923</ele>
        <time>2021-06-16T11:19:19Z</time>
      </trkpt>
      <trkpt lat="36.73286" lon="-3.509871">
        <ele>12.582</ele>
        <time>2021-06-16T11:19:20Z</time>
      </trkpt>
      <trkpt lat="36.732924" lon="-3.509927">
        <ele>13.315</ele>
        <time>2021-06-16T11:19:21Z</time>
      </trkpt>
      <trkpt lat="36.732989" lon="-3.509972">
        <ele>13.762</ele>
        <time>2021-06-16T11:19:22Z</time>
      </trkpt>
      <trkpt lat="36.733074" lon="-3.510037">
        <ele>14.359</ele>
        <time>2021-06-16T11:19:24Z</time>
      </trkpt>
      <trkpt lat="36.733138" lon="-3.510087">
        <ele>14.679</ele>
        <time>2021-06-16T11:19:26Z</time>
      </trkpt>
      <trkpt lat="36.733185" lon="-3.510115">
        <ele>14.667</ele>
        <time>2021-06-16T11:19:27Z</time>
      </trkpt>
      <trkpt lat="36.73329" lon="-3.51012">
        <ele>14.681</ele>
        <time>2021-06-16T11:19:29Z</time>
      </trkpt>
      <trkpt lat="36.733346" lon="-3.510079">
        <ele>14.819</ele>
        <time>2021-06-16T11:19:30Z</time>
      </trkpt>
      <trkpt lat="36.733412" lon="-3.509969">
        <ele>14.108</ele>
        <time>2021-06-16T11:19:32Z</time>
      </trkpt>
      <trkpt lat="36.73344" lon="-3.509889">
        <ele>14.143</ele>
        <time>2021-06-16T11:19:34Z</time>
      </trkpt>
      <trkpt lat="36.733475" lon="-3.5098">
        <ele>14.361</ele>
        <time>2021-06-16T11:19:36Z</time>
      </trkpt>
      <trkpt lat="36.733524" lon="-3.509703">
        <ele>14.315</ele>
        <time>2021-06-16T11:19:38Z</time>
      </trkpt>
      <trkpt lat="36.733571" lon="-3.509598">
        <ele>14.174</ele>
        <time>2021-06-16T11:19:40Z</time>
      </trkpt>
      <trkpt lat="36.733611" lon="-3.509513">
        <ele>14.047</ele>
        <time>2021-06-16T11:19:42Z</time>
      </trkpt>
      <trkpt lat="36.733632" lon="-3.509456">
        <ele>14.244</ele>
        <time>2021-06-16T11:19:44Z</time>
      </trkpt>
      <trkpt lat="36.733662" lon="-3.509394">
        <ele>13.631</ele>
        <time>2021-06-16T11:19:47Z</time>
      </trkpt>
      <trkpt lat="36.733695" lon="-3.50933">
        <ele>13.251</ele>
        <time>2021-06-16T11:19:49Z</time>
      </trkpt>
      <trkpt lat="36.733737" lon="-3.509245">
        <ele>13.223</ele>
        <time>2021-06-16T11:19:51Z</time>
      </trkpt>
      <trkpt lat="36.733773" lon="-3.509173">
        <ele>13.083</ele>
        <time>2021-06-16T11:19:53Z</time>
      </trkpt>
      <trkpt lat="36.733808" lon="-3.509119">
        <ele>12.411</ele>
        <time>2021-06-16T11:19:59Z</time>
      </trkpt>
      <trkpt lat="36.733855" lon="-3.509095">
        <ele>12.008</ele>
        <time>2021-06-16T11:20:01Z</time>
      </trkpt>
      <trkpt lat="36.733908" lon="-3.509122">
        <ele>11.829</ele>
        <time>2021-06-16T11:20:02Z</time>
      </trkpt>
      <trkpt lat="36.734037" lon="-3.509234">
        <ele>11.747</ele>
        <time>2021-06-16T11:20:04Z</time>
      </trkpt>
      <trkpt lat="36.734103" lon="-3.509297">
        <ele>11.631</ele>
        <time>2021-06-16T11:20:05Z</time>
      </trkpt>
      <trkpt lat="36.734175" lon="-3.509357">
        <ele>11.680</ele>
        <time>2021-06-16T11:20:06Z</time>
      </trkpt>
      <trkpt lat="36.734252" lon="-3.509419">
        <ele>11.643</ele>
        <time>2021-06-16T11:20:07Z</time>
      </trkpt>
      <trkpt lat="36.734411" lon="-3.509551">
        <ele>11.670</ele>
        <time>2021-06-16T11:20:09Z</time>
      </trkpt>
      <trkpt lat="36.734495" lon="-3.509621">
        <ele>11.687</ele>
        <time>2021-06-16T11:20:10Z</time>
      </trkpt>
      <trkpt lat="36.734671" lon="-3.509758">
        <ele>11.677</ele>
        <time>2021-06-16T11:20:12Z</time>
      </trkpt>
      <trkpt lat="36.734831" lon="-3.509891">
        <ele>11.687</ele>
        <time>2021-06-16T11:20:14Z</time>
      </trkpt>
      <trkpt lat="36.734988" lon="-3.510016">
        <ele>11.642</ele>
        <time>2021-06-16T11:20:16Z</time>
      </trkpt>
      <trkpt lat="36.735161" lon="-3.510147">
        <ele>11.626</ele>
        <time>2021-06-16T11:20:18Z</time>
      </trkpt>
      <trkpt lat="36.735337" lon="-3.510291">
        <ele>11.608</ele>
        <time>2021-06-16T11:20:20Z</time>
      </trkpt>
      <trkpt lat="36.735421" lon="-3.510365">
        <ele>11.665</ele>
        <time>2021-06-16T11:20:21Z</time>
      </trkpt>
      <trkpt lat="36.735507" lon="-3.510433">
        <ele>11.633</ele>
        <time>2021-06-16T11:20:22Z</time>
      </trkpt>
      <trkpt lat="36.735687" lon="-3.510565">
        <ele>11.637</ele>
        <time>2021-06-16T11:20:24Z</time>
      </trkpt>
      <trkpt lat="36.735775" lon="-3.510633">
        <ele>11.626</ele>
        <time>2021-06-16T11:20:25Z</time>
      </trkpt>
      <trkpt lat="36.73594" lon="-3.510769">
        <ele>11.639</ele>
        <time>2021-06-16T11:20:27Z</time>
      </trkpt>
      <trkpt lat="36.736092" lon="-3.510894">
        <ele>11.626</ele>
        <time>2021-06-16T11:20:29Z</time>
      </trkpt>
      <trkpt lat="36.73623" lon="-3.511003">
        <ele>11.623</ele>
        <time>2021-06-16T11:20:31Z</time>
      </trkpt>
      <trkpt lat="36.736299" lon="-3.511055">
        <ele>11.693</ele>
        <time>2021-06-16T11:20:32Z</time>
      </trkpt>
      <trkpt lat="36.73645" lon="-3.511165">
        <ele>11.674</ele>
        <time>2021-06-16T11:20:34Z</time>
      </trkpt>
      <trkpt lat="36.736615" lon="-3.511261">
        <ele>11.656</ele>
        <time>2021-06-16T11:20:36Z</time>
      </trkpt>
      <trkpt lat="36.736764" lon="-3.511388">
        <ele>11.621</ele>
        <time>2021-06-16T11:20:38Z</time>
      </trkpt>
      <trkpt lat="36.736923" lon="-3.511509">
        <ele>11.608</ele>
        <time>2021-06-16T11:20:40Z</time>
      </trkpt>
      <trkpt lat="36.737078" lon="-3.511643">
        <ele>11.664</ele>
        <time>2021-06-16T11:20:42Z</time>
      </trkpt>
      <trkpt lat="36.737149" lon="-3.511706">
        <ele>11.662</ele>
        <time>2021-06-16T11:20:43Z</time>
      </trkpt>
      <trkpt lat="36.737218" lon="-3.511762">
        <ele>11.666</ele>
        <time>2021-06-16T11:20:44Z</time>
      </trkpt>
      <trkpt lat="36.73728" lon="-3.511812">
        <ele>11.655</ele>
        <time>2021-06-16T11:20:45Z</time>
      </trkpt>
      <trkpt lat="36.737372" lon="-3.511892">
        <ele>11.678</ele>
        <time>2021-06-16T11:20:47Z</time>
      </trkpt>
      <trkpt lat="36.737468" lon="-3.511944">
        <ele>11.625</ele>
        <time>2021-06-16T11:20:49Z</time>
      </trkpt>
      <trkpt lat="36.737528" lon="-3.511947">
        <ele>11.662</ele>
        <time>2021-06-16T11:20:50Z</time>
      </trkpt>
      <trkpt lat="36.737666" lon="-3.511931">
        <ele>11.682</ele>
        <time>2021-06-16T11:20:52Z</time>
      </trkpt>
      <trkpt lat="36.737736" lon="-3.511939">
        <ele>11.686</ele>
        <time>2021-06-16T11:20:53Z</time>
      </trkpt>
      <trkpt lat="36.737797" lon="-3.511975">
        <ele>11.660</ele>
        <time>2021-06-16T11:20:54Z</time>
      </trkpt>
      <trkpt lat="36.737834" lon="-3.512037">
        <ele>11.626</ele>
        <time>2021-06-16T11:20:55Z</time>
      </trkpt>
      <trkpt lat="36.737846" lon="-3.512189">
        <ele>11.608</ele>
        <time>2021-06-16T11:20:57Z</time>
      </trkpt>
      <trkpt lat="36.73781" lon="-3.512267">
        <ele>15.665</ele>
        <time>2021-06-16T11:20:58Z</time>
      </trkpt>
      <trkpt lat="36.737756" lon="-3.512344">
        <ele>18.373</ele>
        <time>2021-06-16T11:20:59Z</time>
      </trkpt>
      <trkpt lat="36.73765" lon="-3.512504">
        <ele>19.147</ele>
        <time>2021-06-16T11:21:01Z</time>
      </trkpt>
      <trkpt lat="36.737607" lon="-3.512592">
        <ele>19.616</ele>
        <time>2021-06-16T11:21:02Z</time>
      </trkpt>
      <trkpt lat="36.737545" lon="-3.512769">
        <ele>19.569</ele>
        <time>2021-06-16T11:21:04Z</time>
      </trkpt>
      <trkpt lat="36.737497" lon="-3.512932">
        <ele>19.796</ele>
        <time>2021-06-16T11:21:06Z</time>
      </trkpt>
      <trkpt lat="36.737488" lon="-3.513018">
        <ele>19.823</ele>
        <time>2021-06-16T11:21:08Z</time>
      </trkpt>
      <trkpt lat="36.737531" lon="-3.513049">
        <ele>19.843</ele>
        <time>2021-06-16T11:21:10Z</time>
      </trkpt>
      <trkpt lat="36.737575" lon="-3.513074">
        <ele>19.774</ele>
        <time>2021-06-16T11:21:13Z</time>
      </trkpt>
      <trkpt lat="36.737593" lon="-3.513133">
        <ele>20.056</ele>
        <time>2021-06-16T11:21:16Z</time>
      </trkpt>
      <trkpt lat="36.737572" lon="-3.513208">
        <ele>20.221</ele>
        <time>2021-06-16T11:21:19Z</time>
      </trkpt>
      <trkpt lat="36.737521" lon="-3.513235">
        <ele>20.308</ele>
        <time>2021-06-16T11:21:23Z</time>
      </trkpt>
      <trkpt lat="36.737486" lon="-3.513274">
        <ele>20.544</ele>
        <time>2021-06-16T11:22:28Z</time>
      </trkpt>
      <trkpt lat="36.737741" lon="-3.513419">
        <ele>71.342</ele>
        <time>2021-06-16T11:41:50Z</time>
      </trkpt>
      <trkpt lat="36.737744" lon="-3.513476">
        <ele>56.096</ele>
        <time>2021-06-16T11:42:22Z</time>
      </trkpt>
      <trkpt lat="36.7377" lon="-3.51351">
        <ele>38.975</ele>
        <time>2021-06-16T11:43:44Z</time>
      </trkpt>
      <trkpt lat="36.737662" lon="-3.513563">
        <ele>20.768</ele>
        <time>2021-06-16T11:43:47Z</time>
      </trkpt>
      <trkpt lat="36.737595" lon="-3.513593">
        <ele>20.775</ele>
        <time>2021-06-16T11:43:49Z</time>
      </trkpt>
      <trkpt lat="36.737546" lon="-3.513593">
        <ele>20.752</ele>
        <time>2021-06-16T11:43:50Z</time>
      </trkpt>
      <trkpt lat="36.737431" lon="-3.513529">
        <ele>20.792</ele>
        <time>2021-06-16T11:43:52Z</time>
      </trkpt>
      <trkpt lat="36.737338" lon="-3.513461">
        <ele>20.737</ele>
        <time>2021-06-16T11:43:54Z</time>
      </trkpt>
      <trkpt lat="36.737266" lon="-3.5134">
        <ele>20.749</ele>
        <time>2021-06-16T11:43:56Z</time>
      </trkpt>
      <trkpt lat="36.737223" lon="-3.513365">
        <ele>20.713</ele>
        <time>2021-06-16T11:43:57Z</time>
      </trkpt>
      <trkpt lat="36.737173" lon="-3.51333">
        <ele>20.708</ele>
        <time>2021-06-16T11:43:58Z</time>
      </trkpt>
      <trkpt lat="36.737069" lon="-3.513265">
        <ele>20.750</ele>
        <time>2021-06-16T11:44:00Z</time>
      </trkpt>
      <trkpt lat="36.737018" lon="-3.513229">
        <ele>20.718</ele>
        <time>2021-06-16T11:44:01Z</time>
      </trkpt>
      <trkpt lat="36.736919" lon="-3.513156">
        <ele>20.762</ele>
        <time>2021-06-16T11:44:03Z</time>
      </trkpt>
      <trkpt lat="36.736825" lon="-3.513081">
        <ele>20.771</ele>
        <time>2021-06-16T11:44:05Z</time>
      </trkpt>
      <trkpt lat="36.736731" lon="-3.513005">
        <ele>20.744</ele>
        <time>2021-06-16T11:44:07Z</time>
      </trkpt>
      <trkpt lat="36.736683" lon="-3.512963">
        <ele>20.761</ele>
        <time>2021-06-16T11:44:08Z</time>
      </trkpt>
      <trkpt lat="36.736567" lon="-3.512861">
        <ele>20.728</ele>
        <time>2021-06-16T11:44:10Z</time>
      </trkpt>
      <trkpt lat="36.736465" lon="-3.512777">
        <ele>20.778</ele>
        <time>2021-06-16T11:44:12Z</time>
      </trkpt>
      <trkpt lat="36.736394" lon="-3.512727">
        <ele>20.783</ele>
        <time>2021-06-16T11:44:14Z</time>
      </trkpt>
      <trkpt lat="36.736289" lon="-3.512647">
        <ele>20.725</ele>
        <time>2021-06-16T11:44:16Z</time>
      </trkpt>
      <trkpt lat="36.736226" lon="-3.512605">
        <ele>20.717</ele>
        <time>2021-06-16T11:44:17Z</time>
      </trkpt>
      <trkpt lat="36.73608" lon="-3.512501">
        <ele>20.708</ele>
        <time>2021-06-16T11:44:19Z</time>
      </trkpt>
      <trkpt lat="36.736003" lon="-3.51244">
        <ele>20.765</ele>
        <time>2021-06-16T11:44:20Z</time>
      </trkpt>
      <trkpt lat="36.735852" lon="-3.512319">
        <ele>20.753</ele>
        <time>2021-06-16T11:44:22Z</time>
      </trkpt>
      <trkpt lat="36.735785" lon="-3.512264">
        <ele>20.787</ele>
        <time>2021-06-16T11:44:23Z</time>
      </trkpt>
      <trkpt lat="36.73568" lon="-3.51218">
        <ele>20.726</ele>
        <time>2021-06-16T11:44:25Z</time>
      </trkpt>
      <trkpt lat="36.735603" lon="-3.512116">
        <ele>20.779</ele>
        <time>2021-06-16T11:44:27Z</time>
      </trkpt>
      <trkpt lat="36.735504" lon="-3.512034">
        <ele>20.756</ele>
        <time>2021-06-16T11:44:29Z</time>
      </trkpt>
      <trkpt lat="36.735444" lon="-3.511986">
        <ele>20.743</ele>
        <time>2021-06-16T11:44:30Z</time>
      </trkpt>
      <trkpt lat="36.735378" lon="-3.511933">
        <ele>20.763</ele>
        <time>2021-06-16T11:44:31Z</time>
      </trkpt>
      <trkpt lat="36.735311" lon="-3.511876">
        <ele>20.728</ele>
        <time>2021-06-16T11:44:32Z</time>
      </trkpt>
      <trkpt lat="36.735169" lon="-3.511756">
        <ele>20.789</ele>
        <time>2021-06-16T11:44:34Z</time>
      </trkpt>
      <trkpt lat="36.735029" lon="-3.511651">
        <ele>20.717</ele>
        <time>2021-06-16T11:44:36Z</time>
      </trkpt>
      <trkpt lat="36.73497" lon="-3.511605">
        <ele>20.708</ele>
        <time>2021-06-16T11:44:37Z</time>
      </trkpt>
      <trkpt lat="36.734873" lon="-3.511526">
        <ele>20.789</ele>
        <time>2021-06-16T11:44:39Z</time>
      </trkpt>
      <trkpt lat="36.734788" lon="-3.511459">
        <ele>20.757</ele>
        <time>2021-06-16T11:44:41Z</time>
      </trkpt>
      <trkpt lat="36.734735" lon="-3.511417">
        <ele>20.771</ele>
        <time>2021-06-16T11:44:42Z</time>
      </trkpt>
      <trkpt lat="36.734675" lon="-3.511366">
        <ele>20.790</ele>
        <time>2021-06-16T11:44:43Z</time>
      </trkpt>
      <trkpt lat="36.734609" lon="-3.51131">
        <ele>20.783</ele>
        <time>2021-06-16T11:44:44Z</time>
      </trkpt>
      <trkpt lat="36.734469" lon="-3.511197">
        <ele>17.270</ele>
        <time>2021-06-16T11:44:46Z</time>
      </trkpt>
      <trkpt lat="36.734401" lon="-3.51114">
        <ele>15.587</ele>
        <time>2021-06-16T11:44:47Z</time>
      </trkpt>
      <trkpt lat="36.734335" lon="-3.511085">
        <ele>14.547</ele>
        <time>2021-06-16T11:44:48Z</time>
      </trkpt>
      <trkpt lat="36.734212" lon="-3.510985">
        <ele>13.495</ele>
        <time>2021-06-16T11:44:50Z</time>
      </trkpt>
      <trkpt lat="36.734118" lon="-3.510911">
        <ele>13.349</ele>
        <time>2021-06-16T11:44:52Z</time>
      </trkpt>
      <trkpt lat="36.734029" lon="-3.510841">
        <ele>13.023</ele>
        <time>2021-06-16T11:44:54Z</time>
      </trkpt>
      <trkpt lat="36.733926" lon="-3.510752">
        <ele>13.008</ele>
        <time>2021-06-16T11:44:56Z</time>
      </trkpt>
      <trkpt lat="36.733791" lon="-3.510639">
        <ele>12.916</ele>
        <time>2021-06-16T11:44:58Z</time>
      </trkpt>
      <trkpt lat="36.733716" lon="-3.510579">
        <ele>12.844</ele>
        <time>2021-06-16T11:44:59Z</time>
      </trkpt>
      <trkpt lat="36.733643" lon="-3.510521">
        <ele>12.648</ele>
        <time>2021-06-16T11:45:00Z</time>
      </trkpt>
      <trkpt lat="36.73351" lon="-3.510426">
        <ele>12.237</ele>
        <time>2021-06-16T11:45:02Z</time>
      </trkpt>
      <trkpt lat="36.733454" lon="-3.510391">
        <ele>11.640</ele>
        <time>2021-06-16T11:45:03Z</time>
      </trkpt>
      <trkpt lat="36.733368" lon="-3.510329">
        <ele>11.227</ele>
        <time>2021-06-16T11:45:05Z</time>
      </trkpt>
      <trkpt lat="36.733329" lon="-3.510296">
        <ele>11.264</ele>
        <time>2021-06-16T11:45:06Z</time>
      </trkpt>
      <trkpt lat="36.73323" lon="-3.510208">
        <ele>11.464</ele>
        <time>2021-06-16T11:45:08Z</time>
      </trkpt>
      <trkpt lat="36.733175" lon="-3.51016">
        <ele>11.263</ele>
        <time>2021-06-16T11:45:09Z</time>
      </trkpt>
      <trkpt lat="36.733117" lon="-3.510111">
        <ele>10.944</ele>
        <time>2021-06-16T11:45:10Z</time>
      </trkpt>
      <trkpt lat="36.733058" lon="-3.510061">
        <ele>10.918</ele>
        <time>2021-06-16T11:45:11Z</time>
      </trkpt>
      <trkpt lat="36.732956" lon="-3.509977">
        <ele>10.908</ele>
        <time>2021-06-16T11:45:13Z</time>
      </trkpt>
      <trkpt lat="36.732867" lon="-3.509898">
        <ele>10.943</ele>
        <time>2021-06-16T11:45:15Z</time>
      </trkpt>
      <trkpt lat="36.732816" lon="-3.509854">
        <ele>10.981</ele>
        <time>2021-06-16T11:45:16Z</time>
      </trkpt>
      <trkpt lat="36.732758" lon="-3.509807">
        <ele>10.995</ele>
        <time>2021-06-16T11:45:17Z</time>
      </trkpt>
      <trkpt lat="36.732697" lon="-3.509757">
        <ele>11.284</ele>
        <time>2021-06-16T11:45:18Z</time>
      </trkpt>
      <trkpt lat="36.732575" lon="-3.509661">
        <ele>11.157</ele>
        <time>2021-06-16T11:45:20Z</time>
      </trkpt>
      <trkpt lat="36.732452" lon="-3.509567">
        <ele>10.834</ele>
        <time>2021-06-16T11:45:22Z</time>
      </trkpt>
      <trkpt lat="36.732336" lon="-3.509482">
        <ele>10.831</ele>
        <time>2021-06-16T11:45:24Z</time>
      </trkpt>
      <trkpt lat="36.732285" lon="-3.509444">
        <ele>11.061</ele>
        <time>2021-06-16T11:45:25Z</time>
      </trkpt>
      <trkpt lat="36.732237" lon="-3.509409">
        <ele>11.224</ele>
        <time>2021-06-16T11:45:26Z</time>
      </trkpt>
      <trkpt lat="36.73217" lon="-3.509361">
        <ele>11.304</ele>
        <time>2021-06-16T11:45:28Z</time>
      </trkpt>
      <trkpt lat="36.732131" lon="-3.509327">
        <ele>11.014</ele>
        <time>2021-06-16T11:45:29Z</time>
      </trkpt>
      <trkpt lat="36.732052" lon="-3.509256">
        <ele>10.808</ele>
        <time>2021-06-16T11:45:31Z</time>
      </trkpt>
      <trkpt lat="36.732007" lon="-3.509216">
        <ele>10.649</ele>
        <time>2021-06-16T11:45:32Z</time>
      </trkpt>
      <trkpt lat="36.731909" lon="-3.509128">
        <ele>10.637</ele>
        <time>2021-06-16T11:45:34Z</time>
      </trkpt>
      <trkpt lat="36.731851" lon="-3.509088">
        <ele>10.611</ele>
        <time>2021-06-16T11:45:35Z</time>
      </trkpt>
      <trkpt lat="36.731753" lon="-3.509014">
        <ele>10.830</ele>
        <time>2021-06-16T11:45:37Z</time>
      </trkpt>
      <trkpt lat="36.731676" lon="-3.508961">
        <ele>11.533</ele>
        <time>2021-06-16T11:45:39Z</time>
      </trkpt>
      <trkpt lat="36.731606" lon="-3.508906">
        <ele>11.760</ele>
        <time>2021-06-16T11:45:41Z</time>
      </trkpt>
      <trkpt lat="36.731536" lon="-3.508865">
        <ele>12.027</ele>
        <time>2021-06-16T11:45:43Z</time>
      </trkpt>
      <trkpt lat="36.731495" lon="-3.508836">
        <ele>12.237</ele>
        <time>2021-06-16T11:45:44Z</time>
      </trkpt>
      <trkpt lat="36.73141" lon="-3.508767">
        <ele>12.357</ele>
        <time>2021-06-16T11:45:46Z</time>
      </trkpt>
      <trkpt lat="36.731317" lon="-3.508703">
        <ele>12.500</ele>
        <time>2021-06-16T11:45:48Z</time>
      </trkpt>
      <trkpt lat="36.731272" lon="-3.50867">
        <ele>12.920</ele>
        <time>2021-06-16T11:45:49Z</time>
      </trkpt>
      <trkpt lat="36.731221" lon="-3.508636">
        <ele>13.108</ele>
        <time>2021-06-16T11:45:50Z</time>
      </trkpt>
      <trkpt lat="36.731117" lon="-3.50858">
        <ele>13.712</ele>
        <time>2021-06-16T11:45:52Z</time>
      </trkpt>
      <trkpt lat="36.731018" lon="-3.508528">
        <ele>14.150</ele>
        <time>2021-06-16T11:45:54Z</time>
      </trkpt>
      <trkpt lat="36.730969" lon="-3.508504">
        <ele>14.334</ele>
        <time>2021-06-16T11:45:55Z</time>
      </trkpt>
      <trkpt lat="36.730878" lon="-3.508458">
        <ele>14.483</ele>
        <time>2021-06-16T11:45:57Z</time>
      </trkpt>
      <trkpt lat="36.730787" lon="-3.508415">
        <ele>14.136</ele>
        <time>2021-06-16T11:45:59Z</time>
      </trkpt>
      <trkpt lat="36.730685" lon="-3.508374">
        <ele>13.513</ele>
        <time>2021-06-16T11:46:01Z</time>
      </trkpt>
      <trkpt lat="36.730633" lon="-3.508353">
        <ele>13.470</ele>
        <time>2021-06-16T11:46:02Z</time>
      </trkpt>
      <trkpt lat="36.730525" lon="-3.508303">
        <ele>13.430</ele>
        <time>2021-06-16T11:46:04Z</time>
      </trkpt>
      <trkpt lat="36.730465" lon="-3.508275">
        <ele>13.044</ele>
        <time>2021-06-16T11:46:05Z</time>
      </trkpt>
      <trkpt lat="36.730346" lon="-3.508248">
        <ele>12.505</ele>
        <time>2021-06-16T11:46:07Z</time>
      </trkpt>
      <trkpt lat="36.730283" lon="-3.508242">
        <ele>12.715</ele>
        <time>2021-06-16T11:46:08Z</time>
      </trkpt>
      <trkpt lat="36.730162" lon="-3.508237">
        <ele>12.208</ele>
        <time>2021-06-16T11:46:10Z</time>
      </trkpt>
      <trkpt lat="36.730105" lon="-3.508238">
        <ele>11.831</ele>
        <time>2021-06-16T11:46:11Z</time>
      </trkpt>
      <trkpt lat="36.730054" lon="-3.50824">
        <ele>11.239</ele>
        <time>2021-06-16T11:46:12Z</time>
      </trkpt>
      <trkpt lat="36.729975" lon="-3.508273">
        <ele>11.073</ele>
        <time>2021-06-16T11:46:14Z</time>
      </trkpt>
      <trkpt lat="36.729923" lon="-3.50835">
        <ele>10.622</ele>
        <time>2021-06-16T11:46:16Z</time>
      </trkpt>
      <trkpt lat="36.729903" lon="-3.508423">
        <ele>10.475</ele>
        <time>2021-06-16T11:46:17Z</time>
      </trkpt>
      <trkpt lat="36.729926" lon="-3.508605">
        <ele>10.222</ele>
        <time>2021-06-16T11:46:19Z</time>
      </trkpt>
      <trkpt lat="36.730016" lon="-3.508785">
        <ele>10.049</ele>
        <time>2021-06-16T11:46:21Z</time>
      </trkpt>
      <trkpt lat="36.73013" lon="-3.508978">
        <ele>9.799</ele>
        <time>2021-06-16T11:46:23Z</time>
      </trkpt>
      <trkpt lat="36.730187" lon="-3.509081">
        <ele>9.538</ele>
        <time>2021-06-16T11:46:24Z</time>
      </trkpt>
      <trkpt lat="36.730306" lon="-3.5093">
        <ele>9.570</ele>
        <time>2021-06-16T11:46:26Z</time>
      </trkpt>
      <trkpt lat="36.730422" lon="-3.50954">
        <ele>9.817</ele>
        <time>2021-06-16T11:46:28Z</time>
      </trkpt>
      <trkpt lat="36.730532" lon="-3.509788">
        <ele>10.208</ele>
        <time>2021-06-16T11:46:30Z</time>
      </trkpt>
      <trkpt lat="36.730639" lon="-3.510045">
        <ele>10.250</ele>
        <time>2021-06-16T11:46:32Z</time>
      </trkpt>
      <trkpt lat="36.730693" lon="-3.510177">
        <ele>10.768</ele>
        <time>2021-06-16T11:46:33Z</time>
      </trkpt>
      <trkpt lat="36.730795" lon="-3.510451">
        <ele>11.292</ele>
        <time>2021-06-16T11:46:35Z</time>
      </trkpt>
      <trkpt lat="36.7309" lon="-3.510732">
        <ele>11.911</ele>
        <time>2021-06-16T11:46:37Z</time>
      </trkpt>
      <trkpt lat="36.730947" lon="-3.510871">
        <ele>12.674</ele>
        <time>2021-06-16T11:46:38Z</time>
      </trkpt>
      <trkpt lat="36.731031" lon="-3.511158">
        <ele>13.371</ele>
        <time>2021-06-16T11:46:40Z</time>
      </trkpt>
      <trkpt lat="36.731074" lon="-3.511305">
        <ele>13.638</ele>
        <time>2021-06-16T11:46:41Z</time>
      </trkpt>
      <trkpt lat="36.731119" lon="-3.511451">
        <ele>14.018</ele>
        <time>2021-06-16T11:46:42Z</time>
      </trkpt>
      <trkpt lat="36.73116" lon="-3.511597">
        <ele>14.295</ele>
        <time>2021-06-16T11:46:43Z</time>
      </trkpt>
      <trkpt lat="36.731239" lon="-3.511897">
        <ele>14.949</ele>
        <time>2021-06-16T11:46:45Z</time>
      </trkpt>
      <trkpt lat="36.731277" lon="-3.51205">
        <ele>15.323</ele>
        <time>2021-06-16T11:46:46Z</time>
      </trkpt>
      <trkpt lat="36.731356" lon="-3.512361">
        <ele>15.508</ele>
        <time>2021-06-16T11:46:48Z</time>
      </trkpt>
      <trkpt lat="36.731397" lon="-3.512521">
        <ele>15.436</ele>
        <time>2021-06-16T11:46:49Z</time>
      </trkpt>
      <trkpt lat="36.731486" lon="-3.512844">
        <ele>15.694</ele>
        <time>2021-06-16T11:46:51Z</time>
      </trkpt>
      <trkpt lat="36.731531" lon="-3.513007">
        <ele>15.798</ele>
        <time>2021-06-16T11:46:52Z</time>
      </trkpt>
      <trkpt lat="36.731571" lon="-3.513169">
        <ele>16.167</ele>
        <time>2021-06-16T11:46:53Z</time>
      </trkpt>
      <trkpt lat="36.731656" lon="-3.513504">
        <ele>16.170</ele>
        <time>2021-06-16T11:46:55Z</time>
      </trkpt>
      <trkpt lat="36.73175" lon="-3.513845">
        <ele>15.917</ele>
        <time>2021-06-16T11:46:57Z</time>
      </trkpt>
      <trkpt lat="36.731796" lon="-3.514017">
        <ele>15.954</ele>
        <time>2021-06-16T11:46:58Z</time>
      </trkpt>
      <trkpt lat="36.731883" lon="-3.514355">
        <ele>16.044</ele>
        <time>2021-06-16T11:47:00Z</time>
      </trkpt>
      <trkpt lat="36.731925" lon="-3.514521">
        <ele>16.164</ele>
        <time>2021-06-16T11:47:01Z</time>
      </trkpt>
      <trkpt lat="36.731967" lon="-3.514687">
        <ele>16.306</ele>
        <time>2021-06-16T11:47:02Z</time>
      </trkpt>
      <trkpt lat="36.732008" lon="-3.514853">
        <ele>16.316</ele>
        <time>2021-06-16T11:47:03Z</time>
      </trkpt>
      <trkpt lat="36.732052" lon="-3.515021">
        <ele>15.908</ele>
        <time>2021-06-16T11:47:04Z</time>
      </trkpt>
      <trkpt lat="36.732099" lon="-3.51519">
        <ele>16.013</ele>
        <time>2021-06-16T11:47:05Z</time>
      </trkpt>
      <trkpt lat="36.73218" lon="-3.515521">
        <ele>15.861</ele>
        <time>2021-06-16T11:47:07Z</time>
      </trkpt>
      <trkpt lat="36.732218" lon="-3.515686">
        <ele>16.085</ele>
        <time>2021-06-16T11:47:08Z</time>
      </trkpt>
      <trkpt lat="36.732301" lon="-3.516017">
        <ele>15.934</ele>
        <time>2021-06-16T11:47:10Z</time>
      </trkpt>
      <trkpt lat="36.732344" lon="-3.516183">
        <ele>16.297</ele>
        <time>2021-06-16T11:47:11Z</time>
      </trkpt>
      <trkpt lat="36.732435" lon="-3.516521">
        <ele>16.054</ele>
        <time>2021-06-16T11:47:13Z</time>
      </trkpt>
      <trkpt lat="36.732525" lon="-3.516863">
        <ele>16.251</ele>
        <time>2021-06-16T11:47:15Z</time>
      </trkpt>
      <trkpt lat="36.732572" lon="-3.51704">
        <ele>16.361</ele>
        <time>2021-06-16T11:47:16Z</time>
      </trkpt>
      <trkpt lat="36.73262" lon="-3.517219">
        <ele>16.212</ele>
        <time>2021-06-16T11:47:17Z</time>
      </trkpt>
      <trkpt lat="36.732723" lon="-3.517585">
        <ele>16.032</ele>
        <time>2021-06-16T11:47:19Z</time>
      </trkpt>
      <trkpt lat="36.732774" lon="-3.517771">
        <ele>16.005</ele>
        <time>2021-06-16T11:47:20Z</time>
      </trkpt>
      <trkpt lat="36.732867" lon="-3.51814">
        <ele>16.008</ele>
        <time>2021-06-16T11:47:22Z</time>
      </trkpt>
      <trkpt lat="36.732962" lon="-3.518504">
        <ele>15.598</ele>
        <time>2021-06-16T11:47:24Z</time>
      </trkpt>
      <trkpt lat="36.73301" lon="-3.518688">
        <ele>15.186</ele>
        <time>2021-06-16T11:47:25Z</time>
      </trkpt>
      <trkpt lat="36.733058" lon="-3.518873">
        <ele>15.110</ele>
        <time>2021-06-16T11:47:26Z</time>
      </trkpt>
      <trkpt lat="36.733108" lon="-3.519058">
        <ele>15.039</ele>
        <time>2021-06-16T11:47:27Z</time>
      </trkpt>
      <trkpt lat="36.733209" lon="-3.519431">
        <ele>15.122</ele>
        <time>2021-06-16T11:47:29Z</time>
      </trkpt>
      <trkpt lat="36.733305" lon="-3.519807">
        <ele>14.729</ele>
        <time>2021-06-16T11:47:31Z</time>
      </trkpt>
      <trkpt lat="36.733353" lon="-3.519999">
        <ele>14.526</ele>
        <time>2021-06-16T11:47:32Z</time>
      </trkpt>
      <trkpt lat="36.733455" lon="-3.520391">
        <ele>14.066</ele>
        <time>2021-06-16T11:47:34Z</time>
      </trkpt>
      <trkpt lat="36.733507" lon="-3.520587">
        <ele>13.572</ele>
        <time>2021-06-16T11:47:35Z</time>
      </trkpt>
      <trkpt lat="36.733607" lon="-3.520973">
        <ele>13.513</ele>
        <time>2021-06-16T11:47:37Z</time>
      </trkpt>
      <trkpt lat="36.733657" lon="-3.521166">
        <ele>13.514</ele>
        <time>2021-06-16T11:47:38Z</time>
      </trkpt>
      <trkpt lat="36.733708" lon="-3.521359">
        <ele>13.508</ele>
        <time>2021-06-16T11:47:39Z</time>
      </trkpt>
      <trkpt lat="36.733807" lon="-3.521737">
        <ele>13.444</ele>
        <time>2021-06-16T11:47:41Z</time>
      </trkpt>
      <trkpt lat="36.73386" lon="-3.521926">
        <ele>12.952</ele>
        <time>2021-06-16T11:47:42Z</time>
      </trkpt>
      <trkpt lat="36.73396" lon="-3.522292">
        <ele>13.116</ele>
        <time>2021-06-16T11:47:44Z</time>
      </trkpt>
      <trkpt lat="36.734053" lon="-3.522655">
        <ele>13.335</ele>
        <time>2021-06-16T11:47:46Z</time>
      </trkpt>
      <trkpt lat="36.7341" lon="-3.522839">
        <ele>13.138</ele>
        <time>2021-06-16T11:47:47Z</time>
      </trkpt>
      <trkpt lat="36.734195" lon="-3.523207">
        <ele>13.255</ele>
        <time>2021-06-16T11:47:49Z</time>
      </trkpt>
      <trkpt lat="36.734245" lon="-3.52339">
        <ele>13.132</ele>
        <time>2021-06-16T11:47:50Z</time>
      </trkpt>
      <trkpt lat="36.734298" lon="-3.523581">
        <ele>13.062</ele>
        <time>2021-06-16T11:47:51Z</time>
      </trkpt>
      <trkpt lat="36.734405" lon="-3.523974">
        <ele>13.085</ele>
        <time>2021-06-16T11:47:53Z</time>
      </trkpt>
      <trkpt lat="36.734458" lon="-3.524171">
        <ele>13.089</ele>
        <time>2021-06-16T11:47:54Z</time>
      </trkpt>
      <trkpt lat="36.734568" lon="-3.524572">
        <ele>13.117</ele>
        <time>2021-06-16T11:47:56Z</time>
      </trkpt>
      <trkpt lat="36.734682" lon="-3.524983">
        <ele>12.908</ele>
        <time>2021-06-16T11:47:58Z</time>
      </trkpt>
      <trkpt lat="36.7348" lon="-3.525392">
        <ele>12.715</ele>
        <time>2021-06-16T11:48:00Z</time>
      </trkpt>
      <trkpt lat="36.734859" lon="-3.525597">
        <ele>12.293</ele>
        <time>2021-06-16T11:48:01Z</time>
      </trkpt>
      <trkpt lat="36.734974" lon="-3.525999">
        <ele>12.787</ele>
        <time>2021-06-16T11:48:03Z</time>
      </trkpt>
      <trkpt lat="36.735096" lon="-3.526399">
        <ele>13.136</ele>
        <time>2021-06-16T11:48:05Z</time>
      </trkpt>
      <trkpt lat="36.735213" lon="-3.526793">
        <ele>13.099</ele>
        <time>2021-06-16T11:48:07Z</time>
      </trkpt>
      <trkpt lat="36.735274" lon="-3.526989">
        <ele>12.526</ele>
        <time>2021-06-16T11:48:08Z</time>
      </trkpt>
      <trkpt lat="36.735398" lon="-3.527383">
        <ele>12.343</ele>
        <time>2021-06-16T11:48:10Z</time>
      </trkpt>
      <trkpt lat="36.735459" lon="-3.527578">
        <ele>12.213</ele>
        <time>2021-06-16T11:48:11Z</time>
      </trkpt>
      <trkpt lat="36.735517" lon="-3.52777">
        <ele>12.124</ele>
        <time>2021-06-16T11:48:12Z</time>
      </trkpt>
      <trkpt lat="36.735641" lon="-3.52816">
        <ele>12.104</ele>
        <time>2021-06-16T11:48:14Z</time>
      </trkpt>
      <trkpt lat="36.735763" lon="-3.528553">
        <ele>11.514</ele>
        <time>2021-06-16T11:48:16Z</time>
      </trkpt>
      <trkpt lat="36.735822" lon="-3.528754">
        <ele>11.608</ele>
        <time>2021-06-16T11:48:17Z</time>
      </trkpt>
      <trkpt lat="36.73595" lon="-3.529149">
        <ele>11.589</ele>
        <time>2021-06-16T11:48:19Z</time>
      </trkpt>
      <trkpt lat="36.736017" lon="-3.529346">
        <ele>11.787</ele>
        <time>2021-06-16T11:48:20Z</time>
      </trkpt>
      <trkpt lat="36.736081" lon="-3.529545">
        <ele>11.381</ele>
        <time>2021-06-16T11:48:21Z</time>
      </trkpt>
      <trkpt lat="36.73621" lon="-3.529942">
        <ele>10.920</ele>
        <time>2021-06-16T11:48:23Z</time>
      </trkpt>
      <trkpt lat="36.736273" lon="-3.530137">
        <ele>10.593</ele>
        <time>2021-06-16T11:48:24Z</time>
      </trkpt>
      <trkpt lat="36.736409" lon="-3.530538">
        <ele>10.080</ele>
        <time>2021-06-16T11:48:26Z</time>
      </trkpt>
      <trkpt lat="36.736541" lon="-3.53094">
        <ele>10.067</ele>
        <time>2021-06-16T11:48:28Z</time>
      </trkpt>
      <trkpt lat="36.736606" lon="-3.531141">
        <ele>10.177</ele>
        <time>2021-06-16T11:48:29Z</time>
      </trkpt>
      <trkpt lat="36.736731" lon="-3.531542">
        <ele>10.466</ele>
        <time>2021-06-16T11:48:31Z</time>
      </trkpt>
      <trkpt lat="36.736795" lon="-3.531746">
        <ele>10.729</ele>
        <time>2021-06-16T11:48:32Z</time>
      </trkpt>
      <trkpt lat="36.736863" lon="-3.531949">
        <ele>10.321</ele>
        <time>2021-06-16T11:48:33Z</time>
      </trkpt>
      <trkpt lat="36.736999" lon="-3.532356">
        <ele>11.008</ele>
        <time>2021-06-16T11:48:35Z</time>
      </trkpt>
      <trkpt lat="36.737137" lon="-3.532775">
        <ele>11.353</ele>
        <time>2021-06-16T11:48:37Z</time>
      </trkpt>
      <trkpt lat="36.737279" lon="-3.533195">
        <ele>11.061</ele>
        <time>2021-06-16T11:48:39Z</time>
      </trkpt>
      <trkpt lat="36.73735" lon="-3.533405">
        <ele>10.745</ele>
        <time>2021-06-16T11:48:40Z</time>
      </trkpt>
      <trkpt lat="36.73742" lon="-3.533615">
        <ele>10.384</ele>
        <time>2021-06-16T11:48:41Z</time>
      </trkpt>
      <trkpt lat="36.737562" lon="-3.534038">
        <ele>10.087</ele>
        <time>2021-06-16T11:48:43Z</time>
      </trkpt>
      <trkpt lat="36.737632" lon="-3.534248">
        <ele>10.174</ele>
        <time>2021-06-16T11:48:44Z</time>
      </trkpt>
      <trkpt lat="36.737701" lon="-3.534454">
        <ele>9.941</ele>
        <time>2021-06-16T11:48:45Z</time>
      </trkpt>
      <trkpt lat="36.737832" lon="-3.534868">
        <ele>9.531</ele>
        <time>2021-06-16T11:48:47Z</time>
      </trkpt>
      <trkpt lat="36.737961" lon="-3.535285">
        <ele>9.598</ele>
        <time>2021-06-16T11:48:49Z</time>
      </trkpt>
      <trkpt lat="36.73809" lon="-3.535697">
        <ele>8.815</ele>
        <time>2021-06-16T11:48:51Z</time>
      </trkpt>
      <trkpt lat="36.738217" lon="-3.536105">
        <ele>8.326</ele>
        <time>2021-06-16T11:48:53Z</time>
      </trkpt>
      <trkpt lat="36.738274" lon="-3.53631">
        <ele>8.008</ele>
        <time>2021-06-16T11:48:54Z</time>
      </trkpt>
      <trkpt lat="36.738392" lon="-3.536703">
        <ele>8.026</ele>
        <time>2021-06-16T11:48:56Z</time>
      </trkpt>
      <trkpt lat="36.738452" lon="-3.536895">
        <ele>7.544</ele>
        <time>2021-06-16T11:48:57Z</time>
      </trkpt>
      <trkpt lat="36.738566" lon="-3.53728">
        <ele>7.468</ele>
        <time>2021-06-16T11:48:59Z</time>
      </trkpt>
      <trkpt lat="36.738619" lon="-3.537472">
        <ele>7.427</ele>
        <time>2021-06-16T11:49:00Z</time>
      </trkpt>
      <trkpt lat="36.738672" lon="-3.537664">
        <ele>7.680</ele>
        <time>2021-06-16T11:49:01Z</time>
      </trkpt>
      <trkpt lat="36.738782" lon="-3.538042">
        <ele>7.827</ele>
        <time>2021-06-16T11:49:03Z</time>
      </trkpt>
      <trkpt lat="36.738884" lon="-3.53842">
        <ele>8.224</ele>
        <time>2021-06-16T11:49:05Z</time>
      </trkpt>
      <trkpt lat="36.738992" lon="-3.538799">
        <ele>8.024</ele>
        <time>2021-06-16T11:49:07Z</time>
      </trkpt>
      <trkpt lat="36.739095" lon="-3.539179">
        <ele>7.865</ele>
        <time>2021-06-16T11:49:09Z</time>
      </trkpt>
      <trkpt lat="36.739196" lon="-3.539551">
        <ele>7.968</ele>
        <time>2021-06-16T11:49:11Z</time>
      </trkpt>
      <trkpt lat="36.739297" lon="-3.539921">
        <ele>8.214</ele>
        <time>2021-06-16T11:49:13Z</time>
      </trkpt>
      <trkpt lat="36.739348" lon="-3.540105">
        <ele>8.608</ele>
        <time>2021-06-16T11:49:14Z</time>
      </trkpt>
      <trkpt lat="36.739448" lon="-3.540466">
        <ele>8.933</ele>
        <time>2021-06-16T11:49:16Z</time>
      </trkpt>
      <trkpt lat="36.739549" lon="-3.540829">
        <ele>9.351</ele>
        <time>2021-06-16T11:49:18Z</time>
      </trkpt>
      <trkpt lat="36.739599" lon="-3.541011">
        <ele>9.615</ele>
        <time>2021-06-16T11:49:19Z</time>
      </trkpt>
      <trkpt lat="36.739699" lon="-3.541378">
        <ele>9.794</ele>
        <time>2021-06-16T11:49:21Z</time>
      </trkpt>
      <trkpt lat="36.739754" lon="-3.541562">
        <ele>9.697</ele>
        <time>2021-06-16T11:49:22Z</time>
      </trkpt>
      <trkpt lat="36.739809" lon="-3.541751">
        <ele>10.034</ele>
        <time>2021-06-16T11:49:23Z</time>
      </trkpt>
      <trkpt lat="36.739863" lon="-3.541939">
        <ele>10.241</ele>
        <time>2021-06-16T11:49:24Z</time>
      </trkpt>
      <trkpt lat="36.739976" lon="-3.542301">
        <ele>9.961</ele>
        <time>2021-06-16T11:49:26Z</time>
      </trkpt>
      <trkpt lat="36.740076" lon="-3.542655">
        <ele>9.627</ele>
        <time>2021-06-16T11:49:28Z</time>
      </trkpt>
      <trkpt lat="36.740178" lon="-3.543006">
        <ele>9.468</ele>
        <time>2021-06-16T11:49:30Z</time>
      </trkpt>
      <trkpt lat="36.74028" lon="-3.543355">
        <ele>9.514</ele>
        <time>2021-06-16T11:49:32Z</time>
      </trkpt>
      <trkpt lat="36.740333" lon="-3.543529">
        <ele>9.008</ele>
        <time>2021-06-16T11:49:33Z</time>
      </trkpt>
      <trkpt lat="36.740386" lon="-3.5437">
        <ele>8.999</ele>
        <time>2021-06-16T11:49:34Z</time>
      </trkpt>
      <trkpt lat="36.740489" lon="-3.54404">
        <ele>8.677</ele>
        <time>2021-06-16T11:49:36Z</time>
      </trkpt>
      <trkpt lat="36.740541" lon="-3.544213">
        <ele>8.851</ele>
        <time>2021-06-16T11:49:37Z</time>
      </trkpt>
      <trkpt lat="36.740592" lon="-3.544385">
        <ele>8.620</ele>
        <time>2021-06-16T11:49:38Z</time>
      </trkpt>
      <trkpt lat="36.740692" lon="-3.544719">
        <ele>8.493</ele>
        <time>2021-06-16T11:49:40Z</time>
      </trkpt>
      <trkpt lat="36.740741" lon="-3.544886">
        <ele>8.140</ele>
        <time>2021-06-16T11:49:41Z</time>
      </trkpt>
      <trkpt lat="36.740833" lon="-3.545225">
        <ele>7.717</ele>
        <time>2021-06-16T11:49:43Z</time>
      </trkpt>
      <trkpt lat="36.74088" lon="-3.545391">
        <ele>7.847</ele>
        <time>2021-06-16T11:49:44Z</time>
      </trkpt>
      <trkpt lat="36.740927" lon="-3.545557">
        <ele>8.022</ele>
        <time>2021-06-16T11:49:45Z</time>
      </trkpt>
      <trkpt lat="36.740972" lon="-3.545723">
        <ele>7.962</ele>
        <time>2021-06-16T11:49:46Z</time>
      </trkpt>
      <trkpt lat="36.741073" lon="-3.546051">
        <ele>8.108</ele>
        <time>2021-06-16T11:49:48Z</time>
      </trkpt>
      <trkpt lat="36.741123" lon="-3.546216">
        <ele>7.708</ele>
        <time>2021-06-16T11:49:49Z</time>
      </trkpt>
      <trkpt lat="36.741223" lon="-3.546546">
        <ele>7.749</ele>
        <time>2021-06-16T11:49:51Z</time>
      </trkpt>
      <trkpt lat="36.741315" lon="-3.546869">
        <ele>7.517</ele>
        <time>2021-06-16T11:49:53Z</time>
      </trkpt>
      <trkpt lat="36.741361" lon="-3.547024">
        <ele>7.441</ele>
        <time>2021-06-16T11:49:54Z</time>
      </trkpt>
      <trkpt lat="36.741447" lon="-3.547332">
        <ele>7.650</ele>
        <time>2021-06-16T11:49:56Z</time>
      </trkpt>
      <trkpt lat="36.741489" lon="-3.547485">
        <ele>7.453</ele>
        <time>2021-06-16T11:49:57Z</time>
      </trkpt>
      <trkpt lat="36.741535" lon="-3.547634">
        <ele>7.620</ele>
        <time>2021-06-16T11:49:58Z</time>
      </trkpt>
      <trkpt lat="36.741625" lon="-3.547933">
        <ele>7.957</ele>
        <time>2021-06-16T11:50:00Z</time>
      </trkpt>
      <trkpt lat="36.741716" lon="-3.548252">
        <ele>7.997</ele>
        <time>2021-06-16T11:50:02Z</time>
      </trkpt>
      <trkpt lat="36.741762" lon="-3.548414">
        <ele>8.133</ele>
        <time>2021-06-16T11:50:03Z</time>
      </trkpt>
      <trkpt lat="36.741809" lon="-3.548577">
        <ele>7.823</ele>
        <time>2021-06-16T11:50:04Z</time>
      </trkpt>
      <trkpt lat="36.741898" lon="-3.548905">
        <ele>8.015</ele>
        <time>2021-06-16T11:50:06Z</time>
      </trkpt>
      <trkpt lat="36.741946" lon="-3.549069">
        <ele>8.208</ele>
        <time>2021-06-16T11:50:07Z</time>
      </trkpt>
      <trkpt lat="36.742044" lon="-3.549391">
        <ele>8.130</ele>
        <time>2021-06-16T11:50:09Z</time>
      </trkpt>
      <trkpt lat="36.742139" lon="-3.549707">
        <ele>8.138</ele>
        <time>2021-06-16T11:50:11Z</time>
      </trkpt>
      <trkpt lat="36.742235" lon="-3.550016">
        <ele>7.982</ele>
        <time>2021-06-16T11:50:13Z</time>
      </trkpt>
      <trkpt lat="36.742324" lon="-3.550343">
        <ele>7.451</ele>
        <time>2021-06-16T11:50:15Z</time>
      </trkpt>
      <trkpt lat="36.742373" lon="-3.550504">
        <ele>7.544</ele>
        <time>2021-06-16T11:50:16Z</time>
      </trkpt>
      <trkpt lat="36.742467" lon="-3.550828">
        <ele>7.461</ele>
        <time>2021-06-16T11:50:18Z</time>
      </trkpt>
      <trkpt lat="36.74256" lon="-3.551142">
        <ele>7.818</ele>
        <time>2021-06-16T11:50:20Z</time>
      </trkpt>
      <trkpt lat="36.742606" lon="-3.551298">
        <ele>7.878</ele>
        <time>2021-06-16T11:50:21Z</time>
      </trkpt>
      <trkpt lat="36.742696" lon="-3.551618">
        <ele>8.557</ele>
        <time>2021-06-16T11:50:23Z</time>
      </trkpt>
      <trkpt lat="36.742796" lon="-3.55193">
        <ele>8.800</ele>
        <time>2021-06-16T11:50:25Z</time>
      </trkpt>
      <trkpt lat="36.74284" lon="-3.552095">
        <ele>9.120</ele>
        <time>2021-06-16T11:50:26Z</time>
      </trkpt>
      <trkpt lat="36.742924" lon="-3.552422">
        <ele>9.508</ele>
        <time>2021-06-16T11:50:28Z</time>
      </trkpt>
      <trkpt lat="36.742966" lon="-3.552587">
        <ele>9.642</ele>
        <time>2021-06-16T11:50:29Z</time>
      </trkpt>
      <trkpt lat="36.743057" lon="-3.55292">
        <ele>9.620</ele>
        <time>2021-06-16T11:50:31Z</time>
      </trkpt>
      <trkpt lat="36.743151" lon="-3.553246">
        <ele>9.954</ele>
        <time>2021-06-16T11:50:33Z</time>
      </trkpt>
      <trkpt lat="36.743193" lon="-3.553415">
        <ele>10.233</ele>
        <time>2021-06-16T11:50:34Z</time>
      </trkpt>
      <trkpt lat="36.743232" lon="-3.553599">
        <ele>10.196</ele>
        <time>2021-06-16T11:50:35Z</time>
      </trkpt>
      <trkpt lat="36.743311" lon="-3.553944">
        <ele>10.293</ele>
        <time>2021-06-16T11:50:37Z</time>
      </trkpt>
      <trkpt lat="36.743355" lon="-3.554121">
        <ele>10.220</ele>
        <time>2021-06-16T11:50:38Z</time>
      </trkpt>
      <trkpt lat="36.74343" lon="-3.554481">
        <ele>10.260</ele>
        <time>2021-06-16T11:50:40Z</time>
      </trkpt>
      <trkpt lat="36.743506" lon="-3.554841">
        <ele>10.333</ele>
        <time>2021-06-16T11:50:42Z</time>
      </trkpt>
      <trkpt lat="36.743584" lon="-3.555196">
        <ele>10.523</ele>
        <time>2021-06-16T11:50:44Z</time>
      </trkpt>
      <trkpt lat="36.743649" lon="-3.555563">
        <ele>10.515</ele>
        <time>2021-06-16T11:50:46Z</time>
      </trkpt>
      <trkpt lat="36.743707" lon="-3.555937">
        <ele>10.508</ele>
        <time>2021-06-16T11:50:48Z</time>
      </trkpt>
      <trkpt lat="36.743768" lon="-3.55631">
        <ele>10.410</ele>
        <time>2021-06-16T11:50:50Z</time>
      </trkpt>
      <trkpt lat="36.743799" lon="-3.556496">
        <ele>10.578</ele>
        <time>2021-06-16T11:50:51Z</time>
      </trkpt>
      <trkpt lat="36.743832" lon="-3.556681">
        <ele>11.022</ele>
        <time>2021-06-16T11:50:52Z</time>
      </trkpt>
      <trkpt lat="36.743861" lon="-3.556869">
        <ele>11.441</ele>
        <time>2021-06-16T11:50:53Z</time>
      </trkpt>
      <trkpt lat="36.743926" lon="-3.55724">
        <ele>11.914</ele>
        <time>2021-06-16T11:50:55Z</time>
      </trkpt>
      <trkpt lat="36.743986" lon="-3.55761">
        <ele>12.691</ele>
        <time>2021-06-16T11:50:57Z</time>
      </trkpt>
      <trkpt lat="36.744017" lon="-3.557796">
        <ele>12.958</ele>
        <time>2021-06-16T11:50:58Z</time>
      </trkpt>
      <trkpt lat="36.744048" lon="-3.557983">
        <ele>13.428</ele>
        <time>2021-06-16T11:50:59Z</time>
      </trkpt>
      <trkpt lat="36.744079" lon="-3.558166">
        <ele>13.876</ele>
        <time>2021-06-16T11:51:00Z</time>
      </trkpt>
      <trkpt lat="36.744111" lon="-3.558346">
        <ele>13.890</ele>
        <time>2021-06-16T11:51:01Z</time>
      </trkpt>
      <trkpt lat="36.744178" lon="-3.55871">
        <ele>14.319</ele>
        <time>2021-06-16T11:51:03Z</time>
      </trkpt>
      <trkpt lat="36.744245" lon="-3.559079">
        <ele>14.708</ele>
        <time>2021-06-16T11:51:05Z</time>
      </trkpt>
      <trkpt lat="36.74428" lon="-3.559261">
        <ele>14.954</ele>
        <time>2021-06-16T11:51:06Z</time>
      </trkpt>
      <trkpt lat="36.744314" lon="-3.55944">
        <ele>15.492</ele>
        <time>2021-06-16T11:51:07Z</time>
      </trkpt>
      <trkpt lat="36.744374" lon="-3.559801">
        <ele>16.356</ele>
        <time>2021-06-16T11:51:09Z</time>
      </trkpt>
      <trkpt lat="36.744404" lon="-3.559985">
        <ele>17.215</ele>
        <time>2021-06-16T11:51:10Z</time>
      </trkpt>
      <trkpt lat="36.744435" lon="-3.560167">
        <ele>17.738</ele>
        <time>2021-06-16T11:51:11Z</time>
      </trkpt>
      <trkpt lat="36.744492" lon="-3.56053">
        <ele>18.445</ele>
        <time>2021-06-16T11:51:13Z</time>
      </trkpt>
      <trkpt lat="36.744554" lon="-3.560894">
        <ele>19.042</ele>
        <time>2021-06-16T11:51:15Z</time>
      </trkpt>
      <trkpt lat="36.744616" lon="-3.561259">
        <ele>20.112</ele>
        <time>2021-06-16T11:51:17Z</time>
      </trkpt>
      <trkpt lat="36.744677" lon="-3.561623">
        <ele>21.545</ele>
        <time>2021-06-16T11:51:19Z</time>
      </trkpt>
      <trkpt lat="36.74471" lon="-3.561806">
        <ele>22.147</ele>
        <time>2021-06-16T11:51:20Z</time>
      </trkpt>
      <trkpt lat="36.744771" lon="-3.562174">
        <ele>23.111</ele>
        <time>2021-06-16T11:51:22Z</time>
      </trkpt>
      <trkpt lat="36.74483" lon="-3.562547">
        <ele>24.208</ele>
        <time>2021-06-16T11:51:24Z</time>
      </trkpt>
      <trkpt lat="36.744896" lon="-3.562915">
        <ele>24.791</ele>
        <time>2021-06-16T11:51:26Z</time>
      </trkpt>
      <trkpt lat="36.744924" lon="-3.563106">
        <ele>25.059</ele>
        <time>2021-06-16T11:51:27Z</time>
      </trkpt>
      <trkpt lat="36.744978" lon="-3.563488">
        <ele>25.333</ele>
        <time>2021-06-16T11:51:29Z</time>
      </trkpt>
      <trkpt lat="36.745033" lon="-3.563886">
        <ele>25.032</ele>
        <time>2021-06-16T11:51:31Z</time>
      </trkpt>
      <trkpt lat="36.745084" lon="-3.564284">
        <ele>24.945</ele>
        <time>2021-06-16T11:51:33Z</time>
      </trkpt>
      <trkpt lat="36.745109" lon="-3.564488">
        <ele>25.132</ele>
        <time>2021-06-16T11:51:34Z</time>
      </trkpt>
      <trkpt lat="36.745151" lon="-3.564894">
        <ele>25.349</ele>
        <time>2021-06-16T11:51:36Z</time>
      </trkpt>
      <trkpt lat="36.745185" lon="-3.565301">
        <ele>25.369</ele>
        <time>2021-06-16T11:51:38Z</time>
      </trkpt>
      <trkpt lat="36.745202" lon="-3.565506">
        <ele>25.645</ele>
        <time>2021-06-16T11:51:39Z</time>
      </trkpt>
      <trkpt lat="36.745237" lon="-3.565918">
        <ele>25.347</ele>
        <time>2021-06-16T11:51:41Z</time>
      </trkpt>
      <trkpt lat="36.745253" lon="-3.566131">
        <ele>24.811</ele>
        <time>2021-06-16T11:51:42Z</time>
      </trkpt>
      <trkpt lat="36.745286" lon="-3.566548">
        <ele>24.108</ele>
        <time>2021-06-16T11:51:44Z</time>
      </trkpt>
      <trkpt lat="36.745316" lon="-3.566947">
        <ele>23.881</ele>
        <time>2021-06-16T11:51:46Z</time>
      </trkpt>
      <trkpt lat="36.745327" lon="-3.567143">
        <ele>23.589</ele>
        <time>2021-06-16T11:51:47Z</time>
      </trkpt>
      <trkpt lat="36.745339" lon="-3.567547">
        <ele>23.463</ele>
        <time>2021-06-16T11:51:49Z</time>
      </trkpt>
      <trkpt lat="36.745362" lon="-3.567943">
        <ele>23.392</ele>
        <time>2021-06-16T11:51:51Z</time>
      </trkpt>
      <trkpt lat="36.745371" lon="-3.568144">
        <ele>23.215</ele>
        <time>2021-06-16T11:51:52Z</time>
      </trkpt>
      <trkpt lat="36.74538" lon="-3.568345">
        <ele>23.472</ele>
        <time>2021-06-16T11:51:53Z</time>
      </trkpt>
      <trkpt lat="36.74539" lon="-3.568548">
        <ele>23.179</ele>
        <time>2021-06-16T11:51:54Z</time>
      </trkpt>
      <trkpt lat="36.745408" lon="-3.568746">
        <ele>22.369</ele>
        <time>2021-06-16T11:51:55Z</time>
      </trkpt>
      <trkpt lat="36.745445" lon="-3.569139">
        <ele>22.058</ele>
        <time>2021-06-16T11:51:57Z</time>
      </trkpt>
      <trkpt lat="36.745474" lon="-3.569535">
        <ele>22.252</ele>
        <time>2021-06-16T11:51:59Z</time>
      </trkpt>
      <trkpt lat="36.745487" lon="-3.569732">
        <ele>21.817</ele>
        <time>2021-06-16T11:52:00Z</time>
      </trkpt>
      <trkpt lat="36.745497" lon="-3.569934">
        <ele>22.008</ele>
        <time>2021-06-16T11:52:01Z</time>
      </trkpt>
      <trkpt lat="36.745509" lon="-3.570137">
        <ele>22.482</ele>
        <time>2021-06-16T11:52:02Z</time>
      </trkpt>
      <trkpt lat="36.745537" lon="-3.570544">
        <ele>22.190</ele>
        <time>2021-06-16T11:52:04Z</time>
      </trkpt>
      <trkpt lat="36.745556" lon="-3.570958">
        <ele>22.194</ele>
        <time>2021-06-16T11:52:06Z</time>
      </trkpt>
      <trkpt lat="36.745577" lon="-3.571372">
        <ele>22.083</ele>
        <time>2021-06-16T11:52:08Z</time>
      </trkpt>
      <trkpt lat="36.745588" lon="-3.571577">
        <ele>21.616</ele>
        <time>2021-06-16T11:52:09Z</time>
      </trkpt>
      <trkpt lat="36.745608" lon="-3.57199">
        <ele>21.413</ele>
        <time>2021-06-16T11:52:11Z</time>
      </trkpt>
      <trkpt lat="36.745635" lon="-3.572405">
        <ele>21.390</ele>
        <time>2021-06-16T11:52:13Z</time>
      </trkpt>
      <trkpt lat="36.745661" lon="-3.572826">
        <ele>21.080</ele>
        <time>2021-06-16T11:52:15Z</time>
      </trkpt>
      <trkpt lat="36.745675" lon="-3.573037">
        <ele>20.981</ele>
        <time>2021-06-16T11:52:16Z</time>
      </trkpt>
      <trkpt lat="36.745703" lon="-3.573447">
        <ele>20.961</ele>
        <time>2021-06-16T11:52:18Z</time>
      </trkpt>
      <trkpt lat="36.745725" lon="-3.573857">
        <ele>20.917</ele>
        <time>2021-06-16T11:52:20Z</time>
      </trkpt>
      <trkpt lat="36.745737" lon="-3.574063">
        <ele>20.908</ele>
        <time>2021-06-16T11:52:21Z</time>
      </trkpt>
      <trkpt lat="36.745748" lon="-3.57427">
        <ele>20.725</ele>
        <time>2021-06-16T11:52:22Z</time>
      </trkpt>
      <trkpt lat="36.745765" lon="-3.574478">
        <ele>20.633</ele>
        <time>2021-06-16T11:52:23Z</time>
      </trkpt>
      <trkpt lat="36.7458" lon="-3.574885">
        <ele>20.487</ele>
        <time>2021-06-16T11:52:25Z</time>
      </trkpt>
      <trkpt lat="36.745808" lon="-3.575082">
        <ele>20.426</ele>
        <time>2021-06-16T11:52:26Z</time>
      </trkpt>
      <trkpt lat="36.745823" lon="-3.575472">
        <ele>20.559</ele>
        <time>2021-06-16T11:52:28Z</time>
      </trkpt>
      <trkpt lat="36.745835" lon="-3.575666">
        <ele>20.376</ele>
        <time>2021-06-16T11:52:29Z</time>
      </trkpt>
      <trkpt lat="36.745862" lon="-3.576065">
        <ele>20.443</ele>
        <time>2021-06-16T11:52:31Z</time>
      </trkpt>
      <trkpt lat="36.745873" lon="-3.576264">
        <ele>20.593</ele>
        <time>2021-06-16T11:52:32Z</time>
      </trkpt>
      <trkpt lat="36.745896" lon="-3.576666">
        <ele>20.599</ele>
        <time>2021-06-16T11:52:34Z</time>
      </trkpt>
      <trkpt lat="36.745907" lon="-3.576874">
        <ele>20.507</ele>
        <time>2021-06-16T11:52:35Z</time>
      </trkpt>
      <trkpt lat="36.74593" lon="-3.577294">
        <ele>20.527</ele>
        <time>2021-06-16T11:52:37Z</time>
      </trkpt>
      <trkpt lat="36.745944" lon="-3.577505">
        <ele>20.308</ele>
        <time>2021-06-16T11:52:38Z</time>
      </trkpt>
      <trkpt lat="36.745975" lon="-3.577918">
        <ele>20.696</ele>
        <time>2021-06-16T11:52:40Z</time>
      </trkpt>
      <trkpt lat="36.745989" lon="-3.578119">
        <ele>20.654</ele>
        <time>2021-06-16T11:52:41Z</time>
      </trkpt>
      <trkpt lat="36.746015" lon="-3.578527">
        <ele>19.958</ele>
        <time>2021-06-16T11:52:43Z</time>
      </trkpt>
      <trkpt lat="36.746031" lon="-3.578932">
        <ele>19.917</ele>
        <time>2021-06-16T11:52:45Z</time>
      </trkpt>
      <trkpt lat="36.746058" lon="-3.579326">
        <ele>19.280</ele>
        <time>2021-06-16T11:52:47Z</time>
      </trkpt>
      <trkpt lat="36.746073" lon="-3.579527">
        <ele>18.747</ele>
        <time>2021-06-16T11:52:48Z</time>
      </trkpt>
      <trkpt lat="36.746099" lon="-3.579929">
        <ele>18.244</ele>
        <time>2021-06-16T11:52:50Z</time>
      </trkpt>
      <trkpt lat="36.74613" lon="-3.580327">
        <ele>17.854</ele>
        <time>2021-06-16T11:52:52Z</time>
      </trkpt>
      <trkpt lat="36.746144" lon="-3.580527">
        <ele>17.611</ele>
        <time>2021-06-16T11:52:53Z</time>
      </trkpt>
      <trkpt lat="36.74617" lon="-3.580927">
        <ele>17.621</ele>
        <time>2021-06-16T11:52:55Z</time>
      </trkpt>
      <trkpt lat="36.74618" lon="-3.581132">
        <ele>17.803</ele>
        <time>2021-06-16T11:52:56Z</time>
      </trkpt>
      <trkpt lat="36.746188" lon="-3.581337">
        <ele>17.608</ele>
        <time>2021-06-16T11:52:57Z</time>
      </trkpt>
      <trkpt lat="36.746211" lon="-3.58175">
        <ele>17.578</ele>
        <time>2021-06-16T11:52:59Z</time>
      </trkpt>
      <trkpt lat="36.746238" lon="-3.582151">
        <ele>17.976</ele>
        <time>2021-06-16T11:53:01Z</time>
      </trkpt>
      <trkpt lat="36.746249" lon="-3.582359">
        <ele>18.120</ele>
        <time>2021-06-16T11:53:02Z</time>
      </trkpt>
      <trkpt lat="36.746262" lon="-3.58257">
        <ele>17.769</ele>
        <time>2021-06-16T11:53:03Z</time>
      </trkpt>
      <trkpt lat="36.7463" lon="-3.582968">
        <ele>17.612</ele>
        <time>2021-06-16T11:53:05Z</time>
      </trkpt>
      <trkpt lat="36.746378" lon="-3.583342">
        <ele>17.629</ele>
        <time>2021-06-16T11:53:07Z</time>
      </trkpt>
      <trkpt lat="36.746509" lon="-3.58369">
        <ele>17.656</ele>
        <time>2021-06-16T11:53:09Z</time>
      </trkpt>
      <trkpt lat="36.746585" lon="-3.58386">
        <ele>17.756</ele>
        <time>2021-06-16T11:53:10Z</time>
      </trkpt>
      <trkpt lat="36.746742" lon="-3.584201">
        <ele>17.537</ele>
        <time>2021-06-16T11:53:12Z</time>
      </trkpt>
      <trkpt lat="36.746823" lon="-3.584377">
        <ele>17.649</ele>
        <time>2021-06-16T11:53:13Z</time>
      </trkpt>
      <trkpt lat="36.746988" lon="-3.584723">
        <ele>17.513</ele>
        <time>2021-06-16T11:53:15Z</time>
      </trkpt>
      <trkpt lat="36.747145" lon="-3.585068">
        <ele>17.808</ele>
        <time>2021-06-16T11:53:17Z</time>
      </trkpt>
      <trkpt lat="36.747299" lon="-3.585404">
        <ele>18.330</ele>
        <time>2021-06-16T11:53:19Z</time>
      </trkpt>
      <trkpt lat="36.74745" lon="-3.585744">
        <ele>18.898</ele>
        <time>2021-06-16T11:53:21Z</time>
      </trkpt>
      <trkpt lat="36.747527" lon="-3.585918">
        <ele>18.892</ele>
        <time>2021-06-16T11:53:22Z</time>
      </trkpt>
      <trkpt lat="36.747684" lon="-3.586265">
        <ele>19.121</ele>
        <time>2021-06-16T11:53:24Z</time>
      </trkpt>
      <trkpt lat="36.747761" lon="-3.58644">
        <ele>19.034</ele>
        <time>2021-06-16T11:53:25Z</time>
      </trkpt>
      <trkpt lat="36.747834" lon="-3.586615">
        <ele>19.671</ele>
        <time>2021-06-16T11:53:26Z</time>
      </trkpt>
      <trkpt lat="36.747988" lon="-3.586958">
        <ele>19.938</ele>
        <time>2021-06-16T11:53:28Z</time>
      </trkpt>
      <trkpt lat="36.748068" lon="-3.587129">
        <ele>20.188</ele>
        <time>2021-06-16T11:53:29Z</time>
      </trkpt>
      <trkpt lat="36.748144" lon="-3.587301">
        <ele>20.691</ele>
        <time>2021-06-16T11:53:30Z</time>
      </trkpt>
      <trkpt lat="36.748216" lon="-3.58747">
        <ele>20.881</ele>
        <time>2021-06-16T11:53:31Z</time>
      </trkpt>
      <trkpt lat="36.748287" lon="-3.587637">
        <ele>20.719</ele>
        <time>2021-06-16T11:53:32Z</time>
      </trkpt>
      <trkpt lat="36.74843" lon="-3.587974">
        <ele>20.908</ele>
        <time>2021-06-16T11:53:34Z</time>
      </trkpt>
      <trkpt lat="36.748505" lon="-3.588144">
        <ele>21.036</ele>
        <time>2021-06-16T11:53:35Z</time>
      </trkpt>
      <trkpt lat="36.748582" lon="-3.588309">
        <ele>21.014</ele>
        <time>2021-06-16T11:53:36Z</time>
      </trkpt>
      <trkpt lat="36.748738" lon="-3.588642">
        <ele>21.158</ele>
        <time>2021-06-16T11:53:38Z</time>
      </trkpt>
      <trkpt lat="36.748874" lon="-3.58898">
        <ele>21.187</ele>
        <time>2021-06-16T11:53:40Z</time>
      </trkpt>
      <trkpt lat="36.748978" lon="-3.589323">
        <ele>21.230</ele>
        <time>2021-06-16T11:53:42Z</time>
      </trkpt>
      <trkpt lat="36.749021" lon="-3.589691">
        <ele>22.587</ele>
        <time>2021-06-16T11:53:44Z</time>
      </trkpt>
      <trkpt lat="36.749013" lon="-3.589881">
        <ele>23.634</ele>
        <time>2021-06-16T11:53:45Z</time>
      </trkpt>
      <trkpt lat="36.748975" lon="-3.590247">
        <ele>24.544</ele>
        <time>2021-06-16T11:53:47Z</time>
      </trkpt>
      <trkpt lat="36.748945" lon="-3.590421">
        <ele>24.752</ele>
        <time>2021-06-16T11:53:48Z</time>
      </trkpt>
      <trkpt lat="36.748848" lon="-3.590755">
        <ele>25.553</ele>
        <time>2021-06-16T11:53:50Z</time>
      </trkpt>
      <trkpt lat="36.748786" lon="-3.590917">
        <ele>26.508</ele>
        <time>2021-06-16T11:53:51Z</time>
      </trkpt>
      <trkpt lat="36.748635" lon="-3.591232">
        <ele>28.008</ele>
        <time>2021-06-16T11:53:53Z</time>
      </trkpt>
      <trkpt lat="36.748472" lon="-3.591522">
        <ele>28.922</ele>
        <time>2021-06-16T11:53:55Z</time>
      </trkpt>
      <trkpt lat="36.748379" lon="-3.591657">
        <ele>29.490</ele>
        <time>2021-06-16T11:53:56Z</time>
      </trkpt>
      <trkpt lat="36.748192" lon="-3.591943">
        <ele>31.034</ele>
        <time>2021-06-16T11:53:58Z</time>
      </trkpt>
      <trkpt lat="36.748095" lon="-3.592073">
        <ele>32.153</ele>
        <time>2021-06-16T11:53:59Z</time>
      </trkpt>
      <trkpt lat="36.748002" lon="-3.592198">
        <ele>32.766</ele>
        <time>2021-06-16T11:54:00Z</time>
      </trkpt>
      <trkpt lat="36.747821" lon="-3.592453">
        <ele>33.113</ele>
        <time>2021-06-16T11:54:02Z</time>
      </trkpt>
      <trkpt lat="36.747737" lon="-3.592587">
        <ele>33.950</ele>
        <time>2021-06-16T11:54:03Z</time>
      </trkpt>
      <trkpt lat="36.747658" lon="-3.592726">
        <ele>35.180</ele>
        <time>2021-06-16T11:54:04Z</time>
      </trkpt>
      <trkpt lat="36.747542" lon="-3.593017">
        <ele>36.362</ele>
        <time>2021-06-16T11:54:06Z</time>
      </trkpt>
      <trkpt lat="36.747461" lon="-3.593343">
        <ele>37.783</ele>
        <time>2021-06-16T11:54:08Z</time>
      </trkpt>
      <trkpt lat="36.747433" lon="-3.593687">
        <ele>39.111</ele>
        <time>2021-06-16T11:54:10Z</time>
      </trkpt>
      <trkpt lat="36.747431" lon="-3.593864">
        <ele>40.208</ele>
        <time>2021-06-16T11:54:11Z</time>
      </trkpt>
      <trkpt lat="36.747461" lon="-3.594216">
        <ele>41.653</ele>
        <time>2021-06-16T11:54:13Z</time>
      </trkpt>
      <trkpt lat="36.747509" lon="-3.59457">
        <ele>43.211</ele>
        <time>2021-06-16T11:54:15Z</time>
      </trkpt>
      <trkpt lat="36.747534" lon="-3.594749">
        <ele>44.915</ele>
        <time>2021-06-16T11:54:16Z</time>
      </trkpt>
      <trkpt lat="36.74756" lon="-3.59493">
        <ele>46.324</ele>
        <time>2021-06-16T11:54:17Z</time>
      </trkpt>
      <trkpt lat="36.747582" lon="-3.595113">
        <ele>47.217</ele>
        <time>2021-06-16T11:54:18Z</time>
      </trkpt>
      <trkpt lat="36.74762" lon="-3.595481">
        <ele>48.244</ele>
        <time>2021-06-16T11:54:20Z</time>
      </trkpt>
      <trkpt lat="36.747631" lon="-3.595672">
        <ele>49.111</ele>
        <time>2021-06-16T11:54:21Z</time>
      </trkpt>
      <trkpt lat="36.747609" lon="-3.596061">
        <ele>49.111</ele>
        <time>2021-06-16T11:54:23Z</time>
      </trkpt>
      <trkpt lat="36.747591" lon="-3.596254">
        <ele>48.829</ele>
        <time>2021-06-16T11:54:24Z</time>
      </trkpt>
      <trkpt lat="36.747572" lon="-3.596446">
        <ele>48.900</ele>
        <time>2021-06-16T11:54:25Z</time>
      </trkpt>
      <trkpt lat="36.747516" lon="-3.596821">
        <ele>48.620</ele>
        <time>2021-06-16T11:54:27Z</time>
      </trkpt>
      <trkpt lat="36.747486" lon="-3.597002">
        <ele>48.108</ele>
        <time>2021-06-16T11:54:28Z</time>
      </trkpt>
      <trkpt lat="36.74744" lon="-3.597341">
        <ele>46.849</ele>
        <time>2021-06-16T11:54:30Z</time>
      </trkpt>
      <trkpt lat="36.747407" lon="-3.597666">
        <ele>45.527</ele>
        <time>2021-06-16T11:54:32Z</time>
      </trkpt>
      <trkpt lat="36.747392" lon="-3.598005">
        <ele>44.451</ele>
        <time>2021-06-16T11:54:34Z</time>
      </trkpt>
      <trkpt lat="36.747394" lon="-3.598172">
        <ele>43.820</ele>
        <time>2021-06-16T11:54:35Z</time>
      </trkpt>
      <trkpt lat="36.747454" lon="-3.598488">
        <ele>43.153</ele>
        <time>2021-06-16T11:54:37Z</time>
      </trkpt>
      <trkpt lat="36.747507" lon="-3.598641">
        <ele>42.580</ele>
        <time>2021-06-16T11:54:38Z</time>
      </trkpt>
      <trkpt lat="36.747574" lon="-3.598789">
        <ele>41.217</ele>
        <time>2021-06-16T11:54:39Z</time>
      </trkpt>
      <trkpt lat="36.747647" lon="-3.598935">
        <ele>40.047</ele>
        <time>2021-06-16T11:54:40Z</time>
      </trkpt>
      <trkpt lat="36.747834" lon="-3.599199">
        <ele>39.436</ele>
        <time>2021-06-16T11:54:42Z</time>
      </trkpt>
      <trkpt lat="36.748083" lon="-3.599384">
        <ele>39.017</ele>
        <time>2021-06-16T11:54:44Z</time>
      </trkpt>
      <trkpt lat="36.748336" lon="-3.599566">
        <ele>38.318</ele>
        <time>2021-06-16T11:54:46Z</time>
      </trkpt>
      <trkpt lat="36.748461" lon="-3.599656">
        <ele>38.008</ele>
        <time>2021-06-16T11:54:47Z</time>
      </trkpt>
      <trkpt lat="36.748672" lon="-3.599882">
        <ele>37.290</ele>
        <time>2021-06-16T11:54:49Z</time>
      </trkpt>
      <trkpt lat="36.748754" lon="-3.600018">
        <ele>36.458</ele>
        <time>2021-06-16T11:54:50Z</time>
      </trkpt>
      <trkpt lat="36.748838" lon="-3.600347">
        <ele>35.972</ele>
        <time>2021-06-16T11:54:52Z</time>
      </trkpt>
      <trkpt lat="36.748837" lon="-3.600523">
        <ele>35.571</ele>
        <time>2021-06-16T11:54:53Z</time>
      </trkpt>
      <trkpt lat="36.748756" lon="-3.600848">
        <ele>35.324</ele>
        <time>2021-06-16T11:54:55Z</time>
      </trkpt>
      <trkpt lat="36.748625" lon="-3.601096">
        <ele>35.781</ele>
        <time>2021-06-16T11:54:57Z</time>
      </trkpt>
      <trkpt lat="36.748427" lon="-3.601274">
        <ele>35.838</ele>
        <time>2021-06-16T11:54:59Z</time>
      </trkpt>
      <trkpt lat="36.748208" lon="-3.601405">
        <ele>36.118</ele>
        <time>2021-06-16T11:55:01Z</time>
      </trkpt>
      <trkpt lat="36.747979" lon="-3.601524">
        <ele>36.542</ele>
        <time>2021-06-16T11:55:03Z</time>
      </trkpt>
      <trkpt lat="36.747743" lon="-3.601648">
        <ele>37.022</ele>
        <time>2021-06-16T11:55:05Z</time>
      </trkpt>
      <trkpt lat="36.747625" lon="-3.601718">
        <ele>37.714</ele>
        <time>2021-06-16T11:55:06Z</time>
      </trkpt>
      <trkpt lat="36.747512" lon="-3.6018">
        <ele>38.708</ele>
        <time>2021-06-16T11:55:07Z</time>
      </trkpt>
      <trkpt lat="36.747318" lon="-3.602024">
        <ele>40.121</ele>
        <time>2021-06-16T11:55:09Z</time>
      </trkpt>
      <trkpt lat="36.747144" lon="-3.602272">
        <ele>41.179</ele>
        <time>2021-06-16T11:55:11Z</time>
      </trkpt>
      <trkpt lat="36.74701" lon="-3.602592">
        <ele>42.453</ele>
        <time>2021-06-16T11:55:13Z</time>
      </trkpt>
      <trkpt lat="36.746908" lon="-3.602958">
        <ele>44.412</ele>
        <time>2021-06-16T11:55:15Z</time>
      </trkpt>
      <trkpt lat="36.746807" lon="-3.603319">
        <ele>46.245</ele>
        <time>2021-06-16T11:55:17Z</time>
      </trkpt>
      <trkpt lat="36.746651" lon="-3.60362">
        <ele>48.812</ele>
        <time>2021-06-16T11:55:19Z</time>
      </trkpt>
      <trkpt lat="36.746428" lon="-3.60383">
        <ele>51.349</ele>
        <time>2021-06-16T11:55:21Z</time>
      </trkpt>
      <trkpt lat="36.746299" lon="-3.60391">
        <ele>53.559</ele>
        <time>2021-06-16T11:55:22Z</time>
      </trkpt>
      <trkpt lat="36.746043" lon="-3.604073">
        <ele>56.197</ele>
        <time>2021-06-16T11:55:24Z</time>
      </trkpt>
      <trkpt lat="36.745933" lon="-3.604181">
        <ele>58.223</ele>
        <time>2021-06-16T11:55:25Z</time>
      </trkpt>
      <trkpt lat="36.745763" lon="-3.604464">
        <ele>60.025</ele>
        <time>2021-06-16T11:55:27Z</time>
      </trkpt>
      <trkpt lat="36.745705" lon="-3.604625">
        <ele>61.808</ele>
        <time>2021-06-16T11:55:28Z</time>
      </trkpt>
      <trkpt lat="36.745653" lon="-3.604976">
        <ele>63.716</ele>
        <time>2021-06-16T11:55:30Z</time>
      </trkpt>
      <trkpt lat="36.745689" lon="-3.605321">
        <ele>65.194</ele>
        <time>2021-06-16T11:55:32Z</time>
      </trkpt>
      <trkpt lat="36.745711" lon="-3.605494">
        <ele>66.588</ele>
        <time>2021-06-16T11:55:33Z</time>
      </trkpt>
      <trkpt lat="36.745793" lon="-3.605831">
        <ele>68.027</ele>
        <time>2021-06-16T11:55:35Z</time>
      </trkpt>
      <trkpt lat="36.745879" lon="-3.60618">
        <ele>69.490</ele>
        <time>2021-06-16T11:55:37Z</time>
      </trkpt>
      <trkpt lat="36.745953" lon="-3.606536">
        <ele>71.067</ele>
        <time>2021-06-16T11:55:39Z</time>
      </trkpt>
      <trkpt lat="36.746009" lon="-3.606904">
        <ele>72.064</ele>
        <time>2021-06-16T11:55:41Z</time>
      </trkpt>
      <trkpt lat="36.746032" lon="-3.607083">
        <ele>72.914</ele>
        <time>2021-06-16T11:55:42Z</time>
      </trkpt>
      <trkpt lat="36.74605" lon="-3.60726">
        <ele>73.535</ele>
        <time>2021-06-16T11:55:43Z</time>
      </trkpt>
      <trkpt lat="36.746077" lon="-3.607623">
        <ele>74.086</ele>
        <time>2021-06-16T11:55:45Z</time>
      </trkpt>
      <trkpt lat="36.746062" lon="-3.607998">
        <ele>75.114</ele>
        <time>2021-06-16T11:55:47Z</time>
      </trkpt>
      <trkpt lat="36.746051" lon="-3.608187">
        <ele>75.708</ele>
        <time>2021-06-16T11:55:48Z</time>
      </trkpt>
      <trkpt lat="36.746037" lon="-3.608374">
        <ele>76.350</ele>
        <time>2021-06-16T11:55:49Z</time>
      </trkpt>
      <trkpt lat="36.746019" lon="-3.608559">
        <ele>77.178</ele>
        <time>2021-06-16T11:55:50Z</time>
      </trkpt>
      <trkpt lat="36.745973" lon="-3.608932">
        <ele>77.712</ele>
        <time>2021-06-16T11:55:52Z</time>
      </trkpt>
      <trkpt lat="36.745949" lon="-3.609119">
        <ele>78.161</ele>
        <time>2021-06-16T11:55:53Z</time>
      </trkpt>
      <trkpt lat="36.745926" lon="-3.609304">
        <ele>78.184</ele>
        <time>2021-06-16T11:55:54Z</time>
      </trkpt>
      <trkpt lat="36.745901" lon="-3.609493">
        <ele>78.521</ele>
        <time>2021-06-16T11:55:55Z</time>
      </trkpt>
      <trkpt lat="36.745871" lon="-3.609686">
        <ele>78.888</ele>
        <time>2021-06-16T11:55:56Z</time>
      </trkpt>
      <trkpt lat="36.74581" lon="-3.610058">
        <ele>79.198</ele>
        <time>2021-06-16T11:55:58Z</time>
      </trkpt>
      <trkpt lat="36.745744" lon="-3.610425">
        <ele>80.054</ele>
        <time>2021-06-16T11:56:00Z</time>
      </trkpt>
      <trkpt lat="36.745724" lon="-3.610622">
        <ele>81.056</ele>
        <time>2021-06-16T11:56:01Z</time>
      </trkpt>
      <trkpt lat="36.74571" lon="-3.610818">
        <ele>81.411</ele>
        <time>2021-06-16T11:56:02Z</time>
      </trkpt>
      <trkpt lat="36.745693" lon="-3.611214">
        <ele>81.308</ele>
        <time>2021-06-16T11:56:04Z</time>
      </trkpt>
      <trkpt lat="36.745688" lon="-3.611597">
        <ele>81.372</ele>
        <time>2021-06-16T11:56:06Z</time>
      </trkpt>
      <trkpt lat="36.745684" lon="-3.611784">
        <ele>81.920</ele>
        <time>2021-06-16T11:56:07Z</time>
      </trkpt>
      <trkpt lat="36.745684" lon="-3.611967">
        <ele>82.394</ele>
        <time>2021-06-16T11:56:08Z</time>
      </trkpt>
      <trkpt lat="36.745682" lon="-3.61233">
        <ele>83.493</ele>
        <time>2021-06-16T11:56:10Z</time>
      </trkpt>
      <trkpt lat="36.745678" lon="-3.612693">
        <ele>84.996</ele>
        <time>2021-06-16T11:56:12Z</time>
      </trkpt>
      <trkpt lat="36.74564" lon="-3.613057">
        <ele>86.263</ele>
        <time>2021-06-16T11:56:14Z</time>
      </trkpt>
      <trkpt lat="36.745601" lon="-3.613241">
        <ele>87.350</ele>
        <time>2021-06-16T11:56:15Z</time>
      </trkpt>
      <trkpt lat="36.745491" lon="-3.613594">
        <ele>88.140</ele>
        <time>2021-06-16T11:56:17Z</time>
      </trkpt>
      <trkpt lat="36.745316" lon="-3.61391">
        <ele>88.726</ele>
        <time>2021-06-16T11:56:19Z</time>
      </trkpt>
      <trkpt lat="36.745116" lon="-3.6142">
        <ele>89.547</ele>
        <time>2021-06-16T11:56:21Z</time>
      </trkpt>
      <trkpt lat="36.745016" lon="-3.614338">
        <ele>90.111</ele>
        <time>2021-06-16T11:56:22Z</time>
      </trkpt>
      <trkpt lat="36.744822" lon="-3.614616">
        <ele>90.208</ele>
        <time>2021-06-16T11:56:24Z</time>
      </trkpt>
      <trkpt lat="36.744662" lon="-3.614921">
        <ele>90.529</ele>
        <time>2021-06-16T11:56:26Z</time>
      </trkpt>
      <trkpt lat="36.744531" lon="-3.615257">
        <ele>91.157</ele>
        <time>2021-06-16T11:56:28Z</time>
      </trkpt>
      <trkpt lat="36.744419" lon="-3.615618">
        <ele>91.511</ele>
        <time>2021-06-16T11:56:30Z</time>
      </trkpt>
      <trkpt lat="36.744312" lon="-3.615992">
        <ele>92.030</ele>
        <time>2021-06-16T11:56:32Z</time>
      </trkpt>
      <trkpt lat="36.744238" lon="-3.616369">
        <ele>92.723</ele>
        <time>2021-06-16T11:56:34Z</time>
      </trkpt>
      <trkpt lat="36.744191" lon="-3.616747">
        <ele>93.530</ele>
        <time>2021-06-16T11:56:36Z</time>
      </trkpt>
      <trkpt lat="36.744143" lon="-3.617131">
        <ele>94.027</ele>
        <time>2021-06-16T11:56:38Z</time>
      </trkpt>
      <trkpt lat="36.744116" lon="-3.617323">
        <ele>94.517</ele>
        <time>2021-06-16T11:56:39Z</time>
      </trkpt>
      <trkpt lat="36.744068" lon="-3.617708">
        <ele>94.269</ele>
        <time>2021-06-16T11:56:41Z</time>
      </trkpt>
      <trkpt lat="36.744043" lon="-3.617903">
        <ele>94.204</ele>
        <time>2021-06-16T11:56:42Z</time>
      </trkpt>
      <trkpt lat="36.743994" lon="-3.618277">
        <ele>94.324</ele>
        <time>2021-06-16T11:56:44Z</time>
      </trkpt>
      <trkpt lat="36.74397" lon="-3.618454">
        <ele>94.308</ele>
        <time>2021-06-16T11:56:45Z</time>
      </trkpt>
      <trkpt lat="36.743935" lon="-3.618811">
        <ele>93.643</ele>
        <time>2021-06-16T11:56:47Z</time>
      </trkpt>
      <trkpt lat="36.743916" lon="-3.619176">
        <ele>93.831</ele>
        <time>2021-06-16T11:56:49Z</time>
      </trkpt>
      <trkpt lat="36.743936" lon="-3.619359">
        <ele>93.785</ele>
        <time>2021-06-16T11:56:50Z</time>
      </trkpt>
      <trkpt lat="36.743976" lon="-3.619539">
        <ele>93.884</ele>
        <time>2021-06-16T11:56:51Z</time>
      </trkpt>
      <trkpt lat="36.744094" lon="-3.619893">
        <ele>93.267</ele>
        <time>2021-06-16T11:56:53Z</time>
      </trkpt>
      <trkpt lat="36.744275" lon="-3.620206">
        <ele>92.644</ele>
        <time>2021-06-16T11:56:55Z</time>
      </trkpt>
      <trkpt lat="36.744393" lon="-3.62033">
        <ele>92.221</ele>
        <time>2021-06-16T11:56:56Z</time>
      </trkpt>
      <trkpt lat="36.744516" lon="-3.62045">
        <ele>91.991</ele>
        <time>2021-06-16T11:56:57Z</time>
      </trkpt>
      <trkpt lat="36.744767" lon="-3.620694">
        <ele>91.431</ele>
        <time>2021-06-16T11:56:59Z</time>
      </trkpt>
      <trkpt lat="36.744903" lon="-3.620817">
        <ele>91.161</ele>
        <time>2021-06-16T11:57:00Z</time>
      </trkpt>
      <trkpt lat="36.74503" lon="-3.620945">
        <ele>90.807</ele>
        <time>2021-06-16T11:57:01Z</time>
      </trkpt>
      <trkpt lat="36.745292" lon="-3.621201">
        <ele>90.908</ele>
        <time>2021-06-16T11:57:03Z</time>
      </trkpt>
      <trkpt lat="36.745435" lon="-3.62133">
        <ele>91.110</ele>
        <time>2021-06-16T11:57:04Z</time>
      </trkpt>
      <trkpt lat="36.745715" lon="-3.621596">
        <ele>91.088</ele>
        <time>2021-06-16T11:57:06Z</time>
      </trkpt>
      <trkpt lat="36.745993" lon="-3.621863">
        <ele>90.742</ele>
        <time>2021-06-16T11:57:08Z</time>
      </trkpt>
      <trkpt lat="36.746279" lon="-3.62213">
        <ele>90.071</ele>
        <time>2021-06-16T11:57:10Z</time>
      </trkpt>
      <trkpt lat="36.746561" lon="-3.622411">
        <ele>89.864</ele>
        <time>2021-06-16T11:57:12Z</time>
      </trkpt>
      <trkpt lat="36.746704" lon="-3.62255">
        <ele>89.061</ele>
        <time>2021-06-16T11:57:13Z</time>
      </trkpt>
      <trkpt lat="36.746834" lon="-3.622694">
        <ele>87.598</ele>
        <time>2021-06-16T11:57:14Z</time>
      </trkpt>
      <trkpt lat="36.747038" lon="-3.623041">
        <ele>86.088</ele>
        <time>2021-06-16T11:57:16Z</time>
      </trkpt>
      <trkpt lat="36.74714" lon="-3.623449">
        <ele>85.835</ele>
        <time>2021-06-16T11:57:18Z</time>
      </trkpt>
      <trkpt lat="36.747117" lon="-3.623884">
        <ele>86.186</ele>
        <time>2021-06-16T11:57:20Z</time>
      </trkpt>
      <trkpt lat="36.747056" lon="-3.62409">
        <ele>86.314</ele>
        <time>2021-06-16T11:57:21Z</time>
      </trkpt>
      <trkpt lat="36.746977" lon="-3.62428">
        <ele>86.608</ele>
        <time>2021-06-16T11:57:22Z</time>
      </trkpt>
      <trkpt lat="36.746718" lon="-3.624572">
        <ele>87.150</ele>
        <time>2021-06-16T11:57:24Z</time>
      </trkpt>
      <trkpt lat="36.746403" lon="-3.624763">
        <ele>87.648</ele>
        <time>2021-06-16T11:57:26Z</time>
      </trkpt>
      <trkpt lat="36.746084" lon="-3.624909">
        <ele>88.252</ele>
        <time>2021-06-16T11:57:28Z</time>
      </trkpt>
      <trkpt lat="36.745925" lon="-3.624979">
        <ele>88.811</ele>
        <time>2021-06-16T11:57:29Z</time>
      </trkpt>
      <trkpt lat="36.745769" lon="-3.625051">
        <ele>89.754</ele>
        <time>2021-06-16T11:57:30Z</time>
      </trkpt>
      <trkpt lat="36.745459" lon="-3.625197">
        <ele>90.321</ele>
        <time>2021-06-16T11:57:32Z</time>
      </trkpt>
      <trkpt lat="36.745152" lon="-3.625339">
        <ele>91.468</ele>
        <time>2021-06-16T11:57:34Z</time>
      </trkpt>
      <trkpt lat="36.744846" lon="-3.625482">
        <ele>92.688</ele>
        <time>2021-06-16T11:57:36Z</time>
      </trkpt>
      <trkpt lat="36.744552" lon="-3.625669">
        <ele>93.197</ele>
        <time>2021-06-16T11:57:38Z</time>
      </trkpt>
      <trkpt lat="36.744419" lon="-3.62579">
        <ele>93.723</ele>
        <time>2021-06-16T11:57:39Z</time>
      </trkpt>
      <trkpt lat="36.744296" lon="-3.625931">
        <ele>94.125</ele>
        <time>2021-06-16T11:57:40Z</time>
      </trkpt>
      <trkpt lat="36.744185" lon="-3.626088">
        <ele>94.308</ele>
        <time>2021-06-16T11:57:41Z</time>
      </trkpt>
      <trkpt lat="36.744008" lon="-3.626445">
        <ele>94.876</ele>
        <time>2021-06-16T11:57:43Z</time>
      </trkpt>
      <trkpt lat="36.743902" lon="-3.626844">
        <ele>95.124</ele>
        <time>2021-06-16T11:57:45Z</time>
      </trkpt>
      <trkpt lat="36.743871" lon="-3.627056">
        <ele>95.768</ele>
        <time>2021-06-16T11:57:46Z</time>
      </trkpt>
      <trkpt lat="36.743869" lon="-3.627485">
        <ele>96.117</ele>
        <time>2021-06-16T11:57:48Z</time>
      </trkpt>
      <trkpt lat="36.743881" lon="-3.6277">
        <ele>96.540</ele>
        <time>2021-06-16T11:57:49Z</time>
      </trkpt>
      <trkpt lat="36.743892" lon="-3.627912">
        <ele>96.597</ele>
        <time>2021-06-16T11:57:50Z</time>
      </trkpt>
      <trkpt lat="36.743903" lon="-3.628122">
        <ele>96.634</ele>
        <time>2021-06-16T11:57:51Z</time>
      </trkpt>
      <trkpt lat="36.743917" lon="-3.628535">
        <ele>97.164</ele>
        <time>2021-06-16T11:57:53Z</time>
      </trkpt>
      <trkpt lat="36.743924" lon="-3.628738">
        <ele>97.539</ele>
        <time>2021-06-16T11:57:54Z</time>
      </trkpt>
      <trkpt lat="36.743936" lon="-3.629147">
        <ele>97.901</ele>
        <time>2021-06-16T11:57:56Z</time>
      </trkpt>
      <trkpt lat="36.743979" lon="-3.629548">
        <ele>98.321</ele>
        <time>2021-06-16T11:57:58Z</time>
      </trkpt>
      <trkpt lat="36.744038" lon="-3.629734">
        <ele>98.808</ele>
        <time>2021-06-16T11:57:59Z</time>
      </trkpt>
      <trkpt lat="36.744114" lon="-3.629908">
        <ele>99.440</ele>
        <time>2021-06-16T11:58:00Z</time>
      </trkpt>
      <trkpt lat="36.744313" lon="-3.630211">
        <ele>100.348</ele>
        <time>2021-06-16T11:58:02Z</time>
      </trkpt>
      <trkpt lat="36.744409" lon="-3.630359">
        <ele>100.832</ele>
        <time>2021-06-16T11:58:03Z</time>
      </trkpt>
      <trkpt lat="36.744538" lon="-3.630707">
        <ele>101.571</ele>
        <time>2021-06-16T11:58:05Z</time>
      </trkpt>
      <trkpt lat="36.744536" lon="-3.631108">
        <ele>102.474</ele>
        <time>2021-06-16T11:58:07Z</time>
      </trkpt>
      <trkpt lat="36.744431" lon="-3.631495">
        <ele>103.621</ele>
        <time>2021-06-16T11:58:09Z</time>
      </trkpt>
      <trkpt lat="36.744293" lon="-3.631859">
        <ele>105.078</ele>
        <time>2021-06-16T11:58:11Z</time>
      </trkpt>
      <trkpt lat="36.744147" lon="-3.632227">
        <ele>105.368</ele>
        <time>2021-06-16T11:58:13Z</time>
      </trkpt>
      <trkpt lat="36.744073" lon="-3.632413">
        <ele>105.768</ele>
        <time>2021-06-16T11:58:14Z</time>
      </trkpt>
      <trkpt lat="36.743995" lon="-3.632593">
        <ele>105.842</ele>
        <time>2021-06-16T11:58:15Z</time>
      </trkpt>
      <trkpt lat="36.743847" lon="-3.632957">
        <ele>105.826</ele>
        <time>2021-06-16T11:58:17Z</time>
      </trkpt>
      <trkpt lat="36.743786" lon="-3.633153">
        <ele>106.008</ele>
        <time>2021-06-16T11:58:18Z</time>
      </trkpt>
      <trkpt lat="36.743739" lon="-3.633356">
        <ele>106.453</ele>
        <time>2021-06-16T11:58:19Z</time>
      </trkpt>
      <trkpt lat="36.743699" lon="-3.63376">
        <ele>107.311</ele>
        <time>2021-06-16T11:58:21Z</time>
      </trkpt>
      <trkpt lat="36.743696" lon="-3.633971">
        <ele>107.725</ele>
        <time>2021-06-16T11:58:22Z</time>
      </trkpt>
      <trkpt lat="36.743696" lon="-3.634179">
        <ele>108.684</ele>
        <time>2021-06-16T11:58:23Z</time>
      </trkpt>
      <trkpt lat="36.743697" lon="-3.634595">
        <ele>109.617</ele>
        <time>2021-06-16T11:58:25Z</time>
      </trkpt>
      <trkpt lat="36.743699" lon="-3.634991">
        <ele>110.854</ele>
        <time>2021-06-16T11:58:27Z</time>
      </trkpt>
      <trkpt lat="36.743697" lon="-3.635193">
        <ele>111.841</ele>
        <time>2021-06-16T11:58:28Z</time>
      </trkpt>
      <trkpt lat="36.743694" lon="-3.635397">
        <ele>112.521</ele>
        <time>2021-06-16T11:58:29Z</time>
      </trkpt>
      <trkpt lat="36.74369" lon="-3.635605">
        <ele>113.211</ele>
        <time>2021-06-16T11:58:30Z</time>
      </trkpt>
      <trkpt lat="36.74369" lon="-3.636009">
        <ele>113.721</ele>
        <time>2021-06-16T11:58:32Z</time>
      </trkpt>
      <trkpt lat="36.743693" lon="-3.636204">
        <ele>114.103</ele>
        <time>2021-06-16T11:58:33Z</time>
      </trkpt>
      <trkpt lat="36.743697" lon="-3.636393">
        <ele>114.608</ele>
        <time>2021-06-16T11:58:34Z</time>
      </trkpt>
      <trkpt lat="36.743738" lon="-3.636766">
        <ele>114.928</ele>
        <time>2021-06-16T11:58:36Z</time>
      </trkpt>
      <trkpt lat="36.74384" lon="-3.637131">
        <ele>114.896</ele>
        <time>2021-06-16T11:58:38Z</time>
      </trkpt>
      <trkpt lat="36.744002" lon="-3.637473">
        <ele>114.450</ele>
        <time>2021-06-16T11:58:40Z</time>
      </trkpt>
      <trkpt lat="36.744096" lon="-3.637638">
        <ele>114.159</ele>
        <time>2021-06-16T11:58:41Z</time>
      </trkpt>
      <trkpt lat="36.744296" lon="-3.637957">
        <ele>114.152</ele>
        <time>2021-06-16T11:58:43Z</time>
      </trkpt>
      <trkpt lat="36.74455" lon="-3.638226">
        <ele>114.149</ele>
        <time>2021-06-16T11:58:45Z</time>
      </trkpt>
      <trkpt lat="36.744685" lon="-3.638338">
        <ele>113.926</ele>
        <time>2021-06-16T11:58:46Z</time>
      </trkpt>
      <trkpt lat="36.744957" lon="-3.638527">
        <ele>112.916</ele>
        <time>2021-06-16T11:58:48Z</time>
      </trkpt>
      <trkpt lat="36.745221" lon="-3.638715">
        <ele>112.374</ele>
        <time>2021-06-16T11:58:50Z</time>
      </trkpt>
      <trkpt lat="36.745343" lon="-3.638822">
        <ele>111.656</ele>
        <time>2021-06-16T11:58:51Z</time>
      </trkpt>
      <trkpt lat="36.745569" lon="-3.639069">
        <ele>110.721</ele>
        <time>2021-06-16T11:58:53Z</time>
      </trkpt>
      <trkpt lat="36.745633" lon="-3.639248">
        <ele>109.808</ele>
        <time>2021-06-16T11:58:54Z</time>
      </trkpt>
      <trkpt lat="36.745671" lon="-3.639444">
        <ele>109.134</ele>
        <time>2021-06-16T11:58:55Z</time>
      </trkpt>
      <trkpt lat="36.745772" lon="-3.63981">
        <ele>108.332</ele>
        <time>2021-06-16T11:58:57Z</time>
      </trkpt>
      <trkpt lat="36.74584" lon="-3.639972">
        <ele>108.266</ele>
        <time>2021-06-16T11:58:58Z</time>
      </trkpt>
      <trkpt lat="36.74605" lon="-3.640225">
        <ele>107.475</ele>
        <time>2021-06-16T11:59:00Z</time>
      </trkpt>
      <trkpt lat="36.746188" lon="-3.640327">
        <ele>106.968</ele>
        <time>2021-06-16T11:59:01Z</time>
      </trkpt>
      <trkpt lat="36.746489" lon="-3.640419">
        <ele>106.445</ele>
        <time>2021-06-16T11:59:03Z</time>
      </trkpt>
      <trkpt lat="36.746643" lon="-3.640397">
        <ele>105.922</ele>
        <time>2021-06-16T11:59:04Z</time>
      </trkpt>
      <trkpt lat="36.746797" lon="-3.640339">
        <ele>105.232</ele>
        <time>2021-06-16T11:59:05Z</time>
      </trkpt>
      <trkpt lat="36.747074" lon="-3.640169">
        <ele>104.182</ele>
        <time>2021-06-16T11:59:07Z</time>
      </trkpt>
      <trkpt lat="36.747355" lon="-3.64006">
        <ele>102.443</ele>
        <time>2021-06-16T11:59:09Z</time>
      </trkpt>
      <trkpt lat="36.747648" lon="-3.640141">
        <ele>100.317</ele>
        <time>2021-06-16T11:59:11Z</time>
      </trkpt>
      <trkpt lat="36.747781" lon="-3.640242">
        <ele>98.908</ele>
        <time>2021-06-16T11:59:12Z</time>
      </trkpt>
      <trkpt lat="36.748001" lon="-3.640508">
        <ele>97.635</ele>
        <time>2021-06-16T11:59:14Z</time>
      </trkpt>
      <trkpt lat="36.748253" lon="-3.640704">
        <ele>95.343</ele>
        <time>2021-06-16T11:59:16Z</time>
      </trkpt>
      <trkpt lat="36.748544" lon="-3.640751">
        <ele>93.397</ele>
        <time>2021-06-16T11:59:18Z</time>
      </trkpt>
      <trkpt lat="36.748692" lon="-3.64072">
        <ele>92.166</ele>
        <time>2021-06-16T11:59:19Z</time>
      </trkpt>
      <trkpt lat="36.748978" lon="-3.640501">
        <ele>91.029</ele>
        <time>2021-06-16T11:59:21Z</time>
      </trkpt>
      <trkpt lat="36.749124" lon="-3.640413">
        <ele>90.256</ele>
        <time>2021-06-16T11:59:22Z</time>
      </trkpt>
      <trkpt lat="36.749283" lon="-3.640366">
        <ele>90.293</ele>
        <time>2021-06-16T11:59:23Z</time>
      </trkpt>
      <trkpt lat="36.749605" lon="-3.640365">
        <ele>90.323</ele>
        <time>2021-06-16T11:59:25Z</time>
      </trkpt>
      <trkpt lat="36.749763" lon="-3.640445">
        <ele>90.255</ele>
        <time>2021-06-16T11:59:26Z</time>
      </trkpt>
      <trkpt lat="36.749897" lon="-3.640579">
        <ele>90.507</ele>
        <time>2021-06-16T11:59:27Z</time>
      </trkpt>
      <trkpt lat="36.750087" lon="-3.640916">
        <ele>90.117</ele>
        <time>2021-06-16T11:59:29Z</time>
      </trkpt>
      <trkpt lat="36.75014" lon="-3.641112">
        <ele>89.908</ele>
        <time>2021-06-16T11:59:30Z</time>
      </trkpt>
      <trkpt lat="36.750163" lon="-3.641518">
        <ele>90.082</ele>
        <time>2021-06-16T11:59:32Z</time>
      </trkpt>
      <trkpt lat="36.750132" lon="-3.641718">
        <ele>90.410</ele>
        <time>2021-06-16T11:59:33Z</time>
      </trkpt>
      <trkpt lat="36.75007" lon="-3.641902">
        <ele>90.684</ele>
        <time>2021-06-16T11:59:34Z</time>
      </trkpt>
      <trkpt lat="36.74998" lon="-3.64207">
        <ele>90.893</ele>
        <time>2021-06-16T11:59:35Z</time>
      </trkpt>
      <trkpt lat="36.749727" lon="-3.642333">
        <ele>91.336</ele>
        <time>2021-06-16T11:59:37Z</time>
      </trkpt>
      <trkpt lat="36.74958" lon="-3.64243">
        <ele>91.983</ele>
        <time>2021-06-16T11:59:38Z</time>
      </trkpt>
      <trkpt lat="36.749428" lon="-3.642517">
        <ele>92.390</ele>
        <time>2021-06-16T11:59:39Z</time>
      </trkpt>
      <trkpt lat="36.749117" lon="-3.642675">
        <ele>92.870</ele>
        <time>2021-06-16T11:59:41Z</time>
      </trkpt>
      <trkpt lat="36.748815" lon="-3.642829">
        <ele>93.221</ele>
        <time>2021-06-16T11:59:43Z</time>
      </trkpt>
      <trkpt lat="36.748666" lon="-3.642911">
        <ele>93.441</ele>
        <time>2021-06-16T11:59:44Z</time>
      </trkpt>
      <trkpt lat="36.748524" lon="-3.642997">
        <ele>94.105</ele>
        <time>2021-06-16T11:59:45Z</time>
      </trkpt>
      <trkpt lat="36.748255" lon="-3.643193">
        <ele>94.908</ele>
        <time>2021-06-16T11:59:47Z</time>
      </trkpt>
      <trkpt lat="36.748008" lon="-3.643432">
        <ele>95.319</ele>
        <time>2021-06-16T11:59:49Z</time>
      </trkpt>
      <trkpt lat="36.747897" lon="-3.643568">
        <ele>95.437</ele>
        <time>2021-06-16T11:59:50Z</time>
      </trkpt>
      <trkpt lat="36.747704" lon="-3.643877">
        <ele>96.081</ele>
        <time>2021-06-16T11:59:52Z</time>
      </trkpt>
      <trkpt lat="36.747535" lon="-3.644206">
        <ele>96.360</ele>
        <time>2021-06-16T11:59:54Z</time>
      </trkpt>
      <trkpt lat="36.747452" lon="-3.64437">
        <ele>96.813</ele>
        <time>2021-06-16T11:59:55Z</time>
      </trkpt>
      <trkpt lat="36.747286" lon="-3.644691">
        <ele>97.370</ele>
        <time>2021-06-16T11:59:57Z</time>
      </trkpt>
      <trkpt lat="36.747205" lon="-3.644851">
        <ele>97.657</ele>
        <time>2021-06-16T11:59:58Z</time>
      </trkpt>
      <trkpt lat="36.747129" lon="-3.645017">
        <ele>98.327</ele>
        <time>2021-06-16T11:59:59Z</time>
      </trkpt>
      <trkpt lat="36.747015" lon="-3.645369">
        <ele>99.045</ele>
        <time>2021-06-16T12:00:01Z</time>
      </trkpt>
      <trkpt lat="36.746984" lon="-3.645555">
        <ele>99.847</ele>
        <time>2021-06-16T12:00:02Z</time>
      </trkpt>
      <trkpt lat="36.746974" lon="-3.645747">
        <ele>100.011</ele>
        <time>2021-06-16T12:00:03Z</time>
      </trkpt>
      <trkpt lat="36.746989" lon="-3.645938">
        <ele>100.108</ele>
        <time>2021-06-16T12:00:04Z</time>
      </trkpt>
      <trkpt lat="36.747092" lon="-3.646287">
        <ele>100.561</ele>
        <time>2021-06-16T12:00:06Z</time>
      </trkpt>
      <trkpt lat="36.747292" lon="-3.646563">
        <ele>100.619</ele>
        <time>2021-06-16T12:00:08Z</time>
      </trkpt>
      <trkpt lat="36.747559" lon="-3.646759">
        <ele>101.333</ele>
        <time>2021-06-16T12:00:10Z</time>
      </trkpt>
      <trkpt lat="36.747856" lon="-3.646886">
        <ele>102.172</ele>
        <time>2021-06-16T12:00:12Z</time>
      </trkpt>
      <trkpt lat="36.747997" lon="-3.646947">
        <ele>102.645</ele>
        <time>2021-06-16T12:00:13Z</time>
      </trkpt>
      <trkpt lat="36.74815" lon="-3.646998">
        <ele>102.712</ele>
        <time>2021-06-16T12:00:14Z</time>
      </trkpt>
      <trkpt lat="36.748468" lon="-3.647097">
        <ele>102.639</ele>
        <time>2021-06-16T12:00:16Z</time>
      </trkpt>
      <trkpt lat="36.748623" lon="-3.647152">
        <ele>102.569</ele>
        <time>2021-06-16T12:00:17Z</time>
      </trkpt>
      <trkpt lat="36.74894" lon="-3.647283">
        <ele>102.453</ele>
        <time>2021-06-16T12:00:19Z</time>
      </trkpt>
      <trkpt lat="36.749241" lon="-3.647446">
        <ele>102.104</ele>
        <time>2021-06-16T12:00:21Z</time>
      </trkpt>
      <trkpt lat="36.749534" lon="-3.647631">
        <ele>102.214</ele>
        <time>2021-06-16T12:00:23Z</time>
      </trkpt>
      <trkpt lat="36.74968" lon="-3.647729">
        <ele>101.608</ele>
        <time>2021-06-16T12:00:24Z</time>
      </trkpt>
      <trkpt lat="36.749827" lon="-3.647829">
        <ele>100.932</ele>
        <time>2021-06-16T12:00:25Z</time>
      </trkpt>
      <trkpt lat="36.75012" lon="-3.64804">
        <ele>100.460</ele>
        <time>2021-06-16T12:00:27Z</time>
      </trkpt>
      <trkpt lat="36.750264" lon="-3.648153">
        <ele>100.094</ele>
        <time>2021-06-16T12:00:28Z</time>
      </trkpt>
      <trkpt lat="36.750401" lon="-3.648269">
        <ele>99.473</ele>
        <time>2021-06-16T12:00:29Z</time>
      </trkpt>
      <trkpt lat="36.750664" lon="-3.648511">
        <ele>99.556</ele>
        <time>2021-06-16T12:00:31Z</time>
      </trkpt>
      <trkpt lat="36.75091" lon="-3.648781">
        <ele>98.843</ele>
        <time>2021-06-16T12:00:33Z</time>
      </trkpt>
      <trkpt lat="36.751151" lon="-3.649061">
        <ele>97.940</ele>
        <time>2021-06-16T12:00:35Z</time>
      </trkpt>
      <trkpt lat="36.751383" lon="-3.649352">
        <ele>97.140</ele>
        <time>2021-06-16T12:00:37Z</time>
      </trkpt>
      <trkpt lat="36.751629" lon="-3.649649">
        <ele>96.099</ele>
        <time>2021-06-16T12:00:39Z</time>
      </trkpt>
      <trkpt lat="36.751749" lon="-3.649796">
        <ele>95.507</ele>
        <time>2021-06-16T12:00:40Z</time>
      </trkpt>
      <trkpt lat="36.751974" lon="-3.650097">
        <ele>94.427</ele>
        <time>2021-06-16T12:00:42Z</time>
      </trkpt>
      <trkpt lat="36.752197" lon="-3.650402">
        <ele>92.908</ele>
        <time>2021-06-16T12:00:44Z</time>
      </trkpt>
      <trkpt lat="36.752294" lon="-3.650567">
        <ele>91.556</ele>
        <time>2021-06-16T12:00:45Z</time>
      </trkpt>
      <trkpt lat="36.752366" lon="-3.650746">
        <ele>89.834</ele>
        <time>2021-06-16T12:00:46Z</time>
      </trkpt>
      <trkpt lat="36.752438" lon="-3.65114">
        <ele>88.518</ele>
        <time>2021-06-16T12:00:48Z</time>
      </trkpt>
      <trkpt lat="36.752411" lon="-3.651546">
        <ele>86.647</ele>
        <time>2021-06-16T12:00:50Z</time>
      </trkpt>
      <trkpt lat="36.752347" lon="-3.651946">
        <ele>85.320</ele>
        <time>2021-06-16T12:00:52Z</time>
      </trkpt>
      <trkpt lat="36.752375" lon="-3.652346">
        <ele>82.937</ele>
        <time>2021-06-16T12:00:54Z</time>
      </trkpt>
      <trkpt lat="36.752447" lon="-3.652528">
        <ele>81.124</ele>
        <time>2021-06-16T12:00:55Z</time>
      </trkpt>
      <trkpt lat="36.752536" lon="-3.652691">
        <ele>79.784</ele>
        <time>2021-06-16T12:00:56Z</time>
      </trkpt>
      <trkpt lat="36.752816" lon="-3.652876">
        <ele>78.525</ele>
        <time>2021-06-16T12:00:58Z</time>
      </trkpt>
      <trkpt lat="36.753162" lon="-3.652741">
        <ele>77.226</ele>
        <time>2021-06-16T12:01:00Z</time>
      </trkpt>
      <trkpt lat="36.753446" lon="-3.652497">
        <ele>75.408</ele>
        <time>2021-06-16T12:01:02Z</time>
      </trkpt>
      <trkpt lat="36.753682" lon="-3.652224">
        <ele>73.708</ele>
        <time>2021-06-16T12:01:04Z</time>
      </trkpt>
      <trkpt lat="36.753806" lon="-3.652113">
        <ele>72.289</ele>
        <time>2021-06-16T12:01:05Z</time>
      </trkpt>
      <trkpt lat="36.754082" lon="-3.651966">
        <ele>70.737</ele>
        <time>2021-06-16T12:01:07Z</time>
      </trkpt>
      <trkpt lat="36.754226" lon="-3.651942">
        <ele>69.681</ele>
        <time>2021-06-16T12:01:08Z</time>
      </trkpt>
      <trkpt lat="36.754358" lon="-3.651937">
        <ele>68.790</ele>
        <time>2021-06-16T12:01:09Z</time>
      </trkpt>
      <trkpt lat="36.754587" lon="-3.652004">
        <ele>67.773</ele>
        <time>2021-06-16T12:01:11Z</time>
      </trkpt>
      <trkpt lat="36.754772" lon="-3.652149">
        <ele>67.040</ele>
        <time>2021-06-16T12:01:13Z</time>
      </trkpt>
      <trkpt lat="36.754932" lon="-3.652338">
        <ele>66.797</ele>
        <time>2021-06-16T12:01:15Z</time>
      </trkpt>
      <trkpt lat="36.755078" lon="-3.652519">
        <ele>66.037</ele>
        <time>2021-06-16T12:01:17Z</time>
      </trkpt>
      <trkpt lat="36.755216" lon="-3.65266">
        <ele>65.656</ele>
        <time>2021-06-16T12:01:19Z</time>
      </trkpt>
      <trkpt lat="36.755356" lon="-3.652753">
        <ele>65.359</ele>
        <time>2021-06-16T12:01:21Z</time>
      </trkpt>
      <trkpt lat="36.755416" lon="-3.652804">
        <ele>65.214</ele>
        <time>2021-06-16T12:01:22Z</time>
      </trkpt>
      <trkpt lat="36.755459" lon="-3.652876">
        <ele>64.608</ele>
        <time>2021-06-16T12:01:23Z</time>
      </trkpt>
      <trkpt lat="36.755485" lon="-3.652959">
        <ele>63.942</ele>
        <time>2021-06-16T12:01:24Z</time>
      </trkpt>
      <trkpt lat="36.755473" lon="-3.653141">
        <ele>63.320</ele>
        <time>2021-06-16T12:01:26Z</time>
      </trkpt>
      <trkpt lat="36.755431" lon="-3.653224">
        <ele>63.094</ele>
        <time>2021-06-16T12:01:27Z</time>
      </trkpt>
      <trkpt lat="36.755374" lon="-3.653296">
        <ele>62.693</ele>
        <time>2021-06-16T12:01:28Z</time>
      </trkpt>
      <trkpt lat="36.75526" lon="-3.653441">
        <ele>62.546</ele>
        <time>2021-06-16T12:01:30Z</time>
      </trkpt>
      <trkpt lat="36.755233" lon="-3.653535">
        <ele>62.183</ele>
        <time>2021-06-16T12:01:31Z</time>
      </trkpt>
      <trkpt lat="36.75522" lon="-3.653643">
        <ele>61.860</ele>
        <time>2021-06-16T12:01:32Z</time>
      </trkpt>
      <trkpt lat="36.755216" lon="-3.65376">
        <ele>61.660</ele>
        <time>2021-06-16T12:01:33Z</time>
      </trkpt>
      <trkpt lat="36.755194" lon="-3.654018">
        <ele>61.247</ele>
        <time>2021-06-16T12:01:35Z</time>
      </trkpt>
      <trkpt lat="36.755163" lon="-3.654153">
        <ele>60.829</ele>
        <time>2021-06-16T12:01:36Z</time>
      </trkpt>
      <trkpt lat="36.755067" lon="-3.654431">
        <ele>60.421</ele>
        <time>2021-06-16T12:01:38Z</time>
      </trkpt>
      <trkpt lat="36.754936" lon="-3.654703">
        <ele>59.708</ele>
        <time>2021-06-16T12:01:40Z</time>
      </trkpt>
      <trkpt lat="36.754868" lon="-3.654838">
        <ele>59.411</ele>
        <time>2021-06-16T12:01:41Z</time>
      </trkpt>
      <trkpt lat="36.754699" lon="-3.65507">
        <ele>58.189</ele>
        <time>2021-06-16T12:01:43Z</time>
      </trkpt>
      <trkpt lat="36.754593" lon="-3.655164">
        <ele>57.023</ele>
        <time>2021-06-16T12:01:44Z</time>
      </trkpt>
      <trkpt lat="36.754374" lon="-3.655346">
        <ele>55.432</ele>
        <time>2021-06-16T12:01:46Z</time>
      </trkpt>
      <trkpt lat="36.754261" lon="-3.655426">
        <ele>54.075</ele>
        <time>2021-06-16T12:01:47Z</time>
      </trkpt>
      <trkpt lat="36.754026" lon="-3.655566">
        <ele>52.742</ele>
        <time>2021-06-16T12:01:49Z</time>
      </trkpt>
      <trkpt lat="36.753781" lon="-3.655707">
        <ele>51.929</ele>
        <time>2021-06-16T12:01:51Z</time>
      </trkpt>
      <trkpt lat="36.753546" lon="-3.655867">
        <ele>51.239</ele>
        <time>2021-06-16T12:01:53Z</time>
      </trkpt>
      <trkpt lat="36.753326" lon="-3.656069">
        <ele>51.235</ele>
        <time>2021-06-16T12:01:55Z</time>
      </trkpt>
      <trkpt lat="36.753127" lon="-3.656303">
        <ele>51.886</ele>
        <time>2021-06-16T12:01:57Z</time>
      </trkpt>
      <trkpt lat="36.753034" lon="-3.656434">
        <ele>51.814</ele>
        <time>2021-06-16T12:01:58Z</time>
      </trkpt>
      <trkpt lat="36.752946" lon="-3.656569">
        <ele>52.008</ele>
        <time>2021-06-16T12:01:59Z</time>
      </trkpt>
      <trkpt lat="36.752779" lon="-3.656833">
        <ele>52.550</ele>
        <time>2021-06-16T12:02:01Z</time>
      </trkpt>
      <trkpt lat="36.752696" lon="-3.656959">
        <ele>52.628</ele>
        <time>2021-06-16T12:02:02Z</time>
      </trkpt>
      <trkpt lat="36.752529" lon="-3.657194">
        <ele>52.872</ele>
        <time>2021-06-16T12:02:04Z</time>
      </trkpt>
      <trkpt lat="36.752442" lon="-3.657309">
        <ele>52.941</ele>
        <time>2021-06-16T12:02:05Z</time>
      </trkpt>
      <trkpt lat="36.752254" lon="-3.657515">
        <ele>53.084</ele>
        <time>2021-06-16T12:02:07Z</time>
      </trkpt>
      <trkpt lat="36.752059" lon="-3.657704">
        <ele>52.871</ele>
        <time>2021-06-16T12:02:09Z</time>
      </trkpt>
      <trkpt lat="36.75196" lon="-3.657794">
        <ele>52.758</ele>
        <time>2021-06-16T12:02:10Z</time>
      </trkpt>
      <trkpt lat="36.751762" lon="-3.657976">
        <ele>52.378</ele>
        <time>2021-06-16T12:02:12Z</time>
      </trkpt>
      <trkpt lat="36.751658" lon="-3.658059">
        <ele>52.311</ele>
        <time>2021-06-16T12:02:13Z</time>
      </trkpt>
      <trkpt lat="36.751435" lon="-3.658194">
        <ele>52.121</ele>
        <time>2021-06-16T12:02:15Z</time>
      </trkpt>
      <trkpt lat="36.751194" lon="-3.658274">
        <ele>52.203</ele>
        <time>2021-06-16T12:02:17Z</time>
      </trkpt>
      <trkpt lat="36.751073" lon="-3.658296">
        <ele>51.908</ele>
        <time>2021-06-16T12:02:18Z</time>
      </trkpt>
      <trkpt lat="36.75095" lon="-3.658309">
        <ele>51.768</ele>
        <time>2021-06-16T12:02:19Z</time>
      </trkpt>
      <trkpt lat="36.750717" lon="-3.658332">
        <ele>51.226</ele>
        <time>2021-06-16T12:02:21Z</time>
      </trkpt>
      <trkpt lat="36.750489" lon="-3.658375">
        <ele>50.330</ele>
        <time>2021-06-16T12:02:23Z</time>
      </trkpt>
      <trkpt lat="36.750264" lon="-3.658476">
        <ele>50.319</ele>
        <time>2021-06-16T12:02:25Z</time>
      </trkpt>
      <trkpt lat="36.750159" lon="-3.65855">
        <ele>50.842</ele>
        <time>2021-06-16T12:02:26Z</time>
      </trkpt>
      <trkpt lat="36.750061" lon="-3.658648">
        <ele>50.529</ele>
        <time>2021-06-16T12:02:27Z</time>
      </trkpt>
      <trkpt lat="36.749918" lon="-3.658902">
        <ele>49.756</ele>
        <time>2021-06-16T12:02:29Z</time>
      </trkpt>
      <trkpt lat="36.749867" lon="-3.659047">
        <ele>49.276</ele>
        <time>2021-06-16T12:02:30Z</time>
      </trkpt>
      <trkpt lat="36.749793" lon="-3.659345">
        <ele>49.048</ele>
        <time>2021-06-16T12:02:32Z</time>
      </trkpt>
      <trkpt lat="36.749764" lon="-3.659497">
        <ele>48.561</ele>
        <time>2021-06-16T12:02:33Z</time>
      </trkpt>
      <trkpt lat="36.749699" lon="-3.659797">
        <ele>47.517</ele>
        <time>2021-06-16T12:02:35Z</time>
      </trkpt>
      <trkpt lat="36.749653" lon="-3.659945">
        <ele>47.008</ele>
        <time>2021-06-16T12:02:36Z</time>
      </trkpt>
      <trkpt lat="36.74954" lon="-3.660229">
        <ele>46.481</ele>
        <time>2021-06-16T12:02:38Z</time>
      </trkpt>
      <trkpt lat="36.749469" lon="-3.660352">
        <ele>45.479</ele>
        <time>2021-06-16T12:02:39Z</time>
      </trkpt>
      <trkpt lat="36.749291" lon="-3.660551">
        <ele>43.353</ele>
        <time>2021-06-16T12:02:41Z</time>
      </trkpt>
      <trkpt lat="36.749107" lon="-3.660756">
        <ele>41.492</ele>
        <time>2021-06-16T12:02:43Z</time>
      </trkpt>
      <trkpt lat="36.749017" lon="-3.660868">
        <ele>40.415</ele>
        <time>2021-06-16T12:02:44Z</time>
      </trkpt>
      <trkpt lat="36.748879" lon="-3.66114">
        <ele>38.662</ele>
        <time>2021-06-16T12:02:46Z</time>
      </trkpt>
      <trkpt lat="36.748822" lon="-3.661452">
        <ele>37.619</ele>
        <time>2021-06-16T12:02:48Z</time>
      </trkpt>
      <trkpt lat="36.748835" lon="-3.661784">
        <ele>36.779</ele>
        <time>2021-06-16T12:02:50Z</time>
      </trkpt>
      <trkpt lat="36.748886" lon="-3.661939">
        <ele>35.729</ele>
        <time>2021-06-16T12:02:51Z</time>
      </trkpt>
      <trkpt lat="36.749015" lon="-3.662229">
        <ele>34.600</ele>
        <time>2021-06-16T12:02:53Z</time>
      </trkpt>
      <trkpt lat="36.74914" lon="-3.662512">
        <ele>33.520</ele>
        <time>2021-06-16T12:02:55Z</time>
      </trkpt>
      <trkpt lat="36.749256" lon="-3.662797">
        <ele>32.608</ele>
        <time>2021-06-16T12:02:57Z</time>
      </trkpt>
      <trkpt lat="36.749302" lon="-3.662941">
        <ele>32.189</ele>
        <time>2021-06-16T12:02:58Z</time>
      </trkpt>
      <trkpt lat="36.749373" lon="-3.663229">
        <ele>31.767</ele>
        <time>2021-06-16T12:03:00Z</time>
      </trkpt>
      <trkpt lat="36.749391" lon="-3.663379">
        <ele>31.011</ele>
        <time>2021-06-16T12:03:01Z</time>
      </trkpt>
      <trkpt lat="36.749392" lon="-3.663529">
        <ele>30.240</ele>
        <time>2021-06-16T12:03:02Z</time>
      </trkpt>
      <trkpt lat="36.749381" lon="-3.663673">
        <ele>29.533</ele>
        <time>2021-06-16T12:03:03Z</time>
      </trkpt>
      <trkpt lat="36.749337" lon="-3.663942">
        <ele>28.780</ele>
        <time>2021-06-16T12:03:05Z</time>
      </trkpt>
      <trkpt lat="36.749303" lon="-3.664076">
        <ele>28.327</ele>
        <time>2021-06-16T12:03:06Z</time>
      </trkpt>
      <trkpt lat="36.749223" lon="-3.664333">
        <ele>27.957</ele>
        <time>2021-06-16T12:03:08Z</time>
      </trkpt>
      <trkpt lat="36.749183" lon="-3.664456">
        <ele>27.833</ele>
        <time>2021-06-16T12:03:09Z</time>
      </trkpt>
      <trkpt lat="36.749121" lon="-3.664652">
        <ele>27.923</ele>
        <time>2021-06-16T12:03:11Z</time>
      </trkpt>
      <trkpt lat="36.749073" lon="-3.664787">
        <ele>27.715</ele>
        <time>2021-06-16T12:03:13Z</time>
      </trkpt>
      <trkpt lat="36.749042" lon="-3.664844">
        <ele>27.408</ele>
        <time>2021-06-16T12:03:15Z</time>
      </trkpt>
      <trkpt lat="36.749019" lon="-3.664906">
        <ele>27.160</ele>
        <time>2021-06-16T12:03:18Z</time>
      </trkpt>
      <trkpt lat="36.749008" lon="-3.664967">
        <ele>27.238</ele>
        <time>2021-06-16T12:03:28Z</time>
      </trkpt>
      <trkpt lat="36.748968" lon="-3.665035">
        <ele>27.192</ele>
        <time>2021-06-16T12:03:31Z</time>
      </trkpt>
      <trkpt lat="36.748943" lon="-3.665083">
        <ele>27.081</ele>
        <time>2021-06-16T12:03:32Z</time>
      </trkpt>
      <trkpt lat="36.748889" lon="-3.665184">
        <ele>26.994</ele>
        <time>2021-06-16T12:03:34Z</time>
      </trkpt>
      <trkpt lat="36.748831" lon="-3.665268">
        <ele>26.971</ele>
        <time>2021-06-16T12:03:36Z</time>
      </trkpt>
      <trkpt lat="36.748763" lon="-3.665342">
        <ele>26.978</ele>
        <time>2021-06-16T12:03:38Z</time>
      </trkpt>
      <trkpt lat="36.748704" lon="-3.665408">
        <ele>26.938</ele>
        <time>2021-06-16T12:03:40Z</time>
      </trkpt>
      <trkpt lat="36.748649" lon="-3.665451">
        <ele>26.938</ele>
        <time>2021-06-16T12:03:41Z</time>
      </trkpt>
      <trkpt lat="36.748601" lon="-3.665494">
        <ele>26.970</ele>
        <time>2021-06-16T12:03:42Z</time>
      </trkpt>
      <trkpt lat="36.748548" lon="-3.665539">
        <ele>26.917</ele>
        <time>2021-06-16T12:03:43Z</time>
      </trkpt>
      <trkpt lat="36.748487" lon="-3.665584">
        <ele>26.908</ele>
        <time>2021-06-16T12:03:44Z</time>
      </trkpt>
      <trkpt lat="36.748346" lon="-3.665685">
        <ele>26.920</ele>
        <time>2021-06-16T12:03:46Z</time>
      </trkpt>
      <trkpt lat="36.748174" lon="-3.665766">
        <ele>26.928</ele>
        <time>2021-06-16T12:03:48Z</time>
      </trkpt>
      <trkpt lat="36.74808" lon="-3.665787">
        <ele>26.912</ele>
        <time>2021-06-16T12:03:49Z</time>
      </trkpt>
      <trkpt lat="36.747983" lon="-3.665794">
        <ele>26.981</ele>
        <time>2021-06-16T12:03:50Z</time>
      </trkpt>
      <trkpt lat="36.747798" lon="-3.665787">
        <ele>26.954</ele>
        <time>2021-06-16T12:03:52Z</time>
      </trkpt>
      <trkpt lat="36.747642" lon="-3.665788">
        <ele>26.971</ele>
        <time>2021-06-16T12:03:54Z</time>
      </trkpt>
      <trkpt lat="36.747555" lon="-3.665785">
        <ele>26.918</ele>
        <time>2021-06-16T12:03:55Z</time>
      </trkpt>
      <trkpt lat="36.747375" lon="-3.665782">
        <ele>26.968</ele>
        <time>2021-06-16T12:03:57Z</time>
      </trkpt>
      <trkpt lat="36.747286" lon="-3.665786">
        <ele>26.944</ele>
        <time>2021-06-16T12:03:58Z</time>
      </trkpt>
      <trkpt lat="36.747206" lon="-3.665781">
        <ele>26.905</ele>
        <time>2021-06-16T12:03:59Z</time>
      </trkpt>
      <trkpt lat="36.747047" lon="-3.665773">
        <ele>26.915</ele>
        <time>2021-06-16T12:04:01Z</time>
      </trkpt>
      <trkpt lat="36.746886" lon="-3.665778">
        <ele>26.908</ele>
        <time>2021-06-16T12:04:03Z</time>
      </trkpt>
      <trkpt lat="36.746791" lon="-3.665797">
        <ele>26.951</ele>
        <time>2021-06-16T12:04:04Z</time>
      </trkpt>
      <trkpt lat="36.746695" lon="-3.665818">
        <ele>26.989</ele>
        <time>2021-06-16T12:04:05Z</time>
      </trkpt>
      <trkpt lat="36.74659" lon="-3.665844">
        <ele>26.943</ele>
        <time>2021-06-16T12:04:06Z</time>
      </trkpt>
      <trkpt lat="36.746371" lon="-3.6659">
        <ele>26.992</ele>
        <time>2021-06-16T12:04:08Z</time>
      </trkpt>
      <trkpt lat="36.746139" lon="-3.665959">
        <ele>26.915</ele>
        <time>2021-06-16T12:04:10Z</time>
      </trkpt>
      <trkpt lat="36.746012" lon="-3.665993">
        <ele>26.932</ele>
        <time>2021-06-16T12:04:11Z</time>
      </trkpt>
      <trkpt lat="36.745887" lon="-3.666037">
        <ele>26.969</ele>
        <time>2021-06-16T12:04:12Z</time>
      </trkpt>
      <trkpt lat="36.745764" lon="-3.666086">
        <ele>26.989</ele>
        <time>2021-06-16T12:04:13Z</time>
      </trkpt>
      <trkpt lat="36.745515" lon="-3.666214">
        <ele>26.939</ele>
        <time>2021-06-16T12:04:15Z</time>
      </trkpt>
      <trkpt lat="36.744643" lon="-3.667131">
        <ele>26.901</ele>
        <time>2021-06-16T12:04:24Z</time>
      </trkpt>
      <trkpt lat="36.744534" lon="-3.667449">
        <ele>26.921</ele>
        <time>2021-06-16T12:04:26Z</time>
      </trkpt>
      <trkpt lat="36.744485" lon="-3.667601">
        <ele>26.908</ele>
        <time>2021-06-16T12:04:27Z</time>
      </trkpt>
      <trkpt lat="36.744397" lon="-3.667885">
        <ele>26.950</ele>
        <time>2021-06-16T12:04:29Z</time>
      </trkpt>
      <trkpt lat="36.744362" lon="-3.668025">
        <ele>26.938</ele>
        <time>2021-06-16T12:04:30Z</time>
      </trkpt>
      <trkpt lat="36.744344" lon="-3.668162">
        <ele>26.982</ele>
        <time>2021-06-16T12:04:31Z</time>
      </trkpt>
      <trkpt lat="36.744332" lon="-3.668431">
        <ele>26.911</ele>
        <time>2021-06-16T12:04:33Z</time>
      </trkpt>
      <trkpt lat="36.74436" lon="-3.668677">
        <ele>26.944</ele>
        <time>2021-06-16T12:04:35Z</time>
      </trkpt>
      <trkpt lat="36.744402" lon="-3.668905">
        <ele>26.941</ele>
        <time>2021-06-16T12:04:37Z</time>
      </trkpt>
      <trkpt lat="36.74446" lon="-3.669128">
        <ele>26.928</ele>
        <time>2021-06-16T12:04:39Z</time>
      </trkpt>
      <trkpt lat="36.744488" lon="-3.669243">
        <ele>26.988</ele>
        <time>2021-06-16T12:04:40Z</time>
      </trkpt>
      <trkpt lat="36.744556" lon="-3.66948">
        <ele>30.993</ele>
        <time>2021-06-16T12:04:42Z</time>
      </trkpt>
      <trkpt lat="36.744623" lon="-3.669746">
        <ele>34.965</ele>
        <time>2021-06-16T12:04:44Z</time>
      </trkpt>
      <trkpt lat="36.744675" lon="-3.670025">
        <ele>38.921</ele>
        <time>2021-06-16T12:04:46Z</time>
      </trkpt>
      <trkpt lat="36.744686" lon="-3.670172">
        <ele>42.908</ele>
        <time>2021-06-16T12:04:47Z</time>
      </trkpt>
      <trkpt lat="36.744673" lon="-3.67047">
        <ele>46.986</ele>
        <time>2021-06-16T12:04:49Z</time>
      </trkpt>
      <trkpt lat="36.744625" lon="-3.670773">
        <ele>50.934</ele>
        <time>2021-06-16T12:04:51Z</time>
      </trkpt>
      <trkpt lat="36.744589" lon="-3.670922">
        <ele>54.968</ele>
        <time>2021-06-16T12:04:52Z</time>
      </trkpt>
      <trkpt lat="36.744536" lon="-3.671068">
        <ele>58.977</ele>
        <time>2021-06-16T12:04:53Z</time>
      </trkpt>
      <trkpt lat="36.744406" lon="-3.671352">
        <ele>62.330</ele>
        <time>2021-06-16T12:04:55Z</time>
      </trkpt>
      <trkpt lat="36.744244" lon="-3.67162">
        <ele>64.397</ele>
        <time>2021-06-16T12:04:57Z</time>
      </trkpt>
      <trkpt lat="36.744159" lon="-3.671753">
        <ele>65.634</ele>
        <time>2021-06-16T12:04:58Z</time>
      </trkpt>
      <trkpt lat="36.743976" lon="-3.672022">
        <ele>66.394</ele>
        <time>2021-06-16T12:05:00Z</time>
      </trkpt>
      <trkpt lat="36.743806" lon="-3.672305">
        <ele>66.481</ele>
        <time>2021-06-16T12:05:02Z</time>
      </trkpt>
      <trkpt lat="36.743727" lon="-3.67244">
        <ele>66.061</ele>
        <time>2021-06-16T12:05:03Z</time>
      </trkpt>
      <trkpt lat="36.74364" lon="-3.672569">
        <ele>65.817</ele>
        <time>2021-06-16T12:05:04Z</time>
      </trkpt>
      <trkpt lat="36.743554" lon="-3.672699">
        <ele>65.308</ele>
        <time>2021-06-16T12:05:05Z</time>
      </trkpt>
      <trkpt lat="36.743397" lon="-3.672954">
        <ele>64.865</ele>
        <time>2021-06-16T12:05:07Z</time>
      </trkpt>
      <trkpt lat="36.743318" lon="-3.673077">
        <ele>64.413</ele>
        <time>2021-06-16T12:05:08Z</time>
      </trkpt>
      <trkpt lat="36.743246" lon="-3.673208">
        <ele>64.437</ele>
        <time>2021-06-16T12:05:09Z</time>
      </trkpt>
      <trkpt lat="36.743176" lon="-3.673344">
        <ele>64.696</ele>
        <time>2021-06-16T12:05:10Z</time>
      </trkpt>
      <trkpt lat="36.74303" lon="-3.673604">
        <ele>64.659</ele>
        <time>2021-06-16T12:05:12Z</time>
      </trkpt>
      <trkpt lat="36.74289" lon="-3.673829">
        <ele>63.296</ele>
        <time>2021-06-16T12:05:14Z</time>
      </trkpt>
      <trkpt lat="36.742808" lon="-3.673936">
        <ele>62.443</ele>
        <time>2021-06-16T12:05:15Z</time>
      </trkpt>
      <trkpt lat="36.742635" lon="-3.674176">
        <ele>61.783</ele>
        <time>2021-06-16T12:05:17Z</time>
      </trkpt>
      <trkpt lat="36.742546" lon="-3.674305">
        <ele>61.257</ele>
        <time>2021-06-16T12:05:18Z</time>
      </trkpt>
      <trkpt lat="36.742373" lon="-3.674559">
        <ele>60.000</ele>
        <time>2021-06-16T12:05:20Z</time>
      </trkpt>
      <trkpt lat="36.742196" lon="-3.674827">
        <ele>58.620</ele>
        <time>2021-06-16T12:05:22Z</time>
      </trkpt>
      <trkpt lat="36.742002" lon="-3.675078">
        <ele>57.508</ele>
        <time>2021-06-16T12:05:24Z</time>
      </trkpt>
      <trkpt lat="36.7419" lon="-3.675203">
        <ele>56.442</ele>
        <time>2021-06-16T12:05:25Z</time>
      </trkpt>
      <trkpt lat="36.741696" lon="-3.675463">
        <ele>55.280</ele>
        <time>2021-06-16T12:05:27Z</time>
      </trkpt>
      <trkpt lat="36.741588" lon="-3.675586">
        <ele>54.284</ele>
        <time>2021-06-16T12:05:28Z</time>
      </trkpt>
      <trkpt lat="36.741354" lon="-3.675816">
        <ele>53.123</ele>
        <time>2021-06-16T12:05:30Z</time>
      </trkpt>
      <trkpt lat="36.741233" lon="-3.675931">
        <ele>52.296</ele>
        <time>2021-06-16T12:05:31Z</time>
      </trkpt>
      <trkpt lat="36.74111" lon="-3.676044">
        <ele>51.393</ele>
        <time>2021-06-16T12:05:32Z</time>
      </trkpt>
      <trkpt lat="36.740859" lon="-3.676243">
        <ele>50.840</ele>
        <time>2021-06-16T12:05:34Z</time>
      </trkpt>
      <trkpt lat="36.740734" lon="-3.676345">
        <ele>50.930</ele>
        <time>2021-06-16T12:05:35Z</time>
      </trkpt>
      <trkpt lat="36.740485" lon="-3.676518">
        <ele>51.455</ele>
        <time>2021-06-16T12:05:37Z</time>
      </trkpt>
      <trkpt lat="36.740228" lon="-3.67665">
        <ele>50.707</ele>
        <time>2021-06-16T12:05:39Z</time>
      </trkpt>
      <trkpt lat="36.73997" lon="-3.67677">
        <ele>49.817</ele>
        <time>2021-06-16T12:05:41Z</time>
      </trkpt>
      <trkpt lat="36.739843" lon="-3.676823">
        <ele>48.708</ele>
        <time>2021-06-16T12:05:42Z</time>
      </trkpt>
      <trkpt lat="36.739589" lon="-3.676927">
        <ele>47.592</ele>
        <time>2021-06-16T12:05:44Z</time>
      </trkpt>
      <trkpt lat="36.739461" lon="-3.67698">
        <ele>46.650</ele>
        <time>2021-06-16T12:05:45Z</time>
      </trkpt>
      <trkpt lat="36.739204" lon="-3.677087">
        <ele>45.614</ele>
        <time>2021-06-16T12:05:47Z</time>
      </trkpt>
      <trkpt lat="36.738958" lon="-3.677215">
        <ele>44.323</ele>
        <time>2021-06-16T12:05:49Z</time>
      </trkpt>
      <trkpt lat="36.738836" lon="-3.677274">
        <ele>43.176</ele>
        <time>2021-06-16T12:05:50Z</time>
      </trkpt>
      <trkpt lat="36.738594" lon="-3.67741">
        <ele>42.193</ele>
        <time>2021-06-16T12:05:52Z</time>
      </trkpt>
      <trkpt lat="36.738474" lon="-3.677477">
        <ele>41.180</ele>
        <time>2021-06-16T12:05:53Z</time>
      </trkpt>
      <trkpt lat="36.738238" lon="-3.677619">
        <ele>39.970</ele>
        <time>2021-06-16T12:05:55Z</time>
      </trkpt>
      <trkpt lat="36.738118" lon="-3.677693">
        <ele>38.814</ele>
        <time>2021-06-16T12:05:56Z</time>
      </trkpt>
      <trkpt lat="36.738003" lon="-3.677782">
        <ele>37.854</ele>
        <time>2021-06-16T12:05:57Z</time>
      </trkpt>
      <trkpt lat="36.737895" lon="-3.677866">
        <ele>37.309</ele>
        <time>2021-06-16T12:05:58Z</time>
      </trkpt>
      <trkpt lat="36.737725" lon="-3.678028">
        <ele>37.408</ele>
        <time>2021-06-16T12:06:00Z</time>
      </trkpt>
      <trkpt lat="36.737645" lon="-3.678101">
        <ele>37.228</ele>
        <time>2021-06-16T12:06:01Z</time>
      </trkpt>
      <trkpt lat="36.737503" lon="-3.678235">
        <ele>36.746</ele>
        <time>2021-06-16T12:06:03Z</time>
      </trkpt>
      <trkpt lat="36.737373" lon="-3.678371">
        <ele>36.460</ele>
        <time>2021-06-16T12:06:05Z</time>
      </trkpt>
      <trkpt lat="36.737245" lon="-3.678499">
        <ele>36.339</ele>
        <time>2021-06-16T12:06:07Z</time>
      </trkpt>
      <trkpt lat="36.737125" lon="-3.678613">
        <ele>35.872</ele>
        <time>2021-06-16T12:06:09Z</time>
      </trkpt>
      <trkpt lat="36.737009" lon="-3.678718">
        <ele>34.819</ele>
        <time>2021-06-16T12:06:11Z</time>
      </trkpt>
      <trkpt lat="36.736953" lon="-3.678773">
        <ele>34.036</ele>
        <time>2021-06-16T12:06:12Z</time>
      </trkpt>
      <trkpt lat="36.73686" lon="-3.678911">
        <ele>33.226</ele>
        <time>2021-06-16T12:06:14Z</time>
      </trkpt>
      <trkpt lat="36.736787" lon="-3.679072">
        <ele>32.713</ele>
        <time>2021-06-16T12:06:16Z</time>
      </trkpt>
      <trkpt lat="36.736745" lon="-3.679145">
        <ele>31.443</ele>
        <time>2021-06-16T12:06:17Z</time>
      </trkpt>
      <trkpt lat="36.736634" lon="-3.679277">
        <ele>30.207</ele>
        <time>2021-06-16T12:06:19Z</time>
      </trkpt>
      <trkpt lat="36.736578" lon="-3.679351">
        <ele>29.208</ele>
        <time>2021-06-16T12:06:20Z</time>
      </trkpt>
      <trkpt lat="36.736526" lon="-3.679433">
        <ele>28.048</ele>
        <time>2021-06-16T12:06:21Z</time>
      </trkpt>
      <trkpt lat="36.736484" lon="-3.679527">
        <ele>27.526</ele>
        <time>2021-06-16T12:06:22Z</time>
      </trkpt>
      <trkpt lat="36.736406" lon="-3.679728">
        <ele>26.640</ele>
        <time>2021-06-16T12:06:24Z</time>
      </trkpt>
      <trkpt lat="36.736367" lon="-3.679835">
        <ele>25.939</ele>
        <time>2021-06-16T12:06:25Z</time>
      </trkpt>
      <trkpt lat="36.73629" lon="-3.680064">
        <ele>25.422</ele>
        <time>2021-06-16T12:06:27Z</time>
      </trkpt>
      <trkpt lat="36.736249" lon="-3.680187">
        <ele>25.249</ele>
        <time>2021-06-16T12:06:28Z</time>
      </trkpt>
      <trkpt lat="36.736209" lon="-3.68031">
        <ele>24.776</ele>
        <time>2021-06-16T12:06:29Z</time>
      </trkpt>
      <trkpt lat="36.736175" lon="-3.68044">
        <ele>24.476</ele>
        <time>2021-06-16T12:06:30Z</time>
      </trkpt>
      <trkpt lat="36.736109" lon="-3.680717">
        <ele>24.011</ele>
        <time>2021-06-16T12:06:32Z</time>
      </trkpt>
      <trkpt lat="36.736049" lon="-3.681005">
        <ele>23.321</ele>
        <time>2021-06-16T12:06:34Z</time>
      </trkpt>
      <trkpt lat="36.736024" lon="-3.681146">
        <ele>22.403</ele>
        <time>2021-06-16T12:06:35Z</time>
      </trkpt>
      <trkpt lat="36.735991" lon="-3.681447">
        <ele>21.908</ele>
        <time>2021-06-16T12:06:37Z</time>
      </trkpt>
      <trkpt lat="36.735962" lon="-3.681738">
        <ele>20.748</ele>
        <time>2021-06-16T12:06:39Z</time>
      </trkpt>
      <trkpt lat="36.735954" lon="-3.681888">
        <ele>19.996</ele>
        <time>2021-06-16T12:06:40Z</time>
      </trkpt>
      <trkpt lat="36.735958" lon="-3.68218">
        <ele>18.920</ele>
        <time>2021-06-16T12:06:42Z</time>
      </trkpt>
      <trkpt lat="36.735967" lon="-3.682307">
        <ele>17.199</ele>
        <time>2021-06-16T12:06:43Z</time>
      </trkpt>
      <trkpt lat="36.73598" lon="-3.682422">
        <ele>15.742</ele>
        <time>2021-06-16T12:06:44Z</time>
      </trkpt>
      <trkpt lat="36.735997" lon="-3.682528">
        <ele>14.159</ele>
        <time>2021-06-16T12:06:45Z</time>
      </trkpt>
      <trkpt lat="36.736021" lon="-3.682711">
        <ele>12.796</ele>
        <time>2021-06-16T12:06:47Z</time>
      </trkpt>
      <trkpt lat="36.73605" lon="-3.682869">
        <ele>11.756</ele>
        <time>2021-06-16T12:06:49Z</time>
      </trkpt>
      <trkpt lat="36.736087" lon="-3.683048">
        <ele>10.826</ele>
        <time>2021-06-16T12:06:51Z</time>
      </trkpt>
      <trkpt lat="36.736128" lon="-3.683259">
        <ele>9.647</ele>
        <time>2021-06-16T12:06:53Z</time>
      </trkpt>
      <trkpt lat="36.736149" lon="-3.683373">
        <ele>8.711</ele>
        <time>2021-06-16T12:06:54Z</time>
      </trkpt>
      <trkpt lat="36.736196" lon="-3.68361">
        <ele>7.908</ele>
        <time>2021-06-16T12:06:56Z</time>
      </trkpt>
      <trkpt lat="36.736222" lon="-3.683726">
        <ele>7.459</ele>
        <time>2021-06-16T12:06:57Z</time>
      </trkpt>
      <trkpt lat="36.73627" lon="-3.683952">
        <ele>7.147</ele>
        <time>2021-06-16T12:06:59Z</time>
      </trkpt>
      <trkpt lat="36.736309" lon="-3.684167">
        <ele>7.241</ele>
        <time>2021-06-16T12:07:01Z</time>
      </trkpt>
      <trkpt lat="36.736348" lon="-3.684377">
        <ele>6.910</ele>
        <time>2021-06-16T12:07:03Z</time>
      </trkpt>
      <trkpt lat="36.736363" lon="-3.684481">
        <ele>6.983</ele>
        <time>2021-06-16T12:07:04Z</time>
      </trkpt>
      <trkpt lat="36.736375" lon="-3.684581">
        <ele>6.820</ele>
        <time>2021-06-16T12:07:05Z</time>
      </trkpt>
      <trkpt lat="36.7364" lon="-3.684765">
        <ele>6.677</ele>
        <time>2021-06-16T12:07:07Z</time>
      </trkpt>
      <trkpt lat="36.736406" lon="-3.684863">
        <ele>6.757</ele>
        <time>2021-06-16T12:07:08Z</time>
      </trkpt>
      <trkpt lat="36.736438" lon="-3.685048">
        <ele>6.621</ele>
        <time>2021-06-16T12:07:10Z</time>
      </trkpt>
      <trkpt lat="36.73646" lon="-3.685125">
        <ele>5.941</ele>
        <time>2021-06-16T12:07:11Z</time>
      </trkpt>
      <trkpt lat="36.736487" lon="-3.68526">
        <ele>5.205</ele>
        <time>2021-06-16T12:07:13Z</time>
      </trkpt>
      <trkpt lat="36.736496" lon="-3.685316">
        <ele>4.208</ele>
        <time>2021-06-16T12:07:14Z</time>
      </trkpt>
      <trkpt lat="36.736505" lon="-3.685431">
        <ele>3.289</ele>
        <time>2021-06-16T12:07:16Z</time>
      </trkpt>
      <trkpt lat="36.73653" lon="-3.685507">
        <ele>1.747</ele>
        <time>2021-06-16T12:07:17Z</time>
      </trkpt>
      <trkpt lat="36.736563" lon="-3.685599">
        <ele>0.691</ele>
        <time>2021-06-16T12:07:18Z</time>
      </trkpt>
      <trkpt lat="36.736592" lon="-3.685706">
        <ele>-0.390</ele>
        <time>2021-06-16T12:07:19Z</time>
      </trkpt>
      <trkpt lat="36.736617" lon="-3.685928">
        <ele>-1.053</ele>
        <time>2021-06-16T12:07:21Z</time>
      </trkpt>
      <trkpt lat="36.736654" lon="-3.686146">
        <ele>-1.030</ele>
        <time>2021-06-16T12:07:23Z</time>
      </trkpt>
      <trkpt lat="36.736678" lon="-3.686248">
        <ele>-0.817</ele>
        <time>2021-06-16T12:07:24Z</time>
      </trkpt>
      <trkpt lat="36.736712" lon="-3.686429">
        <ele>-0.567</ele>
        <time>2021-06-16T12:07:26Z</time>
      </trkpt>
      <trkpt lat="36.736745" lon="-3.686593">
        <ele>-0.444</ele>
        <time>2021-06-16T12:07:28Z</time>
      </trkpt>
      <trkpt lat="36.736758" lon="-3.686663">
        <ele>-0.605</ele>
        <time>2021-06-16T12:07:29Z</time>
      </trkpt>
      <trkpt lat="36.736768" lon="-3.68673">
        <ele>-0.115</ele>
        <time>2021-06-16T12:07:30Z</time>
      </trkpt>
      <trkpt lat="36.736775" lon="-3.686796">
        <ele>1.008</ele>
        <time>2021-06-16T12:07:31Z</time>
      </trkpt>
      <trkpt lat="36.736796" lon="-3.6869">
        <ele>1.661</ele>
        <time>2021-06-16T12:07:33Z</time>
      </trkpt>
      <trkpt lat="36.736828" lon="-3.686981">
        <ele>1.859</ele>
        <time>2021-06-16T12:07:35Z</time>
      </trkpt>
      <trkpt lat="36.736845" lon="-3.687077">
        <ele>2.313</ele>
        <time>2021-06-16T12:07:37Z</time>
      </trkpt>
      <trkpt lat="36.736851" lon="-3.687154">
        <ele>4.472</ele>
        <time>2021-06-16T12:07:39Z</time>
      </trkpt>
      <trkpt lat="36.736866" lon="-3.687225">
        <ele>5.845</ele>
        <time>2021-06-16T12:07:54Z</time>
      </trkpt>
      <trkpt lat="36.73688" lon="-3.687324">
        <ele>6.782</ele>
        <time>2021-06-16T12:07:56Z</time>
      </trkpt>
      <trkpt lat="36.736902" lon="-3.687444">
        <ele>7.219</ele>
        <time>2021-06-16T12:07:58Z</time>
      </trkpt>
      <trkpt lat="36.736938" lon="-3.687648">
        <ele>7.549</ele>
        <time>2021-06-16T12:08:00Z</time>
      </trkpt>
      <trkpt lat="36.736959" lon="-3.687763">
        <ele>7.735</ele>
        <time>2021-06-16T12:08:01Z</time>
      </trkpt>
      <trkpt lat="36.736979" lon="-3.687879">
        <ele>7.886</ele>
        <time>2021-06-16T12:08:02Z</time>
      </trkpt>
      <trkpt lat="36.737002" lon="-3.688003">
        <ele>7.914</ele>
        <time>2021-06-16T12:08:03Z</time>
      </trkpt>
      <trkpt lat="36.737045" lon="-3.688257">
        <ele>7.908</ele>
        <time>2021-06-16T12:08:05Z</time>
      </trkpt>
      <trkpt lat="36.73707" lon="-3.688393">
        <ele>7.980</ele>
        <time>2021-06-16T12:08:06Z</time>
      </trkpt>
      <trkpt lat="36.737127" lon="-3.688666">
        <ele>7.928</ele>
        <time>2021-06-16T12:08:08Z</time>
      </trkpt>
      <trkpt lat="36.737163" lon="-3.688802">
        <ele>7.942</ele>
        <time>2021-06-16T12:08:09Z</time>
      </trkpt>
      <trkpt lat="36.737225" lon="-3.689084">
        <ele>7.961</ele>
        <time>2021-06-16T12:08:11Z</time>
      </trkpt>
      <trkpt lat="36.73728" lon="-3.689381">
        <ele>7.984</ele>
        <time>2021-06-16T12:08:13Z</time>
      </trkpt>
      <trkpt lat="36.737318" lon="-3.689538">
        <ele>7.961</ele>
        <time>2021-06-16T12:08:14Z</time>
      </trkpt>
      <trkpt lat="36.737401" lon="-3.689859">
        <ele>7.938</ele>
        <time>2021-06-16T12:08:16Z</time>
      </trkpt>
      <trkpt lat="36.737445" lon="-3.690024">
        <ele>7.958</ele>
        <time>2021-06-16T12:08:17Z</time>
      </trkpt>
      <trkpt lat="36.737534" lon="-3.690361">
        <ele>7.979</ele>
        <time>2021-06-16T12:08:19Z</time>
      </trkpt>
      <trkpt lat="36.737587" lon="-3.69053">
        <ele>7.905</ele>
        <time>2021-06-16T12:08:20Z</time>
      </trkpt>
      <trkpt lat="36.737639" lon="-3.690701">
        <ele>7.925</ele>
        <time>2021-06-16T12:08:21Z</time>
      </trkpt>
      <trkpt lat="36.737747" lon="-3.691042">
        <ele>7.908</ele>
        <time>2021-06-16T12:08:23Z</time>
      </trkpt>
      <trkpt lat="36.737862" lon="-3.691384">
        <ele>7.914</ele>
        <time>2021-06-16T12:08:25Z</time>
      </trkpt>
      <trkpt lat="36.737983" lon="-3.69173">
        <ele>7.932</ele>
        <time>2021-06-16T12:08:27Z</time>
      </trkpt>
      <trkpt lat="36.738045" lon="-3.691905">
        <ele>7.936</ele>
        <time>2021-06-16T12:08:28Z</time>
      </trkpt>
      <trkpt lat="36.73817" lon="-3.692271">
        <ele>7.965</ele>
        <time>2021-06-16T12:08:30Z</time>
      </trkpt>
      <trkpt lat="36.738236" lon="-3.69246">
        <ele>7.958</ele>
        <time>2021-06-16T12:08:31Z</time>
      </trkpt>
      <trkpt lat="36.738372" lon="-3.692833">
        <ele>7.955</ele>
        <time>2021-06-16T12:08:33Z</time>
      </trkpt>
      <trkpt lat="36.738512" lon="-3.69321">
        <ele>7.972</ele>
        <time>2021-06-16T12:08:35Z</time>
      </trkpt>
      <trkpt lat="36.73866" lon="-3.69358">
        <ele>7.942</ele>
        <time>2021-06-16T12:08:37Z</time>
      </trkpt>
      <trkpt lat="36.738732" lon="-3.693765">
        <ele>7.949</ele>
        <time>2021-06-16T12:08:38Z</time>
      </trkpt>
      <trkpt lat="36.738803" lon="-3.693949">
        <ele>7.902</ele>
        <time>2021-06-16T12:08:39Z</time>
      </trkpt>
      <trkpt lat="36.738949" lon="-3.694315">
        <ele>7.922</ele>
        <time>2021-06-16T12:08:41Z</time>
      </trkpt>
      <trkpt lat="36.739086" lon="-3.694681">
        <ele>7.908</ele>
        <time>2021-06-16T12:08:43Z</time>
      </trkpt>
      <trkpt lat="36.739156" lon="-3.694864">
        <ele>7.961</ele>
        <time>2021-06-16T12:08:44Z</time>
      </trkpt>
      <trkpt lat="36.739295" lon="-3.695235">
        <ele>7.949</ele>
        <time>2021-06-16T12:08:46Z</time>
      </trkpt>
      <trkpt lat="36.73936" lon="-3.69542">
        <ele>7.913</ele>
        <time>2021-06-16T12:08:47Z</time>
      </trkpt>
      <trkpt lat="36.739425" lon="-3.695603">
        <ele>7.932</ele>
        <time>2021-06-16T12:08:48Z</time>
      </trkpt>
      <trkpt lat="36.739494" lon="-3.695785">
        <ele>7.985</ele>
        <time>2021-06-16T12:08:49Z</time>
      </trkpt>
      <trkpt lat="36.73963" lon="-3.696134">
        <ele>7.952</ele>
        <time>2021-06-16T12:08:51Z</time>
      </trkpt>
      <trkpt lat="36.739758" lon="-3.696458">
        <ele>7.959</ele>
        <time>2021-06-16T12:08:53Z</time>
      </trkpt>
      <trkpt lat="36.739817" lon="-3.696607">
        <ele>11.919</ele>
        <time>2021-06-16T12:08:54Z</time>
      </trkpt>
      <trkpt lat="36.739872" lon="-3.696754">
        <ele>15.991</ele>
        <time>2021-06-16T12:08:55Z</time>
      </trkpt>
      <trkpt lat="36.739923" lon="-3.696898">
        <ele>19.981</ele>
        <time>2021-06-16T12:08:56Z</time>
      </trkpt>
      <trkpt lat="36.740026" lon="-3.697167">
        <ele>23.919</ele>
        <time>2021-06-16T12:08:58Z</time>
      </trkpt>
      <trkpt lat="36.740075" lon="-3.6973">
        <ele>27.208</ele>
        <time>2021-06-16T12:08:59Z</time>
      </trkpt>
      <trkpt lat="36.740121" lon="-3.697429">
        <ele>29.536</ele>
        <time>2021-06-16T12:09:00Z</time>
      </trkpt>
      <trkpt lat="36.740203" lon="-3.697669">
        <ele>31.454</ele>
        <time>2021-06-16T12:09:02Z</time>
      </trkpt>
      <trkpt lat="36.740239" lon="-3.697883">
        <ele>33.378</ele>
        <time>2021-06-16T12:09:04Z</time>
      </trkpt>
      <trkpt lat="36.74025" lon="-3.69798">
        <ele>34.997</ele>
        <time>2021-06-16T12:09:05Z</time>
      </trkpt>
      <trkpt lat="36.740261" lon="-3.698067">
        <ele>36.180</ele>
        <time>2021-06-16T12:09:06Z</time>
      </trkpt>
      <trkpt lat="36.740268" lon="-3.698143">
        <ele>37.127</ele>
        <time>2021-06-16T12:09:07Z</time>
      </trkpt>
      <trkpt lat="36.740284" lon="-3.698269">
        <ele>38.334</ele>
        <time>2021-06-16T12:09:09Z</time>
      </trkpt>
      <trkpt lat="36.740289" lon="-3.698326">
        <ele>38.734</ele>
        <time>2021-06-16T12:09:10Z</time>
      </trkpt>
      <trkpt lat="36.740295" lon="-3.698405">
        <ele>38.952</ele>
        <time>2021-06-16T12:09:12Z</time>
      </trkpt>
      <trkpt lat="36.740327" lon="-3.69848">
        <ele>39.453</ele>
        <time>2021-06-16T12:09:14Z</time>
      </trkpt>
      <trkpt lat="36.740348" lon="-3.698571">
        <ele>39.108</ele>
        <time>2021-06-16T12:09:16Z</time>
      </trkpt>
      <trkpt lat="36.740363" lon="-3.698636">
        <ele>39.608</ele>
        <time>2021-06-16T12:09:17Z</time>
      </trkpt>
      <trkpt lat="36.740366" lon="-3.698709">
        <ele>39.872</ele>
        <time>2021-06-16T12:09:18Z</time>
      </trkpt>
      <trkpt lat="36.740365" lon="-3.698838">
        <ele>40.450</ele>
        <time>2021-06-16T12:09:20Z</time>
      </trkpt>
      <trkpt lat="36.740362" lon="-3.698923">
        <ele>39.564</ele>
        <time>2021-06-16T12:09:22Z</time>
      </trkpt>
      <trkpt lat="36.740368" lon="-3.699014">
        <ele>39.063</ele>
        <time>2021-06-16T12:09:24Z</time>
      </trkpt>
      <trkpt lat="36.740351" lon="-3.699088">
        <ele>38.646</ele>
        <time>2021-06-16T12:09:27Z</time>
      </trkpt>
      <trkpt lat="36.740328" lon="-3.699147">
        <ele>38.483</ele>
        <time>2021-06-16T12:09:30Z</time>
      </trkpt>
      <trkpt lat="36.740329" lon="-3.699209">
        <ele>38.430</ele>
        <time>2021-06-16T12:09:43Z</time>
      </trkpt>
      <trkpt lat="36.74029" lon="-3.699256">
        <ele>38.490</ele>
        <time>2021-06-16T12:09:50Z</time>
      </trkpt>
      <trkpt lat="36.740253" lon="-3.699311">
        <ele>38.577</ele>
        <time>2021-06-16T12:09:52Z</time>
      </trkpt>
      <trkpt lat="36.740224" lon="-3.699378">
        <ele>38.561</ele>
        <time>2021-06-16T12:09:53Z</time>
      </trkpt>
      <trkpt lat="36.740204" lon="-3.699462">
        <ele>38.527</ele>
        <time>2021-06-16T12:09:54Z</time>
      </trkpt>
      <trkpt lat="36.740187" lon="-3.699548">
        <ele>38.508</ele>
        <time>2021-06-16T12:09:55Z</time>
      </trkpt>
      <trkpt lat="36.740151" lon="-3.699752">
        <ele>38.534</ele>
        <time>2021-06-16T12:09:57Z</time>
      </trkpt>
      <trkpt lat="36.740137" lon="-3.699865">
        <ele>38.562</ele>
        <time>2021-06-16T12:09:58Z</time>
      </trkpt>
      <trkpt lat="36.740122" lon="-3.700111">
        <ele>38.546</ele>
        <time>2021-06-16T12:10:00Z</time>
      </trkpt>
      <trkpt lat="36.740121" lon="-3.700238">
        <ele>38.595</ele>
        <time>2021-06-16T12:10:01Z</time>
      </trkpt>
      <trkpt lat="36.740133" lon="-3.700516">
        <ele>38.558</ele>
        <time>2021-06-16T12:10:03Z</time>
      </trkpt>
      <trkpt lat="36.740183" lon="-3.7008">
        <ele>38.565</ele>
        <time>2021-06-16T12:10:05Z</time>
      </trkpt>
      <trkpt lat="36.740214" lon="-3.700947">
        <ele>38.572</ele>
        <time>2021-06-16T12:10:06Z</time>
      </trkpt>
      <trkpt lat="36.740242" lon="-3.701094">
        <ele>38.582</ele>
        <time>2021-06-16T12:10:07Z</time>
      </trkpt>
      <trkpt lat="36.740268" lon="-3.701241">
        <ele>38.532</ele>
        <time>2021-06-16T12:10:08Z</time>
      </trkpt>
      <trkpt lat="36.740294" lon="-3.701544">
        <ele>38.592</ele>
        <time>2021-06-16T12:10:10Z</time>
      </trkpt>
      <trkpt lat="36.740248" lon="-3.70185">
        <ele>38.511</ele>
        <time>2021-06-16T12:10:12Z</time>
      </trkpt>
      <trkpt lat="36.74014" lon="-3.702134">
        <ele>38.508</ele>
        <time>2021-06-16T12:10:14Z</time>
      </trkpt>
      <trkpt lat="36.74007" lon="-3.702272">
        <ele>38.540</ele>
        <time>2021-06-16T12:10:15Z</time>
      </trkpt>
      <trkpt lat="36.739941" lon="-3.702552">
        <ele>38.538</ele>
        <time>2021-06-16T12:10:17Z</time>
      </trkpt>
      <trkpt lat="36.739879" lon="-3.702697">
        <ele>38.542</ele>
        <time>2021-06-16T12:10:18Z</time>
      </trkpt>
      <trkpt lat="36.739798" lon="-3.703003">
        <ele>38.551</ele>
        <time>2021-06-16T12:10:20Z</time>
      </trkpt>
      <trkpt lat="36.739775" lon="-3.703171">
        <ele>38.594</ele>
        <time>2021-06-16T12:10:21Z</time>
      </trkpt>
      <trkpt lat="36.739779" lon="-3.703506">
        <ele>38.541</ele>
        <time>2021-06-16T12:10:23Z</time>
      </trkpt>
      <trkpt lat="36.739801" lon="-3.703674">
        <ele>38.568</ele>
        <time>2021-06-16T12:10:24Z</time>
      </trkpt>
      <trkpt lat="36.739843" lon="-3.703836">
        <ele>38.588</ele>
        <time>2021-06-16T12:10:25Z</time>
      </trkpt>
      <trkpt lat="36.739911" lon="-3.703988">
        <ele>38.548</ele>
        <time>2021-06-16T12:10:26Z</time>
      </trkpt>
      <trkpt lat="36.74009" lon="-3.704254">
        <ele>38.561</ele>
        <time>2021-06-16T12:10:28Z</time>
      </trkpt>
      <trkpt lat="36.740195" lon="-3.704375">
        <ele>38.517</ele>
        <time>2021-06-16T12:10:29Z</time>
      </trkpt>
      <trkpt lat="36.740401" lon="-3.704617">
        <ele>38.508</ele>
        <time>2021-06-16T12:10:31Z</time>
      </trkpt>
      <trkpt lat="36.7405" lon="-3.704747">
        <ele>38.531</ele>
        <time>2021-06-16T12:10:32Z</time>
      </trkpt>
      <trkpt lat="36.740598" lon="-3.704878">
        <ele>38.519</ele>
        <time>2021-06-16T12:10:33Z</time>
      </trkpt>
      <trkpt lat="36.740791" lon="-3.705132">
        <ele>38.563</ele>
        <time>2021-06-16T12:10:35Z</time>
      </trkpt>
      <trkpt lat="36.74088" lon="-3.705259">
        <ele>38.522</ele>
        <time>2021-06-16T12:10:36Z</time>
      </trkpt>
      <trkpt lat="36.741024" lon="-3.705542">
        <ele>38.515</ele>
        <time>2021-06-16T12:10:38Z</time>
      </trkpt>
      <trkpt lat="36.741052" lon="-3.705708">
        <ele>38.592</ele>
        <time>2021-06-16T12:10:39Z</time>
      </trkpt>
      <trkpt lat="36.740987" lon="-3.706042">
        <ele>38.599</ele>
        <time>2021-06-16T12:10:41Z</time>
      </trkpt>
      <trkpt lat="36.740903" lon="-3.706186">
        <ele>38.519</ele>
        <time>2021-06-16T12:10:42Z</time>
      </trkpt>
      <trkpt lat="36.740688" lon="-3.70643">
        <ele>38.531</ele>
        <time>2021-06-16T12:10:44Z</time>
      </trkpt>
      <trkpt lat="36.740403" lon="-3.706517">
        <ele>38.561</ele>
        <time>2021-06-16T12:10:46Z</time>
      </trkpt>
      <trkpt lat="36.740251" lon="-3.706514">
        <ele>38.507</ele>
        <time>2021-06-16T12:10:47Z</time>
      </trkpt>
      <trkpt lat="36.739961" lon="-3.706478">
        <ele>38.508</ele>
        <time>2021-06-16T12:10:49Z</time>
      </trkpt>
      <trkpt lat="36.739674" lon="-3.706552">
        <ele>38.560</ele>
        <time>2021-06-16T12:10:51Z</time>
      </trkpt>
      <trkpt lat="36.739539" lon="-3.706626">
        <ele>38.578</ele>
        <time>2021-06-16T12:10:52Z</time>
      </trkpt>
      <trkpt lat="36.739307" lon="-3.706846">
        <ele>42.552</ele>
        <time>2021-06-16T12:10:54Z</time>
      </trkpt>
      <trkpt lat="36.739197" lon="-3.706969">
        <ele>46.561</ele>
        <time>2021-06-16T12:10:55Z</time>
      </trkpt>
      <trkpt lat="36.738977" lon="-3.70722">
        <ele>50.534</ele>
        <time>2021-06-16T12:10:57Z</time>
      </trkpt>
      <trkpt lat="36.738868" lon="-3.707352">
        <ele>54.561</ele>
        <time>2021-06-16T12:10:58Z</time>
      </trkpt>
      <trkpt lat="36.738681" lon="-3.707646">
        <ele>58.518</ele>
        <time>2021-06-16T12:11:00Z</time>
      </trkpt>
      <trkpt lat="36.7386" lon="-3.707803">
        <ele>62.538</ele>
        <time>2021-06-16T12:11:01Z</time>
      </trkpt>
      <trkpt lat="36.738517" lon="-3.707947">
        <ele>66.576</ele>
        <time>2021-06-16T12:11:02Z</time>
      </trkpt>
      <trkpt lat="36.738304" lon="-3.708178">
        <ele>70.590</ele>
        <time>2021-06-16T12:11:04Z</time>
      </trkpt>
      <trkpt lat="36.738169" lon="-3.70826">
        <ele>74.519</ele>
        <time>2021-06-16T12:11:05Z</time>
      </trkpt>
      <trkpt lat="36.738023" lon="-3.708324">
        <ele>78.508</ele>
        <time>2021-06-16T12:11:06Z</time>
      </trkpt>
      <trkpt lat="36.737739" lon="-3.708433">
        <ele>82.554</ele>
        <time>2021-06-16T12:11:08Z</time>
      </trkpt>
      <trkpt lat="36.737451" lon="-3.708539">
        <ele>86.582</ele>
        <time>2021-06-16T12:11:10Z</time>
      </trkpt>
      <trkpt lat="36.73716" lon="-3.708651">
        <ele>90.586</ele>
        <time>2021-06-16T12:11:12Z</time>
      </trkpt>
      <trkpt lat="36.736884" lon="-3.708785">
        <ele>94.595</ele>
        <time>2021-06-16T12:11:14Z</time>
      </trkpt>
      <trkpt lat="36.736757" lon="-3.708877">
        <ele>97.018</ele>
        <time>2021-06-16T12:11:15Z</time>
      </trkpt>
      <trkpt lat="36.736537" lon="-3.709137">
        <ele>98.475</ele>
        <time>2021-06-16T12:11:17Z</time>
      </trkpt>
      <trkpt lat="36.736408" lon="-3.70949">
        <ele>98.982</ele>
        <time>2021-06-16T12:11:19Z</time>
      </trkpt>
      <trkpt lat="36.73639" lon="-3.709686">
        <ele>98.142</ele>
        <time>2021-06-16T12:11:20Z</time>
      </trkpt>
      <trkpt lat="36.736403" lon="-3.709887">
        <ele>97.656</ele>
        <time>2021-06-16T12:11:21Z</time>
      </trkpt>
      <trkpt lat="36.736507" lon="-3.710276">
        <ele>96.859</ele>
        <time>2021-06-16T12:11:23Z</time>
      </trkpt>
      <trkpt lat="36.736597" lon="-3.71045">
        <ele>96.014</ele>
        <time>2021-06-16T12:11:24Z</time>
      </trkpt>
      <trkpt lat="36.736707" lon="-3.710615">
        <ele>94.908</ele>
        <time>2021-06-16T12:11:25Z</time>
      </trkpt>
      <trkpt lat="36.736941" lon="-3.710937">
        <ele>94.082</ele>
        <time>2021-06-16T12:11:27Z</time>
      </trkpt>
      <trkpt lat="36.73706" lon="-3.711101">
        <ele>93.060</ele>
        <time>2021-06-16T12:11:28Z</time>
      </trkpt>
      <trkpt lat="36.7373" lon="-3.711436">
        <ele>90.754</ele>
        <time>2021-06-16T12:11:30Z</time>
      </trkpt>
      <trkpt lat="36.737535" lon="-3.711773">
        <ele>88.573</ele>
        <time>2021-06-16T12:11:32Z</time>
      </trkpt>
      <trkpt lat="36.737653" lon="-3.711941">
        <ele>86.616</ele>
        <time>2021-06-16T12:11:33Z</time>
      </trkpt>
      <trkpt lat="36.737771" lon="-3.712111">
        <ele>85.173</ele>
        <time>2021-06-16T12:11:34Z</time>
      </trkpt>
      <trkpt lat="36.737886" lon="-3.712285">
        <ele>83.950</ele>
        <time>2021-06-16T12:11:35Z</time>
      </trkpt>
      <trkpt lat="36.737995" lon="-3.712466">
        <ele>82.760</ele>
        <time>2021-06-16T12:11:36Z</time>
      </trkpt>
      <trkpt lat="36.738083" lon="-3.712655">
        <ele>81.437</ele>
        <time>2021-06-16T12:11:37Z</time>
      </trkpt>
      <trkpt lat="36.738147" lon="-3.712856">
        <ele>79.649</ele>
        <time>2021-06-16T12:11:38Z</time>
      </trkpt>
      <trkpt lat="36.738207" lon="-3.713284">
        <ele>77.913</ele>
        <time>2021-06-16T12:11:40Z</time>
      </trkpt>
      <trkpt lat="36.738201" lon="-3.713501">
        <ele>76.308</ele>
        <time>2021-06-16T12:11:41Z</time>
      </trkpt>
      <trkpt lat="36.738116" lon="-3.713918">
        <ele>74.830</ele>
        <time>2021-06-16T12:11:43Z</time>
      </trkpt>
      <trkpt lat="36.737945" lon="-3.714299">
        <ele>73.288</ele>
        <time>2021-06-16T12:11:45Z</time>
      </trkpt>
      <trkpt lat="36.737697" lon="-3.714621">
        <ele>71.972</ele>
        <time>2021-06-16T12:11:47Z</time>
      </trkpt>
      <trkpt lat="36.737554" lon="-3.714744">
        <ele>71.531</ele>
        <time>2021-06-16T12:11:48Z</time>
      </trkpt>
      <trkpt lat="36.737216" lon="-3.714891">
        <ele>71.514</ele>
        <time>2021-06-16T12:11:50Z</time>
      </trkpt>
      <trkpt lat="36.737034" lon="-3.714919">
        <ele>71.761</ele>
        <time>2021-06-16T12:11:51Z</time>
      </trkpt>
      <trkpt lat="36.736676" lon="-3.714915">
        <ele>72.378</ele>
        <time>2021-06-16T12:11:53Z</time>
      </trkpt>
      <trkpt lat="36.736349" lon="-3.714852">
        <ele>73.148</ele>
        <time>2021-06-16T12:11:55Z</time>
      </trkpt>
      <trkpt lat="36.736197" lon="-3.71483">
        <ele>73.578</ele>
        <time>2021-06-16T12:11:56Z</time>
      </trkpt>
      <trkpt lat="36.7359" lon="-3.714849">
        <ele>74.933</ele>
        <time>2021-06-16T12:11:58Z</time>
      </trkpt>
      <trkpt lat="36.735627" lon="-3.714976">
        <ele>76.726</ele>
        <time>2021-06-16T12:12:00Z</time>
      </trkpt>
      <trkpt lat="36.735403" lon="-3.715227">
        <ele>77.908</ele>
        <time>2021-06-16T12:12:02Z</time>
      </trkpt>
      <trkpt lat="36.735275" lon="-3.715602">
        <ele>78.724</ele>
        <time>2021-06-16T12:12:04Z</time>
      </trkpt>
      <trkpt lat="36.735263" lon="-3.715797">
        <ele>79.992</ele>
        <time>2021-06-16T12:12:05Z</time>
      </trkpt>
      <trkpt lat="36.735293" lon="-3.715992">
        <ele>80.876</ele>
        <time>2021-06-16T12:12:06Z</time>
      </trkpt>
      <trkpt lat="36.73535" lon="-3.716177">
        <ele>81.785</ele>
        <time>2021-06-16T12:12:07Z</time>
      </trkpt>
      <trkpt lat="36.735525" lon="-3.716499">
        <ele>83.298</ele>
        <time>2021-06-16T12:12:09Z</time>
      </trkpt>
      <trkpt lat="36.735775" lon="-3.716733">
        <ele>84.815</ele>
        <time>2021-06-16T12:12:11Z</time>
      </trkpt>
      <trkpt lat="36.736045" lon="-3.71691">
        <ele>85.882</ele>
        <time>2021-06-16T12:12:13Z</time>
      </trkpt>
      <trkpt lat="36.736188" lon="-3.716985">
        <ele>86.492</ele>
        <time>2021-06-16T12:12:14Z</time>
      </trkpt>
      <trkpt lat="36.736468" lon="-3.717171">
        <ele>87.096</ele>
        <time>2021-06-16T12:12:16Z</time>
      </trkpt>
      <trkpt lat="36.736589" lon="-3.717298">
        <ele>87.131</ele>
        <time>2021-06-16T12:12:17Z</time>
      </trkpt>
      <trkpt lat="36.736754" lon="-3.717612">
        <ele>87.924</ele>
        <time>2021-06-16T12:12:19Z</time>
      </trkpt>
      <trkpt lat="36.7368" lon="-3.717793">
        <ele>89.008</ele>
        <time>2021-06-16T12:12:20Z</time>
      </trkpt>
      <trkpt lat="36.736821" lon="-3.718175">
        <ele>90.096</ele>
        <time>2021-06-16T12:12:22Z</time>
      </trkpt>
      <trkpt lat="36.736759" lon="-3.718551">
        <ele>91.124</ele>
        <time>2021-06-16T12:12:24Z</time>
      </trkpt>
      <trkpt lat="36.73671" lon="-3.718736">
        <ele>92.018</ele>
        <time>2021-06-16T12:12:25Z</time>
      </trkpt>
      <trkpt lat="36.736624" lon="-3.719094">
        <ele>92.917</ele>
        <time>2021-06-16T12:12:27Z</time>
      </trkpt>
      <trkpt lat="36.736572" lon="-3.719469">
        <ele>93.940</ele>
        <time>2021-06-16T12:12:29Z</time>
      </trkpt>
      <trkpt lat="36.736627" lon="-3.719826">
        <ele>95.067</ele>
        <time>2021-06-16T12:12:31Z</time>
      </trkpt>
      <trkpt lat="36.73675" lon="-3.72016">
        <ele>95.884</ele>
        <time>2021-06-16T12:12:33Z</time>
      </trkpt>
      <trkpt lat="36.736853" lon="-3.7203">
        <ele>96.414</ele>
        <time>2021-06-16T12:12:34Z</time>
      </trkpt>
      <trkpt lat="36.736966" lon="-3.720424">
        <ele>97.083</ele>
        <time>2021-06-16T12:12:35Z</time>
      </trkpt>
      <trkpt lat="36.73708" lon="-3.720536">
        <ele>97.825</ele>
        <time>2021-06-16T12:12:36Z</time>
      </trkpt>
      <trkpt lat="36.737278" lon="-3.720794">
        <ele>99.317</ele>
        <time>2021-06-16T12:12:38Z</time>
      </trkpt>
      <trkpt lat="36.737419" lon="-3.721116">
        <ele>101.208</ele>
        <time>2021-06-16T12:12:40Z</time>
      </trkpt>
      <trkpt lat="36.73746" lon="-3.721303">
        <ele>103.015</ele>
        <time>2021-06-16T12:12:41Z</time>
      </trkpt>
      <trkpt lat="36.73748" lon="-3.721687">
        <ele>104.613</ele>
        <time>2021-06-16T12:12:43Z</time>
      </trkpt>
      <trkpt lat="36.737431" lon="-3.722068">
        <ele>106.297</ele>
        <time>2021-06-16T12:12:45Z</time>
      </trkpt>
      <trkpt lat="36.737395" lon="-3.722256">
        <ele>107.456</ele>
        <time>2021-06-16T12:12:46Z</time>
      </trkpt>
      <trkpt lat="36.737327" lon="-3.72264">
        <ele>108.859</ele>
        <time>2021-06-16T12:12:48Z</time>
      </trkpt>
      <trkpt lat="36.737293" lon="-3.722832">
        <ele>109.696</ele>
        <time>2021-06-16T12:12:49Z</time>
      </trkpt>
      <trkpt lat="36.737233" lon="-3.723211">
        <ele>110.443</ele>
        <time>2021-06-16T12:12:51Z</time>
      </trkpt>
      <trkpt lat="36.737202" lon="-3.723608">
        <ele>111.473</ele>
        <time>2021-06-16T12:12:53Z</time>
      </trkpt>
      <trkpt lat="36.737187" lon="-3.723809">
        <ele>112.084</ele>
        <time>2021-06-16T12:12:54Z</time>
      </trkpt>
      <trkpt lat="36.737956" lon="-3.727442">
        <ele>113.707</ele>
        <time>2021-06-16T12:13:15Z</time>
      </trkpt>
      <trkpt lat="36.737899" lon="-3.727632">
        <ele>114.617</ele>
        <time>2021-06-16T12:13:16Z</time>
      </trkpt>
      <trkpt lat="36.737741" lon="-3.727974">
        <ele>112.908</ele>
        <time>2021-06-16T12:13:18Z</time>
      </trkpt>
      <trkpt lat="36.737634" lon="-3.728131">
        <ele>112.455</ele>
        <time>2021-06-16T12:13:19Z</time>
      </trkpt>
      <trkpt lat="36.73738" lon="-3.728386">
        <ele>112.233</ele>
        <time>2021-06-16T12:13:21Z</time>
      </trkpt>
      <trkpt lat="36.73724" lon="-3.728495">
        <ele>111.687</ele>
        <time>2021-06-16T12:13:22Z</time>
      </trkpt>
      <trkpt lat="36.737106" lon="-3.728603">
        <ele>110.946</ele>
        <time>2021-06-16T12:13:23Z</time>
      </trkpt>
      <trkpt lat="36.736983" lon="-3.728716">
        <ele>110.039</ele>
        <time>2021-06-16T12:13:24Z</time>
      </trkpt>
      <trkpt lat="36.736874" lon="-3.728842">
        <ele>109.446</ele>
        <time>2021-06-16T12:13:25Z</time>
      </trkpt>
      <trkpt lat="36.736782" lon="-3.728988">
        <ele>109.063</ele>
        <time>2021-06-16T12:13:26Z</time>
      </trkpt>
      <trkpt lat="36.736707" lon="-3.729145">
        <ele>108.473</ele>
        <time>2021-06-16T12:13:27Z</time>
      </trkpt>
      <trkpt lat="36.73664" lon="-3.72952">
        <ele>107.778</ele>
        <time>2021-06-16T12:13:29Z</time>
      </trkpt>
      <trkpt lat="36.736647" lon="-3.729901">
        <ele>106.433</ele>
        <time>2021-06-16T12:13:31Z</time>
      </trkpt>
      <trkpt lat="36.736686" lon="-3.730276">
        <ele>104.626</ele>
        <time>2021-06-16T12:13:33Z</time>
      </trkpt>
      <trkpt lat="36.7367" lon="-3.730464">
        <ele>102.908</ele>
        <time>2021-06-16T12:13:34Z</time>
      </trkpt>
      <trkpt lat="36.736727" lon="-3.730858">
        <ele>101.044</ele>
        <time>2021-06-16T12:13:36Z</time>
      </trkpt>
      <trkpt lat="36.736744" lon="-3.731058">
        <ele>99.432</ele>
        <time>2021-06-16T12:13:37Z</time>
      </trkpt>
      <trkpt lat="36.736779" lon="-3.731472">
        <ele>97.196</ele>
        <time>2021-06-16T12:13:39Z</time>
      </trkpt>
      <trkpt lat="36.736798" lon="-3.731685">
        <ele>95.075</ele>
        <time>2021-06-16T12:13:40Z</time>
      </trkpt>
      <trkpt lat="36.736829" lon="-3.732117">
        <ele>93.068</ele>
        <time>2021-06-16T12:13:42Z</time>
      </trkpt>
      <trkpt lat="36.73685" lon="-3.732543">
        <ele>91.145</ele>
        <time>2021-06-16T12:13:44Z</time>
      </trkpt>
      <trkpt lat="36.736872" lon="-3.732972">
        <ele>89.062</ele>
        <time>2021-06-16T12:13:46Z</time>
      </trkpt>
      <trkpt lat="36.736885" lon="-3.733184">
        <ele>87.152</ele>
        <time>2021-06-16T12:13:47Z</time>
      </trkpt>
      <trkpt lat="36.736917" lon="-3.733609">
        <ele>85.113</ele>
        <time>2021-06-16T12:13:49Z</time>
      </trkpt>
      <trkpt lat="36.736944" lon="-3.733817">
        <ele>83.443</ele>
        <time>2021-06-16T12:13:50Z</time>
      </trkpt>
      <trkpt lat="36.736995" lon="-3.73402">
        <ele>81.707</ele>
        <time>2021-06-16T12:13:51Z</time>
      </trkpt>
      <trkpt lat="36.737159" lon="-3.734395">
        <ele>80.708</ele>
        <time>2021-06-16T12:13:53Z</time>
      </trkpt>
      <trkpt lat="36.737263" lon="-3.734566">
        <ele>79.848</ele>
        <time>2021-06-16T12:13:54Z</time>
      </trkpt>
      <trkpt lat="36.737553" lon="-3.734813">
        <ele>77.746</ele>
        <time>2021-06-16T12:13:56Z</time>
      </trkpt>
      <trkpt lat="36.737884" lon="-3.734958">
        <ele>75.930</ele>
        <time>2021-06-16T12:13:58Z</time>
      </trkpt>
      <trkpt lat="36.738062" lon="-3.73498">
        <ele>74.919</ele>
        <time>2021-06-16T12:13:59Z</time>
      </trkpt>
      <trkpt lat="36.738239" lon="-3.734985">
        <ele>74.072</ele>
        <time>2021-06-16T12:14:00Z</time>
      </trkpt>
      <trkpt lat="36.738587" lon="-3.735013">
        <ele>71.679</ele>
        <time>2021-06-16T12:14:02Z</time>
      </trkpt>
      <trkpt lat="36.738756" lon="-3.735069">
        <ele>70.046</ele>
        <time>2021-06-16T12:14:03Z</time>
      </trkpt>
      <trkpt lat="36.739059" lon="-3.735266">
        <ele>68.066</ele>
        <time>2021-06-16T12:14:05Z</time>
      </trkpt>
      <trkpt lat="36.739302" lon="-3.735586">
        <ele>65.882</ele>
        <time>2021-06-16T12:14:07Z</time>
      </trkpt>
      <trkpt lat="36.739433" lon="-3.735979">
        <ele>63.243</ele>
        <time>2021-06-16T12:14:09Z</time>
      </trkpt>
      <trkpt lat="36.73947" lon="-3.736401">
        <ele>60.517</ele>
        <time>2021-06-16T12:14:11Z</time>
      </trkpt>
      <trkpt lat="36.7394" lon="-3.736825">
        <ele>58.108</ele>
        <time>2021-06-16T12:14:13Z</time>
      </trkpt>
      <trkpt lat="36.739222" lon="-3.737192">
        <ele>55.245</ele>
        <time>2021-06-16T12:14:15Z</time>
      </trkpt>
      <trkpt lat="36.739103" lon="-3.737345">
        <ele>53.063</ele>
        <time>2021-06-16T12:14:16Z</time>
      </trkpt>
      <trkpt lat="36.73883" lon="-3.737577">
        <ele>50.847</ele>
        <time>2021-06-16T12:14:18Z</time>
      </trkpt>
      <trkpt lat="36.73869" lon="-3.737664">
        <ele>49.266</ele>
        <time>2021-06-16T12:14:19Z</time>
      </trkpt>
      <trkpt lat="36.738428" lon="-3.737823">
        <ele>47.119</ele>
        <time>2021-06-16T12:14:21Z</time>
      </trkpt>
      <trkpt lat="36.738302" lon="-3.737906">
        <ele>45.116</ele>
        <time>2021-06-16T12:14:22Z</time>
      </trkpt>
      <trkpt lat="36.738057" lon="-3.738067">
        <ele>43.453</ele>
        <time>2021-06-16T12:14:24Z</time>
      </trkpt>
      <trkpt lat="36.737809" lon="-3.73823">
        <ele>41.783</ele>
        <time>2021-06-16T12:14:26Z</time>
      </trkpt>
      <trkpt lat="36.737689" lon="-3.738316">
        <ele>39.972</ele>
        <time>2021-06-16T12:14:27Z</time>
      </trkpt>
      <trkpt lat="36.737439" lon="-3.738483">
        <ele>38.413</ele>
        <time>2021-06-16T12:14:29Z</time>
      </trkpt>
      <trkpt lat="36.737318" lon="-3.738561">
        <ele>37.014</ele>
        <time>2021-06-16T12:14:30Z</time>
      </trkpt>
      <trkpt lat="36.737195" lon="-3.738639">
        <ele>35.908</ele>
        <time>2021-06-16T12:14:31Z</time>
      </trkpt>
      <trkpt lat="36.73707" lon="-3.738718">
        <ele>34.814</ele>
        <time>2021-06-16T12:14:32Z</time>
      </trkpt>
      <trkpt lat="36.736829" lon="-3.738878">
        <ele>33.682</ele>
        <time>2021-06-16T12:14:34Z</time>
      </trkpt>
      <trkpt lat="36.736711" lon="-3.738951">
        <ele>33.016</ele>
        <time>2021-06-16T12:14:35Z</time>
      </trkpt>
      <trkpt lat="36.736594" lon="-3.739025">
        <ele>32.335</ele>
        <time>2021-06-16T12:14:36Z</time>
      </trkpt>
      <trkpt lat="36.736477" lon="-3.739101">
        <ele>31.678</ele>
        <time>2021-06-16T12:14:37Z</time>
      </trkpt>
      <trkpt lat="36.736248" lon="-3.73924">
        <ele>29.765</ele>
        <time>2021-06-16T12:14:39Z</time>
      </trkpt>
      <trkpt lat="36.736025" lon="-3.739387">
        <ele>28.122</ele>
        <time>2021-06-16T12:14:41Z</time>
      </trkpt>
      <trkpt lat="36.735922" lon="-3.739475">
        <ele>26.622</ele>
        <time>2021-06-16T12:14:42Z</time>
      </trkpt>
      <trkpt lat="36.735831" lon="-3.739577">
        <ele>25.476</ele>
        <time>2021-06-16T12:14:43Z</time>
      </trkpt>
      <trkpt lat="36.735709" lon="-3.739843">
        <ele>24.090</ele>
        <time>2021-06-16T12:14:45Z</time>
      </trkpt>
      <trkpt lat="36.735685" lon="-3.740168">
        <ele>23.019</ele>
        <time>2021-06-16T12:14:47Z</time>
      </trkpt>
      <trkpt lat="36.735758" lon="-3.740486">
        <ele>21.408</ele>
        <time>2021-06-16T12:14:49Z</time>
      </trkpt>
      <trkpt lat="36.735823" lon="-3.740643">
        <ele>19.664</ele>
        <time>2021-06-16T12:14:50Z</time>
      </trkpt>
      <trkpt lat="36.735899" lon="-3.740796">
        <ele>18.392</ele>
        <time>2021-06-16T12:14:51Z</time>
      </trkpt>
      <trkpt lat="36.736087" lon="-3.741089">
        <ele>17.666</ele>
        <time>2021-06-16T12:14:53Z</time>
      </trkpt>
      <trkpt lat="36.736302" lon="-3.741362">
        <ele>16.625</ele>
        <time>2021-06-16T12:14:55Z</time>
      </trkpt>
      <trkpt lat="36.736411" lon="-3.741502">
        <ele>15.888</ele>
        <time>2021-06-16T12:14:56Z</time>
      </trkpt>
      <trkpt lat="36.736635" lon="-3.741787">
        <ele>15.065</ele>
        <time>2021-06-16T12:14:58Z</time>
      </trkpt>
      <trkpt lat="36.736746" lon="-3.741937">
        <ele>14.692</ele>
        <time>2021-06-16T12:14:59Z</time>
      </trkpt>
      <trkpt lat="36.736935" lon="-3.742249">
        <ele>14.942</ele>
        <time>2021-06-16T12:15:01Z</time>
      </trkpt>
      <trkpt lat="36.73702" lon="-3.742416">
        <ele>15.079</ele>
        <time>2021-06-16T12:15:02Z</time>
      </trkpt>
      <trkpt lat="36.737183" lon="-3.742758">
        <ele>15.005</ele>
        <time>2021-06-16T12:15:04Z</time>
      </trkpt>
      <trkpt lat="36.737339" lon="-3.7431">
        <ele>15.125</ele>
        <time>2021-06-16T12:15:06Z</time>
      </trkpt>
      <trkpt lat="36.737506" lon="-3.743441">
        <ele>15.008</ele>
        <time>2021-06-16T12:15:08Z</time>
      </trkpt>
      <trkpt lat="36.737598" lon="-3.743604">
        <ele>15.194</ele>
        <time>2021-06-16T12:15:09Z</time>
      </trkpt>
      <trkpt lat="36.737793" lon="-3.743903">
        <ele>15.332</ele>
        <time>2021-06-16T12:15:11Z</time>
      </trkpt>
      <trkpt lat="36.737895" lon="-3.744054">
        <ele>16.036</ele>
        <time>2021-06-16T12:15:12Z</time>
      </trkpt>
      <trkpt lat="36.738101" lon="-3.744363">
        <ele>15.945</ele>
        <time>2021-06-16T12:15:14Z</time>
      </trkpt>
      <trkpt lat="36.738289" lon="-3.744683">
        <ele>15.728</ele>
        <time>2021-06-16T12:15:16Z</time>
      </trkpt>
      <trkpt lat="36.738464" lon="-3.744999">
        <ele>15.315</ele>
        <time>2021-06-16T12:15:18Z</time>
      </trkpt>
      <trkpt lat="36.738548" lon="-3.745161">
        <ele>15.272</ele>
        <time>2021-06-16T12:15:19Z</time>
      </trkpt>
      <trkpt lat="36.738722" lon="-3.745486">
        <ele>15.982</ele>
        <time>2021-06-16T12:15:21Z</time>
      </trkpt>
      <trkpt lat="36.738805" lon="-3.745645">
        <ele>16.533</ele>
        <time>2021-06-16T12:15:22Z</time>
      </trkpt>
      <trkpt lat="36.73898" lon="-3.745964">
        <ele>17.123</ele>
        <time>2021-06-16T12:15:24Z</time>
      </trkpt>
      <trkpt lat="36.739164" lon="-3.746281">
        <ele>17.115</ele>
        <time>2021-06-16T12:15:26Z</time>
      </trkpt>
      <trkpt lat="36.739364" lon="-3.74658">
        <ele>17.208</ele>
        <time>2021-06-16T12:15:28Z</time>
      </trkpt>
      <trkpt lat="36.73959" lon="-3.74685">
        <ele>17.520</ele>
        <time>2021-06-16T12:15:30Z</time>
      </trkpt>
      <trkpt lat="36.739719" lon="-3.746969">
        <ele>17.768</ele>
        <time>2021-06-16T12:15:31Z</time>
      </trkpt>
      <trkpt lat="36.739998" lon="-3.74718">
        <ele>17.552</ele>
        <time>2021-06-16T12:15:33Z</time>
      </trkpt>
      <trkpt lat="36.740297" lon="-3.747358">
        <ele>17.881</ele>
        <time>2021-06-16T12:15:35Z</time>
      </trkpt>
      <trkpt lat="36.74061" lon="-3.747488">
        <ele>18.134</ele>
        <time>2021-06-16T12:15:37Z</time>
      </trkpt>
      <trkpt lat="36.740929" lon="-3.747574">
        <ele>18.571</ele>
        <time>2021-06-16T12:15:39Z</time>
      </trkpt>
      <trkpt lat="36.741092" lon="-3.747598">
        <ele>18.538</ele>
        <time>2021-06-16T12:15:40Z</time>
      </trkpt>
      <trkpt lat="36.741255" lon="-3.747612">
        <ele>18.978</ele>
        <time>2021-06-16T12:15:41Z</time>
      </trkpt>
      <trkpt lat="36.741579" lon="-3.747633">
        <ele>19.218</ele>
        <time>2021-06-16T12:15:43Z</time>
      </trkpt>
      <trkpt lat="36.7419" lon="-3.747656">
        <ele>19.298</ele>
        <time>2021-06-16T12:15:45Z</time>
      </trkpt>
      <trkpt lat="36.742061" lon="-3.74767">
        <ele>19.317</ele>
        <time>2021-06-16T12:15:46Z</time>
      </trkpt>
      <trkpt lat="36.742389" lon="-3.747701">
        <ele>19.208</ele>
        <time>2021-06-16T12:15:48Z</time>
      </trkpt>
      <trkpt lat="36.742717" lon="-3.747733">
        <ele>19.688</ele>
        <time>2021-06-16T12:15:50Z</time>
      </trkpt>
      <trkpt lat="36.743035" lon="-3.747773">
        <ele>20.296</ele>
        <time>2021-06-16T12:15:52Z</time>
      </trkpt>
      <trkpt lat="36.743192" lon="-3.747796">
        <ele>20.730</ele>
        <time>2021-06-16T12:15:53Z</time>
      </trkpt>
      <trkpt lat="36.743501" lon="-3.747868">
        <ele>20.869</ele>
        <time>2021-06-16T12:15:55Z</time>
      </trkpt>
      <trkpt lat="36.743656" lon="-3.747923">
        <ele>20.472</ele>
        <time>2021-06-16T12:15:56Z</time>
      </trkpt>
      <trkpt lat="36.743942" lon="-3.748118">
        <ele>20.829</ele>
        <time>2021-06-16T12:15:58Z</time>
      </trkpt>
      <trkpt lat="36.744074" lon="-3.748242">
        <ele>21.646</ele>
        <time>2021-06-16T12:15:59Z</time>
      </trkpt>
      <trkpt lat="36.744312" lon="-3.74853">
        <ele>22.446</ele>
        <time>2021-06-16T12:16:01Z</time>
      </trkpt>
      <trkpt lat="36.744508" lon="-3.748862">
        <ele>23.567</ele>
        <time>2021-06-16T12:16:03Z</time>
      </trkpt>
      <trkpt lat="36.74464" lon="-3.74924">
        <ele>24.881</ele>
        <time>2021-06-16T12:16:05Z</time>
      </trkpt>
      <trkpt lat="36.744683" lon="-3.749437">
        <ele>26.319</ele>
        <time>2021-06-16T12:16:06Z</time>
      </trkpt>
      <trkpt lat="36.744702" lon="-3.749836">
        <ele>28.308</ele>
        <time>2021-06-16T12:16:08Z</time>
      </trkpt>
      <trkpt lat="36.74463" lon="-3.750229">
        <ele>30.043</ele>
        <time>2021-06-16T12:16:10Z</time>
      </trkpt>
      <trkpt lat="36.744486" lon="-3.750589">
        <ele>31.531</ele>
        <time>2021-06-16T12:16:12Z</time>
      </trkpt>
      <trkpt lat="36.744275" lon="-3.75088">
        <ele>32.955</ele>
        <time>2021-06-16T12:16:14Z</time>
      </trkpt>
      <trkpt lat="36.744013" lon="-3.751104">
        <ele>34.194</ele>
        <time>2021-06-16T12:16:16Z</time>
      </trkpt>
      <trkpt lat="36.743731" lon="-3.751277">
        <ele>35.717</ele>
        <time>2021-06-16T12:16:18Z</time>
      </trkpt>
      <trkpt lat="36.743444" lon="-3.751436">
        <ele>37.524</ele>
        <time>2021-06-16T12:16:20Z</time>
      </trkpt>
      <trkpt lat="36.743174" lon="-3.75162">
        <ele>39.231</ele>
        <time>2021-06-16T12:16:22Z</time>
      </trkpt>
      <trkpt lat="36.743056" lon="-3.751739">
        <ele>40.391</ele>
        <time>2021-06-16T12:16:23Z</time>
      </trkpt>
      <trkpt lat="36.742968" lon="-3.751892">
        <ele>41.362</ele>
        <time>2021-06-16T12:16:24Z</time>
      </trkpt>
      <trkpt lat="36.742896" lon="-3.752256">
        <ele>43.083</ele>
        <time>2021-06-16T12:16:26Z</time>
      </trkpt>
      <trkpt lat="36.742956" lon="-3.75261">
        <ele>44.711</ele>
        <time>2021-06-16T12:16:28Z</time>
      </trkpt>
      <trkpt lat="36.743142" lon="-3.752861">
        <ele>46.708</ele>
        <time>2021-06-16T12:16:30Z</time>
      </trkpt>
      <trkpt lat="36.743388" lon="-3.752999">
        <ele>48.873</ele>
        <time>2021-06-16T12:16:32Z</time>
      </trkpt>
      <trkpt lat="36.743516" lon="-3.753054">
        <ele>50.231</ele>
        <time>2021-06-16T12:16:33Z</time>
      </trkpt>
      <trkpt lat="36.743761" lon="-3.753159">
        <ele>51.865</ele>
        <time>2021-06-16T12:16:35Z</time>
      </trkpt>
      <trkpt lat="36.743978" lon="-3.753259">
        <ele>53.454</ele>
        <time>2021-06-16T12:16:37Z</time>
      </trkpt>
      <trkpt lat="36.744154" lon="-3.753374">
        <ele>54.357</ele>
        <time>2021-06-16T12:16:39Z</time>
      </trkpt>
      <trkpt lat="36.744322" lon="-3.753444">
        <ele>55.024</ele>
        <time>2021-06-16T12:16:41Z</time>
      </trkpt>
      <trkpt lat="36.744405" lon="-3.753464">
        <ele>55.481</ele>
        <time>2021-06-16T12:16:42Z</time>
      </trkpt>
      <trkpt lat="36.744552" lon="-3.753542">
        <ele>55.971</ele>
        <time>2021-06-16T12:16:44Z</time>
      </trkpt>
      <trkpt lat="36.744622" lon="-3.753706">
        <ele>56.619</ele>
        <time>2021-06-16T12:16:46Z</time>
      </trkpt>
      <trkpt lat="36.744586" lon="-3.753905">
        <ele>57.209</ele>
        <time>2021-06-16T12:16:48Z</time>
      </trkpt>
      <trkpt lat="36.744531" lon="-3.753994">
        <ele>58.119</ele>
        <time>2021-06-16T12:16:49Z</time>
      </trkpt>
      <trkpt lat="36.744388" lon="-3.754162">
        <ele>58.708</ele>
        <time>2021-06-16T12:16:51Z</time>
      </trkpt>
      <trkpt lat="36.744328" lon="-3.754261">
        <ele>59.768</ele>
        <time>2021-06-16T12:16:52Z</time>
      </trkpt>
      <trkpt lat="36.744263" lon="-3.754503">
        <ele>60.576</ele>
        <time>2021-06-16T12:16:54Z</time>
      </trkpt>
      <trkpt lat="36.744256" lon="-3.754641">
        <ele>61.420</ele>
        <time>2021-06-16T12:16:55Z</time>
      </trkpt>
      <trkpt lat="36.744262" lon="-3.754928">
        <ele>62.699</ele>
        <time>2021-06-16T12:16:57Z</time>
      </trkpt>
      <trkpt lat="36.744273" lon="-3.755076">
        <ele>63.892</ele>
        <time>2021-06-16T12:16:58Z</time>
      </trkpt>
      <trkpt lat="36.7443" lon="-3.755385">
        <ele>65.469</ele>
        <time>2021-06-16T12:17:00Z</time>
      </trkpt>
      <trkpt lat="36.744319" lon="-3.755542">
        <ele>67.096</ele>
        <time>2021-06-16T12:17:01Z</time>
      </trkpt>
      <trkpt lat="36.744346" lon="-3.755698">
        <ele>68.386</ele>
        <time>2021-06-16T12:17:02Z</time>
      </trkpt>
      <trkpt lat="36.744426" lon="-3.756003">
        <ele>70.053</ele>
        <time>2021-06-16T12:17:04Z</time>
      </trkpt>
      <trkpt lat="36.744473" lon="-3.756153">
        <ele>71.604</ele>
        <time>2021-06-16T12:17:05Z</time>
      </trkpt>
      <trkpt lat="36.744612" lon="-3.756444">
        <ele>73.114</ele>
        <time>2021-06-16T12:17:07Z</time>
      </trkpt>
      <trkpt lat="36.744701" lon="-3.756572">
        <ele>74.208</ele>
        <time>2021-06-16T12:17:08Z</time>
      </trkpt>
      <trkpt lat="36.74489" lon="-3.756814">
        <ele>75.762</ele>
        <time>2021-06-16T12:17:10Z</time>
      </trkpt>
      <trkpt lat="36.744998" lon="-3.75693">
        <ele>77.190</ele>
        <time>2021-06-16T12:17:11Z</time>
      </trkpt>
      <trkpt lat="36.74511" lon="-3.757036">
        <ele>78.854</ele>
        <time>2021-06-16T12:17:12Z</time>
      </trkpt>
      <trkpt lat="36.745329" lon="-3.757251">
        <ele>80.323</ele>
        <time>2021-06-16T12:17:14Z</time>
      </trkpt>
      <trkpt lat="36.745478" lon="-3.757542">
        <ele>82.586</ele>
        <time>2021-06-16T12:17:16Z</time>
      </trkpt>
      <trkpt lat="36.745555" lon="-3.757894">
        <ele>85.313</ele>
        <time>2021-06-16T12:17:18Z</time>
      </trkpt>
      <trkpt lat="36.74555" lon="-3.758259">
        <ele>87.870</ele>
        <time>2021-06-16T12:17:20Z</time>
      </trkpt>
      <trkpt lat="36.745464" lon="-3.75861">
        <ele>90.470</ele>
        <time>2021-06-16T12:17:22Z</time>
      </trkpt>
      <trkpt lat="36.745302" lon="-3.758917">
        <ele>92.977</ele>
        <time>2021-06-16T12:17:24Z</time>
      </trkpt>
      <trkpt lat="36.745081" lon="-3.759155">
        <ele>94.961</ele>
        <time>2021-06-16T12:17:26Z</time>
      </trkpt>
      <trkpt lat="36.744809" lon="-3.759293">
        <ele>95.627</ele>
        <time>2021-06-16T12:17:28Z</time>
      </trkpt>
      <trkpt lat="36.74466" lon="-3.759327">
        <ele>96.608</ele>
        <time>2021-06-16T12:17:29Z</time>
      </trkpt>
      <trkpt lat="36.744509" lon="-3.759343">
        <ele>97.174</ele>
        <time>2021-06-16T12:17:30Z</time>
      </trkpt>
      <trkpt lat="36.744218" lon="-3.759356">
        <ele>97.152</ele>
        <time>2021-06-16T12:17:32Z</time>
      </trkpt>
      <trkpt lat="36.74408" lon="-3.759316">
        <ele>96.736</ele>
        <time>2021-06-16T12:17:33Z</time>
      </trkpt>
      <trkpt lat="36.743798" lon="-3.759147">
        <ele>95.995</ele>
        <time>2021-06-16T12:17:35Z</time>
      </trkpt>
      <trkpt lat="36.743578" lon="-3.758798">
        <ele>96.418</ele>
        <time>2021-06-16T12:17:37Z</time>
      </trkpt>
      <trkpt lat="36.74338" lon="-3.758462">
        <ele>97.885</ele>
        <time>2021-06-16T12:17:39Z</time>
      </trkpt>
      <trkpt lat="36.74327" lon="-3.758318">
        <ele>99.122</ele>
        <time>2021-06-16T12:17:40Z</time>
      </trkpt>
      <trkpt lat="36.743004" lon="-3.758121">
        <ele>100.062</ele>
        <time>2021-06-16T12:17:42Z</time>
      </trkpt>
      <trkpt lat="36.742703" lon="-3.758027">
        <ele>101.681</ele>
        <time>2021-06-16T12:17:44Z</time>
      </trkpt>
      <trkpt lat="36.742408" lon="-3.758025">
        <ele>105.061</ele>
        <time>2021-06-16T12:17:46Z</time>
      </trkpt>
      <trkpt lat="36.74226" lon="-3.758074">
        <ele>107.217</ele>
        <time>2021-06-16T12:17:47Z</time>
      </trkpt>
      <trkpt lat="36.74199" lon="-3.758224">
        <ele>109.208</ele>
        <time>2021-06-16T12:17:49Z</time>
      </trkpt>
      <trkpt lat="36.741757" lon="-3.758453">
        <ele>110.515</ele>
        <time>2021-06-16T12:17:51Z</time>
      </trkpt>
      <trkpt lat="36.741544" lon="-3.75873">
        <ele>112.863</ele>
        <time>2021-06-16T12:17:53Z</time>
      </trkpt>
      <trkpt lat="36.741474" lon="-3.758893">
        <ele>113.957</ele>
        <time>2021-06-16T12:17:54Z</time>
      </trkpt>
      <trkpt lat="36.74144" lon="-3.759076">
        <ele>114.896</ele>
        <time>2021-06-16T12:17:55Z</time>
      </trkpt>
      <trkpt lat="36.74143" lon="-3.759464">
        <ele>116.789</ele>
        <time>2021-06-16T12:17:57Z</time>
      </trkpt>
      <trkpt lat="36.741441" lon="-3.759657">
        <ele>118.186</ele>
        <time>2021-06-16T12:17:58Z</time>
      </trkpt>
      <trkpt lat="36.74148" lon="-3.760036">
        <ele>120.883</ele>
        <time>2021-06-16T12:18:00Z</time>
      </trkpt>
      <trkpt lat="36.741519" lon="-3.760419">
        <ele>122.593</ele>
        <time>2021-06-16T12:18:02Z</time>
      </trkpt>
      <trkpt lat="36.741563" lon="-3.760805">
        <ele>124.079</ele>
        <time>2021-06-16T12:18:04Z</time>
      </trkpt>
      <trkpt lat="36.741593" lon="-3.760997">
        <ele>125.605</ele>
        <time>2021-06-16T12:18:05Z</time>
      </trkpt>
      <trkpt lat="36.741629" lon="-3.761183">
        <ele>127.125</ele>
        <time>2021-06-16T12:18:06Z</time>
      </trkpt>
      <trkpt lat="36.741709" lon="-3.761541">
        <ele>128.708</ele>
        <time>2021-06-16T12:18:08Z</time>
      </trkpt>
      <trkpt lat="36.741803" lon="-3.761886">
        <ele>130.294</ele>
        <time>2021-06-16T12:18:10Z</time>
      </trkpt>
      <trkpt lat="36.741896" lon="-3.762239">
        <ele>132.062</ele>
        <time>2021-06-16T12:18:12Z</time>
      </trkpt>
      <trkpt lat="36.741985" lon="-3.762613">
        <ele>133.276</ele>
        <time>2021-06-16T12:18:14Z</time>
      </trkpt>
      <trkpt lat="36.742028" lon="-3.762804">
        <ele>134.525</ele>
        <time>2021-06-16T12:18:15Z</time>
      </trkpt>
      <trkpt lat="36.742067" lon="-3.762996">
        <ele>135.718</ele>
        <time>2021-06-16T12:18:16Z</time>
      </trkpt>
      <trkpt lat="36.742139" lon="-3.763378">
        <ele>136.725</ele>
        <time>2021-06-16T12:18:18Z</time>
      </trkpt>
      <trkpt lat="36.742211" lon="-3.763758">
        <ele>137.272</ele>
        <time>2021-06-16T12:18:20Z</time>
      </trkpt>
      <trkpt lat="36.742246" lon="-3.763951">
        <ele>137.842</ele>
        <time>2021-06-16T12:18:21Z</time>
      </trkpt>
      <trkpt lat="36.74228" lon="-3.764146">
        <ele>138.399</ele>
        <time>2021-06-16T12:18:22Z</time>
      </trkpt>
      <trkpt lat="36.742333" lon="-3.764545">
        <ele>139.307</ele>
        <time>2021-06-16T12:18:24Z</time>
      </trkpt>
      <trkpt lat="36.742354" lon="-3.76475">
        <ele>139.927</ele>
        <time>2021-06-16T12:18:25Z</time>
      </trkpt>
      <trkpt lat="36.742397" lon="-3.76516">
        <ele>140.208</ele>
        <time>2021-06-16T12:18:27Z</time>
      </trkpt>
      <trkpt lat="36.745104" lon="-3.772438">
        <ele>140.326</ele>
        <time>2021-06-16T12:19:11Z</time>
      </trkpt>
      <trkpt lat="36.745225" lon="-3.772587">
        <ele>140.464</ele>
        <time>2021-06-16T12:19:12Z</time>
      </trkpt>
      <trkpt lat="36.745456" lon="-3.772909">
        <ele>140.458</ele>
        <time>2021-06-16T12:19:14Z</time>
      </trkpt>
      <trkpt lat="36.745643" lon="-3.77324">
        <ele>140.437</ele>
        <time>2021-06-16T12:19:16Z</time>
      </trkpt>
      <trkpt lat="36.745773" lon="-3.773594">
        <ele>140.440</ele>
        <time>2021-06-16T12:19:18Z</time>
      </trkpt>
      <trkpt lat="36.745828" lon="-3.773785">
        <ele>140.467</ele>
        <time>2021-06-16T12:19:19Z</time>
      </trkpt>
      <trkpt lat="36.74588" lon="-3.773983">
        <ele>140.484</ele>
        <time>2021-06-16T12:19:20Z</time>
      </trkpt>
      <trkpt lat="36.745984" lon="-3.774377">
        <ele>140.484</ele>
        <time>2021-06-16T12:19:22Z</time>
      </trkpt>
      <trkpt lat="36.746093" lon="-3.774741">
        <ele>140.497</ele>
        <time>2021-06-16T12:19:24Z</time>
      </trkpt>
      <trkpt lat="36.746249" lon="-3.775063">
        <ele>140.423</ele>
        <time>2021-06-16T12:19:26Z</time>
      </trkpt>
      <trkpt lat="36.746479" lon="-3.775336">
        <ele>140.425</ele>
        <time>2021-06-16T12:19:28Z</time>
      </trkpt>
      <trkpt lat="36.746624" lon="-3.775443">
        <ele>140.408</ele>
        <time>2021-06-16T12:19:29Z</time>
      </trkpt>
      <trkpt lat="36.746776" lon="-3.775535">
        <ele>140.496</ele>
        <time>2021-06-16T12:19:30Z</time>
      </trkpt>
      <trkpt lat="36.747085" lon="-3.77571">
        <ele>140.494</ele>
        <time>2021-06-16T12:19:32Z</time>
      </trkpt>
      <trkpt lat="36.747381" lon="-3.775926">
        <ele>140.438</ele>
        <time>2021-06-16T12:19:34Z</time>
      </trkpt>
      <trkpt lat="36.747655" lon="-3.776172">
        <ele>140.467</ele>
        <time>2021-06-16T12:19:36Z</time>
      </trkpt>
      <trkpt lat="36.747779" lon="-3.776307">
        <ele>140.470</ele>
        <time>2021-06-16T12:19:37Z</time>
      </trkpt>
      <trkpt lat="36.74803" lon="-3.776587">
        <ele>140.437</ele>
        <time>2021-06-16T12:19:39Z</time>
      </trkpt>
      <trkpt lat="36.748166" lon="-3.77672">
        <ele>140.444</ele>
        <time>2021-06-16T12:19:40Z</time>
      </trkpt>
      <trkpt lat="36.748423" lon="-3.776992">
        <ele>140.444</ele>
        <time>2021-06-16T12:19:42Z</time>
      </trkpt>
      <trkpt lat="36.748714" lon="-3.777243">
        <ele>140.472</ele>
        <time>2021-06-16T12:19:44Z</time>
      </trkpt>
      <trkpt lat="36.748863" lon="-3.777355">
        <ele>140.413</ele>
        <time>2021-06-16T12:19:45Z</time>
      </trkpt>
      <trkpt lat="36.749135" lon="-3.777588">
        <ele>140.414</ele>
        <time>2021-06-16T12:19:47Z</time>
      </trkpt>
      <trkpt lat="36.749265" lon="-3.777716">
        <ele>140.408</ele>
        <time>2021-06-16T12:19:48Z</time>
      </trkpt>
      <trkpt lat="36.749394" lon="-3.777843">
        <ele>140.494</ele>
        <time>2021-06-16T12:19:49Z</time>
      </trkpt>
      <trkpt lat="36.749618" lon="-3.778138">
        <ele>140.452</ele>
        <time>2021-06-16T12:19:51Z</time>
      </trkpt>
      <trkpt lat="36.74971" lon="-3.778314">
        <ele>140.486</ele>
        <time>2021-06-16T12:19:52Z</time>
      </trkpt>
      <trkpt lat="36.749885" lon="-3.778675">
        <ele>140.475</ele>
        <time>2021-06-16T12:19:54Z</time>
      </trkpt>
      <trkpt lat="36.750055" lon="-3.779014">
        <ele>140.458</ele>
        <time>2021-06-16T12:19:56Z</time>
      </trkpt>
      <trkpt lat="36.750159" lon="-3.77916">
        <ele>140.465</ele>
        <time>2021-06-16T12:19:57Z</time>
      </trkpt>
      <trkpt lat="36.750402" lon="-3.779414">
        <ele>140.462</ele>
        <time>2021-06-16T12:19:59Z</time>
      </trkpt>
      <trkpt lat="36.750547" lon="-3.779511">
        <ele>140.422</ele>
        <time>2021-06-16T12:20:00Z</time>
      </trkpt>
      <trkpt lat="36.750848" lon="-3.779661">
        <ele>140.481</ele>
        <time>2021-06-16T12:20:02Z</time>
      </trkpt>
      <trkpt lat="36.750997" lon="-3.77973">
        <ele>140.461</ele>
        <time>2021-06-16T12:20:03Z</time>
      </trkpt>
      <trkpt lat="36.751284" lon="-3.779885">
        <ele>140.417</ele>
        <time>2021-06-16T12:20:05Z</time>
      </trkpt>
      <trkpt lat="36.751573" lon="-3.78004">
        <ele>140.408</ele>
        <time>2021-06-16T12:20:07Z</time>
      </trkpt>
      <trkpt lat="36.751852" lon="-3.780191">
        <ele>140.475</ele>
        <time>2021-06-16T12:20:09Z</time>
      </trkpt>
      <trkpt lat="36.751986" lon="-3.780281">
        <ele>138.013</ele>
        <time>2021-06-16T12:20:10Z</time>
      </trkpt>
      <trkpt lat="36.752113" lon="-3.780401">
        <ele>137.127</ele>
        <time>2021-06-16T12:20:11Z</time>
      </trkpt>
      <trkpt lat="36.752313" lon="-3.780695">
        <ele>136.516</ele>
        <time>2021-06-16T12:20:13Z</time>
      </trkpt>
      <trkpt lat="36.752416" lon="-3.781056">
        <ele>135.969</ele>
        <time>2021-06-16T12:20:15Z</time>
      </trkpt>
      <trkpt lat="36.752433" lon="-3.781249">
        <ele>135.886</ele>
        <time>2021-06-16T12:20:16Z</time>
      </trkpt>
      <trkpt lat="36.752388" lon="-3.78163">
        <ele>135.763</ele>
        <time>2021-06-16T12:20:18Z</time>
      </trkpt>
      <trkpt lat="36.752252" lon="-3.781969">
        <ele>136.293</ele>
        <time>2021-06-16T12:20:20Z</time>
      </trkpt>
      <trkpt lat="36.752025" lon="-3.782229">
        <ele>137.158</ele>
        <time>2021-06-16T12:20:22Z</time>
      </trkpt>
      <trkpt lat="36.75175" lon="-3.782399">
        <ele>138.052</ele>
        <time>2021-06-16T12:20:24Z</time>
      </trkpt>
      <trkpt lat="36.751606" lon="-3.782457">
        <ele>138.717</ele>
        <time>2021-06-16T12:20:25Z</time>
      </trkpt>
      <trkpt lat="36.751325" lon="-3.782554">
        <ele>139.108</ele>
        <time>2021-06-16T12:20:27Z</time>
      </trkpt>
      <trkpt lat="36.751183" lon="-3.782602">
        <ele>139.322</ele>
        <time>2021-06-16T12:20:28Z</time>
      </trkpt>
      <trkpt lat="36.750909" lon="-3.782711">
        <ele>139.850</ele>
        <time>2021-06-16T12:20:30Z</time>
      </trkpt>
      <trkpt lat="36.75079" lon="-3.782784">
        <ele>140.654</ele>
        <time>2021-06-16T12:20:31Z</time>
      </trkpt>
      <trkpt lat="36.750632" lon="-3.782956">
        <ele>141.313</ele>
        <time>2021-06-16T12:20:33Z</time>
      </trkpt>
      <trkpt lat="36.750597" lon="-3.783143">
        <ele>141.866</ele>
        <time>2021-06-16T12:20:35Z</time>
      </trkpt>
      <trkpt lat="36.750573" lon="-3.783224">
        <ele>142.083</ele>
        <time>2021-06-16T12:20:36Z</time>
      </trkpt>
      <trkpt lat="36.750525" lon="-3.783281">
        <ele>142.390</ele>
        <time>2021-06-16T12:20:37Z</time>
      </trkpt>
      <trkpt lat="36.750406" lon="-3.783382">
        <ele>142.790</ele>
        <time>2021-06-16T12:20:39Z</time>
      </trkpt>
      <trkpt lat="36.750362" lon="-3.783476">
        <ele>142.867</ele>
        <time>2021-06-16T12:20:40Z</time>
      </trkpt>
      <trkpt lat="36.750308" lon="-3.783731">
        <ele>142.181</ele>
        <time>2021-06-16T12:20:42Z</time>
      </trkpt>
      <trkpt lat="36.750293" lon="-3.783861">
        <ele>142.319</ele>
        <time>2021-06-16T12:20:43Z</time>
      </trkpt>
      <trkpt lat="36.750281" lon="-3.783997">
        <ele>142.308</ele>
        <time>2021-06-16T12:20:44Z</time>
      </trkpt>
      <trkpt lat="36.750266" lon="-3.784271">
        <ele>143.073</ele>
        <time>2021-06-16T12:20:46Z</time>
      </trkpt>
      <trkpt lat="36.750257" lon="-3.784557">
        <ele>143.621</ele>
        <time>2021-06-16T12:20:48Z</time>
      </trkpt>
      <trkpt lat="36.750236" lon="-3.78485">
        <ele>143.895</ele>
        <time>2021-06-16T12:20:50Z</time>
      </trkpt>
      <trkpt lat="36.75018" lon="-3.785145">
        <ele>144.334</ele>
        <time>2021-06-16T12:20:52Z</time>
      </trkpt>
      <trkpt lat="36.750132" lon="-3.785286">
        <ele>144.687</ele>
        <time>2021-06-16T12:20:53Z</time>
      </trkpt>
      <trkpt lat="36.750019" lon="-3.785552">
        <ele>144.834</ele>
        <time>2021-06-16T12:20:55Z</time>
      </trkpt>
      <trkpt lat="36.749969" lon="-3.785693">
        <ele>145.051</ele>
        <time>2021-06-16T12:20:56Z</time>
      </trkpt>
      <trkpt lat="36.749921" lon="-3.786007">
        <ele>144.941</ele>
        <time>2021-06-16T12:20:58Z</time>
      </trkpt>
      <trkpt lat="36.74992" lon="-3.786168">
        <ele>145.073</ele>
        <time>2021-06-16T12:20:59Z</time>
      </trkpt>
      <trkpt lat="36.749947" lon="-3.786339">
        <ele>144.485</ele>
        <time>2021-06-16T12:21:00Z</time>
      </trkpt>
      <trkpt lat="36.750058" lon="-3.786681">
        <ele>143.313</ele>
        <time>2021-06-16T12:21:02Z</time>
      </trkpt>
      <trkpt lat="36.750122" lon="-3.786852">
        <ele>142.308</ele>
        <time>2021-06-16T12:21:03Z</time>
      </trkpt>
      <trkpt lat="36.750231" lon="-3.787205">
        <ele>140.594</ele>
        <time>2021-06-16T12:21:05Z</time>
      </trkpt>
      <trkpt lat="36.750258" lon="-3.787393">
        <ele>139.452</ele>
        <time>2021-06-16T12:21:06Z</time>
      </trkpt>
      <trkpt lat="36.750244" lon="-3.787775">
        <ele>138.256</ele>
        <time>2021-06-16T12:21:08Z</time>
      </trkpt>
      <trkpt lat="36.750128" lon="-3.788124">
        <ele>136.565</ele>
        <time>2021-06-16T12:21:10Z</time>
      </trkpt>
      <trkpt lat="36.750037" lon="-3.788279">
        <ele>135.598</ele>
        <time>2021-06-16T12:21:11Z</time>
      </trkpt>
      <trkpt lat="36.749934" lon="-3.788418">
        <ele>134.415</ele>
        <time>2021-06-16T12:21:12Z</time>
      </trkpt>
      <trkpt lat="36.749706" lon="-3.788656">
        <ele>133.272</ele>
        <time>2021-06-16T12:21:14Z</time>
      </trkpt>
      <trkpt lat="36.749587" lon="-3.788759">
        <ele>132.512</ele>
        <time>2021-06-16T12:21:15Z</time>
      </trkpt>
      <trkpt lat="36.749461" lon="-3.788865">
        <ele>131.653</ele>
        <time>2021-06-16T12:21:16Z</time>
      </trkpt>
      <trkpt lat="36.749213" lon="-3.789025">
        <ele>130.404</ele>
        <time>2021-06-16T12:21:18Z</time>
      </trkpt>
      <trkpt lat="36.749075" lon="-3.789062">
        <ele>129.214</ele>
        <time>2021-06-16T12:21:19Z</time>
      </trkpt>
      <trkpt lat="36.748932" lon="-3.789065">
        <ele>128.508</ele>
        <time>2021-06-16T12:21:20Z</time>
      </trkpt>
      <trkpt lat="36.748649" lon="-3.789024">
        <ele>128.232</ele>
        <time>2021-06-16T12:21:22Z</time>
      </trkpt>
      <trkpt lat="36.748507" lon="-3.789014">
        <ele>127.720</ele>
        <time>2021-06-16T12:21:23Z</time>
      </trkpt>
      <trkpt lat="36.748238" lon="-3.789072">
        <ele>127.664</ele>
        <time>2021-06-16T12:21:25Z</time>
      </trkpt>
      <trkpt lat="36.748021" lon="-3.789253">
        <ele>126.773</ele>
        <time>2021-06-16T12:21:27Z</time>
      </trkpt>
      <trkpt lat="36.747942" lon="-3.789412">
        <ele>125.816</ele>
        <time>2021-06-16T12:21:28Z</time>
      </trkpt>
      <trkpt lat="36.747877" lon="-3.789572">
        <ele>125.483</ele>
        <time>2021-06-16T12:21:29Z</time>
      </trkpt>
      <trkpt lat="36.747844" lon="-3.789951">
        <ele>124.520</ele>
        <time>2021-06-16T12:21:31Z</time>
      </trkpt>
      <trkpt lat="36.747864" lon="-3.790141">
        <ele>123.770</ele>
        <time>2021-06-16T12:21:32Z</time>
      </trkpt>
      <trkpt lat="36.747944" lon="-3.790498">
        <ele>123.671</ele>
        <time>2021-06-16T12:21:34Z</time>
      </trkpt>
      <trkpt lat="36.747984" lon="-3.790675">
        <ele>123.841</ele>
        <time>2021-06-16T12:21:35Z</time>
      </trkpt>
      <trkpt lat="36.748094" lon="-3.791039">
        <ele>123.415</ele>
        <time>2021-06-16T12:21:37Z</time>
      </trkpt>
      <trkpt lat="36.748149" lon="-3.791223">
        <ele>123.108</ele>
        <time>2021-06-16T12:21:38Z</time>
      </trkpt>
      <trkpt lat="36.748257" lon="-3.791594">
        <ele>122.564</ele>
        <time>2021-06-16T12:21:40Z</time>
      </trkpt>
      <trkpt lat="36.748305" lon="-3.79178">
        <ele>122.312</ele>
        <time>2021-06-16T12:21:41Z</time>
      </trkpt>
      <trkpt lat="36.748347" lon="-3.791969">
        <ele>122.286</ele>
        <time>2021-06-16T12:21:42Z</time>
      </trkpt>
      <trkpt lat="36.748397" lon="-3.792351">
        <ele>122.045</ele>
        <time>2021-06-16T12:21:44Z</time>
      </trkpt>
      <trkpt lat="36.748403" lon="-3.792545">
        <ele>121.638</ele>
        <time>2021-06-16T12:21:45Z</time>
      </trkpt>
      <trkpt lat="36.748389" lon="-3.792735">
        <ele>121.125</ele>
        <time>2021-06-16T12:21:46Z</time>
      </trkpt>
      <trkpt lat="36.748355" lon="-3.792923">
        <ele>120.632</ele>
        <time>2021-06-16T12:21:47Z</time>
      </trkpt>
      <trkpt lat="36.748253" lon="-3.793277">
        <ele>120.242</ele>
        <time>2021-06-16T12:21:49Z</time>
      </trkpt>
      <trkpt lat="36.74819" lon="-3.793451">
        <ele>119.894</ele>
        <time>2021-06-16T12:21:50Z</time>
      </trkpt>
      <trkpt lat="36.748059" lon="-3.793793">
        <ele>119.857</ele>
        <time>2021-06-16T12:21:52Z</time>
      </trkpt>
      <trkpt lat="36.747939" lon="-3.794125">
        <ele>118.622</ele>
        <time>2021-06-16T12:21:54Z</time>
      </trkpt>
      <trkpt lat="36.747875" lon="-3.794296">
        <ele>118.208</ele>
        <time>2021-06-16T12:21:55Z</time>
      </trkpt>
      <trkpt lat="36.747756" lon="-3.794647">
        <ele>117.826</ele>
        <time>2021-06-16T12:21:57Z</time>
      </trkpt>
      <trkpt lat="36.747679" lon="-3.795022">
        <ele>117.524</ele>
        <time>2021-06-16T12:21:59Z</time>
      </trkpt>
      <trkpt lat="36.7477" lon="-3.79538">
        <ele>116.938</ele>
        <time>2021-06-16T12:22:01Z</time>
      </trkpt>
      <trkpt lat="36.747745" lon="-3.795557">
        <ele>116.747</ele>
        <time>2021-06-16T12:22:02Z</time>
      </trkpt>
      <trkpt lat="36.747812" lon="-3.795722">
        <ele>116.840</ele>
        <time>2021-06-16T12:22:03Z</time>
      </trkpt>
      <trkpt lat="36.748031" lon="-3.795991">
        <ele>116.047</ele>
        <time>2021-06-16T12:22:05Z</time>
      </trkpt>
      <trkpt lat="36.748328" lon="-3.796143">
        <ele>115.254</ele>
        <time>2021-06-16T12:22:07Z</time>
      </trkpt>
      <trkpt lat="36.748656" lon="-3.796163">
        <ele>114.964</ele>
        <time>2021-06-16T12:22:09Z</time>
      </trkpt>
      <trkpt lat="36.748824" lon="-3.796149">
        <ele>114.619</ele>
        <time>2021-06-16T12:22:10Z</time>
      </trkpt>
      <trkpt lat="36.749154" lon="-3.796095">
        <ele>114.209</ele>
        <time>2021-06-16T12:22:12Z</time>
      </trkpt>
      <trkpt lat="36.74932" lon="-3.796057">
        <ele>113.619</ele>
        <time>2021-06-16T12:22:13Z</time>
      </trkpt>
      <trkpt lat="36.749483" lon="-3.796016">
        <ele>112.808</ele>
        <time>2021-06-16T12:22:14Z</time>
      </trkpt>
      <trkpt lat="36.749796" lon="-3.79594">
        <ele>111.298</ele>
        <time>2021-06-16T12:22:16Z</time>
      </trkpt>
      <trkpt lat="36.75011" lon="-3.79588">
        <ele>110.296</ele>
        <time>2021-06-16T12:22:18Z</time>
      </trkpt>
      <trkpt lat="36.750404" lon="-3.795833">
        <ele>109.870</ele>
        <time>2021-06-16T12:22:20Z</time>
      </trkpt>
      <trkpt lat="36.750692" lon="-3.79582">
        <ele>109.319</ele>
        <time>2021-06-16T12:22:22Z</time>
      </trkpt>
      <trkpt lat="36.750927" lon="-3.795904">
        <ele>106.952</ele>
        <time>2021-06-16T12:22:24Z</time>
      </trkpt>
      <trkpt lat="36.751096" lon="-3.796112">
        <ele>104.719</ele>
        <time>2021-06-16T12:22:26Z</time>
      </trkpt>
      <trkpt lat="36.751146" lon="-3.796256">
        <ele>103.226</ele>
        <time>2021-06-16T12:22:27Z</time>
      </trkpt>
      <trkpt lat="36.75116" lon="-3.796392">
        <ele>102.576</ele>
        <time>2021-06-16T12:22:28Z</time>
      </trkpt>
      <trkpt lat="36.750991" lon="-3.796693">
        <ele>101.891</ele>
        <time>2021-06-16T12:22:30Z</time>
      </trkpt>
      <trkpt lat="36.750856" lon="-3.796785">
        <ele>100.681</ele>
        <time>2021-06-16T12:22:31Z</time>
      </trkpt>
      <trkpt lat="36.750567" lon="-3.796885">
        <ele>98.819</ele>
        <time>2021-06-16T12:22:33Z</time>
      </trkpt>
      <trkpt lat="36.750412" lon="-3.796908">
        <ele>97.908</ele>
        <time>2021-06-16T12:22:34Z</time>
      </trkpt>
      <trkpt lat="36.750086" lon="-3.796904">
        <ele>94.776</ele>
        <time>2021-06-16T12:22:36Z</time>
      </trkpt>
      <trkpt lat="36.749943" lon="-3.796959">
        <ele>92.654</ele>
        <time>2021-06-16T12:22:37Z</time>
      </trkpt>
      <trkpt lat="36.749686" lon="-3.797162">
        <ele>90.668</ele>
        <time>2021-06-16T12:22:39Z</time>
      </trkpt>
      <trkpt lat="36.749442" lon="-3.797454">
        <ele>87.647</ele>
        <time>2021-06-16T12:22:41Z</time>
      </trkpt>
      <trkpt lat="36.749321" lon="-3.797608">
        <ele>85.310</ele>
        <time>2021-06-16T12:22:42Z</time>
      </trkpt>
      <trkpt lat="36.749192" lon="-3.79775">
        <ele>83.567</ele>
        <time>2021-06-16T12:22:43Z</time>
      </trkpt>
      <trkpt lat="36.748894" lon="-3.797929">
        <ele>82.364</ele>
        <time>2021-06-16T12:22:45Z</time>
      </trkpt>
      <trkpt lat="36.748737" lon="-3.797995">
        <ele>81.534</ele>
        <time>2021-06-16T12:22:46Z</time>
      </trkpt>
      <trkpt lat="36.748453" lon="-3.798143">
        <ele>80.176</ele>
        <time>2021-06-16T12:22:48Z</time>
      </trkpt>
      <trkpt lat="36.748206" lon="-3.798363">
        <ele>78.290</ele>
        <time>2021-06-16T12:22:50Z</time>
      </trkpt>
      <trkpt lat="36.748106" lon="-3.798509">
        <ele>76.519</ele>
        <time>2021-06-16T12:22:51Z</time>
      </trkpt>
      <trkpt lat="36.747934" lon="-3.798841">
        <ele>75.508</ele>
        <time>2021-06-16T12:22:53Z</time>
      </trkpt>
      <trkpt lat="36.747877" lon="-3.799019">
        <ele>74.074</ele>
        <time>2021-06-16T12:22:54Z</time>
      </trkpt>
      <trkpt lat="36.747842" lon="-3.799201">
        <ele>72.822</ele>
        <time>2021-06-16T12:22:55Z</time>
      </trkpt>
      <trkpt lat="36.747827" lon="-3.799584">
        <ele>71.356</ele>
        <time>2021-06-16T12:22:57Z</time>
      </trkpt>
      <trkpt lat="36.747849" lon="-3.799972">
        <ele>70.385</ele>
        <time>2021-06-16T12:22:59Z</time>
      </trkpt>
      <trkpt lat="36.747874" lon="-3.800362">
        <ele>69.518</ele>
        <time>2021-06-16T12:23:01Z</time>
      </trkpt>
      <trkpt lat="36.747928" lon="-3.800755">
        <ele>69.655</ele>
        <time>2021-06-16T12:23:03Z</time>
      </trkpt>
      <trkpt lat="36.747969" lon="-3.800951">
        <ele>69.622</ele>
        <time>2021-06-16T12:23:04Z</time>
      </trkpt>
      <trkpt lat="36.748029" lon="-3.80114">
        <ele>69.532</ele>
        <time>2021-06-16T12:23:05Z</time>
      </trkpt>
      <trkpt lat="36.748211" lon="-3.80148">
        <ele>68.526</ele>
        <time>2021-06-16T12:23:07Z</time>
      </trkpt>
      <trkpt lat="36.748455" lon="-3.801764">
        <ele>67.447</ele>
        <time>2021-06-16T12:23:09Z</time>
      </trkpt>
      <trkpt lat="36.748598" lon="-3.801881">
        <ele>66.711</ele>
        <time>2021-06-16T12:23:10Z</time>
      </trkpt>
      <trkpt lat="36.748906" lon="-3.802076">
        <ele>65.308</ele>
        <time>2021-06-16T12:23:12Z</time>
      </trkpt>
      <trkpt lat="36.749058" lon="-3.802169">
        <ele>64.499</ele>
        <time>2021-06-16T12:23:13Z</time>
      </trkpt>
      <trkpt lat="36.749209" lon="-3.802263">
        <ele>63.537</ele>
        <time>2021-06-16T12:23:14Z</time>
      </trkpt>
      <trkpt lat="36.749503" lon="-3.802447">
        <ele>62.971</ele>
        <time>2021-06-16T12:23:16Z</time>
      </trkpt>
      <trkpt lat="36.749645" lon="-3.802545">
        <ele>62.990</ele>
        <time>2021-06-16T12:23:17Z</time>
      </trkpt>
      <trkpt lat="36.749784" lon="-3.802648">
        <ele>62.873</ele>
        <time>2021-06-16T12:23:18Z</time>
      </trkpt>
      <trkpt lat="36.750035" lon="-3.802905">
        <ele>62.040</ele>
        <time>2021-06-16T12:23:20Z</time>
      </trkpt>
      <trkpt lat="36.75021" lon="-3.803243">
        <ele>61.237</ele>
        <time>2021-06-16T12:23:22Z</time>
      </trkpt>
      <trkpt lat="36.7503" lon="-3.803625">
        <ele>60.497</ele>
        <time>2021-06-16T12:23:24Z</time>
      </trkpt>
      <trkpt lat="36.750315" lon="-3.804026">
        <ele>59.931</ele>
        <time>2021-06-16T12:23:26Z</time>
      </trkpt>
      <trkpt lat="36.750284" lon="-3.804224">
        <ele>59.161</ele>
        <time>2021-06-16T12:23:27Z</time>
      </trkpt>
      <trkpt lat="36.750232" lon="-3.804415">
        <ele>58.607</ele>
        <time>2021-06-16T12:23:28Z</time>
      </trkpt>
      <trkpt lat="36.750083" lon="-3.804771">
        <ele>57.808</ele>
        <time>2021-06-16T12:23:30Z</time>
      </trkpt>
      <trkpt lat="36.749996" lon="-3.804938">
        <ele>57.590</ele>
        <time>2021-06-16T12:23:31Z</time>
      </trkpt>
      <trkpt lat="36.749834" lon="-3.805267">
        <ele>57.248</ele>
        <time>2021-06-16T12:23:33Z</time>
      </trkpt>
      <trkpt lat="36.74979" lon="-3.80544">
        <ele>56.522</ele>
        <time>2021-06-16T12:23:34Z</time>
      </trkpt>
      <trkpt lat="36.749783" lon="-3.805619">
        <ele>56.131</ele>
        <time>2021-06-16T12:23:35Z</time>
      </trkpt>
      <trkpt lat="36.749882" lon="-3.805973">
        <ele>56.144</ele>
        <time>2021-06-16T12:23:37Z</time>
      </trkpt>
      <trkpt lat="36.749981" lon="-3.806122">
        <ele>56.161</ele>
        <time>2021-06-16T12:23:38Z</time>
      </trkpt>
      <trkpt lat="36.750095" lon="-3.806257">
        <ele>56.838</ele>
        <time>2021-06-16T12:23:39Z</time>
      </trkpt>
      <trkpt lat="36.75033" lon="-3.806519">
        <ele>56.998</ele>
        <time>2021-06-16T12:23:41Z</time>
      </trkpt>
      <trkpt lat="36.750449" lon="-3.806657">
        <ele>57.335</ele>
        <time>2021-06-16T12:23:42Z</time>
      </trkpt>
      <trkpt lat="36.750673" lon="-3.806953">
        <ele>57.086</ele>
        <time>2021-06-16T12:23:44Z</time>
      </trkpt>
      <trkpt lat="36.750784" lon="-3.807104">
        <ele>56.814</ele>
        <time>2021-06-16T12:23:45Z</time>
      </trkpt>
      <trkpt lat="36.750996" lon="-3.807424">
        <ele>56.508</ele>
        <time>2021-06-16T12:23:47Z</time>
      </trkpt>
      <trkpt lat="36.751087" lon="-3.807598">
        <ele>56.450</ele>
        <time>2021-06-16T12:23:48Z</time>
      </trkpt>
      <trkpt lat="36.751159" lon="-3.807788">
        <ele>56.718</ele>
        <time>2021-06-16T12:23:49Z</time>
      </trkpt>
      <trkpt lat="36.751246" lon="-3.808196">
        <ele>56.992</ele>
        <time>2021-06-16T12:23:51Z</time>
      </trkpt>
      <trkpt lat="36.751278" lon="-3.808621">
        <ele>56.791</ele>
        <time>2021-06-16T12:23:53Z</time>
      </trkpt>
      <trkpt lat="36.751289" lon="-3.809033">
        <ele>56.234</ele>
        <time>2021-06-16T12:23:55Z</time>
      </trkpt>
      <trkpt lat="36.751302" lon="-3.809229">
        <ele>55.971</ele>
        <time>2021-06-16T12:23:56Z</time>
      </trkpt>
      <trkpt lat="36.751304" lon="-3.809588">
        <ele>55.838</ele>
        <time>2021-06-16T12:23:58Z</time>
      </trkpt>
      <trkpt lat="36.751322" lon="-3.809971">
        <ele>56.088</ele>
        <time>2021-06-16T12:24:00Z</time>
      </trkpt>
      <trkpt lat="36.751385" lon="-3.810367">
        <ele>56.442</ele>
        <time>2021-06-16T12:24:02Z</time>
      </trkpt>
      <trkpt lat="36.751471" lon="-3.810756">
        <ele>56.122</ele>
        <time>2021-06-16T12:24:04Z</time>
      </trkpt>
      <trkpt lat="36.751529" lon="-3.810951">
        <ele>55.714</ele>
        <time>2021-06-16T12:24:05Z</time>
      </trkpt>
      <trkpt lat="36.751672" lon="-3.811332">
        <ele>54.908</ele>
        <time>2021-06-16T12:24:07Z</time>
      </trkpt>
      <trkpt lat="36.751751" lon="-3.81152">
        <ele>54.451</ele>
        <time>2021-06-16T12:24:08Z</time>
      </trkpt>
      <trkpt lat="36.751836" lon="-3.811704">
        <ele>53.839</ele>
        <time>2021-06-16T12:24:09Z</time>
      </trkpt>
      <trkpt lat="36.751929" lon="-3.811884">
        <ele>53.373</ele>
        <time>2021-06-16T12:24:10Z</time>
      </trkpt>
      <trkpt lat="36.75213" lon="-3.812235">
        <ele>52.352</ele>
        <time>2021-06-16T12:24:12Z</time>
      </trkpt>
      <trkpt lat="36.752335" lon="-3.812585">
        <ele>51.055</ele>
        <time>2021-06-16T12:24:14Z</time>
      </trkpt>
      <trkpt lat="36.752527" lon="-3.812917">
        <ele>49.382</ele>
        <time>2021-06-16T12:24:16Z</time>
      </trkpt>
      <trkpt lat="36.75272" lon="-3.813245">
        <ele>47.689</ele>
        <time>2021-06-16T12:24:18Z</time>
      </trkpt>
      <trkpt lat="36.752821" lon="-3.813411">
        <ele>46.229</ele>
        <time>2021-06-16T12:24:19Z</time>
      </trkpt>
      <trkpt lat="36.752926" lon="-3.813585">
        <ele>45.227</ele>
        <time>2021-06-16T12:24:20Z</time>
      </trkpt>
      <trkpt lat="36.753115" lon="-3.813917">
        <ele>45.268</ele>
        <time>2021-06-16T12:24:22Z</time>
      </trkpt>
      <trkpt lat="36.753295" lon="-3.814262">
        <ele>44.214</ele>
        <time>2021-06-16T12:24:24Z</time>
      </trkpt>
      <trkpt lat="36.753426" lon="-3.814636">
        <ele>43.508</ele>
        <time>2021-06-16T12:24:26Z</time>
      </trkpt>
      <trkpt lat="36.753459" lon="-3.814832">
        <ele>43.039</ele>
        <time>2021-06-16T12:24:27Z</time>
      </trkpt>
      <trkpt lat="36.753465" lon="-3.815241">
        <ele>42.747</ele>
        <time>2021-06-16T12:24:29Z</time>
      </trkpt>
      <trkpt lat="36.753379" lon="-3.815654">
        <ele>42.671</ele>
        <time>2021-06-16T12:24:31Z</time>
      </trkpt>
      <trkpt lat="36.75326" lon="-3.816041">
        <ele>43.440</ele>
        <time>2021-06-16T12:24:33Z</time>
      </trkpt>
      <trkpt lat="36.753239" lon="-3.816227">
        <ele>44.463</ele>
        <time>2021-06-16T12:24:34Z</time>
      </trkpt>
      <trkpt lat="36.753304" lon="-3.816599">
        <ele>44.970</ele>
        <time>2021-06-16T12:24:36Z</time>
      </trkpt>
      <trkpt lat="36.753356" lon="-3.816771">
        <ele>45.287</ele>
        <time>2021-06-16T12:24:37Z</time>
      </trkpt>
      <trkpt lat="36.753542" lon="-3.817079">
        <ele>46.487</ele>
        <time>2021-06-16T12:24:39Z</time>
      </trkpt>
      <trkpt lat="36.753653" lon="-3.817225">
        <ele>47.937</ele>
        <time>2021-06-16T12:24:40Z</time>
      </trkpt>
      <trkpt lat="36.753871" lon="-3.817506">
        <ele>50.049</ele>
        <time>2021-06-16T12:24:42Z</time>
      </trkpt>
      <trkpt lat="36.75398" lon="-3.81765">
        <ele>52.313</ele>
        <time>2021-06-16T12:24:43Z</time>
      </trkpt>
      <trkpt lat="36.754199" lon="-3.817938">
        <ele>54.808</ele>
        <time>2021-06-16T12:24:45Z</time>
      </trkpt>
      <trkpt lat="36.754298" lon="-3.818091">
        <ele>56.840</ele>
        <time>2021-06-16T12:24:46Z</time>
      </trkpt>
      <trkpt lat="36.754461" lon="-3.818431">
        <ele>58.648</ele>
        <time>2021-06-16T12:24:48Z</time>
      </trkpt>
      <trkpt lat="36.754522" lon="-3.818616">
        <ele>60.212</ele>
        <time>2021-06-16T12:24:49Z</time>
      </trkpt>
      <trkpt lat="36.754569" lon="-3.818809">
        <ele>61.181</ele>
        <time>2021-06-16T12:24:50Z</time>
      </trkpt>
      <trkpt lat="36.7546" lon="-3.819214">
        <ele>62.534</ele>
        <time>2021-06-16T12:24:52Z</time>
      </trkpt>
      <trkpt lat="36.754568" lon="-3.819625">
        <ele>64.551</ele>
        <time>2021-06-16T12:24:54Z</time>
      </trkpt>
      <trkpt lat="36.754542" lon="-3.819828">
        <ele>66.188</ele>
        <time>2021-06-16T12:24:55Z</time>
      </trkpt>
      <trkpt lat="36.754475" lon="-3.820241">
        <ele>68.518</ele>
        <time>2021-06-16T12:24:57Z</time>
      </trkpt>
      <trkpt lat="36.754448" lon="-3.820448">
        <ele>70.643</ele>
        <time>2021-06-16T12:24:58Z</time>
      </trkpt>
      <trkpt lat="36.754431" lon="-3.820652">
        <ele>72.564</ele>
        <time>2021-06-16T12:24:59Z</time>
      </trkpt>
      <trkpt lat="36.754444" lon="-3.821055">
        <ele>74.510</ele>
        <time>2021-06-16T12:25:01Z</time>
      </trkpt>
      <trkpt lat="36.754478" lon="-3.821249">
        <ele>76.408</ele>
        <time>2021-06-16T12:25:02Z</time>
      </trkpt>
      <trkpt lat="36.754534" lon="-3.821431">
        <ele>77.961</ele>
        <time>2021-06-16T12:25:03Z</time>
      </trkpt>
      <trkpt lat="36.754688" lon="-3.821756">
        <ele>79.179</ele>
        <time>2021-06-16T12:25:05Z</time>
      </trkpt>
      <trkpt lat="36.754909" lon="-3.822042">
        <ele>81.543</ele>
        <time>2021-06-16T12:25:07Z</time>
      </trkpt>
      <trkpt lat="36.755132" lon="-3.822322">
        <ele>84.262</ele>
        <time>2021-06-16T12:25:09Z</time>
      </trkpt>
      <trkpt lat="36.755243" lon="-3.822456">
        <ele>86.035</ele>
        <time>2021-06-16T12:25:10Z</time>
      </trkpt>
      <trkpt lat="36.75544" lon="-3.822746">
        <ele>87.412</ele>
        <time>2021-06-16T12:25:12Z</time>
      </trkpt>
      <trkpt lat="36.755518" lon="-3.822911">
        <ele>88.529</ele>
        <time>2021-06-16T12:25:13Z</time>
      </trkpt>
      <trkpt lat="36.75564" lon="-3.823269">
        <ele>89.289</ele>
        <time>2021-06-16T12:25:15Z</time>
      </trkpt>
      <trkpt lat="36.755727" lon="-3.823636">
        <ele>90.317</ele>
        <time>2021-06-16T12:25:17Z</time>
      </trkpt>
      <trkpt lat="36.755763" lon="-3.823824">
        <ele>91.887</ele>
        <time>2021-06-16T12:25:18Z</time>
      </trkpt>
      <trkpt lat="36.755896" lon="-3.824166">
        <ele>93.715</ele>
        <time>2021-06-16T12:25:20Z</time>
      </trkpt>
      <trkpt lat="36.756129" lon="-3.824427">
        <ele>95.208</ele>
        <time>2021-06-16T12:25:22Z</time>
      </trkpt>
      <trkpt lat="36.756425" lon="-3.824515">
        <ele>96.978</ele>
        <time>2021-06-16T12:25:24Z</time>
      </trkpt>
      <trkpt lat="36.756598" lon="-3.824523">
        <ele>97.656</ele>
        <time>2021-06-16T12:25:25Z</time>
      </trkpt>
      <trkpt lat="36.756764" lon="-3.824522">
        <ele>98.650</ele>
        <time>2021-06-16T12:25:26Z</time>
      </trkpt>
      <trkpt lat="36.757096" lon="-3.824554">
        <ele>99.639</ele>
        <time>2021-06-16T12:25:28Z</time>
      </trkpt>
      <trkpt lat="36.757249" lon="-3.824594">
        <ele>100.872</ele>
        <time>2021-06-16T12:25:29Z</time>
      </trkpt>
      <trkpt lat="36.757388" lon="-3.824642">
        <ele>101.279</ele>
        <time>2021-06-16T12:25:30Z</time>
      </trkpt>
      <trkpt lat="36.757648" lon="-3.824818">
        <ele>103.146</ele>
        <time>2021-06-16T12:25:32Z</time>
      </trkpt>
      <trkpt lat="36.757853" lon="-3.825117">
        <ele>105.636</ele>
        <time>2021-06-16T12:25:34Z</time>
      </trkpt>
      <trkpt lat="36.757932" lon="-3.825291">
        <ele>107.964</ele>
        <time>2021-06-16T12:25:35Z</time>
      </trkpt>
      <trkpt lat="36.75799" lon="-3.825477">
        <ele>109.606</ele>
        <time>2021-06-16T12:25:36Z</time>
      </trkpt>
      <trkpt lat="36.758056" lon="-3.825867">
        <ele>110.816</ele>
        <time>2021-06-16T12:25:38Z</time>
      </trkpt>
      <trkpt lat="36.758088" lon="-3.826269">
        <ele>111.808</ele>
        <time>2021-06-16T12:25:40Z</time>
      </trkpt>
      <trkpt lat="36.758084" lon="-3.826467">
        <ele>112.813</ele>
        <time>2021-06-16T12:25:41Z</time>
      </trkpt>
      <trkpt lat="36.758073" lon="-3.826667">
        <ele>113.891</ele>
        <time>2021-06-16T12:25:42Z</time>
      </trkpt>
      <trkpt lat="36.758055" lon="-3.827067">
        <ele>114.565</ele>
        <time>2021-06-16T12:25:44Z</time>
      </trkpt>
      <trkpt lat="36.758046" lon="-3.82727">
        <ele>114.914</ele>
        <time>2021-06-16T12:25:45Z</time>
      </trkpt>
      <trkpt lat="36.758034" lon="-3.827476">
        <ele>115.557</ele>
        <time>2021-06-16T12:25:46Z</time>
      </trkpt>
      <trkpt lat="36.758008" lon="-3.827875">
        <ele>116.154</ele>
        <time>2021-06-16T12:25:48Z</time>
      </trkpt>
      <trkpt lat="36.757996" lon="-3.828267">
        <ele>117.131</ele>
        <time>2021-06-16T12:25:50Z</time>
      </trkpt>
      <trkpt lat="36.757996" lon="-3.828467">
        <ele>118.511</ele>
        <time>2021-06-16T12:25:51Z</time>
      </trkpt>
      <trkpt lat="36.758022" lon="-3.828868">
        <ele>119.446</ele>
        <time>2021-06-16T12:25:53Z</time>
      </trkpt>
      <trkpt lat="36.758081" lon="-3.829275">
        <ele>120.488</ele>
        <time>2021-06-16T12:25:55Z</time>
      </trkpt>
      <trkpt lat="36.758123" lon="-3.829479">
        <ele>121.516</ele>
        <time>2021-06-16T12:25:56Z</time>
      </trkpt>
      <trkpt lat="36.758256" lon="-3.829868">
        <ele>122.508</ele>
        <time>2021-06-16T12:25:58Z</time>
      </trkpt>
      <trkpt lat="36.758337" lon="-3.830063">
        <ele>123.851</ele>
        <time>2021-06-16T12:25:59Z</time>
      </trkpt>
      <trkpt lat="36.758508" lon="-3.830458">
        <ele>124.599</ele>
        <time>2021-06-16T12:26:01Z</time>
      </trkpt>
      <trkpt lat="36.758598" lon="-3.830659">
        <ele>125.053</ele>
        <time>2021-06-16T12:26:02Z</time>
      </trkpt>
      <trkpt lat="36.758766" lon="-3.831035">
        <ele>124.662</ele>
        <time>2021-06-16T12:26:04Z</time>
      </trkpt>
      <trkpt lat="36.758847" lon="-3.831216">
        <ele>124.025</ele>
        <time>2021-06-16T12:26:05Z</time>
      </trkpt>
      <trkpt lat="36.759005" lon="-3.831567">
        <ele>122.932</ele>
        <time>2021-06-16T12:26:07Z</time>
      </trkpt>
      <trkpt lat="36.759162" lon="-3.831902">
        <ele>121.569</ele>
        <time>2021-06-16T12:26:09Z</time>
      </trkpt>
      <trkpt lat="36.759315" lon="-3.832228">
        <ele>120.399</ele>
        <time>2021-06-16T12:26:11Z</time>
      </trkpt>
      <trkpt lat="36.759386" lon="-3.832397">
        <ele>119.747</ele>
        <time>2021-06-16T12:26:12Z</time>
      </trkpt>
      <trkpt lat="36.759451" lon="-3.832566">
        <ele>118.929</ele>
        <time>2021-06-16T12:26:13Z</time>
      </trkpt>
      <trkpt lat="36.759516" lon="-3.832739">
        <ele>117.921</ele>
        <time>2021-06-16T12:26:14Z</time>
      </trkpt>
      <trkpt lat="36.759618" lon="-3.833093">
        <ele>117.308</ele>
        <time>2021-06-16T12:26:16Z</time>
      </trkpt>
      <trkpt lat="36.759643" lon="-3.833279">
        <ele>116.771</ele>
        <time>2021-06-16T12:26:17Z</time>
      </trkpt>
      <trkpt lat="36.759656" lon="-3.833465">
        <ele>116.649</ele>
        <time>2021-06-16T12:26:18Z</time>
      </trkpt>
      <trkpt lat="36.759656" lon="-3.833648">
        <ele>116.073</ele>
        <time>2021-06-16T12:26:19Z</time>
      </trkpt>
      <trkpt lat="36.759634" lon="-3.833829">
        <ele>115.892</ele>
        <time>2021-06-16T12:26:20Z</time>
      </trkpt>
      <trkpt lat="36.759546" lon="-3.834163">
        <ele>115.285</ele>
        <time>2021-06-16T12:26:22Z</time>
      </trkpt>
      <trkpt lat="36.759403" lon="-3.83447">
        <ele>114.682</ele>
        <time>2021-06-16T12:26:24Z</time>
      </trkpt>
      <trkpt lat="36.759314" lon="-3.834617">
        <ele>114.479</ele>
        <time>2021-06-16T12:26:25Z</time>
      </trkpt>
      <trkpt lat="36.759224" lon="-3.834754">
        <ele>113.799</ele>
        <time>2021-06-16T12:26:26Z</time>
      </trkpt>
      <trkpt lat="36.759133" lon="-3.834887">
        <ele>113.319</ele>
        <time>2021-06-16T12:26:27Z</time>
      </trkpt>
      <trkpt lat="36.758968" lon="-3.835178">
        <ele>112.909</ele>
        <time>2021-06-16T12:26:29Z</time>
      </trkpt>
      <trkpt lat="36.758909" lon="-3.835344">
        <ele>112.419</ele>
        <time>2021-06-16T12:26:30Z</time>
      </trkpt>
      <trkpt lat="36.758839" lon="-3.835706">
        <ele>111.808</ele>
        <time>2021-06-16T12:26:32Z</time>
      </trkpt>
      <trkpt lat="36.758828" lon="-3.836094">
        <ele>110.718</ele>
        <time>2021-06-16T12:26:34Z</time>
      </trkpt>
      <trkpt lat="36.758887" lon="-3.836484">
        <ele>110.156</ele>
        <time>2021-06-16T12:26:36Z</time>
      </trkpt>
      <trkpt lat="36.758933" lon="-3.836681">
        <ele>110.040</ele>
        <time>2021-06-16T12:26:37Z</time>
      </trkpt>
      <trkpt lat="36.759032" lon="-3.837068">
        <ele>110.199</ele>
        <time>2021-06-16T12:26:39Z</time>
      </trkpt>
      <trkpt lat="36.759144" lon="-3.837457">
        <ele>110.452</ele>
        <time>2021-06-16T12:26:41Z</time>
      </trkpt>
      <trkpt lat="36.759205" lon="-3.837654">
        <ele>110.279</ele>
        <time>2021-06-16T12:26:42Z</time>
      </trkpt>
      <trkpt lat="36.759268" lon="-3.83785">
        <ele>109.996</ele>
        <time>2021-06-16T12:26:43Z</time>
      </trkpt>
      <trkpt lat="36.759381" lon="-3.838237">
        <ele>110.236</ele>
        <time>2021-06-16T12:26:45Z</time>
      </trkpt>
      <trkpt lat="36.759483" lon="-3.83862">
        <ele>110.337</ele>
        <time>2021-06-16T12:26:47Z</time>
      </trkpt>
      <trkpt lat="36.759582" lon="-3.839002">
        <ele>111.249</ele>
        <time>2021-06-16T12:26:49Z</time>
      </trkpt>
      <trkpt lat="36.759632" lon="-3.839194">
        <ele>111.613</ele>
        <time>2021-06-16T12:26:50Z</time>
      </trkpt>
      <trkpt lat="36.759711" lon="-3.83958">
        <ele>112.308</ele>
        <time>2021-06-16T12:26:52Z</time>
      </trkpt>
      <trkpt lat="36.759759" lon="-3.839962">
        <ele>112.840</ele>
        <time>2021-06-16T12:26:54Z</time>
      </trkpt>
      <trkpt lat="36.759775" lon="-3.840135">
        <ele>113.148</ele>
        <time>2021-06-16T12:26:55Z</time>
      </trkpt>
      <trkpt lat="36.75979" lon="-3.840386">
        <ele>113.692</ele>
        <time>2021-06-16T12:26:57Z</time>
      </trkpt>
      <trkpt lat="36.759793" lon="-3.840537">
        <ele>113.951</ele>
        <time>2021-06-16T12:26:59Z</time>
      </trkpt>
      <trkpt lat="36.759785" lon="-3.84061">
        <ele>114.724</ele>
        <time>2021-06-16T12:27:01Z</time>
      </trkpt>
      <trkpt lat="36.75978" lon="-3.840705">
        <ele>115.511</ele>
        <time>2021-06-16T12:27:03Z</time>
      </trkpt>
      <trkpt lat="36.759763" lon="-3.840832">
        <ele>116.578</ele>
        <time>2021-06-16T12:27:05Z</time>
      </trkpt>
      <trkpt lat="36.759771" lon="-3.840908">
        <ele>117.318</ele>
        <time>2021-06-16T12:27:06Z</time>
      </trkpt>
      <trkpt lat="36.759795" lon="-3.840989">
        <ele>117.892</ele>
        <time>2021-06-16T12:27:07Z</time>
      </trkpt>
      <trkpt lat="36.759822" lon="-3.841074">
        <ele>117.773</ele>
        <time>2021-06-16T12:27:08Z</time>
      </trkpt>
      <trkpt lat="36.759838" lon="-3.841163">
        <ele>117.720</ele>
        <time>2021-06-16T12:27:09Z</time>
      </trkpt>
      <trkpt lat="36.759834" lon="-3.841255">
        <ele>117.708</ele>
        <time>2021-06-16T12:27:10Z</time>
      </trkpt>
      <trkpt lat="36.759775" lon="-3.841445">
        <ele>117.956</ele>
        <time>2021-06-16T12:27:12Z</time>
      </trkpt>
      <trkpt lat="36.759744" lon="-3.841555">
        <ele>118.234</ele>
        <time>2021-06-16T12:27:13Z</time>
      </trkpt>
      <trkpt lat="36.759723" lon="-3.84176">
        <ele>118.448</ele>
        <time>2021-06-16T12:27:15Z</time>
      </trkpt>
      <trkpt lat="36.759725" lon="-3.841887">
        <ele>118.647</ele>
        <time>2021-06-16T12:27:17Z</time>
      </trkpt>
      <trkpt lat="36.759728" lon="-3.841963">
        <ele>118.650</ele>
        <time>2021-06-16T12:27:19Z</time>
      </trkpt>
      <trkpt lat="36.759734" lon="-3.842082">
        <ele>119.017</ele>
        <time>2021-06-16T12:27:21Z</time>
      </trkpt>
      <trkpt lat="36.759735" lon="-3.842166">
        <ele>119.074</ele>
        <time>2021-06-16T12:27:22Z</time>
      </trkpt>
      <trkpt lat="36.759739" lon="-3.842261">
        <ele>118.664</ele>
        <time>2021-06-16T12:27:23Z</time>
      </trkpt>
      <trkpt lat="36.759752" lon="-3.842483">
        <ele>118.829</ele>
        <time>2021-06-16T12:27:25Z</time>
      </trkpt>
      <trkpt lat="36.759763" lon="-3.842604">
        <ele>118.700</ele>
        <time>2021-06-16T12:27:26Z</time>
      </trkpt>
      <trkpt lat="36.759776" lon="-3.842726">
        <ele>118.820</ele>
        <time>2021-06-16T12:27:27Z</time>
      </trkpt>
      <trkpt lat="36.759796" lon="-3.84285">
        <ele>118.808</ele>
        <time>2021-06-16T12:27:28Z</time>
      </trkpt>
      <trkpt lat="36.759847" lon="-3.843098">
        <ele>118.949</ele>
        <time>2021-06-16T12:27:30Z</time>
      </trkpt>
      <trkpt lat="36.759883" lon="-3.843219">
        <ele>118.767</ele>
        <time>2021-06-16T12:27:31Z</time>
      </trkpt>
      <trkpt lat="36.759952" lon="-3.843468">
        <ele>118.491</ele>
        <time>2021-06-16T12:27:33Z</time>
      </trkpt>
      <trkpt lat="36.759981" lon="-3.843599">
        <ele>118.490</ele>
        <time>2021-06-16T12:27:34Z</time>
      </trkpt>
      <trkpt lat="36.760024" lon="-3.843871">
        <ele>118.333</ele>
        <time>2021-06-16T12:27:36Z</time>
      </trkpt>
      <trkpt lat="36.760036" lon="-3.844158">
        <ele>118.120</ele>
        <time>2021-06-16T12:27:38Z</time>
      </trkpt>
      <trkpt lat="36.76003" lon="-3.844298">
        <ele>118.157</ele>
        <time>2021-06-16T12:27:39Z</time>
      </trkpt>
      <trkpt lat="36.760026" lon="-3.844598">
        <ele>118.527</ele>
        <time>2021-06-16T12:27:41Z</time>
      </trkpt>
      <trkpt lat="36.759972" lon="-3.844868">
        <ele>118.596</ele>
        <time>2021-06-16T12:27:43Z</time>
      </trkpt>
      <trkpt lat="36.759948" lon="-3.844997">
        <ele>118.731</ele>
        <time>2021-06-16T12:27:44Z</time>
      </trkpt>
      <trkpt lat="36.7599" lon="-3.845252">
        <ele>119.324</ele>
        <time>2021-06-16T12:27:46Z</time>
      </trkpt>
      <trkpt lat="36.759848" lon="-3.845505">
        <ele>120.408</ele>
        <time>2021-06-16T12:27:48Z</time>
      </trkpt>
      <trkpt lat="36.759818" lon="-3.845613">
        <ele>120.886</ele>
        <time>2021-06-16T12:27:49Z</time>
      </trkpt>
      <trkpt lat="36.759745" lon="-3.84582">
        <ele>121.494</ele>
        <time>2021-06-16T12:27:51Z</time>
      </trkpt>
      <trkpt lat="36.759698" lon="-3.845921">
        <ele>121.598</ele>
        <time>2021-06-16T12:27:52Z</time>
      </trkpt>
      <trkpt lat="36.759647" lon="-3.846012">
        <ele>121.027</ele>
        <time>2021-06-16T12:27:53Z</time>
      </trkpt>
      <trkpt lat="36.759543" lon="-3.84619">
        <ele>120.130</ele>
        <time>2021-06-16T12:27:55Z</time>
      </trkpt>
      <trkpt lat="36.759465" lon="-3.846388">
        <ele>118.967</ele>
        <time>2021-06-16T12:27:57Z</time>
      </trkpt>
      <trkpt lat="36.759454" lon="-3.846504">
        <ele>118.124</ele>
        <time>2021-06-16T12:27:58Z</time>
      </trkpt>
      <trkpt lat="36.759421" lon="-3.846718">
        <ele>117.784</ele>
        <time>2021-06-16T12:28:00Z</time>
      </trkpt>
      <trkpt lat="36.759375" lon="-3.846809">
        <ele>117.316</ele>
        <time>2021-06-16T12:28:01Z</time>
      </trkpt>
      <trkpt lat="36.759216" lon="-3.846909">
        <ele>116.676</ele>
        <time>2021-06-16T12:28:03Z</time>
      </trkpt>
      <trkpt lat="36.759121" lon="-3.846916">
        <ele>115.513</ele>
        <time>2021-06-16T12:28:04Z</time>
      </trkpt>
      <trkpt lat="36.759022" lon="-3.846902">
        <ele>114.408</ele>
        <time>2021-06-16T12:28:05Z</time>
      </trkpt>
      <trkpt lat="36.758812" lon="-3.84687">
        <ele>113.448</ele>
        <time>2021-06-16T12:28:07Z</time>
      </trkpt>
      <trkpt lat="36.758703" lon="-3.846897">
        <ele>112.956</ele>
        <time>2021-06-16T12:28:08Z</time>
      </trkpt>
      <trkpt lat="36.758488" lon="-3.846995">
        <ele>112.390</ele>
        <time>2021-06-16T12:28:10Z</time>
      </trkpt>
      <trkpt lat="36.75838" lon="-3.847061">
        <ele>111.719</ele>
        <time>2021-06-16T12:28:11Z</time>
      </trkpt>
      <trkpt lat="36.758268" lon="-3.847131">
        <ele>111.522</ele>
        <time>2021-06-16T12:28:12Z</time>
      </trkpt>
      <trkpt lat="36.75816" lon="-3.847204">
        <ele>111.089</ele>
        <time>2021-06-16T12:28:13Z</time>
      </trkpt>
      <trkpt lat="36.758053" lon="-3.847284">
        <ele>111.336</ele>
        <time>2021-06-16T12:28:14Z</time>
      </trkpt>
      <trkpt lat="36.757858" lon="-3.847472">
        <ele>111.276</ele>
        <time>2021-06-16T12:28:16Z</time>
      </trkpt>
      <trkpt lat="36.757692" lon="-3.847704">
        <ele>110.366</ele>
        <time>2021-06-16T12:28:18Z</time>
      </trkpt>
      <trkpt lat="36.757556" lon="-3.847966">
        <ele>109.629</ele>
        <time>2021-06-16T12:28:20Z</time>
      </trkpt>
      <trkpt lat="36.757501" lon="-3.848107">
        <ele>108.721</ele>
        <time>2021-06-16T12:28:21Z</time>
      </trkpt>
      <trkpt lat="36.757419" lon="-3.848408">
        <ele>107.808</ele>
        <time>2021-06-16T12:28:23Z</time>
      </trkpt>
      <trkpt lat="36.757384" lon="-3.848568">
        <ele>107.043</ele>
        <time>2021-06-16T12:28:24Z</time>
      </trkpt>
      <trkpt lat="36.757357" lon="-3.848725">
        <ele>106.211</ele>
        <time>2021-06-16T12:28:25Z</time>
      </trkpt>
      <trkpt lat="36.757302" lon="-3.849038">
        <ele>105.585</ele>
        <time>2021-06-16T12:28:27Z</time>
      </trkpt>
      <trkpt lat="36.757236" lon="-3.849354">
        <ele>104.564</ele>
        <time>2021-06-16T12:28:29Z</time>
      </trkpt>
      <trkpt lat="36.757148" lon="-3.849674">
        <ele>103.167</ele>
        <time>2021-06-16T12:28:31Z</time>
      </trkpt>
      <trkpt lat="36.757032" lon="-3.849991">
        <ele>102.184</ele>
        <time>2021-06-16T12:28:33Z</time>
      </trkpt>
      <trkpt lat="36.756892" lon="-3.850289">
        <ele>100.991</ele>
        <time>2021-06-16T12:28:35Z</time>
      </trkpt>
      <trkpt lat="36.756732" lon="-3.850587">
        <ele>100.071</ele>
        <time>2021-06-16T12:28:37Z</time>
      </trkpt>
      <trkpt lat="36.756645" lon="-3.850725">
        <ele>98.769</ele>
        <time>2021-06-16T12:28:38Z</time>
      </trkpt>
      <trkpt lat="36.756551" lon="-3.850853">
        <ele>98.404</ele>
        <time>2021-06-16T12:28:39Z</time>
      </trkpt>
      <trkpt lat="36.756366" lon="-3.851068">
        <ele>98.224</ele>
        <time>2021-06-16T12:28:41Z</time>
      </trkpt>
      <trkpt lat="36.75628" lon="-3.85116">
        <ele>97.708</ele>
        <time>2021-06-16T12:28:42Z</time>
      </trkpt>
      <trkpt lat="36.756203" lon="-3.851253">
        <ele>97.023</ele>
        <time>2021-06-16T12:28:43Z</time>
      </trkpt>
      <trkpt lat="36.75608" lon="-3.851471">
        <ele>95.991</ele>
        <time>2021-06-16T12:28:45Z</time>
      </trkpt>
      <trkpt lat="36.756006" lon="-3.851712">
        <ele>95.365</ele>
        <time>2021-06-16T12:28:47Z</time>
      </trkpt>
      <trkpt lat="36.755974" lon="-3.851819">
        <ele>94.714</ele>
        <time>2021-06-16T12:28:48Z</time>
      </trkpt>
      <trkpt lat="36.755845" lon="-3.851968">
        <ele>93.877</ele>
        <time>2021-06-16T12:28:50Z</time>
      </trkpt>
      <trkpt lat="36.755664" lon="-3.851989">
        <ele>93.244</ele>
        <time>2021-06-16T12:28:52Z</time>
      </trkpt>
      <trkpt lat="36.755577" lon="-3.851954">
        <ele>93.091</ele>
        <time>2021-06-16T12:28:53Z</time>
      </trkpt>
      <trkpt lat="36.755492" lon="-3.85193">
        <ele>92.631</ele>
        <time>2021-06-16T12:28:54Z</time>
      </trkpt>
      <trkpt lat="36.755326" lon="-3.852008">
        <ele>92.112</ele>
        <time>2021-06-16T12:28:56Z</time>
      </trkpt>
      <trkpt lat="36.755247" lon="-3.852095">
        <ele>91.532</ele>
        <time>2021-06-16T12:28:57Z</time>
      </trkpt>
      <trkpt lat="36.7551" lon="-3.852324">
        <ele>91.405</ele>
        <time>2021-06-16T12:28:59Z</time>
      </trkpt>
      <trkpt lat="36.755035" lon="-3.852464">
        <ele>91.108</ele>
        <time>2021-06-16T12:29:00Z</time>
      </trkpt>
      <trkpt lat="36.754929" lon="-3.852755">
        <ele>90.278</ele>
        <time>2021-06-16T12:29:02Z</time>
      </trkpt>
      <trkpt lat="36.754897" lon="-3.852914">
        <ele>89.256</ele>
        <time>2021-06-16T12:29:03Z</time>
      </trkpt>
      <trkpt lat="36.754864" lon="-3.853237">
        <ele>87.730</ele>
        <time>2021-06-16T12:29:05Z</time>
      </trkpt>
      <trkpt lat="36.754884" lon="-3.853564">
        <ele>86.769</ele>
        <time>2021-06-16T12:29:07Z</time>
      </trkpt>
      <trkpt lat="36.754936" lon="-3.8539">
        <ele>85.752</ele>
        <time>2021-06-16T12:29:09Z</time>
      </trkpt>
      <trkpt lat="36.754966" lon="-3.854068">
        <ele>84.759</ele>
        <time>2021-06-16T12:29:10Z</time>
      </trkpt>
      <trkpt lat="36.755021" lon="-3.85441">
        <ele>84.316</ele>
        <time>2021-06-16T12:29:12Z</time>
      </trkpt>
      <trkpt lat="36.755078" lon="-3.854755">
        <ele>83.316</ele>
        <time>2021-06-16T12:29:14Z</time>
      </trkpt>
      <trkpt lat="36.755129" lon="-3.855098">
        <ele>82.511</ele>
        <time>2021-06-16T12:29:16Z</time>
      </trkpt>
      <trkpt lat="36.755155" lon="-3.855273">
        <ele>81.821</ele>
        <time>2021-06-16T12:29:17Z</time>
      </trkpt>
      <trkpt lat="36.755198" lon="-3.855628">
        <ele>81.203</ele>
        <time>2021-06-16T12:29:19Z</time>
      </trkpt>
      <trkpt lat="36.75524" lon="-3.855988">
        <ele>80.508</ele>
        <time>2021-06-16T12:29:21Z</time>
      </trkpt>
      <trkpt lat="36.755266" lon="-3.856171">
        <ele>80.618</ele>
        <time>2021-06-16T12:29:22Z</time>
      </trkpt>
      <trkpt lat="36.755321" lon="-3.856541">
        <ele>80.526</ele>
        <time>2021-06-16T12:29:24Z</time>
      </trkpt>
      <trkpt lat="36.755378" lon="-3.856911">
        <ele>79.920</ele>
        <time>2021-06-16T12:29:26Z</time>
      </trkpt>
      <trkpt lat="36.755432" lon="-3.857279">
        <ele>79.769</ele>
        <time>2021-06-16T12:29:28Z</time>
      </trkpt>
      <trkpt lat="36.755455" lon="-3.857458">
        <ele>79.512</ele>
        <time>2021-06-16T12:29:29Z</time>
      </trkpt>
      <trkpt lat="36.755493" lon="-3.857808">
        <ele>79.269</ele>
        <time>2021-06-16T12:29:31Z</time>
      </trkpt>
      <trkpt lat="36.75551" lon="-3.857979">
        <ele>79.136</ele>
        <time>2021-06-16T12:29:32Z</time>
      </trkpt>
      <trkpt lat="36.755556" lon="-3.858309">
        <ele>78.986</ele>
        <time>2021-06-16T12:29:34Z</time>
      </trkpt>
      <trkpt lat="36.755607" lon="-3.858625">
        <ele>78.453</ele>
        <time>2021-06-16T12:29:36Z</time>
      </trkpt>
      <trkpt lat="36.755638" lon="-3.858782">
        <ele>78.104</ele>
        <time>2021-06-16T12:29:37Z</time>
      </trkpt>
      <trkpt lat="36.755677" lon="-3.85894">
        <ele>77.914</ele>
        <time>2021-06-16T12:29:38Z</time>
      </trkpt>
      <trkpt lat="36.755782" lon="-3.859254">
        <ele>78.308</ele>
        <time>2021-06-16T12:29:40Z</time>
      </trkpt>
      <trkpt lat="36.75594" lon="-3.859536">
        <ele>78.162</ele>
        <time>2021-06-16T12:29:42Z</time>
      </trkpt>
      <trkpt lat="36.756034" lon="-3.85966">
        <ele>78.210</ele>
        <time>2021-06-16T12:29:43Z</time>
      </trkpt>
      <trkpt lat="36.756257" lon="-3.859878">
        <ele>78.194</ele>
        <time>2021-06-16T12:29:45Z</time>
      </trkpt>
      <trkpt lat="36.756515" lon="-3.860064">
        <ele>77.783</ele>
        <time>2021-06-16T12:29:47Z</time>
      </trkpt>
      <trkpt lat="36.75678" lon="-3.860254">
        <ele>76.796</ele>
        <time>2021-06-16T12:29:49Z</time>
      </trkpt>
      <trkpt lat="36.756908" lon="-3.860353">
        <ele>76.293</ele>
        <time>2021-06-16T12:29:50Z</time>
      </trkpt>
      <trkpt lat="36.757154" lon="-3.860573">
        <ele>75.860</ele>
        <time>2021-06-16T12:29:52Z</time>
      </trkpt>
      <trkpt lat="36.757353" lon="-3.860847">
        <ele>75.670</ele>
        <time>2021-06-16T12:29:54Z</time>
      </trkpt>
      <trkpt lat="36.757433" lon="-3.861007">
        <ele>75.587</ele>
        <time>2021-06-16T12:29:55Z</time>
      </trkpt>
      <trkpt lat="36.757555" lon="-3.861352">
        <ele>74.842</ele>
        <time>2021-06-16T12:29:57Z</time>
      </trkpt>
      <trkpt lat="36.757596" lon="-3.861527">
        <ele>74.226</ele>
        <time>2021-06-16T12:29:58Z</time>
      </trkpt>
      <trkpt lat="36.757627" lon="-3.8617">
        <ele>73.808</ele>
        <time>2021-06-16T12:29:59Z</time>
      </trkpt>
      <trkpt lat="36.757687" lon="-3.862023">
        <ele>73.555</ele>
        <time>2021-06-16T12:30:01Z</time>
      </trkpt>
      <trkpt lat="36.757757" lon="-3.862315">
        <ele>73.023</ele>
        <time>2021-06-16T12:30:03Z</time>
      </trkpt>
      <trkpt lat="36.757796" lon="-3.862453">
        <ele>72.587</ele>
        <time>2021-06-16T12:30:04Z</time>
      </trkpt>
      <trkpt lat="36.75783" lon="-3.86259">
        <ele>72.036</ele>
        <time>2021-06-16T12:30:05Z</time>
      </trkpt>
      <trkpt lat="36.75788" lon="-3.862842">
        <ele>71.649</ele>
        <time>2021-06-16T12:30:07Z</time>
      </trkpt>
      <trkpt lat="36.757903" lon="-3.86296">
        <ele>71.296</ele>
        <time>2021-06-16T12:30:08Z</time>
      </trkpt>
      <trkpt lat="36.757959" lon="-3.86318">
        <ele>71.813</ele>
        <time>2021-06-16T12:30:10Z</time>
      </trkpt>
      <trkpt lat="36.758049" lon="-3.863352">
        <ele>72.213</ele>
        <time>2021-06-16T12:30:12Z</time>
      </trkpt>
      <trkpt lat="36.758101" lon="-3.86343">
        <ele>73.023</ele>
        <time>2021-06-16T12:30:13Z</time>
      </trkpt>
      <trkpt lat="36.758183" lon="-3.863602">
        <ele>73.783</ele>
        <time>2021-06-16T12:30:15Z</time>
      </trkpt>
      <trkpt lat="36.758185" lon="-3.863804">
        <ele>74.211</ele>
        <time>2021-06-16T12:30:17Z</time>
      </trkpt>
      <trkpt lat="36.758171" lon="-3.863909">
        <ele>74.108</ele>
        <time>2021-06-16T12:30:18Z</time>
      </trkpt>
      <trkpt lat="36.758157" lon="-3.86402">
        <ele>74.389</ele>
        <time>2021-06-16T12:30:19Z</time>
      </trkpt>
      <trkpt lat="36.758182" lon="-3.864247">
        <ele>74.627</ele>
        <time>2021-06-16T12:30:21Z</time>
      </trkpt>
      <trkpt lat="36.758252" lon="-3.864472">
        <ele>75.131</ele>
        <time>2021-06-16T12:30:23Z</time>
      </trkpt>
      <trkpt lat="36.758282" lon="-3.864591">
        <ele>75.330</ele>
        <time>2021-06-16T12:30:24Z</time>
      </trkpt>
      <trkpt lat="36.758311" lon="-3.864714">
        <ele>75.443</ele>
        <time>2021-06-16T12:30:25Z</time>
      </trkpt>
      <trkpt lat="36.758363" lon="-3.864966">
        <ele>75.950</ele>
        <time>2021-06-16T12:30:27Z</time>
      </trkpt>
      <trkpt lat="36.758394" lon="-3.8651">
        <ele>76.147</ele>
        <time>2021-06-16T12:30:28Z</time>
      </trkpt>
      <trkpt lat="36.758449" lon="-3.865378">
        <ele>77.777</ele>
        <time>2021-06-16T12:30:30Z</time>
      </trkpt>
      <trkpt lat="36.758475" lon="-3.865518">
        <ele>78.557</ele>
        <time>2021-06-16T12:30:31Z</time>
      </trkpt>
      <trkpt lat="36.758503" lon="-3.865659">
        <ele>79.500</ele>
        <time>2021-06-16T12:30:32Z</time>
      </trkpt>
      <trkpt lat="36.758557" lon="-3.865951">
        <ele>79.920</ele>
        <time>2021-06-16T12:30:34Z</time>
      </trkpt>
      <trkpt lat="36.758572" lon="-3.866099">
        <ele>79.808</ele>
        <time>2021-06-16T12:30:35Z</time>
      </trkpt>
      <trkpt lat="36.758584" lon="-3.866407">
        <ele>80.142</ele>
        <time>2021-06-16T12:30:37Z</time>
      </trkpt>
      <trkpt lat="36.758585" lon="-3.866561">
        <ele>80.180</ele>
        <time>2021-06-16T12:30:38Z</time>
      </trkpt>
      <trkpt lat="36.758582" lon="-3.866712">
        <ele>80.194</ele>
        <time>2021-06-16T12:30:39Z</time>
      </trkpt>
      <trkpt lat="36.758552" lon="-3.866996">
        <ele>80.053</ele>
        <time>2021-06-16T12:30:41Z</time>
      </trkpt>
      <trkpt lat="36.758521" lon="-3.867273">
        <ele>80.036</ele>
        <time>2021-06-16T12:30:43Z</time>
      </trkpt>
      <trkpt lat="36.758488" lon="-3.867525">
        <ele>80.133</ele>
        <time>2021-06-16T12:30:45Z</time>
      </trkpt>
      <trkpt lat="36.758467" lon="-3.867655">
        <ele>80.470</ele>
        <time>2021-06-16T12:30:46Z</time>
      </trkpt>
      <trkpt lat="36.758445" lon="-3.867782">
        <ele>80.630</ele>
        <time>2021-06-16T12:30:47Z</time>
      </trkpt>
      <trkpt lat="36.75842" lon="-3.867903">
        <ele>80.616</ele>
        <time>2021-06-16T12:30:48Z</time>
      </trkpt>
      <trkpt lat="36.758367" lon="-3.868139">
        <ele>80.776</ele>
        <time>2021-06-16T12:30:50Z</time>
      </trkpt>
      <trkpt lat="36.758316" lon="-3.868366">
        <ele>80.713</ele>
        <time>2021-06-16T12:30:52Z</time>
      </trkpt>
      <trkpt lat="36.758295" lon="-3.868472">
        <ele>80.708</ele>
        <time>2021-06-16T12:30:53Z</time>
      </trkpt>
      <trkpt lat="36.758288" lon="-3.868562">
        <ele>80.668</ele>
        <time>2021-06-16T12:30:54Z</time>
      </trkpt>
      <trkpt lat="36.758305" lon="-3.868709">
        <ele>80.696</ele>
        <time>2021-06-16T12:30:56Z</time>
      </trkpt>
      <trkpt lat="36.758324" lon="-3.868773">
        <ele>80.330</ele>
        <time>2021-06-16T12:30:57Z</time>
      </trkpt>
      <trkpt lat="36.758359" lon="-3.868885">
        <ele>80.099</ele>
        <time>2021-06-16T12:30:59Z</time>
      </trkpt>
      <trkpt lat="36.758369" lon="-3.868953">
        <ele>79.592</ele>
        <time>2021-06-16T12:31:00Z</time>
      </trkpt>
      <trkpt lat="36.758364" lon="-3.869032">
        <ele>78.949</ele>
        <time>2021-06-16T12:31:01Z</time>
      </trkpt>
      <trkpt lat="36.758342" lon="-3.869107">
        <ele>78.586</ele>
        <time>2021-06-16T12:31:02Z</time>
      </trkpt>
      <trkpt lat="36.758269" lon="-3.869225">
        <ele>77.946</ele>
        <time>2021-06-16T12:31:04Z</time>
      </trkpt>
      <trkpt lat="36.758234" lon="-3.869292">
        <ele>77.513</ele>
        <time>2021-06-16T12:31:05Z</time>
      </trkpt>
      <trkpt lat="36.758212" lon="-3.86937">
        <ele>77.143</ele>
        <time>2021-06-16T12:31:06Z</time>
      </trkpt>
      <trkpt lat="36.758202" lon="-3.869464">
        <ele>76.907</ele>
        <time>2021-06-16T12:31:07Z</time>
      </trkpt>
      <trkpt lat="36.75821" lon="-3.869683">
        <ele>77.108</ele>
        <time>2021-06-16T12:31:09Z</time>
      </trkpt>
      <trkpt lat="36.758238" lon="-3.869915">
        <ele>77.178</ele>
        <time>2021-06-16T12:31:11Z</time>
      </trkpt>
      <trkpt lat="36.758257" lon="-3.870027">
        <ele>77.086</ele>
        <time>2021-06-16T12:31:12Z</time>
      </trkpt>
      <trkpt lat="36.758302" lon="-3.870244">
        <ele>76.740</ele>
        <time>2021-06-16T12:31:14Z</time>
      </trkpt>
      <trkpt lat="36.758345" lon="-3.870474">
        <ele>76.119</ele>
        <time>2021-06-16T12:31:16Z</time>
      </trkpt>
      <trkpt lat="36.758362" lon="-3.870737">
        <ele>76.022</ele>
        <time>2021-06-16T12:31:18Z</time>
      </trkpt>
      <trkpt lat="36.758357" lon="-3.870879">
        <ele>76.019</ele>
        <time>2021-06-16T12:31:19Z</time>
      </trkpt>
      <trkpt lat="36.758338" lon="-3.871022">
        <ele>75.126</ele>
        <time>2021-06-16T12:31:20Z</time>
      </trkpt>
      <trkpt lat="36.758305" lon="-3.871164">
        <ele>74.386</ele>
        <time>2021-06-16T12:31:21Z</time>
      </trkpt>
      <trkpt lat="36.758262" lon="-3.871302">
        <ele>73.855</ele>
        <time>2021-06-16T12:31:22Z</time>
      </trkpt>
      <trkpt lat="36.758207" lon="-3.871436">
        <ele>73.207</ele>
        <time>2021-06-16T12:31:23Z</time>
      </trkpt>
      <trkpt lat="36.758061" lon="-3.871668">
        <ele>72.517</ele>
        <time>2021-06-16T12:31:25Z</time>
      </trkpt>
      <trkpt lat="36.757971" lon="-3.871767">
        <ele>72.008</ele>
        <time>2021-06-16T12:31:26Z</time>
      </trkpt>
      <trkpt lat="36.757773" lon="-3.87194">
        <ele>71.222</ele>
        <time>2021-06-16T12:31:28Z</time>
      </trkpt>
      <trkpt lat="36.757668" lon="-3.872017">
        <ele>70.250</ele>
        <time>2021-06-16T12:31:29Z</time>
      </trkpt>
      <trkpt lat="36.757563" lon="-3.872086">
        <ele>69.834</ele>
        <time>2021-06-16T12:31:30Z</time>
      </trkpt>
      <trkpt lat="36.757356" lon="-3.872229">
        <ele>69.383</ele>
        <time>2021-06-16T12:31:32Z</time>
      </trkpt>
      <trkpt lat="36.757161" lon="-3.872359">
        <ele>68.986</ele>
        <time>2021-06-16T12:31:34Z</time>
      </trkpt>
      <trkpt lat="36.757065" lon="-3.872425">
        <ele>68.413</ele>
        <time>2021-06-16T12:31:35Z</time>
      </trkpt>
      <trkpt lat="36.756912" lon="-3.87254">
        <ele>67.720</ele>
        <time>2021-06-16T12:31:37Z</time>
      </trkpt>
      <trkpt lat="36.756855" lon="-3.872593">
        <ele>67.590</ele>
        <time>2021-06-16T12:31:38Z</time>
      </trkpt>
      <trkpt lat="36.756768" lon="-3.872727">
        <ele>67.656</ele>
        <time>2021-06-16T12:31:40Z</time>
      </trkpt>
      <trkpt lat="36.756737" lon="-3.872804">
        <ele>67.559</ele>
        <time>2021-06-16T12:31:41Z</time>
      </trkpt>
      <trkpt lat="36.756661" lon="-3.87293">
        <ele>67.014</ele>
        <time>2021-06-16T12:31:43Z</time>
      </trkpt>
      <trkpt lat="36.756619" lon="-3.872966">
        <ele>66.608</ele>
        <time>2021-06-16T12:31:44Z</time>
      </trkpt>
      <trkpt lat="36.756568" lon="-3.872993">
        <ele>66.312</ele>
        <time>2021-06-16T12:31:45Z</time>
      </trkpt>
      <trkpt lat="36.756407" lon="-3.872994">
        <ele>66.480</ele>
        <time>2021-06-16T12:31:47Z</time>
      </trkpt>
      <trkpt lat="36.756241" lon="-3.873032">
        <ele>66.544</ele>
        <time>2021-06-16T12:31:49Z</time>
      </trkpt>
      <trkpt lat="36.756078" lon="-3.873128">
        <ele>66.093</ele>
        <time>2021-06-16T12:31:51Z</time>
      </trkpt>
      <trkpt lat="36.755909" lon="-3.873253">
        <ele>65.316</ele>
        <time>2021-06-16T12:31:53Z</time>
      </trkpt>
      <trkpt lat="36.755821" lon="-3.873319">
        <ele>64.833</ele>
        <time>2021-06-16T12:31:54Z</time>
      </trkpt>
      <trkpt lat="36.755647" lon="-3.873449">
        <ele>64.750</ele>
        <time>2021-06-16T12:31:56Z</time>
      </trkpt>
      <trkpt lat="36.755569" lon="-3.873506">
        <ele>64.720</ele>
        <time>2021-06-16T12:31:57Z</time>
      </trkpt>
      <trkpt lat="36.755426" lon="-3.873611">
        <ele>64.554</ele>
        <time>2021-06-16T12:31:59Z</time>
      </trkpt>
      <trkpt lat="36.755359" lon="-3.873665">
        <ele>64.156</ele>
        <time>2021-06-16T12:32:00Z</time>
      </trkpt>
      <trkpt lat="36.755253" lon="-3.873759">
        <ele>63.911</ele>
        <time>2021-06-16T12:32:02Z</time>
      </trkpt>
      <trkpt lat="36.755206" lon="-3.873793">
        <ele>63.808</ele>
        <time>2021-06-16T12:32:03Z</time>
      </trkpt>
      <trkpt lat="36.755125" lon="-3.873846">
        <ele>63.772</ele>
        <time>2021-06-16T12:32:05Z</time>
      </trkpt>
      <trkpt lat="36.755058" lon="-3.873891">
        <ele>63.450</ele>
        <time>2021-06-16T12:32:07Z</time>
      </trkpt>
      <trkpt lat="36.755017" lon="-3.873923">
        <ele>63.414</ele>
        <time>2021-06-16T12:32:08Z</time>
      </trkpt>
      <trkpt lat="36.754971" lon="-3.873958">
        <ele>63.263</ele>
        <time>2021-06-16T12:32:09Z</time>
      </trkpt>
      <trkpt lat="36.75487" lon="-3.874034">
        <ele>62.526</ele>
        <time>2021-06-16T12:32:11Z</time>
      </trkpt>
      <trkpt lat="36.754809" lon="-3.874081">
        <ele>61.583</ele>
        <time>2021-06-16T12:32:12Z</time>
      </trkpt>
      <trkpt lat="36.754674" lon="-3.874178">
        <ele>61.250</ele>
        <time>2021-06-16T12:32:14Z</time>
      </trkpt>
      <trkpt lat="36.754606" lon="-3.874229">
        <ele>60.810</ele>
        <time>2021-06-16T12:32:15Z</time>
      </trkpt>
      <trkpt lat="36.754462" lon="-3.874344">
        <ele>60.393</ele>
        <time>2021-06-16T12:32:17Z</time>
      </trkpt>
      <trkpt lat="36.754313" lon="-3.874461">
        <ele>59.665</ele>
        <time>2021-06-16T12:32:19Z</time>
      </trkpt>
      <trkpt lat="36.754159" lon="-3.874576">
        <ele>58.721</ele>
        <time>2021-06-16T12:32:21Z</time>
      </trkpt>
      <trkpt lat="36.754001" lon="-3.87469">
        <ele>58.408</ele>
        <time>2021-06-16T12:32:23Z</time>
      </trkpt>
      <trkpt lat="36.753844" lon="-3.874799">
        <ele>57.786</ele>
        <time>2021-06-16T12:32:25Z</time>
      </trkpt>
      <trkpt lat="36.7537" lon="-3.874906">
        <ele>56.984</ele>
        <time>2021-06-16T12:32:27Z</time>
      </trkpt>
      <trkpt lat="36.753637" lon="-3.874951">
        <ele>56.428</ele>
        <time>2021-06-16T12:32:28Z</time>
      </trkpt>
      <trkpt lat="36.75355" lon="-3.875022">
        <ele>56.097</ele>
        <time>2021-06-16T12:32:30Z</time>
      </trkpt>
      <trkpt lat="36.75351" lon="-3.875061">
        <ele>55.910</ele>
        <time>2021-06-16T12:32:32Z</time>
      </trkpt>
      <trkpt lat="36.753468" lon="-3.875113">
        <ele>55.787</ele>
        <time>2021-06-16T12:32:34Z</time>
      </trkpt>
      <trkpt lat="36.753405" lon="-3.875212">
        <ele>55.734</ele>
        <time>2021-06-16T12:32:36Z</time>
      </trkpt>
      <trkpt lat="36.753328" lon="-3.875315">
        <ele>55.474</ele>
        <time>2021-06-16T12:32:38Z</time>
      </trkpt>
      <trkpt lat="36.753235" lon="-3.87539">
        <ele>55.394</ele>
        <time>2021-06-16T12:32:40Z</time>
      </trkpt>
      <trkpt lat="36.753182" lon="-3.87541">
        <ele>55.557</ele>
        <time>2021-06-16T12:32:41Z</time>
      </trkpt>
      <trkpt lat="36.753085" lon="-3.875413">
        <ele>55.522</ele>
        <time>2021-06-16T12:32:43Z</time>
      </trkpt>
      <trkpt lat="36.753032" lon="-3.875413">
        <ele>55.508</ele>
        <time>2021-06-16T12:32:45Z</time>
      </trkpt>
      <trkpt lat="36.752957" lon="-3.875436">
        <ele>55.676</ele>
        <time>2021-06-16T12:32:47Z</time>
      </trkpt>
      <trkpt lat="36.752894" lon="-3.875468">
        <ele>55.034</ele>
        <time>2021-06-16T12:32:49Z</time>
      </trkpt>
      <trkpt lat="36.752812" lon="-3.875535">
        <ele>54.778</ele>
        <time>2021-06-16T12:32:51Z</time>
      </trkpt>
      <trkpt lat="36.752722" lon="-3.875602">
        <ele>54.567</ele>
        <time>2021-06-16T12:32:53Z</time>
      </trkpt>
      <trkpt lat="36.752674" lon="-3.875634">
        <ele>54.240</ele>
        <time>2021-06-16T12:32:55Z</time>
      </trkpt>
      <trkpt lat="36.752631" lon="-3.875669">
        <ele>54.047</ele>
        <time>2021-06-16T12:32:57Z</time>
      </trkpt>
      <trkpt lat="36.752593" lon="-3.875703">
        <ele>53.544</ele>
        <time>2021-06-16T12:33:03Z</time>
      </trkpt>
      <trkpt lat="36.752538" lon="-3.875746">
        <ele>53.124</ele>
        <time>2021-06-16T12:33:05Z</time>
      </trkpt>
      <trkpt lat="36.752492" lon="-3.875775">
        <ele>52.821</ele>
        <time>2021-06-16T12:33:06Z</time>
      </trkpt>
      <trkpt lat="36.752443" lon="-3.875808">
        <ele>52.641</ele>
        <time>2021-06-16T12:33:07Z</time>
      </trkpt>
      <trkpt lat="36.75239" lon="-3.875847">
        <ele>52.505</ele>
        <time>2021-06-16T12:33:08Z</time>
      </trkpt>
      <trkpt lat="36.752336" lon="-3.875887">
        <ele>52.508</ele>
        <time>2021-06-16T12:33:09Z</time>
      </trkpt>
      <trkpt lat="36.752209" lon="-3.875981">
        <ele>52.559</ele>
        <time>2021-06-16T12:33:11Z</time>
      </trkpt>
      <trkpt lat="36.752074" lon="-3.876085">
        <ele>52.567</ele>
        <time>2021-06-16T12:33:13Z</time>
      </trkpt>
      <trkpt lat="36.752005" lon="-3.876138">
        <ele>52.571</ele>
        <time>2021-06-16T12:33:14Z</time>
      </trkpt>
      <trkpt lat="36.751878" lon="-3.876248">
        <ele>52.560</ele>
        <time>2021-06-16T12:33:16Z</time>
      </trkpt>
      <trkpt lat="36.751752" lon="-3.876373">
        <ele>52.553</ele>
        <time>2021-06-16T12:33:18Z</time>
      </trkpt>
      <trkpt lat="36.751649" lon="-3.876503">
        <ele>52.520</ele>
        <time>2021-06-16T12:33:20Z</time>
      </trkpt>
      <trkpt lat="36.751595" lon="-3.876565">
        <ele>52.587</ele>
        <time>2021-06-16T12:33:22Z</time>
      </trkpt>
      <trkpt lat="36.751547" lon="-3.876598">
        <ele>52.517</ele>
        <time>2021-06-16T12:33:25Z</time>
      </trkpt>
      <trkpt lat="36.751503" lon="-3.876639">
        <ele>52.314</ele>
        <time>2021-06-16T12:33:27Z</time>
      </trkpt>
      <trkpt lat="36.751464" lon="-3.876683">
        <ele>52.254</ele>
        <time>2021-06-16T12:33:30Z</time>
      </trkpt>
      <trkpt lat="36.75145" lon="-3.87674">
        <ele>51.809</ele>
        <time>2021-06-16T12:33:33Z</time>
      </trkpt>
      <trkpt lat="36.751426" lon="-3.876801">
        <ele>51.508</ele>
        <time>2021-06-16T12:33:36Z</time>
      </trkpt>
      <trkpt lat="36.751405" lon="-3.876857">
        <ele>51.168</ele>
        <time>2021-06-16T12:33:38Z</time>
      </trkpt>
      <trkpt lat="36.751395" lon="-3.876918">
        <ele>50.846</ele>
        <time>2021-06-16T12:33:39Z</time>
      </trkpt>
      <trkpt lat="36.751351" lon="-3.877053">
        <ele>50.620</ele>
        <time>2021-06-16T12:33:41Z</time>
      </trkpt>
      <trkpt lat="36.751306" lon="-3.877112">
        <ele>50.529</ele>
        <time>2021-06-16T12:33:42Z</time>
      </trkpt>
      <trkpt lat="36.751206" lon="-3.877239">
        <ele>50.532</ele>
        <time>2021-06-16T12:33:44Z</time>
      </trkpt>
      <trkpt lat="36.751163" lon="-3.877312">
        <ele>50.539</ele>
        <time>2021-06-16T12:33:45Z</time>
      </trkpt>
      <trkpt lat="36.751101" lon="-3.877498">
        <ele>50.556</ele>
        <time>2021-06-16T12:33:47Z</time>
      </trkpt>
      <trkpt lat="36.751069" lon="-3.877604">
        <ele>50.586</ele>
        <time>2021-06-16T12:33:48Z</time>
      </trkpt>
      <trkpt lat="36.750997" lon="-3.877829">
        <ele>50.563</ele>
        <time>2021-06-16T12:33:50Z</time>
      </trkpt>
      <trkpt lat="36.750928" lon="-3.878051">
        <ele>50.544</ele>
        <time>2021-06-16T12:33:52Z</time>
      </trkpt>
      <trkpt lat="36.750892" lon="-3.87816">
        <ele>50.518</ele>
        <time>2021-06-16T12:33:53Z</time>
      </trkpt>
      <trkpt lat="36.750837" lon="-3.878332">
        <ele>50.508</ele>
        <time>2021-06-16T12:33:55Z</time>
      </trkpt>
      <trkpt lat="36.750819" lon="-3.878395">
        <ele>50.533</ele>
        <time>2021-06-16T12:33:56Z</time>
      </trkpt>
      <trkpt lat="36.750797" lon="-3.878471">
        <ele>50.561</ele>
        <time>2021-06-16T12:33:57Z</time>
      </trkpt>
      <trkpt lat="36.750769" lon="-3.878558">
        <ele>50.585</ele>
        <time>2021-06-16T12:33:58Z</time>
      </trkpt>
      <trkpt lat="36.750699" lon="-3.87876">
        <ele>50.514</ele>
        <time>2021-06-16T12:34:00Z</time>
      </trkpt>
      <trkpt lat="36.750663" lon="-3.878877">
        <ele>50.537</ele>
        <time>2021-06-16T12:34:01Z</time>
      </trkpt>
      <trkpt lat="36.750575" lon="-3.879149">
        <ele>50.554</ele>
        <time>2021-06-16T12:34:03Z</time>
      </trkpt>
      <trkpt lat="36.750479" lon="-3.879443">
        <ele>50.521</ele>
        <time>2021-06-16T12:34:05Z</time>
      </trkpt>
      <trkpt lat="36.750431" lon="-3.879591">
        <ele>50.541</ele>
        <time>2021-06-16T12:34:06Z</time>
      </trkpt>
      <trkpt lat="36.750383" lon="-3.879741">
        <ele>50.575</ele>
        <time>2021-06-16T12:34:07Z</time>
      </trkpt>
      <trkpt lat="36.750291" lon="-3.880035">
        <ele>50.528</ele>
        <time>2021-06-16T12:34:09Z</time>
      </trkpt>
      <trkpt lat="36.750202" lon="-3.880316">
        <ele>50.520</ele>
        <time>2021-06-16T12:34:11Z</time>
      </trkpt>
      <trkpt lat="36.750115" lon="-3.880601">
        <ele>50.508</ele>
        <time>2021-06-16T12:34:13Z</time>
      </trkpt>
      <trkpt lat="36.750068" lon="-3.880738">
        <ele>50.564</ele>
        <time>2021-06-16T12:34:14Z</time>
      </trkpt>
      <trkpt lat="36.750021" lon="-3.880874">
        <ele>50.562</ele>
        <time>2021-06-16T12:34:15Z</time>
      </trkpt>
      <trkpt lat="36.749932" lon="-3.881142">
        <ele>50.586</ele>
        <time>2021-06-16T12:34:17Z</time>
      </trkpt>
      <trkpt lat="36.749889" lon="-3.881277">
        <ele>50.585</ele>
        <time>2021-06-16T12:34:18Z</time>
      </trkpt>
      <trkpt lat="36.749802" lon="-3.881537">
        <ele>50.568</ele>
        <time>2021-06-16T12:34:20Z</time>
      </trkpt>
      <trkpt lat="36.749757" lon="-3.881665">
        <ele>50.575</ele>
        <time>2021-06-16T12:34:21Z</time>
      </trkpt>
      <trkpt lat="36.749708" lon="-3.881791">
        <ele>50.532</ele>
        <time>2021-06-16T12:34:22Z</time>
      </trkpt>
      <trkpt lat="36.749598" lon="-3.882016">
        <ele>50.562</ele>
        <time>2021-06-16T12:34:24Z</time>
      </trkpt>
      <trkpt lat="36.749504" lon="-3.882209">
        <ele>50.581</ele>
        <time>2021-06-16T12:34:26Z</time>
      </trkpt>
      <trkpt lat="36.749427" lon="-3.882377">
        <ele>50.561</ele>
        <time>2021-06-16T12:34:28Z</time>
      </trkpt>
      <trkpt lat="36.749396" lon="-3.882454">
        <ele>50.517</ele>
        <time>2021-06-16T12:34:29Z</time>
      </trkpt>
      <trkpt lat="36.749376" lon="-3.882516">
        <ele>50.508</ele>
        <time>2021-06-16T12:34:30Z</time>
      </trkpt>
      <trkpt lat="36.749381" lon="-3.882591">
        <ele>50.555</ele>
        <time>2021-06-16T12:34:32Z</time>
      </trkpt>
      <trkpt lat="36.749397" lon="-3.882663">
        <ele>50.583</ele>
        <time>2021-06-16T12:34:34Z</time>
      </trkpt>
      <trkpt lat="36.749418" lon="-3.882716">
        <ele>50.567</ele>
        <time>2021-06-16T12:34:35Z</time>
      </trkpt>
      <trkpt lat="36.749459" lon="-3.882775">
        <ele>50.516</ele>
        <time>2021-06-16T12:34:36Z</time>
      </trkpt>
      <trkpt lat="36.749518" lon="-3.882827">
        <ele>50.569</ele>
        <time>2021-06-16T12:34:37Z</time>
      </trkpt>
      <trkpt lat="36.749669" lon="-3.882897">
        <ele>46.586</ele>
        <time>2021-06-16T12:34:39Z</time>
      </trkpt>
      <trkpt lat="36.749753" lon="-3.882917">
        <ele>43.713</ele>
        <time>2021-06-16T12:34:40Z</time>
      </trkpt>
      <trkpt lat="36.749928" lon="-3.882944">
        <ele>42.263</ele>
        <time>2021-06-16T12:34:42Z</time>
      </trkpt>
      <trkpt lat="36.750126" lon="-3.882972">
        <ele>42.083</ele>
        <time>2021-06-16T12:34:44Z</time>
      </trkpt>
      <trkpt lat="36.750331" lon="-3.882986">
        <ele>42.325</ele>
        <time>2021-06-16T12:34:46Z</time>
      </trkpt>
      <trkpt lat="36.75044" lon="-3.882992">
        <ele>42.917</ele>
        <time>2021-06-16T12:34:47Z</time>
      </trkpt>
      <trkpt lat="36.750553" lon="-3.882993">
        <ele>44.108</ele>
        <time>2021-06-16T12:34:48Z</time>
      </trkpt>
      <trkpt lat="36.750788" lon="-3.88299">
        <ele>45.175</ele>
        <time>2021-06-16T12:34:50Z</time>
      </trkpt>
      <trkpt lat="36.750906" lon="-3.882983">
        <ele>45.923</ele>
        <time>2021-06-16T12:34:51Z</time>
      </trkpt>
      <trkpt lat="36.751023" lon="-3.882979">
        <ele>46.647</ele>
        <time>2021-06-16T12:34:52Z</time>
      </trkpt>
      <trkpt lat="36.751138" lon="-3.88298">
        <ele>46.966</ele>
        <time>2021-06-16T12:34:53Z</time>
      </trkpt>
      <trkpt lat="36.75137" lon="-3.882987">
        <ele>47.389</ele>
        <time>2021-06-16T12:34:55Z</time>
      </trkpt>
      <trkpt lat="36.751483" lon="-3.882992">
        <ele>48.226</ele>
        <time>2021-06-16T12:34:56Z</time>
      </trkpt>
      <trkpt lat="36.751596" lon="-3.883001">
        <ele>49.263</ele>
        <time>2021-06-16T12:34:57Z</time>
      </trkpt>
      <trkpt lat="36.751829" lon="-3.883021">
        <ele>49.853</ele>
        <time>2021-06-16T12:34:59Z</time>
      </trkpt>
      <trkpt lat="36.752068" lon="-3.883066">
        <ele>50.774</ele>
        <time>2021-06-16T12:35:01Z</time>
      </trkpt>
      <trkpt lat="36.752188" lon="-3.883095">
        <ele>51.856</ele>
        <time>2021-06-16T12:35:02Z</time>
      </trkpt>
      <trkpt lat="36.752417" lon="-3.883167">
        <ele>53.521</ele>
        <time>2021-06-16T12:35:04Z</time>
      </trkpt>
      <trkpt lat="36.752534" lon="-3.883201">
        <ele>54.808</ele>
        <time>2021-06-16T12:35:05Z</time>
      </trkpt>
      <trkpt lat="36.75277" lon="-3.883283">
        <ele>56.344</ele>
        <time>2021-06-16T12:35:07Z</time>
      </trkpt>
      <trkpt lat="36.752885" lon="-3.883321">
        <ele>57.452</ele>
        <time>2021-06-16T12:35:08Z</time>
      </trkpt>
      <trkpt lat="36.75311" lon="-3.883412">
        <ele>58.316</ele>
        <time>2021-06-16T12:35:10Z</time>
      </trkpt>
      <trkpt lat="36.75333" lon="-3.88352">
        <ele>59.055</ele>
        <time>2021-06-16T12:35:12Z</time>
      </trkpt>
      <trkpt lat="36.753538" lon="-3.883636">
        <ele>60.148</ele>
        <time>2021-06-16T12:35:14Z</time>
      </trkpt>
      <trkpt lat="36.753636" lon="-3.883695">
        <ele>60.845</ele>
        <time>2021-06-16T12:35:15Z</time>
      </trkpt>
      <trkpt lat="36.753829" lon="-3.88382">
        <ele>61.692</ele>
        <time>2021-06-16T12:35:17Z</time>
      </trkpt>
      <trkpt lat="36.753923" lon="-3.883883">
        <ele>62.232</ele>
        <time>2021-06-16T12:35:18Z</time>
      </trkpt>
      <trkpt lat="36.754009" lon="-3.883945">
        <ele>62.592</ele>
        <time>2021-06-16T12:35:19Z</time>
      </trkpt>
      <trkpt lat="36.754087" lon="-3.884014">
        <ele>63.073</ele>
        <time>2021-06-16T12:35:20Z</time>
      </trkpt>
      <trkpt lat="36.754247" lon="-3.884128">
        <ele>63.520</ele>
        <time>2021-06-16T12:35:22Z</time>
      </trkpt>
      <trkpt lat="36.754328" lon="-3.884173">
        <ele>64.008</ele>
        <time>2021-06-16T12:35:23Z</time>
      </trkpt>
      <trkpt lat="36.754407" lon="-3.884206">
        <ele>64.246</ele>
        <time>2021-06-16T12:35:24Z</time>
      </trkpt>
      <trkpt lat="36.754478" lon="-3.884236">
        <ele>64.364</ele>
        <time>2021-06-16T12:35:25Z</time>
      </trkpt>
      <trkpt lat="36.75453" lon="-3.884282">
        <ele>64.578</ele>
        <time>2021-06-16T12:35:26Z</time>
      </trkpt>
      <trkpt lat="36.754581" lon="-3.884407">
        <ele>64.377</ele>
        <time>2021-06-16T12:35:28Z</time>
      </trkpt>
      <trkpt lat="36.754514" lon="-3.884508">
        <ele>63.890</ele>
        <time>2021-06-16T12:35:30Z</time>
      </trkpt>
      <trkpt lat="36.754471" lon="-3.884525">
        <ele>63.697</ele>
        <time>2021-06-16T12:35:31Z</time>
      </trkpt>
      <trkpt lat="36.754371" lon="-3.884545">
        <ele>63.864</ele>
        <time>2021-06-16T12:35:33Z</time>
      </trkpt>
      <trkpt lat="36.754319" lon="-3.884556">
        <ele>63.774</ele>
        <time>2021-06-16T12:35:34Z</time>
      </trkpt>
      <trkpt lat="36.754266" lon="-3.884578">
        <ele>63.778</ele>
        <time>2021-06-16T12:35:35Z</time>
      </trkpt>
      <trkpt lat="36.754216" lon="-3.884611">
        <ele>63.733</ele>
        <time>2021-06-16T12:35:36Z</time>
      </trkpt>
      <trkpt lat="36.754169" lon="-3.884651">
        <ele>63.826</ele>
        <time>2021-06-16T12:35:37Z</time>
      </trkpt>
      <trkpt lat="36.754095" lon="-3.884725">
        <ele>64.608</ele>
        <time>2021-06-16T12:35:39Z</time>
      </trkpt>
      <trkpt lat="36.754119" lon="-3.884788">
        <ele>65.124</ele>
        <time>2021-06-16T12:35:41Z</time>
      </trkpt>
      <trkpt lat="36.75417" lon="-3.884819">
        <ele>65.622</ele>
        <time>2021-06-16T12:35:43Z</time>
      </trkpt>
      <trkpt lat="36.754209" lon="-3.884768">
        <ele>65.896</ele>
        <time>2021-06-16T12:35:45Z</time>
      </trkpt>
      <trkpt lat="36.754227" lon="-3.884704">
        <ele>65.415</ele>
        <time>2021-06-16T12:35:47Z</time>
      </trkpt>
      <trkpt lat="36.75426" lon="-3.884664">
        <ele>65.238</ele>
        <time>2021-06-16T12:35:50Z</time>
      </trkpt>
      <trkpt lat="36.754295" lon="-3.884627">
        <ele>64.425</ele>
        <time>2021-06-16T12:36:33Z</time>
      </trkpt>
      <trkpt lat="36.754267" lon="-3.884671">
        <ele>64.212</ele>
        <time>2021-06-16T12:41:31Z</time>
      </trkpt>
      <trkpt lat="36.754237" lon="-3.884726">
        <ele>65.522</ele>
        <time>2021-06-16T12:47:08Z</time>
      </trkpt>
      <trkpt lat="36.754282" lon="-3.884716">
        <ele>65.226</ele>
        <time>2021-06-16T12:49:24Z</time>
      </trkpt>
      <trkpt lat="36.754234" lon="-3.884707">
        <ele>64.247</ele>
        <time>2021-06-16T12:50:57Z</time>
      </trkpt>
      <trkpt lat="36.754213" lon="-3.884757">
        <ele>64.411</ele>
        <time>2021-06-16T12:52:23Z</time>
      </trkpt>
      <trkpt lat="36.75426" lon="-3.884764">
        <ele>64.508</ele>
        <time>2021-06-16T12:52:33Z</time>
      </trkpt>
      <trkpt lat="36.754303" lon="-3.884793">
        <ele>64.569</ele>
        <time>2021-06-16T12:52:39Z</time>
      </trkpt>
      <trkpt lat="36.754278" lon="-3.884746">
        <ele>64.487</ele>
        <time>2021-06-16T12:56:25Z</time>
      </trkpt>
      <trkpt lat="36.754303" lon="-3.884793">
        <ele>63.951</ele>
        <time>2021-06-16T12:57:10Z</time>
      </trkpt>
      <trkpt lat="36.754347" lon="-3.884819">
        <ele>64.260</ele>
        <time>2021-06-16T13:00:56Z</time>
      </trkpt>
      <trkpt lat="36.754359" lon="-3.884874">
        <ele>64.213</ele>
        <time>2021-06-16T13:02:37Z</time>
      </trkpt>
      <trkpt lat="36.754368" lon="-3.884818">
        <ele>64.160</ele>
        <time>2021-06-16T13:03:16Z</time>
      </trkpt>
      <trkpt lat="36.754401" lon="-3.884857">
        <ele>64.187</ele>
        <time>2021-06-16T13:03:27Z</time>
      </trkpt>
      <trkpt lat="36.754301" lon="-3.884648">
        <ele>114.827</ele>
        <time>2021-06-16T13:36:26Z</time>
      </trkpt>
      <trkpt lat="36.75433" lon="-3.884701">
        <ele>97.784</ele>
        <time>2021-06-16T13:38:35Z</time>
      </trkpt>
      <trkpt lat="36.754293" lon="-3.884748">
        <ele>80.207</ele>
        <time>2021-06-16T13:38:37Z</time>
      </trkpt>
      <trkpt lat="36.754223" lon="-3.884791">
        <ele>64.417</ele>
        <time>2021-06-16T13:38:39Z</time>
      </trkpt>
      <trkpt lat="36.754149" lon="-3.884817">
        <ele>64.508</ele>
        <time>2021-06-16T13:38:41Z</time>
      </trkpt>
      <trkpt lat="36.754093" lon="-3.88481">
        <ele>64.575</ele>
        <time>2021-06-16T13:38:43Z</time>
      </trkpt>
      <trkpt lat="36.75408" lon="-3.884735">
        <ele>65.483</ele>
        <time>2021-06-16T13:38:46Z</time>
      </trkpt>
      <trkpt lat="36.754123" lon="-3.88464">
        <ele>65.237</ele>
        <time>2021-06-16T13:38:48Z</time>
      </trkpt>
      <trkpt lat="36.754167" lon="-3.88459">
        <ele>65.396</ele>
        <time>2021-06-16T13:38:49Z</time>
      </trkpt>
      <trkpt lat="36.754249" lon="-3.884507">
        <ele>65.039</ele>
        <time>2021-06-16T13:38:51Z</time>
      </trkpt>
      <trkpt lat="36.754281" lon="-3.884453">
        <ele>65.146</ele>
        <time>2021-06-16T13:38:52Z</time>
      </trkpt>
      <trkpt lat="36.754283" lon="-3.884336">
        <ele>65.363</ele>
        <time>2021-06-16T13:38:54Z</time>
      </trkpt>
      <trkpt lat="36.75425" lon="-3.884269">
        <ele>65.663</ele>
        <time>2021-06-16T13:38:55Z</time>
      </trkpt>
      <trkpt lat="36.754203" lon="-3.884203">
        <ele>65.445</ele>
        <time>2021-06-16T13:38:56Z</time>
      </trkpt>
      <trkpt lat="36.754074" lon="-3.884073">
        <ele>65.747</ele>
        <time>2021-06-16T13:38:58Z</time>
      </trkpt>
      <trkpt lat="36.753893" lon="-3.883942">
        <ele>65.511</ele>
        <time>2021-06-16T13:39:00Z</time>
      </trkpt>
      <trkpt lat="36.753794" lon="-3.883879">
        <ele>65.308</ele>
        <time>2021-06-16T13:39:01Z</time>
      </trkpt>
      <trkpt lat="36.753598" lon="-3.883757">
        <ele>65.141</ele>
        <time>2021-06-16T13:39:03Z</time>
      </trkpt>
      <trkpt lat="36.753391" lon="-3.883641">
        <ele>65.029</ele>
        <time>2021-06-16T13:39:05Z</time>
      </trkpt>
      <trkpt lat="36.753183" lon="-3.883532">
        <ele>64.653</ele>
        <time>2021-06-16T13:39:07Z</time>
      </trkpt>
      <trkpt lat="36.753076" lon="-3.883481">
        <ele>64.252</ele>
        <time>2021-06-16T13:39:08Z</time>
      </trkpt>
      <trkpt lat="36.75297" lon="-3.883431">
        <ele>63.695</ele>
        <time>2021-06-16T13:39:09Z</time>
      </trkpt>
      <trkpt lat="36.752862" lon="-3.883389">
        <ele>62.672</ele>
        <time>2021-06-16T13:39:10Z</time>
      </trkpt>
      <trkpt lat="36.752755" lon="-3.883345">
        <ele>61.769</ele>
        <time>2021-06-16T13:39:11Z</time>
      </trkpt>
      <trkpt lat="36.752549" lon="-3.883264">
        <ele>61.019</ele>
        <time>2021-06-16T13:39:13Z</time>
      </trkpt>
      <trkpt lat="36.75233" lon="-3.883195">
        <ele>60.079</ele>
        <time>2021-06-16T13:39:15Z</time>
      </trkpt>
      <trkpt lat="36.752101" lon="-3.883138">
        <ele>58.805</ele>
        <time>2021-06-16T13:39:17Z</time>
      </trkpt>
      <trkpt lat="36.751984" lon="-3.883115">
        <ele>57.625</ele>
        <time>2021-06-16T13:39:18Z</time>
      </trkpt>
      <trkpt lat="36.751866" lon="-3.883096">
        <ele>57.008</ele>
        <time>2021-06-16T13:39:19Z</time>
      </trkpt>
      <trkpt lat="36.751632" lon="-3.883064">
        <ele>55.934</ele>
        <time>2021-06-16T13:39:21Z</time>
      </trkpt>
      <trkpt lat="36.751515" lon="-3.883052">
        <ele>55.172</ele>
        <time>2021-06-16T13:39:22Z</time>
      </trkpt>
      <trkpt lat="36.75128" lon="-3.883034">
        <ele>54.016</ele>
        <time>2021-06-16T13:39:24Z</time>
      </trkpt>
      <trkpt lat="36.751162" lon="-3.883028">
        <ele>52.835</ele>
        <time>2021-06-16T13:39:25Z</time>
      </trkpt>
      <trkpt lat="36.750931" lon="-3.88303">
        <ele>51.118</ele>
        <time>2021-06-16T13:39:27Z</time>
      </trkpt>
      <trkpt lat="36.750702" lon="-3.883045">
        <ele>49.455</ele>
        <time>2021-06-16T13:39:29Z</time>
      </trkpt>
      <trkpt lat="36.750467" lon="-3.883066">
        <ele>47.562</ele>
        <time>2021-06-16T13:39:31Z</time>
      </trkpt>
      <trkpt lat="36.750349" lon="-3.88307">
        <ele>45.642</ele>
        <time>2021-06-16T13:39:32Z</time>
      </trkpt>
      <trkpt lat="36.750126" lon="-3.883057">
        <ele>43.537</ele>
        <time>2021-06-16T13:39:34Z</time>
      </trkpt>
      <trkpt lat="36.750025" lon="-3.883042">
        <ele>42.149</ele>
        <time>2021-06-16T13:39:35Z</time>
      </trkpt>
      <trkpt lat="36.749926" lon="-3.883023">
        <ele>41.113</ele>
        <time>2021-06-16T13:39:36Z</time>
      </trkpt>
      <trkpt lat="36.749746" lon="-3.882983">
        <ele>40.308</ele>
        <time>2021-06-16T13:39:38Z</time>
      </trkpt>
      <trkpt lat="36.749664" lon="-3.882971">
        <ele>40.190</ele>
        <time>2021-06-16T13:39:39Z</time>
      </trkpt>
      <trkpt lat="36.749541" lon="-3.88297">
        <ele>39.538</ele>
        <time>2021-06-16T13:39:41Z</time>
      </trkpt>
      <trkpt lat="36.749481" lon="-3.882983">
        <ele>39.052</ele>
        <time>2021-06-16T13:39:43Z</time>
      </trkpt>
      <trkpt lat="36.749423" lon="-3.883">
        <ele>38.791</ele>
        <time>2021-06-16T13:39:53Z</time>
      </trkpt>
      <trkpt lat="36.749325" lon="-3.883044">
        <ele>38.594</ele>
        <time>2021-06-16T13:39:55Z</time>
      </trkpt>
      <trkpt lat="36.749161" lon="-3.88314">
        <ele>38.421</ele>
        <time>2021-06-16T13:39:57Z</time>
      </trkpt>
      <trkpt lat="36.749083" lon="-3.883217">
        <ele>38.338</ele>
        <time>2021-06-16T13:39:58Z</time>
      </trkpt>
      <trkpt lat="36.74896" lon="-3.883418">
        <ele>38.338</ele>
        <time>2021-06-16T13:40:00Z</time>
      </trkpt>
      <trkpt lat="36.748835" lon="-3.883645">
        <ele>38.317</ele>
        <time>2021-06-16T13:40:02Z</time>
      </trkpt>
      <trkpt lat="36.74869" lon="-3.883899">
        <ele>38.387</ele>
        <time>2021-06-16T13:40:04Z</time>
      </trkpt>
      <trkpt lat="36.748609" lon="-3.884034">
        <ele>38.315</ele>
        <time>2021-06-16T13:40:05Z</time>
      </trkpt>
      <trkpt lat="36.748525" lon="-3.884174">
        <ele>38.308</ele>
        <time>2021-06-16T13:40:06Z</time>
      </trkpt>
      <trkpt lat="36.748356" lon="-3.88446">
        <ele>38.378</ele>
        <time>2021-06-16T13:40:08Z</time>
      </trkpt>
      <trkpt lat="36.748189" lon="-3.884752">
        <ele>38.366</ele>
        <time>2021-06-16T13:40:10Z</time>
      </trkpt>
      <trkpt lat="36.74803" lon="-3.88505">
        <ele>38.320</ele>
        <time>2021-06-16T13:40:12Z</time>
      </trkpt>
      <trkpt lat="36.747883" lon="-3.885345">
        <ele>38.349</ele>
        <time>2021-06-16T13:40:14Z</time>
      </trkpt>
      <trkpt lat="36.747756" lon="-3.885647">
        <ele>38.392</ele>
        <time>2021-06-16T13:40:16Z</time>
      </trkpt>
      <trkpt lat="36.747702" lon="-3.8858">
        <ele>38.329</ele>
        <time>2021-06-16T13:40:17Z</time>
      </trkpt>
      <trkpt lat="36.747602" lon="-3.886108">
        <ele>38.396</ele>
        <time>2021-06-16T13:40:19Z</time>
      </trkpt>
      <trkpt lat="36.747555" lon="-3.886262">
        <ele>38.356</ele>
        <time>2021-06-16T13:40:20Z</time>
      </trkpt>
      <trkpt lat="36.747475" lon="-3.886562">
        <ele>38.348</ele>
        <time>2021-06-16T13:40:22Z</time>
      </trkpt>
      <trkpt lat="36.747402" lon="-3.886859">
        <ele>38.361</ele>
        <time>2021-06-16T13:40:24Z</time>
      </trkpt>
      <trkpt lat="36.747345" lon="-3.887153">
        <ele>38.317</ele>
        <time>2021-06-16T13:40:26Z</time>
      </trkpt>
      <trkpt lat="36.747301" lon="-3.887436">
        <ele>38.308</ele>
        <time>2021-06-16T13:40:28Z</time>
      </trkpt>
      <trkpt lat="36.747256" lon="-3.887705">
        <ele>38.331</ele>
        <time>2021-06-16T13:40:30Z</time>
      </trkpt>
      <trkpt lat="36.747232" lon="-3.887848">
        <ele>38.379</ele>
        <time>2021-06-16T13:40:31Z</time>
      </trkpt>
      <trkpt lat="36.747182" lon="-3.888141">
        <ele>38.363</ele>
        <time>2021-06-16T13:40:33Z</time>
      </trkpt>
      <trkpt lat="36.747158" lon="-3.888291">
        <ele>38.382</ele>
        <time>2021-06-16T13:40:34Z</time>
      </trkpt>
      <trkpt lat="36.747109" lon="-3.888599">
        <ele>38.395</ele>
        <time>2021-06-16T13:40:36Z</time>
      </trkpt>
      <trkpt lat="36.747062" lon="-3.888915">
        <ele>38.382</ele>
        <time>2021-06-16T13:40:38Z</time>
      </trkpt>
      <trkpt lat="36.747039" lon="-3.889075">
        <ele>38.349</ele>
        <time>2021-06-16T13:40:39Z</time>
      </trkpt>
      <trkpt lat="36.747017" lon="-3.889237">
        <ele>38.339</ele>
        <time>2021-06-16T13:40:40Z</time>
      </trkpt>
      <trkpt lat="36.74699" lon="-3.889404">
        <ele>38.331</ele>
        <time>2021-06-16T13:40:41Z</time>
      </trkpt>
      <trkpt lat="36.746961" lon="-3.889573">
        <ele>38.361</ele>
        <time>2021-06-16T13:40:42Z</time>
      </trkpt>
      <trkpt lat="36.746932" lon="-3.889742">
        <ele>38.307</ele>
        <time>2021-06-16T13:40:43Z</time>
      </trkpt>
      <trkpt lat="36.74687" lon="-3.890084">
        <ele>34.308</ele>
        <time>2021-06-16T13:40:45Z</time>
      </trkpt>
      <trkpt lat="36.746839" lon="-3.89026">
        <ele>30.310</ele>
        <time>2021-06-16T13:40:46Z</time>
      </trkpt>
      <trkpt lat="36.746781" lon="-3.890614">
        <ele>26.478</ele>
        <time>2021-06-16T13:40:48Z</time>
      </trkpt>
      <trkpt lat="36.74672" lon="-3.890974">
        <ele>23.872</ele>
        <time>2021-06-16T13:40:50Z</time>
      </trkpt>
      <trkpt lat="36.746654" lon="-3.89134">
        <ele>21.971</ele>
        <time>2021-06-16T13:40:52Z</time>
      </trkpt>
      <trkpt lat="36.746623" lon="-3.891527">
        <ele>20.674</ele>
        <time>2021-06-16T13:40:53Z</time>
      </trkpt>
      <trkpt lat="36.74657" lon="-3.891898">
        <ele>19.751</ele>
        <time>2021-06-16T13:40:55Z</time>
      </trkpt>
      <trkpt lat="36.746513" lon="-3.892255">
        <ele>19.078</ele>
        <time>2021-06-16T13:40:57Z</time>
      </trkpt>
      <trkpt lat="36.746458" lon="-3.89259">
        <ele>18.288</ele>
        <time>2021-06-16T13:40:59Z</time>
      </trkpt>
      <trkpt lat="36.746431" lon="-3.892755">
        <ele>17.577</ele>
        <time>2021-06-16T13:41:00Z</time>
      </trkpt>
      <trkpt lat="36.746405" lon="-3.892918">
        <ele>17.061</ele>
        <time>2021-06-16T13:41:01Z</time>
      </trkpt>
      <trkpt lat="36.746354" lon="-3.89323">
        <ele>16.227</ele>
        <time>2021-06-16T13:41:03Z</time>
      </trkpt>
      <trkpt lat="36.746305" lon="-3.893529">
        <ele>15.408</ele>
        <time>2021-06-16T13:41:05Z</time>
      </trkpt>
      <trkpt lat="36.746283" lon="-3.893676">
        <ele>15.064</ele>
        <time>2021-06-16T13:41:06Z</time>
      </trkpt>
      <trkpt lat="36.746239" lon="-3.893963">
        <ele>14.632</ele>
        <time>2021-06-16T13:41:08Z</time>
      </trkpt>
      <trkpt lat="36.746214" lon="-3.894104">
        <ele>14.386</ele>
        <time>2021-06-16T13:41:09Z</time>
      </trkpt>
      <trkpt lat="36.746169" lon="-3.894389">
        <ele>14.045</ele>
        <time>2021-06-16T13:41:11Z</time>
      </trkpt>
      <trkpt lat="36.746113" lon="-3.894699">
        <ele>13.468</ele>
        <time>2021-06-16T13:41:13Z</time>
      </trkpt>
      <trkpt lat="36.746057" lon="-3.89501">
        <ele>12.725</ele>
        <time>2021-06-16T13:41:15Z</time>
      </trkpt>
      <trkpt lat="36.746026" lon="-3.895174">
        <ele>12.112</ele>
        <time>2021-06-16T13:41:16Z</time>
      </trkpt>
      <trkpt lat="36.745999" lon="-3.895343">
        <ele>11.822</ele>
        <time>2021-06-16T13:41:17Z</time>
      </trkpt>
      <trkpt lat="36.745942" lon="-3.895688">
        <ele>11.347</ele>
        <time>2021-06-16T13:41:19Z</time>
      </trkpt>
      <trkpt lat="36.745913" lon="-3.895863">
        <ele>11.029</ele>
        <time>2021-06-16T13:41:20Z</time>
      </trkpt>
      <trkpt lat="36.745854" lon="-3.896218">
        <ele>10.521</ele>
        <time>2021-06-16T13:41:22Z</time>
      </trkpt>
      <trkpt lat="36.745825" lon="-3.896393">
        <ele>10.008</ele>
        <time>2021-06-16T13:41:23Z</time>
      </trkpt>
      <trkpt lat="36.745796" lon="-3.896568">
        <ele>9.381</ele>
        <time>2021-06-16T13:41:24Z</time>
      </trkpt>
      <trkpt lat="36.745737" lon="-3.896909">
        <ele>8.879</ele>
        <time>2021-06-16T13:41:26Z</time>
      </trkpt>
      <trkpt lat="36.745707" lon="-3.897071">
        <ele>8.333</ele>
        <time>2021-06-16T13:41:27Z</time>
      </trkpt>
      <trkpt lat="36.745648" lon="-3.897376">
        <ele>8.152</ele>
        <time>2021-06-16T13:41:29Z</time>
      </trkpt>
      <trkpt lat="36.7456" lon="-3.897666">
        <ele>8.295</ele>
        <time>2021-06-16T13:41:31Z</time>
      </trkpt>
      <trkpt lat="36.745555" lon="-3.897963">
        <ele>8.042</ele>
        <time>2021-06-16T13:41:33Z</time>
      </trkpt>
      <trkpt lat="36.74553" lon="-3.89811">
        <ele>7.969</ele>
        <time>2021-06-16T13:41:34Z</time>
      </trkpt>
      <trkpt lat="36.745479" lon="-3.898397">
        <ele>7.929</ele>
        <time>2021-06-16T13:41:36Z</time>
      </trkpt>
      <trkpt lat="36.745455" lon="-3.898541">
        <ele>8.295</ele>
        <time>2021-06-16T13:41:37Z</time>
      </trkpt>
      <trkpt lat="36.745404" lon="-3.898832">
        <ele>8.449</ele>
        <time>2021-06-16T13:41:39Z</time>
      </trkpt>
      <trkpt lat="36.74538" lon="-3.898979">
        <ele>8.623</ele>
        <time>2021-06-16T13:41:40Z</time>
      </trkpt>
      <trkpt lat="36.745358" lon="-3.899126">
        <ele>8.808</ele>
        <time>2021-06-16T13:41:41Z</time>
      </trkpt>
      <trkpt lat="36.745336" lon="-3.899275">
        <ele>8.796</ele>
        <time>2021-06-16T13:41:42Z</time>
      </trkpt>
      <trkpt lat="36.745288" lon="-3.899572">
        <ele>9.054</ele>
        <time>2021-06-16T13:41:44Z</time>
      </trkpt>
      <trkpt lat="36.745265" lon="-3.899721">
        <ele>9.338</ele>
        <time>2021-06-16T13:41:45Z</time>
      </trkpt>
      <trkpt lat="36.745218" lon="-3.900016">
        <ele>9.167</ele>
        <time>2021-06-16T13:41:47Z</time>
      </trkpt>
      <trkpt lat="36.745191" lon="-3.900168">
        <ele>9.250</ele>
        <time>2021-06-16T13:41:48Z</time>
      </trkpt>
      <trkpt lat="36.745166" lon="-3.900316">
        <ele>9.287</ele>
        <time>2021-06-16T13:41:49Z</time>
      </trkpt>
      <trkpt lat="36.74512" lon="-3.900592">
        <ele>9.474</ele>
        <time>2021-06-16T13:41:51Z</time>
      </trkpt>
      <trkpt lat="36.745097" lon="-3.900721">
        <ele>9.444</ele>
        <time>2021-06-16T13:41:52Z</time>
      </trkpt>
      <trkpt lat="36.745059" lon="-3.90098">
        <ele>10.333</ele>
        <time>2021-06-16T13:41:54Z</time>
      </trkpt>
      <trkpt lat="36.74502" lon="-3.901244">
        <ele>10.823</ele>
        <time>2021-06-16T13:41:56Z</time>
      </trkpt>
      <trkpt lat="36.744976" lon="-3.901509">
        <ele>11.115</ele>
        <time>2021-06-16T13:41:58Z</time>
      </trkpt>
      <trkpt lat="36.744932" lon="-3.901779">
        <ele>11.508</ele>
        <time>2021-06-16T13:42:00Z</time>
      </trkpt>
      <trkpt lat="36.74489" lon="-3.902049">
        <ele>11.830</ele>
        <time>2021-06-16T13:42:02Z</time>
      </trkpt>
      <trkpt lat="36.744841" lon="-3.902326">
        <ele>12.358</ele>
        <time>2021-06-16T13:42:04Z</time>
      </trkpt>
      <trkpt lat="36.744784" lon="-3.902617">
        <ele>12.772</ele>
        <time>2021-06-16T13:42:06Z</time>
      </trkpt>
      <trkpt lat="36.744758" lon="-3.902768">
        <ele>13.181</ele>
        <time>2021-06-16T13:42:07Z</time>
      </trkpt>
      <trkpt lat="36.744701" lon="-3.903066">
        <ele>13.584</ele>
        <time>2021-06-16T13:42:09Z</time>
      </trkpt>
      <trkpt lat="36.744612" lon="-3.903324">
        <ele>14.171</ele>
        <time>2021-06-16T13:42:11Z</time>
      </trkpt>
      <trkpt lat="36.744489" lon="-3.90351">
        <ele>14.878</ele>
        <time>2021-06-16T13:42:13Z</time>
      </trkpt>
      <trkpt lat="36.744429" lon="-3.903585">
        <ele>15.618</ele>
        <time>2021-06-16T13:42:14Z</time>
      </trkpt>
      <trkpt lat="36.744328" lon="-3.903735">
        <ele>16.541</ele>
        <time>2021-06-16T13:42:16Z</time>
      </trkpt>
      <trkpt lat="36.744224" lon="-3.90389">
        <ele>17.081</ele>
        <time>2021-06-16T13:42:18Z</time>
      </trkpt>
      <trkpt lat="36.74415" lon="-3.903947">
        <ele>17.009</ele>
        <time>2021-06-16T13:42:19Z</time>
      </trkpt>
      <trkpt lat="36.743972" lon="-3.904063">
        <ele>17.408</ele>
        <time>2021-06-16T13:42:21Z</time>
      </trkpt>
      <trkpt lat="36.743886" lon="-3.904148">
        <ele>17.781</ele>
        <time>2021-06-16T13:42:22Z</time>
      </trkpt>
      <trkpt lat="36.743734" lon="-3.904364">
        <ele>18.529</ele>
        <time>2021-06-16T13:42:24Z</time>
      </trkpt>
      <trkpt lat="36.743604" lon="-3.904613">
        <ele>19.653</ele>
        <time>2021-06-16T13:42:26Z</time>
      </trkpt>
      <trkpt lat="36.7435" lon="-3.904895">
        <ele>20.792</ele>
        <time>2021-06-16T13:42:28Z</time>
      </trkpt>
      <trkpt lat="36.743461" lon="-3.90505">
        <ele>21.585</ele>
        <time>2021-06-16T13:42:29Z</time>
      </trkpt>
      <trkpt lat="36.743436" lon="-3.905219">
        <ele>22.012</ele>
        <time>2021-06-16T13:42:30Z</time>
      </trkpt>
      <trkpt lat="36.743426" lon="-3.905575">
        <ele>23.089</ele>
        <time>2021-06-16T13:42:32Z</time>
      </trkpt>
      <trkpt lat="36.743443" lon="-3.905754">
        <ele>23.729</ele>
        <time>2021-06-16T13:42:33Z</time>
      </trkpt>
      <trkpt lat="36.743496" lon="-3.906087">
        <ele>24.265</ele>
        <time>2021-06-16T13:42:35Z</time>
      </trkpt>
      <trkpt lat="36.743519" lon="-3.906248">
        <ele>24.468</ele>
        <time>2021-06-16T13:42:36Z</time>
      </trkpt>
      <trkpt lat="36.743539" lon="-3.906409">
        <ele>24.514</ele>
        <time>2021-06-16T13:42:37Z</time>
      </trkpt>
      <trkpt lat="36.743532" lon="-3.906723">
        <ele>24.608</ele>
        <time>2021-06-16T13:42:39Z</time>
      </trkpt>
      <trkpt lat="36.74351" lon="-3.906868">
        <ele>24.653</ele>
        <time>2021-06-16T13:42:40Z</time>
      </trkpt>
      <trkpt lat="36.74345" lon="-3.907111">
        <ele>24.691</ele>
        <time>2021-06-16T13:42:42Z</time>
      </trkpt>
      <trkpt lat="36.743418" lon="-3.907218">
        <ele>24.695</ele>
        <time>2021-06-16T13:42:43Z</time>
      </trkpt>
      <trkpt lat="36.743392" lon="-3.90743">
        <ele>24.444</ele>
        <time>2021-06-16T13:42:45Z</time>
      </trkpt>
      <trkpt lat="36.743413" lon="-3.90763">
        <ele>24.337</ele>
        <time>2021-06-16T13:42:47Z</time>
      </trkpt>
      <trkpt lat="36.743427" lon="-3.907725">
        <ele>24.114</ele>
        <time>2021-06-16T13:42:48Z</time>
      </trkpt>
      <trkpt lat="36.743408" lon="-3.907922">
        <ele>23.861</ele>
        <time>2021-06-16T13:42:50Z</time>
      </trkpt>
      <trkpt lat="36.743307" lon="-3.908116">
        <ele>23.641</ele>
        <time>2021-06-16T13:42:52Z</time>
      </trkpt>
      <trkpt lat="36.743238" lon="-3.908216">
        <ele>23.651</ele>
        <time>2021-06-16T13:42:53Z</time>
      </trkpt>
      <trkpt lat="36.743102" lon="-3.908439">
        <ele>23.401</ele>
        <time>2021-06-16T13:42:55Z</time>
      </trkpt>
      <trkpt lat="36.743042" lon="-3.908565">
        <ele>23.011</ele>
        <time>2021-06-16T13:42:56Z</time>
      </trkpt>
      <trkpt lat="36.742946" lon="-3.908839">
        <ele>22.708</ele>
        <time>2021-06-16T13:42:58Z</time>
      </trkpt>
      <trkpt lat="36.742907" lon="-3.908978">
        <ele>22.522</ele>
        <time>2021-06-16T13:42:59Z</time>
      </trkpt>
      <trkpt lat="36.742877" lon="-3.909124">
        <ele>22.180</ele>
        <time>2021-06-16T13:43:00Z</time>
      </trkpt>
      <trkpt lat="36.742852" lon="-3.909275">
        <ele>22.524</ele>
        <time>2021-06-16T13:43:01Z</time>
      </trkpt>
      <trkpt lat="36.742832" lon="-3.909585">
        <ele>22.163</ele>
        <time>2021-06-16T13:43:03Z</time>
      </trkpt>
      <trkpt lat="36.742834" lon="-3.909744">
        <ele>21.316</ele>
        <time>2021-06-16T13:43:04Z</time>
      </trkpt>
      <trkpt lat="36.742853" lon="-3.910063">
        <ele>20.263</ele>
        <time>2021-06-16T13:43:06Z</time>
      </trkpt>
      <trkpt lat="36.742871" lon="-3.910226">
        <ele>19.490</ele>
        <time>2021-06-16T13:43:07Z</time>
      </trkpt>
      <trkpt lat="36.742908" lon="-3.910556">
        <ele>18.770</ele>
        <time>2021-06-16T13:43:09Z</time>
      </trkpt>
      <trkpt lat="36.742946" lon="-3.910877">
        <ele>18.455</ele>
        <time>2021-06-16T13:43:11Z</time>
      </trkpt>
      <trkpt lat="36.742978" lon="-3.911191">
        <ele>17.707</ele>
        <time>2021-06-16T13:43:13Z</time>
      </trkpt>
      <trkpt lat="36.743003" lon="-3.911512">
        <ele>16.717</ele>
        <time>2021-06-16T13:43:15Z</time>
      </trkpt>
      <trkpt lat="36.74304" lon="-3.91182">
        <ele>16.208</ele>
        <time>2021-06-16T13:43:17Z</time>
      </trkpt>
      <trkpt lat="36.743052" lon="-3.911972">
        <ele>16.122</ele>
        <time>2021-06-16T13:43:18Z</time>
      </trkpt>
      <trkpt lat="36.743036" lon="-3.912271">
        <ele>14.780</ele>
        <time>2021-06-16T13:43:20Z</time>
      </trkpt>
      <trkpt lat="36.743019" lon="-3.91242">
        <ele>13.874</ele>
        <time>2021-06-16T13:43:21Z</time>
      </trkpt>
      <trkpt lat="36.742994" lon="-3.912566">
        <ele>12.443</ele>
        <time>2021-06-16T13:43:22Z</time>
      </trkpt>
      <trkpt lat="36.742919" lon="-3.91285">
        <ele>11.456</ele>
        <time>2021-06-16T13:43:24Z</time>
      </trkpt>
      <trkpt lat="36.742868" lon="-3.912992">
        <ele>10.833</ele>
        <time>2021-06-16T13:43:25Z</time>
      </trkpt>
      <trkpt lat="36.742749" lon="-3.913269">
        <ele>10.430</ele>
        <time>2021-06-16T13:43:27Z</time>
      </trkpt>
      <trkpt lat="36.742594" lon="-3.913518">
        <ele>10.150</ele>
        <time>2021-06-16T13:43:29Z</time>
      </trkpt>
      <trkpt lat="36.742426" lon="-3.913749">
        <ele>10.016</ele>
        <time>2021-06-16T13:43:31Z</time>
      </trkpt>
      <trkpt lat="36.742344" lon="-3.913865">
        <ele>10.276</ele>
        <time>2021-06-16T13:43:32Z</time>
      </trkpt>
      <trkpt lat="36.742193" lon="-3.914099">
        <ele>9.913</ele>
        <time>2021-06-16T13:43:34Z</time>
      </trkpt>
      <trkpt lat="36.742054" lon="-3.914325">
        <ele>9.708</ele>
        <time>2021-06-16T13:43:36Z</time>
      </trkpt>
      <trkpt lat="36.741929" lon="-3.914578">
        <ele>9.878</ele>
        <time>2021-06-16T13:43:38Z</time>
      </trkpt>
      <trkpt lat="36.74187" lon="-3.914717">
        <ele>9.986</ele>
        <time>2021-06-16T13:43:39Z</time>
      </trkpt>
      <trkpt lat="36.741812" lon="-3.914865">
        <ele>9.850</ele>
        <time>2021-06-16T13:43:40Z</time>
      </trkpt>
      <trkpt lat="36.741701" lon="-3.915185">
        <ele>9.499</ele>
        <time>2021-06-16T13:43:42Z</time>
      </trkpt>
      <trkpt lat="36.7416" lon="-3.915491">
        <ele>9.142</ele>
        <time>2021-06-16T13:43:44Z</time>
      </trkpt>
      <trkpt lat="36.741551" lon="-3.91563">
        <ele>9.019</ele>
        <time>2021-06-16T13:43:45Z</time>
      </trkpt>
      <trkpt lat="36.741462" lon="-3.915895">
        <ele>8.626</ele>
        <time>2021-06-16T13:43:47Z</time>
      </trkpt>
      <trkpt lat="36.741419" lon="-3.916033">
        <ele>8.726</ele>
        <time>2021-06-16T13:43:48Z</time>
      </trkpt>
      <trkpt lat="36.741344" lon="-3.916329">
        <ele>8.653</ele>
        <time>2021-06-16T13:43:50Z</time>
      </trkpt>
      <trkpt lat="36.741297" lon="-3.916639">
        <ele>8.704</ele>
        <time>2021-06-16T13:43:52Z</time>
      </trkpt>
      <trkpt lat="36.741283" lon="-3.916793">
        <ele>8.614</ele>
        <time>2021-06-16T13:43:53Z</time>
      </trkpt>
      <trkpt lat="36.741268" lon="-3.917098">
        <ele>8.708</ele>
        <time>2021-06-16T13:43:55Z</time>
      </trkpt>
      <trkpt lat="36.74125" lon="-3.9174">
        <ele>9.482</ele>
        <time>2021-06-16T13:43:57Z</time>
      </trkpt>
      <trkpt lat="36.741242" lon="-3.917549">
        <ele>9.840</ele>
        <time>2021-06-16T13:43:58Z</time>
      </trkpt>
      <trkpt lat="36.741222" lon="-3.917843">
        <ele>10.524</ele>
        <time>2021-06-16T13:44:00Z</time>
      </trkpt>
      <trkpt lat="36.741204" lon="-3.918146">
        <ele>10.383</ele>
        <time>2021-06-16T13:44:02Z</time>
      </trkpt>
      <trkpt lat="36.741193" lon="-3.9183">
        <ele>10.456</ele>
        <time>2021-06-16T13:44:03Z</time>
      </trkpt>
      <trkpt lat="36.741184" lon="-3.918453">
        <ele>10.823</ele>
        <time>2021-06-16T13:44:04Z</time>
      </trkpt>
      <trkpt lat="36.74116" lon="-3.918755">
        <ele>11.230</ele>
        <time>2021-06-16T13:44:06Z</time>
      </trkpt>
      <trkpt lat="36.741142" lon="-3.919052">
        <ele>11.320</ele>
        <time>2021-06-16T13:44:08Z</time>
      </trkpt>
      <trkpt lat="36.741134" lon="-3.919202">
        <ele>11.526</ele>
        <time>2021-06-16T13:44:09Z</time>
      </trkpt>
      <trkpt lat="36.741117" lon="-3.919503">
        <ele>11.447</ele>
        <time>2021-06-16T13:44:11Z</time>
      </trkpt>
      <trkpt lat="36.741095" lon="-3.919811">
        <ele>11.511</ele>
        <time>2021-06-16T13:44:13Z</time>
      </trkpt>
      <trkpt lat="36.741074" lon="-3.920123">
        <ele>11.308</ele>
        <time>2021-06-16T13:44:15Z</time>
      </trkpt>
      <trkpt lat="36.741053" lon="-3.920437">
        <ele>11.589</ele>
        <time>2021-06-16T13:44:17Z</time>
      </trkpt>
      <trkpt lat="36.741006" lon="-3.920801">
        <ele>11.347</ele>
        <time>2021-06-16T13:44:19Z</time>
      </trkpt>
      <trkpt lat="36.740936" lon="-3.921235">
        <ele>11.551</ele>
        <time>2021-06-16T13:44:21Z</time>
      </trkpt>
      <trkpt lat="36.740832" lon="-3.921644">
        <ele>11.580</ele>
        <time>2021-06-16T13:44:23Z</time>
      </trkpt>
      <trkpt lat="36.740677" lon="-3.922011">
        <ele>11.183</ele>
        <time>2021-06-16T13:44:25Z</time>
      </trkpt>
      <trkpt lat="36.7405" lon="-3.922357">
        <ele>11.390</ele>
        <time>2021-06-16T13:44:27Z</time>
      </trkpt>
      <trkpt lat="36.740406" lon="-3.922528">
        <ele>11.457</ele>
        <time>2021-06-16T13:44:28Z</time>
      </trkpt>
      <trkpt lat="36.740309" lon="-3.922699">
        <ele>11.497</ele>
        <time>2021-06-16T13:44:29Z</time>
      </trkpt>
      <trkpt lat="36.740211" lon="-3.922873">
        <ele>11.413</ele>
        <time>2021-06-16T13:44:30Z</time>
      </trkpt>
      <trkpt lat="36.740018" lon="-3.923223">
        <ele>11.743</ele>
        <time>2021-06-16T13:44:32Z</time>
      </trkpt>
      <trkpt lat="36.739923" lon="-3.923401">
        <ele>11.907</ele>
        <time>2021-06-16T13:44:33Z</time>
      </trkpt>
      <trkpt lat="36.739827" lon="-3.923576">
        <ele>12.208</ele>
        <time>2021-06-16T13:44:34Z</time>
      </trkpt>
      <trkpt lat="36.739637" lon="-3.923925">
        <ele>12.358</ele>
        <time>2021-06-16T13:44:36Z</time>
      </trkpt>
      <trkpt lat="36.739543" lon="-3.924104">
        <ele>12.416</ele>
        <time>2021-06-16T13:44:37Z</time>
      </trkpt>
      <trkpt lat="36.739359" lon="-3.924452">
        <ele>12.680</ele>
        <time>2021-06-16T13:44:39Z</time>
      </trkpt>
      <trkpt lat="36.739268" lon="-3.924625">
        <ele>12.869</ele>
        <time>2021-06-16T13:44:40Z</time>
      </trkpt>
      <trkpt lat="36.739077" lon="-3.924955">
        <ele>12.972</ele>
        <time>2021-06-16T13:44:42Z</time>
      </trkpt>
      <trkpt lat="36.73887" lon="-3.92527">
        <ele>13.939</ele>
        <time>2021-06-16T13:44:44Z</time>
      </trkpt>
      <trkpt lat="36.738758" lon="-3.925418">
        <ele>14.626</ele>
        <time>2021-06-16T13:44:45Z</time>
      </trkpt>
      <trkpt lat="36.738639" lon="-3.925557">
        <ele>14.696</ele>
        <time>2021-06-16T13:44:46Z</time>
      </trkpt>
      <trkpt lat="36.738391" lon="-3.925811">
        <ele>14.875</ele>
        <time>2021-06-16T13:44:48Z</time>
      </trkpt>
      <trkpt lat="36.738118" lon="-3.92603">
        <ele>15.028</ele>
        <time>2021-06-16T13:44:50Z</time>
      </trkpt>
      <trkpt lat="36.737978" lon="-3.926133">
        <ele>15.220</ele>
        <time>2021-06-16T13:44:51Z</time>
      </trkpt>
      <trkpt lat="36.737834" lon="-3.926235">
        <ele>15.108</ele>
        <time>2021-06-16T13:44:52Z</time>
      </trkpt>
      <trkpt lat="36.737697" lon="-3.926353">
        <ele>15.094</ele>
        <time>2021-06-16T13:44:53Z</time>
      </trkpt>
      <trkpt lat="36.737479" lon="-3.926658">
        <ele>14.732</ele>
        <time>2021-06-16T13:44:55Z</time>
      </trkpt>
      <trkpt lat="36.737399" lon="-3.926843">
        <ele>15.056</ele>
        <time>2021-06-16T13:44:56Z</time>
      </trkpt>
      <trkpt lat="36.73734" lon="-3.927041">
        <ele>15.215</ele>
        <time>2021-06-16T13:44:57Z</time>
      </trkpt>
      <trkpt lat="36.737282" lon="-3.927462">
        <ele>14.928</ele>
        <time>2021-06-16T13:44:59Z</time>
      </trkpt>
      <trkpt lat="36.737258" lon="-3.927894">
        <ele>15.165</ele>
        <time>2021-06-16T13:45:01Z</time>
      </trkpt>
      <trkpt lat="36.737236" lon="-3.928109">
        <ele>15.132</ele>
        <time>2021-06-16T13:45:02Z</time>
      </trkpt>
      <trkpt lat="36.737207" lon="-3.928323">
        <ele>15.222</ele>
        <time>2021-06-16T13:45:03Z</time>
      </trkpt>
      <trkpt lat="36.737099" lon="-3.928744">
        <ele>14.859</ele>
        <time>2021-06-16T13:45:05Z</time>
      </trkpt>
      <trkpt lat="36.737022" lon="-3.92895">
        <ele>14.403</ele>
        <time>2021-06-16T13:45:06Z</time>
      </trkpt>
      <trkpt lat="36.736858" lon="-3.92936">
        <ele>14.323</ele>
        <time>2021-06-16T13:45:08Z</time>
      </trkpt>
      <trkpt lat="36.736731" lon="-3.929785">
        <ele>13.808</ele>
        <time>2021-06-16T13:45:10Z</time>
      </trkpt>
      <trkpt lat="36.736679" lon="-3.930003">
        <ele>13.422</ele>
        <time>2021-06-16T13:45:11Z</time>
      </trkpt>
      <trkpt lat="36.736638" lon="-3.930225">
        <ele>12.730</ele>
        <time>2021-06-16T13:45:12Z</time>
      </trkpt>
      <trkpt lat="36.736603" lon="-3.930449">
        <ele>12.284</ele>
        <time>2021-06-16T13:45:13Z</time>
      </trkpt>
      <trkpt lat="36.736537" lon="-3.930887">
        <ele>11.633</ele>
        <time>2021-06-16T13:45:15Z</time>
      </trkpt>
      <trkpt lat="36.736496" lon="-3.931101">
        <ele>11.296</ele>
        <time>2021-06-16T13:45:16Z</time>
      </trkpt>
      <trkpt lat="36.73639" lon="-3.931514">
        <ele>10.853</ele>
        <time>2021-06-16T13:45:18Z</time>
      </trkpt>
      <trkpt lat="36.736324" lon="-3.931705">
        <ele>10.530</ele>
        <time>2021-06-16T13:45:19Z</time>
      </trkpt>
      <trkpt lat="36.736248" lon="-3.931879">
        <ele>10.470</ele>
        <time>2021-06-16T13:45:20Z</time>
      </trkpt>
      <trkpt lat="36.736103" lon="-3.932165">
        <ele>10.645</ele>
        <time>2021-06-16T13:45:22Z</time>
      </trkpt>
      <trkpt lat="36.736035" lon="-3.932288">
        <ele>10.847</ele>
        <time>2021-06-16T13:45:23Z</time>
      </trkpt>
      <trkpt lat="36.735905" lon="-3.932521">
        <ele>10.711</ele>
        <time>2021-06-16T13:45:25Z</time>
      </trkpt>
      <trkpt lat="36.735841" lon="-3.932638">
        <ele>10.908</ele>
        <time>2021-06-16T13:45:26Z</time>
      </trkpt>
      <trkpt lat="36.735776" lon="-3.932758">
        <ele>11.291</ele>
        <time>2021-06-16T13:45:27Z</time>
      </trkpt>
      <trkpt lat="36.735641" lon="-3.933002">
        <ele>11.399</ele>
        <time>2021-06-16T13:45:29Z</time>
      </trkpt>
      <trkpt lat="36.735574" lon="-3.933125">
        <ele>11.553</ele>
        <time>2021-06-16T13:45:30Z</time>
      </trkpt>
      <trkpt lat="36.735513" lon="-3.933249">
        <ele>11.772</ele>
        <time>2021-06-16T13:45:31Z</time>
      </trkpt>
      <trkpt lat="36.735406" lon="-3.933509">
        <ele>11.525</ele>
        <time>2021-06-16T13:45:33Z</time>
      </trkpt>
      <trkpt lat="36.735337" lon="-3.933806">
        <ele>11.542</ele>
        <time>2021-06-16T13:45:35Z</time>
      </trkpt>
      <trkpt lat="36.735318" lon="-3.933958">
        <ele>11.499</ele>
        <time>2021-06-16T13:45:36Z</time>
      </trkpt>
      <trkpt lat="36.735251" lon="-3.934241">
        <ele>11.559</ele>
        <time>2021-06-16T13:45:38Z</time>
      </trkpt>
      <trkpt lat="36.735098" lon="-3.934495">
        <ele>11.367</ele>
        <time>2021-06-16T13:45:40Z</time>
      </trkpt>
      <trkpt lat="36.734942" lon="-3.934773">
        <ele>11.181</ele>
        <time>2021-06-16T13:45:42Z</time>
      </trkpt>
      <trkpt lat="36.734879" lon="-3.934934">
        <ele>10.619</ele>
        <time>2021-06-16T13:45:43Z</time>
      </trkpt>
      <trkpt lat="36.734823" lon="-3.935105">
        <ele>10.708</ele>
        <time>2021-06-16T13:45:44Z</time>
      </trkpt>
      <trkpt lat="36.734724" lon="-3.935457">
        <ele>10.963</ele>
        <time>2021-06-16T13:45:46Z</time>
      </trkpt>
      <trkpt lat="36.734681" lon="-3.935634">
        <ele>10.681</ele>
        <time>2021-06-16T13:45:47Z</time>
      </trkpt>
      <trkpt lat="36.7346" lon="-3.93597">
        <ele>10.445</ele>
        <time>2021-06-16T13:45:49Z</time>
      </trkpt>
      <trkpt lat="36.73456" lon="-3.936133">
        <ele>9.974</ele>
        <time>2021-06-16T13:45:50Z</time>
      </trkpt>
      <trkpt lat="36.734517" lon="-3.936292">
        <ele>9.717</ele>
        <time>2021-06-16T13:45:51Z</time>
      </trkpt>
      <trkpt lat="36.734421" lon="-3.9366">
        <ele>9.274</ele>
        <time>2021-06-16T13:45:53Z</time>
      </trkpt>
      <trkpt lat="36.734366" lon="-3.936753">
        <ele>8.931</ele>
        <time>2021-06-16T13:45:54Z</time>
      </trkpt>
      <trkpt lat="36.734309" lon="-3.936904">
        <ele>8.751</ele>
        <time>2021-06-16T13:45:55Z</time>
      </trkpt>
      <trkpt lat="36.734249" lon="-3.937052">
        <ele>8.487</ele>
        <time>2021-06-16T13:45:56Z</time>
      </trkpt>
      <trkpt lat="36.734193" lon="-3.937196">
        <ele>8.042</ele>
        <time>2021-06-16T13:45:57Z</time>
      </trkpt>
      <trkpt lat="36.734097" lon="-3.937445">
        <ele>7.626</ele>
        <time>2021-06-16T13:45:59Z</time>
      </trkpt>
      <trkpt lat="36.734059" lon="-3.937547">
        <ele>7.708</ele>
        <time>2021-06-16T13:46:00Z</time>
      </trkpt>
      <trkpt lat="36.734024" lon="-3.937641">
        <ele>7.635</ele>
        <time>2021-06-16T13:46:01Z</time>
      </trkpt>
      <trkpt lat="36.733952" lon="-3.937834">
        <ele>7.273</ele>
        <time>2021-06-16T13:46:03Z</time>
      </trkpt>
      <trkpt lat="36.733915" lon="-3.937944">
        <ele>7.357</ele>
        <time>2021-06-16T13:46:04Z</time>
      </trkpt>
      <trkpt lat="36.733837" lon="-3.938183">
        <ele>7.496</ele>
        <time>2021-06-16T13:46:06Z</time>
      </trkpt>
      <trkpt lat="36.733757" lon="-3.93843">
        <ele>7.619</ele>
        <time>2021-06-16T13:46:08Z</time>
      </trkpt>
      <trkpt lat="36.733717" lon="-3.938556">
        <ele>7.496</ele>
        <time>2021-06-16T13:46:09Z</time>
      </trkpt>
      <trkpt lat="36.733637" lon="-3.938808">
        <ele>7.063</ele>
        <time>2021-06-16T13:46:11Z</time>
      </trkpt>
      <trkpt lat="36.733559" lon="-3.939067">
        <ele>6.913</ele>
        <time>2021-06-16T13:46:13Z</time>
      </trkpt>
      <trkpt lat="36.73348" lon="-3.939339">
        <ele>7.033</ele>
        <time>2021-06-16T13:46:15Z</time>
      </trkpt>
      <trkpt lat="36.733397" lon="-3.939618">
        <ele>7.323</ele>
        <time>2021-06-16T13:46:17Z</time>
      </trkpt>
      <trkpt lat="36.733351" lon="-3.93976">
        <ele>7.315</ele>
        <time>2021-06-16T13:46:18Z</time>
      </trkpt>
      <trkpt lat="36.733258" lon="-3.940043">
        <ele>7.308</ele>
        <time>2021-06-16T13:46:20Z</time>
      </trkpt>
      <trkpt lat="36.733213" lon="-3.940184">
        <ele>6.920</ele>
        <time>2021-06-16T13:46:21Z</time>
      </trkpt>
      <trkpt lat="36.733171" lon="-3.940324">
        <ele>6.828</ele>
        <time>2021-06-16T13:46:22Z</time>
      </trkpt>
      <trkpt lat="36.733085" lon="-3.940602">
        <ele>6.692</ele>
        <time>2021-06-16T13:46:24Z</time>
      </trkpt>
      <trkpt lat="36.733043" lon="-3.940738">
        <ele>6.641</ele>
        <time>2021-06-16T13:46:25Z</time>
      </trkpt>
      <trkpt lat="36.732965" lon="-3.941005">
        <ele>6.234</ele>
        <time>2021-06-16T13:46:27Z</time>
      </trkpt>
      <trkpt lat="36.732884" lon="-3.941269">
        <ele>5.511</ele>
        <time>2021-06-16T13:46:29Z</time>
      </trkpt>
      <trkpt lat="36.732845" lon="-3.941402">
        <ele>4.978</ele>
        <time>2021-06-16T13:46:30Z</time>
      </trkpt>
      <trkpt lat="36.732764" lon="-3.94167">
        <ele>4.438</ele>
        <time>2021-06-16T13:46:32Z</time>
      </trkpt>
      <trkpt lat="36.732679" lon="-3.941949">
        <ele>4.585</ele>
        <time>2021-06-16T13:46:34Z</time>
      </trkpt>
      <trkpt lat="36.732636" lon="-3.94209">
        <ele>4.389</ele>
        <time>2021-06-16T13:46:35Z</time>
      </trkpt>
      <trkpt lat="36.73255" lon="-3.942377">
        <ele>4.517</ele>
        <time>2021-06-16T13:46:37Z</time>
      </trkpt>
      <trkpt lat="36.732506" lon="-3.942524">
        <ele>4.908</ele>
        <time>2021-06-16T13:46:38Z</time>
      </trkpt>
      <trkpt lat="36.732462" lon="-3.942668">
        <ele>5.125</ele>
        <time>2021-06-16T13:46:39Z</time>
      </trkpt>
      <trkpt lat="36.732376" lon="-3.942953">
        <ele>5.133</ele>
        <time>2021-06-16T13:46:41Z</time>
      </trkpt>
      <trkpt lat="36.732336" lon="-3.943095">
        <ele>5.457</ele>
        <time>2021-06-16T13:46:42Z</time>
      </trkpt>
      <trkpt lat="36.732258" lon="-3.943381">
        <ele>5.566</ele>
        <time>2021-06-16T13:46:44Z</time>
      </trkpt>
      <trkpt lat="36.732215" lon="-3.943528">
        <ele>5.289</ele>
        <time>2021-06-16T13:46:45Z</time>
      </trkpt>
      <trkpt lat="36.73214" lon="-3.943803">
        <ele>5.486</ele>
        <time>2021-06-16T13:46:47Z</time>
      </trkpt>
      <trkpt lat="36.732068" lon="-3.944065">
        <ele>6.063</ele>
        <time>2021-06-16T13:46:49Z</time>
      </trkpt>
      <trkpt lat="36.732" lon="-3.944309">
        <ele>6.183</ele>
        <time>2021-06-16T13:46:51Z</time>
      </trkpt>
      <trkpt lat="36.731941" lon="-3.944518">
        <ele>6.611</ele>
        <time>2021-06-16T13:46:53Z</time>
      </trkpt>
      <trkpt lat="36.731885" lon="-3.944719">
        <ele>6.721</ele>
        <time>2021-06-16T13:46:55Z</time>
      </trkpt>
      <trkpt lat="36.731827" lon="-3.944945">
        <ele>7.003</ele>
        <time>2021-06-16T13:46:57Z</time>
      </trkpt>
      <trkpt lat="36.731788" lon="-3.94508">
        <ele>7.008</ele>
        <time>2021-06-16T13:46:58Z</time>
      </trkpt>
      <trkpt lat="36.731745" lon="-3.945227">
        <ele>6.848</ele>
        <time>2021-06-16T13:46:59Z</time>
      </trkpt>
      <trkpt lat="36.731703" lon="-3.945377">
        <ele>6.846</ele>
        <time>2021-06-16T13:47:00Z</time>
      </trkpt>
      <trkpt lat="36.731666" lon="-3.94553">
        <ele>6.980</ele>
        <time>2021-06-16T13:47:01Z</time>
      </trkpt>
      <trkpt lat="36.731632" lon="-3.945683">
        <ele>6.749</ele>
        <time>2021-06-16T13:47:02Z</time>
      </trkpt>
      <trkpt lat="36.731598" lon="-3.94583">
        <ele>6.572</ele>
        <time>2021-06-16T13:47:03Z</time>
      </trkpt>
      <trkpt lat="36.731525" lon="-3.946117">
        <ele>6.349</ele>
        <time>2021-06-16T13:47:05Z</time>
      </trkpt>
      <trkpt lat="36.731488" lon="-3.946266">
        <ele>6.136</ele>
        <time>2021-06-16T13:47:06Z</time>
      </trkpt>
      <trkpt lat="36.731409" lon="-3.946576">
        <ele>5.496</ele>
        <time>2021-06-16T13:47:08Z</time>
      </trkpt>
      <trkpt lat="36.731365" lon="-3.946737">
        <ele>5.247</ele>
        <time>2021-06-16T13:47:09Z</time>
      </trkpt>
      <trkpt lat="36.731278" lon="-3.947054">
        <ele>5.229</ele>
        <time>2021-06-16T13:47:11Z</time>
      </trkpt>
      <trkpt lat="36.731232" lon="-3.947216">
        <ele>5.121</ele>
        <time>2021-06-16T13:47:12Z</time>
      </trkpt>
      <trkpt lat="36.731188" lon="-3.947378">
        <ele>5.208</ele>
        <time>2021-06-16T13:47:13Z</time>
      </trkpt>
      <trkpt lat="36.731096" lon="-3.947712">
        <ele>5.121</ele>
        <time>2021-06-16T13:47:15Z</time>
      </trkpt>
      <trkpt lat="36.731005" lon="-3.948053">
        <ele>4.749</ele>
        <time>2021-06-16T13:47:17Z</time>
      </trkpt>
      <trkpt lat="36.730962" lon="-3.948223">
        <ele>4.843</ele>
        <time>2021-06-16T13:47:18Z</time>
      </trkpt>
      <trkpt lat="36.73087" lon="-3.948561">
        <ele>5.292</ele>
        <time>2021-06-16T13:47:20Z</time>
      </trkpt>
      <trkpt lat="36.730777" lon="-3.948894">
        <ele>5.625</ele>
        <time>2021-06-16T13:47:22Z</time>
      </trkpt>
      <trkpt lat="36.73073" lon="-3.949057">
        <ele>5.982</ele>
        <time>2021-06-16T13:47:23Z</time>
      </trkpt>
      <trkpt lat="36.730687" lon="-3.949222">
        <ele>6.149</ele>
        <time>2021-06-16T13:47:24Z</time>
      </trkpt>
      <trkpt lat="36.730645" lon="-3.949387">
        <ele>6.319</ele>
        <time>2021-06-16T13:47:25Z</time>
      </trkpt>
      <trkpt lat="36.730604" lon="-3.949551">
        <ele>6.362</ele>
        <time>2021-06-16T13:47:26Z</time>
      </trkpt>
      <trkpt lat="36.730514" lon="-3.949882">
        <ele>6.683</ele>
        <time>2021-06-16T13:47:28Z</time>
      </trkpt>
      <trkpt lat="36.730474" lon="-3.950047">
        <ele>7.011</ele>
        <time>2021-06-16T13:47:29Z</time>
      </trkpt>
      <trkpt lat="36.730394" lon="-3.950374">
        <ele>7.408</ele>
        <time>2021-06-16T13:47:31Z</time>
      </trkpt>
      <trkpt lat="36.730353" lon="-3.95054">
        <ele>7.683</ele>
        <time>2021-06-16T13:47:32Z</time>
      </trkpt>
      <trkpt lat="36.730265" lon="-3.950867">
        <ele>8.211</ele>
        <time>2021-06-16T13:47:34Z</time>
      </trkpt>
      <trkpt lat="36.730185" lon="-3.951187">
        <ele>8.825</ele>
        <time>2021-06-16T13:47:36Z</time>
      </trkpt>
      <trkpt lat="36.730148" lon="-3.951347">
        <ele>9.514</ele>
        <time>2021-06-16T13:47:37Z</time>
      </trkpt>
      <trkpt lat="36.730077" lon="-3.951672">
        <ele>10.027</ele>
        <time>2021-06-16T13:47:39Z</time>
      </trkpt>
      <trkpt lat="36.730009" lon="-3.951999">
        <ele>10.534</ele>
        <time>2021-06-16T13:47:41Z</time>
      </trkpt>
      <trkpt lat="36.72996" lon="-3.952316">
        <ele>10.821</ele>
        <time>2021-06-16T13:47:43Z</time>
      </trkpt>
      <trkpt lat="36.72992" lon="-3.95263">
        <ele>11.591</ele>
        <time>2021-06-16T13:47:45Z</time>
      </trkpt>
      <trkpt lat="36.729877" lon="-3.952936">
        <ele>11.932</ele>
        <time>2021-06-16T13:47:47Z</time>
      </trkpt>
      <trkpt lat="36.729863" lon="-3.953074">
        <ele>12.492</ele>
        <time>2021-06-16T13:47:48Z</time>
      </trkpt>
      <trkpt lat="36.729847" lon="-3.953208">
        <ele>12.711</ele>
        <time>2021-06-16T13:47:49Z</time>
      </trkpt>
      <trkpt lat="36.729837" lon="-3.953333">
        <ele>13.108</ele>
        <time>2021-06-16T13:47:50Z</time>
      </trkpt>
      <trkpt lat="36.729844" lon="-3.953563">
        <ele>13.610</ele>
        <time>2021-06-16T13:47:52Z</time>
      </trkpt>
      <trkpt lat="36.729859" lon="-3.953682">
        <ele>13.458</ele>
        <time>2021-06-16T13:47:53Z</time>
      </trkpt>
      <trkpt lat="36.729885" lon="-3.953938">
        <ele>13.292</ele>
        <time>2021-06-16T13:47:55Z</time>
      </trkpt>
      <trkpt lat="36.729846" lon="-3.954196">
        <ele>13.031</ele>
        <time>2021-06-16T13:47:57Z</time>
      </trkpt>
      <trkpt lat="36.729766" lon="-3.954467">
        <ele>12.954</ele>
        <time>2021-06-16T13:47:59Z</time>
      </trkpt>
      <trkpt lat="36.729717" lon="-3.954755">
        <ele>12.811</ele>
        <time>2021-06-16T13:48:01Z</time>
      </trkpt>
      <trkpt lat="36.729683" lon="-3.955045">
        <ele>12.728</ele>
        <time>2021-06-16T13:48:03Z</time>
      </trkpt>
      <trkpt lat="36.729653" lon="-3.955355">
        <ele>12.318</ele>
        <time>2021-06-16T13:48:05Z</time>
      </trkpt>
      <trkpt lat="36.729627" lon="-3.955667">
        <ele>12.579</ele>
        <time>2021-06-16T13:48:07Z</time>
      </trkpt>
      <trkpt lat="36.729601" lon="-3.955987">
        <ele>12.605</ele>
        <time>2021-06-16T13:48:09Z</time>
      </trkpt>
      <trkpt lat="36.729575" lon="-3.956311">
        <ele>12.825</ele>
        <time>2021-06-16T13:48:11Z</time>
      </trkpt>
      <trkpt lat="36.729544" lon="-3.956642">
        <ele>13.308</ele>
        <time>2021-06-16T13:48:13Z</time>
      </trkpt>
      <trkpt lat="36.72953" lon="-3.95681">
        <ele>13.434</ele>
        <time>2021-06-16T13:48:14Z</time>
      </trkpt>
      <trkpt lat="36.729522" lon="-3.95698">
        <ele>13.372</ele>
        <time>2021-06-16T13:48:15Z</time>
      </trkpt>
      <trkpt lat="36.729515" lon="-3.95715">
        <ele>13.356</ele>
        <time>2021-06-16T13:48:16Z</time>
      </trkpt>
      <trkpt lat="36.729519" lon="-3.957492">
        <ele>13.665</ele>
        <time>2021-06-16T13:48:18Z</time>
      </trkpt>
      <trkpt lat="36.729528" lon="-3.957662">
        <ele>13.718</ele>
        <time>2021-06-16T13:48:19Z</time>
      </trkpt>
      <trkpt lat="36.729546" lon="-3.95783">
        <ele>14.045</ele>
        <time>2021-06-16T13:48:20Z</time>
      </trkpt>
      <trkpt lat="36.729572" lon="-3.957999">
        <ele>14.432</ele>
        <time>2021-06-16T13:48:21Z</time>
      </trkpt>
      <trkpt lat="36.729638" lon="-3.958334">
        <ele>14.822</ele>
        <time>2021-06-16T13:48:23Z</time>
      </trkpt>
      <trkpt lat="36.729678" lon="-3.958496">
        <ele>15.117</ele>
        <time>2021-06-16T13:48:24Z</time>
      </trkpt>
      <trkpt lat="36.729757" lon="-3.958813">
        <ele>15.387</ele>
        <time>2021-06-16T13:48:26Z</time>
      </trkpt>
      <trkpt lat="36.729798" lon="-3.958959">
        <ele>15.815</ele>
        <time>2021-06-16T13:48:27Z</time>
      </trkpt>
      <trkpt lat="36.729878" lon="-3.959224">
        <ele>16.108</ele>
        <time>2021-06-16T13:48:29Z</time>
      </trkpt>
      <trkpt lat="36.72996" lon="-3.959445">
        <ele>16.668</ele>
        <time>2021-06-16T13:48:31Z</time>
      </trkpt>
      <trkpt lat="36.730062" lon="-3.959603">
        <ele>17.256</ele>
        <time>2021-06-16T13:48:33Z</time>
      </trkpt>
      <trkpt lat="36.73011" lon="-3.959649">
        <ele>17.560</ele>
        <time>2021-06-16T13:48:34Z</time>
      </trkpt>
      <trkpt lat="36.730182" lon="-3.959703">
        <ele>17.839</ele>
        <time>2021-06-16T13:48:36Z</time>
      </trkpt>
      <trkpt lat="36.730246" lon="-3.959752">
        <ele>18.932</ele>
        <time>2021-06-16T13:48:38Z</time>
      </trkpt>
      <trkpt lat="36.730286" lon="-3.95979">
        <ele>19.399</ele>
        <time>2021-06-16T13:48:39Z</time>
      </trkpt>
      <trkpt lat="36.730417" lon="-3.95987">
        <ele>19.556</ele>
        <time>2021-06-16T13:48:41Z</time>
      </trkpt>
      <trkpt lat="36.730599" lon="-3.959922">
        <ele>19.866</ele>
        <time>2021-06-16T13:48:43Z</time>
      </trkpt>
      <trkpt lat="36.730824" lon="-3.959951">
        <ele>20.342</ele>
        <time>2021-06-16T13:48:45Z</time>
      </trkpt>
      <trkpt lat="36.730942" lon="-3.959967">
        <ele>20.722</ele>
        <time>2021-06-16T13:48:46Z</time>
      </trkpt>
      <trkpt lat="36.73106" lon="-3.959985">
        <ele>21.214</ele>
        <time>2021-06-16T13:48:47Z</time>
      </trkpt>
      <trkpt lat="36.731176" lon="-3.960002">
        <ele>21.508</ele>
        <time>2021-06-16T13:48:48Z</time>
      </trkpt>
      <trkpt lat="36.731402" lon="-3.960043">
        <ele>21.551</ele>
        <time>2021-06-16T13:48:50Z</time>
      </trkpt>
      <trkpt lat="36.731607" lon="-3.960086">
        <ele>22.059</ele>
        <time>2021-06-16T13:48:52Z</time>
      </trkpt>
      <trkpt lat="36.731777" lon="-3.960117">
        <ele>22.093</ele>
        <time>2021-06-16T13:48:54Z</time>
      </trkpt>
      <trkpt lat="36.731929" lon="-3.960143">
        <ele>22.412</ele>
        <time>2021-06-16T13:48:56Z</time>
      </trkpt>
      <trkpt lat="36.731998" lon="-3.960153">
        <ele>22.565</ele>
        <time>2021-06-16T13:48:57Z</time>
      </trkpt>
      <trkpt lat="36.732132" lon="-3.96016">
        <ele>22.632</ele>
        <time>2021-06-16T13:48:59Z</time>
      </trkpt>
      <trkpt lat="36.732283" lon="-3.960147">
        <ele>22.759</ele>
        <time>2021-06-16T13:49:01Z</time>
      </trkpt>
      <trkpt lat="36.732367" lon="-3.960162">
        <ele>22.639</ele>
        <time>2021-06-16T13:49:02Z</time>
      </trkpt>
      <trkpt lat="36.732455" lon="-3.960199">
        <ele>22.762</ele>
        <time>2021-06-16T13:49:03Z</time>
      </trkpt>
      <trkpt lat="36.732653" lon="-3.96026">
        <ele>22.983</ele>
        <time>2021-06-16T13:49:05Z</time>
      </trkpt>
      <trkpt lat="36.732867" lon="-3.960294">
        <ele>23.011</ele>
        <time>2021-06-16T13:49:07Z</time>
      </trkpt>
      <trkpt lat="36.732979" lon="-3.960305">
        <ele>23.308</ele>
        <time>2021-06-16T13:49:08Z</time>
      </trkpt>
      <trkpt lat="36.733203" lon="-3.960298">
        <ele>23.783</ele>
        <time>2021-06-16T13:49:10Z</time>
      </trkpt>
      <trkpt lat="36.733314" lon="-3.960278">
        <ele>24.231</ele>
        <time>2021-06-16T13:49:11Z</time>
      </trkpt>
      <trkpt lat="36.733418" lon="-3.960252">
        <ele>24.565</ele>
        <time>2021-06-16T13:49:12Z</time>
      </trkpt>
      <trkpt lat="36.733614" lon="-3.960182">
        <ele>25.054</ele>
        <time>2021-06-16T13:49:14Z</time>
      </trkpt>
      <trkpt lat="36.733807" lon="-3.960114">
        <ele>25.457</ele>
        <time>2021-06-16T13:49:16Z</time>
      </trkpt>
      <trkpt lat="36.734001" lon="-3.960051">
        <ele>26.024</ele>
        <time>2021-06-16T13:49:18Z</time>
      </trkpt>
      <trkpt lat="36.734103" lon="-3.960018">
        <ele>26.671</ele>
        <time>2021-06-16T13:49:19Z</time>
      </trkpt>
      <trkpt lat="36.734209" lon="-3.959981">
        <ele>27.081</ele>
        <time>2021-06-16T13:49:20Z</time>
      </trkpt>
      <trkpt lat="36.734318" lon="-3.959941">
        <ele>27.419</ele>
        <time>2021-06-16T13:49:21Z</time>
      </trkpt>
      <trkpt lat="36.734433" lon="-3.959902">
        <ele>27.909</ele>
        <time>2021-06-16T13:49:22Z</time>
      </trkpt>
      <trkpt lat="36.734549" lon="-3.959869">
        <ele>28.319</ele>
        <time>2021-06-16T13:49:23Z</time>
      </trkpt>
      <trkpt lat="36.734794" lon="-3.9598">
        <ele>28.908</ele>
        <time>2021-06-16T13:49:25Z</time>
      </trkpt>
      <trkpt lat="36.734921" lon="-3.959768">
        <ele>29.548</ele>
        <time>2021-06-16T13:49:26Z</time>
      </trkpt>
      <trkpt lat="36.735178" lon="-3.959703">
        <ele>30.446</ele>
        <time>2021-06-16T13:49:28Z</time>
      </trkpt>
      <trkpt lat="36.735435" lon="-3.959625">
        <ele>31.460</ele>
        <time>2021-06-16T13:49:30Z</time>
      </trkpt>
      <trkpt lat="36.735557" lon="-3.959582">
        <ele>32.139</ele>
        <time>2021-06-16T13:49:31Z</time>
      </trkpt>
      <trkpt lat="36.735675" lon="-3.95954">
        <ele>32.682</ele>
        <time>2021-06-16T13:49:32Z</time>
      </trkpt>
      <trkpt lat="36.735917" lon="-3.959465">
        <ele>33.429</ele>
        <time>2021-06-16T13:49:34Z</time>
      </trkpt>
      <trkpt lat="36.736175" lon="-3.959418">
        <ele>33.976</ele>
        <time>2021-06-16T13:49:36Z</time>
      </trkpt>
      <trkpt lat="36.736447" lon="-3.959388">
        <ele>34.916</ele>
        <time>2021-06-16T13:49:38Z</time>
      </trkpt>
      <trkpt lat="36.736583" lon="-3.959371">
        <ele>35.492</ele>
        <time>2021-06-16T13:49:39Z</time>
      </trkpt>
      <trkpt lat="36.736845" lon="-3.959326">
        <ele>36.173</ele>
        <time>2021-06-16T13:49:41Z</time>
      </trkpt>
      <trkpt lat="36.736972" lon="-3.95929">
        <ele>36.720</ele>
        <time>2021-06-16T13:49:42Z</time>
      </trkpt>
      <trkpt lat="36.737091" lon="-3.959245">
        <ele>37.208</ele>
        <time>2021-06-16T13:49:43Z</time>
      </trkpt>
      <trkpt lat="36.737327" lon="-3.959137">
        <ele>37.346</ele>
        <time>2021-06-16T13:49:45Z</time>
      </trkpt>
      <trkpt lat="36.737557" lon="-3.959001">
        <ele>37.614</ele>
        <time>2021-06-16T13:49:47Z</time>
      </trkpt>
      <trkpt lat="36.737665" lon="-3.958926">
        <ele>38.088</ele>
        <time>2021-06-16T13:49:48Z</time>
      </trkpt>
      <trkpt lat="36.737863" lon="-3.958794">
        <ele>38.187</ele>
        <time>2021-06-16T13:49:50Z</time>
      </trkpt>
      <trkpt lat="36.737956" lon="-3.958733">
        <ele>38.440</ele>
        <time>2021-06-16T13:49:51Z</time>
      </trkpt>
      <trkpt lat="36.738155" lon="-3.95861">
        <ele>39.027</ele>
        <time>2021-06-16T13:49:53Z</time>
      </trkpt>
      <trkpt lat="36.738366" lon="-3.958465">
        <ele>39.634</ele>
        <time>2021-06-16T13:49:55Z</time>
      </trkpt>
      <trkpt lat="36.738472" lon="-3.958386">
        <ele>39.954</ele>
        <time>2021-06-16T13:49:56Z</time>
      </trkpt>
      <trkpt lat="36.738578" lon="-3.958302">
        <ele>40.127</ele>
        <time>2021-06-16T13:49:57Z</time>
      </trkpt>
      <trkpt lat="36.738779" lon="-3.958124">
        <ele>40.268</ele>
        <time>2021-06-16T13:49:59Z</time>
      </trkpt>
      <trkpt lat="36.738874" lon="-3.958031">
        <ele>39.814</ele>
        <time>2021-06-16T13:50:00Z</time>
      </trkpt>
      <trkpt lat="36.73897" lon="-3.957942">
        <ele>39.408</ele>
        <time>2021-06-16T13:50:01Z</time>
      </trkpt>
      <trkpt lat="36.73916" lon="-3.957771">
        <ele>39.269</ele>
        <time>2021-06-16T13:50:03Z</time>
      </trkpt>
      <trkpt lat="36.739356" lon="-3.957625">
        <ele>38.427</ele>
        <time>2021-06-16T13:50:05Z</time>
      </trkpt>
      <trkpt lat="36.739565" lon="-3.957534">
        <ele>37.221</ele>
        <time>2021-06-16T13:50:07Z</time>
      </trkpt>
      <trkpt lat="36.739782" lon="-3.957512">
        <ele>36.730</ele>
        <time>2021-06-16T13:50:09Z</time>
      </trkpt>
      <trkpt lat="36.740003" lon="-3.957501">
        <ele>36.783</ele>
        <time>2021-06-16T13:50:11Z</time>
      </trkpt>
      <trkpt lat="36.740205" lon="-3.957424">
        <ele>36.530</ele>
        <time>2021-06-16T13:50:13Z</time>
      </trkpt>
      <trkpt lat="36.740339" lon="-3.957249">
        <ele>36.247</ele>
        <time>2021-06-16T13:50:15Z</time>
      </trkpt>
      <trkpt lat="36.740394" lon="-3.957053">
        <ele>36.077</ele>
        <time>2021-06-16T13:50:17Z</time>
      </trkpt>
      <trkpt lat="36.740398" lon="-3.95683">
        <ele>36.095</ele>
        <time>2021-06-16T13:50:19Z</time>
      </trkpt>
      <trkpt lat="36.740415" lon="-3.956596">
        <ele>36.349</ele>
        <time>2021-06-16T13:50:21Z</time>
      </trkpt>
      <trkpt lat="36.740522" lon="-3.956448">
        <ele>36.823</ele>
        <time>2021-06-16T13:50:23Z</time>
      </trkpt>
      <trkpt lat="36.740677" lon="-3.956402">
        <ele>36.808</ele>
        <time>2021-06-16T13:50:25Z</time>
      </trkpt>
      <trkpt lat="36.740751" lon="-3.956429">
        <ele>36.996</ele>
        <time>2021-06-16T13:50:26Z</time>
      </trkpt>
      <trkpt lat="36.74088" lon="-3.956555">
        <ele>37.594</ele>
        <time>2021-06-16T13:50:28Z</time>
      </trkpt>
      <trkpt lat="36.74093" lon="-3.95665">
        <ele>37.758</ele>
        <time>2021-06-16T13:50:29Z</time>
      </trkpt>
      <trkpt lat="36.741025" lon="-3.956863">
        <ele>38.067</ele>
        <time>2021-06-16T13:50:31Z</time>
      </trkpt>
      <trkpt lat="36.741194" lon="-3.957051">
        <ele>38.220</ele>
        <time>2021-06-16T13:50:33Z</time>
      </trkpt>
      <trkpt lat="36.741394" lon="-3.95717">
        <ele>39.267</ele>
        <time>2021-06-16T13:50:35Z</time>
      </trkpt>
      <trkpt lat="36.741511" lon="-3.957235">
        <ele>39.884</ele>
        <time>2021-06-16T13:50:36Z</time>
      </trkpt>
      <trkpt lat="36.741632" lon="-3.957303">
        <ele>40.574</ele>
        <time>2021-06-16T13:50:37Z</time>
      </trkpt>
      <trkpt lat="36.741865" lon="-3.957439">
        <ele>41.325</ele>
        <time>2021-06-16T13:50:39Z</time>
      </trkpt>
      <trkpt lat="36.742122" lon="-3.957588">
        <ele>42.526</ele>
        <time>2021-06-16T13:50:41Z</time>
      </trkpt>
      <trkpt lat="36.742351" lon="-3.957712">
        <ele>43.908</ele>
        <time>2021-06-16T13:50:43Z</time>
      </trkpt>
      <trkpt lat="36.742478" lon="-3.957788">
        <ele>45.008</ele>
        <time>2021-06-16T13:50:44Z</time>
      </trkpt>
      <trkpt lat="36.742615" lon="-3.95787">
        <ele>46.059</ele>
        <time>2021-06-16T13:50:45Z</time>
      </trkpt>
      <trkpt lat="36.742875" lon="-3.958021">
        <ele>47.737</ele>
        <time>2021-06-16T13:50:47Z</time>
      </trkpt>
      <trkpt lat="36.743012" lon="-3.958104">
        <ele>48.921</ele>
        <time>2021-06-16T13:50:48Z</time>
      </trkpt>
      <trkpt lat="36.743169" lon="-3.958198">
        <ele>50.330</ele>
        <time>2021-06-16T13:50:49Z</time>
      </trkpt>
      <trkpt lat="36.74343" lon="-3.958348">
        <ele>52.363</ele>
        <time>2021-06-16T13:50:51Z</time>
      </trkpt>
      <trkpt lat="36.743575" lon="-3.95843">
        <ele>53.550</ele>
        <time>2021-06-16T13:50:52Z</time>
      </trkpt>
      <trkpt lat="36.743882" lon="-3.958609">
        <ele>55.337</ele>
        <time>2021-06-16T13:50:54Z</time>
      </trkpt>
      <trkpt lat="36.744152" lon="-3.958767">
        <ele>57.357</ele>
        <time>2021-06-16T13:50:56Z</time>
      </trkpt>
      <trkpt lat="36.744469" lon="-3.958957">
        <ele>59.736</ele>
        <time>2021-06-16T13:50:58Z</time>
      </trkpt>
      <trkpt lat="36.744746" lon="-3.95912">
        <ele>62.117</ele>
        <time>2021-06-16T13:51:00Z</time>
      </trkpt>
      <trkpt lat="36.744899" lon="-3.959209">
        <ele>63.718</ele>
        <time>2021-06-16T13:51:01Z</time>
      </trkpt>
      <trkpt lat="36.745069" lon="-3.959306">
        <ele>65.208</ele>
        <time>2021-06-16T13:51:02Z</time>
      </trkpt>
      <trkpt lat="36.745343" lon="-3.959456">
        <ele>66.680</ele>
        <time>2021-06-16T13:51:04Z</time>
      </trkpt>
      <trkpt lat="36.745492" lon="-3.959536">
        <ele>68.128</ele>
        <time>2021-06-16T13:51:05Z</time>
      </trkpt>
      <trkpt lat="36.745819" lon="-3.959683">
        <ele>69.862</ele>
        <time>2021-06-16T13:51:07Z</time>
      </trkpt>
      <trkpt lat="36.746122" lon="-3.959743">
        <ele>71.231</ele>
        <time>2021-06-16T13:51:09Z</time>
      </trkpt>
      <trkpt lat="36.746292" lon="-3.959749">
        <ele>72.334</ele>
        <time>2021-06-16T13:51:10Z</time>
      </trkpt>
      <trkpt lat="36.746481" lon="-3.959734">
        <ele>73.441</ele>
        <time>2021-06-16T13:51:11Z</time>
      </trkpt>
      <trkpt lat="36.74679" lon="-3.959651">
        <ele>74.328</ele>
        <time>2021-06-16T13:51:13Z</time>
      </trkpt>
      <trkpt lat="36.74696" lon="-3.959591">
        <ele>74.888</ele>
        <time>2021-06-16T13:51:14Z</time>
      </trkpt>
      <trkpt lat="36.747287" lon="-3.959463">
        <ele>75.221</ele>
        <time>2021-06-16T13:51:16Z</time>
      </trkpt>
      <trkpt lat="36.747619" lon="-3.959333">
        <ele>75.741</ele>
        <time>2021-06-16T13:51:18Z</time>
      </trkpt>
      <trkpt lat="36.747786" lon="-3.959271">
        <ele>76.405</ele>
        <time>2021-06-16T13:51:19Z</time>
      </trkpt>
      <trkpt lat="36.747965" lon="-3.959211">
        <ele>77.008</ele>
        <time>2021-06-16T13:51:20Z</time>
      </trkpt>
      <trkpt lat="36.748281" lon="-3.959123">
        <ele>77.929</ele>
        <time>2021-06-16T13:51:22Z</time>
      </trkpt>
      <trkpt lat="36.748449" lon="-3.959094">
        <ele>78.787</ele>
        <time>2021-06-16T13:51:23Z</time>
      </trkpt>
      <trkpt lat="36.748622" lon="-3.959073">
        <ele>79.191</ele>
        <time>2021-06-16T13:51:24Z</time>
      </trkpt>
      <trkpt lat="36.748957" lon="-3.959071">
        <ele>80.430</ele>
        <time>2021-06-16T13:51:26Z</time>
      </trkpt>
      <trkpt lat="36.749127" lon="-3.959085">
        <ele>81.893</ele>
        <time>2021-06-16T13:51:27Z</time>
      </trkpt>
      <trkpt lat="36.749315" lon="-3.959112">
        <ele>83.260</ele>
        <time>2021-06-16T13:51:28Z</time>
      </trkpt>
      <trkpt lat="36.749615" lon="-3.95919">
        <ele>85.287</ele>
        <time>2021-06-16T13:51:30Z</time>
      </trkpt>
      <trkpt lat="36.749941" lon="-3.959317">
        <ele>87.867</ele>
        <time>2021-06-16T13:51:32Z</time>
      </trkpt>
      <trkpt lat="36.75023" lon="-3.95947">
        <ele>90.588</ele>
        <time>2021-06-16T13:51:34Z</time>
      </trkpt>
      <trkpt lat="36.75037" lon="-3.959562">
        <ele>92.624</ele>
        <time>2021-06-16T13:51:35Z</time>
      </trkpt>
      <trkpt lat="36.750634" lon="-3.959754">
        <ele>94.726</ele>
        <time>2021-06-16T13:51:37Z</time>
      </trkpt>
      <trkpt lat="36.750809" lon="-3.959908">
        <ele>96.508</ele>
        <time>2021-06-16T13:51:39Z</time>
      </trkpt>
      <trkpt lat="36.75097" lon="-3.960046">
        <ele>98.085</ele>
        <time>2021-06-16T13:51:41Z</time>
      </trkpt>
      <trkpt lat="36.751063" lon="-3.960102">
        <ele>98.773</ele>
        <time>2021-06-16T13:51:42Z</time>
      </trkpt>
      <trkpt lat="36.751226" lon="-3.960151">
        <ele>99.667</ele>
        <time>2021-06-16T13:51:44Z</time>
      </trkpt>
      <trkpt lat="36.75131" lon="-3.960191">
        <ele>100.316</ele>
        <time>2021-06-16T13:51:45Z</time>
      </trkpt>
      <trkpt lat="36.751435" lon="-3.960357">
        <ele>100.589</ele>
        <time>2021-06-16T13:51:47Z</time>
      </trkpt>
      <trkpt lat="36.751525" lon="-3.960528">
        <ele>100.966</ele>
        <time>2021-06-16T13:51:49Z</time>
      </trkpt>
      <trkpt lat="36.751594" lon="-3.9606">
        <ele>101.053</ele>
        <time>2021-06-16T13:51:50Z</time>
      </trkpt>
      <trkpt lat="36.751758" lon="-3.960699">
        <ele>100.823</ele>
        <time>2021-06-16T13:51:52Z</time>
      </trkpt>
      <trkpt lat="36.751843" lon="-3.960723">
        <ele>100.613</ele>
        <time>2021-06-16T13:51:53Z</time>
      </trkpt>
      <trkpt lat="36.752019" lon="-3.960707">
        <ele>101.443</ele>
        <time>2021-06-16T13:51:55Z</time>
      </trkpt>
      <trkpt lat="36.752108" lon="-3.960685">
        <ele>101.907</ele>
        <time>2021-06-16T13:51:56Z</time>
      </trkpt>
      <trkpt lat="36.752207" lon="-3.960674">
        <ele>102.308</ele>
        <time>2021-06-16T13:51:57Z</time>
      </trkpt>
      <trkpt lat="36.752339" lon="-3.960747">
        <ele>102.328</ele>
        <time>2021-06-16T13:51:59Z</time>
      </trkpt>
      <trkpt lat="36.752387" lon="-3.96094">
        <ele>101.696</ele>
        <time>2021-06-16T13:52:01Z</time>
      </trkpt>
      <trkpt lat="36.752362" lon="-3.961053">
        <ele>101.380</ele>
        <time>2021-06-16T13:52:02Z</time>
      </trkpt>
      <trkpt lat="36.752242" lon="-3.9612">
        <ele>101.169</ele>
        <time>2021-06-16T13:52:04Z</time>
      </trkpt>
      <trkpt lat="36.752056" lon="-3.961331">
        <ele>101.042</ele>
        <time>2021-06-16T13:52:06Z</time>
      </trkpt>
      <trkpt lat="36.751946" lon="-3.961426">
        <ele>101.139</ele>
        <time>2021-06-16T13:52:07Z</time>
      </trkpt>
      <trkpt lat="36.751782" lon="-3.961646">
        <ele>101.856</ele>
        <time>2021-06-16T13:52:09Z</time>
      </trkpt>
      <trkpt lat="36.751698" lon="-3.961782">
        <ele>102.666</ele>
        <time>2021-06-16T13:52:10Z</time>
      </trkpt>
      <trkpt lat="36.751523" lon="-3.962083">
        <ele>104.444</ele>
        <time>2021-06-16T13:52:12Z</time>
      </trkpt>
      <trkpt lat="36.751364" lon="-3.962346">
        <ele>105.905</ele>
        <time>2021-06-16T13:52:14Z</time>
      </trkpt>
      <trkpt lat="36.751188" lon="-3.962642">
        <ele>107.815</ele>
        <time>2021-06-16T13:52:16Z</time>
      </trkpt>
      <trkpt lat="36.751084" lon="-3.962809">
        <ele>109.508</ele>
        <time>2021-06-16T13:52:17Z</time>
      </trkpt>
      <trkpt lat="36.750911" lon="-3.963076">
        <ele>111.551</ele>
        <time>2021-06-16T13:52:19Z</time>
      </trkpt>
      <trkpt lat="36.750721" lon="-3.963365">
        <ele>113.449</ele>
        <time>2021-06-16T13:52:21Z</time>
      </trkpt>
      <trkpt lat="36.750616" lon="-3.963528">
        <ele>115.133</ele>
        <time>2021-06-16T13:52:22Z</time>
      </trkpt>
      <trkpt lat="36.750441" lon="-3.963792">
        <ele>116.652</ele>
        <time>2021-06-16T13:52:24Z</time>
      </trkpt>
      <trkpt lat="36.750348" lon="-3.963939">
        <ele>117.615</ele>
        <time>2021-06-16T13:52:25Z</time>
      </trkpt>
      <trkpt lat="36.750251" lon="-3.964088">
        <ele>118.492</ele>
        <time>2021-06-16T13:52:26Z</time>
      </trkpt>
      <trkpt lat="36.750139" lon="-3.964257">
        <ele>119.489</ele>
        <time>2021-06-16T13:52:27Z</time>
      </trkpt>
      <trkpt lat="36.749952" lon="-3.96455">
        <ele>120.359</ele>
        <time>2021-06-16T13:52:29Z</time>
      </trkpt>
      <trkpt lat="36.749855" lon="-3.964719">
        <ele>121.166</ele>
        <time>2021-06-16T13:52:30Z</time>
      </trkpt>
      <trkpt lat="36.749752" lon="-3.96489">
        <ele>121.629</ele>
        <time>2021-06-16T13:52:31Z</time>
      </trkpt>
      <trkpt lat="36.749633" lon="-3.965085">
        <ele>122.021</ele>
        <time>2021-06-16T13:52:32Z</time>
      </trkpt>
      <trkpt lat="36.749424" lon="-3.965412">
        <ele>122.208</ele>
        <time>2021-06-16T13:52:34Z</time>
      </trkpt>
      <trkpt lat="36.749304" lon="-3.965592">
        <ele>122.763</ele>
        <time>2021-06-16T13:52:35Z</time>
      </trkpt>
      <trkpt lat="36.749187" lon="-3.965772">
        <ele>123.451</ele>
        <time>2021-06-16T13:52:36Z</time>
      </trkpt>
      <trkpt lat="36.749062" lon="-3.965975">
        <ele>123.915</ele>
        <time>2021-06-16T13:52:37Z</time>
      </trkpt>
      <trkpt lat="36.74886" lon="-3.966313">
        <ele>124.154</ele>
        <time>2021-06-16T13:52:39Z</time>
      </trkpt>
      <trkpt lat="36.748752" lon="-3.966504">
        <ele>124.617</ele>
        <time>2021-06-16T13:52:40Z</time>
      </trkpt>
      <trkpt lat="36.748527" lon="-3.966923">
        <ele>125.354</ele>
        <time>2021-06-16T13:52:42Z</time>
      </trkpt>
      <trkpt lat="36.748345" lon="-3.967302">
        <ele>125.651</ele>
        <time>2021-06-16T13:52:44Z</time>
      </trkpt>
      <trkpt lat="36.748161" lon="-3.967736">
        <ele>125.741</ele>
        <time>2021-06-16T13:52:46Z</time>
      </trkpt>
      <trkpt lat="36.748064" lon="-3.967986">
        <ele>125.882</ele>
        <time>2021-06-16T13:52:47Z</time>
      </trkpt>
      <trkpt lat="36.747922" lon="-3.968394">
        <ele>125.843</ele>
        <time>2021-06-16T13:52:49Z</time>
      </trkpt>
      <trkpt lat="36.747777" lon="-3.96885">
        <ele>125.717</ele>
        <time>2021-06-16T13:52:51Z</time>
      </trkpt>
      <trkpt lat="36.747706" lon="-3.969114">
        <ele>125.508</ele>
        <time>2021-06-16T13:52:52Z</time>
      </trkpt>
      <trkpt lat="36.7476" lon="-3.969553">
        <ele>125.285</ele>
        <time>2021-06-16T13:52:54Z</time>
      </trkpt>
      <trkpt lat="36.747506" lon="-3.970039">
        <ele>125.243</ele>
        <time>2021-06-16T13:52:56Z</time>
      </trkpt>
      <trkpt lat="36.747463" lon="-3.970314">
        <ele>124.967</ele>
        <time>2021-06-16T13:52:57Z</time>
      </trkpt>
      <trkpt lat="36.747412" lon="-3.970769">
        <ele>124.176</ele>
        <time>2021-06-16T13:52:59Z</time>
      </trkpt>
      <trkpt lat="36.74739" lon="-3.971019">
        <ele>123.929</ele>
        <time>2021-06-16T13:53:00Z</time>
      </trkpt>
      <trkpt lat="36.74737" lon="-3.971279">
        <ele>123.686</ele>
        <time>2021-06-16T13:53:01Z</time>
      </trkpt>
      <trkpt lat="36.747352" lon="-3.971769">
        <ele>122.993</ele>
        <time>2021-06-16T13:53:03Z</time>
      </trkpt>
      <trkpt lat="36.747346" lon="-3.972306">
        <ele>122.063</ele>
        <time>2021-06-16T13:53:05Z</time>
      </trkpt>
      <trkpt lat="36.747374" lon="-3.972775">
        <ele>120.967</ele>
        <time>2021-06-16T13:53:07Z</time>
      </trkpt>
      <trkpt lat="36.747395" lon="-3.973034">
        <ele>119.881</ele>
        <time>2021-06-16T13:53:08Z</time>
      </trkpt>
      <trkpt lat="36.747446" lon="-3.973546">
        <ele>117.719</ele>
        <time>2021-06-16T13:53:10Z</time>
      </trkpt>
      <trkpt lat="36.747504" lon="-3.974062">
        <ele>115.808</ele>
        <time>2021-06-16T13:53:12Z</time>
      </trkpt>
      <trkpt lat="36.747579" lon="-3.974619">
        <ele>114.583</ele>
        <time>2021-06-16T13:53:14Z</time>
      </trkpt>
      <trkpt lat="36.747644" lon="-3.975098">
        <ele>113.621</ele>
        <time>2021-06-16T13:53:16Z</time>
      </trkpt>
      <trkpt lat="36.747703" lon="-3.975625">
        <ele>112.565</ele>
        <time>2021-06-16T13:53:18Z</time>
      </trkpt>
      <trkpt lat="36.747728" lon="-3.97589">
        <ele>111.494</ele>
        <time>2021-06-16T13:53:19Z</time>
      </trkpt>
      <trkpt lat="36.747745" lon="-3.976155">
        <ele>110.027</ele>
        <time>2021-06-16T13:53:20Z</time>
      </trkpt>
      <trkpt lat="36.747763" lon="-3.976703">
        <ele>108.484</ele>
        <time>2021-06-16T13:53:22Z</time>
      </trkpt>
      <trkpt lat="36.747755" lon="-3.977175">
        <ele>107.011</ele>
        <time>2021-06-16T13:53:24Z</time>
      </trkpt>
      <trkpt lat="36.747726" lon="-3.977694">
        <ele>105.861</ele>
        <time>2021-06-16T13:53:26Z</time>
      </trkpt>
      <trkpt lat="36.747674" lon="-3.978176">
        <ele>104.525</ele>
        <time>2021-06-16T13:53:28Z</time>
      </trkpt>
      <trkpt lat="36.747599" lon="-3.978693">
        <ele>103.826</ele>
        <time>2021-06-16T13:53:30Z</time>
      </trkpt>
      <trkpt lat="36.747521" lon="-3.979135">
        <ele>103.008</ele>
        <time>2021-06-16T13:53:32Z</time>
      </trkpt>
      <trkpt lat="36.747429" lon="-3.979615">
        <ele>102.108</ele>
        <time>2021-06-16T13:53:34Z</time>
      </trkpt>
      <trkpt lat="36.747373" lon="-3.979887">
        <ele>101.879</ele>
        <time>2021-06-16T13:53:35Z</time>
      </trkpt>
      <trkpt lat="36.747282" lon="-3.980326">
        <ele>101.827</ele>
        <time>2021-06-16T13:53:37Z</time>
      </trkpt>
      <trkpt lat="36.747238" lon="-3.980569">
        <ele>101.661</ele>
        <time>2021-06-16T13:53:38Z</time>
      </trkpt>
      <trkpt lat="36.747191" lon="-3.980836">
        <ele>101.590</ele>
        <time>2021-06-16T13:53:39Z</time>
      </trkpt>
      <trkpt lat="36.747116" lon="-3.981266">
        <ele>101.623</ele>
        <time>2021-06-16T13:53:41Z</time>
      </trkpt>
      <trkpt lat="36.747054" lon="-3.981736">
        <ele>102.480</ele>
        <time>2021-06-16T13:53:43Z</time>
      </trkpt>
      <trkpt lat="36.747021" lon="-3.982003">
        <ele>103.377</ele>
        <time>2021-06-16T13:53:44Z</time>
      </trkpt>
      <trkpt lat="36.746978" lon="-3.98244">
        <ele>103.667</ele>
        <time>2021-06-16T13:53:46Z</time>
      </trkpt>
      <trkpt lat="36.746956" lon="-3.982683">
        <ele>103.968</ele>
        <time>2021-06-16T13:53:47Z</time>
      </trkpt>
      <trkpt lat="36.746932" lon="-3.982958">
        <ele>104.142</ele>
        <time>2021-06-16T13:53:48Z</time>
      </trkpt>
      <trkpt lat="36.7469" lon="-3.98341">
        <ele>104.626</ele>
        <time>2021-06-16T13:53:50Z</time>
      </trkpt>
      <trkpt lat="36.746886" lon="-3.983662">
        <ele>104.908</ele>
        <time>2021-06-16T13:53:51Z</time>
      </trkpt>
      <trkpt lat="36.746872" lon="-3.984204">
        <ele>105.163</ele>
        <time>2021-06-16T13:53:53Z</time>
      </trkpt>
      <trkpt lat="36.746876" lon="-3.984675">
        <ele>104.931</ele>
        <time>2021-06-16T13:53:55Z</time>
      </trkpt>
      <trkpt lat="36.746884" lon="-3.984939">
        <ele>104.965</ele>
        <time>2021-06-16T13:53:56Z</time>
      </trkpt>
      <trkpt lat="36.746891" lon="-3.98523">
        <ele>104.764</ele>
        <time>2021-06-16T13:53:57Z</time>
      </trkpt>
      <trkpt lat="36.746921" lon="-3.98571">
        <ele>104.687</ele>
        <time>2021-06-16T13:53:59Z</time>
      </trkpt>
      <trkpt lat="36.74694" lon="-3.985973">
        <ele>104.574</ele>
        <time>2021-06-16T13:54:00Z</time>
      </trkpt>
      <trkpt lat="36.746964" lon="-3.986266">
        <ele>104.211</ele>
        <time>2021-06-16T13:54:01Z</time>
      </trkpt>
      <trkpt lat="36.74702" lon="-3.986744">
        <ele>103.271</ele>
        <time>2021-06-16T13:54:03Z</time>
      </trkpt>
      <trkpt lat="36.747054" lon="-3.987006">
        <ele>102.495</ele>
        <time>2021-06-16T13:54:04Z</time>
      </trkpt>
      <trkpt lat="36.74713" lon="-3.987563">
        <ele>101.549</ele>
        <time>2021-06-16T13:54:06Z</time>
      </trkpt>
      <trkpt lat="36.747213" lon="-3.988039">
        <ele>100.323</ele>
        <time>2021-06-16T13:54:08Z</time>
      </trkpt>
      <trkpt lat="36.747264" lon="-3.988301">
        <ele>99.108</ele>
        <time>2021-06-16T13:54:09Z</time>
      </trkpt>
      <trkpt lat="36.747321" lon="-3.988588">
        <ele>98.256</ele>
        <time>2021-06-16T13:54:10Z</time>
      </trkpt>
      <trkpt lat="36.747428" lon="-3.989059">
        <ele>96.564</ele>
        <time>2021-06-16T13:54:12Z</time>
      </trkpt>
      <trkpt lat="36.747492" lon="-3.989317">
        <ele>95.478</ele>
        <time>2021-06-16T13:54:13Z</time>
      </trkpt>
      <trkpt lat="36.747626" lon="-3.989822">
        <ele>93.857</ele>
        <time>2021-06-16T13:54:15Z</time>
      </trkpt>
      <trkpt lat="36.747698" lon="-3.990071">
        <ele>92.460</ele>
        <time>2021-06-16T13:54:16Z</time>
      </trkpt>
      <trkpt lat="36.747847" lon="-3.990562">
        <ele>90.927</ele>
        <time>2021-06-16T13:54:18Z</time>
      </trkpt>
      <trkpt lat="36.747923" lon="-3.990804">
        <ele>89.334</ele>
        <time>2021-06-16T13:54:19Z</time>
      </trkpt>
      <trkpt lat="36.748079" lon="-3.991274">
        <ele>87.624</ele>
        <time>2021-06-16T13:54:21Z</time>
      </trkpt>
      <trkpt lat="36.748167" lon="-3.991502">
        <ele>86.477</ele>
        <time>2021-06-16T13:54:22Z</time>
      </trkpt>
      <trkpt lat="36.748356" lon="-3.991984">
        <ele>84.061</ele>
        <time>2021-06-16T13:54:24Z</time>
      </trkpt>
      <trkpt lat="36.748516" lon="-3.992408">
        <ele>82.127</ele>
        <time>2021-06-16T13:54:26Z</time>
      </trkpt>
      <trkpt lat="36.748699" lon="-3.992907">
        <ele>80.008</ele>
        <time>2021-06-16T13:54:28Z</time>
      </trkpt>
      <trkpt lat="36.748854" lon="-3.993341">
        <ele>77.674</ele>
        <time>2021-06-16T13:54:30Z</time>
      </trkpt>
      <trkpt lat="36.749018" lon="-3.993838">
        <ele>75.112</ele>
        <time>2021-06-16T13:54:32Z</time>
      </trkpt>
      <trkpt lat="36.74915" lon="-3.994328">
        <ele>72.646</ele>
        <time>2021-06-16T13:54:34Z</time>
      </trkpt>
      <trkpt lat="36.749267" lon="-3.994863">
        <ele>70.465</ele>
        <time>2021-06-16T13:54:36Z</time>
      </trkpt>
      <trkpt lat="36.749341" lon="-3.995324">
        <ele>68.148</ele>
        <time>2021-06-16T13:54:38Z</time>
      </trkpt>
      <trkpt lat="36.749374" lon="-3.995576">
        <ele>66.575</ele>
        <time>2021-06-16T13:54:39Z</time>
      </trkpt>
      <trkpt lat="36.749424" lon="-3.996063">
        <ele>64.532</ele>
        <time>2021-06-16T13:54:41Z</time>
      </trkpt>
      <trkpt lat="36.74944" lon="-3.996307">
        <ele>62.822</ele>
        <time>2021-06-16T13:54:42Z</time>
      </trkpt>
      <trkpt lat="36.749449" lon="-3.996552">
        <ele>61.832</ele>
        <time>2021-06-16T13:54:43Z</time>
      </trkpt>
      <trkpt lat="36.749453" lon="-3.996798">
        <ele>60.992</ele>
        <time>2021-06-16T13:54:44Z</time>
      </trkpt>
      <trkpt lat="36.749452" lon="-3.997075">
        <ele>59.611</ele>
        <time>2021-06-16T13:54:45Z</time>
      </trkpt>
      <trkpt lat="36.749431" lon="-3.997537">
        <ele>58.608</ele>
        <time>2021-06-16T13:54:47Z</time>
      </trkpt>
      <trkpt lat="36.749392" lon="-3.998077">
        <ele>57.760</ele>
        <time>2021-06-16T13:54:49Z</time>
      </trkpt>
      <trkpt lat="36.749344" lon="-3.998532">
        <ele>56.758</ele>
        <time>2021-06-16T13:54:51Z</time>
      </trkpt>
      <trkpt lat="36.749285" lon="-3.999067">
        <ele>55.822</ele>
        <time>2021-06-16T13:54:53Z</time>
      </trkpt>
      <trkpt lat="36.749238" lon="-3.999537">
        <ele>54.681</ele>
        <time>2021-06-16T13:54:55Z</time>
      </trkpt>
      <trkpt lat="36.749185" lon="-4.000063">
        <ele>53.414</ele>
        <time>2021-06-16T13:54:57Z</time>
      </trkpt>
      <trkpt lat="36.749158" lon="-4.000355">
        <ele>52.361</ele>
        <time>2021-06-16T13:54:58Z</time>
      </trkpt>
      <trkpt lat="36.749122" lon="-4.00083">
        <ele>51.678</ele>
        <time>2021-06-16T13:55:00Z</time>
      </trkpt>
      <trkpt lat="36.749103" lon="-4.001377">
        <ele>51.318</ele>
        <time>2021-06-16T13:55:02Z</time>
      </trkpt>
      <trkpt lat="36.749105" lon="-4.001839">
        <ele>51.119</ele>
        <time>2021-06-16T13:55:04Z</time>
      </trkpt>
      <trkpt lat="36.749138" lon="-4.002328">
        <ele>51.209</ele>
        <time>2021-06-16T13:55:06Z</time>
      </trkpt>
      <trkpt lat="36.749162" lon="-4.002602">
        <ele>51.619</ele>
        <time>2021-06-16T13:55:07Z</time>
      </trkpt>
      <trkpt lat="36.749219" lon="-4.00304">
        <ele>51.908</ele>
        <time>2021-06-16T13:55:09Z</time>
      </trkpt>
      <trkpt lat="36.749254" lon="-4.003282">
        <ele>52.328</ele>
        <time>2021-06-16T13:55:10Z</time>
      </trkpt>
      <trkpt lat="36.749298" lon="-4.003548">
        <ele>52.466</ele>
        <time>2021-06-16T13:55:11Z</time>
      </trkpt>
      <trkpt lat="36.749381" lon="-4.003978">
        <ele>52.480</ele>
        <time>2021-06-16T13:55:13Z</time>
      </trkpt>
      <trkpt lat="36.749497" lon="-4.00445">
        <ele>52.729</ele>
        <time>2021-06-16T13:55:15Z</time>
      </trkpt>
      <trkpt lat="36.749637" lon="-4.00489">
        <ele>52.962</ele>
        <time>2021-06-16T13:55:17Z</time>
      </trkpt>
      <trkpt lat="36.74971" lon="-4.005117">
        <ele>53.019</ele>
        <time>2021-06-16T13:55:18Z</time>
      </trkpt>
      <trkpt lat="36.749793" lon="-4.005371">
        <ele>53.026</ele>
        <time>2021-06-16T13:55:19Z</time>
      </trkpt>
      <trkpt lat="36.749951" lon="-4.005774">
        <ele>52.956</ele>
        <time>2021-06-16T13:55:21Z</time>
      </trkpt>
      <trkpt lat="36.750046" lon="-4.00599">
        <ele>53.366</ele>
        <time>2021-06-16T13:55:22Z</time>
      </trkpt>
      <trkpt lat="36.750253" lon="-4.00644">
        <ele>53.529</ele>
        <time>2021-06-16T13:55:24Z</time>
      </trkpt>
      <trkpt lat="36.750432" lon="-4.00683">
        <ele>53.621</ele>
        <time>2021-06-16T13:55:26Z</time>
      </trkpt>
      <trkpt lat="36.750634" lon="-4.00728">
        <ele>53.908</ele>
        <time>2021-06-16T13:55:28Z</time>
      </trkpt>
      <trkpt lat="36.750796" lon="-4.007654">
        <ele>53.833</ele>
        <time>2021-06-16T13:55:30Z</time>
      </trkpt>
      <trkpt lat="36.752577" lon="-4.01309">
        <ele>54.091</ele>
        <time>2021-06-16T13:55:53Z</time>
      </trkpt>
      <trkpt lat="36.752647" lon="-4.013521">
        <ele>54.515</ele>
        <time>2021-06-16T13:55:55Z</time>
      </trkpt>
      <trkpt lat="36.752713" lon="-4.014035">
        <ele>55.094</ele>
        <time>2021-06-16T13:55:57Z</time>
      </trkpt>
      <trkpt lat="36.752764" lon="-4.014475">
        <ele>55.547</ele>
        <time>2021-06-16T13:55:59Z</time>
      </trkpt>
      <trkpt lat="36.752806" lon="-4.014965">
        <ele>55.734</ele>
        <time>2021-06-16T13:56:01Z</time>
      </trkpt>
      <trkpt lat="36.752826" lon="-4.015213">
        <ele>55.871</ele>
        <time>2021-06-16T13:56:02Z</time>
      </trkpt>
      <trkpt lat="36.752843" lon="-4.01546">
        <ele>55.691</ele>
        <time>2021-06-16T13:56:03Z</time>
      </trkpt>
      <trkpt lat="36.752871" lon="-4.015982">
        <ele>55.894</ele>
        <time>2021-06-16T13:56:05Z</time>
      </trkpt>
      <trkpt lat="36.752882" lon="-4.016439">
        <ele>56.257</ele>
        <time>2021-06-16T13:56:07Z</time>
      </trkpt>
      <trkpt lat="36.752883" lon="-4.016692">
        <ele>56.322</ele>
        <time>2021-06-16T13:56:08Z</time>
      </trkpt>
      <trkpt lat="36.752882" lon="-4.016944">
        <ele>56.508</ele>
        <time>2021-06-16T13:56:09Z</time>
      </trkpt>
      <trkpt lat="36.752872" lon="-4.017233">
        <ele>56.886</ele>
        <time>2021-06-16T13:56:10Z</time>
      </trkpt>
      <trkpt lat="36.752851" lon="-4.017691">
        <ele>57.344</ele>
        <time>2021-06-16T13:56:12Z</time>
      </trkpt>
      <trkpt lat="36.752823" lon="-4.018224">
        <ele>58.368</ele>
        <time>2021-06-16T13:56:14Z</time>
      </trkpt>
      <trkpt lat="36.752787" lon="-4.01867">
        <ele>59.337</ele>
        <time>2021-06-16T13:56:16Z</time>
      </trkpt>
      <trkpt lat="36.752731" lon="-4.019148">
        <ele>60.520</ele>
        <time>2021-06-16T13:56:18Z</time>
      </trkpt>
      <trkpt lat="36.752699" lon="-4.019407">
        <ele>61.847</ele>
        <time>2021-06-16T13:56:19Z</time>
      </trkpt>
      <trkpt lat="36.752638" lon="-4.019827">
        <ele>63.074</ele>
        <time>2021-06-16T13:56:21Z</time>
      </trkpt>
      <trkpt lat="36.752596" lon="-4.020057">
        <ele>64.174</ele>
        <time>2021-06-16T13:56:22Z</time>
      </trkpt>
      <trkpt lat="36.75255" lon="-4.020317">
        <ele>64.846</ele>
        <time>2021-06-16T13:56:23Z</time>
      </trkpt>
      <trkpt lat="36.75247" lon="-4.020739">
        <ele>65.388</ele>
        <time>2021-06-16T13:56:25Z</time>
      </trkpt>
      <trkpt lat="36.752422" lon="-4.020969">
        <ele>66.416</ele>
        <time>2021-06-16T13:56:26Z</time>
      </trkpt>
      <trkpt lat="36.752317" lon="-4.021462">
        <ele>67.708</ele>
        <time>2021-06-16T13:56:28Z</time>
      </trkpt>
      <trkpt lat="36.752226" lon="-4.021891">
        <ele>69.421</ele>
        <time>2021-06-16T13:56:30Z</time>
      </trkpt>
      <trkpt lat="36.752175" lon="-4.022129">
        <ele>70.629</ele>
        <time>2021-06-16T13:56:31Z</time>
      </trkpt>
      <trkpt lat="36.752116" lon="-4.02239">
        <ele>72.013</ele>
        <time>2021-06-16T13:56:32Z</time>
      </trkpt>
      <trkpt lat="36.752024" lon="-4.022817">
        <ele>73.182</ele>
        <time>2021-06-16T13:56:34Z</time>
      </trkpt>
      <trkpt lat="36.751921" lon="-4.023289">
        <ele>73.995</ele>
        <time>2021-06-16T13:56:36Z</time>
      </trkpt>
      <trkpt lat="36.751868" lon="-4.023554">
        <ele>74.672</ele>
        <time>2021-06-16T13:56:37Z</time>
      </trkpt>
      <trkpt lat="36.751783" lon="-4.023986">
        <ele>75.239</ele>
        <time>2021-06-16T13:56:39Z</time>
      </trkpt>
      <trkpt lat="36.751735" lon="-4.024228">
        <ele>75.959</ele>
        <time>2021-06-16T13:56:40Z</time>
      </trkpt>
      <trkpt lat="36.751683" lon="-4.024497">
        <ele>77.227</ele>
        <time>2021-06-16T13:56:41Z</time>
      </trkpt>
      <trkpt lat="36.751606" lon="-4.024936">
        <ele>78.168</ele>
        <time>2021-06-16T13:56:43Z</time>
      </trkpt>
      <trkpt lat="36.751527" lon="-4.025425">
        <ele>78.914</ele>
        <time>2021-06-16T13:56:45Z</time>
      </trkpt>
      <trkpt lat="36.751484" lon="-4.025696">
        <ele>79.408</ele>
        <time>2021-06-16T13:56:46Z</time>
      </trkpt>
      <trkpt lat="36.751415" lon="-4.026147">
        <ele>80.289</ele>
        <time>2021-06-16T13:56:48Z</time>
      </trkpt>
      <trkpt lat="36.751379" lon="-4.026395">
        <ele>80.757</ele>
        <time>2021-06-16T13:56:49Z</time>
      </trkpt>
      <trkpt lat="36.751342" lon="-4.02667">
        <ele>80.791</ele>
        <time>2021-06-16T13:56:50Z</time>
      </trkpt>
      <trkpt lat="36.751291" lon="-4.027109">
        <ele>80.770</ele>
        <time>2021-06-16T13:56:52Z</time>
      </trkpt>
      <trkpt lat="36.751264" lon="-4.027354">
        <ele>81.033</ele>
        <time>2021-06-16T13:56:53Z</time>
      </trkpt>
      <trkpt lat="36.751235" lon="-4.02761">
        <ele>81.230</ele>
        <time>2021-06-16T13:56:54Z</time>
      </trkpt>
      <trkpt lat="36.751186" lon="-4.028083">
        <ele>81.547</ele>
        <time>2021-06-16T13:56:56Z</time>
      </trkpt>
      <trkpt lat="36.751138" lon="-4.028587">
        <ele>81.447</ele>
        <time>2021-06-16T13:56:58Z</time>
      </trkpt>
      <trkpt lat="36.751101" lon="-4.029039">
        <ele>81.831</ele>
        <time>2021-06-16T13:57:00Z</time>
      </trkpt>
      <trkpt lat="36.751084" lon="-4.029293">
        <ele>81.961</ele>
        <time>2021-06-16T13:57:01Z</time>
      </trkpt>
      <trkpt lat="36.751061" lon="-4.029791">
        <ele>81.907</ele>
        <time>2021-06-16T13:57:03Z</time>
      </trkpt>
      <trkpt lat="36.751041" lon="-4.030301">
        <ele>81.208</ele>
        <time>2021-06-16T13:57:05Z</time>
      </trkpt>
      <trkpt lat="36.751029" lon="-4.030591">
        <ele>81.260</ele>
        <time>2021-06-16T13:57:06Z</time>
      </trkpt>
      <trkpt lat="36.751025" lon="-4.031057">
        <ele>81.368</ele>
        <time>2021-06-16T13:57:08Z</time>
      </trkpt>
      <trkpt lat="36.751019" lon="-4.031325">
        <ele>81.132</ele>
        <time>2021-06-16T13:57:09Z</time>
      </trkpt>
      <trkpt lat="36.751013" lon="-4.031596">
        <ele>81.011</ele>
        <time>2021-06-16T13:57:10Z</time>
      </trkpt>
      <trkpt lat="36.75101" lon="-4.032083">
        <ele>80.254</ele>
        <time>2021-06-16T13:57:12Z</time>
      </trkpt>
      <trkpt lat="36.751014" lon="-4.032625">
        <ele>79.691</ele>
        <time>2021-06-16T13:57:14Z</time>
      </trkpt>
      <trkpt lat="36.751026" lon="-4.03309">
        <ele>78.548</ele>
        <time>2021-06-16T13:57:16Z</time>
      </trkpt>
      <trkpt lat="36.75104" lon="-4.033614">
        <ele>77.298</ele>
        <time>2021-06-16T13:57:18Z</time>
      </trkpt>
      <trkpt lat="36.751048" lon="-4.033911">
        <ele>75.995</ele>
        <time>2021-06-16T13:57:19Z</time>
      </trkpt>
      <trkpt lat="36.751074" lon="-4.034383">
        <ele>73.949</ele>
        <time>2021-06-16T13:57:21Z</time>
      </trkpt>
      <trkpt lat="36.751091" lon="-4.034645">
        <ele>72.623</ele>
        <time>2021-06-16T13:57:22Z</time>
      </trkpt>
      <trkpt lat="36.75111" lon="-4.034932">
        <ele>71.308</ele>
        <time>2021-06-16T13:57:23Z</time>
      </trkpt>
      <trkpt lat="36.751155" lon="-4.035433">
        <ele>69.646</ele>
        <time>2021-06-16T13:57:25Z</time>
      </trkpt>
      <trkpt lat="36.751183" lon="-4.035706">
        <ele>68.154</ele>
        <time>2021-06-16T13:57:26Z</time>
      </trkpt>
      <trkpt lat="36.751252" lon="-4.036286">
        <ele>66.558</ele>
        <time>2021-06-16T13:57:28Z</time>
      </trkpt>
      <trkpt lat="36.751333" lon="-4.036776">
        <ele>65.357</ele>
        <time>2021-06-16T13:57:30Z</time>
      </trkpt>
      <trkpt lat="36.751385" lon="-4.037045">
        <ele>63.850</ele>
        <time>2021-06-16T13:57:31Z</time>
      </trkpt>
      <trkpt lat="36.751444" lon="-4.037343">
        <ele>62.217</ele>
        <time>2021-06-16T13:57:32Z</time>
      </trkpt>
      <trkpt lat="36.751545" lon="-4.037813">
        <ele>60.534</ele>
        <time>2021-06-16T13:57:34Z</time>
      </trkpt>
      <trkpt lat="36.751602" lon="-4.038068">
        <ele>59.124</ele>
        <time>2021-06-16T13:57:35Z</time>
      </trkpt>
      <trkpt lat="36.751726" lon="-4.038589">
        <ele>57.411</ele>
        <time>2021-06-16T13:57:37Z</time>
      </trkpt>
      <trkpt lat="36.751859" lon="-4.039036">
        <ele>55.121</ele>
        <time>2021-06-16T13:57:39Z</time>
      </trkpt>
      <trkpt lat="36.751934" lon="-4.039281">
        <ele>53.403</ele>
        <time>2021-06-16T13:57:40Z</time>
      </trkpt>
      <trkpt lat="36.752024" lon="-4.039546">
        <ele>52.008</ele>
        <time>2021-06-16T13:57:41Z</time>
      </trkpt>
      <trkpt lat="36.752188" lon="-4.039965">
        <ele>51.148</ele>
        <time>2021-06-16T13:57:43Z</time>
      </trkpt>
      <trkpt lat="36.752377" lon="-4.040446">
        <ele>49.786</ele>
        <time>2021-06-16T13:57:45Z</time>
      </trkpt>
      <trkpt lat="36.752574" lon="-4.040873">
        <ele>47.860</ele>
        <time>2021-06-16T13:57:47Z</time>
      </trkpt>
      <trkpt lat="36.752679" lon="-4.041092">
        <ele>46.659</ele>
        <time>2021-06-16T13:57:48Z</time>
      </trkpt>
      <trkpt lat="36.752805" lon="-4.041335">
        <ele>46.142</ele>
        <time>2021-06-16T13:57:49Z</time>
      </trkpt>
      <trkpt lat="36.753026" lon="-4.041715">
        <ele>45.139</ele>
        <time>2021-06-16T13:57:51Z</time>
      </trkpt>
      <trkpt lat="36.753281" lon="-4.042126">
        <ele>44.056</ele>
        <time>2021-06-16T13:57:53Z</time>
      </trkpt>
      <trkpt lat="36.753426" lon="-4.042353">
        <ele>42.966</ele>
        <time>2021-06-16T13:57:54Z</time>
      </trkpt>
      <trkpt lat="36.75368" lon="-4.042715">
        <ele>41.594</ele>
        <time>2021-06-16T13:57:56Z</time>
      </trkpt>
      <trkpt lat="36.753824" lon="-4.042903">
        <ele>40.757</ele>
        <time>2021-06-16T13:57:57Z</time>
      </trkpt>
      <trkpt lat="36.753987" lon="-4.04311">
        <ele>40.022</ele>
        <time>2021-06-16T13:57:58Z</time>
      </trkpt>
      <trkpt lat="36.754261" lon="-4.043431">
        <ele>39.408</ele>
        <time>2021-06-16T13:58:00Z</time>
      </trkpt>
      <trkpt lat="36.754415" lon="-4.043601">
        <ele>38.956</ele>
        <time>2021-06-16T13:58:01Z</time>
      </trkpt>
      <trkpt lat="36.754573" lon="-4.043771">
        <ele>38.484</ele>
        <time>2021-06-16T13:58:02Z</time>
      </trkpt>
      <trkpt lat="36.754876" lon="-4.04408">
        <ele>37.948</ele>
        <time>2021-06-16T13:58:04Z</time>
      </trkpt>
      <trkpt lat="36.755032" lon="-4.044236">
        <ele>37.727</ele>
        <time>2021-06-16T13:58:05Z</time>
      </trkpt>
      <trkpt lat="36.755209" lon="-4.044408">
        <ele>37.350</ele>
        <time>2021-06-16T13:58:06Z</time>
      </trkpt>
      <trkpt lat="36.755499" lon="-4.044687">
        <ele>37.367</ele>
        <time>2021-06-16T13:58:08Z</time>
      </trkpt>
      <trkpt lat="36.755813" lon="-4.044989">
        <ele>37.044</ele>
        <time>2021-06-16T13:58:10Z</time>
      </trkpt>
      <trkpt lat="36.755974" lon="-4.045137">
        <ele>36.534</ele>
        <time>2021-06-16T13:58:11Z</time>
      </trkpt>
      <trkpt lat="36.756297" lon="-4.045434">
        <ele>36.692</ele>
        <time>2021-06-16T13:58:13Z</time>
      </trkpt>
      <trkpt lat="36.756478" lon="-4.045599">
        <ele>37.173</ele>
        <time>2021-06-16T13:58:14Z</time>
      </trkpt>
      <trkpt lat="36.756765" lon="-4.045884">
        <ele>37.320</ele>
        <time>2021-06-16T13:58:16Z</time>
      </trkpt>
      <trkpt lat="36.75707" lon="-4.046214">
        <ele>38.308</ele>
        <time>2021-06-16T13:58:18Z</time>
      </trkpt>
      <trkpt lat="36.757216" lon="-4.046383">
        <ele>38.926</ele>
        <time>2021-06-16T13:58:19Z</time>
      </trkpt>
      <trkpt lat="36.757503" lon="-4.046724">
        <ele>39.844</ele>
        <time>2021-06-16T13:58:21Z</time>
      </trkpt>
      <trkpt lat="36.757658" lon="-4.046923">
        <ele>40.538</ele>
        <time>2021-06-16T13:58:22Z</time>
      </trkpt>
      <trkpt lat="36.757908" lon="-4.047268">
        <ele>40.967</ele>
        <time>2021-06-16T13:58:24Z</time>
      </trkpt>
      <trkpt lat="36.758045" lon="-4.047462">
        <ele>41.070</ele>
        <time>2021-06-16T13:58:25Z</time>
      </trkpt>
      <trkpt lat="36.758307" lon="-4.047853">
        <ele>41.757</ele>
        <time>2021-06-16T13:58:27Z</time>
      </trkpt>
      <trkpt lat="36.758554" lon="-4.048247">
        <ele>42.544</ele>
        <time>2021-06-16T13:58:29Z</time>
      </trkpt>
      <trkpt lat="36.758685" lon="-4.048471">
        <ele>43.494</ele>
        <time>2021-06-16T13:58:30Z</time>
      </trkpt>
      <trkpt lat="36.758891" lon="-4.048847">
        <ele>44.653</ele>
        <time>2021-06-16T13:58:32Z</time>
      </trkpt>
      <trkpt lat="36.759106" lon="-4.049269">
        <ele>45.304</ele>
        <time>2021-06-16T13:58:34Z</time>
      </trkpt>
      <trkpt lat="36.759223" lon="-4.049504">
        <ele>46.114</ele>
        <time>2021-06-16T13:58:35Z</time>
      </trkpt>
      <trkpt lat="36.759399" lon="-4.049891">
        <ele>47.408</ele>
        <time>2021-06-16T13:58:37Z</time>
      </trkpt>
      <trkpt lat="36.759495" lon="-4.050104">
        <ele>48.542</ele>
        <time>2021-06-16T13:58:38Z</time>
      </trkpt>
      <trkpt lat="36.759596" lon="-4.050345">
        <ele>49.670</ele>
        <time>2021-06-16T13:58:39Z</time>
      </trkpt>
      <trkpt lat="36.759745" lon="-4.050759">
        <ele>51.074</ele>
        <time>2021-06-16T13:58:41Z</time>
      </trkpt>
      <trkpt lat="36.759824" lon="-4.050984">
        <ele>52.093</ele>
        <time>2021-06-16T13:58:42Z</time>
      </trkpt>
      <trkpt lat="36.759905" lon="-4.051215">
        <ele>53.256</ele>
        <time>2021-06-16T13:58:43Z</time>
      </trkpt>
      <trkpt lat="36.760047" lon="-4.051666">
        <ele>54.393</ele>
        <time>2021-06-16T13:58:45Z</time>
      </trkpt>
      <trkpt lat="36.760115" lon="-4.051901">
        <ele>55.230</ele>
        <time>2021-06-16T13:58:46Z</time>
      </trkpt>
      <trkpt lat="36.760191" lon="-4.052162">
        <ele>56.350</ele>
        <time>2021-06-16T13:58:47Z</time>
      </trkpt>
      <trkpt lat="36.760304" lon="-4.052594">
        <ele>57.413</ele>
        <time>2021-06-16T13:58:49Z</time>
      </trkpt>
      <trkpt lat="36.760359" lon="-4.052833">
        <ele>58.143</ele>
        <time>2021-06-16T13:58:50Z</time>
      </trkpt>
      <trkpt lat="36.760454" lon="-4.053321">
        <ele>59.507</ele>
        <time>2021-06-16T13:58:52Z</time>
      </trkpt>
      <trkpt lat="36.760498" lon="-4.053564">
        <ele>61.008</ele>
        <time>2021-06-16T13:58:53Z</time>
      </trkpt>
      <trkpt lat="36.760541" lon="-4.053804">
        <ele>62.078</ele>
        <time>2021-06-16T13:58:54Z</time>
      </trkpt>
      <trkpt lat="36.76058" lon="-4.054044">
        <ele>63.016</ele>
        <time>2021-06-16T13:58:55Z</time>
      </trkpt>
      <trkpt lat="36.760618" lon="-4.054315">
        <ele>63.950</ele>
        <time>2021-06-16T13:58:56Z</time>
      </trkpt>
      <trkpt lat="36.760667" lon="-4.054754">
        <ele>65.459</ele>
        <time>2021-06-16T13:58:58Z</time>
      </trkpt>
      <trkpt lat="36.760689" lon="-4.054998">
        <ele>66.642</ele>
        <time>2021-06-16T13:58:59Z</time>
      </trkpt>
      <trkpt lat="36.760717" lon="-4.055307">
        <ele>67.839</ele>
        <time>2021-06-16T13:59:00Z</time>
      </trkpt>
      <trkpt lat="36.760742" lon="-4.055691">
        <ele>69.216</ele>
        <time>2021-06-16T13:59:02Z</time>
      </trkpt>
      <trkpt lat="36.760758" lon="-4.05595">
        <ele>70.456</ele>
        <time>2021-06-16T13:59:03Z</time>
      </trkpt>
      <trkpt lat="36.760791" lon="-4.05648">
        <ele>71.199</ele>
        <time>2021-06-16T13:59:05Z</time>
      </trkpt>
      <trkpt lat="36.760808" lon="-4.056938">
        <ele>71.407</ele>
        <time>2021-06-16T13:59:07Z</time>
      </trkpt>
      <trkpt lat="36.760828" lon="-4.057451">
        <ele>72.227</ele>
        <time>2021-06-16T13:59:09Z</time>
      </trkpt>
      <trkpt lat="36.760845" lon="-4.057735">
        <ele>72.608</ele>
        <time>2021-06-16T13:59:10Z</time>
      </trkpt>
      <trkpt lat="36.760879" lon="-4.058201">
        <ele>73.456</ele>
        <time>2021-06-16T13:59:12Z</time>
      </trkpt>
      <trkpt lat="36.7609" lon="-4.058457">
        <ele>74.354</ele>
        <time>2021-06-16T13:59:13Z</time>
      </trkpt>
      <trkpt lat="36.760929" lon="-4.058738">
        <ele>75.198</ele>
        <time>2021-06-16T13:59:14Z</time>
      </trkpt>
      <trkpt lat="36.760992" lon="-4.059196">
        <ele>76.087</ele>
        <time>2021-06-16T13:59:16Z</time>
      </trkpt>
      <trkpt lat="36.761069" lon="-4.059704">
        <ele>76.850</ele>
        <time>2021-06-16T13:59:18Z</time>
      </trkpt>
      <trkpt lat="36.761163" lon="-4.060179">
        <ele>77.667</ele>
        <time>2021-06-16T13:59:20Z</time>
      </trkpt>
      <trkpt lat="36.761215" lon="-4.06042">
        <ele>78.094</ele>
        <time>2021-06-16T13:59:21Z</time>
      </trkpt>
      <trkpt lat="36.761277" lon="-4.060691">
        <ele>78.084</ele>
        <time>2021-06-16T13:59:22Z</time>
      </trkpt>
      <trkpt lat="36.761396" lon="-4.06113">
        <ele>77.718</ele>
        <time>2021-06-16T13:59:24Z</time>
      </trkpt>
      <trkpt lat="36.761531" lon="-4.061612">
        <ele>78.398</ele>
        <time>2021-06-16T13:59:26Z</time>
      </trkpt>
      <trkpt lat="36.761673" lon="-4.06208">
        <ele>78.517</ele>
        <time>2021-06-16T13:59:28Z</time>
      </trkpt>
      <trkpt lat="36.761746" lon="-4.062309">
        <ele>78.708</ele>
        <time>2021-06-16T13:59:29Z</time>
      </trkpt>
      <trkpt lat="36.761821" lon="-4.062538">
        <ele>78.888</ele>
        <time>2021-06-16T13:59:30Z</time>
      </trkpt>
      <trkpt lat="36.761899" lon="-4.062769">
        <ele>79.036</ele>
        <time>2021-06-16T13:59:31Z</time>
      </trkpt>
      <trkpt lat="36.762058" lon="-4.063223">
        <ele>79.240</ele>
        <time>2021-06-16T13:59:33Z</time>
      </trkpt>
      <trkpt lat="36.76223" lon="-4.063708">
        <ele>79.439</ele>
        <time>2021-06-16T13:59:35Z</time>
      </trkpt>
      <trkpt lat="36.762385" lon="-4.064125">
        <ele>79.672</ele>
        <time>2021-06-16T13:59:37Z</time>
      </trkpt>
      <trkpt lat="36.762469" lon="-4.064362">
        <ele>79.779</ele>
        <time>2021-06-16T13:59:38Z</time>
      </trkpt>
      <trkpt lat="36.762561" lon="-4.064622">
        <ele>79.346</ele>
        <time>2021-06-16T13:59:39Z</time>
      </trkpt>
      <trkpt lat="36.76271" lon="-4.065046">
        <ele>78.946</ele>
        <time>2021-06-16T13:59:41Z</time>
      </trkpt>
      <trkpt lat="36.76279" lon="-4.065282">
        <ele>77.941</ele>
        <time>2021-06-16T13:59:42Z</time>
      </trkpt>
      <trkpt lat="36.762954" lon="-4.065752">
        <ele>77.281</ele>
        <time>2021-06-16T13:59:44Z</time>
      </trkpt>
      <trkpt lat="36.763102" lon="-4.066237">
        <ele>76.509</ele>
        <time>2021-06-16T13:59:46Z</time>
      </trkpt>
      <trkpt lat="36.763166" lon="-4.066489">
        <ele>75.708</ele>
        <time>2021-06-16T13:59:47Z</time>
      </trkpt>
      <trkpt lat="36.763289" lon="-4.066993">
        <ele>74.961</ele>
        <time>2021-06-16T13:59:49Z</time>
      </trkpt>
      <trkpt lat="36.763383" lon="-4.067514">
        <ele>74.129</ele>
        <time>2021-06-16T13:59:51Z</time>
      </trkpt>
      <trkpt lat="36.763463" lon="-4.068023">
        <ele>72.733</ele>
        <time>2021-06-16T13:59:53Z</time>
      </trkpt>
      <trkpt lat="36.763499" lon="-4.068285">
        <ele>71.452</ele>
        <time>2021-06-16T13:59:54Z</time>
      </trkpt>
      <trkpt lat="36.763558" lon="-4.068803">
        <ele>69.575</ele>
        <time>2021-06-16T13:59:56Z</time>
      </trkpt>
      <trkpt lat="36.763585" lon="-4.069081">
        <ele>67.932</ele>
        <time>2021-06-16T13:59:57Z</time>
      </trkpt>
      <trkpt lat="36.763625" lon="-4.069585">
        <ele>65.879</ele>
        <time>2021-06-16T13:59:59Z</time>
      </trkpt>
      <trkpt lat="36.763641" lon="-4.069849">
        <ele>65.149</ele>
        <time>2021-06-16T14:00:00Z</time>
      </trkpt>
      <trkpt lat="36.763659" lon="-4.070399">
        <ele>63.454</ele>
        <time>2021-06-16T14:00:02Z</time>
      </trkpt>
      <trkpt lat="36.763649" lon="-4.070882">
        <ele>61.856</ele>
        <time>2021-06-16T14:00:04Z</time>
      </trkpt>
      <trkpt lat="36.76362" lon="-4.071425">
        <ele>59.911</ele>
        <time>2021-06-16T14:00:06Z</time>
      </trkpt>
      <trkpt lat="36.76358" lon="-4.071888">
        <ele>58.308</ele>
        <time>2021-06-16T14:00:08Z</time>
      </trkpt>
      <trkpt lat="36.76352" lon="-4.072388">
        <ele>56.812</ele>
        <time>2021-06-16T14:00:10Z</time>
      </trkpt>
      <trkpt lat="36.763479" lon="-4.072668">
        <ele>55.450</ele>
        <time>2021-06-16T14:00:11Z</time>
      </trkpt>
      <trkpt lat="36.763401" lon="-4.07313">
        <ele>53.874</ele>
        <time>2021-06-16T14:00:13Z</time>
      </trkpt>
      <trkpt lat="36.763302" lon="-4.073655">
        <ele>52.233</ele>
        <time>2021-06-16T14:00:15Z</time>
      </trkpt>
      <trkpt lat="36.763199" lon="-4.074108">
        <ele>51.196</ele>
        <time>2021-06-16T14:00:17Z</time>
      </trkpt>
      <trkpt lat="36.763132" lon="-4.074354">
        <ele>50.233</ele>
        <time>2021-06-16T14:00:18Z</time>
      </trkpt>
      <trkpt lat="36.762986" lon="-4.074861">
        <ele>49.270</ele>
        <time>2021-06-16T14:00:20Z</time>
      </trkpt>
      <trkpt lat="36.76285" lon="-4.075293">
        <ele>47.830</ele>
        <time>2021-06-16T14:00:22Z</time>
      </trkpt>
      <trkpt lat="36.762688" lon="-4.075777">
        <ele>46.121</ele>
        <time>2021-06-16T14:00:24Z</time>
      </trkpt>
      <trkpt lat="36.762537" lon="-4.07619">
        <ele>45.041</ele>
        <time>2021-06-16T14:00:26Z</time>
      </trkpt>
      <trkpt lat="36.762448" lon="-4.076419">
        <ele>44.305</ele>
        <time>2021-06-16T14:00:27Z</time>
      </trkpt>
      <trkpt lat="36.762354" lon="-4.076657">
        <ele>43.508</ele>
        <time>2021-06-16T14:00:28Z</time>
      </trkpt>
      <trkpt lat="36.762174" lon="-4.077082">
        <ele>42.489</ele>
        <time>2021-06-16T14:00:30Z</time>
      </trkpt>
      <trkpt lat="36.761967" lon="-4.077557">
        <ele>41.657</ele>
        <time>2021-06-16T14:00:32Z</time>
      </trkpt>
      <trkpt lat="36.76179" lon="-4.077962">
        <ele>41.031</ele>
        <time>2021-06-16T14:00:34Z</time>
      </trkpt>
      <trkpt lat="36.761692" lon="-4.078185">
        <ele>40.660</ele>
        <time>2021-06-16T14:00:35Z</time>
      </trkpt>
      <trkpt lat="36.761594" lon="-4.078405">
        <ele>40.543</ele>
        <time>2021-06-16T14:00:36Z</time>
      </trkpt>
      <trkpt lat="36.761483" lon="-4.078647">
        <ele>40.340</ele>
        <time>2021-06-16T14:00:37Z</time>
      </trkpt>
      <trkpt lat="36.761307" lon="-4.079037">
        <ele>40.157</ele>
        <time>2021-06-16T14:00:39Z</time>
      </trkpt>
      <trkpt lat="36.761209" lon="-4.079252">
        <ele>39.847</ele>
        <time>2021-06-16T14:00:40Z</time>
      </trkpt>
      <trkpt lat="36.761096" lon="-4.079492">
        <ele>39.561</ele>
        <time>2021-06-16T14:00:41Z</time>
      </trkpt>
      <trkpt lat="36.760919" lon="-4.079874">
        <ele>38.921</ele>
        <time>2021-06-16T14:00:43Z</time>
      </trkpt>
      <trkpt lat="36.760823" lon="-4.080085">
        <ele>38.713</ele>
        <time>2021-06-16T14:00:44Z</time>
      </trkpt>
      <trkpt lat="36.760714" lon="-4.080322">
        <ele>38.608</ele>
        <time>2021-06-16T14:00:45Z</time>
      </trkpt>
      <trkpt lat="36.760531" lon="-4.080712">
        <ele>38.623</ele>
        <time>2021-06-16T14:00:47Z</time>
      </trkpt>
      <trkpt lat="36.760428" lon="-4.080928">
        <ele>38.751</ele>
        <time>2021-06-16T14:00:48Z</time>
      </trkpt>
      <trkpt lat="36.760326" lon="-4.081141">
        <ele>38.495</ele>
        <time>2021-06-16T14:00:49Z</time>
      </trkpt>
      <trkpt lat="36.760214" lon="-4.081382">
        <ele>38.214</ele>
        <time>2021-06-16T14:00:50Z</time>
      </trkpt>
      <trkpt lat="36.760041" lon="-4.081776">
        <ele>37.757</ele>
        <time>2021-06-16T14:00:52Z</time>
      </trkpt>
      <trkpt lat="36.759946" lon="-4.081994">
        <ele>37.544</ele>
        <time>2021-06-16T14:00:53Z</time>
      </trkpt>
      <trkpt lat="36.759842" lon="-4.082234">
        <ele>37.261</ele>
        <time>2021-06-16T14:00:54Z</time>
      </trkpt>
      <trkpt lat="36.759669" lon="-4.082634">
        <ele>36.741</ele>
        <time>2021-06-16T14:00:56Z</time>
      </trkpt>
      <trkpt lat="36.759576" lon="-4.082855">
        <ele>36.541</ele>
        <time>2021-06-16T14:00:57Z</time>
      </trkpt>
      <trkpt lat="36.759477" lon="-4.083098">
        <ele>36.381</ele>
        <time>2021-06-16T14:00:58Z</time>
      </trkpt>
      <trkpt lat="36.759313" lon="-4.083497">
        <ele>36.209</ele>
        <time>2021-06-16T14:01:00Z</time>
      </trkpt>
      <trkpt lat="36.759227" lon="-4.083712">
        <ele>35.608</ele>
        <time>2021-06-16T14:01:01Z</time>
      </trkpt>
      <trkpt lat="36.759142" lon="-4.083929">
        <ele>35.361</ele>
        <time>2021-06-16T14:01:02Z</time>
      </trkpt>
      <trkpt lat="36.758974" lon="-4.084358">
        <ele>35.239</ele>
        <time>2021-06-16T14:01:04Z</time>
      </trkpt>
      <trkpt lat="36.758809" lon="-4.084793">
        <ele>35.263</ele>
        <time>2021-06-16T14:01:06Z</time>
      </trkpt>
      <trkpt lat="36.758719" lon="-4.08503">
        <ele>35.322</ele>
        <time>2021-06-16T14:01:07Z</time>
      </trkpt>
      <trkpt lat="36.758564" lon="-4.085444">
        <ele>35.225</ele>
        <time>2021-06-16T14:01:09Z</time>
      </trkpt>
      <trkpt lat="36.758399" lon="-4.085907">
        <ele>34.992</ele>
        <time>2021-06-16T14:01:11Z</time>
      </trkpt>
      <trkpt lat="36.758257" lon="-4.086336">
        <ele>34.839</ele>
        <time>2021-06-16T14:01:13Z</time>
      </trkpt>
      <trkpt lat="36.758114" lon="-4.086791">
        <ele>34.779</ele>
        <time>2021-06-16T14:01:15Z</time>
      </trkpt>
      <trkpt lat="36.757986" lon="-4.087249">
        <ele>34.588</ele>
        <time>2021-06-16T14:01:17Z</time>
      </trkpt>
      <trkpt lat="36.757923" lon="-4.087474">
        <ele>34.224</ele>
        <time>2021-06-16T14:01:18Z</time>
      </trkpt>
      <trkpt lat="36.757797" lon="-4.087922">
        <ele>34.226</ele>
        <time>2021-06-16T14:01:20Z</time>
      </trkpt>
      <trkpt lat="36.757733" lon="-4.08815">
        <ele>34.408</ele>
        <time>2021-06-16T14:01:21Z</time>
      </trkpt>
      <trkpt lat="36.757615" lon="-4.088607">
        <ele>34.445</ele>
        <time>2021-06-16T14:01:23Z</time>
      </trkpt>
      <trkpt lat="36.757561" lon="-4.088836">
        <ele>34.293</ele>
        <time>2021-06-16T14:01:24Z</time>
      </trkpt>
      <trkpt lat="36.757456" lon="-4.089306">
        <ele>33.917</ele>
        <time>2021-06-16T14:01:26Z</time>
      </trkpt>
      <trkpt lat="36.757358" lon="-4.089777">
        <ele>33.146</ele>
        <time>2021-06-16T14:01:28Z</time>
      </trkpt>
      <trkpt lat="36.757312" lon="-4.090019">
        <ele>33.089</ele>
        <time>2021-06-16T14:01:29Z</time>
      </trkpt>
      <trkpt lat="36.757271" lon="-4.09026">
        <ele>32.836</ele>
        <time>2021-06-16T14:01:30Z</time>
      </trkpt>
      <trkpt lat="36.757193" lon="-4.090769">
        <ele>32.483</ele>
        <time>2021-06-16T14:01:32Z</time>
      </trkpt>
      <trkpt lat="36.757131" lon="-4.091207">
        <ele>32.893</ele>
        <time>2021-06-16T14:01:34Z</time>
      </trkpt>
      <trkpt lat="36.757099" lon="-4.09145">
        <ele>33.271</ele>
        <time>2021-06-16T14:01:35Z</time>
      </trkpt>
      <trkpt lat="36.757069" lon="-4.091702">
        <ele>33.341</ele>
        <time>2021-06-16T14:01:36Z</time>
      </trkpt>
      <trkpt lat="36.757025" lon="-4.092159">
        <ele>32.915</ele>
        <time>2021-06-16T14:01:38Z</time>
      </trkpt>
      <trkpt lat="36.757007" lon="-4.092401">
        <ele>32.708</ele>
        <time>2021-06-16T14:01:39Z</time>
      </trkpt>
      <trkpt lat="36.756992" lon="-4.092643">
        <ele>32.244</ele>
        <time>2021-06-16T14:01:40Z</time>
      </trkpt>
      <trkpt lat="36.756971" lon="-4.093127">
        <ele>31.842</ele>
        <time>2021-06-16T14:01:42Z</time>
      </trkpt>
      <trkpt lat="36.75696" lon="-4.093368">
        <ele>31.466</ele>
        <time>2021-06-16T14:01:43Z</time>
      </trkpt>
      <trkpt lat="36.756935" lon="-4.093856">
        <ele>31.055</ele>
        <time>2021-06-16T14:01:45Z</time>
      </trkpt>
      <trkpt lat="36.756907" lon="-4.094346">
        <ele>30.938</ele>
        <time>2021-06-16T14:01:47Z</time>
      </trkpt>
      <trkpt lat="36.756895" lon="-4.094591">
        <ele>31.395</ele>
        <time>2021-06-16T14:01:48Z</time>
      </trkpt>
      <trkpt lat="36.756885" lon="-4.094833">
        <ele>31.552</ele>
        <time>2021-06-16T14:01:49Z</time>
      </trkpt>
      <trkpt lat="36.756872" lon="-4.09531">
        <ele>31.512</ele>
        <time>2021-06-16T14:01:51Z</time>
      </trkpt>
      <trkpt lat="36.756858" lon="-4.095791">
        <ele>31.437</ele>
        <time>2021-06-16T14:01:53Z</time>
      </trkpt>
      <trkpt lat="36.756854" lon="-4.096031">
        <ele>31.449</ele>
        <time>2021-06-16T14:01:54Z</time>
      </trkpt>
      <trkpt lat="36.756836" lon="-4.096511">
        <ele>30.913</ele>
        <time>2021-06-16T14:01:56Z</time>
      </trkpt>
      <trkpt lat="36.756824" lon="-4.096755">
        <ele>31.208</ele>
        <time>2021-06-16T14:01:57Z</time>
      </trkpt>
      <trkpt lat="36.756808" lon="-4.097247">
        <ele>31.260</ele>
        <time>2021-06-16T14:01:59Z</time>
      </trkpt>
      <trkpt lat="36.756796" lon="-4.097495">
        <ele>30.948</ele>
        <time>2021-06-16T14:02:00Z</time>
      </trkpt>
      <trkpt lat="36.756783" lon="-4.097745">
        <ele>30.732</ele>
        <time>2021-06-16T14:02:01Z</time>
      </trkpt>
      <trkpt lat="36.756775" lon="-4.097997">
        <ele>30.451</ele>
        <time>2021-06-16T14:02:02Z</time>
      </trkpt>
      <trkpt lat="36.756767" lon="-4.09828">
        <ele>30.544</ele>
        <time>2021-06-16T14:02:03Z</time>
      </trkpt>
      <trkpt lat="36.756757" lon="-4.09874">
        <ele>30.331</ele>
        <time>2021-06-16T14:02:05Z</time>
      </trkpt>
      <trkpt lat="36.756751" lon="-4.098997">
        <ele>30.058</ele>
        <time>2021-06-16T14:02:06Z</time>
      </trkpt>
      <trkpt lat="36.75674" lon="-4.099267">
        <ele>29.928</ele>
        <time>2021-06-16T14:02:07Z</time>
      </trkpt>
      <trkpt lat="36.756727" lon="-4.099758">
        <ele>30.056</ele>
        <time>2021-06-16T14:02:09Z</time>
      </trkpt>
      <trkpt lat="36.756716" lon="-4.100011">
        <ele>30.159</ele>
        <time>2021-06-16T14:02:10Z</time>
      </trkpt>
      <trkpt lat="36.756697" lon="-4.100529">
        <ele>30.314</ele>
        <time>2021-06-16T14:02:12Z</time>
      </trkpt>
      <trkpt lat="36.756683" lon="-4.101009">
        <ele>29.808</ele>
        <time>2021-06-16T14:02:14Z</time>
      </trkpt>
      <trkpt lat="36.756667" lon="-4.101501">
        <ele>28.782</ele>
        <time>2021-06-16T14:02:16Z</time>
      </trkpt>
      <trkpt lat="36.756661" lon="-4.101749">
        <ele>28.090</ele>
        <time>2021-06-16T14:02:17Z</time>
      </trkpt>
      <trkpt lat="36.756646" lon="-4.10225">
        <ele>28.444</ele>
        <time>2021-06-16T14:02:19Z</time>
      </trkpt>
      <trkpt lat="36.756639" lon="-4.102506">
        <ele>28.453</ele>
        <time>2021-06-16T14:02:20Z</time>
      </trkpt>
      <trkpt lat="36.75663" lon="-4.102988">
        <ele>28.776</ele>
        <time>2021-06-16T14:02:22Z</time>
      </trkpt>
      <trkpt lat="36.756625" lon="-4.103241">
        <ele>28.523</ele>
        <time>2021-06-16T14:02:23Z</time>
      </trkpt>
      <trkpt lat="36.756619" lon="-4.103525">
        <ele>29.080</ele>
        <time>2021-06-16T14:02:24Z</time>
      </trkpt>
      <trkpt lat="36.75661" lon="-4.103988">
        <ele>28.930</ele>
        <time>2021-06-16T14:02:26Z</time>
      </trkpt>
      <trkpt lat="36.756604" lon="-4.104243">
        <ele>28.639</ele>
        <time>2021-06-16T14:02:27Z</time>
      </trkpt>
      <trkpt lat="36.756585" lon="-4.104784">
        <ele>27.901</ele>
        <time>2021-06-16T14:02:29Z</time>
      </trkpt>
      <trkpt lat="36.75657" lon="-4.105248">
        <ele>27.321</ele>
        <time>2021-06-16T14:02:31Z</time>
      </trkpt>
      <trkpt lat="36.756559" lon="-4.105507">
        <ele>26.508</ele>
        <time>2021-06-16T14:02:32Z</time>
      </trkpt>
      <trkpt lat="36.756542" lon="-4.105795">
        <ele>25.820</ele>
        <time>2021-06-16T14:02:33Z</time>
      </trkpt>
      <trkpt lat="36.756511" lon="-4.10626">
        <ele>25.628</ele>
        <time>2021-06-16T14:02:35Z</time>
      </trkpt>
      <trkpt lat="36.756466" lon="-4.106766">
        <ele>25.252</ele>
        <time>2021-06-16T14:02:37Z</time>
      </trkpt>
      <trkpt lat="36.756446" lon="-4.107015">
        <ele>25.031</ele>
        <time>2021-06-16T14:02:38Z</time>
      </trkpt>
      <trkpt lat="36.756427" lon="-4.107261">
        <ele>25.024</ele>
        <time>2021-06-16T14:02:39Z</time>
      </trkpt>
      <trkpt lat="36.756375" lon="-4.107787">
        <ele>25.091</ele>
        <time>2021-06-16T14:02:41Z</time>
      </trkpt>
      <trkpt lat="36.756337" lon="-4.108246">
        <ele>24.628</ele>
        <time>2021-06-16T14:02:43Z</time>
      </trkpt>
      <trkpt lat="36.756279" lon="-4.10875">
        <ele>24.378</ele>
        <time>2021-06-16T14:02:45Z</time>
      </trkpt>
      <trkpt lat="36.756247" lon="-4.109">
        <ele>24.431</ele>
        <time>2021-06-16T14:02:46Z</time>
      </trkpt>
      <trkpt lat="36.756217" lon="-4.109251">
        <ele>24.161</ele>
        <time>2021-06-16T14:02:47Z</time>
      </trkpt>
      <trkpt lat="36.756189" lon="-4.1095">
        <ele>24.207</ele>
        <time>2021-06-16T14:02:48Z</time>
      </trkpt>
      <trkpt lat="36.756111" lon="-4.110028">
        <ele>25.108</ele>
        <time>2021-06-16T14:02:50Z</time>
      </trkpt>
      <trkpt lat="36.756016" lon="-4.110484">
        <ele>25.830</ele>
        <time>2021-06-16T14:02:52Z</time>
      </trkpt>
      <trkpt lat="36.755895" lon="-4.111003">
        <ele>25.938</ele>
        <time>2021-06-16T14:02:54Z</time>
      </trkpt>
      <trkpt lat="36.75579" lon="-4.111445">
        <ele>25.892</ele>
        <time>2021-06-16T14:02:56Z</time>
      </trkpt>
      <trkpt lat="36.755727" lon="-4.111692">
        <ele>26.041</ele>
        <time>2021-06-16T14:02:57Z</time>
      </trkpt>
      <trkpt lat="36.755654" lon="-4.111967">
        <ele>26.614</ele>
        <time>2021-06-16T14:02:58Z</time>
      </trkpt>
      <trkpt lat="36.755526" lon="-4.112404">
        <ele>26.711</ele>
        <time>2021-06-16T14:03:00Z</time>
      </trkpt>
      <trkpt lat="36.755369" lon="-4.112893">
        <ele>27.848</ele>
        <time>2021-06-16T14:03:02Z</time>
      </trkpt>
      <trkpt lat="36.755283" lon="-4.113161">
        <ele>28.758</ele>
        <time>2021-06-16T14:03:03Z</time>
      </trkpt>
      <trkpt lat="36.755145" lon="-4.113594">
        <ele>29.765</ele>
        <time>2021-06-16T14:03:05Z</time>
      </trkpt>
      <trkpt lat="36.755066" lon="-4.113828">
        <ele>30.468</ele>
        <time>2021-06-16T14:03:06Z</time>
      </trkpt>
      <trkpt lat="36.754971" lon="-4.114088">
        <ele>31.014</ele>
        <time>2021-06-16T14:03:07Z</time>
      </trkpt>
      <trkpt lat="36.75481" lon="-4.114514">
        <ele>32.208</ele>
        <time>2021-06-16T14:03:09Z</time>
      </trkpt>
      <trkpt lat="36.754632" lon="-4.114975">
        <ele>33.373</ele>
        <time>2021-06-16T14:03:11Z</time>
      </trkpt>
      <trkpt lat="36.754528" lon="-4.115228">
        <ele>33.921</ele>
        <time>2021-06-16T14:03:12Z</time>
      </trkpt>
      <trkpt lat="36.754351" lon="-4.115628">
        <ele>35.245</ele>
        <time>2021-06-16T14:03:14Z</time>
      </trkpt>
      <trkpt lat="36.754252" lon="-4.115847">
        <ele>36.214</ele>
        <time>2021-06-16T14:03:15Z</time>
      </trkpt>
      <trkpt lat="36.754143" lon="-4.116087">
        <ele>36.537</ele>
        <time>2021-06-16T14:03:16Z</time>
      </trkpt>
      <trkpt lat="36.753956" lon="-4.11649">
        <ele>37.434</ele>
        <time>2021-06-16T14:03:18Z</time>
      </trkpt>
      <trkpt lat="36.753854" lon="-4.116705">
        <ele>37.861</ele>
        <time>2021-06-16T14:03:19Z</time>
      </trkpt>
      <trkpt lat="36.753749" lon="-4.116917">
        <ele>38.651</ele>
        <time>2021-06-16T14:03:20Z</time>
      </trkpt>
      <trkpt lat="36.753631" lon="-4.117151">
        <ele>39.412</ele>
        <time>2021-06-16T14:03:21Z</time>
      </trkpt>
      <trkpt lat="36.753432" lon="-4.117529">
        <ele>40.732</ele>
        <time>2021-06-16T14:03:23Z</time>
      </trkpt>
      <trkpt lat="36.75332" lon="-4.117739">
        <ele>41.705</ele>
        <time>2021-06-16T14:03:24Z</time>
      </trkpt>
      <trkpt lat="36.753194" lon="-4.117975">
        <ele>42.608</ele>
        <time>2021-06-16T14:03:25Z</time>
      </trkpt>
      <trkpt lat="36.752991" lon="-4.118354">
        <ele>43.868</ele>
        <time>2021-06-16T14:03:27Z</time>
      </trkpt>
      <trkpt lat="36.752767" lon="-4.118768">
        <ele>44.926</ele>
        <time>2021-06-16T14:03:29Z</time>
      </trkpt>
      <trkpt lat="36.752641" lon="-4.119">
        <ele>45.730</ele>
        <time>2021-06-16T14:03:30Z</time>
      </trkpt>
      <trkpt lat="36.752437" lon="-4.119378">
        <ele>46.939</ele>
        <time>2021-06-16T14:03:32Z</time>
      </trkpt>
      <trkpt lat="36.75221" lon="-4.119811">
        <ele>47.892</ele>
        <time>2021-06-16T14:03:34Z</time>
      </trkpt>
      <trkpt lat="36.752015" lon="-4.12017">
        <ele>49.369</ele>
        <time>2021-06-16T14:03:36Z</time>
      </trkpt>
      <trkpt lat="36.751802" lon="-4.120563">
        <ele>50.976</ele>
        <time>2021-06-16T14:03:38Z</time>
      </trkpt>
      <trkpt lat="36.751683" lon="-4.120787">
        <ele>52.826</ele>
        <time>2021-06-16T14:03:39Z</time>
      </trkpt>
      <trkpt lat="36.751492" lon="-4.121152">
        <ele>54.958</ele>
        <time>2021-06-16T14:03:41Z</time>
      </trkpt>
      <trkpt lat="36.751384" lon="-4.121355">
        <ele>57.352</ele>
        <time>2021-06-16T14:03:42Z</time>
      </trkpt>
      <trkpt lat="36.751265" lon="-4.12158">
        <ele>58.517</ele>
        <time>2021-06-16T14:03:43Z</time>
      </trkpt>
      <trkpt lat="36.751069" lon="-4.121945">
        <ele>59.908</ele>
        <time>2021-06-16T14:03:45Z</time>
      </trkpt>
      <trkpt lat="36.750959" lon="-4.122149">
        <ele>61.162</ele>
        <time>2021-06-16T14:03:46Z</time>
      </trkpt>
      <trkpt lat="36.750726" lon="-4.122592">
        <ele>63.120</ele>
        <time>2021-06-16T14:03:48Z</time>
      </trkpt>
      <trkpt lat="36.750527" lon="-4.12297">
        <ele>64.524</ele>
        <time>2021-06-16T14:03:50Z</time>
      </trkpt>
      <trkpt lat="36.750416" lon="-4.12318">
        <ele>65.963</ele>
        <time>2021-06-16T14:03:51Z</time>
      </trkpt>
      <trkpt lat="36.750289" lon="-4.123413">
        <ele>66.546</ele>
        <time>2021-06-16T14:03:52Z</time>
      </trkpt>
      <trkpt lat="36.750082" lon="-4.123792">
        <ele>67.213</ele>
        <time>2021-06-16T14:03:54Z</time>
      </trkpt>
      <trkpt lat="36.749969" lon="-4.124003">
        <ele>67.970</ele>
        <time>2021-06-16T14:03:55Z</time>
      </trkpt>
      <trkpt lat="36.749848" lon="-4.124233">
        <ele>68.650</ele>
        <time>2021-06-16T14:03:56Z</time>
      </trkpt>
      <trkpt lat="36.749648" lon="-4.124615">
        <ele>70.138</ele>
        <time>2021-06-16T14:03:58Z</time>
      </trkpt>
      <trkpt lat="36.749533" lon="-4.124824">
        <ele>71.470</ele>
        <time>2021-06-16T14:03:59Z</time>
      </trkpt>
      <trkpt lat="36.749422" lon="-4.12503">
        <ele>72.317</ele>
        <time>2021-06-16T14:04:00Z</time>
      </trkpt>
      <trkpt lat="36.749296" lon="-4.125263">
        <ele>73.008</ele>
        <time>2021-06-16T14:04:01Z</time>
      </trkpt>
      <trkpt lat="36.749091" lon="-4.125649">
        <ele>74.460</ele>
        <time>2021-06-16T14:04:03Z</time>
      </trkpt>
      <trkpt lat="36.748978" lon="-4.125865">
        <ele>75.268</ele>
        <time>2021-06-16T14:04:04Z</time>
      </trkpt>
      <trkpt lat="36.748853" lon="-4.126105">
        <ele>75.922</ele>
        <time>2021-06-16T14:04:05Z</time>
      </trkpt>
      <trkpt lat="36.748644" lon="-4.126494">
        <ele>76.911</ele>
        <time>2021-06-16T14:04:07Z</time>
      </trkpt>
      <trkpt lat="36.748532" lon="-4.126705">
        <ele>78.064</ele>
        <time>2021-06-16T14:04:08Z</time>
      </trkpt>
      <trkpt lat="36.748422" lon="-4.126914">
        <ele>78.951</ele>
        <time>2021-06-16T14:04:09Z</time>
      </trkpt>
      <trkpt lat="36.748303" lon="-4.12715">
        <ele>79.678</ele>
        <time>2021-06-16T14:04:10Z</time>
      </trkpt>
      <trkpt lat="36.748105" lon="-4.127527">
        <ele>80.918</ele>
        <time>2021-06-16T14:04:12Z</time>
      </trkpt>
      <trkpt lat="36.747991" lon="-4.127737">
        <ele>81.673</ele>
        <time>2021-06-16T14:04:13Z</time>
      </trkpt>
      <trkpt lat="36.747862" lon="-4.127969">
        <ele>82.385</ele>
        <time>2021-06-16T14:04:14Z</time>
      </trkpt>
      <trkpt lat="36.747667" lon="-4.128351">
        <ele>82.913</ele>
        <time>2021-06-16T14:04:16Z</time>
      </trkpt>
      <trkpt lat="36.747459" lon="-4.12877">
        <ele>84.008</ele>
        <time>2021-06-16T14:04:18Z</time>
      </trkpt>
      <trkpt lat="36.747342" lon="-4.129002">
        <ele>84.954</ele>
        <time>2021-06-16T14:04:19Z</time>
      </trkpt>
      <trkpt lat="36.747162" lon="-4.129375">
        <ele>85.742</ele>
        <time>2021-06-16T14:04:21Z</time>
      </trkpt>
      <trkpt lat="36.747066" lon="-4.129578">
        <ele>86.586</ele>
        <time>2021-06-16T14:04:22Z</time>
      </trkpt>
      <trkpt lat="36.74696" lon="-4.129809">
        <ele>87.185</ele>
        <time>2021-06-16T14:04:23Z</time>
      </trkpt>
      <trkpt lat="36.746791" lon="-4.130195">
        <ele>87.788</ele>
        <time>2021-06-16T14:04:25Z</time>
      </trkpt>
      <trkpt lat="36.746611" lon="-4.130631">
        <ele>88.755</ele>
        <time>2021-06-16T14:04:27Z</time>
      </trkpt>
      <trkpt lat="36.746526" lon="-4.130852">
        <ele>89.972</ele>
        <time>2021-06-16T14:04:28Z</time>
      </trkpt>
      <trkpt lat="36.746367" lon="-4.131303">
        <ele>91.282</ele>
        <time>2021-06-16T14:04:30Z</time>
      </trkpt>
      <trkpt lat="36.74621" lon="-4.131751">
        <ele>92.593</ele>
        <time>2021-06-16T14:04:32Z</time>
      </trkpt>
      <trkpt lat="36.746066" lon="-4.132204">
        <ele>93.965</ele>
        <time>2021-06-16T14:04:34Z</time>
      </trkpt>
      <trkpt lat="36.74594" lon="-4.132656">
        <ele>95.621</ele>
        <time>2021-06-16T14:04:36Z</time>
      </trkpt>
      <trkpt lat="36.745885" lon="-4.132882">
        <ele>96.708</ele>
        <time>2021-06-16T14:04:37Z</time>
      </trkpt>
      <trkpt lat="36.74583" lon="-4.133109">
        <ele>97.746</ele>
        <time>2021-06-16T14:04:38Z</time>
      </trkpt>
      <trkpt lat="36.745727" lon="-4.133568">
        <ele>99.194</ele>
        <time>2021-06-16T14:04:40Z</time>
      </trkpt>
      <trkpt lat="36.745679" lon="-4.133804">
        <ele>100.398</ele>
        <time>2021-06-16T14:04:41Z</time>
      </trkpt>
      <trkpt lat="36.745593" lon="-4.134275">
        <ele>101.397</ele>
        <time>2021-06-16T14:04:43Z</time>
      </trkpt>
      <trkpt lat="36.745552" lon="-4.134518">
        <ele>102.480</ele>
        <time>2021-06-16T14:04:44Z</time>
      </trkpt>
      <trkpt lat="36.745474" lon="-4.134992">
        <ele>103.677</ele>
        <time>2021-06-16T14:04:46Z</time>
      </trkpt>
      <trkpt lat="36.745415" lon="-4.135474">
        <ele>105.264</ele>
        <time>2021-06-16T14:04:48Z</time>
      </trkpt>
      <trkpt lat="36.745367" lon="-4.135956">
        <ele>107.014</ele>
        <time>2021-06-16T14:04:50Z</time>
      </trkpt>
      <trkpt lat="36.74535" lon="-4.1362">
        <ele>108.667</ele>
        <time>2021-06-16T14:04:51Z</time>
      </trkpt>
      <trkpt lat="36.745333" lon="-4.136445">
        <ele>109.881</ele>
        <time>2021-06-16T14:04:52Z</time>
      </trkpt>
      <trkpt lat="36.745314" lon="-4.136722">
        <ele>110.919</ele>
        <time>2021-06-16T14:04:53Z</time>
      </trkpt>
      <trkpt lat="36.745291" lon="-4.137186">
        <ele>112.208</ele>
        <time>2021-06-16T14:04:55Z</time>
      </trkpt>
      <trkpt lat="36.745283" lon="-4.13744">
        <ele>113.113</ele>
        <time>2021-06-16T14:04:56Z</time>
      </trkpt>
      <trkpt lat="36.745278" lon="-4.137724">
        <ele>114.461</ele>
        <time>2021-06-16T14:04:57Z</time>
      </trkpt>
      <trkpt lat="36.745283" lon="-4.138193">
        <ele>115.625</ele>
        <time>2021-06-16T14:04:59Z</time>
      </trkpt>
      <trkpt lat="36.745297" lon="-4.138716">
        <ele>117.334</ele>
        <time>2021-06-16T14:05:01Z</time>
      </trkpt>
      <trkpt lat="36.745323" lon="-4.13921">
        <ele>118.267</ele>
        <time>2021-06-16T14:05:03Z</time>
      </trkpt>
      <trkpt lat="36.745341" lon="-4.139456">
        <ele>119.344</ele>
        <time>2021-06-16T14:05:04Z</time>
      </trkpt>
      <trkpt lat="36.745361" lon="-4.139731">
        <ele>120.291</ele>
        <time>2021-06-16T14:05:05Z</time>
      </trkpt>
      <trkpt lat="36.745404" lon="-4.140171">
        <ele>121.581</ele>
        <time>2021-06-16T14:05:07Z</time>
      </trkpt>
      <trkpt lat="36.745432" lon="-4.14041">
        <ele>122.632</ele>
        <time>2021-06-16T14:05:08Z</time>
      </trkpt>
      <trkpt lat="36.745464" lon="-4.140658">
        <ele>123.392</ele>
        <time>2021-06-16T14:05:09Z</time>
      </trkpt>
      <trkpt lat="36.745528" lon="-4.14112">
        <ele>125.011</ele>
        <time>2021-06-16T14:05:11Z</time>
      </trkpt>
      <trkpt lat="36.745567" lon="-4.141358">
        <ele>126.408</ele>
        <time>2021-06-16T14:05:12Z</time>
      </trkpt>
      <trkpt lat="36.745655" lon="-4.141828">
        <ele>127.990</ele>
        <time>2021-06-16T14:05:14Z</time>
      </trkpt>
      <trkpt lat="36.745754" lon="-4.142293">
        <ele>129.588</ele>
        <time>2021-06-16T14:05:16Z</time>
      </trkpt>
      <trkpt lat="36.745866" lon="-4.142788">
        <ele>131.322</ele>
        <time>2021-06-16T14:05:18Z</time>
      </trkpt>
      <trkpt lat="36.745958" lon="-4.14323">
        <ele>133.781</ele>
        <time>2021-06-16T14:05:20Z</time>
      </trkpt>
      <trkpt lat="36.746081" lon="-4.14374">
        <ele>135.964</ele>
        <time>2021-06-16T14:05:22Z</time>
      </trkpt>
      <trkpt lat="36.74619" lon="-4.144176">
        <ele>137.781</ele>
        <time>2021-06-16T14:05:24Z</time>
      </trkpt>
      <trkpt lat="36.746247" lon="-4.144413">
        <ele>139.058</ele>
        <time>2021-06-16T14:05:25Z</time>
      </trkpt>
      <trkpt lat="36.74636" lon="-4.14488">
        <ele>140.458</ele>
        <time>2021-06-16T14:05:27Z</time>
      </trkpt>
      <trkpt lat="36.746414" lon="-4.145117">
        <ele>141.229</ele>
        <time>2021-06-16T14:05:28Z</time>
      </trkpt>
      <trkpt lat="36.746468" lon="-4.145353">
        <ele>142.400</ele>
        <time>2021-06-16T14:05:29Z</time>
      </trkpt>
      <trkpt lat="36.746524" lon="-4.14562">
        <ele>143.320</ele>
        <time>2021-06-16T14:05:30Z</time>
      </trkpt>
      <trkpt lat="36.746611" lon="-4.146051">
        <ele>144.508</ele>
        <time>2021-06-16T14:05:32Z</time>
      </trkpt>
      <trkpt lat="36.746657" lon="-4.146286">
        <ele>145.359</ele>
        <time>2021-06-16T14:05:33Z</time>
      </trkpt>
      <trkpt lat="36.746745" lon="-4.146783">
        <ele>145.847</ele>
        <time>2021-06-16T14:05:35Z</time>
      </trkpt>
      <trkpt lat="36.746801" lon="-4.147229">
        <ele>146.691</ele>
        <time>2021-06-16T14:05:37Z</time>
      </trkpt>
      <trkpt lat="36.74686" lon="-4.147754">
        <ele>147.660</ele>
        <time>2021-06-16T14:05:39Z</time>
      </trkpt>
      <trkpt lat="36.746915" lon="-4.148207">
        <ele>148.583</ele>
        <time>2021-06-16T14:05:41Z</time>
      </trkpt>
      <trkpt lat="36.746939" lon="-4.148459">
        <ele>149.160</ele>
        <time>2021-06-16T14:05:42Z</time>
      </trkpt>
      <trkpt lat="36.746979" lon="-4.148985">
        <ele>149.637</ele>
        <time>2021-06-16T14:05:44Z</time>
      </trkpt>
      <trkpt lat="36.746994" lon="-4.149445">
        <ele>150.037</ele>
        <time>2021-06-16T14:05:46Z</time>
      </trkpt>
      <trkpt lat="36.746999" lon="-4.1497">
        <ele>150.389</ele>
        <time>2021-06-16T14:05:47Z</time>
      </trkpt>
      <trkpt lat="36.747007" lon="-4.149985">
        <ele>150.606</ele>
        <time>2021-06-16T14:05:48Z</time>
      </trkpt>
      <trkpt lat="36.747018" lon="-4.150453">
        <ele>151.126</ele>
        <time>2021-06-16T14:05:50Z</time>
      </trkpt>
      <trkpt lat="36.747024" lon="-4.150711">
        <ele>151.808</ele>
        <time>2021-06-16T14:05:51Z</time>
      </trkpt>
      <trkpt lat="36.747028" lon="-4.150995">
        <ele>152.045</ele>
        <time>2021-06-16T14:05:52Z</time>
      </trkpt>
      <trkpt lat="36.747024" lon="-4.15147">
        <ele>152.973</ele>
        <time>2021-06-16T14:05:54Z</time>
      </trkpt>
      <trkpt lat="36.747038" lon="-4.152013">
        <ele>153.887</ele>
        <time>2021-06-16T14:05:56Z</time>
      </trkpt>
      <trkpt lat="36.747064" lon="-4.152484">
        <ele>154.266</ele>
        <time>2021-06-16T14:05:58Z</time>
      </trkpt>
      <trkpt lat="36.747085" lon="-4.152742">
        <ele>154.529</ele>
        <time>2021-06-16T14:05:59Z</time>
      </trkpt>
      <trkpt lat="36.747142" lon="-4.153274">
        <ele>154.796</ele>
        <time>2021-06-16T14:06:01Z</time>
      </trkpt>
      <trkpt lat="36.747211" lon="-4.15371">
        <ele>154.963</ele>
        <time>2021-06-16T14:06:03Z</time>
      </trkpt>
      <trkpt lat="36.747249" lon="-4.153956">
        <ele>155.133</ele>
        <time>2021-06-16T14:06:04Z</time>
      </trkpt>
      <trkpt lat="36.747294" lon="-4.154228">
        <ele>155.547</ele>
        <time>2021-06-16T14:06:05Z</time>
      </trkpt>
      <trkpt lat="36.747381" lon="-4.154671">
        <ele>155.529</ele>
        <time>2021-06-16T14:06:07Z</time>
      </trkpt>
      <trkpt lat="36.747496" lon="-4.155145">
        <ele>154.921</ele>
        <time>2021-06-16T14:06:09Z</time>
      </trkpt>
      <trkpt lat="36.747564" lon="-4.155404">
        <ele>154.608</ele>
        <time>2021-06-16T14:06:10Z</time>
      </trkpt>
      <trkpt lat="36.747681" lon="-4.155811">
        <ele>154.751</ele>
        <time>2021-06-16T14:06:12Z</time>
      </trkpt>
      <trkpt lat="36.747837" lon="-4.156281">
        <ele>155.149</ele>
        <time>2021-06-16T14:06:14Z</time>
      </trkpt>
      <trkpt lat="36.747989" lon="-4.156684">
        <ele>154.653</ele>
        <time>2021-06-16T14:06:16Z</time>
      </trkpt>
      <trkpt lat="36.748162" lon="-4.157146">
        <ele>155.052</ele>
        <time>2021-06-16T14:06:18Z</time>
      </trkpt>
      <trkpt lat="36.748256" lon="-4.157414">
        <ele>155.375</ele>
        <time>2021-06-16T14:06:19Z</time>
      </trkpt>
      <trkpt lat="36.748434" lon="-4.157823">
        <ele>155.512</ele>
        <time>2021-06-16T14:06:21Z</time>
      </trkpt>
      <trkpt lat="36.748533" lon="-4.15805">
        <ele>155.899</ele>
        <time>2021-06-16T14:06:22Z</time>
      </trkpt>
      <trkpt lat="36.748644" lon="-4.158307">
        <ele>156.379</ele>
        <time>2021-06-16T14:06:23Z</time>
      </trkpt>
      <trkpt lat="36.748821" lon="-4.158734">
        <ele>157.023</ele>
        <time>2021-06-16T14:06:25Z</time>
      </trkpt>
      <trkpt lat="36.749015" lon="-4.159205">
        <ele>158.183</ele>
        <time>2021-06-16T14:06:27Z</time>
      </trkpt>
      <trkpt lat="36.749173" lon="-4.15965">
        <ele>159.111</ele>
        <time>2021-06-16T14:06:29Z</time>
      </trkpt>
      <trkpt lat="36.749248" lon="-4.159886">
        <ele>159.808</ele>
        <time>2021-06-16T14:06:30Z</time>
      </trkpt>
      <trkpt lat="36.749329" lon="-4.160154">
        <ele>159.979</ele>
        <time>2021-06-16T14:06:31Z</time>
      </trkpt>
      <trkpt lat="36.749445" lon="-4.160599">
        <ele>160.367</ele>
        <time>2021-06-16T14:06:33Z</time>
      </trkpt>
      <trkpt lat="36.749568" lon="-4.161099">
        <ele>160.771</ele>
        <time>2021-06-16T14:06:35Z</time>
      </trkpt>
      <trkpt lat="36.749627" lon="-4.16138">
        <ele>160.910</ele>
        <time>2021-06-16T14:06:36Z</time>
      </trkpt>
      <trkpt lat="36.749708" lon="-4.161841">
        <ele>161.053</ele>
        <time>2021-06-16T14:06:38Z</time>
      </trkpt>
      <trkpt lat="36.749745" lon="-4.162094">
        <ele>161.410</ele>
        <time>2021-06-16T14:06:39Z</time>
      </trkpt>
      <trkpt lat="36.749775" lon="-4.162345">
        <ele>161.657</ele>
        <time>2021-06-16T14:06:40Z</time>
      </trkpt>
      <trkpt lat="36.749827" lon="-4.162845">
        <ele>162.027</ele>
        <time>2021-06-16T14:06:42Z</time>
      </trkpt>
      <trkpt lat="36.749847" lon="-4.163094">
        <ele>162.366</ele>
        <time>2021-06-16T14:06:43Z</time>
      </trkpt>
      <trkpt lat="36.749864" lon="-4.16335">
        <ele>162.229</ele>
        <time>2021-06-16T14:06:44Z</time>
      </trkpt>
      <trkpt lat="36.749878" lon="-4.163833">
        <ele>161.921</ele>
        <time>2021-06-16T14:06:46Z</time>
      </trkpt>
      <trkpt lat="36.74988" lon="-4.164085">
        <ele>161.608</ele>
        <time>2021-06-16T14:06:47Z</time>
      </trkpt>
      <trkpt lat="36.749876" lon="-4.164369">
        <ele>161.023</ele>
        <time>2021-06-16T14:06:48Z</time>
      </trkpt>
      <trkpt lat="36.74985" lon="-4.164836">
        <ele>160.791</ele>
        <time>2021-06-16T14:06:50Z</time>
      </trkpt>
      <trkpt lat="36.749833" lon="-4.16509">
        <ele>160.595</ele>
        <time>2021-06-16T14:06:51Z</time>
      </trkpt>
      <trkpt lat="36.74978" lon="-4.165603">
        <ele>160.224</ele>
        <time>2021-06-16T14:06:53Z</time>
      </trkpt>
      <trkpt lat="36.749717" lon="-4.166109">
        <ele>159.537</ele>
        <time>2021-06-16T14:06:55Z</time>
      </trkpt>
      <trkpt lat="36.749635" lon="-4.166607">
        <ele>159.154</ele>
        <time>2021-06-16T14:06:57Z</time>
      </trkpt>
      <trkpt lat="36.749587" lon="-4.166857">
        <ele>159.021</ele>
        <time>2021-06-16T14:06:58Z</time>
      </trkpt>
      <trkpt lat="36.749473" lon="-4.167345">
        <ele>158.521</ele>
        <time>2021-06-16T14:07:00Z</time>
      </trkpt>
      <trkpt lat="36.749412" lon="-4.167588">
        <ele>158.566</ele>
        <time>2021-06-16T14:07:01Z</time>
      </trkpt>
      <trkpt lat="36.749348" lon="-4.167825">
        <ele>158.129</ele>
        <time>2021-06-16T14:07:02Z</time>
      </trkpt>
      <trkpt lat="36.749201" lon="-4.16829">
        <ele>157.621</ele>
        <time>2021-06-16T14:07:04Z</time>
      </trkpt>
      <trkpt lat="36.749117" lon="-4.168552">
        <ele>157.208</ele>
        <time>2021-06-16T14:07:05Z</time>
      </trkpt>
      <trkpt lat="36.748966" lon="-4.168981">
        <ele>156.463</ele>
        <time>2021-06-16T14:07:07Z</time>
      </trkpt>
      <trkpt lat="36.748874" lon="-4.169211">
        <ele>155.931</ele>
        <time>2021-06-16T14:07:08Z</time>
      </trkpt>
      <trkpt lat="36.748772" lon="-4.169442">
        <ele>155.585</ele>
        <time>2021-06-16T14:07:09Z</time>
      </trkpt>
      <trkpt lat="36.74857" lon="-4.169887">
        <ele>154.314</ele>
        <time>2021-06-16T14:07:11Z</time>
      </trkpt>
      <trkpt lat="36.748457" lon="-4.170108">
        <ele>153.597</ele>
        <time>2021-06-16T14:07:12Z</time>
      </trkpt>
      <trkpt lat="36.748329" lon="-4.170356">
        <ele>152.654</ele>
        <time>2021-06-16T14:07:13Z</time>
      </trkpt>
      <trkpt lat="36.748112" lon="-4.170765">
        <ele>150.731</ele>
        <time>2021-06-16T14:07:15Z</time>
      </trkpt>
      <trkpt lat="36.747991" lon="-4.170993">
        <ele>149.671</ele>
        <time>2021-06-16T14:07:16Z</time>
      </trkpt>
      <trkpt lat="36.747863" lon="-4.17123">
        <ele>148.318</ele>
        <time>2021-06-16T14:07:17Z</time>
      </trkpt>
      <trkpt lat="36.747634" lon="-4.171667">
        <ele>146.698</ele>
        <time>2021-06-16T14:07:19Z</time>
      </trkpt>
      <trkpt lat="36.747517" lon="-4.171896">
        <ele>145.217</ele>
        <time>2021-06-16T14:07:20Z</time>
      </trkpt>
      <trkpt lat="36.74739" lon="-4.172153">
        <ele>144.008</ele>
        <time>2021-06-16T14:07:21Z</time>
      </trkpt>
      <trkpt lat="36.747194" lon="-4.172587">
        <ele>142.188</ele>
        <time>2021-06-16T14:07:23Z</time>
      </trkpt>
      <trkpt lat="36.747093" lon="-4.172831">
        <ele>140.796</ele>
        <time>2021-06-16T14:07:24Z</time>
      </trkpt>
      <trkpt lat="36.746997" lon="-4.173075">
        <ele>139.330</ele>
        <time>2021-06-16T14:07:25Z</time>
      </trkpt>
      <trkpt lat="36.746894" lon="-4.17335">
        <ele>137.999</ele>
        <time>2021-06-16T14:07:26Z</time>
      </trkpt>
      <trkpt lat="36.746746" lon="-4.173795">
        <ele>136.622</ele>
        <time>2021-06-16T14:07:28Z</time>
      </trkpt>
      <trkpt lat="36.746668" lon="-4.174042">
        <ele>135.259</ele>
        <time>2021-06-16T14:07:29Z</time>
      </trkpt>
      <trkpt lat="36.746588" lon="-4.174311">
        <ele>134.216</ele>
        <time>2021-06-16T14:07:30Z</time>
      </trkpt>
      <trkpt lat="36.746472" lon="-4.174772">
        <ele>132.496</ele>
        <time>2021-06-16T14:07:32Z</time>
      </trkpt>
      <trkpt lat="36.746366" lon="-4.175279">
        <ele>130.089</ele>
        <time>2021-06-16T14:07:34Z</time>
      </trkpt>
      <trkpt lat="36.746312" lon="-4.175568">
        <ele>128.606</ele>
        <time>2021-06-16T14:07:35Z</time>
      </trkpt>
      <trkpt lat="36.746242" lon="-4.176036">
        <ele>127.126</ele>
        <time>2021-06-16T14:07:37Z</time>
      </trkpt>
      <trkpt lat="36.746205" lon="-4.176298">
        <ele>126.008</ele>
        <time>2021-06-16T14:07:38Z</time>
      </trkpt>
      <trkpt lat="36.74617" lon="-4.176578">
        <ele>124.355</ele>
        <time>2021-06-16T14:07:39Z</time>
      </trkpt>
      <trkpt lat="36.746103" lon="-4.177078">
        <ele>122.853</ele>
        <time>2021-06-16T14:07:41Z</time>
      </trkpt>
      <trkpt lat="36.746016" lon="-4.177606">
        <ele>121.527</ele>
        <time>2021-06-16T14:07:43Z</time>
      </trkpt>
      <trkpt lat="36.745969" lon="-4.177868">
        <ele>120.336</ele>
        <time>2021-06-16T14:07:44Z</time>
      </trkpt>
      <trkpt lat="36.745853" lon="-4.178382">
        <ele>119.459</ele>
        <time>2021-06-16T14:07:46Z</time>
      </trkpt>
      <trkpt lat="36.74578" lon="-4.178666">
        <ele>118.466</ele>
        <time>2021-06-16T14:07:47Z</time>
      </trkpt>
      <trkpt lat="36.745653" lon="-4.179128">
        <ele>117.243</ele>
        <time>2021-06-16T14:07:49Z</time>
      </trkpt>
      <trkpt lat="36.745493" lon="-4.179631">
        <ele>115.823</ele>
        <time>2021-06-16T14:07:51Z</time>
      </trkpt>
      <trkpt lat="36.7454" lon="-4.179915">
        <ele>114.254</ele>
        <time>2021-06-16T14:07:52Z</time>
      </trkpt>
      <trkpt lat="36.745223" lon="-4.18037">
        <ele>112.656</ele>
        <time>2021-06-16T14:07:54Z</time>
      </trkpt>
      <trkpt lat="36.745119" lon="-4.180617">
        <ele>111.011</ele>
        <time>2021-06-16T14:07:55Z</time>
      </trkpt>
      <trkpt lat="36.744999" lon="-4.180892">
        <ele>109.708</ele>
        <time>2021-06-16T14:07:56Z</time>
      </trkpt>
      <trkpt lat="36.744784" lon="-4.181335">
        <ele>108.412</ele>
        <time>2021-06-16T14:07:58Z</time>
      </trkpt>
      <trkpt lat="36.744661" lon="-4.181572">
        <ele>107.540</ele>
        <time>2021-06-16T14:07:59Z</time>
      </trkpt>
      <trkpt lat="36.744412" lon="-4.182022">
        <ele>106.764</ele>
        <time>2021-06-16T14:08:01Z</time>
      </trkpt>
      <trkpt lat="36.744288" lon="-4.182238">
        <ele>105.923</ele>
        <time>2021-06-16T14:08:02Z</time>
      </trkpt>
      <trkpt lat="36.744034" lon="-4.182659">
        <ele>105.166</ele>
        <time>2021-06-16T14:08:04Z</time>
      </trkpt>
      <trkpt lat="36.743886" lon="-4.182896">
        <ele>104.513</ele>
        <time>2021-06-16T14:08:05Z</time>
      </trkpt>
      <trkpt lat="36.743634" lon="-4.183255">
        <ele>104.230</ele>
        <time>2021-06-16T14:08:07Z</time>
      </trkpt>
      <trkpt lat="36.743328" lon="-4.183652">
        <ele>104.330</ele>
        <time>2021-06-16T14:08:09Z</time>
      </trkpt>
      <trkpt lat="36.743054" lon="-4.183975">
        <ele>103.949</ele>
        <time>2021-06-16T14:08:11Z</time>
      </trkpt>
      <trkpt lat="36.7429" lon="-4.184146">
        <ele>104.002</ele>
        <time>2021-06-16T14:08:12Z</time>
      </trkpt>
      <trkpt lat="36.742743" lon="-4.184315">
        <ele>104.422</ele>
        <time>2021-06-16T14:08:13Z</time>
      </trkpt>
      <trkpt lat="36.742568" lon="-4.184504">
        <ele>105.108</ele>
        <time>2021-06-16T14:08:14Z</time>
      </trkpt>
      <trkpt lat="36.742269" lon="-4.18481">
        <ele>106.371</ele>
        <time>2021-06-16T14:08:16Z</time>
      </trkpt>
      <trkpt lat="36.742102" lon="-4.184977">
        <ele>107.449</ele>
        <time>2021-06-16T14:08:17Z</time>
      </trkpt>
      <trkpt lat="36.741915" lon="-4.185158">
        <ele>108.723</ele>
        <time>2021-06-16T14:08:18Z</time>
      </trkpt>
      <trkpt lat="36.741611" lon="-4.185439">
        <ele>110.172</ele>
        <time>2021-06-16T14:08:20Z</time>
      </trkpt>
      <trkpt lat="36.741254" lon="-4.185762">
        <ele>111.885</ele>
        <time>2021-06-16T14:08:22Z</time>
      </trkpt>
      <trkpt lat="36.740951" lon="-4.186043">
        <ele>112.822</ele>
        <time>2021-06-16T14:08:24Z</time>
      </trkpt>
      <trkpt lat="36.740785" lon="-4.186199">
        <ele>113.919</ele>
        <time>2021-06-16T14:08:25Z</time>
      </trkpt>
      <trkpt lat="36.740448" lon="-4.18652">
        <ele>114.969</ele>
        <time>2021-06-16T14:08:27Z</time>
      </trkpt>
      <trkpt lat="36.740161" lon="-4.186798">
        <ele>116.232</ele>
        <time>2021-06-16T14:08:29Z</time>
      </trkpt>
      <trkpt lat="36.740003" lon="-4.186955">
        <ele>117.192</ele>
        <time>2021-06-16T14:08:30Z</time>
      </trkpt>
      <trkpt lat="36.739825" lon="-4.187139">
        <ele>117.911</ele>
        <time>2021-06-16T14:08:31Z</time>
      </trkpt>
      <trkpt lat="36.739542" lon="-4.187438">
        <ele>119.008</ele>
        <time>2021-06-16T14:08:33Z</time>
      </trkpt>
      <trkpt lat="36.739388" lon="-4.187605">
        <ele>120.470</ele>
        <time>2021-06-16T14:08:34Z</time>
      </trkpt>
      <trkpt lat="36.739234" lon="-4.187775">
        <ele>121.578</ele>
        <time>2021-06-16T14:08:35Z</time>
      </trkpt>
      <trkpt lat="36.739066" lon="-4.187964">
        <ele>122.742</ele>
        <time>2021-06-16T14:08:36Z</time>
      </trkpt>
      <trkpt lat="36.738793" lon="-4.188289">
        <ele>124.271</ele>
        <time>2021-06-16T14:08:38Z</time>
      </trkpt>
      <trkpt lat="36.738649" lon="-4.188475">
        <ele>125.434</ele>
        <time>2021-06-16T14:08:39Z</time>
      </trkpt>
      <trkpt lat="36.738502" lon="-4.188669">
        <ele>126.681</ele>
        <time>2021-06-16T14:08:40Z</time>
      </trkpt>
      <trkpt lat="36.738238" lon="-4.189034">
        <ele>128.328</ele>
        <time>2021-06-16T14:08:42Z</time>
      </trkpt>
      <trkpt lat="36.738102" lon="-4.189226">
        <ele>129.018</ele>
        <time>2021-06-16T14:08:43Z</time>
      </trkpt>
      <trkpt lat="36.737966" lon="-4.189423">
        <ele>130.024</ele>
        <time>2021-06-16T14:08:44Z</time>
      </trkpt>
      <trkpt lat="36.737725" lon="-4.189813">
        <ele>131.204</ele>
        <time>2021-06-16T14:08:46Z</time>
      </trkpt>
      <trkpt lat="36.737487" lon="-4.190226">
        <ele>132.314</ele>
        <time>2021-06-16T14:08:48Z</time>
      </trkpt>
      <trkpt lat="36.737261" lon="-4.19065">
        <ele>133.208</ele>
        <time>2021-06-16T14:08:50Z</time>
      </trkpt>
      <trkpt lat="36.737151" lon="-4.190867">
        <ele>134.269</ele>
        <time>2021-06-16T14:08:51Z</time>
      </trkpt>
      <trkpt lat="36.737033" lon="-4.191106">
        <ele>135.087</ele>
        <time>2021-06-16T14:08:52Z</time>
      </trkpt>
      <trkpt lat="36.736846" lon="-4.191515">
        <ele>135.511</ele>
        <time>2021-06-16T14:08:54Z</time>
      </trkpt>
      <trkpt lat="36.736752" lon="-4.19174">
        <ele>136.190</ele>
        <time>2021-06-16T14:08:55Z</time>
      </trkpt>
      <trkpt lat="36.736652" lon="-4.191995">
        <ele>136.563</ele>
        <time>2021-06-16T14:08:56Z</time>
      </trkpt>
      <trkpt lat="36.736503" lon="-4.192409">
        <ele>136.980</ele>
        <time>2021-06-16T14:08:58Z</time>
      </trkpt>
      <trkpt lat="36.736424" lon="-4.192641">
        <ele>137.367</ele>
        <time>2021-06-16T14:08:59Z</time>
      </trkpt>
      <trkpt lat="36.736338" lon="-4.192903">
        <ele>137.767</ele>
        <time>2021-06-16T14:09:00Z</time>
      </trkpt>
      <trkpt lat="36.736203" lon="-4.193332">
        <ele>138.085</ele>
        <time>2021-06-16T14:09:02Z</time>
      </trkpt>
      <trkpt lat="36.736133" lon="-4.193568">
        <ele>138.089</ele>
        <time>2021-06-16T14:09:03Z</time>
      </trkpt>
      <trkpt lat="36.735994" lon="-4.194078">
        <ele>137.917</ele>
        <time>2021-06-16T14:09:05Z</time>
      </trkpt>
      <trkpt lat="36.73589" lon="-4.194532">
        <ele>138.108</ele>
        <time>2021-06-16T14:09:07Z</time>
      </trkpt>
      <trkpt lat="36.735837" lon="-4.194784">
        <ele>138.315</ele>
        <time>2021-06-16T14:09:08Z</time>
      </trkpt>
      <trkpt lat="36.735781" lon="-4.195069">
        <ele>138.623</ele>
        <time>2021-06-16T14:09:09Z</time>
      </trkpt>
      <trkpt lat="36.735693" lon="-4.195542">
        <ele>138.757</ele>
        <time>2021-06-16T14:09:11Z</time>
      </trkpt>
      <trkpt lat="36.735644" lon="-4.195804">
        <ele>138.726</ele>
        <time>2021-06-16T14:09:12Z</time>
      </trkpt>
      <trkpt lat="36.735597" lon="-4.196064">
        <ele>138.449</ele>
        <time>2021-06-16T14:09:13Z</time>
      </trkpt>
      <trkpt lat="36.735544" lon="-4.196357">
        <ele>138.376</ele>
        <time>2021-06-16T14:09:14Z</time>
      </trkpt>
      <trkpt lat="36.735455" lon="-4.196831">
        <ele>137.953</ele>
        <time>2021-06-16T14:09:16Z</time>
      </trkpt>
      <trkpt lat="36.735406" lon="-4.197093">
        <ele>137.983</ele>
        <time>2021-06-16T14:09:17Z</time>
      </trkpt>
      <trkpt lat="36.735348" lon="-4.197386">
        <ele>137.322</ele>
        <time>2021-06-16T14:09:18Z</time>
      </trkpt>
      <trkpt lat="36.735245" lon="-4.197868">
        <ele>137.262</ele>
        <time>2021-06-16T14:09:20Z</time>
      </trkpt>
      <trkpt lat="36.735189" lon="-4.198124">
        <ele>136.708</ele>
        <time>2021-06-16T14:09:21Z</time>
      </trkpt>
      <trkpt lat="36.735059" lon="-4.198617">
        <ele>136.008</ele>
        <time>2021-06-16T14:09:23Z</time>
      </trkpt>
      <trkpt lat="36.73499" lon="-4.198858">
        <ele>135.419</ele>
        <time>2021-06-16T14:09:24Z</time>
      </trkpt>
      <trkpt lat="36.73492" lon="-4.199093">
        <ele>135.157</ele>
        <time>2021-06-16T14:09:25Z</time>
      </trkpt>
      <trkpt lat="36.734839" lon="-4.199354">
        <ele>134.731</ele>
        <time>2021-06-16T14:09:26Z</time>
      </trkpt>
      <trkpt lat="36.734697" lon="-4.199783">
        <ele>134.060</ele>
        <time>2021-06-16T14:09:28Z</time>
      </trkpt>
      <trkpt lat="36.734615" lon="-4.200015">
        <ele>133.563</ele>
        <time>2021-06-16T14:09:29Z</time>
      </trkpt>
      <trkpt lat="36.734529" lon="-4.200249">
        <ele>133.230</ele>
        <time>2021-06-16T14:09:30Z</time>
      </trkpt>
      <trkpt lat="36.73436" lon="-4.20069">
        <ele>132.877</ele>
        <time>2021-06-16T14:09:32Z</time>
      </trkpt>
      <trkpt lat="36.73416" lon="-4.201157">
        <ele>132.157</ele>
        <time>2021-06-16T14:09:34Z</time>
      </trkpt>
      <trkpt lat="36.733981" lon="-4.201549">
        <ele>131.227</ele>
        <time>2021-06-16T14:09:36Z</time>
      </trkpt>
      <trkpt lat="36.733771" lon="-4.201981">
        <ele>130.168</ele>
        <time>2021-06-16T14:09:38Z</time>
      </trkpt>
      <trkpt lat="36.733557" lon="-4.202384">
        <ele>129.214</ele>
        <time>2021-06-16T14:09:40Z</time>
      </trkpt>
      <trkpt lat="36.73332" lon="-4.202819">
        <ele>128.308</ele>
        <time>2021-06-16T14:09:42Z</time>
      </trkpt>
      <trkpt lat="36.733103" lon="-4.203182">
        <ele>127.599</ele>
        <time>2021-06-16T14:09:44Z</time>
      </trkpt>
      <trkpt lat="36.73298" lon="-4.203383">
        <ele>126.877</ele>
        <time>2021-06-16T14:09:45Z</time>
      </trkpt>
      <trkpt lat="36.732849" lon="-4.203582">
        <ele>126.681</ele>
        <time>2021-06-16T14:09:46Z</time>
      </trkpt>
      <trkpt lat="36.732705" lon="-4.203798">
        <ele>126.490</ele>
        <time>2021-06-16T14:09:47Z</time>
      </trkpt>
      <trkpt lat="36.732464" lon="-4.204145">
        <ele>125.793</ele>
        <time>2021-06-16T14:09:49Z</time>
      </trkpt>
      <trkpt lat="36.732186" lon="-4.20454">
        <ele>125.290</ele>
        <time>2021-06-16T14:09:51Z</time>
      </trkpt>
      <trkpt lat="36.731936" lon="-4.204879">
        <ele>124.597</ele>
        <time>2021-06-16T14:09:53Z</time>
      </trkpt>
      <trkpt lat="36.731794" lon="-4.205064">
        <ele>124.217</ele>
        <time>2021-06-16T14:09:54Z</time>
      </trkpt>
      <trkpt lat="36.731646" lon="-4.205254">
        <ele>123.854</ele>
        <time>2021-06-16T14:09:55Z</time>
      </trkpt>
      <trkpt lat="36.731372" lon="-4.205598">
        <ele>123.656</ele>
        <time>2021-06-16T14:09:57Z</time>
      </trkpt>
      <trkpt lat="36.731068" lon="-4.205967">
        <ele>123.111</ele>
        <time>2021-06-16T14:09:59Z</time>
      </trkpt>
      <trkpt lat="36.730809" lon="-4.206286">
        <ele>122.208</ele>
        <time>2021-06-16T14:10:01Z</time>
      </trkpt>
      <trkpt lat="36.730667" lon="-4.206465">
        <ele>121.482</ele>
        <time>2021-06-16T14:10:02Z</time>
      </trkpt>
      <trkpt lat="36.730387" lon="-4.20682">
        <ele>120.870</ele>
        <time>2021-06-16T14:10:04Z</time>
      </trkpt>
      <trkpt lat="36.730247" lon="-4.206991">
        <ele>120.144</ele>
        <time>2021-06-16T14:10:05Z</time>
      </trkpt>
      <trkpt lat="36.729972" lon="-4.207336">
        <ele>119.523</ele>
        <time>2021-06-16T14:10:07Z</time>
      </trkpt>
      <trkpt lat="36.729817" lon="-4.207534">
        <ele>119.016</ele>
        <time>2021-06-16T14:10:08Z</time>
      </trkpt>
      <trkpt lat="36.729564" lon="-4.207857">
        <ele>118.983</ele>
        <time>2021-06-16T14:10:10Z</time>
      </trkpt>
      <trkpt lat="36.729424" lon="-4.208039">
        <ele>118.810</ele>
        <time>2021-06-16T14:10:11Z</time>
      </trkpt>
      <trkpt lat="36.729134" lon="-4.208423">
        <ele>118.020</ele>
        <time>2021-06-16T14:10:13Z</time>
      </trkpt>
      <trkpt lat="36.728885" lon="-4.208756">
        <ele>117.475</ele>
        <time>2021-06-16T14:10:15Z</time>
      </trkpt>
      <trkpt lat="36.72875" lon="-4.208941">
        <ele>116.928</ele>
        <time>2021-06-16T14:10:16Z</time>
      </trkpt>
      <trkpt lat="36.728599" lon="-4.209149">
        <ele>116.420</ele>
        <time>2021-06-16T14:10:17Z</time>
      </trkpt>
      <trkpt lat="36.728359" lon="-4.209497">
        <ele>115.908</ele>
        <time>2021-06-16T14:10:19Z</time>
      </trkpt>
      <trkpt lat="36.728234" lon="-4.20969">
        <ele>115.464</ele>
        <time>2021-06-16T14:10:20Z</time>
      </trkpt>
      <trkpt lat="36.728106" lon="-4.209888">
        <ele>114.972</ele>
        <time>2021-06-16T14:10:21Z</time>
      </trkpt>
      <trkpt lat="36.727877" lon="-4.210267">
        <ele>114.426</ele>
        <time>2021-06-16T14:10:23Z</time>
      </trkpt>
      <trkpt lat="36.72776" lon="-4.210463">
        <ele>113.955</ele>
        <time>2021-06-16T14:10:24Z</time>
      </trkpt>
      <trkpt lat="36.727642" lon="-4.210662">
        <ele>113.628</ele>
        <time>2021-06-16T14:10:25Z</time>
      </trkpt>
      <trkpt lat="36.727419" lon="-4.211069">
        <ele>113.645</ele>
        <time>2021-06-16T14:10:27Z</time>
      </trkpt>
      <trkpt lat="36.727311" lon="-4.211273">
        <ele>113.452</ele>
        <time>2021-06-16T14:10:28Z</time>
      </trkpt>
      <trkpt lat="36.727205" lon="-4.211477">
        <ele>113.392</ele>
        <time>2021-06-16T14:10:29Z</time>
      </trkpt>
      <trkpt lat="36.727085" lon="-4.21171">
        <ele>113.266</ele>
        <time>2021-06-16T14:10:30Z</time>
      </trkpt>
      <trkpt lat="36.726894" lon="-4.2121">
        <ele>112.929</ele>
        <time>2021-06-16T14:10:32Z</time>
      </trkpt>
      <trkpt lat="36.726684" lon="-4.212566">
        <ele>112.321</ele>
        <time>2021-06-16T14:10:34Z</time>
      </trkpt>
      <trkpt lat="36.726514" lon="-4.212974">
        <ele>111.508</ele>
        <time>2021-06-16T14:10:36Z</time>
      </trkpt>
      <trkpt lat="36.72642" lon="-4.213202">
        <ele>111.013</ele>
        <time>2021-06-16T14:10:37Z</time>
      </trkpt>
      <trkpt lat="36.726236" lon="-4.213669">
        <ele>110.461</ele>
        <time>2021-06-16T14:10:39Z</time>
      </trkpt>
      <trkpt lat="36.726071" lon="-4.214122">
        <ele>109.655</ele>
        <time>2021-06-16T14:10:41Z</time>
      </trkpt>
      <trkpt lat="36.725988" lon="-4.214357">
        <ele>109.044</ele>
        <time>2021-06-16T14:10:42Z</time>
      </trkpt>
      <trkpt lat="36.725901" lon="-4.21462">
        <ele>108.287</ele>
        <time>2021-06-16T14:10:43Z</time>
      </trkpt>
      <trkpt lat="36.725774" lon="-4.21504">
        <ele>107.874</ele>
        <time>2021-06-16T14:10:45Z</time>
      </trkpt>
      <trkpt lat="36.725647" lon="-4.215497">
        <ele>107.061</ele>
        <time>2021-06-16T14:10:47Z</time>
      </trkpt>
      <trkpt lat="36.725586" lon="-4.215729">
        <ele>106.721</ele>
        <time>2021-06-16T14:10:48Z</time>
      </trkpt>
      <trkpt lat="36.725524" lon="-4.215961">
        <ele>106.297</ele>
        <time>2021-06-16T14:10:49Z</time>
      </trkpt>
      <trkpt lat="36.725408" lon="-4.216424">
        <ele>105.423</ele>
        <time>2021-06-16T14:10:51Z</time>
      </trkpt>
      <trkpt lat="36.725356" lon="-4.216658">
        <ele>104.825</ele>
        <time>2021-06-16T14:10:52Z</time>
      </trkpt>
      <trkpt lat="36.725254" lon="-4.217126">
        <ele>104.608</ele>
        <time>2021-06-16T14:10:54Z</time>
      </trkpt>
      <trkpt lat="36.725207" lon="-4.217361">
        <ele>104.466</ele>
        <time>2021-06-16T14:10:55Z</time>
      </trkpt>
      <trkpt lat="36.725161" lon="-4.217602">
        <ele>104.364</ele>
        <time>2021-06-16T14:10:56Z</time>
      </trkpt>
      <trkpt lat="36.725077" lon="-4.218072">
        <ele>103.718</ele>
        <time>2021-06-16T14:10:58Z</time>
      </trkpt>
      <trkpt lat="36.72504" lon="-4.218306">
        <ele>103.577</ele>
        <time>2021-06-16T14:10:59Z</time>
      </trkpt>
      <trkpt lat="36.724971" lon="-4.21878">
        <ele>103.220</ele>
        <time>2021-06-16T14:11:01Z</time>
      </trkpt>
      <trkpt lat="36.724912" lon="-4.219265">
        <ele>102.737</ele>
        <time>2021-06-16T14:11:03Z</time>
      </trkpt>
      <trkpt lat="36.724887" lon="-4.219508">
        <ele>102.454</ele>
        <time>2021-06-16T14:11:04Z</time>
      </trkpt>
      <trkpt lat="36.724859" lon="-4.219765">
        <ele>102.264</ele>
        <time>2021-06-16T14:11:05Z</time>
      </trkpt>
      <trkpt lat="36.724806" lon="-4.220247">
        <ele>101.297</ele>
        <time>2021-06-16T14:11:07Z</time>
      </trkpt>
      <trkpt lat="36.72478" lon="-4.220498">
        <ele>100.423</ele>
        <time>2021-06-16T14:11:08Z</time>
      </trkpt>
      <trkpt lat="36.724748" lon="-4.220752">
        <ele>100.125</ele>
        <time>2021-06-16T14:11:09Z</time>
      </trkpt>
      <trkpt lat="36.724688" lon="-4.221248">
        <ele>99.008</ele>
        <time>2021-06-16T14:11:11Z</time>
      </trkpt>
      <trkpt lat="36.724626" lon="-4.221742">
        <ele>98.156</ele>
        <time>2021-06-16T14:11:13Z</time>
      </trkpt>
      <trkpt lat="36.72458" lon="-4.221985">
        <ele>96.964</ele>
        <time>2021-06-16T14:11:14Z</time>
      </trkpt>
      <trkpt lat="36.724474" lon="-4.222468">
        <ele>95.338</ele>
        <time>2021-06-16T14:11:16Z</time>
      </trkpt>
      <trkpt lat="36.724353" lon="-4.222946">
        <ele>94.747</ele>
        <time>2021-06-16T14:11:18Z</time>
      </trkpt>
      <trkpt lat="36.724285" lon="-4.223181">
        <ele>93.770</ele>
        <time>2021-06-16T14:11:19Z</time>
      </trkpt>
      <trkpt lat="36.724214" lon="-4.223417">
        <ele>93.067</ele>
        <time>2021-06-16T14:11:20Z</time>
      </trkpt>
      <trkpt lat="36.724049" lon="-4.223907">
        <ele>92.144</ele>
        <time>2021-06-16T14:11:22Z</time>
      </trkpt>
      <trkpt lat="36.723887" lon="-4.224328">
        <ele>90.674</ele>
        <time>2021-06-16T14:11:24Z</time>
      </trkpt>
      <trkpt lat="36.723702" lon="-4.224789">
        <ele>89.114</ele>
        <time>2021-06-16T14:11:26Z</time>
      </trkpt>
      <trkpt lat="36.723602" lon="-4.225017">
        <ele>87.754</ele>
        <time>2021-06-16T14:11:27Z</time>
      </trkpt>
      <trkpt lat="36.7234" lon="-4.225462">
        <ele>85.909</ele>
        <time>2021-06-16T14:11:29Z</time>
      </trkpt>
      <trkpt lat="36.723189" lon="-4.225901">
        <ele>84.108</ele>
        <time>2021-06-16T14:11:31Z</time>
      </trkpt>
      <trkpt lat="36.72298" lon="-4.226338">
        <ele>82.278</ele>
        <time>2021-06-16T14:11:33Z</time>
      </trkpt>
      <trkpt lat="36.722863" lon="-4.226584">
        <ele>80.476</ele>
        <time>2021-06-16T14:11:34Z</time>
      </trkpt>
      <trkpt lat="36.722672" lon="-4.226986">
        <ele>78.690</ele>
        <time>2021-06-16T14:11:36Z</time>
      </trkpt>
      <trkpt lat="36.722472" lon="-4.227424">
        <ele>76.429</ele>
        <time>2021-06-16T14:11:38Z</time>
      </trkpt>
      <trkpt lat="36.722281" lon="-4.227856">
        <ele>74.492</ele>
        <time>2021-06-16T14:11:40Z</time>
      </trkpt>
      <trkpt lat="36.722091" lon="-4.228317">
        <ele>72.499</ele>
        <time>2021-06-16T14:11:42Z</time>
      </trkpt>
      <trkpt lat="36.721932" lon="-4.228717">
        <ele>70.856</ele>
        <time>2021-06-16T14:11:44Z</time>
      </trkpt>
      <trkpt lat="36.721848" lon="-4.228939">
        <ele>69.496</ele>
        <time>2021-06-16T14:11:45Z</time>
      </trkpt>
      <trkpt lat="36.721699" lon="-4.229388">
        <ele>67.842</ele>
        <time>2021-06-16T14:11:47Z</time>
      </trkpt>
      <trkpt lat="36.72163" lon="-4.229615">
        <ele>66.322</ele>
        <time>2021-06-16T14:11:48Z</time>
      </trkpt>
      <trkpt lat="36.721509" lon="-4.230082">
        <ele>64.414</ele>
        <time>2021-06-16T14:11:50Z</time>
      </trkpt>
      <trkpt lat="36.721413" lon="-4.230548">
        <ele>62.908</ele>
        <time>2021-06-16T14:11:52Z</time>
      </trkpt>
      <trkpt lat="36.721333" lon="-4.231029">
        <ele>61.261</ele>
        <time>2021-06-16T14:11:54Z</time>
      </trkpt>
      <trkpt lat="36.72127" lon="-4.23151">
        <ele>59.889</ele>
        <time>2021-06-16T14:11:56Z</time>
      </trkpt>
      <trkpt lat="36.721246" lon="-4.231758">
        <ele>59.253</ele>
        <time>2021-06-16T14:11:57Z</time>
      </trkpt>
      <trkpt lat="36.721209" lon="-4.232259">
        <ele>58.082</ele>
        <time>2021-06-16T14:11:59Z</time>
      </trkpt>
      <trkpt lat="36.7212" lon="-4.232512">
        <ele>57.665</ele>
        <time>2021-06-16T14:12:00Z</time>
      </trkpt>
      <trkpt lat="36.721192" lon="-4.233021">
        <ele>57.242</ele>
        <time>2021-06-16T14:12:02Z</time>
      </trkpt>
      <trkpt lat="36.721185" lon="-4.233311">
        <ele>56.789</ele>
        <time>2021-06-16T14:12:03Z</time>
      </trkpt>
      <trkpt lat="36.72119" lon="-4.233768">
        <ele>56.239</ele>
        <time>2021-06-16T14:12:05Z</time>
      </trkpt>
      <trkpt lat="36.721192" lon="-4.23402">
        <ele>55.763</ele>
        <time>2021-06-16T14:12:06Z</time>
      </trkpt>
      <trkpt lat="36.721192" lon="-4.234514">
        <ele>55.444</ele>
        <time>2021-06-16T14:12:08Z</time>
      </trkpt>
      <trkpt lat="36.721189" lon="-4.234754">
        <ele>54.918</ele>
        <time>2021-06-16T14:12:09Z</time>
      </trkpt>
      <trkpt lat="36.721178" lon="-4.234994">
        <ele>54.908</ele>
        <time>2021-06-16T14:12:10Z</time>
      </trkpt>
      <trkpt lat="36.72116" lon="-4.235263">
        <ele>55.023</ele>
        <time>2021-06-16T14:12:11Z</time>
      </trkpt>
      <trkpt lat="36.721113" lon="-4.235698">
        <ele>54.651</ele>
        <time>2021-06-16T14:12:13Z</time>
      </trkpt>
      <trkpt lat="36.721076" lon="-4.235936">
        <ele>54.365</ele>
        <time>2021-06-16T14:12:14Z</time>
      </trkpt>
      <trkpt lat="36.721033" lon="-4.236181">
        <ele>54.354</ele>
        <time>2021-06-16T14:12:15Z</time>
      </trkpt>
      <trkpt lat="36.720941" lon="-4.236638">
        <ele>54.917</ele>
        <time>2021-06-16T14:12:17Z</time>
      </trkpt>
      <trkpt lat="36.720888" lon="-4.236877">
        <ele>55.574</ele>
        <time>2021-06-16T14:12:18Z</time>
      </trkpt>
      <trkpt lat="36.720775" lon="-4.237369">
        <ele>55.551</ele>
        <time>2021-06-16T14:12:20Z</time>
      </trkpt>
      <trkpt lat="36.72064" lon="-4.237801">
        <ele>55.941</ele>
        <time>2021-06-16T14:12:22Z</time>
      </trkpt>
      <trkpt lat="36.720564" lon="-4.23804">
        <ele>56.425</ele>
        <time>2021-06-16T14:12:23Z</time>
      </trkpt>
      <trkpt lat="36.720491" lon="-4.238272">
        <ele>56.726</ele>
        <time>2021-06-16T14:12:24Z</time>
      </trkpt>
      <trkpt lat="36.72035" lon="-4.238726">
        <ele>56.308</ele>
        <time>2021-06-16T14:12:26Z</time>
      </trkpt>
      <trkpt lat="36.720285" lon="-4.238949">
        <ele>56.408</ele>
        <time>2021-06-16T14:12:27Z</time>
      </trkpt>
      <trkpt lat="36.720167" lon="-4.239424">
        <ele>56.569</ele>
        <time>2021-06-16T14:12:29Z</time>
      </trkpt>
      <trkpt lat="36.720091" lon="-4.239847">
        <ele>56.597</ele>
        <time>2021-06-16T14:12:31Z</time>
      </trkpt>
      <trkpt lat="36.720061" lon="-4.240084">
        <ele>56.831</ele>
        <time>2021-06-16T14:12:32Z</time>
      </trkpt>
      <trkpt lat="36.720037" lon="-4.240561">
        <ele>57.220</ele>
        <time>2021-06-16T14:12:34Z</time>
      </trkpt>
      <trkpt lat="36.72006" lon="-4.241043">
        <ele>57.853</ele>
        <time>2021-06-16T14:12:36Z</time>
      </trkpt>
      <trkpt lat="36.720087" lon="-4.241282">
        <ele>58.450</ele>
        <time>2021-06-16T14:12:37Z</time>
      </trkpt>
      <trkpt lat="36.720127" lon="-4.241551">
        <ele>58.657</ele>
        <time>2021-06-16T14:12:38Z</time>
      </trkpt>
      <trkpt lat="36.720225" lon="-4.241986">
        <ele>59.197</ele>
        <time>2021-06-16T14:12:40Z</time>
      </trkpt>
      <trkpt lat="36.720297" lon="-4.242223">
        <ele>59.192</ele>
        <time>2021-06-16T14:12:41Z</time>
      </trkpt>
      <trkpt lat="36.720389" lon="-4.242481">
        <ele>59.573</ele>
        <time>2021-06-16T14:12:42Z</time>
      </trkpt>
      <trkpt lat="36.720575" lon="-4.24288">
        <ele>59.720</ele>
        <time>2021-06-16T14:12:44Z</time>
      </trkpt>
      <trkpt lat="36.720821" lon="-4.243308">
        <ele>59.908</ele>
        <time>2021-06-16T14:12:46Z</time>
      </trkpt>
      <trkpt lat="36.721084" lon="-4.243669">
        <ele>60.276</ele>
        <time>2021-06-16T14:12:48Z</time>
      </trkpt>
      <trkpt lat="36.721233" lon="-4.243843">
        <ele>60.584</ele>
        <time>2021-06-16T14:12:49Z</time>
      </trkpt>
      <trkpt lat="36.721404" lon="-4.244021">
        <ele>61.048</ele>
        <time>2021-06-16T14:12:50Z</time>
      </trkpt>
      <trkpt lat="36.721721" lon="-4.244295">
        <ele>61.567</ele>
        <time>2021-06-16T14:12:52Z</time>
      </trkpt>
      <trkpt lat="36.721902" lon="-4.244427">
        <ele>62.280</ele>
        <time>2021-06-16T14:12:53Z</time>
      </trkpt>
      <trkpt lat="36.722302" lon="-4.244668">
        <ele>63.017</ele>
        <time>2021-06-16T14:12:55Z</time>
      </trkpt>
      <trkpt lat="36.722659" lon="-4.244839">
        <ele>63.754</ele>
        <time>2021-06-16T14:12:57Z</time>
      </trkpt>
      <trkpt lat="36.722856" lon="-4.244928">
        <ele>64.034</ele>
        <time>2021-06-16T14:12:58Z</time>
      </trkpt>
      <trkpt lat="36.723075" lon="-4.245024">
        <ele>64.486</ele>
        <time>2021-06-16T14:12:59Z</time>
      </trkpt>
      <trkpt lat="36.723418" lon="-4.245181">
        <ele>64.960</ele>
        <time>2021-06-16T14:13:01Z</time>
      </trkpt>
      <trkpt lat="36.723604" lon="-4.245276">
        <ele>65.326</ele>
        <time>2021-06-16T14:13:02Z</time>
      </trkpt>
      <trkpt lat="36.72396" lon="-4.245504">
        <ele>65.808</ele>
        <time>2021-06-16T14:13:04Z</time>
      </trkpt>
      <trkpt lat="36.72413" lon="-4.245643">
        <ele>66.155</ele>
        <time>2021-06-16T14:13:05Z</time>
      </trkpt>
      <trkpt lat="36.72429" lon="-4.245799">
        <ele>66.543</ele>
        <time>2021-06-16T14:13:06Z</time>
      </trkpt>
      <trkpt lat="36.72444" lon="-4.245968">
        <ele>66.847</ele>
        <time>2021-06-16T14:13:07Z</time>
      </trkpt>
      <trkpt lat="36.724602" lon="-4.246174">
        <ele>67.066</ele>
        <time>2021-06-16T14:13:08Z</time>
      </trkpt>
      <trkpt lat="36.724827" lon="-4.24655">
        <ele>67.059</ele>
        <time>2021-06-16T14:13:10Z</time>
      </trkpt>
      <trkpt lat="36.724934" lon="-4.246769">
        <ele>66.916</ele>
        <time>2021-06-16T14:13:11Z</time>
      </trkpt>
      <trkpt lat="36.725041" lon="-4.247021">
        <ele>67.293</ele>
        <time>2021-06-16T14:13:12Z</time>
      </trkpt>
      <trkpt lat="36.72517" lon="-4.247465">
        <ele>67.753</ele>
        <time>2021-06-16T14:13:14Z</time>
      </trkpt>
      <trkpt lat="36.725219" lon="-4.247717">
        <ele>68.196</ele>
        <time>2021-06-16T14:13:15Z</time>
      </trkpt>
      <trkpt lat="36.725256" lon="-4.247982">
        <ele>68.331</ele>
        <time>2021-06-16T14:13:16Z</time>
      </trkpt>
      <trkpt lat="36.725279" lon="-4.248472">
        <ele>68.924</ele>
        <time>2021-06-16T14:13:18Z</time>
      </trkpt>
      <trkpt lat="36.725235" lon="-4.248975">
        <ele>69.508</ele>
        <time>2021-06-16T14:13:20Z</time>
      </trkpt>
      <trkpt lat="36.725189" lon="-4.249255">
        <ele>70.286</ele>
        <time>2021-06-16T14:13:21Z</time>
      </trkpt>
      <trkpt lat="36.725094" lon="-4.249701">
        <ele>70.974</ele>
        <time>2021-06-16T14:13:23Z</time>
      </trkpt>
      <trkpt lat="36.725039" lon="-4.249942">
        <ele>71.698</ele>
        <time>2021-06-16T14:13:24Z</time>
      </trkpt>
      <trkpt lat="36.72498" lon="-4.250209">
        <ele>72.087</ele>
        <time>2021-06-16T14:13:25Z</time>
      </trkpt>
      <trkpt lat="36.724907" lon="-4.250653">
        <ele>71.850</ele>
        <time>2021-06-16T14:13:27Z</time>
      </trkpt>
      <trkpt lat="36.724873" lon="-4.251185">
        <ele>72.027</ele>
        <time>2021-06-16T14:13:29Z</time>
      </trkpt>
      <trkpt lat="36.724906" lon="-4.251644">
        <ele>72.584</ele>
        <time>2021-06-16T14:13:31Z</time>
      </trkpt>
      <trkpt lat="36.724985" lon="-4.252139">
        <ele>72.494</ele>
        <time>2021-06-16T14:13:33Z</time>
      </trkpt>
      <trkpt lat="36.725038" lon="-4.252415">
        <ele>72.557</ele>
        <time>2021-06-16T14:13:34Z</time>
      </trkpt>
      <trkpt lat="36.725122" lon="-4.252873">
        <ele>72.200</ele>
        <time>2021-06-16T14:13:36Z</time>
      </trkpt>
      <trkpt lat="36.725182" lon="-4.253413">
        <ele>72.020</ele>
        <time>2021-06-16T14:13:38Z</time>
      </trkpt>
      <trkpt lat="36.725185" lon="-4.253867">
        <ele>71.908</ele>
        <time>2021-06-16T14:13:40Z</time>
      </trkpt>
      <trkpt lat="36.725125" lon="-4.254359">
        <ele>71.232</ele>
        <time>2021-06-16T14:13:42Z</time>
      </trkpt>
      <trkpt lat="36.72507" lon="-4.254626">
        <ele>70.920</ele>
        <time>2021-06-16T14:13:43Z</time>
      </trkpt>
      <trkpt lat="36.72495" lon="-4.255045">
        <ele>70.744</ele>
        <time>2021-06-16T14:13:45Z</time>
      </trkpt>
      <trkpt lat="36.72488" lon="-4.255266">
        <ele>70.633</ele>
        <time>2021-06-16T14:13:46Z</time>
      </trkpt>
      <trkpt lat="36.724804" lon="-4.255505">
        <ele>70.936</ele>
        <time>2021-06-16T14:13:47Z</time>
      </trkpt>
      <trkpt lat="36.72468" lon="-4.255884">
        <ele>71.083</ele>
        <time>2021-06-16T14:13:49Z</time>
      </trkpt>
      <trkpt lat="36.724546" lon="-4.256333">
        <ele>71.130</ele>
        <time>2021-06-16T14:13:51Z</time>
      </trkpt>
      <trkpt lat="36.724465" lon="-4.256756">
        <ele>71.250</ele>
        <time>2021-06-16T14:13:53Z</time>
      </trkpt>
      <trkpt lat="36.724436" lon="-4.256991">
        <ele>71.524</ele>
        <time>2021-06-16T14:13:54Z</time>
      </trkpt>
      <trkpt lat="36.724416" lon="-4.257255">
        <ele>71.904</ele>
        <time>2021-06-16T14:13:55Z</time>
      </trkpt>
      <trkpt lat="36.724439" lon="-4.257686">
        <ele>72.614</ele>
        <time>2021-06-16T14:13:57Z</time>
      </trkpt>
      <trkpt lat="36.724518" lon="-4.258157">
        <ele>73.208</ele>
        <time>2021-06-16T14:13:59Z</time>
      </trkpt>
      <trkpt lat="36.724611" lon="-4.258628">
        <ele>74.149</ele>
        <time>2021-06-16T14:14:01Z</time>
      </trkpt>
      <trkpt lat="36.724651" lon="-4.25886">
        <ele>74.967</ele>
        <time>2021-06-16T14:14:02Z</time>
      </trkpt>
      <trkpt lat="36.7247" lon="-4.259362">
        <ele>76.191</ele>
        <time>2021-06-16T14:14:04Z</time>
      </trkpt>
      <trkpt lat="36.72469" lon="-4.259795">
        <ele>77.810</ele>
        <time>2021-06-16T14:14:06Z</time>
      </trkpt>
      <trkpt lat="36.724657" lon="-4.260029">
        <ele>79.363</ele>
        <time>2021-06-16T14:14:07Z</time>
      </trkpt>
      <trkpt lat="36.724546" lon="-4.260466">
        <ele>80.820</ele>
        <time>2021-06-16T14:14:09Z</time>
      </trkpt>
      <trkpt lat="36.724481" lon="-4.260679">
        <ele>81.967</ele>
        <time>2021-06-16T14:14:10Z</time>
      </trkpt>
      <trkpt lat="36.72441" lon="-4.26089">
        <ele>82.887</ele>
        <time>2021-06-16T14:14:11Z</time>
      </trkpt>
      <trkpt lat="36.724322" lon="-4.261126">
        <ele>83.859</ele>
        <time>2021-06-16T14:14:12Z</time>
      </trkpt>
      <trkpt lat="36.724176" lon="-4.261516">
        <ele>84.403</ele>
        <time>2021-06-16T14:14:14Z</time>
      </trkpt>
      <trkpt lat="36.724104" lon="-4.261741">
        <ele>85.523</ele>
        <time>2021-06-16T14:14:15Z</time>
      </trkpt>
      <trkpt lat="36.724042" lon="-4.261981">
        <ele>85.808</ele>
        <time>2021-06-16T14:14:16Z</time>
      </trkpt>
      <trkpt lat="36.723967" lon="-4.262471">
        <ele>86.642</ele>
        <time>2021-06-16T14:14:18Z</time>
      </trkpt>
      <trkpt lat="36.723963" lon="-4.262981">
        <ele>86.720</ele>
        <time>2021-06-16T14:14:20Z</time>
      </trkpt>
      <trkpt lat="36.723994" lon="-4.263468">
        <ele>86.464</ele>
        <time>2021-06-16T14:14:22Z</time>
      </trkpt>
      <trkpt lat="36.724054" lon="-4.263998">
        <ele>86.023</ele>
        <time>2021-06-16T14:14:24Z</time>
      </trkpt>
      <trkpt lat="36.724081" lon="-4.264459">
        <ele>85.426</ele>
        <time>2021-06-16T14:14:26Z</time>
      </trkpt>
      <trkpt lat="36.724072" lon="-4.26471">
        <ele>84.493</ele>
        <time>2021-06-16T14:14:27Z</time>
      </trkpt>
      <trkpt lat="36.724012" lon="-4.2652">
        <ele>83.510</ele>
        <time>2021-06-16T14:14:29Z</time>
      </trkpt>
      <trkpt lat="36.723892" lon="-4.265672">
        <ele>81.740</ele>
        <time>2021-06-16T14:14:31Z</time>
      </trkpt>
      <trkpt lat="36.723814" lon="-4.265902">
        <ele>80.362</ele>
        <time>2021-06-16T14:14:32Z</time>
      </trkpt>
      <trkpt lat="36.723632" lon="-4.266349">
        <ele>78.683</ele>
        <time>2021-06-16T14:14:34Z</time>
      </trkpt>
      <trkpt lat="36.723436" lon="-4.266822">
        <ele>76.711</ele>
        <time>2021-06-16T14:14:36Z</time>
      </trkpt>
      <trkpt lat="36.723289" lon="-4.267275">
        <ele>74.408</ele>
        <time>2021-06-16T14:14:38Z</time>
      </trkpt>
      <trkpt lat="36.723171" lon="-4.267803">
        <ele>72.533</ele>
        <time>2021-06-16T14:14:40Z</time>
      </trkpt>
      <trkpt lat="36.72311" lon="-4.268272">
        <ele>69.811</ele>
        <time>2021-06-16T14:14:42Z</time>
      </trkpt>
      <trkpt lat="36.723097" lon="-4.26853">
        <ele>67.855</ele>
        <time>2021-06-16T14:14:43Z</time>
      </trkpt>
      <trkpt lat="36.7231" lon="-4.268786">
        <ele>66.424</ele>
        <time>2021-06-16T14:14:44Z</time>
      </trkpt>
      <trkpt lat="36.723138" lon="-4.269288">
        <ele>64.527</ele>
        <time>2021-06-16T14:14:46Z</time>
      </trkpt>
      <trkpt lat="36.723175" lon="-4.269539">
        <ele>62.934</ele>
        <time>2021-06-16T14:14:47Z</time>
      </trkpt>
      <trkpt lat="36.723224" lon="-4.269789">
        <ele>61.471</ele>
        <time>2021-06-16T14:14:48Z</time>
      </trkpt>
      <trkpt lat="36.723288" lon="-4.270069">
        <ele>60.031</ele>
        <time>2021-06-16T14:14:49Z</time>
      </trkpt>
      <trkpt lat="36.723422" lon="-4.270522">
        <ele>58.669</ele>
        <time>2021-06-16T14:14:51Z</time>
      </trkpt>
      <trkpt lat="36.723505" lon="-4.270772">
        <ele>57.204</ele>
        <time>2021-06-16T14:14:52Z</time>
      </trkpt>
      <trkpt lat="36.723601" lon="-4.271048">
        <ele>56.124</ele>
        <time>2021-06-16T14:14:53Z</time>
      </trkpt>
      <trkpt lat="36.723758" lon="-4.271492">
        <ele>54.908</ele>
        <time>2021-06-16T14:14:55Z</time>
      </trkpt>
      <trkpt lat="36.72384" lon="-4.271732">
        <ele>53.743</ele>
        <time>2021-06-16T14:14:56Z</time>
      </trkpt>
      <trkpt lat="36.724008" lon="-4.272213">
        <ele>53.331</ele>
        <time>2021-06-16T14:14:58Z</time>
      </trkpt>
      <trkpt lat="36.724156" lon="-4.272633">
        <ele>53.185</ele>
        <time>2021-06-16T14:15:00Z</time>
      </trkpt>
      <trkpt lat="36.724327" lon="-4.273094">
        <ele>52.774</ele>
        <time>2021-06-16T14:15:02Z</time>
      </trkpt>
      <trkpt lat="36.724462" lon="-4.27351">
        <ele>52.797</ele>
        <time>2021-06-16T14:15:04Z</time>
      </trkpt>
      <trkpt lat="36.724612" lon="-4.273978">
        <ele>53.064</ele>
        <time>2021-06-16T14:15:06Z</time>
      </trkpt>
      <trkpt lat="36.724739" lon="-4.274426">
        <ele>53.761</ele>
        <time>2021-06-16T14:15:08Z</time>
      </trkpt>
      <trkpt lat="36.724793" lon="-4.274658">
        <ele>54.441</ele>
        <time>2021-06-16T14:15:09Z</time>
      </trkpt>
      <trkpt lat="36.724842" lon="-4.27492">
        <ele>54.644</ele>
        <time>2021-06-16T14:15:10Z</time>
      </trkpt>
      <trkpt lat="36.724887" lon="-4.275368">
        <ele>55.105</ele>
        <time>2021-06-16T14:15:12Z</time>
      </trkpt>
      <trkpt lat="36.7249" lon="-4.275614">
        <ele>55.515</ele>
        <time>2021-06-16T14:15:13Z</time>
      </trkpt>
      <trkpt lat="36.724897" lon="-4.27587">
        <ele>55.608</ele>
        <time>2021-06-16T14:15:14Z</time>
      </trkpt>
      <trkpt lat="36.724863" lon="-4.276353">
        <ele>56.431</ele>
        <time>2021-06-16T14:15:16Z</time>
      </trkpt>
      <trkpt lat="36.72483" lon="-4.276595">
        <ele>57.299</ele>
        <time>2021-06-16T14:15:17Z</time>
      </trkpt>
      <trkpt lat="36.724785" lon="-4.276864">
        <ele>57.653</ele>
        <time>2021-06-16T14:15:18Z</time>
      </trkpt>
      <trkpt lat="36.724681" lon="-4.277294">
        <ele>57.722</ele>
        <time>2021-06-16T14:15:20Z</time>
      </trkpt>
      <trkpt lat="36.724611" lon="-4.277529">
        <ele>57.955</ele>
        <time>2021-06-16T14:15:21Z</time>
      </trkpt>
      <trkpt lat="36.72452" lon="-4.277788">
        <ele>58.612</ele>
        <time>2021-06-16T14:15:22Z</time>
      </trkpt>
      <trkpt lat="36.724364" lon="-4.278198">
        <ele>58.789</ele>
        <time>2021-06-16T14:15:24Z</time>
      </trkpt>
      <trkpt lat="36.724282" lon="-4.27842">
        <ele>59.369</ele>
        <time>2021-06-16T14:15:25Z</time>
      </trkpt>
      <trkpt lat="36.724202" lon="-4.278643">
        <ele>59.893</ele>
        <time>2021-06-16T14:15:26Z</time>
      </trkpt>
      <trkpt lat="36.724121" lon="-4.2789">
        <ele>59.865</ele>
        <time>2021-06-16T14:15:27Z</time>
      </trkpt>
      <trkpt lat="36.724017" lon="-4.27933">
        <ele>60.821</ele>
        <time>2021-06-16T14:15:29Z</time>
      </trkpt>
      <trkpt lat="36.723942" lon="-4.279853">
        <ele>61.808</ele>
        <time>2021-06-16T14:15:31Z</time>
      </trkpt>
      <trkpt lat="36.723933" lon="-4.280304">
        <ele>62.446</ele>
        <time>2021-06-16T14:15:33Z</time>
      </trkpt>
      <trkpt lat="36.723989" lon="-4.280793">
        <ele>63.164</ele>
        <time>2021-06-16T14:15:35Z</time>
      </trkpt>
      <trkpt lat="36.724041" lon="-4.28103">
        <ele>63.618</ele>
        <time>2021-06-16T14:15:36Z</time>
      </trkpt>
      <trkpt lat="36.724188" lon="-4.281481">
        <ele>64.157</ele>
        <time>2021-06-16T14:15:38Z</time>
      </trkpt>
      <trkpt lat="36.724283" lon="-4.281734">
        <ele>64.760</ele>
        <time>2021-06-16T14:15:39Z</time>
      </trkpt>
      <trkpt lat="36.724455" lon="-4.282133">
        <ele>65.727</ele>
        <time>2021-06-16T14:15:41Z</time>
      </trkpt>
      <trkpt lat="36.724641" lon="-4.282578">
        <ele>66.964</ele>
        <time>2021-06-16T14:15:43Z</time>
      </trkpt>
      <trkpt lat="36.724723" lon="-4.282808">
        <ele>67.654</ele>
        <time>2021-06-16T14:15:44Z</time>
      </trkpt>
      <trkpt lat="36.724855" lon="-4.283281">
        <ele>68.648</ele>
        <time>2021-06-16T14:15:46Z</time>
      </trkpt>
      <trkpt lat="36.72491" lon="-4.283549">
        <ele>69.161</ele>
        <time>2021-06-16T14:15:47Z</time>
      </trkpt>
      <trkpt lat="36.72496" lon="-4.284009">
        <ele>70.417</ele>
        <time>2021-06-16T14:15:49Z</time>
      </trkpt>
      <trkpt lat="36.724977" lon="-4.284261">
        <ele>71.108</ele>
        <time>2021-06-16T14:15:50Z</time>
      </trkpt>
      <trkpt lat="36.724979" lon="-4.284514">
        <ele>72.171</ele>
        <time>2021-06-16T14:15:51Z</time>
      </trkpt>
      <trkpt lat="36.724942" lon="-4.285016">
        <ele>73.029</ele>
        <time>2021-06-16T14:15:53Z</time>
      </trkpt>
      <trkpt lat="36.724913" lon="-4.285258">
        <ele>73.873</ele>
        <time>2021-06-16T14:15:54Z</time>
      </trkpt>
      <trkpt lat="36.724872" lon="-4.285526">
        <ele>74.632</ele>
        <time>2021-06-16T14:15:55Z</time>
      </trkpt>
      <trkpt lat="36.724764" lon="-4.285957">
        <ele>75.375</ele>
        <time>2021-06-16T14:15:57Z</time>
      </trkpt>
      <trkpt lat="36.724615" lon="-4.286417">
        <ele>76.352</ele>
        <time>2021-06-16T14:15:59Z</time>
      </trkpt>
      <trkpt lat="36.724533" lon="-4.286639">
        <ele>76.979</ele>
        <time>2021-06-16T14:16:00Z</time>
      </trkpt>
      <trkpt lat="36.724349" lon="-4.28707">
        <ele>77.689</ele>
        <time>2021-06-16T14:16:02Z</time>
      </trkpt>
      <trkpt lat="36.724231" lon="-4.287301">
        <ele>77.952</ele>
        <time>2021-06-16T14:16:03Z</time>
      </trkpt>
      <trkpt lat="36.724039" lon="-4.287678">
        <ele>78.053</ele>
        <time>2021-06-16T14:16:05Z</time>
      </trkpt>
      <trkpt lat="36.723939" lon="-4.287896">
        <ele>78.608</ele>
        <time>2021-06-16T14:16:06Z</time>
      </trkpt>
      <trkpt lat="36.723843" lon="-4.288125">
        <ele>79.208</ele>
        <time>2021-06-16T14:16:07Z</time>
      </trkpt>
      <trkpt lat="36.723692" lon="-4.288582">
        <ele>79.652</ele>
        <time>2021-06-16T14:16:09Z</time>
      </trkpt>
      <trkpt lat="36.723634" lon="-4.288827">
        <ele>80.250</ele>
        <time>2021-06-16T14:16:10Z</time>
      </trkpt>
      <trkpt lat="36.723582" lon="-4.289094">
        <ele>80.824</ele>
        <time>2021-06-16T14:16:11Z</time>
      </trkpt>
      <trkpt lat="36.72353" lon="-4.289585">
        <ele>81.453</ele>
        <time>2021-06-16T14:16:13Z</time>
      </trkpt>
      <trkpt lat="36.723518" lon="-4.289845">
        <ele>82.216</ele>
        <time>2021-06-16T14:16:14Z</time>
      </trkpt>
      <trkpt lat="36.723535" lon="-4.290359">
        <ele>82.973</ele>
        <time>2021-06-16T14:16:16Z</time>
      </trkpt>
      <trkpt lat="36.723567" lon="-4.290613">
        <ele>83.540</ele>
        <time>2021-06-16T14:16:17Z</time>
      </trkpt>
      <trkpt lat="36.723617" lon="-4.290859">
        <ele>84.210</ele>
        <time>2021-06-16T14:16:18Z</time>
      </trkpt>
      <trkpt lat="36.723688" lon="-4.291129">
        <ele>85.136</ele>
        <time>2021-06-16T14:16:19Z</time>
      </trkpt>
      <trkpt lat="36.723829" lon="-4.291563">
        <ele>85.817</ele>
        <time>2021-06-16T14:16:21Z</time>
      </trkpt>
      <trkpt lat="36.723909" lon="-4.291804">
        <ele>86.618</ele>
        <time>2021-06-16T14:16:22Z</time>
      </trkpt>
      <trkpt lat="36.724094" lon="-4.292289">
        <ele>87.808</ele>
        <time>2021-06-16T14:16:24Z</time>
      </trkpt>
      <trkpt lat="36.72425" lon="-4.292739">
        <ele>88.840</ele>
        <time>2021-06-16T14:16:26Z</time>
      </trkpt>
      <trkpt lat="36.724327" lon="-4.292978">
        <ele>89.598</ele>
        <time>2021-06-16T14:16:27Z</time>
      </trkpt>
      <trkpt lat="36.724409" lon="-4.293246">
        <ele>90.772</ele>
        <time>2021-06-16T14:16:28Z</time>
      </trkpt>
      <trkpt lat="36.724517" lon="-4.293687">
        <ele>92.111</ele>
        <time>2021-06-16T14:16:30Z</time>
      </trkpt>
      <trkpt lat="36.724609" lon="-4.294203">
        <ele>93.494</ele>
        <time>2021-06-16T14:16:32Z</time>
      </trkpt>
      <trkpt lat="36.724643" lon="-4.294652">
        <ele>94.351</ele>
        <time>2021-06-16T14:16:34Z</time>
      </trkpt>
      <trkpt lat="36.724647" lon="-4.294906">
        <ele>94.978</ele>
        <time>2021-06-16T14:16:35Z</time>
      </trkpt>
      <trkpt lat="36.724618" lon="-4.29544">
        <ele>95.488</ele>
        <time>2021-06-16T14:16:37Z</time>
      </trkpt>
      <trkpt lat="36.724557" lon="-4.2959">
        <ele>96.112</ele>
        <time>2021-06-16T14:16:39Z</time>
      </trkpt>
      <trkpt lat="36.724448" lon="-4.296421">
        <ele>97.132</ele>
        <time>2021-06-16T14:16:41Z</time>
      </trkpt>
      <trkpt lat="36.724325" lon="-4.296857">
        <ele>97.605</ele>
        <time>2021-06-16T14:16:43Z</time>
      </trkpt>
      <trkpt lat="36.724181" lon="-4.297367">
        <ele>97.608</ele>
        <time>2021-06-16T14:16:45Z</time>
      </trkpt>
      <trkpt lat="36.724059" lon="-4.297806">
        <ele>97.888</ele>
        <time>2021-06-16T14:16:47Z</time>
      </trkpt>
      <trkpt lat="36.723928" lon="-4.298293">
        <ele>98.086</ele>
        <time>2021-06-16T14:16:49Z</time>
      </trkpt>
      <trkpt lat="36.72386" lon="-4.298567">
        <ele>97.880</ele>
        <time>2021-06-16T14:16:50Z</time>
      </trkpt>
      <trkpt lat="36.723751" lon="-4.299022">
        <ele>97.869</ele>
        <time>2021-06-16T14:16:52Z</time>
      </trkpt>
      <trkpt lat="36.72364" lon="-4.299573">
        <ele>97.792</ele>
        <time>2021-06-16T14:16:54Z</time>
      </trkpt>
      <trkpt lat="36.723583" lon="-4.300065">
        <ele>97.589</ele>
        <time>2021-06-16T14:16:56Z</time>
      </trkpt>
      <trkpt lat="36.723549" lon="-4.300619">
        <ele>97.236</ele>
        <time>2021-06-16T14:16:58Z</time>
      </trkpt>
      <trkpt lat="36.723542" lon="-4.300893">
        <ele>96.676</ele>
        <time>2021-06-16T14:16:59Z</time>
      </trkpt>
      <trkpt lat="36.723542" lon="-4.301164">
        <ele>96.116</ele>
        <time>2021-06-16T14:17:00Z</time>
      </trkpt>
      <trkpt lat="36.723552" lon="-4.301431">
        <ele>95.476</ele>
        <time>2021-06-16T14:17:01Z</time>
      </trkpt>
      <trkpt lat="36.723566" lon="-4.301722">
        <ele>94.713</ele>
        <time>2021-06-16T14:17:02Z</time>
      </trkpt>
      <trkpt lat="36.723627" lon="-4.302244">
        <ele>93.508</ele>
        <time>2021-06-16T14:17:04Z</time>
      </trkpt>
      <trkpt lat="36.723693" lon="-4.302835">
        <ele>92.318</ele>
        <time>2021-06-16T14:17:06Z</time>
      </trkpt>
      <trkpt lat="36.723755" lon="-4.303352">
        <ele>90.866</ele>
        <time>2021-06-16T14:17:08Z</time>
      </trkpt>
      <trkpt lat="36.723789" lon="-4.303637">
        <ele>89.650</ele>
        <time>2021-06-16T14:17:09Z</time>
      </trkpt>
      <trkpt lat="36.723852" lon="-4.304223">
        <ele>88.589</ele>
        <time>2021-06-16T14:17:11Z</time>
      </trkpt>
      <trkpt lat="36.723912" lon="-4.304752">
        <ele>87.572</ele>
        <time>2021-06-16T14:17:13Z</time>
      </trkpt>
      <trkpt lat="36.723943" lon="-4.305034">
        <ele>87.029</ele>
        <time>2021-06-16T14:17:14Z</time>
      </trkpt>
      <trkpt lat="36.723997" lon="-4.305596">
        <ele>86.416</ele>
        <time>2021-06-16T14:17:16Z</time>
      </trkpt>
      <trkpt lat="36.724054" lon="-4.306148">
        <ele>86.366</ele>
        <time>2021-06-16T14:17:18Z</time>
      </trkpt>
      <trkpt lat="36.724111" lon="-4.306716">
        <ele>86.072</ele>
        <time>2021-06-16T14:17:20Z</time>
      </trkpt>
      <trkpt lat="36.724161" lon="-4.307224">
        <ele>86.113</ele>
        <time>2021-06-16T14:17:22Z</time>
      </trkpt>
      <trkpt lat="36.724234" lon="-4.307785">
        <ele>86.114</ele>
        <time>2021-06-16T14:17:24Z</time>
      </trkpt>
      <trkpt lat="36.724317" lon="-4.308257">
        <ele>86.308</ele>
        <time>2021-06-16T14:17:26Z</time>
      </trkpt>
      <trkpt lat="36.724437" lon="-4.3088">
        <ele>86.474</ele>
        <time>2021-06-16T14:17:28Z</time>
      </trkpt>
      <trkpt lat="36.724571" lon="-4.309252">
        <ele>86.872</ele>
        <time>2021-06-16T14:17:30Z</time>
      </trkpt>
      <trkpt lat="36.724657" lon="-4.309494">
        <ele>87.036</ele>
        <time>2021-06-16T14:17:31Z</time>
      </trkpt>
      <trkpt lat="36.724863" lon="-4.309993">
        <ele>87.435</ele>
        <time>2021-06-16T14:17:33Z</time>
      </trkpt>
      <trkpt lat="36.725079" lon="-4.310405">
        <ele>87.848</ele>
        <time>2021-06-16T14:17:35Z</time>
      </trkpt>
      <trkpt lat="36.72535" lon="-4.310876">
        <ele>88.695</ele>
        <time>2021-06-16T14:17:37Z</time>
      </trkpt>
      <trkpt lat="36.725605" lon="-4.311255">
        <ele>89.212</ele>
        <time>2021-06-16T14:17:39Z</time>
      </trkpt>
      <trkpt lat="36.725759" lon="-4.311459">
        <ele>89.842</ele>
        <time>2021-06-16T14:17:40Z</time>
      </trkpt>
      <trkpt lat="36.726114" lon="-4.311861">
        <ele>90.795</ele>
        <time>2021-06-16T14:17:42Z</time>
      </trkpt>
      <trkpt lat="36.726442" lon="-4.312189">
        <ele>91.549</ele>
        <time>2021-06-16T14:17:44Z</time>
      </trkpt>
      <trkpt lat="36.726863" lon="-4.312528">
        <ele>92.623</ele>
        <time>2021-06-16T14:17:46Z</time>
      </trkpt>
      <trkpt lat="36.72726" lon="-4.312784">
        <ele>94.108</ele>
        <time>2021-06-16T14:17:48Z</time>
      </trkpt>
      <trkpt lat="36.72748" lon="-4.312906">
        <ele>95.186</ele>
        <time>2021-06-16T14:17:49Z</time>
      </trkpt>
      <trkpt lat="36.727699" lon="-4.31302">
        <ele>96.234</ele>
        <time>2021-06-16T14:17:50Z</time>
      </trkpt>
      <trkpt lat="36.727943" lon="-4.313144">
        <ele>96.928</ele>
        <time>2021-06-16T14:17:51Z</time>
      </trkpt>
      <trkpt lat="36.728339" lon="-4.313326">
        <ele>97.547</ele>
        <time>2021-06-16T14:17:53Z</time>
      </trkpt>
      <trkpt lat="36.728773" lon="-4.313537">
        <ele>98.520</ele>
        <time>2021-06-16T14:17:55Z</time>
      </trkpt>
      <trkpt lat="36.729199" lon="-4.313776">
        <ele>99.697</ele>
        <time>2021-06-16T14:17:57Z</time>
      </trkpt>
      <trkpt lat="36.729411" lon="-4.313905">
        <ele>100.274</ele>
        <time>2021-06-16T14:17:58Z</time>
      </trkpt>
      <trkpt lat="36.729816" lon="-4.314191">
        <ele>100.634</ele>
        <time>2021-06-16T14:18:00Z</time>
      </trkpt>
      <trkpt lat="36.73001" lon="-4.314352">
        <ele>101.153</ele>
        <time>2021-06-16T14:18:01Z</time>
      </trkpt>
      <trkpt lat="36.730202" lon="-4.314519">
        <ele>101.404</ele>
        <time>2021-06-16T14:18:02Z</time>
      </trkpt>
      <trkpt lat="36.730409" lon="-4.314719">
        <ele>102.214</ele>
        <time>2021-06-16T14:18:03Z</time>
      </trkpt>
      <trkpt lat="36.730736" lon="-4.315077">
        <ele>103.008</ele>
        <time>2021-06-16T14:18:05Z</time>
      </trkpt>
      <trkpt lat="36.730915" lon="-4.315279">
        <ele>103.452</ele>
        <time>2021-06-16T14:18:06Z</time>
      </trkpt>
      <trkpt lat="36.731095" lon="-4.315493">
        <ele>104.090</ele>
        <time>2021-06-16T14:18:07Z</time>
      </trkpt>
      <trkpt lat="36.731404" lon="-4.315926">
        <ele>104.874</ele>
        <time>2021-06-16T14:18:09Z</time>
      </trkpt>
      <trkpt lat="36.731691" lon="-4.316401">
        <ele>105.653</ele>
        <time>2021-06-16T14:18:11Z</time>
      </trkpt>
      <trkpt lat="36.731826" lon="-4.316646">
        <ele>105.976</ele>
        <time>2021-06-16T14:18:12Z</time>
      </trkpt>
      <trkpt lat="36.732073" lon="-4.317147">
        <ele>106.133</ele>
        <time>2021-06-16T14:18:14Z</time>
      </trkpt>
      <trkpt lat="36.732281" lon="-4.31766">
        <ele>106.830</ele>
        <time>2021-06-16T14:18:16Z</time>
      </trkpt>
      <trkpt lat="36.732374" lon="-4.317922">
        <ele>107.660</ele>
        <time>2021-06-16T14:18:17Z</time>
      </trkpt>
      <trkpt lat="36.732537" lon="-4.318452">
        <ele>108.582</ele>
        <time>2021-06-16T14:18:19Z</time>
      </trkpt>
      <trkpt lat="36.732616" lon="-4.318748">
        <ele>109.643</ele>
        <time>2021-06-16T14:18:20Z</time>
      </trkpt>
      <trkpt lat="36.732718" lon="-4.31927">
        <ele>111.417</ele>
        <time>2021-06-16T14:18:22Z</time>
      </trkpt>
      <trkpt lat="36.732811" lon="-4.319847">
        <ele>113.108</ele>
        <time>2021-06-16T14:18:24Z</time>
      </trkpt>
      <trkpt lat="36.73285" lon="-4.320173">
        <ele>114.375</ele>
        <time>2021-06-16T14:18:25Z</time>
      </trkpt>
      <trkpt lat="36.73289" lon="-4.320701">
        <ele>115.563</ele>
        <time>2021-06-16T14:18:27Z</time>
      </trkpt>
      <trkpt lat="36.732898" lon="-4.321292">
        <ele>116.797</ele>
        <time>2021-06-16T14:18:29Z</time>
      </trkpt>
      <trkpt lat="36.732883" lon="-4.321801">
        <ele>117.256</ele>
        <time>2021-06-16T14:18:31Z</time>
      </trkpt>
      <trkpt lat="36.732838" lon="-4.322341">
        <ele>118.119</ele>
        <time>2021-06-16T14:18:33Z</time>
      </trkpt>
      <trkpt lat="36.732804" lon="-4.322637">
        <ele>118.536</ele>
        <time>2021-06-16T14:18:34Z</time>
      </trkpt>
      <trkpt lat="36.73273" lon="-4.323108">
        <ele>118.953</ele>
        <time>2021-06-16T14:18:36Z</time>
      </trkpt>
      <trkpt lat="36.732679" lon="-4.323367">
        <ele>119.053</ele>
        <time>2021-06-16T14:18:37Z</time>
      </trkpt>
      <trkpt lat="36.73262" lon="-4.323651">
        <ele>119.428</ele>
        <time>2021-06-16T14:18:38Z</time>
      </trkpt>
      <trkpt lat="36.732523" lon="-4.324125">
        <ele>120.089</ele>
        <time>2021-06-16T14:18:40Z</time>
      </trkpt>
      <trkpt lat="36.732477" lon="-4.324386">
        <ele>120.417</ele>
        <time>2021-06-16T14:18:41Z</time>
      </trkpt>
      <trkpt lat="36.732436" lon="-4.324644">
        <ele>120.808</ele>
        <time>2021-06-16T14:18:42Z</time>
      </trkpt>
      <trkpt lat="36.732372" lon="-4.325162">
        <ele>121.129</ele>
        <time>2021-06-16T14:18:44Z</time>
      </trkpt>
      <trkpt lat="36.732345" lon="-4.325426">
        <ele>121.657</ele>
        <time>2021-06-16T14:18:45Z</time>
      </trkpt>
      <trkpt lat="36.732304" lon="-4.325977">
        <ele>122.631</ele>
        <time>2021-06-16T14:18:47Z</time>
      </trkpt>
      <trkpt lat="36.732296" lon="-4.326462">
        <ele>123.380</ele>
        <time>2021-06-16T14:18:49Z</time>
      </trkpt>
      <trkpt lat="36.7323" lon="-4.326725">
        <ele>123.923</ele>
        <time>2021-06-16T14:18:50Z</time>
      </trkpt>
      <trkpt lat="36.73232" lon="-4.327283">
        <ele>124.540</ele>
        <time>2021-06-16T14:18:52Z</time>
      </trkpt>
      <trkpt lat="36.732368" lon="-4.32776">
        <ele>124.947</ele>
        <time>2021-06-16T14:18:54Z</time>
      </trkpt>
      <trkpt lat="36.732401" lon="-4.328023">
        <ele>125.397</ele>
        <time>2021-06-16T14:18:55Z</time>
      </trkpt>
      <trkpt lat="36.732439" lon="-4.328313">
        <ele>126.183</ele>
        <time>2021-06-16T14:18:56Z</time>
      </trkpt>
      <trkpt lat="36.732515" lon="-4.328799">
        <ele>127.125</ele>
        <time>2021-06-16T14:18:58Z</time>
      </trkpt>
      <trkpt lat="36.732599" lon="-4.329323">
        <ele>128.317</ele>
        <time>2021-06-16T14:19:00Z</time>
      </trkpt>
      <trkpt lat="36.732641" lon="-4.329618">
        <ele>129.108</ele>
        <time>2021-06-16T14:19:01Z</time>
      </trkpt>
      <trkpt lat="36.732702" lon="-4.330098">
        <ele>130.015</ele>
        <time>2021-06-16T14:19:03Z</time>
      </trkpt>
      <trkpt lat="36.732764" lon="-4.330655">
        <ele>130.853</ele>
        <time>2021-06-16T14:19:05Z</time>
      </trkpt>
      <trkpt lat="36.732803" lon="-4.331146">
        <ele>131.357</ele>
        <time>2021-06-16T14:19:07Z</time>
      </trkpt>
      <trkpt lat="36.732833" lon="-4.331693">
        <ele>131.746</ele>
        <time>2021-06-16T14:19:09Z</time>
      </trkpt>
      <trkpt lat="36.732841" lon="-4.332217">
        <ele>132.259</ele>
        <time>2021-06-16T14:19:11Z</time>
      </trkpt>
      <trkpt lat="36.732838" lon="-4.332491">
        <ele>132.456</ele>
        <time>2021-06-16T14:19:12Z</time>
      </trkpt>
      <trkpt lat="36.73283" lon="-4.332798">
        <ele>132.553</ele>
        <time>2021-06-16T14:19:13Z</time>
      </trkpt>
      <trkpt lat="36.732802" lon="-4.333292">
        <ele>132.313</ele>
        <time>2021-06-16T14:19:15Z</time>
      </trkpt>
      <trkpt lat="36.732751" lon="-4.333831">
        <ele>132.326</ele>
        <time>2021-06-16T14:19:17Z</time>
      </trkpt>
      <trkpt lat="36.732716" lon="-4.334131">
        <ele>132.047</ele>
        <time>2021-06-16T14:19:18Z</time>
      </trkpt>
      <trkpt lat="36.732658" lon="-4.334619">
        <ele>131.411</ele>
        <time>2021-06-16T14:19:20Z</time>
      </trkpt>
      <trkpt lat="36.732598" lon="-4.335151">
        <ele>131.008</ele>
        <time>2021-06-16T14:19:22Z</time>
      </trkpt>
      <trkpt lat="36.73257" lon="-4.33542">
        <ele>130.569</ele>
        <time>2021-06-16T14:19:23Z</time>
      </trkpt>
      <trkpt lat="36.732546" lon="-4.33569">
        <ele>129.997</ele>
        <time>2021-06-16T14:19:24Z</time>
      </trkpt>
      <trkpt lat="36.732509" lon="-4.33624">
        <ele>128.951</ele>
        <time>2021-06-16T14:19:26Z</time>
      </trkpt>
      <trkpt lat="36.732486" lon="-4.336779">
        <ele>128.420</ele>
        <time>2021-06-16T14:19:28Z</time>
      </trkpt>
      <trkpt lat="36.73249" lon="-4.337362">
        <ele>128.243</ele>
        <time>2021-06-16T14:19:30Z</time>
      </trkpt>
      <trkpt lat="36.732517" lon="-4.337858">
        <ele>128.180</ele>
        <time>2021-06-16T14:19:32Z</time>
      </trkpt>
      <trkpt lat="36.732559" lon="-4.338394">
        <ele>127.997</ele>
        <time>2021-06-16T14:19:34Z</time>
      </trkpt>
      <trkpt lat="36.732587" lon="-4.338659">
        <ele>127.577</ele>
        <time>2021-06-16T14:19:35Z</time>
      </trkpt>
      <trkpt lat="36.73262" lon="-4.338924">
        <ele>127.057</ele>
        <time>2021-06-16T14:19:36Z</time>
      </trkpt>
      <trkpt lat="36.732701" lon="-4.33948">
        <ele>126.200</ele>
        <time>2021-06-16T14:19:38Z</time>
      </trkpt>
      <trkpt lat="36.732798" lon="-4.339958">
        <ele>125.420</ele>
        <time>2021-06-16T14:19:40Z</time>
      </trkpt>
      <trkpt lat="36.73292" lon="-4.340473">
        <ele>125.108</ele>
        <time>2021-06-16T14:19:42Z</time>
      </trkpt>
      <trkpt lat="36.733055" lon="-4.340972">
        <ele>124.782</ele>
        <time>2021-06-16T14:19:44Z</time>
      </trkpt>
      <trkpt lat="36.733197" lon="-4.341487">
        <ele>124.190</ele>
        <time>2021-06-16T14:19:46Z</time>
      </trkpt>
      <trkpt lat="36.733306" lon="-4.341953">
        <ele>123.984</ele>
        <time>2021-06-16T14:19:48Z</time>
      </trkpt>
      <trkpt lat="36.733359" lon="-4.342216">
        <ele>123.913</ele>
        <time>2021-06-16T14:19:49Z</time>
      </trkpt>
      <trkpt lat="36.733406" lon="-4.342486">
        <ele>123.836</ele>
        <time>2021-06-16T14:19:50Z</time>
      </trkpt>
      <trkpt lat="36.733481" lon="-4.343007">
        <ele>124.023</ele>
        <time>2021-06-16T14:19:52Z</time>
      </trkpt>
      <trkpt lat="36.733542" lon="-4.343572">
        <ele>124.520</ele>
        <time>2021-06-16T14:19:54Z</time>
      </trkpt>
      <trkpt lat="36.733577" lon="-4.344061">
        <ele>124.790</ele>
        <time>2021-06-16T14:19:56Z</time>
      </trkpt>
      <trkpt lat="36.733584" lon="-4.344607">
        <ele>124.472</ele>
        <time>2021-06-16T14:19:58Z</time>
      </trkpt>
      <trkpt lat="36.733566" lon="-4.345125">
        <ele>123.613</ele>
        <time>2021-06-16T14:20:00Z</time>
      </trkpt>
      <trkpt lat="36.733527" lon="-4.345685">
        <ele>123.214</ele>
        <time>2021-06-16T14:20:02Z</time>
      </trkpt>
      <trkpt lat="36.733468" lon="-4.346161">
        <ele>122.608</ele>
        <time>2021-06-16T14:20:04Z</time>
      </trkpt>
      <trkpt lat="36.733428" lon="-4.346423">
        <ele>121.774</ele>
        <time>2021-06-16T14:20:05Z</time>
      </trkpt>
      <trkpt lat="36.733317" lon="-4.346964">
        <ele>120.992</ele>
        <time>2021-06-16T14:20:07Z</time>
      </trkpt>
      <trkpt lat="36.733198" lon="-4.347432">
        <ele>120.116</ele>
        <time>2021-06-16T14:20:09Z</time>
      </trkpt>
      <trkpt lat="36.733047" lon="-4.347937">
        <ele>119.455</ele>
        <time>2021-06-16T14:20:11Z</time>
      </trkpt>
      <trkpt lat="36.732965" lon="-4.348202">
        <ele>118.988</ele>
        <time>2021-06-16T14:20:12Z</time>
      </trkpt>
      <trkpt lat="36.732813" lon="-4.348674">
        <ele>118.215</ele>
        <time>2021-06-16T14:20:14Z</time>
      </trkpt>
      <trkpt lat="36.73274" lon="-4.348927">
        <ele>117.252</ele>
        <time>2021-06-16T14:20:15Z</time>
      </trkpt>
      <trkpt lat="36.732663" lon="-4.349208">
        <ele>116.672</ele>
        <time>2021-06-16T14:20:16Z</time>
      </trkpt>
      <trkpt lat="36.73255" lon="-4.349691">
        <ele>116.435</ele>
        <time>2021-06-16T14:20:18Z</time>
      </trkpt>
      <trkpt lat="36.7325" lon="-4.349959">
        <ele>116.086</ele>
        <time>2021-06-16T14:20:19Z</time>
      </trkpt>
      <trkpt lat="36.732422" lon="-4.350527">
        <ele>115.614</ele>
        <time>2021-06-16T14:20:21Z</time>
      </trkpt>
      <trkpt lat="36.732384" lon="-4.35101">
        <ele>115.208</ele>
        <time>2021-06-16T14:20:23Z</time>
      </trkpt>
      <trkpt lat="36.73237" lon="-4.351283">
        <ele>114.770</ele>
        <time>2021-06-16T14:20:24Z</time>
      </trkpt>
      <trkpt lat="36.732364" lon="-4.351586">
        <ele>114.748</ele>
        <time>2021-06-16T14:20:25Z</time>
      </trkpt>
      <trkpt lat="36.732381" lon="-4.352077">
        <ele>114.332</ele>
        <time>2021-06-16T14:20:27Z</time>
      </trkpt>
      <trkpt lat="36.732409" lon="-4.352615">
        <ele>114.091</ele>
        <time>2021-06-16T14:20:29Z</time>
      </trkpt>
      <trkpt lat="36.732424" lon="-4.352882">
        <ele>113.624</ele>
        <time>2021-06-16T14:20:30Z</time>
      </trkpt>
      <trkpt lat="36.732433" lon="-4.353412">
        <ele>113.251</ele>
        <time>2021-06-16T14:20:32Z</time>
      </trkpt>
      <trkpt lat="36.732429" lon="-4.353709">
        <ele>112.528</ele>
        <time>2021-06-16T14:20:33Z</time>
      </trkpt>
      <trkpt lat="36.73241" lon="-4.354183">
        <ele>112.368</ele>
        <time>2021-06-16T14:20:35Z</time>
      </trkpt>
      <trkpt lat="36.732391" lon="-4.354445">
        <ele>112.096</ele>
        <time>2021-06-16T14:20:36Z</time>
      </trkpt>
      <trkpt lat="36.732362" lon="-4.354714">
        <ele>111.731</ele>
        <time>2021-06-16T14:20:37Z</time>
      </trkpt>
      <trkpt lat="36.732278" lon="-4.35522">
        <ele>111.124</ele>
        <time>2021-06-16T14:20:39Z</time>
      </trkpt>
      <trkpt lat="36.732161" lon="-4.355738">
        <ele>110.108</ele>
        <time>2021-06-16T14:20:41Z</time>
      </trkpt>
      <trkpt lat="36.732089" lon="-4.355997">
        <ele>109.026</ele>
        <time>2021-06-16T14:20:42Z</time>
      </trkpt>
      <trkpt lat="36.732009" lon="-4.356251">
        <ele>107.814</ele>
        <time>2021-06-16T14:20:43Z</time>
      </trkpt>
      <trkpt lat="36.731919" lon="-4.356501">
        <ele>106.658</ele>
        <time>2021-06-16T14:20:44Z</time>
      </trkpt>
      <trkpt lat="36.731704" lon="-4.356997">
        <ele>105.097</ele>
        <time>2021-06-16T14:20:46Z</time>
      </trkpt>
      <trkpt lat="36.73146" lon="-4.357479">
        <ele>102.910</ele>
        <time>2021-06-16T14:20:48Z</time>
      </trkpt>
      <trkpt lat="36.731163" lon="-4.357937">
        <ele>100.117</ele>
        <time>2021-06-16T14:20:50Z</time>
      </trkpt>
      <trkpt lat="36.730879" lon="-4.358279">
        <ele>97.444</ele>
        <time>2021-06-16T14:20:52Z</time>
      </trkpt>
      <trkpt lat="36.730541" lon="-4.358654">
        <ele>94.974</ele>
        <time>2021-06-16T14:20:54Z</time>
      </trkpt>
      <trkpt lat="36.730257" lon="-4.35897">
        <ele>92.233</ele>
        <time>2021-06-16T14:20:56Z</time>
      </trkpt>
      <trkpt lat="36.730103" lon="-4.359148">
        <ele>90.923</ele>
        <time>2021-06-16T14:20:57Z</time>
      </trkpt>
      <trkpt lat="36.729952" lon="-4.35933">
        <ele>89.815</ele>
        <time>2021-06-16T14:20:58Z</time>
      </trkpt>
      <trkpt lat="36.729787" lon="-4.359535">
        <ele>88.808</ele>
        <time>2021-06-16T14:20:59Z</time>
      </trkpt>
      <trkpt lat="36.729546" lon="-4.359897">
        <ele>87.030</ele>
        <time>2021-06-16T14:21:01Z</time>
      </trkpt>
      <trkpt lat="36.729419" lon="-4.360109">
        <ele>85.498</ele>
        <time>2021-06-16T14:21:02Z</time>
      </trkpt>
      <trkpt lat="36.729292" lon="-4.360356">
        <ele>84.172</ele>
        <time>2021-06-16T14:21:03Z</time>
      </trkpt>
      <trkpt lat="36.729118" lon="-4.360787">
        <ele>82.511</ele>
        <time>2021-06-16T14:21:05Z</time>
      </trkpt>
      <trkpt lat="36.729035" lon="-4.361027">
        <ele>81.234</ele>
        <time>2021-06-16T14:21:06Z</time>
      </trkpt>
      <trkpt lat="36.728893" lon="-4.361541">
        <ele>79.411</ele>
        <time>2021-06-16T14:21:08Z</time>
      </trkpt>
      <trkpt lat="36.728817" lon="-4.362">
        <ele>77.528</ele>
        <time>2021-06-16T14:21:10Z</time>
      </trkpt>
      <trkpt lat="36.728786" lon="-4.36226">
        <ele>75.678</ele>
        <time>2021-06-16T14:21:11Z</time>
      </trkpt>
      <trkpt lat="36.728762" lon="-4.362553">
        <ele>74.194</ele>
        <time>2021-06-16T14:21:12Z</time>
      </trkpt>
      <trkpt lat="36.728754" lon="-4.363036">
        <ele>72.957</ele>
        <time>2021-06-16T14:21:14Z</time>
      </trkpt>
      <trkpt lat="36.728766" lon="-4.363304">
        <ele>71.522</ele>
        <time>2021-06-16T14:21:15Z</time>
      </trkpt>
      <trkpt lat="36.728792" lon="-4.363576">
        <ele>70.008</ele>
        <time>2021-06-16T14:21:16Z</time>
      </trkpt>
      <trkpt lat="36.728875" lon="-4.364079">
        <ele>68.866</ele>
        <time>2021-06-16T14:21:18Z</time>
      </trkpt>
      <trkpt lat="36.729007" lon="-4.364614">
        <ele>67.734</ele>
        <time>2021-06-16T14:21:20Z</time>
      </trkpt>
      <trkpt lat="36.729165" lon="-4.365049">
        <ele>67.278</ele>
        <time>2021-06-16T14:21:22Z</time>
      </trkpt>
      <trkpt lat="36.729264" lon="-4.365279">
        <ele>66.867</ele>
        <time>2021-06-16T14:21:23Z</time>
      </trkpt>
      <trkpt lat="36.729383" lon="-4.365531">
        <ele>66.950</ele>
        <time>2021-06-16T14:21:24Z</time>
      </trkpt>
      <trkpt lat="36.729609" lon="-4.365917">
        <ele>67.817</ele>
        <time>2021-06-16T14:21:26Z</time>
      </trkpt>
      <trkpt lat="36.729733" lon="-4.366128">
        <ele>69.094</ele>
        <time>2021-06-16T14:21:27Z</time>
      </trkpt>
      <trkpt lat="36.729992" lon="-4.366558">
        <ele>70.834</ele>
        <time>2021-06-16T14:21:29Z</time>
      </trkpt>
      <trkpt lat="36.73021" lon="-4.366922">
        <ele>72.324</ele>
        <time>2021-06-16T14:21:31Z</time>
      </trkpt>
      <trkpt lat="36.730464" lon="-4.367337">
        <ele>73.904</ele>
        <time>2021-06-16T14:21:33Z</time>
      </trkpt>
      <trkpt lat="36.730682" lon="-4.367704">
        <ele>76.414</ele>
        <time>2021-06-16T14:21:35Z</time>
      </trkpt>
      <trkpt lat="36.730919" lon="-4.368121">
        <ele>78.908</ele>
        <time>2021-06-16T14:21:37Z</time>
      </trkpt>
      <trkpt lat="36.731051" lon="-4.368355">
        <ele>81.429</ele>
        <time>2021-06-16T14:21:38Z</time>
      </trkpt>
      <trkpt lat="36.731256" lon="-4.368748">
        <ele>84.457</ele>
        <time>2021-06-16T14:21:40Z</time>
      </trkpt>
      <trkpt lat="36.731353" lon="-4.368976">
        <ele>86.331</ele>
        <time>2021-06-16T14:21:41Z</time>
      </trkpt>
      <trkpt lat="36.731448" lon="-4.36924">
        <ele>88.040</ele>
        <time>2021-06-16T14:21:42Z</time>
      </trkpt>
      <trkpt lat="36.731566" lon="-4.369686">
        <ele>90.493</ele>
        <time>2021-06-16T14:21:44Z</time>
      </trkpt>
      <trkpt lat="36.731655" lon="-4.370174">
        <ele>92.430</ele>
        <time>2021-06-16T14:21:46Z</time>
      </trkpt>
      <trkpt lat="36.731701" lon="-4.370654">
        <ele>94.697</ele>
        <time>2021-06-16T14:21:48Z</time>
      </trkpt>
      <trkpt lat="36.731712" lon="-4.370897">
        <ele>96.657</ele>
        <time>2021-06-16T14:21:49Z</time>
      </trkpt>
      <trkpt lat="36.731714" lon="-4.371162">
        <ele>98.378</ele>
        <time>2021-06-16T14:21:50Z</time>
      </trkpt>
      <trkpt lat="36.731701" lon="-4.371593">
        <ele>100.633</ele>
        <time>2021-06-16T14:21:52Z</time>
      </trkpt>
      <trkpt lat="36.731693" lon="-4.37183">
        <ele>102.426</ele>
        <time>2021-06-16T14:21:53Z</time>
      </trkpt>
      <trkpt lat="36.731686" lon="-4.372063">
        <ele>103.608</ele>
        <time>2021-06-16T14:21:54Z</time>
      </trkpt>
      <trkpt lat="36.73168" lon="-4.372299">
        <ele>104.964</ele>
        <time>2021-06-16T14:21:55Z</time>
      </trkpt>
      <trkpt lat="36.731691" lon="-4.372778">
        <ele>107.132</ele>
        <time>2021-06-16T14:21:57Z</time>
      </trkpt>
      <trkpt lat="36.731713" lon="-4.373046">
        <ele>108.876</ele>
        <time>2021-06-16T14:21:58Z</time>
      </trkpt>
      <trkpt lat="36.73178" lon="-4.373471">
        <ele>110.825</ele>
        <time>2021-06-16T14:22:00Z</time>
      </trkpt>
      <trkpt lat="36.731831" lon="-4.373692">
        <ele>112.328</ele>
        <time>2021-06-16T14:22:01Z</time>
      </trkpt>
      <trkpt lat="36.73189" lon="-4.373902">
        <ele>113.715</ele>
        <time>2021-06-16T14:22:02Z</time>
      </trkpt>
      <trkpt lat="36.731957" lon="-4.37414">
        <ele>114.862</ele>
        <time>2021-06-16T14:22:03Z</time>
      </trkpt>
      <trkpt lat="36.73209" lon="-4.374525">
        <ele>116.052</ele>
        <time>2021-06-16T14:22:05Z</time>
      </trkpt>
      <trkpt lat="36.732182" lon="-4.374724">
        <ele>117.258</ele>
        <time>2021-06-16T14:22:06Z</time>
      </trkpt>
      <trkpt lat="36.732293" lon="-4.374944">
        <ele>118.052</ele>
        <time>2021-06-16T14:22:07Z</time>
      </trkpt>
      <trkpt lat="36.732495" lon="-4.375283">
        <ele>119.117</ele>
        <time>2021-06-16T14:22:09Z</time>
      </trkpt>
      <trkpt lat="36.732615" lon="-4.375464">
        <ele>120.308</ele>
        <time>2021-06-16T14:22:10Z</time>
      </trkpt>
      <trkpt lat="36.732745" lon="-4.375636">
        <ele>121.072</ele>
        <time>2021-06-16T14:22:11Z</time>
      </trkpt>
      <trkpt lat="36.7329" lon="-4.375825">
        <ele>121.510</ele>
        <time>2021-06-16T14:22:12Z</time>
      </trkpt>
      <trkpt lat="36.733187" lon="-4.376106">
        <ele>122.734</ele>
        <time>2021-06-16T14:22:14Z</time>
      </trkpt>
      <trkpt lat="36.733355" lon="-4.376247">
        <ele>123.683</ele>
        <time>2021-06-16T14:22:15Z</time>
      </trkpt>
      <trkpt lat="36.733703" lon="-4.376492">
        <ele>124.856</ele>
        <time>2021-06-16T14:22:17Z</time>
      </trkpt>
      <trkpt lat="36.733883" lon="-4.376599">
        <ele>126.233</ele>
        <time>2021-06-16T14:22:18Z</time>
      </trkpt>
      <trkpt lat="36.734282" lon="-4.376789">
        <ele>127.490</ele>
        <time>2021-06-16T14:22:20Z</time>
      </trkpt>
      <trkpt lat="36.734637" lon="-4.376918">
        <ele>128.420</ele>
        <time>2021-06-16T14:22:22Z</time>
      </trkpt>
      <trkpt lat="36.734834" lon="-4.37698">
        <ele>129.523</ele>
        <time>2021-06-16T14:22:23Z</time>
      </trkpt>
      <trkpt lat="36.735033" lon="-4.377042">
        <ele>130.583</ele>
        <time>2021-06-16T14:22:24Z</time>
      </trkpt>
      <trkpt lat="36.735416" lon="-4.37717">
        <ele>131.411</ele>
        <time>2021-06-16T14:22:26Z</time>
      </trkpt>
      <trkpt lat="36.735834" lon="-4.377311">
        <ele>132.508</ele>
        <time>2021-06-16T14:22:28Z</time>
      </trkpt>
      <trkpt lat="36.736202" lon="-4.377439">
        <ele>133.249</ele>
        <time>2021-06-16T14:22:30Z</time>
      </trkpt>
      <trkpt lat="36.736604" lon="-4.377592">
        <ele>134.587</ele>
        <time>2021-06-16T14:22:32Z</time>
      </trkpt>
      <trkpt lat="36.736978" lon="-4.37774">
        <ele>135.691</ele>
        <time>2021-06-16T14:22:34Z</time>
      </trkpt>
      <trkpt lat="36.73735" lon="-4.377922">
        <ele>136.470</ele>
        <time>2021-06-16T14:22:36Z</time>
      </trkpt>
      <trkpt lat="36.737649" lon="-4.378092">
        <ele>137.293</ele>
        <time>2021-06-16T14:22:38Z</time>
      </trkpt>
      <trkpt lat="36.739927" lon="-4.387552">
        <ele>139.120</ele>
        <time>2021-06-16T14:23:22Z</time>
      </trkpt>
      <trkpt lat="36.739815" lon="-4.387781">
        <ele>140.417</ele>
        <time>2021-06-16T14:23:23Z</time>
      </trkpt>
      <trkpt lat="36.739596" lon="-4.388233">
        <ele>141.427</ele>
        <time>2021-06-16T14:23:25Z</time>
      </trkpt>
      <trkpt lat="36.739385" lon="-4.388681">
        <ele>141.699</ele>
        <time>2021-06-16T14:23:27Z</time>
      </trkpt>
      <trkpt lat="36.739179" lon="-4.38913">
        <ele>141.007</ele>
        <time>2021-06-16T14:23:29Z</time>
      </trkpt>
      <trkpt lat="36.739076" lon="-4.389354">
        <ele>140.427</ele>
        <time>2021-06-16T14:23:30Z</time>
      </trkpt>
      <trkpt lat="36.738881" lon="-4.389801">
        <ele>139.608</ele>
        <time>2021-06-16T14:23:32Z</time>
      </trkpt>
      <trkpt lat="36.738788" lon="-4.390031">
        <ele>139.356</ele>
        <time>2021-06-16T14:23:33Z</time>
      </trkpt>
      <trkpt lat="36.738706" lon="-4.390265">
        <ele>138.734</ele>
        <time>2021-06-16T14:23:34Z</time>
      </trkpt>
      <trkpt lat="36.738632" lon="-4.390502">
        <ele>138.358</ele>
        <time>2021-06-16T14:23:35Z</time>
      </trkpt>
      <trkpt lat="36.738514" lon="-4.390996">
        <ele>137.637</ele>
        <time>2021-06-16T14:23:37Z</time>
      </trkpt>
      <trkpt lat="36.73847" lon="-4.391247">
        <ele>136.240</ele>
        <time>2021-06-16T14:23:38Z</time>
      </trkpt>
      <trkpt lat="36.73841" lon="-4.391751">
        <ele>134.667</ele>
        <time>2021-06-16T14:23:40Z</time>
      </trkpt>
      <trkpt lat="36.738392" lon="-4.392006">
        <ele>133.514</ele>
        <time>2021-06-16T14:23:41Z</time>
      </trkpt>
      <trkpt lat="36.738384" lon="-4.392259">
        <ele>132.524</ele>
        <time>2021-06-16T14:23:42Z</time>
      </trkpt>
      <trkpt lat="36.738381" lon="-4.392512">
        <ele>131.919</ele>
        <time>2021-06-16T14:23:43Z</time>
      </trkpt>
      <trkpt lat="36.738402" lon="-4.393012">
        <ele>130.809</ele>
        <time>2021-06-16T14:23:45Z</time>
      </trkpt>
      <trkpt lat="36.738464" lon="-4.393508">
        <ele>130.519</ele>
        <time>2021-06-16T14:23:47Z</time>
      </trkpt>
      <trkpt lat="36.738556" lon="-4.393984">
        <ele>129.708</ele>
        <time>2021-06-16T14:23:49Z</time>
      </trkpt>
      <trkpt lat="36.738685" lon="-4.394461">
        <ele>128.968</ele>
        <time>2021-06-16T14:23:51Z</time>
      </trkpt>
      <trkpt lat="36.738857" lon="-4.394932">
        <ele>127.776</ele>
        <time>2021-06-16T14:23:53Z</time>
      </trkpt>
      <trkpt lat="36.739055" lon="-4.395405">
        <ele>127.250</ele>
        <time>2021-06-16T14:23:55Z</time>
      </trkpt>
      <trkpt lat="36.739158" lon="-4.395649">
        <ele>126.689</ele>
        <time>2021-06-16T14:23:56Z</time>
      </trkpt>
      <trkpt lat="36.739274" lon="-4.395922">
        <ele>125.642</ele>
        <time>2021-06-16T14:23:57Z</time>
      </trkpt>
      <trkpt lat="36.739454" lon="-4.396386">
        <ele>124.489</ele>
        <time>2021-06-16T14:23:59Z</time>
      </trkpt>
      <trkpt lat="36.739541" lon="-4.39665">
        <ele>123.376</ele>
        <time>2021-06-16T14:24:00Z</time>
      </trkpt>
      <trkpt lat="36.73962" lon="-4.396921">
        <ele>122.536</ele>
        <time>2021-06-16T14:24:01Z</time>
      </trkpt>
      <trkpt lat="36.739716" lon="-4.397442">
        <ele>121.499</ele>
        <time>2021-06-16T14:24:03Z</time>
      </trkpt>
      <trkpt lat="36.739778" lon="-4.397967">
        <ele>119.907</ele>
        <time>2021-06-16T14:24:05Z</time>
      </trkpt>
      <trkpt lat="36.739798" lon="-4.398229">
        <ele>119.127</ele>
        <time>2021-06-16T14:24:06Z</time>
      </trkpt>
      <trkpt lat="36.739819" lon="-4.398492">
        <ele>118.108</ele>
        <time>2021-06-16T14:24:07Z</time>
      </trkpt>
      <trkpt lat="36.739843" lon="-4.398759">
        <ele>117.516</ele>
        <time>2021-06-16T14:24:08Z</time>
      </trkpt>
      <trkpt lat="36.73987" lon="-4.399027">
        <ele>116.954</ele>
        <time>2021-06-16T14:24:09Z</time>
      </trkpt>
      <trkpt lat="36.739907" lon="-4.399331">
        <ele>116.528</ele>
        <time>2021-06-16T14:24:10Z</time>
      </trkpt>
      <trkpt lat="36.740033" lon="-4.399825">
        <ele>117.367</ele>
        <time>2021-06-16T14:24:12Z</time>
      </trkpt>
      <trkpt lat="36.740124" lon="-4.400091">
        <ele>118.090</ele>
        <time>2021-06-16T14:24:13Z</time>
      </trkpt>
      <trkpt lat="36.740235" lon="-4.400379">
        <ele>118.867</ele>
        <time>2021-06-16T14:24:14Z</time>
      </trkpt>
      <trkpt lat="36.740453" lon="-4.400823">
        <ele>120.294</ele>
        <time>2021-06-16T14:24:16Z</time>
      </trkpt>
      <trkpt lat="36.740719" lon="-4.401282">
        <ele>122.584</ele>
        <time>2021-06-16T14:24:18Z</time>
      </trkpt>
      <trkpt lat="36.740867" lon="-4.401538">
        <ele>124.153</ele>
        <time>2021-06-16T14:24:19Z</time>
      </trkpt>
      <trkpt lat="36.741104" lon="-4.401943">
        <ele>126.104</ele>
        <time>2021-06-16T14:24:21Z</time>
      </trkpt>
      <trkpt lat="36.741234" lon="-4.402165">
        <ele>128.014</ele>
        <time>2021-06-16T14:24:22Z</time>
      </trkpt>
      <trkpt lat="36.74138" lon="-4.402411">
        <ele>129.608</ele>
        <time>2021-06-16T14:24:23Z</time>
      </trkpt>
      <trkpt lat="36.741629" lon="-4.402797">
        <ele>131.112</ele>
        <time>2021-06-16T14:24:25Z</time>
      </trkpt>
      <trkpt lat="36.741769" lon="-4.403009">
        <ele>132.130</ele>
        <time>2021-06-16T14:24:26Z</time>
      </trkpt>
      <trkpt lat="36.742063" lon="-4.403449">
        <ele>134.114</ele>
        <time>2021-06-16T14:24:28Z</time>
      </trkpt>
      <trkpt lat="36.742317" lon="-4.403835">
        <ele>136.073</ele>
        <time>2021-06-16T14:24:30Z</time>
      </trkpt>
      <trkpt lat="36.742602" lon="-4.404285">
        <ele>137.656</ele>
        <time>2021-06-16T14:24:32Z</time>
      </trkpt>
      <trkpt lat="36.742833" lon="-4.404675">
        <ele>139.993</ele>
        <time>2021-06-16T14:24:34Z</time>
      </trkpt>
      <trkpt lat="36.742961" lon="-4.404883">
        <ele>141.850</ele>
        <time>2021-06-16T14:24:35Z</time>
      </trkpt>
      <trkpt lat="36.743088" lon="-4.405092">
        <ele>143.190</ele>
        <time>2021-06-16T14:24:36Z</time>
      </trkpt>
      <trkpt lat="36.743234" lon="-4.405324">
        <ele>144.371</ele>
        <time>2021-06-16T14:24:37Z</time>
      </trkpt>
      <trkpt lat="36.743483" lon="-4.405683">
        <ele>145.141</ele>
        <time>2021-06-16T14:24:39Z</time>
      </trkpt>
      <trkpt lat="36.743623" lon="-4.405875">
        <ele>146.415</ele>
        <time>2021-06-16T14:24:40Z</time>
      </trkpt>
      <trkpt lat="36.743783" lon="-4.406082">
        <ele>147.208</ele>
        <time>2021-06-16T14:24:41Z</time>
      </trkpt>
      <trkpt lat="36.744055" lon="-4.406412">
        <ele>148.734</ele>
        <time>2021-06-16T14:24:43Z</time>
      </trkpt>
      <trkpt lat="36.744363" lon="-4.406766">
        <ele>150.112</ele>
        <time>2021-06-16T14:24:45Z</time>
      </trkpt>
      <trkpt lat="36.744541" lon="-4.406956">
        <ele>151.226</ele>
        <time>2021-06-16T14:24:46Z</time>
      </trkpt>
      <trkpt lat="36.744845" lon="-4.407234">
        <ele>152.985</ele>
        <time>2021-06-16T14:24:48Z</time>
      </trkpt>
      <trkpt lat="36.745016" lon="-4.407382">
        <ele>154.268</ele>
        <time>2021-06-16T14:24:49Z</time>
      </trkpt>
      <trkpt lat="36.74521" lon="-4.407544">
        <ele>155.715</ele>
        <time>2021-06-16T14:24:50Z</time>
      </trkpt>
      <trkpt lat="36.745536" lon="-4.407797">
        <ele>157.812</ele>
        <time>2021-06-16T14:24:52Z</time>
      </trkpt>
      <trkpt lat="36.745718" lon="-4.40793">
        <ele>159.392</ele>
        <time>2021-06-16T14:24:53Z</time>
      </trkpt>
      <trkpt lat="36.746108" lon="-4.408197">
        <ele>160.633</ele>
        <time>2021-06-16T14:24:55Z</time>
      </trkpt>
      <trkpt lat="36.746451" lon="-4.408426">
        <ele>162.123</ele>
        <time>2021-06-16T14:24:57Z</time>
      </trkpt>
      <trkpt lat="36.746646" lon="-4.408555">
        <ele>162.715</ele>
        <time>2021-06-16T14:24:58Z</time>
      </trkpt>
      <trkpt lat="36.746862" lon="-4.408701">
        <ele>163.408</ele>
        <time>2021-06-16T14:24:59Z</time>
      </trkpt>
      <trkpt lat="36.747213" lon="-4.408946">
        <ele>163.950</ele>
        <time>2021-06-16T14:25:01Z</time>
      </trkpt>
      <trkpt lat="36.747399" lon="-4.409086">
        <ele>163.988</ele>
        <time>2021-06-16T14:25:02Z</time>
      </trkpt>
      <trkpt lat="36.747764" lon="-4.409393">
        <ele>162.922</ele>
        <time>2021-06-16T14:25:04Z</time>
      </trkpt>
      <trkpt lat="36.747951" lon="-4.409559">
        <ele>162.391</ele>
        <time>2021-06-16T14:25:05Z</time>
      </trkpt>
      <trkpt lat="36.748334" lon="-4.409946">
        <ele>161.474</ele>
        <time>2021-06-16T14:25:07Z</time>
      </trkpt>
      <trkpt lat="36.748673" lon="-4.410284">
        <ele>159.021</ele>
        <time>2021-06-16T14:25:09Z</time>
      </trkpt>
      <trkpt lat="36.748841" lon="-4.410481">
        <ele>157.578</ele>
        <time>2021-06-16T14:25:10Z</time>
      </trkpt>
      <trkpt lat="36.749005" lon="-4.410681">
        <ele>155.458</ele>
        <time>2021-06-16T14:25:11Z</time>
      </trkpt>
      <trkpt lat="36.749319" lon="-4.411083">
        <ele>153.051</ele>
        <time>2021-06-16T14:25:13Z</time>
      </trkpt>
      <trkpt lat="36.749472" lon="-4.411294">
        <ele>151.401</ele>
        <time>2021-06-16T14:25:14Z</time>
      </trkpt>
      <trkpt lat="36.749753" lon="-4.411731">
        <ele>149.111</ele>
        <time>2021-06-16T14:25:16Z</time>
      </trkpt>
      <trkpt lat="36.749887" lon="-4.41195">
        <ele>147.108</ele>
        <time>2021-06-16T14:25:17Z</time>
      </trkpt>
      <trkpt lat="36.75002" lon="-4.412175">
        <ele>145.432</ele>
        <time>2021-06-16T14:25:18Z</time>
      </trkpt>
      <trkpt lat="36.75015" lon="-4.412401">
        <ele>143.520</ele>
        <time>2021-06-16T14:25:19Z</time>
      </trkpt>
      <trkpt lat="36.750278" lon="-4.41263">
        <ele>141.614</ele>
        <time>2021-06-16T14:25:20Z</time>
      </trkpt>
      <trkpt lat="36.750537" lon="-4.41308">
        <ele>138.583</ele>
        <time>2021-06-16T14:25:22Z</time>
      </trkpt>
      <trkpt lat="36.75068" lon="-4.41332">
        <ele>136.556</ele>
        <time>2021-06-16T14:25:23Z</time>
      </trkpt>
      <trkpt lat="36.750955" lon="-4.41372">
        <ele>134.113</ele>
        <time>2021-06-16T14:25:25Z</time>
      </trkpt>
      <trkpt lat="36.751257" lon="-4.4141">
        <ele>132.610</ele>
        <time>2021-06-16T14:25:27Z</time>
      </trkpt>
      <trkpt lat="36.751417" lon="-4.414279">
        <ele>131.420</ele>
        <time>2021-06-16T14:25:28Z</time>
      </trkpt>
      <trkpt lat="36.751765" lon="-4.414589">
        <ele>129.463</ele>
        <time>2021-06-16T14:25:30Z</time>
      </trkpt>
      <trkpt lat="36.751974" lon="-4.414749">
        <ele>127.844</ele>
        <time>2021-06-16T14:25:31Z</time>
      </trkpt>
      <trkpt lat="36.752325" lon="-4.414987">
        <ele>125.218</ele>
        <time>2021-06-16T14:25:33Z</time>
      </trkpt>
      <trkpt lat="36.752525" lon="-4.415112">
        <ele>123.008</ele>
        <time>2021-06-16T14:25:34Z</time>
      </trkpt>
      <trkpt lat="36.752927" lon="-4.415335">
        <ele>121.183</ele>
        <time>2021-06-16T14:25:36Z</time>
      </trkpt>
      <trkpt lat="36.753131" lon="-4.415436">
        <ele>119.471</ele>
        <time>2021-06-16T14:25:37Z</time>
      </trkpt>
      <trkpt lat="36.753572" lon="-4.415638">
        <ele>117.435</ele>
        <time>2021-06-16T14:25:39Z</time>
      </trkpt>
      <trkpt lat="36.75395" lon="-4.415805">
        <ele>115.224</ele>
        <time>2021-06-16T14:25:41Z</time>
      </trkpt>
      <trkpt lat="36.754365" lon="-4.416006">
        <ele>112.587</ele>
        <time>2021-06-16T14:25:43Z</time>
      </trkpt>
      <trkpt lat="36.754561" lon="-4.416122">
        <ele>110.234</ele>
        <time>2021-06-16T14:25:44Z</time>
      </trkpt>
      <trkpt lat="36.754751" lon="-4.416248">
        <ele>108.251</ele>
        <time>2021-06-16T14:25:45Z</time>
      </trkpt>
      <trkpt lat="36.755135" lon="-4.41655">
        <ele>105.911</ele>
        <time>2021-06-16T14:25:47Z</time>
      </trkpt>
      <trkpt lat="36.755442" lon="-4.416877">
        <ele>103.133</ele>
        <time>2021-06-16T14:25:49Z</time>
      </trkpt>
      <trkpt lat="36.7556" lon="-4.417074">
        <ele>100.523</ele>
        <time>2021-06-16T14:25:50Z</time>
      </trkpt>
      <trkpt lat="36.75575" lon="-4.417281">
        <ele>98.915</ele>
        <time>2021-06-16T14:25:51Z</time>
      </trkpt>
      <trkpt lat="36.756015" lon="-4.417725">
        <ele>96.808</ele>
        <time>2021-06-16T14:25:53Z</time>
      </trkpt>
      <trkpt lat="36.756129" lon="-4.417961">
        <ele>94.750</ele>
        <time>2021-06-16T14:25:54Z</time>
      </trkpt>
      <trkpt lat="36.756246" lon="-4.418232">
        <ele>93.068</ele>
        <time>2021-06-16T14:25:55Z</time>
      </trkpt>
      <trkpt lat="36.756404" lon="-4.418701">
        <ele>90.752</ele>
        <time>2021-06-16T14:25:57Z</time>
      </trkpt>
      <trkpt lat="36.756473" lon="-4.418971">
        <ele>88.851</ele>
        <time>2021-06-16T14:25:58Z</time>
      </trkpt>
      <trkpt lat="36.756575" lon="-4.419516">
        <ele>86.784</ele>
        <time>2021-06-16T14:26:00Z</time>
      </trkpt>
      <trkpt lat="36.756603" lon="-4.4198">
        <ele>85.281</ele>
        <time>2021-06-16T14:26:01Z</time>
      </trkpt>
      <trkpt lat="36.756641" lon="-4.420405">
        <ele>83.448</ele>
        <time>2021-06-16T14:26:03Z</time>
      </trkpt>
      <trkpt lat="36.756698" lon="-4.420909">
        <ele>81.278</ele>
        <time>2021-06-16T14:26:05Z</time>
      </trkpt>
      <trkpt lat="36.756748" lon="-4.42118">
        <ele>78.926</ele>
        <time>2021-06-16T14:26:06Z</time>
      </trkpt>
      <trkpt lat="36.75681" lon="-4.421445">
        <ele>77.247</ele>
        <time>2021-06-16T14:26:07Z</time>
      </trkpt>
      <trkpt lat="36.756925" lon="-4.421967">
        <ele>76.211</ele>
        <time>2021-06-16T14:26:09Z</time>
      </trkpt>
      <trkpt lat="36.756818" lon="-4.427475">
        <ele>72.208</ele>
        <time>2021-06-16T14:26:31Z</time>
      </trkpt>
      <trkpt lat="36.7567" lon="-4.427675">
        <ele>68.299</ele>
        <time>2021-06-16T14:26:32Z</time>
      </trkpt>
      <trkpt lat="36.756443" lon="-4.428031">
        <ele>64.247</ele>
        <time>2021-06-16T14:26:34Z</time>
      </trkpt>
      <trkpt lat="36.756309" lon="-4.428191">
        <ele>60.211</ele>
        <time>2021-06-16T14:26:35Z</time>
      </trkpt>
      <trkpt lat="36.756154" lon="-4.428366">
        <ele>57.890</ele>
        <time>2021-06-16T14:26:36Z</time>
      </trkpt>
      <trkpt lat="36.755886" lon="-4.42863">
        <ele>57.173</ele>
        <time>2021-06-16T14:26:38Z</time>
      </trkpt>
      <trkpt lat="36.755736" lon="-4.428772">
        <ele>56.490</ele>
        <time>2021-06-16T14:26:39Z</time>
      </trkpt>
      <trkpt lat="36.755411" lon="-4.429044">
        <ele>56.487</ele>
        <time>2021-06-16T14:26:41Z</time>
      </trkpt>
      <trkpt lat="36.755244" lon="-4.429175">
        <ele>56.427</ele>
        <time>2021-06-16T14:26:42Z</time>
      </trkpt>
      <trkpt lat="36.755071" lon="-4.429305">
        <ele>56.797</ele>
        <time>2021-06-16T14:26:43Z</time>
      </trkpt>
      <trkpt lat="36.754891" lon="-4.42943">
        <ele>57.023</ele>
        <time>2021-06-16T14:26:44Z</time>
      </trkpt>
      <trkpt lat="36.75452" lon="-4.429669">
        <ele>57.825</ele>
        <time>2021-06-16T14:26:46Z</time>
      </trkpt>
      <trkpt lat="36.75433" lon="-4.429779">
        <ele>58.108</ele>
        <time>2021-06-16T14:26:47Z</time>
      </trkpt>
      <trkpt lat="36.754114" lon="-4.4299">
        <ele>58.676</ele>
        <time>2021-06-16T14:26:48Z</time>
      </trkpt>
      <trkpt lat="36.753764" lon="-4.430103">
        <ele>59.044</ele>
        <time>2021-06-16T14:26:50Z</time>
      </trkpt>
      <trkpt lat="36.753573" lon="-4.430217">
        <ele>59.238</ele>
        <time>2021-06-16T14:26:51Z</time>
      </trkpt>
      <trkpt lat="36.753359" lon="-4.430346">
        <ele>59.687</ele>
        <time>2021-06-16T14:26:52Z</time>
      </trkpt>
      <trkpt lat="36.75301" lon="-4.430551">
        <ele>60.560</ele>
        <time>2021-06-16T14:26:54Z</time>
      </trkpt>
      <trkpt lat="36.752815" lon="-4.430662">
        <ele>61.217</ele>
        <time>2021-06-16T14:26:55Z</time>
      </trkpt>
      <trkpt lat="36.75262" lon="-4.43077">
        <ele>62.264</ele>
        <time>2021-06-16T14:26:56Z</time>
      </trkpt>
      <trkpt lat="36.752403" lon="-4.430892">
        <ele>62.964</ele>
        <time>2021-06-16T14:26:57Z</time>
      </trkpt>
      <trkpt lat="36.752052" lon="-4.431096">
        <ele>64.449</ele>
        <time>2021-06-16T14:26:59Z</time>
      </trkpt>
      <trkpt lat="36.751858" lon="-4.431205">
        <ele>65.502</ele>
        <time>2021-06-16T14:27:00Z</time>
      </trkpt>
      <trkpt lat="36.751641" lon="-4.431325">
        <ele>66.822</ele>
        <time>2021-06-16T14:27:01Z</time>
      </trkpt>
      <trkpt lat="36.751293" lon="-4.431519">
        <ele>68.108</ele>
        <time>2021-06-16T14:27:03Z</time>
      </trkpt>
      <trkpt lat="36.751105" lon="-4.431627">
        <ele>69.451</ele>
        <time>2021-06-16T14:27:04Z</time>
      </trkpt>
      <trkpt lat="36.750747" lon="-4.431844">
        <ele>71.399</ele>
        <time>2021-06-16T14:27:06Z</time>
      </trkpt>
      <trkpt lat="36.750575" lon="-4.431958">
        <ele>73.143</ele>
        <time>2021-06-16T14:27:07Z</time>
      </trkpt>
      <trkpt lat="36.750404" lon="-4.432071">
        <ele>74.542</ele>
        <time>2021-06-16T14:27:08Z</time>
      </trkpt>
      <trkpt lat="36.750216" lon="-4.432205">
        <ele>76.215</ele>
        <time>2021-06-16T14:27:09Z</time>
      </trkpt>
      <trkpt lat="36.749921" lon="-4.432455">
        <ele>78.042</ele>
        <time>2021-06-16T14:27:11Z</time>
      </trkpt>
      <trkpt lat="36.749602" lon="-4.432741">
        <ele>80.039</ele>
        <time>2021-06-16T14:27:13Z</time>
      </trkpt>
      <trkpt lat="36.749302" lon="-4.433021">
        <ele>82.679</ele>
        <time>2021-06-16T14:27:15Z</time>
      </trkpt>
      <trkpt lat="36.749153" lon="-4.433172">
        <ele>84.722</ele>
        <time>2021-06-16T14:27:16Z</time>
      </trkpt>
      <trkpt lat="36.748991" lon="-4.433354">
        <ele>86.562</ele>
        <time>2021-06-16T14:27:17Z</time>
      </trkpt>
      <trkpt lat="36.748743" lon="-4.43367">
        <ele>88.708</ele>
        <time>2021-06-16T14:27:19Z</time>
      </trkpt>
      <trkpt lat="36.748477" lon="-4.43404">
        <ele>90.908</ele>
        <time>2021-06-16T14:27:21Z</time>
      </trkpt>
      <trkpt lat="36.748232" lon="-4.434424">
        <ele>93.039</ele>
        <time>2021-06-16T14:27:23Z</time>
      </trkpt>
      <trkpt lat="36.748118" lon="-4.434629">
        <ele>95.157</ele>
        <time>2021-06-16T14:27:24Z</time>
      </trkpt>
      <trkpt lat="36.748009" lon="-4.434839">
        <ele>96.851</ele>
        <time>2021-06-16T14:27:25Z</time>
      </trkpt>
      <trkpt lat="36.74781" lon="-4.435274">
        <ele>98.710</ele>
        <time>2021-06-16T14:27:27Z</time>
      </trkpt>
      <trkpt lat="36.747636" lon="-4.435733">
        <ele>100.083</ele>
        <time>2021-06-16T14:27:29Z</time>
      </trkpt>
      <trkpt lat="36.747546" lon="-4.435996">
        <ele>101.560</ele>
        <time>2021-06-16T14:27:30Z</time>
      </trkpt>
      <trkpt lat="36.74742" lon="-4.436436">
        <ele>103.247</ele>
        <time>2021-06-16T14:27:32Z</time>
      </trkpt>
      <trkpt lat="36.747358" lon="-4.436684">
        <ele>104.417</ele>
        <time>2021-06-16T14:27:33Z</time>
      </trkpt>
      <trkpt lat="36.747296" lon="-4.436962">
        <ele>105.334</ele>
        <time>2021-06-16T14:27:34Z</time>
      </trkpt>
      <trkpt lat="36.747218" lon="-4.437424">
        <ele>107.055</ele>
        <time>2021-06-16T14:27:36Z</time>
      </trkpt>
      <trkpt lat="36.747166" lon="-4.437942">
        <ele>108.210</ele>
        <time>2021-06-16T14:27:38Z</time>
      </trkpt>
      <trkpt lat="36.74713" lon="-4.438422">
        <ele>109.608</ele>
        <time>2021-06-16T14:27:40Z</time>
      </trkpt>
      <trkpt lat="36.747108" lon="-4.438673">
        <ele>111.010</ele>
        <time>2021-06-16T14:27:41Z</time>
      </trkpt>
      <trkpt lat="36.747081" lon="-4.438955">
        <ele>112.278</ele>
        <time>2021-06-16T14:27:42Z</time>
      </trkpt>
      <trkpt lat="36.747028" lon="-4.439413">
        <ele>114.042</ele>
        <time>2021-06-16T14:27:44Z</time>
      </trkpt>
      <trkpt lat="36.746939" lon="-4.439912">
        <ele>115.521</ele>
        <time>2021-06-16T14:27:46Z</time>
      </trkpt>
      <trkpt lat="36.74688" lon="-4.440191">
        <ele>116.694</ele>
        <time>2021-06-16T14:27:47Z</time>
      </trkpt>
      <trkpt lat="36.746758" lon="-4.440635">
        <ele>117.471</ele>
        <time>2021-06-16T14:27:49Z</time>
      </trkpt>
      <trkpt lat="36.746674" lon="-4.440877">
        <ele>118.318</ele>
        <time>2021-06-16T14:27:50Z</time>
      </trkpt>
      <trkpt lat="36.746575" lon="-4.441142">
        <ele>118.938</ele>
        <time>2021-06-16T14:27:51Z</time>
      </trkpt>
      <trkpt lat="36.74639" lon="-4.441554">
        <ele>119.978</ele>
        <time>2021-06-16T14:27:53Z</time>
      </trkpt>
      <trkpt lat="36.746275" lon="-4.441767">
        <ele>120.533</ele>
        <time>2021-06-16T14:27:54Z</time>
      </trkpt>
      <trkpt lat="36.746144" lon="-4.441988">
        <ele>120.726</ele>
        <time>2021-06-16T14:27:55Z</time>
      </trkpt>
      <trkpt lat="36.745884" lon="-4.442354">
        <ele>121.808</ele>
        <time>2021-06-16T14:27:57Z</time>
      </trkpt>
      <trkpt lat="36.745738" lon="-4.442542">
        <ele>122.314</ele>
        <time>2021-06-16T14:27:58Z</time>
      </trkpt>
      <trkpt lat="36.745565" lon="-4.442744">
        <ele>122.632</ele>
        <time>2021-06-16T14:27:59Z</time>
      </trkpt>
      <trkpt lat="36.745261" lon="-4.443073">
        <ele>123.156</ele>
        <time>2021-06-16T14:28:01Z</time>
      </trkpt>
      <trkpt lat="36.745086" lon="-4.443246">
        <ele>123.135</ele>
        <time>2021-06-16T14:28:02Z</time>
      </trkpt>
      <trkpt lat="36.744697" lon="-4.443531">
        <ele>123.368</ele>
        <time>2021-06-16T14:28:04Z</time>
      </trkpt>
      <trkpt lat="36.744349" lon="-4.443746">
        <ele>122.985</ele>
        <time>2021-06-16T14:28:06Z</time>
      </trkpt>
      <trkpt lat="36.743938" lon="-4.444005">
        <ele>123.482</ele>
        <time>2021-06-16T14:28:08Z</time>
      </trkpt>
      <trkpt lat="36.743575" lon="-4.444215">
        <ele>123.822</ele>
        <time>2021-06-16T14:28:10Z</time>
      </trkpt>
      <trkpt lat="36.743375" lon="-4.44433">
        <ele>124.624</ele>
        <time>2021-06-16T14:28:11Z</time>
      </trkpt>
      <trkpt lat="36.743175" lon="-4.444451">
        <ele>124.604</ele>
        <time>2021-06-16T14:28:12Z</time>
      </trkpt>
      <trkpt lat="36.742812" lon="-4.444717">
        <ele>125.114</ele>
        <time>2021-06-16T14:28:14Z</time>
      </trkpt>
      <trkpt lat="36.742466" lon="-4.445032">
        <ele>125.508</ele>
        <time>2021-06-16T14:28:16Z</time>
      </trkpt>
      <trkpt lat="36.742148" lon="-4.445388">
        <ele>126.029</ele>
        <time>2021-06-16T14:28:18Z</time>
      </trkpt>
      <trkpt lat="36.741998" lon="-4.445582">
        <ele>126.317</ele>
        <time>2021-06-16T14:28:19Z</time>
      </trkpt>
      <trkpt lat="36.7417" lon="-4.446018">
        <ele>126.461</ele>
        <time>2021-06-16T14:28:21Z</time>
      </trkpt>
      <trkpt lat="36.741465" lon="-4.446423">
        <ele>126.430</ele>
        <time>2021-06-16T14:28:23Z</time>
      </trkpt>
      <trkpt lat="36.741344" lon="-4.446651">
        <ele>126.363</ele>
        <time>2021-06-16T14:28:24Z</time>
      </trkpt>
      <trkpt lat="36.741218" lon="-4.446911">
        <ele>126.630</ele>
        <time>2021-06-16T14:28:25Z</time>
      </trkpt>
      <trkpt lat="36.741038" lon="-4.447359">
        <ele>127.247</ele>
        <time>2021-06-16T14:28:27Z</time>
      </trkpt>
      <trkpt lat="36.740867" lon="-4.447858">
        <ele>127.877</ele>
        <time>2021-06-16T14:28:29Z</time>
      </trkpt>
      <trkpt lat="36.740719" lon="-4.448353">
        <ele>127.685</ele>
        <time>2021-06-16T14:28:31Z</time>
      </trkpt>
      <trkpt lat="36.740649" lon="-4.4486">
        <ele>127.489</ele>
        <time>2021-06-16T14:28:32Z</time>
      </trkpt>
      <trkpt lat="36.740569" lon="-4.448875">
        <ele>127.317</ele>
        <time>2021-06-16T14:28:33Z</time>
      </trkpt>
      <trkpt lat="36.740451" lon="-4.449326">
        <ele>127.308</ele>
        <time>2021-06-16T14:28:35Z</time>
      </trkpt>
      <trkpt lat="36.740389" lon="-4.449576">
        <ele>126.945</ele>
        <time>2021-06-16T14:28:36Z</time>
      </trkpt>
      <trkpt lat="36.740324" lon="-4.449837">
        <ele>127.093</ele>
        <time>2021-06-16T14:28:37Z</time>
      </trkpt>
      <trkpt lat="36.740204" lon="-4.450308">
        <ele>126.927</ele>
        <time>2021-06-16T14:28:39Z</time>
      </trkpt>
      <trkpt lat="36.740061" lon="-4.450822">
        <ele>126.976</ele>
        <time>2021-06-16T14:28:41Z</time>
      </trkpt>
      <trkpt lat="36.739928" lon="-4.451258">
        <ele>126.529</ele>
        <time>2021-06-16T14:28:43Z</time>
      </trkpt>
      <trkpt lat="36.739758" lon="-4.451728">
        <ele>125.926</ele>
        <time>2021-06-16T14:28:45Z</time>
      </trkpt>
      <trkpt lat="36.73965" lon="-4.451984">
        <ele>125.413</ele>
        <time>2021-06-16T14:28:46Z</time>
      </trkpt>
      <trkpt lat="36.739451" lon="-4.45239">
        <ele>124.833</ele>
        <time>2021-06-16T14:28:48Z</time>
      </trkpt>
      <trkpt lat="36.739321" lon="-4.452602">
        <ele>124.666</ele>
        <time>2021-06-16T14:28:49Z</time>
      </trkpt>
      <trkpt lat="36.739163" lon="-4.452828">
        <ele>124.329</ele>
        <time>2021-06-16T14:28:50Z</time>
      </trkpt>
      <trkpt lat="36.738872" lon="-4.453169">
        <ele>124.421</ele>
        <time>2021-06-16T14:28:52Z</time>
      </trkpt>
      <trkpt lat="36.738701" lon="-4.453341">
        <ele>124.608</ele>
        <time>2021-06-16T14:28:53Z</time>
      </trkpt>
      <trkpt lat="36.738331" lon="-4.453664">
        <ele>124.853</ele>
        <time>2021-06-16T14:28:55Z</time>
      </trkpt>
      <trkpt lat="36.738" lon="-4.453885">
        <ele>124.511</ele>
        <time>2021-06-16T14:28:57Z</time>
      </trkpt>
      <trkpt lat="36.737815" lon="-4.453992">
        <ele>124.675</ele>
        <time>2021-06-16T14:28:58Z</time>
      </trkpt>
      <trkpt lat="36.737606" lon="-4.454093">
        <ele>125.144</ele>
        <time>2021-06-16T14:28:59Z</time>
      </trkpt>
      <trkpt lat="36.737249" lon="-4.454209">
        <ele>124.737</ele>
        <time>2021-06-16T14:29:01Z</time>
      </trkpt>
      <trkpt lat="36.73705" lon="-4.454256">
        <ele>124.314</ele>
        <time>2021-06-16T14:29:02Z</time>
      </trkpt>
      <trkpt lat="36.736843" lon="-4.454293">
        <ele>124.311</ele>
        <time>2021-06-16T14:29:03Z</time>
      </trkpt>
      <trkpt lat="36.736451" lon="-4.454324">
        <ele>124.471</ele>
        <time>2021-06-16T14:29:05Z</time>
      </trkpt>
      <trkpt lat="36.736252" lon="-4.45432">
        <ele>124.181</ele>
        <time>2021-06-16T14:29:06Z</time>
      </trkpt>
      <trkpt lat="36.736034" lon="-4.454304">
        <ele>123.861</ele>
        <time>2021-06-16T14:29:07Z</time>
      </trkpt>
      <trkpt lat="36.73568" lon="-4.454235">
        <ele>123.717</ele>
        <time>2021-06-16T14:29:09Z</time>
      </trkpt>
      <trkpt lat="36.735488" lon="-4.454185">
        <ele>123.308</ele>
        <time>2021-06-16T14:29:10Z</time>
      </trkpt>
      <trkpt lat="36.735105" lon="-4.454082">
        <ele>123.055</ele>
        <time>2021-06-16T14:29:12Z</time>
      </trkpt>
      <trkpt lat="36.734912" lon="-4.45403">
        <ele>122.493</ele>
        <time>2021-06-16T14:29:13Z</time>
      </trkpt>
      <trkpt lat="36.734717" lon="-4.453982">
        <ele>121.647</ele>
        <time>2021-06-16T14:29:14Z</time>
      </trkpt>
      <trkpt lat="36.734331" lon="-4.453926">
        <ele>121.016</ele>
        <time>2021-06-16T14:29:16Z</time>
      </trkpt>
      <trkpt lat="36.733937" lon="-4.45391">
        <ele>119.869</ele>
        <time>2021-06-16T14:29:18Z</time>
      </trkpt>
      <trkpt lat="36.733739" lon="-4.453921">
        <ele>119.216</ele>
        <time>2021-06-16T14:29:19Z</time>
      </trkpt>
      <trkpt lat="36.733517" lon="-4.453942">
        <ele>118.723</ele>
        <time>2021-06-16T14:29:20Z</time>
      </trkpt>
      <trkpt lat="36.733155" lon="-4.454">
        <ele>118.093</ele>
        <time>2021-06-16T14:29:22Z</time>
      </trkpt>
      <trkpt lat="36.732737" lon="-4.454084">
        <ele>116.753</ele>
        <time>2021-06-16T14:29:24Z</time>
      </trkpt>
      <trkpt lat="36.73238" lon="-4.454153">
        <ele>115.504</ele>
        <time>2021-06-16T14:29:26Z</time>
      </trkpt>
      <trkpt lat="36.732183" lon="-4.454189">
        <ele>114.014</ele>
        <time>2021-06-16T14:29:27Z</time>
      </trkpt>
      <trkpt lat="36.731771" lon="-4.454262">
        <ele>112.708</ele>
        <time>2021-06-16T14:29:29Z</time>
      </trkpt>
      <trkpt lat="36.731421" lon="-4.454321">
        <ele>111.252</ele>
        <time>2021-06-16T14:29:31Z</time>
      </trkpt>
      <trkpt lat="36.731228" lon="-4.454355">
        <ele>109.540</ele>
        <time>2021-06-16T14:29:32Z</time>
      </trkpt>
      <trkpt lat="36.731012" lon="-4.454387">
        <ele>108.254</ele>
        <time>2021-06-16T14:29:33Z</time>
      </trkpt>
      <trkpt lat="36.730662" lon="-4.454416">
        <ele>106.873</ele>
        <time>2021-06-16T14:29:35Z</time>
      </trkpt>
      <trkpt lat="36.730467" lon="-4.454424">
        <ele>105.726</ele>
        <time>2021-06-16T14:29:36Z</time>
      </trkpt>
      <trkpt lat="36.73025" lon="-4.454423">
        <ele>104.643</ele>
        <time>2021-06-16T14:29:37Z</time>
      </trkpt>
      <trkpt lat="36.729898" lon="-4.454386">
        <ele>103.170</ele>
        <time>2021-06-16T14:29:39Z</time>
      </trkpt>
      <trkpt lat="36.729708" lon="-4.454362">
        <ele>101.520</ele>
        <time>2021-06-16T14:29:40Z</time>
      </trkpt>
      <trkpt lat="36.729522" lon="-4.454338">
        <ele>100.151</ele>
        <time>2021-06-16T14:29:41Z</time>
      </trkpt>
      <trkpt lat="36.729336" lon="-4.454316">
        <ele>98.701</ele>
        <time>2021-06-16T14:29:42Z</time>
      </trkpt>
      <trkpt lat="36.72897" lon="-4.454235">
        <ele>96.511</ele>
        <time>2021-06-16T14:29:44Z</time>
      </trkpt>
      <trkpt lat="36.728789" lon="-4.45418">
        <ele>94.508</ele>
        <time>2021-06-16T14:29:45Z</time>
      </trkpt>
      <trkpt lat="36.728592" lon="-4.45412">
        <ele>93.542</ele>
        <time>2021-06-16T14:29:46Z</time>
      </trkpt>
      <trkpt lat="36.728269" lon="-4.454018">
        <ele>92.350</ele>
        <time>2021-06-16T14:29:48Z</time>
      </trkpt>
      <trkpt lat="36.727892" lon="-4.453883">
        <ele>90.534</ele>
        <time>2021-06-16T14:29:50Z</time>
      </trkpt>
      <trkpt lat="36.72756" lon="-4.453775">
        <ele>87.963</ele>
        <time>2021-06-16T14:29:52Z</time>
      </trkpt>
      <trkpt lat="36.727186" lon="-4.453702">
        <ele>85.786</ele>
        <time>2021-06-16T14:29:54Z</time>
      </trkpt>
      <trkpt lat="36.726971" lon="-4.453675">
        <ele>83.993</ele>
        <time>2021-06-16T14:29:55Z</time>
      </trkpt>
      <trkpt lat="36.72663" lon="-4.453701">
        <ele>81.620</ele>
        <time>2021-06-16T14:29:57Z</time>
      </trkpt>
      <trkpt lat="36.726448" lon="-4.45373">
        <ele>79.860</ele>
        <time>2021-06-16T14:29:58Z</time>
      </trkpt>
      <trkpt lat="36.726249" lon="-4.453772">
        <ele>78.559</ele>
        <time>2021-06-16T14:29:59Z</time>
      </trkpt>
      <trkpt lat="36.725945" lon="-4.453906">
        <ele>76.203</ele>
        <time>2021-06-16T14:30:01Z</time>
      </trkpt>
      <trkpt lat="36.725785" lon="-4.454009">
        <ele>74.123</ele>
        <time>2021-06-16T14:30:02Z</time>
      </trkpt>
      <trkpt lat="36.725507" lon="-4.454288">
        <ele>71.808</ele>
        <time>2021-06-16T14:30:04Z</time>
      </trkpt>
      <trkpt lat="36.725385" lon="-4.454449">
        <ele>70.142</ele>
        <time>2021-06-16T14:30:05Z</time>
      </trkpt>
      <trkpt lat="36.725199" lon="-4.454803">
        <ele>69.370</ele>
        <time>2021-06-16T14:30:07Z</time>
      </trkpt>
      <trkpt lat="36.72512" lon="-4.455005">
        <ele>68.864</ele>
        <time>2021-06-16T14:30:08Z</time>
      </trkpt>
      <trkpt lat="36.725013" lon="-4.455325">
        <ele>68.723</ele>
        <time>2021-06-16T14:30:10Z</time>
      </trkpt>
      <trkpt lat="36.724892" lon="-4.45567">
        <ele>68.326</ele>
        <time>2021-06-16T14:30:12Z</time>
      </trkpt>
      <trkpt lat="36.724785" lon="-4.455965">
        <ele>68.173</ele>
        <time>2021-06-16T14:30:14Z</time>
      </trkpt>
      <trkpt lat="36.72473" lon="-4.456097">
        <ele>68.140</ele>
        <time>2021-06-16T14:30:15Z</time>
      </trkpt>
      <trkpt lat="36.72463" lon="-4.456326">
        <ele>68.720</ele>
        <time>2021-06-16T14:30:17Z</time>
      </trkpt>
      <trkpt lat="36.724583" lon="-4.456399">
        <ele>68.433</ele>
        <time>2021-06-16T14:30:18Z</time>
      </trkpt>
      <trkpt lat="36.724533" lon="-4.456433">
        <ele>68.223</ele>
        <time>2021-06-16T14:30:19Z</time>
      </trkpt>
      <trkpt lat="36.724482" lon="-4.456436">
        <ele>68.315</ele>
        <time>2021-06-16T14:30:20Z</time>
      </trkpt>
      <trkpt lat="36.724439" lon="-4.45638">
        <ele>68.008</ele>
        <time>2021-06-16T14:30:22Z</time>
      </trkpt>
      <trkpt lat="36.72441" lon="-4.456315">
        <ele>68.250</ele>
        <time>2021-06-16T14:30:24Z</time>
      </trkpt>
      <trkpt lat="36.724388" lon="-4.456251">
        <ele>67.918</ele>
        <time>2021-06-16T14:30:26Z</time>
      </trkpt>
      <trkpt lat="36.72435" lon="-4.456156">
        <ele>64.882</ele>
        <time>2021-06-16T14:30:28Z</time>
      </trkpt>
      <trkpt lat="36.72432" lon="-4.456082">
        <ele>62.931</ele>
        <time>2021-06-16T14:30:30Z</time>
      </trkpt>
      <trkpt lat="36.72429" lon="-4.456001">
        <ele>61.884</ele>
        <time>2021-06-16T14:30:32Z</time>
      </trkpt>
      <trkpt lat="36.724272" lon="-4.455948">
        <ele>61.141</ele>
        <time>2021-06-16T14:30:35Z</time>
      </trkpt>
      <trkpt lat="36.724251" lon="-4.455876">
        <ele>60.688</ele>
        <time>2021-06-16T14:30:41Z</time>
      </trkpt>
      <trkpt lat="36.724225" lon="-4.455815">
        <ele>60.348</ele>
        <time>2021-06-16T14:30:44Z</time>
      </trkpt>
      <trkpt lat="36.724195" lon="-4.455742">
        <ele>60.156</ele>
        <time>2021-06-16T14:30:47Z</time>
      </trkpt>
      <trkpt lat="36.724174" lon="-4.455692">
        <ele>60.059</ele>
        <time>2021-06-16T14:30:49Z</time>
      </trkpt>
      <trkpt lat="36.724158" lon="-4.455635">
        <ele>60.014</ele>
        <time>2021-06-16T14:30:54Z</time>
      </trkpt>
      <trkpt lat="36.724125" lon="-4.455551">
        <ele>60.008</ele>
        <time>2021-06-16T14:30:56Z</time>
      </trkpt>
      <trkpt lat="36.724071" lon="-4.455435">
        <ele>60.032</ele>
        <time>2021-06-16T14:30:58Z</time>
      </trkpt>
      <trkpt lat="36.724035" lon="-4.455365">
        <ele>60.090</ele>
        <time>2021-06-16T14:30:59Z</time>
      </trkpt>
      <trkpt lat="36.723944" lon="-4.455219">
        <ele>60.054</ele>
        <time>2021-06-16T14:31:01Z</time>
      </trkpt>
      <trkpt lat="36.723893" lon="-4.45513">
        <ele>60.093</ele>
        <time>2021-06-16T14:31:02Z</time>
      </trkpt>
      <trkpt lat="36.723818" lon="-4.454963">
        <ele>60.086</ele>
        <time>2021-06-16T14:31:04Z</time>
      </trkpt>
      <trkpt lat="36.723749" lon="-4.454753">
        <ele>60.053</ele>
        <time>2021-06-16T14:31:06Z</time>
      </trkpt>
      <trkpt lat="36.72369" lon="-4.454561">
        <ele>60.010</ele>
        <time>2021-06-16T14:31:08Z</time>
      </trkpt>
      <trkpt lat="36.723652" lon="-4.454452">
        <ele>60.060</ele>
        <time>2021-06-16T14:31:09Z</time>
      </trkpt>
      <trkpt lat="36.723606" lon="-4.454327">
        <ele>60.067</ele>
        <time>2021-06-16T14:31:10Z</time>
      </trkpt>
      <trkpt lat="36.723529" lon="-4.454113">
        <ele>60.081</ele>
        <time>2021-06-16T14:31:12Z</time>
      </trkpt>
      <trkpt lat="36.723485" lon="-4.45399">
        <ele>60.019</ele>
        <time>2021-06-16T14:31:13Z</time>
      </trkpt>
      <trkpt lat="36.723439" lon="-4.453869">
        <ele>60.008</ele>
        <time>2021-06-16T14:31:14Z</time>
      </trkpt>
      <trkpt lat="36.723394" lon="-4.453751">
        <ele>60.043</ele>
        <time>2021-06-16T14:31:15Z</time>
      </trkpt>
      <trkpt lat="36.723305" lon="-4.453513">
        <ele>60.031</ele>
        <time>2021-06-16T14:31:17Z</time>
      </trkpt>
      <trkpt lat="36.723262" lon="-4.453395">
        <ele>60.045</ele>
        <time>2021-06-16T14:31:18Z</time>
      </trkpt>
      <trkpt lat="36.723216" lon="-4.45326">
        <ele>60.074</ele>
        <time>2021-06-16T14:31:19Z</time>
      </trkpt>
      <trkpt lat="36.723147" lon="-4.453035">
        <ele>60.037</ele>
        <time>2021-06-16T14:31:21Z</time>
      </trkpt>
      <trkpt lat="36.723112" lon="-4.452909">
        <ele>60.084</ele>
        <time>2021-06-16T14:31:22Z</time>
      </trkpt>
      <trkpt lat="36.723077" lon="-4.452779">
        <ele>60.021</ele>
        <time>2021-06-16T14:31:23Z</time>
      </trkpt>
      <trkpt lat="36.72302" lon="-4.45254">
        <ele>60.041</ele>
        <time>2021-06-16T14:31:25Z</time>
      </trkpt>
      <trkpt lat="36.722966" lon="-4.45228">
        <ele>60.048</ele>
        <time>2021-06-16T14:31:27Z</time>
      </trkpt>
      <trkpt lat="36.722931" lon="-4.452067">
        <ele>60.061</ele>
        <time>2021-06-16T14:31:29Z</time>
      </trkpt>
      <trkpt lat="36.722913" lon="-4.45195">
        <ele>60.017</ele>
        <time>2021-06-16T14:31:30Z</time>
      </trkpt>
      <trkpt lat="36.722896" lon="-4.451837">
        <ele>60.008</ele>
        <time>2021-06-16T14:31:31Z</time>
      </trkpt>
      <trkpt lat="36.722876" lon="-4.451714">
        <ele>60.051</ele>
        <time>2021-06-16T14:31:32Z</time>
      </trkpt>
      <trkpt lat="36.722835" lon="-4.451494">
        <ele>60.069</ele>
        <time>2021-06-16T14:31:34Z</time>
      </trkpt>
      <trkpt lat="36.722816" lon="-4.451367">
        <ele>60.023</ele>
        <time>2021-06-16T14:31:35Z</time>
      </trkpt>
      <trkpt lat="36.722794" lon="-4.451226">
        <ele>60.062</ele>
        <time>2021-06-16T14:31:36Z</time>
      </trkpt>
      <trkpt lat="36.722766" lon="-4.450997">
        <ele>56.525</ele>
        <time>2021-06-16T14:31:38Z</time>
      </trkpt>
      <trkpt lat="36.72275" lon="-4.450874">
        <ele>54.432</ele>
        <time>2021-06-16T14:31:39Z</time>
      </trkpt>
      <trkpt lat="36.722716" lon="-4.450635">
        <ele>52.849</ele>
        <time>2021-06-16T14:31:41Z</time>
      </trkpt>
      <trkpt lat="36.722677" lon="-4.450411">
        <ele>51.349</ele>
        <time>2021-06-16T14:31:43Z</time>
      </trkpt>
      <trkpt lat="36.722643" lon="-4.450212">
        <ele>50.727</ele>
        <time>2021-06-16T14:31:45Z</time>
      </trkpt>
      <trkpt lat="36.722627" lon="-4.45012">
        <ele>50.268</ele>
        <time>2021-06-16T14:31:46Z</time>
      </trkpt>
      <trkpt lat="36.722611" lon="-4.45003">
        <ele>49.814</ele>
        <time>2021-06-16T14:31:47Z</time>
      </trkpt>
      <trkpt lat="36.722597" lon="-4.449938">
        <ele>49.708</ele>
        <time>2021-06-16T14:31:48Z</time>
      </trkpt>
      <trkpt lat="36.722581" lon="-4.449811">
        <ele>49.319</ele>
        <time>2021-06-16T14:31:50Z</time>
      </trkpt>
      <trkpt lat="36.722565" lon="-4.449728">
        <ele>48.987</ele>
        <time>2021-06-16T14:31:52Z</time>
      </trkpt>
      <trkpt lat="36.722562" lon="-4.449667">
        <ele>50.481</ele>
        <time>2021-06-16T14:32:35Z</time>
      </trkpt>
      <trkpt lat="36.722546" lon="-4.449576">
        <ele>51.350</ele>
        <time>2021-06-16T14:32:38Z</time>
      </trkpt>
      <trkpt lat="36.722536" lon="-4.449482">
        <ele>51.913</ele>
        <time>2021-06-16T14:32:40Z</time>
      </trkpt>
      <trkpt lat="36.722525" lon="-4.449377">
        <ele>52.260</ele>
        <time>2021-06-16T14:32:42Z</time>
      </trkpt>
      <trkpt lat="36.722504" lon="-4.449246">
        <ele>52.497</ele>
        <time>2021-06-16T14:32:44Z</time>
      </trkpt>
      <trkpt lat="36.722494" lon="-4.449179">
        <ele>52.517</ele>
        <time>2021-06-16T14:32:45Z</time>
      </trkpt>
      <trkpt lat="36.722486" lon="-4.449116">
        <ele>52.562</ele>
        <time>2021-06-16T14:32:46Z</time>
      </trkpt>
      <trkpt lat="36.722457" lon="-4.44898">
        <ele>52.583</ele>
        <time>2021-06-16T14:32:48Z</time>
      </trkpt>
      <trkpt lat="36.722435" lon="-4.44889">
        <ele>52.511</ele>
        <time>2021-06-16T14:32:49Z</time>
      </trkpt>
      <trkpt lat="36.722391" lon="-4.448676">
        <ele>52.508</ele>
        <time>2021-06-16T14:32:51Z</time>
      </trkpt>
      <trkpt lat="36.722372" lon="-4.448563">
        <ele>52.523</ele>
        <time>2021-06-16T14:32:52Z</time>
      </trkpt>
      <trkpt lat="36.72235" lon="-4.448449">
        <ele>52.581</ele>
        <time>2021-06-16T14:32:53Z</time>
      </trkpt>
      <trkpt lat="36.72231" lon="-4.448233">
        <ele>52.555</ele>
        <time>2021-06-16T14:32:55Z</time>
      </trkpt>
      <trkpt lat="36.722267" lon="-4.448046">
        <ele>52.564</ele>
        <time>2021-06-16T14:32:57Z</time>
      </trkpt>
      <trkpt lat="36.722242" lon="-4.44789">
        <ele>52.557</ele>
        <time>2021-06-16T14:32:59Z</time>
      </trkpt>
      <trkpt lat="36.722211" lon="-4.447751">
        <ele>52.584</ele>
        <time>2021-06-16T14:33:01Z</time>
      </trkpt>
      <trkpt lat="36.722196" lon="-4.447693">
        <ele>52.511</ele>
        <time>2021-06-16T14:33:03Z</time>
      </trkpt>
      <trkpt lat="36.722199" lon="-4.447629">
        <ele>51.061</ele>
        <time>2021-06-16T14:33:24Z</time>
      </trkpt>
      <trkpt lat="36.722194" lon="-4.447564">
        <ele>50.143</ele>
        <time>2021-06-16T14:33:25Z</time>
      </trkpt>
      <trkpt lat="36.722185" lon="-4.447475">
        <ele>49.664</ele>
        <time>2021-06-16T14:33:26Z</time>
      </trkpt>
      <trkpt lat="36.722161" lon="-4.447265">
        <ele>49.310</ele>
        <time>2021-06-16T14:33:28Z</time>
      </trkpt>
      <trkpt lat="36.722125" lon="-4.447049">
        <ele>49.108</ele>
        <time>2021-06-16T14:33:30Z</time>
      </trkpt>
      <trkpt lat="36.722105" lon="-4.446937">
        <ele>49.021</ele>
        <time>2021-06-16T14:33:31Z</time>
      </trkpt>
      <trkpt lat="36.722069" lon="-4.446715">
        <ele>48.999</ele>
        <time>2021-06-16T14:33:33Z</time>
      </trkpt>
      <trkpt lat="36.722054" lon="-4.446609">
        <ele>48.993</ele>
        <time>2021-06-16T14:33:34Z</time>
      </trkpt>
      <trkpt lat="36.722019" lon="-4.446412">
        <ele>48.952</ele>
        <time>2021-06-16T14:33:36Z</time>
      </trkpt>
      <trkpt lat="36.722002" lon="-4.446326">
        <ele>48.915</ele>
        <time>2021-06-16T14:33:37Z</time>
      </trkpt>
      <trkpt lat="36.721967" lon="-4.446169">
        <ele>48.922</ele>
        <time>2021-06-16T14:33:39Z</time>
      </trkpt>
      <trkpt lat="36.721942" lon="-4.446045">
        <ele>48.929</ele>
        <time>2021-06-16T14:33:41Z</time>
      </trkpt>
      <trkpt lat="36.721932" lon="-4.445966">
        <ele>48.989</ele>
        <time>2021-06-16T14:33:43Z</time>
      </trkpt>
      <trkpt lat="36.721925" lon="-4.445899">
        <ele>48.927</ele>
        <time>2021-06-16T14:33:45Z</time>
      </trkpt>
      <trkpt lat="36.721884" lon="-4.445816">
        <ele>48.968</ele>
        <time>2021-06-16T14:34:02Z</time>
      </trkpt>
      <trkpt lat="36.72185" lon="-4.445628">
        <ele>48.914</ele>
        <time>2021-06-16T14:34:04Z</time>
      </trkpt>
      <trkpt lat="36.721834" lon="-4.445499">
        <ele>48.908</ele>
        <time>2021-06-16T14:34:05Z</time>
      </trkpt>
      <trkpt lat="36.721812" lon="-4.445366">
        <ele>48.929</ele>
        <time>2021-06-16T14:34:06Z</time>
      </trkpt>
      <trkpt lat="36.721789" lon="-4.445247">
        <ele>48.957</ele>
        <time>2021-06-16T14:34:07Z</time>
      </trkpt>
      <trkpt lat="36.72174" lon="-4.444994">
        <ele>48.991</ele>
        <time>2021-06-16T14:34:09Z</time>
      </trkpt>
      <trkpt lat="36.721696" lon="-4.444737">
        <ele>48.920</ele>
        <time>2021-06-16T14:34:11Z</time>
      </trkpt>
      <trkpt lat="36.721648" lon="-4.444491">
        <ele>48.963</ele>
        <time>2021-06-16T14:34:13Z</time>
      </trkpt>
      <trkpt lat="36.721605" lon="-4.444263">
        <ele>48.930</ele>
        <time>2021-06-16T14:34:15Z</time>
      </trkpt>
      <trkpt lat="36.721558" lon="-4.444001">
        <ele>48.977</ele>
        <time>2021-06-16T14:34:17Z</time>
      </trkpt>
      <trkpt lat="36.721519" lon="-4.443762">
        <ele>48.967</ele>
        <time>2021-06-16T14:34:19Z</time>
      </trkpt>
      <trkpt lat="36.721489" lon="-4.44354">
        <ele>48.992</ele>
        <time>2021-06-16T14:34:21Z</time>
      </trkpt>
      <trkpt lat="36.721475" lon="-4.443398">
        <ele>48.973</ele>
        <time>2021-06-16T14:34:22Z</time>
      </trkpt>
      <trkpt lat="36.721471" lon="-4.443148">
        <ele>48.920</ele>
        <time>2021-06-16T14:34:24Z</time>
      </trkpt>
      <trkpt lat="36.721476" lon="-4.442905">
        <ele>48.908</ele>
        <time>2021-06-16T14:34:26Z</time>
      </trkpt>
      <trkpt lat="36.721479" lon="-4.442745">
        <ele>48.916</ele>
        <time>2021-06-16T14:34:27Z</time>
      </trkpt>
      <trkpt lat="36.721479" lon="-4.442457">
        <ele>48.984</ele>
        <time>2021-06-16T14:34:29Z</time>
      </trkpt>
      <trkpt lat="36.721472" lon="-4.442165">
        <ele>48.978</ele>
        <time>2021-06-16T14:34:31Z</time>
      </trkpt>
      <trkpt lat="36.721467" lon="-4.441868">
        <ele>48.987</ele>
        <time>2021-06-16T14:34:33Z</time>
      </trkpt>
      <trkpt lat="36.721465" lon="-4.441627">
        <ele>48.980</ele>
        <time>2021-06-16T14:34:35Z</time>
      </trkpt>
      <trkpt lat="36.721468" lon="-4.441517">
        <ele>48.947</ele>
        <time>2021-06-16T14:34:36Z</time>
      </trkpt>
      <trkpt lat="36.721466" lon="-4.441366">
        <ele>48.964</ele>
        <time>2021-06-16T14:34:38Z</time>
      </trkpt>
      <trkpt lat="36.72145" lon="-4.441262">
        <ele>48.914</ele>
        <time>2021-06-16T14:34:40Z</time>
      </trkpt>
      <trkpt lat="36.72145" lon="-4.441141">
        <ele>48.932</ele>
        <time>2021-06-16T14:34:42Z</time>
      </trkpt>
      <trkpt lat="36.721449" lon="-4.44107">
        <ele>48.992</ele>
        <time>2021-06-16T14:34:44Z</time>
      </trkpt>
      <trkpt lat="36.72145" lon="-4.441005">
        <ele>48.911</ele>
        <time>2021-06-16T14:34:47Z</time>
      </trkpt>
      <trkpt lat="36.721456" lon="-4.440925">
        <ele>47.608</ele>
        <time>2021-06-16T14:34:50Z</time>
      </trkpt>
      <trkpt lat="36.721454" lon="-4.440864">
        <ele>46.870</ele>
        <time>2021-06-16T14:34:53Z</time>
      </trkpt>
      <trkpt lat="36.721455" lon="-4.440789">
        <ele>46.088</ele>
        <time>2021-06-16T14:34:57Z</time>
      </trkpt>
      <trkpt lat="36.721452" lon="-4.440717">
        <ele>45.472</ele>
        <time>2021-06-16T14:35:00Z</time>
      </trkpt>
      <trkpt lat="36.721459" lon="-4.440661">
        <ele>45.021</ele>
        <time>2021-06-16T14:35:05Z</time>
      </trkpt>
      <trkpt lat="36.721448" lon="-4.440595">
        <ele>44.934</ele>
        <time>2021-06-16T14:35:36Z</time>
      </trkpt>
      <trkpt lat="36.721445" lon="-4.440403">
        <ele>44.871</ele>
        <time>2021-06-16T14:35:38Z</time>
      </trkpt>
      <trkpt lat="36.721453" lon="-4.440139">
        <ele>44.878</ele>
        <time>2021-06-16T14:35:40Z</time>
      </trkpt>
      <trkpt lat="36.721457" lon="-4.439983">
        <ele>44.828</ele>
        <time>2021-06-16T14:35:41Z</time>
      </trkpt>
      <trkpt lat="36.721457" lon="-4.439848">
        <ele>44.894</ele>
        <time>2021-06-16T14:35:42Z</time>
      </trkpt>
      <trkpt lat="36.72145" lon="-4.439563">
        <ele>44.857</ele>
        <time>2021-06-16T14:35:44Z</time>
      </trkpt>
      <trkpt lat="36.721447" lon="-4.439416">
        <ele>44.822</ele>
        <time>2021-06-16T14:35:45Z</time>
      </trkpt>
      <trkpt lat="36.72144" lon="-4.439131">
        <ele>44.808</ele>
        <time>2021-06-16T14:35:47Z</time>
      </trkpt>
      <trkpt lat="36.721436" lon="-4.438861">
        <ele>44.856</ele>
        <time>2021-06-16T14:35:49Z</time>
      </trkpt>
      <trkpt lat="36.721439" lon="-4.438735">
        <ele>44.814</ele>
        <time>2021-06-16T14:35:50Z</time>
      </trkpt>
      <trkpt lat="36.721443" lon="-4.438497">
        <ele>44.888</ele>
        <time>2021-06-16T14:35:52Z</time>
      </trkpt>
      <trkpt lat="36.721444" lon="-4.43835">
        <ele>44.877</ele>
        <time>2021-06-16T14:35:53Z</time>
      </trkpt>
      <trkpt lat="36.721442" lon="-4.438131">
        <ele>44.880</ele>
        <time>2021-06-16T14:35:55Z</time>
      </trkpt>
      <trkpt lat="36.721444" lon="-4.437992">
        <ele>44.857</ele>
        <time>2021-06-16T14:35:56Z</time>
      </trkpt>
      <trkpt lat="36.721445" lon="-4.43788">
        <ele>44.874</ele>
        <time>2021-06-16T14:35:57Z</time>
      </trkpt>
      <trkpt lat="36.721441" lon="-4.437677">
        <ele>44.844</ele>
        <time>2021-06-16T14:35:59Z</time>
      </trkpt>
      <trkpt lat="36.721438" lon="-4.43759">
        <ele>44.867</ele>
        <time>2021-06-16T14:36:00Z</time>
      </trkpt>
      <trkpt lat="36.721435" lon="-4.437523">
        <ele>44.881</ele>
        <time>2021-06-16T14:36:01Z</time>
      </trkpt>
      <trkpt lat="36.721433" lon="-4.437416">
        <ele>44.819</ele>
        <time>2021-06-16T14:36:03Z</time>
      </trkpt>
      <trkpt lat="36.721432" lon="-4.437263">
        <ele>44.808</ele>
        <time>2021-06-16T14:36:05Z</time>
      </trkpt>
      <trkpt lat="36.72144" lon="-4.437119">
        <ele>44.853</ele>
        <time>2021-06-16T14:36:07Z</time>
      </trkpt>
      <trkpt lat="36.72144" lon="-4.437038">
        <ele>44.891</ele>
        <time>2021-06-16T14:36:08Z</time>
      </trkpt>
      <trkpt lat="36.721436" lon="-4.436907">
        <ele>44.835</ele>
        <time>2021-06-16T14:36:10Z</time>
      </trkpt>
      <trkpt lat="36.721431" lon="-4.43678">
        <ele>44.824</ele>
        <time>2021-06-16T14:36:12Z</time>
      </trkpt>
      <trkpt lat="36.721428" lon="-4.436721">
        <ele>44.877</ele>
        <time>2021-06-16T14:36:13Z</time>
      </trkpt>
      <trkpt lat="36.721438" lon="-4.436648">
        <ele>44.844</ele>
        <time>2021-06-16T14:36:15Z</time>
      </trkpt>
      <trkpt lat="36.721442" lon="-4.43659">
        <ele>44.861</ele>
        <time>2021-06-16T14:36:17Z</time>
      </trkpt>
      <trkpt lat="36.721436" lon="-4.436517">
        <ele>44.871</ele>
        <time>2021-06-16T14:36:21Z</time>
      </trkpt>
      <trkpt lat="36.72144" lon="-4.436426">
        <ele>44.835</ele>
        <time>2021-06-16T14:36:23Z</time>
      </trkpt>
      <trkpt lat="36.721442" lon="-4.436325">
        <ele>44.886</ele>
        <time>2021-06-16T14:36:25Z</time>
      </trkpt>
      <trkpt lat="36.721441" lon="-4.436235">
        <ele>44.814</ele>
        <time>2021-06-16T14:36:27Z</time>
      </trkpt>
      <trkpt lat="36.721442" lon="-4.43615">
        <ele>44.808</ele>
        <time>2021-06-16T14:36:29Z</time>
      </trkpt>
      <trkpt lat="36.721446" lon="-4.436063">
        <ele>44.850</ele>
        <time>2021-06-16T14:36:31Z</time>
      </trkpt>
      <trkpt lat="36.721447" lon="-4.435982">
        <ele>44.828</ele>
        <time>2021-06-16T14:36:33Z</time>
      </trkpt>
      <trkpt lat="36.721445" lon="-4.435895">
        <ele>44.842</ele>
        <time>2021-06-16T14:36:35Z</time>
      </trkpt>
      <trkpt lat="36.721451" lon="-4.435719">
        <ele>44.811</ele>
        <time>2021-06-16T14:36:37Z</time>
      </trkpt>
      <trkpt lat="36.721463" lon="-4.435485">
        <ele>44.894</ele>
        <time>2021-06-16T14:36:39Z</time>
      </trkpt>
      <trkpt lat="36.721462" lon="-4.435365">
        <ele>44.831</ele>
        <time>2021-06-16T14:36:40Z</time>
      </trkpt>
      <trkpt lat="36.72146" lon="-4.435096">
        <ele>44.888</ele>
        <time>2021-06-16T14:36:42Z</time>
      </trkpt>
      <trkpt lat="36.721467" lon="-4.434885">
        <ele>44.868</ele>
        <time>2021-06-16T14:36:44Z</time>
      </trkpt>
      <trkpt lat="36.721468" lon="-4.434759">
        <ele>44.828</ele>
        <time>2021-06-16T14:36:45Z</time>
      </trkpt>
      <trkpt lat="36.721465" lon="-4.434527">
        <ele>44.889</ele>
        <time>2021-06-16T14:36:47Z</time>
      </trkpt>
      <trkpt lat="36.721467" lon="-4.43429">
        <ele>44.817</ele>
        <time>2021-06-16T14:36:49Z</time>
      </trkpt>
      <trkpt lat="36.721473" lon="-4.434046">
        <ele>44.808</ele>
        <time>2021-06-16T14:36:51Z</time>
      </trkpt>
      <trkpt lat="36.721471" lon="-4.433907">
        <ele>44.829</ele>
        <time>2021-06-16T14:36:52Z</time>
      </trkpt>
      <trkpt lat="36.721468" lon="-4.433793">
        <ele>44.877</ele>
        <time>2021-06-16T14:36:53Z</time>
      </trkpt>
      <trkpt lat="36.721463" lon="-4.433684">
        <ele>44.891</ele>
        <time>2021-06-16T14:36:54Z</time>
      </trkpt>
      <trkpt lat="36.721454" lon="-4.433578">
        <ele>44.850</ele>
        <time>2021-06-16T14:36:55Z</time>
      </trkpt>
      <trkpt lat="36.721442" lon="-4.433366">
        <ele>44.863</ele>
        <time>2021-06-16T14:36:57Z</time>
      </trkpt>
      <trkpt lat="36.721457" lon="-4.433262">
        <ele>44.870</ele>
        <time>2021-06-16T14:36:58Z</time>
      </trkpt>
      <trkpt lat="36.72148" lon="-4.433083">
        <ele>44.847</ele>
        <time>2021-06-16T14:37:00Z</time>
      </trkpt>
      <trkpt lat="36.721483" lon="-4.433003">
        <ele>44.857</ele>
        <time>2021-06-16T14:37:01Z</time>
      </trkpt>
      <trkpt lat="36.721473" lon="-4.43289">
        <ele>44.844</ele>
        <time>2021-06-16T14:37:03Z</time>
      </trkpt>
      <trkpt lat="36.721478" lon="-4.432821">
        <ele>44.805</ele>
        <time>2021-06-16T14:37:05Z</time>
      </trkpt>
      <trkpt lat="36.721507" lon="-4.432753">
        <ele>44.815</ele>
        <time>2021-06-16T14:37:17Z</time>
      </trkpt>
      <trkpt lat="36.72152" lon="-4.432687">
        <ele>44.808</ele>
        <time>2021-06-16T14:37:19Z</time>
      </trkpt>
      <trkpt lat="36.721508" lon="-4.432797">
        <ele>40.861</ele>
        <time>2021-06-16T14:37:59Z</time>
      </trkpt>
      <trkpt lat="36.721495" lon="-4.432882">
        <ele>37.569</ele>
        <time>2021-06-16T14:38:00Z</time>
      </trkpt>
      <trkpt lat="36.721462" lon="-4.433133">
        <ele>35.593</ele>
        <time>2021-06-16T14:38:02Z</time>
      </trkpt>
      <trkpt lat="36.721461" lon="-4.433489">
        <ele>34.312</ele>
        <time>2021-06-16T14:38:04Z</time>
      </trkpt>
      <trkpt lat="36.721466" lon="-4.433652">
        <ele>33.665</ele>
        <time>2021-06-16T14:38:05Z</time>
      </trkpt>
      <trkpt lat="36.721468" lon="-4.433815">
        <ele>33.282</ele>
        <time>2021-06-16T14:38:06Z</time>
      </trkpt>
      <trkpt lat="36.721443" lon="-4.43404">
        <ele>33.029</ele>
        <time>2021-06-16T14:38:08Z</time>
      </trkpt>
      <trkpt lat="36.721343" lon="-4.434083">
        <ele>32.819</ele>
        <time>2021-06-16T14:38:10Z</time>
      </trkpt>
      <trkpt lat="36.721303" lon="-4.433974">
        <ele>32.719</ele>
        <time>2021-06-16T14:38:12Z</time>
      </trkpt>
      <trkpt lat="36.721296" lon="-4.433899">
        <ele>32.609</ele>
        <time>2021-06-16T14:38:14Z</time>
      </trkpt>
      <trkpt lat="36.721361" lon="-4.433883">
        <ele>32.619</ele>
        <time>2021-06-16T14:38:16Z</time>
      </trkpt>
      <trkpt lat="36.721399" lon="-4.433853">
        <ele>32.508</ele>
        <time>2021-06-16T14:38:20Z</time>
      </trkpt>
      <trkpt lat="36.721424" lon="-4.433804">
        <ele>32.488</ele>
        <time>2021-06-16T14:38:41Z</time>
      </trkpt>
      <trkpt lat="36.721385" lon="-4.433833">
        <ele>32.336</ele>
        <time>2021-06-16T14:39:00Z</time>
      </trkpt>
      <trkpt lat="36.721381" lon="-4.433892">
        <ele>32.230</ele>
        <time>2021-06-16T14:39:05Z</time>
      </trkpt>
      <trkpt lat="36.721388" lon="-4.433948">
        <ele>30.619</ele>
        <time>2021-06-16T14:39:07Z</time>
      </trkpt>
      <trkpt lat="36.721388" lon="-4.434016">
        <ele>29.752</ele>
        <time>2021-06-16T14:39:10Z</time>
      </trkpt>
      <trkpt lat="36.721396" lon="-4.434105">
        <ele>28.979</ele>
        <time>2021-06-16T14:39:13Z</time>
      </trkpt>
      <trkpt lat="36.721397" lon="-4.434175">
        <ele>28.416</ele>
        <time>2021-06-16T14:39:15Z</time>
      </trkpt>
      <trkpt lat="36.721442" lon="-4.434177">
        <ele>27.836</ele>
        <time>2021-06-16T14:39:30Z</time>
      </trkpt>
      <trkpt lat="36.721388" lon="-4.43421">
        <ele>24.749</ele>
        <time>2021-06-16T14:40:21Z</time>
      </trkpt>
      <trkpt lat="36.721446" lon="-4.434243">
        <ele>22.802</ele>
        <time>2021-06-16T14:40:41Z</time>
      </trkpt>
      <trkpt lat="36.72139" lon="-4.434225">
        <ele>21.722</ele>
        <time>2021-06-16T14:40:46Z</time>
      </trkpt>
      <trkpt lat="36.721338" lon="-4.434167">
        <ele>21.008</ele>
        <time>2021-06-16T14:41:06Z</time>
      </trkpt>
      <trkpt lat="36.721258" lon="-4.434295">
        <ele>20.631</ele>
        <time>2021-06-16T14:41:16Z</time>
      </trkpt>
      <trkpt lat="36.721337" lon="-4.434252">
        <ele>20.399</ele>
        <time>2021-06-16T14:41:27Z</time>
      </trkpt>
      <trkpt lat="36.721396" lon="-4.434226">
        <ele>20.213</ele>
        <time>2021-06-16T14:41:37Z</time>
      </trkpt>
      <trkpt lat="36.721349" lon="-4.434243">
        <ele>20.012</ele>
        <time>2021-06-16T14:41:58Z</time>
      </trkpt>
      <trkpt lat="36.721392" lon="-4.43427">
        <ele>20.035</ele>
        <time>2021-06-16T14:42:08Z</time>
      </trkpt>
      <trkpt lat="36.721338" lon="-4.434248">
        <ele>20.012</ele>
        <time>2021-06-16T14:42:13Z</time>
      </trkpt>
      <trkpt lat="36.721412" lon="-4.43422">
        <ele>20.029</ele>
        <time>2021-06-16T14:42:34Z</time>
      </trkpt>
      <trkpt lat="36.721357" lon="-4.434191">
        <ele>20.139</ele>
        <time>2021-06-16T14:42:59Z</time>
      </trkpt>
      <trkpt lat="36.721331" lon="-4.434242">
        <ele>20.096</ele>
        <time>2021-06-16T14:43:14Z</time>
      </trkpt>
      <trkpt lat="36.721206" lon="-4.434261">
        <ele>19.931</ele>
        <time>2021-06-16T14:43:58Z</time>
      </trkpt>
      <trkpt lat="36.721088" lon="-4.434277">
        <ele>19.824</ele>
        <time>2021-06-16T14:44:08Z</time>
      </trkpt>
      <trkpt lat="36.721263" lon="-4.434249">
        <ele>19.708</ele>
        <time>2021-06-16T14:44:29Z</time>
      </trkpt>
      <trkpt lat="36.721192" lon="-4.434263">
        <ele>19.626</ele>
        <time>2021-06-16T14:44:43Z</time>
      </trkpt>
      <trkpt lat="36.721044" lon="-4.434233">
        <ele>19.694</ele>
        <time>2021-06-16T14:44:53Z</time>
      </trkpt>
      <trkpt lat="36.721109" lon="-4.434261">
        <ele>19.638</ele>
        <time>2021-06-16T14:45:13Z</time>
      </trkpt>
      <trkpt lat="36.721248" lon="-4.434199">
        <ele>19.657</ele>
        <time>2021-06-16T14:45:23Z</time>
      </trkpt>
      <trkpt lat="36.721314" lon="-4.434171">
        <ele>19.640</ele>
        <time>2021-06-16T14:45:33Z</time>
      </trkpt>
      <trkpt lat="36.721255" lon="-4.434195">
        <ele>19.667</ele>
        <time>2021-06-16T14:45:43Z</time>
      </trkpt>
      <trkpt lat="36.721289" lon="-4.43425">
        <ele>19.724</ele>
        <time>2021-06-16T14:45:53Z</time>
      </trkpt>
      <trkpt lat="36.721244" lon="-4.434309">
        <ele>19.774</ele>
        <time>2021-06-16T14:46:03Z</time>
      </trkpt>
      <trkpt lat="36.721351" lon="-4.434178">
        <ele>19.545</ele>
        <time>2021-06-16T14:46:13Z</time>
      </trkpt>
      <trkpt lat="36.721393" lon="-4.434216">
        <ele>19.247</ele>
        <time>2021-06-16T14:46:31Z</time>
      </trkpt>
      <trkpt lat="36.721409" lon="-4.434152">
        <ele>19.011</ele>
        <time>2021-06-16T14:46:48Z</time>
      </trkpt>
      <trkpt lat="36.721416" lon="-4.434094">
        <ele>18.908</ele>
        <time>2021-06-16T14:46:52Z</time>
      </trkpt>
      <trkpt lat="36.721404" lon="-4.434035">
        <ele>18.821</ele>
        <time>2021-06-16T14:46:56Z</time>
      </trkpt>
      <trkpt lat="36.721402" lon="-4.433977">
        <ele>18.839</ele>
        <time>2021-06-16T14:47:01Z</time>
      </trkpt>
      <trkpt lat="36.721389" lon="-4.433915">
        <ele>18.733</ele>
        <time>2021-06-16T14:47:08Z</time>
      </trkpt>
      <trkpt lat="36.721436" lon="-4.433881">
        <ele>18.772</ele>
        <time>2021-06-16T14:47:15Z</time>
      </trkpt>
      <trkpt lat="36.721485" lon="-4.433869">
        <ele>18.775</ele>
        <time>2021-06-16T14:47:20Z</time>
      </trkpt>
      <trkpt lat="36.721474" lon="-4.433803">
        <ele>18.792</ele>
        <time>2021-06-16T14:47:23Z</time>
      </trkpt>
      <trkpt lat="36.72145" lon="-4.433742">
        <ele>18.799</ele>
        <time>2021-06-16T14:47:26Z</time>
      </trkpt>
      <trkpt lat="36.7214" lon="-4.43372">
        <ele>18.779</ele>
        <time>2021-06-16T14:47:32Z</time>
      </trkpt>
      <trkpt lat="36.721378" lon="-4.433653">
        <ele>22.774</ele>
        <time>2021-06-16T14:47:39Z</time>
      </trkpt>
      <trkpt lat="36.721394" lon="-4.433591">
        <ele>26.756</ele>
        <time>2021-06-16T14:47:42Z</time>
      </trkpt>
      <trkpt lat="36.721423" lon="-4.433528">
        <ele>30.621</ele>
        <time>2021-06-16T14:47:45Z</time>
      </trkpt>
      <trkpt lat="36.721446" lon="-4.43346">
        <ele>32.308</ele>
        <time>2021-06-16T14:47:48Z</time>
      </trkpt>
      <trkpt lat="36.721471" lon="-4.433396">
        <ele>31.994</ele>
        <time>2021-06-16T14:47:51Z</time>
      </trkpt>
      <trkpt lat="36.721491" lon="-4.433337">
        <ele>32.252</ele>
        <time>2021-06-16T14:47:54Z</time>
      </trkpt>
      <trkpt lat="36.721505" lon="-4.43328">
        <ele>29.796</ele>
        <time>2021-06-16T14:47:57Z</time>
      </trkpt>
      <trkpt lat="36.721521" lon="-4.43321">
        <ele>28.065</ele>
        <time>2021-06-16T14:48:00Z</time>
      </trkpt>
      <trkpt lat="36.721536" lon="-4.433146">
        <ele>26.888</ele>
        <time>2021-06-16T14:48:03Z</time>
      </trkpt>
      <trkpt lat="36.72153" lon="-4.433087">
        <ele>25.145</ele>
        <time>2021-06-16T14:48:06Z</time>
      </trkpt>
      <trkpt lat="36.721508" lon="-4.433037">
        <ele>22.822</ele>
        <time>2021-06-16T14:48:09Z</time>
      </trkpt>
      <trkpt lat="36.721516" lon="-4.432982">
        <ele>19.712</ele>
        <time>2021-06-16T14:48:17Z</time>
      </trkpt>
      <trkpt lat="36.721501" lon="-4.432916">
        <ele>18.019</ele>
        <time>2021-06-16T14:48:23Z</time>
      </trkpt>
      <trkpt lat="36.721506" lon="-4.432845">
        <ele>18.009</ele>
        <time>2021-06-16T14:48:28Z</time>
      </trkpt>
      <trkpt lat="36.721514" lon="-4.432789">
        <ele>17.719</ele>
        <time>2021-06-16T14:48:31Z</time>
      </trkpt>
      <trkpt lat="36.721503" lon="-4.432729">
        <ele>18.808</ele>
        <time>2021-06-16T14:48:34Z</time>
      </trkpt>
      <trkpt lat="36.721492" lon="-4.432672">
        <ele>21.878</ele>
        <time>2021-06-16T14:48:37Z</time>
      </trkpt>
      <trkpt lat="36.721522" lon="-4.432619">
        <ele>24.036</ele>
        <time>2021-06-16T14:48:41Z</time>
      </trkpt>
      <trkpt lat="36.721562" lon="-4.43259">
        <ele>25.990</ele>
        <time>2021-06-16T14:48:46Z</time>
      </trkpt>
      <trkpt lat="36.72156" lon="-4.432533">
        <ele>26.619</ele>
        <time>2021-06-16T14:48:51Z</time>
      </trkpt>
      <trkpt lat="36.721574" lon="-4.432464">
        <ele>27.172</ele>
        <time>2021-06-16T14:48:58Z</time>
      </trkpt>
      <trkpt lat="36.721572" lon="-4.432405">
        <ele>28.049</ele>
        <time>2021-06-16T14:49:01Z</time>
      </trkpt>
      <trkpt lat="36.721603" lon="-4.432362">
        <ele>27.386</ele>
        <time>2021-06-16T14:49:05Z</time>
      </trkpt>
      <trkpt lat="36.721646" lon="-4.432389">
        <ele>27.816</ele>
        <time>2021-06-16T14:49:09Z</time>
      </trkpt>
      <trkpt lat="36.721696" lon="-4.432369">
        <ele>28.151</ele>
        <time>2021-06-16T14:49:15Z</time>
      </trkpt>
      <trkpt lat="36.721721" lon="-4.432314">
        <ele>30.001</ele>
        <time>2021-06-16T14:49:19Z</time>
      </trkpt>
      <trkpt lat="36.72172" lon="-4.432256">
        <ele>31.411</ele>
        <time>2021-06-16T14:49:22Z</time>
      </trkpt>
      <trkpt lat="36.721681" lon="-4.432187">
        <ele>31.508</ele>
        <time>2021-06-16T14:49:25Z</time>
      </trkpt>
      <trkpt lat="36.721653" lon="-4.432137">
        <ele>30.032</ele>
        <time>2021-06-16T14:49:27Z</time>
      </trkpt>
      <trkpt lat="36.721604" lon="-4.432095">
        <ele>29.280</ele>
        <time>2021-06-16T14:49:30Z</time>
      </trkpt>
      <trkpt lat="36.721557" lon="-4.432065">
        <ele>29.754</ele>
        <time>2021-06-16T14:49:33Z</time>
      </trkpt>
      <trkpt lat="36.72151" lon="-4.432041">
        <ele>31.223</ele>
        <time>2021-06-16T14:49:36Z</time>
      </trkpt>
      <trkpt lat="36.721454" lon="-4.432015">
        <ele>32.036</ele>
        <time>2021-06-16T14:49:39Z</time>
      </trkpt>
      <trkpt lat="36.721401" lon="-4.432002">
        <ele>33.933</ele>
        <time>2021-06-16T14:49:42Z</time>
      </trkpt>
      <trkpt lat="36.721351" lon="-4.432">
        <ele>35.840</ele>
        <time>2021-06-16T14:49:45Z</time>
      </trkpt>
      <trkpt lat="36.721301" lon="-4.432002">
        <ele>37.740</ele>
        <time>2021-06-16T14:49:48Z</time>
      </trkpt>
      <trkpt lat="36.721248" lon="-4.432026">
        <ele>39.153</ele>
        <time>2021-06-16T14:49:52Z</time>
      </trkpt>
      <trkpt lat="36.721194" lon="-4.432034">
        <ele>42.104</ele>
        <time>2021-06-16T14:49:57Z</time>
      </trkpt>
      <trkpt lat="36.721218" lon="-4.432087">
        <ele>44.714</ele>
        <time>2021-06-16T14:50:21Z</time>
      </trkpt>
      <trkpt lat="36.721272" lon="-4.432069">
        <ele>46.508</ele>
        <time>2021-06-16T14:50:25Z</time>
      </trkpt>
      <trkpt lat="36.721324" lon="-4.43206">
        <ele>47.662</ele>
        <time>2021-06-16T14:50:29Z</time>
      </trkpt>
      <trkpt lat="36.721371" lon="-4.432064">
        <ele>46.640</ele>
        <time>2021-06-16T14:50:33Z</time>
      </trkpt>
      <trkpt lat="36.721279" lon="-4.432153">
        <ele>42.694</ele>
        <time>2021-06-16T14:51:01Z</time>
      </trkpt>
      <trkpt lat="36.721224" lon="-4.432168">
        <ele>38.683</ele>
        <time>2021-06-16T14:52:10Z</time>
      </trkpt>
      <trkpt lat="36.721267" lon="-4.432153">
        <ele>34.616</ele>
        <time>2021-06-16T14:56:28Z</time>
      </trkpt>
      <trkpt lat="36.721363" lon="-4.432166">
        <ele>32.043</ele>
        <time>2021-06-16T15:17:56Z</time>
      </trkpt>
      <trkpt lat="36.721416" lon="-4.432171">
        <ele>30.490</ele>
        <time>2021-06-16T15:17:57Z</time>
      </trkpt>
      <trkpt lat="36.721466" lon="-4.432175">
        <ele>29.460</ele>
        <time>2021-06-16T15:17:59Z</time>
      </trkpt>
      <trkpt lat="36.721425" lon="-4.432151">
        <ele>28.829</ele>
        <time>2021-06-16T15:28:13Z</time>
      </trkpt>
      <trkpt lat="36.721326" lon="-4.432138">
        <ele>28.500</ele>
        <time>2021-06-16T15:30:04Z</time>
      </trkpt>
      <trkpt lat="36.721268" lon="-4.432149">
        <ele>28.320</ele>
        <time>2021-06-16T15:30:05Z</time>
      </trkpt>
      <trkpt lat="36.721322" lon="-4.432135">
        <ele>28.108</ele>
        <time>2021-06-16T15:31:05Z</time>
      </trkpt>
      <trkpt lat="36.721399" lon="-4.432115">
        <ele>28.029</ele>
        <time>2021-06-16T15:31:07Z</time>
      </trkpt>
      <trkpt lat="36.721346" lon="-4.432093">
        <ele>27.947</ele>
        <time>2021-06-16T15:42:37Z</time>
      </trkpt>
      <trkpt lat="36.721318" lon="-4.432137">
        <ele>27.941</ele>
        <time>2021-06-16T15:43:51Z</time>
      </trkpt>
      <trkpt lat="36.721272" lon="-4.432133">
        <ele>27.930</ele>
        <time>2021-06-16T15:43:55Z</time>
      </trkpt>
      <trkpt lat="36.721315" lon="-4.432097">
        <ele>27.953</ele>
        <time>2021-06-16T15:44:17Z</time>
      </trkpt>
      <trkpt lat="36.721357" lon="-4.432077">
        <ele>27.980</ele>
        <time>2021-06-16T15:44:21Z</time>
      </trkpt>
      <trkpt lat="36.721403" lon="-4.432049">
        <ele>27.077</ele>
        <time>2021-06-16T15:44:25Z</time>
      </trkpt>
      <trkpt lat="36.7214" lon="-4.432109">
        <ele>25.677</ele>
        <time>2021-06-16T15:44:33Z</time>
      </trkpt>
      <trkpt lat="36.721434" lon="-4.432156">
        <ele>24.574</ele>
        <time>2021-06-16T15:44:37Z</time>
      </trkpt>
      <trkpt lat="36.721461" lon="-4.432203">
        <ele>23.656</ele>
        <time>2021-06-16T15:44:42Z</time>
      </trkpt>
      <trkpt lat="36.721439" lon="-4.432254">
        <ele>22.921</ele>
        <time>2021-06-16T15:44:47Z</time>
      </trkpt>
      <trkpt lat="36.721423" lon="-4.432313">
        <ele>22.508</ele>
        <time>2021-06-16T15:44:52Z</time>
      </trkpt>
      <trkpt lat="36.721443" lon="-4.432372">
        <ele>22.184</ele>
        <time>2021-06-16T15:44:56Z</time>
      </trkpt>
      <trkpt lat="36.72147" lon="-4.432421">
        <ele>21.852</ele>
        <time>2021-06-16T15:45:00Z</time>
      </trkpt>
      <trkpt lat="36.721458" lon="-4.432479">
        <ele>21.656</ele>
        <time>2021-06-16T15:45:06Z</time>
      </trkpt>
      <trkpt lat="36.721507" lon="-4.432527">
        <ele>21.595</ele>
        <time>2021-06-16T15:45:10Z</time>
      </trkpt>
      <trkpt lat="36.721541" lon="-4.432577">
        <ele>21.558</ele>
        <time>2021-06-16T15:45:14Z</time>
      </trkpt>
      <trkpt lat="36.721571" lon="-4.432632">
        <ele>22.225</ele>
        <time>2021-06-16T15:45:19Z</time>
      </trkpt>
      <trkpt lat="36.721547" lon="-4.432694">
        <ele>23.192</ele>
        <time>2021-06-16T15:45:25Z</time>
      </trkpt>
      <trkpt lat="36.721489" lon="-4.432718">
        <ele>23.952</ele>
        <time>2021-06-16T15:45:29Z</time>
      </trkpt>
      <trkpt lat="36.721435" lon="-4.432711">
        <ele>24.412</ele>
        <time>2021-06-16T15:45:31Z</time>
      </trkpt>
      <trkpt lat="36.721386" lon="-4.432686">
        <ele>24.932</ele>
        <time>2021-06-16T15:45:33Z</time>
      </trkpt>
      <trkpt lat="36.721334" lon="-4.432641">
        <ele>25.205</ele>
        <time>2021-06-16T15:45:36Z</time>
      </trkpt>
      <trkpt lat="36.721295" lon="-4.432611">
        <ele>25.508</ele>
        <time>2021-06-16T15:45:41Z</time>
      </trkpt>
      <trkpt lat="36.721326" lon="-4.432562">
        <ele>25.748</ele>
        <time>2021-06-16T15:46:07Z</time>
      </trkpt>
      <trkpt lat="36.7213" lon="-4.432635">
        <ele>25.856</ele>
        <time>2021-06-16T15:46:08Z</time>
      </trkpt>
      <trkpt lat="36.721357" lon="-4.432621">
        <ele>26.370</ele>
        <time>2021-06-16T15:47:25Z</time>
      </trkpt>
      <trkpt lat="36.721356" lon="-4.432681">
        <ele>26.699</ele>
        <time>2021-06-16T15:47:42Z</time>
      </trkpt>
      <trkpt lat="36.721317" lon="-4.43284">
        <ele>26.892</ele>
        <time>2021-06-16T15:47:57Z</time>
      </trkpt>
      <trkpt lat="36.721373" lon="-4.432845">
        <ele>26.969</ele>
        <time>2021-06-16T15:48:03Z</time>
      </trkpt>
      <trkpt lat="36.721319" lon="-4.432873">
        <ele>25.236</ele>
        <time>2021-06-16T15:50:03Z</time>
      </trkpt>
      <trkpt lat="36.721312" lon="-4.432794">
        <ele>21.246</ele>
        <time>2021-06-16T15:50:30Z</time>
      </trkpt>
      <trkpt lat="36.72132" lon="-4.43272">
        <ele>18.544</ele>
        <time>2021-06-16T15:50:31Z</time>
      </trkpt>
      <trkpt lat="36.721303" lon="-4.432813">
        <ele>16.005</ele>
        <time>2021-06-16T15:51:13Z</time>
      </trkpt>
      <trkpt lat="36.721275" lon="-4.43276">
        <ele>14.515</ele>
        <time>2021-06-16T15:51:24Z</time>
      </trkpt>
      <trkpt lat="36.721303" lon="-4.432837">
        <ele>13.708</ele>
        <time>2021-06-16T15:51:43Z</time>
      </trkpt>
      <trkpt lat="36.721301" lon="-4.432772">
        <ele>13.371</ele>
        <time>2021-06-16T15:52:29Z</time>
      </trkpt>
      <trkpt lat="36.72126" lon="-4.432741">
        <ele>13.129</ele>
        <time>2021-06-16T15:52:31Z</time>
      </trkpt>
      <trkpt lat="36.721206" lon="-4.432735">
        <ele>13.053</ele>
        <time>2021-06-16T15:52:33Z</time>
      </trkpt>
      <trkpt lat="36.721236" lon="-4.432685">
        <ele>12.932</ele>
        <time>2021-06-16T15:52:35Z</time>
      </trkpt>
      <trkpt lat="36.721283" lon="-4.432632">
        <ele>12.825</ele>
        <time>2021-06-16T15:52:36Z</time>
      </trkpt>
      <trkpt lat="36.721269" lon="-4.432686">
        <ele>12.652</ele>
        <time>2021-06-16T15:52:52Z</time>
      </trkpt>
      <trkpt lat="36.721231" lon="-4.432721">
        <ele>12.559</ele>
        <time>2021-06-16T15:53:30Z</time>
      </trkpt>
      <trkpt lat="36.721271" lon="-4.432693">
        <ele>12.529</ele>
        <time>2021-06-16T15:53:44Z</time>
      </trkpt>
      <trkpt lat="36.721288" lon="-4.432637">
        <ele>12.514</ele>
        <time>2021-06-16T15:53:58Z</time>
      </trkpt>
      <trkpt lat="36.721249" lon="-4.432675">
        <ele>12.554</ele>
        <time>2021-06-16T15:54:13Z</time>
      </trkpt>
      <trkpt lat="36.721209" lon="-4.432708">
        <ele>12.509</ele>
        <time>2021-06-16T15:54:18Z</time>
      </trkpt>
      <trkpt lat="36.72126" lon="-4.432657">
        <ele>12.408</ele>
        <time>2021-06-16T15:54:21Z</time>
      </trkpt>
      <trkpt lat="36.721302" lon="-4.432634">
        <ele>12.238</ele>
        <time>2021-06-16T15:54:27Z</time>
      </trkpt>
      <trkpt lat="36.72125" lon="-4.432684">
        <ele>12.076</ele>
        <time>2021-06-16T15:54:49Z</time>
      </trkpt>
      <trkpt lat="36.721296" lon="-4.432633">
        <ele>11.840</ele>
        <time>2021-06-16T15:56:36Z</time>
      </trkpt>
      <trkpt lat="36.721241" lon="-4.4327">
        <ele>11.729</ele>
        <time>2021-06-16T15:56:41Z</time>
      </trkpt>
      <trkpt lat="36.721271" lon="-4.432647">
        <ele>11.762</ele>
        <time>2021-06-16T15:58:21Z</time>
      </trkpt>
      <trkpt lat="36.721312" lon="-4.432618">
        <ele>11.779</ele>
        <time>2021-06-16T15:58:27Z</time>
      </trkpt>
      <trkpt lat="36.721273" lon="-4.432646">
        <ele>11.856</ele>
        <time>2021-06-16T15:58:39Z</time>
      </trkpt>
      <trkpt lat="36.721257" lon="-4.432702">
        <ele>11.986</ele>
        <time>2021-06-16T15:58:49Z</time>
      </trkpt>
      <trkpt lat="36.721221" lon="-4.432739">
        <ele>12.017</ele>
        <time>2021-06-16T15:59:21Z</time>
      </trkpt>
      <trkpt lat="36.721238" lon="-4.432684">
        <ele>12.087</ele>
        <time>2021-06-16T16:02:09Z</time>
      </trkpt>
      <trkpt lat="36.721265" lon="-4.432621">
        <ele>12.015</ele>
        <time>2021-06-16T16:02:14Z</time>
      </trkpt>
      <trkpt lat="36.721226" lon="-4.43265">
        <ele>12.308</ele>
        <time>2021-06-16T16:05:35Z</time>
      </trkpt>
      <trkpt lat="36.721272" lon="-4.43263">
        <ele>12.538</ele>
        <time>2021-06-16T16:05:40Z</time>
      </trkpt>
      <trkpt lat="36.721247" lon="-4.432685">
        <ele>12.686</ele>
        <time>2021-06-16T16:05:49Z</time>
      </trkpt>
      <trkpt lat="36.721201" lon="-4.432705">
        <ele>12.650</ele>
        <time>2021-06-16T16:05:53Z</time>
      </trkpt>
      <trkpt lat="36.721159" lon="-4.432675">
        <ele>12.329</ele>
        <time>2021-06-16T16:06:04Z</time>
      </trkpt>
      <trkpt lat="36.721119" lon="-4.43272">
        <ele>12.112</ele>
        <time>2021-06-16T16:06:18Z</time>
      </trkpt>
      <trkpt lat="36.72112" lon="-4.432782">
        <ele>12.069</ele>
        <time>2021-06-16T16:06:24Z</time>
      </trkpt>
      <trkpt lat="36.721129" lon="-4.432842">
        <ele>12.056</ele>
        <time>2021-06-16T16:06:32Z</time>
      </trkpt>
      <trkpt lat="36.721169" lon="-4.432806">
        <ele>12.476</ele>
        <time>2021-06-16T16:06:58Z</time>
      </trkpt>
      <trkpt lat="36.721166" lon="-4.432874">
        <ele>12.997</ele>
        <time>2021-06-16T16:09:26Z</time>
      </trkpt>
      <trkpt lat="36.721157" lon="-4.432817">
        <ele>13.123</ele>
        <time>2021-06-16T16:09:31Z</time>
      </trkpt>
      <trkpt lat="36.721172" lon="-4.432873">
        <ele>13.325</ele>
        <time>2021-06-16T16:10:15Z</time>
      </trkpt>
      <trkpt lat="36.721177" lon="-4.432806">
        <ele>13.408</ele>
        <time>2021-06-16T16:10:19Z</time>
      </trkpt>
      <trkpt lat="36.721162" lon="-4.43286">
        <ele>13.496</ele>
        <time>2021-06-16T16:11:30Z</time>
      </trkpt>
      <trkpt lat="36.721177" lon="-4.432801">
        <ele>13.414</ele>
        <time>2021-06-16T16:11:34Z</time>
      </trkpt>
      <trkpt lat="36.721165" lon="-4.432859">
        <ele>13.478</ele>
        <time>2021-06-16T16:11:38Z</time>
      </trkpt>
      <trkpt lat="36.721142" lon="-4.43281">
        <ele>13.467</ele>
        <time>2021-06-16T16:11:52Z</time>
      </trkpt>
      <trkpt lat="36.721187" lon="-4.432813">
        <ele>13.430</ele>
        <time>2021-06-16T16:12:38Z</time>
      </trkpt>
      <trkpt lat="36.721169" lon="-4.432889">
        <ele>13.437</ele>
        <time>2021-06-16T16:12:40Z</time>
      </trkpt>
      <trkpt lat="36.721154" lon="-4.432828">
        <ele>13.474</ele>
        <time>2021-06-16T16:12:54Z</time>
      </trkpt>
      <trkpt lat="36.721169" lon="-4.432887">
        <ele>13.444</ele>
        <time>2021-06-16T16:13:15Z</time>
      </trkpt>
      <trkpt lat="36.721149" lon="-4.432824">
        <ele>13.479</ele>
        <time>2021-06-16T16:13:26Z</time>
      </trkpt>
      <trkpt lat="36.721192" lon="-4.432806">
        <ele>13.405</ele>
        <time>2021-06-16T16:14:07Z</time>
      </trkpt>
      <trkpt lat="36.721166" lon="-4.432853">
        <ele>13.425</ele>
        <time>2021-06-16T16:14:18Z</time>
      </trkpt>
      <trkpt lat="36.721203" lon="-4.432819">
        <ele>13.508</ele>
        <time>2021-06-16T16:14:26Z</time>
      </trkpt>
      <trkpt lat="36.72148" lon="-4.434215">
        <ele>22.111</ele>
        <time>2021-06-16T17:24:51Z</time>
      </trkpt>
      <trkpt lat="36.721531" lon="-4.434221">
        <ele>22.121</ele>
        <time>2021-06-16T17:24:59Z</time>
      </trkpt>
      <trkpt lat="36.721484" lon="-4.434231">
        <ele>22.103</ele>
        <time>2021-06-16T17:25:57Z</time>
      </trkpt>
      <trkpt lat="36.721442" lon="-4.434252">
        <ele>22.008</ele>
        <time>2021-06-16T17:26:05Z</time>
      </trkpt>
      <trkpt lat="36.721504" lon="-4.434271">
        <ele>22.048</ele>
        <time>2021-06-16T17:26:08Z</time>
      </trkpt>
      <trkpt lat="36.721535" lon="-4.43436">
        <ele>22.067</ele>
        <time>2021-06-16T17:26:10Z</time>
      </trkpt>
      <trkpt lat="36.721533" lon="-4.434458">
        <ele>22.081</ele>
        <time>2021-06-16T17:26:11Z</time>
      </trkpt>
      <trkpt lat="36.721529" lon="-4.434678">
        <ele>22.041</ele>
        <time>2021-06-16T17:26:13Z</time>
      </trkpt>
      <trkpt lat="36.721532" lon="-4.434774">
        <ele>22.067</ele>
        <time>2021-06-16T17:26:14Z</time>
      </trkpt>
      <trkpt lat="36.721531" lon="-4.434863">
        <ele>22.029</ele>
        <time>2021-06-16T17:26:15Z</time>
      </trkpt>
      <trkpt lat="36.721526" lon="-4.435027">
        <ele>22.018</ele>
        <time>2021-06-16T17:26:17Z</time>
      </trkpt>
      <trkpt lat="36.721524" lon="-4.435099">
        <ele>22.082</ele>
        <time>2021-06-16T17:26:18Z</time>
      </trkpt>
      <trkpt lat="36.721529" lon="-4.435239">
        <ele>22.015</ele>
        <time>2021-06-16T17:26:20Z</time>
      </trkpt>
      <trkpt lat="36.721523" lon="-4.435347">
        <ele>22.065</ele>
        <time>2021-06-16T17:26:22Z</time>
      </trkpt>
      <trkpt lat="36.72151" lon="-4.435413">
        <ele>22.011</ele>
        <time>2021-06-16T17:26:24Z</time>
      </trkpt>
      <trkpt lat="36.721485" lon="-4.435479">
        <ele>22.008</ele>
        <time>2021-06-16T17:26:27Z</time>
      </trkpt>
      <trkpt lat="36.721437" lon="-4.435455">
        <ele>22.258</ele>
        <time>2021-06-16T17:26:34Z</time>
      </trkpt>
      <trkpt lat="36.72138" lon="-4.435447">
        <ele>22.447</ele>
        <time>2021-06-16T17:26:41Z</time>
      </trkpt>
      <trkpt lat="36.721398" lon="-4.435531">
        <ele>23.521</ele>
        <time>2021-06-16T17:27:12Z</time>
      </trkpt>
      <trkpt lat="36.721425" lon="-4.435583">
        <ele>24.231</ele>
        <time>2021-06-16T17:27:13Z</time>
      </trkpt>
      <trkpt lat="36.721458" lon="-4.435671">
        <ele>24.657</ele>
        <time>2021-06-16T17:27:15Z</time>
      </trkpt>
      <trkpt lat="36.721434" lon="-4.43576">
        <ele>24.849</ele>
        <time>2021-06-16T17:27:17Z</time>
      </trkpt>
      <trkpt lat="36.721372" lon="-4.435807">
        <ele>24.998</ele>
        <time>2021-06-16T17:27:19Z</time>
      </trkpt>
      <trkpt lat="36.721313" lon="-4.435818">
        <ele>25.042</ele>
        <time>2021-06-16T17:27:21Z</time>
      </trkpt>
      <trkpt lat="36.721221" lon="-4.435814">
        <ele>25.064</ele>
        <time>2021-06-16T17:27:23Z</time>
      </trkpt>
      <trkpt lat="36.721087" lon="-4.435807">
        <ele>25.006</ele>
        <time>2021-06-16T17:27:25Z</time>
      </trkpt>
      <trkpt lat="36.720931" lon="-4.435798">
        <ele>25.016</ele>
        <time>2021-06-16T17:27:27Z</time>
      </trkpt>
      <trkpt lat="36.720849" lon="-4.435795">
        <ele>25.008</ele>
        <time>2021-06-16T17:27:28Z</time>
      </trkpt>
      <trkpt lat="36.72077" lon="-4.435799">
        <ele>25.093</ele>
        <time>2021-06-16T17:27:29Z</time>
      </trkpt>
      <trkpt lat="36.72063" lon="-4.435849">
        <ele>25.042</ele>
        <time>2021-06-16T17:27:31Z</time>
      </trkpt>
      <trkpt lat="36.720575" lon="-4.4359">
        <ele>25.076</ele>
        <time>2021-06-16T17:27:32Z</time>
      </trkpt>
      <trkpt lat="36.72048" lon="-4.436041">
        <ele>25.016</ele>
        <time>2021-06-16T17:27:34Z</time>
      </trkpt>
      <trkpt lat="36.72042" lon="-4.436189">
        <ele>25.072</ele>
        <time>2021-06-16T17:27:36Z</time>
      </trkpt>
      <trkpt lat="36.720354" lon="-4.43631">
        <ele>25.054</ele>
        <time>2021-06-16T17:27:38Z</time>
      </trkpt>
      <trkpt lat="36.720311" lon="-4.436374">
        <ele>25.063</ele>
        <time>2021-06-16T17:27:40Z</time>
      </trkpt>
      <trkpt lat="36.720264" lon="-4.436397">
        <ele>25.087</ele>
        <time>2021-06-16T17:27:42Z</time>
      </trkpt>
      <trkpt lat="36.7202" lon="-4.4364">
        <ele>25.084</ele>
        <time>2021-06-16T17:27:44Z</time>
      </trkpt>
      <trkpt lat="36.720156" lon="-4.436371">
        <ele>25.207</ele>
        <time>2021-06-16T17:27:46Z</time>
      </trkpt>
      <trkpt lat="36.720086" lon="-4.436342">
        <ele>25.317</ele>
        <time>2021-06-16T17:28:08Z</time>
      </trkpt>
      <trkpt lat="36.720045" lon="-4.43631">
        <ele>25.408</ele>
        <time>2021-06-16T17:28:09Z</time>
      </trkpt>
      <trkpt lat="36.719929" lon="-4.436198">
        <ele>25.445</ele>
        <time>2021-06-16T17:28:11Z</time>
      </trkpt>
      <trkpt lat="36.719804" lon="-4.436064">
        <ele>25.464</ele>
        <time>2021-06-16T17:28:13Z</time>
      </trkpt>
      <trkpt lat="36.719669" lon="-4.435941">
        <ele>25.458</ele>
        <time>2021-06-16T17:28:15Z</time>
      </trkpt>
      <trkpt lat="36.7196" lon="-4.435874">
        <ele>25.428</ele>
        <time>2021-06-16T17:28:16Z</time>
      </trkpt>
      <trkpt lat="36.719529" lon="-4.435805">
        <ele>25.474</ele>
        <time>2021-06-16T17:28:17Z</time>
      </trkpt>
      <trkpt lat="36.719395" lon="-4.435666">
        <ele>25.426</ele>
        <time>2021-06-16T17:28:19Z</time>
      </trkpt>
      <trkpt lat="36.71933" lon="-4.435596">
        <ele>25.475</ele>
        <time>2021-06-16T17:28:20Z</time>
      </trkpt>
      <trkpt lat="36.719211" lon="-4.435467">
        <ele>25.419</ele>
        <time>2021-06-16T17:28:22Z</time>
      </trkpt>
      <trkpt lat="36.719082" lon="-4.435416">
        <ele>25.432</ele>
        <time>2021-06-16T17:28:24Z</time>
      </trkpt>
      <trkpt lat="36.719013" lon="-4.43545">
        <ele>25.492</ele>
        <time>2021-06-16T17:28:25Z</time>
      </trkpt>
      <trkpt lat="36.718889" lon="-4.435572">
        <ele>25.411</ele>
        <time>2021-06-16T17:28:27Z</time>
      </trkpt>
      <trkpt lat="36.718838" lon="-4.435676">
        <ele>25.408</ele>
        <time>2021-06-16T17:28:28Z</time>
      </trkpt>
      <trkpt lat="36.718783" lon="-4.435785">
        <ele>25.430</ele>
        <time>2021-06-16T17:28:29Z</time>
      </trkpt>
      <trkpt lat="36.718724" lon="-4.435878">
        <ele>25.419</ele>
        <time>2021-06-16T17:28:30Z</time>
      </trkpt>
      <trkpt lat="36.718558" lon="-4.435973">
        <ele>25.473</ele>
        <time>2021-06-16T17:28:32Z</time>
      </trkpt>
      <trkpt lat="36.718468" lon="-4.435971">
        <ele>25.453</ele>
        <time>2021-06-16T17:28:33Z</time>
      </trkpt>
      <trkpt lat="36.718385" lon="-4.43595">
        <ele>25.469</ele>
        <time>2021-06-16T17:28:34Z</time>
      </trkpt>
      <trkpt lat="36.718226" lon="-4.435876">
        <ele>25.421</ele>
        <time>2021-06-16T17:28:36Z</time>
      </trkpt>
      <trkpt lat="36.718152" lon="-4.435845">
        <ele>25.450</ele>
        <time>2021-06-16T17:28:37Z</time>
      </trkpt>
      <trkpt lat="36.718023" lon="-4.435797">
        <ele>25.454</ele>
        <time>2021-06-16T17:28:39Z</time>
      </trkpt>
      <trkpt lat="36.717887" lon="-4.435742">
        <ele>25.428</ele>
        <time>2021-06-16T17:28:41Z</time>
      </trkpt>
      <trkpt lat="36.717813" lon="-4.435718">
        <ele>25.489</ele>
        <time>2021-06-16T17:28:42Z</time>
      </trkpt>
      <trkpt lat="36.717736" lon="-4.435703">
        <ele>25.417</ele>
        <time>2021-06-16T17:28:43Z</time>
      </trkpt>
      <trkpt lat="36.717583" lon="-4.435728">
        <ele>25.408</ele>
        <time>2021-06-16T17:28:45Z</time>
      </trkpt>
      <trkpt lat="36.717417" lon="-4.43582">
        <ele>25.489</ele>
        <time>2021-06-16T17:28:47Z</time>
      </trkpt>
      <trkpt lat="36.717291" lon="-4.436001">
        <ele>25.478</ele>
        <time>2021-06-16T17:28:49Z</time>
      </trkpt>
      <trkpt lat="36.717252" lon="-4.43612">
        <ele>25.462</ele>
        <time>2021-06-16T17:28:50Z</time>
      </trkpt>
      <trkpt lat="36.717226" lon="-4.436408">
        <ele>25.422</ele>
        <time>2021-06-16T17:28:52Z</time>
      </trkpt>
      <trkpt lat="36.71722" lon="-4.436567">
        <ele>25.478</ele>
        <time>2021-06-16T17:28:53Z</time>
      </trkpt>
      <trkpt lat="36.717204" lon="-4.43689">
        <ele>25.480</ele>
        <time>2021-06-16T17:28:55Z</time>
      </trkpt>
      <trkpt lat="36.717192" lon="-4.437036">
        <ele>25.469</ele>
        <time>2021-06-16T17:28:56Z</time>
      </trkpt>
      <trkpt lat="36.71716" lon="-4.437292">
        <ele>25.463</ele>
        <time>2021-06-16T17:28:58Z</time>
      </trkpt>
      <trkpt lat="36.717128" lon="-4.437507">
        <ele>25.445</ele>
        <time>2021-06-16T17:29:00Z</time>
      </trkpt>
      <trkpt lat="36.717096" lon="-4.437681">
        <ele>25.447</ele>
        <time>2021-06-16T17:29:02Z</time>
      </trkpt>
      <trkpt lat="36.717079" lon="-4.437756">
        <ele>25.411</ele>
        <time>2021-06-16T17:29:03Z</time>
      </trkpt>
      <trkpt lat="36.717047" lon="-4.437905">
        <ele>25.408</ele>
        <time>2021-06-16T17:29:05Z</time>
      </trkpt>
      <trkpt lat="36.717029" lon="-4.438039">
        <ele>24.341</ele>
        <time>2021-06-16T17:29:07Z</time>
      </trkpt>
      <trkpt lat="36.716998" lon="-4.438176">
        <ele>24.390</ele>
        <time>2021-06-16T17:29:09Z</time>
      </trkpt>
      <trkpt lat="36.716961" lon="-4.438355">
        <ele>24.564</ele>
        <time>2021-06-16T17:29:11Z</time>
      </trkpt>
      <trkpt lat="36.71694" lon="-4.438436">
        <ele>25.174</ele>
        <time>2021-06-16T17:29:12Z</time>
      </trkpt>
      <trkpt lat="36.716909" lon="-4.438582">
        <ele>26.370</ele>
        <time>2021-06-16T17:29:14Z</time>
      </trkpt>
      <trkpt lat="36.716895" lon="-4.438676">
        <ele>26.462</ele>
        <time>2021-06-16T17:29:15Z</time>
      </trkpt>
      <trkpt lat="36.716863" lon="-4.438917">
        <ele>25.111</ele>
        <time>2021-06-16T17:29:17Z</time>
      </trkpt>
      <trkpt lat="36.716822" lon="-4.439177">
        <ele>25.535</ele>
        <time>2021-06-16T17:29:19Z</time>
      </trkpt>
      <trkpt lat="36.716801" lon="-4.439311">
        <ele>25.699</ele>
        <time>2021-06-16T17:29:20Z</time>
      </trkpt>
      <trkpt lat="36.716754" lon="-4.439592">
        <ele>26.107</ele>
        <time>2021-06-16T17:29:22Z</time>
      </trkpt>
      <trkpt lat="36.71673" lon="-4.439731">
        <ele>26.327</ele>
        <time>2021-06-16T17:29:23Z</time>
      </trkpt>
      <trkpt lat="36.716678" lon="-4.440001">
        <ele>27.208</ele>
        <time>2021-06-16T17:29:25Z</time>
      </trkpt>
      <trkpt lat="36.716652" lon="-4.440135">
        <ele>27.756</ele>
        <time>2021-06-16T17:29:26Z</time>
      </trkpt>
      <trkpt lat="36.716604" lon="-4.440392">
        <ele>28.225</ele>
        <time>2021-06-16T17:29:28Z</time>
      </trkpt>
      <trkpt lat="36.716581" lon="-4.440522">
        <ele>29.099</ele>
        <time>2021-06-16T17:29:29Z</time>
      </trkpt>
      <trkpt lat="36.716558" lon="-4.44065">
        <ele>29.789</ele>
        <time>2021-06-16T17:29:30Z</time>
      </trkpt>
      <trkpt lat="36.716532" lon="-4.440782">
        <ele>30.275</ele>
        <time>2021-06-16T17:29:31Z</time>
      </trkpt>
      <trkpt lat="36.716474" lon="-4.441055">
        <ele>32.177</ele>
        <time>2021-06-16T17:29:33Z</time>
      </trkpt>
      <trkpt lat="36.71644" lon="-4.441207">
        <ele>32.576</ele>
        <time>2021-06-16T17:29:34Z</time>
      </trkpt>
      <trkpt lat="36.716406" lon="-4.441374">
        <ele>32.470</ele>
        <time>2021-06-16T17:29:35Z</time>
      </trkpt>
      <trkpt lat="36.716337" lon="-4.4418">
        <ele>32.528</ele>
        <time>2021-06-16T17:29:37Z</time>
      </trkpt>
      <trkpt lat="36.716284" lon="-4.442177">
        <ele>32.189</ele>
        <time>2021-06-16T17:29:39Z</time>
      </trkpt>
      <trkpt lat="36.716254" lon="-4.442351">
        <ele>31.817</ele>
        <time>2021-06-16T17:29:40Z</time>
      </trkpt>
      <trkpt lat="36.716207" lon="-4.442673">
        <ele>31.408</ele>
        <time>2021-06-16T17:29:42Z</time>
      </trkpt>
      <trkpt lat="36.71616" lon="-4.442984">
        <ele>32.279</ele>
        <time>2021-06-16T17:29:44Z</time>
      </trkpt>
      <trkpt lat="36.716102" lon="-4.443301">
        <ele>32.788</ele>
        <time>2021-06-16T17:29:46Z</time>
      </trkpt>
      <trkpt lat="36.716078" lon="-4.443459">
        <ele>33.462</ele>
        <time>2021-06-16T17:29:47Z</time>
      </trkpt>
      <trkpt lat="36.716052" lon="-4.443613">
        <ele>33.932</ele>
        <time>2021-06-16T17:29:48Z</time>
      </trkpt>
      <trkpt lat="36.716026" lon="-4.443769">
        <ele>34.458</ele>
        <time>2021-06-16T17:29:49Z</time>
      </trkpt>
      <trkpt lat="36.715994" lon="-4.443928">
        <ele>34.570</ele>
        <time>2021-06-16T17:29:50Z</time>
      </trkpt>
      <trkpt lat="36.715941" lon="-4.444257">
        <ele>33.259</ele>
        <time>2021-06-16T17:29:52Z</time>
      </trkpt>
      <trkpt lat="36.715913" lon="-4.444422">
        <ele>32.933</ele>
        <time>2021-06-16T17:29:53Z</time>
      </trkpt>
      <trkpt lat="36.715884" lon="-4.444586">
        <ele>32.766</ele>
        <time>2021-06-16T17:29:54Z</time>
      </trkpt>
      <trkpt lat="36.71581" lon="-4.444904">
        <ele>31.229</ele>
        <time>2021-06-16T17:29:56Z</time>
      </trkpt>
      <trkpt lat="36.715758" lon="-4.445215">
        <ele>30.521</ele>
        <time>2021-06-16T17:29:58Z</time>
      </trkpt>
      <trkpt lat="36.715725" lon="-4.445362">
        <ele>31.108</ele>
        <time>2021-06-16T17:29:59Z</time>
      </trkpt>
      <trkpt lat="36.715673" lon="-4.445627">
        <ele>30.993</ele>
        <time>2021-06-16T17:30:01Z</time>
      </trkpt>
      <trkpt lat="36.715622" lon="-4.445851">
        <ele>30.682</ele>
        <time>2021-06-16T17:30:03Z</time>
      </trkpt>
      <trkpt lat="36.71558" lon="-4.446045">
        <ele>29.696</ele>
        <time>2021-06-16T17:30:05Z</time>
      </trkpt>
      <trkpt lat="36.715563" lon="-4.446142">
        <ele>29.416</ele>
        <time>2021-06-16T17:30:06Z</time>
      </trkpt>
      <trkpt lat="36.715545" lon="-4.446235">
        <ele>29.362</ele>
        <time>2021-06-16T17:30:07Z</time>
      </trkpt>
      <trkpt lat="36.715508" lon="-4.446385">
        <ele>30.324</ele>
        <time>2021-06-16T17:30:09Z</time>
      </trkpt>
      <trkpt lat="36.715491" lon="-4.44645">
        <ele>31.243</ele>
        <time>2021-06-16T17:30:10Z</time>
      </trkpt>
      <trkpt lat="36.715475" lon="-4.446522">
        <ele>31.587</ele>
        <time>2021-06-16T17:30:11Z</time>
      </trkpt>
      <trkpt lat="36.715463" lon="-4.446606">
        <ele>31.525</ele>
        <time>2021-06-16T17:30:12Z</time>
      </trkpt>
      <trkpt lat="36.715445" lon="-4.446776">
        <ele>32.126</ele>
        <time>2021-06-16T17:30:14Z</time>
      </trkpt>
      <trkpt lat="36.715434" lon="-4.44685">
        <ele>32.708</ele>
        <time>2021-06-16T17:30:15Z</time>
      </trkpt>
      <trkpt lat="36.715418" lon="-4.446962">
        <ele>32.808</ele>
        <time>2021-06-16T17:30:17Z</time>
      </trkpt>
      <trkpt lat="36.71541" lon="-4.447024">
        <ele>33.489</ele>
        <time>2021-06-16T17:30:19Z</time>
      </trkpt>
      <trkpt lat="36.715404" lon="-4.447115">
        <ele>33.428</ele>
        <time>2021-06-16T17:30:21Z</time>
      </trkpt>
      <trkpt lat="36.715405" lon="-4.447232">
        <ele>33.452</ele>
        <time>2021-06-16T17:30:23Z</time>
      </trkpt>
      <trkpt lat="36.715377" lon="-4.447343">
        <ele>32.832</ele>
        <time>2021-06-16T17:30:25Z</time>
      </trkpt>
      <trkpt lat="36.715346" lon="-4.447438">
        <ele>32.558</ele>
        <time>2021-06-16T17:30:27Z</time>
      </trkpt>
      <trkpt lat="36.715343" lon="-4.447507">
        <ele>32.550</ele>
        <time>2021-06-16T17:30:29Z</time>
      </trkpt>
      <trkpt lat="36.715315" lon="-4.447565">
        <ele>32.549</ele>
        <time>2021-06-16T17:30:32Z</time>
      </trkpt>
      <trkpt lat="36.715273" lon="-4.447614">
        <ele>33.413</ele>
        <time>2021-06-16T17:30:49Z</time>
      </trkpt>
      <trkpt lat="36.715279" lon="-4.447709">
        <ele>33.957</ele>
        <time>2021-06-16T17:30:51Z</time>
      </trkpt>
      <trkpt lat="36.715287" lon="-4.447788">
        <ele>34.300</ele>
        <time>2021-06-16T17:30:53Z</time>
      </trkpt>
      <trkpt lat="36.715296" lon="-4.447878">
        <ele>34.520</ele>
        <time>2021-06-16T17:30:55Z</time>
      </trkpt>
      <trkpt lat="36.715329" lon="-4.447999">
        <ele>34.608</ele>
        <time>2021-06-16T17:30:57Z</time>
      </trkpt>
      <trkpt lat="36.715351" lon="-4.448063">
        <ele>34.762</ele>
        <time>2021-06-16T17:30:58Z</time>
      </trkpt>
      <trkpt lat="36.715374" lon="-4.448195">
        <ele>34.711</ele>
        <time>2021-06-16T17:31:00Z</time>
      </trkpt>
      <trkpt lat="36.715378" lon="-4.448256">
        <ele>34.735</ele>
        <time>2021-06-16T17:31:01Z</time>
      </trkpt>
      <trkpt lat="36.715357" lon="-4.448368">
        <ele>34.725</ele>
        <time>2021-06-16T17:31:03Z</time>
      </trkpt>
      <trkpt lat="36.715336" lon="-4.448418">
        <ele>34.741</ele>
        <time>2021-06-16T17:31:04Z</time>
      </trkpt>
      <trkpt lat="36.715287" lon="-4.448484">
        <ele>34.713</ele>
        <time>2021-06-16T17:31:06Z</time>
      </trkpt>
      <trkpt lat="36.715242" lon="-4.44853">
        <ele>34.742</ele>
        <time>2021-06-16T17:31:08Z</time>
      </trkpt>
      <trkpt lat="36.715191" lon="-4.448521">
        <ele>34.566</ele>
        <time>2021-06-16T17:32:00Z</time>
      </trkpt>
      <trkpt lat="36.715139" lon="-4.448517">
        <ele>34.484</ele>
        <time>2021-06-16T17:32:01Z</time>
      </trkpt>
      <trkpt lat="36.715008" lon="-4.448481">
        <ele>34.307</ele>
        <time>2021-06-16T17:32:03Z</time>
      </trkpt>
      <trkpt lat="36.714952" lon="-4.448441">
        <ele>34.317</ele>
        <time>2021-06-16T17:32:04Z</time>
      </trkpt>
      <trkpt lat="36.714863" lon="-4.448328">
        <ele>34.308</ele>
        <time>2021-06-16T17:32:06Z</time>
      </trkpt>
      <trkpt lat="36.714781" lon="-4.448192">
        <ele>34.335</ele>
        <time>2021-06-16T17:32:08Z</time>
      </trkpt>
      <trkpt lat="36.714719" lon="-4.448132">
        <ele>34.354</ele>
        <time>2021-06-16T17:32:09Z</time>
      </trkpt>
      <trkpt lat="36.714649" lon="-4.448077">
        <ele>34.328</ele>
        <time>2021-06-16T17:32:10Z</time>
      </trkpt>
      <trkpt lat="36.714481" lon="-4.447997">
        <ele>34.338</ele>
        <time>2021-06-16T17:32:12Z</time>
      </trkpt>
      <trkpt lat="36.714296" lon="-4.447939">
        <ele>34.394</ele>
        <time>2021-06-16T17:32:14Z</time>
      </trkpt>
      <trkpt lat="36.714202" lon="-4.447909">
        <ele>34.386</ele>
        <time>2021-06-16T17:32:15Z</time>
      </trkpt>
      <trkpt lat="36.714108" lon="-4.447874">
        <ele>34.345</ele>
        <time>2021-06-16T17:32:16Z</time>
      </trkpt>
      <trkpt lat="36.713926" lon="-4.447794">
        <ele>34.349</ele>
        <time>2021-06-16T17:32:18Z</time>
      </trkpt>
      <trkpt lat="36.713752" lon="-4.447711">
        <ele>34.347</ele>
        <time>2021-06-16T17:32:20Z</time>
      </trkpt>
      <trkpt lat="36.713585" lon="-4.447622">
        <ele>34.329</ele>
        <time>2021-06-16T17:32:22Z</time>
      </trkpt>
      <trkpt lat="36.713504" lon="-4.447573">
        <ele>34.321</ele>
        <time>2021-06-16T17:32:23Z</time>
      </trkpt>
      <trkpt lat="36.713341" lon="-4.447467">
        <ele>34.308</ele>
        <time>2021-06-16T17:32:25Z</time>
      </trkpt>
      <trkpt lat="36.713263" lon="-4.44741">
        <ele>34.371</ele>
        <time>2021-06-16T17:32:26Z</time>
      </trkpt>
      <trkpt lat="36.713193" lon="-4.447356">
        <ele>34.310</ele>
        <time>2021-06-16T17:32:27Z</time>
      </trkpt>
      <trkpt lat="36.71307" lon="-4.447267">
        <ele>34.334</ele>
        <time>2021-06-16T17:32:29Z</time>
      </trkpt>
      <trkpt lat="36.712971" lon="-4.447194">
        <ele>34.384</ele>
        <time>2021-06-16T17:32:31Z</time>
      </trkpt>
      <trkpt lat="36.71293" lon="-4.447164">
        <ele>34.380</ele>
        <time>2021-06-16T17:32:32Z</time>
      </trkpt>
      <trkpt lat="36.712877" lon="-4.447122">
        <ele>34.322</ele>
        <time>2021-06-16T17:32:34Z</time>
      </trkpt>
      <trkpt lat="36.712823" lon="-4.447091">
        <ele>34.341</ele>
        <time>2021-06-16T17:32:36Z</time>
      </trkpt>
      <trkpt lat="36.71278" lon="-4.447064">
        <ele>34.135</ele>
        <time>2021-06-16T17:32:41Z</time>
      </trkpt>
      <trkpt lat="36.71272" lon="-4.446996">
        <ele>32.631</ele>
        <time>2021-06-16T17:33:09Z</time>
      </trkpt>
      <trkpt lat="36.712631" lon="-4.446917">
        <ele>31.761</ele>
        <time>2021-06-16T17:33:11Z</time>
      </trkpt>
      <trkpt lat="36.71258" lon="-4.446868">
        <ele>31.107</ele>
        <time>2021-06-16T17:33:12Z</time>
      </trkpt>
      <trkpt lat="36.712529" lon="-4.446814">
        <ele>30.808</ele>
        <time>2021-06-16T17:33:13Z</time>
      </trkpt>
      <trkpt lat="36.712412" lon="-4.446705">
        <ele>30.650</ele>
        <time>2021-06-16T17:33:15Z</time>
      </trkpt>
      <trkpt lat="36.712344" lon="-4.446651">
        <ele>30.549</ele>
        <time>2021-06-16T17:33:16Z</time>
      </trkpt>
      <trkpt lat="36.712196" lon="-4.446539">
        <ele>30.533</ele>
        <time>2021-06-16T17:33:18Z</time>
      </trkpt>
      <trkpt lat="36.712122" lon="-4.446483">
        <ele>30.583</ele>
        <time>2021-06-16T17:33:19Z</time>
      </trkpt>
      <trkpt lat="36.712049" lon="-4.44643">
        <ele>30.529</ele>
        <time>2021-06-16T17:33:20Z</time>
      </trkpt>
      <trkpt lat="36.711898" lon="-4.446314">
        <ele>30.531</ele>
        <time>2021-06-16T17:33:22Z</time>
      </trkpt>
      <trkpt lat="36.711812" lon="-4.446257">
        <ele>30.580</ele>
        <time>2021-06-16T17:33:23Z</time>
      </trkpt>
      <trkpt lat="36.71165" lon="-4.446148">
        <ele>30.534</ele>
        <time>2021-06-16T17:33:25Z</time>
      </trkpt>
      <trkpt lat="36.711523" lon="-4.446072">
        <ele>30.557</ele>
        <time>2021-06-16T17:33:27Z</time>
      </trkpt>
      <trkpt lat="36.711422" lon="-4.44606">
        <ele>30.500</ele>
        <time>2021-06-16T17:33:29Z</time>
      </trkpt>
      <trkpt lat="36.711342" lon="-4.446133">
        <ele>30.420</ele>
        <time>2021-06-16T17:33:31Z</time>
      </trkpt>
      <trkpt lat="36.711298" lon="-4.44627">
        <ele>30.408</ele>
        <time>2021-06-16T17:33:33Z</time>
      </trkpt>
      <trkpt lat="36.711278" lon="-4.446346">
        <ele>30.492</ele>
        <time>2021-06-16T17:33:34Z</time>
      </trkpt>
      <trkpt lat="36.711247" lon="-4.446517">
        <ele>30.471</ele>
        <time>2021-06-16T17:33:36Z</time>
      </trkpt>
      <trkpt lat="36.711212" lon="-4.44669">
        <ele>30.475</ele>
        <time>2021-06-16T17:33:38Z</time>
      </trkpt>
      <trkpt lat="36.711198" lon="-4.446782">
        <ele>30.425</ele>
        <time>2021-06-16T17:33:39Z</time>
      </trkpt>
      <trkpt lat="36.711158" lon="-4.446971">
        <ele>30.421</ele>
        <time>2021-06-16T17:33:41Z</time>
      </trkpt>
      <trkpt lat="36.711111" lon="-4.447171">
        <ele>30.413</ele>
        <time>2021-06-16T17:33:43Z</time>
      </trkpt>
      <trkpt lat="36.711089" lon="-4.44728">
        <ele>30.442</ele>
        <time>2021-06-16T17:33:44Z</time>
      </trkpt>
      <trkpt lat="36.711068" lon="-4.447394">
        <ele>30.426</ele>
        <time>2021-06-16T17:33:45Z</time>
      </trkpt>
      <trkpt lat="36.71105" lon="-4.447511">
        <ele>30.494</ele>
        <time>2021-06-16T17:33:46Z</time>
      </trkpt>
      <trkpt lat="36.711009" lon="-4.447763">
        <ele>30.457</ele>
        <time>2021-06-16T17:33:48Z</time>
      </trkpt>
      <trkpt lat="36.710988" lon="-4.447897">
        <ele>30.422</ele>
        <time>2021-06-16T17:33:49Z</time>
      </trkpt>
      <trkpt lat="36.710947" lon="-4.448174">
        <ele>30.408</ele>
        <time>2021-06-16T17:33:51Z</time>
      </trkpt>
      <trkpt lat="36.710925" lon="-4.448319">
        <ele>30.476</ele>
        <time>2021-06-16T17:33:52Z</time>
      </trkpt>
      <trkpt lat="36.710878" lon="-4.44861">
        <ele>30.445</ele>
        <time>2021-06-16T17:33:54Z</time>
      </trkpt>
      <trkpt lat="36.710837" lon="-4.448887">
        <ele>30.499</ele>
        <time>2021-06-16T17:33:56Z</time>
      </trkpt>
      <trkpt lat="36.710814" lon="-4.449027">
        <ele>30.449</ele>
        <time>2021-06-16T17:33:57Z</time>
      </trkpt>
      <trkpt lat="36.710793" lon="-4.449168">
        <ele>30.425</ele>
        <time>2021-06-16T17:33:58Z</time>
      </trkpt>
      <trkpt lat="36.710747" lon="-4.44945">
        <ele>30.457</ele>
        <time>2021-06-16T17:34:00Z</time>
      </trkpt>
      <trkpt lat="36.710726" lon="-4.44959">
        <ele>30.456</ele>
        <time>2021-06-16T17:34:01Z</time>
      </trkpt>
      <trkpt lat="36.710675" lon="-4.449863">
        <ele>30.420</ele>
        <time>2021-06-16T17:34:03Z</time>
      </trkpt>
      <trkpt lat="36.710629" lon="-4.450124">
        <ele>30.474</ele>
        <time>2021-06-16T17:34:05Z</time>
      </trkpt>
      <trkpt lat="36.710585" lon="-4.45037">
        <ele>28.756</ele>
        <time>2021-06-16T17:34:07Z</time>
      </trkpt>
      <trkpt lat="36.710567" lon="-4.450491">
        <ele>28.321</ele>
        <time>2021-06-16T17:34:08Z</time>
      </trkpt>
      <trkpt lat="36.710536" lon="-4.450693">
        <ele>28.208</ele>
        <time>2021-06-16T17:34:10Z</time>
      </trkpt>
      <trkpt lat="36.710519" lon="-4.450787">
        <ele>27.944</ele>
        <time>2021-06-16T17:34:11Z</time>
      </trkpt>
      <trkpt lat="36.710487" lon="-4.450925">
        <ele>27.833</ele>
        <time>2021-06-16T17:34:13Z</time>
      </trkpt>
      <trkpt lat="36.710473" lon="-4.451">
        <ele>27.277</ele>
        <time>2021-06-16T17:34:15Z</time>
      </trkpt>
      <trkpt lat="36.71043" lon="-4.451024">
        <ele>27.967</ele>
        <time>2021-06-16T17:34:50Z</time>
      </trkpt>
      <trkpt lat="36.710419" lon="-4.451079">
        <ele>28.323</ele>
        <time>2021-06-16T17:34:55Z</time>
      </trkpt>
      <trkpt lat="36.710404" lon="-4.451174">
        <ele>28.615</ele>
        <time>2021-06-16T17:34:58Z</time>
      </trkpt>
      <trkpt lat="36.710389" lon="-4.45127">
        <ele>28.714</ele>
        <time>2021-06-16T17:35:00Z</time>
      </trkpt>
      <trkpt lat="36.710376" lon="-4.451337">
        <ele>28.868</ele>
        <time>2021-06-16T17:35:01Z</time>
      </trkpt>
      <trkpt lat="36.710363" lon="-4.451409">
        <ele>28.937</ele>
        <time>2021-06-16T17:35:02Z</time>
      </trkpt>
      <trkpt lat="36.710351" lon="-4.451478">
        <ele>28.949</ele>
        <time>2021-06-16T17:35:03Z</time>
      </trkpt>
      <trkpt lat="36.710339" lon="-4.451544">
        <ele>28.913</ele>
        <time>2021-06-16T17:35:04Z</time>
      </trkpt>
      <trkpt lat="36.71031" lon="-4.451681">
        <ele>28.908</ele>
        <time>2021-06-16T17:35:06Z</time>
      </trkpt>
      <trkpt lat="36.710294" lon="-4.451755">
        <ele>28.960</ele>
        <time>2021-06-16T17:35:07Z</time>
      </trkpt>
      <trkpt lat="36.710259" lon="-4.451915">
        <ele>28.939</ele>
        <time>2021-06-16T17:35:09Z</time>
      </trkpt>
      <trkpt lat="36.710223" lon="-4.452083">
        <ele>28.973</ele>
        <time>2021-06-16T17:35:11Z</time>
      </trkpt>
      <trkpt lat="36.710204" lon="-4.452163">
        <ele>28.953</ele>
        <time>2021-06-16T17:35:12Z</time>
      </trkpt>
      <trkpt lat="36.710183" lon="-4.452235">
        <ele>28.979</ele>
        <time>2021-06-16T17:35:13Z</time>
      </trkpt>
      <trkpt lat="36.710143" lon="-4.452369">
        <ele>28.951</ele>
        <time>2021-06-16T17:35:15Z</time>
      </trkpt>
      <trkpt lat="36.710126" lon="-4.452446">
        <ele>28.930</ele>
        <time>2021-06-16T17:35:16Z</time>
      </trkpt>
      <trkpt lat="36.710082" lon="-4.452638">
        <ele>28.944</ele>
        <time>2021-06-16T17:35:18Z</time>
      </trkpt>
      <trkpt lat="36.710038" lon="-4.452868">
        <ele>28.973</ele>
        <time>2021-06-16T17:35:20Z</time>
      </trkpt>
      <trkpt lat="36.710013" lon="-4.452998">
        <ele>28.985</ele>
        <time>2021-06-16T17:35:21Z</time>
      </trkpt>
      <trkpt lat="36.709954" lon="-4.453264">
        <ele>28.913</ele>
        <time>2021-06-16T17:35:23Z</time>
      </trkpt>
      <trkpt lat="36.709925" lon="-4.453403">
        <ele>28.908</ele>
        <time>2021-06-16T17:35:24Z</time>
      </trkpt>
      <trkpt lat="36.709898" lon="-4.453539">
        <ele>28.974</ele>
        <time>2021-06-16T17:35:25Z</time>
      </trkpt>
      <trkpt lat="36.709836" lon="-4.453813">
        <ele>28.993</ele>
        <time>2021-06-16T17:35:27Z</time>
      </trkpt>
      <trkpt lat="36.709775" lon="-4.454088">
        <ele>29.077</ele>
        <time>2021-06-16T17:35:29Z</time>
      </trkpt>
      <trkpt lat="36.709718" lon="-4.454355">
        <ele>29.097</ele>
        <time>2021-06-16T17:35:31Z</time>
      </trkpt>
      <trkpt lat="36.709691" lon="-4.454486">
        <ele>29.093</ele>
        <time>2021-06-16T17:35:32Z</time>
      </trkpt>
      <trkpt lat="36.709665" lon="-4.454617">
        <ele>29.045</ele>
        <time>2021-06-16T17:35:33Z</time>
      </trkpt>
      <trkpt lat="36.709617" lon="-4.454844">
        <ele>29.054</ele>
        <time>2021-06-16T17:35:35Z</time>
      </trkpt>
      <trkpt lat="36.709596" lon="-4.454938">
        <ele>29.018</ele>
        <time>2021-06-16T17:35:36Z</time>
      </trkpt>
      <trkpt lat="36.709576" lon="-4.455069">
        <ele>29.017</ele>
        <time>2021-06-16T17:35:38Z</time>
      </trkpt>
      <trkpt lat="36.709583" lon="-4.455127">
        <ele>29.087</ele>
        <time>2021-06-16T17:35:39Z</time>
      </trkpt>
      <trkpt lat="36.709623" lon="-4.455235">
        <ele>29.015</ele>
        <time>2021-06-16T17:35:41Z</time>
      </trkpt>
      <trkpt lat="36.709648" lon="-4.455287">
        <ele>29.008</ele>
        <time>2021-06-16T17:35:42Z</time>
      </trkpt>
      <trkpt lat="36.709674" lon="-4.455376">
        <ele>29.098</ele>
        <time>2021-06-16T17:35:44Z</time>
      </trkpt>
      <trkpt lat="36.709646" lon="-4.455493">
        <ele>29.017</ele>
        <time>2021-06-16T17:35:46Z</time>
      </trkpt>
      <trkpt lat="36.709601" lon="-4.455556">
        <ele>29.031</ele>
        <time>2021-06-16T17:35:47Z</time>
      </trkpt>
      <trkpt lat="36.709507" lon="-4.455673">
        <ele>29.021</ele>
        <time>2021-06-16T17:35:49Z</time>
      </trkpt>
      <trkpt lat="36.709468" lon="-4.455751">
        <ele>29.027</ele>
        <time>2021-06-16T17:35:50Z</time>
      </trkpt>
      <trkpt lat="36.709433" lon="-4.455849">
        <ele>29.069</ele>
        <time>2021-06-16T17:35:51Z</time>
      </trkpt>
      <trkpt lat="36.709369" lon="-4.456086">
        <ele>29.088</ele>
        <time>2021-06-16T17:35:53Z</time>
      </trkpt>
      <trkpt lat="36.70929" lon="-4.45634">
        <ele>29.082</ele>
        <time>2021-06-16T17:35:55Z</time>
      </trkpt>
      <trkpt lat="36.709194" lon="-4.456594">
        <ele>31.155</ele>
        <time>2021-06-16T17:35:57Z</time>
      </trkpt>
      <trkpt lat="36.709083" lon="-4.456837">
        <ele>32.807</ele>
        <time>2021-06-16T17:35:59Z</time>
      </trkpt>
      <trkpt lat="36.708968" lon="-4.457064">
        <ele>34.517</ele>
        <time>2021-06-16T17:36:01Z</time>
      </trkpt>
      <trkpt lat="36.708857" lon="-4.457282">
        <ele>35.708</ele>
        <time>2021-06-16T17:36:03Z</time>
      </trkpt>
      <trkpt lat="36.70875" lon="-4.457487">
        <ele>36.772</ele>
        <time>2021-06-16T17:36:05Z</time>
      </trkpt>
      <trkpt lat="36.708642" lon="-4.45771">
        <ele>36.951</ele>
        <time>2021-06-16T17:36:07Z</time>
      </trkpt>
      <trkpt lat="36.708524" lon="-4.457936">
        <ele>36.645</ele>
        <time>2021-06-16T17:36:09Z</time>
      </trkpt>
      <trkpt lat="36.708462" lon="-4.458051">
        <ele>36.635</ele>
        <time>2021-06-16T17:36:10Z</time>
      </trkpt>
      <trkpt lat="36.708404" lon="-4.458166">
        <ele>36.951</ele>
        <time>2021-06-16T17:36:11Z</time>
      </trkpt>
      <trkpt lat="36.708284" lon="-4.458404">
        <ele>37.023</ele>
        <time>2021-06-16T17:36:13Z</time>
      </trkpt>
      <trkpt lat="36.708224" lon="-4.458521">
        <ele>37.112</ele>
        <time>2021-06-16T17:36:14Z</time>
      </trkpt>
      <trkpt lat="36.708165" lon="-4.458636">
        <ele>36.986</ele>
        <time>2021-06-16T17:36:15Z</time>
      </trkpt>
      <trkpt lat="36.708062" lon="-4.458843">
        <ele>37.043</ele>
        <time>2021-06-16T17:36:17Z</time>
      </trkpt>
      <trkpt lat="36.708014" lon="-4.458934">
        <ele>37.164</ele>
        <time>2021-06-16T17:36:18Z</time>
      </trkpt>
      <trkpt lat="36.707931" lon="-4.459106">
        <ele>36.810</ele>
        <time>2021-06-16T17:36:20Z</time>
      </trkpt>
      <trkpt lat="36.707861" lon="-4.459263">
        <ele>36.908</ele>
        <time>2021-06-16T17:36:22Z</time>
      </trkpt>
      <trkpt lat="36.707835" lon="-4.45933">
        <ele>37.031</ele>
        <time>2021-06-16T17:36:23Z</time>
      </trkpt>
      <trkpt lat="36.707818" lon="-4.459389">
        <ele>36.730</ele>
        <time>2021-06-16T17:36:24Z</time>
      </trkpt>
      <trkpt lat="36.707807" lon="-4.459443">
        <ele>36.474</ele>
        <time>2021-06-16T17:36:25Z</time>
      </trkpt>
      <trkpt lat="36.707792" lon="-4.459556">
        <ele>36.364</ele>
        <time>2021-06-16T17:36:27Z</time>
      </trkpt>
      <trkpt lat="36.707765" lon="-4.459682">
        <ele>36.230</ele>
        <time>2021-06-16T17:36:29Z</time>
      </trkpt>
      <trkpt lat="36.707731" lon="-4.459811">
        <ele>35.782</ele>
        <time>2021-06-16T17:36:31Z</time>
      </trkpt>
      <trkpt lat="36.707714" lon="-4.459876">
        <ele>35.541</ele>
        <time>2021-06-16T17:36:32Z</time>
      </trkpt>
      <trkpt lat="36.707689" lon="-4.460021">
        <ele>35.515</ele>
        <time>2021-06-16T17:36:34Z</time>
      </trkpt>
      <trkpt lat="36.70768" lon="-4.460102">
        <ele>35.162</ele>
        <time>2021-06-16T17:36:35Z</time>
      </trkpt>
      <trkpt lat="36.70766" lon="-4.460258">
        <ele>34.883</ele>
        <time>2021-06-16T17:36:37Z</time>
      </trkpt>
      <trkpt lat="36.707657" lon="-4.460326">
        <ele>34.311</ele>
        <time>2021-06-16T17:36:38Z</time>
      </trkpt>
      <trkpt lat="36.707677" lon="-4.460455">
        <ele>33.608</ele>
        <time>2021-06-16T17:36:40Z</time>
      </trkpt>
      <trkpt lat="36.707704" lon="-4.460514">
        <ele>33.253</ele>
        <time>2021-06-16T17:36:41Z</time>
      </trkpt>
      <trkpt lat="36.707796" lon="-4.460614">
        <ele>32.752</ele>
        <time>2021-06-16T17:36:43Z</time>
      </trkpt>
      <trkpt lat="36.70793" lon="-4.460654">
        <ele>32.546</ele>
        <time>2021-06-16T17:36:45Z</time>
      </trkpt>
      <trkpt lat="36.707997" lon="-4.460656">
        <ele>32.286</ele>
        <time>2021-06-16T17:36:46Z</time>
      </trkpt>
      <trkpt lat="36.708088" lon="-4.460724">
        <ele>32.062</ele>
        <time>2021-06-16T17:36:48Z</time>
      </trkpt>
      <trkpt lat="36.708099" lon="-4.460786">
        <ele>31.914</ele>
        <time>2021-06-16T17:36:49Z</time>
      </trkpt>
      <trkpt lat="36.708069" lon="-4.460921">
        <ele>31.733</ele>
        <time>2021-06-16T17:36:51Z</time>
      </trkpt>
      <trkpt lat="36.708061" lon="-4.461074">
        <ele>31.457</ele>
        <time>2021-06-16T17:36:53Z</time>
      </trkpt>
      <trkpt lat="36.708109" lon="-4.46123">
        <ele>31.467</ele>
        <time>2021-06-16T17:36:55Z</time>
      </trkpt>
      <trkpt lat="36.708117" lon="-4.461307">
        <ele>31.581</ele>
        <time>2021-06-16T17:36:56Z</time>
      </trkpt>
      <trkpt lat="36.708068" lon="-4.461418">
        <ele>31.719</ele>
        <time>2021-06-16T17:36:58Z</time>
      </trkpt>
      <trkpt lat="36.708019" lon="-4.461446">
        <ele>31.908</ele>
        <time>2021-06-16T17:36:59Z</time>
      </trkpt>
      <trkpt lat="36.707899" lon="-4.461431">
        <ele>32.033</ele>
        <time>2021-06-16T17:37:01Z</time>
      </trkpt>
      <trkpt lat="36.707781" lon="-4.461367">
        <ele>31.812</ele>
        <time>2021-06-16T17:37:03Z</time>
      </trkpt>
      <trkpt lat="36.707726" lon="-4.461347">
        <ele>32.056</ele>
        <time>2021-06-16T17:37:04Z</time>
      </trkpt>
      <trkpt lat="36.707622" lon="-4.461338">
        <ele>31.916</ele>
        <time>2021-06-16T17:37:06Z</time>
      </trkpt>
      <trkpt lat="36.707574" lon="-4.461346">
        <ele>31.682</ele>
        <time>2021-06-16T17:37:07Z</time>
      </trkpt>
      <trkpt lat="36.707508" lon="-4.461369">
        <ele>32.034</ele>
        <time>2021-06-16T17:37:09Z</time>
      </trkpt>
      <trkpt lat="36.707459" lon="-4.461395">
        <ele>32.133</ele>
        <time>2021-06-16T17:37:11Z</time>
      </trkpt>
      <trkpt lat="36.707414" lon="-4.461452">
        <ele>33.437</ele>
        <time>2021-06-16T17:37:48Z</time>
      </trkpt>
      <trkpt lat="36.707385" lon="-4.461529">
        <ele>34.216</ele>
        <time>2021-06-16T17:37:50Z</time>
      </trkpt>
      <trkpt lat="36.707372" lon="-4.461585">
        <ele>34.676</ele>
        <time>2021-06-16T17:37:52Z</time>
      </trkpt>
      <trkpt lat="36.707359" lon="-4.461685">
        <ele>34.913</ele>
        <time>2021-06-16T17:38:00Z</time>
      </trkpt>
      <trkpt lat="36.707346" lon="-4.461751">
        <ele>35.108</ele>
        <time>2021-06-16T17:38:01Z</time>
      </trkpt>
      <trkpt lat="36.707321" lon="-4.461893">
        <ele>35.298</ele>
        <time>2021-06-16T17:38:03Z</time>
      </trkpt>
      <trkpt lat="36.707293" lon="-4.462043">
        <ele>35.387</ele>
        <time>2021-06-16T17:38:05Z</time>
      </trkpt>
      <trkpt lat="36.707277" lon="-4.462119">
        <ele>35.351</ele>
        <time>2021-06-16T17:38:06Z</time>
      </trkpt>
      <trkpt lat="36.707259" lon="-4.4622">
        <ele>35.391</ele>
        <time>2021-06-16T17:38:07Z</time>
      </trkpt>
      <trkpt lat="36.707219" lon="-4.462386">
        <ele>35.347</ele>
        <time>2021-06-16T17:38:09Z</time>
      </trkpt>
      <trkpt lat="36.707177" lon="-4.462606">
        <ele>35.349</ele>
        <time>2021-06-16T17:38:11Z</time>
      </trkpt>
      <trkpt lat="36.70714" lon="-4.462843">
        <ele>35.288</ele>
        <time>2021-06-16T17:38:13Z</time>
      </trkpt>
      <trkpt lat="36.707118" lon="-4.462965">
        <ele>35.242</ele>
        <time>2021-06-16T17:38:14Z</time>
      </trkpt>
      <trkpt lat="36.707076" lon="-4.463207">
        <ele>35.223</ele>
        <time>2021-06-16T17:38:16Z</time>
      </trkpt>
      <trkpt lat="36.707027" lon="-4.463456">
        <ele>35.283</ele>
        <time>2021-06-16T17:38:18Z</time>
      </trkpt>
      <trkpt lat="36.706983" lon="-4.463688">
        <ele>35.211</ele>
        <time>2021-06-16T17:38:20Z</time>
      </trkpt>
      <trkpt lat="36.706948" lon="-4.463889">
        <ele>35.208</ele>
        <time>2021-06-16T17:38:22Z</time>
      </trkpt>
      <trkpt lat="36.706931" lon="-4.463984">
        <ele>35.299</ele>
        <time>2021-06-16T17:38:23Z</time>
      </trkpt>
      <trkpt lat="36.706901" lon="-4.464149">
        <ele>35.278</ele>
        <time>2021-06-16T17:38:25Z</time>
      </trkpt>
      <trkpt lat="36.706891" lon="-4.464211">
        <ele>35.282</ele>
        <time>2021-06-16T17:38:26Z</time>
      </trkpt>
      <trkpt lat="36.70688" lon="-4.464284">
        <ele>35.232</ele>
        <time>2021-06-16T17:38:28Z</time>
      </trkpt>
      <trkpt lat="36.706863" lon="-4.464349">
        <ele>35.248</ele>
        <time>2021-06-16T17:38:31Z</time>
      </trkpt>
      <trkpt lat="36.706839" lon="-4.464436">
        <ele>35.210</ele>
        <time>2021-06-16T17:38:33Z</time>
      </trkpt>
      <trkpt lat="36.706824" lon="-4.464514">
        <ele>35.299</ele>
        <time>2021-06-16T17:38:34Z</time>
      </trkpt>
      <trkpt lat="36.706793" lon="-4.4647">
        <ele>35.293</ele>
        <time>2021-06-16T17:38:36Z</time>
      </trkpt>
      <trkpt lat="36.706765" lon="-4.464908">
        <ele>35.255</ele>
        <time>2021-06-16T17:38:38Z</time>
      </trkpt>
      <trkpt lat="36.706732" lon="-4.465152">
        <ele>35.207</ele>
        <time>2021-06-16T17:38:40Z</time>
      </trkpt>
      <trkpt lat="36.706709" lon="-4.465283">
        <ele>35.217</ele>
        <time>2021-06-16T17:38:41Z</time>
      </trkpt>
      <trkpt lat="36.706653" lon="-4.465562">
        <ele>35.208</ele>
        <time>2021-06-16T17:38:43Z</time>
      </trkpt>
      <trkpt lat="36.706599" lon="-4.46586">
        <ele>35.272</ele>
        <time>2021-06-16T17:38:45Z</time>
      </trkpt>
      <trkpt lat="36.70655" lon="-4.466162">
        <ele>35.221</ele>
        <time>2021-06-16T17:38:47Z</time>
      </trkpt>
      <trkpt lat="36.70653" lon="-4.466313">
        <ele>35.225</ele>
        <time>2021-06-16T17:38:48Z</time>
      </trkpt>
      <trkpt lat="36.706499" lon="-4.466603">
        <ele>35.285</ele>
        <time>2021-06-16T17:38:50Z</time>
      </trkpt>
      <trkpt lat="36.706483" lon="-4.4669">
        <ele>35.291</ele>
        <time>2021-06-16T17:38:52Z</time>
      </trkpt>
      <trkpt lat="36.706484" lon="-4.467202">
        <ele>35.273</ele>
        <time>2021-06-16T17:38:54Z</time>
      </trkpt>
      <trkpt lat="36.706485" lon="-4.467359">
        <ele>35.232</ele>
        <time>2021-06-16T17:38:55Z</time>
      </trkpt>
      <trkpt lat="36.706489" lon="-4.467516">
        <ele>34.176</ele>
        <time>2021-06-16T17:38:56Z</time>
      </trkpt>
      <trkpt lat="36.706499" lon="-4.467672">
        <ele>33.724</ele>
        <time>2021-06-16T17:38:57Z</time>
      </trkpt>
      <trkpt lat="36.706509" lon="-4.467832">
        <ele>33.604</ele>
        <time>2021-06-16T17:38:58Z</time>
      </trkpt>
      <trkpt lat="36.706517" lon="-4.467994">
        <ele>33.314</ele>
        <time>2021-06-16T17:38:59Z</time>
      </trkpt>
      <trkpt lat="36.706529" lon="-4.468321">
        <ele>33.708</ele>
        <time>2021-06-16T17:39:01Z</time>
      </trkpt>
      <trkpt lat="36.706549" lon="-4.46864">
        <ele>33.679</ele>
        <time>2021-06-16T17:39:03Z</time>
      </trkpt>
      <trkpt lat="36.706568" lon="-4.468954">
        <ele>33.058</ele>
        <time>2021-06-16T17:39:05Z</time>
      </trkpt>
      <trkpt lat="36.706578" lon="-4.469112">
        <ele>32.582</ele>
        <time>2021-06-16T17:39:06Z</time>
      </trkpt>
      <trkpt lat="36.706593" lon="-4.469424">
        <ele>32.312</ele>
        <time>2021-06-16T17:39:08Z</time>
      </trkpt>
      <trkpt lat="36.706605" lon="-4.469719">
        <ele>32.278</ele>
        <time>2021-06-16T17:39:10Z</time>
      </trkpt>
      <trkpt lat="36.706616" lon="-4.469857">
        <ele>32.180</ele>
        <time>2021-06-16T17:39:11Z</time>
      </trkpt>
      <trkpt lat="36.706639" lon="-4.470109">
        <ele>32.099</ele>
        <time>2021-06-16T17:39:13Z</time>
      </trkpt>
      <trkpt lat="36.706649" lon="-4.470221">
        <ele>32.023</ele>
        <time>2021-06-16T17:39:14Z</time>
      </trkpt>
      <trkpt lat="36.706657" lon="-4.470328">
        <ele>32.079</ele>
        <time>2021-06-16T17:39:15Z</time>
      </trkpt>
      <trkpt lat="36.706674" lon="-4.470521">
        <ele>32.305</ele>
        <time>2021-06-16T17:39:17Z</time>
      </trkpt>
      <trkpt lat="36.706683" lon="-4.470601">
        <ele>32.425</ele>
        <time>2021-06-16T17:39:18Z</time>
      </trkpt>
      <trkpt lat="36.706699" lon="-4.47072">
        <ele>32.808</ele>
        <time>2021-06-16T17:39:20Z</time>
      </trkpt>
      <trkpt lat="36.706705" lon="-4.470796">
        <ele>32.784</ele>
        <time>2021-06-16T17:39:22Z</time>
      </trkpt>
      <trkpt lat="36.706722" lon="-4.47089">
        <ele>34.263</ele>
        <time>2021-06-16T17:40:10Z</time>
      </trkpt>
      <trkpt lat="36.706738" lon="-4.471018">
        <ele>35.197</ele>
        <time>2021-06-16T17:40:12Z</time>
      </trkpt>
      <trkpt lat="36.706763" lon="-4.471182">
        <ele>35.637</ele>
        <time>2021-06-16T17:40:14Z</time>
      </trkpt>
      <trkpt lat="36.706776" lon="-4.471267">
        <ele>35.923</ele>
        <time>2021-06-16T17:40:15Z</time>
      </trkpt>
      <trkpt lat="36.706803" lon="-4.471444">
        <ele>36.175</ele>
        <time>2021-06-16T17:40:17Z</time>
      </trkpt>
      <trkpt lat="36.706828" lon="-4.471649">
        <ele>36.244</ele>
        <time>2021-06-16T17:40:19Z</time>
      </trkpt>
      <trkpt lat="36.70686" lon="-4.471873">
        <ele>36.368</ele>
        <time>2021-06-16T17:40:21Z</time>
      </trkpt>
      <trkpt lat="36.706882" lon="-4.471983">
        <ele>36.329</ele>
        <time>2021-06-16T17:40:22Z</time>
      </trkpt>
      <trkpt lat="36.706904" lon="-4.4721">
        <ele>36.300</ele>
        <time>2021-06-16T17:40:23Z</time>
      </trkpt>
      <trkpt lat="36.706928" lon="-4.47222">
        <ele>36.320</ele>
        <time>2021-06-16T17:40:24Z</time>
      </trkpt>
      <trkpt lat="36.706955" lon="-4.472344">
        <ele>36.308</ele>
        <time>2021-06-16T17:40:25Z</time>
      </trkpt>
      <trkpt lat="36.707013" lon="-4.472602">
        <ele>36.379</ele>
        <time>2021-06-16T17:40:27Z</time>
      </trkpt>
      <trkpt lat="36.707043" lon="-4.472737">
        <ele>36.368</ele>
        <time>2021-06-16T17:40:28Z</time>
      </trkpt>
      <trkpt lat="36.707104" lon="-4.473008">
        <ele>36.382</ele>
        <time>2021-06-16T17:40:30Z</time>
      </trkpt>
      <trkpt lat="36.707132" lon="-4.473142">
        <ele>36.312</ele>
        <time>2021-06-16T17:40:31Z</time>
      </trkpt>
      <trkpt lat="36.707181" lon="-4.473406">
        <ele>36.328</ele>
        <time>2021-06-16T17:40:33Z</time>
      </trkpt>
      <trkpt lat="36.707205" lon="-4.473543">
        <ele>36.340</ele>
        <time>2021-06-16T17:40:34Z</time>
      </trkpt>
      <trkpt lat="36.707257" lon="-4.473823">
        <ele>36.339</ele>
        <time>2021-06-16T17:40:36Z</time>
      </trkpt>
      <trkpt lat="36.707286" lon="-4.473965">
        <ele>36.383</ele>
        <time>2021-06-16T17:40:37Z</time>
      </trkpt>
      <trkpt lat="36.707341" lon="-4.474257">
        <ele>36.354</ele>
        <time>2021-06-16T17:40:39Z</time>
      </trkpt>
      <trkpt lat="36.707397" lon="-4.474554">
        <ele>36.356</ele>
        <time>2021-06-16T17:40:41Z</time>
      </trkpt>
      <trkpt lat="36.707452" lon="-4.474844">
        <ele>36.311</ele>
        <time>2021-06-16T17:40:43Z</time>
      </trkpt>
      <trkpt lat="36.70748" lon="-4.474992">
        <ele>36.308</ele>
        <time>2021-06-16T17:40:44Z</time>
      </trkpt>
      <trkpt lat="36.707511" lon="-4.475142">
        <ele>36.392</ele>
        <time>2021-06-16T17:40:45Z</time>
      </trkpt>
      <trkpt lat="36.707572" lon="-4.47543">
        <ele>36.391</ele>
        <time>2021-06-16T17:40:47Z</time>
      </trkpt>
      <trkpt lat="36.707601" lon="-4.475563">
        <ele>36.325</ele>
        <time>2021-06-16T17:40:48Z</time>
      </trkpt>
      <trkpt lat="36.707628" lon="-4.475688">
        <ele>36.335</ele>
        <time>2021-06-16T17:40:49Z</time>
      </trkpt>
      <trkpt lat="36.707681" lon="-4.475921">
        <ele>36.391</ele>
        <time>2021-06-16T17:40:51Z</time>
      </trkpt>
      <trkpt lat="36.707705" lon="-4.476031">
        <ele>36.343</ele>
        <time>2021-06-16T17:40:52Z</time>
      </trkpt>
      <trkpt lat="36.707748" lon="-4.476236">
        <ele>36.392</ele>
        <time>2021-06-16T17:40:54Z</time>
      </trkpt>
      <trkpt lat="36.70778" lon="-4.476427">
        <ele>36.366</ele>
        <time>2021-06-16T17:40:56Z</time>
      </trkpt>
      <trkpt lat="36.707802" lon="-4.476601">
        <ele>36.389</ele>
        <time>2021-06-16T17:40:58Z</time>
      </trkpt>
      <trkpt lat="36.707811" lon="-4.476679">
        <ele>36.306</ele>
        <time>2021-06-16T17:40:59Z</time>
      </trkpt>
      <trkpt lat="36.707822" lon="-4.476811">
        <ele>36.326</ele>
        <time>2021-06-16T17:41:01Z</time>
      </trkpt>
      <trkpt lat="36.707825" lon="-4.476892">
        <ele>36.308</ele>
        <time>2021-06-16T17:41:03Z</time>
      </trkpt>
      <trkpt lat="36.707811" lon="-4.476967">
        <ele>39.515</ele>
        <time>2021-06-16T17:41:46Z</time>
      </trkpt>
      <trkpt lat="36.707814" lon="-4.477037">
        <ele>41.424</ele>
        <time>2021-06-16T17:41:48Z</time>
      </trkpt>
      <trkpt lat="36.707817" lon="-4.477119">
        <ele>42.748</ele>
        <time>2021-06-16T17:41:50Z</time>
      </trkpt>
      <trkpt lat="36.70782" lon="-4.477238">
        <ele>43.558</ele>
        <time>2021-06-16T17:41:52Z</time>
      </trkpt>
      <trkpt lat="36.707821" lon="-4.477319">
        <ele>43.954</ele>
        <time>2021-06-16T17:41:53Z</time>
      </trkpt>
      <trkpt lat="36.707823" lon="-4.477516">
        <ele>44.226</ele>
        <time>2021-06-16T17:41:55Z</time>
      </trkpt>
      <trkpt lat="36.707826" lon="-4.477632">
        <ele>44.415</ele>
        <time>2021-06-16T17:41:56Z</time>
      </trkpt>
      <trkpt lat="36.707829" lon="-4.477757">
        <ele>44.519</ele>
        <time>2021-06-16T17:41:57Z</time>
      </trkpt>
      <trkpt lat="36.707837" lon="-4.47802">
        <ele>44.616</ele>
        <time>2021-06-16T17:41:59Z</time>
      </trkpt>
      <trkpt lat="36.707844" lon="-4.478148">
        <ele>44.776</ele>
        <time>2021-06-16T17:42:00Z</time>
      </trkpt>
      <trkpt lat="36.707862" lon="-4.478396">
        <ele>44.713</ele>
        <time>2021-06-16T17:42:02Z</time>
      </trkpt>
      <trkpt lat="36.707875" lon="-4.478521">
        <ele>44.708</ele>
        <time>2021-06-16T17:42:03Z</time>
      </trkpt>
      <trkpt lat="36.707917" lon="-4.47878">
        <ele>44.758</ele>
        <time>2021-06-16T17:42:05Z</time>
      </trkpt>
      <trkpt lat="36.707973" lon="-4.479051">
        <ele>44.767</ele>
        <time>2021-06-16T17:42:07Z</time>
      </trkpt>
      <trkpt lat="36.708007" lon="-4.47919">
        <ele>44.781</ele>
        <time>2021-06-16T17:42:08Z</time>
      </trkpt>
      <trkpt lat="36.708067" lon="-4.479472">
        <ele>44.751</ele>
        <time>2021-06-16T17:42:10Z</time>
      </trkpt>
      <trkpt lat="36.708095" lon="-4.479615">
        <ele>44.797</ele>
        <time>2021-06-16T17:42:11Z</time>
      </trkpt>
      <trkpt lat="36.708149" lon="-4.479895">
        <ele>44.739</ele>
        <time>2021-06-16T17:42:13Z</time>
      </trkpt>
      <trkpt lat="36.708174" lon="-4.480029">
        <ele>44.768</ele>
        <time>2021-06-16T17:42:14Z</time>
      </trkpt>
      <trkpt lat="36.708197" lon="-4.480166">
        <ele>44.772</ele>
        <time>2021-06-16T17:42:15Z</time>
      </trkpt>
      <trkpt lat="36.708248" lon="-4.480433">
        <ele>44.774</ele>
        <time>2021-06-16T17:42:17Z</time>
      </trkpt>
      <trkpt lat="36.7083" lon="-4.480699">
        <ele>44.756</ele>
        <time>2021-06-16T17:42:19Z</time>
      </trkpt>
      <trkpt lat="36.708327" lon="-4.480827">
        <ele>44.721</ele>
        <time>2021-06-16T17:42:20Z</time>
      </trkpt>
      <trkpt lat="36.708375" lon="-4.481081">
        <ele>44.708</ele>
        <time>2021-06-16T17:42:22Z</time>
      </trkpt>
      <trkpt lat="36.708395" lon="-4.481202">
        <ele>44.744</ele>
        <time>2021-06-16T17:42:23Z</time>
      </trkpt>
      <trkpt lat="36.708424" lon="-4.481409">
        <ele>44.793</ele>
        <time>2021-06-16T17:42:25Z</time>
      </trkpt>
      <trkpt lat="36.708438" lon="-4.48154">
        <ele>44.737</ele>
        <time>2021-06-16T17:42:27Z</time>
      </trkpt>
      <trkpt lat="36.708436" lon="-4.481609">
        <ele>44.717</ele>
        <time>2021-06-16T17:42:30Z</time>
      </trkpt>
      <trkpt lat="36.708428" lon="-4.481684">
        <ele>45.263</ele>
        <time>2021-06-16T17:42:38Z</time>
      </trkpt>
      <trkpt lat="36.708436" lon="-4.481749">
        <ele>45.745</ele>
        <time>2021-06-16T17:42:40Z</time>
      </trkpt>
      <trkpt lat="36.708463" lon="-4.48185">
        <ele>46.064</ele>
        <time>2021-06-16T17:42:42Z</time>
      </trkpt>
      <trkpt lat="36.708553" lon="-4.481995">
        <ele>46.268</ele>
        <time>2021-06-16T17:42:44Z</time>
      </trkpt>
      <trkpt lat="36.708587" lon="-4.48208">
        <ele>46.329</ele>
        <time>2021-06-16T17:42:45Z</time>
      </trkpt>
      <trkpt lat="36.708598" lon="-4.482175">
        <ele>46.300</ele>
        <time>2021-06-16T17:42:46Z</time>
      </trkpt>
      <trkpt lat="36.708534" lon="-4.482357">
        <ele>46.320</ele>
        <time>2021-06-16T17:42:48Z</time>
      </trkpt>
      <trkpt lat="36.708425" lon="-4.482545">
        <ele>46.308</ele>
        <time>2021-06-16T17:42:50Z</time>
      </trkpt>
      <trkpt lat="36.708381" lon="-4.482663">
        <ele>46.319</ele>
        <time>2021-06-16T17:42:51Z</time>
      </trkpt>
      <trkpt lat="36.708343" lon="-4.48294">
        <ele>46.318</ele>
        <time>2021-06-16T17:42:53Z</time>
      </trkpt>
      <trkpt lat="36.708333" lon="-4.483225">
        <ele>46.372</ele>
        <time>2021-06-16T17:42:55Z</time>
      </trkpt>
      <trkpt lat="36.708331" lon="-4.483367">
        <ele>46.352</ele>
        <time>2021-06-16T17:42:56Z</time>
      </trkpt>
      <trkpt lat="36.70832" lon="-4.483637">
        <ele>46.348</ele>
        <time>2021-06-16T17:42:58Z</time>
      </trkpt>
      <trkpt lat="36.708308" lon="-4.483869">
        <ele>46.320</ele>
        <time>2021-06-16T17:43:00Z</time>
      </trkpt>
      <trkpt lat="36.708305" lon="-4.483975">
        <ele>46.389</ele>
        <time>2021-06-16T17:43:01Z</time>
      </trkpt>
      <trkpt lat="36.708296" lon="-4.484172">
        <ele>46.373</ele>
        <time>2021-06-16T17:43:03Z</time>
      </trkpt>
      <trkpt lat="36.708282" lon="-4.484348">
        <ele>46.316</ele>
        <time>2021-06-16T17:43:05Z</time>
      </trkpt>
      <trkpt lat="36.708279" lon="-4.484419">
        <ele>46.376</ele>
        <time>2021-06-16T17:43:06Z</time>
      </trkpt>
      <trkpt lat="36.708276" lon="-4.484525">
        <ele>46.313</ele>
        <time>2021-06-16T17:43:08Z</time>
      </trkpt>
      <trkpt lat="36.708276" lon="-4.484588">
        <ele>49.408</ele>
        <time>2021-06-16T17:43:30Z</time>
      </trkpt>
      <trkpt lat="36.708271" lon="-4.484684">
        <ele>51.298</ele>
        <time>2021-06-16T17:43:32Z</time>
      </trkpt>
      <trkpt lat="36.708259" lon="-4.484838">
        <ele>52.337</ele>
        <time>2021-06-16T17:43:34Z</time>
      </trkpt>
      <trkpt lat="36.708241" lon="-4.485042">
        <ele>52.921</ele>
        <time>2021-06-16T17:43:36Z</time>
      </trkpt>
      <trkpt lat="36.708233" lon="-4.48516">
        <ele>53.341</ele>
        <time>2021-06-16T17:43:37Z</time>
      </trkpt>
      <trkpt lat="36.70822" lon="-4.48541">
        <ele>53.577</ele>
        <time>2021-06-16T17:43:39Z</time>
      </trkpt>
      <trkpt lat="36.708207" lon="-4.485669">
        <ele>53.639</ele>
        <time>2021-06-16T17:43:41Z</time>
      </trkpt>
      <trkpt lat="36.7082" lon="-4.485803">
        <ele>53.738</ele>
        <time>2021-06-16T17:43:42Z</time>
      </trkpt>
      <trkpt lat="36.708183" lon="-4.486076">
        <ele>53.832</ele>
        <time>2021-06-16T17:43:44Z</time>
      </trkpt>
      <trkpt lat="36.708173" lon="-4.486218">
        <ele>53.843</ele>
        <time>2021-06-16T17:43:45Z</time>
      </trkpt>
      <trkpt lat="36.708155" lon="-4.48651">
        <ele>53.864</ele>
        <time>2021-06-16T17:43:47Z</time>
      </trkpt>
      <trkpt lat="36.708151" lon="-4.486656">
        <ele>53.810</ele>
        <time>2021-06-16T17:43:48Z</time>
      </trkpt>
      <trkpt lat="36.708149" lon="-4.486806">
        <ele>53.808</ele>
        <time>2021-06-16T17:43:49Z</time>
      </trkpt>
      <trkpt lat="36.708148" lon="-4.486962">
        <ele>53.851</ele>
        <time>2021-06-16T17:43:50Z</time>
      </trkpt>
      <trkpt lat="36.708165" lon="-4.487282">
        <ele>53.890</ele>
        <time>2021-06-16T17:43:52Z</time>
      </trkpt>
      <trkpt lat="36.708206" lon="-4.487605">
        <ele>53.874</ele>
        <time>2021-06-16T17:43:54Z</time>
      </trkpt>
      <trkpt lat="36.708233" lon="-4.487766">
        <ele>53.834</ele>
        <time>2021-06-16T17:43:55Z</time>
      </trkpt>
      <trkpt lat="36.708264" lon="-4.487928">
        <ele>53.860</ele>
        <time>2021-06-16T17:43:56Z</time>
      </trkpt>
      <trkpt lat="36.708326" lon="-4.48826">
        <ele>53.892</ele>
        <time>2021-06-16T17:43:58Z</time>
      </trkpt>
      <trkpt lat="36.708376" lon="-4.488601">
        <ele>53.811</ele>
        <time>2021-06-16T17:44:00Z</time>
      </trkpt>
      <trkpt lat="36.708391" lon="-4.488777">
        <ele>53.875</ele>
        <time>2021-06-16T17:44:01Z</time>
      </trkpt>
      <trkpt lat="36.708406" lon="-4.489132">
        <ele>53.812</ele>
        <time>2021-06-16T17:44:03Z</time>
      </trkpt>
      <trkpt lat="36.708406" lon="-4.48931">
        <ele>53.832</ele>
        <time>2021-06-16T17:44:04Z</time>
      </trkpt>
      <trkpt lat="36.708385" lon="-4.489667">
        <ele>53.805</ele>
        <time>2021-06-16T17:44:06Z</time>
      </trkpt>
      <trkpt lat="36.708351" lon="-4.489999">
        <ele>53.808</ele>
        <time>2021-06-16T17:44:08Z</time>
      </trkpt>
      <trkpt lat="36.708333" lon="-4.490166">
        <ele>53.888</ele>
        <time>2021-06-16T17:44:09Z</time>
      </trkpt>
      <trkpt lat="36.708292" lon="-4.490507">
        <ele>53.837</ele>
        <time>2021-06-16T17:44:11Z</time>
      </trkpt>
      <trkpt lat="36.70825" lon="-4.490838">
        <ele>53.861</ele>
        <time>2021-06-16T17:44:13Z</time>
      </trkpt>
      <trkpt lat="36.708229" lon="-4.491002">
        <ele>53.851</ele>
        <time>2021-06-16T17:44:14Z</time>
      </trkpt>
      <trkpt lat="36.70819" lon="-4.491326">
        <ele>53.837</ele>
        <time>2021-06-16T17:44:16Z</time>
      </trkpt>
      <trkpt lat="36.708175" lon="-4.491474">
        <ele>53.839</ele>
        <time>2021-06-16T17:44:17Z</time>
      </trkpt>
      <trkpt lat="36.708144" lon="-4.491758">
        <ele>53.838</ele>
        <time>2021-06-16T17:44:19Z</time>
      </trkpt>
      <trkpt lat="36.708115" lon="-4.492007">
        <ele>53.862</ele>
        <time>2021-06-16T17:44:21Z</time>
      </trkpt>
      <trkpt lat="36.708104" lon="-4.492123">
        <ele>53.882</ele>
        <time>2021-06-16T17:44:22Z</time>
      </trkpt>
      <trkpt lat="36.708089" lon="-4.492312">
        <ele>53.843</ele>
        <time>2021-06-16T17:44:24Z</time>
      </trkpt>
      <trkpt lat="36.708084" lon="-4.492382">
        <ele>53.817</ele>
        <time>2021-06-16T17:44:25Z</time>
      </trkpt>
      <trkpt lat="36.708088" lon="-4.492446">
        <ele>53.808</ele>
        <time>2021-06-16T17:44:26Z</time>
      </trkpt>
      <trkpt lat="36.708099" lon="-4.492509">
        <ele>53.885</ele>
        <time>2021-06-16T17:44:27Z</time>
      </trkpt>
      <trkpt lat="36.70814" lon="-4.492642">
        <ele>53.874</ele>
        <time>2021-06-16T17:44:29Z</time>
      </trkpt>
      <trkpt lat="36.708188" lon="-4.492773">
        <ele>53.898</ele>
        <time>2021-06-16T17:44:31Z</time>
      </trkpt>
      <trkpt lat="36.708215" lon="-4.492834">
        <ele>49.828</ele>
        <time>2021-06-16T17:44:32Z</time>
      </trkpt>
      <trkpt lat="36.708247" lon="-4.492997">
        <ele>45.814</ele>
        <time>2021-06-16T17:44:34Z</time>
      </trkpt>
      <trkpt lat="36.708235" lon="-4.493222">
        <ele>41.826</ele>
        <time>2021-06-16T17:44:36Z</time>
      </trkpt>
      <trkpt lat="36.708223" lon="-4.493341">
        <ele>37.815</ele>
        <time>2021-06-16T17:44:37Z</time>
      </trkpt>
      <trkpt lat="36.708185" lon="-4.49357">
        <ele>35.159</ele>
        <time>2021-06-16T17:44:39Z</time>
      </trkpt>
      <trkpt lat="36.70815" lon="-4.493677">
        <ele>33.233</ele>
        <time>2021-06-16T17:44:40Z</time>
      </trkpt>
      <trkpt lat="36.708035" lon="-4.493853">
        <ele>32.223</ele>
        <time>2021-06-16T17:44:42Z</time>
      </trkpt>
      <trkpt lat="36.707969" lon="-4.493937">
        <ele>31.215</ele>
        <time>2021-06-16T17:44:43Z</time>
      </trkpt>
      <trkpt lat="36.707858" lon="-4.494155">
        <ele>30.508</ele>
        <time>2021-06-16T17:44:45Z</time>
      </trkpt>
      <trkpt lat="36.707814" lon="-4.494286">
        <ele>30.120</ele>
        <time>2021-06-16T17:44:46Z</time>
      </trkpt>
      <trkpt lat="36.707753" lon="-4.494573">
        <ele>29.789</ele>
        <time>2021-06-16T17:44:48Z</time>
      </trkpt>
      <trkpt lat="36.707716" lon="-4.494865">
        <ele>29.283</ele>
        <time>2021-06-16T17:44:50Z</time>
      </trkpt>
      <trkpt lat="36.707699" lon="-4.495011">
        <ele>29.073</ele>
        <time>2021-06-16T17:44:51Z</time>
      </trkpt>
      <trkpt lat="36.707679" lon="-4.495161">
        <ele>29.049</ele>
        <time>2021-06-16T17:44:52Z</time>
      </trkpt>
      <trkpt lat="36.707642" lon="-4.495473">
        <ele>28.661</ele>
        <time>2021-06-16T17:44:54Z</time>
      </trkpt>
      <trkpt lat="36.70761" lon="-4.495786">
        <ele>28.260</ele>
        <time>2021-06-16T17:44:56Z</time>
      </trkpt>
      <trkpt lat="36.707594" lon="-4.495943">
        <ele>28.084</ele>
        <time>2021-06-16T17:44:57Z</time>
      </trkpt>
      <trkpt lat="36.707566" lon="-4.496238">
        <ele>27.929</ele>
        <time>2021-06-16T17:44:59Z</time>
      </trkpt>
      <trkpt lat="36.707539" lon="-4.496523">
        <ele>27.800</ele>
        <time>2021-06-16T17:45:01Z</time>
      </trkpt>
      <trkpt lat="36.707526" lon="-4.496664">
        <ele>27.720</ele>
        <time>2021-06-16T17:45:02Z</time>
      </trkpt>
      <trkpt lat="36.707499" lon="-4.49695">
        <ele>27.608</ele>
        <time>2021-06-16T17:45:04Z</time>
      </trkpt>
      <trkpt lat="36.707469" lon="-4.497244">
        <ele>27.749</ele>
        <time>2021-06-16T17:45:06Z</time>
      </trkpt>
      <trkpt lat="36.707439" lon="-4.497549">
        <ele>27.718</ele>
        <time>2021-06-16T17:45:08Z</time>
      </trkpt>
      <trkpt lat="36.707408" lon="-4.497857">
        <ele>27.792</ele>
        <time>2021-06-16T17:45:10Z</time>
      </trkpt>
      <trkpt lat="36.707377" lon="-4.498169">
        <ele>27.992</ele>
        <time>2021-06-16T17:45:12Z</time>
      </trkpt>
      <trkpt lat="36.707361" lon="-4.498324">
        <ele>28.328</ele>
        <time>2021-06-16T17:45:13Z</time>
      </trkpt>
      <trkpt lat="36.707347" lon="-4.498475">
        <ele>28.760</ele>
        <time>2021-06-16T17:45:14Z</time>
      </trkpt>
      <trkpt lat="36.707322" lon="-4.498771">
        <ele>28.779</ele>
        <time>2021-06-16T17:45:16Z</time>
      </trkpt>
      <trkpt lat="36.707309" lon="-4.498918">
        <ele>28.753</ele>
        <time>2021-06-16T17:45:17Z</time>
      </trkpt>
      <trkpt lat="36.707294" lon="-4.499065">
        <ele>28.671</ele>
        <time>2021-06-16T17:45:18Z</time>
      </trkpt>
      <trkpt lat="36.707264" lon="-4.499356">
        <ele>28.341</ele>
        <time>2021-06-16T17:45:20Z</time>
      </trkpt>
      <trkpt lat="36.707252" lon="-4.499504">
        <ele>28.415</ele>
        <time>2021-06-16T17:45:21Z</time>
      </trkpt>
      <trkpt lat="36.707221" lon="-4.499803">
        <ele>28.408</ele>
        <time>2021-06-16T17:45:23Z</time>
      </trkpt>
      <trkpt lat="36.707204" lon="-4.499955">
        <ele>28.144</ele>
        <time>2021-06-16T17:45:24Z</time>
      </trkpt>
      <trkpt lat="36.70718" lon="-4.500261">
        <ele>28.193</ele>
        <time>2021-06-16T17:45:26Z</time>
      </trkpt>
      <trkpt lat="36.707165" lon="-4.500415">
        <ele>28.157</ele>
        <time>2021-06-16T17:45:27Z</time>
      </trkpt>
      <trkpt lat="36.707137" lon="-4.500722">
        <ele>28.387</ele>
        <time>2021-06-16T17:45:29Z</time>
      </trkpt>
      <trkpt lat="36.707106" lon="-4.501032">
        <ele>28.143</ele>
        <time>2021-06-16T17:45:31Z</time>
      </trkpt>
      <trkpt lat="36.707076" lon="-4.501343">
        <ele>27.995</ele>
        <time>2021-06-16T17:45:33Z</time>
      </trkpt>
      <trkpt lat="36.707062" lon="-4.5015">
        <ele>27.794</ele>
        <time>2021-06-16T17:45:34Z</time>
      </trkpt>
      <trkpt lat="36.707033" lon="-4.501806">
        <ele>28.078</ele>
        <time>2021-06-16T17:45:36Z</time>
      </trkpt>
      <trkpt lat="36.707017" lon="-4.501958">
        <ele>28.036</ele>
        <time>2021-06-16T17:45:37Z</time>
      </trkpt>
      <trkpt lat="36.707003" lon="-4.502111">
        <ele>28.317</ele>
        <time>2021-06-16T17:45:38Z</time>
      </trkpt>
      <trkpt lat="36.706976" lon="-4.502408">
        <ele>28.018</ele>
        <time>2021-06-16T17:45:40Z</time>
      </trkpt>
      <trkpt lat="36.706944" lon="-4.502699">
        <ele>27.808</ele>
        <time>2021-06-16T17:45:42Z</time>
      </trkpt>
      <trkpt lat="36.70691" lon="-4.502989">
        <ele>27.810</ele>
        <time>2021-06-16T17:45:44Z</time>
      </trkpt>
      <trkpt lat="36.706887" lon="-4.50313">
        <ele>28.139</ele>
        <time>2021-06-16T17:45:45Z</time>
      </trkpt>
      <trkpt lat="36.706826" lon="-4.503404">
        <ele>28.073</ele>
        <time>2021-06-16T17:45:47Z</time>
      </trkpt>
      <trkpt lat="36.706743" lon="-4.503675">
        <ele>28.023</ele>
        <time>2021-06-16T17:45:49Z</time>
      </trkpt>
      <trkpt lat="36.706653" lon="-4.50394">
        <ele>27.689</ele>
        <time>2021-06-16T17:45:51Z</time>
      </trkpt>
      <trkpt lat="36.706609" lon="-4.504075">
        <ele>27.721</ele>
        <time>2021-06-16T17:45:52Z</time>
      </trkpt>
      <trkpt lat="36.706565" lon="-4.504211">
        <ele>27.740</ele>
        <time>2021-06-16T17:45:53Z</time>
      </trkpt>
      <trkpt lat="36.706476" lon="-4.504484">
        <ele>27.674</ele>
        <time>2021-06-16T17:45:55Z</time>
      </trkpt>
      <trkpt lat="36.70643" lon="-4.504623">
        <ele>28.088</ele>
        <time>2021-06-16T17:45:56Z</time>
      </trkpt>
      <trkpt lat="36.706342" lon="-4.504897">
        <ele>27.924</ele>
        <time>2021-06-16T17:45:58Z</time>
      </trkpt>
      <trkpt lat="36.706258" lon="-4.505175">
        <ele>28.126</ele>
        <time>2021-06-16T17:46:00Z</time>
      </trkpt>
      <trkpt lat="36.706225" lon="-4.505315">
        <ele>28.108</ele>
        <time>2021-06-16T17:46:01Z</time>
      </trkpt>
      <trkpt lat="36.706173" lon="-4.505605">
        <ele>27.985</ele>
        <time>2021-06-16T17:46:03Z</time>
      </trkpt>
      <trkpt lat="36.706159" lon="-4.505751">
        <ele>28.084</ele>
        <time>2021-06-16T17:46:04Z</time>
      </trkpt>
      <trkpt lat="36.706142" lon="-4.506043">
        <ele>28.248</ele>
        <time>2021-06-16T17:46:06Z</time>
      </trkpt>
      <trkpt lat="36.70614" lon="-4.506344">
        <ele>28.228</ele>
        <time>2021-06-16T17:46:08Z</time>
      </trkpt>
      <trkpt lat="36.706149" lon="-4.506495">
        <ele>28.294</ele>
        <time>2021-06-16T17:46:09Z</time>
      </trkpt>
      <trkpt lat="36.706161" lon="-4.506647">
        <ele>29.066</ele>
        <time>2021-06-16T17:46:10Z</time>
      </trkpt>
      <trkpt lat="36.706189" lon="-4.506951">
        <ele>28.775</ele>
        <time>2021-06-16T17:46:12Z</time>
      </trkpt>
      <trkpt lat="36.706212" lon="-4.507268">
        <ele>28.639</ele>
        <time>2021-06-16T17:46:14Z</time>
      </trkpt>
      <trkpt lat="36.706247" lon="-4.507584">
        <ele>28.078</ele>
        <time>2021-06-16T17:46:16Z</time>
      </trkpt>
      <trkpt lat="36.706286" lon="-4.507899">
        <ele>27.933</ele>
        <time>2021-06-16T17:46:18Z</time>
      </trkpt>
      <trkpt lat="36.706321" lon="-4.508217">
        <ele>27.426</ele>
        <time>2021-06-16T17:46:20Z</time>
      </trkpt>
      <trkpt lat="36.70634" lon="-4.50838">
        <ele>27.008</ele>
        <time>2021-06-16T17:46:21Z</time>
      </trkpt>
      <trkpt lat="36.706378" lon="-4.508708">
        <ele>26.464</ele>
        <time>2021-06-16T17:46:23Z</time>
      </trkpt>
      <trkpt lat="36.706396" lon="-4.508869">
        <ele>26.033</ele>
        <time>2021-06-16T17:46:24Z</time>
      </trkpt>
      <trkpt lat="36.70643" lon="-4.509189">
        <ele>25.847</ele>
        <time>2021-06-16T17:46:26Z</time>
      </trkpt>
      <trkpt lat="36.706459" lon="-4.509501">
        <ele>25.597</ele>
        <time>2021-06-16T17:46:28Z</time>
      </trkpt>
      <trkpt lat="36.706483" lon="-4.509802">
        <ele>25.143</ele>
        <time>2021-06-16T17:46:30Z</time>
      </trkpt>
      <trkpt lat="36.706496" lon="-4.510104">
        <ele>25.335</ele>
        <time>2021-06-16T17:46:32Z</time>
      </trkpt>
      <trkpt lat="36.7065" lon="-4.510256">
        <ele>25.584</ele>
        <time>2021-06-16T17:46:33Z</time>
      </trkpt>
      <trkpt lat="36.706493" lon="-4.510557">
        <ele>25.478</ele>
        <time>2021-06-16T17:46:35Z</time>
      </trkpt>
      <trkpt lat="36.706486" lon="-4.510705">
        <ele>25.356</ele>
        <time>2021-06-16T17:46:36Z</time>
      </trkpt>
      <trkpt lat="36.706467" lon="-4.510989">
        <ele>25.159</ele>
        <time>2021-06-16T17:46:38Z</time>
      </trkpt>
      <trkpt lat="36.706454" lon="-4.511258">
        <ele>25.214</ele>
        <time>2021-06-16T17:46:40Z</time>
      </trkpt>
      <trkpt lat="36.706453" lon="-4.511378">
        <ele>25.308</ele>
        <time>2021-06-16T17:46:41Z</time>
      </trkpt>
      <trkpt lat="36.706496" lon="-4.511556">
        <ele>25.792</ele>
        <time>2021-06-16T17:46:43Z</time>
      </trkpt>
      <trkpt lat="36.706547" lon="-4.511623">
        <ele>26.081</ele>
        <time>2021-06-16T17:46:44Z</time>
      </trkpt>
      <trkpt lat="36.706606" lon="-4.511688">
        <ele>26.225</ele>
        <time>2021-06-16T17:46:45Z</time>
      </trkpt>
      <trkpt lat="36.706718" lon="-4.511854">
        <ele>26.415</ele>
        <time>2021-06-16T17:46:47Z</time>
      </trkpt>
      <trkpt lat="36.706756" lon="-4.51196">
        <ele>26.631</ele>
        <time>2021-06-16T17:46:48Z</time>
      </trkpt>
      <trkpt lat="36.706772" lon="-4.512072">
        <ele>26.593</ele>
        <time>2021-06-16T17:46:49Z</time>
      </trkpt>
      <trkpt lat="36.70674" lon="-4.512296">
        <ele>26.362</ele>
        <time>2021-06-16T17:46:51Z</time>
      </trkpt>
      <trkpt lat="36.70669" lon="-4.512394">
        <ele>26.086</ele>
        <time>2021-06-16T17:46:52Z</time>
      </trkpt>
      <trkpt lat="36.706548" lon="-4.51254">
        <ele>26.161</ele>
        <time>2021-06-16T17:46:54Z</time>
      </trkpt>
      <trkpt lat="36.70641" lon="-4.512699">
        <ele>26.021</ele>
        <time>2021-06-16T17:46:56Z</time>
      </trkpt>
      <trkpt lat="36.706348" lon="-4.512928">
        <ele>25.613</ele>
        <time>2021-06-16T17:46:58Z</time>
      </trkpt>
      <trkpt lat="36.706342" lon="-4.513055">
        <ele>25.408</ele>
        <time>2021-06-16T17:46:59Z</time>
      </trkpt>
      <trkpt lat="36.706339" lon="-4.513184">
        <ele>25.363</ele>
        <time>2021-06-16T17:47:00Z</time>
      </trkpt>
      <trkpt lat="36.70633" lon="-4.513442">
        <ele>25.772</ele>
        <time>2021-06-16T17:47:02Z</time>
      </trkpt>
      <trkpt lat="36.706318" lon="-4.513711">
        <ele>25.916</ele>
        <time>2021-06-16T17:47:04Z</time>
      </trkpt>
      <trkpt lat="36.706294" lon="-4.513989">
        <ele>25.926</ele>
        <time>2021-06-16T17:47:06Z</time>
      </trkpt>
      <trkpt lat="36.706259" lon="-4.514287">
        <ele>26.012</ele>
        <time>2021-06-16T17:47:08Z</time>
      </trkpt>
      <trkpt lat="36.706236" lon="-4.514445">
        <ele>26.324</ele>
        <time>2021-06-16T17:47:09Z</time>
      </trkpt>
      <trkpt lat="36.706193" lon="-4.514765">
        <ele>26.523</ele>
        <time>2021-06-16T17:47:11Z</time>
      </trkpt>
      <trkpt lat="36.706168" lon="-4.514926">
        <ele>26.837</ele>
        <time>2021-06-16T17:47:12Z</time>
      </trkpt>
      <trkpt lat="36.706136" lon="-4.51509">
        <ele>26.694</ele>
        <time>2021-06-16T17:47:13Z</time>
      </trkpt>
      <trkpt lat="36.706074" lon="-4.515403">
        <ele>26.457</ele>
        <time>2021-06-16T17:47:15Z</time>
      </trkpt>
      <trkpt lat="36.706042" lon="-4.515557">
        <ele>26.122</ele>
        <time>2021-06-16T17:47:16Z</time>
      </trkpt>
      <trkpt lat="36.705984" lon="-4.515862">
        <ele>26.608</ele>
        <time>2021-06-16T17:47:18Z</time>
      </trkpt>
      <trkpt lat="36.70593" lon="-4.516167">
        <ele>26.266</ele>
        <time>2021-06-16T17:47:20Z</time>
      </trkpt>
      <trkpt lat="36.705904" lon="-4.51632">
        <ele>26.025</ele>
        <time>2021-06-16T17:47:21Z</time>
      </trkpt>
      <trkpt lat="36.705882" lon="-4.516471">
        <ele>25.899</ele>
        <time>2021-06-16T17:47:22Z</time>
      </trkpt>
      <trkpt lat="36.705853" lon="-4.516781">
        <ele>26.089</ele>
        <time>2021-06-16T17:47:24Z</time>
      </trkpt>
      <trkpt lat="36.70584" lon="-4.517099">
        <ele>26.165</ele>
        <time>2021-06-16T17:47:26Z</time>
      </trkpt>
      <trkpt lat="36.705843" lon="-4.517423">
        <ele>26.397</ele>
        <time>2021-06-16T17:47:28Z</time>
      </trkpt>
      <trkpt lat="36.705852" lon="-4.517583">
        <ele>26.996</ele>
        <time>2021-06-16T17:47:29Z</time>
      </trkpt>
      <trkpt lat="36.705891" lon="-4.517875">
        <ele>27.890</ele>
        <time>2021-06-16T17:47:31Z</time>
      </trkpt>
      <trkpt lat="36.705917" lon="-4.518012">
        <ele>28.446</ele>
        <time>2021-06-16T17:47:32Z</time>
      </trkpt>
      <trkpt lat="36.706004" lon="-4.518239">
        <ele>29.188</ele>
        <time>2021-06-16T17:47:34Z</time>
      </trkpt>
      <trkpt lat="36.706136" lon="-4.518374">
        <ele>29.116</ele>
        <time>2021-06-16T17:47:36Z</time>
      </trkpt>
      <trkpt lat="36.706211" lon="-4.518426">
        <ele>28.808</ele>
        <time>2021-06-16T17:47:37Z</time>
      </trkpt>
      <trkpt lat="36.70629" lon="-4.518476">
        <ele>28.521</ele>
        <time>2021-06-16T17:47:38Z</time>
      </trkpt>
      <trkpt lat="36.70636" lon="-4.518545">
        <ele>28.470</ele>
        <time>2021-06-16T17:47:39Z</time>
      </trkpt>
      <trkpt lat="36.706446" lon="-4.518741">
        <ele>28.424</ele>
        <time>2021-06-16T17:47:41Z</time>
      </trkpt>
      <trkpt lat="36.706446" lon="-4.518956">
        <ele>28.134</ele>
        <time>2021-06-16T17:47:43Z</time>
      </trkpt>
      <trkpt lat="36.706417" lon="-4.51906">
        <ele>27.830</ele>
        <time>2021-06-16T17:47:44Z</time>
      </trkpt>
      <trkpt lat="36.70638" lon="-4.519267">
        <ele>27.452</ele>
        <time>2021-06-16T17:47:46Z</time>
      </trkpt>
      <trkpt lat="36.706397" lon="-4.519374">
        <ele>26.671</ele>
        <time>2021-06-16T17:47:47Z</time>
      </trkpt>
      <trkpt lat="36.706504" lon="-4.519571">
        <ele>25.725</ele>
        <time>2021-06-16T17:47:49Z</time>
      </trkpt>
      <trkpt lat="36.706657" lon="-4.519759">
        <ele>25.263</ele>
        <time>2021-06-16T17:47:51Z</time>
      </trkpt>
      <trkpt lat="36.706742" lon="-4.519863">
        <ele>24.544</ele>
        <time>2021-06-16T17:47:52Z</time>
      </trkpt>
      <trkpt lat="36.706907" lon="-4.520087">
        <ele>24.118</ele>
        <time>2021-06-16T17:47:54Z</time>
      </trkpt>
      <trkpt lat="36.707077" lon="-4.520314">
        <ele>24.208</ele>
        <time>2021-06-16T17:47:56Z</time>
      </trkpt>
      <trkpt lat="36.707241" lon="-4.520526">
        <ele>24.283</ele>
        <time>2021-06-16T17:47:58Z</time>
      </trkpt>
      <trkpt lat="36.70732" lon="-4.520633">
        <ele>24.572</ele>
        <time>2021-06-16T17:47:59Z</time>
      </trkpt>
      <trkpt lat="36.707475" lon="-4.520846">
        <ele>24.776</ele>
        <time>2021-06-16T17:48:01Z</time>
      </trkpt>
      <trkpt lat="36.707554" lon="-4.520951">
        <ele>24.846</ele>
        <time>2021-06-16T17:48:02Z</time>
      </trkpt>
      <trkpt lat="36.707633" lon="-4.521055">
        <ele>25.082</ele>
        <time>2021-06-16T17:48:03Z</time>
      </trkpt>
      <trkpt lat="36.707793" lon="-4.52127">
        <ele>25.164</ele>
        <time>2021-06-16T17:48:05Z</time>
      </trkpt>
      <trkpt lat="36.707872" lon="-4.52138">
        <ele>25.293</ele>
        <time>2021-06-16T17:48:06Z</time>
      </trkpt>
      <trkpt lat="36.707952" lon="-4.52149">
        <ele>25.217</ele>
        <time>2021-06-16T17:48:07Z</time>
      </trkpt>
      <trkpt lat="36.708117" lon="-4.521707">
        <ele>25.692</ele>
        <time>2021-06-16T17:48:09Z</time>
      </trkpt>
      <trkpt lat="36.708201" lon="-4.521816">
        <ele>25.973</ele>
        <time>2021-06-16T17:48:10Z</time>
      </trkpt>
      <trkpt lat="36.708285" lon="-4.521926">
        <ele>26.020</ele>
        <time>2021-06-16T17:48:11Z</time>
      </trkpt>
      <trkpt lat="36.70845" lon="-4.52215">
        <ele>26.408</ele>
        <time>2021-06-16T17:48:13Z</time>
      </trkpt>
      <trkpt lat="36.708616" lon="-4.522378">
        <ele>27.016</ele>
        <time>2021-06-16T17:48:15Z</time>
      </trkpt>
      <trkpt lat="36.708782" lon="-4.522611">
        <ele>27.225</ele>
        <time>2021-06-16T17:48:17Z</time>
      </trkpt>
      <trkpt lat="36.708946" lon="-4.522843">
        <ele>27.759</ele>
        <time>2021-06-16T17:48:19Z</time>
      </trkpt>
      <trkpt lat="36.709102" lon="-4.523082">
        <ele>28.319</ele>
        <time>2021-06-16T17:48:21Z</time>
      </trkpt>
      <trkpt lat="36.709177" lon="-4.523203">
        <ele>29.035</ele>
        <time>2021-06-16T17:48:22Z</time>
      </trkpt>
      <trkpt lat="36.70932" lon="-4.523448">
        <ele>29.227</ele>
        <time>2021-06-16T17:48:24Z</time>
      </trkpt>
      <trkpt lat="36.70939" lon="-4.52357">
        <ele>29.496</ele>
        <time>2021-06-16T17:48:25Z</time>
      </trkpt>
      <trkpt lat="36.709535" lon="-4.52382">
        <ele>29.220</ele>
        <time>2021-06-16T17:48:27Z</time>
      </trkpt>
      <trkpt lat="36.709696" lon="-4.524068">
        <ele>29.675</ele>
        <time>2021-06-16T17:48:29Z</time>
      </trkpt>
      <trkpt lat="36.709865" lon="-4.524309">
        <ele>29.628</ele>
        <time>2021-06-16T17:48:31Z</time>
      </trkpt>
      <trkpt lat="36.70995" lon="-4.524426">
        <ele>29.420</ele>
        <time>2021-06-16T17:48:32Z</time>
      </trkpt>
      <trkpt lat="36.710035" lon="-4.524541">
        <ele>29.608</ele>
        <time>2021-06-16T17:48:33Z</time>
      </trkpt>
      <trkpt lat="36.710207" lon="-4.524768">
        <ele>29.224</ele>
        <time>2021-06-16T17:48:35Z</time>
      </trkpt>
      <trkpt lat="36.710377" lon="-4.524997">
        <ele>29.383</ele>
        <time>2021-06-16T17:48:37Z</time>
      </trkpt>
      <trkpt lat="36.710462" lon="-4.525115">
        <ele>29.377</ele>
        <time>2021-06-16T17:48:38Z</time>
      </trkpt>
      <trkpt lat="36.710637" lon="-4.52534">
        <ele>29.347</ele>
        <time>2021-06-16T17:48:40Z</time>
      </trkpt>
      <trkpt lat="36.710816" lon="-4.525564">
        <ele>29.793</ele>
        <time>2021-06-16T17:48:42Z</time>
      </trkpt>
      <trkpt lat="36.710992" lon="-4.525797">
        <ele>30.035</ele>
        <time>2021-06-16T17:48:44Z</time>
      </trkpt>
      <trkpt lat="36.711078" lon="-4.525915">
        <ele>30.044</ele>
        <time>2021-06-16T17:48:45Z</time>
      </trkpt>
      <trkpt lat="36.711163" lon="-4.526033">
        <ele>30.368</ele>
        <time>2021-06-16T17:48:46Z</time>
      </trkpt>
      <trkpt lat="36.711332" lon="-4.526261">
        <ele>30.122</ele>
        <time>2021-06-16T17:48:48Z</time>
      </trkpt>
      <trkpt lat="36.711415" lon="-4.52637">
        <ele>29.962</ele>
        <time>2021-06-16T17:48:49Z</time>
      </trkpt>
      <trkpt lat="36.71159" lon="-4.526603">
        <ele>29.408</ele>
        <time>2021-06-16T17:48:51Z</time>
      </trkpt>
      <trkpt lat="36.711761" lon="-4.526839">
        <ele>29.508</ele>
        <time>2021-06-16T17:48:53Z</time>
      </trkpt>
      <trkpt lat="36.711848" lon="-4.526952">
        <ele>30.089</ele>
        <time>2021-06-16T17:48:54Z</time>
      </trkpt>
      <trkpt lat="36.712011" lon="-4.527173">
        <ele>29.948</ele>
        <time>2021-06-16T17:48:56Z</time>
      </trkpt>
      <trkpt lat="36.712092" lon="-4.527285">
        <ele>30.272</ele>
        <time>2021-06-16T17:48:57Z</time>
      </trkpt>
      <trkpt lat="36.712255" lon="-4.527509">
        <ele>30.362</ele>
        <time>2021-06-16T17:48:59Z</time>
      </trkpt>
      <trkpt lat="36.712428" lon="-4.527733">
        <ele>30.718</ele>
        <time>2021-06-16T17:49:01Z</time>
      </trkpt>
      <trkpt lat="36.712513" lon="-4.527841">
        <ele>31.160</ele>
        <time>2021-06-16T17:49:02Z</time>
      </trkpt>
      <trkpt lat="36.712598" lon="-4.527951">
        <ele>31.239</ele>
        <time>2021-06-16T17:49:03Z</time>
      </trkpt>
      <trkpt lat="36.712764" lon="-4.528177">
        <ele>31.693</ele>
        <time>2021-06-16T17:49:05Z</time>
      </trkpt>
      <trkpt lat="36.712929" lon="-4.528395">
        <ele>32.161</ele>
        <time>2021-06-16T17:49:07Z</time>
      </trkpt>
      <trkpt lat="36.713013" lon="-4.528501">
        <ele>32.421</ele>
        <time>2021-06-16T17:49:08Z</time>
      </trkpt>
      <trkpt lat="36.713189" lon="-4.528708">
        <ele>32.613</ele>
        <time>2021-06-16T17:49:10Z</time>
      </trkpt>
      <trkpt lat="36.713282" lon="-4.528804">
        <ele>32.508</ele>
        <time>2021-06-16T17:49:11Z</time>
      </trkpt>
      <trkpt lat="36.713376" lon="-4.5289">
        <ele>32.733</ele>
        <time>2021-06-16T17:49:12Z</time>
      </trkpt>
      <trkpt lat="36.71357" lon="-4.529079">
        <ele>32.962</ele>
        <time>2021-06-16T17:49:14Z</time>
      </trkpt>
      <trkpt lat="36.713781" lon="-4.529225">
        <ele>33.016</ele>
        <time>2021-06-16T17:49:16Z</time>
      </trkpt>
      <trkpt lat="36.714004" lon="-4.529358">
        <ele>33.496</ele>
        <time>2021-06-16T17:49:18Z</time>
      </trkpt>
      <trkpt lat="36.714231" lon="-4.52946">
        <ele>34.112</ele>
        <time>2021-06-16T17:49:20Z</time>
      </trkpt>
      <trkpt lat="36.714346" lon="-4.529502">
        <ele>34.494</ele>
        <time>2021-06-16T17:49:21Z</time>
      </trkpt>
      <trkpt lat="36.714578" lon="-4.529575">
        <ele>35.063</ele>
        <time>2021-06-16T17:49:23Z</time>
      </trkpt>
      <trkpt lat="36.714694" lon="-4.529607">
        <ele>35.557</ele>
        <time>2021-06-16T17:49:24Z</time>
      </trkpt>
      <trkpt lat="36.714926" lon="-4.529675">
        <ele>35.754</ele>
        <time>2021-06-16T17:49:26Z</time>
      </trkpt>
      <trkpt lat="36.715159" lon="-4.52974">
        <ele>36.456</ele>
        <time>2021-06-16T17:49:28Z</time>
      </trkpt>
      <trkpt lat="36.715277" lon="-4.529773">
        <ele>36.611</ele>
        <time>2021-06-16T17:49:29Z</time>
      </trkpt>
      <trkpt lat="36.715512" lon="-4.529845">
        <ele>36.708</ele>
        <time>2021-06-16T17:49:31Z</time>
      </trkpt>
      <trkpt lat="36.715627" lon="-4.529891">
        <ele>37.072</ele>
        <time>2021-06-16T17:49:32Z</time>
      </trkpt>
      <trkpt lat="36.715848" lon="-4.530006">
        <ele>37.451</ele>
        <time>2021-06-16T17:49:34Z</time>
      </trkpt>
      <trkpt lat="36.715955" lon="-4.530076">
        <ele>37.655</ele>
        <time>2021-06-16T17:49:35Z</time>
      </trkpt>
      <trkpt lat="36.716157" lon="-4.530227">
        <ele>37.545</ele>
        <time>2021-06-16T17:49:37Z</time>
      </trkpt>
      <trkpt lat="36.716253" lon="-4.530306">
        <ele>37.481</ele>
        <time>2021-06-16T17:49:38Z</time>
      </trkpt>
      <trkpt lat="36.716446" lon="-4.530463">
        <ele>37.313</ele>
        <time>2021-06-16T17:49:40Z</time>
      </trkpt>
      <trkpt lat="36.716633" lon="-4.530614">
        <ele>37.592</ele>
        <time>2021-06-16T17:49:42Z</time>
      </trkpt>
      <trkpt lat="36.716722" lon="-4.530686">
        <ele>37.556</ele>
        <time>2021-06-16T17:49:43Z</time>
      </trkpt>
      <trkpt lat="36.716811" lon="-4.530756">
        <ele>37.775</ele>
        <time>2021-06-16T17:49:44Z</time>
      </trkpt>
      <trkpt lat="36.716897" lon="-4.530825">
        <ele>37.528</ele>
        <time>2021-06-16T17:49:45Z</time>
      </trkpt>
      <trkpt lat="36.717062" lon="-4.530957">
        <ele>37.320</ele>
        <time>2021-06-16T17:49:47Z</time>
      </trkpt>
      <trkpt lat="36.717142" lon="-4.531023">
        <ele>37.208</ele>
        <time>2021-06-16T17:49:48Z</time>
      </trkpt>
      <trkpt lat="36.717223" lon="-4.531091">
        <ele>37.134</ele>
        <time>2021-06-16T17:49:49Z</time>
      </trkpt>
      <trkpt lat="36.717393" lon="-4.531232">
        <ele>36.953</ele>
        <time>2021-06-16T17:49:51Z</time>
      </trkpt>
      <trkpt lat="36.717482" lon="-4.531304">
        <ele>36.957</ele>
        <time>2021-06-16T17:49:52Z</time>
      </trkpt>
      <trkpt lat="36.717667" lon="-4.531454">
        <ele>36.457</ele>
        <time>2021-06-16T17:49:54Z</time>
      </trkpt>
      <trkpt lat="36.717763" lon="-4.531534">
        <ele>35.933</ele>
        <time>2021-06-16T17:49:55Z</time>
      </trkpt>
      <trkpt lat="36.717949" lon="-4.531705">
        <ele>35.625</ele>
        <time>2021-06-16T17:49:57Z</time>
      </trkpt>
      <trkpt lat="36.718036" lon="-4.53179">
        <ele>35.744</ele>
        <time>2021-06-16T17:49:58Z</time>
      </trkpt>
      <trkpt lat="36.718186" lon="-4.531949">
        <ele>35.428</ele>
        <time>2021-06-16T17:50:00Z</time>
      </trkpt>
      <trkpt lat="36.718257" lon="-4.532032">
        <ele>35.396</ele>
        <time>2021-06-16T17:50:01Z</time>
      </trkpt>
      <trkpt lat="36.71842" lon="-4.532213">
        <ele>34.931</ele>
        <time>2021-06-16T17:50:03Z</time>
      </trkpt>
      <trkpt lat="36.718506" lon="-4.532308">
        <ele>34.824</ele>
        <time>2021-06-16T17:50:04Z</time>
      </trkpt>
      <trkpt lat="36.718594" lon="-4.532406">
        <ele>34.908</ele>
        <time>2021-06-16T17:50:05Z</time>
      </trkpt>
      <trkpt lat="36.718683" lon="-4.532509">
        <ele>35.086</ele>
        <time>2021-06-16T17:50:06Z</time>
      </trkpt>
      <trkpt lat="36.718856" lon="-4.532725">
        <ele>34.565</ele>
        <time>2021-06-16T17:50:08Z</time>
      </trkpt>
      <trkpt lat="36.718944" lon="-4.532832">
        <ele>34.259</ele>
        <time>2021-06-16T17:50:09Z</time>
      </trkpt>
      <trkpt lat="36.719116" lon="-4.533049">
        <ele>34.089</ele>
        <time>2021-06-16T17:50:11Z</time>
      </trkpt>
      <trkpt lat="36.719201" lon="-4.533154">
        <ele>34.135</ele>
        <time>2021-06-16T17:50:12Z</time>
      </trkpt>
      <trkpt lat="36.719365" lon="-4.533367">
        <ele>34.097</ele>
        <time>2021-06-16T17:50:14Z</time>
      </trkpt>
      <trkpt lat="36.719533" lon="-4.533579">
        <ele>34.236</ele>
        <time>2021-06-16T17:50:16Z</time>
      </trkpt>
      <trkpt lat="36.719619" lon="-4.533686">
        <ele>34.270</ele>
        <time>2021-06-16T17:50:17Z</time>
      </trkpt>
      <trkpt lat="36.719705" lon="-4.533792">
        <ele>34.141</ele>
        <time>2021-06-16T17:50:18Z</time>
      </trkpt>
      <trkpt lat="36.719874" lon="-4.534011">
        <ele>34.081</ele>
        <time>2021-06-16T17:50:20Z</time>
      </trkpt>
      <trkpt lat="36.719959" lon="-4.534122">
        <ele>34.109</ele>
        <time>2021-06-16T17:50:21Z</time>
      </trkpt>
      <trkpt lat="36.720144" lon="-4.534335">
        <ele>34.108</ele>
        <time>2021-06-16T17:50:23Z</time>
      </trkpt>
      <trkpt lat="36.720324" lon="-4.534526">
        <ele>34.681</ele>
        <time>2021-06-16T17:50:25Z</time>
      </trkpt>
      <trkpt lat="36.720512" lon="-4.534712">
        <ele>35.240</ele>
        <time>2021-06-16T17:50:27Z</time>
      </trkpt>
      <trkpt lat="36.720685" lon="-4.534901">
        <ele>35.934</ele>
        <time>2021-06-16T17:50:29Z</time>
      </trkpt>
      <trkpt lat="36.720859" lon="-4.53508">
        <ele>36.644</ele>
        <time>2021-06-16T17:50:31Z</time>
      </trkpt>
      <trkpt lat="36.720945" lon="-4.535169">
        <ele>37.190</ele>
        <time>2021-06-16T17:50:32Z</time>
      </trkpt>
      <trkpt lat="36.721112" lon="-4.535345">
        <ele>37.632</ele>
        <time>2021-06-16T17:50:34Z</time>
      </trkpt>
      <trkpt lat="36.721192" lon="-4.535429">
        <ele>38.051</ele>
        <time>2021-06-16T17:50:35Z</time>
      </trkpt>
      <trkpt lat="36.72127" lon="-4.535513">
        <ele>38.285</ele>
        <time>2021-06-16T17:50:36Z</time>
      </trkpt>
      <trkpt lat="36.721429" lon="-4.53567">
        <ele>38.392</ele>
        <time>2021-06-16T17:50:38Z</time>
      </trkpt>
      <trkpt lat="36.721504" lon="-4.535752">
        <ele>38.273</ele>
        <time>2021-06-16T17:50:39Z</time>
      </trkpt>
      <trkpt lat="36.721578" lon="-4.535832">
        <ele>38.120</ele>
        <time>2021-06-16T17:50:40Z</time>
      </trkpt>
      <trkpt lat="36.721652" lon="-4.53591">
        <ele>38.208</ele>
        <time>2021-06-16T17:50:41Z</time>
      </trkpt>
      <trkpt lat="36.721789" lon="-4.536055">
        <ele>38.536</ele>
        <time>2021-06-16T17:50:43Z</time>
      </trkpt>
      <trkpt lat="36.721908" lon="-4.536176">
        <ele>38.065</ele>
        <time>2021-06-16T17:50:45Z</time>
      </trkpt>
      <trkpt lat="36.721964" lon="-4.536241">
        <ele>37.759</ele>
        <time>2021-06-16T17:50:46Z</time>
      </trkpt>
      <trkpt lat="36.722068" lon="-4.536363">
        <ele>37.159</ele>
        <time>2021-06-16T17:50:48Z</time>
      </trkpt>
      <trkpt lat="36.722151" lon="-4.536481">
        <ele>36.715</ele>
        <time>2021-06-16T17:50:50Z</time>
      </trkpt>
      <trkpt lat="36.72219" lon="-4.536527">
        <ele>36.467</ele>
        <time>2021-06-16T17:50:51Z</time>
      </trkpt>
      <trkpt lat="36.722238" lon="-4.536583">
        <ele>35.866</ele>
        <time>2021-06-16T17:50:53Z</time>
      </trkpt>
      <trkpt lat="36.722288" lon="-4.536604">
        <ele>35.580</ele>
        <time>2021-06-16T17:51:16Z</time>
      </trkpt>
      <trkpt lat="36.722332" lon="-4.536651">
        <ele>35.327</ele>
        <time>2021-06-16T17:51:18Z</time>
      </trkpt>
      <trkpt lat="36.722396" lon="-4.536735">
        <ele>35.268</ele>
        <time>2021-06-16T17:51:20Z</time>
      </trkpt>
      <trkpt lat="36.722459" lon="-4.536819">
        <ele>35.114</ele>
        <time>2021-06-16T17:51:22Z</time>
      </trkpt>
      <trkpt lat="36.722514" lon="-4.53689">
        <ele>35.008</ele>
        <time>2021-06-16T17:51:24Z</time>
      </trkpt>
      <trkpt lat="36.722586" lon="-4.536991">
        <ele>34.919</ele>
        <time>2021-06-16T17:51:26Z</time>
      </trkpt>
      <trkpt lat="36.722628" lon="-4.537054">
        <ele>34.968</ele>
        <time>2021-06-16T17:51:27Z</time>
      </trkpt>
      <trkpt lat="36.72271" lon="-4.537178">
        <ele>34.942</ele>
        <time>2021-06-16T17:51:29Z</time>
      </trkpt>
      <trkpt lat="36.722751" lon="-4.537241">
        <ele>34.982</ele>
        <time>2021-06-16T17:51:30Z</time>
      </trkpt>
      <trkpt lat="36.722838" lon="-4.537353">
        <ele>34.958</ele>
        <time>2021-06-16T17:51:32Z</time>
      </trkpt>
      <trkpt lat="36.722925" lon="-4.53746">
        <ele>34.960</ele>
        <time>2021-06-16T17:51:34Z</time>
      </trkpt>
      <trkpt lat="36.722967" lon="-4.53752">
        <ele>34.999</ele>
        <time>2021-06-16T17:51:35Z</time>
      </trkpt>
      <trkpt lat="36.723014" lon="-4.537578">
        <ele>34.983</ele>
        <time>2021-06-16T17:51:36Z</time>
      </trkpt>
      <trkpt lat="36.723061" lon="-4.537636">
        <ele>34.934</ele>
        <time>2021-06-16T17:51:37Z</time>
      </trkpt>
      <trkpt lat="36.723105" lon="-4.537694">
        <ele>34.955</ele>
        <time>2021-06-16T17:51:38Z</time>
      </trkpt>
      <trkpt lat="36.723189" lon="-4.53781">
        <ele>34.910</ele>
        <time>2021-06-16T17:51:40Z</time>
      </trkpt>
      <trkpt lat="36.723231" lon="-4.537865">
        <ele>34.908</ele>
        <time>2021-06-16T17:51:41Z</time>
      </trkpt>
      <trkpt lat="36.723323" lon="-4.537976">
        <ele>34.950</ele>
        <time>2021-06-16T17:51:43Z</time>
      </trkpt>
      <trkpt lat="36.723428" lon="-4.538095">
        <ele>34.999</ele>
        <time>2021-06-16T17:51:45Z</time>
      </trkpt>
      <trkpt lat="36.723525" lon="-4.538226">
        <ele>34.943</ele>
        <time>2021-06-16T17:51:47Z</time>
      </trkpt>
      <trkpt lat="36.723572" lon="-4.538289">
        <ele>34.953</ele>
        <time>2021-06-16T17:51:48Z</time>
      </trkpt>
      <trkpt lat="36.72366" lon="-4.538408">
        <ele>34.969</ele>
        <time>2021-06-16T17:51:50Z</time>
      </trkpt>
      <trkpt lat="36.723705" lon="-4.538466">
        <ele>34.951</ele>
        <time>2021-06-16T17:51:51Z</time>
      </trkpt>
      <trkpt lat="36.723788" lon="-4.538575">
        <ele>34.980</ele>
        <time>2021-06-16T17:51:53Z</time>
      </trkpt>
      <trkpt lat="36.723859" lon="-4.53867">
        <ele>34.974</ele>
        <time>2021-06-16T17:51:55Z</time>
      </trkpt>
      <trkpt lat="36.723906" lon="-4.538734">
        <ele>34.981</ele>
        <time>2021-06-16T17:51:57Z</time>
      </trkpt>
      <trkpt lat="36.723897" lon="-4.538789">
        <ele>34.761</ele>
        <time>2021-06-16T17:52:28Z</time>
      </trkpt>
      <trkpt lat="36.723918" lon="-4.538844">
        <ele>34.717</ele>
        <time>2021-06-16T17:52:53Z</time>
      </trkpt>
      <trkpt lat="36.723951" lon="-4.538885">
        <ele>34.708</ele>
        <time>2021-06-16T17:52:55Z</time>
      </trkpt>
      <trkpt lat="36.72401" lon="-4.538955">
        <ele>34.755</ele>
        <time>2021-06-16T17:52:57Z</time>
      </trkpt>
      <trkpt lat="36.724054" lon="-4.539002">
        <ele>34.794</ele>
        <time>2021-06-16T17:52:58Z</time>
      </trkpt>
      <trkpt lat="36.724099" lon="-4.539051">
        <ele>34.748</ele>
        <time>2021-06-16T17:52:59Z</time>
      </trkpt>
      <trkpt lat="36.724187" lon="-4.539173">
        <ele>34.788</ele>
        <time>2021-06-16T17:53:01Z</time>
      </trkpt>
      <trkpt lat="36.724276" lon="-4.539297">
        <ele>34.714</ele>
        <time>2021-06-16T17:53:03Z</time>
      </trkpt>
      <trkpt lat="36.724324" lon="-4.539356">
        <ele>34.766</ele>
        <time>2021-06-16T17:53:04Z</time>
      </trkpt>
      <trkpt lat="36.72437" lon="-4.539414">
        <ele>34.765</ele>
        <time>2021-06-16T17:53:05Z</time>
      </trkpt>
      <trkpt lat="36.724456" lon="-4.539528">
        <ele>34.799</ele>
        <time>2021-06-16T17:53:07Z</time>
      </trkpt>
      <trkpt lat="36.724499" lon="-4.539585">
        <ele>34.745</ele>
        <time>2021-06-16T17:53:08Z</time>
      </trkpt>
      <trkpt lat="36.72458" lon="-4.539706">
        <ele>34.747</ele>
        <time>2021-06-16T17:53:10Z</time>
      </trkpt>
      <trkpt lat="36.72462" lon="-4.539763">
        <ele>34.711</ele>
        <time>2021-06-16T17:53:11Z</time>
      </trkpt>
      <trkpt lat="36.724694" lon="-4.539887">
        <ele>34.708</ele>
        <time>2021-06-16T17:53:13Z</time>
      </trkpt>
      <trkpt lat="36.724782" lon="-4.540018">
        <ele>34.781</ele>
        <time>2021-06-16T17:53:15Z</time>
      </trkpt>
      <trkpt lat="36.724832" lon="-4.540079">
        <ele>34.720</ele>
        <time>2021-06-16T17:53:16Z</time>
      </trkpt>
      <trkpt lat="36.72488" lon="-4.540145">
        <ele>34.754</ele>
        <time>2021-06-16T17:53:17Z</time>
      </trkpt>
      <trkpt lat="36.724927" lon="-4.540213">
        <ele>34.724</ele>
        <time>2021-06-16T17:53:18Z</time>
      </trkpt>
      <trkpt lat="36.725032" lon="-4.540346">
        <ele>34.790</ele>
        <time>2021-06-16T17:53:20Z</time>
      </trkpt>
      <trkpt lat="36.725127" lon="-4.54049">
        <ele>34.732</ele>
        <time>2021-06-16T17:53:22Z</time>
      </trkpt>
      <trkpt lat="36.725173" lon="-4.540566">
        <ele>34.781</ele>
        <time>2021-06-16T17:53:23Z</time>
      </trkpt>
      <trkpt lat="36.725275" lon="-4.540711">
        <ele>34.775</ele>
        <time>2021-06-16T17:53:25Z</time>
      </trkpt>
      <trkpt lat="36.725326" lon="-4.540783">
        <ele>34.785</ele>
        <time>2021-06-16T17:53:26Z</time>
      </trkpt>
      <trkpt lat="36.725427" lon="-4.540928">
        <ele>34.789</ele>
        <time>2021-06-16T17:53:28Z</time>
      </trkpt>
      <trkpt lat="36.725479" lon="-4.540999">
        <ele>34.717</ele>
        <time>2021-06-16T17:53:29Z</time>
      </trkpt>
      <trkpt lat="36.72553" lon="-4.54107">
        <ele>34.708</ele>
        <time>2021-06-16T17:53:30Z</time>
      </trkpt>
      <trkpt lat="36.725623" lon="-4.541212">
        <ele>34.775</ele>
        <time>2021-06-16T17:53:32Z</time>
      </trkpt>
      <trkpt lat="36.725674" lon="-4.54127">
        <ele>34.754</ele>
        <time>2021-06-16T17:53:33Z</time>
      </trkpt>
      <trkpt lat="36.725778" lon="-4.5414">
        <ele>34.778</ele>
        <time>2021-06-16T17:53:35Z</time>
      </trkpt>
      <trkpt lat="36.725884" lon="-4.541539">
        <ele>34.768</ele>
        <time>2021-06-16T17:53:37Z</time>
      </trkpt>
      <trkpt lat="36.725936" lon="-4.541611">
        <ele>34.764</ele>
        <time>2021-06-16T17:53:38Z</time>
      </trkpt>
      <trkpt lat="36.726031" lon="-4.541748">
        <ele>34.696</ele>
        <time>2021-06-16T17:53:40Z</time>
      </trkpt>
      <trkpt lat="36.726094" lon="-4.541841">
        <ele>34.665</ele>
        <time>2021-06-16T17:53:41Z</time>
      </trkpt>
      <trkpt lat="36.726164" lon="-4.541938">
        <ele>34.689</ele>
        <time>2021-06-16T17:53:43Z</time>
      </trkpt>
      <trkpt lat="36.726255" lon="-4.542063">
        <ele>34.622</ele>
        <time>2021-06-16T17:53:45Z</time>
      </trkpt>
      <trkpt lat="36.726304" lon="-4.542131">
        <ele>34.662</ele>
        <time>2021-06-16T17:53:46Z</time>
      </trkpt>
      <trkpt lat="36.726357" lon="-4.5422">
        <ele>34.608</ele>
        <time>2021-06-16T17:53:47Z</time>
      </trkpt>
      <trkpt lat="36.726473" lon="-4.542356">
        <ele>34.608</ele>
        <time>2021-06-16T17:53:49Z</time>
      </trkpt>
      <trkpt lat="36.726591" lon="-4.542521">
        <ele>34.679</ele>
        <time>2021-06-16T17:53:51Z</time>
      </trkpt>
      <trkpt lat="36.726704" lon="-4.542691">
        <ele>34.668</ele>
        <time>2021-06-16T17:53:53Z</time>
      </trkpt>
      <trkpt lat="36.726817" lon="-4.542841">
        <ele>34.662</ele>
        <time>2021-06-16T17:53:55Z</time>
      </trkpt>
      <trkpt lat="36.726923" lon="-4.542989">
        <ele>34.642</ele>
        <time>2021-06-16T17:53:57Z</time>
      </trkpt>
      <trkpt lat="36.72697" lon="-4.543066">
        <ele>34.688</ele>
        <time>2021-06-16T17:53:58Z</time>
      </trkpt>
      <trkpt lat="36.727016" lon="-4.543141">
        <ele>34.670</ele>
        <time>2021-06-16T17:53:59Z</time>
      </trkpt>
      <trkpt lat="36.727115" lon="-4.543288">
        <ele>34.699</ele>
        <time>2021-06-16T17:54:01Z</time>
      </trkpt>
      <trkpt lat="36.727206" lon="-4.543437">
        <ele>34.653</ele>
        <time>2021-06-16T17:54:03Z</time>
      </trkpt>
      <trkpt lat="36.727247" lon="-4.543516">
        <ele>34.658</ele>
        <time>2021-06-16T17:54:04Z</time>
      </trkpt>
      <trkpt lat="36.727294" lon="-4.543588">
        <ele>34.652</ele>
        <time>2021-06-16T17:54:05Z</time>
      </trkpt>
      <trkpt lat="36.727342" lon="-4.543657">
        <ele>34.617</ele>
        <time>2021-06-16T17:54:06Z</time>
      </trkpt>
      <trkpt lat="36.727434" lon="-4.543816">
        <ele>34.608</ele>
        <time>2021-06-16T17:54:08Z</time>
      </trkpt>
      <trkpt lat="36.727482" lon="-4.543912">
        <ele>34.672</ele>
        <time>2021-06-16T17:54:09Z</time>
      </trkpt>
      <trkpt lat="36.72759" lon="-4.544101">
        <ele>34.651</ele>
        <time>2021-06-16T17:54:11Z</time>
      </trkpt>
      <trkpt lat="36.727675" lon="-4.544245">
        <ele>34.665</ele>
        <time>2021-06-16T17:54:13Z</time>
      </trkpt>
      <trkpt lat="36.727718" lon="-4.544303">
        <ele>34.685</ele>
        <time>2021-06-16T17:54:15Z</time>
      </trkpt>
      <trkpt lat="36.727749" lon="-4.544361">
        <ele>34.631</ele>
        <time>2021-06-16T17:54:18Z</time>
      </trkpt>
      <trkpt lat="36.727803" lon="-4.544432">
        <ele>37.543</ele>
        <time>2021-06-16T17:54:48Z</time>
      </trkpt>
      <trkpt lat="36.72788" lon="-4.544563">
        <ele>39.322</ele>
        <time>2021-06-16T17:54:50Z</time>
      </trkpt>
      <trkpt lat="36.727977" lon="-4.544725">
        <ele>40.496</ele>
        <time>2021-06-16T17:54:52Z</time>
      </trkpt>
      <trkpt lat="36.72803" lon="-4.544808">
        <ele>41.044</ele>
        <time>2021-06-16T17:54:53Z</time>
      </trkpt>
      <trkpt lat="36.728132" lon="-4.54498">
        <ele>41.305</ele>
        <time>2021-06-16T17:54:55Z</time>
      </trkpt>
      <trkpt lat="36.728184" lon="-4.545072">
        <ele>41.515</ele>
        <time>2021-06-16T17:54:56Z</time>
      </trkpt>
      <trkpt lat="36.728287" lon="-4.545249">
        <ele>41.608</ele>
        <time>2021-06-16T17:54:58Z</time>
      </trkpt>
      <trkpt lat="36.728343" lon="-4.545335">
        <ele>41.621</ele>
        <time>2021-06-16T17:54:59Z</time>
      </trkpt>
      <trkpt lat="36.728447" lon="-4.545511">
        <ele>41.720</ele>
        <time>2021-06-16T17:55:01Z</time>
      </trkpt>
      <trkpt lat="36.728499" lon="-4.545602">
        <ele>41.844</ele>
        <time>2021-06-16T17:55:02Z</time>
      </trkpt>
      <trkpt lat="36.728551" lon="-4.545692">
        <ele>41.854</ele>
        <time>2021-06-16T17:55:03Z</time>
      </trkpt>
      <trkpt lat="36.728601" lon="-4.545786">
        <ele>41.870</ele>
        <time>2021-06-16T17:55:04Z</time>
      </trkpt>
      <trkpt lat="36.728701" lon="-4.545969">
        <ele>41.892</ele>
        <time>2021-06-16T17:55:06Z</time>
      </trkpt>
      <trkpt lat="36.728791" lon="-4.546156">
        <ele>41.851</ele>
        <time>2021-06-16T17:55:08Z</time>
      </trkpt>
      <trkpt lat="36.728838" lon="-4.54625">
        <ele>41.815</ele>
        <time>2021-06-16T17:55:09Z</time>
      </trkpt>
      <trkpt lat="36.728887" lon="-4.546341">
        <ele>41.872</ele>
        <time>2021-06-16T17:55:10Z</time>
      </trkpt>
      <trkpt lat="36.728935" lon="-4.54643">
        <ele>41.813</ele>
        <time>2021-06-16T17:55:11Z</time>
      </trkpt>
      <trkpt lat="36.729023" lon="-4.546621">
        <ele>41.814</ele>
        <time>2021-06-16T17:55:13Z</time>
      </trkpt>
      <trkpt lat="36.729069" lon="-4.54672">
        <ele>41.808</ele>
        <time>2021-06-16T17:55:14Z</time>
      </trkpt>
      <trkpt lat="36.729118" lon="-4.546823">
        <ele>41.844</ele>
        <time>2021-06-16T17:55:15Z</time>
      </trkpt>
      <trkpt lat="36.72917" lon="-4.546926">
        <ele>41.873</ele>
        <time>2021-06-16T17:55:16Z</time>
      </trkpt>
      <trkpt lat="36.72922" lon="-4.547033">
        <ele>41.867</ele>
        <time>2021-06-16T17:55:17Z</time>
      </trkpt>
      <trkpt lat="36.729317" lon="-4.547246">
        <ele>41.867</ele>
        <time>2021-06-16T17:55:19Z</time>
      </trkpt>
      <trkpt lat="36.729364" lon="-4.547353">
        <ele>41.823</ele>
        <time>2021-06-16T17:55:20Z</time>
      </trkpt>
      <trkpt lat="36.729463" lon="-4.547548">
        <ele>41.855</ele>
        <time>2021-06-16T17:55:22Z</time>
      </trkpt>
      <trkpt lat="36.729561" lon="-4.547739">
        <ele>41.894</ele>
        <time>2021-06-16T17:55:24Z</time>
      </trkpt>
      <trkpt lat="36.729651" lon="-4.547928">
        <ele>41.868</ele>
        <time>2021-06-16T17:55:26Z</time>
      </trkpt>
      <trkpt lat="36.729747" lon="-4.548126">
        <ele>41.894</ele>
        <time>2021-06-16T17:55:28Z</time>
      </trkpt>
      <trkpt lat="36.729844" lon="-4.548327">
        <ele>41.857</ele>
        <time>2021-06-16T17:55:30Z</time>
      </trkpt>
      <trkpt lat="36.729945" lon="-4.548525">
        <ele>41.822</ele>
        <time>2021-06-16T17:55:32Z</time>
      </trkpt>
      <trkpt lat="36.730059" lon="-4.548726">
        <ele>41.808</ele>
        <time>2021-06-16T17:55:34Z</time>
      </trkpt>
      <trkpt lat="36.730185" lon="-4.548925">
        <ele>41.856</ele>
        <time>2021-06-16T17:55:36Z</time>
      </trkpt>
      <trkpt lat="36.730313" lon="-4.549123">
        <ele>41.875</ele>
        <time>2021-06-16T17:55:38Z</time>
      </trkpt>
      <trkpt lat="36.730377" lon="-4.549222">
        <ele>41.899</ele>
        <time>2021-06-16T17:55:39Z</time>
      </trkpt>
      <trkpt lat="36.730496" lon="-4.54941">
        <ele>41.869</ele>
        <time>2021-06-16T17:55:41Z</time>
      </trkpt>
      <trkpt lat="36.73061" lon="-4.54958">
        <ele>41.875</ele>
        <time>2021-06-16T17:55:43Z</time>
      </trkpt>
      <trkpt lat="36.730662" lon="-4.54966">
        <ele>41.887</ele>
        <time>2021-06-16T17:55:44Z</time>
      </trkpt>
      <trkpt lat="36.730767" lon="-4.549815">
        <ele>45.896</ele>
        <time>2021-06-16T17:55:46Z</time>
      </trkpt>
      <trkpt lat="36.730873" lon="-4.549964">
        <ele>49.240</ele>
        <time>2021-06-16T17:55:48Z</time>
      </trkpt>
      <trkpt lat="36.730974" lon="-4.550096">
        <ele>51.483</ele>
        <time>2021-06-16T17:55:50Z</time>
      </trkpt>
      <trkpt lat="36.731048" lon="-4.550182">
        <ele>52.525</ele>
        <time>2021-06-16T17:55:52Z</time>
      </trkpt>
      <trkpt lat="36.731097" lon="-4.550207">
        <ele>53.417</ele>
        <time>2021-06-16T17:55:55Z</time>
      </trkpt>
      <trkpt lat="36.731167" lon="-4.550229">
        <ele>54.008</ele>
        <time>2021-06-16T17:56:05Z</time>
      </trkpt>
      <trkpt lat="36.731219" lon="-4.550248">
        <ele>54.475</ele>
        <time>2021-06-16T17:56:06Z</time>
      </trkpt>
      <trkpt lat="36.731281" lon="-4.550267">
        <ele>54.644</ele>
        <time>2021-06-16T17:56:07Z</time>
      </trkpt>
      <trkpt lat="36.731414" lon="-4.550345">
        <ele>54.748</ele>
        <time>2021-06-16T17:56:09Z</time>
      </trkpt>
      <trkpt lat="36.731467" lon="-4.550415">
        <ele>54.878</ele>
        <time>2021-06-16T17:56:10Z</time>
      </trkpt>
      <trkpt lat="36.73151" lon="-4.550606">
        <ele>54.974</ele>
        <time>2021-06-16T17:56:12Z</time>
      </trkpt>
      <trkpt lat="36.731498" lon="-4.550711">
        <ele>54.966</ele>
        <time>2021-06-16T17:56:13Z</time>
      </trkpt>
      <trkpt lat="36.73147" lon="-4.550813">
        <ele>54.975</ele>
        <time>2021-06-16T17:56:14Z</time>
      </trkpt>
      <trkpt lat="36.731439" lon="-4.551007">
        <ele>54.959</ele>
        <time>2021-06-16T17:56:16Z</time>
      </trkpt>
      <trkpt lat="36.731461" lon="-4.551098">
        <ele>54.942</ele>
        <time>2021-06-16T17:56:17Z</time>
      </trkpt>
      <trkpt lat="36.731504" lon="-4.551189">
        <ele>54.922</ele>
        <time>2021-06-16T17:56:18Z</time>
      </trkpt>
      <trkpt lat="36.731615" lon="-4.551378">
        <ele>54.914</ele>
        <time>2021-06-16T17:56:20Z</time>
      </trkpt>
      <trkpt lat="36.731721" lon="-4.551578">
        <ele>54.908</ele>
        <time>2021-06-16T17:56:22Z</time>
      </trkpt>
      <trkpt lat="36.731774" lon="-4.551681">
        <ele>54.941</ele>
        <time>2021-06-16T17:56:23Z</time>
      </trkpt>
      <trkpt lat="36.731878" lon="-4.551901">
        <ele>54.920</ele>
        <time>2021-06-16T17:56:25Z</time>
      </trkpt>
      <trkpt lat="36.731985" lon="-4.552145">
        <ele>54.954</ele>
        <time>2021-06-16T17:56:27Z</time>
      </trkpt>
      <trkpt lat="36.732041" lon="-4.552272">
        <ele>54.974</ele>
        <time>2021-06-16T17:56:28Z</time>
      </trkpt>
      <trkpt lat="36.732097" lon="-4.552405">
        <ele>54.930</ele>
        <time>2021-06-16T17:56:29Z</time>
      </trkpt>
      <trkpt lat="36.732203" lon="-4.552692">
        <ele>54.912</ele>
        <time>2021-06-16T17:56:31Z</time>
      </trkpt>
      <trkpt lat="36.732301" lon="-4.552994">
        <ele>54.921</ele>
        <time>2021-06-16T17:56:33Z</time>
      </trkpt>
      <trkpt lat="36.732391" lon="-4.553304">
        <ele>54.915</ele>
        <time>2021-06-16T17:56:35Z</time>
      </trkpt>
      <trkpt lat="36.732473" lon="-4.553623">
        <ele>54.977</ele>
        <time>2021-06-16T17:56:37Z</time>
      </trkpt>
      <trkpt lat="36.732543" lon="-4.553956">
        <ele>54.961</ele>
        <time>2021-06-16T17:56:39Z</time>
      </trkpt>
      <trkpt lat="36.732571" lon="-4.554125">
        <ele>54.927</ele>
        <time>2021-06-16T17:56:40Z</time>
      </trkpt>
      <trkpt lat="36.732618" lon="-4.554468">
        <ele>54.908</ele>
        <time>2021-06-16T17:56:42Z</time>
      </trkpt>
      <trkpt lat="36.732656" lon="-4.554815">
        <ele>54.954</ele>
        <time>2021-06-16T17:56:44Z</time>
      </trkpt>
      <trkpt lat="36.732669" lon="-4.554995">
        <ele>54.933</ele>
        <time>2021-06-16T17:56:45Z</time>
      </trkpt>
      <trkpt lat="36.732676" lon="-4.555177">
        <ele>54.927</ele>
        <time>2021-06-16T17:56:46Z</time>
      </trkpt>
      <trkpt lat="36.732683" lon="-4.555521">
        <ele>54.917</ele>
        <time>2021-06-16T17:56:48Z</time>
      </trkpt>
      <trkpt lat="36.732686" lon="-4.55569">
        <ele>54.953</ele>
        <time>2021-06-16T17:56:49Z</time>
      </trkpt>
      <trkpt lat="36.732692" lon="-4.556016">
        <ele>54.935</ele>
        <time>2021-06-16T17:56:51Z</time>
      </trkpt>
      <trkpt lat="36.73269" lon="-4.556181">
        <ele>54.964</ele>
        <time>2021-06-16T17:56:52Z</time>
      </trkpt>
      <trkpt lat="36.732687" lon="-4.556345">
        <ele>54.978</ele>
        <time>2021-06-16T17:56:53Z</time>
      </trkpt>
      <trkpt lat="36.732681" lon="-4.556678">
        <ele>54.988</ele>
        <time>2021-06-16T17:56:55Z</time>
      </trkpt>
      <trkpt lat="36.73268" lon="-4.556846">
        <ele>54.924</ele>
        <time>2021-06-16T17:56:56Z</time>
      </trkpt>
      <trkpt lat="36.732675" lon="-4.55718">
        <ele>54.926</ele>
        <time>2021-06-16T17:56:58Z</time>
      </trkpt>
      <trkpt lat="36.732674" lon="-4.557349">
        <ele>54.908</ele>
        <time>2021-06-16T17:56:59Z</time>
      </trkpt>
      <trkpt lat="36.732674" lon="-4.557517">
        <ele>55.555</ele>
        <time>2021-06-16T17:57:00Z</time>
      </trkpt>
      <trkpt lat="36.732675" lon="-4.557688">
        <ele>56.294</ele>
        <time>2021-06-16T17:57:01Z</time>
      </trkpt>
      <trkpt lat="36.732676" lon="-4.558027">
        <ele>56.618</ele>
        <time>2021-06-16T17:57:03Z</time>
      </trkpt>
      <trkpt lat="36.732675" lon="-4.558359">
        <ele>57.668</ele>
        <time>2021-06-16T17:57:05Z</time>
      </trkpt>
      <trkpt lat="36.732673" lon="-4.558526">
        <ele>58.174</ele>
        <time>2021-06-16T17:57:06Z</time>
      </trkpt>
      <trkpt lat="36.732668" lon="-4.55885">
        <ele>58.816</ele>
        <time>2021-06-16T17:57:08Z</time>
      </trkpt>
      <trkpt lat="36.732669" lon="-4.55901">
        <ele>59.575</ele>
        <time>2021-06-16T17:57:09Z</time>
      </trkpt>
      <trkpt lat="36.732673" lon="-4.559169">
        <ele>59.869</ele>
        <time>2021-06-16T17:57:10Z</time>
      </trkpt>
      <trkpt lat="36.732685" lon="-4.559472">
        <ele>59.956</ele>
        <time>2021-06-16T17:57:12Z</time>
      </trkpt>
      <trkpt lat="36.732699" lon="-4.559609">
        <ele>60.159</ele>
        <time>2021-06-16T17:57:13Z</time>
      </trkpt>
      <trkpt lat="36.73273" lon="-4.559849">
        <ele>60.114</ele>
        <time>2021-06-16T17:57:15Z</time>
      </trkpt>
      <trkpt lat="36.732748" lon="-4.559969">
        <ele>60.308</ele>
        <time>2021-06-16T17:57:16Z</time>
      </trkpt>
      <trkpt lat="36.732801" lon="-4.560199">
        <ele>60.522</ele>
        <time>2021-06-16T17:57:18Z</time>
      </trkpt>
      <trkpt lat="36.732869" lon="-4.560406">
        <ele>60.981</ele>
        <time>2021-06-16T17:57:20Z</time>
      </trkpt>
      <trkpt lat="36.732942" lon="-4.560604">
        <ele>61.035</ele>
        <time>2021-06-16T17:57:22Z</time>
      </trkpt>
      <trkpt lat="36.733027" lon="-4.560796">
        <ele>60.565</ele>
        <time>2021-06-16T17:57:24Z</time>
      </trkpt>
      <trkpt lat="36.733056" lon="-4.5609">
        <ele>60.581</ele>
        <time>2021-06-16T17:57:25Z</time>
      </trkpt>
      <trkpt lat="36.733075" lon="-4.561014">
        <ele>60.483</ele>
        <time>2021-06-16T17:57:26Z</time>
      </trkpt>
      <trkpt lat="36.733126" lon="-4.561262">
        <ele>59.982</ele>
        <time>2021-06-16T17:57:28Z</time>
      </trkpt>
      <trkpt lat="36.733158" lon="-4.561398">
        <ele>59.296</ele>
        <time>2021-06-16T17:57:29Z</time>
      </trkpt>
      <trkpt lat="36.73319" lon="-4.561537">
        <ele>58.673</ele>
        <time>2021-06-16T17:57:30Z</time>
      </trkpt>
      <trkpt lat="36.733243" lon="-4.561839">
        <ele>57.985</ele>
        <time>2021-06-16T17:57:32Z</time>
      </trkpt>
      <trkpt lat="36.733275" lon="-4.562154">
        <ele>56.813</ele>
        <time>2021-06-16T17:57:34Z</time>
      </trkpt>
      <trkpt lat="36.733286" lon="-4.562321">
        <ele>56.208</ele>
        <time>2021-06-16T17:57:35Z</time>
      </trkpt>
      <trkpt lat="36.733304" lon="-4.562658">
        <ele>54.644</ele>
        <time>2021-06-16T17:57:37Z</time>
      </trkpt>
      <trkpt lat="36.733323" lon="-4.562996">
        <ele>53.743</ele>
        <time>2021-06-16T17:57:39Z</time>
      </trkpt>
      <trkpt lat="36.733331" lon="-4.563168">
        <ele>53.087</ele>
        <time>2021-06-16T17:57:40Z</time>
      </trkpt>
      <trkpt lat="36.733332" lon="-4.563339">
        <ele>52.127</ele>
        <time>2021-06-16T17:57:41Z</time>
      </trkpt>
      <trkpt lat="36.733324" lon="-4.563674">
        <ele>51.153</ele>
        <time>2021-06-16T17:57:43Z</time>
      </trkpt>
      <trkpt lat="36.733312" lon="-4.564008">
        <ele>50.565</ele>
        <time>2021-06-16T17:57:45Z</time>
      </trkpt>
      <trkpt lat="36.733309" lon="-4.56417">
        <ele>50.124</ele>
        <time>2021-06-16T17:57:46Z</time>
      </trkpt>
      <trkpt lat="36.7333" lon="-4.564477">
        <ele>49.648</ele>
        <time>2021-06-16T17:57:48Z</time>
      </trkpt>
      <trkpt lat="36.733287" lon="-4.564761">
        <ele>49.382</ele>
        <time>2021-06-16T17:57:50Z</time>
      </trkpt>
      <trkpt lat="36.73327" lon="-4.564984">
        <ele>49.143</ele>
        <time>2021-06-16T17:57:52Z</time>
      </trkpt>
      <trkpt lat="36.733264" lon="-4.56507">
        <ele>48.817</ele>
        <time>2021-06-16T17:57:53Z</time>
      </trkpt>
      <trkpt lat="36.733261" lon="-4.565211">
        <ele>48.308</ele>
        <time>2021-06-16T17:57:55Z</time>
      </trkpt>
      <trkpt lat="36.733264" lon="-4.56537">
        <ele>47.985</ele>
        <time>2021-06-16T17:57:57Z</time>
      </trkpt>
      <trkpt lat="36.733232" lon="-4.565559">
        <ele>47.934</ele>
        <time>2021-06-16T17:57:59Z</time>
      </trkpt>
      <trkpt lat="36.733169" lon="-4.565761">
        <ele>47.778</ele>
        <time>2021-06-16T17:58:01Z</time>
      </trkpt>
      <trkpt lat="36.733138" lon="-4.565867">
        <ele>47.528</ele>
        <time>2021-06-16T17:58:02Z</time>
      </trkpt>
      <trkpt lat="36.733108" lon="-4.565978">
        <ele>47.534</ele>
        <time>2021-06-16T17:58:03Z</time>
      </trkpt>
      <trkpt lat="36.733054" lon="-4.566197">
        <ele>47.656</ele>
        <time>2021-06-16T17:58:05Z</time>
      </trkpt>
      <trkpt lat="36.733015" lon="-4.566401">
        <ele>47.495</ele>
        <time>2021-06-16T17:58:07Z</time>
      </trkpt>
      <trkpt lat="36.73298" lon="-4.566565">
        <ele>47.399</ele>
        <time>2021-06-16T17:58:09Z</time>
      </trkpt>
      <trkpt lat="36.732967" lon="-4.566633">
        <ele>47.647</ele>
        <time>2021-06-16T17:58:10Z</time>
      </trkpt>
      <trkpt lat="36.732953" lon="-4.566713">
        <ele>47.829</ele>
        <time>2021-06-16T17:58:12Z</time>
      </trkpt>
      <trkpt lat="36.732919" lon="-4.566669">
        <ele>47.221</ele>
        <time>2021-06-16T17:58:24Z</time>
      </trkpt>
      <trkpt lat="36.732899" lon="-4.566766">
        <ele>46.908</ele>
        <time>2021-06-16T17:58:38Z</time>
      </trkpt>
      <trkpt lat="36.73288" lon="-4.56686">
        <ele>46.741</ele>
        <time>2021-06-16T17:58:39Z</time>
      </trkpt>
      <trkpt lat="36.732856" lon="-4.566964">
        <ele>46.680</ele>
        <time>2021-06-16T17:58:40Z</time>
      </trkpt>
      <trkpt lat="36.732809" lon="-4.567195">
        <ele>46.574</ele>
        <time>2021-06-16T17:58:42Z</time>
      </trkpt>
      <trkpt lat="36.732789" lon="-4.567315">
        <ele>46.574</ele>
        <time>2021-06-16T17:58:43Z</time>
      </trkpt>
      <trkpt lat="36.732773" lon="-4.567438">
        <ele>46.520</ele>
        <time>2021-06-16T17:58:44Z</time>
      </trkpt>
      <trkpt lat="36.73276" lon="-4.567689">
        <ele>46.572</ele>
        <time>2021-06-16T17:58:46Z</time>
      </trkpt>
      <trkpt lat="36.732765" lon="-4.56795">
        <ele>46.591</ele>
        <time>2021-06-16T17:58:48Z</time>
      </trkpt>
      <trkpt lat="36.732776" lon="-4.568219">
        <ele>46.585</ele>
        <time>2021-06-16T17:58:50Z</time>
      </trkpt>
      <trkpt lat="36.732784" lon="-4.56848">
        <ele>46.526</ele>
        <time>2021-06-16T17:58:52Z</time>
      </trkpt>
      <trkpt lat="36.732802" lon="-4.568744">
        <ele>46.547</ele>
        <time>2021-06-16T17:58:54Z</time>
      </trkpt>
      <trkpt lat="36.732823" lon="-4.569025">
        <ele>46.511</ele>
        <time>2021-06-16T17:58:56Z</time>
      </trkpt>
      <trkpt lat="36.732842" lon="-4.569322">
        <ele>46.508</ele>
        <time>2021-06-16T17:58:58Z</time>
      </trkpt>
      <trkpt lat="36.732857" lon="-4.569626">
        <ele>46.589</ele>
        <time>2021-06-16T17:59:00Z</time>
      </trkpt>
      <trkpt lat="36.732868" lon="-4.569939">
        <ele>46.588</ele>
        <time>2021-06-16T17:59:02Z</time>
      </trkpt>
      <trkpt lat="36.732882" lon="-4.570256">
        <ele>46.582</ele>
        <time>2021-06-16T17:59:04Z</time>
      </trkpt>
      <trkpt lat="36.732895" lon="-4.570574">
        <ele>46.512</ele>
        <time>2021-06-16T17:59:06Z</time>
      </trkpt>
      <trkpt lat="36.732903" lon="-4.57073">
        <ele>46.518</ele>
        <time>2021-06-16T17:59:07Z</time>
      </trkpt>
      <trkpt lat="36.73294" lon="-4.57103">
        <ele>46.560</ele>
        <time>2021-06-16T17:59:09Z</time>
      </trkpt>
      <trkpt lat="36.732967" lon="-4.571177">
        <ele>46.599</ele>
        <time>2021-06-16T17:59:10Z</time>
      </trkpt>
      <trkpt lat="36.733003" lon="-4.57132">
        <ele>46.533</ele>
        <time>2021-06-16T17:59:11Z</time>
      </trkpt>
      <trkpt lat="36.733046" lon="-4.571461">
        <ele>46.528</ele>
        <time>2021-06-16T17:59:12Z</time>
      </trkpt>
      <trkpt lat="36.733092" lon="-4.571599">
        <ele>46.589</ele>
        <time>2021-06-16T17:59:13Z</time>
      </trkpt>
      <trkpt lat="36.73314" lon="-4.571732">
        <ele>46.517</ele>
        <time>2021-06-16T17:59:14Z</time>
      </trkpt>
      <trkpt lat="36.733244" lon="-4.571984">
        <ele>46.508</ele>
        <time>2021-06-16T17:59:16Z</time>
      </trkpt>
      <trkpt lat="36.733295" lon="-4.572107">
        <ele>46.539</ele>
        <time>2021-06-16T17:59:17Z</time>
      </trkpt>
      <trkpt lat="36.733396" lon="-4.572341">
        <ele>46.558</ele>
        <time>2021-06-16T17:59:19Z</time>
      </trkpt>
      <trkpt lat="36.733491" lon="-4.572564">
        <ele>46.592</ele>
        <time>2021-06-16T17:59:21Z</time>
      </trkpt>
      <trkpt lat="36.733578" lon="-4.572778">
        <ele>46.562</ele>
        <time>2021-06-16T17:59:23Z</time>
      </trkpt>
      <trkpt lat="36.733654" lon="-4.572961">
        <ele>46.558</ele>
        <time>2021-06-16T17:59:25Z</time>
      </trkpt>
      <trkpt lat="36.733709" lon="-4.573097">
        <ele>46.590</ele>
        <time>2021-06-16T17:59:27Z</time>
      </trkpt>
      <trkpt lat="36.733727" lon="-4.57315">
        <ele>46.529</ele>
        <time>2021-06-16T17:59:28Z</time>
      </trkpt>
      <trkpt lat="36.733747" lon="-4.573214">
        <ele>46.583</ele>
        <time>2021-06-16T17:59:30Z</time>
      </trkpt>
      <trkpt lat="36.733757" lon="-4.573283">
        <ele>46.649</ele>
        <time>2021-06-16T18:00:00Z</time>
      </trkpt>
      <trkpt lat="36.733795" lon="-4.573388">
        <ele>46.702</ele>
        <time>2021-06-16T18:00:02Z</time>
      </trkpt>
      <trkpt lat="36.733821" lon="-4.573467">
        <ele>46.822</ele>
        <time>2021-06-16T18:00:03Z</time>
      </trkpt>
      <trkpt lat="36.73388" lon="-4.57366">
        <ele>46.808</ele>
        <time>2021-06-16T18:00:05Z</time>
      </trkpt>
      <trkpt lat="36.733945" lon="-4.573874">
        <ele>46.881</ele>
        <time>2021-06-16T18:00:07Z</time>
      </trkpt>
      <trkpt lat="36.73401" lon="-4.574111">
        <ele>46.850</ele>
        <time>2021-06-16T18:00:09Z</time>
      </trkpt>
      <trkpt lat="36.734071" lon="-4.574354">
        <ele>46.874</ele>
        <time>2021-06-16T18:00:11Z</time>
      </trkpt>
      <trkpt lat="36.734118" lon="-4.574592">
        <ele>46.884</ele>
        <time>2021-06-16T18:00:13Z</time>
      </trkpt>
      <trkpt lat="36.734144" lon="-4.574829">
        <ele>46.820</ele>
        <time>2021-06-16T18:00:15Z</time>
      </trkpt>
      <trkpt lat="36.73415" lon="-4.57506">
        <ele>46.852</ele>
        <time>2021-06-16T18:00:17Z</time>
      </trkpt>
      <trkpt lat="36.734145" lon="-4.575177">
        <ele>46.831</ele>
        <time>2021-06-16T18:00:18Z</time>
      </trkpt>
      <trkpt lat="36.734123" lon="-4.575409">
        <ele>46.855</ele>
        <time>2021-06-16T18:00:20Z</time>
      </trkpt>
      <trkpt lat="36.734109" lon="-4.575525">
        <ele>46.833</ele>
        <time>2021-06-16T18:00:21Z</time>
      </trkpt>
      <trkpt lat="36.734091" lon="-4.575638">
        <ele>46.823</ele>
        <time>2021-06-16T18:00:22Z</time>
      </trkpt>
      <trkpt lat="36.73407" lon="-4.575751">
        <ele>46.815</ele>
        <time>2021-06-16T18:00:23Z</time>
      </trkpt>
      <trkpt lat="36.73403" lon="-4.575972">
        <ele>46.808</ele>
        <time>2021-06-16T18:00:25Z</time>
      </trkpt>
      <trkpt lat="36.734" lon="-4.576171">
        <ele>46.860</ele>
        <time>2021-06-16T18:00:27Z</time>
      </trkpt>
      <trkpt lat="36.733975" lon="-4.576321">
        <ele>46.859</ele>
        <time>2021-06-16T18:00:29Z</time>
      </trkpt>
      <trkpt lat="36.733952" lon="-4.576477">
        <ele>46.863</ele>
        <time>2021-06-16T18:00:31Z</time>
      </trkpt>
      <trkpt lat="36.733923" lon="-4.576661">
        <ele>46.813</ele>
        <time>2021-06-16T18:00:33Z</time>
      </trkpt>
      <trkpt lat="36.733891" lon="-4.576853">
        <ele>46.839</ele>
        <time>2021-06-16T18:00:35Z</time>
      </trkpt>
      <trkpt lat="36.733856" lon="-4.577058">
        <ele>46.831</ele>
        <time>2021-06-16T18:00:37Z</time>
      </trkpt>
      <trkpt lat="36.73382" lon="-4.57727">
        <ele>46.890</ele>
        <time>2021-06-16T18:00:39Z</time>
      </trkpt>
      <trkpt lat="36.733784" lon="-4.577484">
        <ele>46.824</ele>
        <time>2021-06-16T18:00:41Z</time>
      </trkpt>
      <trkpt lat="36.733766" lon="-4.577595">
        <ele>46.818</ele>
        <time>2021-06-16T18:00:42Z</time>
      </trkpt>
      <trkpt lat="36.73373" lon="-4.577816">
        <ele>46.898</ele>
        <time>2021-06-16T18:00:44Z</time>
      </trkpt>
      <trkpt lat="36.733693" lon="-4.578041">
        <ele>46.817</ele>
        <time>2021-06-16T18:00:46Z</time>
      </trkpt>
      <trkpt lat="36.733656" lon="-4.578266">
        <ele>46.808</ele>
        <time>2021-06-16T18:00:48Z</time>
      </trkpt>
      <trkpt lat="36.733621" lon="-4.57849">
        <ele>46.848</ele>
        <time>2021-06-16T18:00:50Z</time>
      </trkpt>
      <trkpt lat="36.733588" lon="-4.578722">
        <ele>46.837</ele>
        <time>2021-06-16T18:00:52Z</time>
      </trkpt>
      <trkpt lat="36.733546" lon="-4.578976">
        <ele>46.871</ele>
        <time>2021-06-16T18:00:54Z</time>
      </trkpt>
      <trkpt lat="36.733523" lon="-4.57911">
        <ele>46.851</ele>
        <time>2021-06-16T18:00:55Z</time>
      </trkpt>
      <trkpt lat="36.733475" lon="-4.579386">
        <ele>47.597</ele>
        <time>2021-06-16T18:00:57Z</time>
      </trkpt>
      <trkpt lat="36.733427" lon="-4.579665">
        <ele>47.799</ele>
        <time>2021-06-16T18:00:59Z</time>
      </trkpt>
      <trkpt lat="36.733378" lon="-4.579963">
        <ele>47.858</ele>
        <time>2021-06-16T18:01:01Z</time>
      </trkpt>
      <trkpt lat="36.733331" lon="-4.580261">
        <ele>47.572</ele>
        <time>2021-06-16T18:01:03Z</time>
      </trkpt>
      <trkpt lat="36.733308" lon="-4.580412">
        <ele>47.187</ele>
        <time>2021-06-16T18:01:04Z</time>
      </trkpt>
      <trkpt lat="36.733284" lon="-4.580566">
        <ele>46.642</ele>
        <time>2021-06-16T18:01:05Z</time>
      </trkpt>
      <trkpt lat="36.73326" lon="-4.580725">
        <ele>46.226</ele>
        <time>2021-06-16T18:01:06Z</time>
      </trkpt>
      <trkpt lat="36.733215" lon="-4.58105">
        <ele>45.608</ele>
        <time>2021-06-16T18:01:08Z</time>
      </trkpt>
      <trkpt lat="36.733193" lon="-4.581215">
        <ele>45.045</ele>
        <time>2021-06-16T18:01:09Z</time>
      </trkpt>
      <trkpt lat="36.733172" lon="-4.581378">
        <ele>44.484</ele>
        <time>2021-06-16T18:01:10Z</time>
      </trkpt>
      <trkpt lat="36.733131" lon="-4.581702">
        <ele>43.868</ele>
        <time>2021-06-16T18:01:12Z</time>
      </trkpt>
      <trkpt lat="36.73309" lon="-4.582029">
        <ele>43.288</ele>
        <time>2021-06-16T18:01:14Z</time>
      </trkpt>
      <trkpt lat="36.73307" lon="-4.582193">
        <ele>42.924</ele>
        <time>2021-06-16T18:01:15Z</time>
      </trkpt>
      <trkpt lat="36.73305" lon="-4.582361">
        <ele>42.896</ele>
        <time>2021-06-16T18:01:16Z</time>
      </trkpt>
      <trkpt lat="36.733031" lon="-4.582525">
        <ele>43.115</ele>
        <time>2021-06-16T18:01:17Z</time>
      </trkpt>
      <trkpt lat="36.733015" lon="-4.58268">
        <ele>43.229</ele>
        <time>2021-06-16T18:01:18Z</time>
      </trkpt>
      <trkpt lat="36.732995" lon="-4.582843">
        <ele>43.468</ele>
        <time>2021-06-16T18:01:19Z</time>
      </trkpt>
      <trkpt lat="36.732954" lon="-4.58314">
        <ele>43.242</ele>
        <time>2021-06-16T18:01:21Z</time>
      </trkpt>
      <trkpt lat="36.732897" lon="-4.583453">
        <ele>43.126</ele>
        <time>2021-06-16T18:01:23Z</time>
      </trkpt>
      <trkpt lat="36.732836" lon="-4.583758">
        <ele>43.608</ele>
        <time>2021-06-16T18:01:25Z</time>
      </trkpt>
      <trkpt lat="36.732777" lon="-4.584059">
        <ele>44.353</ele>
        <time>2021-06-16T18:01:27Z</time>
      </trkpt>
      <trkpt lat="36.73275" lon="-4.58421">
        <ele>45.082</ele>
        <time>2021-06-16T18:01:28Z</time>
      </trkpt>
      <trkpt lat="36.732714" lon="-4.58451">
        <ele>45.946</ele>
        <time>2021-06-16T18:01:30Z</time>
      </trkpt>
      <trkpt lat="36.732708" lon="-4.584659">
        <ele>47.046</ele>
        <time>2021-06-16T18:01:31Z</time>
      </trkpt>
      <trkpt lat="36.732715" lon="-4.584807">
        <ele>47.732</ele>
        <time>2021-06-16T18:01:32Z</time>
      </trkpt>
      <trkpt lat="36.732763" lon="-4.585094">
        <ele>48.724</ele>
        <time>2021-06-16T18:01:34Z</time>
      </trkpt>
      <trkpt lat="36.732798" lon="-4.585235">
        <ele>49.663</ele>
        <time>2021-06-16T18:01:35Z</time>
      </trkpt>
      <trkpt lat="36.73284" lon="-4.585373">
        <ele>50.337</ele>
        <time>2021-06-16T18:01:36Z</time>
      </trkpt>
      <trkpt lat="36.732939" lon="-4.585647">
        <ele>51.628</ele>
        <time>2021-06-16T18:01:38Z</time>
      </trkpt>
      <trkpt lat="36.733035" lon="-4.585925">
        <ele>53.189</ele>
        <time>2021-06-16T18:01:40Z</time>
      </trkpt>
      <trkpt lat="36.733075" lon="-4.586067">
        <ele>54.117</ele>
        <time>2021-06-16T18:01:41Z</time>
      </trkpt>
      <trkpt lat="36.733128" lon="-4.586359">
        <ele>55.008</ele>
        <time>2021-06-16T18:01:43Z</time>
      </trkpt>
      <trkpt lat="36.733141" lon="-4.586662">
        <ele>55.499</ele>
        <time>2021-06-16T18:01:45Z</time>
      </trkpt>
      <trkpt lat="36.733117" lon="-4.586986">
        <ele>55.718</ele>
        <time>2021-06-16T18:01:47Z</time>
      </trkpt>
      <trkpt lat="36.733057" lon="-4.587316">
        <ele>55.442</ele>
        <time>2021-06-16T18:01:49Z</time>
      </trkpt>
      <trkpt lat="36.732988" lon="-4.587645">
        <ele>54.562</ele>
        <time>2021-06-16T18:01:51Z</time>
      </trkpt>
      <trkpt lat="36.732916" lon="-4.587979">
        <ele>52.958</ele>
        <time>2021-06-16T18:01:53Z</time>
      </trkpt>
      <trkpt lat="36.732882" lon="-4.588146">
        <ele>51.950</ele>
        <time>2021-06-16T18:01:54Z</time>
      </trkpt>
      <trkpt lat="36.732812" lon="-4.58848">
        <ele>50.659</ele>
        <time>2021-06-16T18:01:56Z</time>
      </trkpt>
      <trkpt lat="36.732743" lon="-4.58882">
        <ele>49.333</ele>
        <time>2021-06-16T18:01:58Z</time>
      </trkpt>
      <trkpt lat="36.73271" lon="-4.58899">
        <ele>48.129</ele>
        <time>2021-06-16T18:01:59Z</time>
      </trkpt>
      <trkpt lat="36.732673" lon="-4.589159">
        <ele>47.300</ele>
        <time>2021-06-16T18:02:00Z</time>
      </trkpt>
      <trkpt lat="36.732637" lon="-4.589327">
        <ele>46.720</ele>
        <time>2021-06-16T18:02:01Z</time>
      </trkpt>
      <trkpt lat="36.73257" lon="-4.58966">
        <ele>45.908</ele>
        <time>2021-06-16T18:02:03Z</time>
      </trkpt>
      <trkpt lat="36.732537" lon="-4.589827">
        <ele>45.099</ele>
        <time>2021-06-16T18:02:04Z</time>
      </trkpt>
      <trkpt lat="36.732481" lon="-4.59016">
        <ele>44.148</ele>
        <time>2021-06-16T18:02:06Z</time>
      </trkpt>
      <trkpt lat="36.73246" lon="-4.590332">
        <ele>43.242</ele>
        <time>2021-06-16T18:02:07Z</time>
      </trkpt>
      <trkpt lat="36.732437" lon="-4.590676">
        <ele>42.762</ele>
        <time>2021-06-16T18:02:09Z</time>
      </trkpt>
      <trkpt lat="36.732423" lon="-4.591015">
        <ele>42.098</ele>
        <time>2021-06-16T18:02:11Z</time>
      </trkpt>
      <trkpt lat="36.732397" lon="-4.591351">
        <ele>42.130</ele>
        <time>2021-06-16T18:02:13Z</time>
      </trkpt>
      <trkpt lat="36.732371" lon="-4.591519">
        <ele>41.659</ele>
        <time>2021-06-16T18:02:14Z</time>
      </trkpt>
      <trkpt lat="36.732335" lon="-4.59168">
        <ele>41.673</ele>
        <time>2021-06-16T18:02:15Z</time>
      </trkpt>
      <trkpt lat="36.73229" lon="-4.591832">
        <ele>41.342</ele>
        <time>2021-06-16T18:02:16Z</time>
      </trkpt>
      <trkpt lat="36.732171" lon="-4.592119">
        <ele>40.822</ele>
        <time>2021-06-16T18:02:18Z</time>
      </trkpt>
      <trkpt lat="36.732095" lon="-4.592253">
        <ele>40.314</ele>
        <time>2021-06-16T18:02:19Z</time>
      </trkpt>
      <trkpt lat="36.732012" lon="-4.592376">
        <ele>40.008</ele>
        <time>2021-06-16T18:02:20Z</time>
      </trkpt>
      <trkpt lat="36.731831" lon="-4.592595">
        <ele>40.221</ele>
        <time>2021-06-16T18:02:22Z</time>
      </trkpt>
      <trkpt lat="36.731731" lon="-4.592697">
        <ele>40.120</ele>
        <time>2021-06-16T18:02:23Z</time>
      </trkpt>
      <trkpt lat="36.731637" lon="-4.5928">
        <ele>40.364</ele>
        <time>2021-06-16T18:02:24Z</time>
      </trkpt>
      <trkpt lat="36.731456" lon="-4.593015">
        <ele>40.224</ele>
        <time>2021-06-16T18:02:26Z</time>
      </trkpt>
      <trkpt lat="36.731378" lon="-4.593141">
        <ele>40.150</ele>
        <time>2021-06-16T18:02:27Z</time>
      </trkpt>
      <trkpt lat="36.73126" lon="-4.593415">
        <ele>40.492</ele>
        <time>2021-06-16T18:02:29Z</time>
      </trkpt>
      <trkpt lat="36.731189" lon="-4.593718">
        <ele>40.491</ele>
        <time>2021-06-16T18:02:31Z</time>
      </trkpt>
      <trkpt lat="36.73117" lon="-4.593881">
        <ele>40.495</ele>
        <time>2021-06-16T18:02:32Z</time>
      </trkpt>
      <trkpt lat="36.73117" lon="-4.594214">
        <ele>40.424</ele>
        <time>2021-06-16T18:02:34Z</time>
      </trkpt>
      <trkpt lat="36.731196" lon="-4.59455">
        <ele>40.104</ele>
        <time>2021-06-16T18:02:36Z</time>
      </trkpt>
      <trkpt lat="36.731208" lon="-4.594718">
        <ele>40.114</ele>
        <time>2021-06-16T18:02:37Z</time>
      </trkpt>
      <trkpt lat="36.731217" lon="-4.594883">
        <ele>40.008</ele>
        <time>2021-06-16T18:02:38Z</time>
      </trkpt>
      <trkpt lat="36.731225" lon="-4.595046">
        <ele>40.169</ele>
        <time>2021-06-16T18:02:39Z</time>
      </trkpt>
      <trkpt lat="36.731233" lon="-4.595207">
        <ele>40.248</ele>
        <time>2021-06-16T18:02:40Z</time>
      </trkpt>
      <trkpt lat="36.731253" lon="-4.595521">
        <ele>40.442</ele>
        <time>2021-06-16T18:02:42Z</time>
      </trkpt>
      <trkpt lat="36.731264" lon="-4.595678">
        <ele>40.422</ele>
        <time>2021-06-16T18:02:43Z</time>
      </trkpt>
      <trkpt lat="36.731289" lon="-4.595989">
        <ele>40.648</ele>
        <time>2021-06-16T18:02:45Z</time>
      </trkpt>
      <trkpt lat="36.731357" lon="-4.596276">
        <ele>41.230</ele>
        <time>2021-06-16T18:02:47Z</time>
      </trkpt>
      <trkpt lat="36.731476" lon="-4.596544">
        <ele>41.319</ele>
        <time>2021-06-16T18:02:49Z</time>
      </trkpt>
      <trkpt lat="36.731557" lon="-4.596661">
        <ele>41.673</ele>
        <time>2021-06-16T18:02:50Z</time>
      </trkpt>
      <trkpt lat="36.731752" lon="-4.596843">
        <ele>41.466</ele>
        <time>2021-06-16T18:02:52Z</time>
      </trkpt>
      <trkpt lat="36.731862" lon="-4.596917">
        <ele>41.229</ele>
        <time>2021-06-16T18:02:53Z</time>
      </trkpt>
      <trkpt lat="36.732097" lon="-4.597042">
        <ele>41.121</ele>
        <time>2021-06-16T18:02:55Z</time>
      </trkpt>
      <trkpt lat="36.732337" lon="-4.597154">
        <ele>41.208</ele>
        <time>2021-06-16T18:02:57Z</time>
      </trkpt>
      <trkpt lat="36.732455" lon="-4.597209">
        <ele>41.283</ele>
        <time>2021-06-16T18:02:58Z</time>
      </trkpt>
      <trkpt lat="36.732687" lon="-4.59732">
        <ele>41.292</ele>
        <time>2021-06-16T18:03:00Z</time>
      </trkpt>
      <trkpt lat="36.732803" lon="-4.597374">
        <ele>41.676</ele>
        <time>2021-06-16T18:03:01Z</time>
      </trkpt>
      <trkpt lat="36.733032" lon="-4.597482">
        <ele>41.966</ele>
        <time>2021-06-16T18:03:03Z</time>
      </trkpt>
      <trkpt lat="36.733146" lon="-4.597538">
        <ele>42.322</ele>
        <time>2021-06-16T18:03:04Z</time>
      </trkpt>
      <trkpt lat="36.733372" lon="-4.597649">
        <ele>42.724</ele>
        <time>2021-06-16T18:03:06Z</time>
      </trkpt>
      <trkpt lat="36.733592" lon="-4.597755">
        <ele>43.033</ele>
        <time>2021-06-16T18:03:08Z</time>
      </trkpt>
      <trkpt lat="36.7338" lon="-4.597857">
        <ele>43.257</ele>
        <time>2021-06-16T18:03:10Z</time>
      </trkpt>
      <trkpt lat="36.733899" lon="-4.597906">
        <ele>43.488</ele>
        <time>2021-06-16T18:03:11Z</time>
      </trkpt>
      <trkpt lat="36.734092" lon="-4.597993">
        <ele>43.424</ele>
        <time>2021-06-16T18:03:13Z</time>
      </trkpt>
      <trkpt lat="36.734187" lon="-4.598029">
        <ele>43.526</ele>
        <time>2021-06-16T18:03:14Z</time>
      </trkpt>
      <trkpt lat="36.734376" lon="-4.598069">
        <ele>43.608</ele>
        <time>2021-06-16T18:03:16Z</time>
      </trkpt>
      <trkpt lat="36.734468" lon="-4.598074">
        <ele>43.715</ele>
        <time>2021-06-16T18:03:17Z</time>
      </trkpt>
      <trkpt lat="36.734553" lon="-4.598097">
        <ele>43.924</ele>
        <time>2021-06-16T18:03:18Z</time>
      </trkpt>
      <trkpt lat="36.734674" lon="-4.598221">
        <ele>43.898</ele>
        <time>2021-06-16T18:03:20Z</time>
      </trkpt>
      <trkpt lat="36.73471" lon="-4.598428">
        <ele>44.218</ele>
        <time>2021-06-16T18:03:22Z</time>
      </trkpt>
      <trkpt lat="36.734731" lon="-4.598664">
        <ele>44.174</ele>
        <time>2021-06-16T18:03:24Z</time>
      </trkpt>
      <trkpt lat="36.734763" lon="-4.598785">
        <ele>43.966</ele>
        <time>2021-06-16T18:03:25Z</time>
      </trkpt>
      <trkpt lat="36.734804" lon="-4.598909">
        <ele>43.495</ele>
        <time>2021-06-16T18:03:26Z</time>
      </trkpt>
      <trkpt lat="36.734902" lon="-4.599161">
        <ele>43.159</ele>
        <time>2021-06-16T18:03:28Z</time>
      </trkpt>
      <trkpt lat="36.734952" lon="-4.599291">
        <ele>43.162</ele>
        <time>2021-06-16T18:03:29Z</time>
      </trkpt>
      <trkpt lat="36.735003" lon="-4.599422">
        <ele>42.983</ele>
        <time>2021-06-16T18:03:30Z</time>
      </trkpt>
      <trkpt lat="36.735111" lon="-4.599686">
        <ele>43.111</ele>
        <time>2021-06-16T18:03:32Z</time>
      </trkpt>
      <trkpt lat="36.735163" lon="-4.599822">
        <ele>43.108</ele>
        <time>2021-06-16T18:03:33Z</time>
      </trkpt>
      <trkpt lat="36.735215" lon="-4.59996">
        <ele>43.013</ele>
        <time>2021-06-16T18:03:34Z</time>
      </trkpt>
      <trkpt lat="36.735266" lon="-4.600096">
        <ele>43.022</ele>
        <time>2021-06-16T18:03:35Z</time>
      </trkpt>
      <trkpt lat="36.735319" lon="-4.600233">
        <ele>43.096</ele>
        <time>2021-06-16T18:03:36Z</time>
      </trkpt>
      <trkpt lat="36.735428" lon="-4.600502">
        <ele>42.836</ele>
        <time>2021-06-16T18:03:38Z</time>
      </trkpt>
      <trkpt lat="36.735483" lon="-4.600637">
        <ele>42.732</ele>
        <time>2021-06-16T18:03:39Z</time>
      </trkpt>
      <trkpt lat="36.735586" lon="-4.600909">
        <ele>43.084</ele>
        <time>2021-06-16T18:03:41Z</time>
      </trkpt>
      <trkpt lat="36.735637" lon="-4.601043">
        <ele>43.323</ele>
        <time>2021-06-16T18:03:42Z</time>
      </trkpt>
      <trkpt lat="36.735741" lon="-4.601312">
        <ele>43.597</ele>
        <time>2021-06-16T18:03:44Z</time>
      </trkpt>
      <trkpt lat="36.735847" lon="-4.601583">
        <ele>43.473</ele>
        <time>2021-06-16T18:03:46Z</time>
      </trkpt>
      <trkpt lat="36.735953" lon="-4.601853">
        <ele>43.185</ele>
        <time>2021-06-16T18:03:48Z</time>
      </trkpt>
      <trkpt lat="36.736007" lon="-4.601988">
        <ele>42.713</ele>
        <time>2021-06-16T18:03:49Z</time>
      </trkpt>
      <trkpt lat="36.736114" lon="-4.602258">
        <ele>42.508</ele>
        <time>2021-06-16T18:03:51Z</time>
      </trkpt>
      <trkpt lat="36.736209" lon="-4.602523">
        <ele>42.514</ele>
        <time>2021-06-16T18:03:53Z</time>
      </trkpt>
      <trkpt lat="36.736251" lon="-4.602655">
        <ele>42.663</ele>
        <time>2021-06-16T18:03:54Z</time>
      </trkpt>
      <trkpt lat="36.73632" lon="-4.602922">
        <ele>43.137</ele>
        <time>2021-06-16T18:03:56Z</time>
      </trkpt>
      <trkpt lat="36.736368" lon="-4.60319">
        <ele>43.187</ele>
        <time>2021-06-16T18:03:58Z</time>
      </trkpt>
      <trkpt lat="36.736385" lon="-4.603319">
        <ele>43.463</ele>
        <time>2021-06-16T18:03:59Z</time>
      </trkpt>
      <trkpt lat="36.736412" lon="-4.603535">
        <ele>43.575</ele>
        <time>2021-06-16T18:04:01Z</time>
      </trkpt>
      <trkpt lat="36.736432" lon="-4.6037">
        <ele>43.544</ele>
        <time>2021-06-16T18:04:03Z</time>
      </trkpt>
      <trkpt lat="36.736447" lon="-4.603828">
        <ele>44.118</ele>
        <time>2021-06-16T18:04:05Z</time>
      </trkpt>
      <trkpt lat="36.73646" lon="-4.603977">
        <ele>44.474</ele>
        <time>2021-06-16T18:04:07Z</time>
      </trkpt>
      <trkpt lat="36.736472" lon="-4.604069">
        <ele>45.256</ele>
        <time>2021-06-16T18:04:08Z</time>
      </trkpt>
      <trkpt lat="36.736498" lon="-4.604276">
        <ele>45.621</ele>
        <time>2021-06-16T18:04:10Z</time>
      </trkpt>
      <trkpt lat="36.736519" lon="-4.604497">
        <ele>46.008</ele>
        <time>2021-06-16T18:04:12Z</time>
      </trkpt>
      <trkpt lat="36.736527" lon="-4.604604">
        <ele>46.674</ele>
        <time>2021-06-16T18:04:13Z</time>
      </trkpt>
      <trkpt lat="36.736539" lon="-4.604707">
        <ele>46.643</ele>
        <time>2021-06-16T18:04:14Z</time>
      </trkpt>
      <trkpt lat="36.736572" lon="-4.604903">
        <ele>46.557</ele>
        <time>2021-06-16T18:04:16Z</time>
      </trkpt>
      <trkpt lat="36.736585" lon="-4.605">
        <ele>46.517</ele>
        <time>2021-06-16T18:04:17Z</time>
      </trkpt>
      <trkpt lat="36.736593" lon="-4.605093">
        <ele>46.223</ele>
        <time>2021-06-16T18:04:18Z</time>
      </trkpt>
      <trkpt lat="36.736612" lon="-4.60526">
        <ele>46.055</ele>
        <time>2021-06-16T18:04:20Z</time>
      </trkpt>
      <trkpt lat="36.736633" lon="-4.605425">
        <ele>45.854</ele>
        <time>2021-06-16T18:04:22Z</time>
      </trkpt>
      <trkpt lat="36.736645" lon="-4.605517">
        <ele>45.458</ele>
        <time>2021-06-16T18:04:23Z</time>
      </trkpt>
      <trkpt lat="36.736669" lon="-4.605713">
        <ele>45.219</ele>
        <time>2021-06-16T18:04:25Z</time>
      </trkpt>
      <trkpt lat="36.736682" lon="-4.605817">
        <ele>45.409</ele>
        <time>2021-06-16T18:04:26Z</time>
      </trkpt>
      <trkpt lat="36.736694" lon="-4.605926">
        <ele>45.419</ele>
        <time>2021-06-16T18:04:27Z</time>
      </trkpt>
      <trkpt lat="36.736717" lon="-4.606146">
        <ele>45.208</ele>
        <time>2021-06-16T18:04:29Z</time>
      </trkpt>
      <trkpt lat="36.736743" lon="-4.606329">
        <ele>45.278</ele>
        <time>2021-06-16T18:04:31Z</time>
      </trkpt>
      <trkpt lat="36.736759" lon="-4.606422">
        <ele>45.157</ele>
        <time>2021-06-16T18:04:32Z</time>
      </trkpt>
      <trkpt lat="36.736786" lon="-4.606625">
        <ele>44.841</ele>
        <time>2021-06-16T18:04:34Z</time>
      </trkpt>
      <trkpt lat="36.736799" lon="-4.606725">
        <ele>44.891</ele>
        <time>2021-06-16T18:04:35Z</time>
      </trkpt>
      <trkpt lat="36.736825" lon="-4.606901">
        <ele>44.977</ele>
        <time>2021-06-16T18:04:37Z</time>
      </trkpt>
      <trkpt lat="36.736833" lon="-4.606979">
        <ele>44.859</ele>
        <time>2021-06-16T18:04:38Z</time>
      </trkpt>
      <trkpt lat="36.736852" lon="-4.607142">
        <ele>44.598</ele>
        <time>2021-06-16T18:04:40Z</time>
      </trkpt>
      <trkpt lat="36.736865" lon="-4.607231">
        <ele>44.432</ele>
        <time>2021-06-16T18:04:41Z</time>
      </trkpt>
      <trkpt lat="36.736877" lon="-4.607328">
        <ele>44.077</ele>
        <time>2021-06-16T18:04:42Z</time>
      </trkpt>
      <trkpt lat="36.736887" lon="-4.607429">
        <ele>44.261</ele>
        <time>2021-06-16T18:04:43Z</time>
      </trkpt>
      <trkpt lat="36.736897" lon="-4.607523">
        <ele>44.027</ele>
        <time>2021-06-16T18:04:44Z</time>
      </trkpt>
      <trkpt lat="36.736917" lon="-4.607674">
        <ele>44.108</ele>
        <time>2021-06-16T18:04:46Z</time>
      </trkpt>
      <trkpt lat="36.73693" lon="-4.607809">
        <ele>44.064</ele>
        <time>2021-06-16T18:04:48Z</time>
      </trkpt>
      <trkpt lat="36.736945" lon="-4.607976">
        <ele>43.813</ele>
        <time>2021-06-16T18:04:50Z</time>
      </trkpt>
      <trkpt lat="36.736955" lon="-4.608168">
        <ele>43.837</ele>
        <time>2021-06-16T18:04:52Z</time>
      </trkpt>
      <trkpt lat="36.736954" lon="-4.608269">
        <ele>43.767</ele>
        <time>2021-06-16T18:04:53Z</time>
      </trkpt>
      <trkpt lat="36.736947" lon="-4.608371">
        <ele>43.753</ele>
        <time>2021-06-16T18:04:54Z</time>
      </trkpt>
      <trkpt lat="36.736938" lon="-4.608471">
        <ele>43.675</ele>
        <time>2021-06-16T18:04:55Z</time>
      </trkpt>
      <trkpt lat="36.73691" lon="-4.608653">
        <ele>43.924</ele>
        <time>2021-06-16T18:04:57Z</time>
      </trkpt>
      <trkpt lat="36.736882" lon="-4.608796">
        <ele>44.078</ele>
        <time>2021-06-16T18:04:59Z</time>
      </trkpt>
      <trkpt lat="36.73686" lon="-4.608873">
        <ele>43.944</ele>
        <time>2021-06-16T18:05:01Z</time>
      </trkpt>
      <trkpt lat="36.736816" lon="-4.608986">
        <ele>43.605</ele>
        <time>2021-06-16T18:05:03Z</time>
      </trkpt>
      <trkpt lat="36.736754" lon="-4.609141">
        <ele>43.215</ele>
        <time>2021-06-16T18:05:05Z</time>
      </trkpt>
      <trkpt lat="36.736675" lon="-4.609326">
        <ele>42.808</ele>
        <time>2021-06-16T18:05:07Z</time>
      </trkpt>
      <trkpt lat="36.736592" lon="-4.609526">
        <ele>42.981</ele>
        <time>2021-06-16T18:05:09Z</time>
      </trkpt>
      <trkpt lat="36.736499" lon="-4.609715">
        <ele>42.740</ele>
        <time>2021-06-16T18:05:11Z</time>
      </trkpt>
      <trkpt lat="36.736408" lon="-4.609904">
        <ele>43.014</ele>
        <time>2021-06-16T18:05:13Z</time>
      </trkpt>
      <trkpt lat="36.736366" lon="-4.609999">
        <ele>43.184</ele>
        <time>2021-06-16T18:05:14Z</time>
      </trkpt>
      <trkpt lat="36.736323" lon="-4.610096">
        <ele>42.810</ele>
        <time>2021-06-16T18:05:15Z</time>
      </trkpt>
      <trkpt lat="36.736224" lon="-4.6103">
        <ele>43.192</ele>
        <time>2021-06-16T18:05:17Z</time>
      </trkpt>
      <trkpt lat="36.73612" lon="-4.610518">
        <ele>43.381</ele>
        <time>2021-06-16T18:05:19Z</time>
      </trkpt>
      <trkpt lat="36.736017" lon="-4.61074">
        <ele>43.715</ele>
        <time>2021-06-16T18:05:21Z</time>
      </trkpt>
      <trkpt lat="36.735963" lon="-4.610853">
        <ele>44.042</ele>
        <time>2021-06-16T18:05:22Z</time>
      </trkpt>
      <trkpt lat="36.735907" lon="-4.610963">
        <ele>44.222</ele>
        <time>2021-06-16T18:05:23Z</time>
      </trkpt>
      <trkpt lat="36.735783" lon="-4.611181">
        <ele>44.614</ele>
        <time>2021-06-16T18:05:25Z</time>
      </trkpt>
      <trkpt lat="36.735637" lon="-4.611384">
        <ele>44.908</ele>
        <time>2021-06-16T18:05:27Z</time>
      </trkpt>
      <trkpt lat="36.735487" lon="-4.611566">
        <ele>45.351</ele>
        <time>2021-06-16T18:05:29Z</time>
      </trkpt>
      <trkpt lat="36.735324" lon="-4.611748">
        <ele>45.840</ele>
        <time>2021-06-16T18:05:31Z</time>
      </trkpt>
      <trkpt lat="36.73516" lon="-4.611928">
        <ele>45.364</ele>
        <time>2021-06-16T18:05:33Z</time>
      </trkpt>
      <trkpt lat="36.735" lon="-4.6121">
        <ele>45.594</ele>
        <time>2021-06-16T18:05:35Z</time>
      </trkpt>
      <trkpt lat="36.734842" lon="-4.612242">
        <ele>46.080</ele>
        <time>2021-06-16T18:05:37Z</time>
      </trkpt>
      <trkpt lat="36.734763" lon="-4.612302">
        <ele>45.892</ele>
        <time>2021-06-16T18:05:38Z</time>
      </trkpt>
      <trkpt lat="36.734691" lon="-4.612356">
        <ele>45.921</ele>
        <time>2021-06-16T18:05:39Z</time>
      </trkpt>
      <trkpt lat="36.73456" lon="-4.612441">
        <ele>45.775</ele>
        <time>2021-06-16T18:05:41Z</time>
      </trkpt>
      <trkpt lat="36.734453" lon="-4.612489">
        <ele>45.324</ele>
        <time>2021-06-16T18:05:43Z</time>
      </trkpt>
      <trkpt lat="36.734402" lon="-4.612507">
        <ele>45.004</ele>
        <time>2021-06-16T18:05:45Z</time>
      </trkpt>
      <trkpt lat="36.734336" lon="-4.612541">
        <ele>43.914</ele>
        <time>2021-06-16T18:06:17Z</time>
      </trkpt>
      <trkpt lat="36.734222" lon="-4.612574">
        <ele>43.208</ele>
        <time>2021-06-16T18:06:19Z</time>
      </trkpt>
      <trkpt lat="36.734152" lon="-4.6126">
        <ele>42.899</ele>
        <time>2021-06-16T18:06:20Z</time>
      </trkpt>
      <trkpt lat="36.734007" lon="-4.612642">
        <ele>42.638</ele>
        <time>2021-06-16T18:06:22Z</time>
      </trkpt>
      <trkpt lat="36.733933" lon="-4.612659">
        <ele>42.522</ele>
        <time>2021-06-16T18:06:23Z</time>
      </trkpt>
      <trkpt lat="36.733863" lon="-4.612678">
        <ele>42.492</ele>
        <time>2021-06-16T18:06:24Z</time>
      </trkpt>
      <trkpt lat="36.73372" lon="-4.612716">
        <ele>42.328</ele>
        <time>2021-06-16T18:06:26Z</time>
      </trkpt>
      <trkpt lat="36.733574" lon="-4.612767">
        <ele>42.230</ele>
        <time>2021-06-16T18:06:28Z</time>
      </trkpt>
      <trkpt lat="36.7335" lon="-4.612795">
        <ele>42.159</ele>
        <time>2021-06-16T18:06:29Z</time>
      </trkpt>
      <trkpt lat="36.733359" lon="-4.612858">
        <ele>42.163</ele>
        <time>2021-06-16T18:06:31Z</time>
      </trkpt>
      <trkpt lat="36.733229" lon="-4.612917">
        <ele>42.137</ele>
        <time>2021-06-16T18:06:33Z</time>
      </trkpt>
      <trkpt lat="36.733169" lon="-4.61295">
        <ele>42.149</ele>
        <time>2021-06-16T18:06:34Z</time>
      </trkpt>
      <trkpt lat="36.733064" lon="-4.613029">
        <ele>42.113</ele>
        <time>2021-06-16T18:06:36Z</time>
      </trkpt>
      <trkpt lat="36.733008" lon="-4.613089">
        <ele>42.108</ele>
        <time>2021-06-16T18:06:38Z</time>
      </trkpt>
      <trkpt lat="36.732947" lon="-4.613162">
        <ele>42.130</ele>
        <time>2021-06-16T18:06:40Z</time>
      </trkpt>
      <trkpt lat="36.732899" lon="-4.613213">
        <ele>42.149</ele>
        <time>2021-06-16T18:06:41Z</time>
      </trkpt>
      <trkpt lat="36.732787" lon="-4.613243">
        <ele>42.173</ele>
        <time>2021-06-16T18:06:43Z</time>
      </trkpt>
      <trkpt lat="36.732699" lon="-4.613144">
        <ele>42.163</ele>
        <time>2021-06-16T18:06:45Z</time>
      </trkpt>
      <trkpt lat="36.732667" lon="-4.613073">
        <ele>42.199</ele>
        <time>2021-06-16T18:06:46Z</time>
      </trkpt>
      <trkpt lat="36.732633" lon="-4.613">
        <ele>42.151</ele>
        <time>2021-06-16T18:06:47Z</time>
      </trkpt>
      <trkpt lat="36.73254" lon="-4.612883">
        <ele>42.130</ele>
        <time>2021-06-16T18:06:49Z</time>
      </trkpt>
      <trkpt lat="36.732483" lon="-4.612843">
        <ele>42.144</ele>
        <time>2021-06-16T18:06:50Z</time>
      </trkpt>
      <trkpt lat="36.732427" lon="-4.612813">
        <ele>42.152</ele>
        <time>2021-06-16T18:06:51Z</time>
      </trkpt>
      <trkpt lat="36.732374" lon="-4.612789">
        <ele>42.153</ele>
        <time>2021-06-16T18:06:52Z</time>
      </trkpt>
      <trkpt lat="36.732268" lon="-4.612748">
        <ele>42.108</ele>
        <time>2021-06-16T18:06:54Z</time>
      </trkpt>
      <trkpt lat="36.732209" lon="-4.612727">
        <ele>42.108</ele>
        <time>2021-06-16T18:06:55Z</time>
      </trkpt>
      <trkpt lat="36.732079" lon="-4.612682">
        <ele>42.182</ele>
        <time>2021-06-16T18:06:57Z</time>
      </trkpt>
      <trkpt lat="36.732011" lon="-4.612659">
        <ele>42.121</ele>
        <time>2021-06-16T18:06:58Z</time>
      </trkpt>
      <trkpt lat="36.731856" lon="-4.6126">
        <ele>42.145</ele>
        <time>2021-06-16T18:07:00Z</time>
      </trkpt>
      <trkpt lat="36.731776" lon="-4.612571">
        <ele>42.145</ele>
        <time>2021-06-16T18:07:01Z</time>
      </trkpt>
      <trkpt lat="36.731692" lon="-4.612544">
        <ele>42.131</ele>
        <time>2021-06-16T18:07:02Z</time>
      </trkpt>
      <trkpt lat="36.731608" lon="-4.612518">
        <ele>42.193</ele>
        <time>2021-06-16T18:07:03Z</time>
      </trkpt>
      <trkpt lat="36.731435" lon="-4.612467">
        <ele>42.192</ele>
        <time>2021-06-16T18:07:05Z</time>
      </trkpt>
      <trkpt lat="36.73135" lon="-4.61245">
        <ele>42.146</ele>
        <time>2021-06-16T18:07:06Z</time>
      </trkpt>
      <trkpt lat="36.731176" lon="-4.612439">
        <ele>42.151</ele>
        <time>2021-06-16T18:07:08Z</time>
      </trkpt>
      <trkpt lat="36.73109" lon="-4.612443">
        <ele>42.101</ele>
        <time>2021-06-16T18:07:09Z</time>
      </trkpt>
      <trkpt lat="36.731007" lon="-4.612451">
        <ele>42.111</ele>
        <time>2021-06-16T18:07:10Z</time>
      </trkpt>
      <trkpt lat="36.730848" lon="-4.612478">
        <ele>42.108</ele>
        <time>2021-06-16T18:07:12Z</time>
      </trkpt>
      <trkpt lat="36.730778" lon="-4.612496">
        <ele>42.132</ele>
        <time>2021-06-16T18:07:13Z</time>
      </trkpt>
      <trkpt lat="36.730671" lon="-4.612554">
        <ele>42.171</ele>
        <time>2021-06-16T18:07:15Z</time>
      </trkpt>
      <trkpt lat="36.730575" lon="-4.61264">
        <ele>41.625</ele>
        <time>2021-06-16T18:07:17Z</time>
      </trkpt>
      <trkpt lat="36.730532" lon="-4.612697">
        <ele>41.085</ele>
        <time>2021-06-16T18:07:18Z</time>
      </trkpt>
      <trkpt lat="36.730445" lon="-4.612797">
        <ele>40.751</ele>
        <time>2021-06-16T18:07:20Z</time>
      </trkpt>
      <trkpt lat="36.730323" lon="-4.61281">
        <ele>40.543</ele>
        <time>2021-06-16T18:07:22Z</time>
      </trkpt>
      <trkpt lat="36.73019" lon="-4.612823">
        <ele>40.522</ele>
        <time>2021-06-16T18:07:24Z</time>
      </trkpt>
      <trkpt lat="36.730053" lon="-4.612907">
        <ele>40.566</ele>
        <time>2021-06-16T18:07:26Z</time>
      </trkpt>
      <trkpt lat="36.729982" lon="-4.612968">
        <ele>40.669</ele>
        <time>2021-06-16T18:07:27Z</time>
      </trkpt>
      <trkpt lat="36.729823" lon="-4.613107">
        <ele>40.704</ele>
        <time>2021-06-16T18:07:29Z</time>
      </trkpt>
      <trkpt lat="36.729654" lon="-4.613251">
        <ele>40.924</ele>
        <time>2021-06-16T18:07:31Z</time>
      </trkpt>
      <trkpt lat="36.729565" lon="-4.613325">
        <ele>41.008</ele>
        <time>2021-06-16T18:07:32Z</time>
      </trkpt>
      <trkpt lat="36.729474" lon="-4.613397">
        <ele>40.613</ele>
        <time>2021-06-16T18:07:33Z</time>
      </trkpt>
      <trkpt lat="36.729287" lon="-4.613531">
        <ele>40.382</ele>
        <time>2021-06-16T18:07:35Z</time>
      </trkpt>
      <trkpt lat="36.729099" lon="-4.613674">
        <ele>40.296</ele>
        <time>2021-06-16T18:07:37Z</time>
      </trkpt>
      <trkpt lat="36.729008" lon="-4.613752">
        <ele>40.216</ele>
        <time>2021-06-16T18:07:38Z</time>
      </trkpt>
      <trkpt lat="36.728833" lon="-4.613897">
        <ele>40.042</ele>
        <time>2021-06-16T18:07:40Z</time>
      </trkpt>
      <trkpt lat="36.728651" lon="-4.614035">
        <ele>40.014</ele>
        <time>2021-06-16T18:07:42Z</time>
      </trkpt>
      <trkpt lat="36.728554" lon="-4.614105">
        <ele>39.633</ele>
        <time>2021-06-16T18:07:43Z</time>
      </trkpt>
      <trkpt lat="36.728456" lon="-4.614178">
        <ele>39.127</ele>
        <time>2021-06-16T18:07:44Z</time>
      </trkpt>
      <trkpt lat="36.728251" lon="-4.614338">
        <ele>38.389</ele>
        <time>2021-06-16T18:07:46Z</time>
      </trkpt>
      <trkpt lat="36.728035" lon="-4.614507">
        <ele>37.806</ele>
        <time>2021-06-16T18:07:48Z</time>
      </trkpt>
      <trkpt lat="36.727924" lon="-4.614591">
        <ele>37.626</ele>
        <time>2021-06-16T18:07:49Z</time>
      </trkpt>
      <trkpt lat="36.727711" lon="-4.614756">
        <ele>37.608</ele>
        <time>2021-06-16T18:07:51Z</time>
      </trkpt>
      <trkpt lat="36.727505" lon="-4.614917">
        <ele>37.745</ele>
        <time>2021-06-16T18:07:53Z</time>
      </trkpt>
      <trkpt lat="36.727399" lon="-4.614989">
        <ele>37.694</ele>
        <time>2021-06-16T18:07:54Z</time>
      </trkpt>
      <trkpt lat="36.72718" lon="-4.61511">
        <ele>37.528</ele>
        <time>2021-06-16T18:07:56Z</time>
      </trkpt>
      <trkpt lat="36.727067" lon="-4.615159">
        <ele>37.118</ele>
        <time>2021-06-16T18:07:57Z</time>
      </trkpt>
      <trkpt lat="36.726831" lon="-4.615226">
        <ele>37.244</ele>
        <time>2021-06-16T18:07:59Z</time>
      </trkpt>
      <trkpt lat="36.726709" lon="-4.615242">
        <ele>37.576</ele>
        <time>2021-06-16T18:08:00Z</time>
      </trkpt>
      <trkpt lat="36.726465" lon="-4.615244">
        <ele>37.725</ele>
        <time>2021-06-16T18:08:02Z</time>
      </trkpt>
      <trkpt lat="36.726344" lon="-4.61524">
        <ele>38.159</ele>
        <time>2021-06-16T18:08:03Z</time>
      </trkpt>
      <trkpt lat="36.726224" lon="-4.615234">
        <ele>37.974</ele>
        <time>2021-06-16T18:08:04Z</time>
      </trkpt>
      <trkpt lat="36.725996" lon="-4.615223">
        <ele>37.756</ele>
        <time>2021-06-16T18:08:06Z</time>
      </trkpt>
      <trkpt lat="36.725776" lon="-4.615213">
        <ele>37.921</ele>
        <time>2021-06-16T18:08:08Z</time>
      </trkpt>
      <trkpt lat="36.725664" lon="-4.615211">
        <ele>37.908</ele>
        <time>2021-06-16T18:08:09Z</time>
      </trkpt>
      <trkpt lat="36.72555" lon="-4.615211">
        <ele>38.234</ele>
        <time>2021-06-16T18:08:10Z</time>
      </trkpt>
      <trkpt lat="36.725323" lon="-4.615207">
        <ele>38.553</ele>
        <time>2021-06-16T18:08:12Z</time>
      </trkpt>
      <trkpt lat="36.725098" lon="-4.615208">
        <ele>38.687</ele>
        <time>2021-06-16T18:08:14Z</time>
      </trkpt>
      <trkpt lat="36.724986" lon="-4.615207">
        <ele>38.667</ele>
        <time>2021-06-16T18:08:15Z</time>
      </trkpt>
      <trkpt lat="36.724878" lon="-4.615205">
        <ele>38.713</ele>
        <time>2021-06-16T18:08:16Z</time>
      </trkpt>
      <trkpt lat="36.724773" lon="-4.615206">
        <ele>38.785</ele>
        <time>2021-06-16T18:08:17Z</time>
      </trkpt>
      <trkpt lat="36.724571" lon="-4.615211">
        <ele>38.814</ele>
        <time>2021-06-16T18:08:19Z</time>
      </trkpt>
      <trkpt lat="36.72438" lon="-4.615213">
        <ele>39.038</ele>
        <time>2021-06-16T18:08:21Z</time>
      </trkpt>
      <trkpt lat="36.724288" lon="-4.61521">
        <ele>39.082</ele>
        <time>2021-06-16T18:08:22Z</time>
      </trkpt>
      <trkpt lat="36.72411" lon="-4.6152">
        <ele>38.843</ele>
        <time>2021-06-16T18:08:24Z</time>
      </trkpt>
      <trkpt lat="36.723939" lon="-4.615195">
        <ele>38.517</ele>
        <time>2021-06-16T18:08:26Z</time>
      </trkpt>
      <trkpt lat="36.72377" lon="-4.615199">
        <ele>38.808</ele>
        <time>2021-06-16T18:08:28Z</time>
      </trkpt>
      <trkpt lat="36.723603" lon="-4.615197">
        <ele>38.715</ele>
        <time>2021-06-16T18:08:30Z</time>
      </trkpt>
      <trkpt lat="36.723438" lon="-4.615194">
        <ele>38.814</ele>
        <time>2021-06-16T18:08:32Z</time>
      </trkpt>
      <trkpt lat="36.723358" lon="-4.615194">
        <ele>39.238</ele>
        <time>2021-06-16T18:08:33Z</time>
      </trkpt>
      <trkpt lat="36.723282" lon="-4.615192">
        <ele>39.448</ele>
        <time>2021-06-16T18:08:34Z</time>
      </trkpt>
      <trkpt lat="36.723211" lon="-4.615192">
        <ele>39.784</ele>
        <time>2021-06-16T18:08:35Z</time>
      </trkpt>
      <trkpt lat="36.723147" lon="-4.615194">
        <ele>39.616</ele>
        <time>2021-06-16T18:08:36Z</time>
      </trkpt>
      <trkpt lat="36.723089" lon="-4.615208">
        <ele>40.265</ele>
        <time>2021-06-16T18:08:37Z</time>
      </trkpt>
      <trkpt lat="36.722987" lon="-4.615296">
        <ele>40.979</ele>
        <time>2021-06-16T18:08:39Z</time>
      </trkpt>
      <trkpt lat="36.722865" lon="-4.615381">
        <ele>41.235</ele>
        <time>2021-06-16T18:08:41Z</time>
      </trkpt>
      <trkpt lat="36.722794" lon="-4.61538">
        <ele>41.586</ele>
        <time>2021-06-16T18:08:42Z</time>
      </trkpt>
      <trkpt lat="36.722733" lon="-4.615348">
        <ele>41.614</ele>
        <time>2021-06-16T18:08:43Z</time>
      </trkpt>
      <trkpt lat="36.722657" lon="-4.61522">
        <ele>41.808</ele>
        <time>2021-06-16T18:08:45Z</time>
      </trkpt>
      <trkpt lat="36.722658" lon="-4.615059">
        <ele>41.770</ele>
        <time>2021-06-16T18:08:47Z</time>
      </trkpt>
      <trkpt lat="36.722683" lon="-4.614981">
        <ele>41.719</ele>
        <time>2021-06-16T18:08:48Z</time>
      </trkpt>
      <trkpt lat="36.72278" lon="-4.614856">
        <ele>41.713</ele>
        <time>2021-06-16T18:08:50Z</time>
      </trkpt>
      <trkpt lat="36.722874" lon="-4.614725">
        <ele>41.633</ele>
        <time>2021-06-16T18:08:52Z</time>
      </trkpt>
      <trkpt lat="36.722889" lon="-4.614636">
        <ele>41.449</ele>
        <time>2021-06-16T18:08:53Z</time>
      </trkpt>
      <trkpt lat="36.722898" lon="-4.614442">
        <ele>41.621</ele>
        <time>2021-06-16T18:08:55Z</time>
      </trkpt>
      <trkpt lat="36.722904" lon="-4.614347">
        <ele>41.390</ele>
        <time>2021-06-16T18:08:56Z</time>
      </trkpt>
      <trkpt lat="36.722914" lon="-4.61425">
        <ele>41.034</ele>
        <time>2021-06-16T18:08:57Z</time>
      </trkpt>
      <trkpt lat="36.722933" lon="-4.614052">
        <ele>41.424</ele>
        <time>2021-06-16T18:08:59Z</time>
      </trkpt>
      <trkpt lat="36.722944" lon="-4.613952">
        <ele>41.804</ele>
        <time>2021-06-16T18:09:00Z</time>
      </trkpt>
      <trkpt lat="36.722971" lon="-4.613741">
        <ele>42.114</ele>
        <time>2021-06-16T18:09:02Z</time>
      </trkpt>
      <trkpt lat="36.722985" lon="-4.613631">
        <ele>42.308</ele>
        <time>2021-06-16T18:09:03Z</time>
      </trkpt>
      <trkpt lat="36.723016" lon="-4.613401">
        <ele>42.959</ele>
        <time>2021-06-16T18:09:05Z</time>
      </trkpt>
      <trkpt lat="36.723052" lon="-4.613165">
        <ele>44.028</ele>
        <time>2021-06-16T18:09:07Z</time>
      </trkpt>
      <trkpt lat="36.723074" lon="-4.613046">
        <ele>45.012</ele>
        <time>2021-06-16T18:09:08Z</time>
      </trkpt>
      <trkpt lat="36.723125" lon="-4.612803">
        <ele>45.992</ele>
        <time>2021-06-16T18:09:10Z</time>
      </trkpt>
      <trkpt lat="36.72315" lon="-4.612679">
        <ele>46.548</ele>
        <time>2021-06-16T18:09:11Z</time>
      </trkpt>
      <trkpt lat="36.723177" lon="-4.612556">
        <ele>47.350</ele>
        <time>2021-06-16T18:09:12Z</time>
      </trkpt>
      <trkpt lat="36.723204" lon="-4.612434">
        <ele>48.059</ele>
        <time>2021-06-16T18:09:13Z</time>
      </trkpt>
      <trkpt lat="36.723251" lon="-4.612184">
        <ele>48.873</ele>
        <time>2021-06-16T18:09:15Z</time>
      </trkpt>
      <trkpt lat="36.723277" lon="-4.612059">
        <ele>49.323</ele>
        <time>2021-06-16T18:09:16Z</time>
      </trkpt>
      <trkpt lat="36.723304" lon="-4.611932">
        <ele>49.983</ele>
        <time>2021-06-16T18:09:17Z</time>
      </trkpt>
      <trkpt lat="36.723329" lon="-4.611803">
        <ele>50.611</ele>
        <time>2021-06-16T18:09:18Z</time>
      </trkpt>
      <trkpt lat="36.723383" lon="-4.61155">
        <ele>51.308</ele>
        <time>2021-06-16T18:09:20Z</time>
      </trkpt>
      <trkpt lat="36.723434" lon="-4.611299">
        <ele>52.029</ele>
        <time>2021-06-16T18:09:22Z</time>
      </trkpt>
      <trkpt lat="36.723455" lon="-4.611046">
        <ele>52.958</ele>
        <time>2021-06-16T18:09:24Z</time>
      </trkpt>
      <trkpt lat="36.723446" lon="-4.61092">
        <ele>54.112</ele>
        <time>2021-06-16T18:09:25Z</time>
      </trkpt>
      <trkpt lat="36.723396" lon="-4.610664">
        <ele>55.382</ele>
        <time>2021-06-16T18:09:27Z</time>
      </trkpt>
      <trkpt lat="36.72335" lon="-4.610541">
        <ele>56.418</ele>
        <time>2021-06-16T18:09:28Z</time>
      </trkpt>
      <trkpt lat="36.723226" lon="-4.610322">
        <ele>57.790</ele>
        <time>2021-06-16T18:09:30Z</time>
      </trkpt>
      <trkpt lat="36.72315" lon="-4.61023">
        <ele>58.729</ele>
        <time>2021-06-16T18:09:31Z</time>
      </trkpt>
      <trkpt lat="36.722971" lon="-4.610092">
        <ele>59.813</ele>
        <time>2021-06-16T18:09:33Z</time>
      </trkpt>
      <trkpt lat="36.722777" lon="-4.61001">
        <ele>61.165</ele>
        <time>2021-06-16T18:09:35Z</time>
      </trkpt>
      <trkpt lat="36.722576" lon="-4.609973">
        <ele>62.268</ele>
        <time>2021-06-16T18:09:37Z</time>
      </trkpt>
      <trkpt lat="36.722363" lon="-4.609954">
        <ele>63.014</ele>
        <time>2021-06-16T18:09:39Z</time>
      </trkpt>
      <trkpt lat="36.722143" lon="-4.609944">
        <ele>63.608</ele>
        <time>2021-06-16T18:09:41Z</time>
      </trkpt>
      <trkpt lat="36.722038" lon="-4.609936">
        <ele>64.023</ele>
        <time>2021-06-16T18:09:42Z</time>
      </trkpt>
      <trkpt lat="36.721825" lon="-4.609912">
        <ele>64.452</ele>
        <time>2021-06-16T18:09:44Z</time>
      </trkpt>
      <trkpt lat="36.721607" lon="-4.609885">
        <ele>64.736</ele>
        <time>2021-06-16T18:09:46Z</time>
      </trkpt>
      <trkpt lat="36.721404" lon="-4.609839">
        <ele>65.066</ele>
        <time>2021-06-16T18:09:48Z</time>
      </trkpt>
      <trkpt lat="36.721307" lon="-4.609802">
        <ele>65.062</ele>
        <time>2021-06-16T18:09:49Z</time>
      </trkpt>
      <trkpt lat="36.72112" lon="-4.609692">
        <ele>65.614</ele>
        <time>2021-06-16T18:09:51Z</time>
      </trkpt>
      <trkpt lat="36.720945" lon="-4.609543">
        <ele>66.083</ele>
        <time>2021-06-16T18:09:53Z</time>
      </trkpt>
      <trkpt lat="36.720865" lon="-4.609456">
        <ele>66.487</ele>
        <time>2021-06-16T18:09:54Z</time>
      </trkpt>
      <trkpt lat="36.720736" lon="-4.609268">
        <ele>67.233</ele>
        <time>2021-06-16T18:09:56Z</time>
      </trkpt>
      <trkpt lat="36.720676" lon="-4.609041">
        <ele>68.123</ele>
        <time>2021-06-16T18:09:58Z</time>
      </trkpt>
      <trkpt lat="36.720686" lon="-4.608919">
        <ele>68.415</ele>
        <time>2021-06-16T18:09:59Z</time>
      </trkpt>
      <trkpt lat="36.720708" lon="-4.608786">
        <ele>68.808</ele>
        <time>2021-06-16T18:10:00Z</time>
      </trkpt>
      <trkpt lat="36.720743" lon="-4.608498">
        <ele>68.950</ele>
        <time>2021-06-16T18:10:02Z</time>
      </trkpt>
      <trkpt lat="36.720755" lon="-4.608196">
        <ele>69.249</ele>
        <time>2021-06-16T18:10:04Z</time>
      </trkpt>
      <trkpt lat="36.72076" lon="-4.608041">
        <ele>69.533</ele>
        <time>2021-06-16T18:10:05Z</time>
      </trkpt>
      <trkpt lat="36.720769" lon="-4.607723">
        <ele>69.933</ele>
        <time>2021-06-16T18:10:07Z</time>
      </trkpt>
      <trkpt lat="36.720774" lon="-4.607559">
        <ele>70.359</ele>
        <time>2021-06-16T18:10:08Z</time>
      </trkpt>
      <trkpt lat="36.720784" lon="-4.60724">
        <ele>70.631</ele>
        <time>2021-06-16T18:10:10Z</time>
      </trkpt>
      <trkpt lat="36.720787" lon="-4.60708">
        <ele>70.420</ele>
        <time>2021-06-16T18:10:11Z</time>
      </trkpt>
      <trkpt lat="36.720789" lon="-4.606919">
        <ele>70.234</ele>
        <time>2021-06-16T18:10:12Z</time>
      </trkpt>
      <trkpt lat="36.720785" lon="-4.606598">
        <ele>69.657</ele>
        <time>2021-06-16T18:10:14Z</time>
      </trkpt>
      <trkpt lat="36.720765" lon="-4.606276">
        <ele>68.900</ele>
        <time>2021-06-16T18:10:16Z</time>
      </trkpt>
      <trkpt lat="36.720748" lon="-4.606117">
        <ele>68.320</ele>
        <time>2021-06-16T18:10:17Z</time>
      </trkpt>
      <trkpt lat="36.720727" lon="-4.605958">
        <ele>68.008</ele>
        <time>2021-06-16T18:10:18Z</time>
      </trkpt>
      <trkpt lat="36.720675" lon="-4.605642">
        <ele>67.492</ele>
        <time>2021-06-16T18:10:20Z</time>
      </trkpt>
      <trkpt lat="36.720622" lon="-4.605336">
        <ele>66.941</ele>
        <time>2021-06-16T18:10:22Z</time>
      </trkpt>
      <trkpt lat="36.720562" lon="-4.60503">
        <ele>66.525</ele>
        <time>2021-06-16T18:10:24Z</time>
      </trkpt>
      <trkpt lat="36.720503" lon="-4.60473">
        <ele>65.555</ele>
        <time>2021-06-16T18:10:26Z</time>
      </trkpt>
      <trkpt lat="36.720475" lon="-4.604585">
        <ele>65.061</ele>
        <time>2021-06-16T18:10:27Z</time>
      </trkpt>
      <trkpt lat="36.720434" lon="-4.604355">
        <ele>64.153</ele>
        <time>2021-06-16T18:10:29Z</time>
      </trkpt>
      <trkpt lat="36.720415" lon="-4.604259">
        <ele>63.212</ele>
        <time>2021-06-16T18:10:30Z</time>
      </trkpt>
      <trkpt lat="36.720373" lon="-4.604058">
        <ele>62.726</ele>
        <time>2021-06-16T18:10:32Z</time>
      </trkpt>
      <trkpt lat="36.72032" lon="-4.603801">
        <ele>62.024</ele>
        <time>2021-06-16T18:10:34Z</time>
      </trkpt>
      <trkpt lat="36.720293" lon="-4.603655">
        <ele>61.404</ele>
        <time>2021-06-16T18:10:35Z</time>
      </trkpt>
      <trkpt lat="36.720264" lon="-4.603501">
        <ele>60.814</ele>
        <time>2021-06-16T18:10:36Z</time>
      </trkpt>
      <trkpt lat="36.720202" lon="-4.603187">
        <ele>59.608</ele>
        <time>2021-06-16T18:10:38Z</time>
      </trkpt>
      <trkpt lat="36.720139" lon="-4.602881">
        <ele>58.879</ele>
        <time>2021-06-16T18:10:40Z</time>
      </trkpt>
      <trkpt lat="36.720072" lon="-4.602586">
        <ele>58.028</ele>
        <time>2021-06-16T18:10:42Z</time>
      </trkpt>
      <trkpt lat="36.720038" lon="-4.602441">
        <ele>57.412</ele>
        <time>2021-06-16T18:10:43Z</time>
      </trkpt>
      <trkpt lat="36.719976" lon="-4.602159">
        <ele>56.712</ele>
        <time>2021-06-16T18:10:45Z</time>
      </trkpt>
      <trkpt lat="36.719948" lon="-4.602018">
        <ele>56.358</ele>
        <time>2021-06-16T18:10:46Z</time>
      </trkpt>
      <trkpt lat="36.719894" lon="-4.601731">
        <ele>55.640</ele>
        <time>2021-06-16T18:10:48Z</time>
      </trkpt>
      <trkpt lat="36.719867" lon="-4.601583">
        <ele>55.129</ele>
        <time>2021-06-16T18:10:49Z</time>
      </trkpt>
      <trkpt lat="36.719838" lon="-4.60143">
        <ele>54.823</ele>
        <time>2021-06-16T18:10:50Z</time>
      </trkpt>
      <trkpt lat="36.719778" lon="-4.601118">
        <ele>54.193</ele>
        <time>2021-06-16T18:10:52Z</time>
      </trkpt>
      <trkpt lat="36.719748" lon="-4.600961">
        <ele>53.665</ele>
        <time>2021-06-16T18:10:53Z</time>
      </trkpt>
      <trkpt lat="36.719718" lon="-4.600804">
        <ele>53.221</ele>
        <time>2021-06-16T18:10:54Z</time>
      </trkpt>
      <trkpt lat="36.71969" lon="-4.600647">
        <ele>52.608</ele>
        <time>2021-06-16T18:10:55Z</time>
      </trkpt>
      <trkpt lat="36.719645" lon="-4.600341">
        <ele>51.916</ele>
        <time>2021-06-16T18:10:57Z</time>
      </trkpt>
      <trkpt lat="36.719626" lon="-4.600186">
        <ele>51.565</ele>
        <time>2021-06-16T18:10:58Z</time>
      </trkpt>
      <trkpt lat="36.719603" lon="-4.599882">
        <ele>50.849</ele>
        <time>2021-06-16T18:11:00Z</time>
      </trkpt>
      <trkpt lat="36.719601" lon="-4.599584">
        <ele>50.199</ele>
        <time>2021-06-16T18:11:02Z</time>
      </trkpt>
      <trkpt lat="36.719608" lon="-4.599435">
        <ele>49.685</ele>
        <time>2021-06-16T18:11:03Z</time>
      </trkpt>
      <trkpt lat="36.719621" lon="-4.59913">
        <ele>48.557</ele>
        <time>2021-06-16T18:11:05Z</time>
      </trkpt>
      <trkpt lat="36.719636" lon="-4.598814">
        <ele>47.666</ele>
        <time>2021-06-16T18:11:07Z</time>
      </trkpt>
      <trkpt lat="36.719654" lon="-4.598485">
        <ele>46.650</ele>
        <time>2021-06-16T18:11:09Z</time>
      </trkpt>
      <trkpt lat="36.719661" lon="-4.598319">
        <ele>46.079</ele>
        <time>2021-06-16T18:11:10Z</time>
      </trkpt>
      <trkpt lat="36.71967" lon="-4.597985">
        <ele>45.905</ele>
        <time>2021-06-16T18:11:12Z</time>
      </trkpt>
      <trkpt lat="36.719672" lon="-4.597821">
        <ele>46.025</ele>
        <time>2021-06-16T18:11:13Z</time>
      </trkpt>
      <trkpt lat="36.719672" lon="-4.597661">
        <ele>46.008</ele>
        <time>2021-06-16T18:11:14Z</time>
      </trkpt>
      <trkpt lat="36.71968" lon="-4.597341">
        <ele>46.244</ele>
        <time>2021-06-16T18:11:16Z</time>
      </trkpt>
      <trkpt lat="36.719684" lon="-4.597181">
        <ele>46.543</ele>
        <time>2021-06-16T18:11:17Z</time>
      </trkpt>
      <trkpt lat="36.71969" lon="-4.597018">
        <ele>46.427</ele>
        <time>2021-06-16T18:11:18Z</time>
      </trkpt>
      <trkpt lat="36.719705" lon="-4.596699">
        <ele>47.017</ele>
        <time>2021-06-16T18:11:20Z</time>
      </trkpt>
      <trkpt lat="36.719725" lon="-4.59639">
        <ele>47.193</ele>
        <time>2021-06-16T18:11:22Z</time>
      </trkpt>
      <trkpt lat="36.719753" lon="-4.596085">
        <ele>47.575</ele>
        <time>2021-06-16T18:11:24Z</time>
      </trkpt>
      <trkpt lat="36.719785" lon="-4.595769">
        <ele>47.534</ele>
        <time>2021-06-16T18:11:26Z</time>
      </trkpt>
      <trkpt lat="36.719804" lon="-4.595612">
        <ele>47.558</ele>
        <time>2021-06-16T18:11:27Z</time>
      </trkpt>
      <trkpt lat="36.719844" lon="-4.595304">
        <ele>47.212</ele>
        <time>2021-06-16T18:11:29Z</time>
      </trkpt>
      <trkpt lat="36.719862" lon="-4.59515">
        <ele>46.932</ele>
        <time>2021-06-16T18:11:30Z</time>
      </trkpt>
      <trkpt lat="36.719896" lon="-4.594846">
        <ele>46.805</ele>
        <time>2021-06-16T18:11:32Z</time>
      </trkpt>
      <trkpt lat="36.719921" lon="-4.594534">
        <ele>46.108</ele>
        <time>2021-06-16T18:11:34Z</time>
      </trkpt>
      <trkpt lat="36.719918" lon="-4.594373">
        <ele>45.328</ele>
        <time>2021-06-16T18:11:35Z</time>
      </trkpt>
      <trkpt lat="36.719892" lon="-4.594056">
        <ele>44.767</ele>
        <time>2021-06-16T18:11:37Z</time>
      </trkpt>
      <trkpt lat="36.719866" lon="-4.593899">
        <ele>44.771</ele>
        <time>2021-06-16T18:11:38Z</time>
      </trkpt>
      <trkpt lat="36.719834" lon="-4.593744">
        <ele>44.081</ele>
        <time>2021-06-16T18:11:39Z</time>
      </trkpt>
      <trkpt lat="36.719771" lon="-4.593444">
        <ele>43.327</ele>
        <time>2021-06-16T18:11:41Z</time>
      </trkpt>
      <trkpt lat="36.719742" lon="-4.5933">
        <ele>42.839</ele>
        <time>2021-06-16T18:11:42Z</time>
      </trkpt>
      <trkpt lat="36.719681" lon="-4.593019">
        <ele>42.258</ele>
        <time>2021-06-16T18:11:44Z</time>
      </trkpt>
      <trkpt lat="36.71964" lon="-4.592889">
        <ele>41.762</ele>
        <time>2021-06-16T18:11:45Z</time>
      </trkpt>
      <trkpt lat="36.719589" lon="-4.59277">
        <ele>41.273</ele>
        <time>2021-06-16T18:11:46Z</time>
      </trkpt>
      <trkpt lat="36.719471" lon="-4.592568">
        <ele>40.785</ele>
        <time>2021-06-16T18:11:48Z</time>
      </trkpt>
      <trkpt lat="36.719378" lon="-4.592384">
        <ele>40.713</ele>
        <time>2021-06-16T18:11:50Z</time>
      </trkpt>
      <trkpt lat="36.719382" lon="-4.592154">
        <ele>40.508</ele>
        <time>2021-06-16T18:11:52Z</time>
      </trkpt>
      <trkpt lat="36.719417" lon="-4.591895">
        <ele>40.014</ele>
        <time>2021-06-16T18:11:54Z</time>
      </trkpt>
      <trkpt lat="36.7194" lon="-4.591603">
        <ele>39.373</ele>
        <time>2021-06-16T18:11:56Z</time>
      </trkpt>
      <trkpt lat="36.719375" lon="-4.591447">
        <ele>38.457</ele>
        <time>2021-06-16T18:11:57Z</time>
      </trkpt>
      <trkpt lat="36.719312" lon="-4.591135">
        <ele>37.417</ele>
        <time>2021-06-16T18:11:59Z</time>
      </trkpt>
      <trkpt lat="36.719281" lon="-4.590985">
        <ele>36.843</ele>
        <time>2021-06-16T18:12:00Z</time>
      </trkpt>
      <trkpt lat="36.719196" lon="-4.590711">
        <ele>36.425</ele>
        <time>2021-06-16T18:12:02Z</time>
      </trkpt>
      <trkpt lat="36.719066" lon="-4.590469">
        <ele>36.334</ele>
        <time>2021-06-16T18:12:04Z</time>
      </trkpt>
      <trkpt lat="36.718901" lon="-4.590246">
        <ele>36.538</ele>
        <time>2021-06-16T18:12:06Z</time>
      </trkpt>
      <trkpt lat="36.718712" lon="-4.590051">
        <ele>36.367</ele>
        <time>2021-06-16T18:12:08Z</time>
      </trkpt>
      <trkpt lat="36.718607" lon="-4.589992">
        <ele>36.381</ele>
        <time>2021-06-16T18:12:09Z</time>
      </trkpt>
      <trkpt lat="36.718502" lon="-4.589943">
        <ele>36.119</ele>
        <time>2021-06-16T18:12:10Z</time>
      </trkpt>
      <trkpt lat="36.718406" lon="-4.589896">
        <ele>36.108</ele>
        <time>2021-06-16T18:12:11Z</time>
      </trkpt>
      <trkpt lat="36.718242" lon="-4.589829">
        <ele>36.363</ele>
        <time>2021-06-16T18:12:13Z</time>
      </trkpt>
      <trkpt lat="36.718075" lon="-4.589811">
        <ele>35.922</ele>
        <time>2021-06-16T18:12:15Z</time>
      </trkpt>
      <trkpt lat="36.717896" lon="-4.589786">
        <ele>35.726</ele>
        <time>2021-06-16T18:12:17Z</time>
      </trkpt>
      <trkpt lat="36.717735" lon="-4.589644">
        <ele>35.756</ele>
        <time>2021-06-16T18:12:19Z</time>
      </trkpt>
      <trkpt lat="36.717573" lon="-4.589446">
        <ele>35.382</ele>
        <time>2021-06-16T18:12:21Z</time>
      </trkpt>
      <trkpt lat="36.717482" lon="-4.589352">
        <ele>35.244</ele>
        <time>2021-06-16T18:12:22Z</time>
      </trkpt>
      <trkpt lat="36.717384" lon="-4.589262">
        <ele>35.253</ele>
        <time>2021-06-16T18:12:23Z</time>
      </trkpt>
      <trkpt lat="36.717287" lon="-4.589171">
        <ele>34.587</ele>
        <time>2021-06-16T18:12:24Z</time>
      </trkpt>
      <trkpt lat="36.717104" lon="-4.588964">
        <ele>33.743</ele>
        <time>2021-06-16T18:12:26Z</time>
      </trkpt>
      <trkpt lat="36.717019" lon="-4.588847">
        <ele>33.164</ele>
        <time>2021-06-16T18:12:27Z</time>
      </trkpt>
      <trkpt lat="36.716852" lon="-4.588595">
        <ele>33.110</ele>
        <time>2021-06-16T18:12:29Z</time>
      </trkpt>
      <trkpt lat="36.716771" lon="-4.588463">
        <ele>33.408</ele>
        <time>2021-06-16T18:12:30Z</time>
      </trkpt>
      <trkpt lat="36.716618" lon="-4.588205">
        <ele>33.631</ele>
        <time>2021-06-16T18:12:32Z</time>
      </trkpt>
      <trkpt lat="36.71647" lon="-4.587963">
        <ele>34.120</ele>
        <time>2021-06-16T18:12:34Z</time>
      </trkpt>
      <trkpt lat="36.716399" lon="-4.587844">
        <ele>34.544</ele>
        <time>2021-06-16T18:12:35Z</time>
      </trkpt>
      <trkpt lat="36.716256" lon="-4.587611">
        <ele>34.594</ele>
        <time>2021-06-16T18:12:37Z</time>
      </trkpt>
      <trkpt lat="36.716115" lon="-4.58738">
        <ele>34.120</ele>
        <time>2021-06-16T18:12:39Z</time>
      </trkpt>
      <trkpt lat="36.716043" lon="-4.587263">
        <ele>33.812</ele>
        <time>2021-06-16T18:12:40Z</time>
      </trkpt>
      <trkpt lat="36.715898" lon="-4.587027">
        <ele>34.121</ele>
        <time>2021-06-16T18:12:42Z</time>
      </trkpt>
      <trkpt lat="36.715825" lon="-4.586906">
        <ele>34.155</ele>
        <time>2021-06-16T18:12:43Z</time>
      </trkpt>
      <trkpt lat="36.715677" lon="-4.586653">
        <ele>34.994</ele>
        <time>2021-06-16T18:12:45Z</time>
      </trkpt>
      <trkpt lat="36.715604" lon="-4.586526">
        <ele>35.257</ele>
        <time>2021-06-16T18:12:46Z</time>
      </trkpt>
      <trkpt lat="36.715454" lon="-4.586272">
        <ele>35.322</ele>
        <time>2021-06-16T18:12:48Z</time>
      </trkpt>
      <trkpt lat="36.715377" lon="-4.586145">
        <ele>35.608</ele>
        <time>2021-06-16T18:12:49Z</time>
      </trkpt>
      <trkpt lat="36.715222" lon="-4.585892">
        <ele>35.616</ele>
        <time>2021-06-16T18:12:51Z</time>
      </trkpt>
      <trkpt lat="36.715146" lon="-4.585768">
        <ele>35.785</ele>
        <time>2021-06-16T18:12:52Z</time>
      </trkpt>
      <trkpt lat="36.715005" lon="-4.585522">
        <ele>35.899</ele>
        <time>2021-06-16T18:12:54Z</time>
      </trkpt>
      <trkpt lat="36.714873" lon="-4.585279">
        <ele>36.339</ele>
        <time>2021-06-16T18:12:56Z</time>
      </trkpt>
      <trkpt lat="36.714809" lon="-4.585156">
        <ele>36.875</ele>
        <time>2021-06-16T18:12:57Z</time>
      </trkpt>
      <trkpt lat="36.714696" lon="-4.584905">
        <ele>37.457</ele>
        <time>2021-06-16T18:12:59Z</time>
      </trkpt>
      <trkpt lat="36.714643" lon="-4.584778">
        <ele>37.896</ele>
        <time>2021-06-16T18:13:00Z</time>
      </trkpt>
      <trkpt lat="36.714591" lon="-4.584652">
        <ele>38.410</ele>
        <time>2021-06-16T18:13:01Z</time>
      </trkpt>
      <trkpt lat="36.714492" lon="-4.5844">
        <ele>38.861</ele>
        <time>2021-06-16T18:13:03Z</time>
      </trkpt>
      <trkpt lat="36.714396" lon="-4.584144">
        <ele>39.421</ele>
        <time>2021-06-16T18:13:05Z</time>
      </trkpt>
      <trkpt lat="36.714357" lon="-4.58402">
        <ele>39.513</ele>
        <time>2021-06-16T18:13:06Z</time>
      </trkpt>
      <trkpt lat="36.714284" lon="-4.583789">
        <ele>39.608</ele>
        <time>2021-06-16T18:13:08Z</time>
      </trkpt>
      <trkpt lat="36.714243" lon="-4.583682">
        <ele>39.823</ele>
        <time>2021-06-16T18:13:09Z</time>
      </trkpt>
      <trkpt lat="36.714164" lon="-4.583475">
        <ele>39.762</ele>
        <time>2021-06-16T18:13:11Z</time>
      </trkpt>
      <trkpt lat="36.71412" lon="-4.583365">
        <ele>39.986</ele>
        <time>2021-06-16T18:13:12Z</time>
      </trkpt>
      <trkpt lat="36.714023" lon="-4.583128">
        <ele>39.686</ele>
        <time>2021-06-16T18:13:14Z</time>
      </trkpt>
      <trkpt lat="36.713973" lon="-4.583">
        <ele>39.622</ele>
        <time>2021-06-16T18:13:15Z</time>
      </trkpt>
      <trkpt lat="36.713873" lon="-4.58273">
        <ele>39.924</ele>
        <time>2021-06-16T18:13:17Z</time>
      </trkpt>
      <trkpt lat="36.713769" lon="-4.582459">
        <ele>39.973</ele>
        <time>2021-06-16T18:13:19Z</time>
      </trkpt>
      <trkpt lat="36.713716" lon="-4.582318">
        <ele>39.677</ele>
        <time>2021-06-16T18:13:20Z</time>
      </trkpt>
      <trkpt lat="36.713615" lon="-4.582042">
        <ele>39.847</ele>
        <time>2021-06-16T18:13:22Z</time>
      </trkpt>
      <trkpt lat="36.713564" lon="-4.581906">
        <ele>39.929</ele>
        <time>2021-06-16T18:13:23Z</time>
      </trkpt>
      <trkpt lat="36.713459" lon="-4.581633">
        <ele>40.021</ele>
        <time>2021-06-16T18:13:25Z</time>
      </trkpt>
      <trkpt lat="36.713359" lon="-4.581359">
        <ele>40.408</ele>
        <time>2021-06-16T18:13:27Z</time>
      </trkpt>
      <trkpt lat="36.713305" lon="-4.581225">
        <ele>40.421</ele>
        <time>2021-06-16T18:13:28Z</time>
      </trkpt>
      <trkpt lat="36.713197" lon="-4.580974">
        <ele>40.910</ele>
        <time>2021-06-16T18:13:30Z</time>
      </trkpt>
      <trkpt lat="36.713145" lon="-4.580845">
        <ele>41.664</ele>
        <time>2021-06-16T18:13:31Z</time>
      </trkpt>
      <trkpt lat="36.713042" lon="-4.580578">
        <ele>42.584</ele>
        <time>2021-06-16T18:13:33Z</time>
      </trkpt>
      <trkpt lat="36.71299" lon="-4.580442">
        <ele>43.410</ele>
        <time>2021-06-16T18:13:34Z</time>
      </trkpt>
      <trkpt lat="36.712879" lon="-4.58018">
        <ele>44.912</ele>
        <time>2021-06-16T18:13:36Z</time>
      </trkpt>
      <trkpt lat="36.712757" lon="-4.579925">
        <ele>45.981</ele>
        <time>2021-06-16T18:13:38Z</time>
      </trkpt>
      <trkpt lat="36.712611" lon="-4.579691">
        <ele>46.525</ele>
        <time>2021-06-16T18:13:40Z</time>
      </trkpt>
      <trkpt lat="36.712523" lon="-4.579584">
        <ele>47.037</ele>
        <time>2021-06-16T18:13:41Z</time>
      </trkpt>
      <trkpt lat="36.712426" lon="-4.579491">
        <ele>47.649</ele>
        <time>2021-06-16T18:13:42Z</time>
      </trkpt>
      <trkpt lat="36.71222" lon="-4.579329">
        <ele>48.913</ele>
        <time>2021-06-16T18:13:44Z</time>
      </trkpt>
      <trkpt lat="36.712115" lon="-4.579248">
        <ele>49.908</ele>
        <time>2021-06-16T18:13:45Z</time>
      </trkpt>
      <trkpt lat="36.711887" lon="-4.579116">
        <ele>51.060</ele>
        <time>2021-06-16T18:13:47Z</time>
      </trkpt>
      <trkpt lat="36.711765" lon="-4.579057">
        <ele>51.839</ele>
        <time>2021-06-16T18:13:48Z</time>
      </trkpt>
      <trkpt lat="36.711526" lon="-4.578931">
        <ele>52.113</ele>
        <time>2021-06-16T18:13:50Z</time>
      </trkpt>
      <trkpt lat="36.711282" lon="-4.578803">
        <ele>51.673</ele>
        <time>2021-06-16T18:13:52Z</time>
      </trkpt>
      <trkpt lat="36.711037" lon="-4.578667">
        <ele>50.649</ele>
        <time>2021-06-16T18:13:54Z</time>
      </trkpt>
      <trkpt lat="36.710915" lon="-4.578596">
        <ele>49.741</ele>
        <time>2021-06-16T18:13:55Z</time>
      </trkpt>
      <trkpt lat="36.710666" lon="-4.578457">
        <ele>49.180</ele>
        <time>2021-06-16T18:13:57Z</time>
      </trkpt>
      <trkpt lat="36.710422" lon="-4.578297">
        <ele>48.664</ele>
        <time>2021-06-16T18:13:59Z</time>
      </trkpt>
      <trkpt lat="36.710204" lon="-4.578099">
        <ele>47.644</ele>
        <time>2021-06-16T18:14:01Z</time>
      </trkpt>
      <trkpt lat="36.710103" lon="-4.577994">
        <ele>47.005</ele>
        <time>2021-06-16T18:14:02Z</time>
      </trkpt>
      <trkpt lat="36.709919" lon="-4.577767">
        <ele>46.015</ele>
        <time>2021-06-16T18:14:04Z</time>
      </trkpt>
      <trkpt lat="36.709831" lon="-4.577654">
        <ele>45.408</ele>
        <time>2021-06-16T18:14:05Z</time>
      </trkpt>
      <trkpt lat="36.709747" lon="-4.577528">
        <ele>44.691</ele>
        <time>2021-06-16T18:14:06Z</time>
      </trkpt>
      <trkpt lat="36.709669" lon="-4.577392">
        <ele>43.710</ele>
        <time>2021-06-16T18:14:07Z</time>
      </trkpt>
      <trkpt lat="36.709526" lon="-4.577118">
        <ele>43.274</ele>
        <time>2021-06-16T18:14:09Z</time>
      </trkpt>
      <trkpt lat="36.709456" lon="-4.576981">
        <ele>42.844</ele>
        <time>2021-06-16T18:14:10Z</time>
      </trkpt>
      <trkpt lat="36.709316" lon="-4.576703">
        <ele>43.290</ele>
        <time>2021-06-16T18:14:12Z</time>
      </trkpt>
      <trkpt lat="36.709165" lon="-4.576441">
        <ele>43.812</ele>
        <time>2021-06-16T18:14:14Z</time>
      </trkpt>
      <trkpt lat="36.708979" lon="-4.576216">
        <ele>44.361</ele>
        <time>2021-06-16T18:14:16Z</time>
      </trkpt>
      <trkpt lat="36.70876" lon="-4.576023">
        <ele>44.555</ele>
        <time>2021-06-16T18:14:18Z</time>
      </trkpt>
      <trkpt lat="36.708642" lon="-4.575937">
        <ele>44.328</ele>
        <time>2021-06-16T18:14:19Z</time>
      </trkpt>
      <trkpt lat="36.70852" lon="-4.575858">
        <ele>44.089</ele>
        <time>2021-06-16T18:14:20Z</time>
      </trkpt>
      <trkpt lat="36.70827" lon="-4.575716">
        <ele>43.317</ele>
        <time>2021-06-16T18:14:22Z</time>
      </trkpt>
      <trkpt lat="36.708028" lon="-4.575586">
        <ele>42.408</ele>
        <time>2021-06-16T18:14:24Z</time>
      </trkpt>
      <trkpt lat="36.707908" lon="-4.575523">
        <ele>41.999</ele>
        <time>2021-06-16T18:14:25Z</time>
      </trkpt>
      <trkpt lat="36.707674" lon="-4.575391">
        <ele>41.138</ele>
        <time>2021-06-16T18:14:27Z</time>
      </trkpt>
      <trkpt lat="36.707436" lon="-4.575261">
        <ele>40.772</ele>
        <time>2021-06-16T18:14:29Z</time>
      </trkpt>
      <trkpt lat="36.707315" lon="-4.575192">
        <ele>40.032</ele>
        <time>2021-06-16T18:14:30Z</time>
      </trkpt>
      <trkpt lat="36.707071" lon="-4.575058">
        <ele>39.748</ele>
        <time>2021-06-16T18:14:32Z</time>
      </trkpt>
      <trkpt lat="36.706824" lon="-4.574922">
        <ele>39.510</ele>
        <time>2021-06-16T18:14:34Z</time>
      </trkpt>
      <trkpt lat="36.706579" lon="-4.574784">
        <ele>39.189</ele>
        <time>2021-06-16T18:14:36Z</time>
      </trkpt>
      <trkpt lat="36.706339" lon="-4.574641">
        <ele>38.923</ele>
        <time>2021-06-16T18:14:38Z</time>
      </trkpt>
      <trkpt lat="36.706105" lon="-4.574474">
        <ele>38.588</ele>
        <time>2021-06-16T18:14:40Z</time>
      </trkpt>
      <trkpt lat="36.705991" lon="-4.574384">
        <ele>38.324</ele>
        <time>2021-06-16T18:14:41Z</time>
      </trkpt>
      <trkpt lat="36.705775" lon="-4.574196">
        <ele>37.626</ele>
        <time>2021-06-16T18:14:43Z</time>
      </trkpt>
      <trkpt lat="36.705668" lon="-4.574094">
        <ele>37.308</ele>
        <time>2021-06-16T18:14:44Z</time>
      </trkpt>
      <trkpt lat="36.705465" lon="-4.573885">
        <ele>37.095</ele>
        <time>2021-06-16T18:14:46Z</time>
      </trkpt>
      <trkpt lat="36.70527" lon="-4.573678">
        <ele>37.364</ele>
        <time>2021-06-16T18:14:48Z</time>
      </trkpt>
      <trkpt lat="36.705171" lon="-4.573576">
        <ele>38.268</ele>
        <time>2021-06-16T18:14:49Z</time>
      </trkpt>
      <trkpt lat="36.704973" lon="-4.573377">
        <ele>38.918</ele>
        <time>2021-06-16T18:14:51Z</time>
      </trkpt>
      <trkpt lat="36.704869" lon="-4.573279">
        <ele>39.214</ele>
        <time>2021-06-16T18:14:52Z</time>
      </trkpt>
      <trkpt lat="36.704767" lon="-4.573177">
        <ele>39.356</ele>
        <time>2021-06-16T18:14:53Z</time>
      </trkpt>
      <trkpt lat="36.70457" lon="-4.572969">
        <ele>39.295</ele>
        <time>2021-06-16T18:14:55Z</time>
      </trkpt>
      <trkpt lat="36.704473" lon="-4.572867">
        <ele>39.279</ele>
        <time>2021-06-16T18:14:56Z</time>
      </trkpt>
      <trkpt lat="36.704373" lon="-4.572765">
        <ele>39.351</ele>
        <time>2021-06-16T18:14:57Z</time>
      </trkpt>
      <trkpt lat="36.704274" lon="-4.572661">
        <ele>39.601</ele>
        <time>2021-06-16T18:14:58Z</time>
      </trkpt>
      <trkpt lat="36.704073" lon="-4.572457">
        <ele>40.211</ele>
        <time>2021-06-16T18:15:00Z</time>
      </trkpt>
      <trkpt lat="36.703877" lon="-4.572255">
        <ele>40.608</ele>
        <time>2021-06-16T18:15:02Z</time>
      </trkpt>
      <trkpt lat="36.70368" lon="-4.572056">
        <ele>41.572</ele>
        <time>2021-06-16T18:15:04Z</time>
      </trkpt>
      <trkpt lat="36.703484" lon="-4.571865">
        <ele>42.051</ele>
        <time>2021-06-16T18:15:06Z</time>
      </trkpt>
      <trkpt lat="36.703295" lon="-4.571684">
        <ele>42.265</ele>
        <time>2021-06-16T18:15:08Z</time>
      </trkpt>
      <trkpt lat="36.703197" lon="-4.571593">
        <ele>42.725</ele>
        <time>2021-06-16T18:15:09Z</time>
      </trkpt>
      <trkpt lat="36.703003" lon="-4.571392">
        <ele>42.141</ele>
        <time>2021-06-16T18:15:11Z</time>
      </trkpt>
      <trkpt lat="36.702804" lon="-4.571189">
        <ele>42.223</ele>
        <time>2021-06-16T18:15:13Z</time>
      </trkpt>
      <trkpt lat="36.7027" lon="-4.571088">
        <ele>42.452</ele>
        <time>2021-06-16T18:15:14Z</time>
      </trkpt>
      <trkpt lat="36.702595" lon="-4.570989">
        <ele>42.956</ele>
        <time>2021-06-16T18:15:15Z</time>
      </trkpt>
      <trkpt lat="36.702372" lon="-4.570794">
        <ele>43.672</ele>
        <time>2021-06-16T18:15:17Z</time>
      </trkpt>
      <trkpt lat="36.702266" lon="-4.570695">
        <ele>43.913</ele>
        <time>2021-06-16T18:15:18Z</time>
      </trkpt>
      <trkpt lat="36.702072" lon="-4.570512">
        <ele>42.614</ele>
        <time>2021-06-16T18:15:20Z</time>
      </trkpt>
      <trkpt lat="36.701872" lon="-4.57033">
        <ele>41.808</ele>
        <time>2021-06-16T18:15:22Z</time>
      </trkpt>
      <trkpt lat="36.701661" lon="-4.570147">
        <ele>41.234</ele>
        <time>2021-06-16T18:15:24Z</time>
      </trkpt>
      <trkpt lat="36.701554" lon="-4.570053">
        <ele>40.963</ele>
        <time>2021-06-16T18:15:25Z</time>
      </trkpt>
      <trkpt lat="36.701446" lon="-4.569962">
        <ele>40.567</ele>
        <time>2021-06-16T18:15:26Z</time>
      </trkpt>
      <trkpt lat="36.701238" lon="-4.569778">
        <ele>40.357</ele>
        <time>2021-06-16T18:15:28Z</time>
      </trkpt>
      <trkpt lat="36.701134" lon="-4.569683">
        <ele>40.223</ele>
        <time>2021-06-16T18:15:29Z</time>
      </trkpt>
      <trkpt lat="36.700923" lon="-4.569504">
        <ele>39.795</ele>
        <time>2021-06-16T18:15:31Z</time>
      </trkpt>
      <trkpt lat="36.700816" lon="-4.569414">
        <ele>39.144</ele>
        <time>2021-06-16T18:15:32Z</time>
      </trkpt>
      <trkpt lat="36.700599" lon="-4.569229">
        <ele>38.888</ele>
        <time>2021-06-16T18:15:34Z</time>
      </trkpt>
      <trkpt lat="36.70049" lon="-4.569135">
        <ele>38.755</ele>
        <time>2021-06-16T18:15:35Z</time>
      </trkpt>
      <trkpt lat="36.700274" lon="-4.568953">
        <ele>38.807</ele>
        <time>2021-06-16T18:15:37Z</time>
      </trkpt>
      <trkpt lat="36.700069" lon="-4.568761">
        <ele>38.717</ele>
        <time>2021-06-16T18:15:39Z</time>
      </trkpt>
      <trkpt lat="36.699865" lon="-4.568574">
        <ele>38.508</ele>
        <time>2021-06-16T18:15:41Z</time>
      </trkpt>
      <trkpt lat="36.699662" lon="-4.568407">
        <ele>38.852</ele>
        <time>2021-06-16T18:15:43Z</time>
      </trkpt>
      <trkpt lat="36.69956" lon="-4.568319">
        <ele>39.281</ele>
        <time>2021-06-16T18:15:44Z</time>
      </trkpt>
      <trkpt lat="36.699355" lon="-4.56814">
        <ele>39.465</ele>
        <time>2021-06-16T18:15:46Z</time>
      </trkpt>
      <trkpt lat="36.699164" lon="-4.567954">
        <ele>39.565</ele>
        <time>2021-06-16T18:15:48Z</time>
      </trkpt>
      <trkpt lat="36.698993" lon="-4.567778">
        <ele>39.421</ele>
        <time>2021-06-16T18:15:50Z</time>
      </trkpt>
      <trkpt lat="36.698847" lon="-4.56761">
        <ele>40.053</ele>
        <time>2021-06-16T18:15:52Z</time>
      </trkpt>
      <trkpt lat="36.698783" lon="-4.567529">
        <ele>40.252</ele>
        <time>2021-06-16T18:15:53Z</time>
      </trkpt>
      <trkpt lat="36.698667" lon="-4.56737">
        <ele>40.686</ele>
        <time>2021-06-16T18:15:55Z</time>
      </trkpt>
      <trkpt lat="36.698614" lon="-4.567296">
        <ele>40.633</ele>
        <time>2021-06-16T18:15:56Z</time>
      </trkpt>
      <trkpt lat="36.698566" lon="-4.567223">
        <ele>40.923</ele>
        <time>2021-06-16T18:15:57Z</time>
      </trkpt>
      <trkpt lat="36.698489" lon="-4.567104">
        <ele>41.615</ele>
        <time>2021-06-16T18:15:59Z</time>
      </trkpt>
      <trkpt lat="36.698438" lon="-4.567009">
        <ele>41.608</ele>
        <time>2021-06-16T18:16:01Z</time>
      </trkpt>
      <trkpt lat="36.698406" lon="-4.566957">
        <ele>41.120</ele>
        <time>2021-06-16T18:16:03Z</time>
      </trkpt>
      <trkpt lat="36.698366" lon="-4.566909">
        <ele>41.069</ele>
        <time>2021-06-16T18:16:05Z</time>
      </trkpt>
      <trkpt lat="36.698322" lon="-4.56682">
        <ele>40.863</ele>
        <time>2021-06-16T18:16:07Z</time>
      </trkpt>
      <trkpt lat="36.698256" lon="-4.56671">
        <ele>40.923</ele>
        <time>2021-06-16T18:16:09Z</time>
      </trkpt>
      <trkpt lat="36.698174" lon="-4.566576">
        <ele>41.749</ele>
        <time>2021-06-16T18:16:11Z</time>
      </trkpt>
      <trkpt lat="36.698088" lon="-4.566431">
        <ele>42.471</ele>
        <time>2021-06-16T18:16:13Z</time>
      </trkpt>
      <trkpt lat="36.697999" lon="-4.566294">
        <ele>42.870</ele>
        <time>2021-06-16T18:16:15Z</time>
      </trkpt>
      <trkpt lat="36.697951" lon="-4.566223">
        <ele>43.274</ele>
        <time>2021-06-16T18:16:16Z</time>
      </trkpt>
      <trkpt lat="36.697854" lon="-4.566064">
        <ele>43.756</ele>
        <time>2021-06-16T18:16:18Z</time>
      </trkpt>
      <trkpt lat="36.697804" lon="-4.565981">
        <ele>44.359</ele>
        <time>2021-06-16T18:16:19Z</time>
      </trkpt>
      <trkpt lat="36.697751" lon="-4.565895">
        <ele>44.514</ele>
        <time>2021-06-16T18:16:20Z</time>
      </trkpt>
      <trkpt lat="36.697696" lon="-4.565808">
        <ele>44.708</ele>
        <time>2021-06-16T18:16:21Z</time>
      </trkpt>
      <trkpt lat="36.697586" lon="-4.565623">
        <ele>44.722</ele>
        <time>2021-06-16T18:16:23Z</time>
      </trkpt>
      <trkpt lat="36.697533" lon="-4.565532">
        <ele>44.931</ele>
        <time>2021-06-16T18:16:24Z</time>
      </trkpt>
      <trkpt lat="36.697441" lon="-4.565382">
        <ele>45.115</ele>
        <time>2021-06-16T18:16:26Z</time>
      </trkpt>
      <trkpt lat="36.697399" lon="-4.565312">
        <ele>45.495</ele>
        <time>2021-06-16T18:16:27Z</time>
      </trkpt>
      <trkpt lat="36.697356" lon="-4.565244">
        <ele>45.461</ele>
        <time>2021-06-16T18:16:28Z</time>
      </trkpt>
      <trkpt lat="36.697263" lon="-4.565094">
        <ele>45.573</ele>
        <time>2021-06-16T18:16:30Z</time>
      </trkpt>
      <trkpt lat="36.697213" lon="-4.565013">
        <ele>45.712</ele>
        <time>2021-06-16T18:16:31Z</time>
      </trkpt>
      <trkpt lat="36.697162" lon="-4.564926">
        <ele>45.656</ele>
        <time>2021-06-16T18:16:32Z</time>
      </trkpt>
      <trkpt lat="36.697042" lon="-4.564736">
        <ele>45.494</ele>
        <time>2021-06-16T18:16:34Z</time>
      </trkpt>
      <trkpt lat="36.69698" lon="-4.564631">
        <ele>44.957</ele>
        <time>2021-06-16T18:16:35Z</time>
      </trkpt>
      <trkpt lat="36.696849" lon="-4.564414">
        <ele>44.822</ele>
        <time>2021-06-16T18:16:37Z</time>
      </trkpt>
      <trkpt lat="36.696722" lon="-4.564204">
        <ele>44.908</ele>
        <time>2021-06-16T18:16:39Z</time>
      </trkpt>
      <trkpt lat="36.696653" lon="-4.564097">
        <ele>44.926</ele>
        <time>2021-06-16T18:16:40Z</time>
      </trkpt>
      <trkpt lat="36.696586" lon="-4.563983">
        <ele>44.965</ele>
        <time>2021-06-16T18:16:41Z</time>
      </trkpt>
      <trkpt lat="36.696514" lon="-4.563868">
        <ele>44.829</ele>
        <time>2021-06-16T18:16:42Z</time>
      </trkpt>
      <trkpt lat="36.69644" lon="-4.563751">
        <ele>44.789</ele>
        <time>2021-06-16T18:16:43Z</time>
      </trkpt>
      <trkpt lat="36.696292" lon="-4.563519">
        <ele>44.855</ele>
        <time>2021-06-16T18:16:45Z</time>
      </trkpt>
      <trkpt lat="36.696215" lon="-4.563407">
        <ele>44.887</ele>
        <time>2021-06-16T18:16:46Z</time>
      </trkpt>
      <trkpt lat="36.696064" lon="-4.563182">
        <ele>44.586</ele>
        <time>2021-06-16T18:16:48Z</time>
      </trkpt>
      <trkpt lat="36.695916" lon="-4.562954">
        <ele>44.110</ele>
        <time>2021-06-16T18:16:50Z</time>
      </trkpt>
      <trkpt lat="36.69584" lon="-4.562836">
        <ele>43.728</ele>
        <time>2021-06-16T18:16:51Z</time>
      </trkpt>
      <trkpt lat="36.695682" lon="-4.562604">
        <ele>43.289</ele>
        <time>2021-06-16T18:16:53Z</time>
      </trkpt>
      <trkpt lat="36.695603" lon="-4.562487">
        <ele>43.117</ele>
        <time>2021-06-16T18:16:54Z</time>
      </trkpt>
      <trkpt lat="36.695524" lon="-4.562366">
        <ele>42.608</ele>
        <time>2021-06-16T18:16:55Z</time>
      </trkpt>
      <trkpt lat="36.695365" lon="-4.562121">
        <ele>42.329</ele>
        <time>2021-06-16T18:16:57Z</time>
      </trkpt>
      <trkpt lat="36.695283" lon="-4.561999">
        <ele>42.138</ele>
        <time>2021-06-16T18:16:58Z</time>
      </trkpt>
      <trkpt lat="36.695121" lon="-4.561759">
        <ele>41.982</ele>
        <time>2021-06-16T18:17:00Z</time>
      </trkpt>
      <trkpt lat="36.695041" lon="-4.561642">
        <ele>41.822</ele>
        <time>2021-06-16T18:17:01Z</time>
      </trkpt>
      <trkpt lat="36.694887" lon="-4.561408">
        <ele>41.518</ele>
        <time>2021-06-16T18:17:03Z</time>
      </trkpt>
      <trkpt lat="36.694734" lon="-4.561169">
        <ele>41.460</ele>
        <time>2021-06-16T18:17:05Z</time>
      </trkpt>
      <trkpt lat="36.694577" lon="-4.560928">
        <ele>41.499</ele>
        <time>2021-06-16T18:17:07Z</time>
      </trkpt>
      <trkpt lat="36.694421" lon="-4.56069">
        <ele>41.463</ele>
        <time>2021-06-16T18:17:09Z</time>
      </trkpt>
      <trkpt lat="36.69434" lon="-4.560569">
        <ele>41.339</ele>
        <time>2021-06-16T18:17:10Z</time>
      </trkpt>
      <trkpt lat="36.694261" lon="-4.560448">
        <ele>41.201</ele>
        <time>2021-06-16T18:17:11Z</time>
      </trkpt>
      <trkpt lat="36.694104" lon="-4.560205">
        <ele>41.021</ele>
        <time>2021-06-16T18:17:13Z</time>
      </trkpt>
      <trkpt lat="36.693946" lon="-4.559959">
        <ele>40.808</ele>
        <time>2021-06-16T18:17:15Z</time>
      </trkpt>
      <trkpt lat="36.693785" lon="-4.559715">
        <ele>40.690</ele>
        <time>2021-06-16T18:17:17Z</time>
      </trkpt>
      <trkpt lat="36.693625" lon="-4.559472">
        <ele>40.669</ele>
        <time>2021-06-16T18:17:19Z</time>
      </trkpt>
      <trkpt lat="36.693545" lon="-4.559353">
        <ele>40.483</ele>
        <time>2021-06-16T18:17:20Z</time>
      </trkpt>
      <trkpt lat="36.693388" lon="-4.559114">
        <ele>40.383</ele>
        <time>2021-06-16T18:17:22Z</time>
      </trkpt>
      <trkpt lat="36.693308" lon="-4.558995">
        <ele>41.049</ele>
        <time>2021-06-16T18:17:23Z</time>
      </trkpt>
      <trkpt lat="36.693233" lon="-4.558879">
        <ele>41.011</ele>
        <time>2021-06-16T18:17:24Z</time>
      </trkpt>
      <trkpt lat="36.693102" lon="-4.558678">
        <ele>41.130</ele>
        <time>2021-06-16T18:17:26Z</time>
      </trkpt>
      <trkpt lat="36.693053" lon="-4.558604">
        <ele>41.234</ele>
        <time>2021-06-16T18:17:27Z</time>
      </trkpt>
      <trkpt lat="36.693011" lon="-4.55854">
        <ele>41.597</ele>
        <time>2021-06-16T18:17:28Z</time>
      </trkpt>
      <trkpt lat="36.692932" lon="-4.558419">
        <ele>41.623</ele>
        <time>2021-06-16T18:17:30Z</time>
      </trkpt>
      <trkpt lat="36.692849" lon="-4.558296">
        <ele>41.725</ele>
        <time>2021-06-16T18:17:32Z</time>
      </trkpt>
      <trkpt lat="36.692802" lon="-4.558226">
        <ele>41.508</ele>
        <time>2021-06-16T18:17:33Z</time>
      </trkpt>
      <trkpt lat="36.692754" lon="-4.55815">
        <ele>41.776</ele>
        <time>2021-06-16T18:17:34Z</time>
      </trkpt>
      <trkpt lat="36.692652" lon="-4.557993">
        <ele>41.345</ele>
        <time>2021-06-16T18:17:36Z</time>
      </trkpt>
      <trkpt lat="36.692533" lon="-4.557817">
        <ele>41.639</ele>
        <time>2021-06-16T18:17:38Z</time>
      </trkpt>
      <trkpt lat="36.692473" lon="-4.557717">
        <ele>41.569</ele>
        <time>2021-06-16T18:17:39Z</time>
      </trkpt>
      <trkpt lat="36.692352" lon="-4.557516">
        <ele>41.475</ele>
        <time>2021-06-16T18:17:41Z</time>
      </trkpt>
      <trkpt lat="36.692289" lon="-4.557416">
        <ele>41.437</ele>
        <time>2021-06-16T18:17:42Z</time>
      </trkpt>
      <trkpt lat="36.692225" lon="-4.557315">
        <ele>41.556</ele>
        <time>2021-06-16T18:17:43Z</time>
      </trkpt>
      <trkpt lat="36.692162" lon="-4.55721">
        <ele>41.560</ele>
        <time>2021-06-16T18:17:44Z</time>
      </trkpt>
      <trkpt lat="36.692033" lon="-4.556991">
        <ele>41.486</ele>
        <time>2021-06-16T18:17:46Z</time>
      </trkpt>
      <trkpt lat="36.691966" lon="-4.556878">
        <ele>41.360</ele>
        <time>2021-06-16T18:17:47Z</time>
      </trkpt>
      <trkpt lat="36.6919" lon="-4.556761">
        <ele>41.226</ele>
        <time>2021-06-16T18:17:48Z</time>
      </trkpt>
      <trkpt lat="36.691764" lon="-4.556522">
        <ele>41.208</ele>
        <time>2021-06-16T18:17:50Z</time>
      </trkpt>
      <trkpt lat="36.691692" lon="-4.5564">
        <ele>40.945</ele>
        <time>2021-06-16T18:17:51Z</time>
      </trkpt>
      <trkpt lat="36.69162" lon="-4.556274">
        <ele>40.384</ele>
        <time>2021-06-16T18:17:52Z</time>
      </trkpt>
      <trkpt lat="36.691549" lon="-4.556147">
        <ele>39.888</ele>
        <time>2021-06-16T18:17:53Z</time>
      </trkpt>
      <trkpt lat="36.69141" lon="-4.555892">
        <ele>39.518</ele>
        <time>2021-06-16T18:17:55Z</time>
      </trkpt>
      <trkpt lat="36.691273" lon="-4.555638">
        <ele>38.714</ele>
        <time>2021-06-16T18:17:57Z</time>
      </trkpt>
      <trkpt lat="36.691202" lon="-4.555506">
        <ele>38.026</ele>
        <time>2021-06-16T18:17:58Z</time>
      </trkpt>
      <trkpt lat="36.691059" lon="-4.555248">
        <ele>37.355</ele>
        <time>2021-06-16T18:18:00Z</time>
      </trkpt>
      <trkpt lat="36.690987" lon="-4.555121">
        <ele>36.789</ele>
        <time>2021-06-16T18:18:01Z</time>
      </trkpt>
      <trkpt lat="36.690914" lon="-4.554993">
        <ele>36.042</ele>
        <time>2021-06-16T18:18:02Z</time>
      </trkpt>
      <trkpt lat="36.69077" lon="-4.554733">
        <ele>35.322</ele>
        <time>2021-06-16T18:18:04Z</time>
      </trkpt>
      <trkpt lat="36.690622" lon="-4.554467">
        <ele>34.814</ele>
        <time>2021-06-16T18:18:06Z</time>
      </trkpt>
      <trkpt lat="36.690546" lon="-4.554331">
        <ele>34.508</ele>
        <time>2021-06-16T18:18:07Z</time>
      </trkpt>
      <trkpt lat="36.690397" lon="-4.554061">
        <ele>33.931</ele>
        <time>2021-06-16T18:18:09Z</time>
      </trkpt>
      <trkpt lat="36.690244" lon="-4.55379">
        <ele>33.650</ele>
        <time>2021-06-16T18:18:11Z</time>
      </trkpt>
      <trkpt lat="36.690162" lon="-4.553655">
        <ele>33.264</ele>
        <time>2021-06-16T18:18:12Z</time>
      </trkpt>
      <trkpt lat="36.689988" lon="-4.553395">
        <ele>32.634</ele>
        <time>2021-06-16T18:18:14Z</time>
      </trkpt>
      <trkpt lat="36.689892" lon="-4.553274">
        <ele>32.870</ele>
        <time>2021-06-16T18:18:15Z</time>
      </trkpt>
      <trkpt lat="36.689687" lon="-4.553051">
        <ele>33.152</ele>
        <time>2021-06-16T18:18:17Z</time>
      </trkpt>
      <trkpt lat="36.689471" lon="-4.552856">
        <ele>33.291</ele>
        <time>2021-06-16T18:18:19Z</time>
      </trkpt>
      <trkpt lat="36.68936" lon="-4.552768">
        <ele>33.625</ele>
        <time>2021-06-16T18:18:20Z</time>
      </trkpt>
      <trkpt lat="36.689247" lon="-4.552686">
        <ele>33.581</ele>
        <time>2021-06-16T18:18:21Z</time>
      </trkpt>
      <trkpt lat="36.689017" lon="-4.552536">
        <ele>33.461</ele>
        <time>2021-06-16T18:18:23Z</time>
      </trkpt>
      <trkpt lat="36.688903" lon="-4.552463">
        <ele>33.517</ele>
        <time>2021-06-16T18:18:24Z</time>
      </trkpt>
      <trkpt lat="36.688675" lon="-4.552314">
        <ele>33.908</ele>
        <time>2021-06-16T18:18:26Z</time>
      </trkpt>
      <trkpt lat="36.688562" lon="-4.552237">
        <ele>34.315</ele>
        <time>2021-06-16T18:18:27Z</time>
      </trkpt>
      <trkpt lat="36.688449" lon="-4.552165">
        <ele>35.044</ele>
        <time>2021-06-16T18:18:28Z</time>
      </trkpt>
      <trkpt lat="36.688224" lon="-4.552032">
        <ele>35.938</ele>
        <time>2021-06-16T18:18:30Z</time>
      </trkpt>
      <trkpt lat="36.68811" lon="-4.551967">
        <ele>36.768</ele>
        <time>2021-06-16T18:18:31Z</time>
      </trkpt>
      <trkpt lat="36.687998" lon="-4.5519">
        <ele>37.394</ele>
        <time>2021-06-16T18:18:32Z</time>
      </trkpt>
      <trkpt lat="36.68777" lon="-4.551759">
        <ele>38.166</ele>
        <time>2021-06-16T18:18:34Z</time>
      </trkpt>
      <trkpt lat="36.687551" lon="-4.551622">
        <ele>38.445</ele>
        <time>2021-06-16T18:18:36Z</time>
      </trkpt>
      <trkpt lat="36.687339" lon="-4.551488">
        <ele>38.549</ele>
        <time>2021-06-16T18:18:38Z</time>
      </trkpt>
      <trkpt lat="36.68712" lon="-4.551348">
        <ele>38.515</ele>
        <time>2021-06-16T18:18:40Z</time>
      </trkpt>
      <trkpt lat="36.68701" lon="-4.551279">
        <ele>38.765</ele>
        <time>2021-06-16T18:18:41Z</time>
      </trkpt>
      <trkpt lat="36.686904" lon="-4.551205">
        <ele>38.311</ele>
        <time>2021-06-16T18:18:42Z</time>
      </trkpt>
      <trkpt lat="36.686801" lon="-4.551127">
        <ele>37.808</ele>
        <time>2021-06-16T18:18:43Z</time>
      </trkpt>
      <trkpt lat="36.686598" lon="-4.550956">
        <ele>37.428</ele>
        <time>2021-06-16T18:18:45Z</time>
      </trkpt>
      <trkpt lat="36.686497" lon="-4.550859">
        <ele>36.967</ele>
        <time>2021-06-16T18:18:46Z</time>
      </trkpt>
      <trkpt lat="36.686312" lon="-4.550635">
        <ele>36.391</ele>
        <time>2021-06-16T18:18:48Z</time>
      </trkpt>
      <trkpt lat="36.686153" lon="-4.550374">
        <ele>35.431</ele>
        <time>2021-06-16T18:18:50Z</time>
      </trkpt>
      <trkpt lat="36.686027" lon="-4.550095">
        <ele>34.217</ele>
        <time>2021-06-16T18:18:52Z</time>
      </trkpt>
      <trkpt lat="36.685941" lon="-4.54981">
        <ele>33.389</ele>
        <time>2021-06-16T18:18:54Z</time>
      </trkpt>
      <trkpt lat="36.685905" lon="-4.54966">
        <ele>32.978</ele>
        <time>2021-06-16T18:18:55Z</time>
      </trkpt>
      <trkpt lat="36.685834" lon="-4.54936">
        <ele>32.292</ele>
        <time>2021-06-16T18:18:57Z</time>
      </trkpt>
      <trkpt lat="36.685798" lon="-4.54921">
        <ele>32.233</ele>
        <time>2021-06-16T18:18:58Z</time>
      </trkpt>
      <trkpt lat="36.685759" lon="-4.549059">
        <ele>32.123</ele>
        <time>2021-06-16T18:18:59Z</time>
      </trkpt>
      <trkpt lat="36.685687" lon="-4.548754">
        <ele>31.915</ele>
        <time>2021-06-16T18:19:01Z</time>
      </trkpt>
      <trkpt lat="36.685651" lon="-4.548603">
        <ele>31.708</ele>
        <time>2021-06-16T18:19:02Z</time>
      </trkpt>
      <trkpt lat="36.685616" lon="-4.548453">
        <ele>31.360</ele>
        <time>2021-06-16T18:19:03Z</time>
      </trkpt>
      <trkpt lat="36.68558" lon="-4.548303">
        <ele>31.179</ele>
        <time>2021-06-16T18:19:04Z</time>
      </trkpt>
      <trkpt lat="36.685508" lon="-4.548004">
        <ele>31.363</ele>
        <time>2021-06-16T18:19:06Z</time>
      </trkpt>
      <trkpt lat="36.685471" lon="-4.547851">
        <ele>31.563</ele>
        <time>2021-06-16T18:19:07Z</time>
      </trkpt>
      <trkpt lat="36.685394" lon="-4.547543">
        <ele>31.719</ele>
        <time>2021-06-16T18:19:09Z</time>
      </trkpt>
      <trkpt lat="36.685355" lon="-4.547389">
        <ele>32.091</ele>
        <time>2021-06-16T18:19:10Z</time>
      </trkpt>
      <trkpt lat="36.685276" lon="-4.547075">
        <ele>32.670</ele>
        <time>2021-06-16T18:19:12Z</time>
      </trkpt>
      <trkpt lat="36.685236" lon="-4.546918">
        <ele>33.184</ele>
        <time>2021-06-16T18:19:13Z</time>
      </trkpt>
      <trkpt lat="36.685197" lon="-4.546762">
        <ele>33.018</ele>
        <time>2021-06-16T18:19:14Z</time>
      </trkpt>
      <trkpt lat="36.685158" lon="-4.546606">
        <ele>33.198</ele>
        <time>2021-06-16T18:19:15Z</time>
      </trkpt>
      <trkpt lat="36.685086" lon="-4.546294">
        <ele>33.617</ele>
        <time>2021-06-16T18:19:17Z</time>
      </trkpt>
      <trkpt lat="36.685012" lon="-4.545973">
        <ele>34.308</ele>
        <time>2021-06-16T18:19:19Z</time>
      </trkpt>
      <trkpt lat="36.684972" lon="-4.545817">
        <ele>35.018</ele>
        <time>2021-06-16T18:19:20Z</time>
      </trkpt>
      <trkpt lat="36.684931" lon="-4.545661">
        <ele>35.377</ele>
        <time>2021-06-16T18:19:21Z</time>
      </trkpt>
      <trkpt lat="36.684852" lon="-4.545351">
        <ele>35.441</ele>
        <time>2021-06-16T18:19:23Z</time>
      </trkpt>
      <trkpt lat="36.684814" lon="-4.545195">
        <ele>35.761</ele>
        <time>2021-06-16T18:19:24Z</time>
      </trkpt>
      <trkpt lat="36.684777" lon="-4.54504">
        <ele>36.287</ele>
        <time>2021-06-16T18:19:25Z</time>
      </trkpt>
      <trkpt lat="36.684739" lon="-4.544885">
        <ele>36.769</ele>
        <time>2021-06-16T18:19:26Z</time>
      </trkpt>
      <trkpt lat="36.684663" lon="-4.54459">
        <ele>36.938</ele>
        <time>2021-06-16T18:19:28Z</time>
      </trkpt>
      <trkpt lat="36.684627" lon="-4.544442">
        <ele>37.172</ele>
        <time>2021-06-16T18:19:29Z</time>
      </trkpt>
      <trkpt lat="36.684593" lon="-4.544292">
        <ele>37.164</ele>
        <time>2021-06-16T18:19:30Z</time>
      </trkpt>
      <trkpt lat="36.684559" lon="-4.54414">
        <ele>37.306</ele>
        <time>2021-06-16T18:19:31Z</time>
      </trkpt>
      <trkpt lat="36.684488" lon="-4.543841">
        <ele>37.016</ele>
        <time>2021-06-16T18:19:33Z</time>
      </trkpt>
      <trkpt lat="36.684413" lon="-4.543537">
        <ele>37.008</ele>
        <time>2021-06-16T18:19:35Z</time>
      </trkpt>
      <trkpt lat="36.684375" lon="-4.543382">
        <ele>36.823</ele>
        <time>2021-06-16T18:19:36Z</time>
      </trkpt>
      <trkpt lat="36.684295" lon="-4.543072">
        <ele>36.562</ele>
        <time>2021-06-16T18:19:38Z</time>
      </trkpt>
      <trkpt lat="36.684257" lon="-4.542916">
        <ele>36.586</ele>
        <time>2021-06-16T18:19:39Z</time>
      </trkpt>
      <trkpt lat="36.68422" lon="-4.542762">
        <ele>36.016</ele>
        <time>2021-06-16T18:19:40Z</time>
      </trkpt>
      <trkpt lat="36.684143" lon="-4.542452">
        <ele>35.472</ele>
        <time>2021-06-16T18:19:42Z</time>
      </trkpt>
      <trkpt lat="36.684105" lon="-4.542298">
        <ele>34.934</ele>
        <time>2021-06-16T18:19:43Z</time>
      </trkpt>
      <trkpt lat="36.684028" lon="-4.54199">
        <ele>34.753</ele>
        <time>2021-06-16T18:19:45Z</time>
      </trkpt>
      <trkpt lat="36.683954" lon="-4.54168">
        <ele>34.447</ele>
        <time>2021-06-16T18:19:47Z</time>
      </trkpt>
      <trkpt lat="36.683876" lon="-4.541368">
        <ele>33.824</ele>
        <time>2021-06-16T18:19:49Z</time>
      </trkpt>
      <trkpt lat="36.683801" lon="-4.541049">
        <ele>33.504</ele>
        <time>2021-06-16T18:19:51Z</time>
      </trkpt>
      <trkpt lat="36.683725" lon="-4.540726">
        <ele>32.614</ele>
        <time>2021-06-16T18:19:53Z</time>
      </trkpt>
      <trkpt lat="36.683646" lon="-4.540408">
        <ele>32.208</ele>
        <time>2021-06-16T18:19:55Z</time>
      </trkpt>
      <trkpt lat="36.683607" lon="-4.540251">
        <ele>31.939</ele>
        <time>2021-06-16T18:19:56Z</time>
      </trkpt>
      <trkpt lat="36.683567" lon="-4.540095">
        <ele>31.658</ele>
        <time>2021-06-16T18:19:57Z</time>
      </trkpt>
      <trkpt lat="36.683493" lon="-4.539788">
        <ele>31.892</ele>
        <time>2021-06-16T18:19:59Z</time>
      </trkpt>
      <trkpt lat="36.683454" lon="-4.539637">
        <ele>31.882</ele>
        <time>2021-06-16T18:20:00Z</time>
      </trkpt>
      <trkpt lat="36.683416" lon="-4.539487">
        <ele>32.278</ele>
        <time>2021-06-16T18:20:01Z</time>
      </trkpt>
      <trkpt lat="36.683347" lon="-4.53919">
        <ele>32.940</ele>
        <time>2021-06-16T18:20:03Z</time>
      </trkpt>
      <trkpt lat="36.683278" lon="-4.538897">
        <ele>33.459</ele>
        <time>2021-06-16T18:20:05Z</time>
      </trkpt>
      <trkpt lat="36.683215" lon="-4.538631">
        <ele>33.823</ele>
        <time>2021-06-16T18:20:07Z</time>
      </trkpt>
      <trkpt lat="36.683149" lon="-4.538392">
        <ele>34.371</ele>
        <time>2021-06-16T18:20:09Z</time>
      </trkpt>
      <trkpt lat="36.683074" lon="-4.538173">
        <ele>34.641</ele>
        <time>2021-06-16T18:20:11Z</time>
      </trkpt>
      <trkpt lat="36.683034" lon="-4.538072">
        <ele>35.115</ele>
        <time>2021-06-16T18:20:12Z</time>
      </trkpt>
      <trkpt lat="36.68299" lon="-4.537978">
        <ele>35.508</ele>
        <time>2021-06-16T18:20:13Z</time>
      </trkpt>
      <trkpt lat="36.682899" lon="-4.537809">
        <ele>35.914</ele>
        <time>2021-06-16T18:20:15Z</time>
      </trkpt>
      <trkpt lat="36.682796" lon="-4.537677">
        <ele>36.373</ele>
        <time>2021-06-16T18:20:17Z</time>
      </trkpt>
      <trkpt lat="36.682675" lon="-4.537601">
        <ele>36.697</ele>
        <time>2021-06-16T18:20:19Z</time>
      </trkpt>
      <trkpt lat="36.682608" lon="-4.537574">
        <ele>37.027</ele>
        <time>2021-06-16T18:20:20Z</time>
      </trkpt>
      <trkpt lat="36.682501" lon="-4.537482">
        <ele>37.563</ele>
        <time>2021-06-16T18:20:22Z</time>
      </trkpt>
      <trkpt lat="36.682475" lon="-4.537414">
        <ele>37.565</ele>
        <time>2021-06-16T18:20:23Z</time>
      </trkpt>
      <trkpt lat="36.682437" lon="-4.537262">
        <ele>38.174</ele>
        <time>2021-06-16T18:20:25Z</time>
      </trkpt>
      <trkpt lat="36.682352" lon="-4.537111">
        <ele>38.998</ele>
        <time>2021-06-16T18:20:27Z</time>
      </trkpt>
      <trkpt lat="36.68222" lon="-4.536978">
        <ele>40.161</ele>
        <time>2021-06-16T18:20:29Z</time>
      </trkpt>
      <trkpt lat="36.682139" lon="-4.53692">
        <ele>40.821</ele>
        <time>2021-06-16T18:20:30Z</time>
      </trkpt>
      <trkpt lat="36.681969" lon="-4.536824">
        <ele>41.313</ele>
        <time>2021-06-16T18:20:32Z</time>
      </trkpt>
      <trkpt lat="36.68188" lon="-4.536776">
        <ele>41.408</ele>
        <time>2021-06-16T18:20:33Z</time>
      </trkpt>
      <trkpt lat="36.681787" lon="-4.536731">
        <ele>41.273</ele>
        <time>2021-06-16T18:20:34Z</time>
      </trkpt>
      <trkpt lat="36.681594" lon="-4.536651">
        <ele>41.692</ele>
        <time>2021-06-16T18:20:36Z</time>
      </trkpt>
      <trkpt lat="36.681388" lon="-4.536567">
        <ele>41.726</ele>
        <time>2021-06-16T18:20:38Z</time>
      </trkpt>
      <trkpt lat="36.681173" lon="-4.536484">
        <ele>41.926</ele>
        <time>2021-06-16T18:20:40Z</time>
      </trkpt>
      <trkpt lat="36.681062" lon="-4.536442">
        <ele>41.852</ele>
        <time>2021-06-16T18:20:41Z</time>
      </trkpt>
      <trkpt lat="36.680833" lon="-4.536355">
        <ele>42.084</ele>
        <time>2021-06-16T18:20:43Z</time>
      </trkpt>
      <trkpt lat="36.680602" lon="-4.536271">
        <ele>41.723</ele>
        <time>2021-06-16T18:20:45Z</time>
      </trkpt>
      <trkpt lat="36.680367" lon="-4.536188">
        <ele>41.177</ele>
        <time>2021-06-16T18:20:47Z</time>
      </trkpt>
      <trkpt lat="36.680252" lon="-4.536145">
        <ele>40.794</ele>
        <time>2021-06-16T18:20:48Z</time>
      </trkpt>
      <trkpt lat="36.680026" lon="-4.536057">
        <ele>40.857</ele>
        <time>2021-06-16T18:20:50Z</time>
      </trkpt>
      <trkpt lat="36.67991" lon="-4.536014">
        <ele>41.022</ele>
        <time>2021-06-16T18:20:51Z</time>
      </trkpt>
      <trkpt lat="36.679679" lon="-4.535924">
        <ele>41.008</ele>
        <time>2021-06-16T18:20:53Z</time>
      </trkpt>
      <trkpt lat="36.679557" lon="-4.535875">
        <ele>41.086</ele>
        <time>2021-06-16T18:20:54Z</time>
      </trkpt>
      <trkpt lat="36.679329" lon="-4.535782">
        <ele>41.025</ele>
        <time>2021-06-16T18:20:56Z</time>
      </trkpt>
      <trkpt lat="36.679209" lon="-4.535735">
        <ele>41.329</ele>
        <time>2021-06-16T18:20:57Z</time>
      </trkpt>
      <trkpt lat="36.678975" lon="-4.535649">
        <ele>41.269</ele>
        <time>2021-06-16T18:20:59Z</time>
      </trkpt>
      <trkpt lat="36.678741" lon="-4.535556">
        <ele>41.225</ele>
        <time>2021-06-16T18:21:01Z</time>
      </trkpt>
      <trkpt lat="36.678507" lon="-4.535469">
        <ele>41.127</ele>
        <time>2021-06-16T18:21:03Z</time>
      </trkpt>
      <trkpt lat="36.678389" lon="-4.535424">
        <ele>41.056</ele>
        <time>2021-06-16T18:21:04Z</time>
      </trkpt>
      <trkpt lat="36.678273" lon="-4.535382">
        <ele>41.020</ele>
        <time>2021-06-16T18:21:05Z</time>
      </trkpt>
      <trkpt lat="36.678047" lon="-4.535301">
        <ele>40.496</ele>
        <time>2021-06-16T18:21:07Z</time>
      </trkpt>
      <trkpt lat="36.677825" lon="-4.535216">
        <ele>40.231</ele>
        <time>2021-06-16T18:21:09Z</time>
      </trkpt>
      <trkpt lat="36.677604" lon="-4.535131">
        <ele>40.424</ele>
        <time>2021-06-16T18:21:11Z</time>
      </trkpt>
      <trkpt lat="36.677387" lon="-4.535036">
        <ele>40.608</ele>
        <time>2021-06-16T18:21:13Z</time>
      </trkpt>
      <trkpt lat="36.677182" lon="-4.534948">
        <ele>40.536</ele>
        <time>2021-06-16T18:21:15Z</time>
      </trkpt>
      <trkpt lat="36.677083" lon="-4.5349">
        <ele>40.325</ele>
        <time>2021-06-16T18:21:16Z</time>
      </trkpt>
      <trkpt lat="36.676883" lon="-4.534796">
        <ele>40.299</ele>
        <time>2021-06-16T18:21:18Z</time>
      </trkpt>
      <trkpt lat="36.676688" lon="-4.534694">
        <ele>40.699</ele>
        <time>2021-06-16T18:21:20Z</time>
      </trkpt>
      <trkpt lat="36.676599" lon="-4.534638">
        <ele>40.865</ele>
        <time>2021-06-16T18:21:21Z</time>
      </trkpt>
      <trkpt lat="36.676433" lon="-4.534519">
        <ele>41.287</ele>
        <time>2021-06-16T18:21:23Z</time>
      </trkpt>
      <trkpt lat="36.676287" lon="-4.534412">
        <ele>41.896</ele>
        <time>2021-06-16T18:21:25Z</time>
      </trkpt>
      <trkpt lat="36.67616" lon="-4.534305">
        <ele>42.450</ele>
        <time>2021-06-16T18:21:27Z</time>
      </trkpt>
      <trkpt lat="36.676104" lon="-4.534255">
        <ele>42.856</ele>
        <time>2021-06-16T18:21:28Z</time>
      </trkpt>
      <trkpt lat="36.676052" lon="-4.534208">
        <ele>43.159</ele>
        <time>2021-06-16T18:21:29Z</time>
      </trkpt>
      <trkpt lat="36.67595" lon="-4.534125">
        <ele>43.214</ele>
        <time>2021-06-16T18:21:31Z</time>
      </trkpt>
      <trkpt lat="36.675905" lon="-4.534095">
        <ele>43.008</ele>
        <time>2021-06-16T18:21:32Z</time>
      </trkpt>
      <trkpt lat="36.675852" lon="-4.53407">
        <ele>42.912</ele>
        <time>2021-06-16T18:21:34Z</time>
      </trkpt>
      <trkpt lat="36.675805" lon="-4.53406">
        <ele>42.891</ele>
        <time>2021-06-16T18:21:45Z</time>
      </trkpt>
      <trkpt lat="36.675754" lon="-4.534045">
        <ele>42.815</ele>
        <time>2021-06-16T18:21:48Z</time>
      </trkpt>
      <trkpt lat="36.675701" lon="-4.534041">
        <ele>42.815</ele>
        <time>2021-06-16T18:21:51Z</time>
      </trkpt>
      <trkpt lat="36.675636" lon="-4.534047">
        <ele>46.821</ele>
        <time>2021-06-16T18:21:55Z</time>
      </trkpt>
      <trkpt lat="36.675573" lon="-4.534046">
        <ele>50.883</ele>
        <time>2021-06-16T18:21:56Z</time>
      </trkpt>
      <trkpt lat="36.675441" lon="-4.534023">
        <ele>54.812</ele>
        <time>2021-06-16T18:21:58Z</time>
      </trkpt>
      <trkpt lat="36.675377" lon="-4.533989">
        <ele>58.886</ele>
        <time>2021-06-16T18:21:59Z</time>
      </trkpt>
      <trkpt lat="36.675322" lon="-4.533931">
        <ele>62.827</ele>
        <time>2021-06-16T18:22:00Z</time>
      </trkpt>
      <trkpt lat="36.675248" lon="-4.533757">
        <ele>66.868</ele>
        <time>2021-06-16T18:22:02Z</time>
      </trkpt>
      <trkpt lat="36.67523" lon="-4.533651">
        <ele>69.514</ele>
        <time>2021-06-16T18:22:03Z</time>
      </trkpt>
      <trkpt lat="36.675223" lon="-4.533418">
        <ele>71.108</ele>
        <time>2021-06-16T18:22:05Z</time>
      </trkpt>
      <trkpt lat="36.67521" lon="-4.533293">
        <ele>72.129</ele>
        <time>2021-06-16T18:22:06Z</time>
      </trkpt>
      <trkpt lat="36.675182" lon="-4.533168">
        <ele>72.748</ele>
        <time>2021-06-16T18:22:07Z</time>
      </trkpt>
      <trkpt lat="36.675141" lon="-4.533045">
        <ele>73.082</ele>
        <time>2021-06-16T18:22:08Z</time>
      </trkpt>
      <trkpt lat="36.675035" lon="-4.532805">
        <ele>73.262</ele>
        <time>2021-06-16T18:22:10Z</time>
      </trkpt>
      <trkpt lat="36.674915" lon="-4.532554">
        <ele>73.338</ele>
        <time>2021-06-16T18:22:12Z</time>
      </trkpt>
      <trkpt lat="36.674796" lon="-4.532288">
        <ele>73.480</ele>
        <time>2021-06-16T18:22:14Z</time>
      </trkpt>
      <trkpt lat="36.674735" lon="-4.53215">
        <ele>73.489</ele>
        <time>2021-06-16T18:22:15Z</time>
      </trkpt>
      <trkpt lat="36.674611" lon="-4.531869">
        <ele>73.513</ele>
        <time>2021-06-16T18:22:17Z</time>
      </trkpt>
      <trkpt lat="36.674489" lon="-4.531586">
        <ele>73.575</ele>
        <time>2021-06-16T18:22:19Z</time>
      </trkpt>
      <trkpt lat="36.674369" lon="-4.531301">
        <ele>73.528</ele>
        <time>2021-06-16T18:22:21Z</time>
      </trkpt>
      <trkpt lat="36.674311" lon="-4.531155">
        <ele>73.520</ele>
        <time>2021-06-16T18:22:22Z</time>
      </trkpt>
      <trkpt lat="36.674252" lon="-4.531011">
        <ele>73.508</ele>
        <time>2021-06-16T18:22:23Z</time>
      </trkpt>
      <trkpt lat="36.674133" lon="-4.530723">
        <ele>73.574</ele>
        <time>2021-06-16T18:22:25Z</time>
      </trkpt>
      <trkpt lat="36.674008" lon="-4.530431">
        <ele>73.593</ele>
        <time>2021-06-16T18:22:27Z</time>
      </trkpt>
      <trkpt lat="36.673877" lon="-4.530133">
        <ele>73.517</ele>
        <time>2021-06-16T18:22:29Z</time>
      </trkpt>
      <trkpt lat="36.67381" lon="-4.529983">
        <ele>73.597</ele>
        <time>2021-06-16T18:22:30Z</time>
      </trkpt>
      <trkpt lat="36.673675" lon="-4.529696">
        <ele>73.533</ele>
        <time>2021-06-16T18:22:32Z</time>
      </trkpt>
      <trkpt lat="36.673532" lon="-4.529427">
        <ele>73.565</ele>
        <time>2021-06-16T18:22:34Z</time>
      </trkpt>
      <trkpt lat="36.673461" lon="-4.529292">
        <ele>73.544</ele>
        <time>2021-06-16T18:22:35Z</time>
      </trkpt>
      <trkpt lat="36.673311" lon="-4.529026">
        <ele>73.528</ele>
        <time>2021-06-16T18:22:37Z</time>
      </trkpt>
      <trkpt lat="36.673233" lon="-4.528895">
        <ele>73.539</ele>
        <time>2021-06-16T18:22:38Z</time>
      </trkpt>
      <trkpt lat="36.673079" lon="-4.528638">
        <ele>73.501</ele>
        <time>2021-06-16T18:22:40Z</time>
      </trkpt>
      <trkpt lat="36.673001" lon="-4.528511">
        <ele>73.521</ele>
        <time>2021-06-16T18:22:41Z</time>
      </trkpt>
      <trkpt lat="36.672856" lon="-4.528256">
        <ele>73.508</ele>
        <time>2021-06-16T18:22:43Z</time>
      </trkpt>
      <trkpt lat="36.672721" lon="-4.528003">
        <ele>73.510</ele>
        <time>2021-06-16T18:22:45Z</time>
      </trkpt>
      <trkpt lat="36.672584" lon="-4.527748">
        <ele>73.539</ele>
        <time>2021-06-16T18:22:47Z</time>
      </trkpt>
      <trkpt lat="36.672448" lon="-4.527503">
        <ele>69.593</ele>
        <time>2021-06-16T18:22:49Z</time>
      </trkpt>
      <trkpt lat="36.672385" lon="-4.527383">
        <ele>65.593</ele>
        <time>2021-06-16T18:22:50Z</time>
      </trkpt>
      <trkpt lat="36.672319" lon="-4.527265">
        <ele>61.539</ele>
        <time>2021-06-16T18:22:51Z</time>
      </trkpt>
      <trkpt lat="36.672183" lon="-4.527024">
        <ele>57.511</ele>
        <time>2021-06-16T18:22:53Z</time>
      </trkpt>
      <trkpt lat="36.672041" lon="-4.52678">
        <ele>53.550</ele>
        <time>2021-06-16T18:22:55Z</time>
      </trkpt>
      <trkpt lat="36.671898" lon="-4.526543">
        <ele>49.554</ele>
        <time>2021-06-16T18:22:57Z</time>
      </trkpt>
      <trkpt lat="36.671828" lon="-4.526428">
        <ele>46.936</ele>
        <time>2021-06-16T18:22:58Z</time>
      </trkpt>
      <trkpt lat="36.671754" lon="-4.526311">
        <ele>45.617</ele>
        <time>2021-06-16T18:22:59Z</time>
      </trkpt>
      <trkpt lat="36.671604" lon="-4.526084">
        <ele>45.718</ele>
        <time>2021-06-16T18:23:01Z</time>
      </trkpt>
      <trkpt lat="36.671527" lon="-4.525969">
        <ele>45.808</ele>
        <time>2021-06-16T18:23:02Z</time>
      </trkpt>
      <trkpt lat="36.671453" lon="-4.525847">
        <ele>45.860</ele>
        <time>2021-06-16T18:23:03Z</time>
      </trkpt>
      <trkpt lat="36.671382" lon="-4.525724">
        <ele>46.229</ele>
        <time>2021-06-16T18:23:04Z</time>
      </trkpt>
      <trkpt lat="36.671311" lon="-4.525595">
        <ele>46.323</ele>
        <time>2021-06-16T18:23:05Z</time>
      </trkpt>
      <trkpt lat="36.671173" lon="-4.525339">
        <ele>46.783</ele>
        <time>2021-06-16T18:23:07Z</time>
      </trkpt>
      <trkpt lat="36.671045" lon="-4.525075">
        <ele>47.689</ele>
        <time>2021-06-16T18:23:09Z</time>
      </trkpt>
      <trkpt lat="36.67093" lon="-4.524808">
        <ele>48.461</ele>
        <time>2021-06-16T18:23:11Z</time>
      </trkpt>
      <trkpt lat="36.670879" lon="-4.524673">
        <ele>48.910</ele>
        <time>2021-06-16T18:23:12Z</time>
      </trkpt>
      <trkpt lat="36.67078" lon="-4.524405">
        <ele>49.584</ele>
        <time>2021-06-16T18:23:14Z</time>
      </trkpt>
      <trkpt lat="36.670689" lon="-4.524136">
        <ele>50.065</ele>
        <time>2021-06-16T18:23:16Z</time>
      </trkpt>
      <trkpt lat="36.670602" lon="-4.523861">
        <ele>50.668</ele>
        <time>2021-06-16T18:23:18Z</time>
      </trkpt>
      <trkpt lat="36.670557" lon="-4.523723">
        <ele>51.514</ele>
        <time>2021-06-16T18:23:19Z</time>
      </trkpt>
      <trkpt lat="36.670471" lon="-4.523447">
        <ele>52.308</ele>
        <time>2021-06-16T18:23:21Z</time>
      </trkpt>
      <trkpt lat="36.670375" lon="-4.523161">
        <ele>53.433</ele>
        <time>2021-06-16T18:23:23Z</time>
      </trkpt>
      <trkpt lat="36.670328" lon="-4.523014">
        <ele>54.032</ele>
        <time>2021-06-16T18:23:24Z</time>
      </trkpt>
      <trkpt lat="36.670281" lon="-4.522866">
        <ele>54.336</ele>
        <time>2021-06-16T18:23:25Z</time>
      </trkpt>
      <trkpt lat="36.670185" lon="-4.522571">
        <ele>53.996</ele>
        <time>2021-06-16T18:23:27Z</time>
      </trkpt>
      <trkpt lat="36.670135" lon="-4.522423">
        <ele>53.972</ele>
        <time>2021-06-16T18:23:28Z</time>
      </trkpt>
      <trkpt lat="36.670041" lon="-4.522126">
        <ele>53.854</ele>
        <time>2021-06-16T18:23:30Z</time>
      </trkpt>
      <trkpt lat="36.66995" lon="-4.521834">
        <ele>53.263</ele>
        <time>2021-06-16T18:23:32Z</time>
      </trkpt>
      <trkpt lat="36.66986" lon="-4.521546">
        <ele>52.677</ele>
        <time>2021-06-16T18:23:34Z</time>
      </trkpt>
      <trkpt lat="36.669815" lon="-4.521403">
        <ele>52.416</ele>
        <time>2021-06-16T18:23:35Z</time>
      </trkpt>
      <trkpt lat="36.669724" lon="-4.521116">
        <ele>52.576</ele>
        <time>2021-06-16T18:23:37Z</time>
      </trkpt>
      <trkpt lat="36.669678" lon="-4.520973">
        <ele>52.713</ele>
        <time>2021-06-16T18:23:38Z</time>
      </trkpt>
      <trkpt lat="36.669583" lon="-4.520693">
        <ele>52.408</ele>
        <time>2021-06-16T18:23:40Z</time>
      </trkpt>
      <trkpt lat="36.669538" lon="-4.520555">
        <ele>52.228</ele>
        <time>2021-06-16T18:23:41Z</time>
      </trkpt>
      <trkpt lat="36.669496" lon="-4.520417">
        <ele>52.167</ele>
        <time>2021-06-16T18:23:42Z</time>
      </trkpt>
      <trkpt lat="36.669414" lon="-4.520155">
        <ele>52.431</ele>
        <time>2021-06-16T18:23:44Z</time>
      </trkpt>
      <trkpt lat="36.669338" lon="-4.519921">
        <ele>52.531</ele>
        <time>2021-06-16T18:23:46Z</time>
      </trkpt>
      <trkpt lat="36.669268" lon="-4.519739">
        <ele>52.557</ele>
        <time>2021-06-16T18:23:48Z</time>
      </trkpt>
      <trkpt lat="36.669225" lon="-4.519663">
        <ele>52.669</ele>
        <time>2021-06-16T18:23:49Z</time>
      </trkpt>
      <trkpt lat="36.669149" lon="-4.519489">
        <ele>53.288</ele>
        <time>2021-06-16T18:23:51Z</time>
      </trkpt>
      <trkpt lat="36.669114" lon="-4.519264">
        <ele>53.422</ele>
        <time>2021-06-16T18:23:53Z</time>
      </trkpt>
      <trkpt lat="36.669087" lon="-4.519144">
        <ele>53.424</ele>
        <time>2021-06-16T18:23:54Z</time>
      </trkpt>
      <trkpt lat="36.66905" lon="-4.51902">
        <ele>53.404</ele>
        <time>2021-06-16T18:23:55Z</time>
      </trkpt>
      <trkpt lat="36.669009" lon="-4.518894">
        <ele>53.114</ele>
        <time>2021-06-16T18:23:56Z</time>
      </trkpt>
      <trkpt lat="36.668966" lon="-4.51876">
        <ele>53.008</ele>
        <time>2021-06-16T18:23:57Z</time>
      </trkpt>
      <trkpt lat="36.668879" lon="-4.518481">
        <ele>52.819</ele>
        <time>2021-06-16T18:23:59Z</time>
      </trkpt>
      <trkpt lat="36.668786" lon="-4.518199">
        <ele>52.828</ele>
        <time>2021-06-16T18:24:01Z</time>
      </trkpt>
      <trkpt lat="36.668739" lon="-4.518061">
        <ele>52.742</ele>
        <time>2021-06-16T18:24:02Z</time>
      </trkpt>
      <trkpt lat="36.668691" lon="-4.517924">
        <ele>52.742</ele>
        <time>2021-06-16T18:24:03Z</time>
      </trkpt>
      <trkpt lat="36.668595" lon="-4.517645">
        <ele>52.828</ele>
        <time>2021-06-16T18:24:05Z</time>
      </trkpt>
      <trkpt lat="36.668548" lon="-4.517502">
        <ele>52.930</ele>
        <time>2021-06-16T18:24:06Z</time>
      </trkpt>
      <trkpt lat="36.668451" lon="-4.517218">
        <ele>52.759</ele>
        <time>2021-06-16T18:24:08Z</time>
      </trkpt>
      <trkpt lat="36.668358" lon="-4.516936">
        <ele>52.673</ele>
        <time>2021-06-16T18:24:10Z</time>
      </trkpt>
      <trkpt lat="36.668311" lon="-4.516792">
        <ele>52.653</ele>
        <time>2021-06-16T18:24:11Z</time>
      </trkpt>
      <trkpt lat="36.668265" lon="-4.516648">
        <ele>52.504</ele>
        <time>2021-06-16T18:24:12Z</time>
      </trkpt>
      <trkpt lat="36.668219" lon="-4.516503">
        <ele>52.614</ele>
        <time>2021-06-16T18:24:13Z</time>
      </trkpt>
      <trkpt lat="36.668137" lon="-4.516208">
        <ele>52.608</ele>
        <time>2021-06-16T18:24:15Z</time>
      </trkpt>
      <trkpt lat="36.668073" lon="-4.515914">
        <ele>52.882</ele>
        <time>2021-06-16T18:24:17Z</time>
      </trkpt>
      <trkpt lat="36.668049" lon="-4.515767">
        <ele>53.191</ele>
        <time>2021-06-16T18:24:18Z</time>
      </trkpt>
      <trkpt lat="36.668027" lon="-4.51562">
        <ele>53.175</ele>
        <time>2021-06-16T18:24:19Z</time>
      </trkpt>
      <trkpt lat="36.667995" lon="-4.515323">
        <ele>53.455</ele>
        <time>2021-06-16T18:24:21Z</time>
      </trkpt>
      <trkpt lat="36.667984" lon="-4.515178">
        <ele>53.821</ele>
        <time>2021-06-16T18:24:22Z</time>
      </trkpt>
      <trkpt lat="36.667978" lon="-4.515037">
        <ele>54.453</ele>
        <time>2021-06-16T18:24:23Z</time>
      </trkpt>
      <trkpt lat="36.667977" lon="-4.514903">
        <ele>54.722</ele>
        <time>2021-06-16T18:24:24Z</time>
      </trkpt>
      <trkpt lat="36.667994" lon="-4.51465">
        <ele>55.366</ele>
        <time>2021-06-16T18:24:26Z</time>
      </trkpt>
      <trkpt lat="36.668007" lon="-4.514529">
        <ele>55.746</ele>
        <time>2021-06-16T18:24:27Z</time>
      </trkpt>
      <trkpt lat="36.668021" lon="-4.514406">
        <ele>56.288</ele>
        <time>2021-06-16T18:24:28Z</time>
      </trkpt>
      <trkpt lat="36.668036" lon="-4.514281">
        <ele>56.716</ele>
        <time>2021-06-16T18:24:29Z</time>
      </trkpt>
      <trkpt lat="36.668056" lon="-4.514155">
        <ele>57.008</ele>
        <time>2021-06-16T18:24:30Z</time>
      </trkpt>
      <trkpt lat="36.668077" lon="-4.514022">
        <ele>57.241</ele>
        <time>2021-06-16T18:24:31Z</time>
      </trkpt>
      <trkpt lat="36.668095" lon="-4.513889">
        <ele>57.460</ele>
        <time>2021-06-16T18:24:32Z</time>
      </trkpt>
      <trkpt lat="36.66813" lon="-4.513621">
        <ele>57.294</ele>
        <time>2021-06-16T18:24:34Z</time>
      </trkpt>
      <trkpt lat="36.668143" lon="-4.513482">
        <ele>56.774</ele>
        <time>2021-06-16T18:24:35Z</time>
      </trkpt>
      <trkpt lat="36.668151" lon="-4.51334">
        <ele>56.630</ele>
        <time>2021-06-16T18:24:36Z</time>
      </trkpt>
      <trkpt lat="36.668147" lon="-4.513054">
        <ele>56.662</ele>
        <time>2021-06-16T18:24:38Z</time>
      </trkpt>
      <trkpt lat="36.668111" lon="-4.512767">
        <ele>56.851</ele>
        <time>2021-06-16T18:24:40Z</time>
      </trkpt>
      <trkpt lat="36.668045" lon="-4.512484">
        <ele>57.175</ele>
        <time>2021-06-16T18:24:42Z</time>
      </trkpt>
      <trkpt lat="36.668" lon="-4.51235">
        <ele>57.348</ele>
        <time>2021-06-16T18:24:43Z</time>
      </trkpt>
      <trkpt lat="36.667949" lon="-4.51222">
        <ele>57.661</ele>
        <time>2021-06-16T18:24:44Z</time>
      </trkpt>
      <trkpt lat="36.667832" lon="-4.511972">
        <ele>58.217</ele>
        <time>2021-06-16T18:24:46Z</time>
      </trkpt>
      <trkpt lat="36.667766" lon="-4.511856">
        <ele>58.508</ele>
        <time>2021-06-16T18:24:47Z</time>
      </trkpt>
      <trkpt lat="36.667627" lon="-4.51164">
        <ele>59.171</ele>
        <time>2021-06-16T18:24:49Z</time>
      </trkpt>
      <trkpt lat="36.66749" lon="-4.511423">
        <ele>59.680</ele>
        <time>2021-06-16T18:24:51Z</time>
      </trkpt>
      <trkpt lat="36.667422" lon="-4.511313">
        <ele>60.224</ele>
        <time>2021-06-16T18:24:52Z</time>
      </trkpt>
      <trkpt lat="36.667353" lon="-4.511201">
        <ele>61.094</ele>
        <time>2021-06-16T18:24:53Z</time>
      </trkpt>
      <trkpt lat="36.667216" lon="-4.510985">
        <ele>61.860</ele>
        <time>2021-06-16T18:24:55Z</time>
      </trkpt>
      <trkpt lat="36.667146" lon="-4.510877">
        <ele>62.432</ele>
        <time>2021-06-16T18:24:56Z</time>
      </trkpt>
      <trkpt lat="36.667007" lon="-4.510657">
        <ele>62.811</ele>
        <time>2021-06-16T18:24:58Z</time>
      </trkpt>
      <trkpt lat="36.666939" lon="-4.510543">
        <ele>63.315</ele>
        <time>2021-06-16T18:24:59Z</time>
      </trkpt>
      <trkpt lat="36.666871" lon="-4.51043">
        <ele>63.658</ele>
        <time>2021-06-16T18:25:00Z</time>
      </trkpt>
      <trkpt lat="36.666737" lon="-4.510211">
        <ele>64.252</ele>
        <time>2021-06-16T18:25:02Z</time>
      </trkpt>
      <trkpt lat="36.666613" lon="-4.510012">
        <ele>64.417</ele>
        <time>2021-06-16T18:25:04Z</time>
      </trkpt>
      <trkpt lat="36.666553" lon="-4.509918">
        <ele>64.008</ele>
        <time>2021-06-16T18:25:05Z</time>
      </trkpt>
      <trkpt lat="36.66644" lon="-4.509732">
        <ele>64.382</ele>
        <time>2021-06-16T18:25:07Z</time>
      </trkpt>
      <trkpt lat="36.666384" lon="-4.509637">
        <ele>64.031</ele>
        <time>2021-06-16T18:25:08Z</time>
      </trkpt>
      <trkpt lat="36.666327" lon="-4.509542">
        <ele>64.245</ele>
        <time>2021-06-16T18:25:09Z</time>
      </trkpt>
      <trkpt lat="36.666203" lon="-4.509356">
        <ele>64.015</ele>
        <time>2021-06-16T18:25:11Z</time>
      </trkpt>
      <trkpt lat="36.666083" lon="-4.509162">
        <ele>64.291</ele>
        <time>2021-06-16T18:25:13Z</time>
      </trkpt>
      <trkpt lat="36.666023" lon="-4.509061">
        <ele>64.383</ele>
        <time>2021-06-16T18:25:14Z</time>
      </trkpt>
      <trkpt lat="36.665895" lon="-4.508859">
        <ele>64.112</ele>
        <time>2021-06-16T18:25:16Z</time>
      </trkpt>
      <trkpt lat="36.665828" lon="-4.508763">
        <ele>64.056</ele>
        <time>2021-06-16T18:25:17Z</time>
      </trkpt>
      <trkpt lat="36.665763" lon="-4.508663">
        <ele>63.767</ele>
        <time>2021-06-16T18:25:18Z</time>
      </trkpt>
      <trkpt lat="36.665698" lon="-4.508556">
        <ele>63.581</ele>
        <time>2021-06-16T18:25:19Z</time>
      </trkpt>
      <trkpt lat="36.665631" lon="-4.508446">
        <ele>63.719</ele>
        <time>2021-06-16T18:25:20Z</time>
      </trkpt>
      <trkpt lat="36.665493" lon="-4.508217">
        <ele>63.908</ele>
        <time>2021-06-16T18:25:22Z</time>
      </trkpt>
      <trkpt lat="36.665345" lon="-4.507982">
        <ele>64.243</ele>
        <time>2021-06-16T18:25:24Z</time>
      </trkpt>
      <trkpt lat="36.665196" lon="-4.507747">
        <ele>64.492</ele>
        <time>2021-06-16T18:25:26Z</time>
      </trkpt>
      <trkpt lat="36.665121" lon="-4.50763">
        <ele>64.776</ele>
        <time>2021-06-16T18:25:27Z</time>
      </trkpt>
      <trkpt lat="36.665046" lon="-4.507512">
        <ele>64.796</ele>
        <time>2021-06-16T18:25:28Z</time>
      </trkpt>
      <trkpt lat="36.664898" lon="-4.507273">
        <ele>64.562</ele>
        <time>2021-06-16T18:25:30Z</time>
      </trkpt>
      <trkpt lat="36.664822" lon="-4.507152">
        <ele>64.584</ele>
        <time>2021-06-16T18:25:31Z</time>
      </trkpt>
      <trkpt lat="36.664672" lon="-4.506911">
        <ele>64.253</ele>
        <time>2021-06-16T18:25:33Z</time>
      </trkpt>
      <trkpt lat="36.664524" lon="-4.50667">
        <ele>64.297</ele>
        <time>2021-06-16T18:25:35Z</time>
      </trkpt>
      <trkpt lat="36.664381" lon="-4.506439">
        <ele>63.954</ele>
        <time>2021-06-16T18:25:37Z</time>
      </trkpt>
      <trkpt lat="36.66424" lon="-4.506214">
        <ele>63.656</ele>
        <time>2021-06-16T18:25:39Z</time>
      </trkpt>
      <trkpt lat="36.6641" lon="-4.506006">
        <ele>63.511</ele>
        <time>2021-06-16T18:25:41Z</time>
      </trkpt>
      <trkpt lat="36.663946" lon="-4.505836">
        <ele>63.208</ele>
        <time>2021-06-16T18:25:43Z</time>
      </trkpt>
      <trkpt lat="36.66386" lon="-4.505763">
        <ele>63.232</ele>
        <time>2021-06-16T18:25:44Z</time>
      </trkpt>
      <trkpt lat="36.663671" lon="-4.505652">
        <ele>62.841</ele>
        <time>2021-06-16T18:25:46Z</time>
      </trkpt>
      <trkpt lat="36.663572" lon="-4.505614">
        <ele>62.635</ele>
        <time>2021-06-16T18:25:47Z</time>
      </trkpt>
      <trkpt lat="36.663364" lon="-4.505577">
        <ele>62.215</ele>
        <time>2021-06-16T18:25:49Z</time>
      </trkpt>
      <trkpt lat="36.663153" lon="-4.505585">
        <ele>62.251</ele>
        <time>2021-06-16T18:25:51Z</time>
      </trkpt>
      <trkpt lat="36.663051" lon="-4.505611">
        <ele>62.163</ele>
        <time>2021-06-16T18:25:52Z</time>
      </trkpt>
      <trkpt lat="36.662949" lon="-4.505647">
        <ele>62.052</ele>
        <time>2021-06-16T18:25:53Z</time>
      </trkpt>
      <trkpt lat="36.662762" lon="-4.505728">
        <ele>61.996</ele>
        <time>2021-06-16T18:25:55Z</time>
      </trkpt>
      <trkpt lat="36.662601" lon="-4.505815">
        <ele>61.917</ele>
        <time>2021-06-16T18:25:57Z</time>
      </trkpt>
      <trkpt lat="36.662451" lon="-4.50591">
        <ele>62.187</ele>
        <time>2021-06-16T18:25:59Z</time>
      </trkpt>
      <trkpt lat="36.66239" lon="-4.505963">
        <ele>62.615</ele>
        <time>2021-06-16T18:26:00Z</time>
      </trkpt>
      <trkpt lat="36.662311" lon="-4.506046">
        <ele>64.008</ele>
        <time>2021-06-16T18:26:02Z</time>
      </trkpt>
      <trkpt lat="36.662275" lon="-4.506083">
        <ele>65.098</ele>
        <time>2021-06-16T18:26:05Z</time>
      </trkpt>
      <trkpt lat="36.662226" lon="-4.506123">
        <ele>64.617</ele>
        <time>2021-06-16T18:26:10Z</time>
      </trkpt>
      <trkpt lat="36.662191" lon="-4.50618">
        <ele>64.421</ele>
        <time>2021-06-16T18:26:12Z</time>
      </trkpt>
      <trkpt lat="36.662123" lon="-4.506275">
        <ele>64.361</ele>
        <time>2021-06-16T18:26:14Z</time>
      </trkpt>
      <trkpt lat="36.662073" lon="-4.506337">
        <ele>64.227</ele>
        <time>2021-06-16T18:26:15Z</time>
      </trkpt>
      <trkpt lat="36.662016" lon="-4.506389">
        <ele>64.119</ele>
        <time>2021-06-16T18:26:16Z</time>
      </trkpt>
      <trkpt lat="36.661891" lon="-4.506429">
        <ele>64.078</ele>
        <time>2021-06-16T18:26:18Z</time>
      </trkpt>
      <trkpt lat="36.661763" lon="-4.506384">
        <ele>64.022</ele>
        <time>2021-06-16T18:26:20Z</time>
      </trkpt>
      <trkpt lat="36.661687" lon="-4.506221">
        <ele>64.077</ele>
        <time>2021-06-16T18:26:22Z</time>
      </trkpt>
      <trkpt lat="36.661702" lon="-4.506003">
        <ele>63.961</ele>
        <time>2021-06-16T18:26:24Z</time>
      </trkpt>
      <trkpt lat="36.661732" lon="-4.505893">
        <ele>63.927</ele>
        <time>2021-06-16T18:26:25Z</time>
      </trkpt>
      <trkpt lat="36.661777" lon="-4.505658">
        <ele>63.808</ele>
        <time>2021-06-16T18:26:27Z</time>
      </trkpt>
      <trkpt lat="36.661778" lon="-4.505531">
        <ele>63.814</ele>
        <time>2021-06-16T18:26:28Z</time>
      </trkpt>
      <trkpt lat="36.66174" lon="-4.505274">
        <ele>63.873</ele>
        <time>2021-06-16T18:26:30Z</time>
      </trkpt>
      <trkpt lat="36.661711" lon="-4.505141">
        <ele>63.867</ele>
        <time>2021-06-16T18:26:31Z</time>
      </trkpt>
      <trkpt lat="36.661646" lon="-4.50487">
        <ele>63.877</ele>
        <time>2021-06-16T18:26:33Z</time>
      </trkpt>
      <trkpt lat="36.661586" lon="-4.504594">
        <ele>63.863</ele>
        <time>2021-06-16T18:26:35Z</time>
      </trkpt>
      <trkpt lat="36.661527" lon="-4.504324">
        <ele>63.845</ele>
        <time>2021-06-16T18:26:37Z</time>
      </trkpt>
      <trkpt lat="36.661471" lon="-4.504047">
        <ele>63.854</ele>
        <time>2021-06-16T18:26:39Z</time>
      </trkpt>
      <trkpt lat="36.661441" lon="-4.503906">
        <ele>63.878</ele>
        <time>2021-06-16T18:26:40Z</time>
      </trkpt>
      <trkpt lat="36.661384" lon="-4.503625">
        <ele>63.888</ele>
        <time>2021-06-16T18:26:42Z</time>
      </trkpt>
      <trkpt lat="36.661325" lon="-4.503344">
        <ele>63.824</ele>
        <time>2021-06-16T18:26:44Z</time>
      </trkpt>
      <trkpt lat="36.661294" lon="-4.503198">
        <ele>63.826</ele>
        <time>2021-06-16T18:26:45Z</time>
      </trkpt>
      <trkpt lat="36.66126" lon="-4.50305">
        <ele>63.808</ele>
        <time>2021-06-16T18:26:46Z</time>
      </trkpt>
      <trkpt lat="36.661226" lon="-4.502898">
        <ele>63.835</ele>
        <time>2021-06-16T18:26:47Z</time>
      </trkpt>
      <trkpt lat="36.661162" lon="-4.502599">
        <ele>63.814</ele>
        <time>2021-06-16T18:26:49Z</time>
      </trkpt>
      <trkpt lat="36.66113" lon="-4.502448">
        <ele>63.848</ele>
        <time>2021-06-16T18:26:50Z</time>
      </trkpt>
      <trkpt lat="36.661073" lon="-4.50214">
        <ele>63.858</ele>
        <time>2021-06-16T18:26:52Z</time>
      </trkpt>
      <trkpt lat="36.661046" lon="-4.501988">
        <ele>63.864</ele>
        <time>2021-06-16T18:26:53Z</time>
      </trkpt>
      <trkpt lat="36.660994" lon="-4.501702">
        <ele>63.856</ele>
        <time>2021-06-16T18:26:55Z</time>
      </trkpt>
      <trkpt lat="36.66097" lon="-4.50157">
        <ele>63.895</ele>
        <time>2021-06-16T18:26:56Z</time>
      </trkpt>
      <trkpt lat="36.66093" lon="-4.501325">
        <ele>63.889</ele>
        <time>2021-06-16T18:26:58Z</time>
      </trkpt>
      <trkpt lat="36.660884" lon="-4.501082">
        <ele>63.845</ele>
        <time>2021-06-16T18:27:00Z</time>
      </trkpt>
      <trkpt lat="36.660833" lon="-4.50083">
        <ele>63.847</ele>
        <time>2021-06-16T18:27:02Z</time>
      </trkpt>
      <trkpt lat="36.660809" lon="-4.500701">
        <ele>63.811</ele>
        <time>2021-06-16T18:27:03Z</time>
      </trkpt>
      <trkpt lat="36.660784" lon="-4.50057">
        <ele>63.808</ele>
        <time>2021-06-16T18:27:04Z</time>
      </trkpt>
      <trkpt lat="36.660759" lon="-4.500443">
        <ele>63.881</ele>
        <time>2021-06-16T18:27:05Z</time>
      </trkpt>
      <trkpt lat="36.660711" lon="-4.500185">
        <ele>63.840</ele>
        <time>2021-06-16T18:27:07Z</time>
      </trkpt>
      <trkpt lat="36.660685" lon="-4.500054">
        <ele>63.814</ele>
        <time>2021-06-16T18:27:08Z</time>
      </trkpt>
      <trkpt lat="36.660634" lon="-4.4998">
        <ele>59.834</ele>
        <time>2021-06-16T18:27:10Z</time>
      </trkpt>
      <trkpt lat="36.660609" lon="-4.499668">
        <ele>55.870</ele>
        <time>2021-06-16T18:27:11Z</time>
      </trkpt>
      <trkpt lat="36.660569" lon="-4.499416">
        <ele>51.872</ele>
        <time>2021-06-16T18:27:13Z</time>
      </trkpt>
      <trkpt lat="36.660533" lon="-4.499165">
        <ele>49.091</ele>
        <time>2021-06-16T18:27:15Z</time>
      </trkpt>
      <trkpt lat="36.660513" lon="-4.499035">
        <ele>47.435</ele>
        <time>2021-06-16T18:27:16Z</time>
      </trkpt>
      <trkpt lat="36.660489" lon="-4.498899">
        <ele>46.269</ele>
        <time>2021-06-16T18:27:17Z</time>
      </trkpt>
      <trkpt lat="36.660432" lon="-4.49861">
        <ele>45.304</ele>
        <time>2021-06-16T18:27:19Z</time>
      </trkpt>
      <trkpt lat="36.6604" lon="-4.498454">
        <ele>44.524</ele>
        <time>2021-06-16T18:27:20Z</time>
      </trkpt>
      <trkpt lat="36.660336" lon="-4.49814">
        <ele>43.608</ele>
        <time>2021-06-16T18:27:22Z</time>
      </trkpt>
      <trkpt lat="36.660306" lon="-4.497985">
        <ele>42.713</ele>
        <time>2021-06-16T18:27:23Z</time>
      </trkpt>
      <trkpt lat="36.660248" lon="-4.497682">
        <ele>42.242</ele>
        <time>2021-06-16T18:27:25Z</time>
      </trkpt>
      <trkpt lat="36.660218" lon="-4.497533">
        <ele>41.896</ele>
        <time>2021-06-16T18:27:26Z</time>
      </trkpt>
      <trkpt lat="36.660158" lon="-4.497244">
        <ele>41.516</ele>
        <time>2021-06-16T18:27:28Z</time>
      </trkpt>
      <trkpt lat="36.660127" lon="-4.497105">
        <ele>41.392</ele>
        <time>2021-06-16T18:27:29Z</time>
      </trkpt>
      <trkpt lat="36.660072" lon="-4.496826">
        <ele>41.144</ele>
        <time>2021-06-16T18:27:31Z</time>
      </trkpt>
      <trkpt lat="36.660043" lon="-4.496681">
        <ele>40.633</ele>
        <time>2021-06-16T18:27:32Z</time>
      </trkpt>
      <trkpt lat="36.659987" lon="-4.496384">
        <ele>40.677</ele>
        <time>2021-06-16T18:27:34Z</time>
      </trkpt>
      <trkpt lat="36.659931" lon="-4.496084">
        <ele>40.443</ele>
        <time>2021-06-16T18:27:36Z</time>
      </trkpt>
      <trkpt lat="36.659905" lon="-4.495937">
        <ele>40.264</ele>
        <time>2021-06-16T18:27:37Z</time>
      </trkpt>
      <trkpt lat="36.659846" lon="-4.495644">
        <ele>40.210</ele>
        <time>2021-06-16T18:27:39Z</time>
      </trkpt>
      <trkpt lat="36.659815" lon="-4.495493">
        <ele>40.208</ele>
        <time>2021-06-16T18:27:40Z</time>
      </trkpt>
      <trkpt lat="36.659785" lon="-4.495341">
        <ele>40.141</ele>
        <time>2021-06-16T18:27:41Z</time>
      </trkpt>
      <trkpt lat="36.659725" lon="-4.495041">
        <ele>40.070</ele>
        <time>2021-06-16T18:27:43Z</time>
      </trkpt>
      <trkpt lat="36.659666" lon="-4.494744">
        <ele>39.634</ele>
        <time>2021-06-16T18:27:45Z</time>
      </trkpt>
      <trkpt lat="36.659639" lon="-4.494594">
        <ele>39.494</ele>
        <time>2021-06-16T18:27:46Z</time>
      </trkpt>
      <trkpt lat="36.659586" lon="-4.494294">
        <ele>38.530</ele>
        <time>2021-06-16T18:27:48Z</time>
      </trkpt>
      <trkpt lat="36.659534" lon="-4.493997">
        <ele>37.652</ele>
        <time>2021-06-16T18:27:50Z</time>
      </trkpt>
      <trkpt lat="36.659476" lon="-4.493709">
        <ele>36.711</ele>
        <time>2021-06-16T18:27:52Z</time>
      </trkpt>
      <trkpt lat="36.659448" lon="-4.493564">
        <ele>36.165</ele>
        <time>2021-06-16T18:27:53Z</time>
      </trkpt>
      <trkpt lat="36.659422" lon="-4.493424">
        <ele>35.933</ele>
        <time>2021-06-16T18:27:54Z</time>
      </trkpt>
      <trkpt lat="36.659372" lon="-4.493142">
        <ele>35.423</ele>
        <time>2021-06-16T18:27:56Z</time>
      </trkpt>
      <trkpt lat="36.659315" lon="-4.492849">
        <ele>35.415</ele>
        <time>2021-06-16T18:27:58Z</time>
      </trkpt>
      <trkpt lat="36.659245" lon="-4.492543">
        <ele>35.308</ele>
        <time>2021-06-16T18:28:00Z</time>
      </trkpt>
      <trkpt lat="36.659204" lon="-4.492389">
        <ele>35.010</ele>
        <time>2021-06-16T18:28:01Z</time>
      </trkpt>
      <trkpt lat="36.659163" lon="-4.492235">
        <ele>34.579</ele>
        <time>2021-06-16T18:28:02Z</time>
      </trkpt>
      <trkpt lat="36.659062" lon="-4.491931">
        <ele>34.163</ele>
        <time>2021-06-16T18:28:04Z</time>
      </trkpt>
      <trkpt lat="36.659009" lon="-4.491781">
        <ele>33.733</ele>
        <time>2021-06-16T18:28:05Z</time>
      </trkpt>
      <trkpt lat="36.658906" lon="-4.49148">
        <ele>33.199</ele>
        <time>2021-06-16T18:28:07Z</time>
      </trkpt>
      <trkpt lat="36.658802" lon="-4.49118">
        <ele>32.581</ele>
        <time>2021-06-16T18:28:09Z</time>
      </trkpt>
      <trkpt lat="36.65875" lon="-4.491032">
        <ele>31.890</ele>
        <time>2021-06-16T18:28:10Z</time>
      </trkpt>
      <trkpt lat="36.658699" lon="-4.490885">
        <ele>31.144</ele>
        <time>2021-06-16T18:28:11Z</time>
      </trkpt>
      <trkpt lat="36.658598" lon="-4.490589">
        <ele>30.348</ele>
        <time>2021-06-16T18:28:13Z</time>
      </trkpt>
      <trkpt lat="36.658501" lon="-4.490301">
        <ele>29.661</ele>
        <time>2021-06-16T18:28:15Z</time>
      </trkpt>
      <trkpt lat="36.658405" lon="-4.490027">
        <ele>28.817</ele>
        <time>2021-06-16T18:28:17Z</time>
      </trkpt>
      <trkpt lat="36.65831" lon="-4.489759">
        <ele>28.008</ele>
        <time>2021-06-16T18:28:19Z</time>
      </trkpt>
      <trkpt lat="36.658219" lon="-4.489485">
        <ele>26.841</ele>
        <time>2021-06-16T18:28:21Z</time>
      </trkpt>
      <trkpt lat="36.65813" lon="-4.489222">
        <ele>25.720</ele>
        <time>2021-06-16T18:28:23Z</time>
      </trkpt>
      <trkpt lat="36.658086" lon="-4.489091">
        <ele>24.834</ele>
        <time>2021-06-16T18:28:24Z</time>
      </trkpt>
      <trkpt lat="36.658004" lon="-4.48885">
        <ele>23.884</ele>
        <time>2021-06-16T18:28:26Z</time>
      </trkpt>
      <trkpt lat="36.657965" lon="-4.488736">
        <ele>23.390</ele>
        <time>2021-06-16T18:28:27Z</time>
      </trkpt>
      <trkpt lat="36.657931" lon="-4.488631">
        <ele>22.412</ele>
        <time>2021-06-16T18:28:28Z</time>
      </trkpt>
      <trkpt lat="36.657873" lon="-4.488455">
        <ele>21.871</ele>
        <time>2021-06-16T18:28:30Z</time>
      </trkpt>
      <trkpt lat="36.657826" lon="-4.488328">
        <ele>21.215</ele>
        <time>2021-06-16T18:28:32Z</time>
      </trkpt>
      <trkpt lat="36.657806" lon="-4.488275">
        <ele>20.978</ele>
        <time>2021-06-16T18:28:33Z</time>
      </trkpt>
      <trkpt lat="36.657778" lon="-4.488195">
        <ele>20.333</ele>
        <time>2021-06-16T18:28:35Z</time>
      </trkpt>
      <trkpt lat="36.657756" lon="-4.488143">
        <ele>19.926</ele>
        <time>2021-06-16T18:28:38Z</time>
      </trkpt>
      <trkpt lat="36.657728" lon="-4.48807">
        <ele>20.608</ele>
        <time>2021-06-16T18:28:41Z</time>
      </trkpt>
      <trkpt lat="36.657695" lon="-4.48801">
        <ele>21.014</ele>
        <time>2021-06-16T18:28:43Z</time>
      </trkpt>
      <trkpt lat="36.657659" lon="-4.487959">
        <ele>21.283</ele>
        <time>2021-06-16T18:28:46Z</time>
      </trkpt>
      <trkpt lat="36.657609" lon="-4.487922">
        <ele>21.437</ele>
        <time>2021-06-16T18:28:50Z</time>
      </trkpt>
      <trkpt lat="36.657564" lon="-4.487899">
        <ele>21.577</ele>
        <time>2021-06-16T18:28:52Z</time>
      </trkpt>
      <trkpt lat="36.657489" lon="-4.487862">
        <ele>21.613</ele>
        <time>2021-06-16T18:28:54Z</time>
      </trkpt>
      <trkpt lat="36.657389" lon="-4.487792">
        <ele>21.665</ele>
        <time>2021-06-16T18:28:56Z</time>
      </trkpt>
      <trkpt lat="36.65735" lon="-4.487743">
        <ele>21.664</ele>
        <time>2021-06-16T18:28:57Z</time>
      </trkpt>
      <trkpt lat="36.657327" lon="-4.487685">
        <ele>21.648</ele>
        <time>2021-06-16T18:28:58Z</time>
      </trkpt>
      <trkpt lat="36.65733" lon="-4.487535">
        <ele>21.659</ele>
        <time>2021-06-16T18:29:00Z</time>
      </trkpt>
      <trkpt lat="36.657357" lon="-4.487455">
        <ele>21.603</ele>
        <time>2021-06-16T18:29:01Z</time>
      </trkpt>
      <trkpt lat="36.657403" lon="-4.48738">
        <ele>21.623</ele>
        <time>2021-06-16T18:29:02Z</time>
      </trkpt>
      <trkpt lat="36.657533" lon="-4.487271">
        <ele>21.608</ele>
        <time>2021-06-16T18:29:04Z</time>
      </trkpt>
      <trkpt lat="36.657602" lon="-4.487227">
        <ele>21.692</ele>
        <time>2021-06-16T18:29:05Z</time>
      </trkpt>
      <trkpt lat="36.657661" lon="-4.487169">
        <ele>21.621</ele>
        <time>2021-06-16T18:29:06Z</time>
      </trkpt>
      <trkpt lat="36.657732" lon="-4.487006">
        <ele>21.615</ele>
        <time>2021-06-16T18:29:08Z</time>
      </trkpt>
      <trkpt lat="36.657744" lon="-4.486912">
        <ele>21.645</ele>
        <time>2021-06-16T18:29:09Z</time>
      </trkpt>
      <trkpt lat="36.657746" lon="-4.486818">
        <ele>21.651</ele>
        <time>2021-06-16T18:29:10Z</time>
      </trkpt>
      <trkpt lat="36.657725" lon="-4.486727">
        <ele>21.693</ele>
        <time>2021-06-16T18:29:11Z</time>
      </trkpt>
      <trkpt lat="36.657655" lon="-4.486551">
        <ele>21.672</ele>
        <time>2021-06-16T18:29:13Z</time>
      </trkpt>
      <trkpt lat="36.657589" lon="-4.486374">
        <ele>21.676</ele>
        <time>2021-06-16T18:29:15Z</time>
      </trkpt>
      <trkpt lat="36.657552" lon="-4.486291">
        <ele>21.678</ele>
        <time>2021-06-16T18:29:16Z</time>
      </trkpt>
      <trkpt lat="36.657467" lon="-4.486156">
        <ele>21.633</ele>
        <time>2021-06-16T18:29:18Z</time>
      </trkpt>
      <trkpt lat="36.65742" lon="-4.486111">
        <ele>21.626</ele>
        <time>2021-06-16T18:29:19Z</time>
      </trkpt>
      <trkpt lat="36.657371" lon="-4.486082">
        <ele>21.608</ele>
        <time>2021-06-16T18:29:20Z</time>
      </trkpt>
      <trkpt lat="36.657293" lon="-4.48607">
        <ele>21.624</ele>
        <time>2021-06-16T18:29:22Z</time>
      </trkpt>
      <trkpt lat="36.657223" lon="-4.486077">
        <ele>21.663</ele>
        <time>2021-06-16T18:29:24Z</time>
      </trkpt>
      <trkpt lat="36.657133" lon="-4.486092">
        <ele>21.627</ele>
        <time>2021-06-16T18:29:26Z</time>
      </trkpt>
      <trkpt lat="36.65707" lon="-4.48611">
        <ele>21.667</ele>
        <time>2021-06-16T18:29:27Z</time>
      </trkpt>
      <trkpt lat="36.656924" lon="-4.486159">
        <ele>21.643</ele>
        <time>2021-06-16T18:29:29Z</time>
      </trkpt>
      <trkpt lat="36.656838" lon="-4.486186">
        <ele>21.665</ele>
        <time>2021-06-16T18:29:30Z</time>
      </trkpt>
      <trkpt lat="36.656743" lon="-4.486216">
        <ele>21.664</ele>
        <time>2021-06-16T18:29:31Z</time>
      </trkpt>
      <trkpt lat="36.656644" lon="-4.486247">
        <ele>21.648</ele>
        <time>2021-06-16T18:29:32Z</time>
      </trkpt>
      <trkpt lat="36.65644" lon="-4.486323">
        <ele>21.681</ele>
        <time>2021-06-16T18:29:34Z</time>
      </trkpt>
      <trkpt lat="36.656333" lon="-4.486367">
        <ele>21.661</ele>
        <time>2021-06-16T18:29:35Z</time>
      </trkpt>
      <trkpt lat="36.656223" lon="-4.48641">
        <ele>21.617</ele>
        <time>2021-06-16T18:29:36Z</time>
      </trkpt>
      <trkpt lat="36.655993" lon="-4.486488">
        <ele>21.608</ele>
        <time>2021-06-16T18:29:38Z</time>
      </trkpt>
      <trkpt lat="36.655752" lon="-4.486556">
        <ele>21.675</ele>
        <time>2021-06-16T18:29:40Z</time>
      </trkpt>
      <trkpt lat="36.655629" lon="-4.486591">
        <ele>21.124</ele>
        <time>2021-06-16T18:29:41Z</time>
      </trkpt>
      <trkpt lat="36.655383" lon="-4.486654">
        <ele>20.728</ele>
        <time>2021-06-16T18:29:43Z</time>
      </trkpt>
      <trkpt lat="36.655137" lon="-4.486703">
        <ele>20.788</ele>
        <time>2021-06-16T18:29:45Z</time>
      </trkpt>
      <trkpt lat="36.654886" lon="-4.486746">
        <ele>20.264</ele>
        <time>2021-06-16T18:29:47Z</time>
      </trkpt>
      <trkpt lat="36.65476" lon="-4.486768">
        <ele>20.446</ele>
        <time>2021-06-16T18:29:48Z</time>
      </trkpt>
      <trkpt lat="36.654506" lon="-4.486811">
        <ele>20.625</ele>
        <time>2021-06-16T18:29:50Z</time>
      </trkpt>
      <trkpt lat="36.654377" lon="-4.486835">
        <ele>20.729</ele>
        <time>2021-06-16T18:29:51Z</time>
      </trkpt>
      <trkpt lat="36.654248" lon="-4.486858">
        <ele>20.838</ele>
        <time>2021-06-16T18:29:52Z</time>
      </trkpt>
      <trkpt lat="36.654119" lon="-4.486879">
        <ele>21.070</ele>
        <time>2021-06-16T18:29:53Z</time>
      </trkpt>
      <trkpt lat="36.653872" lon="-4.486922">
        <ele>21.417</ele>
        <time>2021-06-16T18:29:55Z</time>
      </trkpt>
      <trkpt lat="36.653756" lon="-4.486943">
        <ele>21.808</ele>
        <time>2021-06-16T18:29:56Z</time>
      </trkpt>
      <trkpt lat="36.653642" lon="-4.486962">
        <ele>22.270</ele>
        <time>2021-06-16T18:29:57Z</time>
      </trkpt>
      <trkpt lat="36.653412" lon="-4.487">
        <ele>22.939</ele>
        <time>2021-06-16T18:29:59Z</time>
      </trkpt>
      <trkpt lat="36.653292" lon="-4.487019">
        <ele>23.223</ele>
        <time>2021-06-16T18:30:00Z</time>
      </trkpt>
      <trkpt lat="36.65317" lon="-4.487041">
        <ele>23.843</ele>
        <time>2021-06-16T18:30:01Z</time>
      </trkpt>
      <trkpt lat="36.652925" lon="-4.487086">
        <ele>24.319</ele>
        <time>2021-06-16T18:30:03Z</time>
      </trkpt>
      <trkpt lat="36.652677" lon="-4.48713">
        <ele>24.341</ele>
        <time>2021-06-16T18:30:05Z</time>
      </trkpt>
      <trkpt lat="36.65255" lon="-4.487153">
        <ele>24.240</ele>
        <time>2021-06-16T18:30:06Z</time>
      </trkpt>
      <trkpt lat="36.652422" lon="-4.487175">
        <ele>24.494</ele>
        <time>2021-06-16T18:30:07Z</time>
      </trkpt>
      <trkpt lat="36.652294" lon="-4.487196">
        <ele>24.775</ele>
        <time>2021-06-16T18:30:08Z</time>
      </trkpt>
      <trkpt lat="36.652165" lon="-4.487216">
        <ele>24.728</ele>
        <time>2021-06-16T18:30:09Z</time>
      </trkpt>
      <trkpt lat="36.651905" lon="-4.487263">
        <ele>24.620</ele>
        <time>2021-06-16T18:30:11Z</time>
      </trkpt>
      <trkpt lat="36.651775" lon="-4.487289">
        <ele>24.708</ele>
        <time>2021-06-16T18:30:12Z</time>
      </trkpt>
      <trkpt lat="36.651514" lon="-4.487352">
        <ele>24.964</ele>
        <time>2021-06-16T18:30:14Z</time>
      </trkpt>
      <trkpt lat="36.651385" lon="-4.487391">
        <ele>25.143</ele>
        <time>2021-06-16T18:30:15Z</time>
      </trkpt>
      <trkpt lat="36.651133" lon="-4.487476">
        <ele>25.187</ele>
        <time>2021-06-16T18:30:17Z</time>
      </trkpt>
      <trkpt lat="36.650888" lon="-4.487579">
        <ele>25.247</ele>
        <time>2021-06-16T18:30:19Z</time>
      </trkpt>
      <trkpt lat="36.65077" lon="-4.487633">
        <ele>25.683</ele>
        <time>2021-06-16T18:30:20Z</time>
      </trkpt>
      <trkpt lat="36.650649" lon="-4.487688">
        <ele>25.745</ele>
        <time>2021-06-16T18:30:21Z</time>
      </trkpt>
      <trkpt lat="36.6504" lon="-4.487806">
        <ele>25.744</ele>
        <time>2021-06-16T18:30:23Z</time>
      </trkpt>
      <trkpt lat="36.650274" lon="-4.487874">
        <ele>25.978</ele>
        <time>2021-06-16T18:30:24Z</time>
      </trkpt>
      <trkpt lat="36.650146" lon="-4.487941">
        <ele>26.059</ele>
        <time>2021-06-16T18:30:25Z</time>
      </trkpt>
      <trkpt lat="36.649892" lon="-4.488073">
        <ele>25.703</ele>
        <time>2021-06-16T18:30:27Z</time>
      </trkpt>
      <trkpt lat="36.649638" lon="-4.488202">
        <ele>25.223</ele>
        <time>2021-06-16T18:30:29Z</time>
      </trkpt>
      <trkpt lat="36.649512" lon="-4.488265">
        <ele>25.008</ele>
        <time>2021-06-16T18:30:30Z</time>
      </trkpt>
      <trkpt lat="36.649257" lon="-4.488394">
        <ele>25.282</ele>
        <time>2021-06-16T18:30:32Z</time>
      </trkpt>
      <trkpt lat="36.649128" lon="-4.488459">
        <ele>25.191</ele>
        <time>2021-06-16T18:30:33Z</time>
      </trkpt>
      <trkpt lat="36.649" lon="-4.488524">
        <ele>25.145</ele>
        <time>2021-06-16T18:30:34Z</time>
      </trkpt>
      <trkpt lat="36.64875" lon="-4.488659">
        <ele>25.025</ele>
        <time>2021-06-16T18:30:36Z</time>
      </trkpt>
      <trkpt lat="36.648623" lon="-4.488727">
        <ele>25.191</ele>
        <time>2021-06-16T18:30:37Z</time>
      </trkpt>
      <trkpt lat="36.648368" lon="-4.488856">
        <ele>25.423</ele>
        <time>2021-06-16T18:30:39Z</time>
      </trkpt>
      <trkpt lat="36.648113" lon="-4.488983">
        <ele>25.832</ele>
        <time>2021-06-16T18:30:41Z</time>
      </trkpt>
      <trkpt lat="36.647875" lon="-4.489105">
        <ele>25.636</ele>
        <time>2021-06-16T18:30:43Z</time>
      </trkpt>
      <trkpt lat="36.647654" lon="-4.489219">
        <ele>25.646</ele>
        <time>2021-06-16T18:30:45Z</time>
      </trkpt>
      <trkpt lat="36.647434" lon="-4.489334">
        <ele>25.688</ele>
        <time>2021-06-16T18:30:47Z</time>
      </trkpt>
      <trkpt lat="36.647325" lon="-4.489386">
        <ele>25.916</ele>
        <time>2021-06-16T18:30:48Z</time>
      </trkpt>
      <trkpt lat="36.647108" lon="-4.489478">
        <ele>26.208</ele>
        <time>2021-06-16T18:30:50Z</time>
      </trkpt>
      <trkpt lat="36.64689" lon="-4.489558">
        <ele>26.241</ele>
        <time>2021-06-16T18:30:52Z</time>
      </trkpt>
      <trkpt lat="36.646673" lon="-4.489623">
        <ele>26.870</ele>
        <time>2021-06-16T18:30:54Z</time>
      </trkpt>
      <trkpt lat="36.646456" lon="-4.489683">
        <ele>26.894</ele>
        <time>2021-06-16T18:30:56Z</time>
      </trkpt>
      <trkpt lat="36.646246" lon="-4.489732">
        <ele>27.344</ele>
        <time>2021-06-16T18:30:58Z</time>
      </trkpt>
      <trkpt lat="36.646043" lon="-4.489771">
        <ele>28.270</ele>
        <time>2021-06-16T18:31:00Z</time>
      </trkpt>
      <trkpt lat="36.645845" lon="-4.489816">
        <ele>28.542</ele>
        <time>2021-06-16T18:31:02Z</time>
      </trkpt>
      <trkpt lat="36.645637" lon="-4.489866">
        <ele>28.651</ele>
        <time>2021-06-16T18:31:04Z</time>
      </trkpt>
      <trkpt lat="36.645532" lon="-4.489897">
        <ele>28.835</ele>
        <time>2021-06-16T18:31:05Z</time>
      </trkpt>
      <trkpt lat="36.645423" lon="-4.489938">
        <ele>28.789</ele>
        <time>2021-06-16T18:31:06Z</time>
      </trkpt>
      <trkpt lat="36.6452" lon="-4.490037">
        <ele>28.206</ele>
        <time>2021-06-16T18:31:08Z</time>
      </trkpt>
      <trkpt lat="36.645089" lon="-4.490098">
        <ele>27.926</ele>
        <time>2021-06-16T18:31:09Z</time>
      </trkpt>
      <trkpt lat="36.64498" lon="-4.490166">
        <ele>27.708</ele>
        <time>2021-06-16T18:31:10Z</time>
      </trkpt>
      <trkpt lat="36.644767" lon="-4.490311">
        <ele>27.345</ele>
        <time>2021-06-16T18:31:12Z</time>
      </trkpt>
      <trkpt lat="36.644666" lon="-4.490391">
        <ele>26.844</ele>
        <time>2021-06-16T18:31:13Z</time>
      </trkpt>
      <trkpt lat="36.644461" lon="-4.490571">
        <ele>26.458</ele>
        <time>2021-06-16T18:31:15Z</time>
      </trkpt>
      <trkpt lat="36.644359" lon="-4.490666">
        <ele>26.388</ele>
        <time>2021-06-16T18:31:16Z</time>
      </trkpt>
      <trkpt lat="36.644168" lon="-4.490865">
        <ele>26.024</ele>
        <time>2021-06-16T18:31:18Z</time>
      </trkpt>
      <trkpt lat="36.643986" lon="-4.491091">
        <ele>25.626</ele>
        <time>2021-06-16T18:31:20Z</time>
      </trkpt>
      <trkpt lat="36.643896" lon="-4.49121">
        <ele>25.235</ele>
        <time>2021-06-16T18:31:21Z</time>
      </trkpt>
      <trkpt lat="36.643806" lon="-4.491328">
        <ele>25.099</ele>
        <time>2021-06-16T18:31:22Z</time>
      </trkpt>
      <trkpt lat="36.643629" lon="-4.491564">
        <ele>25.169</ele>
        <time>2021-06-16T18:31:24Z</time>
      </trkpt>
      <trkpt lat="36.643542" lon="-4.491679">
        <ele>25.004</ele>
        <time>2021-06-16T18:31:25Z</time>
      </trkpt>
      <trkpt lat="36.643374" lon="-4.491905">
        <ele>24.924</ele>
        <time>2021-06-16T18:31:27Z</time>
      </trkpt>
      <trkpt lat="36.643293" lon="-4.492013">
        <ele>25.108</ele>
        <time>2021-06-16T18:31:28Z</time>
      </trkpt>
      <trkpt lat="36.643211" lon="-4.49212">
        <ele>25.153</ele>
        <time>2021-06-16T18:31:29Z</time>
      </trkpt>
      <trkpt lat="36.64313" lon="-4.492226">
        <ele>25.212</ele>
        <time>2021-06-16T18:31:30Z</time>
      </trkpt>
      <trkpt lat="36.643051" lon="-4.492336">
        <ele>25.386</ele>
        <time>2021-06-16T18:31:31Z</time>
      </trkpt>
      <trkpt lat="36.642893" lon="-4.492551">
        <ele>25.956</ele>
        <time>2021-06-16T18:31:33Z</time>
      </trkpt>
      <trkpt lat="36.642814" lon="-4.49266">
        <ele>26.282</ele>
        <time>2021-06-16T18:31:34Z</time>
      </trkpt>
      <trkpt lat="36.642734" lon="-4.49277">
        <ele>26.314</ele>
        <time>2021-06-16T18:31:35Z</time>
      </trkpt>
      <trkpt lat="36.642575" lon="-4.492994">
        <ele>26.583</ele>
        <time>2021-06-16T18:31:37Z</time>
      </trkpt>
      <trkpt lat="36.64242" lon="-4.493206">
        <ele>26.557</ele>
        <time>2021-06-16T18:31:39Z</time>
      </trkpt>
      <trkpt lat="36.642282" lon="-4.493403">
        <ele>27.074</ele>
        <time>2021-06-16T18:31:41Z</time>
      </trkpt>
      <trkpt lat="36.642159" lon="-4.493585">
        <ele>27.456</ele>
        <time>2021-06-16T18:31:43Z</time>
      </trkpt>
      <trkpt lat="36.642115" lon="-4.493653">
        <ele>27.221</ele>
        <time>2021-06-16T18:31:44Z</time>
      </trkpt>
      <trkpt lat="36.642046" lon="-4.493756">
        <ele>27.408</ele>
        <time>2021-06-16T18:31:46Z</time>
      </trkpt>
      <trkpt lat="36.641978" lon="-4.493854">
        <ele>27.514</ele>
        <time>2021-06-16T18:31:48Z</time>
      </trkpt>
      <trkpt lat="36.641879" lon="-4.493991">
        <ele>27.663</ele>
        <time>2021-06-16T18:31:50Z</time>
      </trkpt>
      <trkpt lat="36.641754" lon="-4.494166">
        <ele>28.047</ele>
        <time>2021-06-16T18:31:52Z</time>
      </trkpt>
      <trkpt lat="36.641688" lon="-4.494253">
        <ele>28.247</ele>
        <time>2021-06-16T18:31:53Z</time>
      </trkpt>
      <trkpt lat="36.641556" lon="-4.494435">
        <ele>28.263</ele>
        <time>2021-06-16T18:31:55Z</time>
      </trkpt>
      <trkpt lat="36.641489" lon="-4.494526">
        <ele>28.425</ele>
        <time>2021-06-16T18:31:56Z</time>
      </trkpt>
      <trkpt lat="36.641345" lon="-4.494709">
        <ele>29.354</ele>
        <time>2021-06-16T18:31:58Z</time>
      </trkpt>
      <trkpt lat="36.641208" lon="-4.494885">
        <ele>29.848</ele>
        <time>2021-06-16T18:32:00Z</time>
      </trkpt>
      <trkpt lat="36.641143" lon="-4.494971">
        <ele>30.593</ele>
        <time>2021-06-16T18:32:01Z</time>
      </trkpt>
      <trkpt lat="36.641024" lon="-4.495134">
        <ele>30.765</ele>
        <time>2021-06-16T18:32:03Z</time>
      </trkpt>
      <trkpt lat="36.640966" lon="-4.495212">
        <ele>31.121</ele>
        <time>2021-06-16T18:32:04Z</time>
      </trkpt>
      <trkpt lat="36.640905" lon="-4.495289">
        <ele>31.808</ele>
        <time>2021-06-16T18:32:05Z</time>
      </trkpt>
      <trkpt lat="36.640849" lon="-4.49536">
        <ele>31.996</ele>
        <time>2021-06-16T18:32:06Z</time>
      </trkpt>
      <trkpt lat="36.640733" lon="-4.495497">
        <ele>32.655</ele>
        <time>2021-06-16T18:32:08Z</time>
      </trkpt>
      <trkpt lat="36.64068" lon="-4.495547">
        <ele>33.269</ele>
        <time>2021-06-16T18:32:09Z</time>
      </trkpt>
      <trkpt lat="36.640589" lon="-4.495639">
        <ele>34.039</ele>
        <time>2021-06-16T18:32:11Z</time>
      </trkpt>
      <trkpt lat="36.640543" lon="-4.495686">
        <ele>34.465</ele>
        <time>2021-06-16T18:32:12Z</time>
      </trkpt>
      <trkpt lat="36.640496" lon="-4.495727">
        <ele>34.587</ele>
        <time>2021-06-16T18:32:13Z</time>
      </trkpt>
      <trkpt lat="36.640393" lon="-4.495818">
        <ele>34.416</ele>
        <time>2021-06-16T18:32:15Z</time>
      </trkpt>
      <trkpt lat="36.640332" lon="-4.495875">
        <ele>33.960</ele>
        <time>2021-06-16T18:32:16Z</time>
      </trkpt>
      <trkpt lat="36.640262" lon="-4.495939">
        <ele>34.061</ele>
        <time>2021-06-16T18:32:17Z</time>
      </trkpt>
      <trkpt lat="36.640114" lon="-4.49608">
        <ele>34.321</ele>
        <time>2021-06-16T18:32:19Z</time>
      </trkpt>
      <trkpt lat="36.639948" lon="-4.496213">
        <ele>35.113</ele>
        <time>2021-06-16T18:32:21Z</time>
      </trkpt>
      <trkpt lat="36.639775" lon="-4.49634">
        <ele>35.708</ele>
        <time>2021-06-16T18:32:23Z</time>
      </trkpt>
      <trkpt lat="36.639596" lon="-4.496462">
        <ele>36.323</ele>
        <time>2021-06-16T18:32:25Z</time>
      </trkpt>
      <trkpt lat="36.639411" lon="-4.496561">
        <ele>36.462</ele>
        <time>2021-06-16T18:32:27Z</time>
      </trkpt>
      <trkpt lat="36.639227" lon="-4.496664">
        <ele>36.836</ele>
        <time>2021-06-16T18:32:29Z</time>
      </trkpt>
      <trkpt lat="36.639133" lon="-4.496717">
        <ele>37.126</ele>
        <time>2021-06-16T18:32:30Z</time>
      </trkpt>
      <trkpt lat="36.638943" lon="-4.496813">
        <ele>37.022</ele>
        <time>2021-06-16T18:32:32Z</time>
      </trkpt>
      <trkpt lat="36.63875" lon="-4.496906">
        <ele>37.064</ele>
        <time>2021-06-16T18:32:34Z</time>
      </trkpt>
      <trkpt lat="36.638562" lon="-4.496997">
        <ele>37.573</ele>
        <time>2021-06-16T18:32:36Z</time>
      </trkpt>
      <trkpt lat="36.638379" lon="-4.497087">
        <ele>37.997</ele>
        <time>2021-06-16T18:32:38Z</time>
      </trkpt>
      <trkpt lat="36.638193" lon="-4.497181">
        <ele>38.298</ele>
        <time>2021-06-16T18:32:40Z</time>
      </trkpt>
      <trkpt lat="36.638099" lon="-4.497232">
        <ele>38.315</ele>
        <time>2021-06-16T18:32:41Z</time>
      </trkpt>
      <trkpt lat="36.637915" lon="-4.49734">
        <ele>38.126</ele>
        <time>2021-06-16T18:32:43Z</time>
      </trkpt>
      <trkpt lat="36.637826" lon="-4.497397">
        <ele>37.808</ele>
        <time>2021-06-16T18:32:44Z</time>
      </trkpt>
      <trkpt lat="36.637739" lon="-4.497453">
        <ele>37.856</ele>
        <time>2021-06-16T18:32:45Z</time>
      </trkpt>
      <trkpt lat="36.637653" lon="-4.497508">
        <ele>37.955</ele>
        <time>2021-06-16T18:32:46Z</time>
      </trkpt>
      <trkpt lat="36.637479" lon="-4.497622">
        <ele>37.889</ele>
        <time>2021-06-16T18:32:48Z</time>
      </trkpt>
      <trkpt lat="36.637388" lon="-4.49768">
        <ele>37.649</ele>
        <time>2021-06-16T18:32:49Z</time>
      </trkpt>
      <trkpt lat="36.637209" lon="-4.497803">
        <ele>37.445</ele>
        <time>2021-06-16T18:32:51Z</time>
      </trkpt>
      <trkpt lat="36.637036" lon="-4.49793">
        <ele>37.587</ele>
        <time>2021-06-16T18:32:53Z</time>
      </trkpt>
      <trkpt lat="36.636949" lon="-4.497992">
        <ele>37.846</ele>
        <time>2021-06-16T18:32:54Z</time>
      </trkpt>
      <trkpt lat="36.636862" lon="-4.498058">
        <ele>38.240</ele>
        <time>2021-06-16T18:32:55Z</time>
      </trkpt>
      <trkpt lat="36.636775" lon="-4.498122">
        <ele>38.295</ele>
        <time>2021-06-16T18:32:56Z</time>
      </trkpt>
      <trkpt lat="36.636689" lon="-4.498184">
        <ele>38.249</ele>
        <time>2021-06-16T18:32:57Z</time>
      </trkpt>
      <trkpt lat="36.636518" lon="-4.49831">
        <ele>38.723</ele>
        <time>2021-06-16T18:32:59Z</time>
      </trkpt>
      <trkpt lat="36.636345" lon="-4.498429">
        <ele>38.708</ele>
        <time>2021-06-16T18:33:01Z</time>
      </trkpt>
      <trkpt lat="36.63617" lon="-4.498551">
        <ele>39.076</ele>
        <time>2021-06-16T18:33:03Z</time>
      </trkpt>
      <trkpt lat="36.635996" lon="-4.49867">
        <ele>39.445</ele>
        <time>2021-06-16T18:33:05Z</time>
      </trkpt>
      <trkpt lat="36.635913" lon="-4.498725">
        <ele>39.539</ele>
        <time>2021-06-16T18:33:06Z</time>
      </trkpt>
      <trkpt lat="36.635744" lon="-4.498823">
        <ele>39.989</ele>
        <time>2021-06-16T18:33:08Z</time>
      </trkpt>
      <trkpt lat="36.63566" lon="-4.498867">
        <ele>40.335</ele>
        <time>2021-06-16T18:33:09Z</time>
      </trkpt>
      <trkpt lat="36.635496" lon="-4.498946">
        <ele>40.667</ele>
        <time>2021-06-16T18:33:11Z</time>
      </trkpt>
      <trkpt lat="36.635351" lon="-4.499009">
        <ele>40.826</ele>
        <time>2021-06-16T18:33:13Z</time>
      </trkpt>
      <trkpt lat="36.635289" lon="-4.499034">
        <ele>40.850</ele>
        <time>2021-06-16T18:33:14Z</time>
      </trkpt>
      <trkpt lat="36.635181" lon="-4.499083">
        <ele>40.979</ele>
        <time>2021-06-16T18:33:16Z</time>
      </trkpt>
      <trkpt lat="36.635131" lon="-4.499102">
        <ele>41.105</ele>
        <time>2021-06-16T18:33:17Z</time>
      </trkpt>
      <trkpt lat="36.635014" lon="-4.499151">
        <ele>41.325</ele>
        <time>2021-06-16T18:33:19Z</time>
      </trkpt>
      <trkpt lat="36.634873" lon="-4.499205">
        <ele>41.808</ele>
        <time>2021-06-16T18:33:21Z</time>
      </trkpt>
      <trkpt lat="36.6348" lon="-4.499233">
        <ele>42.264</ele>
        <time>2021-06-16T18:33:22Z</time>
      </trkpt>
      <trkpt lat="36.634728" lon="-4.499264">
        <ele>42.453</ele>
        <time>2021-06-16T18:33:23Z</time>
      </trkpt>
      <trkpt lat="36.634575" lon="-4.499324">
        <ele>42.977</ele>
        <time>2021-06-16T18:33:25Z</time>
      </trkpt>
      <trkpt lat="36.634493" lon="-4.499356">
        <ele>43.157</ele>
        <time>2021-06-16T18:33:26Z</time>
      </trkpt>
      <trkpt lat="36.634412" lon="-4.499389">
        <ele>43.223</ele>
        <time>2021-06-16T18:33:27Z</time>
      </trkpt>
      <trkpt lat="36.63433" lon="-4.499423">
        <ele>43.315</ele>
        <time>2021-06-16T18:33:28Z</time>
      </trkpt>
      <trkpt lat="36.634176" lon="-4.499492">
        <ele>43.864</ele>
        <time>2021-06-16T18:33:30Z</time>
      </trkpt>
      <trkpt lat="36.634102" lon="-4.499523">
        <ele>44.038</ele>
        <time>2021-06-16T18:33:31Z</time>
      </trkpt>
      <trkpt lat="36.633953" lon="-4.499597">
        <ele>44.353</ele>
        <time>2021-06-16T18:33:33Z</time>
      </trkpt>
      <trkpt lat="36.63381" lon="-4.499684">
        <ele>44.404</ele>
        <time>2021-06-16T18:33:35Z</time>
      </trkpt>
      <trkpt lat="36.633741" lon="-4.499722">
        <ele>44.714</ele>
        <time>2021-06-16T18:33:36Z</time>
      </trkpt>
      <trkpt lat="36.633674" lon="-4.499758">
        <ele>44.808</ele>
        <time>2021-06-16T18:33:37Z</time>
      </trkpt>
      <trkpt lat="36.633612" lon="-4.499791">
        <ele>44.932</ele>
        <time>2021-06-16T18:33:38Z</time>
      </trkpt>
      <trkpt lat="36.633502" lon="-4.499844">
        <ele>45.261</ele>
        <time>2021-06-16T18:33:40Z</time>
      </trkpt>
      <trkpt lat="36.633452" lon="-4.499872">
        <ele>45.635</ele>
        <time>2021-06-16T18:33:41Z</time>
      </trkpt>
      <trkpt lat="36.633404" lon="-4.499903">
        <ele>45.875</ele>
        <time>2021-06-16T18:33:42Z</time>
      </trkpt>
      <trkpt lat="36.633356" lon="-4.499939">
        <ele>45.851</ele>
        <time>2021-06-16T18:33:43Z</time>
      </trkpt>
      <trkpt lat="36.633309" lon="-4.499976">
        <ele>45.973</ele>
        <time>2021-06-16T18:33:44Z</time>
      </trkpt>
      <trkpt lat="36.63323" lon="-4.500048">
        <ele>46.342</ele>
        <time>2021-06-16T18:33:46Z</time>
      </trkpt>
      <trkpt lat="36.633166" lon="-4.500134">
        <ele>46.646</ele>
        <time>2021-06-16T18:33:48Z</time>
      </trkpt>
      <trkpt lat="36.63313" lon="-4.500183">
        <ele>46.996</ele>
        <time>2021-06-16T18:33:49Z</time>
      </trkpt>
      <trkpt lat="36.633059" lon="-4.500227">
        <ele>47.031</ele>
        <time>2021-06-16T18:33:51Z</time>
      </trkpt>
      <trkpt lat="36.633003" lon="-4.500188">
        <ele>47.224</ele>
        <time>2021-06-16T18:33:53Z</time>
      </trkpt>
      <trkpt lat="36.632974" lon="-4.50007">
        <ele>47.408</ele>
        <time>2021-06-16T18:33:55Z</time>
      </trkpt>
      <trkpt lat="36.632936" lon="-4.499923">
        <ele>47.216</ele>
        <time>2021-06-16T18:33:57Z</time>
      </trkpt>
      <trkpt lat="36.632909" lon="-4.499842">
        <ele>47.145</ele>
        <time>2021-06-16T18:33:58Z</time>
      </trkpt>
      <trkpt lat="36.632855" lon="-4.499667">
        <ele>46.869</ele>
        <time>2021-06-16T18:34:00Z</time>
      </trkpt>
      <trkpt lat="36.632823" lon="-4.499504">
        <ele>46.559</ele>
        <time>2021-06-16T18:34:02Z</time>
      </trkpt>
      <trkpt lat="36.632808" lon="-4.499429">
        <ele>46.685</ele>
        <time>2021-06-16T18:34:03Z</time>
      </trkpt>
      <trkpt lat="36.632759" lon="-4.499377">
        <ele>46.577</ele>
        <time>2021-06-16T18:34:05Z</time>
      </trkpt>
      <trkpt lat="36.632707" lon="-4.499382">
        <ele>45.956</ele>
        <time>2021-06-16T18:34:07Z</time>
      </trkpt>
      <trkpt lat="36.63263" lon="-4.499435">
        <ele>45.270</ele>
        <time>2021-06-16T18:34:09Z</time>
      </trkpt>
      <trkpt lat="36.632588" lon="-4.499483">
        <ele>44.923</ele>
        <time>2021-06-16T18:34:10Z</time>
      </trkpt>
      <trkpt lat="36.632546" lon="-4.499529">
        <ele>44.683</ele>
        <time>2021-06-16T18:34:11Z</time>
      </trkpt>
      <trkpt lat="36.632445" lon="-4.499594">
        <ele>44.911</ele>
        <time>2021-06-16T18:34:13Z</time>
      </trkpt>
      <trkpt lat="36.632311" lon="-4.49963">
        <ele>44.808</ele>
        <time>2021-06-16T18:34:15Z</time>
      </trkpt>
      <trkpt lat="36.632238" lon="-4.499649">
        <ele>44.769</ele>
        <time>2021-06-16T18:34:16Z</time>
      </trkpt>
      <trkpt lat="36.632092" lon="-4.499659">
        <ele>44.528</ele>
        <time>2021-06-16T18:34:18Z</time>
      </trkpt>
      <trkpt lat="36.632021" lon="-4.499652">
        <ele>44.362</ele>
        <time>2021-06-16T18:34:19Z</time>
      </trkpt>
      <trkpt lat="36.631884" lon="-4.499628">
        <ele>44.142</ele>
        <time>2021-06-16T18:34:21Z</time>
      </trkpt>
      <trkpt lat="36.63177" lon="-4.499603">
        <ele>44.038</ele>
        <time>2021-06-16T18:34:23Z</time>
      </trkpt>
      <trkpt lat="36.631723" lon="-4.499601">
        <ele>44.130</ele>
        <time>2021-06-16T18:34:24Z</time>
      </trkpt>
      <trkpt lat="36.631672" lon="-4.499645">
        <ele>44.159</ele>
        <time>2021-06-16T18:34:26Z</time>
      </trkpt>
      <trkpt lat="36.631663" lon="-4.499711">
        <ele>44.383</ele>
        <time>2021-06-16T18:34:28Z</time>
      </trkpt>
      <trkpt lat="36.631704" lon="-4.499763">
        <ele>44.723</ele>
        <time>2021-06-16T18:34:30Z</time>
      </trkpt>
      <trkpt lat="36.631649" lon="-4.49979">
        <ele>46.983</ele>
        <time>2021-06-16T18:43:08Z</time>
      </trkpt>
      <trkpt lat="36.631596" lon="-4.499819">
        <ele>47.911</ele>
        <time>2021-06-16T18:43:11Z</time>
      </trkpt>
      <trkpt lat="36.631549" lon="-4.499856">
        <ele>49.308</ele>
        <time>2021-06-16T18:43:14Z</time>
      </trkpt>
      <trkpt lat="36.631504" lon="-4.499883">
        <ele>49.659</ele>
        <time>2021-06-16T18:43:17Z</time>
      </trkpt>
      <trkpt lat="36.631458" lon="-4.499907">
        <ele>50.648</ele>
        <time>2021-06-16T18:43:20Z</time>
      </trkpt>
      <trkpt lat="36.631425" lon="-4.499957">
        <ele>51.372</ele>
        <time>2021-06-16T18:43:24Z</time>
      </trkpt>
      <trkpt lat="36.631467" lon="-4.499997">
        <ele>51.542</ele>
        <time>2021-06-16T18:43:28Z</time>
      </trkpt>
      <trkpt lat="36.631221" lon="-4.500254">
        <ele>48.498</ele>
        <time>2021-06-16T18:44:13Z</time>
      </trkpt>
      <trkpt lat="36.631175" lon="-4.500342">
        <ele>46.560</ele>
        <time>2021-06-16T18:44:23Z</time>
      </trkpt>
      <trkpt lat="36.631279" lon="-4.500261">
        <ele>45.419</ele>
        <time>2021-06-16T18:44:53Z</time>
      </trkpt>
      <trkpt lat="36.631298" lon="-4.500147">
        <ele>44.733</ele>
        <time>2021-06-16T18:45:23Z</time>
      </trkpt>
      <trkpt lat="36.631376" lon="-4.499951">
        <ele>44.334</ele>
        <time>2021-06-16T18:45:33Z</time>
      </trkpt>
      <trkpt lat="36.631337" lon="-4.500007">
        <ele>44.155</ele>
        <time>2021-06-16T18:46:13Z</time>
      </trkpt>
      <trkpt lat="36.631304" lon="-4.500071">
        <ele>44.010</ele>
        <time>2021-06-16T18:46:43Z</time>
      </trkpt>
      <trkpt lat="36.631311" lon="-4.499994">
        <ele>43.908</ele>
        <time>2021-06-16T18:47:03Z</time>
      </trkpt>
      <trkpt lat="36.63138" lon="-4.499929">
        <ele>43.930</ele>
        <time>2021-06-16T18:47:33Z</time>
      </trkpt>
      <trkpt lat="36.631444" lon="-4.499942">
        <ele>43.829</ele>
        <time>2021-06-16T18:47:58Z</time>
      </trkpt>
      <trkpt lat="36.631392" lon="-4.499953">
        <ele>43.813</ele>
        <time>2021-06-16T18:49:08Z</time>
      </trkpt>
      <trkpt lat="36.631411" lon="-4.49989">
        <ele>43.893</ele>
        <time>2021-06-16T18:51:14Z</time>
      </trkpt>
      <trkpt lat="36.631382" lon="-4.499939">
        <ele>43.779</ele>
        <time>2021-06-16T18:51:34Z</time>
      </trkpt>
      <trkpt lat="36.631406" lon="-4.499878">
        <ele>43.731</ele>
        <time>2021-06-16T18:52:14Z</time>
      </trkpt>
      <trkpt lat="36.63144" lon="-4.499813">
        <ele>43.790</ele>
        <time>2021-06-16T18:52:20Z</time>
      </trkpt>
      <trkpt lat="36.631474" lon="-4.499761">
        <ele>43.794</ele>
        <time>2021-06-16T18:52:22Z</time>
      </trkpt>
      <trkpt lat="36.631508" lon="-4.499724">
        <ele>43.717</ele>
        <time>2021-06-16T18:52:28Z</time>
      </trkpt>
      <trkpt lat="36.631557" lon="-4.499736">
        <ele>43.787</ele>
        <time>2021-06-16T18:52:31Z</time>
      </trkpt>
      <trkpt lat="36.631603" lon="-4.49975">
        <ele>43.815</ele>
        <time>2021-06-16T18:52:36Z</time>
      </trkpt>
      <trkpt lat="36.6316" lon="-4.499807">
        <ele>43.908</ele>
        <time>2021-06-16T18:53:16Z</time>
      </trkpt>
      <trkpt lat="36.631615" lon="-4.499865">
        <ele>44.068</ele>
        <time>2021-06-16T18:53:34Z</time>
      </trkpt>
      <trkpt lat="36.63166" lon="-4.499877">
        <ele>44.277</ele>
        <time>2021-06-16T18:55:01Z</time>
      </trkpt>
      <trkpt lat="36.631622" lon="-4.499907">
        <ele>44.251</ele>
        <time>2021-06-16T18:57:44Z</time>
      </trkpt>
      <trkpt lat="36.631651" lon="-4.499859">
        <ele>44.211</ele>
        <time>2021-06-16T18:57:49Z</time>
      </trkpt>
      <trkpt lat="36.631691" lon="-4.499828">
        <ele>44.367</ele>
        <time>2021-06-16T18:58:38Z</time>
      </trkpt>
      <trkpt lat="36.631666" lon="-4.499781">
        <ele>44.349</ele>
        <time>2021-06-16T18:59:21Z</time>
      </trkpt>
      <trkpt lat="36.631656" lon="-4.499871">
        <ele>68.718</ele>
        <time>2021-06-16T19:42:59Z</time>
      </trkpt>
      <trkpt lat="36.631624" lon="-4.499818">
        <ele>51.032</ele>
        <time>2021-06-16T19:45:08Z</time>
      </trkpt>
      <trkpt lat="36.6316" lon="-4.499763">
        <ele>47.966</ele>
        <time>2021-06-16T19:45:10Z</time>
      </trkpt>
      <trkpt lat="36.631604" lon="-4.499691">
        <ele>49.929</ele>
        <time>2021-06-16T19:45:13Z</time>
      </trkpt>
      <trkpt lat="36.631611" lon="-4.499602">
        <ele>51.221</ele>
        <time>2021-06-16T19:45:18Z</time>
      </trkpt>
      <trkpt lat="36.631572" lon="-4.499521">
        <ele>51.608</ele>
        <time>2021-06-16T19:45:20Z</time>
      </trkpt>
      <trkpt lat="36.631523" lon="-4.499491">
        <ele>51.653</ele>
        <time>2021-06-16T19:45:21Z</time>
      </trkpt>
      <trkpt lat="36.631373" lon="-4.499492">
        <ele>50.882</ele>
        <time>2021-06-16T19:45:23Z</time>
      </trkpt>
      <trkpt lat="36.631211" lon="-4.499466">
        <ele>50.926</ele>
        <time>2021-06-16T19:45:25Z</time>
      </trkpt>
      <trkpt lat="36.631125" lon="-4.499449">
        <ele>51.256</ele>
        <time>2021-06-16T19:45:26Z</time>
      </trkpt>
      <trkpt lat="36.631035" lon="-4.499431">
        <ele>51.742</ele>
        <time>2021-06-16T19:45:27Z</time>
      </trkpt>
      <trkpt lat="36.630853" lon="-4.499396">
        <ele>52.474</ele>
        <time>2021-06-16T19:45:29Z</time>
      </trkpt>
      <trkpt lat="36.630763" lon="-4.499374">
        <ele>52.973</ele>
        <time>2021-06-16T19:45:30Z</time>
      </trkpt>
      <trkpt lat="36.630675" lon="-4.499349">
        <ele>53.187</ele>
        <time>2021-06-16T19:45:31Z</time>
      </trkpt>
      <trkpt lat="36.630522" lon="-4.499311">
        <ele>53.795</ele>
        <time>2021-06-16T19:45:33Z</time>
      </trkpt>
      <trkpt lat="36.630464" lon="-4.499297">
        <ele>54.449</ele>
        <time>2021-06-16T19:45:34Z</time>
      </trkpt>
      <trkpt lat="36.630371" lon="-4.499271">
        <ele>55.023</ele>
        <time>2021-06-16T19:45:36Z</time>
      </trkpt>
      <trkpt lat="36.630324" lon="-4.499269">
        <ele>55.308</ele>
        <time>2021-06-16T19:45:37Z</time>
      </trkpt>
      <trkpt lat="36.630267" lon="-4.499257">
        <ele>55.656</ele>
        <time>2021-06-16T19:45:38Z</time>
      </trkpt>
      <trkpt lat="36.630131" lon="-4.499205">
        <ele>55.875</ele>
        <time>2021-06-16T19:45:40Z</time>
      </trkpt>
      <trkpt lat="36.630052" lon="-4.499177">
        <ele>56.439</ele>
        <time>2021-06-16T19:45:41Z</time>
      </trkpt>
      <trkpt lat="36.629969" lon="-4.499147">
        <ele>56.779</ele>
        <time>2021-06-16T19:45:42Z</time>
      </trkpt>
      <trkpt lat="36.629809" lon="-4.499107">
        <ele>57.385</ele>
        <time>2021-06-16T19:45:44Z</time>
      </trkpt>
      <trkpt lat="36.629729" lon="-4.499105">
        <ele>57.457</ele>
        <time>2021-06-16T19:45:45Z</time>
      </trkpt>
      <trkpt lat="36.629574" lon="-4.499151">
        <ele>58.296</ele>
        <time>2021-06-16T19:45:47Z</time>
      </trkpt>
      <trkpt lat="36.629513" lon="-4.499201">
        <ele>59.140</ele>
        <time>2021-06-16T19:45:48Z</time>
      </trkpt>
      <trkpt lat="36.629468" lon="-4.499271">
        <ele>59.861</ele>
        <time>2021-06-16T19:45:49Z</time>
      </trkpt>
      <trkpt lat="36.629438" lon="-4.499354">
        <ele>60.421</ele>
        <time>2021-06-16T19:45:50Z</time>
      </trkpt>
      <trkpt lat="36.62941" lon="-4.499489">
        <ele>60.713</ele>
        <time>2021-06-16T19:45:52Z</time>
      </trkpt>
      <trkpt lat="36.629389" lon="-4.499541">
        <ele>60.608</ele>
        <time>2021-06-16T19:45:53Z</time>
      </trkpt>
      <trkpt lat="36.629325" lon="-4.499655">
        <ele>60.953</ele>
        <time>2021-06-16T19:45:55Z</time>
      </trkpt>
      <trkpt lat="36.629293" lon="-4.499732">
        <ele>61.132</ele>
        <time>2021-06-16T19:45:56Z</time>
      </trkpt>
      <trkpt lat="36.629257" lon="-4.499819">
        <ele>61.616</ele>
        <time>2021-06-16T19:45:57Z</time>
      </trkpt>
      <trkpt lat="36.629185" lon="-4.499993">
        <ele>62.166</ele>
        <time>2021-06-16T19:45:59Z</time>
      </trkpt>
      <trkpt lat="36.629129" lon="-4.50015">
        <ele>62.732</ele>
        <time>2021-06-16T19:46:01Z</time>
      </trkpt>
      <trkpt lat="36.629087" lon="-4.500275">
        <ele>63.674</ele>
        <time>2021-06-16T19:46:03Z</time>
      </trkpt>
      <trkpt lat="36.629062" lon="-4.500329">
        <ele>64.033</ele>
        <time>2021-06-16T19:46:04Z</time>
      </trkpt>
      <trkpt lat="36.629" lon="-4.500464">
        <ele>63.967</ele>
        <time>2021-06-16T19:46:06Z</time>
      </trkpt>
      <trkpt lat="36.628961" lon="-4.500545">
        <ele>64.268</ele>
        <time>2021-06-16T19:46:07Z</time>
      </trkpt>
      <trkpt lat="36.628889" lon="-4.500683">
        <ele>64.842</ele>
        <time>2021-06-16T19:46:09Z</time>
      </trkpt>
      <trkpt lat="36.628826" lon="-4.500818">
        <ele>64.926</ele>
        <time>2021-06-16T19:46:11Z</time>
      </trkpt>
      <trkpt lat="36.628792" lon="-4.500897">
        <ele>64.808</ele>
        <time>2021-06-16T19:46:12Z</time>
      </trkpt>
      <trkpt lat="36.628709" lon="-4.501078">
        <ele>65.653</ele>
        <time>2021-06-16T19:46:14Z</time>
      </trkpt>
      <trkpt lat="36.628615" lon="-4.501279">
        <ele>65.652</ele>
        <time>2021-06-16T19:46:16Z</time>
      </trkpt>
      <trkpt lat="36.628541" lon="-4.501479">
        <ele>66.156</ele>
        <time>2021-06-16T19:46:18Z</time>
      </trkpt>
      <trkpt lat="36.628482" lon="-4.501623">
        <ele>66.866</ele>
        <time>2021-06-16T19:46:20Z</time>
      </trkpt>
      <trkpt lat="36.62844" lon="-4.501717">
        <ele>67.732</ele>
        <time>2021-06-16T19:46:22Z</time>
      </trkpt>
      <trkpt lat="36.62839" lon="-4.501839">
        <ele>68.424</ele>
        <time>2021-06-16T19:46:24Z</time>
      </trkpt>
      <trkpt lat="36.628362" lon="-4.501947">
        <ele>69.293</ele>
        <time>2021-06-16T19:46:26Z</time>
      </trkpt>
      <trkpt lat="36.628334" lon="-4.502018">
        <ele>69.487</ele>
        <time>2021-06-16T19:46:30Z</time>
      </trkpt>
      <trkpt lat="36.628269" lon="-4.502129">
        <ele>69.662</ele>
        <time>2021-06-16T19:46:32Z</time>
      </trkpt>
      <trkpt lat="36.628196" lon="-4.502283">
        <ele>69.183</ele>
        <time>2021-06-16T19:46:34Z</time>
      </trkpt>
      <trkpt lat="36.628161" lon="-4.502358">
        <ele>69.111</ele>
        <time>2021-06-16T19:46:35Z</time>
      </trkpt>
      <trkpt lat="36.628134" lon="-4.502425">
        <ele>68.908</ele>
        <time>2021-06-16T19:46:36Z</time>
      </trkpt>
      <trkpt lat="36.62811" lon="-4.502489">
        <ele>68.433</ele>
        <time>2021-06-16T19:46:37Z</time>
      </trkpt>
      <trkpt lat="36.628061" lon="-4.502601">
        <ele>68.142</ele>
        <time>2021-06-16T19:46:39Z</time>
      </trkpt>
      <trkpt lat="36.628027" lon="-4.502668">
        <ele>68.786</ele>
        <time>2021-06-16T19:46:41Z</time>
      </trkpt>
      <trkpt lat="36.627996" lon="-4.502735">
        <ele>68.936</ele>
        <time>2021-06-16T19:46:43Z</time>
      </trkpt>
      <trkpt lat="36.627972" lon="-4.502785">
        <ele>69.452</ele>
        <time>2021-06-16T19:46:45Z</time>
      </trkpt>
      <trkpt lat="36.627953" lon="-4.502843">
        <ele>69.054</ele>
        <time>2021-06-16T19:46:49Z</time>
      </trkpt>
      <trkpt lat="36.627928" lon="-4.502908">
        <ele>68.923</ele>
        <time>2021-06-16T19:46:53Z</time>
      </trkpt>
      <trkpt lat="36.627926" lon="-4.502978">
        <ele>68.697</ele>
        <time>2021-06-16T19:46:56Z</time>
      </trkpt>
      <trkpt lat="36.627941" lon="-4.503065">
        <ele>68.577</ele>
        <time>2021-06-16T19:46:58Z</time>
      </trkpt>
      <trkpt lat="36.627971" lon="-4.503122">
        <ele>68.261</ele>
        <time>2021-06-16T19:47:00Z</time>
      </trkpt>
      <trkpt lat="36.628044" lon="-4.503203">
        <ele>68.727</ele>
        <time>2021-06-16T19:47:02Z</time>
      </trkpt>
      <trkpt lat="36.62808" lon="-4.503274">
        <ele>69.308</ele>
        <time>2021-06-16T19:47:03Z</time>
      </trkpt>
      <trkpt lat="36.628116" lon="-4.503351">
        <ele>69.584</ele>
        <time>2021-06-16T19:47:04Z</time>
      </trkpt>
      <trkpt lat="36.628166" lon="-4.503425">
        <ele>69.833</ele>
        <time>2021-06-16T19:47:05Z</time>
      </trkpt>
      <trkpt lat="36.62831" lon="-4.503548">
        <ele>70.027</ele>
        <time>2021-06-16T19:47:07Z</time>
      </trkpt>
      <trkpt lat="36.628392" lon="-4.503595">
        <ele>70.157</ele>
        <time>2021-06-16T19:47:08Z</time>
      </trkpt>
      <trkpt lat="36.628478" lon="-4.503641">
        <ele>70.293</ele>
        <time>2021-06-16T19:47:09Z</time>
      </trkpt>
      <trkpt lat="36.628565" lon="-4.503691">
        <ele>70.615</ele>
        <time>2021-06-16T19:47:10Z</time>
      </trkpt>
      <trkpt lat="36.628653" lon="-4.503744">
        <ele>71.534</ele>
        <time>2021-06-16T19:47:11Z</time>
      </trkpt>
      <trkpt lat="36.628823" lon="-4.503845">
        <ele>72.168</ele>
        <time>2021-06-16T19:47:13Z</time>
      </trkpt>
      <trkpt lat="36.628904" lon="-4.503884">
        <ele>72.731</ele>
        <time>2021-06-16T19:47:14Z</time>
      </trkpt>
      <trkpt lat="36.62906" lon="-4.503939">
        <ele>72.661</ele>
        <time>2021-06-16T19:47:16Z</time>
      </trkpt>
      <trkpt lat="36.629136" lon="-4.503941">
        <ele>73.107</ele>
        <time>2021-06-16T19:47:17Z</time>
      </trkpt>
      <trkpt lat="36.629306" lon="-4.503896">
        <ele>72.908</ele>
        <time>2021-06-16T19:47:19Z</time>
      </trkpt>
      <trkpt lat="36.629381" lon="-4.503857">
        <ele>72.680</ele>
        <time>2021-06-16T19:47:20Z</time>
      </trkpt>
      <trkpt lat="36.629445" lon="-4.503805">
        <ele>72.329</ele>
        <time>2021-06-16T19:47:21Z</time>
      </trkpt>
      <trkpt lat="36.629562" lon="-4.503704">
        <ele>71.723</ele>
        <time>2021-06-16T19:47:23Z</time>
      </trkpt>
      <trkpt lat="36.62966" lon="-4.503558">
        <ele>70.993</ele>
        <time>2021-06-16T19:47:25Z</time>
      </trkpt>
      <trkpt lat="36.629721" lon="-4.503465">
        <ele>70.419</ele>
        <time>2021-06-16T19:47:26Z</time>
      </trkpt>
      <trkpt lat="36.629788" lon="-4.503362">
        <ele>69.851</ele>
        <time>2021-06-16T19:47:27Z</time>
      </trkpt>
      <trkpt lat="36.629939" lon="-4.50314">
        <ele>69.190</ele>
        <time>2021-06-16T19:47:29Z</time>
      </trkpt>
      <trkpt lat="36.630118" lon="-4.502898">
        <ele>68.434</ele>
        <time>2021-06-16T19:47:31Z</time>
      </trkpt>
      <trkpt lat="36.630213" lon="-4.502774">
        <ele>67.954</ele>
        <time>2021-06-16T19:47:32Z</time>
      </trkpt>
      <trkpt lat="36.630394" lon="-4.502544">
        <ele>67.456</ele>
        <time>2021-06-16T19:47:34Z</time>
      </trkpt>
      <trkpt lat="36.63058" lon="-4.502331">
        <ele>66.711</ele>
        <time>2021-06-16T19:47:36Z</time>
      </trkpt>
      <trkpt lat="36.630674" lon="-4.502226">
        <ele>66.108</ele>
        <time>2021-06-16T19:47:37Z</time>
      </trkpt>
      <trkpt lat="36.630869" lon="-4.502022">
        <ele>65.142</ele>
        <time>2021-06-16T19:47:39Z</time>
      </trkpt>
      <trkpt lat="36.631066" lon="-4.501826">
        <ele>64.281</ele>
        <time>2021-06-16T19:47:41Z</time>
      </trkpt>
      <trkpt lat="36.631262" lon="-4.50164">
        <ele>62.995</ele>
        <time>2021-06-16T19:47:43Z</time>
      </trkpt>
      <trkpt lat="36.631361" lon="-4.501549">
        <ele>62.125</ele>
        <time>2021-06-16T19:47:44Z</time>
      </trkpt>
      <trkpt lat="36.631568" lon="-4.501371">
        <ele>60.781</ele>
        <time>2021-06-16T19:47:46Z</time>
      </trkpt>
      <trkpt lat="36.631667" lon="-4.501284">
        <ele>59.633</ele>
        <time>2021-06-16T19:47:47Z</time>
      </trkpt>
      <trkpt lat="36.631853" lon="-4.501123">
        <ele>58.922</ele>
        <time>2021-06-16T19:47:49Z</time>
      </trkpt>
      <trkpt lat="36.632047" lon="-4.500955">
        <ele>58.326</ele>
        <time>2021-06-16T19:47:51Z</time>
      </trkpt>
      <trkpt lat="36.632235" lon="-4.500795">
        <ele>58.085</ele>
        <time>2021-06-16T19:47:53Z</time>
      </trkpt>
      <trkpt lat="36.632327" lon="-4.500716">
        <ele>57.889</ele>
        <time>2021-06-16T19:47:54Z</time>
      </trkpt>
      <trkpt lat="36.632416" lon="-4.50064">
        <ele>57.317</ele>
        <time>2021-06-16T19:47:55Z</time>
      </trkpt>
      <trkpt lat="36.632497" lon="-4.500568">
        <ele>57.108</ele>
        <time>2021-06-16T19:47:56Z</time>
      </trkpt>
      <trkpt lat="36.63263" lon="-4.500445">
        <ele>56.825</ele>
        <time>2021-06-16T19:47:58Z</time>
      </trkpt>
      <trkpt lat="36.63268" lon="-4.500399">
        <ele>56.244</ele>
        <time>2021-06-16T19:47:59Z</time>
      </trkpt>
      <trkpt lat="36.63273" lon="-4.500353">
        <ele>55.978</ele>
        <time>2021-06-16T19:48:00Z</time>
      </trkpt>
      <trkpt lat="36.632839" lon="-4.500258">
        <ele>55.618</ele>
        <time>2021-06-16T19:48:02Z</time>
      </trkpt>
      <trkpt lat="36.632892" lon="-4.5002">
        <ele>55.154</ele>
        <time>2021-06-16T19:48:03Z</time>
      </trkpt>
      <trkpt lat="36.633027" lon="-4.500058">
        <ele>54.466</ele>
        <time>2021-06-16T19:48:05Z</time>
      </trkpt>
      <trkpt lat="36.633118" lon="-4.499993">
        <ele>53.885</ele>
        <time>2021-06-16T19:48:06Z</time>
      </trkpt>
      <trkpt lat="36.633225" lon="-4.499925">
        <ele>53.559</ele>
        <time>2021-06-16T19:48:07Z</time>
      </trkpt>
      <trkpt lat="36.633342" lon="-4.499849">
        <ele>53.184</ele>
        <time>2021-06-16T19:48:08Z</time>
      </trkpt>
      <trkpt lat="36.633571" lon="-4.499682">
        <ele>52.407</ele>
        <time>2021-06-16T19:48:10Z</time>
      </trkpt>
      <trkpt lat="36.633827" lon="-4.499514">
        <ele>51.717</ele>
        <time>2021-06-16T19:48:12Z</time>
      </trkpt>
      <trkpt lat="36.634083" lon="-4.499367">
        <ele>51.008</ele>
        <time>2021-06-16T19:48:14Z</time>
      </trkpt>
      <trkpt lat="36.634346" lon="-4.499241">
        <ele>49.965</ele>
        <time>2021-06-16T19:48:16Z</time>
      </trkpt>
      <trkpt lat="36.63461" lon="-4.499134">
        <ele>48.794</ele>
        <time>2021-06-16T19:48:18Z</time>
      </trkpt>
      <trkpt lat="36.634749" lon="-4.499085">
        <ele>47.878</ele>
        <time>2021-06-16T19:48:19Z</time>
      </trkpt>
      <trkpt lat="36.635018" lon="-4.498983">
        <ele>46.998</ele>
        <time>2021-06-16T19:48:21Z</time>
      </trkpt>
      <trkpt lat="36.63527" lon="-4.49888">
        <ele>46.354</ele>
        <time>2021-06-16T19:48:23Z</time>
      </trkpt>
      <trkpt lat="36.635395" lon="-4.498826">
        <ele>46.136</ele>
        <time>2021-06-16T19:48:24Z</time>
      </trkpt>
      <trkpt lat="36.635649" lon="-4.498702">
        <ele>45.825</ele>
        <time>2021-06-16T19:48:26Z</time>
      </trkpt>
      <trkpt lat="36.635778" lon="-4.498636">
        <ele>45.769</ele>
        <time>2021-06-16T19:48:27Z</time>
      </trkpt>
      <trkpt lat="36.635908" lon="-4.498562">
        <ele>45.883</ele>
        <time>2021-06-16T19:48:28Z</time>
      </trkpt>
      <trkpt lat="36.636161" lon="-4.498401">
        <ele>45.525</ele>
        <time>2021-06-16T19:48:30Z</time>
      </trkpt>
      <trkpt lat="36.636288" lon="-4.498316">
        <ele>45.117</ele>
        <time>2021-06-16T19:48:31Z</time>
      </trkpt>
      <trkpt lat="36.636413" lon="-4.498232">
        <ele>44.708</ele>
        <time>2021-06-16T19:48:32Z</time>
      </trkpt>
      <trkpt lat="36.636542" lon="-4.498147">
        <ele>44.245</ele>
        <time>2021-06-16T19:48:33Z</time>
      </trkpt>
      <trkpt lat="36.636799" lon="-4.497965">
        <ele>43.794</ele>
        <time>2021-06-16T19:48:35Z</time>
      </trkpt>
      <trkpt lat="36.636925" lon="-4.497872">
        <ele>43.398</ele>
        <time>2021-06-16T19:48:36Z</time>
      </trkpt>
      <trkpt lat="36.637049" lon="-4.497778">
        <ele>43.128</ele>
        <time>2021-06-16T19:48:37Z</time>
      </trkpt>
      <trkpt lat="36.637174" lon="-4.497688">
        <ele>42.814</ele>
        <time>2021-06-16T19:48:38Z</time>
      </trkpt>
      <trkpt lat="36.637424" lon="-4.49752">
        <ele>42.186</ele>
        <time>2021-06-16T19:48:40Z</time>
      </trkpt>
      <trkpt lat="36.637675" lon="-4.49736">
        <ele>41.985</ele>
        <time>2021-06-16T19:48:42Z</time>
      </trkpt>
      <trkpt lat="36.637801" lon="-4.497281">
        <ele>41.949</ele>
        <time>2021-06-16T19:48:43Z</time>
      </trkpt>
      <trkpt lat="36.637925" lon="-4.497203">
        <ele>41.488</ele>
        <time>2021-06-16T19:48:44Z</time>
      </trkpt>
      <trkpt lat="36.638174" lon="-4.497055">
        <ele>41.324</ele>
        <time>2021-06-16T19:48:46Z</time>
      </trkpt>
      <trkpt lat="36.63842" lon="-4.496924">
        <ele>41.326</ele>
        <time>2021-06-16T19:48:48Z</time>
      </trkpt>
      <trkpt lat="36.63854" lon="-4.496865">
        <ele>41.808</ele>
        <time>2021-06-16T19:48:49Z</time>
      </trkpt>
      <trkpt lat="36.638663" lon="-4.496808">
        <ele>42.365</ele>
        <time>2021-06-16T19:48:50Z</time>
      </trkpt>
      <trkpt lat="36.638899" lon="-4.496692">
        <ele>41.964</ele>
        <time>2021-06-16T19:48:52Z</time>
      </trkpt>
      <trkpt lat="36.639007" lon="-4.496636">
        <ele>42.038</ele>
        <time>2021-06-16T19:48:53Z</time>
      </trkpt>
      <trkpt lat="36.639198" lon="-4.496546">
        <ele>42.718</ele>
        <time>2021-06-16T19:48:55Z</time>
      </trkpt>
      <trkpt lat="36.639335" lon="-4.496458">
        <ele>43.264</ele>
        <time>2021-06-16T19:48:57Z</time>
      </trkpt>
      <trkpt lat="36.639395" lon="-4.496406">
        <ele>43.496</ele>
        <time>2021-06-16T19:48:58Z</time>
      </trkpt>
      <trkpt lat="36.639454" lon="-4.496346">
        <ele>43.895</ele>
        <time>2021-06-16T19:48:59Z</time>
      </trkpt>
      <trkpt lat="36.639547" lon="-4.496232">
        <ele>43.649</ele>
        <time>2021-06-16T19:49:01Z</time>
      </trkpt>
      <trkpt lat="36.639619" lon="-4.496125">
        <ele>43.347</ele>
        <time>2021-06-16T19:49:03Z</time>
      </trkpt>
      <trkpt lat="36.639654" lon="-4.496076">
        <ele>42.729</ele>
        <time>2021-06-16T19:49:04Z</time>
      </trkpt>
      <trkpt lat="36.639739" lon="-4.496015">
        <ele>42.021</ele>
        <time>2021-06-16T19:49:06Z</time>
      </trkpt>
      <trkpt lat="36.639792" lon="-4.496014">
        <ele>41.508</ele>
        <time>2021-06-16T19:49:08Z</time>
      </trkpt>
      <trkpt lat="36.63984" lon="-4.496016">
        <ele>40.241</ele>
        <time>2021-06-16T19:49:36Z</time>
      </trkpt>
      <trkpt lat="36.639889" lon="-4.496063">
        <ele>39.440</ele>
        <time>2021-06-16T19:49:38Z</time>
      </trkpt>
      <trkpt lat="36.639922" lon="-4.496165">
        <ele>38.984</ele>
        <time>2021-06-16T19:49:40Z</time>
      </trkpt>
      <trkpt lat="36.639881" lon="-4.496234">
        <ele>38.624</ele>
        <time>2021-06-16T19:49:41Z</time>
      </trkpt>
      <trkpt lat="36.63983" lon="-4.496291">
        <ele>38.460</ele>
        <time>2021-06-16T19:49:42Z</time>
      </trkpt>
      <trkpt lat="36.639781" lon="-4.496327">
        <ele>38.382</ele>
        <time>2021-06-16T19:49:43Z</time>
      </trkpt>
      <trkpt lat="36.639729" lon="-4.496355">
        <ele>38.361</ele>
        <time>2021-06-16T19:49:45Z</time>
      </trkpt>
      <trkpt lat="36.639772" lon="-4.496329">
        <ele>38.315</ele>
        <time>2021-06-16T19:49:59Z</time>
      </trkpt>
      <trkpt lat="36.639817" lon="-4.496319">
        <ele>38.275</ele>
        <time>2021-06-16T19:50:10Z</time>
      </trkpt>
      <trkpt lat="36.639855" lon="-4.496288">
        <ele>38.028</ele>
        <time>2021-06-16T19:50:18Z</time>
      </trkpt>
      <trkpt lat="36.639897" lon="-4.49626">
        <ele>37.920</ele>
        <time>2021-06-16T19:50:25Z</time>
      </trkpt>
      <trkpt lat="36.639932" lon="-4.496297">
        <ele>37.808</ele>
        <time>2021-06-16T19:50:37Z</time>
      </trkpt>
      <trkpt lat="36.63993" lon="-4.496356">
        <ele>37.714</ele>
        <time>2021-06-16T19:50:41Z</time>
      </trkpt>
      <trkpt lat="36.639915" lon="-4.496457">
        <ele>37.753</ele>
        <time>2021-06-16T19:50:43Z</time>
      </trkpt>
      <trkpt lat="36.639904" lon="-4.49653">
        <ele>37.757</ele>
        <time>2021-06-16T19:50:44Z</time>
      </trkpt>
      <trkpt lat="36.639891" lon="-4.496606">
        <ele>37.727</ele>
        <time>2021-06-16T19:50:45Z</time>
      </trkpt>
      <trkpt lat="36.639874" lon="-4.49675">
        <ele>37.753</ele>
        <time>2021-06-16T19:50:47Z</time>
      </trkpt>
      <trkpt lat="36.639872" lon="-4.496838">
        <ele>37.785</ele>
        <time>2021-06-16T19:50:49Z</time>
      </trkpt>
      <trkpt lat="36.639817" lon="-4.496867">
        <ele>37.734</ele>
        <time>2021-06-16T19:50:51Z</time>
      </trkpt>
      <trkpt lat="36.639759" lon="-4.496875">
        <ele>37.768</ele>
        <time>2021-06-16T19:50:52Z</time>
      </trkpt>
      <trkpt lat="36.639683" lon="-4.496886">
        <ele>37.799</ele>
        <time>2021-06-16T19:50:53Z</time>
      </trkpt>
      <trkpt lat="36.639607" lon="-4.496914">
        <ele>37.707</ele>
        <time>2021-06-16T19:50:54Z</time>
      </trkpt>
      <trkpt lat="36.639472" lon="-4.497014">
        <ele>37.727</ele>
        <time>2021-06-16T19:50:56Z</time>
      </trkpt>
      <trkpt lat="36.639417" lon="-4.497088">
        <ele>37.708</ele>
        <time>2021-06-16T19:50:57Z</time>
      </trkpt>
      <trkpt lat="36.639305" lon="-4.497249">
        <ele>37.766</ele>
        <time>2021-06-16T19:50:59Z</time>
      </trkpt>
      <trkpt lat="36.639246" lon="-4.497325">
        <ele>37.775</ele>
        <time>2021-06-16T19:51:00Z</time>
      </trkpt>
      <trkpt lat="36.639121" lon="-4.497458">
        <ele>37.799</ele>
        <time>2021-06-16T19:51:02Z</time>
      </trkpt>
      <trkpt lat="36.639033" lon="-4.497583">
        <ele>37.799</ele>
        <time>2021-06-16T19:51:04Z</time>
      </trkpt>
      <trkpt lat="36.639005" lon="-4.49765">
        <ele>37.755</ele>
        <time>2021-06-16T19:51:05Z</time>
      </trkpt>
      <trkpt lat="36.638994" lon="-4.497718">
        <ele>37.787</ele>
        <time>2021-06-16T19:51:06Z</time>
      </trkpt>
      <trkpt lat="36.639036" lon="-4.497822">
        <ele>37.716</ele>
        <time>2021-06-16T19:51:08Z</time>
      </trkpt>
      <trkpt lat="36.639087" lon="-4.497855">
        <ele>37.740</ele>
        <time>2021-06-16T19:51:09Z</time>
      </trkpt>
      <trkpt lat="36.639222" lon="-4.497926">
        <ele>37.717</ele>
        <time>2021-06-16T19:51:11Z</time>
      </trkpt>
      <trkpt lat="36.639374" lon="-4.497987">
        <ele>37.787</ele>
        <time>2021-06-16T19:51:13Z</time>
      </trkpt>
      <trkpt lat="36.639486" lon="-4.498026">
        <ele>37.715</ele>
        <time>2021-06-16T19:51:15Z</time>
      </trkpt>
      <trkpt lat="36.639537" lon="-4.498063">
        <ele>37.708</ele>
        <time>2021-06-16T19:51:17Z</time>
      </trkpt>
      <trkpt lat="36.639624" lon="-4.498152">
        <ele>37.768</ele>
        <time>2021-06-16T19:51:19Z</time>
      </trkpt>
      <trkpt lat="36.639681" lon="-4.498198">
        <ele>37.797</ele>
        <time>2021-06-16T19:51:20Z</time>
      </trkpt>
      <trkpt lat="36.639747" lon="-4.498245">
        <ele>37.731</ele>
        <time>2021-06-16T19:51:21Z</time>
      </trkpt>
      <trkpt lat="36.639898" lon="-4.498347">
        <ele>37.741</ele>
        <time>2021-06-16T19:51:23Z</time>
      </trkpt>
      <trkpt lat="36.639972" lon="-4.498399">
        <ele>37.737</ele>
        <time>2021-06-16T19:51:24Z</time>
      </trkpt>
      <trkpt lat="36.640088" lon="-4.4985">
        <ele>37.749</ele>
        <time>2021-06-16T19:51:26Z</time>
      </trkpt>
      <trkpt lat="36.640186" lon="-4.498594">
        <ele>37.798</ele>
        <time>2021-06-16T19:51:28Z</time>
      </trkpt>
      <trkpt lat="36.640279" lon="-4.498664">
        <ele>37.732</ele>
        <time>2021-06-16T19:51:30Z</time>
      </trkpt>
      <trkpt lat="36.640339" lon="-4.498716">
        <ele>37.755</ele>
        <time>2021-06-16T19:51:31Z</time>
      </trkpt>
      <trkpt lat="36.640404" lon="-4.498782">
        <ele>37.707</ele>
        <time>2021-06-16T19:51:32Z</time>
      </trkpt>
      <trkpt lat="36.640519" lon="-4.498897">
        <ele>37.717</ele>
        <time>2021-06-16T19:51:34Z</time>
      </trkpt>
      <trkpt lat="36.640563" lon="-4.498948">
        <ele>37.708</ele>
        <time>2021-06-16T19:51:35Z</time>
      </trkpt>
      <trkpt lat="36.640614" lon="-4.499003">
        <ele>37.752</ele>
        <time>2021-06-16T19:51:36Z</time>
      </trkpt>
      <trkpt lat="36.640677" lon="-4.499053">
        <ele>37.741</ele>
        <time>2021-06-16T19:51:37Z</time>
      </trkpt>
      <trkpt lat="36.640818" lon="-4.499158">
        <ele>37.715</ele>
        <time>2021-06-16T19:51:39Z</time>
      </trkpt>
      <trkpt lat="36.64089" lon="-4.499231">
        <ele>37.725</ele>
        <time>2021-06-16T19:51:40Z</time>
      </trkpt>
      <trkpt lat="36.640957" lon="-4.499295">
        <ele>37.731</ele>
        <time>2021-06-16T19:51:41Z</time>
      </trkpt>
      <trkpt lat="36.64106" lon="-4.499386">
        <ele>37.743</ele>
        <time>2021-06-16T19:51:43Z</time>
      </trkpt>
      <trkpt lat="36.641159" lon="-4.49949">
        <ele>37.742</ele>
        <time>2021-06-16T19:51:45Z</time>
      </trkpt>
      <trkpt lat="36.641296" lon="-4.499618">
        <ele>37.796</ele>
        <time>2021-06-16T19:51:47Z</time>
      </trkpt>
      <trkpt lat="36.641381" lon="-4.499678">
        <ele>37.745</ele>
        <time>2021-06-16T19:51:48Z</time>
      </trkpt>
      <trkpt lat="36.641554" lon="-4.499772">
        <ele>41.747</ele>
        <time>2021-06-16T19:51:50Z</time>
      </trkpt>
      <trkpt lat="36.641697" lon="-4.499835">
        <ele>45.411</ele>
        <time>2021-06-16T19:51:52Z</time>
      </trkpt>
      <trkpt lat="36.641759" lon="-4.499866">
        <ele>47.608</ele>
        <time>2021-06-16T19:51:53Z</time>
      </trkpt>
      <trkpt lat="36.641822" lon="-4.499901">
        <ele>49.031</ele>
        <time>2021-06-16T19:51:54Z</time>
      </trkpt>
      <trkpt lat="36.641891" lon="-4.499945">
        <ele>49.910</ele>
        <time>2021-06-16T19:51:55Z</time>
      </trkpt>
      <trkpt lat="36.642039" lon="-4.500054">
        <ele>51.254</ele>
        <time>2021-06-16T19:51:57Z</time>
      </trkpt>
      <trkpt lat="36.64212" lon="-4.500113">
        <ele>52.234</ele>
        <time>2021-06-16T19:51:58Z</time>
      </trkpt>
      <trkpt lat="36.642205" lon="-4.500169">
        <ele>52.830</ele>
        <time>2021-06-16T19:51:59Z</time>
      </trkpt>
      <trkpt lat="36.64237" lon="-4.500283">
        <ele>53.172</ele>
        <time>2021-06-16T19:52:01Z</time>
      </trkpt>
      <trkpt lat="36.642552" lon="-4.500415">
        <ele>53.411</ele>
        <time>2021-06-16T19:52:03Z</time>
      </trkpt>
      <trkpt lat="36.642665" lon="-4.50049">
        <ele>53.235</ele>
        <time>2021-06-16T19:52:04Z</time>
      </trkpt>
      <trkpt lat="36.642913" lon="-4.500665">
        <ele>52.271</ele>
        <time>2021-06-16T19:52:06Z</time>
      </trkpt>
      <trkpt lat="36.643171" lon="-4.500864">
        <ele>51.641</ele>
        <time>2021-06-16T19:52:08Z</time>
      </trkpt>
      <trkpt lat="36.643296" lon="-4.500955">
        <ele>51.415</ele>
        <time>2021-06-16T19:52:09Z</time>
      </trkpt>
      <trkpt lat="36.643557" lon="-4.501126">
        <ele>51.708</ele>
        <time>2021-06-16T19:52:11Z</time>
      </trkpt>
      <trkpt lat="36.643711" lon="-4.501207">
        <ele>51.254</ele>
        <time>2021-06-16T19:52:12Z</time>
      </trkpt>
      <trkpt lat="36.643853" lon="-4.501307">
        <ele>51.213</ele>
        <time>2021-06-16T19:52:13Z</time>
      </trkpt>
      <trkpt lat="36.644125" lon="-4.501499">
        <ele>51.677</ele>
        <time>2021-06-16T19:52:15Z</time>
      </trkpt>
      <trkpt lat="36.644258" lon="-4.501589">
        <ele>52.497</ele>
        <time>2021-06-16T19:52:16Z</time>
      </trkpt>
      <trkpt lat="36.644517" lon="-4.501764">
        <ele>53.113</ele>
        <time>2021-06-16T19:52:18Z</time>
      </trkpt>
      <trkpt lat="36.644782" lon="-4.501933">
        <ele>54.555</ele>
        <time>2021-06-16T19:52:20Z</time>
      </trkpt>
      <trkpt lat="36.644917" lon="-4.502024">
        <ele>56.084</ele>
        <time>2021-06-16T19:52:21Z</time>
      </trkpt>
      <trkpt lat="36.645177" lon="-4.502207">
        <ele>58.198</ele>
        <time>2021-06-16T19:52:23Z</time>
      </trkpt>
      <trkpt lat="36.645304" lon="-4.502301">
        <ele>59.773</ele>
        <time>2021-06-16T19:52:24Z</time>
      </trkpt>
      <trkpt lat="36.645429" lon="-4.50239">
        <ele>61.285</ele>
        <time>2021-06-16T19:52:25Z</time>
      </trkpt>
      <trkpt lat="36.645552" lon="-4.502476">
        <ele>62.213</ele>
        <time>2021-06-16T19:52:26Z</time>
      </trkpt>
      <trkpt lat="36.645673" lon="-4.502566">
        <ele>63.408</ele>
        <time>2021-06-16T19:52:27Z</time>
      </trkpt>
      <trkpt lat="36.645916" lon="-4.502757">
        <ele>64.884</ele>
        <time>2021-06-16T19:52:29Z</time>
      </trkpt>
      <trkpt lat="36.646155" lon="-4.502937">
        <ele>66.623</ele>
        <time>2021-06-16T19:52:31Z</time>
      </trkpt>
      <trkpt lat="36.646273" lon="-4.503028">
        <ele>68.017</ele>
        <time>2021-06-16T19:52:32Z</time>
      </trkpt>
      <trkpt lat="36.646493" lon="-4.503194">
        <ele>69.547</ele>
        <time>2021-06-16T19:52:34Z</time>
      </trkpt>
      <trkpt lat="36.646592" lon="-4.503263">
        <ele>71.093</ele>
        <time>2021-06-16T19:52:35Z</time>
      </trkpt>
      <trkpt lat="36.646788" lon="-4.503349">
        <ele>71.915</ele>
        <time>2021-06-16T19:52:37Z</time>
      </trkpt>
      <trkpt lat="36.646977" lon="-4.503395">
        <ele>72.964</ele>
        <time>2021-06-16T19:52:39Z</time>
      </trkpt>
      <trkpt lat="36.647062" lon="-4.50342">
        <ele>73.658</ele>
        <time>2021-06-16T19:52:40Z</time>
      </trkpt>
      <trkpt lat="36.647144" lon="-4.503451">
        <ele>74.479</ele>
        <time>2021-06-16T19:52:41Z</time>
      </trkpt>
      <trkpt lat="36.647323" lon="-4.50354">
        <ele>75.005</ele>
        <time>2021-06-16T19:52:43Z</time>
      </trkpt>
      <trkpt lat="36.647521" lon="-4.503661">
        <ele>75.725</ele>
        <time>2021-06-16T19:52:45Z</time>
      </trkpt>
      <trkpt lat="36.647715" lon="-4.503801">
        <ele>76.408</ele>
        <time>2021-06-16T19:52:47Z</time>
      </trkpt>
      <trkpt lat="36.647909" lon="-4.503943">
        <ele>76.994</ele>
        <time>2021-06-16T19:52:49Z</time>
      </trkpt>
      <trkpt lat="36.64812" lon="-4.504062">
        <ele>77.513</ele>
        <time>2021-06-16T19:52:51Z</time>
      </trkpt>
      <trkpt lat="36.64834" lon="-4.504141">
        <ele>78.347</ele>
        <time>2021-06-16T19:52:53Z</time>
      </trkpt>
      <trkpt lat="36.648537" lon="-4.504207">
        <ele>79.537</ele>
        <time>2021-06-16T19:52:55Z</time>
      </trkpt>
      <trkpt lat="36.64871" lon="-4.504276">
        <ele>80.463</ele>
        <time>2021-06-16T19:52:57Z</time>
      </trkpt>
      <trkpt lat="36.64889" lon="-4.504344">
        <ele>81.265</ele>
        <time>2021-06-16T19:52:59Z</time>
      </trkpt>
      <trkpt lat="36.649101" lon="-4.504423">
        <ele>81.894</ele>
        <time>2021-06-16T19:53:01Z</time>
      </trkpt>
      <trkpt lat="36.649331" lon="-4.504511">
        <ele>82.218</ele>
        <time>2021-06-16T19:53:03Z</time>
      </trkpt>
      <trkpt lat="36.649451" lon="-4.504558">
        <ele>82.663</ele>
        <time>2021-06-16T19:53:04Z</time>
      </trkpt>
      <trkpt lat="36.649692" lon="-4.504645">
        <ele>83.144</ele>
        <time>2021-06-16T19:53:06Z</time>
      </trkpt>
      <trkpt lat="36.649803" lon="-4.504688">
        <ele>83.718</ele>
        <time>2021-06-16T19:53:07Z</time>
      </trkpt>
      <trkpt lat="36.650011" lon="-4.50476">
        <ele>85.008</ele>
        <time>2021-06-16T19:53:09Z</time>
      </trkpt>
      <trkpt lat="36.650121" lon="-4.504783">
        <ele>86.033</ele>
        <time>2021-06-16T19:53:10Z</time>
      </trkpt>
      <trkpt lat="36.650364" lon="-4.504792">
        <ele>86.742</ele>
        <time>2021-06-16T19:53:12Z</time>
      </trkpt>
      <trkpt lat="36.65049" lon="-4.504793">
        <ele>86.996</ele>
        <time>2021-06-16T19:53:13Z</time>
      </trkpt>
      <trkpt lat="36.650751" lon="-4.504794">
        <ele>87.716</ele>
        <time>2021-06-16T19:53:15Z</time>
      </trkpt>
      <trkpt lat="36.65089" lon="-4.504792">
        <ele>88.532</ele>
        <time>2021-06-16T19:53:16Z</time>
      </trkpt>
      <trkpt lat="36.651172" lon="-4.50478">
        <ele>89.134</ele>
        <time>2021-06-16T19:53:18Z</time>
      </trkpt>
      <trkpt lat="36.651318" lon="-4.50477">
        <ele>89.623</ele>
        <time>2021-06-16T19:53:19Z</time>
      </trkpt>
      <trkpt lat="36.651466" lon="-4.504764">
        <ele>89.877</ele>
        <time>2021-06-16T19:53:20Z</time>
      </trkpt>
      <trkpt lat="36.65177" lon="-4.504777">
        <ele>89.859</ele>
        <time>2021-06-16T19:53:22Z</time>
      </trkpt>
      <trkpt lat="36.652072" lon="-4.504807">
        <ele>90.103</ele>
        <time>2021-06-16T19:53:24Z</time>
      </trkpt>
      <trkpt lat="36.652224" lon="-4.504828">
        <ele>89.823</ele>
        <time>2021-06-16T19:53:25Z</time>
      </trkpt>
      <trkpt lat="36.652527" lon="-4.504863">
        <ele>89.808</ele>
        <time>2021-06-16T19:53:27Z</time>
      </trkpt>
      <trkpt lat="36.652825" lon="-4.504873">
        <ele>89.792</ele>
        <time>2021-06-16T19:53:29Z</time>
      </trkpt>
      <trkpt lat="36.652967" lon="-4.504866">
        <ele>90.031</ele>
        <time>2021-06-16T19:53:30Z</time>
      </trkpt>
      <trkpt lat="36.653236" lon="-4.504858">
        <ele>90.345</ele>
        <time>2021-06-16T19:53:32Z</time>
      </trkpt>
      <trkpt lat="36.653477" lon="-4.50487">
        <ele>90.355</ele>
        <time>2021-06-16T19:53:34Z</time>
      </trkpt>
      <trkpt lat="36.653582" lon="-4.504894">
        <ele>90.051</ele>
        <time>2021-06-16T19:53:35Z</time>
      </trkpt>
      <trkpt lat="36.653773" lon="-4.504954">
        <ele>90.183</ele>
        <time>2021-06-16T19:53:37Z</time>
      </trkpt>
      <trkpt lat="36.653865" lon="-4.504983">
        <ele>90.182</ele>
        <time>2021-06-16T19:53:38Z</time>
      </trkpt>
      <trkpt lat="36.654049" lon="-4.505042">
        <ele>90.016</ele>
        <time>2021-06-16T19:53:40Z</time>
      </trkpt>
      <trkpt lat="36.654221" lon="-4.505093">
        <ele>90.032</ele>
        <time>2021-06-16T19:53:42Z</time>
      </trkpt>
      <trkpt lat="36.654304" lon="-4.505122">
        <ele>90.292</ele>
        <time>2021-06-16T19:53:43Z</time>
      </trkpt>
      <trkpt lat="36.654487" lon="-4.505182">
        <ele>90.311</ele>
        <time>2021-06-16T19:53:45Z</time>
      </trkpt>
      <trkpt lat="36.654588" lon="-4.505213">
        <ele>90.708</ele>
        <time>2021-06-16T19:53:46Z</time>
      </trkpt>
      <trkpt lat="36.654791" lon="-4.505275">
        <ele>91.110</ele>
        <time>2021-06-16T19:53:48Z</time>
      </trkpt>
      <trkpt lat="36.654888" lon="-4.505303">
        <ele>91.489</ele>
        <time>2021-06-16T19:53:49Z</time>
      </trkpt>
      <trkpt lat="36.654977" lon="-4.50533">
        <ele>91.943</ele>
        <time>2021-06-16T19:53:50Z</time>
      </trkpt>
      <trkpt lat="36.655139" lon="-4.505379">
        <ele>92.143</ele>
        <time>2021-06-16T19:53:52Z</time>
      </trkpt>
      <trkpt lat="36.655223" lon="-4.505404">
        <ele>92.419</ele>
        <time>2021-06-16T19:53:53Z</time>
      </trkpt>
      <trkpt lat="36.65542" lon="-4.505461">
        <ele>92.521</ele>
        <time>2021-06-16T19:53:55Z</time>
      </trkpt>
      <trkpt lat="36.655532" lon="-4.505492">
        <ele>92.480</ele>
        <time>2021-06-16T19:53:56Z</time>
      </trkpt>
      <trkpt lat="36.655647" lon="-4.505525">
        <ele>92.494</ele>
        <time>2021-06-16T19:53:57Z</time>
      </trkpt>
      <trkpt lat="36.655876" lon="-4.505586">
        <ele>92.262</ele>
        <time>2021-06-16T19:53:59Z</time>
      </trkpt>
      <trkpt lat="36.655986" lon="-4.505616">
        <ele>92.283</ele>
        <time>2021-06-16T19:54:00Z</time>
      </trkpt>
      <trkpt lat="36.656093" lon="-4.505642">
        <ele>92.111</ele>
        <time>2021-06-16T19:54:01Z</time>
      </trkpt>
      <trkpt lat="36.656306" lon="-4.505639">
        <ele>91.508</ele>
        <time>2021-06-16T19:54:03Z</time>
      </trkpt>
      <trkpt lat="36.656418" lon="-4.505645">
        <ele>91.233</ele>
        <time>2021-06-16T19:54:04Z</time>
      </trkpt>
      <trkpt lat="36.656531" lon="-4.505669">
        <ele>91.172</ele>
        <time>2021-06-16T19:54:05Z</time>
      </trkpt>
      <trkpt lat="36.656646" lon="-4.505697">
        <ele>90.796</ele>
        <time>2021-06-16T19:54:06Z</time>
      </trkpt>
      <trkpt lat="36.65688" lon="-4.505754">
        <ele>90.416</ele>
        <time>2021-06-16T19:54:08Z</time>
      </trkpt>
      <trkpt lat="36.656997" lon="-4.50579">
        <ele>90.182</ele>
        <time>2021-06-16T19:54:09Z</time>
      </trkpt>
      <trkpt lat="36.657225" lon="-4.505855">
        <ele>89.384</ele>
        <time>2021-06-16T19:54:11Z</time>
      </trkpt>
      <trkpt lat="36.657337" lon="-4.505884">
        <ele>89.043</ele>
        <time>2021-06-16T19:54:12Z</time>
      </trkpt>
      <trkpt lat="36.657565" lon="-4.505922">
        <ele>89.117</ele>
        <time>2021-06-16T19:54:14Z</time>
      </trkpt>
      <trkpt lat="36.657794" lon="-4.50598">
        <ele>89.076</ele>
        <time>2021-06-16T19:54:16Z</time>
      </trkpt>
      <trkpt lat="36.658005" lon="-4.506054">
        <ele>88.790</ele>
        <time>2021-06-16T19:54:18Z</time>
      </trkpt>
      <trkpt lat="36.658204" lon="-4.506129">
        <ele>88.519</ele>
        <time>2021-06-16T19:54:20Z</time>
      </trkpt>
      <trkpt lat="36.658417" lon="-4.506197">
        <ele>87.908</ele>
        <time>2021-06-16T19:54:22Z</time>
      </trkpt>
      <trkpt lat="36.658626" lon="-4.506262">
        <ele>87.344</ele>
        <time>2021-06-16T19:54:24Z</time>
      </trkpt>
      <trkpt lat="36.658809" lon="-4.50632">
        <ele>86.563</ele>
        <time>2021-06-16T19:54:26Z</time>
      </trkpt>
      <trkpt lat="36.658891" lon="-4.506351">
        <ele>86.017</ele>
        <time>2021-06-16T19:54:27Z</time>
      </trkpt>
      <trkpt lat="36.659028" lon="-4.506405">
        <ele>85.097</ele>
        <time>2021-06-16T19:54:29Z</time>
      </trkpt>
      <trkpt lat="36.659087" lon="-4.506427">
        <ele>84.173</ele>
        <time>2021-06-16T19:54:30Z</time>
      </trkpt>
      <trkpt lat="36.659216" lon="-4.506467">
        <ele>83.145</ele>
        <time>2021-06-16T19:54:32Z</time>
      </trkpt>
      <trkpt lat="36.659284" lon="-4.506495">
        <ele>82.684</ele>
        <time>2021-06-16T19:54:33Z</time>
      </trkpt>
      <trkpt lat="36.659442" lon="-4.506571">
        <ele>81.928</ele>
        <time>2021-06-16T19:54:35Z</time>
      </trkpt>
      <trkpt lat="36.659532" lon="-4.506622">
        <ele>81.837</ele>
        <time>2021-06-16T19:54:36Z</time>
      </trkpt>
      <trkpt lat="36.659631" lon="-4.506658">
        <ele>81.649</ele>
        <time>2021-06-16T19:54:37Z</time>
      </trkpt>
      <trkpt lat="36.659844" lon="-4.506694">
        <ele>80.513</ele>
        <time>2021-06-16T19:54:39Z</time>
      </trkpt>
      <trkpt lat="36.65995" lon="-4.506711">
        <ele>79.508</ele>
        <time>2021-06-16T19:54:40Z</time>
      </trkpt>
      <trkpt lat="36.660057" lon="-4.506724">
        <ele>78.930</ele>
        <time>2021-06-16T19:54:41Z</time>
      </trkpt>
      <trkpt lat="36.660271" lon="-4.50673">
        <ele>78.239</ele>
        <time>2021-06-16T19:54:43Z</time>
      </trkpt>
      <trkpt lat="36.660495" lon="-4.506688">
        <ele>76.833</ele>
        <time>2021-06-16T19:54:45Z</time>
      </trkpt>
      <trkpt lat="36.660717" lon="-4.506604">
        <ele>75.963</ele>
        <time>2021-06-16T19:54:47Z</time>
      </trkpt>
      <trkpt lat="36.660901" lon="-4.506511">
        <ele>75.069</ele>
        <time>2021-06-16T19:54:49Z</time>
      </trkpt>
      <trkpt lat="36.661065" lon="-4.506436">
        <ele>74.211</ele>
        <time>2021-06-16T19:54:51Z</time>
      </trkpt>
      <trkpt lat="36.661145" lon="-4.506401">
        <ele>73.540</ele>
        <time>2021-06-16T19:54:52Z</time>
      </trkpt>
      <trkpt lat="36.66122" lon="-4.506366">
        <ele>73.154</ele>
        <time>2021-06-16T19:54:53Z</time>
      </trkpt>
      <trkpt lat="36.661359" lon="-4.506296">
        <ele>72.531</ele>
        <time>2021-06-16T19:54:55Z</time>
      </trkpt>
      <trkpt lat="36.66142" lon="-4.506266">
        <ele>72.361</ele>
        <time>2021-06-16T19:54:56Z</time>
      </trkpt>
      <trkpt lat="36.661517" lon="-4.506222">
        <ele>72.107</ele>
        <time>2021-06-16T19:54:58Z</time>
      </trkpt>
      <trkpt lat="36.661575" lon="-4.506197">
        <ele>71.308</ele>
        <time>2021-06-16T19:55:00Z</time>
      </trkpt>
      <trkpt lat="36.661611" lon="-4.506162">
        <ele>70.190</ele>
        <time>2021-06-16T19:55:02Z</time>
      </trkpt>
      <trkpt lat="36.661662" lon="-4.506112">
        <ele>69.339</ele>
        <time>2021-06-16T19:55:04Z</time>
      </trkpt>
      <trkpt lat="36.661702" lon="-4.50606">
        <ele>68.893</ele>
        <time>2021-06-16T19:55:05Z</time>
      </trkpt>
      <trkpt lat="36.661748" lon="-4.505988">
        <ele>68.283</ele>
        <time>2021-06-16T19:55:06Z</time>
      </trkpt>
      <trkpt lat="36.661805" lon="-4.505919">
        <ele>67.359</ele>
        <time>2021-06-16T19:55:07Z</time>
      </trkpt>
      <trkpt lat="36.661939" lon="-4.505859">
        <ele>67.041</ele>
        <time>2021-06-16T19:55:09Z</time>
      </trkpt>
      <trkpt lat="36.662007" lon="-4.505871">
        <ele>66.920</ele>
        <time>2021-06-16T19:55:10Z</time>
      </trkpt>
      <trkpt lat="36.662119" lon="-4.505966">
        <ele>66.664</ele>
        <time>2021-06-16T19:55:12Z</time>
      </trkpt>
      <trkpt lat="36.66215" lon="-4.506119">
        <ele>66.187</ele>
        <time>2021-06-16T19:55:14Z</time>
      </trkpt>
      <trkpt lat="36.662141" lon="-4.506203">
        <ele>66.642</ele>
        <time>2021-06-16T19:55:15Z</time>
      </trkpt>
      <trkpt lat="36.662111" lon="-4.506284">
        <ele>67.126</ele>
        <time>2021-06-16T19:55:16Z</time>
      </trkpt>
      <trkpt lat="36.662002" lon="-4.50641">
        <ele>67.508</ele>
        <time>2021-06-16T19:55:18Z</time>
      </trkpt>
      <trkpt lat="36.661932" lon="-4.50644">
        <ele>67.815</ele>
        <time>2021-06-16T19:55:19Z</time>
      </trkpt>
      <trkpt lat="36.661856" lon="-4.506442">
        <ele>68.194</ele>
        <time>2021-06-16T19:55:20Z</time>
      </trkpt>
      <trkpt lat="36.661731" lon="-4.506354">
        <ele>68.218</ele>
        <time>2021-06-16T19:55:22Z</time>
      </trkpt>
      <trkpt lat="36.66169" lon="-4.506278">
        <ele>68.278</ele>
        <time>2021-06-16T19:55:23Z</time>
      </trkpt>
      <trkpt lat="36.66167" lon="-4.506191">
        <ele>68.294</ele>
        <time>2021-06-16T19:55:24Z</time>
      </trkpt>
      <trkpt lat="36.661673" lon="-4.506099">
        <ele>67.676</ele>
        <time>2021-06-16T19:55:25Z</time>
      </trkpt>
      <trkpt lat="36.661747" lon="-4.505935">
        <ele>67.215</ele>
        <time>2021-06-16T19:55:27Z</time>
      </trkpt>
      <trkpt lat="36.661872" lon="-4.505839">
        <ele>66.639</ele>
        <time>2021-06-16T19:55:29Z</time>
      </trkpt>
      <trkpt lat="36.662022" lon="-4.505853">
        <ele>66.346</ele>
        <time>2021-06-16T19:55:31Z</time>
      </trkpt>
      <trkpt lat="36.662098" lon="-4.505889">
        <ele>66.088</ele>
        <time>2021-06-16T19:55:32Z</time>
      </trkpt>
      <trkpt lat="36.662254" lon="-4.505919">
        <ele>65.816</ele>
        <time>2021-06-16T19:55:34Z</time>
      </trkpt>
      <trkpt lat="36.662423" lon="-4.505867">
        <ele>65.708</ele>
        <time>2021-06-16T19:55:36Z</time>
      </trkpt>
      <trkpt lat="36.66263" lon="-4.505767">
        <ele>65.351</ele>
        <time>2021-06-16T19:55:38Z</time>
      </trkpt>
      <trkpt lat="36.662743" lon="-4.50571">
        <ele>64.540</ele>
        <time>2021-06-16T19:55:39Z</time>
      </trkpt>
      <trkpt lat="36.662853" lon="-4.505646">
        <ele>63.964</ele>
        <time>2021-06-16T19:55:40Z</time>
      </trkpt>
      <trkpt lat="36.662967" lon="-4.505577">
        <ele>63.384</ele>
        <time>2021-06-16T19:55:41Z</time>
      </trkpt>
      <trkpt lat="36.663099" lon="-4.505535">
        <ele>62.290</ele>
        <time>2021-06-16T19:55:42Z</time>
      </trkpt>
      <trkpt lat="36.663237" lon="-4.505522">
        <ele>62.012</ele>
        <time>2021-06-16T19:55:43Z</time>
      </trkpt>
      <trkpt lat="36.663515" lon="-4.505568">
        <ele>61.211</ele>
        <time>2021-06-16T19:55:45Z</time>
      </trkpt>
      <trkpt lat="36.663651" lon="-4.505616">
        <ele>61.055</ele>
        <time>2021-06-16T19:55:46Z</time>
      </trkpt>
      <trkpt lat="36.663779" lon="-4.505681">
        <ele>60.826</ele>
        <time>2021-06-16T19:55:47Z</time>
      </trkpt>
      <trkpt lat="36.664019" lon="-4.505863">
        <ele>60.847</ele>
        <time>2021-06-16T19:55:49Z</time>
      </trkpt>
      <trkpt lat="36.664226" lon="-4.50611">
        <ele>61.011</ele>
        <time>2021-06-16T19:55:51Z</time>
      </trkpt>
      <trkpt lat="36.664322" lon="-4.506251">
        <ele>60.808</ele>
        <time>2021-06-16T19:55:52Z</time>
      </trkpt>
      <trkpt lat="36.664505" lon="-4.50654">
        <ele>61.189</ele>
        <time>2021-06-16T19:55:54Z</time>
      </trkpt>
      <trkpt lat="36.664673" lon="-4.506826">
        <ele>61.578</ele>
        <time>2021-06-16T19:55:56Z</time>
      </trkpt>
      <trkpt lat="36.664841" lon="-4.50709">
        <ele>61.672</ele>
        <time>2021-06-16T19:55:58Z</time>
      </trkpt>
      <trkpt lat="36.664927" lon="-4.507226">
        <ele>61.332</ele>
        <time>2021-06-16T19:55:59Z</time>
      </trkpt>
      <trkpt lat="36.665011" lon="-4.507366">
        <ele>61.398</ele>
        <time>2021-06-16T19:56:00Z</time>
      </trkpt>
      <trkpt lat="36.665185" lon="-4.507639">
        <ele>61.550</ele>
        <time>2021-06-16T19:56:02Z</time>
      </trkpt>
      <trkpt lat="36.665358" lon="-4.507919">
        <ele>61.659</ele>
        <time>2021-06-16T19:56:04Z</time>
      </trkpt>
      <trkpt lat="36.665445" lon="-4.508057">
        <ele>61.213</ele>
        <time>2021-06-16T19:56:05Z</time>
      </trkpt>
      <trkpt lat="36.665531" lon="-4.508192">
        <ele>61.339</ele>
        <time>2021-06-16T19:56:06Z</time>
      </trkpt>
      <trkpt lat="36.665616" lon="-4.508323">
        <ele>61.401</ele>
        <time>2021-06-16T19:56:07Z</time>
      </trkpt>
      <trkpt lat="36.665774" lon="-4.508572">
        <ele>61.821</ele>
        <time>2021-06-16T19:56:09Z</time>
      </trkpt>
      <trkpt lat="36.665912" lon="-4.508787">
        <ele>61.808</ele>
        <time>2021-06-16T19:56:11Z</time>
      </trkpt>
      <trkpt lat="36.666038" lon="-4.508982">
        <ele>61.850</ele>
        <time>2021-06-16T19:56:13Z</time>
      </trkpt>
      <trkpt lat="36.66613" lon="-4.50915">
        <ele>62.429</ele>
        <time>2021-06-16T19:56:15Z</time>
      </trkpt>
      <trkpt lat="36.666166" lon="-4.509209">
        <ele>62.893</ele>
        <time>2021-06-16T19:56:16Z</time>
      </trkpt>
      <trkpt lat="36.666217" lon="-4.509275">
        <ele>63.023</ele>
        <time>2021-06-16T19:56:18Z</time>
      </trkpt>
      <trkpt lat="36.666218" lon="-4.509332">
        <ele>62.879</ele>
        <time>2021-06-16T19:56:36Z</time>
      </trkpt>
      <trkpt lat="36.666257" lon="-4.509369">
        <ele>62.641</ele>
        <time>2021-06-16T19:56:57Z</time>
      </trkpt>
      <trkpt lat="36.666338" lon="-4.509516">
        <ele>62.540</ele>
        <time>2021-06-16T19:56:59Z</time>
      </trkpt>
      <trkpt lat="36.666402" lon="-4.50963">
        <ele>62.414</ele>
        <time>2021-06-16T19:57:00Z</time>
      </trkpt>
      <trkpt lat="36.666472" lon="-4.50975">
        <ele>62.368</ele>
        <time>2021-06-16T19:57:01Z</time>
      </trkpt>
      <trkpt lat="36.666625" lon="-4.509987">
        <ele>62.342</ele>
        <time>2021-06-16T19:57:03Z</time>
      </trkpt>
      <trkpt lat="36.666701" lon="-4.510106">
        <ele>62.326</ele>
        <time>2021-06-16T19:57:04Z</time>
      </trkpt>
      <trkpt lat="36.666855" lon="-4.510352">
        <ele>62.308</ele>
        <time>2021-06-16T19:57:06Z</time>
      </trkpt>
      <trkpt lat="36.667014" lon="-4.510606">
        <ele>62.323</ele>
        <time>2021-06-16T19:57:08Z</time>
      </trkpt>
      <trkpt lat="36.667172" lon="-4.51086">
        <ele>62.362</ele>
        <time>2021-06-16T19:57:10Z</time>
      </trkpt>
      <trkpt lat="36.667251" lon="-4.510986">
        <ele>62.326</ele>
        <time>2021-06-16T19:57:11Z</time>
      </trkpt>
      <trkpt lat="36.667407" lon="-4.511235">
        <ele>62.356</ele>
        <time>2021-06-16T19:57:13Z</time>
      </trkpt>
      <trkpt lat="36.667486" lon="-4.511356">
        <ele>62.372</ele>
        <time>2021-06-16T19:57:14Z</time>
      </trkpt>
      <trkpt lat="36.667649" lon="-4.511607">
        <ele>62.324</ele>
        <time>2021-06-16T19:57:16Z</time>
      </trkpt>
      <trkpt lat="36.667808" lon="-4.511866">
        <ele>62.323</ele>
        <time>2021-06-16T19:57:18Z</time>
      </trkpt>
      <trkpt lat="36.667882" lon="-4.511999">
        <ele>62.327</ele>
        <time>2021-06-16T19:57:19Z</time>
      </trkpt>
      <trkpt lat="36.668015" lon="-4.512277">
        <ele>62.326</ele>
        <time>2021-06-16T19:57:21Z</time>
      </trkpt>
      <trkpt lat="36.66807" lon="-4.512419">
        <ele>62.347</ele>
        <time>2021-06-16T19:57:22Z</time>
      </trkpt>
      <trkpt lat="36.668111" lon="-4.512569">
        <ele>62.311</ele>
        <time>2021-06-16T19:57:23Z</time>
      </trkpt>
      <trkpt lat="36.668157" lon="-4.512842">
        <ele>62.308</ele>
        <time>2021-06-16T19:57:25Z</time>
      </trkpt>
      <trkpt lat="36.668168" lon="-4.512962">
        <ele>62.339</ele>
        <time>2021-06-16T19:57:26Z</time>
      </trkpt>
      <trkpt lat="36.668178" lon="-4.513183">
        <ele>62.328</ele>
        <time>2021-06-16T19:57:28Z</time>
      </trkpt>
      <trkpt lat="36.668181" lon="-4.513296">
        <ele>62.322</ele>
        <time>2021-06-16T19:57:29Z</time>
      </trkpt>
      <trkpt lat="36.668168" lon="-4.51353">
        <ele>62.332</ele>
        <time>2021-06-16T19:57:31Z</time>
      </trkpt>
      <trkpt lat="36.668136" lon="-4.513758">
        <ele>62.328</ele>
        <time>2021-06-16T19:57:33Z</time>
      </trkpt>
      <trkpt lat="36.6681" lon="-4.513972">
        <ele>62.340</ele>
        <time>2021-06-16T19:57:35Z</time>
      </trkpt>
      <trkpt lat="36.668069" lon="-4.514192">
        <ele>62.319</ele>
        <time>2021-06-16T19:57:37Z</time>
      </trkpt>
      <trkpt lat="36.668044" lon="-4.514421">
        <ele>62.373</ele>
        <time>2021-06-16T19:57:39Z</time>
      </trkpt>
      <trkpt lat="36.668032" lon="-4.514671">
        <ele>62.397</ele>
        <time>2021-06-16T19:57:41Z</time>
      </trkpt>
      <trkpt lat="36.668022" lon="-4.514943">
        <ele>62.323</ele>
        <time>2021-06-16T19:57:43Z</time>
      </trkpt>
      <trkpt lat="36.668024" lon="-4.515246">
        <ele>62.325</ele>
        <time>2021-06-16T19:57:45Z</time>
      </trkpt>
      <trkpt lat="36.668044" lon="-4.515566">
        <ele>62.308</ele>
        <time>2021-06-16T19:57:47Z</time>
      </trkpt>
      <trkpt lat="36.668098" lon="-4.515897">
        <ele>62.316</ele>
        <time>2021-06-16T19:57:49Z</time>
      </trkpt>
      <trkpt lat="36.668179" lon="-4.516234">
        <ele>62.395</ele>
        <time>2021-06-16T19:57:51Z</time>
      </trkpt>
      <trkpt lat="36.668275" lon="-4.516576">
        <ele>62.359</ele>
        <time>2021-06-16T19:57:53Z</time>
      </trkpt>
      <trkpt lat="36.668328" lon="-4.516753">
        <ele>62.389</ele>
        <time>2021-06-16T19:57:54Z</time>
      </trkpt>
      <trkpt lat="36.66844" lon="-4.517109">
        <ele>58.965</ele>
        <time>2021-06-16T19:57:56Z</time>
      </trkpt>
      <trkpt lat="36.668499" lon="-4.517293">
        <ele>56.927</ele>
        <time>2021-06-16T19:57:57Z</time>
      </trkpt>
      <trkpt lat="36.668558" lon="-4.517478">
        <ele>55.786</ele>
        <time>2021-06-16T19:57:58Z</time>
      </trkpt>
      <trkpt lat="36.668673" lon="-4.517848">
        <ele>55.130</ele>
        <time>2021-06-16T19:58:00Z</time>
      </trkpt>
      <trkpt lat="36.668788" lon="-4.518207">
        <ele>55.545</ele>
        <time>2021-06-16T19:58:02Z</time>
      </trkpt>
      <trkpt lat="36.668879" lon="-4.518527">
        <ele>55.447</ele>
        <time>2021-06-16T19:58:04Z</time>
      </trkpt>
      <trkpt lat="36.66892" lon="-4.518669">
        <ele>55.611</ele>
        <time>2021-06-16T19:58:05Z</time>
      </trkpt>
      <trkpt lat="36.669004" lon="-4.518913">
        <ele>55.708</ele>
        <time>2021-06-16T19:58:07Z</time>
      </trkpt>
      <trkpt lat="36.66907" lon="-4.519105">
        <ele>55.771</ele>
        <time>2021-06-16T19:58:09Z</time>
      </trkpt>
      <trkpt lat="36.669101" lon="-4.519192">
        <ele>55.770</ele>
        <time>2021-06-16T19:58:10Z</time>
      </trkpt>
      <trkpt lat="36.669174" lon="-4.519346">
        <ele>56.114</ele>
        <time>2021-06-16T19:58:12Z</time>
      </trkpt>
      <trkpt lat="36.669216" lon="-4.51942">
        <ele>56.244</ele>
        <time>2021-06-16T19:58:13Z</time>
      </trkpt>
      <trkpt lat="36.669261" lon="-4.519502">
        <ele>56.780</ele>
        <time>2021-06-16T19:58:14Z</time>
      </trkpt>
      <trkpt lat="36.669298" lon="-4.519598">
        <ele>56.812</ele>
        <time>2021-06-16T19:58:15Z</time>
      </trkpt>
      <trkpt lat="36.669318" lon="-4.519706">
        <ele>56.791</ele>
        <time>2021-06-16T19:58:16Z</time>
      </trkpt>
      <trkpt lat="36.669362" lon="-4.519946">
        <ele>56.415</ele>
        <time>2021-06-16T19:58:18Z</time>
      </trkpt>
      <trkpt lat="36.669398" lon="-4.520079">
        <ele>56.046</ele>
        <time>2021-06-16T19:58:19Z</time>
      </trkpt>
      <trkpt lat="36.66949" lon="-4.520362">
        <ele>56.088</ele>
        <time>2021-06-16T19:58:21Z</time>
      </trkpt>
      <trkpt lat="36.669539" lon="-4.520513">
        <ele>55.716</ele>
        <time>2021-06-16T19:58:22Z</time>
      </trkpt>
      <trkpt lat="36.669588" lon="-4.520671">
        <ele>55.608</ele>
        <time>2021-06-16T19:58:23Z</time>
      </trkpt>
      <trkpt lat="36.669696" lon="-4.521004">
        <ele>55.241</ele>
        <time>2021-06-16T19:58:25Z</time>
      </trkpt>
      <trkpt lat="36.669815" lon="-4.521356">
        <ele>54.890</ele>
        <time>2021-06-16T19:58:27Z</time>
      </trkpt>
      <trkpt lat="36.669934" lon="-4.521722">
        <ele>54.734</ele>
        <time>2021-06-16T19:58:29Z</time>
      </trkpt>
      <trkpt lat="36.669993" lon="-4.521907">
        <ele>54.884</ele>
        <time>2021-06-16T19:58:30Z</time>
      </trkpt>
      <trkpt lat="36.670105" lon="-4.522268">
        <ele>54.590</ele>
        <time>2021-06-16T19:58:32Z</time>
      </trkpt>
      <trkpt lat="36.670163" lon="-4.522449">
        <ele>54.552</ele>
        <time>2021-06-16T19:58:33Z</time>
      </trkpt>
      <trkpt lat="36.67022" lon="-4.522628">
        <ele>54.651</ele>
        <time>2021-06-16T19:58:34Z</time>
      </trkpt>
      <trkpt lat="36.670333" lon="-4.522986">
        <ele>54.515</ele>
        <time>2021-06-16T19:58:36Z</time>
      </trkpt>
      <trkpt lat="36.670451" lon="-4.523358">
        <ele>54.523</ele>
        <time>2021-06-16T19:58:38Z</time>
      </trkpt>
      <trkpt lat="36.670511" lon="-4.523549">
        <ele>54.583</ele>
        <time>2021-06-16T19:58:39Z</time>
      </trkpt>
      <trkpt lat="36.670637" lon="-4.523939">
        <ele>53.511</ele>
        <time>2021-06-16T19:58:41Z</time>
      </trkpt>
      <trkpt lat="36.670703" lon="-4.524138">
        <ele>52.508</ele>
        <time>2021-06-16T19:58:42Z</time>
      </trkpt>
      <trkpt lat="36.670837" lon="-4.524524">
        <ele>51.239</ele>
        <time>2021-06-16T19:58:44Z</time>
      </trkpt>
      <trkpt lat="36.67099" lon="-4.524911">
        <ele>49.878</ele>
        <time>2021-06-16T19:58:46Z</time>
      </trkpt>
      <trkpt lat="36.671075" lon="-4.525103">
        <ele>48.552</ele>
        <time>2021-06-16T19:58:47Z</time>
      </trkpt>
      <trkpt lat="36.671264" lon="-4.525474">
        <ele>46.832</ele>
        <time>2021-06-16T19:58:49Z</time>
      </trkpt>
      <trkpt lat="36.671369" lon="-4.525657">
        <ele>45.548</ele>
        <time>2021-06-16T19:58:50Z</time>
      </trkpt>
      <trkpt lat="36.671592" lon="-4.526016">
        <ele>44.270</ele>
        <time>2021-06-16T19:58:52Z</time>
      </trkpt>
      <trkpt lat="36.671818" lon="-4.526374">
        <ele>42.949</ele>
        <time>2021-06-16T19:58:54Z</time>
      </trkpt>
      <trkpt lat="36.672051" lon="-4.526751">
        <ele>41.433</ele>
        <time>2021-06-16T19:58:56Z</time>
      </trkpt>
      <trkpt lat="36.672165" lon="-4.526949">
        <ele>40.225</ele>
        <time>2021-06-16T19:58:57Z</time>
      </trkpt>
      <trkpt lat="36.672394" lon="-4.527358">
        <ele>38.526</ele>
        <time>2021-06-16T19:58:59Z</time>
      </trkpt>
      <trkpt lat="36.672616" lon="-4.527776">
        <ele>36.508</ele>
        <time>2021-06-16T19:59:01Z</time>
      </trkpt>
      <trkpt lat="36.672839" lon="-4.52819">
        <ele>35.108</ele>
        <time>2021-06-16T19:59:03Z</time>
      </trkpt>
      <trkpt lat="36.673069" lon="-4.528596">
        <ele>33.919</ele>
        <time>2021-06-16T19:59:05Z</time>
      </trkpt>
      <trkpt lat="36.673182" lon="-4.52878">
        <ele>32.848</ele>
        <time>2021-06-16T19:59:06Z</time>
      </trkpt>
      <trkpt lat="36.673404" lon="-4.529154">
        <ele>32.462</ele>
        <time>2021-06-16T19:59:08Z</time>
      </trkpt>
      <trkpt lat="36.673511" lon="-4.529348">
        <ele>32.592</ele>
        <time>2021-06-16T19:59:09Z</time>
      </trkpt>
      <trkpt lat="36.673611" lon="-4.52954">
        <ele>32.568</ele>
        <time>2021-06-16T19:59:10Z</time>
      </trkpt>
      <trkpt lat="36.673794" lon="-4.529921">
        <ele>32.590</ele>
        <time>2021-06-16T19:59:12Z</time>
      </trkpt>
      <trkpt lat="36.673967" lon="-4.530298">
        <ele>32.489</ele>
        <time>2021-06-16T19:59:14Z</time>
      </trkpt>
      <trkpt lat="36.674125" lon="-4.530675">
        <ele>32.153</ele>
        <time>2021-06-16T19:59:16Z</time>
      </trkpt>
      <trkpt lat="36.674201" lon="-4.530862">
        <ele>32.581</ele>
        <time>2021-06-16T19:59:17Z</time>
      </trkpt>
      <trkpt lat="36.674346" lon="-4.531221">
        <ele>33.061</ele>
        <time>2021-06-16T19:59:19Z</time>
      </trkpt>
      <trkpt lat="36.67449" lon="-4.531561">
        <ele>33.617</ele>
        <time>2021-06-16T19:59:21Z</time>
      </trkpt>
      <trkpt lat="36.674564" lon="-4.531728">
        <ele>33.508</ele>
        <time>2021-06-16T19:59:22Z</time>
      </trkpt>
      <trkpt lat="36.674636" lon="-4.531891">
        <ele>33.835</ele>
        <time>2021-06-16T19:59:23Z</time>
      </trkpt>
      <trkpt lat="36.674778" lon="-4.532205">
        <ele>34.044</ele>
        <time>2021-06-16T19:59:25Z</time>
      </trkpt>
      <trkpt lat="36.674845" lon="-4.532351">
        <ele>34.498</ele>
        <time>2021-06-16T19:59:26Z</time>
      </trkpt>
      <trkpt lat="36.674968" lon="-4.532629">
        <ele>35.038</ele>
        <time>2021-06-16T19:59:28Z</time>
      </trkpt>
      <trkpt lat="36.675084" lon="-4.532874">
        <ele>36.274</ele>
        <time>2021-06-16T19:59:30Z</time>
      </trkpt>
      <trkpt lat="36.675133" lon="-4.532972">
        <ele>37.236</ele>
        <time>2021-06-16T19:59:31Z</time>
      </trkpt>
      <trkpt lat="36.675175" lon="-4.533051">
        <ele>37.965</ele>
        <time>2021-06-16T19:59:32Z</time>
      </trkpt>
      <trkpt lat="36.675213" lon="-4.533109">
        <ele>38.849</ele>
        <time>2021-06-16T19:59:33Z</time>
      </trkpt>
      <trkpt lat="36.675276" lon="-4.533177">
        <ele>39.263</ele>
        <time>2021-06-16T19:59:35Z</time>
      </trkpt>
      <trkpt lat="36.675362" lon="-4.533223">
        <ele>39.744</ele>
        <time>2021-06-16T19:59:37Z</time>
      </trkpt>
      <trkpt lat="36.67542" lon="-4.533243">
        <ele>39.918</ele>
        <time>2021-06-16T19:59:38Z</time>
      </trkpt>
      <trkpt lat="36.675562" lon="-4.533265">
        <ele>40.208</ele>
        <time>2021-06-16T19:59:40Z</time>
      </trkpt>
      <trkpt lat="36.675638" lon="-4.533283">
        <ele>40.723</ele>
        <time>2021-06-16T19:59:41Z</time>
      </trkpt>
      <trkpt lat="36.675782" lon="-4.533384">
        <ele>41.012</ele>
        <time>2021-06-16T19:59:43Z</time>
      </trkpt>
      <trkpt lat="36.675837" lon="-4.533472">
        <ele>41.316</ele>
        <time>2021-06-16T19:59:44Z</time>
      </trkpt>
      <trkpt lat="36.675872" lon="-4.533578">
        <ele>41.626</ele>
        <time>2021-06-16T19:59:45Z</time>
      </trkpt>
      <trkpt lat="36.6759" lon="-4.533817">
        <ele>41.972</ele>
        <time>2021-06-16T19:59:47Z</time>
      </trkpt>
      <trkpt lat="36.675925" lon="-4.533941">
        <ele>42.364</ele>
        <time>2021-06-16T19:59:48Z</time>
      </trkpt>
      <trkpt lat="36.676045" lon="-4.534172">
        <ele>42.413</ele>
        <time>2021-06-16T19:59:50Z</time>
      </trkpt>
      <trkpt lat="36.676243" lon="-4.534363">
        <ele>42.677</ele>
        <time>2021-06-16T19:59:52Z</time>
      </trkpt>
      <trkpt lat="36.67648" lon="-4.534533">
        <ele>42.614</ele>
        <time>2021-06-16T19:59:54Z</time>
      </trkpt>
      <trkpt lat="36.676609" lon="-4.534616">
        <ele>42.654</ele>
        <time>2021-06-16T19:59:55Z</time>
      </trkpt>
      <trkpt lat="36.676741" lon="-4.534692">
        <ele>42.609</ele>
        <time>2021-06-16T19:59:56Z</time>
      </trkpt>
      <trkpt lat="36.676877" lon="-4.534761">
        <ele>42.708</ele>
        <time>2021-06-16T19:59:57Z</time>
      </trkpt>
      <trkpt lat="36.677018" lon="-4.534833">
        <ele>43.058</ele>
        <time>2021-06-16T19:59:58Z</time>
      </trkpt>
      <trkpt lat="36.677311" lon="-4.534966">
        <ele>42.917</ele>
        <time>2021-06-16T20:00:00Z</time>
      </trkpt>
      <trkpt lat="36.677461" lon="-4.535032">
        <ele>42.411</ele>
        <time>2021-06-16T20:00:01Z</time>
      </trkpt>
      <trkpt lat="36.677616" lon="-4.535098">
        <ele>41.411</ele>
        <time>2021-06-16T20:00:02Z</time>
      </trkpt>
      <trkpt lat="36.67777" lon="-4.535159">
        <ele>40.847</ele>
        <time>2021-06-16T20:00:03Z</time>
      </trkpt>
      <trkpt lat="36.67808" lon="-4.535277">
        <ele>40.629</ele>
        <time>2021-06-16T20:00:05Z</time>
      </trkpt>
      <trkpt lat="36.678237" lon="-4.535338">
        <ele>40.418</ele>
        <time>2021-06-16T20:00:06Z</time>
      </trkpt>
      <trkpt lat="36.678396" lon="-4.535399">
        <ele>40.032</ele>
        <time>2021-06-16T20:00:07Z</time>
      </trkpt>
      <trkpt lat="36.678714" lon="-4.535523">
        <ele>39.855</ele>
        <time>2021-06-16T20:00:09Z</time>
      </trkpt>
      <trkpt lat="36.679036" lon="-4.535651">
        <ele>40.007</ele>
        <time>2021-06-16T20:00:11Z</time>
      </trkpt>
      <trkpt lat="36.679199" lon="-4.535716">
        <ele>40.517</ele>
        <time>2021-06-16T20:00:12Z</time>
      </trkpt>
      <trkpt lat="36.679361" lon="-4.535778">
        <ele>40.108</ele>
        <time>2021-06-16T20:00:13Z</time>
      </trkpt>
      <trkpt lat="36.67952" lon="-4.535836">
        <ele>40.522</ele>
        <time>2021-06-16T20:00:14Z</time>
      </trkpt>
      <trkpt lat="36.679675" lon="-4.535894">
        <ele>40.621</ele>
        <time>2021-06-16T20:00:15Z</time>
      </trkpt>
      <trkpt lat="36.67983" lon="-4.535951">
        <ele>40.875</ele>
        <time>2021-06-16T20:00:16Z</time>
      </trkpt>
      <trkpt lat="36.680133" lon="-4.536066">
        <ele>40.945</ele>
        <time>2021-06-16T20:00:18Z</time>
      </trkpt>
      <trkpt lat="36.680288" lon="-4.536125">
        <ele>41.421</ele>
        <time>2021-06-16T20:00:19Z</time>
      </trkpt>
      <trkpt lat="36.680594" lon="-4.536249">
        <ele>42.123</ele>
        <time>2021-06-16T20:00:21Z</time>
      </trkpt>
      <trkpt lat="36.680744" lon="-4.536309">
        <ele>42.722</ele>
        <time>2021-06-16T20:00:22Z</time>
      </trkpt>
      <trkpt lat="36.680888" lon="-4.536367">
        <ele>42.986</ele>
        <time>2021-06-16T20:00:23Z</time>
      </trkpt>
      <trkpt lat="36.681171" lon="-4.536478">
        <ele>43.068</ele>
        <time>2021-06-16T20:00:25Z</time>
      </trkpt>
      <trkpt lat="36.681452" lon="-4.536585">
        <ele>42.942</ele>
        <time>2021-06-16T20:00:27Z</time>
      </trkpt>
      <trkpt lat="36.68159" lon="-4.536637">
        <ele>43.026</ele>
        <time>2021-06-16T20:00:28Z</time>
      </trkpt>
      <trkpt lat="36.681846" lon="-4.536745">
        <ele>42.908</ele>
        <time>2021-06-16T20:00:30Z</time>
      </trkpt>
      <trkpt lat="36.682056" lon="-4.536862">
        <ele>42.853</ele>
        <time>2021-06-16T20:00:32Z</time>
      </trkpt>
      <trkpt lat="36.682152" lon="-4.536925">
        <ele>42.932</ele>
        <time>2021-06-16T20:00:33Z</time>
      </trkpt>
      <trkpt lat="36.682241" lon="-4.536989">
        <ele>43.096</ele>
        <time>2021-06-16T20:00:34Z</time>
      </trkpt>
      <trkpt lat="36.682399" lon="-4.537109">
        <ele>42.466</ele>
        <time>2021-06-16T20:00:36Z</time>
      </trkpt>
      <trkpt lat="36.682547" lon="-4.537182">
        <ele>41.542</ele>
        <time>2021-06-16T20:00:38Z</time>
      </trkpt>
      <trkpt lat="36.682698" lon="-4.537249">
        <ele>40.444</ele>
        <time>2021-06-16T20:00:40Z</time>
      </trkpt>
      <trkpt lat="36.682797" lon="-4.537387">
        <ele>39.983</ele>
        <time>2021-06-16T20:00:42Z</time>
      </trkpt>
      <trkpt lat="36.682856" lon="-4.537598">
        <ele>38.887</ele>
        <time>2021-06-16T20:00:44Z</time>
      </trkpt>
      <trkpt lat="36.682944" lon="-4.537848">
        <ele>38.389</ele>
        <time>2021-06-16T20:00:46Z</time>
      </trkpt>
      <trkpt lat="36.683063" lon="-4.538129">
        <ele>37.206</ele>
        <time>2021-06-16T20:00:48Z</time>
      </trkpt>
      <trkpt lat="36.683124" lon="-4.538288">
        <ele>36.326</ele>
        <time>2021-06-16T20:00:49Z</time>
      </trkpt>
      <trkpt lat="36.683176" lon="-4.538457">
        <ele>35.808</ele>
        <time>2021-06-16T20:00:50Z</time>
      </trkpt>
      <trkpt lat="36.683223" lon="-4.538632">
        <ele>35.285</ele>
        <time>2021-06-16T20:00:51Z</time>
      </trkpt>
      <trkpt lat="36.683317" lon="-4.538992">
        <ele>34.534</ele>
        <time>2021-06-16T20:00:53Z</time>
      </trkpt>
      <trkpt lat="36.683361" lon="-4.53918">
        <ele>33.948</ele>
        <time>2021-06-16T20:00:54Z</time>
      </trkpt>
      <trkpt lat="36.683403" lon="-4.539368">
        <ele>33.328</ele>
        <time>2021-06-16T20:00:55Z</time>
      </trkpt>
      <trkpt lat="36.683446" lon="-4.539558">
        <ele>32.774</ele>
        <time>2021-06-16T20:00:56Z</time>
      </trkpt>
      <trkpt lat="36.683539" lon="-4.539935">
        <ele>32.236</ele>
        <time>2021-06-16T20:00:58Z</time>
      </trkpt>
      <trkpt lat="36.683586" lon="-4.540124">
        <ele>32.025</ele>
        <time>2021-06-16T20:00:59Z</time>
      </trkpt>
      <trkpt lat="36.683675" lon="-4.540503">
        <ele>31.719</ele>
        <time>2021-06-16T20:01:01Z</time>
      </trkpt>
      <trkpt lat="36.683719" lon="-4.540692">
        <ele>31.633</ele>
        <time>2021-06-16T20:01:02Z</time>
      </trkpt>
      <trkpt lat="36.683764" lon="-4.54088">
        <ele>31.423</ele>
        <time>2021-06-16T20:01:03Z</time>
      </trkpt>
      <trkpt lat="36.68381" lon="-4.54107">
        <ele>31.215</ele>
        <time>2021-06-16T20:01:04Z</time>
      </trkpt>
      <trkpt lat="36.683854" lon="-4.541261">
        <ele>30.908</ele>
        <time>2021-06-16T20:01:05Z</time>
      </trkpt>
      <trkpt lat="36.683898" lon="-4.541451">
        <ele>31.250</ele>
        <time>2021-06-16T20:01:06Z</time>
      </trkpt>
      <trkpt lat="36.683942" lon="-4.541635">
        <ele>31.299</ele>
        <time>2021-06-16T20:01:07Z</time>
      </trkpt>
      <trkpt lat="36.684033" lon="-4.541994">
        <ele>31.643</ele>
        <time>2021-06-16T20:01:09Z</time>
      </trkpt>
      <trkpt lat="36.684119" lon="-4.542359">
        <ele>32.043</ele>
        <time>2021-06-16T20:01:11Z</time>
      </trkpt>
      <trkpt lat="36.68416" lon="-4.54254">
        <ele>32.059</ele>
        <time>2021-06-16T20:01:12Z</time>
      </trkpt>
      <trkpt lat="36.684245" lon="-4.542906">
        <ele>32.411</ele>
        <time>2021-06-16T20:01:14Z</time>
      </trkpt>
      <trkpt lat="36.684288" lon="-4.543093">
        <ele>32.850</ele>
        <time>2021-06-16T20:01:15Z</time>
      </trkpt>
      <trkpt lat="36.68438" lon="-4.543466">
        <ele>33.124</ele>
        <time>2021-06-16T20:01:17Z</time>
      </trkpt>
      <trkpt lat="36.684427" lon="-4.543653">
        <ele>33.855</ele>
        <time>2021-06-16T20:01:18Z</time>
      </trkpt>
      <trkpt lat="36.684522" lon="-4.54403">
        <ele>34.907</ele>
        <time>2021-06-16T20:01:20Z</time>
      </trkpt>
      <trkpt lat="36.684624" lon="-4.544411">
        <ele>35.517</ele>
        <time>2021-06-16T20:01:22Z</time>
      </trkpt>
      <trkpt lat="36.684675" lon="-4.544604">
        <ele>35.708</ele>
        <time>2021-06-16T20:01:23Z</time>
      </trkpt>
      <trkpt lat="36.684767" lon="-4.544986">
        <ele>36.072</ele>
        <time>2021-06-16T20:01:25Z</time>
      </trkpt>
      <trkpt lat="36.684813" lon="-4.545182">
        <ele>36.071</ele>
        <time>2021-06-16T20:01:26Z</time>
      </trkpt>
      <trkpt lat="36.684858" lon="-4.545379">
        <ele>35.915</ele>
        <time>2021-06-16T20:01:27Z</time>
      </trkpt>
      <trkpt lat="36.684949" lon="-4.545769">
        <ele>35.495</ele>
        <time>2021-06-16T20:01:29Z</time>
      </trkpt>
      <trkpt lat="36.685002" lon="-4.545953">
        <ele>35.251</ele>
        <time>2021-06-16T20:01:30Z</time>
      </trkpt>
      <trkpt lat="36.685096" lon="-4.546318">
        <ele>34.743</ele>
        <time>2021-06-16T20:01:32Z</time>
      </trkpt>
      <trkpt lat="36.685186" lon="-4.546679">
        <ele>34.562</ele>
        <time>2021-06-16T20:01:34Z</time>
      </trkpt>
      <trkpt lat="36.685234" lon="-4.546865">
        <ele>33.976</ele>
        <time>2021-06-16T20:01:35Z</time>
      </trkpt>
      <trkpt lat="36.68528" lon="-4.547049">
        <ele>33.688</ele>
        <time>2021-06-16T20:01:36Z</time>
      </trkpt>
      <trkpt lat="36.68537" lon="-4.54741">
        <ele>33.024</ele>
        <time>2021-06-16T20:01:38Z</time>
      </trkpt>
      <trkpt lat="36.685415" lon="-4.54759">
        <ele>32.926</ele>
        <time>2021-06-16T20:01:39Z</time>
      </trkpt>
      <trkpt lat="36.685459" lon="-4.547767">
        <ele>32.908</ele>
        <time>2021-06-16T20:01:40Z</time>
      </trkpt>
      <trkpt lat="36.685544" lon="-4.548106">
        <ele>33.065</ele>
        <time>2021-06-16T20:01:42Z</time>
      </trkpt>
      <trkpt lat="36.685628" lon="-4.54844">
        <ele>33.184</ele>
        <time>2021-06-16T20:01:44Z</time>
      </trkpt>
      <trkpt lat="36.685706" lon="-4.548762">
        <ele>33.198</ele>
        <time>2021-06-16T20:01:46Z</time>
      </trkpt>
      <trkpt lat="36.685782" lon="-4.549072">
        <ele>33.038</ele>
        <time>2021-06-16T20:01:48Z</time>
      </trkpt>
      <trkpt lat="36.68582" lon="-4.549225">
        <ele>33.044</ele>
        <time>2021-06-16T20:01:49Z</time>
      </trkpt>
      <trkpt lat="36.685891" lon="-4.549518">
        <ele>33.176</ele>
        <time>2021-06-16T20:01:51Z</time>
      </trkpt>
      <trkpt lat="36.685924" lon="-4.549661">
        <ele>33.315</ele>
        <time>2021-06-16T20:01:52Z</time>
      </trkpt>
      <trkpt lat="36.685988" lon="-4.549942">
        <ele>33.349</ele>
        <time>2021-06-16T20:01:54Z</time>
      </trkpt>
      <trkpt lat="36.686068" lon="-4.550205">
        <ele>33.446</ele>
        <time>2021-06-16T20:01:56Z</time>
      </trkpt>
      <trkpt lat="36.686125" lon="-4.55033">
        <ele>33.488</ele>
        <time>2021-06-16T20:01:57Z</time>
      </trkpt>
      <trkpt lat="36.686255" lon="-4.550569">
        <ele>33.716</ele>
        <time>2021-06-16T20:01:59Z</time>
      </trkpt>
      <trkpt lat="36.686334" lon="-4.550683">
        <ele>34.008</ele>
        <time>2021-06-16T20:02:00Z</time>
      </trkpt>
      <trkpt lat="36.686523" lon="-4.5509">
        <ele>34.261</ele>
        <time>2021-06-16T20:02:02Z</time>
      </trkpt>
      <trkpt lat="36.686735" lon="-4.551101">
        <ele>34.890</ele>
        <time>2021-06-16T20:02:04Z</time>
      </trkpt>
      <trkpt lat="36.686971" lon="-4.551274">
        <ele>35.484</ele>
        <time>2021-06-16T20:02:06Z</time>
      </trkpt>
      <trkpt lat="36.687094" lon="-4.551357">
        <ele>35.834</ele>
        <time>2021-06-16T20:02:07Z</time>
      </trkpt>
      <trkpt lat="36.687352" lon="-4.551525">
        <ele>35.670</ele>
        <time>2021-06-16T20:02:09Z</time>
      </trkpt>
      <trkpt lat="36.687619" lon="-4.551684">
        <ele>35.822</ele>
        <time>2021-06-16T20:02:11Z</time>
      </trkpt>
      <trkpt lat="36.687758" lon="-4.551762">
        <ele>36.081</ele>
        <time>2021-06-16T20:02:12Z</time>
      </trkpt>
      <trkpt lat="36.688043" lon="-4.55192">
        <ele>37.055</ele>
        <time>2021-06-16T20:02:14Z</time>
      </trkpt>
      <trkpt lat="36.688185" lon="-4.552">
        <ele>37.399</ele>
        <time>2021-06-16T20:02:15Z</time>
      </trkpt>
      <trkpt lat="36.68833" lon="-4.552086">
        <ele>37.207</ele>
        <time>2021-06-16T20:02:16Z</time>
      </trkpt>
      <trkpt lat="36.688477" lon="-4.552179">
        <ele>36.827</ele>
        <time>2021-06-16T20:02:17Z</time>
      </trkpt>
      <trkpt lat="36.688784" lon="-4.552367">
        <ele>36.208</ele>
        <time>2021-06-16T20:02:19Z</time>
      </trkpt>
      <trkpt lat="36.689099" lon="-4.552576">
        <ele>35.946</ele>
        <time>2021-06-16T20:02:21Z</time>
      </trkpt>
      <trkpt lat="36.68941" lon="-4.552783">
        <ele>35.185</ele>
        <time>2021-06-16T20:02:23Z</time>
      </trkpt>
      <trkpt lat="36.689689" lon="-4.553012">
        <ele>34.459</ele>
        <time>2021-06-16T20:02:25Z</time>
      </trkpt>
      <trkpt lat="36.689935" lon="-4.553272">
        <ele>34.079</ele>
        <time>2021-06-16T20:02:27Z</time>
      </trkpt>
      <trkpt lat="36.690047" lon="-4.553418">
        <ele>33.875</ele>
        <time>2021-06-16T20:02:28Z</time>
      </trkpt>
      <trkpt lat="36.690255" lon="-4.553734">
        <ele>33.637</ele>
        <time>2021-06-16T20:02:30Z</time>
      </trkpt>
      <trkpt lat="36.690445" lon="-4.55407">
        <ele>33.566</ele>
        <time>2021-06-16T20:02:32Z</time>
      </trkpt>
      <trkpt lat="36.690623" lon="-4.554418">
        <ele>33.950</ele>
        <time>2021-06-16T20:02:34Z</time>
      </trkpt>
      <trkpt lat="36.690798" lon="-4.554768">
        <ele>34.393</ele>
        <time>2021-06-16T20:02:36Z</time>
      </trkpt>
      <trkpt lat="36.690979" lon="-4.555113">
        <ele>35.265</ele>
        <time>2021-06-16T20:02:38Z</time>
      </trkpt>
      <trkpt lat="36.691072" lon="-4.555284">
        <ele>35.821</ele>
        <time>2021-06-16T20:02:39Z</time>
      </trkpt>
      <trkpt lat="36.691169" lon="-4.555453">
        <ele>36.508</ele>
        <time>2021-06-16T20:02:40Z</time>
      </trkpt>
      <trkpt lat="36.691357" lon="-4.555793">
        <ele>37.916</ele>
        <time>2021-06-16T20:02:42Z</time>
      </trkpt>
      <trkpt lat="36.69145" lon="-4.555962">
        <ele>38.875</ele>
        <time>2021-06-16T20:02:43Z</time>
      </trkpt>
      <trkpt lat="36.691637" lon="-4.556284">
        <ele>39.459</ele>
        <time>2021-06-16T20:02:45Z</time>
      </trkpt>
      <trkpt lat="36.691725" lon="-4.556441">
        <ele>40.459</ele>
        <time>2021-06-16T20:02:46Z</time>
      </trkpt>
      <trkpt lat="36.691815" lon="-4.556596">
        <ele>41.455</ele>
        <time>2021-06-16T20:02:47Z</time>
      </trkpt>
      <trkpt lat="36.691996" lon="-4.556906">
        <ele>41.687</ele>
        <time>2021-06-16T20:02:49Z</time>
      </trkpt>
      <trkpt lat="36.692185" lon="-4.557221">
        <ele>42.036</ele>
        <time>2021-06-16T20:02:51Z</time>
      </trkpt>
      <trkpt lat="36.692378" lon="-4.557539">
        <ele>42.590</ele>
        <time>2021-06-16T20:02:53Z</time>
      </trkpt>
      <trkpt lat="36.69248" lon="-4.557698">
        <ele>42.889</ele>
        <time>2021-06-16T20:02:54Z</time>
      </trkpt>
      <trkpt lat="36.692582" lon="-4.557854">
        <ele>42.806</ele>
        <time>2021-06-16T20:02:55Z</time>
      </trkpt>
      <trkpt lat="36.692684" lon="-4.558009">
        <ele>42.626</ele>
        <time>2021-06-16T20:02:56Z</time>
      </trkpt>
      <trkpt lat="36.692787" lon="-4.558164">
        <ele>42.208</ele>
        <time>2021-06-16T20:02:57Z</time>
      </trkpt>
      <trkpt lat="36.692996" lon="-4.558472">
        <ele>42.115</ele>
        <time>2021-06-16T20:02:59Z</time>
      </trkpt>
      <trkpt lat="36.693201" lon="-4.558782">
        <ele>42.084</ele>
        <time>2021-06-16T20:03:01Z</time>
      </trkpt>
      <trkpt lat="36.693302" lon="-4.558941">
        <ele>41.928</ele>
        <time>2021-06-16T20:03:02Z</time>
      </trkpt>
      <trkpt lat="36.693404" lon="-4.559099">
        <ele>41.258</ele>
        <time>2021-06-16T20:03:03Z</time>
      </trkpt>
      <trkpt lat="36.693611" lon="-4.559415">
        <ele>40.524</ele>
        <time>2021-06-16T20:03:05Z</time>
      </trkpt>
      <trkpt lat="36.693715" lon="-4.559575">
        <ele>40.286</ele>
        <time>2021-06-16T20:03:06Z</time>
      </trkpt>
      <trkpt lat="36.693819" lon="-4.559734">
        <ele>39.915</ele>
        <time>2021-06-16T20:03:07Z</time>
      </trkpt>
      <trkpt lat="36.693923" lon="-4.559894">
        <ele>39.989</ele>
        <time>2021-06-16T20:03:08Z</time>
      </trkpt>
      <trkpt lat="36.694129" lon="-4.560214">
        <ele>39.558</ele>
        <time>2021-06-16T20:03:10Z</time>
      </trkpt>
      <trkpt lat="36.694333" lon="-4.560523">
        <ele>39.252</ele>
        <time>2021-06-16T20:03:12Z</time>
      </trkpt>
      <trkpt lat="36.694433" lon="-4.560674">
        <ele>39.117</ele>
        <time>2021-06-16T20:03:13Z</time>
      </trkpt>
      <trkpt lat="36.694618" lon="-4.560957">
        <ele>38.808</ele>
        <time>2021-06-16T20:03:15Z</time>
      </trkpt>
      <trkpt lat="36.694776" lon="-4.561197">
        <ele>39.032</ele>
        <time>2021-06-16T20:03:17Z</time>
      </trkpt>
      <trkpt lat="36.69492" lon="-4.561416">
        <ele>38.861</ele>
        <time>2021-06-16T20:03:19Z</time>
      </trkpt>
      <trkpt lat="36.695068" lon="-4.56164">
        <ele>39.045</ele>
        <time>2021-06-16T20:03:21Z</time>
      </trkpt>
      <trkpt lat="36.695221" lon="-4.561873">
        <ele>39.415</ele>
        <time>2021-06-16T20:03:23Z</time>
      </trkpt>
      <trkpt lat="36.695379" lon="-4.562112">
        <ele>39.851</ele>
        <time>2021-06-16T20:03:25Z</time>
      </trkpt>
      <trkpt lat="36.695459" lon="-4.562234">
        <ele>40.293</ele>
        <time>2021-06-16T20:03:26Z</time>
      </trkpt>
      <trkpt lat="36.695619" lon="-4.562482">
        <ele>40.422</ele>
        <time>2021-06-16T20:03:28Z</time>
      </trkpt>
      <trkpt lat="36.695703" lon="-4.562607">
        <ele>40.616</ele>
        <time>2021-06-16T20:03:29Z</time>
      </trkpt>
      <trkpt lat="36.695788" lon="-4.56273">
        <ele>41.126</ele>
        <time>2021-06-16T20:03:30Z</time>
      </trkpt>
      <trkpt lat="36.695871" lon="-4.562855">
        <ele>41.047</ele>
        <time>2021-06-16T20:03:31Z</time>
      </trkpt>
      <trkpt lat="36.695953" lon="-4.56298">
        <ele>41.211</ele>
        <time>2021-06-16T20:03:32Z</time>
      </trkpt>
      <trkpt lat="36.69612" lon="-4.563231">
        <ele>41.408</ele>
        <time>2021-06-16T20:03:34Z</time>
      </trkpt>
      <trkpt lat="36.696201" lon="-4.563357">
        <ele>41.539</ele>
        <time>2021-06-16T20:03:35Z</time>
      </trkpt>
      <trkpt lat="36.696359" lon="-4.563596">
        <ele>41.998</ele>
        <time>2021-06-16T20:03:37Z</time>
      </trkpt>
      <trkpt lat="36.696505" lon="-4.563832">
        <ele>41.912</ele>
        <time>2021-06-16T20:03:39Z</time>
      </trkpt>
      <trkpt lat="36.696648" lon="-4.564076">
        <ele>41.932</ele>
        <time>2021-06-16T20:03:41Z</time>
      </trkpt>
      <trkpt lat="36.696803" lon="-4.56432">
        <ele>42.718</ele>
        <time>2021-06-16T20:03:43Z</time>
      </trkpt>
      <trkpt lat="36.696971" lon="-4.564556">
        <ele>43.150</ele>
        <time>2021-06-16T20:03:45Z</time>
      </trkpt>
      <trkpt lat="36.697047" lon="-4.564681">
        <ele>43.229</ele>
        <time>2021-06-16T20:03:46Z</time>
      </trkpt>
      <trkpt lat="36.697197" lon="-4.56494">
        <ele>43.323</ele>
        <time>2021-06-16T20:03:48Z</time>
      </trkpt>
      <trkpt lat="36.697281" lon="-4.565059">
        <ele>43.683</ele>
        <time>2021-06-16T20:03:49Z</time>
      </trkpt>
      <trkpt lat="36.697437" lon="-4.565311">
        <ele>43.725</ele>
        <time>2021-06-16T20:03:51Z</time>
      </trkpt>
      <trkpt lat="36.697511" lon="-4.565437">
        <ele>43.417</ele>
        <time>2021-06-16T20:03:52Z</time>
      </trkpt>
      <trkpt lat="36.697657" lon="-4.565679">
        <ele>43.208</ele>
        <time>2021-06-16T20:03:54Z</time>
      </trkpt>
      <trkpt lat="36.697803" lon="-4.565912">
        <ele>42.985</ele>
        <time>2021-06-16T20:03:56Z</time>
      </trkpt>
      <trkpt lat="36.697875" lon="-4.566034">
        <ele>42.774</ele>
        <time>2021-06-16T20:03:57Z</time>
      </trkpt>
      <trkpt lat="36.69802" lon="-4.566276">
        <ele>42.538</ele>
        <time>2021-06-16T20:03:59Z</time>
      </trkpt>
      <trkpt lat="36.698091" lon="-4.566393">
        <ele>42.148</ele>
        <time>2021-06-16T20:04:00Z</time>
      </trkpt>
      <trkpt lat="36.698235" lon="-4.566627">
        <ele>41.574</ele>
        <time>2021-06-16T20:04:02Z</time>
      </trkpt>
      <trkpt lat="36.69838" lon="-4.566867">
        <ele>40.896</ele>
        <time>2021-06-16T20:04:04Z</time>
      </trkpt>
      <trkpt lat="36.698457" lon="-4.566989">
        <ele>40.525</ele>
        <time>2021-06-16T20:04:05Z</time>
      </trkpt>
      <trkpt lat="36.698619" lon="-4.56723">
        <ele>39.749</ele>
        <time>2021-06-16T20:04:07Z</time>
      </trkpt>
      <trkpt lat="36.698702" lon="-4.567349">
        <ele>39.415</ele>
        <time>2021-06-16T20:04:08Z</time>
      </trkpt>
      <trkpt lat="36.698788" lon="-4.567467">
        <ele>39.065</ele>
        <time>2021-06-16T20:04:09Z</time>
      </trkpt>
      <trkpt lat="36.698878" lon="-4.567575">
        <ele>38.711</ele>
        <time>2021-06-16T20:04:10Z</time>
      </trkpt>
      <trkpt lat="36.69906" lon="-4.567791">
        <ele>38.708</ele>
        <time>2021-06-16T20:04:12Z</time>
      </trkpt>
      <trkpt lat="36.699158" lon="-4.56789">
        <ele>38.528</ele>
        <time>2021-06-16T20:04:13Z</time>
      </trkpt>
      <trkpt lat="36.699259" lon="-4.56799">
        <ele>38.287</ele>
        <time>2021-06-16T20:04:14Z</time>
      </trkpt>
      <trkpt lat="36.699366" lon="-4.56809">
        <ele>37.641</ele>
        <time>2021-06-16T20:04:15Z</time>
      </trkpt>
      <trkpt lat="36.699587" lon="-4.568289">
        <ele>37.371</ele>
        <time>2021-06-16T20:04:17Z</time>
      </trkpt>
      <trkpt lat="36.699818" lon="-4.568486">
        <ele>37.147</ele>
        <time>2021-06-16T20:04:19Z</time>
      </trkpt>
      <trkpt lat="36.699938" lon="-4.568587">
        <ele>36.999</ele>
        <time>2021-06-16T20:04:20Z</time>
      </trkpt>
      <trkpt lat="36.700172" lon="-4.56879">
        <ele>36.758</ele>
        <time>2021-06-16T20:04:22Z</time>
      </trkpt>
      <trkpt lat="36.700291" lon="-4.568897">
        <ele>36.792</ele>
        <time>2021-06-16T20:04:23Z</time>
      </trkpt>
      <trkpt lat="36.700411" lon="-4.569003">
        <ele>37.135</ele>
        <time>2021-06-16T20:04:24Z</time>
      </trkpt>
      <trkpt lat="36.70053" lon="-4.569104">
        <ele>36.986</ele>
        <time>2021-06-16T20:04:25Z</time>
      </trkpt>
      <trkpt lat="36.700651" lon="-4.569202">
        <ele>36.314</ele>
        <time>2021-06-16T20:04:26Z</time>
      </trkpt>
      <trkpt lat="36.700894" lon="-4.569412">
        <ele>36.208</ele>
        <time>2021-06-16T20:04:28Z</time>
      </trkpt>
      <trkpt lat="36.701148" lon="-4.569607">
        <ele>36.280</ele>
        <time>2021-06-16T20:04:30Z</time>
      </trkpt>
      <trkpt lat="36.701274" lon="-4.569706">
        <ele>36.179</ele>
        <time>2021-06-16T20:04:31Z</time>
      </trkpt>
      <trkpt lat="36.701517" lon="-4.569923">
        <ele>37.273</ele>
        <time>2021-06-16T20:04:33Z</time>
      </trkpt>
      <trkpt lat="36.701762" lon="-4.570143">
        <ele>38.223</ele>
        <time>2021-06-16T20:04:35Z</time>
      </trkpt>
      <trkpt lat="36.70188" lon="-4.570256">
        <ele>39.099</ele>
        <time>2021-06-16T20:04:36Z</time>
      </trkpt>
      <trkpt lat="36.702117" lon="-4.570478">
        <ele>39.871</ele>
        <time>2021-06-16T20:04:38Z</time>
      </trkpt>
      <trkpt lat="36.702236" lon="-4.570592">
        <ele>40.560</ele>
        <time>2021-06-16T20:04:39Z</time>
      </trkpt>
      <trkpt lat="36.702472" lon="-4.570813">
        <ele>41.554</ele>
        <time>2021-06-16T20:04:41Z</time>
      </trkpt>
      <trkpt lat="36.702713" lon="-4.571034">
        <ele>42.537</ele>
        <time>2021-06-16T20:04:43Z</time>
      </trkpt>
      <trkpt lat="36.702833" lon="-4.571144">
        <ele>42.949</ele>
        <time>2021-06-16T20:04:44Z</time>
      </trkpt>
      <trkpt lat="36.703076" lon="-4.571355">
        <ele>43.413</ele>
        <time>2021-06-16T20:04:46Z</time>
      </trkpt>
      <trkpt lat="36.703196" lon="-4.571466">
        <ele>43.708</ele>
        <time>2021-06-16T20:04:47Z</time>
      </trkpt>
      <trkpt lat="36.703412" lon="-4.571694">
        <ele>43.980</ele>
        <time>2021-06-16T20:04:49Z</time>
      </trkpt>
      <trkpt lat="36.703519" lon="-4.571805">
        <ele>44.279</ele>
        <time>2021-06-16T20:04:50Z</time>
      </trkpt>
      <trkpt lat="36.703731" lon="-4.572026">
        <ele>44.593</ele>
        <time>2021-06-16T20:04:52Z</time>
      </trkpt>
      <trkpt lat="36.703843" lon="-4.572135">
        <ele>44.773</ele>
        <time>2021-06-16T20:04:53Z</time>
      </trkpt>
      <trkpt lat="36.703954" lon="-4.572257">
        <ele>43.939</ele>
        <time>2021-06-16T20:04:54Z</time>
      </trkpt>
      <trkpt lat="36.704178" lon="-4.572502">
        <ele>43.281</ele>
        <time>2021-06-16T20:04:56Z</time>
      </trkpt>
      <trkpt lat="36.704412" lon="-4.572745">
        <ele>42.790</ele>
        <time>2021-06-16T20:04:58Z</time>
      </trkpt>
      <trkpt lat="36.704532" lon="-4.572864">
        <ele>42.374</ele>
        <time>2021-06-16T20:04:59Z</time>
      </trkpt>
      <trkpt lat="36.70465" lon="-4.572982">
        <ele>41.858</ele>
        <time>2021-06-16T20:05:00Z</time>
      </trkpt>
      <trkpt lat="36.704882" lon="-4.573222">
        <ele>41.152</ele>
        <time>2021-06-16T20:05:02Z</time>
      </trkpt>
      <trkpt lat="36.705107" lon="-4.57346">
        <ele>40.717</ele>
        <time>2021-06-16T20:05:04Z</time>
      </trkpt>
      <trkpt lat="36.705334" lon="-4.573703">
        <ele>40.208</ele>
        <time>2021-06-16T20:05:06Z</time>
      </trkpt>
      <trkpt lat="36.705554" lon="-4.57394">
        <ele>39.732</ele>
        <time>2021-06-16T20:05:08Z</time>
      </trkpt>
      <trkpt lat="36.705778" lon="-4.574142">
        <ele>40.271</ele>
        <time>2021-06-16T20:05:10Z</time>
      </trkpt>
      <trkpt lat="36.706007" lon="-4.574353">
        <ele>40.355</ele>
        <time>2021-06-16T20:05:12Z</time>
      </trkpt>
      <trkpt lat="36.706124" lon="-4.574453">
        <ele>39.925</ele>
        <time>2021-06-16T20:05:13Z</time>
      </trkpt>
      <trkpt lat="36.706366" lon="-4.574628">
        <ele>39.751</ele>
        <time>2021-06-16T20:05:15Z</time>
      </trkpt>
      <trkpt lat="36.706609" lon="-4.574785">
        <ele>39.483</ele>
        <time>2021-06-16T20:05:17Z</time>
      </trkpt>
      <trkpt lat="36.706733" lon="-4.574856">
        <ele>39.382</ele>
        <time>2021-06-16T20:05:18Z</time>
      </trkpt>
      <trkpt lat="36.706986" lon="-4.574991">
        <ele>39.636</ele>
        <time>2021-06-16T20:05:20Z</time>
      </trkpt>
      <trkpt lat="36.707236" lon="-4.575134">
        <ele>39.918</ele>
        <time>2021-06-16T20:05:22Z</time>
      </trkpt>
      <trkpt lat="36.707495" lon="-4.575275">
        <ele>41.098</ele>
        <time>2021-06-16T20:05:24Z</time>
      </trkpt>
      <trkpt lat="36.707627" lon="-4.575351">
        <ele>41.117</ele>
        <time>2021-06-16T20:05:25Z</time>
      </trkpt>
      <trkpt lat="36.707761" lon="-4.575427">
        <ele>41.508</ele>
        <time>2021-06-16T20:05:26Z</time>
      </trkpt>
      <trkpt lat="36.708033" lon="-4.575583">
        <ele>42.388</ele>
        <time>2021-06-16T20:05:28Z</time>
      </trkpt>
      <trkpt lat="36.708305" lon="-4.575725">
        <ele>43.347</ele>
        <time>2021-06-16T20:05:30Z</time>
      </trkpt>
      <trkpt lat="36.70857" lon="-4.575885">
        <ele>43.461</ele>
        <time>2021-06-16T20:05:32Z</time>
      </trkpt>
      <trkpt lat="36.708705" lon="-4.575978">
        <ele>43.841</ele>
        <time>2021-06-16T20:05:33Z</time>
      </trkpt>
      <trkpt lat="36.708958" lon="-4.576199">
        <ele>44.217</ele>
        <time>2021-06-16T20:05:35Z</time>
      </trkpt>
      <trkpt lat="36.709074" lon="-4.576331">
        <ele>44.619</ele>
        <time>2021-06-16T20:05:36Z</time>
      </trkpt>
      <trkpt lat="36.709281" lon="-4.576616">
        <ele>45.088</ele>
        <time>2021-06-16T20:05:38Z</time>
      </trkpt>
      <trkpt lat="36.709371" lon="-4.576767">
        <ele>45.312</ele>
        <time>2021-06-16T20:05:39Z</time>
      </trkpt>
      <trkpt lat="36.70953" lon="-4.577089">
        <ele>45.219</ele>
        <time>2021-06-16T20:05:41Z</time>
      </trkpt>
      <trkpt lat="36.709608" lon="-4.577266">
        <ele>45.009</ele>
        <time>2021-06-16T20:05:42Z</time>
      </trkpt>
      <trkpt lat="36.709785" lon="-4.577598">
        <ele>44.919</ele>
        <time>2021-06-16T20:05:44Z</time>
      </trkpt>
      <trkpt lat="36.709889" lon="-4.577757">
        <ele>44.908</ele>
        <time>2021-06-16T20:05:45Z</time>
      </trkpt>
      <trkpt lat="36.709997" lon="-4.577908">
        <ele>44.878</ele>
        <time>2021-06-16T20:05:46Z</time>
      </trkpt>
      <trkpt lat="36.710241" lon="-4.578175">
        <ele>45.147</ele>
        <time>2021-06-16T20:05:48Z</time>
      </trkpt>
      <trkpt lat="36.710371" lon="-4.578295">
        <ele>45.131</ele>
        <time>2021-06-16T20:05:49Z</time>
      </trkpt>
      <trkpt lat="36.7105" lon="-4.578404">
        <ele>45.381</ele>
        <time>2021-06-16T20:05:50Z</time>
      </trkpt>
      <trkpt lat="36.710774" lon="-4.578576">
        <ele>45.767</ele>
        <time>2021-06-16T20:05:52Z</time>
      </trkpt>
      <trkpt lat="36.710916" lon="-4.578658">
        <ele>45.629</ele>
        <time>2021-06-16T20:05:53Z</time>
      </trkpt>
      <trkpt lat="36.711055" lon="-4.578735">
        <ele>45.758</ele>
        <time>2021-06-16T20:05:54Z</time>
      </trkpt>
      <trkpt lat="36.711328" lon="-4.578876">
        <ele>45.922</ele>
        <time>2021-06-16T20:05:56Z</time>
      </trkpt>
      <trkpt lat="36.711466" lon="-4.578943">
        <ele>46.223</ele>
        <time>2021-06-16T20:05:57Z</time>
      </trkpt>
      <trkpt lat="36.711739" lon="-4.579079">
        <ele>47.283</ele>
        <time>2021-06-16T20:05:59Z</time>
      </trkpt>
      <trkpt lat="36.712013" lon="-4.579229">
        <ele>47.811</ele>
        <time>2021-06-16T20:06:01Z</time>
      </trkpt>
      <trkpt lat="36.712148" lon="-4.579313">
        <ele>48.108</ele>
        <time>2021-06-16T20:06:02Z</time>
      </trkpt>
      <trkpt lat="36.71241" lon="-4.579504">
        <ele>48.479</ele>
        <time>2021-06-16T20:06:04Z</time>
      </trkpt>
      <trkpt lat="36.712644" lon="-4.579784">
        <ele>49.078</ele>
        <time>2021-06-16T20:06:06Z</time>
      </trkpt>
      <trkpt lat="36.712745" lon="-4.579938">
        <ele>48.692</ele>
        <time>2021-06-16T20:06:07Z</time>
      </trkpt>
      <trkpt lat="36.712918" lon="-4.580272">
        <ele>48.112</ele>
        <time>2021-06-16T20:06:09Z</time>
      </trkpt>
      <trkpt lat="36.713063" lon="-4.580645">
        <ele>47.098</ele>
        <time>2021-06-16T20:06:11Z</time>
      </trkpt>
      <trkpt lat="36.713134" lon="-4.580837">
        <ele>46.240</ele>
        <time>2021-06-16T20:06:12Z</time>
      </trkpt>
      <trkpt lat="36.713203" lon="-4.581035">
        <ele>45.389</ele>
        <time>2021-06-16T20:06:13Z</time>
      </trkpt>
      <trkpt lat="36.713273" lon="-4.581228">
        <ele>44.643</ele>
        <time>2021-06-16T20:06:14Z</time>
      </trkpt>
      <trkpt lat="36.713344" lon="-4.58142">
        <ele>43.546</ele>
        <time>2021-06-16T20:06:15Z</time>
      </trkpt>
      <trkpt lat="36.713423" lon="-4.581606">
        <ele>43.088</ele>
        <time>2021-06-16T20:06:16Z</time>
      </trkpt>
      <trkpt lat="36.713567" lon="-4.581985">
        <ele>42.316</ele>
        <time>2021-06-16T20:06:18Z</time>
      </trkpt>
      <trkpt lat="36.713706" lon="-4.582351">
        <ele>41.708</ele>
        <time>2021-06-16T20:06:20Z</time>
      </trkpt>
      <trkpt lat="36.713775" lon="-4.582529">
        <ele>41.031</ele>
        <time>2021-06-16T20:06:21Z</time>
      </trkpt>
      <trkpt lat="36.713905" lon="-4.582873">
        <ele>40.690</ele>
        <time>2021-06-16T20:06:23Z</time>
      </trkpt>
      <trkpt lat="36.714028" lon="-4.583199">
        <ele>40.164</ele>
        <time>2021-06-16T20:06:25Z</time>
      </trkpt>
      <trkpt lat="36.714143" lon="-4.583515">
        <ele>39.964</ele>
        <time>2021-06-16T20:06:27Z</time>
      </trkpt>
      <trkpt lat="36.714254" lon="-4.583814">
        <ele>40.080</ele>
        <time>2021-06-16T20:06:29Z</time>
      </trkpt>
      <trkpt lat="36.714308" lon="-4.583962">
        <ele>39.732</ele>
        <time>2021-06-16T20:06:30Z</time>
      </trkpt>
      <trkpt lat="36.714423" lon="-4.584267">
        <ele>39.371</ele>
        <time>2021-06-16T20:06:32Z</time>
      </trkpt>
      <trkpt lat="36.714548" lon="-4.584593">
        <ele>38.965</ele>
        <time>2021-06-16T20:06:34Z</time>
      </trkpt>
      <trkpt lat="36.714615" lon="-4.584762">
        <ele>38.597</ele>
        <time>2021-06-16T20:06:35Z</time>
      </trkpt>
      <trkpt lat="36.714688" lon="-4.584933">
        <ele>38.223</ele>
        <time>2021-06-16T20:06:36Z</time>
      </trkpt>
      <trkpt lat="36.714854" lon="-4.585277">
        <ele>37.525</ele>
        <time>2021-06-16T20:06:38Z</time>
      </trkpt>
      <trkpt lat="36.715035" lon="-4.585617">
        <ele>36.808</ele>
        <time>2021-06-16T20:06:40Z</time>
      </trkpt>
      <trkpt lat="36.715228" lon="-4.585948">
        <ele>36.366</ele>
        <time>2021-06-16T20:06:42Z</time>
      </trkpt>
      <trkpt lat="36.715327" lon="-4.586112">
        <ele>35.965</ele>
        <time>2021-06-16T20:06:43Z</time>
      </trkpt>
      <trkpt lat="36.715527" lon="-4.586435">
        <ele>35.939</ele>
        <time>2021-06-16T20:06:45Z</time>
      </trkpt>
      <trkpt lat="36.715627" lon="-4.586592">
        <ele>35.769</ele>
        <time>2021-06-16T20:06:46Z</time>
      </trkpt>
      <trkpt lat="36.715726" lon="-4.586749">
        <ele>35.715</ele>
        <time>2021-06-16T20:06:47Z</time>
      </trkpt>
      <trkpt lat="36.715822" lon="-4.586907">
        <ele>36.057</ele>
        <time>2021-06-16T20:06:48Z</time>
      </trkpt>
      <trkpt lat="36.716013" lon="-4.587221">
        <ele>35.876</ele>
        <time>2021-06-16T20:06:50Z</time>
      </trkpt>
      <trkpt lat="36.716109" lon="-4.587378">
        <ele>35.550</ele>
        <time>2021-06-16T20:06:51Z</time>
      </trkpt>
      <trkpt lat="36.7163" lon="-4.587691">
        <ele>35.289</ele>
        <time>2021-06-16T20:06:53Z</time>
      </trkpt>
      <trkpt lat="36.716486" lon="-4.587999">
        <ele>34.906</ele>
        <time>2021-06-16T20:06:55Z</time>
      </trkpt>
      <trkpt lat="36.716662" lon="-4.588298">
        <ele>34.226</ele>
        <time>2021-06-16T20:06:57Z</time>
      </trkpt>
      <trkpt lat="36.716747" lon="-4.588442">
        <ele>34.108</ele>
        <time>2021-06-16T20:06:58Z</time>
      </trkpt>
      <trkpt lat="36.716917" lon="-4.588714">
        <ele>33.985</ele>
        <time>2021-06-16T20:07:00Z</time>
      </trkpt>
      <trkpt lat="36.717095" lon="-4.58896">
        <ele>33.874</ele>
        <time>2021-06-16T20:07:02Z</time>
      </trkpt>
      <trkpt lat="36.717282" lon="-4.589174">
        <ele>33.788</ele>
        <time>2021-06-16T20:07:04Z</time>
      </trkpt>
      <trkpt lat="36.717379" lon="-4.589265">
        <ele>33.798</ele>
        <time>2021-06-16T20:07:05Z</time>
      </trkpt>
      <trkpt lat="36.717576" lon="-4.5894">
        <ele>33.664</ele>
        <time>2021-06-16T20:07:07Z</time>
      </trkpt>
      <trkpt lat="36.717762" lon="-4.589454">
        <ele>33.776</ele>
        <time>2021-06-16T20:07:09Z</time>
      </trkpt>
      <trkpt lat="36.717854" lon="-4.589461">
        <ele>33.675</ele>
        <time>2021-06-16T20:07:10Z</time>
      </trkpt>
      <trkpt lat="36.718027" lon="-4.589505">
        <ele>33.999</ele>
        <time>2021-06-16T20:07:12Z</time>
      </trkpt>
      <trkpt lat="36.718096" lon="-4.589566">
        <ele>34.234</ele>
        <time>2021-06-16T20:07:13Z</time>
      </trkpt>
      <trkpt lat="36.718222" lon="-4.589728">
        <ele>34.555</ele>
        <time>2021-06-16T20:07:15Z</time>
      </trkpt>
      <trkpt lat="36.718388" lon="-4.589898">
        <ele>34.610</ele>
        <time>2021-06-16T20:07:17Z</time>
      </trkpt>
      <trkpt lat="36.718591" lon="-4.590059">
        <ele>35.408</ele>
        <time>2021-06-16T20:07:19Z</time>
      </trkpt>
      <trkpt lat="36.718696" lon="-4.590139">
        <ele>35.430</ele>
        <time>2021-06-16T20:07:20Z</time>
      </trkpt>
      <trkpt lat="36.718808" lon="-4.59023">
        <ele>35.599</ele>
        <time>2021-06-16T20:07:21Z</time>
      </trkpt>
      <trkpt lat="36.719002" lon="-4.590453">
        <ele>35.733</ele>
        <time>2021-06-16T20:07:23Z</time>
      </trkpt>
      <trkpt lat="36.719151" lon="-4.590727">
        <ele>35.783</ele>
        <time>2021-06-16T20:07:25Z</time>
      </trkpt>
      <trkpt lat="36.719213" lon="-4.590871">
        <ele>36.149</ele>
        <time>2021-06-16T20:07:26Z</time>
      </trkpt>
      <trkpt lat="36.719312" lon="-4.591165">
        <ele>36.661</ele>
        <time>2021-06-16T20:07:28Z</time>
      </trkpt>
      <trkpt lat="36.719341" lon="-4.591323">
        <ele>37.150</ele>
        <time>2021-06-16T20:07:29Z</time>
      </trkpt>
      <trkpt lat="36.719392" lon="-4.591621">
        <ele>38.134</ele>
        <time>2021-06-16T20:07:31Z</time>
      </trkpt>
      <trkpt lat="36.719421" lon="-4.591759">
        <ele>38.935</ele>
        <time>2021-06-16T20:07:32Z</time>
      </trkpt>
      <trkpt lat="36.719494" lon="-4.592001">
        <ele>39.486</ele>
        <time>2021-06-16T20:07:34Z</time>
      </trkpt>
      <trkpt lat="36.719541" lon="-4.592105">
        <ele>39.914</ele>
        <time>2021-06-16T20:07:35Z</time>
      </trkpt>
      <trkpt lat="36.719594" lon="-4.592197">
        <ele>39.908</ele>
        <time>2021-06-16T20:07:36Z</time>
      </trkpt>
      <trkpt lat="36.71964" lon="-4.592288">
        <ele>40.060</ele>
        <time>2021-06-16T20:07:37Z</time>
      </trkpt>
      <trkpt lat="36.719674" lon="-4.592479">
        <ele>40.289</ele>
        <time>2021-06-16T20:07:39Z</time>
      </trkpt>
      <trkpt lat="36.719636" lon="-4.592657">
        <ele>40.333</ele>
        <time>2021-06-16T20:07:41Z</time>
      </trkpt>
      <trkpt lat="36.719621" lon="-4.592862">
        <ele>40.233</ele>
        <time>2021-06-16T20:07:43Z</time>
      </trkpt>
      <trkpt lat="36.71965" lon="-4.593119">
        <ele>40.499</ele>
        <time>2021-06-16T20:07:45Z</time>
      </trkpt>
      <trkpt lat="36.719699" lon="-4.593395">
        <ele>40.911</ele>
        <time>2021-06-16T20:07:47Z</time>
      </trkpt>
      <trkpt lat="36.719768" lon="-4.593701">
        <ele>41.730</ele>
        <time>2021-06-16T20:07:49Z</time>
      </trkpt>
      <trkpt lat="36.719838" lon="-4.594019">
        <ele>42.334</ele>
        <time>2021-06-16T20:07:51Z</time>
      </trkpt>
      <trkpt lat="36.719883" lon="-4.594348">
        <ele>43.562</ele>
        <time>2021-06-16T20:07:53Z</time>
      </trkpt>
      <trkpt lat="36.719891" lon="-4.59452">
        <ele>44.283</ele>
        <time>2021-06-16T20:07:54Z</time>
      </trkpt>
      <trkpt lat="36.719881" lon="-4.594864">
        <ele>45.211</ele>
        <time>2021-06-16T20:07:56Z</time>
      </trkpt>
      <trkpt lat="36.719866" lon="-4.595039">
        <ele>45.808</ele>
        <time>2021-06-16T20:07:57Z</time>
      </trkpt>
      <trkpt lat="36.719844" lon="-4.595215">
        <ele>46.783</ele>
        <time>2021-06-16T20:07:58Z</time>
      </trkpt>
      <trkpt lat="36.719798" lon="-4.595576">
        <ele>47.492</ele>
        <time>2021-06-16T20:08:00Z</time>
      </trkpt>
      <trkpt lat="36.719772" lon="-4.595762">
        <ele>48.096</ele>
        <time>2021-06-16T20:08:01Z</time>
      </trkpt>
      <trkpt lat="36.719746" lon="-4.595948">
        <ele>48.756</ele>
        <time>2021-06-16T20:08:02Z</time>
      </trkpt>
      <trkpt lat="36.719704" lon="-4.596326">
        <ele>48.682</ele>
        <time>2021-06-16T20:08:04Z</time>
      </trkpt>
      <trkpt lat="36.719683" lon="-4.596706">
        <ele>48.424</ele>
        <time>2021-06-16T20:08:06Z</time>
      </trkpt>
      <trkpt lat="36.719676" lon="-4.596897">
        <ele>48.493</ele>
        <time>2021-06-16T20:08:07Z</time>
      </trkpt>
      <trkpt lat="36.719668" lon="-4.597093">
        <ele>48.697</ele>
        <time>2021-06-16T20:08:08Z</time>
      </trkpt>
      <trkpt lat="36.719654" lon="-4.597485">
        <ele>48.059</ele>
        <time>2021-06-16T20:08:10Z</time>
      </trkpt>
      <trkpt lat="36.719647" lon="-4.597681">
        <ele>48.103</ele>
        <time>2021-06-16T20:08:11Z</time>
      </trkpt>
      <trkpt lat="36.719649" lon="-4.598078">
        <ele>47.923</ele>
        <time>2021-06-16T20:08:13Z</time>
      </trkpt>
      <trkpt lat="36.719649" lon="-4.598275">
        <ele>47.608</ele>
        <time>2021-06-16T20:08:14Z</time>
      </trkpt>
      <trkpt lat="36.719641" lon="-4.598665">
        <ele>47.612</ele>
        <time>2021-06-16T20:08:16Z</time>
      </trkpt>
      <trkpt lat="36.719631" lon="-4.59905">
        <ele>47.541</ele>
        <time>2021-06-16T20:08:18Z</time>
      </trkpt>
      <trkpt lat="36.719622" lon="-4.599243">
        <ele>47.525</ele>
        <time>2021-06-16T20:08:19Z</time>
      </trkpt>
      <trkpt lat="36.719608" lon="-4.599624">
        <ele>47.935</ele>
        <time>2021-06-16T20:08:21Z</time>
      </trkpt>
      <trkpt lat="36.719609" lon="-4.599815">
        <ele>48.321</ele>
        <time>2021-06-16T20:08:22Z</time>
      </trkpt>
      <trkpt lat="36.719615" lon="-4.600004">
        <ele>48.223</ele>
        <time>2021-06-16T20:08:23Z</time>
      </trkpt>
      <trkpt lat="36.719627" lon="-4.600193">
        <ele>48.662</ele>
        <time>2021-06-16T20:08:24Z</time>
      </trkpt>
      <trkpt lat="36.719678" lon="-4.60057">
        <ele>49.026</ele>
        <time>2021-06-16T20:08:26Z</time>
      </trkpt>
      <trkpt lat="36.719743" lon="-4.600949">
        <ele>49.393</ele>
        <time>2021-06-16T20:08:28Z</time>
      </trkpt>
      <trkpt lat="36.719812" lon="-4.601326">
        <ele>50.265</ele>
        <time>2021-06-16T20:08:30Z</time>
      </trkpt>
      <trkpt lat="36.719849" lon="-4.601515">
        <ele>51.021</ele>
        <time>2021-06-16T20:08:31Z</time>
      </trkpt>
      <trkpt lat="36.719886" lon="-4.601705">
        <ele>51.708</ele>
        <time>2021-06-16T20:08:32Z</time>
      </trkpt>
      <trkpt lat="36.719961" lon="-4.602089">
        <ele>52.366</ele>
        <time>2021-06-16T20:08:34Z</time>
      </trkpt>
      <trkpt lat="36.720001" lon="-4.602281">
        <ele>52.585</ele>
        <time>2021-06-16T20:08:35Z</time>
      </trkpt>
      <trkpt lat="36.720083" lon="-4.602668">
        <ele>53.299</ele>
        <time>2021-06-16T20:08:37Z</time>
      </trkpt>
      <trkpt lat="36.720172" lon="-4.603053">
        <ele>54.249</ele>
        <time>2021-06-16T20:08:39Z</time>
      </trkpt>
      <trkpt lat="36.720249" lon="-4.603423">
        <ele>55.135</ele>
        <time>2021-06-16T20:08:41Z</time>
      </trkpt>
      <trkpt lat="36.720308" lon="-4.603729">
        <ele>56.437</ele>
        <time>2021-06-16T20:08:43Z</time>
      </trkpt>
      <trkpt lat="36.720333" lon="-4.603866">
        <ele>56.736</ele>
        <time>2021-06-16T20:08:44Z</time>
      </trkpt>
      <trkpt lat="36.72038" lon="-4.604113">
        <ele>57.830</ele>
        <time>2021-06-16T20:08:46Z</time>
      </trkpt>
      <trkpt lat="36.720401" lon="-4.604224">
        <ele>58.847</ele>
        <time>2021-06-16T20:08:47Z</time>
      </trkpt>
      <trkpt lat="36.720419" lon="-4.604323">
        <ele>59.629</ele>
        <time>2021-06-16T20:08:48Z</time>
      </trkpt>
      <trkpt lat="36.720434" lon="-4.604415">
        <ele>60.321</ele>
        <time>2021-06-16T20:08:49Z</time>
      </trkpt>
      <trkpt lat="36.720461" lon="-4.604591">
        <ele>61.508</ele>
        <time>2021-06-16T20:08:51Z</time>
      </trkpt>
      <trkpt lat="36.720479" lon="-4.604693">
        <ele>62.351</ele>
        <time>2021-06-16T20:08:52Z</time>
      </trkpt>
      <trkpt lat="36.720523" lon="-4.604927">
        <ele>63.070</ele>
        <time>2021-06-16T20:08:54Z</time>
      </trkpt>
      <trkpt lat="36.720572" lon="-4.605193">
        <ele>63.764</ele>
        <time>2021-06-16T20:08:56Z</time>
      </trkpt>
      <trkpt lat="36.720626" lon="-4.605488">
        <ele>64.364</ele>
        <time>2021-06-16T20:08:58Z</time>
      </trkpt>
      <trkpt lat="36.720651" lon="-4.605644">
        <ele>65.270</ele>
        <time>2021-06-16T20:08:59Z</time>
      </trkpt>
      <trkpt lat="36.720704" lon="-4.605967">
        <ele>65.982</ele>
        <time>2021-06-16T20:09:01Z</time>
      </trkpt>
      <trkpt lat="36.720728" lon="-4.606139">
        <ele>67.051</ele>
        <time>2021-06-16T20:09:02Z</time>
      </trkpt>
      <trkpt lat="36.720761" lon="-4.606498">
        <ele>68.275</ele>
        <time>2021-06-16T20:09:04Z</time>
      </trkpt>
      <trkpt lat="36.720784" lon="-4.606868">
        <ele>69.958</ele>
        <time>2021-06-16T20:09:06Z</time>
      </trkpt>
      <trkpt lat="36.720784" lon="-4.607249">
        <ele>71.552</ele>
        <time>2021-06-16T20:09:08Z</time>
      </trkpt>
      <trkpt lat="36.720775" lon="-4.607618">
        <ele>72.517</ele>
        <time>2021-06-16T20:09:10Z</time>
      </trkpt>
      <trkpt lat="36.720771" lon="-4.607801">
        <ele>73.108</ele>
        <time>2021-06-16T20:09:11Z</time>
      </trkpt>
      <trkpt lat="36.720756" lon="-4.60815">
        <ele>73.852</ele>
        <time>2021-06-16T20:09:13Z</time>
      </trkpt>
      <trkpt lat="36.720748" lon="-4.608316">
        <ele>73.821</ele>
        <time>2021-06-16T20:09:14Z</time>
      </trkpt>
      <trkpt lat="36.720738" lon="-4.608625">
        <ele>73.735</ele>
        <time>2021-06-16T20:09:16Z</time>
      </trkpt>
      <trkpt lat="36.720775" lon="-4.608892">
        <ele>73.585</ele>
        <time>2021-06-16T20:09:18Z</time>
      </trkpt>
      <trkpt lat="36.720812" lon="-4.609017">
        <ele>73.681</ele>
        <time>2021-06-16T20:09:19Z</time>
      </trkpt>
      <trkpt lat="36.720871" lon="-4.609271">
        <ele>73.363</ele>
        <time>2021-06-16T20:09:21Z</time>
      </trkpt>
      <trkpt lat="36.720902" lon="-4.609396">
        <ele>73.142</ele>
        <time>2021-06-16T20:09:22Z</time>
      </trkpt>
      <trkpt lat="36.721021" lon="-4.609615">
        <ele>72.646</ele>
        <time>2021-06-16T20:09:24Z</time>
      </trkpt>
      <trkpt lat="36.721104" lon="-4.609704">
        <ele>72.263</ele>
        <time>2021-06-16T20:09:25Z</time>
      </trkpt>
      <trkpt lat="36.721295" lon="-4.609833">
        <ele>71.644</ele>
        <time>2021-06-16T20:09:27Z</time>
      </trkpt>
      <trkpt lat="36.721502" lon="-4.609918">
        <ele>71.018</ele>
        <time>2021-06-16T20:09:29Z</time>
      </trkpt>
      <trkpt lat="36.721705" lon="-4.609944">
        <ele>70.508</ele>
        <time>2021-06-16T20:09:31Z</time>
      </trkpt>
      <trkpt lat="36.721883" lon="-4.609963">
        <ele>69.773</ele>
        <time>2021-06-16T20:09:33Z</time>
      </trkpt>
      <trkpt lat="36.722056" lon="-4.609977">
        <ele>68.922</ele>
        <time>2021-06-16T20:09:35Z</time>
      </trkpt>
      <trkpt lat="36.722143" lon="-4.60998">
        <ele>68.846</ele>
        <time>2021-06-16T20:09:36Z</time>
      </trkpt>
      <trkpt lat="36.722231" lon="-4.609986">
        <ele>68.226</ele>
        <time>2021-06-16T20:09:37Z</time>
      </trkpt>
      <trkpt lat="36.722398" lon="-4.610001">
        <ele>67.582</ele>
        <time>2021-06-16T20:09:39Z</time>
      </trkpt>
      <trkpt lat="36.722561" lon="-4.610023">
        <ele>66.864</ele>
        <time>2021-06-16T20:09:41Z</time>
      </trkpt>
      <trkpt lat="36.722731" lon="-4.610058">
        <ele>65.953</ele>
        <time>2021-06-16T20:09:43Z</time>
      </trkpt>
      <trkpt lat="36.72282" lon="-4.610088">
        <ele>65.337</ele>
        <time>2021-06-16T20:09:44Z</time>
      </trkpt>
      <trkpt lat="36.72291" lon="-4.610128">
        <ele>64.559</ele>
        <time>2021-06-16T20:09:45Z</time>
      </trkpt>
      <trkpt lat="36.723076" lon="-4.610239">
        <ele>63.703</ele>
        <time>2021-06-16T20:09:47Z</time>
      </trkpt>
      <trkpt lat="36.723152" lon="-4.610312">
        <ele>63.223</ele>
        <time>2021-06-16T20:09:48Z</time>
      </trkpt>
      <trkpt lat="36.723222" lon="-4.610397">
        <ele>62.508</ele>
        <time>2021-06-16T20:09:49Z</time>
      </trkpt>
      <trkpt lat="36.723342" lon="-4.610611">
        <ele>61.222</ele>
        <time>2021-06-16T20:09:51Z</time>
      </trkpt>
      <trkpt lat="36.72342" lon="-4.610865">
        <ele>60.081</ele>
        <time>2021-06-16T20:09:53Z</time>
      </trkpt>
      <trkpt lat="36.723436" lon="-4.611006">
        <ele>59.115</ele>
        <time>2021-06-16T20:09:54Z</time>
      </trkpt>
      <trkpt lat="36.723433" lon="-4.611291">
        <ele>58.165</ele>
        <time>2021-06-16T20:09:56Z</time>
      </trkpt>
      <trkpt lat="36.723388" lon="-4.611566">
        <ele>56.811</ele>
        <time>2021-06-16T20:09:58Z</time>
      </trkpt>
      <trkpt lat="36.723356" lon="-4.611706">
        <ele>56.213</ele>
        <time>2021-06-16T20:09:59Z</time>
      </trkpt>
      <trkpt lat="36.723321" lon="-4.611849">
        <ele>55.722</ele>
        <time>2021-06-16T20:10:00Z</time>
      </trkpt>
      <trkpt lat="36.723287" lon="-4.611994">
        <ele>55.386</ele>
        <time>2021-06-16T20:10:01Z</time>
      </trkpt>
      <trkpt lat="36.723249" lon="-4.612142">
        <ele>55.515</ele>
        <time>2021-06-16T20:10:02Z</time>
      </trkpt>
      <trkpt lat="36.723181" lon="-4.612435">
        <ele>55.265</ele>
        <time>2021-06-16T20:10:04Z</time>
      </trkpt>
      <trkpt lat="36.723154" lon="-4.612588">
        <ele>55.211</ele>
        <time>2021-06-16T20:10:05Z</time>
      </trkpt>
      <trkpt lat="36.723128" lon="-4.612746">
        <ele>55.408</ele>
        <time>2021-06-16T20:10:06Z</time>
      </trkpt>
      <trkpt lat="36.723066" lon="-4.613065">
        <ele>54.898</ele>
        <time>2021-06-16T20:10:08Z</time>
      </trkpt>
      <trkpt lat="36.723015" lon="-4.613355">
        <ele>53.257</ele>
        <time>2021-06-16T20:10:10Z</time>
      </trkpt>
      <trkpt lat="36.72299" lon="-4.613494">
        <ele>51.981</ele>
        <time>2021-06-16T20:10:11Z</time>
      </trkpt>
      <trkpt lat="36.722958" lon="-4.613765">
        <ele>50.761</ele>
        <time>2021-06-16T20:10:13Z</time>
      </trkpt>
      <trkpt lat="36.722934" lon="-4.614014">
        <ele>49.237</ele>
        <time>2021-06-16T20:10:15Z</time>
      </trkpt>
      <trkpt lat="36.722926" lon="-4.614127">
        <ele>48.089</ele>
        <time>2021-06-16T20:10:16Z</time>
      </trkpt>
      <trkpt lat="36.722907" lon="-4.614351">
        <ele>47.098</ele>
        <time>2021-06-16T20:10:18Z</time>
      </trkpt>
      <trkpt lat="36.722884" lon="-4.614549">
        <ele>47.092</ele>
        <time>2021-06-16T20:10:20Z</time>
      </trkpt>
      <trkpt lat="36.722872" lon="-4.614631">
        <ele>46.728</ele>
        <time>2021-06-16T20:10:21Z</time>
      </trkpt>
      <trkpt lat="36.722866" lon="-4.614789">
        <ele>46.689</ele>
        <time>2021-06-16T20:10:23Z</time>
      </trkpt>
      <trkpt lat="36.722892" lon="-4.6149">
        <ele>46.217</ele>
        <time>2021-06-16T20:10:25Z</time>
      </trkpt>
      <trkpt lat="36.722933" lon="-4.614954">
        <ele>48.008</ele>
        <time>2021-06-16T20:10:41Z</time>
      </trkpt>
      <trkpt lat="36.722988" lon="-4.615091">
        <ele>49.159</ele>
        <time>2021-06-16T20:10:43Z</time>
      </trkpt>
      <trkpt lat="36.722982" lon="-4.615298">
        <ele>49.898</ele>
        <time>2021-06-16T20:10:45Z</time>
      </trkpt>
      <trkpt lat="36.722936" lon="-4.615383">
        <ele>50.292</ele>
        <time>2021-06-16T20:10:46Z</time>
      </trkpt>
      <trkpt lat="36.722797" lon="-4.615447">
        <ele>50.462</ele>
        <time>2021-06-16T20:10:48Z</time>
      </trkpt>
      <trkpt lat="36.722718" lon="-4.615431">
        <ele>50.538</ele>
        <time>2021-06-16T20:10:49Z</time>
      </trkpt>
      <trkpt lat="36.722553" lon="-4.615389">
        <ele>50.620</ele>
        <time>2021-06-16T20:10:51Z</time>
      </trkpt>
      <trkpt lat="36.72247" lon="-4.615405">
        <ele>50.619</ele>
        <time>2021-06-16T20:10:52Z</time>
      </trkpt>
      <trkpt lat="36.72233" lon="-4.615523">
        <ele>50.693</ele>
        <time>2021-06-16T20:10:54Z</time>
      </trkpt>
      <trkpt lat="36.722195" lon="-4.615689">
        <ele>50.654</ele>
        <time>2021-06-16T20:10:56Z</time>
      </trkpt>
      <trkpt lat="36.722124" lon="-4.615778">
        <ele>50.656</ele>
        <time>2021-06-16T20:10:57Z</time>
      </trkpt>
      <trkpt lat="36.721974" lon="-4.61597">
        <ele>50.611</ele>
        <time>2021-06-16T20:10:59Z</time>
      </trkpt>
      <trkpt lat="36.721896" lon="-4.616071">
        <ele>50.608</ele>
        <time>2021-06-16T20:11:00Z</time>
      </trkpt>
      <trkpt lat="36.721734" lon="-4.616267">
        <ele>50.612</ele>
        <time>2021-06-16T20:11:02Z</time>
      </trkpt>
      <trkpt lat="36.721577" lon="-4.616458">
        <ele>50.661</ele>
        <time>2021-06-16T20:11:04Z</time>
      </trkpt>
      <trkpt lat="36.721445" lon="-4.616626">
        <ele>50.645</ele>
        <time>2021-06-16T20:11:06Z</time>
      </trkpt>
      <trkpt lat="36.721395" lon="-4.616718">
        <ele>50.645</ele>
        <time>2021-06-16T20:11:07Z</time>
      </trkpt>
      <trkpt lat="36.721338" lon="-4.616922">
        <ele>50.681</ele>
        <time>2021-06-16T20:11:09Z</time>
      </trkpt>
      <trkpt lat="36.721294" lon="-4.617008">
        <ele>50.623</ele>
        <time>2021-06-16T20:11:10Z</time>
      </trkpt>
      <trkpt lat="36.72116" lon="-4.617109">
        <ele>50.632</ele>
        <time>2021-06-16T20:11:12Z</time>
      </trkpt>
      <trkpt lat="36.721082" lon="-4.61714">
        <ele>50.666</ele>
        <time>2021-06-16T20:11:13Z</time>
      </trkpt>
      <trkpt lat="36.720933" lon="-4.617243">
        <ele>50.696</ele>
        <time>2021-06-16T20:11:15Z</time>
      </trkpt>
      <trkpt lat="36.72079" lon="-4.617421">
        <ele>50.631</ele>
        <time>2021-06-16T20:11:17Z</time>
      </trkpt>
      <trkpt lat="36.720707" lon="-4.617518">
        <ele>50.624</ele>
        <time>2021-06-16T20:11:18Z</time>
      </trkpt>
      <trkpt lat="36.720534" lon="-4.617725">
        <ele>50.608</ele>
        <time>2021-06-16T20:11:20Z</time>
      </trkpt>
      <trkpt lat="36.720449" lon="-4.617835">
        <ele>50.696</ele>
        <time>2021-06-16T20:11:21Z</time>
      </trkpt>
      <trkpt lat="36.720285" lon="-4.618058">
        <ele>50.635</ele>
        <time>2021-06-16T20:11:23Z</time>
      </trkpt>
      <trkpt lat="36.720124" lon="-4.618272">
        <ele>50.679</ele>
        <time>2021-06-16T20:11:25Z</time>
      </trkpt>
      <trkpt lat="36.719983" lon="-4.618447">
        <ele>50.639</ele>
        <time>2021-06-16T20:11:27Z</time>
      </trkpt>
      <trkpt lat="36.719831" lon="-4.61863">
        <ele>50.665</ele>
        <time>2021-06-16T20:11:29Z</time>
      </trkpt>
      <trkpt lat="36.719663" lon="-4.618837">
        <ele>50.617</ele>
        <time>2021-06-16T20:11:31Z</time>
      </trkpt>
      <trkpt lat="36.719491" lon="-4.61905">
        <ele>50.656</ele>
        <time>2021-06-16T20:11:33Z</time>
      </trkpt>
      <trkpt lat="36.719403" lon="-4.619158">
        <ele>50.630</ele>
        <time>2021-06-16T20:11:34Z</time>
      </trkpt>
      <trkpt lat="36.719235" lon="-4.619372">
        <ele>50.674</ele>
        <time>2021-06-16T20:11:36Z</time>
      </trkpt>
      <trkpt lat="36.719074" lon="-4.619584">
        <ele>51.756</ele>
        <time>2021-06-16T20:11:38Z</time>
      </trkpt>
      <trkpt lat="36.718998" lon="-4.619688">
        <ele>52.621</ele>
        <time>2021-06-16T20:11:39Z</time>
      </trkpt>
      <trkpt lat="36.718859" lon="-4.619884">
        <ele>53.708</ele>
        <time>2021-06-16T20:11:41Z</time>
      </trkpt>
      <trkpt lat="36.718745" lon="-4.620066">
        <ele>55.164</ele>
        <time>2021-06-16T20:11:43Z</time>
      </trkpt>
      <trkpt lat="36.718656" lon="-4.62024">
        <ele>55.843</ele>
        <time>2021-06-16T20:11:45Z</time>
      </trkpt>
      <trkpt lat="36.718605" lon="-4.620427">
        <ele>56.487</ele>
        <time>2021-06-16T20:11:47Z</time>
      </trkpt>
      <trkpt lat="36.718604" lon="-4.620631">
        <ele>57.347</ele>
        <time>2021-06-16T20:11:49Z</time>
      </trkpt>
      <trkpt lat="36.718591" lon="-4.620723">
        <ele>57.863</ele>
        <time>2021-06-16T20:11:50Z</time>
      </trkpt>
      <trkpt lat="36.718484" lon="-4.620842">
        <ele>58.485</ele>
        <time>2021-06-16T20:11:52Z</time>
      </trkpt>
      <trkpt lat="36.718402" lon="-4.620861">
        <ele>58.484</ele>
        <time>2021-06-16T20:11:53Z</time>
      </trkpt>
      <trkpt lat="36.718226" lon="-4.62091">
        <ele>59.168</ele>
        <time>2021-06-16T20:11:55Z</time>
      </trkpt>
      <trkpt lat="36.718079" lon="-4.621071">
        <ele>60.067</ele>
        <time>2021-06-16T20:11:57Z</time>
      </trkpt>
      <trkpt lat="36.718013" lon="-4.621169">
        <ele>60.581</ele>
        <time>2021-06-16T20:11:58Z</time>
      </trkpt>
      <trkpt lat="36.717881" lon="-4.621377">
        <ele>60.919</ele>
        <time>2021-06-16T20:12:00Z</time>
      </trkpt>
      <trkpt lat="36.717738" lon="-4.621604">
        <ele>61.708</ele>
        <time>2021-06-16T20:12:02Z</time>
      </trkpt>
      <trkpt lat="36.717594" lon="-4.621834">
        <ele>62.613</ele>
        <time>2021-06-16T20:12:04Z</time>
      </trkpt>
      <trkpt lat="36.717535" lon="-4.62194">
        <ele>63.392</ele>
        <time>2021-06-16T20:12:05Z</time>
      </trkpt>
      <trkpt lat="36.717481" lon="-4.622041">
        <ele>63.736</ele>
        <time>2021-06-16T20:12:06Z</time>
      </trkpt>
      <trkpt lat="36.717407" lon="-4.622242">
        <ele>64.826</ele>
        <time>2021-06-16T20:12:08Z</time>
      </trkpt>
      <trkpt lat="36.717383" lon="-4.62234">
        <ele>66.022</ele>
        <time>2021-06-16T20:12:09Z</time>
      </trkpt>
      <trkpt lat="36.717283" lon="-4.622477">
        <ele>67.034</ele>
        <time>2021-06-16T20:12:11Z</time>
      </trkpt>
      <trkpt lat="36.71721" lon="-4.622527">
        <ele>67.273</ele>
        <time>2021-06-16T20:12:12Z</time>
      </trkpt>
      <trkpt lat="36.717134" lon="-4.62259">
        <ele>67.477</ele>
        <time>2021-06-16T20:12:13Z</time>
      </trkpt>
      <trkpt lat="36.717002" lon="-4.62278">
        <ele>68.042</ele>
        <time>2021-06-16T20:12:15Z</time>
      </trkpt>
      <trkpt lat="36.716938" lon="-4.622889">
        <ele>68.522</ele>
        <time>2021-06-16T20:12:16Z</time>
      </trkpt>
      <trkpt lat="36.71687" lon="-4.623">
        <ele>68.814</ele>
        <time>2021-06-16T20:12:17Z</time>
      </trkpt>
      <trkpt lat="36.716727" lon="-4.623227">
        <ele>69.808</ele>
        <time>2021-06-16T20:12:19Z</time>
      </trkpt>
      <trkpt lat="36.716579" lon="-4.623465">
        <ele>70.771</ele>
        <time>2021-06-16T20:12:21Z</time>
      </trkpt>
      <trkpt lat="36.716509" lon="-4.623575">
        <ele>71.140</ele>
        <time>2021-06-16T20:12:22Z</time>
      </trkpt>
      <trkpt lat="36.716391" lon="-4.623748">
        <ele>71.754</ele>
        <time>2021-06-16T20:12:24Z</time>
      </trkpt>
      <trkpt lat="36.716338" lon="-4.623822">
        <ele>72.254</ele>
        <time>2021-06-16T20:12:25Z</time>
      </trkpt>
      <trkpt lat="36.716228" lon="-4.623993">
        <ele>72.910</ele>
        <time>2021-06-16T20:12:27Z</time>
      </trkpt>
      <trkpt lat="36.716108" lon="-4.624192">
        <ele>73.522</ele>
        <time>2021-06-16T20:12:29Z</time>
      </trkpt>
      <trkpt lat="36.716039" lon="-4.6243">
        <ele>74.121</ele>
        <time>2021-06-16T20:12:30Z</time>
      </trkpt>
      <trkpt lat="36.715892" lon="-4.624527">
        <ele>74.765</ele>
        <time>2021-06-16T20:12:32Z</time>
      </trkpt>
      <trkpt lat="36.715816" lon="-4.624644">
        <ele>75.167</ele>
        <time>2021-06-16T20:12:33Z</time>
      </trkpt>
      <trkpt lat="36.715658" lon="-4.624882">
        <ele>76.281</ele>
        <time>2021-06-16T20:12:35Z</time>
      </trkpt>
      <trkpt lat="36.715499" lon="-4.625127">
        <ele>77.619</ele>
        <time>2021-06-16T20:12:37Z</time>
      </trkpt>
      <trkpt lat="36.715421" lon="-4.625248">
        <ele>78.508</ele>
        <time>2021-06-16T20:12:38Z</time>
      </trkpt>
      <trkpt lat="36.715343" lon="-4.625368">
        <ele>79.483</ele>
        <time>2021-06-16T20:12:39Z</time>
      </trkpt>
      <trkpt lat="36.715264" lon="-4.625489">
        <ele>80.422</ele>
        <time>2021-06-16T20:12:40Z</time>
      </trkpt>
      <trkpt lat="36.715185" lon="-4.625611">
        <ele>81.396</ele>
        <time>2021-06-16T20:12:41Z</time>
      </trkpt>
      <trkpt lat="36.715029" lon="-4.625848">
        <ele>82.646</ele>
        <time>2021-06-16T20:12:43Z</time>
      </trkpt>
      <trkpt lat="36.714954" lon="-4.625956">
        <ele>84.012</ele>
        <time>2021-06-16T20:12:44Z</time>
      </trkpt>
      <trkpt lat="36.714886" lon="-4.626056">
        <ele>85.254</ele>
        <time>2021-06-16T20:12:45Z</time>
      </trkpt>
      <trkpt lat="36.714769" lon="-4.626233">
        <ele>86.563</ele>
        <time>2021-06-16T20:12:47Z</time>
      </trkpt>
      <trkpt lat="36.714718" lon="-4.626314">
        <ele>87.537</ele>
        <time>2021-06-16T20:12:48Z</time>
      </trkpt>
      <trkpt lat="36.714674" lon="-4.626397">
        <ele>88.468</ele>
        <time>2021-06-16T20:12:49Z</time>
      </trkpt>
      <trkpt lat="36.714624" lon="-4.626576">
        <ele>89.542</ele>
        <time>2021-06-16T20:12:51Z</time>
      </trkpt>
      <trkpt lat="36.714614" lon="-4.626673">
        <ele>89.926</ele>
        <time>2021-06-16T20:12:52Z</time>
      </trkpt>
      <trkpt lat="36.714589" lon="-4.626757">
        <ele>90.308</ele>
        <time>2021-06-16T20:12:53Z</time>
      </trkpt>
      <trkpt lat="36.714539" lon="-4.626825">
        <ele>90.573</ele>
        <time>2021-06-16T20:12:54Z</time>
      </trkpt>
      <trkpt lat="36.714394" lon="-4.626922">
        <ele>90.642</ele>
        <time>2021-06-16T20:12:56Z</time>
      </trkpt>
      <trkpt lat="36.714319" lon="-4.626994">
        <ele>90.886</ele>
        <time>2021-06-16T20:12:57Z</time>
      </trkpt>
      <trkpt lat="36.714168" lon="-4.627167">
        <ele>91.516</ele>
        <time>2021-06-16T20:12:59Z</time>
      </trkpt>
      <trkpt lat="36.714083" lon="-4.627245">
        <ele>91.992</ele>
        <time>2021-06-16T20:13:00Z</time>
      </trkpt>
      <trkpt lat="36.713897" lon="-4.627388">
        <ele>92.644</ele>
        <time>2021-06-16T20:13:02Z</time>
      </trkpt>
      <trkpt lat="36.713796" lon="-4.627455">
        <ele>93.413</ele>
        <time>2021-06-16T20:13:03Z</time>
      </trkpt>
      <trkpt lat="36.713593" lon="-4.627584">
        <ele>93.757</ele>
        <time>2021-06-16T20:13:05Z</time>
      </trkpt>
      <trkpt lat="36.7135" lon="-4.627656">
        <ele>94.214</ele>
        <time>2021-06-16T20:13:06Z</time>
      </trkpt>
      <trkpt lat="36.713419" lon="-4.627736">
        <ele>94.454</ele>
        <time>2021-06-16T20:13:07Z</time>
      </trkpt>
      <trkpt lat="36.713298" lon="-4.627908">
        <ele>94.009</ele>
        <time>2021-06-16T20:13:09Z</time>
      </trkpt>
      <trkpt lat="36.713253" lon="-4.627997">
        <ele>93.508</ele>
        <time>2021-06-16T20:13:10Z</time>
      </trkpt>
      <trkpt lat="36.713221" lon="-4.628084">
        <ele>93.628</ele>
        <time>2021-06-16T20:13:11Z</time>
      </trkpt>
      <trkpt lat="36.713191" lon="-4.628274">
        <ele>94.087</ele>
        <time>2021-06-16T20:13:13Z</time>
      </trkpt>
      <trkpt lat="36.713209" lon="-4.628382">
        <ele>94.041</ele>
        <time>2021-06-16T20:13:14Z</time>
      </trkpt>
      <trkpt lat="36.713237" lon="-4.628498">
        <ele>94.071</ele>
        <time>2021-06-16T20:13:15Z</time>
      </trkpt>
      <trkpt lat="36.713297" lon="-4.628751">
        <ele>94.297</ele>
        <time>2021-06-16T20:13:17Z</time>
      </trkpt>
      <trkpt lat="36.713327" lon="-4.628887">
        <ele>94.189</ele>
        <time>2021-06-16T20:13:18Z</time>
      </trkpt>
      <trkpt lat="36.713393" lon="-4.629149">
        <ele>94.838</ele>
        <time>2021-06-16T20:13:20Z</time>
      </trkpt>
      <trkpt lat="36.713423" lon="-4.62941">
        <ele>95.392</ele>
        <time>2021-06-16T20:13:22Z</time>
      </trkpt>
      <trkpt lat="36.713407" lon="-4.629538">
        <ele>95.141</ele>
        <time>2021-06-16T20:13:23Z</time>
      </trkpt>
      <trkpt lat="36.713314" lon="-4.629773">
        <ele>95.181</ele>
        <time>2021-06-16T20:13:25Z</time>
      </trkpt>
      <trkpt lat="36.713175" lon="-4.629937">
        <ele>95.009</ele>
        <time>2021-06-16T20:13:27Z</time>
      </trkpt>
      <trkpt lat="36.713071" lon="-4.630053">
        <ele>95.008</ele>
        <time>2021-06-16T20:13:29Z</time>
      </trkpt>
      <trkpt lat="36.713003" lon="-4.630179">
        <ele>95.251</ele>
        <time>2021-06-16T20:13:31Z</time>
      </trkpt>
      <trkpt lat="36.712958" lon="-4.630357">
        <ele>95.290</ele>
        <time>2021-06-16T20:13:33Z</time>
      </trkpt>
      <trkpt lat="36.71292" lon="-4.630577">
        <ele>96.044</ele>
        <time>2021-06-16T20:13:35Z</time>
      </trkpt>
      <trkpt lat="36.712903" lon="-4.630698">
        <ele>96.364</ele>
        <time>2021-06-16T20:13:36Z</time>
      </trkpt>
      <trkpt lat="36.712858" lon="-4.630954">
        <ele>96.750</ele>
        <time>2021-06-16T20:13:38Z</time>
      </trkpt>
      <trkpt lat="36.71283" lon="-4.631082">
        <ele>97.192</ele>
        <time>2021-06-16T20:13:39Z</time>
      </trkpt>
      <trkpt lat="36.712746" lon="-4.631312">
        <ele>97.261</ele>
        <time>2021-06-16T20:13:41Z</time>
      </trkpt>
      <trkpt lat="36.712681" lon="-4.631405">
        <ele>97.685</ele>
        <time>2021-06-16T20:13:42Z</time>
      </trkpt>
      <trkpt lat="36.712605" lon="-4.631479">
        <ele>98.019</ele>
        <time>2021-06-16T20:13:43Z</time>
      </trkpt>
      <trkpt lat="36.712534" lon="-4.631537">
        <ele>98.209</ele>
        <time>2021-06-16T20:13:44Z</time>
      </trkpt>
      <trkpt lat="36.712423" lon="-4.631614">
        <ele>97.919</ele>
        <time>2021-06-16T20:13:46Z</time>
      </trkpt>
      <trkpt lat="36.712357" lon="-4.631657">
        <ele>97.208</ele>
        <time>2021-06-16T20:13:48Z</time>
      </trkpt>
      <trkpt lat="36.712308" lon="-4.631661">
        <ele>96.338</ele>
        <time>2021-06-16T20:13:57Z</time>
      </trkpt>
      <trkpt lat="36.71225" lon="-4.631697">
        <ele>95.847</ele>
        <time>2021-06-16T20:14:03Z</time>
      </trkpt>
      <trkpt lat="36.712186" lon="-4.631782">
        <ele>95.551</ele>
        <time>2021-06-16T20:14:05Z</time>
      </trkpt>
      <trkpt lat="36.712116" lon="-4.631936">
        <ele>95.361</ele>
        <time>2021-06-16T20:14:07Z</time>
      </trkpt>
      <trkpt lat="36.712087" lon="-4.63204">
        <ele>95.257</ele>
        <time>2021-06-16T20:14:08Z</time>
      </trkpt>
      <trkpt lat="36.712063" lon="-4.632163">
        <ele>95.149</ele>
        <time>2021-06-16T20:14:09Z</time>
      </trkpt>
      <trkpt lat="36.712043" lon="-4.632296">
        <ele>95.068</ele>
        <time>2021-06-16T20:14:10Z</time>
      </trkpt>
      <trkpt lat="36.712024" lon="-4.632427">
        <ele>95.012</ele>
        <time>2021-06-16T20:14:11Z</time>
      </trkpt>
      <trkpt lat="36.711986" lon="-4.632689">
        <ele>95.022</ele>
        <time>2021-06-16T20:14:13Z</time>
      </trkpt>
      <trkpt lat="36.711926" lon="-4.632935">
        <ele>95.062</ele>
        <time>2021-06-16T20:14:15Z</time>
      </trkpt>
      <trkpt lat="36.711879" lon="-4.633039">
        <ele>95.008</ele>
        <time>2021-06-16T20:14:16Z</time>
      </trkpt>
      <trkpt lat="36.711819" lon="-4.633133">
        <ele>95.008</ele>
        <time>2021-06-16T20:14:17Z</time>
      </trkpt>
      <trkpt lat="36.711702" lon="-4.633313">
        <ele>95.089</ele>
        <time>2021-06-16T20:14:19Z</time>
      </trkpt>
      <trkpt lat="36.711615" lon="-4.633484">
        <ele>95.078</ele>
        <time>2021-06-16T20:14:21Z</time>
      </trkpt>
      <trkpt lat="36.711579" lon="-4.633579">
        <ele>95.032</ele>
        <time>2021-06-16T20:14:22Z</time>
      </trkpt>
      <trkpt lat="36.711528" lon="-4.63381">
        <ele>95.052</ele>
        <time>2021-06-16T20:14:24Z</time>
      </trkpt>
      <trkpt lat="36.711491" lon="-4.634101">
        <ele>95.018</ele>
        <time>2021-06-16T20:14:26Z</time>
      </trkpt>
      <trkpt lat="36.711476" lon="-4.634255">
        <ele>95.020</ele>
        <time>2021-06-16T20:14:27Z</time>
      </trkpt>
      <trkpt lat="36.711447" lon="-4.634582">
        <ele>95.089</ele>
        <time>2021-06-16T20:14:29Z</time>
      </trkpt>
      <trkpt lat="36.711436" lon="-4.634754">
        <ele>95.033</ele>
        <time>2021-06-16T20:14:30Z</time>
      </trkpt>
      <trkpt lat="36.71143" lon="-4.635083">
        <ele>95.052</ele>
        <time>2021-06-16T20:14:32Z</time>
      </trkpt>
      <trkpt lat="36.711433" lon="-4.635242">
        <ele>95.053</ele>
        <time>2021-06-16T20:14:33Z</time>
      </trkpt>
      <trkpt lat="36.711468" lon="-4.635572">
        <ele>95.008</ele>
        <time>2021-06-16T20:14:35Z</time>
      </trkpt>
      <trkpt lat="36.71157" lon="-4.635903">
        <ele>95.008</ele>
        <time>2021-06-16T20:14:37Z</time>
      </trkpt>
      <trkpt lat="36.711716" lon="-4.636189">
        <ele>95.042</ele>
        <time>2021-06-16T20:14:39Z</time>
      </trkpt>
      <trkpt lat="36.711789" lon="-4.636323">
        <ele>95.031</ele>
        <time>2021-06-16T20:14:40Z</time>
      </trkpt>
      <trkpt lat="36.71191" lon="-4.6366">
        <ele>95.025</ele>
        <time>2021-06-16T20:14:42Z</time>
      </trkpt>
      <trkpt lat="36.711955" lon="-4.63675">
        <ele>95.065</ele>
        <time>2021-06-16T20:14:43Z</time>
      </trkpt>
      <trkpt lat="36.711992" lon="-4.636916">
        <ele>95.071</ele>
        <time>2021-06-16T20:14:44Z</time>
      </trkpt>
      <trkpt lat="36.712071" lon="-4.637271">
        <ele>95.063</ele>
        <time>2021-06-16T20:14:46Z</time>
      </trkpt>
      <trkpt lat="36.712163" lon="-4.637643">
        <ele>95.052</ele>
        <time>2021-06-16T20:14:48Z</time>
      </trkpt>
      <trkpt lat="36.712213" lon="-4.63783">
        <ele>95.026</ele>
        <time>2021-06-16T20:14:49Z</time>
      </trkpt>
      <trkpt lat="36.712261" lon="-4.638018">
        <ele>95.085</ele>
        <time>2021-06-16T20:14:50Z</time>
      </trkpt>
      <trkpt lat="36.712349" lon="-4.63839">
        <ele>95.089</ele>
        <time>2021-06-16T20:14:52Z</time>
      </trkpt>
      <trkpt lat="36.712398" lon="-4.63875">
        <ele>95.017</ele>
        <time>2021-06-16T20:14:54Z</time>
      </trkpt>
      <trkpt lat="36.71239" lon="-4.638937">
        <ele>95.008</ele>
        <time>2021-06-16T20:14:55Z</time>
      </trkpt>
      <trkpt lat="36.712325" lon="-4.639327">
        <ele>95.095</ele>
        <time>2021-06-16T20:14:57Z</time>
      </trkpt>
      <trkpt lat="36.712283" lon="-4.639528">
        <ele>95.084</ele>
        <time>2021-06-16T20:14:58Z</time>
      </trkpt>
      <trkpt lat="36.712203" lon="-4.639928">
        <ele>91.098</ele>
        <time>2021-06-16T20:15:00Z</time>
      </trkpt>
      <trkpt lat="36.712165" lon="-4.640119">
        <ele>87.028</ele>
        <time>2021-06-16T20:15:01Z</time>
      </trkpt>
      <trkpt lat="36.712095" lon="-4.640473">
        <ele>83.024</ele>
        <time>2021-06-16T20:15:03Z</time>
      </trkpt>
      <trkpt lat="36.712032" lon="-4.6408">
        <ele>79.066</ele>
        <time>2021-06-16T20:15:05Z</time>
      </trkpt>
      <trkpt lat="36.712002" lon="-4.641118">
        <ele>75.015</ele>
        <time>2021-06-16T20:15:07Z</time>
      </trkpt>
      <trkpt lat="36.712009" lon="-4.641282">
        <ele>71.089</ele>
        <time>2021-06-16T20:15:08Z</time>
      </trkpt>
      <trkpt lat="36.712054" lon="-4.641593">
        <ele>68.421</ele>
        <time>2021-06-16T20:15:10Z</time>
      </trkpt>
      <trkpt lat="36.712092" lon="-4.641733">
        <ele>66.241</ele>
        <time>2021-06-16T20:15:11Z</time>
      </trkpt>
      <trkpt lat="36.712134" lon="-4.641865">
        <ele>64.705</ele>
        <time>2021-06-16T20:15:12Z</time>
      </trkpt>
      <trkpt lat="36.712181" lon="-4.641984">
        <ele>63.608</ele>
        <time>2021-06-16T20:15:13Z</time>
      </trkpt>
      <trkpt lat="36.712232" lon="-4.642091">
        <ele>62.899</ele>
        <time>2021-06-16T20:15:14Z</time>
      </trkpt>
      <trkpt lat="36.712287" lon="-4.642185">
        <ele>62.228</ele>
        <time>2021-06-16T20:15:15Z</time>
      </trkpt>
      <trkpt lat="36.71238" lon="-4.642356">
        <ele>61.552</ele>
        <time>2021-06-16T20:15:17Z</time>
      </trkpt>
      <trkpt lat="36.712384" lon="-4.642448">
        <ele>61.372</ele>
        <time>2021-06-16T20:15:18Z</time>
      </trkpt>
      <trkpt lat="36.712286" lon="-4.642577">
        <ele>61.548</ele>
        <time>2021-06-16T20:15:20Z</time>
      </trkpt>
      <trkpt lat="36.712109" lon="-4.642635">
        <ele>61.360</ele>
        <time>2021-06-16T20:15:22Z</time>
      </trkpt>
      <trkpt lat="36.711935" lon="-4.642782">
        <ele>61.089</ele>
        <time>2021-06-16T20:15:24Z</time>
      </trkpt>
      <trkpt lat="36.711854" lon="-4.642891">
        <ele>60.893</ele>
        <time>2021-06-16T20:15:25Z</time>
      </trkpt>
      <trkpt lat="36.711767" lon="-4.643006">
        <ele>60.543</ele>
        <time>2021-06-16T20:15:26Z</time>
      </trkpt>
      <trkpt lat="36.711568" lon="-4.64326">
        <ele>59.664</ele>
        <time>2021-06-16T20:15:28Z</time>
      </trkpt>
      <trkpt lat="36.711353" lon="-4.643541">
        <ele>58.510</ele>
        <time>2021-06-16T20:15:30Z</time>
      </trkpt>
      <trkpt lat="36.711243" lon="-4.64369">
        <ele>57.608</ele>
        <time>2021-06-16T20:15:31Z</time>
      </trkpt>
      <trkpt lat="36.711026" lon="-4.64399">
        <ele>57.111</ele>
        <time>2021-06-16T20:15:33Z</time>
      </trkpt>
      <trkpt lat="36.710817" lon="-4.64427">
        <ele>56.810</ele>
        <time>2021-06-16T20:15:35Z</time>
      </trkpt>
      <trkpt lat="36.710719" lon="-4.644406">
        <ele>56.574</ele>
        <time>2021-06-16T20:15:36Z</time>
      </trkpt>
      <trkpt lat="36.710625" lon="-4.64454">
        <ele>56.494</ele>
        <time>2021-06-16T20:15:37Z</time>
      </trkpt>
      <trkpt lat="36.710431" lon="-4.644812">
        <ele>56.070</ele>
        <time>2021-06-16T20:15:39Z</time>
      </trkpt>
      <trkpt lat="36.71033" lon="-4.644946">
        <ele>56.162</ele>
        <time>2021-06-16T20:15:40Z</time>
      </trkpt>
      <trkpt lat="36.71015" lon="-4.645212">
        <ele>56.351</ele>
        <time>2021-06-16T20:15:42Z</time>
      </trkpt>
      <trkpt lat="36.71003" lon="-4.645409">
        <ele>56.675</ele>
        <time>2021-06-16T20:15:44Z</time>
      </trkpt>
      <trkpt lat="36.709997" lon="-4.645469">
        <ele>56.858</ele>
        <time>2021-06-16T20:15:45Z</time>
      </trkpt>
      <trkpt lat="36.709975" lon="-4.645524">
        <ele>56.352</ele>
        <time>2021-06-16T20:15:48Z</time>
      </trkpt>
      <trkpt lat="36.70994" lon="-4.645582">
        <ele>55.817</ele>
        <time>2021-06-16T20:15:49Z</time>
      </trkpt>
      <trkpt lat="36.709895" lon="-4.645662">
        <ele>55.808</ele>
        <time>2021-06-16T20:15:50Z</time>
      </trkpt>
      <trkpt lat="36.709792" lon="-4.645857">
        <ele>55.772</ele>
        <time>2021-06-16T20:15:52Z</time>
      </trkpt>
      <trkpt lat="36.709735" lon="-4.64597">
        <ele>55.721</ele>
        <time>2021-06-16T20:15:53Z</time>
      </trkpt>
      <trkpt lat="36.709676" lon="-4.646092">
        <ele>56.235</ele>
        <time>2021-06-16T20:15:54Z</time>
      </trkpt>
      <trkpt lat="36.709558" lon="-4.646348">
        <ele>56.565</ele>
        <time>2021-06-16T20:15:56Z</time>
      </trkpt>
      <trkpt lat="36.709422" lon="-4.646619">
        <ele>57.381</ele>
        <time>2021-06-16T20:15:58Z</time>
      </trkpt>
      <trkpt lat="36.709354" lon="-4.646762">
        <ele>58.243</ele>
        <time>2021-06-16T20:15:59Z</time>
      </trkpt>
      <trkpt lat="36.709223" lon="-4.647062">
        <ele>59.112</ele>
        <time>2021-06-16T20:16:01Z</time>
      </trkpt>
      <trkpt lat="36.709097" lon="-4.647378">
        <ele>59.736</ele>
        <time>2021-06-16T20:16:03Z</time>
      </trkpt>
      <trkpt lat="36.709037" lon="-4.647537">
        <ele>60.624</ele>
        <time>2021-06-16T20:16:04Z</time>
      </trkpt>
      <trkpt lat="36.708924" lon="-4.647858">
        <ele>61.804</ele>
        <time>2021-06-16T20:16:06Z</time>
      </trkpt>
      <trkpt lat="36.708822" lon="-4.648178">
        <ele>62.314</ele>
        <time>2021-06-16T20:16:08Z</time>
      </trkpt>
      <trkpt lat="36.708729" lon="-4.648514">
        <ele>62.608</ele>
        <time>2021-06-16T20:16:10Z</time>
      </trkpt>
      <trkpt lat="36.708676" lon="-4.648681">
        <ele>63.019</ele>
        <time>2021-06-16T20:16:11Z</time>
      </trkpt>
      <trkpt lat="36.708564" lon="-4.649004">
        <ele>63.428</ele>
        <time>2021-06-16T20:16:13Z</time>
      </trkpt>
      <trkpt lat="36.708461" lon="-4.64933">
        <ele>63.422</ele>
        <time>2021-06-16T20:16:15Z</time>
      </trkpt>
      <trkpt lat="36.70841" lon="-4.649496">
        <ele>63.242</ele>
        <time>2021-06-16T20:16:16Z</time>
      </trkpt>
      <trkpt lat="36.708358" lon="-4.649661">
        <ele>63.288</ele>
        <time>2021-06-16T20:16:17Z</time>
      </trkpt>
      <trkpt lat="36.708235" lon="-4.649985">
        <ele>63.670</ele>
        <time>2021-06-16T20:16:19Z</time>
      </trkpt>
      <trkpt lat="36.708157" lon="-4.650139">
        <ele>63.629</ele>
        <time>2021-06-16T20:16:20Z</time>
      </trkpt>
      <trkpt lat="36.708067" lon="-4.650285">
        <ele>63.653</ele>
        <time>2021-06-16T20:16:21Z</time>
      </trkpt>
      <trkpt lat="36.707965" lon="-4.650426">
        <ele>63.744</ele>
        <time>2021-06-16T20:16:22Z</time>
      </trkpt>
      <trkpt lat="36.707744" lon="-4.650703">
        <ele>63.605</ele>
        <time>2021-06-16T20:16:24Z</time>
      </trkpt>
      <trkpt lat="36.707518" lon="-4.650975">
        <ele>64.115</ele>
        <time>2021-06-16T20:16:26Z</time>
      </trkpt>
      <trkpt lat="36.707403" lon="-4.651108">
        <ele>64.708</ele>
        <time>2021-06-16T20:16:27Z</time>
      </trkpt>
      <trkpt lat="36.707286" lon="-4.651238">
        <ele>65.271</ele>
        <time>2021-06-16T20:16:28Z</time>
      </trkpt>
      <trkpt lat="36.707047" lon="-4.651487">
        <ele>65.760</ele>
        <time>2021-06-16T20:16:30Z</time>
      </trkpt>
      <trkpt lat="36.706923" lon="-4.651605">
        <ele>66.014</ele>
        <time>2021-06-16T20:16:31Z</time>
      </trkpt>
      <trkpt lat="36.706668" lon="-4.651833">
        <ele>66.274</ele>
        <time>2021-06-16T20:16:33Z</time>
      </trkpt>
      <trkpt lat="36.706542" lon="-4.651946">
        <ele>66.320</ele>
        <time>2021-06-16T20:16:34Z</time>
      </trkpt>
      <trkpt lat="36.706417" lon="-4.652058">
        <ele>66.292</ele>
        <time>2021-06-16T20:16:35Z</time>
      </trkpt>
      <trkpt lat="36.706167" lon="-4.652281">
        <ele>66.391</ele>
        <time>2021-06-16T20:16:37Z</time>
      </trkpt>
      <trkpt lat="36.706043" lon="-4.652395">
        <ele>66.435</ele>
        <time>2021-06-16T20:16:38Z</time>
      </trkpt>
      <trkpt lat="36.705799" lon="-4.65263">
        <ele>66.874</ele>
        <time>2021-06-16T20:16:40Z</time>
      </trkpt>
      <trkpt lat="36.705554" lon="-4.652857">
        <ele>66.956</ele>
        <time>2021-06-16T20:16:42Z</time>
      </trkpt>
      <trkpt lat="36.705431" lon="-4.652968">
        <ele>67.021</ele>
        <time>2021-06-16T20:16:43Z</time>
      </trkpt>
      <trkpt lat="36.705311" lon="-4.653073">
        <ele>67.108</ele>
        <time>2021-06-16T20:16:44Z</time>
      </trkpt>
      <trkpt lat="36.705092" lon="-4.653265">
        <ele>67.454</ele>
        <time>2021-06-16T20:16:46Z</time>
      </trkpt>
      <trkpt lat="36.704993" lon="-4.653364">
        <ele>67.343</ele>
        <time>2021-06-16T20:16:47Z</time>
      </trkpt>
      <trkpt lat="36.704908" lon="-4.653474">
        <ele>67.377</ele>
        <time>2021-06-16T20:16:48Z</time>
      </trkpt>
      <trkpt lat="36.704802" lon="-4.653758">
        <ele>66.787</ele>
        <time>2021-06-16T20:16:50Z</time>
      </trkpt>
      <trkpt lat="36.704787" lon="-4.653922">
        <ele>66.693</ele>
        <time>2021-06-16T20:16:51Z</time>
      </trkpt>
      <trkpt lat="36.704799" lon="-4.654273">
        <ele>67.025</ele>
        <time>2021-06-16T20:16:53Z</time>
      </trkpt>
      <trkpt lat="36.704826" lon="-4.654634">
        <ele>67.254</ele>
        <time>2021-06-16T20:16:55Z</time>
      </trkpt>
      <trkpt lat="36.70484" lon="-4.65482">
        <ele>67.418</ele>
        <time>2021-06-16T20:16:56Z</time>
      </trkpt>
      <trkpt lat="36.70485" lon="-4.655008">
        <ele>67.583</ele>
        <time>2021-06-16T20:16:57Z</time>
      </trkpt>
      <trkpt lat="36.704856" lon="-4.655198">
        <ele>68.325</ele>
        <time>2021-06-16T20:16:58Z</time>
      </trkpt>
      <trkpt lat="36.704863" lon="-4.655386">
        <ele>68.817</ele>
        <time>2021-06-16T20:16:59Z</time>
      </trkpt>
      <trkpt lat="36.704877" lon="-4.655565">
        <ele>69.108</ele>
        <time>2021-06-16T20:17:00Z</time>
      </trkpt>
      <trkpt lat="36.704917" lon="-4.655925">
        <ele>70.015</ele>
        <time>2021-06-16T20:17:02Z</time>
      </trkpt>
      <trkpt lat="36.704955" lon="-4.656102">
        <ele>70.914</ele>
        <time>2021-06-16T20:17:03Z</time>
      </trkpt>
      <trkpt lat="36.70506" lon="-4.656455">
        <ele>72.058</ele>
        <time>2021-06-16T20:17:05Z</time>
      </trkpt>
      <trkpt lat="36.705173" lon="-4.656812">
        <ele>73.058</ele>
        <time>2021-06-16T20:17:07Z</time>
      </trkpt>
      <trkpt lat="36.705223" lon="-4.656992">
        <ele>73.754</ele>
        <time>2021-06-16T20:17:08Z</time>
      </trkpt>
      <trkpt lat="36.705271" lon="-4.657171">
        <ele>74.316</ele>
        <time>2021-06-16T20:17:09Z</time>
      </trkpt>
      <trkpt lat="36.705339" lon="-4.657544">
        <ele>74.975</ele>
        <time>2021-06-16T20:17:11Z</time>
      </trkpt>
      <trkpt lat="36.705346" lon="-4.657738">
        <ele>75.419</ele>
        <time>2021-06-16T20:17:12Z</time>
      </trkpt>
      <trkpt lat="36.705314" lon="-4.658127">
        <ele>75.887</ele>
        <time>2021-06-16T20:17:14Z</time>
      </trkpt>
      <trkpt lat="36.705286" lon="-4.658319">
        <ele>76.242</ele>
        <time>2021-06-16T20:17:15Z</time>
      </trkpt>
      <trkpt lat="36.705258" lon="-4.658509">
        <ele>76.726</ele>
        <time>2021-06-16T20:17:16Z</time>
      </trkpt>
      <trkpt lat="36.705167" lon="-4.658883">
        <ele>77.408</ele>
        <time>2021-06-16T20:17:18Z</time>
      </trkpt>
      <trkpt lat="36.70502" lon="-4.65923">
        <ele>78.035</ele>
        <time>2021-06-16T20:17:20Z</time>
      </trkpt>
      <trkpt lat="36.704855" lon="-4.659567">
        <ele>79.114</ele>
        <time>2021-06-16T20:17:22Z</time>
      </trkpt>
      <trkpt lat="36.70478" lon="-4.65973">
        <ele>79.868</ele>
        <time>2021-06-16T20:17:23Z</time>
      </trkpt>
      <trkpt lat="36.704656" lon="-4.660073">
        <ele>80.688</ele>
        <time>2021-06-16T20:17:25Z</time>
      </trkpt>
      <trkpt lat="36.704603" lon="-4.660253">
        <ele>81.034</ele>
        <time>2021-06-16T20:17:26Z</time>
      </trkpt>
      <trkpt lat="36.704508" lon="-4.660624">
        <ele>81.276</ele>
        <time>2021-06-16T20:17:28Z</time>
      </trkpt>
      <trkpt lat="36.704461" lon="-4.66081">
        <ele>81.595</ele>
        <time>2021-06-16T20:17:29Z</time>
      </trkpt>
      <trkpt lat="36.704365" lon="-4.661173">
        <ele>81.619</ele>
        <time>2021-06-16T20:17:31Z</time>
      </trkpt>
      <trkpt lat="36.704272" lon="-4.661532">
        <ele>81.975</ele>
        <time>2021-06-16T20:17:33Z</time>
      </trkpt>
      <trkpt lat="36.704171" lon="-4.66187">
        <ele>82.228</ele>
        <time>2021-06-16T20:17:35Z</time>
      </trkpt>
      <trkpt lat="36.704006" lon="-4.662145">
        <ele>82.220</ele>
        <time>2021-06-16T20:17:37Z</time>
      </trkpt>
      <trkpt lat="36.703752" lon="-4.662333">
        <ele>82.208</ele>
        <time>2021-06-16T20:17:39Z</time>
      </trkpt>
      <trkpt lat="36.703609" lon="-4.662395">
        <ele>82.334</ele>
        <time>2021-06-16T20:17:40Z</time>
      </trkpt>
      <trkpt lat="36.70347" lon="-4.662452">
        <ele>82.333</ele>
        <time>2021-06-16T20:17:41Z</time>
      </trkpt>
      <trkpt lat="36.703202" lon="-4.662596">
        <ele>82.377</ele>
        <time>2021-06-16T20:17:43Z</time>
      </trkpt>
      <trkpt lat="36.703078" lon="-4.662699">
        <ele>81.817</ele>
        <time>2021-06-16T20:17:44Z</time>
      </trkpt>
      <trkpt lat="36.702968" lon="-4.662825">
        <ele>81.843</ele>
        <time>2021-06-16T20:17:45Z</time>
      </trkpt>
      <trkpt lat="36.70279" lon="-4.663137">
        <ele>82.185</ele>
        <time>2021-06-16T20:17:47Z</time>
      </trkpt>
      <trkpt lat="36.702711" lon="-4.663301">
        <ele>82.864</ele>
        <time>2021-06-16T20:17:48Z</time>
      </trkpt>
      <trkpt lat="36.702556" lon="-4.663625">
        <ele>84.168</ele>
        <time>2021-06-16T20:17:50Z</time>
      </trkpt>
      <trkpt lat="36.702479" lon="-4.663784">
        <ele>85.242</ele>
        <time>2021-06-16T20:17:51Z</time>
      </trkpt>
      <trkpt lat="36.702325" lon="-4.664092">
        <ele>86.322</ele>
        <time>2021-06-16T20:17:53Z</time>
      </trkpt>
      <trkpt lat="36.702169" lon="-4.664393">
        <ele>87.114</ele>
        <time>2021-06-16T20:17:55Z</time>
      </trkpt>
      <trkpt lat="36.702014" lon="-4.664681">
        <ele>87.908</ele>
        <time>2021-06-16T20:17:57Z</time>
      </trkpt>
      <trkpt lat="36.701876" lon="-4.664972">
        <ele>87.771</ele>
        <time>2021-06-16T20:17:59Z</time>
      </trkpt>
      <trkpt lat="36.701806" lon="-4.665272">
        <ele>87.010</ele>
        <time>2021-06-16T20:18:01Z</time>
      </trkpt>
      <trkpt lat="36.701829" lon="-4.665584">
        <ele>86.054</ele>
        <time>2021-06-16T20:18:03Z</time>
      </trkpt>
      <trkpt lat="36.701858" lon="-4.665746">
        <ele>85.124</ele>
        <time>2021-06-16T20:18:04Z</time>
      </trkpt>
      <trkpt lat="36.701886" lon="-4.665909">
        <ele>84.840</ele>
        <time>2021-06-16T20:18:05Z</time>
      </trkpt>
      <trkpt lat="36.70193" lon="-4.666233">
        <ele>84.322</ele>
        <time>2021-06-16T20:18:07Z</time>
      </trkpt>
      <trkpt lat="36.701936" lon="-4.666405">
        <ele>83.381</ele>
        <time>2021-06-16T20:18:08Z</time>
      </trkpt>
      <trkpt lat="36.701924" lon="-4.666582">
        <ele>82.245</ele>
        <time>2021-06-16T20:18:09Z</time>
      </trkpt>
      <trkpt lat="36.701852" lon="-4.666941">
        <ele>81.083</ele>
        <time>2021-06-16T20:18:11Z</time>
      </trkpt>
      <trkpt lat="36.701731" lon="-4.667292">
        <ele>79.425</ele>
        <time>2021-06-16T20:18:13Z</time>
      </trkpt>
      <trkpt lat="36.701595" lon="-4.667643">
        <ele>78.217</ele>
        <time>2021-06-16T20:18:15Z</time>
      </trkpt>
      <trkpt lat="36.701527" lon="-4.667818">
        <ele>77.108</ele>
        <time>2021-06-16T20:18:16Z</time>
      </trkpt>
      <trkpt lat="36.701403" lon="-4.668165">
        <ele>76.495</ele>
        <time>2021-06-16T20:18:18Z</time>
      </trkpt>
      <trkpt lat="36.701345" lon="-4.66833">
        <ele>76.724</ele>
        <time>2021-06-16T20:18:19Z</time>
      </trkpt>
      <trkpt lat="36.701245" lon="-4.66865">
        <ele>77.238</ele>
        <time>2021-06-16T20:18:21Z</time>
      </trkpt>
      <trkpt lat="36.70121" lon="-4.668816">
        <ele>77.728</ele>
        <time>2021-06-16T20:18:22Z</time>
      </trkpt>
      <trkpt lat="36.70119" lon="-4.669166">
        <ele>78.584</ele>
        <time>2021-06-16T20:18:24Z</time>
      </trkpt>
      <trkpt lat="36.70119" lon="-4.669536">
        <ele>78.946</ele>
        <time>2021-06-16T20:18:26Z</time>
      </trkpt>
      <trkpt lat="36.701193" lon="-4.669721">
        <ele>79.765</ele>
        <time>2021-06-16T20:18:27Z</time>
      </trkpt>
      <trkpt lat="36.701196" lon="-4.670106">
        <ele>80.099</ele>
        <time>2021-06-16T20:18:29Z</time>
      </trkpt>
      <trkpt lat="36.701201" lon="-4.670498">
        <ele>79.019</ele>
        <time>2021-06-16T20:18:31Z</time>
      </trkpt>
      <trkpt lat="36.701205" lon="-4.670899">
        <ele>76.509</ele>
        <time>2021-06-16T20:18:33Z</time>
      </trkpt>
      <trkpt lat="36.701168" lon="-4.671297">
        <ele>74.119</ele>
        <time>2021-06-16T20:18:35Z</time>
      </trkpt>
      <trkpt lat="36.701117" lon="-4.671482">
        <ele>72.208</ele>
        <time>2021-06-16T20:18:36Z</time>
      </trkpt>
      <trkpt lat="36.701044" lon="-4.671652">
        <ele>71.098</ele>
        <time>2021-06-16T20:18:37Z</time>
      </trkpt>
      <trkpt lat="36.70087" lon="-4.671955">
        <ele>70.057</ele>
        <time>2021-06-16T20:18:39Z</time>
      </trkpt>
      <trkpt lat="36.700776" lon="-4.672092">
        <ele>69.511</ele>
        <time>2021-06-16T20:18:40Z</time>
      </trkpt>
      <trkpt lat="36.700568" lon="-4.672331">
        <ele>68.841</ele>
        <time>2021-06-16T20:18:42Z</time>
      </trkpt>
      <trkpt lat="36.70045" lon="-4.672425">
        <ele>68.577</ele>
        <time>2021-06-16T20:18:43Z</time>
      </trkpt>
      <trkpt lat="36.700317" lon="-4.672504">
        <ele>68.239</ele>
        <time>2021-06-16T20:18:44Z</time>
      </trkpt>
      <trkpt lat="36.700176" lon="-4.672568">
        <ele>67.828</ele>
        <time>2021-06-16T20:18:45Z</time>
      </trkpt>
      <trkpt lat="36.699883" lon="-4.672652">
        <ele>67.442</ele>
        <time>2021-06-16T20:18:47Z</time>
      </trkpt>
      <trkpt lat="36.699739" lon="-4.672683">
        <ele>67.334</ele>
        <time>2021-06-16T20:18:48Z</time>
      </trkpt>
      <trkpt lat="36.699598" lon="-4.672712">
        <ele>67.455</ele>
        <time>2021-06-16T20:18:49Z</time>
      </trkpt>
      <trkpt lat="36.699457" lon="-4.672744">
        <ele>67.210</ele>
        <time>2021-06-16T20:18:50Z</time>
      </trkpt>
      <trkpt lat="36.699178" lon="-4.672815">
        <ele>66.508</ele>
        <time>2021-06-16T20:18:52Z</time>
      </trkpt>
      <trkpt lat="36.6989" lon="-4.672897">
        <ele>65.710</ele>
        <time>2021-06-16T20:18:54Z</time>
      </trkpt>
      <trkpt lat="36.698621" lon="-4.673009">
        <ele>65.559</ele>
        <time>2021-06-16T20:18:56Z</time>
      </trkpt>
      <trkpt lat="36.698488" lon="-4.673088">
        <ele>65.193</ele>
        <time>2021-06-16T20:18:57Z</time>
      </trkpt>
      <trkpt lat="36.698253" lon="-4.67332">
        <ele>65.113</ele>
        <time>2021-06-16T20:18:59Z</time>
      </trkpt>
      <trkpt lat="36.698079" lon="-4.673632">
        <ele>65.679</ele>
        <time>2021-06-16T20:19:01Z</time>
      </trkpt>
      <trkpt lat="36.697925" lon="-4.673956">
        <ele>65.831</ele>
        <time>2021-06-16T20:19:03Z</time>
      </trkpt>
      <trkpt lat="36.697825" lon="-4.674093">
        <ele>65.690</ele>
        <time>2021-06-16T20:19:04Z</time>
      </trkpt>
      <trkpt lat="36.697596" lon="-4.674301">
        <ele>65.734</ele>
        <time>2021-06-16T20:19:06Z</time>
      </trkpt>
      <trkpt lat="36.697478" lon="-4.674392">
        <ele>65.653</ele>
        <time>2021-06-16T20:19:07Z</time>
      </trkpt>
      <trkpt lat="36.69725" lon="-4.674568">
        <ele>65.804</ele>
        <time>2021-06-16T20:19:09Z</time>
      </trkpt>
      <trkpt lat="36.697037" lon="-4.674741">
        <ele>65.714</ele>
        <time>2021-06-16T20:19:11Z</time>
      </trkpt>
      <trkpt lat="36.696822" lon="-4.674912">
        <ele>66.208</ele>
        <time>2021-06-16T20:19:13Z</time>
      </trkpt>
      <trkpt lat="36.696595" lon="-4.675091">
        <ele>66.592</ele>
        <time>2021-06-16T20:19:15Z</time>
      </trkpt>
      <trkpt lat="36.69636" lon="-4.675271">
        <ele>66.771</ele>
        <time>2021-06-16T20:19:17Z</time>
      </trkpt>
      <trkpt lat="36.696126" lon="-4.675457">
        <ele>67.235</ele>
        <time>2021-06-16T20:19:19Z</time>
      </trkpt>
      <trkpt lat="36.696006" lon="-4.675547">
        <ele>67.915</ele>
        <time>2021-06-16T20:19:20Z</time>
      </trkpt>
      <trkpt lat="36.69576" lon="-4.675725">
        <ele>68.641</ele>
        <time>2021-06-16T20:19:22Z</time>
      </trkpt>
      <trkpt lat="36.695633" lon="-4.6758">
        <ele>69.893</ele>
        <time>2021-06-16T20:19:23Z</time>
      </trkpt>
      <trkpt lat="36.695509" lon="-4.675875">
        <ele>70.492</ele>
        <time>2021-06-16T20:19:24Z</time>
      </trkpt>
      <trkpt lat="36.695267" lon="-4.676023">
        <ele>71.196</ele>
        <time>2021-06-16T20:19:26Z</time>
      </trkpt>
      <trkpt lat="36.695147" lon="-4.676097">
        <ele>72.266</ele>
        <time>2021-06-16T20:19:27Z</time>
      </trkpt>
      <trkpt lat="36.694902" lon="-4.676242">
        <ele>72.929</ele>
        <time>2021-06-16T20:19:29Z</time>
      </trkpt>
      <trkpt lat="36.694674" lon="-4.676382">
        <ele>73.321</ele>
        <time>2021-06-16T20:19:31Z</time>
      </trkpt>
      <trkpt lat="36.694463" lon="-4.676562">
        <ele>73.208</ele>
        <time>2021-06-16T20:19:33Z</time>
      </trkpt>
      <trkpt lat="36.694271" lon="-4.676811">
        <ele>72.863</ele>
        <time>2021-06-16T20:19:35Z</time>
      </trkpt>
      <trkpt lat="36.694182" lon="-4.676957">
        <ele>72.662</ele>
        <time>2021-06-16T20:19:36Z</time>
      </trkpt>
      <trkpt lat="36.694023" lon="-4.677261">
        <ele>72.436</ele>
        <time>2021-06-16T20:19:38Z</time>
      </trkpt>
      <trkpt lat="36.693953" lon="-4.677426">
        <ele>72.266</ele>
        <time>2021-06-16T20:19:39Z</time>
      </trkpt>
      <trkpt lat="36.693836" lon="-4.677779">
        <ele>72.212</ele>
        <time>2021-06-16T20:19:41Z</time>
      </trkpt>
      <trkpt lat="36.693725" lon="-4.678148">
        <ele>72.484</ele>
        <time>2021-06-16T20:19:43Z</time>
      </trkpt>
      <trkpt lat="36.693615" lon="-4.678511">
        <ele>72.483</ele>
        <time>2021-06-16T20:19:45Z</time>
      </trkpt>
      <trkpt lat="36.693562" lon="-4.678692">
        <ele>72.447</ele>
        <time>2021-06-16T20:19:46Z</time>
      </trkpt>
      <trkpt lat="36.693457" lon="-4.679044">
        <ele>71.847</ele>
        <time>2021-06-16T20:19:48Z</time>
      </trkpt>
      <trkpt lat="36.693402" lon="-4.679216">
        <ele>71.629</ele>
        <time>2021-06-16T20:19:49Z</time>
      </trkpt>
      <trkpt lat="36.69327" lon="-4.679545">
        <ele>70.521</ele>
        <time>2021-06-16T20:19:51Z</time>
      </trkpt>
      <trkpt lat="36.693101" lon="-4.67985">
        <ele>69.408</ele>
        <time>2021-06-16T20:19:53Z</time>
      </trkpt>
      <trkpt lat="36.692928" lon="-4.680156">
        <ele>69.021</ele>
        <time>2021-06-16T20:19:55Z</time>
      </trkpt>
      <trkpt lat="36.692751" lon="-4.680462">
        <ele>68.650</ele>
        <time>2021-06-16T20:19:57Z</time>
      </trkpt>
      <trkpt lat="36.692573" lon="-4.680761">
        <ele>68.464</ele>
        <time>2021-06-16T20:19:59Z</time>
      </trkpt>
      <trkpt lat="36.692394" lon="-4.681046">
        <ele>67.964</ele>
        <time>2021-06-16T20:20:01Z</time>
      </trkpt>
      <trkpt lat="36.692308" lon="-4.68119">
        <ele>68.290</ele>
        <time>2021-06-16T20:20:02Z</time>
      </trkpt>
      <trkpt lat="36.69222" lon="-4.681338">
        <ele>68.932</ele>
        <time>2021-06-16T20:20:03Z</time>
      </trkpt>
      <trkpt lat="36.692048" lon="-4.681625">
        <ele>69.521</ele>
        <time>2021-06-16T20:20:05Z</time>
      </trkpt>
      <trkpt lat="36.691868" lon="-4.681912">
        <ele>70.225</ele>
        <time>2021-06-16T20:20:07Z</time>
      </trkpt>
      <trkpt lat="36.691776" lon="-4.682052">
        <ele>71.066</ele>
        <time>2021-06-16T20:20:08Z</time>
      </trkpt>
      <trkpt lat="36.69169" lon="-4.682191">
        <ele>71.929</ele>
        <time>2021-06-16T20:20:09Z</time>
      </trkpt>
      <trkpt lat="36.691603" lon="-4.682334">
        <ele>72.921</ele>
        <time>2021-06-16T20:20:10Z</time>
      </trkpt>
      <trkpt lat="36.691419" lon="-4.682609">
        <ele>74.408</ele>
        <time>2021-06-16T20:20:12Z</time>
      </trkpt>
      <trkpt lat="36.691313" lon="-4.682731">
        <ele>75.293</ele>
        <time>2021-06-16T20:20:13Z</time>
      </trkpt>
      <trkpt lat="36.691196" lon="-4.68284">
        <ele>76.022</ele>
        <time>2021-06-16T20:20:14Z</time>
      </trkpt>
      <trkpt lat="36.69094" lon="-4.683047">
        <ele>76.916</ele>
        <time>2021-06-16T20:20:16Z</time>
      </trkpt>
      <trkpt lat="36.690677" lon="-4.683239">
        <ele>78.276</ele>
        <time>2021-06-16T20:20:18Z</time>
      </trkpt>
      <trkpt lat="36.690419" lon="-4.683447">
        <ele>79.452</ele>
        <time>2021-06-16T20:20:20Z</time>
      </trkpt>
      <trkpt lat="36.690293" lon="-4.683555">
        <ele>80.324</ele>
        <time>2021-06-16T20:20:21Z</time>
      </trkpt>
      <trkpt lat="36.690059" lon="-4.683778">
        <ele>81.543</ele>
        <time>2021-06-16T20:20:23Z</time>
      </trkpt>
      <trkpt lat="36.689956" lon="-4.683906">
        <ele>82.357</ele>
        <time>2021-06-16T20:20:24Z</time>
      </trkpt>
      <trkpt lat="36.68979" lon="-4.684198">
        <ele>83.484</ele>
        <time>2021-06-16T20:20:26Z</time>
      </trkpt>
      <trkpt lat="36.689715" lon="-4.68435">
        <ele>84.407</ele>
        <time>2021-06-16T20:20:27Z</time>
      </trkpt>
      <trkpt lat="36.689578" lon="-4.684661">
        <ele>85.117</ele>
        <time>2021-06-16T20:20:29Z</time>
      </trkpt>
      <trkpt lat="36.68943" lon="-4.684971">
        <ele>86.708</ele>
        <time>2021-06-16T20:20:31Z</time>
      </trkpt>
      <trkpt lat="36.689273" lon="-4.685276">
        <ele>87.815</ele>
        <time>2021-06-16T20:20:33Z</time>
      </trkpt>
      <trkpt lat="36.689197" lon="-4.685426">
        <ele>88.654</ele>
        <time>2021-06-16T20:20:34Z</time>
      </trkpt>
      <trkpt lat="36.689121" lon="-4.685574">
        <ele>89.598</ele>
        <time>2021-06-16T20:20:35Z</time>
      </trkpt>
      <trkpt lat="36.689048" lon="-4.685721">
        <ele>90.258</ele>
        <time>2021-06-16T20:20:36Z</time>
      </trkpt>
      <trkpt lat="36.688977" lon="-4.685872">
        <ele>90.534</ele>
        <time>2021-06-16T20:20:37Z</time>
      </trkpt>
      <trkpt lat="36.688839" lon="-4.686184">
        <ele>90.436</ele>
        <time>2021-06-16T20:20:39Z</time>
      </trkpt>
      <trkpt lat="36.688769" lon="-4.686348">
        <ele>90.565</ele>
        <time>2021-06-16T20:20:40Z</time>
      </trkpt>
      <trkpt lat="36.688698" lon="-4.686514">
        <ele>90.699</ele>
        <time>2021-06-16T20:20:41Z</time>
      </trkpt>
      <trkpt lat="36.688554" lon="-4.686857">
        <ele>90.794</ele>
        <time>2021-06-16T20:20:43Z</time>
      </trkpt>
      <trkpt lat="36.688404" lon="-4.687203">
        <ele>90.857</ele>
        <time>2021-06-16T20:20:45Z</time>
      </trkpt>
      <trkpt lat="36.688253" lon="-4.687552">
        <ele>91.022</ele>
        <time>2021-06-16T20:20:47Z</time>
      </trkpt>
      <trkpt lat="36.688101" lon="-4.687889">
        <ele>91.608</ele>
        <time>2021-06-16T20:20:49Z</time>
      </trkpt>
      <trkpt lat="36.687959" lon="-4.688205">
        <ele>91.856</ele>
        <time>2021-06-16T20:20:51Z</time>
      </trkpt>
      <trkpt lat="36.687821" lon="-4.688517">
        <ele>92.095</ele>
        <time>2021-06-16T20:20:53Z</time>
      </trkpt>
      <trkpt lat="36.687683" lon="-4.688836">
        <ele>92.269</ele>
        <time>2021-06-16T20:20:55Z</time>
      </trkpt>
      <trkpt lat="36.687539" lon="-4.689162">
        <ele>92.029</ele>
        <time>2021-06-16T20:20:57Z</time>
      </trkpt>
      <trkpt lat="36.687395" lon="-4.689491">
        <ele>92.115</ele>
        <time>2021-06-16T20:20:59Z</time>
      </trkpt>
      <trkpt lat="36.687321" lon="-4.689651">
        <ele>92.237</ele>
        <time>2021-06-16T20:21:00Z</time>
      </trkpt>
      <trkpt lat="36.687183" lon="-4.689961">
        <ele>91.496</ele>
        <time>2021-06-16T20:21:02Z</time>
      </trkpt>
      <trkpt lat="36.687039" lon="-4.690278">
        <ele>90.750</ele>
        <time>2021-06-16T20:21:04Z</time>
      </trkpt>
      <trkpt lat="36.686967" lon="-4.690442">
        <ele>90.254</ele>
        <time>2021-06-16T20:21:05Z</time>
      </trkpt>
      <trkpt lat="36.686813" lon="-4.690774">
        <ele>89.156</ele>
        <time>2021-06-16T20:21:07Z</time>
      </trkpt>
      <trkpt lat="36.686733" lon="-4.690943">
        <ele>88.011</ele>
        <time>2021-06-16T20:21:08Z</time>
      </trkpt>
      <trkpt lat="36.686656" lon="-4.691118">
        <ele>86.908</ele>
        <time>2021-06-16T20:21:09Z</time>
      </trkpt>
      <trkpt lat="36.68658" lon="-4.691292">
        <ele>86.522</ele>
        <time>2021-06-16T20:21:10Z</time>
      </trkpt>
      <trkpt lat="36.686441" lon="-4.69164">
        <ele>86.641</ele>
        <time>2021-06-16T20:21:12Z</time>
      </trkpt>
      <trkpt lat="36.686387" lon="-4.691821">
        <ele>86.225</ele>
        <time>2021-06-16T20:21:13Z</time>
      </trkpt>
      <trkpt lat="36.686319" lon="-4.692217">
        <ele>85.935</ele>
        <time>2021-06-16T20:21:15Z</time>
      </trkpt>
      <trkpt lat="36.686294" lon="-4.692426">
        <ele>85.781</ele>
        <time>2021-06-16T20:21:16Z</time>
      </trkpt>
      <trkpt lat="36.686226" lon="-4.692835">
        <ele>85.773</ele>
        <time>2021-06-16T20:21:18Z</time>
      </trkpt>
      <trkpt lat="36.686178" lon="-4.693036">
        <ele>85.542</ele>
        <time>2021-06-16T20:21:19Z</time>
      </trkpt>
      <trkpt lat="36.686046" lon="-4.693427">
        <ele>84.896</ele>
        <time>2021-06-16T20:21:21Z</time>
      </trkpt>
      <trkpt lat="36.685959" lon="-4.693608">
        <ele>84.595</ele>
        <time>2021-06-16T20:21:22Z</time>
      </trkpt>
      <trkpt lat="36.685743" lon="-4.693934">
        <ele>84.249</ele>
        <time>2021-06-16T20:21:24Z</time>
      </trkpt>
      <trkpt lat="36.685488" lon="-4.694196">
        <ele>84.523</ele>
        <time>2021-06-16T20:21:26Z</time>
      </trkpt>
      <trkpt lat="36.685349" lon="-4.694308">
        <ele>85.308</ele>
        <time>2021-06-16T20:21:27Z</time>
      </trkpt>
      <trkpt lat="36.685078" lon="-4.694531">
        <ele>85.886</ele>
        <time>2021-06-16T20:21:29Z</time>
      </trkpt>
      <trkpt lat="36.684952" lon="-4.694659">
        <ele>86.455</ele>
        <time>2021-06-16T20:21:30Z</time>
      </trkpt>
      <trkpt lat="36.68474" lon="-4.694944">
        <ele>86.729</ele>
        <time>2021-06-16T20:21:32Z</time>
      </trkpt>
      <trkpt lat="36.684642" lon="-4.695097">
        <ele>87.219</ele>
        <time>2021-06-16T20:21:33Z</time>
      </trkpt>
      <trkpt lat="36.684464" lon="-4.695414">
        <ele>88.475</ele>
        <time>2021-06-16T20:21:35Z</time>
      </trkpt>
      <trkpt lat="36.684297" lon="-4.695727">
        <ele>89.217</ele>
        <time>2021-06-16T20:21:37Z</time>
      </trkpt>
      <trkpt lat="36.684214" lon="-4.695889">
        <ele>89.966</ele>
        <time>2021-06-16T20:21:38Z</time>
      </trkpt>
      <trkpt lat="36.684132" lon="-4.696052">
        <ele>90.560</ele>
        <time>2021-06-16T20:21:39Z</time>
      </trkpt>
      <trkpt lat="36.683963" lon="-4.696363">
        <ele>91.659</ele>
        <time>2021-06-16T20:21:41Z</time>
      </trkpt>
      <trkpt lat="36.683811" lon="-4.69665">
        <ele>93.203</ele>
        <time>2021-06-16T20:21:43Z</time>
      </trkpt>
      <trkpt lat="36.683685" lon="-4.69693">
        <ele>94.323</ele>
        <time>2021-06-16T20:21:45Z</time>
      </trkpt>
      <trkpt lat="36.68363" lon="-4.697076">
        <ele>95.508</ele>
        <time>2021-06-16T20:21:46Z</time>
      </trkpt>
      <trkpt lat="36.683533" lon="-4.697379">
        <ele>96.742</ele>
        <time>2021-06-16T20:21:48Z</time>
      </trkpt>
      <trkpt lat="36.68344" lon="-4.697689">
        <ele>98.171</ele>
        <time>2021-06-16T20:21:50Z</time>
      </trkpt>
      <trkpt lat="36.683344" lon="-4.698">
        <ele>99.615</ele>
        <time>2021-06-16T20:21:52Z</time>
      </trkpt>
      <trkpt lat="36.683251" lon="-4.698303">
        <ele>100.235</ele>
        <time>2021-06-16T20:21:54Z</time>
      </trkpt>
      <trkpt lat="36.683208" lon="-4.698446">
        <ele>100.711</ele>
        <time>2021-06-16T20:21:55Z</time>
      </trkpt>
      <trkpt lat="36.683128" lon="-4.698715">
        <ele>101.523</ele>
        <time>2021-06-16T20:21:57Z</time>
      </trkpt>
      <trkpt lat="36.683092" lon="-4.698843">
        <ele>101.992</ele>
        <time>2021-06-16T20:21:58Z</time>
      </trkpt>
      <trkpt lat="36.683035" lon="-4.699082">
        <ele>102.156</ele>
        <time>2021-06-16T20:22:00Z</time>
      </trkpt>
      <trkpt lat="36.683026" lon="-4.6992">
        <ele>102.391</ele>
        <time>2021-06-16T20:22:01Z</time>
      </trkpt>
      <trkpt lat="36.683049" lon="-4.699433">
        <ele>102.581</ele>
        <time>2021-06-16T20:22:03Z</time>
      </trkpt>
      <trkpt lat="36.683044" lon="-4.699525">
        <ele>102.519</ele>
        <time>2021-06-16T20:22:04Z</time>
      </trkpt>
      <trkpt lat="36.682935" lon="-4.699658">
        <ele>102.408</ele>
        <time>2021-06-16T20:22:06Z</time>
      </trkpt>
      <trkpt lat="36.682801" lon="-4.699788">
        <ele>102.376</ele>
        <time>2021-06-16T20:22:08Z</time>
      </trkpt>
      <trkpt lat="36.682713" lon="-4.70001">
        <ele>103.485</ele>
        <time>2021-06-16T20:22:10Z</time>
      </trkpt>
      <trkpt lat="36.68262" lon="-4.700264">
        <ele>104.599</ele>
        <time>2021-06-16T20:22:12Z</time>
      </trkpt>
      <trkpt lat="36.682569" lon="-4.7004">
        <ele>105.259</ele>
        <time>2021-06-16T20:22:13Z</time>
      </trkpt>
      <trkpt lat="36.682518" lon="-4.700542">
        <ele>106.235</ele>
        <time>2021-06-16T20:22:14Z</time>
      </trkpt>
      <trkpt lat="36.682412" lon="-4.700827">
        <ele>107.167</ele>
        <time>2021-06-16T20:22:16Z</time>
      </trkpt>
      <trkpt lat="36.682356" lon="-4.700972">
        <ele>107.916</ele>
        <time>2021-06-16T20:22:17Z</time>
      </trkpt>
      <trkpt lat="36.6823" lon="-4.70112">
        <ele>108.240</ele>
        <time>2021-06-16T20:22:18Z</time>
      </trkpt>
      <trkpt lat="36.682242" lon="-4.701266">
        <ele>108.462</ele>
        <time>2021-06-16T20:22:19Z</time>
      </trkpt>
      <trkpt lat="36.682115" lon="-4.701557">
        <ele>109.183</ele>
        <time>2021-06-16T20:22:21Z</time>
      </trkpt>
      <trkpt lat="36.68204" lon="-4.701699">
        <ele>110.211</ele>
        <time>2021-06-16T20:22:22Z</time>
      </trkpt>
      <trkpt lat="36.681955" lon="-4.701834">
        <ele>110.208</ele>
        <time>2021-06-16T20:22:23Z</time>
      </trkpt>
      <trkpt lat="36.681778" lon="-4.702087">
        <ele>111.163</ele>
        <time>2021-06-16T20:22:25Z</time>
      </trkpt>
      <trkpt lat="36.681614" lon="-4.702344">
        <ele>112.062</ele>
        <time>2021-06-16T20:22:27Z</time>
      </trkpt>
      <trkpt lat="36.681534" lon="-4.702478">
        <ele>112.676</ele>
        <time>2021-06-16T20:22:28Z</time>
      </trkpt>
      <trkpt lat="36.681392" lon="-4.702755">
        <ele>113.196</ele>
        <time>2021-06-16T20:22:30Z</time>
      </trkpt>
      <trkpt lat="36.681335" lon="-4.70291">
        <ele>113.552</ele>
        <time>2021-06-16T20:22:31Z</time>
      </trkpt>
      <trkpt lat="36.681247" lon="-4.703234">
        <ele>113.864</ele>
        <time>2021-06-16T20:22:33Z</time>
      </trkpt>
      <trkpt lat="36.681207" lon="-4.703397">
        <ele>114.043</ele>
        <time>2021-06-16T20:22:34Z</time>
      </trkpt>
      <trkpt lat="36.681127" lon="-4.703729">
        <ele>114.847</ele>
        <time>2021-06-16T20:22:36Z</time>
      </trkpt>
      <trkpt lat="36.681087" lon="-4.703896">
        <ele>115.676</ele>
        <time>2021-06-16T20:22:37Z</time>
      </trkpt>
      <trkpt lat="36.68101" lon="-4.70424">
        <ele>116.590</ele>
        <time>2021-06-16T20:22:39Z</time>
      </trkpt>
      <trkpt lat="36.68093" lon="-4.704586">
        <ele>117.519</ele>
        <time>2021-06-16T20:22:41Z</time>
      </trkpt>
      <trkpt lat="36.680888" lon="-4.704758">
        <ele>118.508</ele>
        <time>2021-06-16T20:22:42Z</time>
      </trkpt>
      <trkpt lat="36.680846" lon="-4.704928">
        <ele>119.344</ele>
        <time>2021-06-16T20:22:43Z</time>
      </trkpt>
      <trkpt lat="36.680765" lon="-4.705271">
        <ele>120.323</ele>
        <time>2021-06-16T20:22:45Z</time>
      </trkpt>
      <trkpt lat="36.680675" lon="-4.705621">
        <ele>121.857</ele>
        <time>2021-06-16T20:22:47Z</time>
      </trkpt>
      <trkpt lat="36.680585" lon="-4.705979">
        <ele>123.437</ele>
        <time>2021-06-16T20:22:49Z</time>
      </trkpt>
      <trkpt lat="36.680493" lon="-4.70634">
        <ele>125.093</ele>
        <time>2021-06-16T20:22:51Z</time>
      </trkpt>
      <trkpt lat="36.680401" lon="-4.706704">
        <ele>126.935</ele>
        <time>2021-06-16T20:22:53Z</time>
      </trkpt>
      <trkpt lat="36.68031" lon="-4.707073">
        <ele>128.834</ele>
        <time>2021-06-16T20:22:55Z</time>
      </trkpt>
      <trkpt lat="36.680216" lon="-4.707438">
        <ele>131.148</ele>
        <time>2021-06-16T20:22:57Z</time>
      </trkpt>
      <trkpt lat="36.680124" lon="-4.707798">
        <ele>133.342</ele>
        <time>2021-06-16T20:22:59Z</time>
      </trkpt>
      <trkpt lat="36.680081" lon="-4.707976">
        <ele>135.022</ele>
        <time>2021-06-16T20:23:00Z</time>
      </trkpt>
      <trkpt lat="36.680042" lon="-4.708156">
        <ele>136.514</ele>
        <time>2021-06-16T20:23:01Z</time>
      </trkpt>
      <trkpt lat="36.67998" lon="-4.708518">
        <ele>137.608</ele>
        <time>2021-06-16T20:23:03Z</time>
      </trkpt>
      <trkpt lat="36.67993" lon="-4.708896">
        <ele>139.231</ele>
        <time>2021-06-16T20:23:05Z</time>
      </trkpt>
      <trkpt lat="36.679907" lon="-4.709089">
        <ele>140.440</ele>
        <time>2021-06-16T20:23:06Z</time>
      </trkpt>
      <trkpt lat="36.679871" lon="-4.709474">
        <ele>141.664</ele>
        <time>2021-06-16T20:23:08Z</time>
      </trkpt>
      <trkpt lat="36.679856" lon="-4.709856">
        <ele>142.974</ele>
        <time>2021-06-16T20:23:10Z</time>
      </trkpt>
      <trkpt lat="36.679871" lon="-4.710258">
        <ele>143.660</ele>
        <time>2021-06-16T20:23:12Z</time>
      </trkpt>
      <trkpt lat="36.67989" lon="-4.710662">
        <ele>144.492</ele>
        <time>2021-06-16T20:23:14Z</time>
      </trkpt>
      <trkpt lat="36.679912" lon="-4.711059">
        <ele>144.761</ele>
        <time>2021-06-16T20:23:16Z</time>
      </trkpt>
      <trkpt lat="36.679926" lon="-4.711258">
        <ele>145.335</ele>
        <time>2021-06-16T20:23:17Z</time>
      </trkpt>
      <trkpt lat="36.67995" lon="-4.711652">
        <ele>145.642</ele>
        <time>2021-06-16T20:23:19Z</time>
      </trkpt>
      <trkpt lat="36.67996" lon="-4.711843">
        <ele>146.022</ele>
        <time>2021-06-16T20:23:20Z</time>
      </trkpt>
      <trkpt lat="36.679972" lon="-4.712221">
        <ele>146.514</ele>
        <time>2021-06-16T20:23:22Z</time>
      </trkpt>
      <trkpt lat="36.679971" lon="-4.712409">
        <ele>146.908</ele>
        <time>2021-06-16T20:23:23Z</time>
      </trkpt>
      <trkpt lat="36.679962" lon="-4.712598">
        <ele>147.251</ele>
        <time>2021-06-16T20:23:24Z</time>
      </trkpt>
      <trkpt lat="36.679948" lon="-4.712784">
        <ele>147.610</ele>
        <time>2021-06-16T20:23:25Z</time>
      </trkpt>
      <trkpt lat="36.679919" lon="-4.713149">
        <ele>148.024</ele>
        <time>2021-06-16T20:23:27Z</time>
      </trkpt>
      <trkpt lat="36.679913" lon="-4.713333">
        <ele>148.354</ele>
        <time>2021-06-16T20:23:28Z</time>
      </trkpt>
      <trkpt lat="36.679932" lon="-4.713694">
        <ele>148.520</ele>
        <time>2021-06-16T20:23:30Z</time>
      </trkpt>
      <trkpt lat="36.679959" lon="-4.713881">
        <ele>148.132</ele>
        <time>2021-06-16T20:23:31Z</time>
      </trkpt>
      <trkpt lat="36.680055" lon="-4.714256">
        <ele>148.541</ele>
        <time>2021-06-16T20:23:33Z</time>
      </trkpt>
      <trkpt lat="36.680137" lon="-4.714642">
        <ele>149.195</ele>
        <time>2021-06-16T20:23:35Z</time>
      </trkpt>
      <trkpt lat="36.680165" lon="-4.71484">
        <ele>149.238</ele>
        <time>2021-06-16T20:23:36Z</time>
      </trkpt>
      <trkpt lat="36.68019" lon="-4.715241">
        <ele>149.570</ele>
        <time>2021-06-16T20:23:38Z</time>
      </trkpt>
      <trkpt lat="36.680208" lon="-4.715646">
        <ele>150.317</ele>
        <time>2021-06-16T20:23:40Z</time>
      </trkpt>
      <trkpt lat="36.68023" lon="-4.716047">
        <ele>151.108</ele>
        <time>2021-06-16T20:23:42Z</time>
      </trkpt>
      <trkpt lat="36.680248" lon="-4.716441">
        <ele>151.790</ele>
        <time>2021-06-16T20:23:44Z</time>
      </trkpt>
      <trkpt lat="36.680239" lon="-4.716829">
        <ele>152.299</ele>
        <time>2021-06-16T20:23:46Z</time>
      </trkpt>
      <trkpt lat="36.680216" lon="-4.717025">
        <ele>152.523</ele>
        <time>2021-06-16T20:23:47Z</time>
      </trkpt>
      <trkpt lat="36.680182" lon="-4.717219">
        <ele>152.783</ele>
        <time>2021-06-16T20:23:48Z</time>
      </trkpt>
      <trkpt lat="36.680138" lon="-4.71741">
        <ele>152.749</ele>
        <time>2021-06-16T20:23:49Z</time>
      </trkpt>
      <trkpt lat="36.680039" lon="-4.71779">
        <ele>152.891</ele>
        <time>2021-06-16T20:23:51Z</time>
      </trkpt>
      <trkpt lat="36.67999" lon="-4.717981">
        <ele>152.770</ele>
        <time>2021-06-16T20:23:52Z</time>
      </trkpt>
      <trkpt lat="36.67989" lon="-4.718367">
        <ele>152.844</ele>
        <time>2021-06-16T20:23:54Z</time>
      </trkpt>
      <trkpt lat="36.679839" lon="-4.718558">
        <ele>153.175</ele>
        <time>2021-06-16T20:23:55Z</time>
      </trkpt>
      <trkpt lat="36.679738" lon="-4.718939">
        <ele>153.828</ele>
        <time>2021-06-16T20:23:57Z</time>
      </trkpt>
      <trkpt lat="36.679687" lon="-4.719127">
        <ele>154.420</ele>
        <time>2021-06-16T20:23:58Z</time>
      </trkpt>
      <trkpt lat="36.679583" lon="-4.719503">
        <ele>154.808</ele>
        <time>2021-06-16T20:24:00Z</time>
      </trkpt>
      <trkpt lat="36.679489" lon="-4.719877">
        <ele>155.474</ele>
        <time>2021-06-16T20:24:02Z</time>
      </trkpt>
      <trkpt lat="36.67944" lon="-4.720062">
        <ele>155.793</ele>
        <time>2021-06-16T20:24:03Z</time>
      </trkpt>
      <trkpt lat="36.67934" lon="-4.720423">
        <ele>155.997</ele>
        <time>2021-06-16T20:24:05Z</time>
      </trkpt>
      <trkpt lat="36.679242" lon="-4.720775">
        <ele>156.217</ele>
        <time>2021-06-16T20:24:07Z</time>
      </trkpt>
      <trkpt lat="36.679194" lon="-4.720955">
        <ele>156.383</ele>
        <time>2021-06-16T20:24:08Z</time>
      </trkpt>
      <trkpt lat="36.679098" lon="-4.721307">
        <ele>155.815</ele>
        <time>2021-06-16T20:24:10Z</time>
      </trkpt>
      <trkpt lat="36.67905" lon="-4.721478">
        <ele>155.734</ele>
        <time>2021-06-16T20:24:11Z</time>
      </trkpt>
      <trkpt lat="36.678962" lon="-4.721813">
        <ele>155.528</ele>
        <time>2021-06-16T20:24:13Z</time>
      </trkpt>
      <trkpt lat="36.678914" lon="-4.721985">
        <ele>155.027</ele>
        <time>2021-06-16T20:24:14Z</time>
      </trkpt>
      <trkpt lat="36.67882" lon="-4.72234">
        <ele>155.068</ele>
        <time>2021-06-16T20:24:16Z</time>
      </trkpt>
      <trkpt lat="36.678736" lon="-4.722686">
        <ele>155.114</ele>
        <time>2021-06-16T20:24:18Z</time>
      </trkpt>
      <trkpt lat="36.67866" lon="-4.723008">
        <ele>155.508</ele>
        <time>2021-06-16T20:24:20Z</time>
      </trkpt>
      <trkpt lat="36.678582" lon="-4.723296">
        <ele>156.239</ele>
        <time>2021-06-16T20:24:22Z</time>
      </trkpt>
      <trkpt lat="36.678498" lon="-4.723558">
        <ele>157.368</ele>
        <time>2021-06-16T20:24:24Z</time>
      </trkpt>
      <trkpt lat="36.678461" lon="-4.723672">
        <ele>158.292</ele>
        <time>2021-06-16T20:24:25Z</time>
      </trkpt>
      <trkpt lat="36.678396" lon="-4.723851">
        <ele>159.042</ele>
        <time>2021-06-16T20:24:27Z</time>
      </trkpt>
      <trkpt lat="36.678371" lon="-4.723929">
        <ele>159.318</ele>
        <time>2021-06-16T20:24:28Z</time>
      </trkpt>
      <trkpt lat="36.678325" lon="-4.724053">
        <ele>160.010</ele>
        <time>2021-06-16T20:24:30Z</time>
      </trkpt>
      <trkpt lat="36.6783" lon="-4.724102">
        <ele>160.469</ele>
        <time>2021-06-16T20:24:33Z</time>
      </trkpt>
      <trkpt lat="36.678283" lon="-4.724167">
        <ele>160.533</ele>
        <time>2021-06-16T20:24:36Z</time>
      </trkpt>
      <trkpt lat="36.678299" lon="-4.72426">
        <ele>160.466</ele>
        <time>2021-06-16T20:24:38Z</time>
      </trkpt>
      <trkpt lat="36.678343" lon="-4.72436">
        <ele>161.529</ele>
        <time>2021-06-16T20:24:39Z</time>
      </trkpt>
      <trkpt lat="36.678404" lon="-4.724441">
        <ele>162.221</ele>
        <time>2021-06-16T20:24:40Z</time>
      </trkpt>
      <trkpt lat="36.678521" lon="-4.724658">
        <ele>162.608</ele>
        <time>2021-06-16T20:24:42Z</time>
      </trkpt>
      <trkpt lat="36.678564" lon="-4.724943">
        <ele>162.863</ele>
        <time>2021-06-16T20:24:44Z</time>
      </trkpt>
      <trkpt lat="36.678508" lon="-4.725217">
        <ele>162.942</ele>
        <time>2021-06-16T20:24:46Z</time>
      </trkpt>
      <trkpt lat="36.678446" lon="-4.725335">
        <ele>163.036</ele>
        <time>2021-06-16T20:24:47Z</time>
      </trkpt>
      <trkpt lat="36.678257" lon="-4.725512">
        <ele>163.026</ele>
        <time>2021-06-16T20:24:49Z</time>
      </trkpt>
      <trkpt lat="36.678029" lon="-4.72558">
        <ele>163.092</ele>
        <time>2021-06-16T20:24:51Z</time>
      </trkpt>
      <trkpt lat="36.677801" lon="-4.725535">
        <ele>163.074</ele>
        <time>2021-06-16T20:24:53Z</time>
      </trkpt>
      <trkpt lat="36.677689" lon="-4.725481">
        <ele>163.063</ele>
        <time>2021-06-16T20:24:54Z</time>
      </trkpt>
      <trkpt lat="36.677455" lon="-4.725393">
        <ele>163.037</ele>
        <time>2021-06-16T20:24:56Z</time>
      </trkpt>
      <trkpt lat="36.677191" lon="-4.725366">
        <ele>163.096</ele>
        <time>2021-06-16T20:24:58Z</time>
      </trkpt>
      <trkpt lat="36.67689" lon="-4.725349">
        <ele>163.031</ele>
        <time>2021-06-16T20:25:00Z</time>
      </trkpt>
      <trkpt lat="36.67658" lon="-4.72536">
        <ele>163.024</ele>
        <time>2021-06-16T20:25:02Z</time>
      </trkpt>
      <trkpt lat="36.676268" lon="-4.725396">
        <ele>163.008</ele>
        <time>2021-06-16T20:25:04Z</time>
      </trkpt>
      <trkpt lat="36.675956" lon="-4.725446">
        <ele>163.076</ele>
        <time>2021-06-16T20:25:06Z</time>
      </trkpt>
      <trkpt lat="36.675796" lon="-4.725472">
        <ele>163.055</ele>
        <time>2021-06-16T20:25:07Z</time>
      </trkpt>
      <trkpt lat="36.675635" lon="-4.725499">
        <ele>163.049</ele>
        <time>2021-06-16T20:25:08Z</time>
      </trkpt>
      <trkpt lat="36.675307" lon="-4.725564">
        <ele>163.029</ele>
        <time>2021-06-16T20:25:10Z</time>
      </trkpt>
      <trkpt lat="36.675142" lon="-4.725603">
        <ele>163.075</ele>
        <time>2021-06-16T20:25:11Z</time>
      </trkpt>
      <trkpt lat="36.674807" lon="-4.72568">
        <ele>163.017</ele>
        <time>2021-06-16T20:25:13Z</time>
      </trkpt>
      <trkpt lat="36.674637" lon="-4.725716">
        <ele>163.046</ele>
        <time>2021-06-16T20:25:14Z</time>
      </trkpt>
      <trkpt lat="36.674465" lon="-4.725748">
        <ele>163.050</ele>
        <time>2021-06-16T20:25:15Z</time>
      </trkpt>
      <trkpt lat="36.674295" lon="-4.725785">
        <ele>163.075</ele>
        <time>2021-06-16T20:25:16Z</time>
      </trkpt>
      <trkpt lat="36.674123" lon="-4.725824">
        <ele>163.028</ele>
        <time>2021-06-16T20:25:17Z</time>
      </trkpt>
      <trkpt lat="36.673781" lon="-4.725912">
        <ele>163.020</ele>
        <time>2021-06-16T20:25:19Z</time>
      </trkpt>
      <trkpt lat="36.673434" lon="-4.726">
        <ele>163.008</ele>
        <time>2021-06-16T20:25:21Z</time>
      </trkpt>
      <trkpt lat="36.673258" lon="-4.726043">
        <ele>163.014</ele>
        <time>2021-06-16T20:25:22Z</time>
      </trkpt>
      <trkpt lat="36.672909" lon="-4.726136">
        <ele>163.053</ele>
        <time>2021-06-16T20:25:24Z</time>
      </trkpt>
      <trkpt lat="36.672733" lon="-4.726184">
        <ele>163.047</ele>
        <time>2021-06-16T20:25:25Z</time>
      </trkpt>
      <trkpt lat="36.672381" lon="-4.726281">
        <ele>163.087</ele>
        <time>2021-06-16T20:25:27Z</time>
      </trkpt>
      <trkpt lat="36.672029" lon="-4.726385">
        <ele>163.063</ele>
        <time>2021-06-16T20:25:29Z</time>
      </trkpt>
      <trkpt lat="36.671676" lon="-4.726486">
        <ele>163.075</ele>
        <time>2021-06-16T20:25:31Z</time>
      </trkpt>
      <trkpt lat="36.671303" lon="-4.726586">
        <ele>163.064</ele>
        <time>2021-06-16T20:25:33Z</time>
      </trkpt>
      <trkpt lat="36.670929" lon="-4.726693">
        <ele>163.038</ele>
        <time>2021-06-16T20:25:35Z</time>
      </trkpt>
      <trkpt lat="36.670547" lon="-4.726817">
        <ele>163.067</ele>
        <time>2021-06-16T20:25:37Z</time>
      </trkpt>
      <trkpt lat="36.670163" lon="-4.726946">
        <ele>159.081</ele>
        <time>2021-06-16T20:25:39Z</time>
      </trkpt>
      <trkpt lat="36.669972" lon="-4.72701">
        <ele>155.519</ele>
        <time>2021-06-16T20:25:40Z</time>
      </trkpt>
      <trkpt lat="36.669597" lon="-4.727138">
        <ele>152.408</ele>
        <time>2021-06-16T20:25:42Z</time>
      </trkpt>
      <trkpt lat="36.669406" lon="-4.727203">
        <ele>150.223</ele>
        <time>2021-06-16T20:25:43Z</time>
      </trkpt>
      <trkpt lat="36.669022" lon="-4.727335">
        <ele>147.882</ele>
        <time>2021-06-16T20:25:45Z</time>
      </trkpt>
      <trkpt lat="36.668828" lon="-4.7274">
        <ele>146.366</ele>
        <time>2021-06-16T20:25:46Z</time>
      </trkpt>
      <trkpt lat="36.668438" lon="-4.727529">
        <ele>144.466</ele>
        <time>2021-06-16T20:25:48Z</time>
      </trkpt>
      <trkpt lat="36.668051" lon="-4.727659">
        <ele>142.672</ele>
        <time>2021-06-16T20:25:50Z</time>
      </trkpt>
      <trkpt lat="36.667855" lon="-4.727721">
        <ele>141.064</ele>
        <time>2021-06-16T20:25:51Z</time>
      </trkpt>
      <trkpt lat="36.667465" lon="-4.727845">
        <ele>139.433</ele>
        <time>2021-06-16T20:25:53Z</time>
      </trkpt>
      <trkpt lat="36.667271" lon="-4.727906">
        <ele>138.277</ele>
        <time>2021-06-16T20:25:54Z</time>
      </trkpt>
      <trkpt lat="36.667078" lon="-4.727965">
        <ele>137.494</ele>
        <time>2021-06-16T20:25:55Z</time>
      </trkpt>
      <trkpt lat="36.666886" lon="-4.728024">
        <ele>136.657</ele>
        <time>2021-06-16T20:25:56Z</time>
      </trkpt>
      <trkpt lat="36.666698" lon="-4.728084">
        <ele>136.222</ele>
        <time>2021-06-16T20:25:57Z</time>
      </trkpt>
      <trkpt lat="36.666325" lon="-4.728193">
        <ele>135.708</ele>
        <time>2021-06-16T20:25:59Z</time>
      </trkpt>
      <trkpt lat="36.665948" lon="-4.728298">
        <ele>135.676</ele>
        <time>2021-06-16T20:26:01Z</time>
      </trkpt>
      <trkpt lat="36.665568" lon="-4.728406">
        <ele>135.645</ele>
        <time>2021-06-16T20:26:03Z</time>
      </trkpt>
      <trkpt lat="36.665193" lon="-4.728526">
        <ele>135.699</ele>
        <time>2021-06-16T20:26:05Z</time>
      </trkpt>
      <trkpt lat="36.664998" lon="-4.72859">
        <ele>135.729</ele>
        <time>2021-06-16T20:26:06Z</time>
      </trkpt>
      <trkpt lat="36.664635" lon="-4.7287">
        <ele>135.815</ele>
        <time>2021-06-16T20:26:08Z</time>
      </trkpt>
      <trkpt lat="36.664269" lon="-4.728803">
        <ele>136.857</ele>
        <time>2021-06-16T20:26:10Z</time>
      </trkpt>
      <trkpt lat="36.664084" lon="-4.728854">
        <ele>137.836</ele>
        <time>2021-06-16T20:26:11Z</time>
      </trkpt>
      <trkpt lat="36.663718" lon="-4.728956">
        <ele>138.990</ele>
        <time>2021-06-16T20:26:13Z</time>
      </trkpt>
      <trkpt lat="36.663535" lon="-4.729004">
        <ele>140.064</ele>
        <time>2021-06-16T20:26:14Z</time>
      </trkpt>
      <trkpt lat="36.663175" lon="-4.729097">
        <ele>141.306</ele>
        <time>2021-06-16T20:26:16Z</time>
      </trkpt>
      <trkpt lat="36.662817" lon="-4.729189">
        <ele>142.716</ele>
        <time>2021-06-16T20:26:18Z</time>
      </trkpt>
      <trkpt lat="36.662637" lon="-4.729234">
        <ele>144.008</ele>
        <time>2021-06-16T20:26:19Z</time>
      </trkpt>
      <trkpt lat="36.662459" lon="-4.729285">
        <ele>144.863</ele>
        <time>2021-06-16T20:26:20Z</time>
      </trkpt>
      <trkpt lat="36.662113" lon="-4.729412">
        <ele>146.652</ele>
        <time>2021-06-16T20:26:22Z</time>
      </trkpt>
      <trkpt lat="36.661773" lon="-4.72956">
        <ele>148.926</ele>
        <time>2021-06-16T20:26:24Z</time>
      </trkpt>
      <trkpt lat="36.661606" lon="-4.729639">
        <ele>151.176</ele>
        <time>2021-06-16T20:26:25Z</time>
      </trkpt>
      <trkpt lat="36.661274" lon="-4.729809">
        <ele>153.592</ele>
        <time>2021-06-16T20:26:27Z</time>
      </trkpt>
      <trkpt lat="36.660955" lon="-4.729997">
        <ele>156.064</ele>
        <time>2021-06-16T20:26:29Z</time>
      </trkpt>
      <trkpt lat="36.6608" lon="-4.730102">
        <ele>158.353</ele>
        <time>2021-06-16T20:26:30Z</time>
      </trkpt>
      <trkpt lat="36.660647" lon="-4.730214">
        <ele>160.377</ele>
        <time>2021-06-16T20:26:31Z</time>
      </trkpt>
      <trkpt lat="36.660495" lon="-4.730327">
        <ele>162.035</ele>
        <time>2021-06-16T20:26:32Z</time>
      </trkpt>
      <trkpt lat="36.660194" lon="-4.73057">
        <ele>164.286</ele>
        <time>2021-06-16T20:26:34Z</time>
      </trkpt>
      <trkpt lat="36.659895" lon="-4.730825">
        <ele>166.914</ele>
        <time>2021-06-16T20:26:36Z</time>
      </trkpt>
      <trkpt lat="36.659609" lon="-4.731105">
        <ele>169.908</ele>
        <time>2021-06-16T20:26:38Z</time>
      </trkpt>
      <trkpt lat="36.659332" lon="-4.731402">
        <ele>172.450</ele>
        <time>2021-06-16T20:26:40Z</time>
      </trkpt>
      <trkpt lat="36.659194" lon="-4.731562">
        <ele>174.649</ele>
        <time>2021-06-16T20:26:41Z</time>
      </trkpt>
      <trkpt lat="36.658932" lon="-4.731891">
        <ele>176.953</ele>
        <time>2021-06-16T20:26:43Z</time>
      </trkpt>
      <trkpt lat="36.658684" lon="-4.732228">
        <ele>179.443</ele>
        <time>2021-06-16T20:26:45Z</time>
      </trkpt>
      <trkpt lat="36.658461" lon="-4.732591">
        <ele>182.019</ele>
        <time>2021-06-16T20:26:47Z</time>
      </trkpt>
      <trkpt lat="36.658354" lon="-4.73278">
        <ele>184.471</ele>
        <time>2021-06-16T20:26:48Z</time>
      </trkpt>
      <trkpt lat="36.658144" lon="-4.733162">
        <ele>187.250</ele>
        <time>2021-06-16T20:26:50Z</time>
      </trkpt>
      <trkpt lat="36.657947" lon="-4.733554">
        <ele>190.144</ele>
        <time>2021-06-16T20:26:52Z</time>
      </trkpt>
      <trkpt lat="36.657852" lon="-4.733751">
        <ele>192.522</ele>
        <time>2021-06-16T20:26:53Z</time>
      </trkpt>
      <trkpt lat="36.657662" lon="-4.734144">
        <ele>194.562</ele>
        <time>2021-06-16T20:26:55Z</time>
      </trkpt>
      <trkpt lat="36.657565" lon="-4.734348">
        <ele>195.908</ele>
        <time>2021-06-16T20:26:56Z</time>
      </trkpt>
      <trkpt lat="36.657377" lon="-4.734758">
        <ele>197.608</ele>
        <time>2021-06-16T20:26:58Z</time>
      </trkpt>
      <trkpt lat="36.657279" lon="-4.734963">
        <ele>198.919</ele>
        <time>2021-06-16T20:26:59Z</time>
      </trkpt>
      <trkpt lat="36.657082" lon="-4.735368">
        <ele>200.248</ele>
        <time>2021-06-16T20:27:01Z</time>
      </trkpt>
      <trkpt lat="36.656888" lon="-4.735757">
        <ele>202.212</ele>
        <time>2021-06-16T20:27:03Z</time>
      </trkpt>
      <trkpt lat="36.656791" lon="-4.735951">
        <ele>204.292</ele>
        <time>2021-06-16T20:27:04Z</time>
      </trkpt>
      <trkpt lat="36.656596" lon="-4.736336">
        <ele>207.328</ele>
        <time>2021-06-16T20:27:06Z</time>
      </trkpt>
      <trkpt lat="36.656395" lon="-4.736708">
        <ele>210.830</ele>
        <time>2021-06-16T20:27:08Z</time>
      </trkpt>
      <trkpt lat="36.656187" lon="-4.737074">
        <ele>214.359</ele>
        <time>2021-06-16T20:27:10Z</time>
      </trkpt>
      <trkpt lat="36.656081" lon="-4.737251">
        <ele>216.963</ele>
        <time>2021-06-16T20:27:11Z</time>
      </trkpt>
      <trkpt lat="36.655971" lon="-4.737424">
        <ele>218.662</ele>
        <time>2021-06-16T20:27:12Z</time>
      </trkpt>
      <trkpt lat="36.655733" lon="-4.737768">
        <ele>221.283</ele>
        <time>2021-06-16T20:27:14Z</time>
      </trkpt>
      <trkpt lat="36.655502" lon="-4.738081">
        <ele>223.711</ele>
        <time>2021-06-16T20:27:16Z</time>
      </trkpt>
      <trkpt lat="36.655374" lon="-4.738238">
        <ele>226.008</ele>
        <time>2021-06-16T20:27:17Z</time>
      </trkpt>
      <trkpt lat="36.655242" lon="-4.73839">
        <ele>228.033</ele>
        <time>2021-06-16T20:27:18Z</time>
      </trkpt>
      <trkpt lat="36.654966" lon="-4.738675">
        <ele>230.352</ele>
        <time>2021-06-16T20:27:20Z</time>
      </trkpt>
      <trkpt lat="36.654677" lon="-4.738933">
        <ele>233.086</ele>
        <time>2021-06-16T20:27:22Z</time>
      </trkpt>
      <trkpt lat="36.654526" lon="-4.739054">
        <ele>235.296</ele>
        <time>2021-06-16T20:27:23Z</time>
      </trkpt>
      <trkpt lat="36.654217" lon="-4.739277">
        <ele>237.742</ele>
        <time>2021-06-16T20:27:25Z</time>
      </trkpt>
      <trkpt lat="36.653898" lon="-4.739472">
        <ele>240.374</ele>
        <time>2021-06-16T20:27:27Z</time>
      </trkpt>
      <trkpt lat="36.653574" lon="-4.739641">
        <ele>243.163</ele>
        <time>2021-06-16T20:27:29Z</time>
      </trkpt>
      <trkpt lat="36.653239" lon="-4.739778">
        <ele>245.847</ele>
        <time>2021-06-16T20:27:31Z</time>
      </trkpt>
      <trkpt lat="36.65307" lon="-4.73984">
        <ele>247.953</ele>
        <time>2021-06-16T20:27:32Z</time>
      </trkpt>
      <trkpt lat="36.652737" lon="-4.739956">
        <ele>250.004</ele>
        <time>2021-06-16T20:27:34Z</time>
      </trkpt>
      <trkpt lat="36.652407" lon="-4.740065">
        <ele>252.514</ele>
        <time>2021-06-16T20:27:36Z</time>
      </trkpt>
      <trkpt lat="36.65224" lon="-4.740111">
        <ele>254.508</ele>
        <time>2021-06-16T20:27:37Z</time>
      </trkpt>
      <trkpt lat="36.652073" lon="-4.740157">
        <ele>256.432</ele>
        <time>2021-06-16T20:27:38Z</time>
      </trkpt>
      <trkpt lat="36.651904" lon="-4.740202">
        <ele>258.161</ele>
        <time>2021-06-16T20:27:39Z</time>
      </trkpt>
      <trkpt lat="36.651567" lon="-4.740287">
        <ele>260.565</ele>
        <time>2021-06-16T20:27:41Z</time>
      </trkpt>
      <trkpt lat="36.651229" lon="-4.740383">
        <ele>263.545</ele>
        <time>2021-06-16T20:27:43Z</time>
      </trkpt>
      <trkpt lat="36.65089" lon="-4.740486">
        <ele>266.261</ele>
        <time>2021-06-16T20:27:45Z</time>
      </trkpt>
      <trkpt lat="36.650547" lon="-4.740586">
        <ele>269.063</ele>
        <time>2021-06-16T20:27:47Z</time>
      </trkpt>
      <trkpt lat="36.650197" lon="-4.740688">
        <ele>272.012</ele>
        <time>2021-06-16T20:27:49Z</time>
      </trkpt>
      <trkpt lat="36.649849" lon="-4.740793">
        <ele>275.096</ele>
        <time>2021-06-16T20:27:51Z</time>
      </trkpt>
      <trkpt lat="36.649503" lon="-4.740899">
        <ele>278.086</ele>
        <time>2021-06-16T20:27:53Z</time>
      </trkpt>
      <trkpt lat="36.649154" lon="-4.740999">
        <ele>280.860</ele>
        <time>2021-06-16T20:27:55Z</time>
      </trkpt>
      <trkpt lat="36.648811" lon="-4.741101">
        <ele>283.726</ele>
        <time>2021-06-16T20:27:57Z</time>
      </trkpt>
      <trkpt lat="36.648474" lon="-4.741217">
        <ele>286.508</ele>
        <time>2021-06-16T20:27:59Z</time>
      </trkpt>
      <trkpt lat="36.648308" lon="-4.741285">
        <ele>288.885</ele>
        <time>2021-06-16T20:28:00Z</time>
      </trkpt>
      <trkpt lat="36.648144" lon="-4.741359">
        <ele>290.734</ele>
        <time>2021-06-16T20:28:01Z</time>
      </trkpt>
      <trkpt lat="36.647981" lon="-4.741443">
        <ele>292.358</ele>
        <time>2021-06-16T20:28:02Z</time>
      </trkpt>
      <trkpt lat="36.647662" lon="-4.741626">
        <ele>294.448</ele>
        <time>2021-06-16T20:28:04Z</time>
      </trkpt>
      <trkpt lat="36.647349" lon="-4.741835">
        <ele>296.434</ele>
        <time>2021-06-16T20:28:06Z</time>
      </trkpt>
      <trkpt lat="36.647036" lon="-4.742065">
        <ele>298.266</ele>
        <time>2021-06-16T20:28:08Z</time>
      </trkpt>
      <trkpt lat="36.646746" lon="-4.742327">
        <ele>300.755</ele>
        <time>2021-06-16T20:28:10Z</time>
      </trkpt>
      <trkpt lat="36.646603" lon="-4.742471">
        <ele>302.779</ele>
        <time>2021-06-16T20:28:11Z</time>
      </trkpt>
      <trkpt lat="36.646323" lon="-4.74276">
        <ele>305.078</ele>
        <time>2021-06-16T20:28:13Z</time>
      </trkpt>
      <trkpt lat="36.64618" lon="-4.742903">
        <ele>306.633</ele>
        <time>2021-06-16T20:28:14Z</time>
      </trkpt>
      <trkpt lat="36.645904" lon="-4.743208">
        <ele>308.326</ele>
        <time>2021-06-16T20:28:16Z</time>
      </trkpt>
      <trkpt lat="36.645765" lon="-4.743366">
        <ele>309.608</ele>
        <time>2021-06-16T20:28:17Z</time>
      </trkpt>
      <trkpt lat="36.645477" lon="-4.743677">
        <ele>310.834</ele>
        <time>2021-06-16T20:28:19Z</time>
      </trkpt>
      <trkpt lat="36.645189" lon="-4.743981">
        <ele>311.883</ele>
        <time>2021-06-16T20:28:21Z</time>
      </trkpt>
      <trkpt lat="36.644915" lon="-4.744287">
        <ele>312.287</ele>
        <time>2021-06-16T20:28:23Z</time>
      </trkpt>
      <trkpt lat="36.644777" lon="-4.744443">
        <ele>312.787</ele>
        <time>2021-06-16T20:28:24Z</time>
      </trkpt>
      <trkpt lat="36.644637" lon="-4.744598">
        <ele>312.423</ele>
        <time>2021-06-16T20:28:25Z</time>
      </trkpt>
      <trkpt lat="36.644361" lon="-4.744895">
        <ele>312.595</ele>
        <time>2021-06-16T20:28:27Z</time>
      </trkpt>
      <trkpt lat="36.64409" lon="-4.7452">
        <ele>312.894</ele>
        <time>2021-06-16T20:28:29Z</time>
      </trkpt>
      <trkpt lat="36.643949" lon="-4.745355">
        <ele>312.728</ele>
        <time>2021-06-16T20:28:30Z</time>
      </trkpt>
      <trkpt lat="36.643657" lon="-4.745664">
        <ele>312.468</ele>
        <time>2021-06-16T20:28:32Z</time>
      </trkpt>
      <trkpt lat="36.643506" lon="-4.74582">
        <ele>312.742</ele>
        <time>2021-06-16T20:28:33Z</time>
      </trkpt>
      <trkpt lat="36.643358" lon="-4.745981">
        <ele>312.526</ele>
        <time>2021-06-16T20:28:34Z</time>
      </trkpt>
      <trkpt lat="36.643207" lon="-4.74615">
        <ele>312.308</ele>
        <time>2021-06-16T20:28:35Z</time>
      </trkpt>
      <trkpt lat="36.642909" lon="-4.746484">
        <ele>311.963</ele>
        <time>2021-06-16T20:28:37Z</time>
      </trkpt>
      <trkpt lat="36.642621" lon="-4.7468">
        <ele>310.722</ele>
        <time>2021-06-16T20:28:39Z</time>
      </trkpt>
      <trkpt lat="36.642335" lon="-4.747111">
        <ele>310.436</ele>
        <time>2021-06-16T20:28:41Z</time>
      </trkpt>
      <trkpt lat="36.642053" lon="-4.747427">
        <ele>310.146</ele>
        <time>2021-06-16T20:28:43Z</time>
      </trkpt>
      <trkpt lat="36.641777" lon="-4.747734">
        <ele>310.352</ele>
        <time>2021-06-16T20:28:45Z</time>
      </trkpt>
      <trkpt lat="36.641639" lon="-4.747887">
        <ele>310.354</ele>
        <time>2021-06-16T20:28:46Z</time>
      </trkpt>
      <trkpt lat="36.641506" lon="-4.748046">
        <ele>310.253</ele>
        <time>2021-06-16T20:28:47Z</time>
      </trkpt>
      <trkpt lat="36.641378" lon="-4.748205">
        <ele>310.527</ele>
        <time>2021-06-16T20:28:48Z</time>
      </trkpt>
      <trkpt lat="36.641132" lon="-4.748531">
        <ele>311.395</ele>
        <time>2021-06-16T20:28:50Z</time>
      </trkpt>
      <trkpt lat="36.641013" lon="-4.748705">
        <ele>311.949</ele>
        <time>2021-06-16T20:28:51Z</time>
      </trkpt>
      <trkpt lat="36.64078" lon="-4.749055">
        <ele>312.823</ele>
        <time>2021-06-16T20:28:53Z</time>
      </trkpt>
      <trkpt lat="36.640668" lon="-4.749241">
        <ele>313.208</ele>
        <time>2021-06-16T20:28:54Z</time>
      </trkpt>
      <trkpt lat="36.640451" lon="-4.749614">
        <ele>313.546</ele>
        <time>2021-06-16T20:28:56Z</time>
      </trkpt>
      <trkpt lat="36.640245" lon="-4.749996">
        <ele>314.155</ele>
        <time>2021-06-16T20:28:58Z</time>
      </trkpt>
      <trkpt lat="36.640141" lon="-4.750191">
        <ele>315.039</ele>
        <time>2021-06-16T20:28:59Z</time>
      </trkpt>
      <trkpt lat="36.639943" lon="-4.750585">
        <ele>315.899</ele>
        <time>2021-06-16T20:29:01Z</time>
      </trkpt>
      <trkpt lat="36.63976" lon="-4.750991">
        <ele>316.835</ele>
        <time>2021-06-16T20:29:03Z</time>
      </trkpt>
      <trkpt lat="36.639669" lon="-4.751198">
        <ele>317.647</ele>
        <time>2021-06-16T20:29:04Z</time>
      </trkpt>
      <trkpt lat="36.639494" lon="-4.75162">
        <ele>318.416</ele>
        <time>2021-06-16T20:29:06Z</time>
      </trkpt>
      <trkpt lat="36.63932" lon="-4.752044">
        <ele>319.380</ele>
        <time>2021-06-16T20:29:08Z</time>
      </trkpt>
      <trkpt lat="36.639162" lon="-4.75248">
        <ele>320.496</ele>
        <time>2021-06-16T20:29:10Z</time>
      </trkpt>
      <trkpt lat="36.639015" lon="-4.752917">
        <ele>321.331</ele>
        <time>2021-06-16T20:29:12Z</time>
      </trkpt>
      <trkpt lat="36.638879" lon="-4.753362">
        <ele>321.824</ele>
        <time>2021-06-16T20:29:14Z</time>
      </trkpt>
      <trkpt lat="36.638813" lon="-4.753587">
        <ele>322.308</ele>
        <time>2021-06-16T20:29:15Z</time>
      </trkpt>
      <trkpt lat="36.638687" lon="-4.754039">
        <ele>322.566</ele>
        <time>2021-06-16T20:29:17Z</time>
      </trkpt>
      <trkpt lat="36.638631" lon="-4.754265">
        <ele>322.755</ele>
        <time>2021-06-16T20:29:18Z</time>
      </trkpt>
      <trkpt lat="36.638579" lon="-4.754489">
        <ele>322.639</ele>
        <time>2021-06-16T20:29:19Z</time>
      </trkpt>
      <trkpt lat="36.638529" lon="-4.754712">
        <ele>322.899</ele>
        <time>2021-06-16T20:29:20Z</time>
      </trkpt>
      <trkpt lat="36.638436" lon="-4.75515">
        <ele>322.765</ele>
        <time>2021-06-16T20:29:22Z</time>
      </trkpt>
      <trkpt lat="36.638393" lon="-4.755373">
        <ele>322.747</ele>
        <time>2021-06-16T20:29:23Z</time>
      </trkpt>
      <trkpt lat="36.638351" lon="-4.7556">
        <ele>323.096</ele>
        <time>2021-06-16T20:29:24Z</time>
      </trkpt>
      <trkpt lat="36.638276" lon="-4.756051">
        <ele>322.940</ele>
        <time>2021-06-16T20:29:26Z</time>
      </trkpt>
      <trkpt lat="36.638243" lon="-4.756274">
        <ele>322.812</ele>
        <time>2021-06-16T20:29:27Z</time>
      </trkpt>
      <trkpt lat="36.638184" lon="-4.756731">
        <ele>322.532</ele>
        <time>2021-06-16T20:29:29Z</time>
      </trkpt>
      <trkpt lat="36.638135" lon="-4.757192">
        <ele>322.305</ele>
        <time>2021-06-16T20:29:31Z</time>
      </trkpt>
      <trkpt lat="36.638093" lon="-4.757644">
        <ele>321.608</ele>
        <time>2021-06-16T20:29:33Z</time>
      </trkpt>
      <trkpt lat="36.638065" lon="-4.758106">
        <ele>320.868</ele>
        <time>2021-06-16T20:29:35Z</time>
      </trkpt>
      <trkpt lat="36.638061" lon="-4.758537">
        <ele>320.057</ele>
        <time>2021-06-16T20:29:37Z</time>
      </trkpt>
      <trkpt lat="36.638067" lon="-4.75874">
        <ele>319.411</ele>
        <time>2021-06-16T20:29:38Z</time>
      </trkpt>
      <trkpt lat="36.63807" lon="-4.758944">
        <ele>318.581</ele>
        <time>2021-06-16T20:29:39Z</time>
      </trkpt>
      <trkpt lat="36.638073" lon="-4.759371">
        <ele>318.537</ele>
        <time>2021-06-16T20:29:41Z</time>
      </trkpt>
      <trkpt lat="36.638076" lon="-4.759807">
        <ele>318.899</ele>
        <time>2021-06-16T20:29:43Z</time>
      </trkpt>
      <trkpt lat="36.63809" lon="-4.760256">
        <ele>319.318</ele>
        <time>2021-06-16T20:29:45Z</time>
      </trkpt>
      <trkpt lat="36.638103" lon="-4.76049">
        <ele>319.782</ele>
        <time>2021-06-16T20:29:46Z</time>
      </trkpt>
      <trkpt lat="36.638123" lon="-4.760723">
        <ele>319.718</ele>
        <time>2021-06-16T20:29:47Z</time>
      </trkpt>
      <trkpt lat="36.638179" lon="-4.761189">
        <ele>319.798</ele>
        <time>2021-06-16T20:29:49Z</time>
      </trkpt>
      <trkpt lat="36.638223" lon="-4.761671">
        <ele>319.117</ele>
        <time>2021-06-16T20:29:51Z</time>
      </trkpt>
      <trkpt lat="36.638247" lon="-4.761909">
        <ele>318.608</ele>
        <time>2021-06-16T20:29:52Z</time>
      </trkpt>
      <trkpt lat="36.638272" lon="-4.762145">
        <ele>318.158</ele>
        <time>2021-06-16T20:29:53Z</time>
      </trkpt>
      <trkpt lat="36.638324" lon="-4.762637">
        <ele>317.687</ele>
        <time>2021-06-16T20:29:55Z</time>
      </trkpt>
      <trkpt lat="36.638369" lon="-4.763129">
        <ele>317.241</ele>
        <time>2021-06-16T20:29:57Z</time>
      </trkpt>
      <trkpt lat="36.638411" lon="-4.763608">
        <ele>316.111</ele>
        <time>2021-06-16T20:29:59Z</time>
      </trkpt>
      <trkpt lat="36.63845" lon="-4.764092">
        <ele>315.497</ele>
        <time>2021-06-16T20:30:01Z</time>
      </trkpt>
      <trkpt lat="36.638476" lon="-4.764583">
        <ele>315.459</ele>
        <time>2021-06-16T20:30:03Z</time>
      </trkpt>
      <trkpt lat="36.638495" lon="-4.765073">
        <ele>314.958</ele>
        <time>2021-06-16T20:30:05Z</time>
      </trkpt>
      <trkpt lat="36.638505" lon="-4.765559">
        <ele>314.742</ele>
        <time>2021-06-16T20:30:07Z</time>
      </trkpt>
      <trkpt lat="36.638505" lon="-4.765803">
        <ele>315.128</ele>
        <time>2021-06-16T20:30:08Z</time>
      </trkpt>
      <trkpt lat="36.638501" lon="-4.766044">
        <ele>315.389</ele>
        <time>2021-06-16T20:30:09Z</time>
      </trkpt>
      <trkpt lat="36.638488" lon="-4.766519">
        <ele>315.617</ele>
        <time>2021-06-16T20:30:11Z</time>
      </trkpt>
      <trkpt lat="36.638476" lon="-4.766991">
        <ele>315.808</ele>
        <time>2021-06-16T20:30:13Z</time>
      </trkpt>
      <trkpt lat="36.638455" lon="-4.76746">
        <ele>315.969</ele>
        <time>2021-06-16T20:30:15Z</time>
      </trkpt>
      <trkpt lat="36.638436" lon="-4.767924">
        <ele>316.318</ele>
        <time>2021-06-16T20:30:17Z</time>
      </trkpt>
      <trkpt lat="36.638426" lon="-4.768159">
        <ele>316.922</ele>
        <time>2021-06-16T20:30:18Z</time>
      </trkpt>
      <trkpt lat="36.638416" lon="-4.768395">
        <ele>317.282</ele>
        <time>2021-06-16T20:30:19Z</time>
      </trkpt>
      <trkpt lat="36.638408" lon="-4.768629">
        <ele>317.718</ele>
        <time>2021-06-16T20:30:20Z</time>
      </trkpt>
      <trkpt lat="36.6384" lon="-4.768863">
        <ele>317.810</ele>
        <time>2021-06-16T20:30:21Z</time>
      </trkpt>
      <trkpt lat="36.638384" lon="-4.769326">
        <ele>317.679</ele>
        <time>2021-06-16T20:30:23Z</time>
      </trkpt>
      <trkpt lat="36.638363" lon="-4.769765">
        <ele>317.953</ele>
        <time>2021-06-16T20:30:25Z</time>
      </trkpt>
      <trkpt lat="36.638349" lon="-4.76998">
        <ele>318.283</ele>
        <time>2021-06-16T20:30:26Z</time>
      </trkpt>
      <trkpt lat="36.638338" lon="-4.770198">
        <ele>318.225</ele>
        <time>2021-06-16T20:30:27Z</time>
      </trkpt>
      <trkpt lat="36.638345" lon="-4.770632">
        <ele>317.417</ele>
        <time>2021-06-16T20:30:29Z</time>
      </trkpt>
      <trkpt lat="36.638418" lon="-4.771049">
        <ele>316.708</ele>
        <time>2021-06-16T20:30:31Z</time>
      </trkpt>
      <trkpt lat="36.638514" lon="-4.771456">
        <ele>315.215</ele>
        <time>2021-06-16T20:30:33Z</time>
      </trkpt>
      <trkpt lat="36.638636" lon="-4.771855">
        <ele>313.614</ele>
        <time>2021-06-16T20:30:35Z</time>
      </trkpt>
      <trkpt lat="36.638799" lon="-4.77227">
        <ele>311.768</ele>
        <time>2021-06-16T20:30:37Z</time>
      </trkpt>
      <trkpt lat="36.638896" lon="-4.772483">
        <ele>310.048</ele>
        <time>2021-06-16T20:30:38Z</time>
      </trkpt>
      <trkpt lat="36.639122" lon="-4.7729">
        <ele>307.994</ele>
        <time>2021-06-16T20:30:40Z</time>
      </trkpt>
      <trkpt lat="36.639378" lon="-4.773297">
        <ele>305.956</ele>
        <time>2021-06-16T20:30:42Z</time>
      </trkpt>
      <trkpt lat="36.639628" lon="-4.77368">
        <ele>303.565</ele>
        <time>2021-06-16T20:30:44Z</time>
      </trkpt>
      <trkpt lat="36.639737" lon="-4.773884">
        <ele>301.559</ele>
        <time>2021-06-16T20:30:45Z</time>
      </trkpt>
      <trkpt lat="36.639924" lon="-4.774315">
        <ele>299.763</ele>
        <time>2021-06-16T20:30:47Z</time>
      </trkpt>
      <trkpt lat="36.640084" lon="-4.774773">
        <ele>297.944</ele>
        <time>2021-06-16T20:30:49Z</time>
      </trkpt>
      <trkpt lat="36.640206" lon="-4.775232">
        <ele>296.018</ele>
        <time>2021-06-16T20:30:51Z</time>
      </trkpt>
      <trkpt lat="36.64025" lon="-4.775462">
        <ele>294.608</ele>
        <time>2021-06-16T20:30:52Z</time>
      </trkpt>
      <trkpt lat="36.640303" lon="-4.775943">
        <ele>293.373</ele>
        <time>2021-06-16T20:30:54Z</time>
      </trkpt>
      <trkpt lat="36.64032" lon="-4.776187">
        <ele>292.352</ele>
        <time>2021-06-16T20:30:55Z</time>
      </trkpt>
      <trkpt lat="36.640358" lon="-4.776669">
        <ele>291.686</ele>
        <time>2021-06-16T20:30:57Z</time>
      </trkpt>
      <trkpt lat="36.640381" lon="-4.776905">
        <ele>291.286</ele>
        <time>2021-06-16T20:30:58Z</time>
      </trkpt>
      <trkpt lat="36.640408" lon="-4.777139">
        <ele>291.142</ele>
        <time>2021-06-16T20:30:59Z</time>
      </trkpt>
      <trkpt lat="36.640453" lon="-4.777608">
        <ele>290.394</ele>
        <time>2021-06-16T20:31:01Z</time>
      </trkpt>
      <trkpt lat="36.640476" lon="-4.777844">
        <ele>289.913</ele>
        <time>2021-06-16T20:31:02Z</time>
      </trkpt>
      <trkpt lat="36.640511" lon="-4.77832">
        <ele>289.517</ele>
        <time>2021-06-16T20:31:04Z</time>
      </trkpt>
      <trkpt lat="36.640548" lon="-4.778807">
        <ele>288.461</ele>
        <time>2021-06-16T20:31:06Z</time>
      </trkpt>
      <trkpt lat="36.640568" lon="-4.779302">
        <ele>287.821</ele>
        <time>2021-06-16T20:31:08Z</time>
      </trkpt>
      <trkpt lat="36.640523" lon="-4.779799">
        <ele>287.813</ele>
        <time>2021-06-16T20:31:10Z</time>
      </trkpt>
      <trkpt lat="36.6404" lon="-4.780277">
        <ele>287.908</ele>
        <time>2021-06-16T20:31:12Z</time>
      </trkpt>
      <trkpt lat="36.640312" lon="-4.7805">
        <ele>288.323</ele>
        <time>2021-06-16T20:31:13Z</time>
      </trkpt>
      <trkpt lat="36.640092" lon="-4.780898">
        <ele>288.912</ele>
        <time>2021-06-16T20:31:15Z</time>
      </trkpt>
      <trkpt lat="36.639964" lon="-4.781073">
        <ele>289.546</ele>
        <time>2021-06-16T20:31:16Z</time>
      </trkpt>
      <trkpt lat="36.639695" lon="-4.781391">
        <ele>291.016</ele>
        <time>2021-06-16T20:31:18Z</time>
      </trkpt>
      <trkpt lat="36.639423" lon="-4.781696">
        <ele>293.042</ele>
        <time>2021-06-16T20:31:20Z</time>
      </trkpt>
      <trkpt lat="36.639156" lon="-4.782004">
        <ele>295.664</ele>
        <time>2021-06-16T20:31:22Z</time>
      </trkpt>
      <trkpt lat="36.638892" lon="-4.782313">
        <ele>298.453</ele>
        <time>2021-06-16T20:31:24Z</time>
      </trkpt>
      <trkpt lat="36.638655" lon="-4.782645">
        <ele>301.027</ele>
        <time>2021-06-16T20:31:26Z</time>
      </trkpt>
      <trkpt lat="36.638459" lon="-4.783021">
        <ele>303.872</ele>
        <time>2021-06-16T20:31:28Z</time>
      </trkpt>
      <trkpt lat="36.638384" lon="-4.783225">
        <ele>305.713</ele>
        <time>2021-06-16T20:31:29Z</time>
      </trkpt>
      <trkpt lat="36.638277" lon="-4.783655">
        <ele>307.214</ele>
        <time>2021-06-16T20:31:31Z</time>
      </trkpt>
      <trkpt lat="36.638254" lon="-4.783882">
        <ele>308.408</ele>
        <time>2021-06-16T20:31:32Z</time>
      </trkpt>
      <trkpt lat="36.638254" lon="-4.784341">
        <ele>310.094</ele>
        <time>2021-06-16T20:31:34Z</time>
      </trkpt>
      <trkpt lat="36.638309" lon="-4.784797">
        <ele>311.663</ele>
        <time>2021-06-16T20:31:36Z</time>
      </trkpt>
      <trkpt lat="36.638377" lon="-4.785254">
        <ele>313.077</ele>
        <time>2021-06-16T20:31:38Z</time>
      </trkpt>
      <trkpt lat="36.638414" lon="-4.785485">
        <ele>313.827</ele>
        <time>2021-06-16T20:31:39Z</time>
      </trkpt>
      <trkpt lat="36.63848" lon="-4.785961">
        <ele>314.583</ele>
        <time>2021-06-16T20:31:41Z</time>
      </trkpt>
      <trkpt lat="36.638515" lon="-4.786452">
        <ele>314.945</ele>
        <time>2021-06-16T20:31:43Z</time>
      </trkpt>
      <trkpt lat="36.638522" lon="-4.786947">
        <ele>315.864</ele>
        <time>2021-06-16T20:31:45Z</time>
      </trkpt>
      <trkpt lat="36.638517" lon="-4.787197">
        <ele>316.118</ele>
        <time>2021-06-16T20:31:46Z</time>
      </trkpt>
      <trkpt lat="36.638491" lon="-4.787693">
        <ele>316.121</ele>
        <time>2021-06-16T20:31:48Z</time>
      </trkpt>
      <trkpt lat="36.638469" lon="-4.787937">
        <ele>316.241</ele>
        <time>2021-06-16T20:31:49Z</time>
      </trkpt>
      <trkpt lat="36.638439" lon="-4.788177">
        <ele>316.105</ele>
        <time>2021-06-16T20:31:50Z</time>
      </trkpt>
      <trkpt lat="36.638358" lon="-4.788658">
        <ele>316.308</ele>
        <time>2021-06-16T20:31:52Z</time>
      </trkpt>
      <trkpt lat="36.638313" lon="-4.788897">
        <ele>316.089</ele>
        <time>2021-06-16T20:31:53Z</time>
      </trkpt>
      <trkpt lat="36.638266" lon="-4.789136">
        <ele>316.028</ele>
        <time>2021-06-16T20:31:54Z</time>
      </trkpt>
      <trkpt lat="36.638167" lon="-4.789613">
        <ele>316.852</ele>
        <time>2021-06-16T20:31:56Z</time>
      </trkpt>
      <trkpt lat="36.638063" lon="-4.79009">
        <ele>317.852</ele>
        <time>2021-06-16T20:31:58Z</time>
      </trkpt>
      <trkpt lat="36.637964" lon="-4.790565">
        <ele>319.218</ele>
        <time>2021-06-16T20:32:00Z</time>
      </trkpt>
      <trkpt lat="36.637915" lon="-4.790802">
        <ele>320.440</ele>
        <time>2021-06-16T20:32:01Z</time>
      </trkpt>
      <trkpt lat="36.637866" lon="-4.791038">
        <ele>321.549</ele>
        <time>2021-06-16T20:32:02Z</time>
      </trkpt>
      <trkpt lat="36.637765" lon="-4.791528">
        <ele>323.253</ele>
        <time>2021-06-16T20:32:04Z</time>
      </trkpt>
      <trkpt lat="36.637706" lon="-4.791802">
        <ele>324.514</ele>
        <time>2021-06-16T20:32:05Z</time>
      </trkpt>
      <trkpt lat="36.637644" lon="-4.792099">
        <ele>326.054</ele>
        <time>2021-06-16T20:32:06Z</time>
      </trkpt>
      <trkpt lat="36.637588" lon="-4.792417">
        <ele>327.309</ele>
        <time>2021-06-16T20:32:07Z</time>
      </trkpt>
      <trkpt lat="36.637493" lon="-4.793082">
        <ele>329.108</ele>
        <time>2021-06-16T20:32:09Z</time>
      </trkpt>
      <trkpt lat="36.637458" lon="-4.793401">
        <ele>330.738</ele>
        <time>2021-06-16T20:32:10Z</time>
      </trkpt>
      <trkpt lat="36.637424" lon="-4.79399">
        <ele>332.557</ele>
        <time>2021-06-16T20:32:12Z</time>
      </trkpt>
      <trkpt lat="36.637418" lon="-4.794265">
        <ele>334.221</ele>
        <time>2021-06-16T20:32:13Z</time>
      </trkpt>
      <trkpt lat="36.637416" lon="-4.794529">
        <ele>335.031</ele>
        <time>2021-06-16T20:32:14Z</time>
      </trkpt>
      <trkpt lat="36.637436" lon="-4.795022">
        <ele>336.157</ele>
        <time>2021-06-16T20:32:16Z</time>
      </trkpt>
      <trkpt lat="36.637474" lon="-4.795502">
        <ele>336.939</ele>
        <time>2021-06-16T20:32:18Z</time>
      </trkpt>
      <trkpt lat="36.6375" lon="-4.795745">
        <ele>337.058</ele>
        <time>2021-06-16T20:32:19Z</time>
      </trkpt>
      <trkpt lat="36.637566" lon="-4.796226">
        <ele>337.392</ele>
        <time>2021-06-16T20:32:21Z</time>
      </trkpt>
      <trkpt lat="36.637632" lon="-4.796708">
        <ele>336.841</ele>
        <time>2021-06-16T20:32:23Z</time>
      </trkpt>
      <trkpt lat="36.637664" lon="-4.79695">
        <ele>335.981</ele>
        <time>2021-06-16T20:32:24Z</time>
      </trkpt>
      <trkpt lat="36.637702" lon="-4.797193">
        <ele>335.209</ele>
        <time>2021-06-16T20:32:25Z</time>
      </trkpt>
      <trkpt lat="36.637743" lon="-4.797436">
        <ele>334.308</ele>
        <time>2021-06-16T20:32:26Z</time>
      </trkpt>
      <trkpt lat="36.637836" lon="-4.797928">
        <ele>332.531</ele>
        <time>2021-06-16T20:32:28Z</time>
      </trkpt>
      <trkpt lat="36.637926" lon="-4.798428">
        <ele>331.120</ele>
        <time>2021-06-16T20:32:30Z</time>
      </trkpt>
      <trkpt lat="36.637967" lon="-4.79868">
        <ele>329.934</ele>
        <time>2021-06-16T20:32:31Z</time>
      </trkpt>
      <trkpt lat="36.638035" lon="-4.799166">
        <ele>328.834</ele>
        <time>2021-06-16T20:32:33Z</time>
      </trkpt>
      <trkpt lat="36.638054" lon="-4.799411">
        <ele>327.670</ele>
        <time>2021-06-16T20:32:34Z</time>
      </trkpt>
      <trkpt lat="36.638064" lon="-4.799659">
        <ele>326.942</ele>
        <time>2021-06-16T20:32:35Z</time>
      </trkpt>
      <trkpt lat="36.638069" lon="-4.800132">
        <ele>326.211</ele>
        <time>2021-06-16T20:32:37Z</time>
      </trkpt>
      <trkpt lat="36.638065" lon="-4.800367">
        <ele>326.225</ele>
        <time>2021-06-16T20:32:38Z</time>
      </trkpt>
      <trkpt lat="36.638059" lon="-4.8006">
        <ele>326.188</ele>
        <time>2021-06-16T20:32:39Z</time>
      </trkpt>
      <trkpt lat="36.638037" lon="-4.801047">
        <ele>326.024</ele>
        <time>2021-06-16T20:32:41Z</time>
      </trkpt>
      <trkpt lat="36.638017" lon="-4.801266">
        <ele>326.326</ele>
        <time>2021-06-16T20:32:42Z</time>
      </trkpt>
      <trkpt lat="36.637961" lon="-4.8017">
        <ele>326.108</ele>
        <time>2021-06-16T20:32:44Z</time>
      </trkpt>
      <trkpt lat="36.63793" lon="-4.801918">
        <ele>325.965</ele>
        <time>2021-06-16T20:32:45Z</time>
      </trkpt>
      <trkpt lat="36.637852" lon="-4.802345">
        <ele>325.444</ele>
        <time>2021-06-16T20:32:47Z</time>
      </trkpt>
      <trkpt lat="36.637806" lon="-4.802558">
        <ele>325.228</ele>
        <time>2021-06-16T20:32:48Z</time>
      </trkpt>
      <trkpt lat="36.637706" lon="-4.802972">
        <ele>325.388</ele>
        <time>2021-06-16T20:32:50Z</time>
      </trkpt>
      <trkpt lat="36.637648" lon="-4.803178">
        <ele>325.494</ele>
        <time>2021-06-16T20:32:51Z</time>
      </trkpt>
      <trkpt lat="36.637584" lon="-4.803383">
        <ele>325.716</ele>
        <time>2021-06-16T20:32:52Z</time>
      </trkpt>
      <trkpt lat="36.637454" lon="-4.803786">
        <ele>325.575</ele>
        <time>2021-06-16T20:32:54Z</time>
      </trkpt>
      <trkpt lat="36.637392" lon="-4.803987">
        <ele>325.599</ele>
        <time>2021-06-16T20:32:55Z</time>
      </trkpt>
      <trkpt lat="36.637267" lon="-4.804394">
        <ele>325.012</ele>
        <time>2021-06-16T20:32:57Z</time>
      </trkpt>
      <trkpt lat="36.637153" lon="-4.804804">
        <ele>325.232</ele>
        <time>2021-06-16T20:32:59Z</time>
      </trkpt>
      <trkpt lat="36.637043" lon="-4.805225">
        <ele>325.205</ele>
        <time>2021-06-16T20:33:01Z</time>
      </trkpt>
      <trkpt lat="36.636991" lon="-4.805434">
        <ele>325.608</ele>
        <time>2021-06-16T20:33:02Z</time>
      </trkpt>
      <trkpt lat="36.6369" lon="-4.805856">
        <ele>326.348</ele>
        <time>2021-06-16T20:33:04Z</time>
      </trkpt>
      <trkpt lat="36.636821" lon="-4.806282">
        <ele>328.027</ele>
        <time>2021-06-16T20:33:06Z</time>
      </trkpt>
      <trkpt lat="36.636748" lon="-4.806709">
        <ele>329.481</ele>
        <time>2021-06-16T20:33:08Z</time>
      </trkpt>
      <trkpt lat="36.636715" lon="-4.806922">
        <ele>330.511</ele>
        <time>2021-06-16T20:33:09Z</time>
      </trkpt>
      <trkpt lat="36.636682" lon="-4.807137">
        <ele>331.577</ele>
        <time>2021-06-16T20:33:10Z</time>
      </trkpt>
      <trkpt lat="36.636625" lon="-4.80757">
        <ele>332.759</ele>
        <time>2021-06-16T20:33:12Z</time>
      </trkpt>
      <trkpt lat="36.636601" lon="-4.807784">
        <ele>333.778</ele>
        <time>2021-06-16T20:33:13Z</time>
      </trkpt>
      <trkpt lat="36.636556" lon="-4.808219">
        <ele>334.072</ele>
        <time>2021-06-16T20:33:15Z</time>
      </trkpt>
      <trkpt lat="36.636526" lon="-4.80866">
        <ele>334.149</ele>
        <time>2021-06-16T20:33:17Z</time>
      </trkpt>
      <trkpt lat="36.636502" lon="-4.809106">
        <ele>334.202</ele>
        <time>2021-06-16T20:33:19Z</time>
      </trkpt>
      <trkpt lat="36.636495" lon="-4.809334">
        <ele>334.122</ele>
        <time>2021-06-16T20:33:20Z</time>
      </trkpt>
      <trkpt lat="36.636485" lon="-4.8098">
        <ele>334.208</ele>
        <time>2021-06-16T20:33:22Z</time>
      </trkpt>
      <trkpt lat="36.636483" lon="-4.810036">
        <ele>334.311</ele>
        <time>2021-06-16T20:33:23Z</time>
      </trkpt>
      <trkpt lat="36.636493" lon="-4.810498">
        <ele>333.560</ele>
        <time>2021-06-16T20:33:25Z</time>
      </trkpt>
      <trkpt lat="36.6365" lon="-4.810723">
        <ele>332.424</ele>
        <time>2021-06-16T20:33:26Z</time>
      </trkpt>
      <trkpt lat="36.636508" lon="-4.81095">
        <ele>332.064</ele>
        <time>2021-06-16T20:33:27Z</time>
      </trkpt>
      <trkpt lat="36.636507" lon="-4.811188">
        <ele>331.140</ele>
        <time>2021-06-16T20:33:28Z</time>
      </trkpt>
      <trkpt lat="36.636511" lon="-4.811427">
        <ele>330.562</ele>
        <time>2021-06-16T20:33:29Z</time>
      </trkpt>
      <trkpt lat="36.63652" lon="-4.811897">
        <ele>329.641</ele>
        <time>2021-06-16T20:33:31Z</time>
      </trkpt>
      <trkpt lat="36.636524" lon="-4.812129">
        <ele>329.075</ele>
        <time>2021-06-16T20:33:32Z</time>
      </trkpt>
      <trkpt lat="36.636529" lon="-4.812352">
        <ele>328.234</ele>
        <time>2021-06-16T20:33:33Z</time>
      </trkpt>
      <trkpt lat="36.636535" lon="-4.812788">
        <ele>327.255</ele>
        <time>2021-06-16T20:33:35Z</time>
      </trkpt>
      <trkpt lat="36.636535" lon="-4.813012">
        <ele>326.510</ele>
        <time>2021-06-16T20:33:36Z</time>
      </trkpt>
      <trkpt lat="36.636532" lon="-4.813238">
        <ele>325.608</ele>
        <time>2021-06-16T20:33:37Z</time>
      </trkpt>
      <trkpt lat="36.636523" lon="-4.813468">
        <ele>325.390</ele>
        <time>2021-06-16T20:33:38Z</time>
      </trkpt>
      <trkpt lat="36.636474" lon="-4.81392">
        <ele>324.819</ele>
        <time>2021-06-16T20:33:40Z</time>
      </trkpt>
      <trkpt lat="36.636387" lon="-4.814366">
        <ele>324.143</ele>
        <time>2021-06-16T20:33:42Z</time>
      </trkpt>
      <trkpt lat="36.636264" lon="-4.8148">
        <ele>323.353</ele>
        <time>2021-06-16T20:33:44Z</time>
      </trkpt>
      <trkpt lat="36.636102" lon="-4.815222">
        <ele>322.819</ele>
        <time>2021-06-16T20:33:46Z</time>
      </trkpt>
      <trkpt lat="36.636009" lon="-4.815427">
        <ele>322.521</ele>
        <time>2021-06-16T20:33:47Z</time>
      </trkpt>
      <trkpt lat="36.635794" lon="-4.815809">
        <ele>322.270</ele>
        <time>2021-06-16T20:33:49Z</time>
      </trkpt>
      <trkpt lat="36.635672" lon="-4.815991">
        <ele>322.084</ele>
        <time>2021-06-16T20:33:50Z</time>
      </trkpt>
      <trkpt lat="36.63542" lon="-4.81634">
        <ele>321.981</ele>
        <time>2021-06-16T20:33:52Z</time>
      </trkpt>
      <trkpt lat="36.635293" lon="-4.816506">
        <ele>321.961</ele>
        <time>2021-06-16T20:33:53Z</time>
      </trkpt>
      <trkpt lat="36.635038" lon="-4.816839">
        <ele>322.217</ele>
        <time>2021-06-16T20:33:55Z</time>
      </trkpt>
      <trkpt lat="36.634912" lon="-4.817007">
        <ele>322.808</ele>
        <time>2021-06-16T20:33:56Z</time>
      </trkpt>
      <trkpt lat="36.634679" lon="-4.817353">
        <ele>323.895</ele>
        <time>2021-06-16T20:33:58Z</time>
      </trkpt>
      <trkpt lat="36.63457" lon="-4.817532">
        <ele>324.894</ele>
        <time>2021-06-16T20:33:59Z</time>
      </trkpt>
      <trkpt lat="36.634359" lon="-4.817892">
        <ele>326.058</ele>
        <time>2021-06-16T20:34:01Z</time>
      </trkpt>
      <trkpt lat="36.634164" lon="-4.818263">
        <ele>327.698</ele>
        <time>2021-06-16T20:34:03Z</time>
      </trkpt>
      <trkpt lat="36.634001" lon="-4.818647">
        <ele>329.664</ele>
        <time>2021-06-16T20:34:05Z</time>
      </trkpt>
      <trkpt lat="36.633856" lon="-4.819039">
        <ele>331.976</ele>
        <time>2021-06-16T20:34:07Z</time>
      </trkpt>
      <trkpt lat="36.633722" lon="-4.819428">
        <ele>334.395</ele>
        <time>2021-06-16T20:34:09Z</time>
      </trkpt>
      <trkpt lat="36.633587" lon="-4.819819">
        <ele>336.789</ele>
        <time>2021-06-16T20:34:11Z</time>
      </trkpt>
      <trkpt lat="36.633513" lon="-4.820012">
        <ele>338.928</ele>
        <time>2021-06-16T20:34:12Z</time>
      </trkpt>
      <trkpt lat="36.633339" lon="-4.820391">
        <ele>341.089</ele>
        <time>2021-06-16T20:34:14Z</time>
      </trkpt>
      <trkpt lat="36.633226" lon="-4.82057">
        <ele>342.717</ele>
        <time>2021-06-16T20:34:15Z</time>
      </trkpt>
      <trkpt lat="36.63298" lon="-4.8209">
        <ele>344.508</ele>
        <time>2021-06-16T20:34:17Z</time>
      </trkpt>
      <trkpt lat="36.632845" lon="-4.821054">
        <ele>346.069</ele>
        <time>2021-06-16T20:34:18Z</time>
      </trkpt>
      <trkpt lat="36.632701" lon="-4.821195">
        <ele>347.578</ele>
        <time>2021-06-16T20:34:19Z</time>
      </trkpt>
      <trkpt lat="36.632389" lon="-4.821438">
        <ele>349.662</ele>
        <time>2021-06-16T20:34:21Z</time>
      </trkpt>
      <trkpt lat="36.632221" lon="-4.821542">
        <ele>351.482</ele>
        <time>2021-06-16T20:34:22Z</time>
      </trkpt>
      <trkpt lat="36.63187" lon="-4.82171">
        <ele>353.488</ele>
        <time>2021-06-16T20:34:24Z</time>
      </trkpt>
      <trkpt lat="36.631501" lon="-4.821818">
        <ele>355.670</ele>
        <time>2021-06-16T20:34:26Z</time>
      </trkpt>
      <trkpt lat="36.631134" lon="-4.821913">
        <ele>358.269</ele>
        <time>2021-06-16T20:34:28Z</time>
      </trkpt>
      <trkpt lat="36.630954" lon="-4.821974">
        <ele>360.373</ele>
        <time>2021-06-16T20:34:29Z</time>
      </trkpt>
      <trkpt lat="36.630604" lon="-4.822129">
        <ele>362.693</ele>
        <time>2021-06-16T20:34:31Z</time>
      </trkpt>
      <trkpt lat="36.630275" lon="-4.82234">
        <ele>365.065</ele>
        <time>2021-06-16T20:34:33Z</time>
      </trkpt>
      <trkpt lat="36.630117" lon="-4.822468">
        <ele>367.021</ele>
        <time>2021-06-16T20:34:34Z</time>
      </trkpt>
      <trkpt lat="36.629826" lon="-4.82276">
        <ele>369.308</ele>
        <time>2021-06-16T20:34:36Z</time>
      </trkpt>
      <trkpt lat="36.629695" lon="-4.822926">
        <ele>371.256</ele>
        <time>2021-06-16T20:34:37Z</time>
      </trkpt>
      <trkpt lat="36.629574" lon="-4.823103">
        <ele>372.845</ele>
        <time>2021-06-16T20:34:38Z</time>
      </trkpt>
      <trkpt lat="36.629361" lon="-4.823485">
        <ele>375.029</ele>
        <time>2021-06-16T20:34:40Z</time>
      </trkpt>
      <trkpt lat="36.629271" lon="-4.82369">
        <ele>376.749</ele>
        <time>2021-06-16T20:34:41Z</time>
      </trkpt>
      <trkpt lat="36.629133" lon="-4.824117">
        <ele>378.715</ele>
        <time>2021-06-16T20:34:43Z</time>
      </trkpt>
      <trkpt lat="36.629076" lon="-4.824334">
        <ele>380.277</ele>
        <time>2021-06-16T20:34:44Z</time>
      </trkpt>
      <trkpt lat="36.629034" lon="-4.824554">
        <ele>381.066</ele>
        <time>2021-06-16T20:34:45Z</time>
      </trkpt>
      <trkpt lat="36.629008" lon="-4.824779">
        <ele>382.380</ele>
        <time>2021-06-16T20:34:46Z</time>
      </trkpt>
      <trkpt lat="36.628997" lon="-4.825004">
        <ele>383.811</ele>
        <time>2021-06-16T20:34:47Z</time>
      </trkpt>
      <trkpt lat="36.628994" lon="-4.82523">
        <ele>385.121</ele>
        <time>2021-06-16T20:34:48Z</time>
      </trkpt>
      <trkpt lat="36.628999" lon="-4.825682">
        <ele>387.203</ele>
        <time>2021-06-16T20:34:50Z</time>
      </trkpt>
      <trkpt lat="36.629004" lon="-4.82591">
        <ele>389.008</ele>
        <time>2021-06-16T20:34:51Z</time>
      </trkpt>
      <trkpt lat="36.62899" lon="-4.82636">
        <ele>390.978</ele>
        <time>2021-06-16T20:34:53Z</time>
      </trkpt>
      <trkpt lat="36.628968" lon="-4.826583">
        <ele>392.567</ele>
        <time>2021-06-16T20:34:54Z</time>
      </trkpt>
      <trkpt lat="36.628932" lon="-4.826804">
        <ele>393.551</ele>
        <time>2021-06-16T20:34:55Z</time>
      </trkpt>
      <trkpt lat="36.62883" lon="-4.82724">
        <ele>395.371</ele>
        <time>2021-06-16T20:34:57Z</time>
      </trkpt>
      <trkpt lat="36.628765" lon="-4.827457">
        <ele>396.697</ele>
        <time>2021-06-16T20:34:58Z</time>
      </trkpt>
      <trkpt lat="36.628623" lon="-4.827886">
        <ele>398.179</ele>
        <time>2021-06-16T20:35:00Z</time>
      </trkpt>
      <trkpt lat="36.628548" lon="-4.828098">
        <ele>399.728</ele>
        <time>2021-06-16T20:35:01Z</time>
      </trkpt>
      <trkpt lat="36.628412" lon="-4.828531">
        <ele>402.152</ele>
        <time>2021-06-16T20:35:03Z</time>
      </trkpt>
      <trkpt lat="36.628339" lon="-4.828983">
        <ele>404.425</ele>
        <time>2021-06-16T20:35:05Z</time>
      </trkpt>
      <trkpt lat="36.628317" lon="-4.829216">
        <ele>406.126</ele>
        <time>2021-06-16T20:35:06Z</time>
      </trkpt>
      <trkpt lat="36.628297" lon="-4.829448">
        <ele>406.908</ele>
        <time>2021-06-16T20:35:07Z</time>
      </trkpt>
      <trkpt lat="36.628269" lon="-4.829914">
        <ele>408.308</ele>
        <time>2021-06-16T20:35:09Z</time>
      </trkpt>
      <trkpt lat="36.628254" lon="-4.830362">
        <ele>410.059</ele>
        <time>2021-06-16T20:35:11Z</time>
      </trkpt>
      <trkpt lat="36.62824" lon="-4.830569">
        <ele>410.828</ele>
        <time>2021-06-16T20:35:12Z</time>
      </trkpt>
      <trkpt lat="36.628191" lon="-4.830926">
        <ele>411.722</ele>
        <time>2021-06-16T20:35:14Z</time>
      </trkpt>
      <trkpt lat="36.628098" lon="-4.831266">
        <ele>412.242</ele>
        <time>2021-06-16T20:35:16Z</time>
      </trkpt>
      <trkpt lat="36.628036" lon="-4.831443">
        <ele>411.928</ele>
        <time>2021-06-16T20:35:17Z</time>
      </trkpt>
      <trkpt lat="36.627961" lon="-4.831626">
        <ele>411.110</ele>
        <time>2021-06-16T20:35:18Z</time>
      </trkpt>
      <trkpt lat="36.627777" lon="-4.83199">
        <ele>410.459</ele>
        <time>2021-06-16T20:35:20Z</time>
      </trkpt>
      <trkpt lat="36.627674" lon="-4.832169">
        <ele>410.093</ele>
        <time>2021-06-16T20:35:21Z</time>
      </trkpt>
      <trkpt lat="36.627565" lon="-4.832343">
        <ele>410.091</ele>
        <time>2021-06-16T20:35:22Z</time>
      </trkpt>
      <trkpt lat="36.627334" lon="-4.832677">
        <ele>409.881</ele>
        <time>2021-06-16T20:35:24Z</time>
      </trkpt>
      <trkpt lat="36.627088" lon="-4.832994">
        <ele>409.219</ele>
        <time>2021-06-16T20:35:26Z</time>
      </trkpt>
      <trkpt lat="36.626959" lon="-4.833153">
        <ele>409.208</ele>
        <time>2021-06-16T20:35:27Z</time>
      </trkpt>
      <trkpt lat="36.626831" lon="-4.833311">
        <ele>409.656</ele>
        <time>2021-06-16T20:35:28Z</time>
      </trkpt>
      <trkpt lat="36.62671" lon="-4.833471">
        <ele>410.315</ele>
        <time>2021-06-16T20:35:29Z</time>
      </trkpt>
      <trkpt lat="36.626476" lon="-4.833794">
        <ele>412.219</ele>
        <time>2021-06-16T20:35:31Z</time>
      </trkpt>
      <trkpt lat="36.626262" lon="-4.834138">
        <ele>414.089</ele>
        <time>2021-06-16T20:35:33Z</time>
      </trkpt>
      <trkpt lat="36.626168" lon="-4.834319">
        <ele>415.675</ele>
        <time>2021-06-16T20:35:34Z</time>
      </trkpt>
      <trkpt lat="36.626016" lon="-4.834705">
        <ele>417.447</ele>
        <time>2021-06-16T20:35:36Z</time>
      </trkpt>
      <trkpt lat="36.625961" lon="-4.83491">
        <ele>418.586</ele>
        <time>2021-06-16T20:35:37Z</time>
      </trkpt>
      <trkpt lat="36.625885" lon="-4.835333">
        <ele>420.120</ele>
        <time>2021-06-16T20:35:39Z</time>
      </trkpt>
      <trkpt lat="36.625831" lon="-4.83578">
        <ele>422.077</ele>
        <time>2021-06-16T20:35:41Z</time>
      </trkpt>
      <trkpt lat="36.625811" lon="-4.836008">
        <ele>423.461</ele>
        <time>2021-06-16T20:35:42Z</time>
      </trkpt>
      <trkpt lat="36.625789" lon="-4.836466">
        <ele>424.827</ele>
        <time>2021-06-16T20:35:44Z</time>
      </trkpt>
      <trkpt lat="36.62576" lon="-4.836929">
        <ele>425.508</ele>
        <time>2021-06-16T20:35:46Z</time>
      </trkpt>
      <trkpt lat="36.625732" lon="-4.837391">
        <ele>426.824</ele>
        <time>2021-06-16T20:35:48Z</time>
      </trkpt>
      <trkpt lat="36.62572" lon="-4.837619">
        <ele>427.813</ele>
        <time>2021-06-16T20:35:49Z</time>
      </trkpt>
      <trkpt lat="36.625703" lon="-4.837847">
        <ele>428.667</ele>
        <time>2021-06-16T20:35:50Z</time>
      </trkpt>
      <trkpt lat="36.625678" lon="-4.838076">
        <ele>429.097</ele>
        <time>2021-06-16T20:35:51Z</time>
      </trkpt>
      <trkpt lat="36.625629" lon="-4.83853">
        <ele>429.923</ele>
        <time>2021-06-16T20:35:53Z</time>
      </trkpt>
      <trkpt lat="36.625597" lon="-4.838761">
        <ele>430.815</ele>
        <time>2021-06-16T20:35:54Z</time>
      </trkpt>
      <trkpt lat="36.625561" lon="-4.838994">
        <ele>431.794</ele>
        <time>2021-06-16T20:35:55Z</time>
      </trkpt>
      <trkpt lat="36.625487" lon="-4.839457">
        <ele>433.028</ele>
        <time>2021-06-16T20:35:57Z</time>
      </trkpt>
      <trkpt lat="36.625401" lon="-4.83992">
        <ele>434.784</ele>
        <time>2021-06-16T20:35:59Z</time>
      </trkpt>
      <trkpt lat="36.625308" lon="-4.84038">
        <ele>436.107</ele>
        <time>2021-06-16T20:36:01Z</time>
      </trkpt>
      <trkpt lat="36.62526" lon="-4.840608">
        <ele>437.917</ele>
        <time>2021-06-16T20:36:02Z</time>
      </trkpt>
      <trkpt lat="36.625162" lon="-4.841053">
        <ele>440.708</ele>
        <time>2021-06-16T20:36:04Z</time>
      </trkpt>
      <trkpt lat="36.625049" lon="-4.841494">
        <ele>443.295</ele>
        <time>2021-06-16T20:36:06Z</time>
      </trkpt>
      <trkpt lat="36.624988" lon="-4.841712">
        <ele>444.854</ele>
        <time>2021-06-16T20:36:07Z</time>
      </trkpt>
      <trkpt lat="36.624865" lon="-4.842146">
        <ele>446.178</ele>
        <time>2021-06-16T20:36:09Z</time>
      </trkpt>
      <trkpt lat="36.624799" lon="-4.842364">
        <ele>446.958</ele>
        <time>2021-06-16T20:36:10Z</time>
      </trkpt>
      <trkpt lat="36.624661" lon="-4.842788">
        <ele>448.424</ele>
        <time>2021-06-16T20:36:12Z</time>
      </trkpt>
      <trkpt lat="36.624512" lon="-4.843207">
        <ele>450.096</ele>
        <time>2021-06-16T20:36:14Z</time>
      </trkpt>
      <trkpt lat="36.624426" lon="-4.843412">
        <ele>451.165</ele>
        <time>2021-06-16T20:36:15Z</time>
      </trkpt>
      <trkpt lat="36.62434" lon="-4.843617">
        <ele>451.729</ele>
        <time>2021-06-16T20:36:16Z</time>
      </trkpt>
      <trkpt lat="36.62419" lon="-4.844029">
        <ele>452.972</ele>
        <time>2021-06-16T20:36:18Z</time>
      </trkpt>
      <trkpt lat="36.624111" lon="-4.84423">
        <ele>454.313</ele>
        <time>2021-06-16T20:36:19Z</time>
      </trkpt>
      <trkpt lat="36.623946" lon="-4.844607">
        <ele>455.514</ele>
        <time>2021-06-16T20:36:21Z</time>
      </trkpt>
      <trkpt lat="36.623858" lon="-4.844797">
        <ele>456.708</ele>
        <time>2021-06-16T20:36:22Z</time>
      </trkpt>
      <trkpt lat="36.623774" lon="-4.844982">
        <ele>457.724</ele>
        <time>2021-06-16T20:36:23Z</time>
      </trkpt>
      <trkpt lat="36.623682" lon="-4.845164">
        <ele>458.263</ele>
        <time>2021-06-16T20:36:24Z</time>
      </trkpt>
      <trkpt lat="36.623486" lon="-4.845535">
        <ele>459.877</ele>
        <time>2021-06-16T20:36:26Z</time>
      </trkpt>
      <trkpt lat="36.623386" lon="-4.845723">
        <ele>461.037</ele>
        <time>2021-06-16T20:36:27Z</time>
      </trkpt>
      <trkpt lat="36.623179" lon="-4.846093">
        <ele>462.013</ele>
        <time>2021-06-16T20:36:29Z</time>
      </trkpt>
      <trkpt lat="36.623075" lon="-4.846278">
        <ele>462.835</ele>
        <time>2021-06-16T20:36:30Z</time>
      </trkpt>
      <trkpt lat="36.622861" lon="-4.846636">
        <ele>463.554</ele>
        <time>2021-06-16T20:36:32Z</time>
      </trkpt>
      <trkpt lat="36.622633" lon="-4.847002">
        <ele>463.618</ele>
        <time>2021-06-16T20:36:34Z</time>
      </trkpt>
      <trkpt lat="36.622521" lon="-4.847178">
        <ele>463.795</ele>
        <time>2021-06-16T20:36:35Z</time>
      </trkpt>
      <trkpt lat="36.622299" lon="-4.847514">
        <ele>463.449</ele>
        <time>2021-06-16T20:36:37Z</time>
      </trkpt>
      <trkpt lat="36.622065" lon="-4.847834">
        <ele>463.223</ele>
        <time>2021-06-16T20:36:39Z</time>
      </trkpt>
      <trkpt lat="36.621937" lon="-4.847989">
        <ele>463.008</ele>
        <time>2021-06-16T20:36:40Z</time>
      </trkpt>
      <trkpt lat="36.621694" lon="-4.848309">
        <ele>462.826</ele>
        <time>2021-06-16T20:36:42Z</time>
      </trkpt>
      <trkpt lat="36.621463" lon="-4.848629">
        <ele>462.275</ele>
        <time>2021-06-16T20:36:44Z</time>
      </trkpt>
      <trkpt lat="36.62134" lon="-4.848785">
        <ele>462.189</ele>
        <time>2021-06-16T20:36:45Z</time>
      </trkpt>
      <trkpt lat="36.621081" lon="-4.849078">
        <ele>461.559</ele>
        <time>2021-06-16T20:36:47Z</time>
      </trkpt>
      <trkpt lat="36.620803" lon="-4.849356">
        <ele>461.275</ele>
        <time>2021-06-16T20:36:49Z</time>
      </trkpt>
      <trkpt lat="36.620524" lon="-4.849641">
        <ele>458.147</ele>
        <time>2021-06-16T20:36:51Z</time>
      </trkpt>
      <trkpt lat="36.62038" lon="-4.849784">
        <ele>455.766</ele>
        <time>2021-06-16T20:36:52Z</time>
      </trkpt>
      <trkpt lat="36.620091" lon="-4.850058">
        <ele>453.490</ele>
        <time>2021-06-16T20:36:54Z</time>
      </trkpt>
      <trkpt lat="36.619782" lon="-4.850284">
        <ele>451.437</ele>
        <time>2021-06-16T20:36:56Z</time>
      </trkpt>
      <trkpt lat="36.619453" lon="-4.850449">
        <ele>449.949</ele>
        <time>2021-06-16T20:36:58Z</time>
      </trkpt>
      <trkpt lat="36.619097" lon="-4.850529">
        <ele>449.113</ele>
        <time>2021-06-16T20:37:00Z</time>
      </trkpt>
      <trkpt lat="36.618725" lon="-4.850516">
        <ele>447.808</ele>
        <time>2021-06-16T20:37:02Z</time>
      </trkpt>
      <trkpt lat="36.618538" lon="-4.850462">
        <ele>446.750</ele>
        <time>2021-06-16T20:37:03Z</time>
      </trkpt>
      <trkpt lat="36.618183" lon="-4.850313">
        <ele>445.019</ele>
        <time>2021-06-16T20:37:05Z</time>
      </trkpt>
      <trkpt lat="36.618012" lon="-4.850212">
        <ele>443.983</ele>
        <time>2021-06-16T20:37:06Z</time>
      </trkpt>
      <trkpt lat="36.617844" lon="-4.850114">
        <ele>443.483</ele>
        <time>2021-06-16T20:37:07Z</time>
      </trkpt>
      <trkpt lat="36.617506" lon="-4.849922">
        <ele>442.869</ele>
        <time>2021-06-16T20:37:09Z</time>
      </trkpt>
      <trkpt lat="36.61733" lon="-4.849843">
        <ele>442.461</ele>
        <time>2021-06-16T20:37:10Z</time>
      </trkpt>
      <trkpt lat="36.616972" lon="-4.849744">
        <ele>442.330</ele>
        <time>2021-06-16T20:37:12Z</time>
      </trkpt>
      <trkpt lat="36.616788" lon="-4.849734">
        <ele>442.424</ele>
        <time>2021-06-16T20:37:13Z</time>
      </trkpt>
      <trkpt lat="36.616417" lon="-4.849769">
        <ele>443.492</ele>
        <time>2021-06-16T20:37:15Z</time>
      </trkpt>
      <trkpt lat="36.616047" lon="-4.849842">
        <ele>444.873</ele>
        <time>2021-06-16T20:37:17Z</time>
      </trkpt>
      <trkpt lat="36.615679" lon="-4.849903">
        <ele>446.320</ele>
        <time>2021-06-16T20:37:19Z</time>
      </trkpt>
      <trkpt lat="36.615494" lon="-4.849908">
        <ele>447.608</ele>
        <time>2021-06-16T20:37:20Z</time>
      </trkpt>
      <trkpt lat="36.615131" lon="-4.849847">
        <ele>449.096</ele>
        <time>2021-06-16T20:37:22Z</time>
      </trkpt>
      <trkpt lat="36.614953" lon="-4.849795">
        <ele>449.915</ele>
        <time>2021-06-16T20:37:23Z</time>
      </trkpt>
      <trkpt lat="36.614604" lon="-4.849692">
        <ele>451.589</ele>
        <time>2021-06-16T20:37:25Z</time>
      </trkpt>
      <trkpt lat="36.61425" lon="-4.849625">
        <ele>452.899</ele>
        <time>2021-06-16T20:37:27Z</time>
      </trkpt>
      <trkpt lat="36.614072" lon="-4.849617">
        <ele>454.325</ele>
        <time>2021-06-16T20:37:28Z</time>
      </trkpt>
      <trkpt lat="36.613894" lon="-4.849626">
        <ele>455.337</ele>
        <time>2021-06-16T20:37:29Z</time>
      </trkpt>
      <trkpt lat="36.613543" lon="-4.849657">
        <ele>456.426</ele>
        <time>2021-06-16T20:37:31Z</time>
      </trkpt>
      <trkpt lat="36.613182" lon="-4.849705">
        <ele>457.170</ele>
        <time>2021-06-16T20:37:33Z</time>
      </trkpt>
      <trkpt lat="36.612819" lon="-4.849754">
        <ele>457.985</ele>
        <time>2021-06-16T20:37:35Z</time>
      </trkpt>
      <trkpt lat="36.612453" lon="-4.849813">
        <ele>459.389</ele>
        <time>2021-06-16T20:37:37Z</time>
      </trkpt>
      <trkpt lat="36.612096" lon="-4.849923">
        <ele>459.917</ele>
        <time>2021-06-16T20:37:39Z</time>
      </trkpt>
      <trkpt lat="36.611754" lon="-4.850093">
        <ele>460.608</ele>
        <time>2021-06-16T20:37:41Z</time>
      </trkpt>
      <trkpt lat="36.61159" lon="-4.850196">
        <ele>461.765</ele>
        <time>2021-06-16T20:37:42Z</time>
      </trkpt>
      <trkpt lat="36.611271" lon="-4.850433">
        <ele>463.074</ele>
        <time>2021-06-16T20:37:44Z</time>
      </trkpt>
      <trkpt lat="36.611115" lon="-4.850563">
        <ele>464.478</ele>
        <time>2021-06-16T20:37:45Z</time>
      </trkpt>
      <trkpt lat="36.61082" lon="-4.850839">
        <ele>466.098</ele>
        <time>2021-06-16T20:37:47Z</time>
      </trkpt>
      <trkpt lat="36.610514" lon="-4.851076">
        <ele>467.394</ele>
        <time>2021-06-16T20:37:49Z</time>
      </trkpt>
      <trkpt lat="36.610173" lon="-4.85123">
        <ele>468.236</ele>
        <time>2021-06-16T20:37:51Z</time>
      </trkpt>
      <trkpt lat="36.609808" lon="-4.851288">
        <ele>469.595</ele>
        <time>2021-06-16T20:37:53Z</time>
      </trkpt>
      <trkpt lat="36.609622" lon="-4.851285">
        <ele>471.129</ele>
        <time>2021-06-16T20:37:54Z</time>
      </trkpt>
      <trkpt lat="36.609436" lon="-4.85126">
        <ele>472.335</ele>
        <time>2021-06-16T20:37:55Z</time>
      </trkpt>
      <trkpt lat="36.609079" lon="-4.85114">
        <ele>473.486</ele>
        <time>2021-06-16T20:37:57Z</time>
      </trkpt>
      <trkpt lat="36.608909" lon="-4.851062">
        <ele>474.214</ele>
        <time>2021-06-16T20:37:58Z</time>
      </trkpt>
      <trkpt lat="36.608566" lon="-4.850886">
        <ele>475.508</ele>
        <time>2021-06-16T20:38:00Z</time>
      </trkpt>
      <trkpt lat="36.608214" lon="-4.850733">
        <ele>477.280</ele>
        <time>2021-06-16T20:38:02Z</time>
      </trkpt>
      <trkpt lat="36.608035" lon="-4.850677">
        <ele>478.919</ele>
        <time>2021-06-16T20:38:03Z</time>
      </trkpt>
      <trkpt lat="36.607674" lon="-4.850615">
        <ele>480.683</ele>
        <time>2021-06-16T20:38:05Z</time>
      </trkpt>
      <trkpt lat="36.607307" lon="-4.850611">
        <ele>482.433</ele>
        <time>2021-06-16T20:38:07Z</time>
      </trkpt>
      <trkpt lat="36.607122" lon="-4.850634">
        <ele>483.829</ele>
        <time>2021-06-16T20:38:08Z</time>
      </trkpt>
      <trkpt lat="36.606755" lon="-4.850716">
        <ele>484.621</ele>
        <time>2021-06-16T20:38:10Z</time>
      </trkpt>
      <trkpt lat="36.606575" lon="-4.850781">
        <ele>484.930</ele>
        <time>2021-06-16T20:38:11Z</time>
      </trkpt>
      <trkpt lat="36.606224" lon="-4.850944">
        <ele>486.054</ele>
        <time>2021-06-16T20:38:13Z</time>
      </trkpt>
      <trkpt lat="36.605876" lon="-4.851121">
        <ele>486.551</ele>
        <time>2021-06-16T20:38:15Z</time>
      </trkpt>
      <trkpt lat="36.605699" lon="-4.851205">
        <ele>487.001</ele>
        <time>2021-06-16T20:38:16Z</time>
      </trkpt>
      <trkpt lat="36.605343" lon="-4.85137">
        <ele>487.111</ele>
        <time>2021-06-16T20:38:18Z</time>
      </trkpt>
      <trkpt lat="36.605165" lon="-4.851455">
        <ele>487.508</ele>
        <time>2021-06-16T20:38:19Z</time>
      </trkpt>
      <trkpt lat="36.604806" lon="-4.851634">
        <ele>488.182</ele>
        <time>2021-06-16T20:38:21Z</time>
      </trkpt>
      <trkpt lat="36.604442" lon="-4.851812">
        <ele>488.771</ele>
        <time>2021-06-16T20:38:23Z</time>
      </trkpt>
      <trkpt lat="36.60426" lon="-4.851902">
        <ele>488.885</ele>
        <time>2021-06-16T20:38:24Z</time>
      </trkpt>
      <trkpt lat="36.604079" lon="-4.85199">
        <ele>489.015</ele>
        <time>2021-06-16T20:38:25Z</time>
      </trkpt>
      <trkpt lat="36.603722" lon="-4.852161">
        <ele>489.461</ele>
        <time>2021-06-16T20:38:27Z</time>
      </trkpt>
      <trkpt lat="36.60337" lon="-4.852333">
        <ele>489.663</ele>
        <time>2021-06-16T20:38:29Z</time>
      </trkpt>
      <trkpt lat="36.603195" lon="-4.85242">
        <ele>489.912</ele>
        <time>2021-06-16T20:38:30Z</time>
      </trkpt>
      <trkpt lat="36.60284" lon="-4.852591">
        <ele>490.236</ele>
        <time>2021-06-16T20:38:32Z</time>
      </trkpt>
      <trkpt lat="36.602483" lon="-4.852758">
        <ele>490.812</ele>
        <time>2021-06-16T20:38:34Z</time>
      </trkpt>
      <trkpt lat="36.602122" lon="-4.852914">
        <ele>491.632</ele>
        <time>2021-06-16T20:38:36Z</time>
      </trkpt>
      <trkpt lat="36.601939" lon="-4.852985">
        <ele>491.905</ele>
        <time>2021-06-16T20:38:37Z</time>
      </trkpt>
      <trkpt lat="36.601754" lon="-4.85305">
        <ele>491.808</ele>
        <time>2021-06-16T20:38:38Z</time>
      </trkpt>
      <trkpt lat="36.601379" lon="-4.853128">
        <ele>492.348</ele>
        <time>2021-06-16T20:38:40Z</time>
      </trkpt>
      <trkpt lat="36.600999" lon="-4.853165">
        <ele>493.317</ele>
        <time>2021-06-16T20:38:42Z</time>
      </trkpt>
      <trkpt lat="36.600623" lon="-4.853198">
        <ele>493.911</ele>
        <time>2021-06-16T20:38:44Z</time>
      </trkpt>
      <trkpt lat="36.600252" lon="-4.85325">
        <ele>494.971</ele>
        <time>2021-06-16T20:38:46Z</time>
      </trkpt>
      <trkpt lat="36.600065" lon="-4.853268">
        <ele>495.217</ele>
        <time>2021-06-16T20:38:47Z</time>
      </trkpt>
      <trkpt lat="36.599879" lon="-4.853285">
        <ele>495.429</ele>
        <time>2021-06-16T20:38:48Z</time>
      </trkpt>
      <trkpt lat="36.599512" lon="-4.853311">
        <ele>496.288</ele>
        <time>2021-06-16T20:38:50Z</time>
      </trkpt>
      <trkpt lat="36.599331" lon="-4.853323">
        <ele>497.292</ele>
        <time>2021-06-16T20:38:51Z</time>
      </trkpt>
      <trkpt lat="36.599151" lon="-4.853332">
        <ele>497.847</ele>
        <time>2021-06-16T20:38:52Z</time>
      </trkpt>
      <trkpt lat="36.598972" lon="-4.85334">
        <ele>498.529</ele>
        <time>2021-06-16T20:38:53Z</time>
      </trkpt>
      <trkpt lat="36.598792" lon="-4.853349">
        <ele>499.021</ele>
        <time>2021-06-16T20:38:54Z</time>
      </trkpt>
      <trkpt lat="36.598428" lon="-4.853356">
        <ele>500.408</ele>
        <time>2021-06-16T20:38:56Z</time>
      </trkpt>
      <trkpt lat="36.598066" lon="-4.853361">
        <ele>501.611</ele>
        <time>2021-06-16T20:38:58Z</time>
      </trkpt>
      <trkpt lat="36.597709" lon="-4.853345">
        <ele>502.380</ele>
        <time>2021-06-16T20:39:00Z</time>
      </trkpt>
      <trkpt lat="36.597529" lon="-4.853328">
        <ele>503.144</ele>
        <time>2021-06-16T20:39:01Z</time>
      </trkpt>
      <trkpt lat="36.597349" lon="-4.853316">
        <ele>503.414</ele>
        <time>2021-06-16T20:39:02Z</time>
      </trkpt>
      <trkpt lat="36.59717" lon="-4.853315">
        <ele>504.090</ele>
        <time>2021-06-16T20:39:03Z</time>
      </trkpt>
      <trkpt lat="36.596813" lon="-4.853312">
        <ele>505.062</ele>
        <time>2021-06-16T20:39:05Z</time>
      </trkpt>
      <trkpt lat="36.596627" lon="-4.853315">
        <ele>505.981</ele>
        <time>2021-06-16T20:39:06Z</time>
      </trkpt>
      <trkpt lat="36.59627" lon="-4.853328">
        <ele>506.945</ele>
        <time>2021-06-16T20:39:08Z</time>
      </trkpt>
      <trkpt lat="36.596093" lon="-4.853339">
        <ele>507.593</ele>
        <time>2021-06-16T20:39:09Z</time>
      </trkpt>
      <trkpt lat="36.595918" lon="-4.853351">
        <ele>508.065</ele>
        <time>2021-06-16T20:39:10Z</time>
      </trkpt>
      <trkpt lat="36.595545" lon="-4.85338">
        <ele>509.121</ele>
        <time>2021-06-16T20:39:12Z</time>
      </trkpt>
      <trkpt lat="36.595169" lon="-4.853412">
        <ele>509.608</ele>
        <time>2021-06-16T20:39:14Z</time>
      </trkpt>
      <trkpt lat="36.594795" lon="-4.85346">
        <ele>509.816</ele>
        <time>2021-06-16T20:39:16Z</time>
      </trkpt>
      <trkpt lat="36.594607" lon="-4.853484">
        <ele>510.275</ele>
        <time>2021-06-16T20:39:17Z</time>
      </trkpt>
      <trkpt lat="36.594422" lon="-4.8535">
        <ele>510.649</ele>
        <time>2021-06-16T20:39:18Z</time>
      </trkpt>
      <trkpt lat="36.594045" lon="-4.853496">
        <ele>511.399</ele>
        <time>2021-06-16T20:39:20Z</time>
      </trkpt>
      <trkpt lat="36.593852" lon="-4.853472">
        <ele>512.265</ele>
        <time>2021-06-16T20:39:21Z</time>
      </trkpt>
      <trkpt lat="36.593665" lon="-4.853443">
        <ele>513.217</ele>
        <time>2021-06-16T20:39:22Z</time>
      </trkpt>
      <trkpt lat="36.593302" lon="-4.853347">
        <ele>513.926</ele>
        <time>2021-06-16T20:39:24Z</time>
      </trkpt>
      <trkpt lat="36.593124" lon="-4.853283">
        <ele>514.410</ele>
        <time>2021-06-16T20:39:25Z</time>
      </trkpt>
      <trkpt lat="36.592775" lon="-4.853129">
        <ele>514.825</ele>
        <time>2021-06-16T20:39:27Z</time>
      </trkpt>
      <trkpt lat="36.592605" lon="-4.853044">
        <ele>514.926</ele>
        <time>2021-06-16T20:39:28Z</time>
      </trkpt>
      <trkpt lat="36.592271" lon="-4.85285">
        <ele>516.108</ele>
        <time>2021-06-16T20:39:30Z</time>
      </trkpt>
      <trkpt lat="36.592107" lon="-4.852756">
        <ele>516.908</ele>
        <time>2021-06-16T20:39:31Z</time>
      </trkpt>
      <trkpt lat="36.591794" lon="-4.852567">
        <ele>517.719</ele>
        <time>2021-06-16T20:39:33Z</time>
      </trkpt>
      <trkpt lat="36.591639" lon="-4.852468">
        <ele>518.528</ele>
        <time>2021-06-16T20:39:34Z</time>
      </trkpt>
      <trkpt lat="36.591316" lon="-4.852283">
        <ele>519.832</ele>
        <time>2021-06-16T20:39:36Z</time>
      </trkpt>
      <trkpt lat="36.590982" lon="-4.852143">
        <ele>521.332</ele>
        <time>2021-06-16T20:39:38Z</time>
      </trkpt>
      <trkpt lat="36.590645" lon="-4.852043">
        <ele>522.938</ele>
        <time>2021-06-16T20:39:40Z</time>
      </trkpt>
      <trkpt lat="36.590307" lon="-4.85201">
        <ele>524.430</ele>
        <time>2021-06-16T20:39:42Z</time>
      </trkpt>
      <trkpt lat="36.589965" lon="-4.852034">
        <ele>526.219</ele>
        <time>2021-06-16T20:39:44Z</time>
      </trkpt>
      <trkpt lat="36.589794" lon="-4.852051">
        <ele>527.923</ele>
        <time>2021-06-16T20:39:45Z</time>
      </trkpt>
      <trkpt lat="36.589449" lon="-4.852088">
        <ele>529.652</ele>
        <time>2021-06-16T20:39:47Z</time>
      </trkpt>
      <trkpt lat="36.589277" lon="-4.852106">
        <ele>530.953</ele>
        <time>2021-06-16T20:39:48Z</time>
      </trkpt>
      <trkpt lat="36.588935" lon="-4.852121">
        <ele>532.508</ele>
        <time>2021-06-16T20:39:50Z</time>
      </trkpt>
      <trkpt lat="36.588767" lon="-4.852121">
        <ele>533.708</ele>
        <time>2021-06-16T20:39:51Z</time>
      </trkpt>
      <trkpt lat="36.588435" lon="-4.852116">
        <ele>534.932</ele>
        <time>2021-06-16T20:39:53Z</time>
      </trkpt>
      <trkpt lat="36.588114" lon="-4.85212">
        <ele>536.381</ele>
        <time>2021-06-16T20:39:55Z</time>
      </trkpt>
      <trkpt lat="36.587952" lon="-4.852126">
        <ele>538.085</ele>
        <time>2021-06-16T20:39:56Z</time>
      </trkpt>
      <trkpt lat="36.587788" lon="-4.852134">
        <ele>539.255</ele>
        <time>2021-06-16T20:39:57Z</time>
      </trkpt>
      <trkpt lat="36.587468" lon="-4.852175">
        <ele>540.521</ele>
        <time>2021-06-16T20:39:59Z</time>
      </trkpt>
      <trkpt lat="36.587309" lon="-4.852208">
        <ele>541.473</ele>
        <time>2021-06-16T20:40:00Z</time>
      </trkpt>
      <trkpt lat="36.587148" lon="-4.852244">
        <ele>542.532</ele>
        <time>2021-06-16T20:40:01Z</time>
      </trkpt>
      <trkpt lat="36.586832" lon="-4.852342">
        <ele>543.716</ele>
        <time>2021-06-16T20:40:03Z</time>
      </trkpt>
      <trkpt lat="36.586675" lon="-4.852395">
        <ele>544.685</ele>
        <time>2021-06-16T20:40:04Z</time>
      </trkpt>
      <trkpt lat="36.586362" lon="-4.852504">
        <ele>545.989</ele>
        <time>2021-06-16T20:40:06Z</time>
      </trkpt>
      <trkpt lat="36.586201" lon="-4.852558">
        <ele>547.017</ele>
        <time>2021-06-16T20:40:07Z</time>
      </trkpt>
      <trkpt lat="36.585872" lon="-4.852642">
        <ele>548.608</ele>
        <time>2021-06-16T20:40:09Z</time>
      </trkpt>
      <trkpt lat="36.585536" lon="-4.852691">
        <ele>549.945</ele>
        <time>2021-06-16T20:40:11Z</time>
      </trkpt>
      <trkpt lat="36.585367" lon="-4.852713">
        <ele>550.744</ele>
        <time>2021-06-16T20:40:12Z</time>
      </trkpt>
      <trkpt lat="36.585032" lon="-4.852729">
        <ele>552.368</ele>
        <time>2021-06-16T20:40:14Z</time>
      </trkpt>
      <trkpt lat="36.584701" lon="-4.852721">
        <ele>553.338</ele>
        <time>2021-06-16T20:40:16Z</time>
      </trkpt>
      <trkpt lat="36.584531" lon="-4.852715">
        <ele>554.234</ele>
        <time>2021-06-16T20:40:17Z</time>
      </trkpt>
      <trkpt lat="36.584192" lon="-4.852685">
        <ele>555.146</ele>
        <time>2021-06-16T20:40:19Z</time>
      </trkpt>
      <trkpt lat="36.583852" lon="-4.852674">
        <ele>556.655</ele>
        <time>2021-06-16T20:40:21Z</time>
      </trkpt>
      <trkpt lat="36.583683" lon="-4.852684">
        <ele>557.799</ele>
        <time>2021-06-16T20:40:22Z</time>
      </trkpt>
      <trkpt lat="36.583514" lon="-4.852695">
        <ele>558.745</ele>
        <time>2021-06-16T20:40:23Z</time>
      </trkpt>
      <trkpt lat="36.583349" lon="-4.852722">
        <ele>559.347</ele>
        <time>2021-06-16T20:40:24Z</time>
      </trkpt>
      <trkpt lat="36.583026" lon="-4.852792">
        <ele>560.911</ele>
        <time>2021-06-16T20:40:26Z</time>
      </trkpt>
      <trkpt lat="36.582696" lon="-4.852842">
        <ele>562.008</ele>
        <time>2021-06-16T20:40:28Z</time>
      </trkpt>
      <trkpt lat="36.582362" lon="-4.852841">
        <ele>563.061</ele>
        <time>2021-06-16T20:40:30Z</time>
      </trkpt>
      <trkpt lat="36.582038" lon="-4.85279">
        <ele>564.030</ele>
        <time>2021-06-16T20:40:32Z</time>
      </trkpt>
      <trkpt lat="36.581885" lon="-4.852754">
        <ele>564.984</ele>
        <time>2021-06-16T20:40:33Z</time>
      </trkpt>
      <trkpt lat="36.581737" lon="-4.852727">
        <ele>565.594</ele>
        <time>2021-06-16T20:40:34Z</time>
      </trkpt>
      <trkpt lat="36.581439" lon="-4.852726">
        <ele>565.960</ele>
        <time>2021-06-16T20:40:36Z</time>
      </trkpt>
      <trkpt lat="36.58115" lon="-4.852833">
        <ele>565.862</ele>
        <time>2021-06-16T20:40:38Z</time>
      </trkpt>
      <trkpt lat="36.580882" lon="-4.853033">
        <ele>565.251</ele>
        <time>2021-06-16T20:40:40Z</time>
      </trkpt>
      <trkpt lat="36.580619" lon="-4.853257">
        <ele>565.065</ele>
        <time>2021-06-16T20:40:42Z</time>
      </trkpt>
      <trkpt lat="36.580331" lon="-4.853437">
        <ele>565.223</ele>
        <time>2021-06-16T20:40:44Z</time>
      </trkpt>
      <trkpt lat="36.58001" lon="-4.853515">
        <ele>564.483</ele>
        <time>2021-06-16T20:40:46Z</time>
      </trkpt>
      <trkpt lat="36.579838" lon="-4.853505">
        <ele>563.611</ele>
        <time>2021-06-16T20:40:47Z</time>
      </trkpt>
      <trkpt lat="36.579508" lon="-4.853391">
        <ele>562.908</ele>
        <time>2021-06-16T20:40:49Z</time>
      </trkpt>
      <trkpt lat="36.579195" lon="-4.853195">
        <ele>562.129</ele>
        <time>2021-06-16T20:40:51Z</time>
      </trkpt>
      <trkpt lat="36.57904" lon="-4.853099">
        <ele>561.368</ele>
        <time>2021-06-16T20:40:52Z</time>
      </trkpt>
      <trkpt lat="36.578709" lon="-4.852944">
        <ele>560.512</ele>
        <time>2021-06-16T20:40:54Z</time>
      </trkpt>
      <trkpt lat="36.578365" lon="-4.852885">
        <ele>559.352</ele>
        <time>2021-06-16T20:40:56Z</time>
      </trkpt>
      <trkpt lat="36.578195" lon="-4.852892">
        <ele>558.218</ele>
        <time>2021-06-16T20:40:57Z</time>
      </trkpt>
      <trkpt lat="36.578028" lon="-4.852924">
        <ele>557.340</ele>
        <time>2021-06-16T20:40:58Z</time>
      </trkpt>
      <trkpt lat="36.577702" lon="-4.853057">
        <ele>556.459</ele>
        <time>2021-06-16T20:41:00Z</time>
      </trkpt>
      <trkpt lat="36.577405" lon="-4.853294">
        <ele>555.753</ele>
        <time>2021-06-16T20:41:02Z</time>
      </trkpt>
      <trkpt lat="36.577281" lon="-4.853456">
        <ele>555.353</ele>
        <time>2021-06-16T20:41:03Z</time>
      </trkpt>
      <trkpt lat="36.577181" lon="-4.853638">
        <ele>555.104</ele>
        <time>2021-06-16T20:41:04Z</time>
      </trkpt>
      <trkpt lat="36.577108" lon="-4.853846">
        <ele>554.414</ele>
        <time>2021-06-16T20:41:05Z</time>
      </trkpt>
      <trkpt lat="36.577014" lon="-4.854288">
        <ele>553.408</ele>
        <time>2021-06-16T20:41:07Z</time>
      </trkpt>
      <trkpt lat="36.576972" lon="-4.854509">
        <ele>553.182</ele>
        <time>2021-06-16T20:41:08Z</time>
      </trkpt>
      <trkpt lat="36.576921" lon="-4.854723">
        <ele>553.021</ele>
        <time>2021-06-16T20:41:09Z</time>
      </trkpt>
      <trkpt lat="36.576854" lon="-4.85493">
        <ele>553.125</ele>
        <time>2021-06-16T20:41:10Z</time>
      </trkpt>
      <trkpt lat="36.576773" lon="-4.855127">
        <ele>553.185</ele>
        <time>2021-06-16T20:41:11Z</time>
      </trkpt>
      <trkpt lat="36.576676" lon="-4.855321">
        <ele>553.181</ele>
        <time>2021-06-16T20:41:12Z</time>
      </trkpt>
      <trkpt lat="36.57647" lon="-4.855646">
        <ele>553.173</ele>
        <time>2021-06-16T20:41:14Z</time>
      </trkpt>
      <trkpt lat="36.57636" lon="-4.855806">
        <ele>553.352</ele>
        <time>2021-06-16T20:41:15Z</time>
      </trkpt>
      <trkpt lat="36.576151" lon="-4.856126">
        <ele>553.816</ele>
        <time>2021-06-16T20:41:17Z</time>
      </trkpt>
      <trkpt lat="36.575947" lon="-4.856458">
        <ele>553.477</ele>
        <time>2021-06-16T20:41:19Z</time>
      </trkpt>
      <trkpt lat="36.575738" lon="-4.856762">
        <ele>553.861</ele>
        <time>2021-06-16T20:41:21Z</time>
      </trkpt>
      <trkpt lat="36.575512" lon="-4.857052">
        <ele>553.927</ele>
        <time>2021-06-16T20:41:23Z</time>
      </trkpt>
      <trkpt lat="36.575383" lon="-4.85719">
        <ele>554.008</ele>
        <time>2021-06-16T20:41:24Z</time>
      </trkpt>
      <trkpt lat="36.5751" lon="-4.857399">
        <ele>554.464</ele>
        <time>2021-06-16T20:41:26Z</time>
      </trkpt>
      <trkpt lat="36.574792" lon="-4.857526">
        <ele>555.393</ele>
        <time>2021-06-16T20:41:28Z</time>
      </trkpt>
      <trkpt lat="36.574634" lon="-4.857575">
        <ele>556.027</ele>
        <time>2021-06-16T20:41:29Z</time>
      </trkpt>
      <trkpt lat="36.57448" lon="-4.857637">
        <ele>556.347</ele>
        <time>2021-06-16T20:41:30Z</time>
      </trkpt>
      <trkpt lat="36.574199" lon="-4.857827">
        <ele>556.633</ele>
        <time>2021-06-16T20:41:32Z</time>
      </trkpt>
      <trkpt lat="36.573975" lon="-4.858101">
        <ele>556.795</ele>
        <time>2021-06-16T20:41:34Z</time>
      </trkpt>
      <trkpt lat="36.57382" lon="-4.858442">
        <ele>556.734</ele>
        <time>2021-06-16T20:41:36Z</time>
      </trkpt>
      <trkpt lat="36.573734" lon="-4.85882">
        <ele>557.048</ele>
        <time>2021-06-16T20:41:38Z</time>
      </trkpt>
      <trkpt lat="36.573763" lon="-4.859214">
        <ele>556.886</ele>
        <time>2021-06-16T20:41:40Z</time>
      </trkpt>
      <trkpt lat="36.573874" lon="-4.859594">
        <ele>556.560</ele>
        <time>2021-06-16T20:41:42Z</time>
      </trkpt>
      <trkpt lat="36.574069" lon="-4.859939">
        <ele>556.126</ele>
        <time>2021-06-16T20:41:44Z</time>
      </trkpt>
      <trkpt lat="36.574194" lon="-4.860085">
        <ele>555.108</ele>
        <time>2021-06-16T20:41:45Z</time>
      </trkpt>
      <trkpt lat="36.574329" lon="-4.860217">
        <ele>554.385</ele>
        <time>2021-06-16T20:41:46Z</time>
      </trkpt>
      <trkpt lat="36.574603" lon="-4.860477">
        <ele>553.444</ele>
        <time>2021-06-16T20:41:48Z</time>
      </trkpt>
      <trkpt lat="36.574735" lon="-4.860615">
        <ele>552.498</ele>
        <time>2021-06-16T20:41:49Z</time>
      </trkpt>
      <trkpt lat="36.574972" lon="-4.860904">
        <ele>551.478</ele>
        <time>2021-06-16T20:41:51Z</time>
      </trkpt>
      <trkpt lat="36.575071" lon="-4.861057">
        <ele>550.494</ele>
        <time>2021-06-16T20:41:52Z</time>
      </trkpt>
      <trkpt lat="36.57514" lon="-4.861245">
        <ele>547.996</ele>
        <time>2021-06-16T20:41:53Z</time>
      </trkpt>
      <trkpt lat="36.575209" lon="-4.861657">
        <ele>544.425</ele>
        <time>2021-06-16T20:41:55Z</time>
      </trkpt>
      <trkpt lat="36.575201" lon="-4.861849">
        <ele>542.719</ele>
        <time>2021-06-16T20:41:56Z</time>
      </trkpt>
      <trkpt lat="36.57516" lon="-4.862037">
        <ele>540.712</ele>
        <time>2021-06-16T20:41:57Z</time>
      </trkpt>
      <trkpt lat="36.575089" lon="-4.862222">
        <ele>539.332</ele>
        <time>2021-06-16T20:41:58Z</time>
      </trkpt>
      <trkpt lat="36.574882" lon="-4.862549">
        <ele>537.905</ele>
        <time>2021-06-16T20:42:00Z</time>
      </trkpt>
      <trkpt lat="36.574754" lon="-4.862692">
        <ele>536.808</ele>
        <time>2021-06-16T20:42:01Z</time>
      </trkpt>
      <trkpt lat="36.574476" lon="-4.86297">
        <ele>536.098</ele>
        <time>2021-06-16T20:42:03Z</time>
      </trkpt>
      <trkpt lat="36.574187" lon="-4.863233">
        <ele>534.827</ele>
        <time>2021-06-16T20:42:05Z</time>
      </trkpt>
      <trkpt lat="36.573911" lon="-4.863489">
        <ele>534.361</ele>
        <time>2021-06-16T20:42:07Z</time>
      </trkpt>
      <trkpt lat="36.573654" lon="-4.863736">
        <ele>533.161</ele>
        <time>2021-06-16T20:42:09Z</time>
      </trkpt>
      <trkpt lat="36.573527" lon="-4.863859">
        <ele>532.027</ele>
        <time>2021-06-16T20:42:10Z</time>
      </trkpt>
      <trkpt lat="36.573287" lon="-4.864094">
        <ele>530.499</ele>
        <time>2021-06-16T20:42:12Z</time>
      </trkpt>
      <trkpt lat="36.573159" lon="-4.864192">
        <ele>528.988</ele>
        <time>2021-06-16T20:42:13Z</time>
      </trkpt>
      <trkpt lat="36.572884" lon="-4.864328">
        <ele>525.852</ele>
        <time>2021-06-16T20:42:15Z</time>
      </trkpt>
      <trkpt lat="36.57273" lon="-4.864351">
        <ele>523.822</ele>
        <time>2021-06-16T20:42:16Z</time>
      </trkpt>
      <trkpt lat="36.572571" lon="-4.864347">
        <ele>522.162</ele>
        <time>2021-06-16T20:42:17Z</time>
      </trkpt>
      <trkpt lat="36.572416" lon="-4.864311">
        <ele>520.808</ele>
        <time>2021-06-16T20:42:18Z</time>
      </trkpt>
      <trkpt lat="36.572263" lon="-4.864241">
        <ele>519.708</ele>
        <time>2021-06-16T20:42:19Z</time>
      </trkpt>
      <trkpt lat="36.572115" lon="-4.864155">
        <ele>518.929</ele>
        <time>2021-06-16T20:42:20Z</time>
      </trkpt>
      <trkpt lat="36.571817" lon="-4.863959">
        <ele>518.268</ele>
        <time>2021-06-16T20:42:22Z</time>
      </trkpt>
      <trkpt lat="36.57151" lon="-4.863794">
        <ele>517.072</ele>
        <time>2021-06-16T20:42:24Z</time>
      </trkpt>
      <trkpt lat="36.571345" lon="-4.863744">
        <ele>515.672</ele>
        <time>2021-06-16T20:42:25Z</time>
      </trkpt>
      <trkpt lat="36.571174" lon="-4.863725">
        <ele>514.178</ele>
        <time>2021-06-16T20:42:26Z</time>
      </trkpt>
      <trkpt lat="36.571005" lon="-4.863736">
        <ele>512.440</ele>
        <time>2021-06-16T20:42:27Z</time>
      </trkpt>
      <trkpt lat="36.570664" lon="-4.863774">
        <ele>510.929</ele>
        <time>2021-06-16T20:42:29Z</time>
      </trkpt>
      <trkpt lat="36.570339" lon="-4.863737">
        <ele>508.353</ele>
        <time>2021-06-16T20:42:31Z</time>
      </trkpt>
      <trkpt lat="36.570182" lon="-4.863684">
        <ele>506.418</ele>
        <time>2021-06-16T20:42:32Z</time>
      </trkpt>
      <trkpt lat="36.56989" lon="-4.863551">
        <ele>504.798</ele>
        <time>2021-06-16T20:42:34Z</time>
      </trkpt>
      <trkpt lat="36.569746" lon="-4.86349">
        <ele>503.217</ele>
        <time>2021-06-16T20:42:35Z</time>
      </trkpt>
      <trkpt lat="36.569468" lon="-4.863434">
        <ele>501.608</ele>
        <time>2021-06-16T20:42:37Z</time>
      </trkpt>
      <trkpt lat="36.569333" lon="-4.863448">
        <ele>500.478</ele>
        <time>2021-06-16T20:42:38Z</time>
      </trkpt>
      <trkpt lat="36.569075" lon="-4.863576">
        <ele>498.477</ele>
        <time>2021-06-16T20:42:40Z</time>
      </trkpt>
      <trkpt lat="36.568959" lon="-4.863681">
        <ele>497.241</ele>
        <time>2021-06-16T20:42:41Z</time>
      </trkpt>
      <trkpt lat="36.568851" lon="-4.863805">
        <ele>496.171</ele>
        <time>2021-06-16T20:42:42Z</time>
      </trkpt>
      <trkpt lat="36.568756" lon="-4.863944">
        <ele>494.767</ele>
        <time>2021-06-16T20:42:43Z</time>
      </trkpt>
      <trkpt lat="36.568582" lon="-4.864247">
        <ele>492.159</ele>
        <time>2021-06-16T20:42:45Z</time>
      </trkpt>
      <trkpt lat="36.568484" lon="-4.864392">
        <ele>490.258</ele>
        <time>2021-06-16T20:42:46Z</time>
      </trkpt>
      <trkpt lat="36.568374" lon="-4.864527">
        <ele>488.662</ele>
        <time>2021-06-16T20:42:47Z</time>
      </trkpt>
      <trkpt lat="36.568251" lon="-4.864653">
        <ele>487.112</ele>
        <time>2021-06-16T20:42:48Z</time>
      </trkpt>
      <trkpt lat="36.567972" lon="-4.864827">
        <ele>485.732</ele>
        <time>2021-06-16T20:42:50Z</time>
      </trkpt>
      <trkpt lat="36.567668" lon="-4.864915">
        <ele>483.905</ele>
        <time>2021-06-16T20:42:52Z</time>
      </trkpt>
      <trkpt lat="36.567509" lon="-4.864916">
        <ele>482.608</ele>
        <time>2021-06-16T20:42:53Z</time>
      </trkpt>
      <trkpt lat="36.567203" lon="-4.864837">
        <ele>481.298</ele>
        <time>2021-06-16T20:42:55Z</time>
      </trkpt>
      <trkpt lat="36.56706" lon="-4.864762">
        <ele>480.067</ele>
        <time>2021-06-16T20:42:56Z</time>
      </trkpt>
      <trkpt lat="36.566801" lon="-4.864561">
        <ele>479.011</ele>
        <time>2021-06-16T20:42:58Z</time>
      </trkpt>
      <trkpt lat="36.566602" lon="-4.864264">
        <ele>477.771</ele>
        <time>2021-06-16T20:43:00Z</time>
      </trkpt>
      <trkpt lat="36.566464" lon="-4.863931">
        <ele>476.247</ele>
        <time>2021-06-16T20:43:02Z</time>
      </trkpt>
      <trkpt lat="36.566364" lon="-4.863584">
        <ele>474.569</ele>
        <time>2021-06-16T20:43:04Z</time>
      </trkpt>
      <trkpt lat="36.566255" lon="-4.863248">
        <ele>472.938</ele>
        <time>2021-06-16T20:43:06Z</time>
      </trkpt>
      <trkpt lat="36.566196" lon="-4.863081">
        <ele>472.072</ele>
        <time>2021-06-16T20:43:07Z</time>
      </trkpt>
      <trkpt lat="36.566077" lon="-4.862752">
        <ele>470.753</ele>
        <time>2021-06-16T20:43:09Z</time>
      </trkpt>
      <trkpt lat="36.566013" lon="-4.86259">
        <ele>470.004</ele>
        <time>2021-06-16T20:43:10Z</time>
      </trkpt>
      <trkpt lat="36.565865" lon="-4.862281">
        <ele>468.714</ele>
        <time>2021-06-16T20:43:12Z</time>
      </trkpt>
      <trkpt lat="36.565659" lon="-4.862021">
        <ele>467.508</ele>
        <time>2021-06-16T20:43:14Z</time>
      </trkpt>
      <trkpt lat="36.565535" lon="-4.861917">
        <ele>467.022</ele>
        <time>2021-06-16T20:43:15Z</time>
      </trkpt>
      <trkpt lat="36.565252" lon="-4.861778">
        <ele>466.151</ele>
        <time>2021-06-16T20:43:17Z</time>
      </trkpt>
      <trkpt lat="36.565096" lon="-4.861747">
        <ele>465.415</ele>
        <time>2021-06-16T20:43:18Z</time>
      </trkpt>
      <trkpt lat="36.564775" lon="-4.861765">
        <ele>464.365</ele>
        <time>2021-06-16T20:43:20Z</time>
      </trkpt>
      <trkpt lat="36.564621" lon="-4.861816">
        <ele>463.471</ele>
        <time>2021-06-16T20:43:21Z</time>
      </trkpt>
      <trkpt lat="36.564475" lon="-4.861897">
        <ele>462.523</ele>
        <time>2021-06-16T20:43:22Z</time>
      </trkpt>
      <trkpt lat="36.56422" lon="-4.862131">
        <ele>461.682</ele>
        <time>2021-06-16T20:43:24Z</time>
      </trkpt>
      <trkpt lat="36.56411" lon="-4.862272">
        <ele>461.036</ele>
        <time>2021-06-16T20:43:25Z</time>
      </trkpt>
      <trkpt lat="36.56392" lon="-4.862584">
        <ele>459.614</ele>
        <time>2021-06-16T20:43:27Z</time>
      </trkpt>
      <trkpt lat="36.563711" lon="-4.862872">
        <ele>458.654</ele>
        <time>2021-06-16T20:43:29Z</time>
      </trkpt>
      <trkpt lat="36.56345" lon="-4.863084">
        <ele>457.209</ele>
        <time>2021-06-16T20:43:31Z</time>
      </trkpt>
      <trkpt lat="36.563153" lon="-4.863198">
        <ele>456.108</ele>
        <time>2021-06-16T20:43:33Z</time>
      </trkpt>
      <trkpt lat="36.562868" lon="-4.863215">
        <ele>455.268</ele>
        <time>2021-06-16T20:43:35Z</time>
      </trkpt>
      <trkpt lat="36.562742" lon="-4.863196">
        <ele>454.427</ele>
        <time>2021-06-16T20:43:36Z</time>
      </trkpt>
      <trkpt lat="36.56262" lon="-4.863169">
        <ele>453.341</ele>
        <time>2021-06-16T20:43:37Z</time>
      </trkpt>
      <trkpt lat="36.562375" lon="-4.863124">
        <ele>452.941</ele>
        <time>2021-06-16T20:43:39Z</time>
      </trkpt>
      <trkpt lat="36.562249" lon="-4.863109">
        <ele>452.557</ele>
        <time>2021-06-16T20:43:40Z</time>
      </trkpt>
      <trkpt lat="36.561992" lon="-4.863064">
        <ele>452.199</ele>
        <time>2021-06-16T20:43:42Z</time>
      </trkpt>
      <trkpt lat="36.561723" lon="-4.863017">
        <ele>451.688</ele>
        <time>2021-06-16T20:43:44Z</time>
      </trkpt>
      <trkpt lat="36.561589" lon="-4.862998">
        <ele>451.662</ele>
        <time>2021-06-16T20:43:45Z</time>
      </trkpt>
      <trkpt lat="36.561455" lon="-4.862975">
        <ele>451.329</ele>
        <time>2021-06-16T20:43:46Z</time>
      </trkpt>
      <trkpt lat="36.561196" lon="-4.862914">
        <ele>450.500</ele>
        <time>2021-06-16T20:43:48Z</time>
      </trkpt>
      <trkpt lat="36.560974" lon="-4.862831">
        <ele>449.420</ele>
        <time>2021-06-16T20:43:50Z</time>
      </trkpt>
      <trkpt lat="36.560876" lon="-4.862773">
        <ele>448.508</ele>
        <time>2021-06-16T20:43:51Z</time>
      </trkpt>
      <trkpt lat="36.560693" lon="-4.862615">
        <ele>447.579</ele>
        <time>2021-06-16T20:43:53Z</time>
      </trkpt>
      <trkpt lat="36.560545" lon="-4.862428">
        <ele>446.198</ele>
        <time>2021-06-16T20:43:55Z</time>
      </trkpt>
      <trkpt lat="36.560428" lon="-4.862201">
        <ele>444.532</ele>
        <time>2021-06-16T20:43:57Z</time>
      </trkpt>
      <trkpt lat="36.56033" lon="-4.861953">
        <ele>443.052</ele>
        <time>2021-06-16T20:43:59Z</time>
      </trkpt>
      <trkpt lat="36.560225" lon="-4.86169">
        <ele>441.498</ele>
        <time>2021-06-16T20:44:01Z</time>
      </trkpt>
      <trkpt lat="36.560091" lon="-4.861436">
        <ele>439.460</ele>
        <time>2021-06-16T20:44:03Z</time>
      </trkpt>
      <trkpt lat="36.559999" lon="-4.861319">
        <ele>438.369</ele>
        <time>2021-06-16T20:44:04Z</time>
      </trkpt>
      <trkpt lat="36.559891" lon="-4.861217">
        <ele>437.643</ele>
        <time>2021-06-16T20:44:05Z</time>
      </trkpt>
      <trkpt lat="36.559646" lon="-4.861072">
        <ele>436.776</ele>
        <time>2021-06-16T20:44:07Z</time>
      </trkpt>
      <trkpt lat="36.559385" lon="-4.861007">
        <ele>436.290</ele>
        <time>2021-06-16T20:44:09Z</time>
      </trkpt>
      <trkpt lat="36.559121" lon="-4.860999">
        <ele>435.819</ele>
        <time>2021-06-16T20:44:11Z</time>
      </trkpt>
      <trkpt lat="36.558866" lon="-4.861026">
        <ele>435.508</ele>
        <time>2021-06-16T20:44:13Z</time>
      </trkpt>
      <trkpt lat="36.558628" lon="-4.86108">
        <ele>434.824</ele>
        <time>2021-06-16T20:44:15Z</time>
      </trkpt>
      <trkpt lat="36.558519" lon="-4.861119">
        <ele>434.563</ele>
        <time>2021-06-16T20:44:16Z</time>
      </trkpt>
      <trkpt lat="36.558415" lon="-4.861168">
        <ele>434.047</ele>
        <time>2021-06-16T20:44:17Z</time>
      </trkpt>
      <trkpt lat="36.558316" lon="-4.861232">
        <ele>433.387</ele>
        <time>2021-06-16T20:44:18Z</time>
      </trkpt>
      <trkpt lat="36.558142" lon="-4.861414">
        <ele>432.883</ele>
        <time>2021-06-16T20:44:20Z</time>
      </trkpt>
      <trkpt lat="36.558029" lon="-4.861664">
        <ele>432.595</ele>
        <time>2021-06-16T20:44:22Z</time>
      </trkpt>
      <trkpt lat="36.557982" lon="-4.861951">
        <ele>431.644</ele>
        <time>2021-06-16T20:44:24Z</time>
      </trkpt>
      <trkpt lat="36.558012" lon="-4.86225">
        <ele>430.018</ele>
        <time>2021-06-16T20:44:26Z</time>
      </trkpt>
      <trkpt lat="36.558057" lon="-4.862393">
        <ele>429.517</ele>
        <time>2021-06-16T20:44:27Z</time>
      </trkpt>
      <trkpt lat="36.558192" lon="-4.862653">
        <ele>428.287</ele>
        <time>2021-06-16T20:44:29Z</time>
      </trkpt>
      <trkpt lat="36.558267" lon="-4.86278">
        <ele>427.215</ele>
        <time>2021-06-16T20:44:30Z</time>
      </trkpt>
      <trkpt lat="36.558342" lon="-4.862904">
        <ele>426.408</ele>
        <time>2021-06-16T20:44:31Z</time>
      </trkpt>
      <trkpt lat="36.558469" lon="-4.863177">
        <ele>425.368</ele>
        <time>2021-06-16T20:44:33Z</time>
      </trkpt>
      <trkpt lat="36.558527" lon="-4.863482">
        <ele>423.017</ele>
        <time>2021-06-16T20:44:35Z</time>
      </trkpt>
      <trkpt lat="36.558498" lon="-4.863792">
        <ele>421.291</ele>
        <time>2021-06-16T20:44:37Z</time>
      </trkpt>
      <trkpt lat="36.55839" lon="-4.86408">
        <ele>419.421</ele>
        <time>2021-06-16T20:44:39Z</time>
      </trkpt>
      <trkpt lat="36.558305" lon="-4.864204">
        <ele>418.047</ele>
        <time>2021-06-16T20:44:40Z</time>
      </trkpt>
      <trkpt lat="36.558201" lon="-4.864308">
        <ele>417.029</ele>
        <time>2021-06-16T20:44:41Z</time>
      </trkpt>
      <trkpt lat="36.557963" lon="-4.864452">
        <ele>416.278</ele>
        <time>2021-06-16T20:44:43Z</time>
      </trkpt>
      <trkpt lat="36.557838" lon="-4.864493">
        <ele>415.822</ele>
        <time>2021-06-16T20:44:44Z</time>
      </trkpt>
      <trkpt lat="36.557597" lon="-4.86454">
        <ele>414.839</ele>
        <time>2021-06-16T20:44:46Z</time>
      </trkpt>
      <trkpt lat="36.557481" lon="-4.864565">
        <ele>414.301</ele>
        <time>2021-06-16T20:44:47Z</time>
      </trkpt>
      <trkpt lat="36.557258" lon="-4.864672">
        <ele>413.321</ele>
        <time>2021-06-16T20:44:49Z</time>
      </trkpt>
      <trkpt lat="36.557152" lon="-4.86475">
        <ele>412.608</ele>
        <time>2021-06-16T20:44:50Z</time>
      </trkpt>
      <trkpt lat="36.556954" lon="-4.864924">
        <ele>411.980</ele>
        <time>2021-06-16T20:44:52Z</time>
      </trkpt>
      <trkpt lat="36.556772" lon="-4.865128">
        <ele>411.359</ele>
        <time>2021-06-16T20:44:54Z</time>
      </trkpt>
      <trkpt lat="36.556673" lon="-4.865221">
        <ele>410.873</ele>
        <time>2021-06-16T20:44:55Z</time>
      </trkpt>
      <trkpt lat="36.556564" lon="-4.8653">
        <ele>410.593</ele>
        <time>2021-06-16T20:44:56Z</time>
      </trkpt>
      <trkpt lat="36.556316" lon="-4.865407">
        <ele>409.069</ele>
        <time>2021-06-16T20:44:58Z</time>
      </trkpt>
      <trkpt lat="36.556056" lon="-4.865382">
        <ele>407.761</ele>
        <time>2021-06-16T20:45:00Z</time>
      </trkpt>
      <trkpt lat="36.555932" lon="-4.865334">
        <ele>406.540</ele>
        <time>2021-06-16T20:45:01Z</time>
      </trkpt>
      <trkpt lat="36.555711" lon="-4.865166">
        <ele>406.314</ele>
        <time>2021-06-16T20:45:03Z</time>
      </trkpt>
      <trkpt lat="36.555532" lon="-4.864938">
        <ele>405.677</ele>
        <time>2021-06-16T20:45:05Z</time>
      </trkpt>
      <trkpt lat="36.555466" lon="-4.864807">
        <ele>405.261</ele>
        <time>2021-06-16T20:45:06Z</time>
      </trkpt>
      <trkpt lat="36.555375" lon="-4.864529">
        <ele>404.327</ele>
        <time>2021-06-16T20:45:08Z</time>
      </trkpt>
      <trkpt lat="36.555344" lon="-4.864381">
        <ele>403.608</ele>
        <time>2021-06-16T20:45:09Z</time>
      </trkpt>
      <trkpt lat="36.55533" lon="-4.864067">
        <ele>402.834</ele>
        <time>2021-06-16T20:45:11Z</time>
      </trkpt>
      <trkpt lat="36.555335" lon="-4.863911">
        <ele>401.693</ele>
        <time>2021-06-16T20:45:12Z</time>
      </trkpt>
      <trkpt lat="36.555339" lon="-4.863755">
        <ele>400.747</ele>
        <time>2021-06-16T20:45:13Z</time>
      </trkpt>
      <trkpt lat="36.555338" lon="-4.863598">
        <ele>400.237</ele>
        <time>2021-06-16T20:45:14Z</time>
      </trkpt>
      <trkpt lat="36.555316" lon="-4.863281">
        <ele>399.673</ele>
        <time>2021-06-16T20:45:16Z</time>
      </trkpt>
      <trkpt lat="36.555293" lon="-4.863126">
        <ele>399.145</ele>
        <time>2021-06-16T20:45:17Z</time>
      </trkpt>
      <trkpt lat="36.555211" lon="-4.862829">
        <ele>398.184</ele>
        <time>2021-06-16T20:45:19Z</time>
      </trkpt>
      <trkpt lat="36.555087" lon="-4.862555">
        <ele>397.038</ele>
        <time>2021-06-16T20:45:21Z</time>
      </trkpt>
      <trkpt lat="36.555007" lon="-4.86243">
        <ele>396.295</ele>
        <time>2021-06-16T20:45:22Z</time>
      </trkpt>
      <trkpt lat="36.55491" lon="-4.862321">
        <ele>395.349</ele>
        <time>2021-06-16T20:45:23Z</time>
      </trkpt>
      <trkpt lat="36.554674" lon="-4.862168">
        <ele>393.923</ele>
        <time>2021-06-16T20:45:25Z</time>
      </trkpt>
      <trkpt lat="36.554542" lon="-4.862133">
        <ele>392.908</ele>
        <time>2021-06-16T20:45:26Z</time>
      </trkpt>
      <trkpt lat="36.554271" lon="-4.862154">
        <ele>391.886</ele>
        <time>2021-06-16T20:45:28Z</time>
      </trkpt>
      <trkpt lat="36.554028" lon="-4.862307">
        <ele>390.655</ele>
        <time>2021-06-16T20:45:30Z</time>
      </trkpt>
      <trkpt lat="36.553828" lon="-4.862547">
        <ele>389.279</ele>
        <time>2021-06-16T20:45:32Z</time>
      </trkpt>
      <trkpt lat="36.553642" lon="-4.862791">
        <ele>388.039</ele>
        <time>2021-06-16T20:45:34Z</time>
      </trkpt>
      <trkpt lat="36.553538" lon="-4.862888">
        <ele>387.525</ele>
        <time>2021-06-16T20:45:35Z</time>
      </trkpt>
      <trkpt lat="36.553296" lon="-4.863015">
        <ele>386.687</ele>
        <time>2021-06-16T20:45:37Z</time>
      </trkpt>
      <trkpt lat="36.553161" lon="-4.863039">
        <ele>385.986</ele>
        <time>2021-06-16T20:45:38Z</time>
      </trkpt>
      <trkpt lat="36.553025" lon="-4.863035">
        <ele>385.080</ele>
        <time>2021-06-16T20:45:39Z</time>
      </trkpt>
      <trkpt lat="36.552894" lon="-4.863007">
        <ele>384.263</ele>
        <time>2021-06-16T20:45:40Z</time>
      </trkpt>
      <trkpt lat="36.552766" lon="-4.86295">
        <ele>383.744</ele>
        <time>2021-06-16T20:45:41Z</time>
      </trkpt>
      <trkpt lat="36.552648" lon="-4.862862">
        <ele>382.918</ele>
        <time>2021-06-16T20:45:42Z</time>
      </trkpt>
      <trkpt lat="36.552549" lon="-4.862736">
        <ele>382.308</ele>
        <time>2021-06-16T20:45:43Z</time>
      </trkpt>
      <trkpt lat="36.552399" lon="-4.862451">
        <ele>381.793</ele>
        <time>2021-06-16T20:45:45Z</time>
      </trkpt>
      <trkpt lat="36.552259" lon="-4.86216">
        <ele>380.432</ele>
        <time>2021-06-16T20:45:47Z</time>
      </trkpt>
      <trkpt lat="36.552077" lon="-4.861911">
        <ele>378.666</ele>
        <time>2021-06-16T20:45:49Z</time>
      </trkpt>
      <trkpt lat="36.551965" lon="-4.861803">
        <ele>377.126</ele>
        <time>2021-06-16T20:45:50Z</time>
      </trkpt>
      <trkpt lat="36.551841" lon="-4.861709">
        <ele>376.182</ele>
        <time>2021-06-16T20:45:51Z</time>
      </trkpt>
      <trkpt lat="36.551707" lon="-4.861631">
        <ele>375.424</ele>
        <time>2021-06-16T20:45:52Z</time>
      </trkpt>
      <trkpt lat="36.551414" lon="-4.861553">
        <ele>374.233</ele>
        <time>2021-06-16T20:45:54Z</time>
      </trkpt>
      <trkpt lat="36.551259" lon="-4.861549">
        <ele>373.137</ele>
        <time>2021-06-16T20:45:55Z</time>
      </trkpt>
      <trkpt lat="36.550943" lon="-4.861569">
        <ele>372.142</ele>
        <time>2021-06-16T20:45:57Z</time>
      </trkpt>
      <trkpt lat="36.55063" lon="-4.861595">
        <ele>371.522</ele>
        <time>2021-06-16T20:45:59Z</time>
      </trkpt>
      <trkpt lat="36.550473" lon="-4.861599">
        <ele>370.414</ele>
        <time>2021-06-16T20:46:00Z</time>
      </trkpt>
      <trkpt lat="36.550158" lon="-4.861593">
        <ele>369.508</ele>
        <time>2021-06-16T20:46:02Z</time>
      </trkpt>
      <trkpt lat="36.549843" lon="-4.861569">
        <ele>368.141</ele>
        <time>2021-06-16T20:46:04Z</time>
      </trkpt>
      <trkpt lat="36.549686" lon="-4.861547">
        <ele>366.880</ele>
        <time>2021-06-16T20:46:05Z</time>
      </trkpt>
      <trkpt lat="36.549525" lon="-4.86152">
        <ele>365.744</ele>
        <time>2021-06-16T20:46:06Z</time>
      </trkpt>
      <trkpt lat="36.549208" lon="-4.861457">
        <ele>364.424</ele>
        <time>2021-06-16T20:46:08Z</time>
      </trkpt>
      <trkpt lat="36.549049" lon="-4.861424">
        <ele>363.380</ele>
        <time>2021-06-16T20:46:09Z</time>
      </trkpt>
      <trkpt lat="36.548887" lon="-4.861395">
        <ele>362.772</ele>
        <time>2021-06-16T20:46:10Z</time>
      </trkpt>
      <trkpt lat="36.548553" lon="-4.861351">
        <ele>361.771</ele>
        <time>2021-06-16T20:46:12Z</time>
      </trkpt>
      <trkpt lat="36.548199" lon="-4.861335">
        <ele>360.815</ele>
        <time>2021-06-16T20:46:14Z</time>
      </trkpt>
      <trkpt lat="36.547842" lon="-4.861338">
        <ele>359.359</ele>
        <time>2021-06-16T20:46:16Z</time>
      </trkpt>
      <trkpt lat="36.547669" lon="-4.861354">
        <ele>358.203</ele>
        <time>2021-06-16T20:46:17Z</time>
      </trkpt>
      <trkpt lat="36.5475" lon="-4.861368">
        <ele>356.923</ele>
        <time>2021-06-16T20:46:18Z</time>
      </trkpt>
      <trkpt lat="36.547162" lon="-4.861389">
        <ele>355.108</ele>
        <time>2021-06-16T20:46:20Z</time>
      </trkpt>
      <trkpt lat="36.54682" lon="-4.86141">
        <ele>353.042</ele>
        <time>2021-06-16T20:46:22Z</time>
      </trkpt>
      <trkpt lat="36.546477" lon="-4.861432">
        <ele>350.921</ele>
        <time>2021-06-16T20:46:24Z</time>
      </trkpt>
      <trkpt lat="36.546305" lon="-4.861448">
        <ele>349.515</ele>
        <time>2021-06-16T20:46:25Z</time>
      </trkpt>
      <trkpt lat="36.545965" lon="-4.861487">
        <ele>347.775</ele>
        <time>2021-06-16T20:46:27Z</time>
      </trkpt>
      <trkpt lat="36.545797" lon="-4.861517">
        <ele>346.091</ele>
        <time>2021-06-16T20:46:28Z</time>
      </trkpt>
      <trkpt lat="36.545468" lon="-4.861618">
        <ele>344.063</ele>
        <time>2021-06-16T20:46:30Z</time>
      </trkpt>
      <trkpt lat="36.545308" lon="-4.861694">
        <ele>342.312</ele>
        <time>2021-06-16T20:46:31Z</time>
      </trkpt>
      <trkpt lat="36.545012" lon="-4.861907">
        <ele>340.756</ele>
        <time>2021-06-16T20:46:33Z</time>
      </trkpt>
      <trkpt lat="36.544743" lon="-4.862175">
        <ele>338.673</ele>
        <time>2021-06-16T20:46:35Z</time>
      </trkpt>
      <trkpt lat="36.544514" lon="-4.862495">
        <ele>335.385</ele>
        <time>2021-06-16T20:46:37Z</time>
      </trkpt>
      <trkpt lat="36.544314" lon="-4.862864">
        <ele>331.313</ele>
        <time>2021-06-16T20:46:39Z</time>
      </trkpt>
      <trkpt lat="36.54422" lon="-4.86305">
        <ele>328.708</ele>
        <time>2021-06-16T20:46:40Z</time>
      </trkpt>
      <trkpt lat="36.544028" lon="-4.863405">
        <ele>326.454</ele>
        <time>2021-06-16T20:46:42Z</time>
      </trkpt>
      <trkpt lat="36.543795" lon="-4.863728">
        <ele>323.923</ele>
        <time>2021-06-16T20:46:44Z</time>
      </trkpt>
      <trkpt lat="36.54352" lon="-4.864003">
        <ele>321.297</ele>
        <time>2021-06-16T20:46:46Z</time>
      </trkpt>
      <trkpt lat="36.543369" lon="-4.86412">
        <ele>319.217</ele>
        <time>2021-06-16T20:46:47Z</time>
      </trkpt>
      <trkpt lat="36.543045" lon="-4.864299">
        <ele>317.583</ele>
        <time>2021-06-16T20:46:49Z</time>
      </trkpt>
      <trkpt lat="36.542873" lon="-4.864364">
        <ele>316.425</ele>
        <time>2021-06-16T20:46:50Z</time>
      </trkpt>
      <trkpt lat="36.542519" lon="-4.864453">
        <ele>315.344</ele>
        <time>2021-06-16T20:46:52Z</time>
      </trkpt>
      <trkpt lat="36.542336" lon="-4.864486">
        <ele>313.788</ele>
        <time>2021-06-16T20:46:53Z</time>
      </trkpt>
      <trkpt lat="36.542151" lon="-4.864518">
        <ele>312.467</ele>
        <time>2021-06-16T20:46:54Z</time>
      </trkpt>
      <trkpt lat="36.541965" lon="-4.864554">
        <ele>311.381</ele>
        <time>2021-06-16T20:46:55Z</time>
      </trkpt>
      <trkpt lat="36.541596" lon="-4.864636">
        <ele>309.319</ele>
        <time>2021-06-16T20:46:57Z</time>
      </trkpt>
      <trkpt lat="36.541228" lon="-4.864719">
        <ele>306.408</ele>
        <time>2021-06-16T20:46:59Z</time>
      </trkpt>
      <trkpt lat="36.541043" lon="-4.86476">
        <ele>304.393</ele>
        <time>2021-06-16T20:47:00Z</time>
      </trkpt>
      <trkpt lat="36.540859" lon="-4.864799">
        <ele>302.842</ele>
        <time>2021-06-16T20:47:01Z</time>
      </trkpt>
      <trkpt lat="36.540492" lon="-4.86488">
        <ele>300.736</ele>
        <time>2021-06-16T20:47:03Z</time>
      </trkpt>
      <trkpt lat="36.540129" lon="-4.864956">
        <ele>298.216</ele>
        <time>2021-06-16T20:47:05Z</time>
      </trkpt>
      <trkpt lat="36.539762" lon="-4.865034">
        <ele>295.662</ele>
        <time>2021-06-16T20:47:07Z</time>
      </trkpt>
      <trkpt lat="36.539578" lon="-4.865074">
        <ele>293.474</ele>
        <time>2021-06-16T20:47:08Z</time>
      </trkpt>
      <trkpt lat="36.539222" lon="-4.865149">
        <ele>291.013</ele>
        <time>2021-06-16T20:47:10Z</time>
      </trkpt>
      <trkpt lat="36.538863" lon="-4.86522">
        <ele>288.527</ele>
        <time>2021-06-16T20:47:12Z</time>
      </trkpt>
      <trkpt lat="36.538688" lon="-4.865253">
        <ele>286.675</ele>
        <time>2021-06-16T20:47:13Z</time>
      </trkpt>
      <trkpt lat="36.538343" lon="-4.86532">
        <ele>284.628</ele>
        <time>2021-06-16T20:47:15Z</time>
      </trkpt>
      <trkpt lat="36.538168" lon="-4.865356">
        <ele>282.820</ele>
        <time>2021-06-16T20:47:16Z</time>
      </trkpt>
      <trkpt lat="36.537993" lon="-4.865399">
        <ele>281.508</ele>
        <time>2021-06-16T20:47:17Z</time>
      </trkpt>
      <trkpt lat="36.537818" lon="-4.865454">
        <ele>280.034</ele>
        <time>2021-06-16T20:47:18Z</time>
      </trkpt>
      <trkpt lat="36.537486" lon="-4.865628">
        <ele>277.583</ele>
        <time>2021-06-16T20:47:20Z</time>
      </trkpt>
      <trkpt lat="36.537168" lon="-4.865879">
        <ele>275.147</ele>
        <time>2021-06-16T20:47:22Z</time>
      </trkpt>
      <trkpt lat="36.536879" lon="-4.866202">
        <ele>272.067</ele>
        <time>2021-06-16T20:47:24Z</time>
      </trkpt>
      <trkpt lat="36.536734" lon="-4.866366">
        <ele>269.383</ele>
        <time>2021-06-16T20:47:25Z</time>
      </trkpt>
      <trkpt lat="36.536586" lon="-4.86653">
        <ele>267.065</ele>
        <time>2021-06-16T20:47:26Z</time>
      </trkpt>
      <trkpt lat="36.536438" lon="-4.866696">
        <ele>264.794</ele>
        <time>2021-06-16T20:47:27Z</time>
      </trkpt>
      <trkpt lat="36.536145" lon="-4.867019">
        <ele>261.848</ele>
        <time>2021-06-16T20:47:29Z</time>
      </trkpt>
      <trkpt lat="36.535997" lon="-4.86718">
        <ele>259.471</ele>
        <time>2021-06-16T20:47:30Z</time>
      </trkpt>
      <trkpt lat="36.535699" lon="-4.867498">
        <ele>256.641</ele>
        <time>2021-06-16T20:47:32Z</time>
      </trkpt>
      <trkpt lat="36.53555" lon="-4.867657">
        <ele>254.515</ele>
        <time>2021-06-16T20:47:33Z</time>
      </trkpt>
      <trkpt lat="36.535254" lon="-4.867976">
        <ele>251.908</ele>
        <time>2021-06-16T20:47:35Z</time>
      </trkpt>
      <trkpt lat="36.535106" lon="-4.868138">
        <ele>249.764</ele>
        <time>2021-06-16T20:47:36Z</time>
      </trkpt>
      <trkpt lat="36.534805" lon="-4.868443">
        <ele>247.863</ele>
        <time>2021-06-16T20:47:38Z</time>
      </trkpt>
      <trkpt lat="36.534502" lon="-4.868744">
        <ele>245.557</ele>
        <time>2021-06-16T20:47:40Z</time>
      </trkpt>
      <trkpt lat="36.534216" lon="-4.869062">
        <ele>243.887</ele>
        <time>2021-06-16T20:47:42Z</time>
      </trkpt>
      <trkpt lat="36.53409" lon="-4.869232">
        <ele>242.543</ele>
        <time>2021-06-16T20:47:43Z</time>
      </trkpt>
      <trkpt lat="36.533886" lon="-4.869617">
        <ele>240.765</ele>
        <time>2021-06-16T20:47:45Z</time>
      </trkpt>
      <trkpt lat="36.533736" lon="-4.870026">
        <ele>238.124</ele>
        <time>2021-06-16T20:47:47Z</time>
      </trkpt>
      <trkpt lat="36.53362" lon="-4.870461">
        <ele>236.138</ele>
        <time>2021-06-16T20:47:49Z</time>
      </trkpt>
      <trkpt lat="36.533534" lon="-4.870894">
        <ele>234.341</ele>
        <time>2021-06-16T20:47:51Z</time>
      </trkpt>
      <trkpt lat="36.533429" lon="-4.871333">
        <ele>232.581</ele>
        <time>2021-06-16T20:47:53Z</time>
      </trkpt>
      <trkpt lat="36.533376" lon="-4.871553">
        <ele>231.109</ele>
        <time>2021-06-16T20:47:54Z</time>
      </trkpt>
      <trkpt lat="36.533244" lon="-4.871993">
        <ele>229.208</ele>
        <time>2021-06-16T20:47:56Z</time>
      </trkpt>
      <trkpt lat="36.53318" lon="-4.872202">
        <ele>228.271</ele>
        <time>2021-06-16T20:47:57Z</time>
      </trkpt>
      <trkpt lat="36.533039" lon="-4.872621">
        <ele>227.150</ele>
        <time>2021-06-16T20:47:59Z</time>
      </trkpt>
      <trkpt lat="36.532875" lon="-4.873032">
        <ele>224.824</ele>
        <time>2021-06-16T20:48:01Z</time>
      </trkpt>
      <trkpt lat="36.532668" lon="-4.873413">
        <ele>223.034</ele>
        <time>2021-06-16T20:48:03Z</time>
      </trkpt>
      <trkpt lat="36.53255" lon="-4.873586">
        <ele>221.050</ele>
        <time>2021-06-16T20:48:04Z</time>
      </trkpt>
      <trkpt lat="36.532292" lon="-4.873906">
        <ele>219.032</ele>
        <time>2021-06-16T20:48:06Z</time>
      </trkpt>
      <trkpt lat="36.532023" lon="-4.874216">
        <ele>217.031</ele>
        <time>2021-06-16T20:48:08Z</time>
      </trkpt>
      <trkpt lat="36.531895" lon="-4.874379">
        <ele>215.565</ele>
        <time>2021-06-16T20:48:09Z</time>
      </trkpt>
      <trkpt lat="36.531765" lon="-4.874539">
        <ele>214.267</ele>
        <time>2021-06-16T20:48:10Z</time>
      </trkpt>
      <trkpt lat="36.531635" lon="-4.874701">
        <ele>213.481</ele>
        <time>2021-06-16T20:48:11Z</time>
      </trkpt>
      <trkpt lat="36.531385" lon="-4.875038">
        <ele>211.519</ele>
        <time>2021-06-16T20:48:13Z</time>
      </trkpt>
      <trkpt lat="36.531264" lon="-4.875214">
        <ele>210.308</ele>
        <time>2021-06-16T20:48:14Z</time>
      </trkpt>
      <trkpt lat="36.531162" lon="-4.875404">
        <ele>208.523</ele>
        <time>2021-06-16T20:48:15Z</time>
      </trkpt>
      <trkpt lat="36.530981" lon="-4.875809">
        <ele>206.892</ele>
        <time>2021-06-16T20:48:17Z</time>
      </trkpt>
      <trkpt lat="36.530895" lon="-4.876015">
        <ele>205.026</ele>
        <time>2021-06-16T20:48:18Z</time>
      </trkpt>
      <trkpt lat="36.530811" lon="-4.876224">
        <ele>203.576</ele>
        <time>2021-06-16T20:48:19Z</time>
      </trkpt>
      <trkpt lat="36.530671" lon="-4.876647">
        <ele>202.022</ele>
        <time>2021-06-16T20:48:21Z</time>
      </trkpt>
      <trkpt lat="36.530533" lon="-4.877059">
        <ele>200.884</ele>
        <time>2021-06-16T20:48:23Z</time>
      </trkpt>
      <trkpt lat="36.530465" lon="-4.877261">
        <ele>200.193</ele>
        <time>2021-06-16T20:48:24Z</time>
      </trkpt>
      <trkpt lat="36.530328" lon="-4.877656">
        <ele>198.497</ele>
        <time>2021-06-16T20:48:26Z</time>
      </trkpt>
      <trkpt lat="36.530145" lon="-4.878043">
        <ele>195.117</ele>
        <time>2021-06-16T20:48:28Z</time>
      </trkpt>
      <trkpt lat="36.529917" lon="-4.878398">
        <ele>191.287</ele>
        <time>2021-06-16T20:48:30Z</time>
      </trkpt>
      <trkpt lat="36.529802" lon="-4.878575">
        <ele>188.315</ele>
        <time>2021-06-16T20:48:31Z</time>
      </trkpt>
      <trkpt lat="36.529695" lon="-4.878745">
        <ele>186.308</ele>
        <time>2021-06-16T20:48:32Z</time>
      </trkpt>
      <trkpt lat="36.529587" lon="-4.878908">
        <ele>184.738</ele>
        <time>2021-06-16T20:48:33Z</time>
      </trkpt>
      <trkpt lat="36.529401" lon="-4.87924">
        <ele>182.777</ele>
        <time>2021-06-16T20:48:35Z</time>
      </trkpt>
      <trkpt lat="36.529319" lon="-4.879411">
        <ele>180.851</ele>
        <time>2021-06-16T20:48:36Z</time>
      </trkpt>
      <trkpt lat="36.529174" lon="-4.879767">
        <ele>178.481</ele>
        <time>2021-06-16T20:48:38Z</time>
      </trkpt>
      <trkpt lat="36.529112" lon="-4.879952">
        <ele>177.127</ele>
        <time>2021-06-16T20:48:39Z</time>
      </trkpt>
      <trkpt lat="36.529057" lon="-4.880137">
        <ele>176.199</ele>
        <time>2021-06-16T20:48:40Z</time>
      </trkpt>
      <trkpt lat="36.528945" lon="-4.880513">
        <ele>174.818</ele>
        <time>2021-06-16T20:48:42Z</time>
      </trkpt>
      <trkpt lat="36.528887" lon="-4.88069">
        <ele>173.992</ele>
        <time>2021-06-16T20:48:43Z</time>
      </trkpt>
      <trkpt lat="36.528786" lon="-4.880998">
        <ele>173.017</ele>
        <time>2021-06-16T20:48:45Z</time>
      </trkpt>
      <trkpt lat="36.528669" lon="-4.881276">
        <ele>170.587</ele>
        <time>2021-06-16T20:48:47Z</time>
      </trkpt>
      <trkpt lat="36.528612" lon="-4.881409">
        <ele>168.115</ele>
        <time>2021-06-16T20:48:48Z</time>
      </trkpt>
      <trkpt lat="36.528559" lon="-4.881539">
        <ele>166.008</ele>
        <time>2021-06-16T20:48:49Z</time>
      </trkpt>
      <trkpt lat="36.528478" lon="-4.881752">
        <ele>163.848</ele>
        <time>2021-06-16T20:48:51Z</time>
      </trkpt>
      <trkpt lat="36.528457" lon="-4.881882">
        <ele>162.077</ele>
        <time>2021-06-16T20:48:53Z</time>
      </trkpt>
      <trkpt lat="36.528511" lon="-4.881911">
        <ele>160.751</ele>
        <time>2021-06-16T20:48:55Z</time>
      </trkpt>
      <trkpt lat="36.528573" lon="-4.881942">
        <ele>159.811</ele>
        <time>2021-06-16T20:48:58Z</time>
      </trkpt>
      <trkpt lat="36.528651" lon="-4.881953">
        <ele>159.057</ele>
        <time>2021-06-16T20:49:00Z</time>
      </trkpt>
      <trkpt lat="36.52874" lon="-4.881953">
        <ele>157.919</ele>
        <time>2021-06-16T20:49:02Z</time>
      </trkpt>
      <trkpt lat="36.528805" lon="-4.881961">
        <ele>157.628</ele>
        <time>2021-06-16T20:49:03Z</time>
      </trkpt>
      <trkpt lat="36.528867" lon="-4.881971">
        <ele>157.362</ele>
        <time>2021-06-16T20:49:04Z</time>
      </trkpt>
      <trkpt lat="36.528984" lon="-4.881999">
        <ele>156.918</ele>
        <time>2021-06-16T20:49:06Z</time>
      </trkpt>
      <trkpt lat="36.52904" lon="-4.882016">
        <ele>156.598</ele>
        <time>2021-06-16T20:49:07Z</time>
      </trkpt>
      <trkpt lat="36.529138" lon="-4.882067">
        <ele>156.117</ele>
        <time>2021-06-16T20:49:09Z</time>
      </trkpt>
      <trkpt lat="36.529169" lon="-4.882109">
        <ele>156.108</ele>
        <time>2021-06-16T20:49:10Z</time>
      </trkpt>
      <trkpt lat="36.529185" lon="-4.882172">
        <ele>155.838</ele>
        <time>2021-06-16T20:49:11Z</time>
      </trkpt>
      <trkpt lat="36.529207" lon="-4.88231">
        <ele>155.547</ele>
        <time>2021-06-16T20:49:13Z</time>
      </trkpt>
      <trkpt lat="36.529225" lon="-4.882397">
        <ele>154.361</ele>
        <time>2021-06-16T20:49:14Z</time>
      </trkpt>
      <trkpt lat="36.529255" lon="-4.882491">
        <ele>153.951</ele>
        <time>2021-06-16T20:49:15Z</time>
      </trkpt>
      <trkpt lat="36.529291" lon="-4.882587">
        <ele>153.687</ele>
        <time>2021-06-16T20:49:16Z</time>
      </trkpt>
      <trkpt lat="36.529354" lon="-4.882784">
        <ele>153.449</ele>
        <time>2021-06-16T20:49:18Z</time>
      </trkpt>
      <trkpt lat="36.529403" lon="-4.882985">
        <ele>151.978</ele>
        <time>2021-06-16T20:49:20Z</time>
      </trkpt>
      <trkpt lat="36.529396" lon="-4.883089">
        <ele>150.972</ele>
        <time>2021-06-16T20:49:21Z</time>
      </trkpt>
      <trkpt lat="36.529367" lon="-4.883198">
        <ele>150.094</ele>
        <time>2021-06-16T20:49:22Z</time>
      </trkpt>
      <trkpt lat="36.529284" lon="-4.883396">
        <ele>149.357</ele>
        <time>2021-06-16T20:49:24Z</time>
      </trkpt>
      <trkpt lat="36.529188" lon="-4.883597">
        <ele>149.322</ele>
        <time>2021-06-16T20:49:26Z</time>
      </trkpt>
      <trkpt lat="36.529164" lon="-4.883698">
        <ele>149.308</ele>
        <time>2021-06-16T20:49:27Z</time>
      </trkpt>
      <trkpt lat="36.529144" lon="-4.883792">
        <ele>149.446</ele>
        <time>2021-06-16T20:49:28Z</time>
      </trkpt>
      <trkpt lat="36.529169" lon="-4.883882">
        <ele>149.185</ele>
        <time>2021-06-16T20:49:29Z</time>
      </trkpt>
      <trkpt lat="36.529223" lon="-4.883972">
        <ele>148.899</ele>
        <time>2021-06-16T20:49:30Z</time>
      </trkpt>
      <trkpt lat="36.529335" lon="-4.884139">
        <ele>149.939</ele>
        <time>2021-06-16T20:49:32Z</time>
      </trkpt>
      <trkpt lat="36.529388" lon="-4.884214">
        <ele>151.925</ele>
        <time>2021-06-16T20:49:33Z</time>
      </trkpt>
      <trkpt lat="36.529506" lon="-4.884383">
        <ele>153.257</ele>
        <time>2021-06-16T20:49:35Z</time>
      </trkpt>
      <trkpt lat="36.529654" lon="-4.884524">
        <ele>155.496</ele>
        <time>2021-06-16T20:49:37Z</time>
      </trkpt>
      <trkpt lat="36.529733" lon="-4.884588">
        <ele>157.310</ele>
        <time>2021-06-16T20:49:38Z</time>
      </trkpt>
      <trkpt lat="36.52988" lon="-4.884694">
        <ele>159.347</ele>
        <time>2021-06-16T20:49:40Z</time>
      </trkpt>
      <trkpt lat="36.529948" lon="-4.884745">
        <ele>160.329</ele>
        <time>2021-06-16T20:49:41Z</time>
      </trkpt>
      <trkpt lat="36.530035" lon="-4.884891">
        <ele>161.421</ele>
        <time>2021-06-16T20:49:43Z</time>
      </trkpt>
      <trkpt lat="36.530061" lon="-4.884973">
        <ele>162.508</ele>
        <time>2021-06-16T20:49:44Z</time>
      </trkpt>
      <trkpt lat="36.530108" lon="-4.885119">
        <ele>163.461</ele>
        <time>2021-06-16T20:49:46Z</time>
      </trkpt>
      <trkpt lat="36.530107" lon="-4.88528">
        <ele>163.790</ele>
        <time>2021-06-16T20:49:48Z</time>
      </trkpt>
      <trkpt lat="36.530048" lon="-4.885488">
        <ele>163.914</ele>
        <time>2021-06-16T20:49:50Z</time>
      </trkpt>
      <trkpt lat="36.530012" lon="-4.885585">
        <ele>164.114</ele>
        <time>2021-06-16T20:49:51Z</time>
      </trkpt>
      <trkpt lat="36.529971" lon="-4.885677">
        <ele>164.270</ele>
        <time>2021-06-16T20:49:52Z</time>
      </trkpt>
      <trkpt lat="36.529864" lon="-4.885834">
        <ele>164.852</ele>
        <time>2021-06-16T20:49:54Z</time>
      </trkpt>
      <trkpt lat="36.529688" lon="-4.885918">
        <ele>165.081</ele>
        <time>2021-06-16T20:49:56Z</time>
      </trkpt>
      <trkpt lat="36.529591" lon="-4.88594">
        <ele>164.875</ele>
        <time>2021-06-16T20:49:57Z</time>
      </trkpt>
      <trkpt lat="36.529487" lon="-4.885952">
        <ele>164.389</ele>
        <time>2021-06-16T20:49:58Z</time>
      </trkpt>
      <trkpt lat="36.529284" lon="-4.885938">
        <ele>164.206</ele>
        <time>2021-06-16T20:50:00Z</time>
      </trkpt>
      <trkpt lat="36.52908" lon="-4.88588">
        <ele>164.926</ele>
        <time>2021-06-16T20:50:02Z</time>
      </trkpt>
      <trkpt lat="36.528986" lon="-4.885832">
        <ele>165.608</ele>
        <time>2021-06-16T20:50:03Z</time>
      </trkpt>
      <trkpt lat="36.528815" lon="-4.885708">
        <ele>165.545</ele>
        <time>2021-06-16T20:50:05Z</time>
      </trkpt>
      <trkpt lat="36.52873" lon="-4.885651">
        <ele>165.894</ele>
        <time>2021-06-16T20:50:06Z</time>
      </trkpt>
      <trkpt lat="36.528565" lon="-4.885544">
        <ele>166.688</ele>
        <time>2021-06-16T20:50:08Z</time>
      </trkpt>
      <trkpt lat="36.528482" lon="-4.885505">
        <ele>167.358</ele>
        <time>2021-06-16T20:50:09Z</time>
      </trkpt>
      <trkpt lat="36.52831" lon="-4.885472">
        <ele>168.474</ele>
        <time>2021-06-16T20:50:11Z</time>
      </trkpt>
      <trkpt lat="36.528157" lon="-4.885539">
        <ele>169.056</ele>
        <time>2021-06-16T20:50:13Z</time>
      </trkpt>
      <trkpt lat="36.528087" lon="-4.885591">
        <ele>169.445</ele>
        <time>2021-06-16T20:50:14Z</time>
      </trkpt>
      <trkpt lat="36.527934" lon="-4.885701">
        <ele>169.789</ele>
        <time>2021-06-16T20:50:16Z</time>
      </trkpt>
      <trkpt lat="36.527855" lon="-4.885765">
        <ele>170.298</ele>
        <time>2021-06-16T20:50:17Z</time>
      </trkpt>
      <trkpt lat="36.527729" lon="-4.885935">
        <ele>170.515</ele>
        <time>2021-06-16T20:50:19Z</time>
      </trkpt>
      <trkpt lat="36.527689" lon="-4.886033">
        <ele>170.426</ele>
        <time>2021-06-16T20:50:20Z</time>
      </trkpt>
      <trkpt lat="36.527665" lon="-4.886132">
        <ele>170.608</ele>
        <time>2021-06-16T20:50:21Z</time>
      </trkpt>
      <trkpt lat="36.527649" lon="-4.886348">
        <ele>170.476</ele>
        <time>2021-06-16T20:50:23Z</time>
      </trkpt>
      <trkpt lat="36.527656" lon="-4.886467">
        <ele>170.045</ele>
        <time>2021-06-16T20:50:24Z</time>
      </trkpt>
      <trkpt lat="36.527659" lon="-4.886734">
        <ele>169.119</ele>
        <time>2021-06-16T20:50:26Z</time>
      </trkpt>
      <trkpt lat="36.527689" lon="-4.886997">
        <ele>168.999</ele>
        <time>2021-06-16T20:50:28Z</time>
      </trkpt>
      <trkpt lat="36.527728" lon="-4.887204">
        <ele>168.215</ele>
        <time>2021-06-16T20:50:30Z</time>
      </trkpt>
      <trkpt lat="36.527753" lon="-4.887306">
        <ele>167.717</ele>
        <time>2021-06-16T20:50:31Z</time>
      </trkpt>
      <trkpt lat="36.527802" lon="-4.887412">
        <ele>166.676</ele>
        <time>2021-06-16T20:50:32Z</time>
      </trkpt>
      <trkpt lat="36.527854" lon="-4.887528">
        <ele>165.450</ele>
        <time>2021-06-16T20:50:33Z</time>
      </trkpt>
      <trkpt lat="36.527856" lon="-4.887769">
        <ele>163.642</ele>
        <time>2021-06-16T20:50:35Z</time>
      </trkpt>
      <trkpt lat="36.52776" lon="-4.888005">
        <ele>162.422</ele>
        <time>2021-06-16T20:50:37Z</time>
      </trkpt>
      <trkpt lat="36.527675" lon="-4.888248">
        <ele>161.914</ele>
        <time>2021-06-16T20:50:39Z</time>
      </trkpt>
      <trkpt lat="36.527595" lon="-4.8885">
        <ele>162.208</ele>
        <time>2021-06-16T20:50:41Z</time>
      </trkpt>
      <trkpt lat="36.527492" lon="-4.888756">
        <ele>162.351</ele>
        <time>2021-06-16T20:50:43Z</time>
      </trkpt>
      <trkpt lat="36.527435" lon="-4.889023">
        <ele>160.030</ele>
        <time>2021-06-16T20:50:45Z</time>
      </trkpt>
      <trkpt lat="36.527438" lon="-4.889278">
        <ele>159.044</ele>
        <time>2021-06-16T20:50:47Z</time>
      </trkpt>
      <trkpt lat="36.527484" lon="-4.889518">
        <ele>158.624</ele>
        <time>2021-06-16T20:50:49Z</time>
      </trkpt>
      <trkpt lat="36.527497" lon="-4.889626">
        <ele>158.090</ele>
        <time>2021-06-16T20:50:50Z</time>
      </trkpt>
      <trkpt lat="36.527497" lon="-4.889719">
        <ele>157.492</ele>
        <time>2021-06-16T20:50:51Z</time>
      </trkpt>
      <trkpt lat="36.527446" lon="-4.889855">
        <ele>155.351</ele>
        <time>2021-06-16T20:50:53Z</time>
      </trkpt>
      <trkpt lat="36.527391" lon="-4.889918">
        <ele>154.245</ele>
        <time>2021-06-16T20:50:55Z</time>
      </trkpt>
      <trkpt lat="36.527354" lon="-4.889954">
        <ele>153.693</ele>
        <time>2021-06-16T20:50:57Z</time>
      </trkpt>
      <trkpt lat="36.5273" lon="-4.889984">
        <ele>152.865</ele>
        <time>2021-06-16T20:50:59Z</time>
      </trkpt>
      <trkpt lat="36.527237" lon="-4.889994">
        <ele>148.921</ele>
        <time>2021-06-16T20:51:00Z</time>
      </trkpt>
      <trkpt lat="36.527161" lon="-4.890002">
        <ele>146.508</ele>
        <time>2021-06-16T20:51:02Z</time>
      </trkpt>
      <trkpt lat="36.527105" lon="-4.890013">
        <ele>145.186</ele>
        <time>2021-06-16T20:51:03Z</time>
      </trkpt>
      <trkpt lat="36.527052" lon="-4.890028">
        <ele>144.215</ele>
        <time>2021-06-16T20:51:04Z</time>
      </trkpt>
      <trkpt lat="36.526945" lon="-4.890049">
        <ele>143.779</ele>
        <time>2021-06-16T20:51:06Z</time>
      </trkpt>
      <trkpt lat="36.52688" lon="-4.890071">
        <ele>143.499</ele>
        <time>2021-06-16T20:51:07Z</time>
      </trkpt>
      <trkpt lat="36.52681" lon="-4.890102">
        <ele>143.215</ele>
        <time>2021-06-16T20:51:08Z</time>
      </trkpt>
      <trkpt lat="36.52665" lon="-4.890167">
        <ele>143.167</ele>
        <time>2021-06-16T20:51:10Z</time>
      </trkpt>
      <trkpt lat="36.526492" lon="-4.890229">
        <ele>143.086</ele>
        <time>2021-06-16T20:51:12Z</time>
      </trkpt>
      <trkpt lat="36.526364" lon="-4.890272">
        <ele>143.060</ele>
        <time>2021-06-16T20:51:14Z</time>
      </trkpt>
      <trkpt lat="36.526314" lon="-4.890288">
        <ele>143.019</ele>
        <time>2021-06-16T20:51:15Z</time>
      </trkpt>
      <trkpt lat="36.526249" lon="-4.890306">
        <ele>143.009</ele>
        <time>2021-06-16T20:51:17Z</time>
      </trkpt>
      <trkpt lat="36.526201" lon="-4.890336">
        <ele>143.019</ele>
        <time>2021-06-16T20:51:19Z</time>
      </trkpt>
      <trkpt lat="36.526117" lon="-4.890394">
        <ele>143.008</ele>
        <time>2021-06-16T20:51:21Z</time>
      </trkpt>
      <trkpt lat="36.52606" lon="-4.890422">
        <ele>143.068</ele>
        <time>2021-06-16T20:51:22Z</time>
      </trkpt>
      <trkpt lat="36.525922" lon="-4.890483">
        <ele>143.077</ele>
        <time>2021-06-16T20:51:24Z</time>
      </trkpt>
      <trkpt lat="36.525779" lon="-4.890593">
        <ele>143.021</ele>
        <time>2021-06-16T20:51:26Z</time>
      </trkpt>
      <trkpt lat="36.525706" lon="-4.890649">
        <ele>143.081</ele>
        <time>2021-06-16T20:51:27Z</time>
      </trkpt>
      <trkpt lat="36.525573" lon="-4.890759">
        <ele>143.047</ele>
        <time>2021-06-16T20:51:29Z</time>
      </trkpt>
      <trkpt lat="36.525469" lon="-4.890858">
        <ele>143.019</ele>
        <time>2021-06-16T20:51:31Z</time>
      </trkpt>
      <trkpt lat="36.525356" lon="-4.890962">
        <ele>143.098</ele>
        <time>2021-06-16T20:51:33Z</time>
      </trkpt>
      <trkpt lat="36.525291" lon="-4.89102">
        <ele>143.032</ele>
        <time>2021-06-16T20:51:34Z</time>
      </trkpt>
      <trkpt lat="36.525219" lon="-4.891078">
        <ele>143.046</ele>
        <time>2021-06-16T20:51:35Z</time>
      </trkpt>
      <trkpt lat="36.525148" lon="-4.891134">
        <ele>143.088</ele>
        <time>2021-06-16T20:51:36Z</time>
      </trkpt>
      <trkpt lat="36.525003" lon="-4.891246">
        <ele>143.016</ele>
        <time>2021-06-16T20:51:38Z</time>
      </trkpt>
      <trkpt lat="36.524932" lon="-4.8913">
        <ele>143.008</ele>
        <time>2021-06-16T20:51:39Z</time>
      </trkpt>
      <trkpt lat="36.524868" lon="-4.891349">
        <ele>143.031</ele>
        <time>2021-06-16T20:51:40Z</time>
      </trkpt>
      <trkpt lat="36.524815" lon="-4.891393">
        <ele>143.020</ele>
        <time>2021-06-16T20:51:41Z</time>
      </trkpt>
      <trkpt lat="36.524762" lon="-4.891438">
        <ele>143.094</ele>
        <time>2021-06-16T20:51:42Z</time>
      </trkpt>
      <trkpt lat="36.524699" lon="-4.891482">
        <ele>143.054</ele>
        <time>2021-06-16T20:51:43Z</time>
      </trkpt>
      <trkpt lat="36.524545" lon="-4.891569">
        <ele>143.040</ele>
        <time>2021-06-16T20:51:45Z</time>
      </trkpt>
      <trkpt lat="36.524371" lon="-4.891663">
        <ele>143.092</ele>
        <time>2021-06-16T20:51:47Z</time>
      </trkpt>
      <trkpt lat="36.524204" lon="-4.891768">
        <ele>143.051</ele>
        <time>2021-06-16T20:51:49Z</time>
      </trkpt>
      <trkpt lat="36.524046" lon="-4.891858">
        <ele>143.035</ele>
        <time>2021-06-16T20:51:51Z</time>
      </trkpt>
      <trkpt lat="36.52397" lon="-4.891891">
        <ele>143.073</ele>
        <time>2021-06-16T20:51:52Z</time>
      </trkpt>
      <trkpt lat="36.523895" lon="-4.89192">
        <ele>143.085</ele>
        <time>2021-06-16T20:51:53Z</time>
      </trkpt>
      <trkpt lat="36.523798" lon="-4.891965">
        <ele>143.013</ele>
        <time>2021-06-16T20:51:55Z</time>
      </trkpt>
      <trkpt lat="36.523758" lon="-4.891991">
        <ele>143.008</ele>
        <time>2021-06-16T20:51:56Z</time>
      </trkpt>
      <trkpt lat="36.523679" lon="-4.892074">
        <ele>143.094</ele>
        <time>2021-06-16T20:51:58Z</time>
      </trkpt>
      <trkpt lat="36.523644" lon="-4.892136">
        <ele>143.043</ele>
        <time>2021-06-16T20:51:59Z</time>
      </trkpt>
      <trkpt lat="36.523545" lon="-4.892247">
        <ele>143.067</ele>
        <time>2021-06-16T20:52:01Z</time>
      </trkpt>
      <trkpt lat="36.523416" lon="-4.892261">
        <ele>139.057</ele>
        <time>2021-06-16T20:52:03Z</time>
      </trkpt>
      <trkpt lat="36.52334" lon="-4.892261">
        <ele>135.033</ele>
        <time>2021-06-16T20:52:04Z</time>
      </trkpt>
      <trkpt lat="36.523172" lon="-4.892273">
        <ele>131.095</ele>
        <time>2021-06-16T20:52:06Z</time>
      </trkpt>
      <trkpt lat="36.522999" lon="-4.892258">
        <ele>127.014</ele>
        <time>2021-06-16T20:52:08Z</time>
      </trkpt>
      <trkpt lat="36.522917" lon="-4.892228">
        <ele>123.058</ele>
        <time>2021-06-16T20:52:09Z</time>
      </trkpt>
      <trkpt lat="36.522838" lon="-4.89219">
        <ele>119.032</ele>
        <time>2021-06-16T20:52:10Z</time>
      </trkpt>
      <trkpt lat="36.522677" lon="-4.89211">
        <ele>115.092</ele>
        <time>2021-06-16T20:52:12Z</time>
      </trkpt>
      <trkpt lat="36.522506" lon="-4.892054">
        <ele>111.011</ele>
        <time>2021-06-16T20:52:14Z</time>
      </trkpt>
      <trkpt lat="36.522332" lon="-4.892028">
        <ele>107.008</ele>
        <time>2021-06-16T20:52:16Z</time>
      </trkpt>
      <trkpt lat="36.522239" lon="-4.892015">
        <ele>104.670</ele>
        <time>2021-06-16T20:52:17Z</time>
      </trkpt>
      <trkpt lat="36.522045" lon="-4.892006">
        <ele>102.589</ele>
        <time>2021-06-16T20:52:19Z</time>
      </trkpt>
      <trkpt lat="36.521946" lon="-4.892012">
        <ele>101.263</ele>
        <time>2021-06-16T20:52:20Z</time>
      </trkpt>
      <trkpt lat="36.521844" lon="-4.892019">
        <ele>100.273</ele>
        <time>2021-06-16T20:52:21Z</time>
      </trkpt>
      <trkpt lat="36.521633" lon="-4.892035">
        <ele>99.499</ele>
        <time>2021-06-16T20:52:23Z</time>
      </trkpt>
      <trkpt lat="36.521415" lon="-4.892033">
        <ele>99.431</ele>
        <time>2021-06-16T20:52:25Z</time>
      </trkpt>
      <trkpt lat="36.521306" lon="-4.892025">
        <ele>99.680</ele>
        <time>2021-06-16T20:52:26Z</time>
      </trkpt>
      <trkpt lat="36.521202" lon="-4.892022">
        <ele>99.444</ele>
        <time>2021-06-16T20:52:27Z</time>
      </trkpt>
      <trkpt lat="36.521004" lon="-4.891999">
        <ele>100.056</ele>
        <time>2021-06-16T20:52:29Z</time>
      </trkpt>
      <trkpt lat="36.520851" lon="-4.891966">
        <ele>100.159</ele>
        <time>2021-06-16T20:52:31Z</time>
      </trkpt>
      <trkpt lat="36.520793" lon="-4.89196">
        <ele>99.714</ele>
        <time>2021-06-16T20:52:32Z</time>
      </trkpt>
      <trkpt lat="36.520699" lon="-4.891955">
        <ele>99.808</ele>
        <time>2021-06-16T20:52:34Z</time>
      </trkpt>
      <trkpt lat="36.52064" lon="-4.891964">
        <ele>100.092</ele>
        <time>2021-06-16T20:52:36Z</time>
      </trkpt>
      <trkpt lat="36.520541" lon="-4.891994">
        <ele>100.051</ele>
        <time>2021-06-16T20:52:38Z</time>
      </trkpt>
      <trkpt lat="36.520426" lon="-4.891958">
        <ele>100.095</ele>
        <time>2021-06-16T20:52:40Z</time>
      </trkpt>
      <trkpt lat="36.520378" lon="-4.891907">
        <ele>100.055</ele>
        <time>2021-06-16T20:52:41Z</time>
      </trkpt>
      <trkpt lat="36.520276" lon="-4.891802">
        <ele>98.941</ele>
        <time>2021-06-16T20:52:43Z</time>
      </trkpt>
      <trkpt lat="36.520129" lon="-4.891735">
        <ele>99.053</ele>
        <time>2021-06-16T20:52:45Z</time>
      </trkpt>
      <trkpt lat="36.520055" lon="-4.891705">
        <ele>99.292</ele>
        <time>2021-06-16T20:52:46Z</time>
      </trkpt>
      <trkpt lat="36.519983" lon="-4.891667">
        <ele>99.286</ele>
        <time>2021-06-16T20:52:47Z</time>
      </trkpt>
      <trkpt lat="36.519919" lon="-4.891627">
        <ele>99.194</ele>
        <time>2021-06-16T20:52:48Z</time>
      </trkpt>
      <trkpt lat="36.519852" lon="-4.891592">
        <ele>99.157</ele>
        <time>2021-06-16T20:52:49Z</time>
      </trkpt>
      <trkpt lat="36.519708" lon="-4.891569">
        <ele>99.222</ele>
        <time>2021-06-16T20:52:51Z</time>
      </trkpt>
      <trkpt lat="36.519567" lon="-4.891536">
        <ele>99.708</ele>
        <time>2021-06-16T20:52:53Z</time>
      </trkpt>
      <trkpt lat="36.5195" lon="-4.891483">
        <ele>99.556</ele>
        <time>2021-06-16T20:52:54Z</time>
      </trkpt>
      <trkpt lat="36.519371" lon="-4.891344">
        <ele>99.425</ele>
        <time>2021-06-16T20:52:56Z</time>
      </trkpt>
      <trkpt lat="36.519232" lon="-4.891211">
        <ele>99.749</ele>
        <time>2021-06-16T20:52:58Z</time>
      </trkpt>
      <trkpt lat="36.51916" lon="-4.891137">
        <ele>99.219</ele>
        <time>2021-06-16T20:52:59Z</time>
      </trkpt>
      <trkpt lat="36.519027" lon="-4.890994">
        <ele>98.585</ele>
        <time>2021-06-16T20:53:01Z</time>
      </trkpt>
      <trkpt lat="36.518889" lon="-4.890848">
        <ele>97.637</ele>
        <time>2021-06-16T20:53:03Z</time>
      </trkpt>
      <trkpt lat="36.518751" lon="-4.890714">
        <ele>96.996</ele>
        <time>2021-06-16T20:53:05Z</time>
      </trkpt>
      <trkpt lat="36.518605" lon="-4.89059">
        <ele>96.790</ele>
        <time>2021-06-16T20:53:07Z</time>
      </trkpt>
      <trkpt lat="36.518472" lon="-4.890454">
        <ele>95.995</ele>
        <time>2021-06-16T20:53:09Z</time>
      </trkpt>
      <trkpt lat="36.518364" lon="-4.890318">
        <ele>93.749</ele>
        <time>2021-06-16T20:53:11Z</time>
      </trkpt>
      <trkpt lat="36.518242" lon="-4.890198">
        <ele>92.223</ele>
        <time>2021-06-16T20:53:13Z</time>
      </trkpt>
      <trkpt lat="36.518189" lon="-4.890145">
        <ele>90.808</ele>
        <time>2021-06-16T20:53:14Z</time>
      </trkpt>
      <trkpt lat="36.518095" lon="-4.890082">
        <ele>90.016</ele>
        <time>2021-06-16T20:53:16Z</time>
      </trkpt>
      <trkpt lat="36.51799" lon="-4.890082">
        <ele>89.395</ele>
        <time>2021-06-16T20:53:18Z</time>
      </trkpt>
      <trkpt lat="36.517936" lon="-4.890105">
        <ele>88.579</ele>
        <time>2021-06-16T20:53:19Z</time>
      </trkpt>
      <trkpt lat="36.517887" lon="-4.890146">
        <ele>87.379</ele>
        <time>2021-06-16T20:53:20Z</time>
      </trkpt>
      <trkpt lat="36.517826" lon="-4.8903">
        <ele>86.625</ele>
        <time>2021-06-16T20:53:22Z</time>
      </trkpt>
      <trkpt lat="36.517805" lon="-4.890477">
        <ele>85.957</ele>
        <time>2021-06-16T20:53:24Z</time>
      </trkpt>
      <trkpt lat="36.517798" lon="-4.890642">
        <ele>85.696</ele>
        <time>2021-06-16T20:53:26Z</time>
      </trkpt>
      <trkpt lat="36.517807" lon="-4.890718">
        <ele>84.820</ele>
        <time>2021-06-16T20:53:27Z</time>
      </trkpt>
      <trkpt lat="36.51783" lon="-4.890864">
        <ele>84.958</ele>
        <time>2021-06-16T20:53:29Z</time>
      </trkpt>
      <trkpt lat="36.517835" lon="-4.890937">
        <ele>85.152</ele>
        <time>2021-06-16T20:53:30Z</time>
      </trkpt>
      <trkpt lat="36.517842" lon="-4.89101">
        <ele>84.917</ele>
        <time>2021-06-16T20:53:31Z</time>
      </trkpt>
      <trkpt lat="36.517847" lon="-4.891085">
        <ele>84.608</ele>
        <time>2021-06-16T20:53:32Z</time>
      </trkpt>
      <trkpt lat="36.517859" lon="-4.891256">
        <ele>84.742</ele>
        <time>2021-06-16T20:53:34Z</time>
      </trkpt>
      <trkpt lat="36.517861" lon="-4.89145">
        <ele>84.261</ele>
        <time>2021-06-16T20:53:36Z</time>
      </trkpt>
      <trkpt lat="36.517834" lon="-4.891648">
        <ele>83.345</ele>
        <time>2021-06-16T20:53:38Z</time>
      </trkpt>
      <trkpt lat="36.517771" lon="-4.891845">
        <ele>81.955</ele>
        <time>2021-06-16T20:53:40Z</time>
      </trkpt>
      <trkpt lat="36.51773" lon="-4.891939">
        <ele>81.361</ele>
        <time>2021-06-16T20:53:41Z</time>
      </trkpt>
      <trkpt lat="36.517622" lon="-4.892102">
        <ele>81.223</ele>
        <time>2021-06-16T20:53:43Z</time>
      </trkpt>
      <trkpt lat="36.517484" lon="-4.892226">
        <ele>82.012</ele>
        <time>2021-06-16T20:53:45Z</time>
      </trkpt>
      <trkpt lat="36.517365" lon="-4.892351">
        <ele>81.456</ele>
        <time>2021-06-16T20:53:47Z</time>
      </trkpt>
      <trkpt lat="36.51725" lon="-4.892466">
        <ele>81.322</ele>
        <time>2021-06-16T20:53:49Z</time>
      </trkpt>
      <trkpt lat="36.517138" lon="-4.892557">
        <ele>81.762</ele>
        <time>2021-06-16T20:53:51Z</time>
      </trkpt>
      <trkpt lat="36.517076" lon="-4.892598">
        <ele>81.908</ele>
        <time>2021-06-16T20:53:52Z</time>
      </trkpt>
      <trkpt lat="36.516953" lon="-4.892668">
        <ele>82.608</ele>
        <time>2021-06-16T20:53:54Z</time>
      </trkpt>
      <trkpt lat="36.516896" lon="-4.892712">
        <ele>83.279</ele>
        <time>2021-06-16T20:53:55Z</time>
      </trkpt>
      <trkpt lat="36.516842" lon="-4.892765">
        <ele>84.468</ele>
        <time>2021-06-16T20:53:56Z</time>
      </trkpt>
      <trkpt lat="36.516746" lon="-4.892934">
        <ele>84.632</ele>
        <time>2021-06-16T20:53:58Z</time>
      </trkpt>
      <trkpt lat="36.516696" lon="-4.893038">
        <ele>84.472</ele>
        <time>2021-06-16T20:53:59Z</time>
      </trkpt>
      <trkpt lat="36.516595" lon="-4.893244">
        <ele>85.198</ele>
        <time>2021-06-16T20:54:01Z</time>
      </trkpt>
      <trkpt lat="36.516541" lon="-4.893349">
        <ele>85.650</ele>
        <time>2021-06-16T20:54:02Z</time>
      </trkpt>
      <trkpt lat="36.516428" lon="-4.893553">
        <ele>86.069</ele>
        <time>2021-06-16T20:54:04Z</time>
      </trkpt>
      <trkpt lat="36.516373" lon="-4.89365">
        <ele>86.013</ele>
        <time>2021-06-16T20:54:05Z</time>
      </trkpt>
      <trkpt lat="36.516276" lon="-4.893855">
        <ele>84.935</ele>
        <time>2021-06-16T20:54:07Z</time>
      </trkpt>
      <trkpt lat="36.516239" lon="-4.893954">
        <ele>84.486</ele>
        <time>2021-06-16T20:54:08Z</time>
      </trkpt>
      <trkpt lat="36.516214" lon="-4.894165">
        <ele>83.114</ele>
        <time>2021-06-16T20:54:10Z</time>
      </trkpt>
      <trkpt lat="36.516213" lon="-4.894357">
        <ele>82.708</ele>
        <time>2021-06-16T20:54:12Z</time>
      </trkpt>
      <trkpt lat="36.516197" lon="-4.894454">
        <ele>81.980</ele>
        <time>2021-06-16T20:54:13Z</time>
      </trkpt>
      <trkpt lat="36.516141" lon="-4.894659">
        <ele>81.449</ele>
        <time>2021-06-16T20:54:15Z</time>
      </trkpt>
      <trkpt lat="36.516051" lon="-4.894852">
        <ele>80.943</ele>
        <time>2021-06-16T20:54:17Z</time>
      </trkpt>
      <trkpt lat="36.515937" lon="-4.89504">
        <ele>80.723</ele>
        <time>2021-06-16T20:54:19Z</time>
      </trkpt>
      <trkpt lat="36.51587" lon="-4.895136">
        <ele>80.339</ele>
        <time>2021-06-16T20:54:20Z</time>
      </trkpt>
      <trkpt lat="36.515801" lon="-4.895232">
        <ele>80.061</ele>
        <time>2021-06-16T20:54:21Z</time>
      </trkpt>
      <trkpt lat="36.51567" lon="-4.895431">
        <ele>79.980</ele>
        <time>2021-06-16T20:54:23Z</time>
      </trkpt>
      <trkpt lat="36.515536" lon="-4.89562">
        <ele>79.084</ele>
        <time>2021-06-16T20:54:25Z</time>
      </trkpt>
      <trkpt lat="36.515442" lon="-4.895772">
        <ele>77.867</ele>
        <time>2021-06-16T20:54:27Z</time>
      </trkpt>
      <trkpt lat="36.515353" lon="-4.895885">
        <ele>76.581</ele>
        <time>2021-06-16T20:54:29Z</time>
      </trkpt>
      <trkpt lat="36.515254" lon="-4.896036">
        <ele>74.519</ele>
        <time>2021-06-16T20:54:31Z</time>
      </trkpt>
      <trkpt lat="36.515192" lon="-4.896125">
        <ele>74.308</ele>
        <time>2021-06-16T20:54:32Z</time>
      </trkpt>
      <trkpt lat="36.515127" lon="-4.896219">
        <ele>74.893</ele>
        <time>2021-06-16T20:54:33Z</time>
      </trkpt>
      <trkpt lat="36.51498" lon="-4.896402">
        <ele>73.982</ele>
        <time>2021-06-16T20:54:35Z</time>
      </trkpt>
      <trkpt lat="36.514897" lon="-4.896492">
        <ele>73.336</ele>
        <time>2021-06-16T20:54:36Z</time>
      </trkpt>
      <trkpt lat="36.51481" lon="-4.896577">
        <ele>73.256</ele>
        <time>2021-06-16T20:54:37Z</time>
      </trkpt>
      <trkpt lat="36.514634" lon="-4.896735">
        <ele>72.982</ele>
        <time>2021-06-16T20:54:39Z</time>
      </trkpt>
      <trkpt lat="36.514545" lon="-4.89681">
        <ele>72.434</ele>
        <time>2021-06-16T20:54:40Z</time>
      </trkpt>
      <trkpt lat="36.514343" lon="-4.896933">
        <ele>72.293</ele>
        <time>2021-06-16T20:54:42Z</time>
      </trkpt>
      <trkpt lat="36.51425" lon="-4.897002">
        <ele>71.997</ele>
        <time>2021-06-16T20:54:43Z</time>
      </trkpt>
      <trkpt lat="36.514162" lon="-4.897077">
        <ele>71.382</ele>
        <time>2021-06-16T20:54:44Z</time>
      </trkpt>
      <trkpt lat="36.514066" lon="-4.89715">
        <ele>70.843</ele>
        <time>2021-06-16T20:54:45Z</time>
      </trkpt>
      <trkpt lat="36.513862" lon="-4.897285">
        <ele>70.717</ele>
        <time>2021-06-16T20:54:47Z</time>
      </trkpt>
      <trkpt lat="36.513677" lon="-4.897446">
        <ele>70.608</ele>
        <time>2021-06-16T20:54:49Z</time>
      </trkpt>
      <trkpt lat="36.51349" lon="-4.897596">
        <ele>70.495</ele>
        <time>2021-06-16T20:54:51Z</time>
      </trkpt>
      <trkpt lat="36.513308" lon="-4.89773">
        <ele>70.084</ele>
        <time>2021-06-16T20:54:53Z</time>
      </trkpt>
      <trkpt lat="36.513215" lon="-4.897798">
        <ele>69.758</ele>
        <time>2021-06-16T20:54:54Z</time>
      </trkpt>
      <trkpt lat="36.513119" lon="-4.897866">
        <ele>69.738</ele>
        <time>2021-06-16T20:54:55Z</time>
      </trkpt>
      <trkpt lat="36.512965" lon="-4.898048">
        <ele>67.634</ele>
        <time>2021-06-16T20:54:57Z</time>
      </trkpt>
      <trkpt lat="36.512843" lon="-4.898258">
        <ele>65.626</ele>
        <time>2021-06-16T20:54:59Z</time>
      </trkpt>
      <trkpt lat="36.512799" lon="-4.898497">
        <ele>63.645</ele>
        <time>2021-06-16T20:55:01Z</time>
      </trkpt>
      <trkpt lat="36.512789" lon="-4.898612">
        <ele>62.189</ele>
        <time>2021-06-16T20:55:02Z</time>
      </trkpt>
      <trkpt lat="36.512788" lon="-4.898841">
        <ele>60.945</ele>
        <time>2021-06-16T20:55:04Z</time>
      </trkpt>
      <trkpt lat="36.512793" lon="-4.898951">
        <ele>59.647</ele>
        <time>2021-06-16T20:55:05Z</time>
      </trkpt>
      <trkpt lat="36.512789" lon="-4.899181">
        <ele>58.011</ele>
        <time>2021-06-16T20:55:07Z</time>
      </trkpt>
      <trkpt lat="36.512786" lon="-4.89943">
        <ele>56.908</ele>
        <time>2021-06-16T20:55:09Z</time>
      </trkpt>
      <trkpt lat="36.512772" lon="-4.899563">
        <ele>54.971</ele>
        <time>2021-06-16T20:55:10Z</time>
      </trkpt>
      <trkpt lat="36.512745" lon="-4.899797">
        <ele>54.190</ele>
        <time>2021-06-16T20:55:12Z</time>
      </trkpt>
      <trkpt lat="36.512731" lon="-4.899912">
        <ele>52.874</ele>
        <time>2021-06-16T20:55:13Z</time>
      </trkpt>
      <trkpt lat="36.51267" lon="-4.90014">
        <ele>51.674</ele>
        <time>2021-06-16T20:55:15Z</time>
      </trkpt>
      <trkpt lat="36.512618" lon="-4.900271">
        <ele>50.310</ele>
        <time>2021-06-16T20:55:16Z</time>
      </trkpt>
      <trkpt lat="36.51256" lon="-4.900387">
        <ele>48.732</ele>
        <time>2021-06-16T20:55:17Z</time>
      </trkpt>
      <trkpt lat="36.512429" lon="-4.900586">
        <ele>47.821</ele>
        <time>2021-06-16T20:55:19Z</time>
      </trkpt>
      <trkpt lat="36.51229" lon="-4.900757">
        <ele>45.935</ele>
        <time>2021-06-16T20:55:21Z</time>
      </trkpt>
      <trkpt lat="36.512225" lon="-4.900834">
        <ele>44.549</ele>
        <time>2021-06-16T20:55:22Z</time>
      </trkpt>
      <trkpt lat="36.512144" lon="-4.900891">
        <ele>43.802</ele>
        <time>2021-06-16T20:55:23Z</time>
      </trkpt>
      <trkpt lat="36.511976" lon="-4.900988">
        <ele>42.622</ele>
        <time>2021-06-16T20:55:25Z</time>
      </trkpt>
      <trkpt lat="36.511906" lon="-4.901033">
        <ele>41.508</ele>
        <time>2021-06-16T20:55:26Z</time>
      </trkpt>
      <trkpt lat="36.511791" lon="-4.901107">
        <ele>40.071</ele>
        <time>2021-06-16T20:55:28Z</time>
      </trkpt>
      <trkpt lat="36.511714" lon="-4.901152">
        <ele>39.120</ele>
        <time>2021-06-16T20:55:30Z</time>
      </trkpt>
      <trkpt lat="36.511708" lon="-4.901096">
        <ele>37.354</ele>
        <time>2021-06-16T20:55:57Z</time>
      </trkpt>
      <trkpt lat="36.511663" lon="-4.901124">
        <ele>36.264</ele>
        <time>2021-06-16T20:56:00Z</time>
      </trkpt>
      <trkpt lat="36.511548" lon="-4.901164">
        <ele>35.650</ele>
        <time>2021-06-16T20:56:02Z</time>
      </trkpt>
      <trkpt lat="36.511472" lon="-4.901179">
        <ele>35.222</ele>
        <time>2021-06-16T20:56:03Z</time>
      </trkpt>
      <trkpt lat="36.511312" lon="-4.901184">
        <ele>35.081</ele>
        <time>2021-06-16T20:56:05Z</time>
      </trkpt>
      <trkpt lat="36.511232" lon="-4.901182">
        <ele>34.915</ele>
        <time>2021-06-16T20:56:06Z</time>
      </trkpt>
      <trkpt lat="36.511147" lon="-4.901179">
        <ele>34.882</ele>
        <time>2021-06-16T20:56:07Z</time>
      </trkpt>
      <trkpt lat="36.510981" lon="-4.901169">
        <ele>34.743</ele>
        <time>2021-06-16T20:56:09Z</time>
      </trkpt>
      <trkpt lat="36.510922" lon="-4.901163">
        <ele>34.717</ele>
        <time>2021-06-16T20:56:10Z</time>
      </trkpt>
      <trkpt lat="36.510874" lon="-4.901164">
        <ele>34.708</ele>
        <time>2021-06-16T20:56:13Z</time>
      </trkpt>
      <trkpt lat="36.510832" lon="-4.901209">
        <ele>33.295</ele>
        <time>2021-06-16T20:57:37Z</time>
      </trkpt>
      <trkpt lat="36.510741" lon="-4.901208">
        <ele>32.374</ele>
        <time>2021-06-16T20:57:38Z</time>
      </trkpt>
      <trkpt lat="36.510667" lon="-4.901226">
        <ele>31.878</ele>
        <time>2021-06-16T20:57:39Z</time>
      </trkpt>
      <trkpt lat="36.510598" lon="-4.901256">
        <ele>31.518</ele>
        <time>2021-06-16T20:57:40Z</time>
      </trkpt>
      <trkpt lat="36.51049" lon="-4.901335">
        <ele>31.334</ele>
        <time>2021-06-16T20:57:42Z</time>
      </trkpt>
      <trkpt lat="36.510454" lon="-4.901394">
        <ele>31.236</ele>
        <time>2021-06-16T20:57:43Z</time>
      </trkpt>
      <trkpt lat="36.510422" lon="-4.901572">
        <ele>31.125</ele>
        <time>2021-06-16T20:57:45Z</time>
      </trkpt>
      <trkpt lat="36.510419" lon="-4.901679">
        <ele>31.179</ele>
        <time>2021-06-16T20:57:46Z</time>
      </trkpt>
      <trkpt lat="36.510418" lon="-4.901917">
        <ele>31.166</ele>
        <time>2021-06-16T20:57:48Z</time>
      </trkpt>
      <trkpt lat="36.510402" lon="-4.902181">
        <ele>31.129</ele>
        <time>2021-06-16T20:57:50Z</time>
      </trkpt>
      <trkpt lat="36.51039" lon="-4.902472">
        <ele>31.121</ele>
        <time>2021-06-16T20:57:52Z</time>
      </trkpt>
      <trkpt lat="36.510392" lon="-4.902623">
        <ele>31.108</ele>
        <time>2021-06-16T20:57:53Z</time>
      </trkpt>
      <trkpt lat="36.5104" lon="-4.902778">
        <ele>31.123</ele>
        <time>2021-06-16T20:57:54Z</time>
      </trkpt>
      <trkpt lat="36.510406" lon="-4.902936">
        <ele>31.112</ele>
        <time>2021-06-16T20:57:55Z</time>
      </trkpt>
      <trkpt lat="36.510417" lon="-4.90325">
        <ele>31.146</ele>
        <time>2021-06-16T20:57:57Z</time>
      </trkpt>
      <trkpt lat="36.51042" lon="-4.903404">
        <ele>31.146</ele>
        <time>2021-06-16T20:57:58Z</time>
      </trkpt>
      <trkpt lat="36.510421" lon="-4.903559">
        <ele>31.122</ele>
        <time>2021-06-16T20:57:59Z</time>
      </trkpt>
      <trkpt lat="36.510422" lon="-4.903879">
        <ele>31.144</ele>
        <time>2021-06-16T20:58:01Z</time>
      </trkpt>
      <trkpt lat="36.510422" lon="-4.904043">
        <ele>31.133</ele>
        <time>2021-06-16T20:58:02Z</time>
      </trkpt>
      <trkpt lat="36.510425" lon="-4.904211">
        <ele>31.197</ele>
        <time>2021-06-16T20:58:03Z</time>
      </trkpt>
      <trkpt lat="36.510428" lon="-4.904552">
        <ele>31.166</ele>
        <time>2021-06-16T20:58:05Z</time>
      </trkpt>
      <trkpt lat="36.510437" lon="-4.904722">
        <ele>31.129</ele>
        <time>2021-06-16T20:58:06Z</time>
      </trkpt>
      <trkpt lat="36.510445" lon="-4.905053">
        <ele>31.121</ele>
        <time>2021-06-16T20:58:08Z</time>
      </trkpt>
      <trkpt lat="36.510443" lon="-4.905195">
        <ele>31.108</ele>
        <time>2021-06-16T20:58:09Z</time>
      </trkpt>
      <trkpt lat="36.510439" lon="-4.905405">
        <ele>31.123</ele>
        <time>2021-06-16T20:58:11Z</time>
      </trkpt>
      <trkpt lat="36.510437" lon="-4.90548">
        <ele>31.172</ele>
        <time>2021-06-16T20:58:12Z</time>
      </trkpt>
      <trkpt lat="36.510434" lon="-4.905543">
        <ele>31.126</ele>
        <time>2021-06-16T20:58:14Z</time>
      </trkpt>
      <trkpt lat="36.510423" lon="-4.905601">
        <ele>30.866</ele>
        <time>2021-06-16T20:58:50Z</time>
      </trkpt>
      <trkpt lat="36.510416" lon="-4.905752">
        <ele>30.612</ele>
        <time>2021-06-16T20:58:52Z</time>
      </trkpt>
      <trkpt lat="36.510392" lon="-4.906016">
        <ele>30.564</ele>
        <time>2021-06-16T20:58:54Z</time>
      </trkpt>
      <trkpt lat="36.510349" lon="-4.906312">
        <ele>30.433</ele>
        <time>2021-06-16T20:58:56Z</time>
      </trkpt>
      <trkpt lat="36.510319" lon="-4.906471">
        <ele>30.457</ele>
        <time>2021-06-16T20:58:57Z</time>
      </trkpt>
      <trkpt lat="36.510286" lon="-4.906629">
        <ele>30.438</ele>
        <time>2021-06-16T20:58:58Z</time>
      </trkpt>
      <trkpt lat="36.510215" lon="-4.906949">
        <ele>30.470</ele>
        <time>2021-06-16T20:59:00Z</time>
      </trkpt>
      <trkpt lat="36.510174" lon="-4.907117">
        <ele>30.417</ele>
        <time>2021-06-16T20:59:01Z</time>
      </trkpt>
      <trkpt lat="36.510086" lon="-4.907454">
        <ele>30.408</ele>
        <time>2021-06-16T20:59:03Z</time>
      </trkpt>
      <trkpt lat="36.510006" lon="-4.907788">
        <ele>30.450</ele>
        <time>2021-06-16T20:59:05Z</time>
      </trkpt>
      <trkpt lat="36.509926" lon="-4.908137">
        <ele>30.449</ele>
        <time>2021-06-16T20:59:07Z</time>
      </trkpt>
      <trkpt lat="36.509832" lon="-4.908476">
        <ele>30.423</ele>
        <time>2021-06-16T20:59:09Z</time>
      </trkpt>
      <trkpt lat="36.509749" lon="-4.908809">
        <ele>30.473</ele>
        <time>2021-06-16T20:59:11Z</time>
      </trkpt>
      <trkpt lat="36.509709" lon="-4.908978">
        <ele>30.499</ele>
        <time>2021-06-16T20:59:12Z</time>
      </trkpt>
      <trkpt lat="36.509627" lon="-4.909327">
        <ele>30.491</ele>
        <time>2021-06-16T20:59:14Z</time>
      </trkpt>
      <trkpt lat="36.509543" lon="-4.909677">
        <ele>30.470</ele>
        <time>2021-06-16T20:59:16Z</time>
      </trkpt>
      <trkpt lat="36.509461" lon="-4.910026">
        <ele>30.424</ele>
        <time>2021-06-16T20:59:18Z</time>
      </trkpt>
      <trkpt lat="36.50942" lon="-4.9102">
        <ele>30.449</ele>
        <time>2021-06-16T20:59:19Z</time>
      </trkpt>
      <trkpt lat="36.509378" lon="-4.910372">
        <ele>30.402</ele>
        <time>2021-06-16T20:59:20Z</time>
      </trkpt>
      <trkpt lat="36.509294" lon="-4.910705">
        <ele>30.422</ele>
        <time>2021-06-16T20:59:22Z</time>
      </trkpt>
      <trkpt lat="36.509219" lon="-4.911028">
        <ele>30.408</ele>
        <time>2021-06-16T20:59:24Z</time>
      </trkpt>
      <trkpt lat="36.50915" lon="-4.911325">
        <ele>30.471</ele>
        <time>2021-06-16T20:59:26Z</time>
      </trkpt>
      <trkpt lat="36.509113" lon="-4.911454">
        <ele>30.410</ele>
        <time>2021-06-16T20:59:27Z</time>
      </trkpt>
      <trkpt lat="36.509054" lon="-4.911698">
        <ele>30.494</ele>
        <time>2021-06-16T20:59:29Z</time>
      </trkpt>
      <trkpt lat="36.509001" lon="-4.911927">
        <ele>30.414</ele>
        <time>2021-06-16T20:59:31Z</time>
      </trkpt>
      <trkpt lat="36.508975" lon="-4.912034">
        <ele>30.420</ele>
        <time>2021-06-16T20:59:32Z</time>
      </trkpt>
      <trkpt lat="36.508933" lon="-4.912243">
        <ele>30.452</ele>
        <time>2021-06-16T20:59:34Z</time>
      </trkpt>
      <trkpt lat="36.508918" lon="-4.912352">
        <ele>30.411</ele>
        <time>2021-06-16T20:59:35Z</time>
      </trkpt>
      <trkpt lat="36.508912" lon="-4.912465">
        <ele>30.485</ele>
        <time>2021-06-16T20:59:36Z</time>
      </trkpt>
      <trkpt lat="36.508918" lon="-4.912712">
        <ele>30.492</ele>
        <time>2021-06-16T20:59:38Z</time>
      </trkpt>
      <trkpt lat="36.508837" lon="-4.912951">
        <ele>30.473</ele>
        <time>2021-06-16T20:59:40Z</time>
      </trkpt>
      <trkpt lat="36.508769" lon="-4.913068">
        <ele>30.420</ele>
        <time>2021-06-16T20:59:41Z</time>
      </trkpt>
      <trkpt lat="36.508645" lon="-4.913338">
        <ele>30.408</ele>
        <time>2021-06-16T20:59:43Z</time>
      </trkpt>
      <trkpt lat="36.508599" lon="-4.913486">
        <ele>30.416</ele>
        <time>2021-06-16T20:59:44Z</time>
      </trkpt>
      <trkpt lat="36.508523" lon="-4.913815">
        <ele>30.425</ele>
        <time>2021-06-16T20:59:46Z</time>
      </trkpt>
      <trkpt lat="36.50845" lon="-4.914167">
        <ele>30.499</ele>
        <time>2021-06-16T20:59:48Z</time>
      </trkpt>
      <trkpt lat="36.508374" lon="-4.914516">
        <ele>29.769</ele>
        <time>2021-06-16T20:59:50Z</time>
      </trkpt>
      <trkpt lat="36.508279" lon="-4.914878">
        <ele>28.415</ele>
        <time>2021-06-16T20:59:52Z</time>
      </trkpt>
      <trkpt lat="36.508235" lon="-4.915055">
        <ele>27.917</ele>
        <time>2021-06-16T20:59:53Z</time>
      </trkpt>
      <trkpt lat="36.508191" lon="-4.915228">
        <ele>27.926</ele>
        <time>2021-06-16T20:59:54Z</time>
      </trkpt>
      <trkpt lat="36.508149" lon="-4.915402">
        <ele>28.430</ele>
        <time>2021-06-16T20:59:55Z</time>
      </trkpt>
      <trkpt lat="36.508114" lon="-4.915576">
        <ele>29.294</ele>
        <time>2021-06-16T20:59:56Z</time>
      </trkpt>
      <trkpt lat="36.508036" lon="-4.91592">
        <ele>30.157</ele>
        <time>2021-06-16T20:59:58Z</time>
      </trkpt>
      <trkpt lat="36.507996" lon="-4.9161">
        <ele>30.422</ele>
        <time>2021-06-16T20:59:59Z</time>
      </trkpt>
      <trkpt lat="36.507912" lon="-4.916454">
        <ele>31.308</ele>
        <time>2021-06-16T21:00:01Z</time>
      </trkpt>
      <trkpt lat="36.507866" lon="-4.916627">
        <ele>31.746</ele>
        <time>2021-06-16T21:00:02Z</time>
      </trkpt>
      <trkpt lat="36.507778" lon="-4.916957">
        <ele>32.195</ele>
        <time>2021-06-16T21:00:04Z</time>
      </trkpt>
      <trkpt lat="36.507735" lon="-4.917112">
        <ele>32.869</ele>
        <time>2021-06-16T21:00:05Z</time>
      </trkpt>
      <trkpt lat="36.507647" lon="-4.917414">
        <ele>33.749</ele>
        <time>2021-06-16T21:00:07Z</time>
      </trkpt>
      <trkpt lat="36.5076" lon="-4.917559">
        <ele>34.285</ele>
        <time>2021-06-16T21:00:08Z</time>
      </trkpt>
      <trkpt lat="36.507557" lon="-4.917698">
        <ele>34.867</ele>
        <time>2021-06-16T21:00:09Z</time>
      </trkpt>
      <trkpt lat="36.507516" lon="-4.917824">
        <ele>35.156</ele>
        <time>2021-06-16T21:00:10Z</time>
      </trkpt>
      <trkpt lat="36.507477" lon="-4.917943">
        <ele>35.640</ele>
        <time>2021-06-16T21:00:11Z</time>
      </trkpt>
      <trkpt lat="36.507408" lon="-4.918177">
        <ele>36.189</ele>
        <time>2021-06-16T21:00:13Z</time>
      </trkpt>
      <trkpt lat="36.507334" lon="-4.918385">
        <ele>36.306</ele>
        <time>2021-06-16T21:00:15Z</time>
      </trkpt>
      <trkpt lat="36.507269" lon="-4.918573">
        <ele>36.226</ele>
        <time>2021-06-16T21:00:17Z</time>
      </trkpt>
      <trkpt lat="36.507216" lon="-4.918726">
        <ele>35.908</ele>
        <time>2021-06-16T21:00:19Z</time>
      </trkpt>
      <trkpt lat="36.507197" lon="-4.918786">
        <ele>36.495</ele>
        <time>2021-06-16T21:00:20Z</time>
      </trkpt>
      <trkpt lat="36.507162" lon="-4.91888">
        <ele>37.074</ele>
        <time>2021-06-16T21:00:22Z</time>
      </trkpt>
      <trkpt lat="36.507128" lon="-4.918963">
        <ele>37.188</ele>
        <time>2021-06-16T21:00:24Z</time>
      </trkpt>
      <trkpt lat="36.50709" lon="-4.919029">
        <ele>37.148</ele>
        <time>2021-06-16T21:00:26Z</time>
      </trkpt>
      <trkpt lat="36.507052" lon="-4.919083">
        <ele>37.424</ele>
        <time>2021-06-16T21:00:28Z</time>
      </trkpt>
      <trkpt lat="36.507024" lon="-4.91914">
        <ele>36.166</ele>
        <time>2021-06-16T21:00:45Z</time>
      </trkpt>
      <trkpt lat="36.50699" lon="-4.919223">
        <ele>35.365</ele>
        <time>2021-06-16T21:00:46Z</time>
      </trkpt>
      <trkpt lat="36.506903" lon="-4.919445">
        <ele>34.839</ele>
        <time>2021-06-16T21:00:48Z</time>
      </trkpt>
      <trkpt lat="36.506801" lon="-4.919718">
        <ele>34.581</ele>
        <time>2021-06-16T21:00:50Z</time>
      </trkpt>
      <trkpt lat="36.506749" lon="-4.919865">
        <ele>34.461</ele>
        <time>2021-06-16T21:00:51Z</time>
      </trkpt>
      <trkpt lat="36.506689" lon="-4.920016">
        <ele>34.317</ele>
        <time>2021-06-16T21:00:52Z</time>
      </trkpt>
      <trkpt lat="36.506554" lon="-4.920322">
        <ele>34.308</ele>
        <time>2021-06-16T21:00:54Z</time>
      </trkpt>
      <trkpt lat="36.50643" lon="-4.920643">
        <ele>34.325</ele>
        <time>2021-06-16T21:00:56Z</time>
      </trkpt>
      <trkpt lat="36.506295" lon="-4.920978">
        <ele>34.364</ele>
        <time>2021-06-16T21:00:58Z</time>
      </trkpt>
      <trkpt lat="36.506147" lon="-4.921317">
        <ele>34.368</ele>
        <time>2021-06-16T21:01:00Z</time>
      </trkpt>
      <trkpt lat="36.506075" lon="-4.921488">
        <ele>34.318</ele>
        <time>2021-06-16T21:01:01Z</time>
      </trkpt>
      <trkpt lat="36.505939" lon="-4.921832">
        <ele>34.354</ele>
        <time>2021-06-16T21:01:03Z</time>
      </trkpt>
      <trkpt lat="36.505799" lon="-4.922182">
        <ele>34.326</ele>
        <time>2021-06-16T21:01:05Z</time>
      </trkpt>
      <trkpt lat="36.50573" lon="-4.922359">
        <ele>34.345</ele>
        <time>2021-06-16T21:01:06Z</time>
      </trkpt>
      <trkpt lat="36.505659" lon="-4.922539">
        <ele>34.369</ele>
        <time>2021-06-16T21:01:07Z</time>
      </trkpt>
      <trkpt lat="36.505516" lon="-4.922886">
        <ele>34.313</ele>
        <time>2021-06-16T21:01:09Z</time>
      </trkpt>
      <trkpt lat="36.505448" lon="-4.923059">
        <ele>34.343</ele>
        <time>2021-06-16T21:01:10Z</time>
      </trkpt>
      <trkpt lat="36.505381" lon="-4.923232">
        <ele>34.307</ele>
        <time>2021-06-16T21:01:11Z</time>
      </trkpt>
      <trkpt lat="36.505241" lon="-4.923577">
        <ele>34.308</ele>
        <time>2021-06-16T21:01:13Z</time>
      </trkpt>
      <trkpt lat="36.505169" lon="-4.923752">
        <ele>34.398</ele>
        <time>2021-06-16T21:01:14Z</time>
      </trkpt>
      <trkpt lat="36.505098" lon="-4.92393">
        <ele>34.387</ele>
        <time>2021-06-16T21:01:15Z</time>
      </trkpt>
      <trkpt lat="36.505026" lon="-4.924109">
        <ele>34.321</ele>
        <time>2021-06-16T21:01:16Z</time>
      </trkpt>
      <trkpt lat="36.504884" lon="-4.924463">
        <ele>34.391</ele>
        <time>2021-06-16T21:01:18Z</time>
      </trkpt>
      <trkpt lat="36.504816" lon="-4.924642">
        <ele>34.337</ele>
        <time>2021-06-16T21:01:19Z</time>
      </trkpt>
      <trkpt lat="36.504671" lon="-4.925011">
        <ele>34.339</ele>
        <time>2021-06-16T21:01:21Z</time>
      </trkpt>
      <trkpt lat="36.504521" lon="-4.925373">
        <ele>34.368</ele>
        <time>2021-06-16T21:01:23Z</time>
      </trkpt>
      <trkpt lat="36.504364" lon="-4.925732">
        <ele>34.372</ele>
        <time>2021-06-16T21:01:25Z</time>
      </trkpt>
      <trkpt lat="36.504215" lon="-4.926094">
        <ele>34.336</ele>
        <time>2021-06-16T21:01:27Z</time>
      </trkpt>
      <trkpt lat="36.504142" lon="-4.926278">
        <ele>34.317</ele>
        <time>2021-06-16T21:01:28Z</time>
      </trkpt>
      <trkpt lat="36.503996" lon="-4.926649">
        <ele>34.318</ele>
        <time>2021-06-16T21:01:30Z</time>
      </trkpt>
      <trkpt lat="36.503921" lon="-4.926833">
        <ele>34.308</ele>
        <time>2021-06-16T21:01:31Z</time>
      </trkpt>
      <trkpt lat="36.503772" lon="-4.927191">
        <ele>34.370</ele>
        <time>2021-06-16T21:01:33Z</time>
      </trkpt>
      <trkpt lat="36.50362" lon="-4.927566">
        <ele>34.399</ele>
        <time>2021-06-16T21:01:35Z</time>
      </trkpt>
      <trkpt lat="36.503545" lon="-4.927756">
        <ele>34.313</ele>
        <time>2021-06-16T21:01:36Z</time>
      </trkpt>
      <trkpt lat="36.503472" lon="-4.927943">
        <ele>34.363</ele>
        <time>2021-06-16T21:01:37Z</time>
      </trkpt>
      <trkpt lat="36.503323" lon="-4.928316">
        <ele>34.369</ele>
        <time>2021-06-16T21:01:39Z</time>
      </trkpt>
      <trkpt lat="36.50317" lon="-4.928699">
        <ele>34.331</ele>
        <time>2021-06-16T21:01:41Z</time>
      </trkpt>
      <trkpt lat="36.503019" lon="-4.929069">
        <ele>34.360</ele>
        <time>2021-06-16T21:01:43Z</time>
      </trkpt>
      <trkpt lat="36.502874" lon="-4.92944">
        <ele>32.814</ele>
        <time>2021-06-16T21:01:45Z</time>
      </trkpt>
      <trkpt lat="36.502733" lon="-4.92981">
        <ele>31.743</ele>
        <time>2021-06-16T21:01:47Z</time>
      </trkpt>
      <trkpt lat="36.502663" lon="-4.929997">
        <ele>30.864</ele>
        <time>2021-06-16T21:01:48Z</time>
      </trkpt>
      <trkpt lat="36.502526" lon="-4.930375">
        <ele>30.110</ele>
        <time>2021-06-16T21:01:50Z</time>
      </trkpt>
      <trkpt lat="36.50238" lon="-4.930762">
        <ele>29.208</ele>
        <time>2021-06-16T21:01:52Z</time>
      </trkpt>
      <trkpt lat="36.502305" lon="-4.930959">
        <ele>28.451</ele>
        <time>2021-06-16T21:01:53Z</time>
      </trkpt>
      <trkpt lat="36.502232" lon="-4.931152">
        <ele>28.380</ele>
        <time>2021-06-16T21:01:54Z</time>
      </trkpt>
      <trkpt lat="36.502161" lon="-4.931342">
        <ele>28.374</ele>
        <time>2021-06-16T21:01:55Z</time>
      </trkpt>
      <trkpt lat="36.502023" lon="-4.931714">
        <ele>27.464</ele>
        <time>2021-06-16T21:01:57Z</time>
      </trkpt>
      <trkpt lat="36.501887" lon="-4.932093">
        <ele>26.440</ele>
        <time>2021-06-16T21:01:59Z</time>
      </trkpt>
      <trkpt lat="36.501751" lon="-4.932468">
        <ele>25.452</ele>
        <time>2021-06-16T21:02:01Z</time>
      </trkpt>
      <trkpt lat="36.501683" lon="-4.932658">
        <ele>24.971</ele>
        <time>2021-06-16T21:02:02Z</time>
      </trkpt>
      <trkpt lat="36.501548" lon="-4.933028">
        <ele>24.345</ele>
        <time>2021-06-16T21:02:04Z</time>
      </trkpt>
      <trkpt lat="36.501483" lon="-4.933221">
        <ele>23.729</ele>
        <time>2021-06-16T21:02:05Z</time>
      </trkpt>
      <trkpt lat="36.501348" lon="-4.933606">
        <ele>23.000</ele>
        <time>2021-06-16T21:02:07Z</time>
      </trkpt>
      <trkpt lat="36.50121" lon="-4.933991">
        <ele>22.120</ele>
        <time>2021-06-16T21:02:09Z</time>
      </trkpt>
      <trkpt lat="36.501077" lon="-4.934372">
        <ele>21.008</ele>
        <time>2021-06-16T21:02:11Z</time>
      </trkpt>
      <trkpt lat="36.501015" lon="-4.934558">
        <ele>20.389</ele>
        <time>2021-06-16T21:02:12Z</time>
      </trkpt>
      <trkpt lat="36.500892" lon="-4.934914">
        <ele>19.818</ele>
        <time>2021-06-16T21:02:14Z</time>
      </trkpt>
      <trkpt lat="36.500832" lon="-4.935087">
        <ele>19.362</ele>
        <time>2021-06-16T21:02:15Z</time>
      </trkpt>
      <trkpt lat="36.500714" lon="-4.935409">
        <ele>19.472</ele>
        <time>2021-06-16T21:02:17Z</time>
      </trkpt>
      <trkpt lat="36.500661" lon="-4.935562">
        <ele>19.428</ele>
        <time>2021-06-16T21:02:18Z</time>
      </trkpt>
      <trkpt lat="36.500612" lon="-4.935706">
        <ele>19.750</ele>
        <time>2021-06-16T21:02:19Z</time>
      </trkpt>
      <trkpt lat="36.500513" lon="-4.935974">
        <ele>20.439</ele>
        <time>2021-06-16T21:02:21Z</time>
      </trkpt>
      <trkpt lat="36.50042" lon="-4.93624">
        <ele>21.113</ele>
        <time>2021-06-16T21:02:23Z</time>
      </trkpt>
      <trkpt lat="36.500372" lon="-4.936369">
        <ele>21.477</ele>
        <time>2021-06-16T21:02:24Z</time>
      </trkpt>
      <trkpt lat="36.500283" lon="-4.936623">
        <ele>22.161</ele>
        <time>2021-06-16T21:02:26Z</time>
      </trkpt>
      <trkpt lat="36.50024" lon="-4.936746">
        <ele>22.527</ele>
        <time>2021-06-16T21:02:27Z</time>
      </trkpt>
      <trkpt lat="36.500158" lon="-4.93698">
        <ele>23.208</ele>
        <time>2021-06-16T21:02:29Z</time>
      </trkpt>
      <trkpt lat="36.500077" lon="-4.937214">
        <ele>23.454</ele>
        <time>2021-06-16T21:02:31Z</time>
      </trkpt>
      <trkpt lat="36.499992" lon="-4.937449">
        <ele>22.863</ele>
        <time>2021-06-16T21:02:33Z</time>
      </trkpt>
      <trkpt lat="36.499947" lon="-4.937567">
        <ele>22.427</ele>
        <time>2021-06-16T21:02:34Z</time>
      </trkpt>
      <trkpt lat="36.49986" lon="-4.937811">
        <ele>21.727</ele>
        <time>2021-06-16T21:02:36Z</time>
      </trkpt>
      <trkpt lat="36.499818" lon="-4.937937">
        <ele>21.943</ele>
        <time>2021-06-16T21:02:37Z</time>
      </trkpt>
      <trkpt lat="36.499775" lon="-4.938067">
        <ele>21.625</ele>
        <time>2021-06-16T21:02:38Z</time>
      </trkpt>
      <trkpt lat="36.499682" lon="-4.938322">
        <ele>21.724</ele>
        <time>2021-06-16T21:02:40Z</time>
      </trkpt>
      <trkpt lat="36.499634" lon="-4.938448">
        <ele>22.418</ele>
        <time>2021-06-16T21:02:41Z</time>
      </trkpt>
      <trkpt lat="36.499546" lon="-4.938701">
        <ele>21.888</ele>
        <time>2021-06-16T21:02:43Z</time>
      </trkpt>
      <trkpt lat="36.49945" lon="-4.938939">
        <ele>22.624</ele>
        <time>2021-06-16T21:02:45Z</time>
      </trkpt>
      <trkpt lat="36.499363" lon="-4.939167">
        <ele>23.226</ele>
        <time>2021-06-16T21:02:47Z</time>
      </trkpt>
      <trkpt lat="36.499289" lon="-4.939387">
        <ele>23.308</ele>
        <time>2021-06-16T21:02:49Z</time>
      </trkpt>
      <trkpt lat="36.499217" lon="-4.939591">
        <ele>23.155</ele>
        <time>2021-06-16T21:02:51Z</time>
      </trkpt>
      <trkpt lat="36.499149" lon="-4.93978">
        <ele>24.144</ele>
        <time>2021-06-16T21:02:53Z</time>
      </trkpt>
      <trkpt lat="36.499086" lon="-4.939958">
        <ele>24.198</ele>
        <time>2021-06-16T21:02:55Z</time>
      </trkpt>
      <trkpt lat="36.499057" lon="-4.940039">
        <ele>24.038</ele>
        <time>2021-06-16T21:02:56Z</time>
      </trkpt>
      <trkpt lat="36.499031" lon="-4.940118">
        <ele>24.134</ele>
        <time>2021-06-16T21:02:57Z</time>
      </trkpt>
      <trkpt lat="36.498973" lon="-4.940262">
        <ele>24.056</ele>
        <time>2021-06-16T21:02:59Z</time>
      </trkpt>
      <trkpt lat="36.498945" lon="-4.940329">
        <ele>24.275</ele>
        <time>2021-06-16T21:03:00Z</time>
      </trkpt>
      <trkpt lat="36.498896" lon="-4.940461">
        <ele>24.099</ele>
        <time>2021-06-16T21:03:02Z</time>
      </trkpt>
      <trkpt lat="36.498847" lon="-4.940563">
        <ele>23.948</ele>
        <time>2021-06-16T21:03:04Z</time>
      </trkpt>
      <trkpt lat="36.498816" lon="-4.940643">
        <ele>23.561</ele>
        <time>2021-06-16T21:03:06Z</time>
      </trkpt>
      <trkpt lat="36.498786" lon="-4.940717">
        <ele>23.217</ele>
        <time>2021-06-16T21:03:08Z</time>
      </trkpt>
      <trkpt lat="36.498738" lon="-4.940807">
        <ele>22.808</ele>
        <time>2021-06-16T21:03:10Z</time>
      </trkpt>
      <trkpt lat="36.498704" lon="-4.940884">
        <ele>22.711</ele>
        <time>2021-06-16T21:03:11Z</time>
      </trkpt>
      <trkpt lat="36.498643" lon="-4.941094">
        <ele>22.410</ele>
        <time>2021-06-16T21:03:13Z</time>
      </trkpt>
      <trkpt lat="36.49861" lon="-4.941215">
        <ele>22.184</ele>
        <time>2021-06-16T21:03:14Z</time>
      </trkpt>
      <trkpt lat="36.498527" lon="-4.941462">
        <ele>21.634</ele>
        <time>2021-06-16T21:03:16Z</time>
      </trkpt>
      <trkpt lat="36.498482" lon="-4.941596">
        <ele>21.530</ele>
        <time>2021-06-16T21:03:17Z</time>
      </trkpt>
      <trkpt lat="36.498433" lon="-4.941736">
        <ele>21.682</ele>
        <time>2021-06-16T21:03:18Z</time>
      </trkpt>
      <trkpt lat="36.498328" lon="-4.942021">
        <ele>22.171</ele>
        <time>2021-06-16T21:03:20Z</time>
      </trkpt>
      <trkpt lat="36.498218" lon="-4.942321">
        <ele>22.185</ele>
        <time>2021-06-16T21:03:22Z</time>
      </trkpt>
      <trkpt lat="36.498164" lon="-4.942478">
        <ele>22.337</ele>
        <time>2021-06-16T21:03:23Z</time>
      </trkpt>
      <trkpt lat="36.498053" lon="-4.942798">
        <ele>22.549</ele>
        <time>2021-06-16T21:03:25Z</time>
      </trkpt>
      <trkpt lat="36.497994" lon="-4.942964">
        <ele>22.413</ele>
        <time>2021-06-16T21:03:26Z</time>
      </trkpt>
      <trkpt lat="36.497876" lon="-4.94329">
        <ele>21.908</ele>
        <time>2021-06-16T21:03:28Z</time>
      </trkpt>
      <trkpt lat="36.497816" lon="-4.943457">
        <ele>21.880</ele>
        <time>2021-06-16T21:03:29Z</time>
      </trkpt>
      <trkpt lat="36.497701" lon="-4.943788">
        <ele>21.599</ele>
        <time>2021-06-16T21:03:31Z</time>
      </trkpt>
      <trkpt lat="36.497584" lon="-4.944119">
        <ele>21.083</ele>
        <time>2021-06-16T21:03:33Z</time>
      </trkpt>
      <trkpt lat="36.497527" lon="-4.944281">
        <ele>20.823</ele>
        <time>2021-06-16T21:03:34Z</time>
      </trkpt>
      <trkpt lat="36.497428" lon="-4.944614">
        <ele>20.939</ele>
        <time>2021-06-16T21:03:36Z</time>
      </trkpt>
      <trkpt lat="36.497382" lon="-4.944785">
        <ele>21.161</ele>
        <time>2021-06-16T21:03:37Z</time>
      </trkpt>
      <trkpt lat="36.497301" lon="-4.945132">
        <ele>21.330</ele>
        <time>2021-06-16T21:03:39Z</time>
      </trkpt>
      <trkpt lat="36.497237" lon="-4.945489">
        <ele>21.584</ele>
        <time>2021-06-16T21:03:41Z</time>
      </trkpt>
      <trkpt lat="36.497203" lon="-4.94567">
        <ele>21.531</ele>
        <time>2021-06-16T21:03:42Z</time>
      </trkpt>
      <trkpt lat="36.497128" lon="-4.946025">
        <ele>20.761</ele>
        <time>2021-06-16T21:03:44Z</time>
      </trkpt>
      <trkpt lat="36.497092" lon="-4.946197">
        <ele>19.907</ele>
        <time>2021-06-16T21:03:45Z</time>
      </trkpt>
      <trkpt lat="36.49706" lon="-4.946363">
        <ele>19.208</ele>
        <time>2021-06-16T21:03:46Z</time>
      </trkpt>
      <trkpt lat="36.497035" lon="-4.946521">
        <ele>19.290</ele>
        <time>2021-06-16T21:03:47Z</time>
      </trkpt>
      <trkpt lat="36.496978" lon="-4.946818">
        <ele>18.919</ele>
        <time>2021-06-16T21:03:49Z</time>
      </trkpt>
      <trkpt lat="36.496913" lon="-4.947114">
        <ele>19.133</ele>
        <time>2021-06-16T21:03:51Z</time>
      </trkpt>
      <trkpt lat="36.496884" lon="-4.947261">
        <ele>19.663</ele>
        <time>2021-06-16T21:03:52Z</time>
      </trkpt>
      <trkpt lat="36.496817" lon="-4.947549">
        <ele>19.919</ele>
        <time>2021-06-16T21:03:54Z</time>
      </trkpt>
      <trkpt lat="36.496783" lon="-4.947691">
        <ele>19.941</ele>
        <time>2021-06-16T21:03:55Z</time>
      </trkpt>
      <trkpt lat="36.496707" lon="-4.947955">
        <ele>20.780</ele>
        <time>2021-06-16T21:03:57Z</time>
      </trkpt>
      <trkpt lat="36.496673" lon="-4.948077">
        <ele>21.894</ele>
        <time>2021-06-16T21:03:58Z</time>
      </trkpt>
      <trkpt lat="36.496614" lon="-4.948315">
        <ele>22.268</ele>
        <time>2021-06-16T21:04:00Z</time>
      </trkpt>
      <trkpt lat="36.496588" lon="-4.948437">
        <ele>22.642</ele>
        <time>2021-06-16T21:04:01Z</time>
      </trkpt>
      <trkpt lat="36.496535" lon="-4.948672">
        <ele>22.826</ele>
        <time>2021-06-16T21:04:03Z</time>
      </trkpt>
      <trkpt lat="36.496498" lon="-4.948793">
        <ele>22.408</ele>
        <time>2021-06-16T21:04:04Z</time>
      </trkpt>
      <trkpt lat="36.496374" lon="-4.949031">
        <ele>21.993</ele>
        <time>2021-06-16T21:04:06Z</time>
      </trkpt>
      <trkpt lat="36.49629" lon="-4.949144">
        <ele>21.382</ele>
        <time>2021-06-16T21:04:07Z</time>
      </trkpt>
      <trkpt lat="36.496197" lon="-4.949248">
        <ele>20.936</ele>
        <time>2021-06-16T21:04:08Z</time>
      </trkpt>
      <trkpt lat="36.496092" lon="-4.949353">
        <ele>20.696</ele>
        <time>2021-06-16T21:04:09Z</time>
      </trkpt>
      <trkpt lat="36.495982" lon="-4.94946">
        <ele>19.962</ele>
        <time>2021-06-16T21:04:10Z</time>
      </trkpt>
      <trkpt lat="36.495756" lon="-4.94969">
        <ele>18.854</ele>
        <time>2021-06-16T21:04:12Z</time>
      </trkpt>
      <trkpt lat="36.495639" lon="-4.949817">
        <ele>18.283</ele>
        <time>2021-06-16T21:04:13Z</time>
      </trkpt>
      <trkpt lat="36.495518" lon="-4.949944">
        <ele>17.667</ele>
        <time>2021-06-16T21:04:14Z</time>
      </trkpt>
      <trkpt lat="36.495394" lon="-4.950071">
        <ele>17.184</ele>
        <time>2021-06-16T21:04:15Z</time>
      </trkpt>
      <trkpt lat="36.495139" lon="-4.950327">
        <ele>17.407</ele>
        <time>2021-06-16T21:04:17Z</time>
      </trkpt>
      <trkpt lat="36.495009" lon="-4.950452">
        <ele>17.517</ele>
        <time>2021-06-16T21:04:18Z</time>
      </trkpt>
      <trkpt lat="36.494746" lon="-4.950706">
        <ele>17.608</ele>
        <time>2021-06-16T21:04:20Z</time>
      </trkpt>
      <trkpt lat="36.494613" lon="-4.950835">
        <ele>17.635</ele>
        <time>2021-06-16T21:04:21Z</time>
      </trkpt>
      <trkpt lat="36.494482" lon="-4.950964">
        <ele>17.984</ele>
        <time>2021-06-16T21:04:22Z</time>
      </trkpt>
      <trkpt lat="36.494221" lon="-4.951218">
        <ele>18.698</ele>
        <time>2021-06-16T21:04:24Z</time>
      </trkpt>
      <trkpt lat="36.494091" lon="-4.951346">
        <ele>19.548</ele>
        <time>2021-06-16T21:04:25Z</time>
      </trkpt>
      <trkpt lat="36.493956" lon="-4.951471">
        <ele>20.294</ele>
        <time>2021-06-16T21:04:26Z</time>
      </trkpt>
      <trkpt lat="36.493687" lon="-4.951717">
        <ele>21.226</ele>
        <time>2021-06-16T21:04:28Z</time>
      </trkpt>
      <trkpt lat="36.49342" lon="-4.951974">
        <ele>22.095</ele>
        <time>2021-06-16T21:04:30Z</time>
      </trkpt>
      <trkpt lat="36.493284" lon="-4.952109">
        <ele>22.849</ele>
        <time>2021-06-16T21:04:31Z</time>
      </trkpt>
      <trkpt lat="36.493147" lon="-4.952246">
        <ele>23.733</ele>
        <time>2021-06-16T21:04:32Z</time>
      </trkpt>
      <trkpt lat="36.49301" lon="-4.952387">
        <ele>24.223</ele>
        <time>2021-06-16T21:04:33Z</time>
      </trkpt>
      <trkpt lat="36.492871" lon="-4.952529">
        <ele>24.915</ele>
        <time>2021-06-16T21:04:34Z</time>
      </trkpt>
      <trkpt lat="36.492597" lon="-4.95281">
        <ele>25.408</ele>
        <time>2021-06-16T21:04:36Z</time>
      </trkpt>
      <trkpt lat="36.492465" lon="-4.952945">
        <ele>25.530</ele>
        <time>2021-06-16T21:04:37Z</time>
      </trkpt>
      <trkpt lat="36.492209" lon="-4.953204">
        <ele>25.979</ele>
        <time>2021-06-16T21:04:39Z</time>
      </trkpt>
      <trkpt lat="36.492079" lon="-4.953329">
        <ele>26.193</ele>
        <time>2021-06-16T21:04:40Z</time>
      </trkpt>
      <trkpt lat="36.491813" lon="-4.953586">
        <ele>26.553</ele>
        <time>2021-06-16T21:04:42Z</time>
      </trkpt>
      <trkpt lat="36.491533" lon="-4.953853">
        <ele>26.769</ele>
        <time>2021-06-16T21:04:44Z</time>
      </trkpt>
      <trkpt lat="36.491237" lon="-4.954132">
        <ele>26.521</ele>
        <time>2021-06-16T21:04:46Z</time>
      </trkpt>
      <trkpt lat="36.490948" lon="-4.954417">
        <ele>26.460</ele>
        <time>2021-06-16T21:04:48Z</time>
      </trkpt>
      <trkpt lat="36.490661" lon="-4.954709">
        <ele>26.414</ele>
        <time>2021-06-16T21:04:50Z</time>
      </trkpt>
      <trkpt lat="36.490516" lon="-4.954857">
        <ele>26.135</ele>
        <time>2021-06-16T21:04:51Z</time>
      </trkpt>
      <trkpt lat="36.490233" lon="-4.955161">
        <ele>25.986</ele>
        <time>2021-06-16T21:04:53Z</time>
      </trkpt>
      <trkpt lat="36.490096" lon="-4.955324">
        <ele>25.414</ele>
        <time>2021-06-16T21:04:54Z</time>
      </trkpt>
      <trkpt lat="36.489961" lon="-4.955491">
        <ele>25.108</ele>
        <time>2021-06-16T21:04:55Z</time>
      </trkpt>
      <trkpt lat="36.489828" lon="-4.95566">
        <ele>25.280</ele>
        <time>2021-06-16T21:04:56Z</time>
      </trkpt>
      <trkpt lat="36.489573" lon="-4.956016">
        <ele>24.729</ele>
        <time>2021-06-16T21:04:58Z</time>
      </trkpt>
      <trkpt lat="36.489452" lon="-4.956204">
        <ele>24.313</ele>
        <time>2021-06-16T21:04:59Z</time>
      </trkpt>
      <trkpt lat="36.489235" lon="-4.956594">
        <ele>24.343</ele>
        <time>2021-06-16T21:05:01Z</time>
      </trkpt>
      <trkpt lat="36.489142" lon="-4.956805">
        <ele>24.399</ele>
        <time>2021-06-16T21:05:02Z</time>
      </trkpt>
      <trkpt lat="36.489062" lon="-4.957024">
        <ele>24.541</ele>
        <time>2021-06-16T21:05:03Z</time>
      </trkpt>
      <trkpt lat="36.48892" lon="-4.95746">
        <ele>25.380</ele>
        <time>2021-06-16T21:05:05Z</time>
      </trkpt>
      <trkpt lat="36.488864" lon="-4.957677">
        <ele>26.054</ele>
        <time>2021-06-16T21:05:06Z</time>
      </trkpt>
      <trkpt lat="36.488767" lon="-4.958108">
        <ele>26.784</ele>
        <time>2021-06-16T21:05:08Z</time>
      </trkpt>
      <trkpt lat="36.488676" lon="-4.958535">
        <ele>27.607</ele>
        <time>2021-06-16T21:05:10Z</time>
      </trkpt>
      <trkpt lat="36.488642" lon="-4.95875">
        <ele>28.317</ele>
        <time>2021-06-16T21:05:11Z</time>
      </trkpt>
      <trkpt lat="36.488574" lon="-4.959174">
        <ele>29.308</ele>
        <time>2021-06-16T21:05:13Z</time>
      </trkpt>
      <trkpt lat="36.488541" lon="-4.959389">
        <ele>29.255</ele>
        <time>2021-06-16T21:05:14Z</time>
      </trkpt>
      <trkpt lat="36.488504" lon="-4.959602">
        <ele>29.434</ele>
        <time>2021-06-16T21:05:15Z</time>
      </trkpt>
      <trkpt lat="36.488421" lon="-4.960024">
        <ele>29.838</ele>
        <time>2021-06-16T21:05:17Z</time>
      </trkpt>
      <trkpt lat="36.488339" lon="-4.960454">
        <ele>29.138</ele>
        <time>2021-06-16T21:05:19Z</time>
      </trkpt>
      <trkpt lat="36.48826" lon="-4.960889">
        <ele>28.694</ele>
        <time>2021-06-16T21:05:21Z</time>
      </trkpt>
      <trkpt lat="36.488176" lon="-4.961325">
        <ele>28.186</ele>
        <time>2021-06-16T21:05:23Z</time>
      </trkpt>
      <trkpt lat="36.488095" lon="-4.961768">
        <ele>27.965</ele>
        <time>2021-06-16T21:05:25Z</time>
      </trkpt>
      <trkpt lat="36.488022" lon="-4.962209">
        <ele>28.789</ele>
        <time>2021-06-16T21:05:27Z</time>
      </trkpt>
      <trkpt lat="36.487958" lon="-4.96265">
        <ele>28.868</ele>
        <time>2021-06-16T21:05:29Z</time>
      </trkpt>
      <trkpt lat="36.487917" lon="-4.962869">
        <ele>29.542</ele>
        <time>2021-06-16T21:05:30Z</time>
      </trkpt>
      <trkpt lat="36.487879" lon="-4.963094">
        <ele>29.526</ele>
        <time>2021-06-16T21:05:31Z</time>
      </trkpt>
      <trkpt lat="36.487817" lon="-4.963542">
        <ele>29.108</ele>
        <time>2021-06-16T21:05:33Z</time>
      </trkpt>
      <trkpt lat="36.487752" lon="-4.963994">
        <ele>28.333</ele>
        <time>2021-06-16T21:05:35Z</time>
      </trkpt>
      <trkpt lat="36.487718" lon="-4.964217">
        <ele>27.472</ele>
        <time>2021-06-16T21:05:36Z</time>
      </trkpt>
      <trkpt lat="36.487653" lon="-4.96467">
        <ele>26.346</ele>
        <time>2021-06-16T21:05:38Z</time>
      </trkpt>
      <trkpt lat="36.487616" lon="-4.964896">
        <ele>25.926</ele>
        <time>2021-06-16T21:05:39Z</time>
      </trkpt>
      <trkpt lat="36.48758" lon="-4.965121">
        <ele>25.792</ele>
        <time>2021-06-16T21:05:40Z</time>
      </trkpt>
      <trkpt lat="36.487547" lon="-4.965341">
        <ele>25.974</ele>
        <time>2021-06-16T21:05:41Z</time>
      </trkpt>
      <trkpt lat="36.487513" lon="-4.965555">
        <ele>25.953</ele>
        <time>2021-06-16T21:05:42Z</time>
      </trkpt>
      <trkpt lat="36.487458" lon="-4.965965">
        <ele>26.497</ele>
        <time>2021-06-16T21:05:44Z</time>
      </trkpt>
      <trkpt lat="36.487425" lon="-4.966171">
        <ele>26.822</ele>
        <time>2021-06-16T21:05:45Z</time>
      </trkpt>
      <trkpt lat="36.487392" lon="-4.966371">
        <ele>27.262</ele>
        <time>2021-06-16T21:05:46Z</time>
      </trkpt>
      <trkpt lat="36.487359" lon="-4.966572">
        <ele>27.908</ele>
        <time>2021-06-16T21:05:47Z</time>
      </trkpt>
      <trkpt lat="36.487291" lon="-4.966972">
        <ele>28.908</ele>
        <time>2021-06-16T21:05:49Z</time>
      </trkpt>
      <trkpt lat="36.48723" lon="-4.967361">
        <ele>28.919</ele>
        <time>2021-06-16T21:05:51Z</time>
      </trkpt>
      <trkpt lat="36.487196" lon="-4.967556">
        <ele>29.048</ele>
        <time>2021-06-16T21:05:52Z</time>
      </trkpt>
      <trkpt lat="36.48716" lon="-4.96775">
        <ele>28.812</ele>
        <time>2021-06-16T21:05:53Z</time>
      </trkpt>
      <trkpt lat="36.48709" lon="-4.968142">
        <ele>28.552</ele>
        <time>2021-06-16T21:05:55Z</time>
      </trkpt>
      <trkpt lat="36.487018" lon="-4.968552">
        <ele>27.948</ele>
        <time>2021-06-16T21:05:57Z</time>
      </trkpt>
      <trkpt lat="36.486945" lon="-4.968959">
        <ele>27.910</ele>
        <time>2021-06-16T21:05:59Z</time>
      </trkpt>
      <trkpt lat="36.486913" lon="-4.969161">
        <ele>27.649</ele>
        <time>2021-06-16T21:06:00Z</time>
      </trkpt>
      <trkpt lat="36.48688" lon="-4.969362">
        <ele>27.333</ele>
        <time>2021-06-16T21:06:01Z</time>
      </trkpt>
      <trkpt lat="36.486821" lon="-4.969757">
        <ele>26.862</ele>
        <time>2021-06-16T21:06:03Z</time>
      </trkpt>
      <trkpt lat="36.486764" lon="-4.970142">
        <ele>26.683</ele>
        <time>2021-06-16T21:06:05Z</time>
      </trkpt>
      <trkpt lat="36.486707" lon="-4.970518">
        <ele>26.411</ele>
        <time>2021-06-16T21:06:07Z</time>
      </trkpt>
      <trkpt lat="36.486679" lon="-4.970706">
        <ele>25.508</ele>
        <time>2021-06-16T21:06:08Z</time>
      </trkpt>
      <trkpt lat="36.486621" lon="-4.971091">
        <ele>24.873</ele>
        <time>2021-06-16T21:06:10Z</time>
      </trkpt>
      <trkpt lat="36.486589" lon="-4.971283">
        <ele>24.422</ele>
        <time>2021-06-16T21:06:11Z</time>
      </trkpt>
      <trkpt lat="36.486534" lon="-4.971676">
        <ele>24.936</ele>
        <time>2021-06-16T21:06:13Z</time>
      </trkpt>
      <trkpt lat="36.486503" lon="-4.971878">
        <ele>25.066</ele>
        <time>2021-06-16T21:06:14Z</time>
      </trkpt>
      <trkpt lat="36.486474" lon="-4.97208">
        <ele>24.622</ele>
        <time>2021-06-16T21:06:15Z</time>
      </trkpt>
      <trkpt lat="36.486448" lon="-4.972282">
        <ele>25.044</ele>
        <time>2021-06-16T21:06:16Z</time>
      </trkpt>
      <trkpt lat="36.486404" lon="-4.972687">
        <ele>25.363</ele>
        <time>2021-06-16T21:06:18Z</time>
      </trkpt>
      <trkpt lat="36.48639" lon="-4.97289">
        <ele>25.477</ele>
        <time>2021-06-16T21:06:19Z</time>
      </trkpt>
      <trkpt lat="36.486362" lon="-4.973288">
        <ele>25.758</ele>
        <time>2021-06-16T21:06:21Z</time>
      </trkpt>
      <trkpt lat="36.486342" lon="-4.973485">
        <ele>25.852</ele>
        <time>2021-06-16T21:06:22Z</time>
      </trkpt>
      <trkpt lat="36.486296" lon="-4.973878">
        <ele>26.517</ele>
        <time>2021-06-16T21:06:24Z</time>
      </trkpt>
      <trkpt lat="36.486271" lon="-4.974077">
        <ele>26.908</ele>
        <time>2021-06-16T21:06:25Z</time>
      </trkpt>
      <trkpt lat="36.486243" lon="-4.974277">
        <ele>27.392</ele>
        <time>2021-06-16T21:06:26Z</time>
      </trkpt>
      <trkpt lat="36.486185" lon="-4.974672">
        <ele>27.311</ele>
        <time>2021-06-16T21:06:28Z</time>
      </trkpt>
      <trkpt lat="36.486153" lon="-4.97487">
        <ele>26.865</ele>
        <time>2021-06-16T21:06:29Z</time>
      </trkpt>
      <trkpt lat="36.48612" lon="-4.975073">
        <ele>26.495</ele>
        <time>2021-06-16T21:06:30Z</time>
      </trkpt>
      <trkpt lat="36.486051" lon="-4.975487">
        <ele>26.221</ele>
        <time>2021-06-16T21:06:32Z</time>
      </trkpt>
      <trkpt lat="36.486017" lon="-4.975693">
        <ele>26.183</ele>
        <time>2021-06-16T21:06:33Z</time>
      </trkpt>
      <trkpt lat="36.485946" lon="-4.976105">
        <ele>25.532</ele>
        <time>2021-06-16T21:06:35Z</time>
      </trkpt>
      <trkpt lat="36.485914" lon="-4.976309">
        <ele>25.156</ele>
        <time>2021-06-16T21:06:36Z</time>
      </trkpt>
      <trkpt lat="36.485853" lon="-4.976722">
        <ele>24.835</ele>
        <time>2021-06-16T21:06:38Z</time>
      </trkpt>
      <trkpt lat="36.48582" lon="-4.976932">
        <ele>24.386</ele>
        <time>2021-06-16T21:06:39Z</time>
      </trkpt>
      <trkpt lat="36.485788" lon="-4.977147">
        <ele>24.214</ele>
        <time>2021-06-16T21:06:40Z</time>
      </trkpt>
      <trkpt lat="36.485756" lon="-4.977365">
        <ele>23.908</ele>
        <time>2021-06-16T21:06:41Z</time>
      </trkpt>
      <trkpt lat="36.48569" lon="-4.977799">
        <ele>23.870</ele>
        <time>2021-06-16T21:06:43Z</time>
      </trkpt>
      <trkpt lat="36.48562" lon="-4.978236">
        <ele>23.439</ele>
        <time>2021-06-16T21:06:45Z</time>
      </trkpt>
      <trkpt lat="36.485551" lon="-4.978668">
        <ele>23.753</ele>
        <time>2021-06-16T21:06:47Z</time>
      </trkpt>
      <trkpt lat="36.485517" lon="-4.978884">
        <ele>23.583</ele>
        <time>2021-06-16T21:06:48Z</time>
      </trkpt>
      <trkpt lat="36.485483" lon="-4.9791">
        <ele>23.769</ele>
        <time>2021-06-16T21:06:49Z</time>
      </trkpt>
      <trkpt lat="36.485419" lon="-4.979539">
        <ele>24.451</ele>
        <time>2021-06-16T21:06:51Z</time>
      </trkpt>
      <trkpt lat="36.485385" lon="-4.979762">
        <ele>24.820</ele>
        <time>2021-06-16T21:06:52Z</time>
      </trkpt>
      <trkpt lat="36.485318" lon="-4.980194">
        <ele>25.064</ele>
        <time>2021-06-16T21:06:54Z</time>
      </trkpt>
      <trkpt lat="36.485252" lon="-4.980626">
        <ele>25.799</ele>
        <time>2021-06-16T21:06:56Z</time>
      </trkpt>
      <trkpt lat="36.48522" lon="-4.980843">
        <ele>26.207</ele>
        <time>2021-06-16T21:06:57Z</time>
      </trkpt>
      <trkpt lat="36.485153" lon="-4.981273">
        <ele>26.627</ele>
        <time>2021-06-16T21:06:59Z</time>
      </trkpt>
      <trkpt lat="36.485119" lon="-4.981489">
        <ele>27.008</ele>
        <time>2021-06-16T21:07:00Z</time>
      </trkpt>
      <trkpt lat="36.485056" lon="-4.981917">
        <ele>27.176</ele>
        <time>2021-06-16T21:07:02Z</time>
      </trkpt>
      <trkpt lat="36.485021" lon="-4.982127">
        <ele>27.135</ele>
        <time>2021-06-16T21:07:03Z</time>
      </trkpt>
      <trkpt lat="36.484987" lon="-4.982336">
        <ele>27.849</ele>
        <time>2021-06-16T21:07:04Z</time>
      </trkpt>
      <trkpt lat="36.484913" lon="-4.98276">
        <ele>27.969</ele>
        <time>2021-06-16T21:07:06Z</time>
      </trkpt>
      <trkpt lat="36.484873" lon="-4.982982">
        <ele>28.065</ele>
        <time>2021-06-16T21:07:07Z</time>
      </trkpt>
      <trkpt lat="36.484833" lon="-4.983202">
        <ele>28.177</ele>
        <time>2021-06-16T21:07:08Z</time>
      </trkpt>
      <trkpt lat="36.484752" lon="-4.983634">
        <ele>28.156</ele>
        <time>2021-06-16T21:07:10Z</time>
      </trkpt>
      <trkpt lat="36.484663" lon="-4.984072">
        <ele>27.990</ele>
        <time>2021-06-16T21:07:12Z</time>
      </trkpt>
      <trkpt lat="36.484616" lon="-4.984292">
        <ele>27.835</ele>
        <time>2021-06-16T21:07:13Z</time>
      </trkpt>
      <trkpt lat="36.484518" lon="-4.984727">
        <ele>27.586</ele>
        <time>2021-06-16T21:07:15Z</time>
      </trkpt>
      <trkpt lat="36.484453" lon="-4.984945">
        <ele>28.114</ele>
        <time>2021-06-16T21:07:16Z</time>
      </trkpt>
      <trkpt lat="36.484377" lon="-4.98516">
        <ele>29.008</ele>
        <time>2021-06-16T21:07:17Z</time>
      </trkpt>
      <trkpt lat="36.484216" lon="-4.985581">
        <ele>30.690</ele>
        <time>2021-06-16T21:07:19Z</time>
      </trkpt>
      <trkpt lat="36.484146" lon="-4.985791">
        <ele>31.119</ele>
        <time>2021-06-16T21:07:20Z</time>
      </trkpt>
      <trkpt lat="36.484076" lon="-4.986">
        <ele>31.553</ele>
        <time>2021-06-16T21:07:21Z</time>
      </trkpt>
      <trkpt lat="36.477591" lon="-4.996615">
        <ele>32.723</ele>
        <time>2021-06-16T21:08:15Z</time>
      </trkpt>
      <trkpt lat="36.477348" lon="-4.996979">
        <ele>33.429</ele>
        <time>2021-06-16T21:08:17Z</time>
      </trkpt>
      <trkpt lat="36.47723" lon="-4.997164">
        <ele>33.891</ele>
        <time>2021-06-16T21:08:18Z</time>
      </trkpt>
      <trkpt lat="36.476995" lon="-4.997529">
        <ele>34.180</ele>
        <time>2021-06-16T21:08:20Z</time>
      </trkpt>
      <trkpt lat="36.476878" lon="-4.997713">
        <ele>34.324</ele>
        <time>2021-06-16T21:08:21Z</time>
      </trkpt>
      <trkpt lat="36.476642" lon="-4.99808">
        <ele>34.436</ele>
        <time>2021-06-16T21:08:23Z</time>
      </trkpt>
      <trkpt lat="36.476407" lon="-4.998443">
        <ele>34.517</ele>
        <time>2021-06-16T21:08:25Z</time>
      </trkpt>
      <trkpt lat="36.476173" lon="-4.99881">
        <ele>34.618</ele>
        <time>2021-06-16T21:08:27Z</time>
      </trkpt>
      <trkpt lat="36.475939" lon="-4.999182">
        <ele>34.608</ele>
        <time>2021-06-16T21:08:29Z</time>
      </trkpt>
      <trkpt lat="36.475822" lon="-4.999366">
        <ele>34.690</ele>
        <time>2021-06-16T21:08:30Z</time>
      </trkpt>
      <trkpt lat="36.475705" lon="-4.999547">
        <ele>34.629</ele>
        <time>2021-06-16T21:08:31Z</time>
      </trkpt>
      <trkpt lat="36.475476" lon="-4.999902">
        <ele>34.683</ele>
        <time>2021-06-16T21:08:33Z</time>
      </trkpt>
      <trkpt lat="36.475364" lon="-5.00008">
        <ele>34.653</ele>
        <time>2021-06-16T21:08:34Z</time>
      </trkpt>
      <trkpt lat="36.475253" lon="-5.000255">
        <ele>34.649</ele>
        <time>2021-06-16T21:08:35Z</time>
      </trkpt>
      <trkpt lat="36.475041" lon="-5.000597">
        <ele>34.671</ele>
        <time>2021-06-16T21:08:37Z</time>
      </trkpt>
      <trkpt lat="36.474934" lon="-5.00077">
        <ele>34.630</ele>
        <time>2021-06-16T21:08:38Z</time>
      </trkpt>
      <trkpt lat="36.474727" lon="-5.001118">
        <ele>34.644</ele>
        <time>2021-06-16T21:08:40Z</time>
      </trkpt>
      <trkpt lat="36.474628" lon="-5.001296">
        <ele>34.647</ele>
        <time>2021-06-16T21:08:41Z</time>
      </trkpt>
      <trkpt lat="36.474452" lon="-5.001669">
        <ele>34.629</ele>
        <time>2021-06-16T21:08:43Z</time>
      </trkpt>
      <trkpt lat="36.474297" lon="-5.00207">
        <ele>34.621</ele>
        <time>2021-06-16T21:08:45Z</time>
      </trkpt>
      <trkpt lat="36.474225" lon="-5.002276">
        <ele>34.608</ele>
        <time>2021-06-16T21:08:46Z</time>
      </trkpt>
      <trkpt lat="36.474082" lon="-5.002681">
        <ele>34.671</ele>
        <time>2021-06-16T21:08:48Z</time>
      </trkpt>
      <trkpt lat="36.473941" lon="-5.003076">
        <ele>34.650</ele>
        <time>2021-06-16T21:08:50Z</time>
      </trkpt>
      <trkpt lat="36.473793" lon="-5.003476">
        <ele>34.694</ele>
        <time>2021-06-16T21:08:52Z</time>
      </trkpt>
      <trkpt lat="36.473717" lon="-5.003677">
        <ele>34.694</ele>
        <time>2021-06-16T21:08:53Z</time>
      </trkpt>
      <trkpt lat="36.473641" lon="-5.003879">
        <ele>34.650</ele>
        <time>2021-06-16T21:08:54Z</time>
      </trkpt>
      <trkpt lat="36.473495" lon="-5.004269">
        <ele>34.612</ele>
        <time>2021-06-16T21:08:56Z</time>
      </trkpt>
      <trkpt lat="36.473365" lon="-5.004669">
        <ele>34.621</ele>
        <time>2021-06-16T21:08:58Z</time>
      </trkpt>
      <trkpt lat="36.473246" lon="-5.005085">
        <ele>34.675</ele>
        <time>2021-06-16T21:09:00Z</time>
      </trkpt>
      <trkpt lat="36.473198" lon="-5.005305">
        <ele>34.651</ele>
        <time>2021-06-16T21:09:01Z</time>
      </trkpt>
      <trkpt lat="36.47312" lon="-5.00575">
        <ele>34.601</ele>
        <time>2021-06-16T21:09:03Z</time>
      </trkpt>
      <trkpt lat="36.47305" lon="-5.006191">
        <ele>34.611</ele>
        <time>2021-06-16T21:09:05Z</time>
      </trkpt>
      <trkpt lat="36.47298" lon="-5.006638">
        <ele>34.608</ele>
        <time>2021-06-16T21:09:07Z</time>
      </trkpt>
      <trkpt lat="36.472946" lon="-5.006865">
        <ele>34.682</ele>
        <time>2021-06-16T21:09:08Z</time>
      </trkpt>
      <trkpt lat="36.472915" lon="-5.00709">
        <ele>34.461</ele>
        <time>2021-06-16T21:09:09Z</time>
      </trkpt>
      <trkpt lat="36.472851" lon="-5.007533">
        <ele>33.995</ele>
        <time>2021-06-16T21:09:11Z</time>
      </trkpt>
      <trkpt lat="36.472817" lon="-5.007755">
        <ele>33.285</ele>
        <time>2021-06-16T21:09:12Z</time>
      </trkpt>
      <trkpt lat="36.472789" lon="-5.007976">
        <ele>32.671</ele>
        <time>2021-06-16T21:09:13Z</time>
      </trkpt>
      <trkpt lat="36.472725" lon="-5.008417">
        <ele>32.193</ele>
        <time>2021-06-16T21:09:15Z</time>
      </trkpt>
      <trkpt lat="36.472661" lon="-5.00886">
        <ele>31.632</ele>
        <time>2021-06-16T21:09:17Z</time>
      </trkpt>
      <trkpt lat="36.472627" lon="-5.009082">
        <ele>31.676</ele>
        <time>2021-06-16T21:09:18Z</time>
      </trkpt>
      <trkpt lat="36.47259" lon="-5.009306">
        <ele>31.598</ele>
        <time>2021-06-16T21:09:19Z</time>
      </trkpt>
      <trkpt lat="36.4725" lon="-5.00975">
        <ele>31.515</ele>
        <time>2021-06-16T21:09:21Z</time>
      </trkpt>
      <trkpt lat="36.472371" lon="-5.010171">
        <ele>31.426</ele>
        <time>2021-06-16T21:09:23Z</time>
      </trkpt>
      <trkpt lat="36.472286" lon="-5.010364">
        <ele>31.708</ele>
        <time>2021-06-16T21:09:24Z</time>
      </trkpt>
      <trkpt lat="36.472185" lon="-5.010545">
        <ele>31.396</ele>
        <time>2021-06-16T21:09:25Z</time>
      </trkpt>
      <trkpt lat="36.471952" lon="-5.01088">
        <ele>31.535</ele>
        <time>2021-06-16T21:09:27Z</time>
      </trkpt>
      <trkpt lat="36.471822" lon="-5.011026">
        <ele>32.059</ele>
        <time>2021-06-16T21:09:28Z</time>
      </trkpt>
      <trkpt lat="36.471532" lon="-5.011284">
        <ele>32.199</ele>
        <time>2021-06-16T21:09:30Z</time>
      </trkpt>
      <trkpt lat="36.471379" lon="-5.0114">
        <ele>32.285</ele>
        <time>2021-06-16T21:09:31Z</time>
      </trkpt>
      <trkpt lat="36.471069" lon="-5.011613">
        <ele>32.517</ele>
        <time>2021-06-16T21:09:33Z</time>
      </trkpt>
      <trkpt lat="36.470753" lon="-5.011837">
        <ele>33.486</ele>
        <time>2021-06-16T21:09:35Z</time>
      </trkpt>
      <trkpt lat="36.470451" lon="-5.01209">
        <ele>34.130</ele>
        <time>2021-06-16T21:09:37Z</time>
      </trkpt>
      <trkpt lat="36.470164" lon="-5.01237">
        <ele>34.389</ele>
        <time>2021-06-16T21:09:39Z</time>
      </trkpt>
      <trkpt lat="36.47003" lon="-5.012529">
        <ele>34.206</ele>
        <time>2021-06-16T21:09:40Z</time>
      </trkpt>
      <trkpt lat="36.469902" lon="-5.012699">
        <ele>34.526</ele>
        <time>2021-06-16T21:09:41Z</time>
      </trkpt>
      <trkpt lat="36.469671" lon="-5.013064">
        <ele>34.208</ele>
        <time>2021-06-16T21:09:43Z</time>
      </trkpt>
      <trkpt lat="36.469568" lon="-5.013256">
        <ele>33.915</ele>
        <time>2021-06-16T21:09:44Z</time>
      </trkpt>
      <trkpt lat="36.469388" lon="-5.013665">
        <ele>33.744</ele>
        <time>2021-06-16T21:09:46Z</time>
      </trkpt>
      <trkpt lat="36.469313" lon="-5.01388">
        <ele>33.778</ele>
        <time>2021-06-16T21:09:47Z</time>
      </trkpt>
      <trkpt lat="36.469246" lon="-5.014095">
        <ele>33.428</ele>
        <time>2021-06-16T21:09:48Z</time>
      </trkpt>
      <trkpt lat="36.469138" lon="-5.014534">
        <ele>33.134</ele>
        <time>2021-06-16T21:09:50Z</time>
      </trkpt>
      <trkpt lat="36.469089" lon="-5.014756">
        <ele>32.926</ele>
        <time>2021-06-16T21:09:51Z</time>
      </trkpt>
      <trkpt lat="36.469039" lon="-5.014977">
        <ele>32.565</ele>
        <time>2021-06-16T21:09:52Z</time>
      </trkpt>
      <trkpt lat="36.468989" lon="-5.015199">
        <ele>32.249</ele>
        <time>2021-06-16T21:09:53Z</time>
      </trkpt>
      <trkpt lat="36.468939" lon="-5.015417">
        <ele>31.778</ele>
        <time>2021-06-16T21:09:54Z</time>
      </trkpt>
      <trkpt lat="36.46884" lon="-5.015842">
        <ele>30.933</ele>
        <time>2021-06-16T21:09:56Z</time>
      </trkpt>
      <trkpt lat="36.468789" lon="-5.016054">
        <ele>30.426</ele>
        <time>2021-06-16T21:09:57Z</time>
      </trkpt>
      <trkpt lat="36.468691" lon="-5.016475">
        <ele>29.908</ele>
        <time>2021-06-16T21:09:59Z</time>
      </trkpt>
      <trkpt lat="36.468596" lon="-5.016909">
        <ele>29.184</ele>
        <time>2021-06-16T21:10:01Z</time>
      </trkpt>
      <trkpt lat="36.468546" lon="-5.017126">
        <ele>28.533</ele>
        <time>2021-06-16T21:10:02Z</time>
      </trkpt>
      <trkpt lat="36.468496" lon="-5.017341">
        <ele>28.567</ele>
        <time>2021-06-16T21:10:03Z</time>
      </trkpt>
      <trkpt lat="36.468444" lon="-5.017553">
        <ele>28.437</ele>
        <time>2021-06-16T21:10:04Z</time>
      </trkpt>
      <trkpt lat="36.468345" lon="-5.017973">
        <ele>28.113</ele>
        <time>2021-06-16T21:10:06Z</time>
      </trkpt>
      <trkpt lat="36.468247" lon="-5.0184">
        <ele>27.445</ele>
        <time>2021-06-16T21:10:08Z</time>
      </trkpt>
      <trkpt lat="36.468196" lon="-5.018616">
        <ele>26.814</ele>
        <time>2021-06-16T21:10:09Z</time>
      </trkpt>
      <trkpt lat="36.468142" lon="-5.018833">
        <ele>26.368</ele>
        <time>2021-06-16T21:10:10Z</time>
      </trkpt>
      <trkpt lat="36.468037" lon="-5.019254">
        <ele>26.458</ele>
        <time>2021-06-16T21:10:12Z</time>
      </trkpt>
      <trkpt lat="36.467981" lon="-5.019464">
        <ele>26.452</ele>
        <time>2021-06-16T21:10:13Z</time>
      </trkpt>
      <trkpt lat="36.467874" lon="-5.019881">
        <ele>26.317</ele>
        <time>2021-06-16T21:10:15Z</time>
      </trkpt>
      <trkpt lat="36.467824" lon="-5.020093">
        <ele>26.508</ele>
        <time>2021-06-16T21:10:16Z</time>
      </trkpt>
      <trkpt lat="36.467728" lon="-5.020513">
        <ele>26.492</ele>
        <time>2021-06-16T21:10:18Z</time>
      </trkpt>
      <trkpt lat="36.467635" lon="-5.020934">
        <ele>26.481</ele>
        <time>2021-06-16T21:10:20Z</time>
      </trkpt>
      <trkpt lat="36.467536" lon="-5.021366">
        <ele>26.365</ele>
        <time>2021-06-16T21:10:22Z</time>
      </trkpt>
      <trkpt lat="36.467485" lon="-5.021581">
        <ele>26.465</ele>
        <time>2021-06-16T21:10:23Z</time>
      </trkpt>
      <trkpt lat="36.467373" lon="-5.022023">
        <ele>25.771</ele>
        <time>2021-06-16T21:10:25Z</time>
      </trkpt>
      <trkpt lat="36.467262" lon="-5.022478">
        <ele>24.863</ele>
        <time>2021-06-16T21:10:27Z</time>
      </trkpt>
      <trkpt lat="36.467208" lon="-5.022705">
        <ele>24.262</ele>
        <time>2021-06-16T21:10:28Z</time>
      </trkpt>
      <trkpt lat="36.467101" lon="-5.023163">
        <ele>23.376</ele>
        <time>2021-06-16T21:10:30Z</time>
      </trkpt>
      <trkpt lat="36.467048" lon="-5.023395">
        <ele>23.098</ele>
        <time>2021-06-16T21:10:31Z</time>
      </trkpt>
      <trkpt lat="36.466933" lon="-5.023865">
        <ele>22.115</ele>
        <time>2021-06-16T21:10:33Z</time>
      </trkpt>
      <trkpt lat="36.466875" lon="-5.024097">
        <ele>21.126</ele>
        <time>2021-06-16T21:10:34Z</time>
      </trkpt>
      <trkpt lat="36.46677" lon="-5.024548">
        <ele>20.708</ele>
        <time>2021-06-16T21:10:36Z</time>
      </trkpt>
      <trkpt lat="36.466716" lon="-5.024761">
        <ele>21.176</ele>
        <time>2021-06-16T21:10:37Z</time>
      </trkpt>
      <trkpt lat="36.466664" lon="-5.024973">
        <ele>21.085</ele>
        <time>2021-06-16T21:10:38Z</time>
      </trkpt>
      <trkpt lat="36.466561" lon="-5.025398">
        <ele>21.659</ele>
        <time>2021-06-16T21:10:40Z</time>
      </trkpt>
      <trkpt lat="36.466457" lon="-5.025821">
        <ele>22.689</ele>
        <time>2021-06-16T21:10:42Z</time>
      </trkpt>
      <trkpt lat="36.466357" lon="-5.026245">
        <ele>23.135</ele>
        <time>2021-06-16T21:10:44Z</time>
      </trkpt>
      <trkpt lat="36.466305" lon="-5.026457">
        <ele>23.827</ele>
        <time>2021-06-16T21:10:45Z</time>
      </trkpt>
      <trkpt lat="36.466201" lon="-5.026882">
        <ele>24.316</ele>
        <time>2021-06-16T21:10:47Z</time>
      </trkpt>
      <trkpt lat="36.466151" lon="-5.0271">
        <ele>24.560</ele>
        <time>2021-06-16T21:10:48Z</time>
      </trkpt>
      <trkpt lat="36.466049" lon="-5.027536">
        <ele>24.875</ele>
        <time>2021-06-16T21:10:50Z</time>
      </trkpt>
      <trkpt lat="36.465946" lon="-5.027972">
        <ele>25.228</ele>
        <time>2021-06-16T21:10:52Z</time>
      </trkpt>
      <trkpt lat="36.465895" lon="-5.02819">
        <ele>25.520</ele>
        <time>2021-06-16T21:10:53Z</time>
      </trkpt>
      <trkpt lat="36.465842" lon="-5.028411">
        <ele>25.508</ele>
        <time>2021-06-16T21:10:54Z</time>
      </trkpt>
      <trkpt lat="36.465737" lon="-5.02886">
        <ele>25.694</ele>
        <time>2021-06-16T21:10:56Z</time>
      </trkpt>
      <trkpt lat="36.46563" lon="-5.029307">
        <ele>25.473</ele>
        <time>2021-06-16T21:10:58Z</time>
      </trkpt>
      <trkpt lat="36.465575" lon="-5.029534">
        <ele>25.487</ele>
        <time>2021-06-16T21:10:59Z</time>
      </trkpt>
      <trkpt lat="36.46552" lon="-5.029767">
        <ele>25.357</ele>
        <time>2021-06-16T21:11:00Z</time>
      </trkpt>
      <trkpt lat="36.465415" lon="-5.030222">
        <ele>25.443</ele>
        <time>2021-06-16T21:11:02Z</time>
      </trkpt>
      <trkpt lat="36.465316" lon="-5.030661">
        <ele>25.335</ele>
        <time>2021-06-16T21:11:04Z</time>
      </trkpt>
      <trkpt lat="36.465214" lon="-5.0311">
        <ele>25.154</ele>
        <time>2021-06-16T21:11:06Z</time>
      </trkpt>
      <trkpt lat="36.465163" lon="-5.031325">
        <ele>24.918</ele>
        <time>2021-06-16T21:11:07Z</time>
      </trkpt>
      <trkpt lat="36.465112" lon="-5.03155">
        <ele>24.869</ele>
        <time>2021-06-16T21:11:08Z</time>
      </trkpt>
      <trkpt lat="36.465059" lon="-5.031775">
        <ele>25.104</ele>
        <time>2021-06-16T21:11:09Z</time>
      </trkpt>
      <trkpt lat="36.464942" lon="-5.032224">
        <ele>24.324</ele>
        <time>2021-06-16T21:11:11Z</time>
      </trkpt>
      <trkpt lat="36.464836" lon="-5.032678">
        <ele>24.308</ele>
        <time>2021-06-16T21:11:13Z</time>
      </trkpt>
      <trkpt lat="36.464728" lon="-5.03314">
        <ele>23.443</ele>
        <time>2021-06-16T21:11:15Z</time>
      </trkpt>
      <trkpt lat="36.464674" lon="-5.033371">
        <ele>23.332</ele>
        <time>2021-06-16T21:11:16Z</time>
      </trkpt>
      <trkpt lat="36.464565" lon="-5.033822">
        <ele>22.816</ele>
        <time>2021-06-16T21:11:18Z</time>
      </trkpt>
      <trkpt lat="36.464454" lon="-5.034263">
        <ele>22.366</ele>
        <time>2021-06-16T21:11:20Z</time>
      </trkpt>
      <trkpt lat="36.4644" lon="-5.034483">
        <ele>21.892</ele>
        <time>2021-06-16T21:11:21Z</time>
      </trkpt>
      <trkpt lat="36.464296" lon="-5.03492">
        <ele>21.384</ele>
        <time>2021-06-16T21:11:23Z</time>
      </trkpt>
      <trkpt lat="36.464193" lon="-5.035358">
        <ele>21.033</ele>
        <time>2021-06-16T21:11:25Z</time>
      </trkpt>
      <trkpt lat="36.464087" lon="-5.035791">
        <ele>20.817</ele>
        <time>2021-06-16T21:11:27Z</time>
      </trkpt>
      <trkpt lat="36.463987" lon="-5.036218">
        <ele>20.746</ele>
        <time>2021-06-16T21:11:29Z</time>
      </trkpt>
      <trkpt lat="36.463876" lon="-5.03664">
        <ele>20.588</ele>
        <time>2021-06-16T21:11:31Z</time>
      </trkpt>
      <trkpt lat="36.463826" lon="-5.036854">
        <ele>20.116</ele>
        <time>2021-06-16T21:11:32Z</time>
      </trkpt>
      <trkpt lat="36.463777" lon="-5.037073">
        <ele>19.808</ele>
        <time>2021-06-16T21:11:33Z</time>
      </trkpt>
      <trkpt lat="36.463728" lon="-5.037292">
        <ele>19.351</ele>
        <time>2021-06-16T21:11:34Z</time>
      </trkpt>
      <trkpt lat="36.463617" lon="-5.037733">
        <ele>19.130</ele>
        <time>2021-06-16T21:11:36Z</time>
      </trkpt>
      <trkpt lat="36.46351" lon="-5.038184">
        <ele>18.894</ele>
        <time>2021-06-16T21:11:38Z</time>
      </trkpt>
      <trkpt lat="36.463404" lon="-5.038625">
        <ele>18.364</ele>
        <time>2021-06-16T21:11:40Z</time>
      </trkpt>
      <trkpt lat="36.463302" lon="-5.039067">
        <ele>18.250</ele>
        <time>2021-06-16T21:11:42Z</time>
      </trkpt>
      <trkpt lat="36.463247" lon="-5.039291">
        <ele>18.132</ele>
        <time>2021-06-16T21:11:43Z</time>
      </trkpt>
      <trkpt lat="36.463194" lon="-5.039513">
        <ele>18.071</ele>
        <time>2021-06-16T21:11:44Z</time>
      </trkpt>
      <trkpt lat="36.463142" lon="-5.039731">
        <ele>18.315</ele>
        <time>2021-06-16T21:11:45Z</time>
      </trkpt>
      <trkpt lat="36.463041" lon="-5.040169">
        <ele>18.835</ele>
        <time>2021-06-16T21:11:47Z</time>
      </trkpt>
      <trkpt lat="36.462987" lon="-5.040393">
        <ele>19.386</ele>
        <time>2021-06-16T21:11:48Z</time>
      </trkpt>
      <trkpt lat="36.462933" lon="-5.040615">
        <ele>19.914</ele>
        <time>2021-06-16T21:11:49Z</time>
      </trkpt>
      <trkpt lat="36.462832" lon="-5.041054">
        <ele>20.708</ele>
        <time>2021-06-16T21:11:51Z</time>
      </trkpt>
      <trkpt lat="36.462781" lon="-5.041272">
        <ele>21.350</ele>
        <time>2021-06-16T21:11:52Z</time>
      </trkpt>
      <trkpt lat="36.462683" lon="-5.041703">
        <ele>21.799</ele>
        <time>2021-06-16T21:11:54Z</time>
      </trkpt>
      <trkpt lat="36.462633" lon="-5.041916">
        <ele>22.233</ele>
        <time>2021-06-16T21:11:55Z</time>
      </trkpt>
      <trkpt lat="36.462582" lon="-5.042131">
        <ele>22.553</ele>
        <time>2021-06-16T21:11:56Z</time>
      </trkpt>
      <trkpt lat="36.462484" lon="-5.042558">
        <ele>23.089</ele>
        <time>2021-06-16T21:11:58Z</time>
      </trkpt>
      <trkpt lat="36.462379" lon="-5.042989">
        <ele>23.181</ele>
        <time>2021-06-16T21:12:00Z</time>
      </trkpt>
      <trkpt lat="36.462323" lon="-5.043209">
        <ele>23.190</ele>
        <time>2021-06-16T21:12:01Z</time>
      </trkpt>
      <trkpt lat="36.462215" lon="-5.043653">
        <ele>22.554</ele>
        <time>2021-06-16T21:12:03Z</time>
      </trkpt>
      <trkpt lat="36.462104" lon="-5.044105">
        <ele>22.489</ele>
        <time>2021-06-16T21:12:05Z</time>
      </trkpt>
      <trkpt lat="36.461986" lon="-5.044559">
        <ele>22.806</ele>
        <time>2021-06-16T21:12:07Z</time>
      </trkpt>
      <trkpt lat="36.461857" lon="-5.045003">
        <ele>23.126</ele>
        <time>2021-06-16T21:12:09Z</time>
      </trkpt>
      <trkpt lat="36.461788" lon="-5.045223">
        <ele>23.108</ele>
        <time>2021-06-16T21:12:10Z</time>
      </trkpt>
      <trkpt lat="36.461643" lon="-5.045659">
        <ele>23.175</ele>
        <time>2021-06-16T21:12:12Z</time>
      </trkpt>
      <trkpt lat="36.461498" lon="-5.04609">
        <ele>22.934</ele>
        <time>2021-06-16T21:12:14Z</time>
      </trkpt>
      <trkpt lat="36.461426" lon="-5.046305">
        <ele>22.698</ele>
        <time>2021-06-16T21:12:15Z</time>
      </trkpt>
      <trkpt lat="36.461275" lon="-5.046723">
        <ele>22.388</ele>
        <time>2021-06-16T21:12:17Z</time>
      </trkpt>
      <trkpt lat="36.461198" lon="-5.046931">
        <ele>22.544</ele>
        <time>2021-06-16T21:12:18Z</time>
      </trkpt>
      <trkpt lat="36.461028" lon="-5.047338">
        <ele>22.396</ele>
        <time>2021-06-16T21:12:20Z</time>
      </trkpt>
      <trkpt lat="36.460853" lon="-5.047738">
        <ele>22.345</ele>
        <time>2021-06-16T21:12:22Z</time>
      </trkpt>
      <trkpt lat="36.460761" lon="-5.047943">
        <ele>22.229</ele>
        <time>2021-06-16T21:12:23Z</time>
      </trkpt>
      <trkpt lat="36.460581" lon="-5.048352">
        <ele>22.084</ele>
        <time>2021-06-16T21:12:25Z</time>
      </trkpt>
      <trkpt lat="36.460489" lon="-5.048558">
        <ele>21.707</ele>
        <time>2021-06-16T21:12:26Z</time>
      </trkpt>
      <trkpt lat="36.460305" lon="-5.048972">
        <ele>21.117</ele>
        <time>2021-06-16T21:12:28Z</time>
      </trkpt>
      <trkpt lat="36.460117" lon="-5.049389">
        <ele>20.808</ele>
        <time>2021-06-16T21:12:30Z</time>
      </trkpt>
      <trkpt lat="36.45993" lon="-5.049823">
        <ele>20.965</ele>
        <time>2021-06-16T21:12:32Z</time>
      </trkpt>
      <trkpt lat="36.459836" lon="-5.050037">
        <ele>21.094</ele>
        <time>2021-06-16T21:12:33Z</time>
      </trkpt>
      <trkpt lat="36.459653" lon="-5.050454">
        <ele>21.748</ele>
        <time>2021-06-16T21:12:35Z</time>
      </trkpt>
      <trkpt lat="36.459558" lon="-5.050658">
        <ele>22.338</ele>
        <time>2021-06-16T21:12:36Z</time>
      </trkpt>
      <trkpt lat="36.459466" lon="-5.050861">
        <ele>22.814</ele>
        <time>2021-06-16T21:12:37Z</time>
      </trkpt>
      <trkpt lat="36.459283" lon="-5.051259">
        <ele>23.646</ele>
        <time>2021-06-16T21:12:39Z</time>
      </trkpt>
      <trkpt lat="36.459103" lon="-5.051659">
        <ele>24.255</ele>
        <time>2021-06-16T21:12:41Z</time>
      </trkpt>
      <trkpt lat="36.459011" lon="-5.051862">
        <ele>24.519</ele>
        <time>2021-06-16T21:12:42Z</time>
      </trkpt>
      <trkpt lat="36.45883" lon="-5.052262">
        <ele>25.099</ele>
        <time>2021-06-16T21:12:44Z</time>
      </trkpt>
      <trkpt lat="36.458643" lon="-5.052659">
        <ele>26.007</ele>
        <time>2021-06-16T21:12:46Z</time>
      </trkpt>
      <trkpt lat="36.458458" lon="-5.053056">
        <ele>26.927</ele>
        <time>2021-06-16T21:12:48Z</time>
      </trkpt>
      <trkpt lat="36.45828" lon="-5.053458">
        <ele>27.608</ele>
        <time>2021-06-16T21:12:50Z</time>
      </trkpt>
      <trkpt lat="36.458196" lon="-5.05366">
        <ele>27.976</ele>
        <time>2021-06-16T21:12:51Z</time>
      </trkpt>
      <trkpt lat="36.458031" lon="-5.054069">
        <ele>27.975</ele>
        <time>2021-06-16T21:12:53Z</time>
      </trkpt>
      <trkpt lat="36.457863" lon="-5.054485">
        <ele>27.389</ele>
        <time>2021-06-16T21:12:55Z</time>
      </trkpt>
      <trkpt lat="36.4577" lon="-5.05491">
        <ele>26.429</ele>
        <time>2021-06-16T21:12:57Z</time>
      </trkpt>
      <trkpt lat="36.457537" lon="-5.055344">
        <ele>25.715</ele>
        <time>2021-06-16T21:12:59Z</time>
      </trkpt>
      <trkpt lat="36.457456" lon="-5.055561">
        <ele>24.787</ele>
        <time>2021-06-16T21:13:00Z</time>
      </trkpt>
      <trkpt lat="36.457302" lon="-5.05598">
        <ele>23.496</ele>
        <time>2021-06-16T21:13:02Z</time>
      </trkpt>
      <trkpt lat="36.457227" lon="-5.056188">
        <ele>22.650</ele>
        <time>2021-06-16T21:13:03Z</time>
      </trkpt>
      <trkpt lat="36.457078" lon="-5.056612">
        <ele>21.557</ele>
        <time>2021-06-16T21:13:05Z</time>
      </trkpt>
      <trkpt lat="36.456925" lon="-5.057046">
        <ele>20.900</ele>
        <time>2021-06-16T21:13:07Z</time>
      </trkpt>
      <trkpt lat="36.456849" lon="-5.057263">
        <ele>20.320</ele>
        <time>2021-06-16T21:13:08Z</time>
      </trkpt>
      <trkpt lat="36.456689" lon="-5.05768">
        <ele>20.208</ele>
        <time>2021-06-16T21:13:10Z</time>
      </trkpt>
      <trkpt lat="36.456603" lon="-5.057886">
        <ele>20.292</ele>
        <time>2021-06-16T21:13:11Z</time>
      </trkpt>
      <trkpt lat="36.456423" lon="-5.058284">
        <ele>20.441</ele>
        <time>2021-06-16T21:13:13Z</time>
      </trkpt>
      <trkpt lat="36.456327" lon="-5.058478">
        <ele>20.585</ele>
        <time>2021-06-16T21:13:14Z</time>
      </trkpt>
      <trkpt lat="36.456227" lon="-5.05867">
        <ele>20.555</ele>
        <time>2021-06-16T21:13:15Z</time>
      </trkpt>
      <trkpt lat="36.45602" lon="-5.059051">
        <ele>20.471</ele>
        <time>2021-06-16T21:13:17Z</time>
      </trkpt>
      <trkpt lat="36.455804" lon="-5.059426">
        <ele>20.273</ele>
        <time>2021-06-16T21:13:19Z</time>
      </trkpt>
      <trkpt lat="36.455589" lon="-5.059801">
        <ele>19.952</ele>
        <time>2021-06-16T21:13:21Z</time>
      </trkpt>
      <trkpt lat="36.455375" lon="-5.060172">
        <ele>19.876</ele>
        <time>2021-06-16T21:13:23Z</time>
      </trkpt>
      <trkpt lat="36.455154" lon="-5.060548">
        <ele>19.841</ele>
        <time>2021-06-16T21:13:25Z</time>
      </trkpt>
      <trkpt lat="36.455043" lon="-5.060739">
        <ele>19.881</ele>
        <time>2021-06-16T21:13:26Z</time>
      </trkpt>
      <trkpt lat="36.454934" lon="-5.060934">
        <ele>19.909</ele>
        <time>2021-06-16T21:13:27Z</time>
      </trkpt>
      <trkpt lat="36.454731" lon="-5.061333">
        <ele>20.908</ele>
        <time>2021-06-16T21:13:29Z</time>
      </trkpt>
      <trkpt lat="36.454641" lon="-5.061538">
        <ele>21.771</ele>
        <time>2021-06-16T21:13:30Z</time>
      </trkpt>
      <trkpt lat="36.454559" lon="-5.061745">
        <ele>22.430</ele>
        <time>2021-06-16T21:13:31Z</time>
      </trkpt>
      <trkpt lat="36.45442" lon="-5.062161">
        <ele>23.324</ele>
        <time>2021-06-16T21:13:33Z</time>
      </trkpt>
      <trkpt lat="36.454361" lon="-5.062374">
        <ele>24.464</ele>
        <time>2021-06-16T21:13:34Z</time>
      </trkpt>
      <trkpt lat="36.45426" lon="-5.062806">
        <ele>25.390</ele>
        <time>2021-06-16T21:13:36Z</time>
      </trkpt>
      <trkpt lat="36.45422" lon="-5.06303">
        <ele>26.232</ele>
        <time>2021-06-16T21:13:37Z</time>
      </trkpt>
      <trkpt lat="36.454155" lon="-5.063476">
        <ele>26.891</ele>
        <time>2021-06-16T21:13:39Z</time>
      </trkpt>
      <trkpt lat="36.454138" lon="-5.063699">
        <ele>27.395</ele>
        <time>2021-06-16T21:13:40Z</time>
      </trkpt>
      <trkpt lat="36.454112" lon="-5.064147">
        <ele>27.553</ele>
        <time>2021-06-16T21:13:42Z</time>
      </trkpt>
      <trkpt lat="36.454105" lon="-5.064377">
        <ele>27.804</ele>
        <time>2021-06-16T21:13:43Z</time>
      </trkpt>
      <trkpt lat="36.454096" lon="-5.064606">
        <ele>27.714</ele>
        <time>2021-06-16T21:13:44Z</time>
      </trkpt>
      <trkpt lat="36.454084" lon="-5.064833">
        <ele>27.808</ele>
        <time>2021-06-16T21:13:45Z</time>
      </trkpt>
      <trkpt lat="36.454065" lon="-5.065284">
        <ele>27.682</ele>
        <time>2021-06-16T21:13:47Z</time>
      </trkpt>
      <trkpt lat="36.454055" lon="-5.065506">
        <ele>27.471</ele>
        <time>2021-06-16T21:13:48Z</time>
      </trkpt>
      <trkpt lat="36.454035" lon="-5.06595">
        <ele>27.615</ele>
        <time>2021-06-16T21:13:50Z</time>
      </trkpt>
      <trkpt lat="36.454027" lon="-5.066174">
        <ele>27.895</ele>
        <time>2021-06-16T21:13:51Z</time>
      </trkpt>
      <trkpt lat="36.454004" lon="-5.066625">
        <ele>27.621</ele>
        <time>2021-06-16T21:13:53Z</time>
      </trkpt>
      <trkpt lat="36.453989" lon="-5.067073">
        <ele>27.693</ele>
        <time>2021-06-16T21:13:55Z</time>
      </trkpt>
      <trkpt lat="36.453971" lon="-5.067529">
        <ele>27.372</ele>
        <time>2021-06-16T21:13:57Z</time>
      </trkpt>
      <trkpt lat="36.45396" lon="-5.067757">
        <ele>27.336</ele>
        <time>2021-06-16T21:13:58Z</time>
      </trkpt>
      <trkpt lat="36.45393" lon="-5.068218">
        <ele>26.721</ele>
        <time>2021-06-16T21:14:00Z</time>
      </trkpt>
      <trkpt lat="36.453919" lon="-5.068449">
        <ele>26.341</ele>
        <time>2021-06-16T21:14:01Z</time>
      </trkpt>
      <trkpt lat="36.453908" lon="-5.068683">
        <ele>26.005</ele>
        <time>2021-06-16T21:14:02Z</time>
      </trkpt>
      <trkpt lat="36.453889" lon="-5.069154">
        <ele>25.408</ele>
        <time>2021-06-16T21:14:04Z</time>
      </trkpt>
      <trkpt lat="36.453878" lon="-5.069391">
        <ele>25.149</ele>
        <time>2021-06-16T21:14:05Z</time>
      </trkpt>
      <trkpt lat="36.453853" lon="-5.069855">
        <ele>24.628</ele>
        <time>2021-06-16T21:14:07Z</time>
      </trkpt>
      <trkpt lat="36.453842" lon="-5.070088">
        <ele>24.182</ele>
        <time>2021-06-16T21:14:08Z</time>
      </trkpt>
      <trkpt lat="36.453817" lon="-5.070549">
        <ele>23.622</ele>
        <time>2021-06-16T21:14:10Z</time>
      </trkpt>
      <trkpt lat="36.453795" lon="-5.070998">
        <ele>23.378</ele>
        <time>2021-06-16T21:14:12Z</time>
      </trkpt>
      <trkpt lat="36.453784" lon="-5.071224">
        <ele>22.760</ele>
        <time>2021-06-16T21:14:13Z</time>
      </trkpt>
      <trkpt lat="36.453764" lon="-5.071688">
        <ele>22.489</ele>
        <time>2021-06-16T21:14:15Z</time>
      </trkpt>
      <trkpt lat="36.453738" lon="-5.07215">
        <ele>22.153</ele>
        <time>2021-06-16T21:14:17Z</time>
      </trkpt>
      <trkpt lat="36.453728" lon="-5.072383">
        <ele>21.864</ele>
        <time>2021-06-16T21:14:18Z</time>
      </trkpt>
      <trkpt lat="36.453718" lon="-5.072619">
        <ele>21.406</ele>
        <time>2021-06-16T21:14:19Z</time>
      </trkpt>
      <trkpt lat="36.453701" lon="-5.073085">
        <ele>20.716</ele>
        <time>2021-06-16T21:14:21Z</time>
      </trkpt>
      <trkpt lat="36.453693" lon="-5.07332">
        <ele>20.608</ele>
        <time>2021-06-16T21:14:22Z</time>
      </trkpt>
      <trkpt lat="36.453684" lon="-5.073556">
        <ele>20.323</ele>
        <time>2021-06-16T21:14:23Z</time>
      </trkpt>
      <trkpt lat="36.453666" lon="-5.074021">
        <ele>19.882</ele>
        <time>2021-06-16T21:14:25Z</time>
      </trkpt>
      <trkpt lat="36.453655" lon="-5.074252">
        <ele>19.576</ele>
        <time>2021-06-16T21:14:26Z</time>
      </trkpt>
      <trkpt lat="36.453631" lon="-5.074703">
        <ele>19.196</ele>
        <time>2021-06-16T21:14:28Z</time>
      </trkpt>
      <trkpt lat="36.453622" lon="-5.074928">
        <ele>18.482</ele>
        <time>2021-06-16T21:14:29Z</time>
      </trkpt>
      <trkpt lat="36.453597" lon="-5.075387">
        <ele>18.494</ele>
        <time>2021-06-16T21:14:31Z</time>
      </trkpt>
      <trkpt lat="36.453585" lon="-5.075617">
        <ele>18.383</ele>
        <time>2021-06-16T21:14:32Z</time>
      </trkpt>
      <trkpt lat="36.453574" lon="-5.075847">
        <ele>18.457</ele>
        <time>2021-06-16T21:14:33Z</time>
      </trkpt>
      <trkpt lat="36.453546" lon="-5.076301">
        <ele>18.847</ele>
        <time>2021-06-16T21:14:35Z</time>
      </trkpt>
      <trkpt lat="36.453535" lon="-5.076529">
        <ele>19.129</ele>
        <time>2021-06-16T21:14:36Z</time>
      </trkpt>
      <trkpt lat="36.453519" lon="-5.076979">
        <ele>18.921</ele>
        <time>2021-06-16T21:14:38Z</time>
      </trkpt>
      <trkpt lat="36.453507" lon="-5.077205">
        <ele>18.608</ele>
        <time>2021-06-16T21:14:39Z</time>
      </trkpt>
      <trkpt lat="36.453483" lon="-5.07767">
        <ele>18.741</ele>
        <time>2021-06-16T21:14:41Z</time>
      </trkpt>
      <trkpt lat="36.453456" lon="-5.078143">
        <ele>18.530</ele>
        <time>2021-06-16T21:14:43Z</time>
      </trkpt>
      <trkpt lat="36.453444" lon="-5.078382">
        <ele>18.694</ele>
        <time>2021-06-16T21:14:44Z</time>
      </trkpt>
      <trkpt lat="36.453417" lon="-5.078852">
        <ele>19.084</ele>
        <time>2021-06-16T21:14:46Z</time>
      </trkpt>
      <trkpt lat="36.453375" lon="-5.07931">
        <ele>19.320</ele>
        <time>2021-06-16T21:14:48Z</time>
      </trkpt>
      <trkpt lat="36.453299" lon="-5.079761">
        <ele>19.372</ele>
        <time>2021-06-16T21:14:50Z</time>
      </trkpt>
      <trkpt lat="36.453243" lon="-5.079978">
        <ele>19.711</ele>
        <time>2021-06-16T21:14:51Z</time>
      </trkpt>
      <trkpt lat="36.453109" lon="-5.080409">
        <ele>19.825</ele>
        <time>2021-06-16T21:14:53Z</time>
      </trkpt>
      <trkpt lat="36.453033" lon="-5.08062">
        <ele>19.894</ele>
        <time>2021-06-16T21:14:54Z</time>
      </trkpt>
      <trkpt lat="36.452865" lon="-5.081032">
        <ele>19.857</ele>
        <time>2021-06-16T21:14:56Z</time>
      </trkpt>
      <trkpt lat="36.452772" lon="-5.081234">
        <ele>20.022</ele>
        <time>2021-06-16T21:14:57Z</time>
      </trkpt>
      <trkpt lat="36.452675" lon="-5.081429">
        <ele>19.908</ele>
        <time>2021-06-16T21:14:58Z</time>
      </trkpt>
      <trkpt lat="36.452467" lon="-5.081819">
        <ele>19.956</ele>
        <time>2021-06-16T21:15:00Z</time>
      </trkpt>
      <trkpt lat="36.452258" lon="-5.082214">
        <ele>19.975</ele>
        <time>2021-06-16T21:15:02Z</time>
      </trkpt>
      <trkpt lat="36.452056" lon="-5.082606">
        <ele>19.979</ele>
        <time>2021-06-16T21:15:04Z</time>
      </trkpt>
      <trkpt lat="36.451956" lon="-5.082802">
        <ele>19.819</ele>
        <time>2021-06-16T21:15:05Z</time>
      </trkpt>
      <trkpt lat="36.451756" lon="-5.083195">
        <ele>19.995</ele>
        <time>2021-06-16T21:15:07Z</time>
      </trkpt>
      <trkpt lat="36.451657" lon="-5.083392">
        <ele>20.087</ele>
        <time>2021-06-16T21:15:08Z</time>
      </trkpt>
      <trkpt lat="36.451557" lon="-5.083593">
        <ele>19.746</ele>
        <time>2021-06-16T21:15:09Z</time>
      </trkpt>
      <trkpt lat="36.451357" lon="-5.083993">
        <ele>19.460</ele>
        <time>2021-06-16T21:15:11Z</time>
      </trkpt>
      <trkpt lat="36.451153" lon="-5.084392">
        <ele>19.477</ele>
        <time>2021-06-16T21:15:13Z</time>
      </trkpt>
      <trkpt lat="36.450954" lon="-5.084794">
        <ele>19.261</ele>
        <time>2021-06-16T21:15:15Z</time>
      </trkpt>
      <trkpt lat="36.450856" lon="-5.084991">
        <ele>19.227</ele>
        <time>2021-06-16T21:15:16Z</time>
      </trkpt>
      <trkpt lat="36.450757" lon="-5.085188">
        <ele>19.408</ele>
        <time>2021-06-16T21:15:17Z</time>
      </trkpt>
      <trkpt lat="36.450561" lon="-5.08558">
        <ele>19.264</ele>
        <time>2021-06-16T21:15:19Z</time>
      </trkpt>
      <trkpt lat="36.45046" lon="-5.085776">
        <ele>19.663</ele>
        <time>2021-06-16T21:15:20Z</time>
      </trkpt>
      <trkpt lat="36.450261" lon="-5.086162">
        <ele>20.057</ele>
        <time>2021-06-16T21:15:22Z</time>
      </trkpt>
      <trkpt lat="36.450159" lon="-5.086355">
        <ele>20.067</ele>
        <time>2021-06-16T21:15:23Z</time>
      </trkpt>
      <trkpt lat="36.449957" lon="-5.08674">
        <ele>20.343</ele>
        <time>2021-06-16T21:15:25Z</time>
      </trkpt>
      <trkpt lat="36.449858" lon="-5.086937">
        <ele>20.375</ele>
        <time>2021-06-16T21:15:26Z</time>
      </trkpt>
      <trkpt lat="36.449659" lon="-5.087327">
        <ele>20.454</ele>
        <time>2021-06-16T21:15:28Z</time>
      </trkpt>
      <trkpt lat="36.449467" lon="-5.087715">
        <ele>20.818</ele>
        <time>2021-06-16T21:15:30Z</time>
      </trkpt>
      <trkpt lat="36.449369" lon="-5.087908">
        <ele>20.816</ele>
        <time>2021-06-16T21:15:31Z</time>
      </trkpt>
      <trkpt lat="36.449171" lon="-5.088292">
        <ele>20.976</ele>
        <time>2021-06-16T21:15:33Z</time>
      </trkpt>
      <trkpt lat="36.449073" lon="-5.088482">
        <ele>20.613</ele>
        <time>2021-06-16T21:15:34Z</time>
      </trkpt>
      <trkpt lat="36.44897" lon="-5.088669">
        <ele>20.508</ele>
        <time>2021-06-16T21:15:35Z</time>
      </trkpt>
      <trkpt lat="36.448766" lon="-5.089045">
        <ele>20.188</ele>
        <time>2021-06-16T21:15:37Z</time>
      </trkpt>
      <trkpt lat="36.448577" lon="-5.089436">
        <ele>19.797</ele>
        <time>2021-06-16T21:15:39Z</time>
      </trkpt>
      <trkpt lat="36.448485" lon="-5.089635">
        <ele>19.261</ele>
        <time>2021-06-16T21:15:40Z</time>
      </trkpt>
      <trkpt lat="36.44839" lon="-5.089834">
        <ele>19.051</ele>
        <time>2021-06-16T21:15:41Z</time>
      </trkpt>
      <trkpt lat="36.448191" lon="-5.090231">
        <ele>18.147</ele>
        <time>2021-06-16T21:15:43Z</time>
      </trkpt>
      <trkpt lat="36.448084" lon="-5.090427">
        <ele>17.929</ele>
        <time>2021-06-16T21:15:44Z</time>
      </trkpt>
      <trkpt lat="36.447867" lon="-5.090815">
        <ele>17.798</ele>
        <time>2021-06-16T21:15:46Z</time>
      </trkpt>
      <trkpt lat="36.44766" lon="-5.091212">
        <ele>17.612</ele>
        <time>2021-06-16T21:15:48Z</time>
      </trkpt>
      <trkpt lat="36.447462" lon="-5.091615">
        <ele>17.557</ele>
        <time>2021-06-16T21:15:50Z</time>
      </trkpt>
      <trkpt lat="36.447367" lon="-5.091823">
        <ele>17.800</ele>
        <time>2021-06-16T21:15:51Z</time>
      </trkpt>
      <trkpt lat="36.447274" lon="-5.092028">
        <ele>18.120</ele>
        <time>2021-06-16T21:15:52Z</time>
      </trkpt>
      <trkpt lat="36.44709" lon="-5.092427">
        <ele>19.108</ele>
        <time>2021-06-16T21:15:54Z</time>
      </trkpt>
      <trkpt lat="36.446894" lon="-5.092804">
        <ele>19.972</ele>
        <time>2021-06-16T21:15:56Z</time>
      </trkpt>
      <trkpt lat="36.446796" lon="-5.092993">
        <ele>20.791</ele>
        <time>2021-06-16T21:15:57Z</time>
      </trkpt>
      <trkpt lat="36.446699" lon="-5.093182">
        <ele>21.345</ele>
        <time>2021-06-16T21:15:58Z</time>
      </trkpt>
      <trkpt lat="36.446605" lon="-5.093372">
        <ele>21.745</ele>
        <time>2021-06-16T21:15:59Z</time>
      </trkpt>
      <trkpt lat="36.446419" lon="-5.093747">
        <ele>22.461</ele>
        <time>2021-06-16T21:16:01Z</time>
      </trkpt>
      <trkpt lat="36.44623" lon="-5.094125">
        <ele>22.893</ele>
        <time>2021-06-16T21:16:03Z</time>
      </trkpt>
      <trkpt lat="36.446131" lon="-5.094322">
        <ele>22.612</ele>
        <time>2021-06-16T21:16:04Z</time>
      </trkpt>
      <trkpt lat="36.445931" lon="-5.094713">
        <ele>22.156</ele>
        <time>2021-06-16T21:16:06Z</time>
      </trkpt>
      <trkpt lat="36.445727" lon="-5.095105">
        <ele>21.677</ele>
        <time>2021-06-16T21:16:08Z</time>
      </trkpt>
      <trkpt lat="36.445621" lon="-5.0953">
        <ele>21.161</ele>
        <time>2021-06-16T21:16:09Z</time>
      </trkpt>
      <trkpt lat="36.445403" lon="-5.09569">
        <ele>20.027</ele>
        <time>2021-06-16T21:16:11Z</time>
      </trkpt>
      <trkpt lat="36.445294" lon="-5.095884">
        <ele>19.008</ele>
        <time>2021-06-16T21:16:12Z</time>
      </trkpt>
      <trkpt lat="36.445082" lon="-5.096267">
        <ele>18.484</ele>
        <time>2021-06-16T21:16:14Z</time>
      </trkpt>
      <trkpt lat="36.444974" lon="-5.096462">
        <ele>18.053</ele>
        <time>2021-06-16T21:16:15Z</time>
      </trkpt>
      <trkpt lat="36.444761" lon="-5.096844">
        <ele>17.887</ele>
        <time>2021-06-16T21:16:17Z</time>
      </trkpt>
      <trkpt lat="36.444545" lon="-5.097223">
        <ele>18.057</ele>
        <time>2021-06-16T21:16:19Z</time>
      </trkpt>
      <trkpt lat="36.444331" lon="-5.097587">
        <ele>18.063</ele>
        <time>2021-06-16T21:16:21Z</time>
      </trkpt>
      <trkpt lat="36.444223" lon="-5.097764">
        <ele>17.945</ele>
        <time>2021-06-16T21:16:22Z</time>
      </trkpt>
      <trkpt lat="36.444002" lon="-5.098108">
        <ele>18.374</ele>
        <time>2021-06-16T21:16:24Z</time>
      </trkpt>
      <trkpt lat="36.443768" lon="-5.098427">
        <ele>18.868</ele>
        <time>2021-06-16T21:16:26Z</time>
      </trkpt>
      <trkpt lat="36.443498" lon="-5.098698">
        <ele>19.679</ele>
        <time>2021-06-16T21:16:28Z</time>
      </trkpt>
      <trkpt lat="36.443355" lon="-5.098818">
        <ele>20.505</ele>
        <time>2021-06-16T21:16:29Z</time>
      </trkpt>
      <trkpt lat="36.443057" lon="-5.099026">
        <ele>21.425</ele>
        <time>2021-06-16T21:16:31Z</time>
      </trkpt>
      <trkpt lat="36.442904" lon="-5.099122">
        <ele>21.908</ele>
        <time>2021-06-16T21:16:32Z</time>
      </trkpt>
      <trkpt lat="36.442749" lon="-5.099214">
        <ele>22.334</ele>
        <time>2021-06-16T21:16:33Z</time>
      </trkpt>
      <trkpt lat="36.442434" lon="-5.099398">
        <ele>22.953</ele>
        <time>2021-06-16T21:16:35Z</time>
      </trkpt>
      <trkpt lat="36.442278" lon="-5.099497">
        <ele>23.497</ele>
        <time>2021-06-16T21:16:36Z</time>
      </trkpt>
      <trkpt lat="36.442125" lon="-5.099604">
        <ele>23.777</ele>
        <time>2021-06-16T21:16:37Z</time>
      </trkpt>
      <trkpt lat="36.441823" lon="-5.099847">
        <ele>23.723</ele>
        <time>2021-06-16T21:16:39Z</time>
      </trkpt>
      <trkpt lat="36.441681" lon="-5.099993">
        <ele>23.455</ele>
        <time>2021-06-16T21:16:40Z</time>
      </trkpt>
      <trkpt lat="36.441408" lon="-5.100307">
        <ele>23.074</ele>
        <time>2021-06-16T21:16:42Z</time>
      </trkpt>
      <trkpt lat="36.441281" lon="-5.100479">
        <ele>23.228</ele>
        <time>2021-06-16T21:16:43Z</time>
      </trkpt>
      <trkpt lat="36.441045" lon="-5.100841">
        <ele>22.187</ele>
        <time>2021-06-16T21:16:45Z</time>
      </trkpt>
      <trkpt lat="36.440926" lon="-5.101028">
        <ele>21.242</ele>
        <time>2021-06-16T21:16:46Z</time>
      </trkpt>
      <trkpt lat="36.440813" lon="-5.101219">
        <ele>21.026</ele>
        <time>2021-06-16T21:16:47Z</time>
      </trkpt>
      <trkpt lat="36.440593" lon="-5.101599">
        <ele>21.108</ele>
        <time>2021-06-16T21:16:49Z</time>
      </trkpt>
      <trkpt lat="36.440482" lon="-5.101787">
        <ele>20.665</ele>
        <time>2021-06-16T21:16:50Z</time>
      </trkpt>
      <trkpt lat="36.440373" lon="-5.101971">
        <ele>20.414</ele>
        <time>2021-06-16T21:16:51Z</time>
      </trkpt>
      <trkpt lat="36.440265" lon="-5.102156">
        <ele>19.758</ele>
        <time>2021-06-16T21:16:52Z</time>
      </trkpt>
      <trkpt lat="36.440047" lon="-5.102526">
        <ele>19.428</ele>
        <time>2021-06-16T21:16:54Z</time>
      </trkpt>
      <trkpt lat="36.439934" lon="-5.102714">
        <ele>19.254</ele>
        <time>2021-06-16T21:16:55Z</time>
      </trkpt>
      <trkpt lat="36.43982" lon="-5.102901">
        <ele>18.786</ele>
        <time>2021-06-16T21:16:56Z</time>
      </trkpt>
      <trkpt lat="36.439707" lon="-5.10309">
        <ele>18.765</ele>
        <time>2021-06-16T21:16:57Z</time>
      </trkpt>
      <trkpt lat="36.439597" lon="-5.103278">
        <ele>18.669</ele>
        <time>2021-06-16T21:16:58Z</time>
      </trkpt>
      <trkpt lat="36.439377" lon="-5.10365">
        <ele>19.165</ele>
        <time>2021-06-16T21:17:00Z</time>
      </trkpt>
      <trkpt lat="36.439264" lon="-5.103833">
        <ele>19.368</ele>
        <time>2021-06-16T21:17:01Z</time>
      </trkpt>
      <trkpt lat="36.439151" lon="-5.104017">
        <ele>19.214</ele>
        <time>2021-06-16T21:17:02Z</time>
      </trkpt>
      <trkpt lat="36.438925" lon="-5.104384">
        <ele>18.808</ele>
        <time>2021-06-16T21:17:04Z</time>
      </trkpt>
      <trkpt lat="36.438812" lon="-5.104567">
        <ele>18.013</ele>
        <time>2021-06-16T21:17:05Z</time>
      </trkpt>
      <trkpt lat="36.4387" lon="-5.104753">
        <ele>17.622</ele>
        <time>2021-06-16T21:17:06Z</time>
      </trkpt>
      <trkpt lat="36.43859" lon="-5.104941">
        <ele>17.026</ele>
        <time>2021-06-16T21:17:07Z</time>
      </trkpt>
      <trkpt lat="36.438371" lon="-5.105323">
        <ele>17.096</ele>
        <time>2021-06-16T21:17:09Z</time>
      </trkpt>
      <trkpt lat="36.43815" lon="-5.105697">
        <ele>16.972</ele>
        <time>2021-06-16T21:17:11Z</time>
      </trkpt>
      <trkpt lat="36.438037" lon="-5.105884">
        <ele>17.074</ele>
        <time>2021-06-16T21:17:12Z</time>
      </trkpt>
      <trkpt lat="36.437817" lon="-5.106249">
        <ele>17.573</ele>
        <time>2021-06-16T21:17:14Z</time>
      </trkpt>
      <trkpt lat="36.437603" lon="-5.106617">
        <ele>17.517</ele>
        <time>2021-06-16T21:17:16Z</time>
      </trkpt>
      <trkpt lat="36.437496" lon="-5.106803">
        <ele>17.674</ele>
        <time>2021-06-16T21:17:17Z</time>
      </trkpt>
      <trkpt lat="36.437386" lon="-5.106985">
        <ele>17.756</ele>
        <time>2021-06-16T21:17:18Z</time>
      </trkpt>
      <trkpt lat="36.437163" lon="-5.107358">
        <ele>17.421</ele>
        <time>2021-06-16T21:17:20Z</time>
      </trkpt>
      <trkpt lat="36.436955" lon="-5.107741">
        <ele>17.208</ele>
        <time>2021-06-16T21:17:22Z</time>
      </trkpt>
      <trkpt lat="36.436775" lon="-5.108148">
        <ele>18.164</ele>
        <time>2021-06-16T21:17:24Z</time>
      </trkpt>
      <trkpt lat="36.436606" lon="-5.108553">
        <ele>18.863</ele>
        <time>2021-06-16T21:17:26Z</time>
      </trkpt>
      <trkpt lat="36.436527" lon="-5.10876">
        <ele>19.917</ele>
        <time>2021-06-16T21:17:27Z</time>
      </trkpt>
      <trkpt lat="36.43637" lon="-5.109169">
        <ele>20.877</ele>
        <time>2021-06-16T21:17:29Z</time>
      </trkpt>
      <trkpt lat="36.436211" lon="-5.109577">
        <ele>21.773</ele>
        <time>2021-06-16T21:17:31Z</time>
      </trkpt>
      <trkpt lat="36.436045" lon="-5.109992">
        <ele>22.585</ele>
        <time>2021-06-16T21:17:33Z</time>
      </trkpt>
      <trkpt lat="36.435881" lon="-5.110404">
        <ele>22.964</ele>
        <time>2021-06-16T21:17:35Z</time>
      </trkpt>
      <trkpt lat="36.435717" lon="-5.110822">
        <ele>23.378</ele>
        <time>2021-06-16T21:17:37Z</time>
      </trkpt>
      <trkpt lat="36.435634" lon="-5.111033">
        <ele>23.652</ele>
        <time>2021-06-16T21:17:38Z</time>
      </trkpt>
      <trkpt lat="36.435553" lon="-5.111248">
        <ele>23.953</ele>
        <time>2021-06-16T21:17:39Z</time>
      </trkpt>
      <trkpt lat="36.435383" lon="-5.111679">
        <ele>24.308</ele>
        <time>2021-06-16T21:17:41Z</time>
      </trkpt>
      <trkpt lat="36.435218" lon="-5.11211">
        <ele>24.708</ele>
        <time>2021-06-16T21:17:43Z</time>
      </trkpt>
      <trkpt lat="36.435134" lon="-5.112324">
        <ele>24.482</ele>
        <time>2021-06-16T21:17:44Z</time>
      </trkpt>
      <trkpt lat="36.434966" lon="-5.112749">
        <ele>24.321</ele>
        <time>2021-06-16T21:17:46Z</time>
      </trkpt>
      <trkpt lat="36.434882" lon="-5.112959">
        <ele>24.025</ele>
        <time>2021-06-16T21:17:47Z</time>
      </trkpt>
      <trkpt lat="36.434714" lon="-5.113381">
        <ele>23.755</ele>
        <time>2021-06-16T21:17:49Z</time>
      </trkpt>
      <trkpt lat="36.434549" lon="-5.113813">
        <ele>22.961</ele>
        <time>2021-06-16T21:17:51Z</time>
      </trkpt>
      <trkpt lat="36.434385" lon="-5.114238">
        <ele>22.423</ele>
        <time>2021-06-16T21:17:53Z</time>
      </trkpt>
      <trkpt lat="36.43422" lon="-5.114661">
        <ele>21.992</ele>
        <time>2021-06-16T21:17:55Z</time>
      </trkpt>
      <trkpt lat="36.434057" lon="-5.115089">
        <ele>22.236</ele>
        <time>2021-06-16T21:17:57Z</time>
      </trkpt>
      <trkpt lat="36.433891" lon="-5.115511">
        <ele>22.755</ele>
        <time>2021-06-16T21:17:59Z</time>
      </trkpt>
      <trkpt lat="36.433809" lon="-5.11572">
        <ele>23.207</ele>
        <time>2021-06-16T21:18:00Z</time>
      </trkpt>
      <trkpt lat="36.433646" lon="-5.116129">
        <ele>23.817</ele>
        <time>2021-06-16T21:18:02Z</time>
      </trkpt>
      <trkpt lat="36.433567" lon="-5.116331">
        <ele>23.908</ele>
        <time>2021-06-16T21:18:03Z</time>
      </trkpt>
      <trkpt lat="36.433411" lon="-5.116732">
        <ele>24.032</ele>
        <time>2021-06-16T21:18:05Z</time>
      </trkpt>
      <trkpt lat="36.433255" lon="-5.117135">
        <ele>24.721</ele>
        <time>2021-06-16T21:18:07Z</time>
      </trkpt>
      <trkpt lat="36.433099" lon="-5.117533">
        <ele>24.975</ele>
        <time>2021-06-16T21:18:09Z</time>
      </trkpt>
      <trkpt lat="36.432951" lon="-5.117933">
        <ele>25.195</ele>
        <time>2021-06-16T21:18:11Z</time>
      </trkpt>
      <trkpt lat="36.432881" lon="-5.118138">
        <ele>25.381</ele>
        <time>2021-06-16T21:18:12Z</time>
      </trkpt>
      <trkpt lat="36.432811" lon="-5.118344">
        <ele>25.663</ele>
        <time>2021-06-16T21:18:13Z</time>
      </trkpt>
      <trkpt lat="36.43275" lon="-5.118555">
        <ele>25.922</ele>
        <time>2021-06-16T21:18:14Z</time>
      </trkpt>
      <trkpt lat="36.432654" lon="-5.118991">
        <ele>26.776</ele>
        <time>2021-06-16T21:18:16Z</time>
      </trkpt>
      <trkpt lat="36.432612" lon="-5.119214">
        <ele>27.134</ele>
        <time>2021-06-16T21:18:17Z</time>
      </trkpt>
      <trkpt lat="36.432543" lon="-5.119668">
        <ele>27.755</ele>
        <time>2021-06-16T21:18:19Z</time>
      </trkpt>
      <trkpt lat="36.432522" lon="-5.1199">
        <ele>28.110</ele>
        <time>2021-06-16T21:18:20Z</time>
      </trkpt>
      <trkpt lat="36.432498" lon="-5.120368">
        <ele>28.308</ele>
        <time>2021-06-16T21:18:22Z</time>
      </trkpt>
      <trkpt lat="36.43249" lon="-5.120839">
        <ele>28.980</ele>
        <time>2021-06-16T21:18:24Z</time>
      </trkpt>
      <trkpt lat="36.432494" lon="-5.121076">
        <ele>29.369</ele>
        <time>2021-06-16T21:18:25Z</time>
      </trkpt>
      <trkpt lat="36.432526" lon="-5.121535">
        <ele>29.993</ele>
        <time>2021-06-16T21:18:27Z</time>
      </trkpt>
      <trkpt lat="36.432585" lon="-5.121987">
        <ele>30.413</ele>
        <time>2021-06-16T21:18:29Z</time>
      </trkpt>
      <trkpt lat="36.432667" lon="-5.122437">
        <ele>30.669</ele>
        <time>2021-06-16T21:18:31Z</time>
      </trkpt>
      <trkpt lat="36.432718" lon="-5.122662">
        <ele>30.921</ele>
        <time>2021-06-16T21:18:32Z</time>
      </trkpt>
      <trkpt lat="36.432832" lon="-5.12311">
        <ele>31.450</ele>
        <time>2021-06-16T21:18:34Z</time>
      </trkpt>
      <trkpt lat="36.43297" lon="-5.123553">
        <ele>32.174</ele>
        <time>2021-06-16T21:18:36Z</time>
      </trkpt>
      <trkpt lat="36.43313" lon="-5.123972">
        <ele>32.734</ele>
        <time>2021-06-16T21:18:38Z</time>
      </trkpt>
      <trkpt lat="36.433316" lon="-5.124374">
        <ele>32.655</ele>
        <time>2021-06-16T21:18:40Z</time>
      </trkpt>
      <trkpt lat="36.433415" lon="-5.12457">
        <ele>32.710</ele>
        <time>2021-06-16T21:18:41Z</time>
      </trkpt>
      <trkpt lat="36.433518" lon="-5.124762">
        <ele>32.808</ele>
        <time>2021-06-16T21:18:42Z</time>
      </trkpt>
      <trkpt lat="36.433738" lon="-5.125141">
        <ele>33.020</ele>
        <time>2021-06-16T21:18:44Z</time>
      </trkpt>
      <trkpt lat="36.433964" lon="-5.125526">
        <ele>32.949</ele>
        <time>2021-06-16T21:18:46Z</time>
      </trkpt>
      <trkpt lat="36.434081" lon="-5.125719">
        <ele>33.143</ele>
        <time>2021-06-16T21:18:47Z</time>
      </trkpt>
      <trkpt lat="36.43431" lon="-5.126106">
        <ele>33.463</ele>
        <time>2021-06-16T21:18:49Z</time>
      </trkpt>
      <trkpt lat="36.434425" lon="-5.126304">
        <ele>33.719</ele>
        <time>2021-06-16T21:18:50Z</time>
      </trkpt>
      <trkpt lat="36.434651" lon="-5.126687">
        <ele>34.341</ele>
        <time>2021-06-16T21:18:52Z</time>
      </trkpt>
      <trkpt lat="36.434767" lon="-5.12688">
        <ele>34.820</ele>
        <time>2021-06-16T21:18:53Z</time>
      </trkpt>
      <trkpt lat="36.435005" lon="-5.127257">
        <ele>35.274</ele>
        <time>2021-06-16T21:18:55Z</time>
      </trkpt>
      <trkpt lat="36.435245" lon="-5.127637">
        <ele>35.596</ele>
        <time>2021-06-16T21:18:57Z</time>
      </trkpt>
      <trkpt lat="36.43547" lon="-5.128017">
        <ele>36.131</ele>
        <time>2021-06-16T21:18:59Z</time>
      </trkpt>
      <trkpt lat="36.435575" lon="-5.128216">
        <ele>36.324</ele>
        <time>2021-06-16T21:19:00Z</time>
      </trkpt>
      <trkpt lat="36.435677" lon="-5.128413">
        <ele>36.708</ele>
        <time>2021-06-16T21:19:01Z</time>
      </trkpt>
      <trkpt lat="36.435867" lon="-5.128815">
        <ele>36.436</ele>
        <time>2021-06-16T21:19:03Z</time>
      </trkpt>
      <trkpt lat="36.436045" lon="-5.129222">
        <ele>36.765</ele>
        <time>2021-06-16T21:19:05Z</time>
      </trkpt>
      <trkpt lat="36.436213" lon="-5.129633">
        <ele>37.459</ele>
        <time>2021-06-16T21:19:07Z</time>
      </trkpt>
      <trkpt lat="36.436292" lon="-5.129845">
        <ele>38.259</ele>
        <time>2021-06-16T21:19:08Z</time>
      </trkpt>
      <trkpt lat="36.436443" lon="-5.130283">
        <ele>39.185</ele>
        <time>2021-06-16T21:19:10Z</time>
      </trkpt>
      <trkpt lat="36.436514" lon="-5.130508">
        <ele>39.897</ele>
        <time>2021-06-16T21:19:11Z</time>
      </trkpt>
      <trkpt lat="36.436578" lon="-5.130736">
        <ele>40.616</ele>
        <time>2021-06-16T21:19:12Z</time>
      </trkpt>
      <trkpt lat="36.43668" lon="-5.131206">
        <ele>40.880</ele>
        <time>2021-06-16T21:19:14Z</time>
      </trkpt>
      <trkpt lat="36.436727" lon="-5.131443">
        <ele>40.886</ele>
        <time>2021-06-16T21:19:15Z</time>
      </trkpt>
      <trkpt lat="36.4368" lon="-5.131924">
        <ele>40.560</ele>
        <time>2021-06-16T21:19:17Z</time>
      </trkpt>
      <trkpt lat="36.436861" lon="-5.132392">
        <ele>40.426</ele>
        <time>2021-06-16T21:19:19Z</time>
      </trkpt>
      <trkpt lat="36.436884" lon="-5.132618">
        <ele>40.308</ele>
        <time>2021-06-16T21:19:20Z</time>
      </trkpt>
      <trkpt lat="36.436943" lon="-5.133061">
        <ele>40.185</ele>
        <time>2021-06-16T21:19:22Z</time>
      </trkpt>
      <trkpt lat="36.437007" lon="-5.13351">
        <ele>39.254</ele>
        <time>2021-06-16T21:19:24Z</time>
      </trkpt>
      <trkpt lat="36.437038" lon="-5.133738">
        <ele>38.258</ele>
        <time>2021-06-16T21:19:25Z</time>
      </trkpt>
      <trkpt lat="36.437072" lon="-5.133969">
        <ele>37.288</ele>
        <time>2021-06-16T21:19:26Z</time>
      </trkpt>
      <trkpt lat="36.437137" lon="-5.134446">
        <ele>35.924</ele>
        <time>2021-06-16T21:19:28Z</time>
      </trkpt>
      <trkpt lat="36.437167" lon="-5.134696">
        <ele>34.926</ele>
        <time>2021-06-16T21:19:29Z</time>
      </trkpt>
      <trkpt lat="36.437202" lon="-5.134945">
        <ele>33.985</ele>
        <time>2021-06-16T21:19:30Z</time>
      </trkpt>
      <trkpt lat="36.437236" lon="-5.135193">
        <ele>33.139</ele>
        <time>2021-06-16T21:19:31Z</time>
      </trkpt>
      <trkpt lat="36.437297" lon="-5.135687">
        <ele>32.711</ele>
        <time>2021-06-16T21:19:33Z</time>
      </trkpt>
      <trkpt lat="36.437318" lon="-5.135934">
        <ele>32.221</ele>
        <time>2021-06-16T21:19:34Z</time>
      </trkpt>
      <trkpt lat="36.437325" lon="-5.136451">
        <ele>31.903</ele>
        <time>2021-06-16T21:19:36Z</time>
      </trkpt>
      <trkpt lat="36.437319" lon="-5.136719">
        <ele>32.108</ele>
        <time>2021-06-16T21:19:37Z</time>
      </trkpt>
      <trkpt lat="36.437283" lon="-5.137229">
        <ele>32.138</ele>
        <time>2021-06-16T21:19:39Z</time>
      </trkpt>
      <trkpt lat="36.437247" lon="-5.137475">
        <ele>32.337</ele>
        <time>2021-06-16T21:19:40Z</time>
      </trkpt>
      <trkpt lat="36.437139" lon="-5.137944">
        <ele>32.931</ele>
        <time>2021-06-16T21:19:42Z</time>
      </trkpt>
      <trkpt lat="36.436999" lon="-5.138386">
        <ele>33.751</ele>
        <time>2021-06-16T21:19:44Z</time>
      </trkpt>
      <trkpt lat="36.436917" lon="-5.138598">
        <ele>34.477</ele>
        <time>2021-06-16T21:19:45Z</time>
      </trkpt>
      <trkpt lat="36.436826" lon="-5.138802">
        <ele>35.479</ele>
        <time>2021-06-16T21:19:46Z</time>
      </trkpt>
      <trkpt lat="36.436637" lon="-5.13919">
        <ele>36.448</ele>
        <time>2021-06-16T21:19:48Z</time>
      </trkpt>
      <trkpt lat="36.436541" lon="-5.139379">
        <ele>37.562</ele>
        <time>2021-06-16T21:19:49Z</time>
      </trkpt>
      <trkpt lat="36.436346" lon="-5.139752">
        <ele>39.059</ele>
        <time>2021-06-16T21:19:51Z</time>
      </trkpt>
      <trkpt lat="36.436157" lon="-5.140127">
        <ele>40.803</ele>
        <time>2021-06-16T21:19:53Z</time>
      </trkpt>
      <trkpt lat="36.435986" lon="-5.140511">
        <ele>42.223</ele>
        <time>2021-06-16T21:19:55Z</time>
      </trkpt>
      <trkpt lat="36.435908" lon="-5.140714">
        <ele>43.508</ele>
        <time>2021-06-16T21:19:56Z</time>
      </trkpt>
      <trkpt lat="36.435779" lon="-5.141131">
        <ele>45.122</ele>
        <time>2021-06-16T21:19:58Z</time>
      </trkpt>
      <trkpt lat="36.435728" lon="-5.141346">
        <ele>46.381</ele>
        <time>2021-06-16T21:19:59Z</time>
      </trkpt>
      <trkpt lat="36.435639" lon="-5.14178">
        <ele>47.085</ele>
        <time>2021-06-16T21:20:01Z</time>
      </trkpt>
      <trkpt lat="36.435609" lon="-5.142003">
        <ele>47.645</ele>
        <time>2021-06-16T21:20:02Z</time>
      </trkpt>
      <trkpt lat="36.435575" lon="-5.142452">
        <ele>48.381</ele>
        <time>2021-06-16T21:20:04Z</time>
      </trkpt>
      <trkpt lat="36.435572" lon="-5.142679">
        <ele>49.483</ele>
        <time>2021-06-16T21:20:05Z</time>
      </trkpt>
      <trkpt lat="36.435583" lon="-5.143129">
        <ele>50.762</ele>
        <time>2021-06-16T21:20:07Z</time>
      </trkpt>
      <trkpt lat="36.435596" lon="-5.143355">
        <ele>51.626</ele>
        <time>2021-06-16T21:20:08Z</time>
      </trkpt>
      <trkpt lat="36.435629" lon="-5.143809">
        <ele>52.571</ele>
        <time>2021-06-16T21:20:10Z</time>
      </trkpt>
      <trkpt lat="36.435644" lon="-5.144039">
        <ele>53.241</ele>
        <time>2021-06-16T21:20:11Z</time>
      </trkpt>
      <trkpt lat="36.435679" lon="-5.144505">
        <ele>54.415</ele>
        <time>2021-06-16T21:20:13Z</time>
      </trkpt>
      <trkpt lat="36.435713" lon="-5.144976">
        <ele>55.208</ele>
        <time>2021-06-16T21:20:15Z</time>
      </trkpt>
      <trkpt lat="36.435727" lon="-5.145216">
        <ele>55.764</ele>
        <time>2021-06-16T21:20:16Z</time>
      </trkpt>
      <trkpt lat="36.435749" lon="-5.145699">
        <ele>55.993</ele>
        <time>2021-06-16T21:20:18Z</time>
      </trkpt>
      <trkpt lat="36.435767" lon="-5.146184">
        <ele>56.427</ele>
        <time>2021-06-16T21:20:20Z</time>
      </trkpt>
      <trkpt lat="36.435777" lon="-5.146421">
        <ele>56.927</ele>
        <time>2021-06-16T21:20:21Z</time>
      </trkpt>
      <trkpt lat="36.435793" lon="-5.14689">
        <ele>57.573</ele>
        <time>2021-06-16T21:20:23Z</time>
      </trkpt>
      <trkpt lat="36.435807" lon="-5.147354">
        <ele>57.935</ele>
        <time>2021-06-16T21:20:25Z</time>
      </trkpt>
      <trkpt lat="36.435815" lon="-5.147811">
        <ele>58.794</ele>
        <time>2021-06-16T21:20:27Z</time>
      </trkpt>
      <trkpt lat="36.43583" lon="-5.148264">
        <ele>59.588</ele>
        <time>2021-06-16T21:20:29Z</time>
      </trkpt>
      <trkpt lat="36.435836" lon="-5.148498">
        <ele>60.159</ele>
        <time>2021-06-16T21:20:30Z</time>
      </trkpt>
      <trkpt lat="36.435838" lon="-5.14873">
        <ele>60.003</ele>
        <time>2021-06-16T21:20:31Z</time>
      </trkpt>
      <trkpt lat="36.435838" lon="-5.148966">
        <ele>60.023</ele>
        <time>2021-06-16T21:20:32Z</time>
      </trkpt>
      <trkpt lat="36.435831" lon="-5.14941">
        <ele>60.108</ele>
        <time>2021-06-16T21:20:34Z</time>
      </trkpt>
      <trkpt lat="36.43581" lon="-5.149862">
        <ele>60.352</ele>
        <time>2021-06-16T21:20:36Z</time>
      </trkpt>
      <trkpt lat="36.43577" lon="-5.15032">
        <ele>60.251</ele>
        <time>2021-06-16T21:20:38Z</time>
      </trkpt>
      <trkpt lat="36.435717" lon="-5.150766">
        <ele>60.145</ele>
        <time>2021-06-16T21:20:40Z</time>
      </trkpt>
      <trkpt lat="36.435688" lon="-5.151011">
        <ele>60.425</ele>
        <time>2021-06-16T21:20:41Z</time>
      </trkpt>
      <trkpt lat="36.435628" lon="-5.15142">
        <ele>59.671</ele>
        <time>2021-06-16T21:20:43Z</time>
      </trkpt>
      <trkpt lat="36.435552" lon="-5.151899">
        <ele>59.173</ele>
        <time>2021-06-16T21:20:45Z</time>
      </trkpt>
      <trkpt lat="36.435476" lon="-5.152309">
        <ele>58.512</ele>
        <time>2021-06-16T21:20:47Z</time>
      </trkpt>
      <trkpt lat="36.435383" lon="-5.152756">
        <ele>57.956</ele>
        <time>2021-06-16T21:20:49Z</time>
      </trkpt>
      <trkpt lat="36.435285" lon="-5.153182">
        <ele>57.183</ele>
        <time>2021-06-16T21:20:51Z</time>
      </trkpt>
      <trkpt lat="36.435184" lon="-5.153616">
        <ele>56.625</ele>
        <time>2021-06-16T21:20:53Z</time>
      </trkpt>
      <trkpt lat="36.435122" lon="-5.153856">
        <ele>56.517</ele>
        <time>2021-06-16T21:20:54Z</time>
      </trkpt>
      <trkpt lat="36.435012" lon="-5.154246">
        <ele>56.108</ele>
        <time>2021-06-16T21:20:56Z</time>
      </trkpt>
      <trkpt lat="36.434893" lon="-5.154703">
        <ele>55.945</ele>
        <time>2021-06-16T21:20:58Z</time>
      </trkpt>
      <trkpt lat="36.434788" lon="-5.155099">
        <ele>55.684</ele>
        <time>2021-06-16T21:21:00Z</time>
      </trkpt>
      <trkpt lat="36.434681" lon="-5.155543">
        <ele>55.548</ele>
        <time>2021-06-16T21:21:02Z</time>
      </trkpt>
      <trkpt lat="36.43457" lon="-5.155979">
        <ele>55.358</ele>
        <time>2021-06-16T21:21:04Z</time>
      </trkpt>
      <trkpt lat="36.434513" lon="-5.156195">
        <ele>55.034</ele>
        <time>2021-06-16T21:21:05Z</time>
      </trkpt>
      <trkpt lat="36.434398" lon="-5.156643">
        <ele>54.616</ele>
        <time>2021-06-16T21:21:07Z</time>
      </trkpt>
      <trkpt lat="36.434304" lon="-5.157016">
        <ele>53.915</ele>
        <time>2021-06-16T21:21:09Z</time>
      </trkpt>
      <trkpt lat="36.434198" lon="-5.157437">
        <ele>53.749</ele>
        <time>2021-06-16T21:21:11Z</time>
      </trkpt>
      <trkpt lat="36.434117" lon="-5.157787">
        <ele>53.046</ele>
        <time>2021-06-16T21:21:13Z</time>
      </trkpt>
      <trkpt lat="36.434028" lon="-5.15818">
        <ele>52.288</ele>
        <time>2021-06-16T21:21:15Z</time>
      </trkpt>
      <trkpt lat="36.433951" lon="-5.158506">
        <ele>51.516</ele>
        <time>2021-06-16T21:21:17Z</time>
      </trkpt>
      <trkpt lat="36.433908" lon="-5.158686">
        <ele>51.208</ele>
        <time>2021-06-16T21:21:18Z</time>
      </trkpt>
      <trkpt lat="36.433822" lon="-5.159061">
        <ele>50.281</ele>
        <time>2021-06-16T21:21:20Z</time>
      </trkpt>
      <trkpt lat="36.433747" lon="-5.159361">
        <ele>49.470</ele>
        <time>2021-06-16T21:21:22Z</time>
      </trkpt>
      <trkpt lat="36.433665" lon="-5.159707">
        <ele>48.934</ele>
        <time>2021-06-16T21:21:24Z</time>
      </trkpt>
      <trkpt lat="36.433626" lon="-5.160013">
        <ele>48.784</ele>
        <time>2021-06-16T21:21:26Z</time>
      </trkpt>
      <trkpt lat="36.433631" lon="-5.160184">
        <ele>48.810</ele>
        <time>2021-06-16T21:21:27Z</time>
      </trkpt>
      <trkpt lat="36.433698" lon="-5.160494">
        <ele>49.572</ele>
        <time>2021-06-16T21:21:29Z</time>
      </trkpt>
      <trkpt lat="36.433743" lon="-5.160631">
        <ele>49.891</ele>
        <time>2021-06-16T21:21:30Z</time>
      </trkpt>
      <trkpt lat="36.433859" lon="-5.160836">
        <ele>50.825</ele>
        <time>2021-06-16T21:21:32Z</time>
      </trkpt>
      <trkpt lat="36.433985" lon="-5.160982">
        <ele>51.853</ele>
        <time>2021-06-16T21:21:34Z</time>
      </trkpt>
      <trkpt lat="36.434039" lon="-5.161028">
        <ele>52.604</ele>
        <time>2021-06-16T21:21:35Z</time>
      </trkpt>
      <trkpt lat="36.434086" lon="-5.161057">
        <ele>53.114</ele>
        <time>2021-06-16T21:21:36Z</time>
      </trkpt>
      <trkpt lat="36.434173" lon="-5.16112">
        <ele>53.708</ele>
        <time>2021-06-16T21:21:38Z</time>
      </trkpt>
      <trkpt lat="36.434273" lon="-5.161236">
        <ele>54.352</ele>
        <time>2021-06-16T21:21:40Z</time>
      </trkpt>
      <trkpt lat="36.434315" lon="-5.161337">
        <ele>54.821</ele>
        <time>2021-06-16T21:21:41Z</time>
      </trkpt>
      <trkpt lat="36.434299" lon="-5.161527">
        <ele>55.135</ele>
        <time>2021-06-16T21:21:43Z</time>
      </trkpt>
      <trkpt lat="36.434196" lon="-5.161689">
        <ele>55.065</ele>
        <time>2021-06-16T21:21:45Z</time>
      </trkpt>
      <trkpt lat="36.434112" lon="-5.161735">
        <ele>54.721</ele>
        <time>2021-06-16T21:21:46Z</time>
      </trkpt>
      <trkpt lat="36.433963" lon="-5.161699">
        <ele>54.383</ele>
        <time>2021-06-16T21:21:48Z</time>
      </trkpt>
      <trkpt lat="36.433812" lon="-5.161555">
        <ele>53.772</ele>
        <time>2021-06-16T21:21:50Z</time>
      </trkpt>
      <trkpt lat="36.43368" lon="-5.161434">
        <ele>53.496</ele>
        <time>2021-06-16T21:21:52Z</time>
      </trkpt>
      <trkpt lat="36.433503" lon="-5.161398">
        <ele>52.821</ele>
        <time>2021-06-16T21:21:54Z</time>
      </trkpt>
      <trkpt lat="36.433396" lon="-5.161401">
        <ele>52.641</ele>
        <time>2021-06-16T21:21:55Z</time>
      </trkpt>
      <trkpt lat="36.433223" lon="-5.16141">
        <ele>52.205</ele>
        <time>2021-06-16T21:21:57Z</time>
      </trkpt>
      <trkpt lat="36.43303" lon="-5.161416">
        <ele>51.908</ele>
        <time>2021-06-16T21:21:59Z</time>
      </trkpt>
      <trkpt lat="36.432869" lon="-5.16142">
        <ele>51.539</ele>
        <time>2021-06-16T21:22:01Z</time>
      </trkpt>
      <trkpt lat="36.432776" lon="-5.161425">
        <ele>50.968</ele>
        <time>2021-06-16T21:22:02Z</time>
      </trkpt>
      <trkpt lat="36.432671" lon="-5.16143">
        <ele>50.312</ele>
        <time>2021-06-16T21:22:03Z</time>
      </trkpt>
      <trkpt lat="36.432488" lon="-5.161434">
        <ele>49.512</ele>
        <time>2021-06-16T21:22:05Z</time>
      </trkpt>
      <trkpt lat="36.43238" lon="-5.161427">
        <ele>48.638</ele>
        <time>2021-06-16T21:22:06Z</time>
      </trkpt>
      <trkpt lat="36.432141" lon="-5.161389">
        <ele>47.280</ele>
        <time>2021-06-16T21:22:08Z</time>
      </trkpt>
      <trkpt lat="36.431931" lon="-5.161319">
        <ele>45.549</ele>
        <time>2021-06-16T21:22:10Z</time>
      </trkpt>
      <trkpt lat="36.431686" lon="-5.161171">
        <ele>43.753</ele>
        <time>2021-06-16T21:22:12Z</time>
      </trkpt>
      <trkpt lat="36.431489" lon="-5.160994">
        <ele>41.929</ele>
        <time>2021-06-16T21:22:14Z</time>
      </trkpt>
      <trkpt lat="36.431276" lon="-5.16075">
        <ele>40.100</ele>
        <time>2021-06-16T21:22:16Z</time>
      </trkpt>
      <trkpt lat="36.431105" lon="-5.160518">
        <ele>38.320</ele>
        <time>2021-06-16T21:22:18Z</time>
      </trkpt>
      <trkpt lat="36.431019" lon="-5.16039">
        <ele>36.808</ele>
        <time>2021-06-16T21:22:19Z</time>
      </trkpt>
      <trkpt lat="36.43085" lon="-5.160099">
        <ele>35.099</ele>
        <time>2021-06-16T21:22:21Z</time>
      </trkpt>
      <trkpt lat="36.430722" lon="-5.159824">
        <ele>33.718</ele>
        <time>2021-06-16T21:22:23Z</time>
      </trkpt>
      <trkpt lat="36.430595" lon="-5.159479">
        <ele>32.572</ele>
        <time>2021-06-16T21:22:25Z</time>
      </trkpt>
      <trkpt lat="36.430511" lon="-5.159188">
        <ele>31.072</ele>
        <time>2021-06-16T21:22:27Z</time>
      </trkpt>
      <trkpt lat="36.430466" lon="-5.159034">
        <ele>30.048</ele>
        <time>2021-06-16T21:22:28Z</time>
      </trkpt>
      <trkpt lat="36.43042" lon="-5.158887">
        <ele>29.390</ele>
        <time>2021-06-16T21:22:29Z</time>
      </trkpt>
      <trkpt lat="36.430366" lon="-5.158726">
        <ele>28.469</ele>
        <time>2021-06-16T21:22:30Z</time>
      </trkpt>
      <trkpt lat="36.430281" lon="-5.158471">
        <ele>27.933</ele>
        <time>2021-06-16T21:22:32Z</time>
      </trkpt>
      <trkpt lat="36.430236" lon="-5.158339">
        <ele>27.129</ele>
        <time>2021-06-16T21:22:33Z</time>
      </trkpt>
      <trkpt lat="36.430192" lon="-5.158211">
        <ele>26.500</ele>
        <time>2021-06-16T21:22:34Z</time>
      </trkpt>
      <trkpt lat="36.430099" lon="-5.157966">
        <ele>26.320</ele>
        <time>2021-06-16T21:22:36Z</time>
      </trkpt>
      <trkpt lat="36.430043" lon="-5.157849">
        <ele>26.208</ele>
        <time>2021-06-16T21:22:37Z</time>
      </trkpt>
      <trkpt lat="36.429982" lon="-5.157737">
        <ele>25.889</ele>
        <time>2021-06-16T21:22:38Z</time>
      </trkpt>
      <trkpt lat="36.42991" lon="-5.157618">
        <ele>25.478</ele>
        <time>2021-06-16T21:22:39Z</time>
      </trkpt>
      <trkpt lat="36.429787" lon="-5.157425">
        <ele>25.232</ele>
        <time>2021-06-16T21:22:41Z</time>
      </trkpt>
      <trkpt lat="36.429717" lon="-5.157327">
        <ele>24.992</ele>
        <time>2021-06-16T21:22:42Z</time>
      </trkpt>
      <trkpt lat="36.429576" lon="-5.157146">
        <ele>24.718</ele>
        <time>2021-06-16T21:22:44Z</time>
      </trkpt>
      <trkpt lat="36.429503" lon="-5.157066">
        <ele>24.510</ele>
        <time>2021-06-16T21:22:45Z</time>
      </trkpt>
      <trkpt lat="36.429333" lon="-5.15693">
        <ele>24.019</ele>
        <time>2021-06-16T21:22:47Z</time>
      </trkpt>
      <trkpt lat="36.429196" lon="-5.156832">
        <ele>23.613</ele>
        <time>2021-06-16T21:22:49Z</time>
      </trkpt>
      <trkpt lat="36.42913" lon="-5.156783">
        <ele>23.576</ele>
        <time>2021-06-16T21:22:50Z</time>
      </trkpt>
      <trkpt lat="36.429028" lon="-5.156708">
        <ele>23.690</ele>
        <time>2021-06-16T21:22:52Z</time>
      </trkpt>
      <trkpt lat="36.428984" lon="-5.156683">
        <ele>23.119</ele>
        <time>2021-06-16T21:22:54Z</time>
      </trkpt>
      <trkpt lat="36.428923" lon="-5.156644">
        <ele>23.108</ele>
        <time>2021-06-16T21:22:56Z</time>
      </trkpt>
      <trkpt lat="36.428869" lon="-5.156603">
        <ele>22.944</ele>
        <time>2021-06-16T21:22:58Z</time>
      </trkpt>
      <trkpt lat="36.428782" lon="-5.156537">
        <ele>22.413</ele>
        <time>2021-06-16T21:23:00Z</time>
      </trkpt>
      <trkpt lat="36.428718" lon="-5.156493">
        <ele>22.417</ele>
        <time>2021-06-16T21:23:01Z</time>
      </trkpt>
      <trkpt lat="36.428595" lon="-5.156448">
        <ele>23.237</ele>
        <time>2021-06-16T21:23:03Z</time>
      </trkpt>
      <trkpt lat="36.42844" lon="-5.156429">
        <ele>23.423</ele>
        <time>2021-06-16T21:23:05Z</time>
      </trkpt>
      <trkpt lat="36.428369" lon="-5.156414">
        <ele>23.785</ele>
        <time>2021-06-16T21:23:06Z</time>
      </trkpt>
      <trkpt lat="36.428306" lon="-5.15639">
        <ele>23.754</ele>
        <time>2021-06-16T21:23:07Z</time>
      </trkpt>
      <trkpt lat="36.428185" lon="-5.156372">
        <ele>23.868</ele>
        <time>2021-06-16T21:23:09Z</time>
      </trkpt>
      <trkpt lat="36.428102" lon="-5.156452">
        <ele>23.726</ele>
        <time>2021-06-16T21:23:11Z</time>
      </trkpt>
      <trkpt lat="36.428063" lon="-5.156529">
        <ele>23.747</ele>
        <time>2021-06-16T21:23:12Z</time>
      </trkpt>
      <trkpt lat="36.428023" lon="-5.156613">
        <ele>24.011</ele>
        <time>2021-06-16T21:23:13Z</time>
      </trkpt>
      <trkpt lat="36.427913" lon="-5.156781">
        <ele>24.108</ele>
        <time>2021-06-16T21:23:15Z</time>
      </trkpt>
      <trkpt lat="36.427772" lon="-5.156929">
        <ele>24.349</ele>
        <time>2021-06-16T21:23:17Z</time>
      </trkpt>
      <trkpt lat="36.427602" lon="-5.157038">
        <ele>25.168</ele>
        <time>2021-06-16T21:23:19Z</time>
      </trkpt>
      <trkpt lat="36.427401" lon="-5.157108">
        <ele>25.412</ele>
        <time>2021-06-16T21:23:21Z</time>
      </trkpt>
      <trkpt lat="36.427301" lon="-5.157127">
        <ele>26.212</ele>
        <time>2021-06-16T21:23:22Z</time>
      </trkpt>
      <trkpt lat="36.427103" lon="-5.157151">
        <ele>27.138</ele>
        <time>2021-06-16T21:23:24Z</time>
      </trkpt>
      <trkpt lat="36.426894" lon="-5.157154">
        <ele>28.570</ele>
        <time>2021-06-16T21:23:26Z</time>
      </trkpt>
      <trkpt lat="36.426743" lon="-5.157133">
        <ele>29.939</ele>
        <time>2021-06-16T21:23:28Z</time>
      </trkpt>
      <trkpt lat="36.426676" lon="-5.157122">
        <ele>30.543</ele>
        <time>2021-06-16T21:23:29Z</time>
      </trkpt>
      <trkpt lat="36.426604" lon="-5.157115">
        <ele>30.941</ele>
        <time>2021-06-16T21:23:30Z</time>
      </trkpt>
      <trkpt lat="36.426507" lon="-5.157123">
        <ele>31.481</ele>
        <time>2021-06-16T21:23:32Z</time>
      </trkpt>
      <trkpt lat="36.426403" lon="-5.157138">
        <ele>31.609</ele>
        <time>2021-06-16T21:23:34Z</time>
      </trkpt>
      <trkpt lat="36.426308" lon="-5.157083">
        <ele>32.808</ele>
        <time>2021-06-16T21:23:36Z</time>
      </trkpt>
      <trkpt lat="36.426257" lon="-5.157032">
        <ele>33.551</ele>
        <time>2021-06-16T21:23:37Z</time>
      </trkpt>
      <trkpt lat="36.426191" lon="-5.156981">
        <ele>33.990</ele>
        <time>2021-06-16T21:23:38Z</time>
      </trkpt>
      <trkpt lat="36.42605" lon="-5.156954">
        <ele>34.564</ele>
        <time>2021-06-16T21:23:40Z</time>
      </trkpt>
      <trkpt lat="36.425969" lon="-5.156947">
        <ele>35.174</ele>
        <time>2021-06-16T21:23:41Z</time>
      </trkpt>
      <trkpt lat="36.42589" lon="-5.156941">
        <ele>35.790</ele>
        <time>2021-06-16T21:23:42Z</time>
      </trkpt>
      <trkpt lat="36.42581" lon="-5.156937">
        <ele>36.332</ele>
        <time>2021-06-16T21:23:43Z</time>
      </trkpt>
      <trkpt lat="36.425649" lon="-5.156929">
        <ele>36.711</ele>
        <time>2021-06-16T21:23:45Z</time>
      </trkpt>
      <trkpt lat="36.425558" lon="-5.156925">
        <ele>37.075</ele>
        <time>2021-06-16T21:23:46Z</time>
      </trkpt>
      <trkpt lat="36.425456" lon="-5.156923">
        <ele>37.834</ele>
        <time>2021-06-16T21:23:47Z</time>
      </trkpt>
      <trkpt lat="36.425274" lon="-5.156924">
        <ele>38.055</ele>
        <time>2021-06-16T21:23:49Z</time>
      </trkpt>
      <trkpt lat="36.425054" lon="-5.156928">
        <ele>38.110</ele>
        <time>2021-06-16T21:23:51Z</time>
      </trkpt>
      <trkpt lat="36.424895" lon="-5.156922">
        <ele>38.108</ele>
        <time>2021-06-16T21:23:53Z</time>
      </trkpt>
      <trkpt lat="36.424689" lon="-5.156925">
        <ele>38.180</ele>
        <time>2021-06-16T21:23:55Z</time>
      </trkpt>
      <trkpt lat="36.424573" lon="-5.156922">
        <ele>38.839</ele>
        <time>2021-06-16T21:23:56Z</time>
      </trkpt>
      <trkpt lat="36.424383" lon="-5.156914">
        <ele>39.953</ele>
        <time>2021-06-16T21:23:58Z</time>
      </trkpt>
      <trkpt lat="36.424171" lon="-5.156912">
        <ele>40.373</ele>
        <time>2021-06-16T21:24:00Z</time>
      </trkpt>
      <trkpt lat="36.423988" lon="-5.156908">
        <ele>40.849</ele>
        <time>2021-06-16T21:24:02Z</time>
      </trkpt>
      <trkpt lat="36.423787" lon="-5.156914">
        <ele>41.211</ele>
        <time>2021-06-16T21:24:04Z</time>
      </trkpt>
      <trkpt lat="36.42363" lon="-5.156913">
        <ele>41.720</ele>
        <time>2021-06-16T21:24:06Z</time>
      </trkpt>
      <trkpt lat="36.423557" lon="-5.156914">
        <ele>41.784</ele>
        <time>2021-06-16T21:24:07Z</time>
      </trkpt>
      <trkpt lat="36.423435" lon="-5.156952">
        <ele>41.388</ele>
        <time>2021-06-16T21:24:09Z</time>
      </trkpt>
      <trkpt lat="36.423332" lon="-5.157003">
        <ele>40.924</ele>
        <time>2021-06-16T21:24:11Z</time>
      </trkpt>
      <trkpt lat="36.423267" lon="-5.156997">
        <ele>40.726</ele>
        <time>2021-06-16T21:24:12Z</time>
      </trkpt>
      <trkpt lat="36.423193" lon="-5.156972">
        <ele>40.108</ele>
        <time>2021-06-16T21:24:13Z</time>
      </trkpt>
      <trkpt lat="36.423037" lon="-5.15694">
        <ele>39.625</ele>
        <time>2021-06-16T21:24:15Z</time>
      </trkpt>
      <trkpt lat="36.42294" lon="-5.156936">
        <ele>39.414</ele>
        <time>2021-06-16T21:24:16Z</time>
      </trkpt>
      <trkpt lat="36.422847" lon="-5.156938">
        <ele>39.298</ele>
        <time>2021-06-16T21:24:17Z</time>
      </trkpt>
      <trkpt lat="36.422657" lon="-5.156927">
        <ele>39.398</ele>
        <time>2021-06-16T21:24:19Z</time>
      </trkpt>
      <trkpt lat="36.422483" lon="-5.156936">
        <ele>39.694</ele>
        <time>2021-06-16T21:24:21Z</time>
      </trkpt>
      <trkpt lat="36.422347" lon="-5.156939">
        <ele>40.216</ele>
        <time>2021-06-16T21:24:23Z</time>
      </trkpt>
      <trkpt lat="36.422277" lon="-5.156935">
        <ele>40.775</ele>
        <time>2021-06-16T21:24:24Z</time>
      </trkpt>
      <trkpt lat="36.42212" lon="-5.156945">
        <ele>41.799</ele>
        <time>2021-06-16T21:24:26Z</time>
      </trkpt>
      <trkpt lat="36.421949" lon="-5.156946">
        <ele>42.831</ele>
        <time>2021-06-16T21:24:28Z</time>
      </trkpt>
      <trkpt lat="36.42186" lon="-5.156948">
        <ele>43.361</ele>
        <time>2021-06-16T21:24:29Z</time>
      </trkpt>
      <trkpt lat="36.421772" lon="-5.15696">
        <ele>43.807</ele>
        <time>2021-06-16T21:24:30Z</time>
      </trkpt>
      <trkpt lat="36.421587" lon="-5.156993">
        <ele>44.408</ele>
        <time>2021-06-16T21:24:32Z</time>
      </trkpt>
      <trkpt lat="36.421495" lon="-5.157028">
        <ele>45.180</ele>
        <time>2021-06-16T21:24:33Z</time>
      </trkpt>
      <trkpt lat="36.421343" lon="-5.157118">
        <ele>45.479</ele>
        <time>2021-06-16T21:24:35Z</time>
      </trkpt>
      <trkpt lat="36.421264" lon="-5.157168">
        <ele>45.293</ele>
        <time>2021-06-16T21:24:36Z</time>
      </trkpt>
      <trkpt lat="36.421127" lon="-5.15729">
        <ele>45.093</ele>
        <time>2021-06-16T21:24:38Z</time>
      </trkpt>
      <trkpt lat="36.421067" lon="-5.157361">
        <ele>44.589</ele>
        <time>2021-06-16T21:24:39Z</time>
      </trkpt>
      <trkpt lat="36.420936" lon="-5.157506">
        <ele>44.461</ele>
        <time>2021-06-16T21:24:41Z</time>
      </trkpt>
      <trkpt lat="36.420868" lon="-5.157579">
        <ele>44.040</ele>
        <time>2021-06-16T21:24:42Z</time>
      </trkpt>
      <trkpt lat="36.420734" lon="-5.157727">
        <ele>44.324</ele>
        <time>2021-06-16T21:24:44Z</time>
      </trkpt>
      <trkpt lat="36.420664" lon="-5.157804">
        <ele>44.849</ele>
        <time>2021-06-16T21:24:45Z</time>
      </trkpt>
      <trkpt lat="36.420593" lon="-5.157874">
        <ele>44.902</ele>
        <time>2021-06-16T21:24:46Z</time>
      </trkpt>
      <trkpt lat="36.420464" lon="-5.157999">
        <ele>44.822</ele>
        <time>2021-06-16T21:24:48Z</time>
      </trkpt>
      <trkpt lat="36.420315" lon="-5.15808">
        <ele>44.308</ele>
        <time>2021-06-16T21:24:50Z</time>
      </trkpt>
      <trkpt lat="36.420242" lon="-5.158114">
        <ele>43.461</ele>
        <time>2021-06-16T21:24:51Z</time>
      </trkpt>
      <trkpt lat="36.420094" lon="-5.158171">
        <ele>42.210</ele>
        <time>2021-06-16T21:24:53Z</time>
      </trkpt>
      <trkpt lat="36.420022" lon="-5.158192">
        <ele>41.634</ele>
        <time>2021-06-16T21:24:54Z</time>
      </trkpt>
      <trkpt lat="36.419959" lon="-5.158216">
        <ele>40.414</ele>
        <time>2021-06-16T21:24:55Z</time>
      </trkpt>
      <trkpt lat="36.419856" lon="-5.158268">
        <ele>39.620</ele>
        <time>2021-06-16T21:24:57Z</time>
      </trkpt>
      <trkpt lat="36.419809" lon="-5.158299">
        <ele>39.142</ele>
        <time>2021-06-16T21:24:58Z</time>
      </trkpt>
      <trkpt lat="36.419704" lon="-5.158293">
        <ele>38.281</ele>
        <time>2021-06-16T21:25:00Z</time>
      </trkpt>
      <trkpt lat="36.419641" lon="-5.158197">
        <ele>35.815</ele>
        <time>2021-06-16T21:25:02Z</time>
      </trkpt>
      <trkpt lat="36.419648" lon="-5.158141">
        <ele>34.648</ele>
        <time>2021-06-16T21:25:03Z</time>
      </trkpt>
      <trkpt lat="36.419734" lon="-5.158041">
        <ele>33.961</ele>
        <time>2021-06-16T21:25:05Z</time>
      </trkpt>
      <trkpt lat="36.419787" lon="-5.15801">
        <ele>33.417</ele>
        <time>2021-06-16T21:25:06Z</time>
      </trkpt>
      <trkpt lat="36.41988" lon="-5.157921">
        <ele>33.308</ele>
        <time>2021-06-16T21:25:08Z</time>
      </trkpt>
      <trkpt lat="36.419919" lon="-5.157864">
        <ele>33.021</ele>
        <time>2021-06-16T21:25:09Z</time>
      </trkpt>
      <trkpt lat="36.419954" lon="-5.157805">
        <ele>33.330</ele>
        <time>2021-06-16T21:25:10Z</time>
      </trkpt>
      <trkpt lat="36.419988" lon="-5.157743">
        <ele>33.584</ele>
        <time>2021-06-16T21:25:11Z</time>
      </trkpt>
      <trkpt lat="36.420013" lon="-5.157643">
        <ele>34.384</ele>
        <time>2021-06-16T21:25:13Z</time>
      </trkpt>
      <trkpt lat="36.419969" lon="-5.157559">
        <ele>35.040</ele>
        <time>2021-06-16T21:25:15Z</time>
      </trkpt>
      <trkpt lat="36.419936" lon="-5.157505">
        <ele>35.562</ele>
        <time>2021-06-16T21:25:16Z</time>
      </trkpt>
      <trkpt lat="36.419865" lon="-5.157424">
        <ele>35.631</ele>
        <time>2021-06-16T21:25:18Z</time>
      </trkpt>
      <trkpt lat="36.419778" lon="-5.157373">
        <ele>36.055</ele>
        <time>2021-06-16T21:25:20Z</time>
      </trkpt>
      <trkpt lat="36.419723" lon="-5.157402">
        <ele>35.879</ele>
        <time>2021-06-16T21:25:21Z</time>
      </trkpt>
      <trkpt lat="36.419666" lon="-5.157449">
        <ele>35.905</ele>
        <time>2021-06-16T21:25:22Z</time>
      </trkpt>
      <trkpt lat="36.419561" lon="-5.157573">
        <ele>36.125</ele>
        <time>2021-06-16T21:25:24Z</time>
      </trkpt>
      <trkpt lat="36.419515" lon="-5.157639">
        <ele>36.008</ele>
        <time>2021-06-16T21:25:25Z</time>
      </trkpt>
      <trkpt lat="36.419424" lon="-5.157786">
        <ele>36.424</ele>
        <time>2021-06-16T21:25:27Z</time>
      </trkpt>
      <trkpt lat="36.419325" lon="-5.157875">
        <ele>35.883</ele>
        <time>2021-06-16T21:25:29Z</time>
      </trkpt>
      <trkpt lat="36.41924" lon="-5.157914">
        <ele>34.567</ele>
        <time>2021-06-16T21:25:31Z</time>
      </trkpt>
      <trkpt lat="36.419184" lon="-5.157901">
        <ele>33.797</ele>
        <time>2021-06-16T21:25:33Z</time>
      </trkpt>
      <trkpt lat="36.419188" lon="-5.15784">
        <ele>32.423</ele>
        <time>2021-06-16T21:25:35Z</time>
      </trkpt>
      <trkpt lat="36.41922" lon="-5.157782">
        <ele>29.715</ele>
        <time>2021-06-16T21:25:40Z</time>
      </trkpt>
      <trkpt lat="36.41925" lon="-5.157732">
        <ele>27.744</ele>
        <time>2021-06-16T21:25:44Z</time>
      </trkpt>
      <trkpt lat="36.419295" lon="-5.157739">
        <ele>26.288</ele>
        <time>2021-06-16T21:25:50Z</time>
      </trkpt>
      <trkpt lat="36.419279" lon="-5.157684">
        <ele>24.968</ele>
        <time>2021-06-16T21:26:45Z</time>
      </trkpt>
      <trkpt lat="36.419281" lon="-5.157742">
        <ele>24.142</ele>
        <time>2021-06-16T21:27:12Z</time>
      </trkpt>
      <trkpt lat="36.43746" lon="-5.106444">
        <ele>3.884</ele>
        <time>2021-06-17T09:09:34Z</time>
      </trkpt>
      <trkpt lat="36.437595" lon="-5.106214">
        <ele>4.907</ele>
        <time>2021-06-17T09:09:35Z</time>
      </trkpt>
      <trkpt lat="36.437661" lon="-5.1061">
        <ele>4.917</ele>
        <time>2021-06-17T09:09:36Z</time>
      </trkpt>
      <trkpt lat="36.437799" lon="-5.105873">
        <ele>4.908</ele>
        <time>2021-06-17T09:09:38Z</time>
      </trkpt>
      <trkpt lat="36.437874" lon="-5.105755">
        <ele>4.745</ele>
        <time>2021-06-17T09:09:39Z</time>
      </trkpt>
      <trkpt lat="36.438027" lon="-5.105511">
        <ele>4.944</ele>
        <time>2021-06-17T09:09:41Z</time>
      </trkpt>
      <trkpt lat="36.4381" lon="-5.105384">
        <ele>4.768</ele>
        <time>2021-06-17T09:09:42Z</time>
      </trkpt>
      <trkpt lat="36.438258" lon="-5.10513">
        <ele>4.321</ele>
        <time>2021-06-17T09:09:44Z</time>
      </trkpt>
      <trkpt lat="36.43842" lon="-5.104864">
        <ele>3.951</ele>
        <time>2021-06-17T09:09:46Z</time>
      </trkpt>
      <trkpt lat="36.438507" lon="-5.104732">
        <ele>3.132</ele>
        <time>2021-06-17T09:09:47Z</time>
      </trkpt>
      <trkpt lat="36.438684" lon="-5.104447">
        <ele>2.631</ele>
        <time>2021-06-17T09:09:49Z</time>
      </trkpt>
      <trkpt lat="36.438864" lon="-5.104151">
        <ele>2.678</ele>
        <time>2021-06-17T09:09:51Z</time>
      </trkpt>
      <trkpt lat="36.438955" lon="-5.104006">
        <ele>2.743</ele>
        <time>2021-06-17T09:09:52Z</time>
      </trkpt>
      <trkpt lat="36.439046" lon="-5.103859">
        <ele>2.564</ele>
        <time>2021-06-17T09:09:53Z</time>
      </trkpt>
      <trkpt lat="36.439139" lon="-5.103711">
        <ele>2.710</ele>
        <time>2021-06-17T09:09:54Z</time>
      </trkpt>
      <trkpt lat="36.439232" lon="-5.103562">
        <ele>2.808</ele>
        <time>2021-06-17T09:09:55Z</time>
      </trkpt>
      <trkpt lat="36.439327" lon="-5.103415">
        <ele>2.961</ele>
        <time>2021-06-17T09:09:56Z</time>
      </trkpt>
      <trkpt lat="36.439508" lon="-5.10311">
        <ele>3.460</ele>
        <time>2021-06-17T09:09:58Z</time>
      </trkpt>
      <trkpt lat="36.439687" lon="-5.102794">
        <ele>3.844</ele>
        <time>2021-06-17T09:10:00Z</time>
      </trkpt>
      <trkpt lat="36.439773" lon="-5.102644">
        <ele>4.677</ele>
        <time>2021-06-17T09:10:01Z</time>
      </trkpt>
      <trkpt lat="36.439942" lon="-5.102363">
        <ele>5.147</ele>
        <time>2021-06-17T09:10:03Z</time>
      </trkpt>
      <trkpt lat="36.440097" lon="-5.1021">
        <ele>6.028</ele>
        <time>2021-06-17T09:10:05Z</time>
      </trkpt>
      <trkpt lat="36.440177" lon="-5.101966">
        <ele>6.647</ele>
        <time>2021-06-17T09:10:06Z</time>
      </trkpt>
      <trkpt lat="36.44026" lon="-5.101837">
        <ele>7.094</ele>
        <time>2021-06-17T09:10:07Z</time>
      </trkpt>
      <trkpt lat="36.440423" lon="-5.101571">
        <ele>7.555</ele>
        <time>2021-06-17T09:10:09Z</time>
      </trkpt>
      <trkpt lat="36.440505" lon="-5.101435">
        <ele>8.007</ele>
        <time>2021-06-17T09:10:10Z</time>
      </trkpt>
      <trkpt lat="36.44067" lon="-5.101159">
        <ele>8.517</ele>
        <time>2021-06-17T09:10:12Z</time>
      </trkpt>
      <trkpt lat="36.440757" lon="-5.101019">
        <ele>8.908</ele>
        <time>2021-06-17T09:10:13Z</time>
      </trkpt>
      <trkpt lat="36.440944" lon="-5.100731">
        <ele>9.582</ele>
        <time>2021-06-17T09:10:15Z</time>
      </trkpt>
      <trkpt lat="36.441143" lon="-5.10044">
        <ele>9.921</ele>
        <time>2021-06-17T09:10:17Z</time>
      </trkpt>
      <trkpt lat="36.441244" lon="-5.100296">
        <ele>10.475</ele>
        <time>2021-06-17T09:10:18Z</time>
      </trkpt>
      <trkpt lat="36.441457" lon="-5.100019">
        <ele>11.078</ele>
        <time>2021-06-17T09:10:20Z</time>
      </trkpt>
      <trkpt lat="36.44157" lon="-5.099886">
        <ele>11.468</ele>
        <time>2021-06-17T09:10:21Z</time>
      </trkpt>
      <trkpt lat="36.441805" lon="-5.09964">
        <ele>11.859</ele>
        <time>2021-06-17T09:10:23Z</time>
      </trkpt>
      <trkpt lat="36.442055" lon="-5.09943">
        <ele>12.438</ele>
        <time>2021-06-17T09:10:25Z</time>
      </trkpt>
      <trkpt lat="36.442184" lon="-5.099336">
        <ele>12.785</ele>
        <time>2021-06-17T09:10:26Z</time>
      </trkpt>
      <trkpt lat="36.442316" lon="-5.099247">
        <ele>12.853</ele>
        <time>2021-06-17T09:10:27Z</time>
      </trkpt>
      <trkpt lat="36.44245" lon="-5.099164">
        <ele>12.904</ele>
        <time>2021-06-17T09:10:28Z</time>
      </trkpt>
      <trkpt lat="36.442721" lon="-5.099001">
        <ele>13.214</ele>
        <time>2021-06-17T09:10:30Z</time>
      </trkpt>
      <trkpt lat="36.44286" lon="-5.098919">
        <ele>13.108</ele>
        <time>2021-06-17T09:10:31Z</time>
      </trkpt>
      <trkpt lat="36.443143" lon="-5.09874">
        <ele>12.852</ele>
        <time>2021-06-17T09:10:33Z</time>
      </trkpt>
      <trkpt lat="36.443287" lon="-5.098638">
        <ele>12.341</ele>
        <time>2021-06-17T09:10:34Z</time>
      </trkpt>
      <trkpt lat="36.443428" lon="-5.098523">
        <ele>11.815</ele>
        <time>2021-06-17T09:10:35Z</time>
      </trkpt>
      <trkpt lat="36.443567" lon="-5.098392">
        <ele>11.388</ele>
        <time>2021-06-17T09:10:36Z</time>
      </trkpt>
      <trkpt lat="36.443833" lon="-5.098092">
        <ele>10.228</ele>
        <time>2021-06-17T09:10:38Z</time>
      </trkpt>
      <trkpt lat="36.443959" lon="-5.097926">
        <ele>9.029</ele>
        <time>2021-06-17T09:10:39Z</time>
      </trkpt>
      <trkpt lat="36.444076" lon="-5.09775">
        <ele>8.418</ele>
        <time>2021-06-17T09:10:40Z</time>
      </trkpt>
      <trkpt lat="36.444293" lon="-5.097385">
        <ele>8.085</ele>
        <time>2021-06-17T09:10:42Z</time>
      </trkpt>
      <trkpt lat="36.444394" lon="-5.097196">
        <ele>7.796</ele>
        <time>2021-06-17T09:10:43Z</time>
      </trkpt>
      <trkpt lat="36.444602" lon="-5.096818">
        <ele>7.831</ele>
        <time>2021-06-17T09:10:45Z</time>
      </trkpt>
      <trkpt lat="36.444813" lon="-5.096436">
        <ele>7.824</ele>
        <time>2021-06-17T09:10:47Z</time>
      </trkpt>
      <trkpt lat="36.444917" lon="-5.096243">
        <ele>7.408</ele>
        <time>2021-06-17T09:10:48Z</time>
      </trkpt>
      <trkpt lat="36.445021" lon="-5.096051">
        <ele>7.226</ele>
        <time>2021-06-17T09:10:49Z</time>
      </trkpt>
      <trkpt lat="36.445229" lon="-5.095672">
        <ele>7.215</ele>
        <time>2021-06-17T09:10:51Z</time>
      </trkpt>
      <trkpt lat="36.445333" lon="-5.095484">
        <ele>7.319</ele>
        <time>2021-06-17T09:10:52Z</time>
      </trkpt>
      <trkpt lat="36.445436" lon="-5.095297">
        <ele>7.732</ele>
        <time>2021-06-17T09:10:53Z</time>
      </trkpt>
      <trkpt lat="36.445539" lon="-5.095111">
        <ele>8.162</ele>
        <time>2021-06-17T09:10:54Z</time>
      </trkpt>
      <trkpt lat="36.44574" lon="-5.094742">
        <ele>8.973</ele>
        <time>2021-06-17T09:10:56Z</time>
      </trkpt>
      <trkpt lat="36.445941" lon="-5.094364">
        <ele>9.732</ele>
        <time>2021-06-17T09:10:58Z</time>
      </trkpt>
      <trkpt lat="36.446133" lon="-5.093978">
        <ele>10.799</ele>
        <time>2021-06-17T09:11:00Z</time>
      </trkpt>
      <trkpt lat="36.446324" lon="-5.093593">
        <ele>11.547</ele>
        <time>2021-06-17T09:11:02Z</time>
      </trkpt>
      <trkpt lat="36.446422" lon="-5.093401">
        <ele>12.229</ele>
        <time>2021-06-17T09:11:03Z</time>
      </trkpt>
      <trkpt lat="36.44652" lon="-5.093211">
        <ele>12.521</ele>
        <time>2021-06-17T09:11:04Z</time>
      </trkpt>
      <trkpt lat="36.446717" lon="-5.09283">
        <ele>12.608</ele>
        <time>2021-06-17T09:11:06Z</time>
      </trkpt>
      <trkpt lat="36.446814" lon="-5.092638">
        <ele>12.611</ele>
        <time>2021-06-17T09:11:07Z</time>
      </trkpt>
      <trkpt lat="36.447013" lon="-5.092251">
        <ele>11.970</ele>
        <time>2021-06-17T09:11:09Z</time>
      </trkpt>
      <trkpt lat="36.447215" lon="-5.091854">
        <ele>10.794</ele>
        <time>2021-06-17T09:11:11Z</time>
      </trkpt>
      <trkpt lat="36.44732" lon="-5.091649">
        <ele>9.887</ele>
        <time>2021-06-17T09:11:12Z</time>
      </trkpt>
      <trkpt lat="36.447526" lon="-5.09124">
        <ele>9.137</ele>
        <time>2021-06-17T09:11:14Z</time>
      </trkpt>
      <trkpt lat="36.447625" lon="-5.091035">
        <ele>8.728</ele>
        <time>2021-06-17T09:11:15Z</time>
      </trkpt>
      <trkpt lat="36.44782" lon="-5.09063">
        <ele>8.077</ele>
        <time>2021-06-17T09:11:17Z</time>
      </trkpt>
      <trkpt lat="36.448016" lon="-5.090231">
        <ele>7.824</ele>
        <time>2021-06-17T09:11:19Z</time>
      </trkpt>
      <trkpt lat="36.448216" lon="-5.089839">
        <ele>7.753</ele>
        <time>2021-06-17T09:11:21Z</time>
      </trkpt>
      <trkpt lat="36.448406" lon="-5.089452">
        <ele>7.804</ele>
        <time>2021-06-17T09:11:23Z</time>
      </trkpt>
      <trkpt lat="36.448502" lon="-5.089262">
        <ele>7.914</ele>
        <time>2021-06-17T09:11:24Z</time>
      </trkpt>
      <trkpt lat="36.448595" lon="-5.089073">
        <ele>8.508</ele>
        <time>2021-06-17T09:11:25Z</time>
      </trkpt>
      <trkpt lat="36.448781" lon="-5.088704">
        <ele>8.992</ele>
        <time>2021-06-17T09:11:27Z</time>
      </trkpt>
      <trkpt lat="36.448968" lon="-5.088331">
        <ele>9.231</ele>
        <time>2021-06-17T09:11:29Z</time>
      </trkpt>
      <trkpt lat="36.449064" lon="-5.088142">
        <ele>9.575</ele>
        <time>2021-06-17T09:11:30Z</time>
      </trkpt>
      <trkpt lat="36.449163" lon="-5.087952">
        <ele>9.998</ele>
        <time>2021-06-17T09:11:31Z</time>
      </trkpt>
      <trkpt lat="36.449262" lon="-5.08776">
        <ele>10.028</ele>
        <time>2021-06-17T09:11:32Z</time>
      </trkpt>
      <trkpt lat="36.449458" lon="-5.087373">
        <ele>10.229</ele>
        <time>2021-06-17T09:11:34Z</time>
      </trkpt>
      <trkpt lat="36.449658" lon="-5.086985">
        <ele>10.348</ele>
        <time>2021-06-17T09:11:36Z</time>
      </trkpt>
      <trkpt lat="36.449759" lon="-5.086788">
        <ele>10.085</ele>
        <time>2021-06-17T09:11:37Z</time>
      </trkpt>
      <trkpt lat="36.449959" lon="-5.086395">
        <ele>9.827</ele>
        <time>2021-06-17T09:11:39Z</time>
      </trkpt>
      <trkpt lat="36.450061" lon="-5.086196">
        <ele>9.768</ele>
        <time>2021-06-17T09:11:40Z</time>
      </trkpt>
      <trkpt lat="36.450263" lon="-5.085797">
        <ele>9.614</ele>
        <time>2021-06-17T09:11:42Z</time>
      </trkpt>
      <trkpt lat="36.450364" lon="-5.085596">
        <ele>9.608</ele>
        <time>2021-06-17T09:11:43Z</time>
      </trkpt>
      <trkpt lat="36.450466" lon="-5.085396">
        <ele>9.699</ele>
        <time>2021-06-17T09:11:44Z</time>
      </trkpt>
      <trkpt lat="36.450668" lon="-5.084996">
        <ele>9.358</ele>
        <time>2021-06-17T09:11:46Z</time>
      </trkpt>
      <trkpt lat="36.45087" lon="-5.084594">
        <ele>8.762</ele>
        <time>2021-06-17T09:11:48Z</time>
      </trkpt>
      <trkpt lat="36.450971" lon="-5.084393">
        <ele>8.515</ele>
        <time>2021-06-17T09:11:49Z</time>
      </trkpt>
      <trkpt lat="36.451169" lon="-5.083995">
        <ele>8.185</ele>
        <time>2021-06-17T09:11:51Z</time>
      </trkpt>
      <trkpt lat="36.451272" lon="-5.083798">
        <ele>7.926</ele>
        <time>2021-06-17T09:11:52Z</time>
      </trkpt>
      <trkpt lat="36.451474" lon="-5.083405">
        <ele>8.025</ele>
        <time>2021-06-17T09:11:54Z</time>
      </trkpt>
      <trkpt lat="36.451576" lon="-5.083209">
        <ele>7.762</ele>
        <time>2021-06-17T09:11:55Z</time>
      </trkpt>
      <trkpt lat="36.451675" lon="-5.083011">
        <ele>7.866</ele>
        <time>2021-06-17T09:11:56Z</time>
      </trkpt>
      <trkpt lat="36.451775" lon="-5.082815">
        <ele>7.629</ele>
        <time>2021-06-17T09:11:57Z</time>
      </trkpt>
      <trkpt lat="36.451875" lon="-5.082622">
        <ele>7.821</ele>
        <time>2021-06-17T09:11:58Z</time>
      </trkpt>
      <trkpt lat="36.451974" lon="-5.082433">
        <ele>8.008</ele>
        <time>2021-06-17T09:11:59Z</time>
      </trkpt>
      <trkpt lat="36.452162" lon="-5.082068">
        <ele>7.763</ele>
        <time>2021-06-17T09:12:01Z</time>
      </trkpt>
      <trkpt lat="36.452253" lon="-5.081885">
        <ele>7.742</ele>
        <time>2021-06-17T09:12:02Z</time>
      </trkpt>
      <trkpt lat="36.452342" lon="-5.081704">
        <ele>7.716</ele>
        <time>2021-06-17T09:12:03Z</time>
      </trkpt>
      <trkpt lat="36.452523" lon="-5.08134">
        <ele>7.919</ele>
        <time>2021-06-17T09:12:05Z</time>
      </trkpt>
      <trkpt lat="36.452703" lon="-5.080974">
        <ele>7.989</ele>
        <time>2021-06-17T09:12:07Z</time>
      </trkpt>
      <trkpt lat="36.452872" lon="-5.080599">
        <ele>8.020</ele>
        <time>2021-06-17T09:12:09Z</time>
      </trkpt>
      <trkpt lat="36.45295" lon="-5.080402">
        <ele>8.039</ele>
        <time>2021-06-17T09:12:10Z</time>
      </trkpt>
      <trkpt lat="36.45308" lon="-5.079995">
        <ele>8.256</ele>
        <time>2021-06-17T09:12:12Z</time>
      </trkpt>
      <trkpt lat="36.453132" lon="-5.079787">
        <ele>8.483</ele>
        <time>2021-06-17T09:12:13Z</time>
      </trkpt>
      <trkpt lat="36.453218" lon="-5.079394">
        <ele>8.325</ele>
        <time>2021-06-17T09:12:15Z</time>
      </trkpt>
      <trkpt lat="36.453249" lon="-5.079202">
        <ele>8.417</ele>
        <time>2021-06-17T09:12:16Z</time>
      </trkpt>
      <trkpt lat="36.453285" lon="-5.078827">
        <ele>8.208</ele>
        <time>2021-06-17T09:12:18Z</time>
      </trkpt>
      <trkpt lat="36.453297" lon="-5.07864">
        <ele>8.385</ele>
        <time>2021-06-17T09:12:19Z</time>
      </trkpt>
      <trkpt lat="36.453306" lon="-5.07845">
        <ele>8.424</ele>
        <time>2021-06-17T09:12:20Z</time>
      </trkpt>
      <trkpt lat="36.453324" lon="-5.078064">
        <ele>8.248</ele>
        <time>2021-06-17T09:12:22Z</time>
      </trkpt>
      <trkpt lat="36.453346" lon="-5.077671">
        <ele>8.331</ele>
        <time>2021-06-17T09:12:24Z</time>
      </trkpt>
      <trkpt lat="36.453367" lon="-5.077269">
        <ele>8.391</ele>
        <time>2021-06-17T09:12:26Z</time>
      </trkpt>
      <trkpt lat="36.453376" lon="-5.077061">
        <ele>8.642</ele>
        <time>2021-06-17T09:12:27Z</time>
      </trkpt>
      <trkpt lat="36.453384" lon="-5.076852">
        <ele>8.921</ele>
        <time>2021-06-17T09:12:28Z</time>
      </trkpt>
      <trkpt lat="36.453395" lon="-5.07664">
        <ele>9.218</ele>
        <time>2021-06-17T09:12:29Z</time>
      </trkpt>
      <trkpt lat="36.453414" lon="-5.076209">
        <ele>9.332</ele>
        <time>2021-06-17T09:12:31Z</time>
      </trkpt>
      <trkpt lat="36.453424" lon="-5.075992">
        <ele>9.692</ele>
        <time>2021-06-17T09:12:32Z</time>
      </trkpt>
      <trkpt lat="36.453444" lon="-5.075557">
        <ele>9.811</ele>
        <time>2021-06-17T09:12:34Z</time>
      </trkpt>
      <trkpt lat="36.453453" lon="-5.075338">
        <ele>9.808</ele>
        <time>2021-06-17T09:12:35Z</time>
      </trkpt>
      <trkpt lat="36.453477" lon="-5.074898">
        <ele>9.850</ele>
        <time>2021-06-17T09:12:37Z</time>
      </trkpt>
      <trkpt lat="36.453504" lon="-5.074458">
        <ele>9.949</ele>
        <time>2021-06-17T09:12:39Z</time>
      </trkpt>
      <trkpt lat="36.453515" lon="-5.07424">
        <ele>9.933</ele>
        <time>2021-06-17T09:12:40Z</time>
      </trkpt>
      <trkpt lat="36.453541" lon="-5.073799">
        <ele>9.656</ele>
        <time>2021-06-17T09:12:42Z</time>
      </trkpt>
      <trkpt lat="36.453551" lon="-5.073575">
        <ele>9.976</ele>
        <time>2021-06-17T09:12:43Z</time>
      </trkpt>
      <trkpt lat="36.45356" lon="-5.073351">
        <ele>9.877</ele>
        <time>2021-06-17T09:12:44Z</time>
      </trkpt>
      <trkpt lat="36.45358" lon="-5.072906">
        <ele>9.836</ele>
        <time>2021-06-17T09:12:46Z</time>
      </trkpt>
      <trkpt lat="36.453593" lon="-5.072683">
        <ele>9.943</ele>
        <time>2021-06-17T09:12:47Z</time>
      </trkpt>
      <trkpt lat="36.453605" lon="-5.072459">
        <ele>10.335</ele>
        <time>2021-06-17T09:12:48Z</time>
      </trkpt>
      <trkpt lat="36.453615" lon="-5.072237">
        <ele>10.886</ele>
        <time>2021-06-17T09:12:49Z</time>
      </trkpt>
      <trkpt lat="36.453636" lon="-5.071798">
        <ele>11.114</ele>
        <time>2021-06-17T09:12:51Z</time>
      </trkpt>
      <trkpt lat="36.453644" lon="-5.07158">
        <ele>11.408</ele>
        <time>2021-06-17T09:12:52Z</time>
      </trkpt>
      <trkpt lat="36.453666" lon="-5.071152">
        <ele>11.630</ele>
        <time>2021-06-17T09:12:54Z</time>
      </trkpt>
      <trkpt lat="36.453677" lon="-5.070939">
        <ele>11.799</ele>
        <time>2021-06-17T09:12:55Z</time>
      </trkpt>
      <trkpt lat="36.453696" lon="-5.070512">
        <ele>11.773</ele>
        <time>2021-06-17T09:12:57Z</time>
      </trkpt>
      <trkpt lat="36.453705" lon="-5.070293">
        <ele>11.696</ele>
        <time>2021-06-17T09:12:58Z</time>
      </trkpt>
      <trkpt lat="36.45372" lon="-5.069863">
        <ele>11.626</ele>
        <time>2021-06-17T09:13:00Z</time>
      </trkpt>
      <trkpt lat="36.453731" lon="-5.069647">
        <ele>11.817</ele>
        <time>2021-06-17T09:13:01Z</time>
      </trkpt>
      <trkpt lat="36.453753" lon="-5.06922">
        <ele>12.156</ele>
        <time>2021-06-17T09:13:03Z</time>
      </trkpt>
      <trkpt lat="36.453765" lon="-5.069005">
        <ele>12.573</ele>
        <time>2021-06-17T09:13:04Z</time>
      </trkpt>
      <trkpt lat="36.453786" lon="-5.068572">
        <ele>13.156</ele>
        <time>2021-06-17T09:13:06Z</time>
      </trkpt>
      <trkpt lat="36.453802" lon="-5.068142">
        <ele>13.759</ele>
        <time>2021-06-17T09:13:08Z</time>
      </trkpt>
      <trkpt lat="36.453821" lon="-5.067724">
        <ele>14.214</ele>
        <time>2021-06-17T09:13:10Z</time>
      </trkpt>
      <trkpt lat="36.45384" lon="-5.067307">
        <ele>14.808</ele>
        <time>2021-06-17T09:13:12Z</time>
      </trkpt>
      <trkpt lat="36.453856" lon="-5.066884">
        <ele>15.742</ele>
        <time>2021-06-17T09:13:14Z</time>
      </trkpt>
      <trkpt lat="36.453876" lon="-5.066459">
        <ele>16.391</ele>
        <time>2021-06-17T09:13:16Z</time>
      </trkpt>
      <trkpt lat="36.453893" lon="-5.066242">
        <ele>16.855</ele>
        <time>2021-06-17T09:13:17Z</time>
      </trkpt>
      <trkpt lat="36.453908" lon="-5.066027">
        <ele>17.498</ele>
        <time>2021-06-17T09:13:18Z</time>
      </trkpt>
      <trkpt lat="36.453938" lon="-5.0656">
        <ele>17.678</ele>
        <time>2021-06-17T09:13:20Z</time>
      </trkpt>
      <trkpt lat="36.453966" lon="-5.065163">
        <ele>18.269</ele>
        <time>2021-06-17T09:13:22Z</time>
      </trkpt>
      <trkpt lat="36.453991" lon="-5.064726">
        <ele>18.138</ele>
        <time>2021-06-17T09:13:24Z</time>
      </trkpt>
      <trkpt lat="36.454005" lon="-5.064506">
        <ele>18.235</ele>
        <time>2021-06-17T09:13:25Z</time>
      </trkpt>
      <trkpt lat="36.454028" lon="-5.064071">
        <ele>18.131</ele>
        <time>2021-06-17T09:13:27Z</time>
      </trkpt>
      <trkpt lat="36.454038" lon="-5.063856">
        <ele>17.961</ele>
        <time>2021-06-17T09:13:28Z</time>
      </trkpt>
      <trkpt lat="36.454075" lon="-5.063422">
        <ele>17.307</ele>
        <time>2021-06-17T09:13:30Z</time>
      </trkpt>
      <trkpt lat="36.45413" lon="-5.062983">
        <ele>17.008</ele>
        <time>2021-06-17T09:13:32Z</time>
      </trkpt>
      <trkpt lat="36.454208" lon="-5.062556">
        <ele>16.290</ele>
        <time>2021-06-17T09:13:34Z</time>
      </trkpt>
      <trkpt lat="36.454256" lon="-5.062338">
        <ele>15.949</ele>
        <time>2021-06-17T09:13:35Z</time>
      </trkpt>
      <trkpt lat="36.454376" lon="-5.061912">
        <ele>15.213</ele>
        <time>2021-06-17T09:13:37Z</time>
      </trkpt>
      <trkpt lat="36.454447" lon="-5.061696">
        <ele>14.496</ele>
        <time>2021-06-17T09:13:38Z</time>
      </trkpt>
      <trkpt lat="36.45461" lon="-5.061263">
        <ele>13.486</ele>
        <time>2021-06-17T09:13:40Z</time>
      </trkpt>
      <trkpt lat="36.454712" lon="-5.061046">
        <ele>12.817</ele>
        <time>2021-06-17T09:13:41Z</time>
      </trkpt>
      <trkpt lat="36.454925" lon="-5.060628">
        <ele>11.636</ele>
        <time>2021-06-17T09:13:43Z</time>
      </trkpt>
      <trkpt lat="36.455044" lon="-5.060426">
        <ele>10.943</ele>
        <time>2021-06-17T09:13:44Z</time>
      </trkpt>
      <trkpt lat="36.455279" lon="-5.060022">
        <ele>10.295</ele>
        <time>2021-06-17T09:13:46Z</time>
      </trkpt>
      <trkpt lat="36.455503" lon="-5.05963">
        <ele>9.649</ele>
        <time>2021-06-17T09:13:48Z</time>
      </trkpt>
      <trkpt lat="36.455617" lon="-5.059438">
        <ele>9.623</ele>
        <time>2021-06-17T09:13:49Z</time>
      </trkpt>
      <trkpt lat="36.455841" lon="-5.059061">
        <ele>9.608</ele>
        <time>2021-06-17T09:13:51Z</time>
      </trkpt>
      <trkpt lat="36.45595" lon="-5.058868">
        <ele>9.926</ele>
        <time>2021-06-17T09:13:52Z</time>
      </trkpt>
      <trkpt lat="36.456163" lon="-5.05848">
        <ele>9.845</ele>
        <time>2021-06-17T09:13:54Z</time>
      </trkpt>
      <trkpt lat="36.456262" lon="-5.058287">
        <ele>9.759</ele>
        <time>2021-06-17T09:13:55Z</time>
      </trkpt>
      <trkpt lat="36.456449" lon="-5.057896">
        <ele>9.512</ele>
        <time>2021-06-17T09:13:57Z</time>
      </trkpt>
      <trkpt lat="36.456534" lon="-5.057699">
        <ele>9.382</ele>
        <time>2021-06-17T09:13:58Z</time>
      </trkpt>
      <trkpt lat="36.456699" lon="-5.057298">
        <ele>9.513</ele>
        <time>2021-06-17T09:14:00Z</time>
      </trkpt>
      <trkpt lat="36.456775" lon="-5.057093">
        <ele>10.162</ele>
        <time>2021-06-17T09:14:01Z</time>
      </trkpt>
      <trkpt lat="36.456851" lon="-5.056884">
        <ele>10.239</ele>
        <time>2021-06-17T09:14:02Z</time>
      </trkpt>
      <trkpt lat="36.456999" lon="-5.05647">
        <ele>9.622</ele>
        <time>2021-06-17T09:14:04Z</time>
      </trkpt>
      <trkpt lat="36.45707" lon="-5.056264">
        <ele>9.562</ele>
        <time>2021-06-17T09:14:05Z</time>
      </trkpt>
      <trkpt lat="36.4572" lon="-5.055858">
        <ele>9.608</ele>
        <time>2021-06-17T09:14:07Z</time>
      </trkpt>
      <trkpt lat="36.45733" lon="-5.055463">
        <ele>10.308</ele>
        <time>2021-06-17T09:14:09Z</time>
      </trkpt>
      <trkpt lat="36.457403" lon="-5.055267">
        <ele>11.079</ele>
        <time>2021-06-17T09:14:10Z</time>
      </trkpt>
      <trkpt lat="36.457549" lon="-5.054877">
        <ele>11.798</ele>
        <time>2021-06-17T09:14:12Z</time>
      </trkpt>
      <trkpt lat="36.457621" lon="-5.054684">
        <ele>12.462</ele>
        <time>2021-06-17T09:14:13Z</time>
      </trkpt>
      <trkpt lat="36.45777" lon="-5.054304">
        <ele>13.395</ele>
        <time>2021-06-17T09:14:15Z</time>
      </trkpt>
      <trkpt lat="36.457844" lon="-5.054118">
        <ele>14.045</ele>
        <time>2021-06-17T09:14:16Z</time>
      </trkpt>
      <trkpt lat="36.45792" lon="-5.053936">
        <ele>15.076</ele>
        <time>2021-06-17T09:14:17Z</time>
      </trkpt>
      <trkpt lat="36.458084" lon="-5.053574">
        <ele>16.075</ele>
        <time>2021-06-17T09:14:19Z</time>
      </trkpt>
      <trkpt lat="36.458168" lon="-5.053389">
        <ele>16.632</ele>
        <time>2021-06-17T09:14:20Z</time>
      </trkpt>
      <trkpt lat="36.458244" lon="-5.053205">
        <ele>16.747</ele>
        <time>2021-06-17T09:14:21Z</time>
      </trkpt>
      <trkpt lat="36.4584" lon="-5.05284">
        <ele>16.729</ele>
        <time>2021-06-17T09:14:23Z</time>
      </trkpt>
      <trkpt lat="36.45849" lon="-5.052661">
        <ele>16.121</ele>
        <time>2021-06-17T09:14:24Z</time>
      </trkpt>
      <trkpt lat="36.458578" lon="-5.052475">
        <ele>15.908</ele>
        <time>2021-06-17T09:14:25Z</time>
      </trkpt>
      <trkpt lat="36.458666" lon="-5.052288">
        <ele>15.811</ele>
        <time>2021-06-17T09:14:26Z</time>
      </trkpt>
      <trkpt lat="36.458839" lon="-5.051911">
        <ele>14.950</ele>
        <time>2021-06-17T09:14:28Z</time>
      </trkpt>
      <trkpt lat="36.459012" lon="-5.051533">
        <ele>14.474</ele>
        <time>2021-06-17T09:14:30Z</time>
      </trkpt>
      <trkpt lat="36.459096" lon="-5.051343">
        <ele>13.827</ele>
        <time>2021-06-17T09:14:31Z</time>
      </trkpt>
      <trkpt lat="36.459265" lon="-5.050962">
        <ele>13.297</ele>
        <time>2021-06-17T09:14:33Z</time>
      </trkpt>
      <trkpt lat="36.459355" lon="-5.050768">
        <ele>13.178</ele>
        <time>2021-06-17T09:14:34Z</time>
      </trkpt>
      <trkpt lat="36.459536" lon="-5.050389">
        <ele>12.457</ele>
        <time>2021-06-17T09:14:36Z</time>
      </trkpt>
      <trkpt lat="36.459625" lon="-5.050203">
        <ele>12.314</ele>
        <time>2021-06-17T09:14:37Z</time>
      </trkpt>
      <trkpt lat="36.459712" lon="-5.05002">
        <ele>12.074</ele>
        <time>2021-06-17T09:14:38Z</time>
      </trkpt>
      <trkpt lat="36.459796" lon="-5.049833">
        <ele>11.656</ele>
        <time>2021-06-17T09:14:39Z</time>
      </trkpt>
      <trkpt lat="36.459971" lon="-5.049453">
        <ele>11.421</ele>
        <time>2021-06-17T09:14:41Z</time>
      </trkpt>
      <trkpt lat="36.460143" lon="-5.049071">
        <ele>11.208</ele>
        <time>2021-06-17T09:14:43Z</time>
      </trkpt>
      <trkpt lat="36.460305" lon="-5.048699">
        <ele>10.894</ele>
        <time>2021-06-17T09:14:45Z</time>
      </trkpt>
      <trkpt lat="36.460476" lon="-5.048329">
        <ele>10.613</ele>
        <time>2021-06-17T09:14:47Z</time>
      </trkpt>
      <trkpt lat="36.460563" lon="-5.048141">
        <ele>10.637</ele>
        <time>2021-06-17T09:14:48Z</time>
      </trkpt>
      <trkpt lat="36.460737" lon="-5.047768">
        <ele>10.640</ele>
        <time>2021-06-17T09:14:50Z</time>
      </trkpt>
      <trkpt lat="36.460817" lon="-5.047578">
        <ele>10.260</ele>
        <time>2021-06-17T09:14:51Z</time>
      </trkpt>
      <trkpt lat="36.460972" lon="-5.047185">
        <ele>10.571</ele>
        <time>2021-06-17T09:14:53Z</time>
      </trkpt>
      <trkpt lat="36.461108" lon="-5.04679">
        <ele>10.580</ele>
        <time>2021-06-17T09:14:55Z</time>
      </trkpt>
      <trkpt lat="36.46126" lon="-5.046393">
        <ele>10.447</ele>
        <time>2021-06-17T09:14:57Z</time>
      </trkpt>
      <trkpt lat="36.461337" lon="-5.046194">
        <ele>10.425</ele>
        <time>2021-06-17T09:14:58Z</time>
      </trkpt>
      <trkpt lat="36.461488" lon="-5.045799">
        <ele>10.526</ele>
        <time>2021-06-17T09:15:00Z</time>
      </trkpt>
      <trkpt lat="36.461554" lon="-5.045606">
        <ele>10.308</ele>
        <time>2021-06-17T09:15:01Z</time>
      </trkpt>
      <trkpt lat="36.461675" lon="-5.045223">
        <ele>10.208</ele>
        <time>2021-06-17T09:15:03Z</time>
      </trkpt>
      <trkpt lat="36.461802" lon="-5.044842">
        <ele>10.229</ele>
        <time>2021-06-17T09:15:05Z</time>
      </trkpt>
      <trkpt lat="36.461918" lon="-5.044475">
        <ele>10.038</ele>
        <time>2021-06-17T09:15:07Z</time>
      </trkpt>
      <trkpt lat="36.462002" lon="-5.044112">
        <ele>9.982</ele>
        <time>2021-06-17T09:15:09Z</time>
      </trkpt>
      <trkpt lat="36.462083" lon="-5.043739">
        <ele>10.485</ele>
        <time>2021-06-17T09:15:11Z</time>
      </trkpt>
      <trkpt lat="36.462163" lon="-5.043363">
        <ele>10.865</ele>
        <time>2021-06-17T09:15:13Z</time>
      </trkpt>
      <trkpt lat="36.46225" lon="-5.042993">
        <ele>10.716</ele>
        <time>2021-06-17T09:15:15Z</time>
      </trkpt>
      <trkpt lat="36.462289" lon="-5.042808">
        <ele>10.515</ele>
        <time>2021-06-17T09:15:16Z</time>
      </trkpt>
      <trkpt lat="36.46233" lon="-5.042624">
        <ele>10.312</ele>
        <time>2021-06-17T09:15:17Z</time>
      </trkpt>
      <trkpt lat="36.462414" lon="-5.042257">
        <ele>10.367</ele>
        <time>2021-06-17T09:15:19Z</time>
      </trkpt>
      <trkpt lat="36.462457" lon="-5.04207">
        <ele>10.281</ele>
        <time>2021-06-17T09:15:20Z</time>
      </trkpt>
      <trkpt lat="36.462504" lon="-5.041881">
        <ele>10.519</ele>
        <time>2021-06-17T09:15:21Z</time>
      </trkpt>
      <trkpt lat="36.462594" lon="-5.0415">
        <ele>10.708</ele>
        <time>2021-06-17T09:15:23Z</time>
      </trkpt>
      <trkpt lat="36.462685" lon="-5.041108">
        <ele>10.263</ele>
        <time>2021-06-17T09:15:25Z</time>
      </trkpt>
      <trkpt lat="36.462774" lon="-5.040713">
        <ele>10.062</ele>
        <time>2021-06-17T09:15:27Z</time>
      </trkpt>
      <trkpt lat="36.462819" lon="-5.040514">
        <ele>10.046</ele>
        <time>2021-06-17T09:15:28Z</time>
      </trkpt>
      <trkpt lat="36.462867" lon="-5.040317">
        <ele>9.819</ele>
        <time>2021-06-17T09:15:29Z</time>
      </trkpt>
      <trkpt lat="36.462913" lon="-5.040118">
        <ele>9.629</ele>
        <time>2021-06-17T09:15:30Z</time>
      </trkpt>
      <trkpt lat="36.463011" lon="-5.03972">
        <ele>9.020</ele>
        <time>2021-06-17T09:15:32Z</time>
      </trkpt>
      <trkpt lat="36.463063" lon="-5.039522">
        <ele>8.379</ele>
        <time>2021-06-17T09:15:33Z</time>
      </trkpt>
      <trkpt lat="36.463112" lon="-5.039319">
        <ele>8.026</ele>
        <time>2021-06-17T09:15:34Z</time>
      </trkpt>
      <trkpt lat="36.463212" lon="-5.03891">
        <ele>7.767</ele>
        <time>2021-06-17T09:15:36Z</time>
      </trkpt>
      <trkpt lat="36.463304" lon="-5.038502">
        <ele>7.281</ele>
        <time>2021-06-17T09:15:38Z</time>
      </trkpt>
      <trkpt lat="36.463352" lon="-5.038291">
        <ele>6.619</ele>
        <time>2021-06-17T09:15:39Z</time>
      </trkpt>
      <trkpt lat="36.46345" lon="-5.037875">
        <ele>6.408</ele>
        <time>2021-06-17T09:15:41Z</time>
      </trkpt>
      <trkpt lat="36.463498" lon="-5.03767">
        <ele>6.263</ele>
        <time>2021-06-17T09:15:42Z</time>
      </trkpt>
      <trkpt lat="36.463544" lon="-5.037467">
        <ele>5.852</ele>
        <time>2021-06-17T09:15:43Z</time>
      </trkpt>
      <trkpt lat="36.463632" lon="-5.037065">
        <ele>5.846</ele>
        <time>2021-06-17T09:15:45Z</time>
      </trkpt>
      <trkpt lat="36.463673" lon="-5.036863">
        <ele>5.999</ele>
        <time>2021-06-17T09:15:46Z</time>
      </trkpt>
      <trkpt lat="36.463768" lon="-5.036465">
        <ele>6.339</ele>
        <time>2021-06-17T09:15:48Z</time>
      </trkpt>
      <trkpt lat="36.463872" lon="-5.036069">
        <ele>6.360</ele>
        <time>2021-06-17T09:15:50Z</time>
      </trkpt>
      <trkpt lat="36.463965" lon="-5.03567">
        <ele>6.389</ele>
        <time>2021-06-17T09:15:52Z</time>
      </trkpt>
      <trkpt lat="36.464071" lon="-5.035265">
        <ele>6.616</ele>
        <time>2021-06-17T09:15:54Z</time>
      </trkpt>
      <trkpt lat="36.464121" lon="-5.03506">
        <ele>6.962</ele>
        <time>2021-06-17T09:15:55Z</time>
      </trkpt>
      <trkpt lat="36.46422" lon="-5.034662">
        <ele>7.183</ele>
        <time>2021-06-17T09:15:57Z</time>
      </trkpt>
      <trkpt lat="36.464311" lon="-5.034279">
        <ele>7.611</ele>
        <time>2021-06-17T09:15:59Z</time>
      </trkpt>
      <trkpt lat="36.464396" lon="-5.033906">
        <ele>7.908</ele>
        <time>2021-06-17T09:16:01Z</time>
      </trkpt>
      <trkpt lat="36.464485" lon="-5.033539">
        <ele>8.563</ele>
        <time>2021-06-17T09:16:03Z</time>
      </trkpt>
      <trkpt lat="36.464576" lon="-5.033169">
        <ele>9.242</ele>
        <time>2021-06-17T09:16:05Z</time>
      </trkpt>
      <trkpt lat="36.464618" lon="-5.032989">
        <ele>9.566</ele>
        <time>2021-06-17T09:16:06Z</time>
      </trkpt>
      <trkpt lat="36.464658" lon="-5.032817">
        <ele>9.999</ele>
        <time>2021-06-17T09:16:07Z</time>
      </trkpt>
      <trkpt lat="36.464717" lon="-5.032493">
        <ele>10.329</ele>
        <time>2021-06-17T09:16:09Z</time>
      </trkpt>
      <trkpt lat="36.464788" lon="-5.032201">
        <ele>10.620</ele>
        <time>2021-06-17T09:16:11Z</time>
      </trkpt>
      <trkpt lat="36.464818" lon="-5.032057">
        <ele>11.389</ele>
        <time>2021-06-17T09:16:12Z</time>
      </trkpt>
      <trkpt lat="36.464849" lon="-5.031912">
        <ele>11.446</ele>
        <time>2021-06-17T09:16:13Z</time>
      </trkpt>
      <trkpt lat="36.464886" lon="-5.031764">
        <ele>11.557</ele>
        <time>2021-06-17T09:16:14Z</time>
      </trkpt>
      <trkpt lat="36.464969" lon="-5.031466">
        <ele>11.500</ele>
        <time>2021-06-17T09:16:16Z</time>
      </trkpt>
      <trkpt lat="36.465009" lon="-5.031318">
        <ele>11.720</ele>
        <time>2021-06-17T09:16:17Z</time>
      </trkpt>
      <trkpt lat="36.465088" lon="-5.031021">
        <ele>11.208</ele>
        <time>2021-06-17T09:16:19Z</time>
      </trkpt>
      <trkpt lat="36.465161" lon="-5.030723">
        <ele>11.012</ele>
        <time>2021-06-17T09:16:21Z</time>
      </trkpt>
      <trkpt lat="36.465239" lon="-5.03042">
        <ele>11.231</ele>
        <time>2021-06-17T09:16:23Z</time>
      </trkpt>
      <trkpt lat="36.465304" lon="-5.030124">
        <ele>11.475</ele>
        <time>2021-06-17T09:16:25Z</time>
      </trkpt>
      <trkpt lat="36.465374" lon="-5.029828">
        <ele>11.258</ele>
        <time>2021-06-17T09:16:27Z</time>
      </trkpt>
      <trkpt lat="36.465446" lon="-5.029537">
        <ele>11.828</ele>
        <time>2021-06-17T09:16:29Z</time>
      </trkpt>
      <trkpt lat="36.465502" lon="-5.029247">
        <ele>12.589</ele>
        <time>2021-06-17T09:16:31Z</time>
      </trkpt>
      <trkpt lat="36.465562" lon="-5.028964">
        <ele>12.848</ele>
        <time>2021-06-17T09:16:33Z</time>
      </trkpt>
      <trkpt lat="36.465604" lon="-5.028819">
        <ele>12.625</ele>
        <time>2021-06-17T09:16:34Z</time>
      </trkpt>
      <trkpt lat="36.46564" lon="-5.028669">
        <ele>12.568</ele>
        <time>2021-06-17T09:16:35Z</time>
      </trkpt>
      <trkpt lat="36.465713" lon="-5.028365">
        <ele>12.242</ele>
        <time>2021-06-17T09:16:37Z</time>
      </trkpt>
      <trkpt lat="36.465782" lon="-5.028063">
        <ele>12.426</ele>
        <time>2021-06-17T09:16:39Z</time>
      </trkpt>
      <trkpt lat="36.465824" lon="-5.027911">
        <ele>12.508</ele>
        <time>2021-06-17T09:16:40Z</time>
      </trkpt>
      <trkpt lat="36.465897" lon="-5.027625">
        <ele>12.863</ele>
        <time>2021-06-17T09:16:42Z</time>
      </trkpt>
      <trkpt lat="36.465927" lon="-5.027494">
        <ele>13.122</ele>
        <time>2021-06-17T09:16:43Z</time>
      </trkpt>
      <trkpt lat="36.465984" lon="-5.027252">
        <ele>13.346</ele>
        <time>2021-06-17T09:16:45Z</time>
      </trkpt>
      <trkpt lat="36.466016" lon="-5.027131">
        <ele>13.959</ele>
        <time>2021-06-17T09:16:46Z</time>
      </trkpt>
      <trkpt lat="36.466099" lon="-5.026869">
        <ele>14.029</ele>
        <time>2021-06-17T09:16:48Z</time>
      </trkpt>
      <trkpt lat="36.466147" lon="-5.026716">
        <ele>14.080</ele>
        <time>2021-06-17T09:16:49Z</time>
      </trkpt>
      <trkpt lat="36.466233" lon="-5.026366">
        <ele>14.139</ele>
        <time>2021-06-17T09:16:51Z</time>
      </trkpt>
      <trkpt lat="36.466324" lon="-5.025987">
        <ele>14.636</ele>
        <time>2021-06-17T09:16:53Z</time>
      </trkpt>
      <trkpt lat="36.466367" lon="-5.025793">
        <ele>14.892</ele>
        <time>2021-06-17T09:16:54Z</time>
      </trkpt>
      <trkpt lat="36.466412" lon="-5.025598">
        <ele>14.773</ele>
        <time>2021-06-17T09:16:55Z</time>
      </trkpt>
      <trkpt lat="36.466461" lon="-5.025405">
        <ele>14.220</ele>
        <time>2021-06-17T09:16:56Z</time>
      </trkpt>
      <trkpt lat="36.466552" lon="-5.024995">
        <ele>13.808</ele>
        <time>2021-06-17T09:16:58Z</time>
      </trkpt>
      <trkpt lat="36.4666" lon="-5.024786">
        <ele>13.126</ele>
        <time>2021-06-17T09:16:59Z</time>
      </trkpt>
      <trkpt lat="36.466651" lon="-5.024574">
        <ele>12.495</ele>
        <time>2021-06-17T09:17:00Z</time>
      </trkpt>
      <trkpt lat="36.466755" lon="-5.024143">
        <ele>12.019</ele>
        <time>2021-06-17T09:17:02Z</time>
      </trkpt>
      <trkpt lat="36.466857" lon="-5.02371">
        <ele>11.442</ele>
        <time>2021-06-17T09:17:04Z</time>
      </trkpt>
      <trkpt lat="36.466951" lon="-5.023269">
        <ele>11.022</ele>
        <time>2021-06-17T09:17:06Z</time>
      </trkpt>
      <trkpt lat="36.467045" lon="-5.022827">
        <ele>10.463</ele>
        <time>2021-06-17T09:17:08Z</time>
      </trkpt>
      <trkpt lat="36.467087" lon="-5.022607">
        <ele>10.242</ele>
        <time>2021-06-17T09:17:09Z</time>
      </trkpt>
      <trkpt lat="36.467128" lon="-5.022389">
        <ele>10.589</ele>
        <time>2021-06-17T09:17:10Z</time>
      </trkpt>
      <trkpt lat="36.467176" lon="-5.022175">
        <ele>10.888</ele>
        <time>2021-06-17T09:17:11Z</time>
      </trkpt>
      <trkpt lat="36.467279" lon="-5.021758">
        <ele>11.424</ele>
        <time>2021-06-17T09:17:13Z</time>
      </trkpt>
      <trkpt lat="36.467381" lon="-5.021344">
        <ele>12.326</ele>
        <time>2021-06-17T09:17:15Z</time>
      </trkpt>
      <trkpt lat="36.467427" lon="-5.02114">
        <ele>13.008</ele>
        <time>2021-06-17T09:17:16Z</time>
      </trkpt>
      <trkpt lat="36.467474" lon="-5.020938">
        <ele>14.085</ele>
        <time>2021-06-17T09:17:17Z</time>
      </trkpt>
      <trkpt lat="36.467571" lon="-5.020539">
        <ele>14.834</ele>
        <time>2021-06-17T09:17:19Z</time>
      </trkpt>
      <trkpt lat="36.467622" lon="-5.020342">
        <ele>15.478</ele>
        <time>2021-06-17T09:17:20Z</time>
      </trkpt>
      <trkpt lat="36.467673" lon="-5.020145">
        <ele>15.991</ele>
        <time>2021-06-17T09:17:21Z</time>
      </trkpt>
      <trkpt lat="36.467769" lon="-5.019755">
        <ele>16.431</ele>
        <time>2021-06-17T09:17:23Z</time>
      </trkpt>
      <trkpt lat="36.467822" lon="-5.019561">
        <ele>16.372</ele>
        <time>2021-06-17T09:17:24Z</time>
      </trkpt>
      <trkpt lat="36.467919" lon="-5.019165">
        <ele>16.851</ele>
        <time>2021-06-17T09:17:26Z</time>
      </trkpt>
      <trkpt lat="36.468012" lon="-5.018767">
        <ele>17.038</ele>
        <time>2021-06-17T09:17:28Z</time>
      </trkpt>
      <trkpt lat="36.468059" lon="-5.018568">
        <ele>17.446</ele>
        <time>2021-06-17T09:17:29Z</time>
      </trkpt>
      <trkpt lat="36.468154" lon="-5.018168">
        <ele>17.588</ele>
        <time>2021-06-17T09:17:31Z</time>
      </trkpt>
      <trkpt lat="36.4682" lon="-5.017965">
        <ele>17.816</ele>
        <time>2021-06-17T09:17:32Z</time>
      </trkpt>
      <trkpt lat="36.468248" lon="-5.017761">
        <ele>17.608</ele>
        <time>2021-06-17T09:17:33Z</time>
      </trkpt>
      <trkpt lat="36.468336" lon="-5.017355">
        <ele>17.441</ele>
        <time>2021-06-17T09:17:35Z</time>
      </trkpt>
      <trkpt lat="36.468383" lon="-5.017149">
        <ele>17.090</ele>
        <time>2021-06-17T09:17:36Z</time>
      </trkpt>
      <trkpt lat="36.468481" lon="-5.016742">
        <ele>17.254</ele>
        <time>2021-06-17T09:17:38Z</time>
      </trkpt>
      <trkpt lat="36.46853" lon="-5.016542">
        <ele>17.447</ele>
        <time>2021-06-17T09:17:39Z</time>
      </trkpt>
      <trkpt lat="36.46858" lon="-5.016347">
        <ele>17.427</ele>
        <time>2021-06-17T09:17:40Z</time>
      </trkpt>
      <trkpt lat="36.468678" lon="-5.015962">
        <ele>17.788</ele>
        <time>2021-06-17T09:17:42Z</time>
      </trkpt>
      <trkpt lat="36.468727" lon="-5.01577">
        <ele>18.377</ele>
        <time>2021-06-17T09:17:43Z</time>
      </trkpt>
      <trkpt lat="36.46882" lon="-5.015386">
        <ele>18.594</ele>
        <time>2021-06-17T09:17:45Z</time>
      </trkpt>
      <trkpt lat="36.468909" lon="-5.015004">
        <ele>19.057</ele>
        <time>2021-06-17T09:17:47Z</time>
      </trkpt>
      <trkpt lat="36.468997" lon="-5.014617">
        <ele>19.600</ele>
        <time>2021-06-17T09:17:49Z</time>
      </trkpt>
      <trkpt lat="36.469087" lon="-5.01423">
        <ele>20.220</ele>
        <time>2021-06-17T09:17:51Z</time>
      </trkpt>
      <trkpt lat="36.469138" lon="-5.014038">
        <ele>20.408</ele>
        <time>2021-06-17T09:17:52Z</time>
      </trkpt>
      <trkpt lat="36.469255" lon="-5.013662">
        <ele>21.352</ele>
        <time>2021-06-17T09:17:54Z</time>
      </trkpt>
      <trkpt lat="36.469321" lon="-5.013475">
        <ele>21.921</ele>
        <time>2021-06-17T09:17:55Z</time>
      </trkpt>
      <trkpt lat="36.469483" lon="-5.013106">
        <ele>22.315</ele>
        <time>2021-06-17T09:17:57Z</time>
      </trkpt>
      <trkpt lat="36.46958" lon="-5.012935">
        <ele>22.658</ele>
        <time>2021-06-17T09:17:58Z</time>
      </trkpt>
      <trkpt lat="36.469677" lon="-5.012763">
        <ele>23.038</ele>
        <time>2021-06-17T09:17:59Z</time>
      </trkpt>
      <trkpt lat="36.469777" lon="-5.012598">
        <ele>23.569</ele>
        <time>2021-06-17T09:18:00Z</time>
      </trkpt>
      <trkpt lat="36.469997" lon="-5.012304">
        <ele>24.128</ele>
        <time>2021-06-17T09:18:02Z</time>
      </trkpt>
      <trkpt lat="36.470239" lon="-5.012046">
        <ele>24.235</ele>
        <time>2021-06-17T09:18:04Z</time>
      </trkpt>
      <trkpt lat="36.470482" lon="-5.011812">
        <ele>23.736</ele>
        <time>2021-06-17T09:18:06Z</time>
      </trkpt>
      <trkpt lat="36.470742" lon="-5.011619">
        <ele>23.117</ele>
        <time>2021-06-17T09:18:08Z</time>
      </trkpt>
      <trkpt lat="36.471001" lon="-5.011424">
        <ele>22.318</ele>
        <time>2021-06-17T09:18:10Z</time>
      </trkpt>
      <trkpt lat="36.471141" lon="-5.011337">
        <ele>21.408</ele>
        <time>2021-06-17T09:18:11Z</time>
      </trkpt>
      <trkpt lat="36.471284" lon="-5.011251">
        <ele>20.990</ele>
        <time>2021-06-17T09:18:12Z</time>
      </trkpt>
      <trkpt lat="36.471565" lon="-5.011053">
        <ele>20.219</ele>
        <time>2021-06-17T09:18:14Z</time>
      </trkpt>
      <trkpt lat="36.471698" lon="-5.010938">
        <ele>19.773</ele>
        <time>2021-06-17T09:18:15Z</time>
      </trkpt>
      <trkpt lat="36.471823" lon="-5.010809">
        <ele>19.696</ele>
        <time>2021-06-17T09:18:16Z</time>
      </trkpt>
      <trkpt lat="36.472046" lon="-5.010513">
        <ele>19.296</ele>
        <time>2021-06-17T09:18:18Z</time>
      </trkpt>
      <trkpt lat="36.472238" lon="-5.010188">
        <ele>19.057</ele>
        <time>2021-06-17T09:18:20Z</time>
      </trkpt>
      <trkpt lat="36.472377" lon="-5.009823">
        <ele>19.286</ele>
        <time>2021-06-17T09:18:22Z</time>
      </trkpt>
      <trkpt lat="36.472432" lon="-5.00963">
        <ele>19.233</ele>
        <time>2021-06-17T09:18:23Z</time>
      </trkpt>
      <trkpt lat="36.472481" lon="-5.009434">
        <ele>19.857</ele>
        <time>2021-06-17T09:18:24Z</time>
      </trkpt>
      <trkpt lat="36.472551" lon="-5.00904">
        <ele>20.200</ele>
        <time>2021-06-17T09:18:26Z</time>
      </trkpt>
      <trkpt lat="36.472607" lon="-5.00864">
        <ele>20.520</ele>
        <time>2021-06-17T09:18:28Z</time>
      </trkpt>
      <trkpt lat="36.472634" lon="-5.008436">
        <ele>20.508</ele>
        <time>2021-06-17T09:18:29Z</time>
      </trkpt>
      <trkpt lat="36.472665" lon="-5.008232">
        <ele>20.132</ele>
        <time>2021-06-17T09:18:30Z</time>
      </trkpt>
      <trkpt lat="36.472726" lon="-5.007823">
        <ele>20.211</ele>
        <time>2021-06-17T09:18:32Z</time>
      </trkpt>
      <trkpt lat="36.472751" lon="-5.007619">
        <ele>20.225</ele>
        <time>2021-06-17T09:18:33Z</time>
      </trkpt>
      <trkpt lat="36.472808" lon="-5.007213">
        <ele>20.628</ele>
        <time>2021-06-17T09:18:35Z</time>
      </trkpt>
      <trkpt lat="36.472862" lon="-5.006803">
        <ele>21.378</ele>
        <time>2021-06-17T09:18:37Z</time>
      </trkpt>
      <trkpt lat="36.472889" lon="-5.006597">
        <ele>22.129</ele>
        <time>2021-06-17T09:18:38Z</time>
      </trkpt>
      <trkpt lat="36.472919" lon="-5.006391">
        <ele>22.518</ele>
        <time>2021-06-17T09:18:39Z</time>
      </trkpt>
      <trkpt lat="36.472951" lon="-5.006185">
        <ele>23.095</ele>
        <time>2021-06-17T09:18:40Z</time>
      </trkpt>
      <trkpt lat="36.473017" lon="-5.005771">
        <ele>23.565</ele>
        <time>2021-06-17T09:18:42Z</time>
      </trkpt>
      <trkpt lat="36.473086" lon="-5.00536">
        <ele>24.268</ele>
        <time>2021-06-17T09:18:44Z</time>
      </trkpt>
      <trkpt lat="36.473123" lon="-5.005155">
        <ele>24.814</ele>
        <time>2021-06-17T09:18:45Z</time>
      </trkpt>
      <trkpt lat="36.473213" lon="-5.004746">
        <ele>25.908</ele>
        <time>2021-06-17T09:18:47Z</time>
      </trkpt>
      <trkpt lat="36.473267" lon="-5.004545">
        <ele>26.323</ele>
        <time>2021-06-17T09:18:48Z</time>
      </trkpt>
      <trkpt lat="36.473328" lon="-5.004345">
        <ele>26.712</ele>
        <time>2021-06-17T09:18:49Z</time>
      </trkpt>
      <trkpt lat="36.473393" lon="-5.004147">
        <ele>26.686</ele>
        <time>2021-06-17T09:18:50Z</time>
      </trkpt>
      <trkpt lat="36.47346" lon="-5.003951">
        <ele>26.479</ele>
        <time>2021-06-17T09:18:51Z</time>
      </trkpt>
      <trkpt lat="36.473604" lon="-5.003567">
        <ele>25.929</ele>
        <time>2021-06-17T09:18:53Z</time>
      </trkpt>
      <trkpt lat="36.473753" lon="-5.003193">
        <ele>26.040</ele>
        <time>2021-06-17T09:18:55Z</time>
      </trkpt>
      <trkpt lat="36.473822" lon="-5.003003">
        <ele>26.099</ele>
        <time>2021-06-17T09:18:56Z</time>
      </trkpt>
      <trkpt lat="36.473962" lon="-5.002629">
        <ele>25.946</ele>
        <time>2021-06-17T09:18:58Z</time>
      </trkpt>
      <trkpt lat="36.474105" lon="-5.002245">
        <ele>25.646</ele>
        <time>2021-06-17T09:19:00Z</time>
      </trkpt>
      <trkpt lat="36.474253" lon="-5.001858">
        <ele>25.688</ele>
        <time>2021-06-17T09:19:02Z</time>
      </trkpt>
      <trkpt lat="36.474331" lon="-5.001662">
        <ele>25.716</ele>
        <time>2021-06-17T09:19:03Z</time>
      </trkpt>
      <trkpt lat="36.474501" lon="-5.001282">
        <ele>25.708</ele>
        <time>2021-06-17T09:19:05Z</time>
      </trkpt>
      <trkpt lat="36.47468" lon="-5.000912">
        <ele>25.241</ele>
        <time>2021-06-17T09:19:07Z</time>
      </trkpt>
      <trkpt lat="36.474884" lon="-5.000558">
        <ele>24.590</ele>
        <time>2021-06-17T09:19:09Z</time>
      </trkpt>
      <trkpt lat="36.475102" lon="-5.000236">
        <ele>23.824</ele>
        <time>2021-06-17T09:19:11Z</time>
      </trkpt>
      <trkpt lat="36.475207" lon="-5.00007">
        <ele>23.237</ele>
        <time>2021-06-17T09:19:12Z</time>
      </trkpt>
      <trkpt lat="36.475311" lon="-4.999903">
        <ele>22.867</ele>
        <time>2021-06-17T09:19:13Z</time>
      </trkpt>
      <trkpt lat="36.475418" lon="-4.99974">
        <ele>21.938</ele>
        <time>2021-06-17T09:19:14Z</time>
      </trkpt>
      <trkpt lat="36.475633" lon="-4.999408">
        <ele>21.197</ele>
        <time>2021-06-17T09:19:16Z</time>
      </trkpt>
      <trkpt lat="36.475845" lon="-4.999066">
        <ele>20.484</ele>
        <time>2021-06-17T09:19:18Z</time>
      </trkpt>
      <trkpt lat="36.47606" lon="-4.998732">
        <ele>19.577</ele>
        <time>2021-06-17T09:19:20Z</time>
      </trkpt>
      <trkpt lat="36.476167" lon="-4.998568">
        <ele>18.961</ele>
        <time>2021-06-17T09:19:21Z</time>
      </trkpt>
      <trkpt lat="36.476272" lon="-4.998403">
        <ele>18.827</ele>
        <time>2021-06-17T09:19:22Z</time>
      </trkpt>
      <trkpt lat="36.476377" lon="-4.99824">
        <ele>18.508</ele>
        <time>2021-06-17T09:19:23Z</time>
      </trkpt>
      <trkpt lat="36.476589" lon="-4.997917">
        <ele>18.574</ele>
        <time>2021-06-17T09:19:25Z</time>
      </trkpt>
      <trkpt lat="36.476797" lon="-4.997589">
        <ele>18.913</ele>
        <time>2021-06-17T09:19:27Z</time>
      </trkpt>
      <trkpt lat="36.476903" lon="-4.997424">
        <ele>19.647</ele>
        <time>2021-06-17T09:19:28Z</time>
      </trkpt>
      <trkpt lat="36.477117" lon="-4.997101">
        <ele>20.530</ele>
        <time>2021-06-17T09:19:30Z</time>
      </trkpt>
      <trkpt lat="36.477221" lon="-4.996937">
        <ele>21.180</ele>
        <time>2021-06-17T09:19:31Z</time>
      </trkpt>
      <trkpt lat="36.477422" lon="-4.99662">
        <ele>21.721</ele>
        <time>2021-06-17T09:19:33Z</time>
      </trkpt>
      <trkpt lat="36.477518" lon="-4.996465">
        <ele>22.120</ele>
        <time>2021-06-17T09:19:34Z</time>
      </trkpt>
      <trkpt lat="36.477702" lon="-4.996165">
        <ele>22.767</ele>
        <time>2021-06-17T09:19:36Z</time>
      </trkpt>
      <trkpt lat="36.477792" lon="-4.99602">
        <ele>23.275</ele>
        <time>2021-06-17T09:19:37Z</time>
      </trkpt>
      <trkpt lat="36.477885" lon="-4.995874">
        <ele>23.228</ele>
        <time>2021-06-17T09:19:38Z</time>
      </trkpt>
      <trkpt lat="36.478082" lon="-4.995574">
        <ele>23.220</ele>
        <time>2021-06-17T09:19:40Z</time>
      </trkpt>
      <trkpt lat="36.478182" lon="-4.995417">
        <ele>23.208</ele>
        <time>2021-06-17T09:19:41Z</time>
      </trkpt>
      <trkpt lat="36.478388" lon="-4.995098">
        <ele>23.074</ele>
        <time>2021-06-17T09:19:43Z</time>
      </trkpt>
      <trkpt lat="36.478494" lon="-4.994935">
        <ele>23.113</ele>
        <time>2021-06-17T09:19:44Z</time>
      </trkpt>
      <trkpt lat="36.478719" lon="-4.994619">
        <ele>23.637</ele>
        <time>2021-06-17T09:19:46Z</time>
      </trkpt>
      <trkpt lat="36.478896" lon="-4.994286">
        <ele>23.750</ele>
        <time>2021-06-17T09:19:48Z</time>
      </trkpt>
      <trkpt lat="36.478989" lon="-4.994119">
        <ele>24.160</ele>
        <time>2021-06-17T09:19:49Z</time>
      </trkpt>
      <trkpt lat="36.484728" lon="-4.982669">
        <ele>23.971</ele>
        <time>2021-06-17T09:20:56Z</time>
      </trkpt>
      <trkpt lat="36.48476" lon="-4.982356">
        <ele>23.820</ele>
        <time>2021-06-17T09:20:58Z</time>
      </trkpt>
      <trkpt lat="36.484799" lon="-4.98206">
        <ele>23.847</ele>
        <time>2021-06-17T09:21:00Z</time>
      </trkpt>
      <trkpt lat="36.48482" lon="-4.981924">
        <ele>23.867</ele>
        <time>2021-06-17T09:21:01Z</time>
      </trkpt>
      <trkpt lat="36.484854" lon="-4.981658">
        <ele>23.881</ele>
        <time>2021-06-17T09:21:03Z</time>
      </trkpt>
      <trkpt lat="36.484862" lon="-4.981541">
        <ele>23.819</ele>
        <time>2021-06-17T09:21:04Z</time>
      </trkpt>
      <trkpt lat="36.484866" lon="-4.981436">
        <ele>23.808</ele>
        <time>2021-06-17T09:21:05Z</time>
      </trkpt>
      <trkpt lat="36.484837" lon="-4.981246">
        <ele>23.853</ele>
        <time>2021-06-17T09:21:07Z</time>
      </trkpt>
      <trkpt lat="36.484736" lon="-4.981117">
        <ele>23.842</ele>
        <time>2021-06-17T09:21:09Z</time>
      </trkpt>
      <trkpt lat="36.484628" lon="-4.981062">
        <ele>23.886</ele>
        <time>2021-06-17T09:21:11Z</time>
      </trkpt>
      <trkpt lat="36.484572" lon="-4.981066">
        <ele>23.879</ele>
        <time>2021-06-17T09:21:13Z</time>
      </trkpt>
      <trkpt lat="36.484514" lon="-4.981067">
        <ele>23.839</ele>
        <time>2021-06-17T09:21:16Z</time>
      </trkpt>
      <trkpt lat="36.484467" lon="-4.981063">
        <ele>23.490</ele>
        <time>2021-06-17T09:21:22Z</time>
      </trkpt>
      <trkpt lat="36.484415" lon="-4.981061">
        <ele>23.049</ele>
        <time>2021-06-17T09:21:27Z</time>
      </trkpt>
      <trkpt lat="36.484323" lon="-4.981027">
        <ele>22.856</ele>
        <time>2021-06-17T09:21:29Z</time>
      </trkpt>
      <trkpt lat="36.484267" lon="-4.980972">
        <ele>22.799</ele>
        <time>2021-06-17T09:21:30Z</time>
      </trkpt>
      <trkpt lat="36.484224" lon="-4.980824">
        <ele>22.607</ele>
        <time>2021-06-17T09:21:32Z</time>
      </trkpt>
      <trkpt lat="36.484289" lon="-4.980706">
        <ele>22.627</ele>
        <time>2021-06-17T09:21:34Z</time>
      </trkpt>
      <trkpt lat="36.484345" lon="-4.98068">
        <ele>22.608</ele>
        <time>2021-06-17T09:21:35Z</time>
      </trkpt>
      <trkpt lat="36.484458" lon="-4.980696">
        <ele>22.646</ele>
        <time>2021-06-17T09:21:37Z</time>
      </trkpt>
      <trkpt lat="36.484514" lon="-4.980719">
        <ele>22.645</ele>
        <time>2021-06-17T09:21:38Z</time>
      </trkpt>
      <trkpt lat="36.484644" lon="-4.980788">
        <ele>22.699</ele>
        <time>2021-06-17T09:21:40Z</time>
      </trkpt>
      <trkpt lat="36.484725" lon="-4.98082">
        <ele>22.632</ele>
        <time>2021-06-17T09:21:41Z</time>
      </trkpt>
      <trkpt lat="36.484929" lon="-4.980871">
        <ele>22.662</ele>
        <time>2021-06-17T09:21:43Z</time>
      </trkpt>
      <trkpt lat="36.485164" lon="-4.980934">
        <ele>22.683</ele>
        <time>2021-06-17T09:21:45Z</time>
      </trkpt>
      <trkpt lat="36.485414" lon="-4.981022">
        <ele>22.612</ele>
        <time>2021-06-17T09:21:47Z</time>
      </trkpt>
      <trkpt lat="36.485526" lon="-4.98108">
        <ele>22.649</ele>
        <time>2021-06-17T09:21:48Z</time>
      </trkpt>
      <trkpt lat="36.485736" lon="-4.981198">
        <ele>22.676</ele>
        <time>2021-06-17T09:21:50Z</time>
      </trkpt>
      <trkpt lat="36.485839" lon="-4.981252">
        <ele>22.690</ele>
        <time>2021-06-17T09:21:51Z</time>
      </trkpt>
      <trkpt lat="36.485937" lon="-4.981308">
        <ele>22.619</ele>
        <time>2021-06-17T09:21:52Z</time>
      </trkpt>
      <trkpt lat="36.486105" lon="-4.981397">
        <ele>22.608</ele>
        <time>2021-06-17T09:21:54Z</time>
      </trkpt>
      <trkpt lat="36.486241" lon="-4.981472">
        <ele>22.684</ele>
        <time>2021-06-17T09:21:56Z</time>
      </trkpt>
      <trkpt lat="36.486297" lon="-4.981506">
        <ele>22.653</ele>
        <time>2021-06-17T09:21:57Z</time>
      </trkpt>
      <trkpt lat="36.486346" lon="-4.981531">
        <ele>22.617</ele>
        <time>2021-06-17T09:21:58Z</time>
      </trkpt>
      <trkpt lat="36.486435" lon="-4.98155">
        <ele>22.670</ele>
        <time>2021-06-17T09:22:00Z</time>
      </trkpt>
      <trkpt lat="36.486548" lon="-4.981531">
        <ele>22.610</ele>
        <time>2021-06-17T09:22:02Z</time>
      </trkpt>
      <trkpt lat="36.486613" lon="-4.981504">
        <ele>22.621</ele>
        <time>2021-06-17T09:22:03Z</time>
      </trkpt>
      <trkpt lat="36.486679" lon="-4.981473">
        <ele>22.650</ele>
        <time>2021-06-17T09:22:04Z</time>
      </trkpt>
      <trkpt lat="36.486812" lon="-4.981441">
        <ele>22.677</ele>
        <time>2021-06-17T09:22:06Z</time>
      </trkpt>
      <trkpt lat="36.48692" lon="-4.981478">
        <ele>22.629</ele>
        <time>2021-06-17T09:22:08Z</time>
      </trkpt>
      <trkpt lat="36.486959" lon="-4.981521">
        <ele>22.600</ele>
        <time>2021-06-17T09:22:09Z</time>
      </trkpt>
      <trkpt lat="36.486991" lon="-4.98158">
        <ele>22.620</ele>
        <time>2021-06-17T09:22:10Z</time>
      </trkpt>
      <trkpt lat="36.487016" lon="-4.981644">
        <ele>22.608</ele>
        <time>2021-06-17T09:22:11Z</time>
      </trkpt>
      <trkpt lat="36.487059" lon="-4.981793">
        <ele>22.669</ele>
        <time>2021-06-17T09:22:13Z</time>
      </trkpt>
      <trkpt lat="36.487118" lon="-4.981939">
        <ele>22.668</ele>
        <time>2021-06-17T09:22:15Z</time>
      </trkpt>
      <trkpt lat="36.487228" lon="-4.982039">
        <ele>22.672</ele>
        <time>2021-06-17T09:22:17Z</time>
      </trkpt>
      <trkpt lat="36.487291" lon="-4.982069">
        <ele>22.695</ele>
        <time>2021-06-17T09:22:18Z</time>
      </trkpt>
      <trkpt lat="36.487422" lon="-4.982131">
        <ele>22.615</ele>
        <time>2021-06-17T09:22:20Z</time>
      </trkpt>
      <trkpt lat="36.48749" lon="-4.982167">
        <ele>22.666</ele>
        <time>2021-06-17T09:22:21Z</time>
      </trkpt>
      <trkpt lat="36.487561" lon="-4.982205">
        <ele>22.675</ele>
        <time>2021-06-17T09:22:22Z</time>
      </trkpt>
      <trkpt lat="36.487708" lon="-4.982279">
        <ele>22.622</ele>
        <time>2021-06-17T09:22:24Z</time>
      </trkpt>
      <trkpt lat="36.487867" lon="-4.982354">
        <ele>21.144</ele>
        <time>2021-06-17T09:22:26Z</time>
      </trkpt>
      <trkpt lat="36.487947" lon="-4.982397">
        <ele>19.905</ele>
        <time>2021-06-17T09:22:27Z</time>
      </trkpt>
      <trkpt lat="36.48812" lon="-4.982488">
        <ele>18.815</ele>
        <time>2021-06-17T09:22:29Z</time>
      </trkpt>
      <trkpt lat="36.48829" lon="-4.982579">
        <ele>18.208</ele>
        <time>2021-06-17T09:22:31Z</time>
      </trkpt>
      <trkpt lat="36.488449" lon="-4.982651">
        <ele>18.081</ele>
        <time>2021-06-17T09:22:33Z</time>
      </trkpt>
      <trkpt lat="36.488525" lon="-4.982687">
        <ele>17.660</ele>
        <time>2021-06-17T09:22:34Z</time>
      </trkpt>
      <trkpt lat="36.488662" lon="-4.982763">
        <ele>17.134</ele>
        <time>2021-06-17T09:22:36Z</time>
      </trkpt>
      <trkpt lat="36.488787" lon="-4.982823">
        <ele>17.427</ele>
        <time>2021-06-17T09:22:38Z</time>
      </trkpt>
      <trkpt lat="36.488898" lon="-4.98288">
        <ele>17.447</ele>
        <time>2021-06-17T09:22:40Z</time>
      </trkpt>
      <trkpt lat="36.489005" lon="-4.982941">
        <ele>17.518</ele>
        <time>2021-06-17T09:22:42Z</time>
      </trkpt>
      <trkpt lat="36.489124" lon="-4.983007">
        <ele>17.567</ele>
        <time>2021-06-17T09:22:44Z</time>
      </trkpt>
      <trkpt lat="36.489255" lon="-4.983074">
        <ele>17.574</ele>
        <time>2021-06-17T09:22:46Z</time>
      </trkpt>
      <trkpt lat="36.489322" lon="-4.983106">
        <ele>17.353</ele>
        <time>2021-06-17T09:22:47Z</time>
      </trkpt>
      <trkpt lat="36.489393" lon="-4.983139">
        <ele>17.504</ele>
        <time>2021-06-17T09:22:48Z</time>
      </trkpt>
      <trkpt lat="36.48954" lon="-4.983213">
        <ele>17.814</ele>
        <time>2021-06-17T09:22:50Z</time>
      </trkpt>
      <trkpt lat="36.489612" lon="-4.983253">
        <ele>18.308</ele>
        <time>2021-06-17T09:22:51Z</time>
      </trkpt>
      <trkpt lat="36.489686" lon="-4.983294">
        <ele>18.952</ele>
        <time>2021-06-17T09:22:52Z</time>
      </trkpt>
      <trkpt lat="36.489838" lon="-4.983377">
        <ele>19.331</ele>
        <time>2021-06-17T09:22:54Z</time>
      </trkpt>
      <trkpt lat="36.48992" lon="-4.98342">
        <ele>19.965</ele>
        <time>2021-06-17T09:22:55Z</time>
      </trkpt>
      <trkpt lat="36.490083" lon="-4.983503">
        <ele>20.068</ele>
        <time>2021-06-17T09:22:57Z</time>
      </trkpt>
      <trkpt lat="36.490239" lon="-4.983589">
        <ele>20.118</ele>
        <time>2021-06-17T09:22:59Z</time>
      </trkpt>
      <trkpt lat="36.490394" lon="-4.98367">
        <ele>20.439</ele>
        <time>2021-06-17T09:23:01Z</time>
      </trkpt>
      <trkpt lat="36.49047" lon="-4.98371">
        <ele>21.068</ele>
        <time>2021-06-17T09:23:02Z</time>
      </trkpt>
      <trkpt lat="36.490626" lon="-4.983791">
        <ele>21.675</ele>
        <time>2021-06-17T09:23:04Z</time>
      </trkpt>
      <trkpt lat="36.490783" lon="-4.983873">
        <ele>22.194</ele>
        <time>2021-06-17T09:23:06Z</time>
      </trkpt>
      <trkpt lat="36.490956" lon="-4.983951">
        <ele>22.557</ele>
        <time>2021-06-17T09:23:08Z</time>
      </trkpt>
      <trkpt lat="36.491046" lon="-4.98399">
        <ele>22.922</ele>
        <time>2021-06-17T09:23:09Z</time>
      </trkpt>
      <trkpt lat="36.491233" lon="-4.984083">
        <ele>23.308</ele>
        <time>2021-06-17T09:23:11Z</time>
      </trkpt>
      <trkpt lat="36.491326" lon="-4.984132">
        <ele>23.796</ele>
        <time>2021-06-17T09:23:12Z</time>
      </trkpt>
      <trkpt lat="36.491416" lon="-4.984181">
        <ele>24.315</ele>
        <time>2021-06-17T09:23:13Z</time>
      </trkpt>
      <trkpt lat="36.491508" lon="-4.984232">
        <ele>24.539</ele>
        <time>2021-06-17T09:23:14Z</time>
      </trkpt>
      <trkpt lat="36.491598" lon="-4.984282">
        <ele>24.942</ele>
        <time>2021-06-17T09:23:15Z</time>
      </trkpt>
      <trkpt lat="36.491769" lon="-4.98437">
        <ele>25.352</ele>
        <time>2021-06-17T09:23:17Z</time>
      </trkpt>
      <trkpt lat="36.491853" lon="-4.984414">
        <ele>25.743</ele>
        <time>2021-06-17T09:23:18Z</time>
      </trkpt>
      <trkpt lat="36.491937" lon="-4.984459">
        <ele>25.952</ele>
        <time>2021-06-17T09:23:19Z</time>
      </trkpt>
      <trkpt lat="36.492023" lon="-4.984501">
        <ele>26.479</ele>
        <time>2021-06-17T09:23:20Z</time>
      </trkpt>
      <trkpt lat="36.492191" lon="-4.984584">
        <ele>27.199</ele>
        <time>2021-06-17T09:23:22Z</time>
      </trkpt>
      <trkpt lat="36.492272" lon="-4.984625">
        <ele>27.507</ele>
        <time>2021-06-17T09:23:23Z</time>
      </trkpt>
      <trkpt lat="36.492349" lon="-4.984664">
        <ele>27.727</ele>
        <time>2021-06-17T09:23:24Z</time>
      </trkpt>
      <trkpt lat="36.492492" lon="-4.984753">
        <ele>28.308</ele>
        <time>2021-06-17T09:23:26Z</time>
      </trkpt>
      <trkpt lat="36.492565" lon="-4.9848">
        <ele>28.736</ele>
        <time>2021-06-17T09:23:27Z</time>
      </trkpt>
      <trkpt lat="36.492704" lon="-4.9849">
        <ele>28.875</ele>
        <time>2021-06-17T09:23:29Z</time>
      </trkpt>
      <trkpt lat="36.492838" lon="-4.98501">
        <ele>29.379</ele>
        <time>2021-06-17T09:23:31Z</time>
      </trkpt>
      <trkpt lat="36.492909" lon="-4.985074">
        <ele>29.222</ele>
        <time>2021-06-17T09:23:32Z</time>
      </trkpt>
      <trkpt lat="36.493043" lon="-4.985197">
        <ele>29.642</ele>
        <time>2021-06-17T09:23:34Z</time>
      </trkpt>
      <trkpt lat="36.493169" lon="-4.98533">
        <ele>29.863</ele>
        <time>2021-06-17T09:23:36Z</time>
      </trkpt>
      <trkpt lat="36.493278" lon="-4.985459">
        <ele>30.432</ele>
        <time>2021-06-17T09:23:38Z</time>
      </trkpt>
      <trkpt lat="36.493386" lon="-4.985598">
        <ele>30.679</ele>
        <time>2021-06-17T09:23:40Z</time>
      </trkpt>
      <trkpt lat="36.493493" lon="-4.985761">
        <ele>30.945</ele>
        <time>2021-06-17T09:23:42Z</time>
      </trkpt>
      <trkpt lat="36.493544" lon="-4.98585">
        <ele>31.447</ele>
        <time>2021-06-17T09:23:43Z</time>
      </trkpt>
      <trkpt lat="36.493648" lon="-4.986045">
        <ele>31.511</ele>
        <time>2021-06-17T09:23:45Z</time>
      </trkpt>
      <trkpt lat="36.4937" lon="-4.986148">
        <ele>32.208</ele>
        <time>2021-06-17T09:23:46Z</time>
      </trkpt>
      <trkpt lat="36.493798" lon="-4.986377">
        <ele>32.581</ele>
        <time>2021-06-17T09:23:48Z</time>
      </trkpt>
      <trkpt lat="36.493887" lon="-4.986631">
        <ele>33.110</ele>
        <time>2021-06-17T09:23:50Z</time>
      </trkpt>
      <trkpt lat="36.493921" lon="-4.986767">
        <ele>33.434</ele>
        <time>2021-06-17T09:23:51Z</time>
      </trkpt>
      <trkpt lat="36.493954" lon="-4.986906">
        <ele>33.937</ele>
        <time>2021-06-17T09:23:52Z</time>
      </trkpt>
      <trkpt lat="36.494009" lon="-4.987195">
        <ele>34.357</ele>
        <time>2021-06-17T09:23:54Z</time>
      </trkpt>
      <trkpt lat="36.494057" lon="-4.987488">
        <ele>35.348</ele>
        <time>2021-06-17T09:23:56Z</time>
      </trkpt>
      <trkpt lat="36.494089" lon="-4.987776">
        <ele>35.837</ele>
        <time>2021-06-17T09:23:58Z</time>
      </trkpt>
      <trkpt lat="36.494124" lon="-4.988068">
        <ele>37.174</ele>
        <time>2021-06-17T09:24:00Z</time>
      </trkpt>
      <trkpt lat="36.494155" lon="-4.988363">
        <ele>37.982</ele>
        <time>2021-06-17T09:24:02Z</time>
      </trkpt>
      <trkpt lat="36.494196" lon="-4.988673">
        <ele>38.743</ele>
        <time>2021-06-17T09:24:04Z</time>
      </trkpt>
      <trkpt lat="36.494216" lon="-4.988827">
        <ele>39.917</ele>
        <time>2021-06-17T09:24:05Z</time>
      </trkpt>
      <trkpt lat="36.494237" lon="-4.98898">
        <ele>40.208</ele>
        <time>2021-06-17T09:24:06Z</time>
      </trkpt>
      <trkpt lat="36.494274" lon="-4.989277">
        <ele>40.775</ele>
        <time>2021-06-17T09:24:08Z</time>
      </trkpt>
      <trkpt lat="36.494298" lon="-4.989426">
        <ele>40.644</ele>
        <time>2021-06-17T09:24:09Z</time>
      </trkpt>
      <trkpt lat="36.494317" lon="-4.98957">
        <ele>40.588</ele>
        <time>2021-06-17T09:24:10Z</time>
      </trkpt>
      <trkpt lat="36.494344" lon="-4.98985">
        <ele>41.241</ele>
        <time>2021-06-17T09:24:12Z</time>
      </trkpt>
      <trkpt lat="36.494361" lon="-4.989975">
        <ele>41.821</ele>
        <time>2021-06-17T09:24:13Z</time>
      </trkpt>
      <trkpt lat="36.494388" lon="-4.990193">
        <ele>42.272</ele>
        <time>2021-06-17T09:24:15Z</time>
      </trkpt>
      <trkpt lat="36.494405" lon="-4.990406">
        <ele>42.711</ele>
        <time>2021-06-17T09:24:17Z</time>
      </trkpt>
      <trkpt lat="36.494416" lon="-4.990513">
        <ele>43.088</ele>
        <time>2021-06-17T09:24:18Z</time>
      </trkpt>
      <trkpt lat="36.494439" lon="-4.990743">
        <ele>44.335</ele>
        <time>2021-06-17T09:24:20Z</time>
      </trkpt>
      <trkpt lat="36.494472" lon="-4.990988">
        <ele>45.286</ele>
        <time>2021-06-17T09:24:22Z</time>
      </trkpt>
      <trkpt lat="36.494506" lon="-4.991211">
        <ele>45.414</ele>
        <time>2021-06-17T09:24:24Z</time>
      </trkpt>
      <trkpt lat="36.49452" lon="-4.991314">
        <ele>46.008</ele>
        <time>2021-06-17T09:24:25Z</time>
      </trkpt>
      <trkpt lat="36.494535" lon="-4.991507">
        <ele>46.770</ele>
        <time>2021-06-17T09:24:27Z</time>
      </trkpt>
      <trkpt lat="36.494546" lon="-4.991594">
        <ele>47.389</ele>
        <time>2021-06-17T09:24:28Z</time>
      </trkpt>
      <trkpt lat="36.494558" lon="-4.991671">
        <ele>47.983</ele>
        <time>2021-06-17T09:24:29Z</time>
      </trkpt>
      <trkpt lat="36.494577" lon="-4.991816">
        <ele>48.796</ele>
        <time>2021-06-17T09:24:31Z</time>
      </trkpt>
      <trkpt lat="36.49459" lon="-4.991966">
        <ele>49.546</ele>
        <time>2021-06-17T09:24:33Z</time>
      </trkpt>
      <trkpt lat="36.4946" lon="-4.992046">
        <ele>50.257</ele>
        <time>2021-06-17T09:24:34Z</time>
      </trkpt>
      <trkpt lat="36.494613" lon="-4.992122">
        <ele>50.896</ele>
        <time>2021-06-17T09:24:35Z</time>
      </trkpt>
      <trkpt lat="36.494657" lon="-4.992246">
        <ele>50.873</ele>
        <time>2021-06-17T09:24:37Z</time>
      </trkpt>
      <trkpt lat="36.494681" lon="-4.992298">
        <ele>50.547</ele>
        <time>2021-06-17T09:24:38Z</time>
      </trkpt>
      <trkpt lat="36.494716" lon="-4.992354">
        <ele>50.529</ele>
        <time>2021-06-17T09:24:40Z</time>
      </trkpt>
      <trkpt lat="36.494756" lon="-4.9924">
        <ele>50.221</ele>
        <time>2021-06-17T09:24:42Z</time>
      </trkpt>
      <trkpt lat="36.494801" lon="-4.992421">
        <ele>49.908</ele>
        <time>2021-06-17T09:24:44Z</time>
      </trkpt>
      <trkpt lat="36.494828" lon="-4.992467">
        <ele>48.511</ele>
        <time>2021-06-17T09:25:34Z</time>
      </trkpt>
      <trkpt lat="36.49486" lon="-4.992534">
        <ele>47.730</ele>
        <time>2021-06-17T09:25:41Z</time>
      </trkpt>
      <trkpt lat="36.494902" lon="-4.992608">
        <ele>47.274</ele>
        <time>2021-06-17T09:25:43Z</time>
      </trkpt>
      <trkpt lat="36.494957" lon="-4.992676">
        <ele>46.917</ele>
        <time>2021-06-17T09:25:45Z</time>
      </trkpt>
      <trkpt lat="36.495016" lon="-4.992718">
        <ele>46.787</ele>
        <time>2021-06-17T09:25:46Z</time>
      </trkpt>
      <trkpt lat="36.495169" lon="-4.992779">
        <ele>46.658</ele>
        <time>2021-06-17T09:25:48Z</time>
      </trkpt>
      <trkpt lat="36.495323" lon="-4.992812">
        <ele>46.537</ele>
        <time>2021-06-17T09:25:50Z</time>
      </trkpt>
      <trkpt lat="36.495399" lon="-4.992835">
        <ele>46.534</ele>
        <time>2021-06-17T09:25:51Z</time>
      </trkpt>
      <trkpt lat="36.495478" lon="-4.992858">
        <ele>46.562</ele>
        <time>2021-06-17T09:25:52Z</time>
      </trkpt>
      <trkpt lat="36.495562" lon="-4.992884">
        <ele>46.583</ele>
        <time>2021-06-17T09:25:53Z</time>
      </trkpt>
      <trkpt lat="36.495723" lon="-4.992935">
        <ele>46.511</ele>
        <time>2021-06-17T09:25:55Z</time>
      </trkpt>
      <trkpt lat="36.495872" lon="-4.99298">
        <ele>46.508</ele>
        <time>2021-06-17T09:25:57Z</time>
      </trkpt>
      <trkpt lat="36.495999" lon="-4.993011">
        <ele>46.573</ele>
        <time>2021-06-17T09:25:59Z</time>
      </trkpt>
      <trkpt lat="36.496055" lon="-4.993018">
        <ele>46.582</ele>
        <time>2021-06-17T09:26:00Z</time>
      </trkpt>
      <trkpt lat="36.496162" lon="-4.992989">
        <ele>46.556</ele>
        <time>2021-06-17T09:26:02Z</time>
      </trkpt>
      <trkpt lat="36.496251" lon="-4.992995">
        <ele>46.519</ele>
        <time>2021-06-17T09:26:04Z</time>
      </trkpt>
      <trkpt lat="36.496288" lon="-4.993032">
        <ele>46.559</ele>
        <time>2021-06-17T09:26:05Z</time>
      </trkpt>
      <trkpt lat="36.496314" lon="-4.993081">
        <ele>46.530</ele>
        <time>2021-06-17T09:26:06Z</time>
      </trkpt>
      <trkpt lat="36.49634" lon="-4.993192">
        <ele>46.529</ele>
        <time>2021-06-17T09:26:08Z</time>
      </trkpt>
      <trkpt lat="36.496322" lon="-4.993257">
        <ele>46.516</ele>
        <time>2021-06-17T09:26:09Z</time>
      </trkpt>
      <trkpt lat="36.496285" lon="-4.993317">
        <ele>46.569</ele>
        <time>2021-06-17T09:26:10Z</time>
      </trkpt>
      <trkpt lat="36.496179" lon="-4.993412">
        <ele>46.504</ele>
        <time>2021-06-17T09:26:12Z</time>
      </trkpt>
      <trkpt lat="36.496115" lon="-4.99345">
        <ele>46.524</ele>
        <time>2021-06-17T09:26:13Z</time>
      </trkpt>
      <trkpt lat="36.496058" lon="-4.993483">
        <ele>46.508</ele>
        <time>2021-06-17T09:26:14Z</time>
      </trkpt>
      <trkpt lat="36.496022" lon="-4.993532">
        <ele>46.523</ele>
        <time>2021-06-17T09:26:15Z</time>
      </trkpt>
      <trkpt lat="36.495996" lon="-4.993651">
        <ele>46.532</ele>
        <time>2021-06-17T09:26:17Z</time>
      </trkpt>
      <trkpt lat="36.495951" lon="-4.993763">
        <ele>46.566</ele>
        <time>2021-06-17T09:26:19Z</time>
      </trkpt>
      <trkpt lat="36.495927" lon="-4.993812">
        <ele>46.579</ele>
        <time>2021-06-17T09:26:20Z</time>
      </trkpt>
      <trkpt lat="36.495876" lon="-4.993913">
        <ele>46.549</ele>
        <time>2021-06-17T09:26:22Z</time>
      </trkpt>
      <trkpt lat="36.495848" lon="-4.993963">
        <ele>46.510</ele>
        <time>2021-06-17T09:26:23Z</time>
      </trkpt>
      <trkpt lat="36.495822" lon="-4.994009">
        <ele>46.529</ele>
        <time>2021-06-17T09:26:24Z</time>
      </trkpt>
      <trkpt lat="36.495791" lon="-4.994078">
        <ele>46.546</ele>
        <time>2021-06-17T09:26:26Z</time>
      </trkpt>
      <trkpt lat="36.495757" lon="-4.994181">
        <ele>46.556</ele>
        <time>2021-06-17T09:26:28Z</time>
      </trkpt>
      <trkpt lat="36.495697" lon="-4.99435">
        <ele>46.559</ele>
        <time>2021-06-17T09:26:30Z</time>
      </trkpt>
      <trkpt lat="36.495661" lon="-4.994444">
        <ele>46.514</ele>
        <time>2021-06-17T09:26:31Z</time>
      </trkpt>
      <trkpt lat="36.495593" lon="-4.99463">
        <ele>46.508</ele>
        <time>2021-06-17T09:26:33Z</time>
      </trkpt>
      <trkpt lat="36.495538" lon="-4.994784">
        <ele>46.522</ele>
        <time>2021-06-17T09:26:35Z</time>
      </trkpt>
      <trkpt lat="36.495505" lon="-4.994892">
        <ele>46.511</ele>
        <time>2021-06-17T09:26:37Z</time>
      </trkpt>
      <trkpt lat="36.495546" lon="-4.994916">
        <ele>46.575</ele>
        <time>2021-06-17T09:27:17Z</time>
      </trkpt>
      <trkpt lat="36.495524" lon="-4.994966">
        <ele>50.358</ele>
        <time>2021-06-17T09:29:19Z</time>
      </trkpt>
      <trkpt lat="36.495558" lon="-4.995012">
        <ele>52.588</ele>
        <time>2021-06-17T09:29:22Z</time>
      </trkpt>
      <trkpt lat="36.495606" lon="-4.994987">
        <ele>53.869</ele>
        <time>2021-06-17T09:29:26Z</time>
      </trkpt>
      <trkpt lat="36.495597" lon="-4.995047">
        <ele>54.758</ele>
        <time>2021-06-17T09:29:47Z</time>
      </trkpt>
      <trkpt lat="36.495555" lon="-4.995067">
        <ele>55.245</ele>
        <time>2021-06-17T09:30:08Z</time>
      </trkpt>
      <trkpt lat="36.495596" lon="-4.99503">
        <ele>55.513</ele>
        <time>2021-06-17T09:30:34Z</time>
      </trkpt>
      <trkpt lat="36.495582" lon="-4.995086">
        <ele>55.743</ele>
        <time>2021-06-17T09:30:43Z</time>
      </trkpt>
      <trkpt lat="36.495545" lon="-4.995119">
        <ele>55.907</ele>
        <time>2021-06-17T09:31:30Z</time>
      </trkpt>
      <trkpt lat="36.4955" lon="-4.995109">
        <ele>56.008</ele>
        <time>2021-06-17T09:31:47Z</time>
      </trkpt>
      <trkpt lat="36.495538" lon="-4.995074">
        <ele>56.148</ele>
        <time>2021-06-17T09:32:23Z</time>
      </trkpt>
      <trkpt lat="36.495586" lon="-4.995067">
        <ele>56.157</ele>
        <time>2021-06-17T09:32:30Z</time>
      </trkpt>
      <trkpt lat="36.495653" lon="-4.995028">
        <ele>56.161</ele>
        <time>2021-06-17T09:32:33Z</time>
      </trkpt>
      <trkpt lat="36.4957" lon="-4.995002">
        <ele>56.134</ele>
        <time>2021-06-17T09:32:35Z</time>
      </trkpt>
      <trkpt lat="36.495682" lon="-4.994938">
        <ele>56.134</ele>
        <time>2021-06-17T09:32:48Z</time>
      </trkpt>
      <trkpt lat="36.495647" lon="-4.994897">
        <ele>56.185</ele>
        <time>2021-06-17T09:32:53Z</time>
      </trkpt>
      <trkpt lat="36.4956" lon="-4.994917">
        <ele>56.114</ele>
        <time>2021-06-17T09:32:59Z</time>
      </trkpt>
      <trkpt lat="36.495565" lon="-4.994953">
        <ele>56.171</ele>
        <time>2021-06-17T09:33:05Z</time>
      </trkpt>
      <trkpt lat="36.495549" lon="-4.995007">
        <ele>56.152</ele>
        <time>2021-06-17T09:33:19Z</time>
      </trkpt>
      <trkpt lat="36.495588" lon="-4.994977">
        <ele>56.253</ele>
        <time>2021-06-17T09:33:57Z</time>
      </trkpt>
      <trkpt lat="36.495543" lon="-4.994984">
        <ele>56.008</ele>
        <time>2021-06-17T09:34:45Z</time>
      </trkpt>
      <trkpt lat="36.495536" lon="-4.995043">
        <ele>55.908</ele>
        <time>2021-06-17T09:35:47Z</time>
      </trkpt>
      <trkpt lat="36.495575" lon="-4.99507">
        <ele>55.922</ele>
        <time>2021-06-17T09:37:35Z</time>
      </trkpt>
      <trkpt lat="36.495607" lon="-4.995027">
        <ele>55.991</ele>
        <time>2021-06-17T09:37:56Z</time>
      </trkpt>
      <trkpt lat="36.495585" lon="-4.995076">
        <ele>55.995</ele>
        <time>2021-06-17T09:38:20Z</time>
      </trkpt>
      <trkpt lat="36.495627" lon="-4.995036">
        <ele>56.088</ele>
        <time>2021-06-17T09:39:26Z</time>
      </trkpt>
      <trkpt lat="36.495694" lon="-4.995023">
        <ele>56.068</ele>
        <time>2021-06-17T09:39:29Z</time>
      </trkpt>
      <trkpt lat="36.495746" lon="-4.995017">
        <ele>56.059</ele>
        <time>2021-06-17T09:39:31Z</time>
      </trkpt>
      <trkpt lat="36.495692" lon="-4.995009">
        <ele>56.048</ele>
        <time>2021-06-17T09:39:34Z</time>
      </trkpt>
      <trkpt lat="36.495723" lon="-4.994953">
        <ele>56.015</ele>
        <time>2021-06-17T09:39:47Z</time>
      </trkpt>
      <trkpt lat="36.495767" lon="-4.994918">
        <ele>56.015</ele>
        <time>2021-06-17T09:39:49Z</time>
      </trkpt>
      <trkpt lat="36.495812" lon="-4.994895">
        <ele>56.065</ele>
        <time>2021-06-17T09:39:52Z</time>
      </trkpt>
      <trkpt lat="36.495853" lon="-4.994844">
        <ele>56.011</ele>
        <time>2021-06-17T09:39:55Z</time>
      </trkpt>
      <trkpt lat="36.495884" lon="-4.994802">
        <ele>55.908</ele>
        <time>2021-06-17T09:40:01Z</time>
      </trkpt>
      <trkpt lat="36.495899" lon="-4.994856">
        <ele>55.958</ele>
        <time>2021-06-17T09:40:07Z</time>
      </trkpt>
      <trkpt lat="36.495914" lon="-4.994918">
        <ele>55.927</ele>
        <time>2021-06-17T09:40:10Z</time>
      </trkpt>
      <trkpt lat="36.495959" lon="-4.994933">
        <ele>55.941</ele>
        <time>2021-06-17T09:40:27Z</time>
      </trkpt>
      <trkpt lat="36.495924" lon="-4.994974">
        <ele>55.914</ele>
        <time>2021-06-17T09:42:23Z</time>
      </trkpt>
      <trkpt lat="36.495985" lon="-4.994984">
        <ele>55.964</ele>
        <time>2021-06-17T09:42:29Z</time>
      </trkpt>
      <trkpt lat="36.495932" lon="-4.994982">
        <ele>56.025</ele>
        <time>2021-06-17T09:46:27Z</time>
      </trkpt>
      <trkpt lat="36.495982" lon="-4.994992">
        <ele>56.124</ele>
        <time>2021-06-17T09:46:34Z</time>
      </trkpt>
      <trkpt lat="36.495931" lon="-4.994985">
        <ele>56.061</ele>
        <time>2021-06-17T09:47:18Z</time>
      </trkpt>
      <trkpt lat="36.495984" lon="-4.994994">
        <ele>56.098</ele>
        <time>2021-06-17T09:47:30Z</time>
      </trkpt>
      <trkpt lat="36.496015" lon="-4.994941">
        <ele>56.015</ele>
        <time>2021-06-17T09:48:58Z</time>
      </trkpt>
      <trkpt lat="36.496023" lon="-4.995001">
        <ele>56.026</ele>
        <time>2021-06-17T09:49:02Z</time>
      </trkpt>
      <trkpt lat="36.496015" lon="-4.994945">
        <ele>56.008</ele>
        <time>2021-06-17T09:49:11Z</time>
      </trkpt>
      <trkpt lat="36.495955" lon="-4.994965">
        <ele>56.096</ele>
        <time>2021-06-17T09:49:19Z</time>
      </trkpt>
      <trkpt lat="36.495914" lon="-4.994992">
        <ele>56.175</ele>
        <time>2021-06-17T09:49:21Z</time>
      </trkpt>
      <trkpt lat="36.495952" lon="-4.994946">
        <ele>56.229</ele>
        <time>2021-06-17T09:49:32Z</time>
      </trkpt>
      <trkpt lat="36.496002" lon="-4.994922">
        <ele>56.262</ele>
        <time>2021-06-17T09:49:34Z</time>
      </trkpt>
      <trkpt lat="36.495956" lon="-4.994942">
        <ele>56.112</ele>
        <time>2021-06-17T09:55:02Z</time>
      </trkpt>
      <trkpt lat="36.495909" lon="-4.99496">
        <ele>56.043</ele>
        <time>2021-06-17T09:59:38Z</time>
      </trkpt>
      <trkpt lat="36.49595" lon="-4.994935">
        <ele>55.952</ele>
        <time>2021-06-17T09:59:43Z</time>
      </trkpt>
      <trkpt lat="36.495906" lon="-4.994959">
        <ele>55.949</ele>
        <time>2021-06-17T10:02:17Z</time>
      </trkpt>
      <trkpt lat="36.509497" lon="-5.005448">
        <ele>150.51</ele>
        <time>2021-06-17T08:48:23.000Z</time>
      </trkpt>
      <trkpt lat="36.509492" lon="-5.005473">
        <ele>151.14</ele>
        <time>2021-06-17T08:48:28.000Z</time>
      </trkpt>
      <trkpt lat="36.509488" lon="-5.005487">
        <ele>151.93</ele>
        <time>2021-06-17T08:48:37.000Z</time>
      </trkpt>
      <trkpt lat="36.509486" lon="-5.005499">
        <ele>151.93</ele>
        <time>2021-06-17T08:48:39.000Z</time>
      </trkpt>
      <trkpt lat="36.5095" lon="-5.00551">
        <ele>153.01</ele>
        <time>2021-06-17T08:49:38.000Z</time>
      </trkpt>
      <trkpt lat="36.509537" lon="-5.005521">
        <ele>153.2</ele>
        <time>2021-06-17T08:49:39.000Z</time>
      </trkpt>
      <trkpt lat="36.509596" lon="-5.005517">
        <ele>153.02</ele>
        <time>2021-06-17T08:49:40.000Z</time>
      </trkpt>
      <trkpt lat="36.509656" lon="-5.005518">
        <ele>153.43</ele>
        <time>2021-06-17T08:49:41.000Z</time>
      </trkpt>
      <trkpt lat="36.509744" lon="-5.005516">
        <ele>155</ele>
        <time>2021-06-17T08:49:42.000Z</time>
      </trkpt>
      <trkpt lat="36.509832" lon="-5.005532">
        <ele>155.69</ele>
        <time>2021-06-17T08:49:43.000Z</time>
      </trkpt>
      <trkpt lat="36.509937" lon="-5.005524">
        <ele>154.81</ele>
        <time>2021-06-17T08:49:44.000Z</time>
      </trkpt>
      <trkpt lat="36.510042" lon="-5.005524">
        <ele>153.52</ele>
        <time>2021-06-17T08:49:45.000Z</time>
      </trkpt>
      <trkpt lat="36.510137" lon="-5.005563">
        <ele>153.7</ele>
        <time>2021-06-17T08:49:46.000Z</time>
      </trkpt>
      <trkpt lat="36.51022" lon="-5.005624">
        <ele>153.87</ele>
        <time>2021-06-17T08:49:47.000Z</time>
      </trkpt>
      <trkpt lat="36.510302" lon="-5.005695">
        <ele>153.78</ele>
        <time>2021-06-17T08:49:48.000Z</time>
      </trkpt>
      <trkpt lat="36.51038" lon="-5.005807">
        <ele>155.04</ele>
        <time>2021-06-17T08:49:49.000Z</time>
      </trkpt>
      <trkpt lat="36.510444" lon="-5.005923">
        <ele>155.17</ele>
        <time>2021-06-17T08:49:50.000Z</time>
      </trkpt>
      <trkpt lat="36.510513" lon="-5.006032">
        <ele>155.9</ele>
        <time>2021-06-17T08:49:51.000Z</time>
      </trkpt>
      <trkpt lat="36.510554" lon="-5.00619">
        <ele>156.58</ele>
        <time>2021-06-17T08:49:52.000Z</time>
      </trkpt>
      <trkpt lat="36.510587" lon="-5.006351">
        <ele>158.97</ele>
        <time>2021-06-17T08:49:53.000Z</time>
      </trkpt>
      <trkpt lat="36.510594" lon="-5.006501">
        <ele>160.64</ele>
        <time>2021-06-17T08:49:54.000Z</time>
      </trkpt>
      <trkpt lat="36.510576" lon="-5.006638">
        <ele>161.06</ele>
        <time>2021-06-17T08:49:55.000Z</time>
      </trkpt>
      <trkpt lat="36.510538" lon="-5.0068">
        <ele>162.7</ele>
        <time>2021-06-17T08:49:56.000Z</time>
      </trkpt>
      <trkpt lat="36.510496" lon="-5.00696">
        <ele>163.48</ele>
        <time>2021-06-17T08:49:57.000Z</time>
      </trkpt>
      <trkpt lat="36.510438" lon="-5.007111">
        <ele>164.47</ele>
        <time>2021-06-17T08:49:58.000Z</time>
      </trkpt>
      <trkpt lat="36.510388" lon="-5.00727">
        <ele>163.16</ele>
        <time>2021-06-17T08:49:59.000Z</time>
      </trkpt>
      <trkpt lat="36.510355" lon="-5.007412">
        <ele>163.57</ele>
        <time>2021-06-17T08:50:00.000Z</time>
      </trkpt>
      <trkpt lat="36.510353" lon="-5.007554">
        <ele>163.53</ele>
        <time>2021-06-17T08:50:01.000Z</time>
      </trkpt>
      <trkpt lat="36.51038" lon="-5.0077">
        <ele>164.09</ele>
        <time>2021-06-17T08:50:02.000Z</time>
      </trkpt>
      <trkpt lat="36.510421" lon="-5.007837">
        <ele>164.15</ele>
        <time>2021-06-17T08:50:03.000Z</time>
      </trkpt>
      <trkpt lat="36.510476" lon="-5.007961">
        <ele>164.45</ele>
        <time>2021-06-17T08:50:04.000Z</time>
      </trkpt>
      <trkpt lat="36.510545" lon="-5.00808">
        <ele>164.55</ele>
        <time>2021-06-17T08:50:05.000Z</time>
      </trkpt>
      <trkpt lat="36.510616" lon="-5.008216">
        <ele>165.5</ele>
        <time>2021-06-17T08:50:06.000Z</time>
      </trkpt>
      <trkpt lat="36.510692" lon="-5.008339">
        <ele>166.71</ele>
        <time>2021-06-17T08:50:07.000Z</time>
      </trkpt>
      <trkpt lat="36.510777" lon="-5.008453">
        <ele>167.82</ele>
        <time>2021-06-17T08:50:08.000Z</time>
      </trkpt>
      <trkpt lat="36.510868" lon="-5.00857">
        <ele>168.75</ele>
        <time>2021-06-17T08:50:09.000Z</time>
      </trkpt>
      <trkpt lat="36.510965" lon="-5.008667">
        <ele>168.98</ele>
        <time>2021-06-17T08:50:10.000Z</time>
      </trkpt>
      <trkpt lat="36.511071" lon="-5.008756">
        <ele>168.98</ele>
        <time>2021-06-17T08:50:11.000Z</time>
      </trkpt>
      <trkpt lat="36.511177" lon="-5.008823">
        <ele>170.85</ele>
        <time>2021-06-17T08:50:12.000Z</time>
      </trkpt>
      <trkpt lat="36.511266" lon="-5.008833">
        <ele>171.45</ele>
        <time>2021-06-17T08:50:13.000Z</time>
      </trkpt>
      <trkpt lat="36.511367" lon="-5.00881">
        <ele>171.59</ele>
        <time>2021-06-17T08:50:14.000Z</time>
      </trkpt>
      <trkpt lat="36.511458" lon="-5.008763">
        <ele>171.53</ele>
        <time>2021-06-17T08:50:15.000Z</time>
      </trkpt>
      <trkpt lat="36.511567" lon="-5.008699">
        <ele>171.34</ele>
        <time>2021-06-17T08:50:16.000Z</time>
      </trkpt>
      <trkpt lat="36.511673" lon="-5.008602">
        <ele>171.36</ele>
        <time>2021-06-17T08:50:17.000Z</time>
      </trkpt>
      <trkpt lat="36.511804" lon="-5.00847">
        <ele>171.69</ele>
        <time>2021-06-17T08:50:18.000Z</time>
      </trkpt>
      <trkpt lat="36.511927" lon="-5.008362">
        <ele>171.66</ele>
        <time>2021-06-17T08:50:19.000Z</time>
      </trkpt>
      <trkpt lat="36.512037" lon="-5.008262">
        <ele>172.35</ele>
        <time>2021-06-17T08:50:20.000Z</time>
      </trkpt>
      <trkpt lat="36.512164" lon="-5.008169">
        <ele>172.58</ele>
        <time>2021-06-17T08:50:21.000Z</time>
      </trkpt>
      <trkpt lat="36.512298" lon="-5.008077">
        <ele>174.01</ele>
        <time>2021-06-17T08:50:22.000Z</time>
      </trkpt>
      <trkpt lat="36.512444" lon="-5.007996">
        <ele>176.08</ele>
        <time>2021-06-17T08:50:23.000Z</time>
      </trkpt>
      <trkpt lat="36.512608" lon="-5.007919">
        <ele>176.38</ele>
        <time>2021-06-17T08:50:24.000Z</time>
      </trkpt>
      <trkpt lat="36.512741" lon="-5.00784">
        <ele>177.16</ele>
        <time>2021-06-17T08:50:25.000Z</time>
      </trkpt>
      <trkpt lat="36.5129" lon="-5.007768">
        <ele>177.51</ele>
        <time>2021-06-17T08:50:26.000Z</time>
      </trkpt>
      <trkpt lat="36.513053" lon="-5.007699">
        <ele>177.69</ele>
        <time>2021-06-17T08:50:27.000Z</time>
      </trkpt>
      <trkpt lat="36.513207" lon="-5.007629">
        <ele>178.01</ele>
        <time>2021-06-17T08:50:28.000Z</time>
      </trkpt>
      <trkpt lat="36.513365" lon="-5.007551">
        <ele>178.41</ele>
        <time>2021-06-17T08:50:29.000Z</time>
      </trkpt>
      <trkpt lat="36.513528" lon="-5.007475">
        <ele>178.6</ele>
        <time>2021-06-17T08:50:30.000Z</time>
      </trkpt>
      <trkpt lat="36.513691" lon="-5.007396">
        <ele>179.17</ele>
        <time>2021-06-17T08:50:31.000Z</time>
      </trkpt>
      <trkpt lat="36.513853" lon="-5.007312">
        <ele>179.66</ele>
        <time>2021-06-17T08:50:32.000Z</time>
      </trkpt>
      <trkpt lat="36.514022" lon="-5.007227">
        <ele>180.48</ele>
        <time>2021-06-17T08:50:33.000Z</time>
      </trkpt>
      <trkpt lat="36.514186" lon="-5.007147">
        <ele>181.17</ele>
        <time>2021-06-17T08:50:34.000Z</time>
      </trkpt>
      <trkpt lat="36.514335" lon="-5.007059">
        <ele>181.58</ele>
        <time>2021-06-17T08:50:35.000Z</time>
      </trkpt>
      <trkpt lat="36.514498" lon="-5.006971">
        <ele>181.93</ele>
        <time>2021-06-17T08:50:36.000Z</time>
      </trkpt>
      <trkpt lat="36.514653" lon="-5.006882">
        <ele>182.25</ele>
        <time>2021-06-17T08:50:37.000Z</time>
      </trkpt>
      <trkpt lat="36.514787" lon="-5.006784">
        <ele>182.85</ele>
        <time>2021-06-17T08:50:38.000Z</time>
      </trkpt>
      <trkpt lat="36.514923" lon="-5.006675">
        <ele>183.34</ele>
        <time>2021-06-17T08:50:39.000Z</time>
      </trkpt>
      <trkpt lat="36.515055" lon="-5.006563">
        <ele>183.75</ele>
        <time>2021-06-17T08:50:40.000Z</time>
      </trkpt>
      <trkpt lat="36.515185" lon="-5.006443">
        <ele>183.64</ele>
        <time>2021-06-17T08:50:41.000Z</time>
      </trkpt>
      <trkpt lat="36.515314" lon="-5.00631">
        <ele>184.17</ele>
        <time>2021-06-17T08:50:42.000Z</time>
      </trkpt>
      <trkpt lat="36.515433" lon="-5.006169">
        <ele>183.25</ele>
        <time>2021-06-17T08:50:43.000Z</time>
      </trkpt>
      <trkpt lat="36.515552" lon="-5.006018">
        <ele>183.74</ele>
        <time>2021-06-17T08:50:44.000Z</time>
      </trkpt>
      <trkpt lat="36.515658" lon="-5.005866">
        <ele>184.28</ele>
        <time>2021-06-17T08:50:45.000Z</time>
      </trkpt>
      <trkpt lat="36.515751" lon="-5.005711">
        <ele>184.69</ele>
        <time>2021-06-17T08:50:46.000Z</time>
      </trkpt>
      <trkpt lat="36.515854" lon="-5.005563">
        <ele>185.82</ele>
        <time>2021-06-17T08:50:47.000Z</time>
      </trkpt>
      <trkpt lat="36.51596" lon="-5.005411">
        <ele>187.84</ele>
        <time>2021-06-17T08:50:48.000Z</time>
      </trkpt>
      <trkpt lat="36.516064" lon="-5.005263">
        <ele>190.53</ele>
        <time>2021-06-17T08:50:49.000Z</time>
      </trkpt>
      <trkpt lat="36.516141" lon="-5.005125">
        <ele>187.67</ele>
        <time>2021-06-17T08:50:50.000Z</time>
      </trkpt>
      <trkpt lat="36.516259" lon="-5.005006">
        <ele>188.89</ele>
        <time>2021-06-17T08:50:51.000Z</time>
      </trkpt>
      <trkpt lat="36.516368" lon="-5.004897">
        <ele>189.26</ele>
        <time>2021-06-17T08:50:52.000Z</time>
      </trkpt>
      <trkpt lat="36.516481" lon="-5.004796">
        <ele>189.8</ele>
        <time>2021-06-17T08:50:53.000Z</time>
      </trkpt>
      <trkpt lat="36.516618" lon="-5.004712">
        <ele>192.61</ele>
        <time>2021-06-17T08:50:54.000Z</time>
      </trkpt>
      <trkpt lat="36.51678" lon="-5.004642">
        <ele>192.78</ele>
        <time>2021-06-17T08:50:55.000Z</time>
      </trkpt>
      <trkpt lat="36.516934" lon="-5.004577">
        <ele>192.86</ele>
        <time>2021-06-17T08:50:56.000Z</time>
      </trkpt>
      <trkpt lat="36.517077" lon="-5.004512">
        <ele>193.22</ele>
        <time>2021-06-17T08:50:57.000Z</time>
      </trkpt>
      <trkpt lat="36.517218" lon="-5.004449">
        <ele>193.47</ele>
        <time>2021-06-17T08:50:58.000Z</time>
      </trkpt>
      <trkpt lat="36.517363" lon="-5.004393">
        <ele>193.86</ele>
        <time>2021-06-17T08:50:59.000Z</time>
      </trkpt>
      <trkpt lat="36.517492" lon="-5.004333">
        <ele>194.29</ele>
        <time>2021-06-17T08:51:00.000Z</time>
      </trkpt>
      <trkpt lat="36.517605" lon="-5.00428">
        <ele>194.72</ele>
        <time>2021-06-17T08:51:01.000Z</time>
      </trkpt>
      <trkpt lat="36.517721" lon="-5.004243">
        <ele>195.46</ele>
        <time>2021-06-17T08:51:02.000Z</time>
      </trkpt>
      <trkpt lat="36.517843" lon="-5.004227">
        <ele>196.23</ele>
        <time>2021-06-17T08:51:03.000Z</time>
      </trkpt>
      <trkpt lat="36.517987" lon="-5.004228">
        <ele>203.42</ele>
        <time>2021-06-17T08:51:04.000Z</time>
      </trkpt>
      <trkpt lat="36.518103" lon="-5.004256">
        <ele>205.83</ele>
        <time>2021-06-17T08:51:05.000Z</time>
      </trkpt>
      <trkpt lat="36.518204" lon="-5.004298">
        <ele>208.62</ele>
        <time>2021-06-17T08:51:06.000Z</time>
      </trkpt>
      <trkpt lat="36.518309" lon="-5.004377">
        <ele>210.21</ele>
        <time>2021-06-17T08:51:07.000Z</time>
      </trkpt>
      <trkpt lat="36.518375" lon="-5.004472">
        <ele>210.68</ele>
        <time>2021-06-17T08:51:08.000Z</time>
      </trkpt>
      <trkpt lat="36.518474" lon="-5.004595">
        <ele>214.03</ele>
        <time>2021-06-17T08:51:09.000Z</time>
      </trkpt>
      <trkpt lat="36.518541" lon="-5.00472">
        <ele>215.68</ele>
        <time>2021-06-17T08:51:10.000Z</time>
      </trkpt>
      <trkpt lat="36.518609" lon="-5.004854">
        <ele>217.58</ele>
        <time>2021-06-17T08:51:11.000Z</time>
      </trkpt>
      <trkpt lat="36.518671" lon="-5.004989">
        <ele>213.59</ele>
        <time>2021-06-17T08:51:12.000Z</time>
      </trkpt>
      <trkpt lat="36.518747" lon="-5.0051">
        <ele>213.66</ele>
        <time>2021-06-17T08:51:13.000Z</time>
      </trkpt>
      <trkpt lat="36.518847" lon="-5.005207">
        <ele>214.93</ele>
        <time>2021-06-17T08:51:14.000Z</time>
      </trkpt>
      <trkpt lat="36.518951" lon="-5.005276">
        <ele>214.96</ele>
        <time>2021-06-17T08:51:15.000Z</time>
      </trkpt>
      <trkpt lat="36.519064" lon="-5.005317">
        <ele>214.47</ele>
        <time>2021-06-17T08:51:16.000Z</time>
      </trkpt>
      <trkpt lat="36.519189" lon="-5.005366">
        <ele>214.95</ele>
        <time>2021-06-17T08:51:17.000Z</time>
      </trkpt>
      <trkpt lat="36.519323" lon="-5.005398">
        <ele>215.58</ele>
        <time>2021-06-17T08:51:18.000Z</time>
      </trkpt>
      <trkpt lat="36.519465" lon="-5.005408">
        <ele>216.78</ele>
        <time>2021-06-17T08:51:19.000Z</time>
      </trkpt>
      <trkpt lat="36.519601" lon="-5.005424">
        <ele>219.08</ele>
        <time>2021-06-17T08:51:20.000Z</time>
      </trkpt>
      <trkpt lat="36.519744" lon="-5.005436">
        <ele>221.2</ele>
        <time>2021-06-17T08:51:21.000Z</time>
      </trkpt>
      <trkpt lat="36.51988" lon="-5.005439">
        <ele>223.48</ele>
        <time>2021-06-17T08:51:22.000Z</time>
      </trkpt>
      <trkpt lat="36.520021" lon="-5.005441">
        <ele>224.95</ele>
        <time>2021-06-17T08:51:23.000Z</time>
      </trkpt>
      <trkpt lat="36.520148" lon="-5.005445">
        <ele>227.74</ele>
        <time>2021-06-17T08:51:24.000Z</time>
      </trkpt>
      <trkpt lat="36.520282" lon="-5.00547">
        <ele>230.78</ele>
        <time>2021-06-17T08:51:25.000Z</time>
      </trkpt>
      <trkpt lat="36.520401" lon="-5.005509">
        <ele>233.13</ele>
        <time>2021-06-17T08:51:26.000Z</time>
      </trkpt>
      <trkpt lat="36.520507" lon="-5.005565">
        <ele>234</ele>
        <time>2021-06-17T08:51:27.000Z</time>
      </trkpt>
      <trkpt lat="36.520596" lon="-5.005638">
        <ele>234.27</ele>
        <time>2021-06-17T08:51:28.000Z</time>
      </trkpt>
      <trkpt lat="36.520655" lon="-5.005733">
        <ele>234.53</ele>
        <time>2021-06-17T08:51:29.000Z</time>
      </trkpt>
      <trkpt lat="36.520713" lon="-5.005842">
        <ele>234.85</ele>
        <time>2021-06-17T08:51:30.000Z</time>
      </trkpt>
      <trkpt lat="36.520749" lon="-5.005953">
        <ele>235.49</ele>
        <time>2021-06-17T08:51:31.000Z</time>
      </trkpt>
      <trkpt lat="36.520768" lon="-5.00613">
        <ele>239.33</ele>
        <time>2021-06-17T08:51:32.000Z</time>
      </trkpt>
      <trkpt lat="36.520797" lon="-5.006283">
        <ele>242.47</ele>
        <time>2021-06-17T08:51:33.000Z</time>
      </trkpt>
      <trkpt lat="36.520771" lon="-5.006413">
        <ele>243.04</ele>
        <time>2021-06-17T08:51:34.000Z</time>
      </trkpt>
      <trkpt lat="36.520719" lon="-5.006563">
        <ele>243.8</ele>
        <time>2021-06-17T08:51:35.000Z</time>
      </trkpt>
      <trkpt lat="36.520674" lon="-5.006683">
        <ele>245.65</ele>
        <time>2021-06-17T08:51:36.000Z</time>
      </trkpt>
      <trkpt lat="36.520613" lon="-5.006818">
        <ele>247.8</ele>
        <time>2021-06-17T08:51:37.000Z</time>
      </trkpt>
      <trkpt lat="36.520556" lon="-5.006951">
        <ele>250</ele>
        <time>2021-06-17T08:51:38.000Z</time>
      </trkpt>
      <trkpt lat="36.520516" lon="-5.007086">
        <ele>251.11</ele>
        <time>2021-06-17T08:51:39.000Z</time>
      </trkpt>
      <trkpt lat="36.520489" lon="-5.007224">
        <ele>252.6</ele>
        <time>2021-06-17T08:51:40.000Z</time>
      </trkpt>
      <trkpt lat="36.520485" lon="-5.007375">
        <ele>254.41</ele>
        <time>2021-06-17T08:51:41.000Z</time>
      </trkpt>
      <trkpt lat="36.520492" lon="-5.007492">
        <ele>256.8</ele>
        <time>2021-06-17T08:51:42.000Z</time>
      </trkpt>
      <trkpt lat="36.520513" lon="-5.007612">
        <ele>257.17</ele>
        <time>2021-06-17T08:51:43.000Z</time>
      </trkpt>
      <trkpt lat="36.520562" lon="-5.007714">
        <ele>258.45</ele>
        <time>2021-06-17T08:51:44.000Z</time>
      </trkpt>
      <trkpt lat="36.520624" lon="-5.007824">
        <ele>259.08</ele>
        <time>2021-06-17T08:51:45.000Z</time>
      </trkpt>
      <trkpt lat="36.520708" lon="-5.007918">
        <ele>260.25</ele>
        <time>2021-06-17T08:51:46.000Z</time>
      </trkpt>
      <trkpt lat="36.520791" lon="-5.007975">
        <ele>260.84</ele>
        <time>2021-06-17T08:51:47.000Z</time>
      </trkpt>
      <trkpt lat="36.520875" lon="-5.008016">
        <ele>261.38</ele>
        <time>2021-06-17T08:51:48.000Z</time>
      </trkpt>
      <trkpt lat="36.520958" lon="-5.008031">
        <ele>262.08</ele>
        <time>2021-06-17T08:51:49.000Z</time>
      </trkpt>
      <trkpt lat="36.521075" lon="-5.008021">
        <ele>262.83</ele>
        <time>2021-06-17T08:51:50.000Z</time>
      </trkpt>
      <trkpt lat="36.52117" lon="-5.008009">
        <ele>263.35</ele>
        <time>2021-06-17T08:51:51.000Z</time>
      </trkpt>
      <trkpt lat="36.521269" lon="-5.007957">
        <ele>264.24</ele>
        <time>2021-06-17T08:51:52.000Z</time>
      </trkpt>
      <trkpt lat="36.521384" lon="-5.007874">
        <ele>265.43</ele>
        <time>2021-06-17T08:51:53.000Z</time>
      </trkpt>
      <trkpt lat="36.521505" lon="-5.007808">
        <ele>265.43</ele>
        <time>2021-06-17T08:51:54.000Z</time>
      </trkpt>
      <trkpt lat="36.52161" lon="-5.007758">
        <ele>266.47</ele>
        <time>2021-06-17T08:51:55.000Z</time>
      </trkpt>
      <trkpt lat="36.521745" lon="-5.007741">
        <ele>269.36</ele>
        <time>2021-06-17T08:51:56.000Z</time>
      </trkpt>
      <trkpt lat="36.521874" lon="-5.007747">
        <ele>270.13</ele>
        <time>2021-06-17T08:51:57.000Z</time>
      </trkpt>
      <trkpt lat="36.521983" lon="-5.007774">
        <ele>273.8</ele>
        <time>2021-06-17T08:51:58.000Z</time>
      </trkpt>
      <trkpt lat="36.522092" lon="-5.007832">
        <ele>275.97</ele>
        <time>2021-06-17T08:51:59.000Z</time>
      </trkpt>
      <trkpt lat="36.522202" lon="-5.00792">
        <ele>279.04</ele>
        <time>2021-06-17T08:52:00.000Z</time>
      </trkpt>
      <trkpt lat="36.522319" lon="-5.00801">
        <ele>279.33</ele>
        <time>2021-06-17T08:52:01.000Z</time>
      </trkpt>
      <trkpt lat="36.522439" lon="-5.008091">
        <ele>281.97</ele>
        <time>2021-06-17T08:52:02.000Z</time>
      </trkpt>
      <trkpt lat="36.522541" lon="-5.008162">
        <ele>282.67</ele>
        <time>2021-06-17T08:52:03.000Z</time>
      </trkpt>
      <trkpt lat="36.522663" lon="-5.008216">
        <ele>284.86</ele>
        <time>2021-06-17T08:52:04.000Z</time>
      </trkpt>
      <trkpt lat="36.522775" lon="-5.008247">
        <ele>285.53</ele>
        <time>2021-06-17T08:52:05.000Z</time>
      </trkpt>
      <trkpt lat="36.5229" lon="-5.008253">
        <ele>285.67</ele>
        <time>2021-06-17T08:52:06.000Z</time>
      </trkpt>
      <trkpt lat="36.523031" lon="-5.008246">
        <ele>285.99</ele>
        <time>2021-06-17T08:52:07.000Z</time>
      </trkpt>
      <trkpt lat="36.523159" lon="-5.008243">
        <ele>288.5</ele>
        <time>2021-06-17T08:52:08.000Z</time>
      </trkpt>
      <trkpt lat="36.523305" lon="-5.008257">
        <ele>290.57</ele>
        <time>2021-06-17T08:52:09.000Z</time>
      </trkpt>
      <trkpt lat="36.523431" lon="-5.008283">
        <ele>290.75</ele>
        <time>2021-06-17T08:52:10.000Z</time>
      </trkpt>
      <trkpt lat="36.523554" lon="-5.008336">
        <ele>291.53</ele>
        <time>2021-06-17T08:52:11.000Z</time>
      </trkpt>
      <trkpt lat="36.523681" lon="-5.008409">
        <ele>291.49</ele>
        <time>2021-06-17T08:52:12.000Z</time>
      </trkpt>
      <trkpt lat="36.523811" lon="-5.008489">
        <ele>292.85</ele>
        <time>2021-06-17T08:52:13.000Z</time>
      </trkpt>
      <trkpt lat="36.523939" lon="-5.00857">
        <ele>294.09</ele>
        <time>2021-06-17T08:52:14.000Z</time>
      </trkpt>
      <trkpt lat="36.524074" lon="-5.008651">
        <ele>295.04</ele>
        <time>2021-06-17T08:52:15.000Z</time>
      </trkpt>
      <trkpt lat="36.52421" lon="-5.008729">
        <ele>295.57</ele>
        <time>2021-06-17T08:52:16.000Z</time>
      </trkpt>
      <trkpt lat="36.524346" lon="-5.00882">
        <ele>296.43</ele>
        <time>2021-06-17T08:52:17.000Z</time>
      </trkpt>
      <trkpt lat="36.524481" lon="-5.008912">
        <ele>297.92</ele>
        <time>2021-06-17T08:52:18.000Z</time>
      </trkpt>
      <trkpt lat="36.524617" lon="-5.008983">
        <ele>298.36</ele>
        <time>2021-06-17T08:52:19.000Z</time>
      </trkpt>
      <trkpt lat="36.524764" lon="-5.009053">
        <ele>299.69</ele>
        <time>2021-06-17T08:52:20.000Z</time>
      </trkpt>
      <trkpt lat="36.524893" lon="-5.009122">
        <ele>300.32</ele>
        <time>2021-06-17T08:52:21.000Z</time>
      </trkpt>
      <trkpt lat="36.525033" lon="-5.009153">
        <ele>300.29</ele>
        <time>2021-06-17T08:52:22.000Z</time>
      </trkpt>
      <trkpt lat="36.525178" lon="-5.009197">
        <ele>301.27</ele>
        <time>2021-06-17T08:52:23.000Z</time>
      </trkpt>
      <trkpt lat="36.525331" lon="-5.009253">
        <ele>303.03</ele>
        <time>2021-06-17T08:52:24.000Z</time>
      </trkpt>
      <trkpt lat="36.525486" lon="-5.009283">
        <ele>305.05</ele>
        <time>2021-06-17T08:52:25.000Z</time>
      </trkpt>
      <trkpt lat="36.52564" lon="-5.009285">
        <ele>305.11</ele>
        <time>2021-06-17T08:52:26.000Z</time>
      </trkpt>
      <trkpt lat="36.525787" lon="-5.009302">
        <ele>305.76</ele>
        <time>2021-06-17T08:52:27.000Z</time>
      </trkpt>
      <trkpt lat="36.525939" lon="-5.009302">
        <ele>305.59</ele>
        <time>2021-06-17T08:52:28.000Z</time>
      </trkpt>
      <trkpt lat="36.526081" lon="-5.0093">
        <ele>305.49</ele>
        <time>2021-06-17T08:52:29.000Z</time>
      </trkpt>
      <trkpt lat="36.52622" lon="-5.009302">
        <ele>304.79</ele>
        <time>2021-06-17T08:52:30.000Z</time>
      </trkpt>
      <trkpt lat="36.526356" lon="-5.009307">
        <ele>304.55</ele>
        <time>2021-06-17T08:52:31.000Z</time>
      </trkpt>
      <trkpt lat="36.526488" lon="-5.009296">
        <ele>304.68</ele>
        <time>2021-06-17T08:52:32.000Z</time>
      </trkpt>
      <trkpt lat="36.526614" lon="-5.009273">
        <ele>304.71</ele>
        <time>2021-06-17T08:52:33.000Z</time>
      </trkpt>
      <trkpt lat="36.526734" lon="-5.009239">
        <ele>305.02</ele>
        <time>2021-06-17T08:52:34.000Z</time>
      </trkpt>
      <trkpt lat="36.526852" lon="-5.009187">
        <ele>305.35</ele>
        <time>2021-06-17T08:52:35.000Z</time>
      </trkpt>
      <trkpt lat="36.526956" lon="-5.009116">
        <ele>305.25</ele>
        <time>2021-06-17T08:52:36.000Z</time>
      </trkpt>
      <trkpt lat="36.527058" lon="-5.009028">
        <ele>305.75</ele>
        <time>2021-06-17T08:52:37.000Z</time>
      </trkpt>
      <trkpt lat="36.527161" lon="-5.008927">
        <ele>309.21</ele>
        <time>2021-06-17T08:52:38.000Z</time>
      </trkpt>
      <trkpt lat="36.527249" lon="-5.008816">
        <ele>311.81</ele>
        <time>2021-06-17T08:52:39.000Z</time>
      </trkpt>
      <trkpt lat="36.527326" lon="-5.008688">
        <ele>314.56</ele>
        <time>2021-06-17T08:52:40.000Z</time>
      </trkpt>
      <trkpt lat="36.527364" lon="-5.008537">
        <ele>315.25</ele>
        <time>2021-06-17T08:52:41.000Z</time>
      </trkpt>
      <trkpt lat="36.527393" lon="-5.008375">
        <ele>315.3</ele>
        <time>2021-06-17T08:52:42.000Z</time>
      </trkpt>
      <trkpt lat="36.527425" lon="-5.008209">
        <ele>315.6</ele>
        <time>2021-06-17T08:52:43.000Z</time>
      </trkpt>
      <trkpt lat="36.527462" lon="-5.008055">
        <ele>315.72</ele>
        <time>2021-06-17T08:52:44.000Z</time>
      </trkpt>
      <trkpt lat="36.527499" lon="-5.007932">
        <ele>316.96</ele>
        <time>2021-06-17T08:52:45.000Z</time>
      </trkpt>
      <trkpt lat="36.527557" lon="-5.007782">
        <ele>316.63</ele>
        <time>2021-06-17T08:52:46.000Z</time>
      </trkpt>
      <trkpt lat="36.527629" lon="-5.007652">
        <ele>316.96</ele>
        <time>2021-06-17T08:52:47.000Z</time>
      </trkpt>
      <trkpt lat="36.527712" lon="-5.007544">
        <ele>316.94</ele>
        <time>2021-06-17T08:52:48.000Z</time>
      </trkpt>
      <trkpt lat="36.527793" lon="-5.007455">
        <ele>318.17</ele>
        <time>2021-06-17T08:52:49.000Z</time>
      </trkpt>
      <trkpt lat="36.527893" lon="-5.007396">
        <ele>318.96</ele>
        <time>2021-06-17T08:52:50.000Z</time>
      </trkpt>
      <trkpt lat="36.527969" lon="-5.007371">
        <ele>319.03</ele>
        <time>2021-06-17T08:52:51.000Z</time>
      </trkpt>
      <trkpt lat="36.528086" lon="-5.007368">
        <ele>316.74</ele>
        <time>2021-06-17T08:52:52.000Z</time>
      </trkpt>
      <trkpt lat="36.528262" lon="-5.007356">
        <ele>317.02</ele>
        <time>2021-06-17T08:52:53.000Z</time>
      </trkpt>
      <trkpt lat="36.528437" lon="-5.007376">
        <ele>317.11</ele>
        <time>2021-06-17T08:52:54.000Z</time>
      </trkpt>
      <trkpt lat="36.528583" lon="-5.007394">
        <ele>316.98</ele>
        <time>2021-06-17T08:52:55.000Z</time>
      </trkpt>
      <trkpt lat="36.528758" lon="-5.00743">
        <ele>316.72</ele>
        <time>2021-06-17T08:52:56.000Z</time>
      </trkpt>
      <trkpt lat="36.528918" lon="-5.007459">
        <ele>316.89</ele>
        <time>2021-06-17T08:52:57.000Z</time>
      </trkpt>
      <trkpt lat="36.529082" lon="-5.007483">
        <ele>316.95</ele>
        <time>2021-06-17T08:52:58.000Z</time>
      </trkpt>
      <trkpt lat="36.52924" lon="-5.007493">
        <ele>317.19</ele>
        <time>2021-06-17T08:52:59.000Z</time>
      </trkpt>
      <trkpt lat="36.529389" lon="-5.007492">
        <ele>317.3</ele>
        <time>2021-06-17T08:53:00.000Z</time>
      </trkpt>
      <trkpt lat="36.529534" lon="-5.007471">
        <ele>317.53</ele>
        <time>2021-06-17T08:53:01.000Z</time>
      </trkpt>
      <trkpt lat="36.529671" lon="-5.007436">
        <ele>317.92</ele>
        <time>2021-06-17T08:53:02.000Z</time>
      </trkpt>
      <trkpt lat="36.529805" lon="-5.007387">
        <ele>318.49</ele>
        <time>2021-06-17T08:53:03.000Z</time>
      </trkpt>
      <trkpt lat="36.529938" lon="-5.007342">
        <ele>318.59</ele>
        <time>2021-06-17T08:53:04.000Z</time>
      </trkpt>
      <trkpt lat="36.530076" lon="-5.007287">
        <ele>318.62</ele>
        <time>2021-06-17T08:53:05.000Z</time>
      </trkpt>
      <trkpt lat="36.530213" lon="-5.007238">
        <ele>318.99</ele>
        <time>2021-06-17T08:53:06.000Z</time>
      </trkpt>
      <trkpt lat="36.530345" lon="-5.00718">
        <ele>319.28</ele>
        <time>2021-06-17T08:53:07.000Z</time>
      </trkpt>
      <trkpt lat="36.530479" lon="-5.007131">
        <ele>320.04</ele>
        <time>2021-06-17T08:53:08.000Z</time>
      </trkpt>
      <trkpt lat="36.530616" lon="-5.007097">
        <ele>320.92</ele>
        <time>2021-06-17T08:53:09.000Z</time>
      </trkpt>
      <trkpt lat="36.530748" lon="-5.007083">
        <ele>322.09</ele>
        <time>2021-06-17T08:53:10.000Z</time>
      </trkpt>
      <trkpt lat="36.530883" lon="-5.007081">
        <ele>324.96</ele>
        <time>2021-06-17T08:53:11.000Z</time>
      </trkpt>
      <trkpt lat="36.531008" lon="-5.007112">
        <ele>325.78</ele>
        <time>2021-06-17T08:53:12.000Z</time>
      </trkpt>
      <trkpt lat="36.531122" lon="-5.007162">
        <ele>326.42</ele>
        <time>2021-06-17T08:53:13.000Z</time>
      </trkpt>
      <trkpt lat="36.531245" lon="-5.007263">
        <ele>327.39</ele>
        <time>2021-06-17T08:53:14.000Z</time>
      </trkpt>
      <trkpt lat="36.531362" lon="-5.007357">
        <ele>327.92</ele>
        <time>2021-06-17T08:53:15.000Z</time>
      </trkpt>
      <trkpt lat="36.531449" lon="-5.007462">
        <ele>328.39</ele>
        <time>2021-06-17T08:53:16.000Z</time>
      </trkpt>
      <trkpt lat="36.531552" lon="-5.007556">
        <ele>328.53</ele>
        <time>2021-06-17T08:53:17.000Z</time>
      </trkpt>
      <trkpt lat="36.531661" lon="-5.007684">
        <ele>328.72</ele>
        <time>2021-06-17T08:53:18.000Z</time>
      </trkpt>
      <trkpt lat="36.531763" lon="-5.007818">
        <ele>329.96</ele>
        <time>2021-06-17T08:53:19.000Z</time>
      </trkpt>
      <trkpt lat="36.531873" lon="-5.007956">
        <ele>330.3</ele>
        <time>2021-06-17T08:53:20.000Z</time>
      </trkpt>
      <trkpt lat="36.531984" lon="-5.008078">
        <ele>330.65</ele>
        <time>2021-06-17T08:53:21.000Z</time>
      </trkpt>
      <trkpt lat="36.532078" lon="-5.008201">
        <ele>330.91</ele>
        <time>2021-06-17T08:53:22.000Z</time>
      </trkpt>
      <trkpt lat="36.532169" lon="-5.008325">
        <ele>331.14</ele>
        <time>2021-06-17T08:53:23.000Z</time>
      </trkpt>
      <trkpt lat="36.532258" lon="-5.008444">
        <ele>331.43</ele>
        <time>2021-06-17T08:53:24.000Z</time>
      </trkpt>
      <trkpt lat="36.532338" lon="-5.008528">
        <ele>330.84</ele>
        <time>2021-06-17T08:53:25.000Z</time>
      </trkpt>
      <trkpt lat="36.53243" lon="-5.008599">
        <ele>330.98</ele>
        <time>2021-06-17T08:53:26.000Z</time>
      </trkpt>
      <trkpt lat="36.532519" lon="-5.008664">
        <ele>332.08</ele>
        <time>2021-06-17T08:53:27.000Z</time>
      </trkpt>
      <trkpt lat="36.53262" lon="-5.008702">
        <ele>333.4</ele>
        <time>2021-06-17T08:53:28.000Z</time>
      </trkpt>
      <trkpt lat="36.532731" lon="-5.008711">
        <ele>333.57</ele>
        <time>2021-06-17T08:53:29.000Z</time>
      </trkpt>
      <trkpt lat="36.532829" lon="-5.008702">
        <ele>334.31</ele>
        <time>2021-06-17T08:53:30.000Z</time>
      </trkpt>
      <trkpt lat="36.532969" lon="-5.008664">
        <ele>335.77</ele>
        <time>2021-06-17T08:53:31.000Z</time>
      </trkpt>
      <trkpt lat="36.533073" lon="-5.00859">
        <ele>336.32</ele>
        <time>2021-06-17T08:53:32.000Z</time>
      </trkpt>
      <trkpt lat="36.533168" lon="-5.008477">
        <ele>337.03</ele>
        <time>2021-06-17T08:53:33.000Z</time>
      </trkpt>
      <trkpt lat="36.533236" lon="-5.008342">
        <ele>336.78</ele>
        <time>2021-06-17T08:53:34.000Z</time>
      </trkpt>
      <trkpt lat="36.533314" lon="-5.008174">
        <ele>336.89</ele>
        <time>2021-06-17T08:53:35.000Z</time>
      </trkpt>
      <trkpt lat="36.533384" lon="-5.008037">
        <ele>337.99</ele>
        <time>2021-06-17T08:53:36.000Z</time>
      </trkpt>
      <trkpt lat="36.533456" lon="-5.007932">
        <ele>338.52</ele>
        <time>2021-06-17T08:53:37.000Z</time>
      </trkpt>
      <trkpt lat="36.533545" lon="-5.007835">
        <ele>340.17</ele>
        <time>2021-06-17T08:53:38.000Z</time>
      </trkpt>
      <trkpt lat="36.533636" lon="-5.007742">
        <ele>341.28</ele>
        <time>2021-06-17T08:53:39.000Z</time>
      </trkpt>
      <trkpt lat="36.533742" lon="-5.007702">
        <ele>342.1</ele>
        <time>2021-06-17T08:53:40.000Z</time>
      </trkpt>
      <trkpt lat="36.533853" lon="-5.007674">
        <ele>343.14</ele>
        <time>2021-06-17T08:53:41.000Z</time>
      </trkpt>
      <trkpt lat="36.533958" lon="-5.007685">
        <ele>343.47</ele>
        <time>2021-06-17T08:53:42.000Z</time>
      </trkpt>
      <trkpt lat="36.534088" lon="-5.007738">
        <ele>344.33</ele>
        <time>2021-06-17T08:53:43.000Z</time>
      </trkpt>
      <trkpt lat="36.534196" lon="-5.00782">
        <ele>345.62</ele>
        <time>2021-06-17T08:53:44.000Z</time>
      </trkpt>
      <trkpt lat="36.534292" lon="-5.007909">
        <ele>345.95</ele>
        <time>2021-06-17T08:53:45.000Z</time>
      </trkpt>
      <trkpt lat="36.534386" lon="-5.008003">
        <ele>346.24</ele>
        <time>2021-06-17T08:53:46.000Z</time>
      </trkpt>
      <trkpt lat="36.534481" lon="-5.008077">
        <ele>346.66</ele>
        <time>2021-06-17T08:53:47.000Z</time>
      </trkpt>
      <trkpt lat="36.534584" lon="-5.008125">
        <ele>346.69</ele>
        <time>2021-06-17T08:53:48.000Z</time>
      </trkpt>
      <trkpt lat="36.534692" lon="-5.008138">
        <ele>347.12</ele>
        <time>2021-06-17T08:53:49.000Z</time>
      </trkpt>
      <trkpt lat="36.534808" lon="-5.008122">
        <ele>347.71</ele>
        <time>2021-06-17T08:53:50.000Z</time>
      </trkpt>
      <trkpt lat="36.534909" lon="-5.008083">
        <ele>348.5</ele>
        <time>2021-06-17T08:53:51.000Z</time>
      </trkpt>
      <trkpt lat="36.535001" lon="-5.008029">
        <ele>348.72</ele>
        <time>2021-06-17T08:53:52.000Z</time>
      </trkpt>
      <trkpt lat="36.535077" lon="-5.007975">
        <ele>349.16</ele>
        <time>2021-06-17T08:53:53.000Z</time>
      </trkpt>
      <trkpt lat="36.535139" lon="-5.00793">
        <ele>348.9</ele>
        <time>2021-06-17T08:53:54.000Z</time>
      </trkpt>
      <trkpt lat="36.5352" lon="-5.007901">
        <ele>350.09</ele>
        <time>2021-06-17T08:53:55.000Z</time>
      </trkpt>
      <trkpt lat="36.535246" lon="-5.007882">
        <ele>350.37</ele>
        <time>2021-06-17T08:53:56.000Z</time>
      </trkpt>
      <trkpt lat="36.535303" lon="-5.007861">
        <ele>350.25</ele>
        <time>2021-06-17T08:53:57.000Z</time>
      </trkpt>
      <trkpt lat="36.535372" lon="-5.007863">
        <ele>348.61</ele>
        <time>2021-06-17T08:53:58.000Z</time>
      </trkpt>
      <trkpt lat="36.535461" lon="-5.007857">
        <ele>349.98</ele>
        <time>2021-06-17T08:53:59.000Z</time>
      </trkpt>
      <trkpt lat="36.535541" lon="-5.007857">
        <ele>350.14</ele>
        <time>2021-06-17T08:54:00.000Z</time>
      </trkpt>
      <trkpt lat="36.535627" lon="-5.007867">
        <ele>350.46</ele>
        <time>2021-06-17T08:54:01.000Z</time>
      </trkpt>
      <trkpt lat="36.535747" lon="-5.007889">
        <ele>350.35</ele>
        <time>2021-06-17T08:54:02.000Z</time>
      </trkpt>
      <trkpt lat="36.535859" lon="-5.007919">
        <ele>350.33</ele>
        <time>2021-06-17T08:54:03.000Z</time>
      </trkpt>
      <trkpt lat="36.535977" lon="-5.00795">
        <ele>351.17</ele>
        <time>2021-06-17T08:54:04.000Z</time>
      </trkpt>
      <trkpt lat="36.536106" lon="-5.00796">
        <ele>351.7</ele>
        <time>2021-06-17T08:54:05.000Z</time>
      </trkpt>
      <trkpt lat="36.536237" lon="-5.007951">
        <ele>351.91</ele>
        <time>2021-06-17T08:54:06.000Z</time>
      </trkpt>
      <trkpt lat="36.536375" lon="-5.007909">
        <ele>352.39</ele>
        <time>2021-06-17T08:54:07.000Z</time>
      </trkpt>
      <trkpt lat="36.536541" lon="-5.007863">
        <ele>354.12</ele>
        <time>2021-06-17T08:54:08.000Z</time>
      </trkpt>
      <trkpt lat="36.536651" lon="-5.007793">
        <ele>353.29</ele>
        <time>2021-06-17T08:54:09.000Z</time>
      </trkpt>
      <trkpt lat="36.536786" lon="-5.007697">
        <ele>353.46</ele>
        <time>2021-06-17T08:54:10.000Z</time>
      </trkpt>
      <trkpt lat="36.536919" lon="-5.007603">
        <ele>353.83</ele>
        <time>2021-06-17T08:54:11.000Z</time>
      </trkpt>
      <trkpt lat="36.537047" lon="-5.007522">
        <ele>354.32</ele>
        <time>2021-06-17T08:54:12.000Z</time>
      </trkpt>
      <trkpt lat="36.537173" lon="-5.00744">
        <ele>354.8</ele>
        <time>2021-06-17T08:54:13.000Z</time>
      </trkpt>
      <trkpt lat="36.537305" lon="-5.007363">
        <ele>355.17</ele>
        <time>2021-06-17T08:54:14.000Z</time>
      </trkpt>
      <trkpt lat="36.537431" lon="-5.007297">
        <ele>354.84</ele>
        <time>2021-06-17T08:54:15.000Z</time>
      </trkpt>
      <trkpt lat="36.537564" lon="-5.007252">
        <ele>354.55</ele>
        <time>2021-06-17T08:54:16.000Z</time>
      </trkpt>
      <trkpt lat="36.537691" lon="-5.007218">
        <ele>354.13</ele>
        <time>2021-06-17T08:54:17.000Z</time>
      </trkpt>
      <trkpt lat="36.537772" lon="-5.007197">
        <ele>354.36</ele>
        <time>2021-06-17T08:54:18.000Z</time>
      </trkpt>
      <trkpt lat="36.537875" lon="-5.007211">
        <ele>354.66</ele>
        <time>2021-06-17T08:54:19.000Z</time>
      </trkpt>
      <trkpt lat="36.537985" lon="-5.007257">
        <ele>355.26</ele>
        <time>2021-06-17T08:54:20.000Z</time>
      </trkpt>
      <trkpt lat="36.538073" lon="-5.007321">
        <ele>356.14</ele>
        <time>2021-06-17T08:54:21.000Z</time>
      </trkpt>
      <trkpt lat="36.538178" lon="-5.007388">
        <ele>355.37</ele>
        <time>2021-06-17T08:54:22.000Z</time>
      </trkpt>
      <trkpt lat="36.538255" lon="-5.007473">
        <ele>355.31</ele>
        <time>2021-06-17T08:54:23.000Z</time>
      </trkpt>
      <trkpt lat="36.538334" lon="-5.007599">
        <ele>359.55</ele>
        <time>2021-06-17T08:54:24.000Z</time>
      </trkpt>
      <trkpt lat="36.538401" lon="-5.007717">
        <ele>359.81</ele>
        <time>2021-06-17T08:54:25.000Z</time>
      </trkpt>
      <trkpt lat="36.538475" lon="-5.007875">
        <ele>359.51</ele>
        <time>2021-06-17T08:54:26.000Z</time>
      </trkpt>
      <trkpt lat="36.538535" lon="-5.008017">
        <ele>359.71</ele>
        <time>2021-06-17T08:54:27.000Z</time>
      </trkpt>
      <trkpt lat="36.538612" lon="-5.008115">
        <ele>359.37</ele>
        <time>2021-06-17T08:54:28.000Z</time>
      </trkpt>
      <trkpt lat="36.538685" lon="-5.008231">
        <ele>359.46</ele>
        <time>2021-06-17T08:54:29.000Z</time>
      </trkpt>
      <trkpt lat="36.538768" lon="-5.008344">
        <ele>359.54</ele>
        <time>2021-06-17T08:54:30.000Z</time>
      </trkpt>
      <trkpt lat="36.53886" lon="-5.008441">
        <ele>359.67</ele>
        <time>2021-06-17T08:54:31.000Z</time>
      </trkpt>
      <trkpt lat="36.538957" lon="-5.008507">
        <ele>359.83</ele>
        <time>2021-06-17T08:54:32.000Z</time>
      </trkpt>
      <trkpt lat="36.53906" lon="-5.008559">
        <ele>360.56</ele>
        <time>2021-06-17T08:54:33.000Z</time>
      </trkpt>
      <trkpt lat="36.53916" lon="-5.008598">
        <ele>361.16</ele>
        <time>2021-06-17T08:54:34.000Z</time>
      </trkpt>
      <trkpt lat="36.539262" lon="-5.008609">
        <ele>361.84</ele>
        <time>2021-06-17T08:54:35.000Z</time>
      </trkpt>
      <trkpt lat="36.539357" lon="-5.008598">
        <ele>362.53</ele>
        <time>2021-06-17T08:54:36.000Z</time>
      </trkpt>
      <trkpt lat="36.539442" lon="-5.008559">
        <ele>363.52</ele>
        <time>2021-06-17T08:54:37.000Z</time>
      </trkpt>
      <trkpt lat="36.539535" lon="-5.008512">
        <ele>365.71</ele>
        <time>2021-06-17T08:54:38.000Z</time>
      </trkpt>
      <trkpt lat="36.539618" lon="-5.008452">
        <ele>367.85</ele>
        <time>2021-06-17T08:54:39.000Z</time>
      </trkpt>
      <trkpt lat="36.539687" lon="-5.008381">
        <ele>367.95</ele>
        <time>2021-06-17T08:54:40.000Z</time>
      </trkpt>
      <trkpt lat="36.539745" lon="-5.008306">
        <ele>367.94</ele>
        <time>2021-06-17T08:54:41.000Z</time>
      </trkpt>
      <trkpt lat="36.539769" lon="-5.008251">
        <ele>368.7</ele>
        <time>2021-06-17T08:54:42.000Z</time>
      </trkpt>
      <trkpt lat="36.539801" lon="-5.00819">
        <ele>368.79</ele>
        <time>2021-06-17T08:54:43.000Z</time>
      </trkpt>
      <trkpt lat="36.539819" lon="-5.008121">
        <ele>368.23</ele>
        <time>2021-06-17T08:54:44.000Z</time>
      </trkpt>
      <trkpt lat="36.539852" lon="-5.008018">
        <ele>367.63</ele>
        <time>2021-06-17T08:54:45.000Z</time>
      </trkpt>
      <trkpt lat="36.539872" lon="-5.007908">
        <ele>369.32</ele>
        <time>2021-06-17T08:54:46.000Z</time>
      </trkpt>
      <trkpt lat="36.539891" lon="-5.007776">
        <ele>369.99</ele>
        <time>2021-06-17T08:54:47.000Z</time>
      </trkpt>
      <trkpt lat="36.539912" lon="-5.007638">
        <ele>370.62</ele>
        <time>2021-06-17T08:54:48.000Z</time>
      </trkpt>
      <trkpt lat="36.539935" lon="-5.007493">
        <ele>371.16</ele>
        <time>2021-06-17T08:54:49.000Z</time>
      </trkpt>
      <trkpt lat="36.539971" lon="-5.007359">
        <ele>369.39</ele>
        <time>2021-06-17T08:54:50.000Z</time>
      </trkpt>
      <trkpt lat="36.540019" lon="-5.007231">
        <ele>369.03</ele>
        <time>2021-06-17T08:54:51.000Z</time>
      </trkpt>
      <trkpt lat="36.540097" lon="-5.007127">
        <ele>368.2</ele>
        <time>2021-06-17T08:54:52.000Z</time>
      </trkpt>
      <trkpt lat="36.540187" lon="-5.007046">
        <ele>367.71</ele>
        <time>2021-06-17T08:54:53.000Z</time>
      </trkpt>
      <trkpt lat="36.540281" lon="-5.00698">
        <ele>368.54</ele>
        <time>2021-06-17T08:54:54.000Z</time>
      </trkpt>
      <trkpt lat="36.540387" lon="-5.006934">
        <ele>369.49</ele>
        <time>2021-06-17T08:54:55.000Z</time>
      </trkpt>
      <trkpt lat="36.540488" lon="-5.006917">
        <ele>370.63</ele>
        <time>2021-06-17T08:54:56.000Z</time>
      </trkpt>
      <trkpt lat="36.540587" lon="-5.006971">
        <ele>371.88</ele>
        <time>2021-06-17T08:54:57.000Z</time>
      </trkpt>
      <trkpt lat="36.540686" lon="-5.007038">
        <ele>374.38</ele>
        <time>2021-06-17T08:54:58.000Z</time>
      </trkpt>
      <trkpt lat="36.540782" lon="-5.007114">
        <ele>375.22</ele>
        <time>2021-06-17T08:54:59.000Z</time>
      </trkpt>
      <trkpt lat="36.540878" lon="-5.007204">
        <ele>375.91</ele>
        <time>2021-06-17T08:55:00.000Z</time>
      </trkpt>
      <trkpt lat="36.540969" lon="-5.0073">
        <ele>376.74</ele>
        <time>2021-06-17T08:55:01.000Z</time>
      </trkpt>
      <trkpt lat="36.541052" lon="-5.007413">
        <ele>377.02</ele>
        <time>2021-06-17T08:55:02.000Z</time>
      </trkpt>
      <trkpt lat="36.541104" lon="-5.007558">
        <ele>378.44</ele>
        <time>2021-06-17T08:55:03.000Z</time>
      </trkpt>
      <trkpt lat="36.541138" lon="-5.007699">
        <ele>379</ele>
        <time>2021-06-17T08:55:04.000Z</time>
      </trkpt>
      <trkpt lat="36.54116" lon="-5.007852">
        <ele>380.34</ele>
        <time>2021-06-17T08:55:05.000Z</time>
      </trkpt>
      <trkpt lat="36.541188" lon="-5.008002">
        <ele>382.21</ele>
        <time>2021-06-17T08:55:06.000Z</time>
      </trkpt>
      <trkpt lat="36.541235" lon="-5.008146">
        <ele>383.2</ele>
        <time>2021-06-17T08:55:07.000Z</time>
      </trkpt>
      <trkpt lat="36.541288" lon="-5.008273">
        <ele>383.48</ele>
        <time>2021-06-17T08:55:08.000Z</time>
      </trkpt>
      <trkpt lat="36.541368" lon="-5.008385">
        <ele>383.81</ele>
        <time>2021-06-17T08:55:09.000Z</time>
      </trkpt>
      <trkpt lat="36.541461" lon="-5.008484">
        <ele>384.21</ele>
        <time>2021-06-17T08:55:10.000Z</time>
      </trkpt>
      <trkpt lat="36.541568" lon="-5.008569">
        <ele>386.5</ele>
        <time>2021-06-17T08:55:11.000Z</time>
      </trkpt>
      <trkpt lat="36.541661" lon="-5.008676">
        <ele>389.83</ele>
        <time>2021-06-17T08:55:12.000Z</time>
      </trkpt>
      <trkpt lat="36.541725" lon="-5.008787">
        <ele>390.46</ele>
        <time>2021-06-17T08:55:13.000Z</time>
      </trkpt>
      <trkpt lat="36.541779" lon="-5.008903">
        <ele>390.49</ele>
        <time>2021-06-17T08:55:14.000Z</time>
      </trkpt>
      <trkpt lat="36.541806" lon="-5.009052">
        <ele>392.66</ele>
        <time>2021-06-17T08:55:15.000Z</time>
      </trkpt>
      <trkpt lat="36.54183" lon="-5.009183">
        <ele>393.44</ele>
        <time>2021-06-17T08:55:16.000Z</time>
      </trkpt>
      <trkpt lat="36.541807" lon="-5.009284">
        <ele>391.3</ele>
        <time>2021-06-17T08:55:17.000Z</time>
      </trkpt>
      <trkpt lat="36.54178" lon="-5.009474">
        <ele>393.01</ele>
        <time>2021-06-17T08:55:18.000Z</time>
      </trkpt>
      <trkpt lat="36.541743" lon="-5.009687">
        <ele>394.63</ele>
        <time>2021-06-17T08:55:19.000Z</time>
      </trkpt>
      <trkpt lat="36.541699" lon="-5.009884">
        <ele>395.89</ele>
        <time>2021-06-17T08:55:20.000Z</time>
      </trkpt>
      <trkpt lat="36.541649" lon="-5.010052">
        <ele>396.06</ele>
        <time>2021-06-17T08:55:21.000Z</time>
      </trkpt>
      <trkpt lat="36.541623" lon="-5.010211">
        <ele>397.71</ele>
        <time>2021-06-17T08:55:22.000Z</time>
      </trkpt>
      <trkpt lat="36.541578" lon="-5.010379">
        <ele>398.58</ele>
        <time>2021-06-17T08:55:23.000Z</time>
      </trkpt>
      <trkpt lat="36.541556" lon="-5.010542">
        <ele>399.4</ele>
        <time>2021-06-17T08:55:24.000Z</time>
      </trkpt>
      <trkpt lat="36.541525" lon="-5.010703">
        <ele>399.83</ele>
        <time>2021-06-17T08:55:25.000Z</time>
      </trkpt>
      <trkpt lat="36.541504" lon="-5.010871">
        <ele>401.41</ele>
        <time>2021-06-17T08:55:26.000Z</time>
      </trkpt>
      <trkpt lat="36.541484" lon="-5.011047">
        <ele>401.93</ele>
        <time>2021-06-17T08:55:27.000Z</time>
      </trkpt>
      <trkpt lat="36.541476" lon="-5.011209">
        <ele>402.51</ele>
        <time>2021-06-17T08:55:28.000Z</time>
      </trkpt>
      <trkpt lat="36.541481" lon="-5.011366">
        <ele>403.37</ele>
        <time>2021-06-17T08:55:29.000Z</time>
      </trkpt>
      <trkpt lat="36.541494" lon="-5.011526">
        <ele>404.03</ele>
        <time>2021-06-17T08:55:30.000Z</time>
      </trkpt>
      <trkpt lat="36.541524" lon="-5.011682">
        <ele>404.85</ele>
        <time>2021-06-17T08:55:31.000Z</time>
      </trkpt>
      <trkpt lat="36.541566" lon="-5.011817">
        <ele>407.07</ele>
        <time>2021-06-17T08:55:32.000Z</time>
      </trkpt>
      <trkpt lat="36.541617" lon="-5.011965">
        <ele>408.29</ele>
        <time>2021-06-17T08:55:33.000Z</time>
      </trkpt>
      <trkpt lat="36.541672" lon="-5.012113">
        <ele>409.89</ele>
        <time>2021-06-17T08:55:34.000Z</time>
      </trkpt>
      <trkpt lat="36.541721" lon="-5.012269">
        <ele>410.55</ele>
        <time>2021-06-17T08:55:35.000Z</time>
      </trkpt>
      <trkpt lat="36.541776" lon="-5.012412">
        <ele>412.18</ele>
        <time>2021-06-17T08:55:36.000Z</time>
      </trkpt>
      <trkpt lat="36.541815" lon="-5.012588">
        <ele>413.63</ele>
        <time>2021-06-17T08:55:37.000Z</time>
      </trkpt>
      <trkpt lat="36.541837" lon="-5.01278">
        <ele>415.12</ele>
        <time>2021-06-17T08:55:38.000Z</time>
      </trkpt>
      <trkpt lat="36.541867" lon="-5.012951">
        <ele>415.65</ele>
        <time>2021-06-17T08:55:39.000Z</time>
      </trkpt>
      <trkpt lat="36.541884" lon="-5.01311">
        <ele>416.02</ele>
        <time>2021-06-17T08:55:40.000Z</time>
      </trkpt>
      <trkpt lat="36.541888" lon="-5.013296">
        <ele>418.06</ele>
        <time>2021-06-17T08:55:41.000Z</time>
      </trkpt>
      <trkpt lat="36.54186" lon="-5.013503">
        <ele>419.54</ele>
        <time>2021-06-17T08:55:42.000Z</time>
      </trkpt>
      <trkpt lat="36.54183" lon="-5.0137">
        <ele>421.65</ele>
        <time>2021-06-17T08:55:43.000Z</time>
      </trkpt>
      <trkpt lat="36.541782" lon="-5.0139">
        <ele>422.83</ele>
        <time>2021-06-17T08:55:44.000Z</time>
      </trkpt>
      <trkpt lat="36.541719" lon="-5.014101">
        <ele>424.54</ele>
        <time>2021-06-17T08:55:45.000Z</time>
      </trkpt>
      <trkpt lat="36.541663" lon="-5.014304">
        <ele>425.82</ele>
        <time>2021-06-17T08:55:46.000Z</time>
      </trkpt>
      <trkpt lat="36.541605" lon="-5.014501">
        <ele>426.28</ele>
        <time>2021-06-17T08:55:47.000Z</time>
      </trkpt>
      <trkpt lat="36.54155" lon="-5.014695">
        <ele>426.95</ele>
        <time>2021-06-17T08:55:48.000Z</time>
      </trkpt>
      <trkpt lat="36.541498" lon="-5.01488">
        <ele>428.25</ele>
        <time>2021-06-17T08:55:49.000Z</time>
      </trkpt>
      <trkpt lat="36.541455" lon="-5.015072">
        <ele>429.66</ele>
        <time>2021-06-17T08:55:50.000Z</time>
      </trkpt>
      <trkpt lat="36.541416" lon="-5.015251">
        <ele>430.64</ele>
        <time>2021-06-17T08:55:51.000Z</time>
      </trkpt>
      <trkpt lat="36.541403" lon="-5.015433">
        <ele>432.16</ele>
        <time>2021-06-17T08:55:52.000Z</time>
      </trkpt>
      <trkpt lat="36.54141" lon="-5.015607">
        <ele>433.84</ele>
        <time>2021-06-17T08:55:53.000Z</time>
      </trkpt>
      <trkpt lat="36.541425" lon="-5.015788">
        <ele>435.52</ele>
        <time>2021-06-17T08:55:54.000Z</time>
      </trkpt>
      <trkpt lat="36.541452" lon="-5.015964">
        <ele>437.11</ele>
        <time>2021-06-17T08:55:55.000Z</time>
      </trkpt>
      <trkpt lat="36.541492" lon="-5.016147">
        <ele>437.72</ele>
        <time>2021-06-17T08:55:56.000Z</time>
      </trkpt>
      <trkpt lat="36.541533" lon="-5.016326">
        <ele>438.84</ele>
        <time>2021-06-17T08:55:57.000Z</time>
      </trkpt>
      <trkpt lat="36.541581" lon="-5.016499">
        <ele>439.57</ele>
        <time>2021-06-17T08:55:58.000Z</time>
      </trkpt>
      <trkpt lat="36.541608" lon="-5.016671">
        <ele>441.59</ele>
        <time>2021-06-17T08:55:59.000Z</time>
      </trkpt>
      <trkpt lat="36.541649" lon="-5.016847">
        <ele>442.12</ele>
        <time>2021-06-17T08:56:00.000Z</time>
      </trkpt>
      <trkpt lat="36.541669" lon="-5.017019">
        <ele>442.08</ele>
        <time>2021-06-17T08:56:01.000Z</time>
      </trkpt>
      <trkpt lat="36.541674" lon="-5.017195">
        <ele>442.09</ele>
        <time>2021-06-17T08:56:02.000Z</time>
      </trkpt>
      <trkpt lat="36.541673" lon="-5.017388">
        <ele>443</ele>
        <time>2021-06-17T08:56:03.000Z</time>
      </trkpt>
      <trkpt lat="36.541652" lon="-5.01759">
        <ele>444.26</ele>
        <time>2021-06-17T08:56:04.000Z</time>
      </trkpt>
      <trkpt lat="36.541621" lon="-5.01779">
        <ele>445.59</ele>
        <time>2021-06-17T08:56:05.000Z</time>
      </trkpt>
      <trkpt lat="36.541591" lon="-5.017994">
        <ele>447.41</ele>
        <time>2021-06-17T08:56:06.000Z</time>
      </trkpt>
      <trkpt lat="36.541558" lon="-5.018193">
        <ele>447.05</ele>
        <time>2021-06-17T08:56:07.000Z</time>
      </trkpt>
      <trkpt lat="36.541518" lon="-5.018385">
        <ele>447.69</ele>
        <time>2021-06-17T08:56:08.000Z</time>
      </trkpt>
      <trkpt lat="36.541488" lon="-5.018569">
        <ele>448.1</ele>
        <time>2021-06-17T08:56:09.000Z</time>
      </trkpt>
      <trkpt lat="36.541476" lon="-5.018751">
        <ele>448.07</ele>
        <time>2021-06-17T08:56:10.000Z</time>
      </trkpt>
      <trkpt lat="36.541465" lon="-5.018921">
        <ele>448.16</ele>
        <time>2021-06-17T08:56:11.000Z</time>
      </trkpt>
      <trkpt lat="36.541463" lon="-5.019081">
        <ele>449.13</ele>
        <time>2021-06-17T08:56:12.000Z</time>
      </trkpt>
      <trkpt lat="36.541485" lon="-5.01924">
        <ele>450.1</ele>
        <time>2021-06-17T08:56:13.000Z</time>
      </trkpt>
      <trkpt lat="36.54152" lon="-5.01938">
        <ele>450.35</ele>
        <time>2021-06-17T08:56:14.000Z</time>
      </trkpt>
      <trkpt lat="36.541571" lon="-5.019515">
        <ele>450.98</ele>
        <time>2021-06-17T08:56:15.000Z</time>
      </trkpt>
      <trkpt lat="36.541639" lon="-5.01965">
        <ele>451.1</ele>
        <time>2021-06-17T08:56:16.000Z</time>
      </trkpt>
      <trkpt lat="36.54172" lon="-5.019774">
        <ele>451.39</ele>
        <time>2021-06-17T08:56:17.000Z</time>
      </trkpt>
      <trkpt lat="36.541816" lon="-5.019863">
        <ele>451.72</ele>
        <time>2021-06-17T08:56:18.000Z</time>
      </trkpt>
      <trkpt lat="36.541916" lon="-5.019943">
        <ele>452.12</ele>
        <time>2021-06-17T08:56:19.000Z</time>
      </trkpt>
      <trkpt lat="36.542033" lon="-5.019992">
        <ele>451.86</ele>
        <time>2021-06-17T08:56:20.000Z</time>
      </trkpt>
      <trkpt lat="36.542167" lon="-5.020051">
        <ele>452.24</ele>
        <time>2021-06-17T08:56:21.000Z</time>
      </trkpt>
      <trkpt lat="36.542304" lon="-5.020081">
        <ele>452.28</ele>
        <time>2021-06-17T08:56:22.000Z</time>
      </trkpt>
      <trkpt lat="36.542438" lon="-5.020131">
        <ele>452.63</ele>
        <time>2021-06-17T08:56:23.000Z</time>
      </trkpt>
      <trkpt lat="36.542569" lon="-5.020169">
        <ele>452.53</ele>
        <time>2021-06-17T08:56:24.000Z</time>
      </trkpt>
      <trkpt lat="36.542692" lon="-5.020218">
        <ele>452.43</ele>
        <time>2021-06-17T08:56:25.000Z</time>
      </trkpt>
      <trkpt lat="36.542815" lon="-5.020266">
        <ele>453.08</ele>
        <time>2021-06-17T08:56:26.000Z</time>
      </trkpt>
      <trkpt lat="36.542928" lon="-5.020316">
        <ele>453.56</ele>
        <time>2021-06-17T08:56:27.000Z</time>
      </trkpt>
      <trkpt lat="36.543023" lon="-5.020369">
        <ele>454.04</ele>
        <time>2021-06-17T08:56:28.000Z</time>
      </trkpt>
      <trkpt lat="36.543132" lon="-5.020442">
        <ele>454.38</ele>
        <time>2021-06-17T08:56:29.000Z</time>
      </trkpt>
      <trkpt lat="36.543218" lon="-5.020569">
        <ele>455.48</ele>
        <time>2021-06-17T08:56:30.000Z</time>
      </trkpt>
      <trkpt lat="36.543303" lon="-5.020692">
        <ele>455.5</ele>
        <time>2021-06-17T08:56:31.000Z</time>
      </trkpt>
      <trkpt lat="36.543378" lon="-5.020828">
        <ele>455.56</ele>
        <time>2021-06-17T08:56:32.000Z</time>
      </trkpt>
      <trkpt lat="36.54344" lon="-5.020989">
        <ele>455.84</ele>
        <time>2021-06-17T08:56:33.000Z</time>
      </trkpt>
      <trkpt lat="36.543488" lon="-5.021156">
        <ele>455.76</ele>
        <time>2021-06-17T08:56:34.000Z</time>
      </trkpt>
      <trkpt lat="36.543518" lon="-5.021338">
        <ele>455.48</ele>
        <time>2021-06-17T08:56:35.000Z</time>
      </trkpt>
      <trkpt lat="36.543567" lon="-5.021501">
        <ele>455.37</ele>
        <time>2021-06-17T08:56:36.000Z</time>
      </trkpt>
      <trkpt lat="36.54363" lon="-5.021671">
        <ele>455.45</ele>
        <time>2021-06-17T08:56:37.000Z</time>
      </trkpt>
      <trkpt lat="36.543703" lon="-5.021825">
        <ele>454.62</ele>
        <time>2021-06-17T08:56:38.000Z</time>
      </trkpt>
      <trkpt lat="36.543783" lon="-5.021985">
        <ele>454.52</ele>
        <time>2021-06-17T08:56:39.000Z</time>
      </trkpt>
      <trkpt lat="36.543874" lon="-5.022148">
        <ele>456.02</ele>
        <time>2021-06-17T08:56:40.000Z</time>
      </trkpt>
      <trkpt lat="36.543982" lon="-5.022292">
        <ele>455.54</ele>
        <time>2021-06-17T08:56:41.000Z</time>
      </trkpt>
      <trkpt lat="36.544085" lon="-5.022451">
        <ele>456.42</ele>
        <time>2021-06-17T08:56:42.000Z</time>
      </trkpt>
      <trkpt lat="36.544204" lon="-5.022613">
        <ele>456.62</ele>
        <time>2021-06-17T08:56:43.000Z</time>
      </trkpt>
      <trkpt lat="36.544323" lon="-5.022775">
        <ele>457.05</ele>
        <time>2021-06-17T08:56:44.000Z</time>
      </trkpt>
      <trkpt lat="36.544441" lon="-5.022926">
        <ele>457.71</ele>
        <time>2021-06-17T08:56:45.000Z</time>
      </trkpt>
      <trkpt lat="36.544534" lon="-5.023081">
        <ele>456.78</ele>
        <time>2021-06-17T08:56:46.000Z</time>
      </trkpt>
      <trkpt lat="36.544628" lon="-5.023228">
        <ele>456.33</ele>
        <time>2021-06-17T08:56:47.000Z</time>
      </trkpt>
      <trkpt lat="36.544706" lon="-5.023371">
        <ele>456.46</ele>
        <time>2021-06-17T08:56:48.000Z</time>
      </trkpt>
      <trkpt lat="36.544803" lon="-5.023537">
        <ele>458.28</ele>
        <time>2021-06-17T08:56:49.000Z</time>
      </trkpt>
      <trkpt lat="36.544897" lon="-5.023657">
        <ele>458.09</ele>
        <time>2021-06-17T08:56:50.000Z</time>
      </trkpt>
      <trkpt lat="36.544988" lon="-5.023788">
        <ele>459.27</ele>
        <time>2021-06-17T08:56:51.000Z</time>
      </trkpt>
      <trkpt lat="36.545093" lon="-5.023878">
        <ele>459.28</ele>
        <time>2021-06-17T08:56:52.000Z</time>
      </trkpt>
      <trkpt lat="36.545206" lon="-5.023954">
        <ele>460.27</ele>
        <time>2021-06-17T08:56:53.000Z</time>
      </trkpt>
      <trkpt lat="36.545323" lon="-5.02402">
        <ele>462.57</ele>
        <time>2021-06-17T08:56:54.000Z</time>
      </trkpt>
      <trkpt lat="36.545459" lon="-5.024038">
        <ele>463.46</ele>
        <time>2021-06-17T08:56:55.000Z</time>
      </trkpt>
      <trkpt lat="36.545612" lon="-5.024031">
        <ele>463.75</ele>
        <time>2021-06-17T08:56:56.000Z</time>
      </trkpt>
      <trkpt lat="36.545752" lon="-5.024018">
        <ele>463.87</ele>
        <time>2021-06-17T08:56:57.000Z</time>
      </trkpt>
      <trkpt lat="36.545888" lon="-5.023998">
        <ele>464.06</ele>
        <time>2021-06-17T08:56:58.000Z</time>
      </trkpt>
      <trkpt lat="36.546011" lon="-5.023985">
        <ele>464.54</ele>
        <time>2021-06-17T08:56:59.000Z</time>
      </trkpt>
      <trkpt lat="36.546138" lon="-5.023986">
        <ele>465.37</ele>
        <time>2021-06-17T08:57:00.000Z</time>
      </trkpt>
      <trkpt lat="36.546268" lon="-5.023997">
        <ele>466.98</ele>
        <time>2021-06-17T08:57:01.000Z</time>
      </trkpt>
      <trkpt lat="36.546373" lon="-5.024028">
        <ele>467.76</ele>
        <time>2021-06-17T08:57:02.000Z</time>
      </trkpt>
      <trkpt lat="36.546469" lon="-5.024081">
        <ele>466.74</ele>
        <time>2021-06-17T08:57:03.000Z</time>
      </trkpt>
      <trkpt lat="36.546572" lon="-5.024192">
        <ele>467.96</ele>
        <time>2021-06-17T08:57:04.000Z</time>
      </trkpt>
      <trkpt lat="36.54668" lon="-5.02432">
        <ele>469.97</ele>
        <time>2021-06-17T08:57:05.000Z</time>
      </trkpt>
      <trkpt lat="36.54678" lon="-5.024457">
        <ele>470.06</ele>
        <time>2021-06-17T08:57:06.000Z</time>
      </trkpt>
      <trkpt lat="36.54687" lon="-5.024605">
        <ele>470.68</ele>
        <time>2021-06-17T08:57:07.000Z</time>
      </trkpt>
      <trkpt lat="36.546949" lon="-5.024755">
        <ele>471.95</ele>
        <time>2021-06-17T08:57:08.000Z</time>
      </trkpt>
      <trkpt lat="36.547042" lon="-5.024875">
        <ele>471.83</ele>
        <time>2021-06-17T08:57:09.000Z</time>
      </trkpt>
      <trkpt lat="36.547141" lon="-5.024985">
        <ele>471.75</ele>
        <time>2021-06-17T08:57:10.000Z</time>
      </trkpt>
      <trkpt lat="36.547243" lon="-5.025089">
        <ele>472.45</ele>
        <time>2021-06-17T08:57:11.000Z</time>
      </trkpt>
      <trkpt lat="36.547356" lon="-5.025176">
        <ele>473.32</ele>
        <time>2021-06-17T08:57:12.000Z</time>
      </trkpt>
      <trkpt lat="36.547465" lon="-5.025234">
        <ele>473.74</ele>
        <time>2021-06-17T08:57:13.000Z</time>
      </trkpt>
      <trkpt lat="36.547584" lon="-5.025276">
        <ele>474.28</ele>
        <time>2021-06-17T08:57:14.000Z</time>
      </trkpt>
      <trkpt lat="36.5477" lon="-5.025292">
        <ele>473.89</ele>
        <time>2021-06-17T08:57:15.000Z</time>
      </trkpt>
      <trkpt lat="36.54782" lon="-5.025283">
        <ele>474.41</ele>
        <time>2021-06-17T08:57:16.000Z</time>
      </trkpt>
      <trkpt lat="36.547957" lon="-5.025253">
        <ele>474.62</ele>
        <time>2021-06-17T08:57:17.000Z</time>
      </trkpt>
      <trkpt lat="36.548096" lon="-5.025213">
        <ele>474.85</ele>
        <time>2021-06-17T08:57:18.000Z</time>
      </trkpt>
      <trkpt lat="36.548234" lon="-5.02517">
        <ele>474.97</ele>
        <time>2021-06-17T08:57:19.000Z</time>
      </trkpt>
      <trkpt lat="36.548373" lon="-5.025118">
        <ele>475.37</ele>
        <time>2021-06-17T08:57:20.000Z</time>
      </trkpt>
      <trkpt lat="36.548521" lon="-5.025073">
        <ele>475.66</ele>
        <time>2021-06-17T08:57:21.000Z</time>
      </trkpt>
      <trkpt lat="36.548664" lon="-5.025028">
        <ele>476.33</ele>
        <time>2021-06-17T08:57:22.000Z</time>
      </trkpt>
      <trkpt lat="36.548812" lon="-5.02498">
        <ele>476.7</ele>
        <time>2021-06-17T08:57:23.000Z</time>
      </trkpt>
      <trkpt lat="36.548963" lon="-5.024927">
        <ele>477.23</ele>
        <time>2021-06-17T08:57:24.000Z</time>
      </trkpt>
      <trkpt lat="36.549116" lon="-5.024864">
        <ele>480.34</ele>
        <time>2021-06-17T08:57:25.000Z</time>
      </trkpt>
      <trkpt lat="36.54926" lon="-5.024816">
        <ele>482.56</ele>
        <time>2021-06-17T08:57:26.000Z</time>
      </trkpt>
      <trkpt lat="36.549403" lon="-5.024775">
        <ele>484.49</ele>
        <time>2021-06-17T08:57:27.000Z</time>
      </trkpt>
      <trkpt lat="36.549548" lon="-5.02474">
        <ele>487.3</ele>
        <time>2021-06-17T08:57:28.000Z</time>
      </trkpt>
      <trkpt lat="36.549697" lon="-5.024716">
        <ele>489.19</ele>
        <time>2021-06-17T08:57:29.000Z</time>
      </trkpt>
      <trkpt lat="36.549831" lon="-5.024703">
        <ele>491.46</ele>
        <time>2021-06-17T08:57:30.000Z</time>
      </trkpt>
      <trkpt lat="36.549972" lon="-5.024707">
        <ele>492.98</ele>
        <time>2021-06-17T08:57:31.000Z</time>
      </trkpt>
      <trkpt lat="36.550118" lon="-5.024724">
        <ele>494.46</ele>
        <time>2021-06-17T08:57:32.000Z</time>
      </trkpt>
      <trkpt lat="36.550252" lon="-5.024765">
        <ele>495.45</ele>
        <time>2021-06-17T08:57:33.000Z</time>
      </trkpt>
      <trkpt lat="36.550378" lon="-5.024826">
        <ele>496.52</ele>
        <time>2021-06-17T08:57:34.000Z</time>
      </trkpt>
      <trkpt lat="36.550503" lon="-5.024924">
        <ele>499.44</ele>
        <time>2021-06-17T08:57:35.000Z</time>
      </trkpt>
      <trkpt lat="36.550619" lon="-5.025033">
        <ele>501.52</ele>
        <time>2021-06-17T08:57:36.000Z</time>
      </trkpt>
      <trkpt lat="36.550728" lon="-5.025161">
        <ele>503.4</ele>
        <time>2021-06-17T08:57:37.000Z</time>
      </trkpt>
      <trkpt lat="36.550839" lon="-5.025308">
        <ele>506.1</ele>
        <time>2021-06-17T08:57:38.000Z</time>
      </trkpt>
      <trkpt lat="36.550943" lon="-5.025466">
        <ele>507.48</ele>
        <time>2021-06-17T08:57:39.000Z</time>
      </trkpt>
      <trkpt lat="36.55104" lon="-5.025625">
        <ele>508.85</ele>
        <time>2021-06-17T08:57:40.000Z</time>
      </trkpt>
      <trkpt lat="36.551128" lon="-5.025779">
        <ele>508.8</ele>
        <time>2021-06-17T08:57:41.000Z</time>
      </trkpt>
      <trkpt lat="36.551213" lon="-5.025925">
        <ele>509.1</ele>
        <time>2021-06-17T08:57:42.000Z</time>
      </trkpt>
      <trkpt lat="36.551301" lon="-5.026067">
        <ele>510.23</ele>
        <time>2021-06-17T08:57:43.000Z</time>
      </trkpt>
      <trkpt lat="36.551379" lon="-5.026206">
        <ele>510.93</ele>
        <time>2021-06-17T08:57:44.000Z</time>
      </trkpt>
      <trkpt lat="36.551457" lon="-5.02635">
        <ele>511.42</ele>
        <time>2021-06-17T08:57:45.000Z</time>
      </trkpt>
      <trkpt lat="36.551534" lon="-5.026494">
        <ele>512.07</ele>
        <time>2021-06-17T08:57:46.000Z</time>
      </trkpt>
      <trkpt lat="36.551597" lon="-5.026631">
        <ele>512.95</ele>
        <time>2021-06-17T08:57:47.000Z</time>
      </trkpt>
      <trkpt lat="36.551654" lon="-5.026776">
        <ele>513.67</ele>
        <time>2021-06-17T08:57:48.000Z</time>
      </trkpt>
      <trkpt lat="36.551698" lon="-5.026908">
        <ele>513.18</ele>
        <time>2021-06-17T08:57:49.000Z</time>
      </trkpt>
      <trkpt lat="36.551723" lon="-5.02704">
        <ele>514.06</ele>
        <time>2021-06-17T08:57:50.000Z</time>
      </trkpt>
      <trkpt lat="36.551743" lon="-5.027182">
        <ele>514.49</ele>
        <time>2021-06-17T08:57:51.000Z</time>
      </trkpt>
      <trkpt lat="36.551747" lon="-5.027338">
        <ele>514.97</ele>
        <time>2021-06-17T08:57:52.000Z</time>
      </trkpt>
      <trkpt lat="36.551726" lon="-5.027516">
        <ele>515.6</ele>
        <time>2021-06-17T08:57:53.000Z</time>
      </trkpt>
      <trkpt lat="36.551685" lon="-5.027639">
        <ele>515.31</ele>
        <time>2021-06-17T08:57:54.000Z</time>
      </trkpt>
      <trkpt lat="36.551643" lon="-5.027794">
        <ele>515.4</ele>
        <time>2021-06-17T08:57:55.000Z</time>
      </trkpt>
      <trkpt lat="36.551596" lon="-5.027941">
        <ele>516.63</ele>
        <time>2021-06-17T08:57:56.000Z</time>
      </trkpt>
      <trkpt lat="36.551536" lon="-5.028087">
        <ele>517.41</ele>
        <time>2021-06-17T08:57:57.000Z</time>
      </trkpt>
      <trkpt lat="36.551472" lon="-5.028234">
        <ele>519.13</ele>
        <time>2021-06-17T08:57:58.000Z</time>
      </trkpt>
      <trkpt lat="36.551408" lon="-5.028378">
        <ele>519.9</ele>
        <time>2021-06-17T08:57:59.000Z</time>
      </trkpt>
      <trkpt lat="36.551346" lon="-5.028516">
        <ele>520.86</ele>
        <time>2021-06-17T08:58:00.000Z</time>
      </trkpt>
      <trkpt lat="36.551284" lon="-5.02868">
        <ele>519.79</ele>
        <time>2021-06-17T08:58:01.000Z</time>
      </trkpt>
      <trkpt lat="36.55122" lon="-5.02884">
        <ele>519.97</ele>
        <time>2021-06-17T08:58:02.000Z</time>
      </trkpt>
      <trkpt lat="36.551154" lon="-5.029004">
        <ele>520.37</ele>
        <time>2021-06-17T08:58:03.000Z</time>
      </trkpt>
      <trkpt lat="36.551097" lon="-5.029149">
        <ele>520.46</ele>
        <time>2021-06-17T08:58:04.000Z</time>
      </trkpt>
      <trkpt lat="36.551045" lon="-5.029295">
        <ele>522.09</ele>
        <time>2021-06-17T08:58:05.000Z</time>
      </trkpt>
      <trkpt lat="36.551001" lon="-5.029442">
        <ele>522.84</ele>
        <time>2021-06-17T08:58:06.000Z</time>
      </trkpt>
      <trkpt lat="36.550967" lon="-5.029586">
        <ele>522.75</ele>
        <time>2021-06-17T08:58:07.000Z</time>
      </trkpt>
      <trkpt lat="36.550944" lon="-5.029727">
        <ele>524.9</ele>
        <time>2021-06-17T08:58:08.000Z</time>
      </trkpt>
      <trkpt lat="36.55094" lon="-5.029865">
        <ele>525.77</ele>
        <time>2021-06-17T08:58:09.000Z</time>
      </trkpt>
      <trkpt lat="36.550958" lon="-5.03">
        <ele>525.51</ele>
        <time>2021-06-17T08:58:10.000Z</time>
      </trkpt>
      <trkpt lat="36.550994" lon="-5.030129">
        <ele>525.69</ele>
        <time>2021-06-17T08:58:11.000Z</time>
      </trkpt>
      <trkpt lat="36.551047" lon="-5.030232">
        <ele>525.48</ele>
        <time>2021-06-17T08:58:12.000Z</time>
      </trkpt>
      <trkpt lat="36.551124" lon="-5.030335">
        <ele>525.83</ele>
        <time>2021-06-17T08:58:13.000Z</time>
      </trkpt>
      <trkpt lat="36.55121" lon="-5.030419">
        <ele>526.4</ele>
        <time>2021-06-17T08:58:14.000Z</time>
      </trkpt>
      <trkpt lat="36.551315" lon="-5.030493">
        <ele>526.28</ele>
        <time>2021-06-17T08:58:15.000Z</time>
      </trkpt>
      <trkpt lat="36.551423" lon="-5.030552">
        <ele>526.44</ele>
        <time>2021-06-17T08:58:16.000Z</time>
      </trkpt>
      <trkpt lat="36.551538" lon="-5.030591">
        <ele>528.98</ele>
        <time>2021-06-17T08:58:17.000Z</time>
      </trkpt>
      <trkpt lat="36.551662" lon="-5.030623">
        <ele>530.88</ele>
        <time>2021-06-17T08:58:18.000Z</time>
      </trkpt>
      <trkpt lat="36.551791" lon="-5.030659">
        <ele>531.11</ele>
        <time>2021-06-17T08:58:19.000Z</time>
      </trkpt>
      <trkpt lat="36.551919" lon="-5.030701">
        <ele>531.55</ele>
        <time>2021-06-17T08:58:20.000Z</time>
      </trkpt>
      <trkpt lat="36.552042" lon="-5.030745">
        <ele>532.47</ele>
        <time>2021-06-17T08:58:21.000Z</time>
      </trkpt>
      <trkpt lat="36.552164" lon="-5.030814">
        <ele>533.8</ele>
        <time>2021-06-17T08:58:22.000Z</time>
      </trkpt>
      <trkpt lat="36.552276" lon="-5.030902">
        <ele>534.53</ele>
        <time>2021-06-17T08:58:23.000Z</time>
      </trkpt>
      <trkpt lat="36.552397" lon="-5.030992">
        <ele>535.13</ele>
        <time>2021-06-17T08:58:24.000Z</time>
      </trkpt>
      <trkpt lat="36.552515" lon="-5.031095">
        <ele>536.4</ele>
        <time>2021-06-17T08:58:25.000Z</time>
      </trkpt>
      <trkpt lat="36.552637" lon="-5.031181">
        <ele>537.47</ele>
        <time>2021-06-17T08:58:26.000Z</time>
      </trkpt>
      <trkpt lat="36.552761" lon="-5.031252">
        <ele>537.97</ele>
        <time>2021-06-17T08:58:27.000Z</time>
      </trkpt>
      <trkpt lat="36.552896" lon="-5.031313">
        <ele>538.64</ele>
        <time>2021-06-17T08:58:28.000Z</time>
      </trkpt>
      <trkpt lat="36.553034" lon="-5.031361">
        <ele>539.55</ele>
        <time>2021-06-17T08:58:29.000Z</time>
      </trkpt>
      <trkpt lat="36.553156" lon="-5.031395">
        <ele>540.36</ele>
        <time>2021-06-17T08:58:30.000Z</time>
      </trkpt>
      <trkpt lat="36.553289" lon="-5.031411">
        <ele>541.13</ele>
        <time>2021-06-17T08:58:31.000Z</time>
      </trkpt>
      <trkpt lat="36.553406" lon="-5.031433">
        <ele>541.84</ele>
        <time>2021-06-17T08:58:32.000Z</time>
      </trkpt>
      <trkpt lat="36.553511" lon="-5.031463">
        <ele>542.47</ele>
        <time>2021-06-17T08:58:33.000Z</time>
      </trkpt>
      <trkpt lat="36.553612" lon="-5.031495">
        <ele>543.11</ele>
        <time>2021-06-17T08:58:34.000Z</time>
      </trkpt>
      <trkpt lat="36.553706" lon="-5.031546">
        <ele>545.18</ele>
        <time>2021-06-17T08:58:35.000Z</time>
      </trkpt>
      <trkpt lat="36.553782" lon="-5.031616">
        <ele>545.15</ele>
        <time>2021-06-17T08:58:36.000Z</time>
      </trkpt>
      <trkpt lat="36.553852" lon="-5.031701">
        <ele>546.28</ele>
        <time>2021-06-17T08:58:37.000Z</time>
      </trkpt>
      <trkpt lat="36.553897" lon="-5.031834">
        <ele>548.69</ele>
        <time>2021-06-17T08:58:38.000Z</time>
      </trkpt>
      <trkpt lat="36.55392" lon="-5.031959">
        <ele>548.22</ele>
        <time>2021-06-17T08:58:39.000Z</time>
      </trkpt>
      <trkpt lat="36.553941" lon="-5.032101">
        <ele>548.92</ele>
        <time>2021-06-17T08:58:40.000Z</time>
      </trkpt>
      <trkpt lat="36.553937" lon="-5.032274">
        <ele>550.98</ele>
        <time>2021-06-17T08:58:41.000Z</time>
      </trkpt>
      <trkpt lat="36.553918" lon="-5.032422">
        <ele>549.86</ele>
        <time>2021-06-17T08:58:42.000Z</time>
      </trkpt>
      <trkpt lat="36.553899" lon="-5.032576">
        <ele>550.32</ele>
        <time>2021-06-17T08:58:43.000Z</time>
      </trkpt>
      <trkpt lat="36.553873" lon="-5.032738">
        <ele>551.12</ele>
        <time>2021-06-17T08:58:44.000Z</time>
      </trkpt>
      <trkpt lat="36.553858" lon="-5.032876">
        <ele>552.32</ele>
        <time>2021-06-17T08:58:45.000Z</time>
      </trkpt>
      <trkpt lat="36.553862" lon="-5.033026">
        <ele>551.78</ele>
        <time>2021-06-17T08:58:46.000Z</time>
      </trkpt>
      <trkpt lat="36.553869" lon="-5.033154">
        <ele>553.24</ele>
        <time>2021-06-17T08:58:47.000Z</time>
      </trkpt>
      <trkpt lat="36.553882" lon="-5.033264">
        <ele>555.81</ele>
        <time>2021-06-17T08:58:48.000Z</time>
      </trkpt>
      <trkpt lat="36.553988" lon="-5.033474">
        <ele>556.09</ele>
        <time>2021-06-17T08:58:50.000Z</time>
      </trkpt>
      <trkpt lat="36.554065" lon="-5.033575">
        <ele>556.39</ele>
        <time>2021-06-17T08:58:51.000Z</time>
      </trkpt>
      <trkpt lat="36.554188" lon="-5.033792">
        <ele>557.9</ele>
        <time>2021-06-17T08:58:53.000Z</time>
      </trkpt>
      <trkpt lat="36.554224" lon="-5.033893">
        <ele>557.7</ele>
        <time>2021-06-17T08:58:54.000Z</time>
      </trkpt>
      <trkpt lat="36.554227" lon="-5.034173">
        <ele>556.96</ele>
        <time>2021-06-17T08:58:56.000Z</time>
      </trkpt>
      <trkpt lat="36.554209" lon="-5.034286">
        <ele>556.96</ele>
        <time>2021-06-17T08:58:57.000Z</time>
      </trkpt>
      <trkpt lat="36.554129" lon="-5.034481">
        <ele>558.27</ele>
        <time>2021-06-17T08:58:58.000Z</time>
      </trkpt>
      <trkpt lat="36.554065" lon="-5.034615">
        <ele>558.26</ele>
        <time>2021-06-17T08:58:59.000Z</time>
      </trkpt>
      <trkpt lat="36.554001" lon="-5.034744">
        <ele>557.35</ele>
        <time>2021-06-17T08:59:00.000Z</time>
      </trkpt>
      <trkpt lat="36.553904" lon="-5.035024">
        <ele>557.05</ele>
        <time>2021-06-17T08:59:02.000Z</time>
      </trkpt>
      <trkpt lat="36.553884" lon="-5.035148">
        <ele>557.7</ele>
        <time>2021-06-17T08:59:03.000Z</time>
      </trkpt>
      <trkpt lat="36.553875" lon="-5.035287">
        <ele>558.77</ele>
        <time>2021-06-17T08:59:04.000Z</time>
      </trkpt>
      <trkpt lat="36.553875" lon="-5.035421">
        <ele>560.01</ele>
        <time>2021-06-17T08:59:05.000Z</time>
      </trkpt>
      <trkpt lat="36.553918" lon="-5.035556">
        <ele>560.15</ele>
        <time>2021-06-17T08:59:06.000Z</time>
      </trkpt>
      <trkpt lat="36.553961" lon="-5.0357">
        <ele>561.51</ele>
        <time>2021-06-17T08:59:07.000Z</time>
      </trkpt>
      <trkpt lat="36.553998" lon="-5.035858">
        <ele>562.63</ele>
        <time>2021-06-17T08:59:08.000Z</time>
      </trkpt>
      <trkpt lat="36.554035" lon="-5.036196">
        <ele>563.08</ele>
        <time>2021-06-17T08:59:10.000Z</time>
      </trkpt>
      <trkpt lat="36.554046" lon="-5.036342">
        <ele>562.64</ele>
        <time>2021-06-17T08:59:11.000Z</time>
      </trkpt>
      <trkpt lat="36.554029" lon="-5.036529">
        <ele>563.99</ele>
        <time>2021-06-17T08:59:12.000Z</time>
      </trkpt>
      <trkpt lat="36.554001" lon="-5.036713">
        <ele>564.79</ele>
        <time>2021-06-17T08:59:13.000Z</time>
      </trkpt>
      <trkpt lat="36.553979" lon="-5.036881">
        <ele>565.02</ele>
        <time>2021-06-17T08:59:14.000Z</time>
      </trkpt>
      <trkpt lat="36.553971" lon="-5.037031">
        <ele>564.87</ele>
        <time>2021-06-17T08:59:15.000Z</time>
      </trkpt>
      <trkpt lat="36.553987" lon="-5.037187">
        <ele>564.31</ele>
        <time>2021-06-17T08:59:16.000Z</time>
      </trkpt>
      <trkpt lat="36.554034" lon="-5.037322">
        <ele>565.59</ele>
        <time>2021-06-17T08:59:17.000Z</time>
      </trkpt>
      <trkpt lat="36.554088" lon="-5.037453">
        <ele>566.19</ele>
        <time>2021-06-17T08:59:18.000Z</time>
      </trkpt>
      <trkpt lat="36.554173" lon="-5.037567">
        <ele>566.62</ele>
        <time>2021-06-17T08:59:19.000Z</time>
      </trkpt>
      <trkpt lat="36.554255" lon="-5.037678">
        <ele>567.48</ele>
        <time>2021-06-17T08:59:20.000Z</time>
      </trkpt>
      <trkpt lat="36.554362" lon="-5.037786">
        <ele>568.17</ele>
        <time>2021-06-17T08:59:21.000Z</time>
      </trkpt>
      <trkpt lat="36.554474" lon="-5.037896">
        <ele>568.95</ele>
        <time>2021-06-17T08:59:22.000Z</time>
      </trkpt>
      <trkpt lat="36.554594" lon="-5.038003">
        <ele>569.99</ele>
        <time>2021-06-17T08:59:23.000Z</time>
      </trkpt>
      <trkpt lat="36.55471" lon="-5.038112">
        <ele>570.45</ele>
        <time>2021-06-17T08:59:24.000Z</time>
      </trkpt>
      <trkpt lat="36.554821" lon="-5.03821">
        <ele>571.11</ele>
        <time>2021-06-17T08:59:25.000Z</time>
      </trkpt>
      <trkpt lat="36.554924" lon="-5.038309">
        <ele>571.76</ele>
        <time>2021-06-17T08:59:26.000Z</time>
      </trkpt>
      <trkpt lat="36.555022" lon="-5.038403">
        <ele>572.54</ele>
        <time>2021-06-17T08:59:27.000Z</time>
      </trkpt>
      <trkpt lat="36.555114" lon="-5.038494">
        <ele>572.36</ele>
        <time>2021-06-17T08:59:28.000Z</time>
      </trkpt>
      <trkpt lat="36.555197" lon="-5.038584">
        <ele>572.55</ele>
        <time>2021-06-17T08:59:29.000Z</time>
      </trkpt>
      <trkpt lat="36.555267" lon="-5.038683">
        <ele>572.79</ele>
        <time>2021-06-17T08:59:30.000Z</time>
      </trkpt>
      <trkpt lat="36.55534" lon="-5.038792">
        <ele>574.1</ele>
        <time>2021-06-17T08:59:31.000Z</time>
      </trkpt>
      <trkpt lat="36.555392" lon="-5.038924">
        <ele>575.13</ele>
        <time>2021-06-17T08:59:32.000Z</time>
      </trkpt>
      <trkpt lat="36.555432" lon="-5.039054">
        <ele>575.14</ele>
        <time>2021-06-17T08:59:33.000Z</time>
      </trkpt>
      <trkpt lat="36.555465" lon="-5.039185">
        <ele>576.06</ele>
        <time>2021-06-17T08:59:34.000Z</time>
      </trkpt>
      <trkpt lat="36.555482" lon="-5.03932">
        <ele>576.65</ele>
        <time>2021-06-17T08:59:35.000Z</time>
      </trkpt>
      <trkpt lat="36.555477" lon="-5.03951">
        <ele>578.95</ele>
        <time>2021-06-17T08:59:36.000Z</time>
      </trkpt>
      <trkpt lat="36.555454" lon="-5.039679">
        <ele>580.02</ele>
        <time>2021-06-17T08:59:37.000Z</time>
      </trkpt>
      <trkpt lat="36.555415" lon="-5.039828">
        <ele>579.16</ele>
        <time>2021-06-17T08:59:38.000Z</time>
      </trkpt>
      <trkpt lat="36.555355" lon="-5.039993">
        <ele>579.82</ele>
        <time>2021-06-17T08:59:39.000Z</time>
      </trkpt>
      <trkpt lat="36.5553" lon="-5.04014">
        <ele>580.6</ele>
        <time>2021-06-17T08:59:40.000Z</time>
      </trkpt>
      <trkpt lat="36.555247" lon="-5.040281">
        <ele>580.99</ele>
        <time>2021-06-17T08:59:41.000Z</time>
      </trkpt>
      <trkpt lat="36.5552" lon="-5.040424">
        <ele>581.2</ele>
        <time>2021-06-17T08:59:42.000Z</time>
      </trkpt>
      <trkpt lat="36.555169" lon="-5.040565">
        <ele>580.67</ele>
        <time>2021-06-17T08:59:43.000Z</time>
      </trkpt>
      <trkpt lat="36.555148" lon="-5.040697">
        <ele>580.41</ele>
        <time>2021-06-17T08:59:44.000Z</time>
      </trkpt>
      <trkpt lat="36.555142" lon="-5.040827">
        <ele>580.52</ele>
        <time>2021-06-17T08:59:45.000Z</time>
      </trkpt>
      <trkpt lat="36.555145" lon="-5.040954">
        <ele>580.64</ele>
        <time>2021-06-17T08:59:46.000Z</time>
      </trkpt>
      <trkpt lat="36.555168" lon="-5.041078">
        <ele>581.25</ele>
        <time>2021-06-17T08:59:47.000Z</time>
      </trkpt>
      <trkpt lat="36.555213" lon="-5.041202">
        <ele>581.62</ele>
        <time>2021-06-17T08:59:48.000Z</time>
      </trkpt>
      <trkpt lat="36.555273" lon="-5.041324">
        <ele>582.93</ele>
        <time>2021-06-17T08:59:49.000Z</time>
      </trkpt>
      <trkpt lat="36.555348" lon="-5.041444">
        <ele>583.72</ele>
        <time>2021-06-17T08:59:50.000Z</time>
      </trkpt>
      <trkpt lat="36.555435" lon="-5.041562">
        <ele>584.08</ele>
        <time>2021-06-17T08:59:51.000Z</time>
      </trkpt>
      <trkpt lat="36.555539" lon="-5.041679">
        <ele>584.31</ele>
        <time>2021-06-17T08:59:52.000Z</time>
      </trkpt>
      <trkpt lat="36.555652" lon="-5.041795">
        <ele>584.75</ele>
        <time>2021-06-17T08:59:53.000Z</time>
      </trkpt>
      <trkpt lat="36.555763" lon="-5.041909">
        <ele>586.74</ele>
        <time>2021-06-17T08:59:54.000Z</time>
      </trkpt>
      <trkpt lat="36.555866" lon="-5.042019">
        <ele>587.69</ele>
        <time>2021-06-17T08:59:55.000Z</time>
      </trkpt>
      <trkpt lat="36.555966" lon="-5.042115">
        <ele>588.39</ele>
        <time>2021-06-17T08:59:56.000Z</time>
      </trkpt>
      <trkpt lat="36.556054" lon="-5.042223">
        <ele>588.2</ele>
        <time>2021-06-17T08:59:57.000Z</time>
      </trkpt>
      <trkpt lat="36.556126" lon="-5.042355">
        <ele>588.47</ele>
        <time>2021-06-17T08:59:58.000Z</time>
      </trkpt>
      <trkpt lat="36.5562" lon="-5.042494">
        <ele>587.85</ele>
        <time>2021-06-17T08:59:59.000Z</time>
      </trkpt>
      <trkpt lat="36.556261" lon="-5.042642">
        <ele>588.65</ele>
        <time>2021-06-17T09:00:00.000Z</time>
      </trkpt>
      <trkpt lat="36.556322" lon="-5.042795">
        <ele>588.91</ele>
        <time>2021-06-17T09:00:01.000Z</time>
      </trkpt>
      <trkpt lat="36.55638" lon="-5.04295">
        <ele>589.1</ele>
        <time>2021-06-17T09:00:02.000Z</time>
      </trkpt>
      <trkpt lat="36.556437" lon="-5.043111">
        <ele>589.89</ele>
        <time>2021-06-17T09:00:03.000Z</time>
      </trkpt>
      <trkpt lat="36.556495" lon="-5.043274">
        <ele>590.22</ele>
        <time>2021-06-17T09:00:04.000Z</time>
      </trkpt>
      <trkpt lat="36.556543" lon="-5.043428">
        <ele>591.13</ele>
        <time>2021-06-17T09:00:05.000Z</time>
      </trkpt>
      <trkpt lat="36.556593" lon="-5.043574">
        <ele>591.78</ele>
        <time>2021-06-17T09:00:06.000Z</time>
      </trkpt>
      <trkpt lat="36.556643" lon="-5.043716">
        <ele>591.76</ele>
        <time>2021-06-17T09:00:07.000Z</time>
      </trkpt>
      <trkpt lat="36.556703" lon="-5.043844">
        <ele>592.46</ele>
        <time>2021-06-17T09:00:08.000Z</time>
      </trkpt>
      <trkpt lat="36.556769" lon="-5.043971">
        <ele>593.98</ele>
        <time>2021-06-17T09:00:09.000Z</time>
      </trkpt>
      <trkpt lat="36.556851" lon="-5.044077">
        <ele>594.69</ele>
        <time>2021-06-17T09:00:10.000Z</time>
      </trkpt>
      <trkpt lat="36.556946" lon="-5.044147">
        <ele>594.84</ele>
        <time>2021-06-17T09:00:11.000Z</time>
      </trkpt>
      <trkpt lat="36.557046" lon="-5.044224">
        <ele>595.08</ele>
        <time>2021-06-17T09:00:12.000Z</time>
      </trkpt>
      <trkpt lat="36.557166" lon="-5.044276">
        <ele>595.5</ele>
        <time>2021-06-17T09:00:13.000Z</time>
      </trkpt>
      <trkpt lat="36.557291" lon="-5.044297">
        <ele>595.52</ele>
        <time>2021-06-17T09:00:14.000Z</time>
      </trkpt>
      <trkpt lat="36.557555" lon="-5.044336">
        <ele>596.25</ele>
        <time>2021-06-17T09:00:16.000Z</time>
      </trkpt>
      <trkpt lat="36.55767" lon="-5.044361">
        <ele>597.06</ele>
        <time>2021-06-17T09:00:17.000Z</time>
      </trkpt>
      <trkpt lat="36.55779" lon="-5.044384">
        <ele>597.26</ele>
        <time>2021-06-17T09:00:18.000Z</time>
      </trkpt>
      <trkpt lat="36.557903" lon="-5.044408">
        <ele>597.55</ele>
        <time>2021-06-17T09:00:19.000Z</time>
      </trkpt>
      <trkpt lat="36.558015" lon="-5.04444">
        <ele>597.58</ele>
        <time>2021-06-17T09:00:20.000Z</time>
      </trkpt>
      <trkpt lat="36.558108" lon="-5.044473">
        <ele>598.76</ele>
        <time>2021-06-17T09:00:21.000Z</time>
      </trkpt>
      <trkpt lat="36.558207" lon="-5.044542">
        <ele>598.74</ele>
        <time>2021-06-17T09:00:22.000Z</time>
      </trkpt>
      <trkpt lat="36.558302" lon="-5.044631">
        <ele>600.27</ele>
        <time>2021-06-17T09:00:23.000Z</time>
      </trkpt>
      <trkpt lat="36.558382" lon="-5.044731">
        <ele>601.82</ele>
        <time>2021-06-17T09:00:24.000Z</time>
      </trkpt>
      <trkpt lat="36.558446" lon="-5.044834">
        <ele>602.31</ele>
        <time>2021-06-17T09:00:25.000Z</time>
      </trkpt>
      <trkpt lat="36.558495" lon="-5.044982">
        <ele>603.87</ele>
        <time>2021-06-17T09:00:26.000Z</time>
      </trkpt>
      <trkpt lat="36.558517" lon="-5.045111">
        <ele>602.95</ele>
        <time>2021-06-17T09:00:27.000Z</time>
      </trkpt>
      <trkpt lat="36.558527" lon="-5.045244">
        <ele>602.64</ele>
        <time>2021-06-17T09:00:28.000Z</time>
      </trkpt>
      <trkpt lat="36.558546" lon="-5.045438">
        <ele>605.05</ele>
        <time>2021-06-17T09:00:29.000Z</time>
      </trkpt>
      <trkpt lat="36.558557" lon="-5.04561">
        <ele>604.68</ele>
        <time>2021-06-17T09:00:30.000Z</time>
      </trkpt>
      <trkpt lat="36.558549" lon="-5.045806">
        <ele>606.06</ele>
        <time>2021-06-17T09:00:31.000Z</time>
      </trkpt>
      <trkpt lat="36.558543" lon="-5.045964">
        <ele>605.21</ele>
        <time>2021-06-17T09:00:32.000Z</time>
      </trkpt>
      <trkpt lat="36.558549" lon="-5.046119">
        <ele>604.73</ele>
        <time>2021-06-17T09:00:33.000Z</time>
      </trkpt>
      <trkpt lat="36.55855" lon="-5.046276">
        <ele>606.13</ele>
        <time>2021-06-17T09:00:34.000Z</time>
      </trkpt>
      <trkpt lat="36.558556" lon="-5.046411">
        <ele>607.15</ele>
        <time>2021-06-17T09:00:35.000Z</time>
      </trkpt>
      <trkpt lat="36.558551" lon="-5.046545">
        <ele>607.29</ele>
        <time>2021-06-17T09:00:36.000Z</time>
      </trkpt>
      <trkpt lat="36.558574" lon="-5.046638">
        <ele>607.7</ele>
        <time>2021-06-17T09:00:37.000Z</time>
      </trkpt>
      <trkpt lat="36.55859" lon="-5.046734">
        <ele>607.68</ele>
        <time>2021-06-17T09:00:38.000Z</time>
      </trkpt>
      <trkpt lat="36.558606" lon="-5.046757">
        <ele>607.82</ele>
        <time>2021-06-17T09:00:39.000Z</time>
      </trkpt>
      <trkpt lat="36.558599" lon="-5.046824">
        <ele>606.74</ele>
        <time>2021-06-17T09:00:40.000Z</time>
      </trkpt>
      <trkpt lat="36.558598" lon="-5.046865">
        <ele>605.79</ele>
        <time>2021-06-17T09:00:41.000Z</time>
      </trkpt>
      <trkpt lat="36.558599" lon="-5.04691">
        <ele>605.3</ele>
        <time>2021-06-17T09:00:42.000Z</time>
      </trkpt>
      <trkpt lat="36.55861" lon="-5.046875">
        <ele>604.23</ele>
        <time>2021-06-17T09:00:43.000Z</time>
      </trkpt>
      <trkpt lat="36.558603" lon="-5.046887">
        <ele>603.74</ele>
        <time>2021-06-17T09:00:44.000Z</time>
      </trkpt>
      <trkpt lat="36.558598" lon="-5.046897">
        <ele>605.82</ele>
        <time>2021-06-17T09:00:49.000Z</time>
      </trkpt>
      <trkpt lat="36.558606" lon="-5.046902">
        <ele>605.51</ele>
        <time>2021-06-17T09:00:54.000Z</time>
      </trkpt>
      <trkpt lat="36.558588" lon="-5.04692">
        <ele>606.16</ele>
        <time>2021-06-17T09:01:25.000Z</time>
      </trkpt>
      <trkpt lat="36.558573" lon="-5.046934">
        <ele>606.36</ele>
        <time>2021-06-17T09:01:26.000Z</time>
      </trkpt>
      <trkpt lat="36.558558" lon="-5.046968">
        <ele>607.46</ele>
        <time>2021-06-17T09:01:27.000Z</time>
      </trkpt>
      <trkpt lat="36.558545" lon="-5.047042">
        <ele>610.22</ele>
        <time>2021-06-17T09:01:28.000Z</time>
      </trkpt>
      <trkpt lat="36.558556" lon="-5.047084">
        <ele>608.87</ele>
        <time>2021-06-17T09:01:29.000Z</time>
      </trkpt>
      <trkpt lat="36.558556" lon="-5.047139">
        <ele>608.45</ele>
        <time>2021-06-17T09:01:30.000Z</time>
      </trkpt>
      <trkpt lat="36.558549" lon="-5.047247">
        <ele>611.03</ele>
        <time>2021-06-17T09:01:31.000Z</time>
      </trkpt>
      <trkpt lat="36.558554" lon="-5.047345">
        <ele>610.1</ele>
        <time>2021-06-17T09:01:32.000Z</time>
      </trkpt>
      <trkpt lat="36.558557" lon="-5.047441">
        <ele>609.18</ele>
        <time>2021-06-17T09:01:33.000Z</time>
      </trkpt>
      <trkpt lat="36.558535" lon="-5.047571">
        <ele>609.98</ele>
        <time>2021-06-17T09:01:34.000Z</time>
      </trkpt>
      <trkpt lat="36.558513" lon="-5.04772">
        <ele>611.47</ele>
        <time>2021-06-17T09:01:35.000Z</time>
      </trkpt>
      <trkpt lat="36.558501" lon="-5.047848">
        <ele>609.92</ele>
        <time>2021-06-17T09:01:36.000Z</time>
      </trkpt>
      <trkpt lat="36.558482" lon="-5.047998">
        <ele>611.06</ele>
        <time>2021-06-17T09:01:37.000Z</time>
      </trkpt>
      <trkpt lat="36.558461" lon="-5.048158">
        <ele>611.92</ele>
        <time>2021-06-17T09:01:38.000Z</time>
      </trkpt>
      <trkpt lat="36.558436" lon="-5.048328">
        <ele>611.21</ele>
        <time>2021-06-17T09:01:39.000Z</time>
      </trkpt>
      <trkpt lat="36.558421" lon="-5.048488">
        <ele>612.22</ele>
        <time>2021-06-17T09:01:40.000Z</time>
      </trkpt>
      <trkpt lat="36.558412" lon="-5.048657">
        <ele>611.52</ele>
        <time>2021-06-17T09:01:41.000Z</time>
      </trkpt>
      <trkpt lat="36.55838" lon="-5.048819">
        <ele>611.09</ele>
        <time>2021-06-17T09:01:42.000Z</time>
      </trkpt>
      <trkpt lat="36.558357" lon="-5.04899">
        <ele>611.95</ele>
        <time>2021-06-17T09:01:43.000Z</time>
      </trkpt>
      <trkpt lat="36.558335" lon="-5.049154">
        <ele>612.65</ele>
        <time>2021-06-17T09:01:44.000Z</time>
      </trkpt>
      <trkpt lat="36.558316" lon="-5.049314">
        <ele>612.13</ele>
        <time>2021-06-17T09:01:45.000Z</time>
      </trkpt>
      <trkpt lat="36.55832" lon="-5.049461">
        <ele>613.12</ele>
        <time>2021-06-17T09:01:46.000Z</time>
      </trkpt>
      <trkpt lat="36.558333" lon="-5.049598">
        <ele>615.49</ele>
        <time>2021-06-17T09:01:47.000Z</time>
      </trkpt>
      <trkpt lat="36.558368" lon="-5.049738">
        <ele>615.83</ele>
        <time>2021-06-17T09:01:48.000Z</time>
      </trkpt>
      <trkpt lat="36.558416" lon="-5.049882">
        <ele>617.03</ele>
        <time>2021-06-17T09:01:49.000Z</time>
      </trkpt>
      <trkpt lat="36.558475" lon="-5.050022">
        <ele>618</ele>
        <time>2021-06-17T09:01:50.000Z</time>
      </trkpt>
      <trkpt lat="36.558538" lon="-5.050151">
        <ele>620.06</ele>
        <time>2021-06-17T09:01:51.000Z</time>
      </trkpt>
      <trkpt lat="36.558585" lon="-5.050309">
        <ele>621.21</ele>
        <time>2021-06-17T09:01:52.000Z</time>
      </trkpt>
      <trkpt lat="36.558631" lon="-5.050466">
        <ele>621.16</ele>
        <time>2021-06-17T09:01:53.000Z</time>
      </trkpt>
      <trkpt lat="36.558662" lon="-5.050623">
        <ele>622.16</ele>
        <time>2021-06-17T09:01:54.000Z</time>
      </trkpt>
      <trkpt lat="36.558684" lon="-5.05076">
        <ele>620.93</ele>
        <time>2021-06-17T09:01:55.000Z</time>
      </trkpt>
      <trkpt lat="36.558689" lon="-5.050929">
        <ele>621.39</ele>
        <time>2021-06-17T09:01:56.000Z</time>
      </trkpt>
      <trkpt lat="36.558673" lon="-5.051106">
        <ele>622.09</ele>
        <time>2021-06-17T09:01:57.000Z</time>
      </trkpt>
      <trkpt lat="36.558627" lon="-5.051289">
        <ele>624.16</ele>
        <time>2021-06-17T09:01:58.000Z</time>
      </trkpt>
      <trkpt lat="36.558582" lon="-5.051467">
        <ele>625.07</ele>
        <time>2021-06-17T09:01:59.000Z</time>
      </trkpt>
      <trkpt lat="36.558537" lon="-5.05163">
        <ele>625.18</ele>
        <time>2021-06-17T09:02:00.000Z</time>
      </trkpt>
      <trkpt lat="36.558482" lon="-5.051798">
        <ele>625.77</ele>
        <time>2021-06-17T09:02:01.000Z</time>
      </trkpt>
      <trkpt lat="36.558454" lon="-5.051957">
        <ele>626.07</ele>
        <time>2021-06-17T09:02:02.000Z</time>
      </trkpt>
      <trkpt lat="36.558433" lon="-5.052101">
        <ele>627.44</ele>
        <time>2021-06-17T09:02:03.000Z</time>
      </trkpt>
      <trkpt lat="36.558438" lon="-5.052228">
        <ele>628.94</ele>
        <time>2021-06-17T09:02:04.000Z</time>
      </trkpt>
      <trkpt lat="36.558453" lon="-5.052367">
        <ele>628.43</ele>
        <time>2021-06-17T09:02:05.000Z</time>
      </trkpt>
      <trkpt lat="36.55851" lon="-5.052476">
        <ele>630.34</ele>
        <time>2021-06-17T09:02:06.000Z</time>
      </trkpt>
      <trkpt lat="36.558566" lon="-5.052579">
        <ele>630.49</ele>
        <time>2021-06-17T09:02:07.000Z</time>
      </trkpt>
      <trkpt lat="36.558659" lon="-5.052652">
        <ele>631.33</ele>
        <time>2021-06-17T09:02:08.000Z</time>
      </trkpt>
      <trkpt lat="36.558756" lon="-5.052724">
        <ele>630.82</ele>
        <time>2021-06-17T09:02:09.000Z</time>
      </trkpt>
      <trkpt lat="36.558867" lon="-5.052771">
        <ele>631.97</ele>
        <time>2021-06-17T09:02:10.000Z</time>
      </trkpt>
      <trkpt lat="36.55899" lon="-5.052788">
        <ele>632.19</ele>
        <time>2021-06-17T09:02:11.000Z</time>
      </trkpt>
      <trkpt lat="36.559112" lon="-5.052798">
        <ele>634.21</ele>
        <time>2021-06-17T09:02:12.000Z</time>
      </trkpt>
      <trkpt lat="36.559234" lon="-5.052806">
        <ele>635.99</ele>
        <time>2021-06-17T09:02:13.000Z</time>
      </trkpt>
      <trkpt lat="36.559346" lon="-5.052824">
        <ele>637.06</ele>
        <time>2021-06-17T09:02:14.000Z</time>
      </trkpt>
      <trkpt lat="36.559447" lon="-5.052859">
        <ele>637.02</ele>
        <time>2021-06-17T09:02:15.000Z</time>
      </trkpt>
      <trkpt lat="36.559538" lon="-5.052913">
        <ele>637.76</ele>
        <time>2021-06-17T09:02:16.000Z</time>
      </trkpt>
      <trkpt lat="36.559617" lon="-5.053006">
        <ele>638.55</ele>
        <time>2021-06-17T09:02:17.000Z</time>
      </trkpt>
      <trkpt lat="36.559685" lon="-5.053106">
        <ele>638.41</ele>
        <time>2021-06-17T09:02:18.000Z</time>
      </trkpt>
      <trkpt lat="36.559789" lon="-5.053754">
        <ele>642.93</ele>
        <time>2021-06-17T09:02:22.000Z</time>
      </trkpt>
      <trkpt lat="36.55978" lon="-5.05394">
        <ele>643.27</ele>
        <time>2021-06-17T09:02:23.000Z</time>
      </trkpt>
      <trkpt lat="36.559739" lon="-5.054131">
        <ele>643.47</ele>
        <time>2021-06-17T09:02:24.000Z</time>
      </trkpt>
      <trkpt lat="36.559714" lon="-5.054324">
        <ele>644.19</ele>
        <time>2021-06-17T09:02:25.000Z</time>
      </trkpt>
      <trkpt lat="36.559714" lon="-5.054534">
        <ele>645.32</ele>
        <time>2021-06-17T09:02:26.000Z</time>
      </trkpt>
      <trkpt lat="36.559719" lon="-5.054737">
        <ele>646.07</ele>
        <time>2021-06-17T09:02:27.000Z</time>
      </trkpt>
      <trkpt lat="36.559736" lon="-5.054935">
        <ele>646.88</ele>
        <time>2021-06-17T09:02:28.000Z</time>
      </trkpt>
      <trkpt lat="36.559748" lon="-5.055144">
        <ele>648.82</ele>
        <time>2021-06-17T09:02:29.000Z</time>
      </trkpt>
      <trkpt lat="36.559772" lon="-5.055333">
        <ele>649.75</ele>
        <time>2021-06-17T09:02:30.000Z</time>
      </trkpt>
      <trkpt lat="36.559805" lon="-5.055524">
        <ele>651.67</ele>
        <time>2021-06-17T09:02:31.000Z</time>
      </trkpt>
      <trkpt lat="36.559836" lon="-5.055708">
        <ele>652.36</ele>
        <time>2021-06-17T09:02:32.000Z</time>
      </trkpt>
      <trkpt lat="36.559864" lon="-5.055854">
        <ele>652.56</ele>
        <time>2021-06-17T09:02:33.000Z</time>
      </trkpt>
      <trkpt lat="36.559895" lon="-5.056033">
        <ele>654.98</ele>
        <time>2021-06-17T09:02:34.000Z</time>
      </trkpt>
      <trkpt lat="36.559913" lon="-5.056203">
        <ele>656.5</ele>
        <time>2021-06-17T09:02:35.000Z</time>
      </trkpt>
      <trkpt lat="36.559904" lon="-5.056386">
        <ele>657.34</ele>
        <time>2021-06-17T09:02:36.000Z</time>
      </trkpt>
      <trkpt lat="36.559877" lon="-5.056553">
        <ele>657.76</ele>
        <time>2021-06-17T09:02:37.000Z</time>
      </trkpt>
      <trkpt lat="36.559837" lon="-5.056712">
        <ele>659.35</ele>
        <time>2021-06-17T09:02:38.000Z</time>
      </trkpt>
      <trkpt lat="36.55978" lon="-5.05687">
        <ele>659.93</ele>
        <time>2021-06-17T09:02:39.000Z</time>
      </trkpt>
      <trkpt lat="36.559712" lon="-5.057012">
        <ele>659.92</ele>
        <time>2021-06-17T09:02:40.000Z</time>
      </trkpt>
      <trkpt lat="36.559638" lon="-5.057165">
        <ele>661.57</ele>
        <time>2021-06-17T09:02:41.000Z</time>
      </trkpt>
      <trkpt lat="36.559576" lon="-5.05731">
        <ele>662.63</ele>
        <time>2021-06-17T09:02:42.000Z</time>
      </trkpt>
      <trkpt lat="36.559524" lon="-5.057448">
        <ele>663.69</ele>
        <time>2021-06-17T09:02:43.000Z</time>
      </trkpt>
      <trkpt lat="36.559492" lon="-5.057581">
        <ele>663.53</ele>
        <time>2021-06-17T09:02:44.000Z</time>
      </trkpt>
      <trkpt lat="36.559462" lon="-5.057709">
        <ele>664.87</ele>
        <time>2021-06-17T09:02:45.000Z</time>
      </trkpt>
      <trkpt lat="36.559447" lon="-5.057861">
        <ele>665.03</ele>
        <time>2021-06-17T09:02:46.000Z</time>
      </trkpt>
      <trkpt lat="36.559437" lon="-5.057996">
        <ele>666.18</ele>
        <time>2021-06-17T09:02:47.000Z</time>
      </trkpt>
      <trkpt lat="36.559456" lon="-5.058142">
        <ele>665.88</ele>
        <time>2021-06-17T09:02:48.000Z</time>
      </trkpt>
      <trkpt lat="36.55949" lon="-5.05827">
        <ele>667.33</ele>
        <time>2021-06-17T09:02:49.000Z</time>
      </trkpt>
      <trkpt lat="36.559542" lon="-5.058402">
        <ele>668.09</ele>
        <time>2021-06-17T09:02:50.000Z</time>
      </trkpt>
      <trkpt lat="36.559596" lon="-5.058514">
        <ele>669.31</ele>
        <time>2021-06-17T09:02:51.000Z</time>
      </trkpt>
      <trkpt lat="36.559684" lon="-5.058612">
        <ele>669.22</ele>
        <time>2021-06-17T09:02:52.000Z</time>
      </trkpt>
      <trkpt lat="36.559754" lon="-5.058689">
        <ele>671.35</ele>
        <time>2021-06-17T09:02:53.000Z</time>
      </trkpt>
      <trkpt lat="36.559855" lon="-5.058764">
        <ele>672.05</ele>
        <time>2021-06-17T09:02:54.000Z</time>
      </trkpt>
      <trkpt lat="36.559965" lon="-5.058824">
        <ele>672.74</ele>
        <time>2021-06-17T09:02:55.000Z</time>
      </trkpt>
      <trkpt lat="36.560076" lon="-5.058856">
        <ele>673.34</ele>
        <time>2021-06-17T09:02:56.000Z</time>
      </trkpt>
      <trkpt lat="36.560182" lon="-5.05886">
        <ele>672.76</ele>
        <time>2021-06-17T09:02:57.000Z</time>
      </trkpt>
      <trkpt lat="36.560328" lon="-5.058857">
        <ele>672.86</ele>
        <time>2021-06-17T09:02:58.000Z</time>
      </trkpt>
      <trkpt lat="36.560489" lon="-5.058795">
        <ele>673.53</ele>
        <time>2021-06-17T09:02:59.000Z</time>
      </trkpt>
      <trkpt lat="36.56063" lon="-5.058746">
        <ele>673.61</ele>
        <time>2021-06-17T09:03:00.000Z</time>
      </trkpt>
      <trkpt lat="36.560764" lon="-5.058674">
        <ele>675.18</ele>
        <time>2021-06-17T09:03:01.000Z</time>
      </trkpt>
      <trkpt lat="36.560911" lon="-5.058608">
        <ele>675.52</ele>
        <time>2021-06-17T09:03:02.000Z</time>
      </trkpt>
      <trkpt lat="36.561053" lon="-5.058564">
        <ele>677.16</ele>
        <time>2021-06-17T09:03:03.000Z</time>
      </trkpt>
      <trkpt lat="36.561193" lon="-5.058514">
        <ele>680.14</ele>
        <time>2021-06-17T09:03:04.000Z</time>
      </trkpt>
      <trkpt lat="36.561324" lon="-5.058488">
        <ele>681.79</ele>
        <time>2021-06-17T09:03:05.000Z</time>
      </trkpt>
      <trkpt lat="36.561472" lon="-5.058483">
        <ele>682.62</ele>
        <time>2021-06-17T09:03:06.000Z</time>
      </trkpt>
      <trkpt lat="36.561618" lon="-5.05849">
        <ele>683.46</ele>
        <time>2021-06-17T09:03:07.000Z</time>
      </trkpt>
      <trkpt lat="36.561765" lon="-5.058529">
        <ele>684.76</ele>
        <time>2021-06-17T09:03:08.000Z</time>
      </trkpt>
      <trkpt lat="36.561908" lon="-5.058588">
        <ele>685.74</ele>
        <time>2021-06-17T09:03:09.000Z</time>
      </trkpt>
      <trkpt lat="36.562037" lon="-5.058676">
        <ele>687.09</ele>
        <time>2021-06-17T09:03:10.000Z</time>
      </trkpt>
      <trkpt lat="36.562164" lon="-5.058766">
        <ele>688.15</ele>
        <time>2021-06-17T09:03:11.000Z</time>
      </trkpt>
      <trkpt lat="36.56229" lon="-5.058877">
        <ele>688.77</ele>
        <time>2021-06-17T09:03:12.000Z</time>
      </trkpt>
      <trkpt lat="36.562398" lon="-5.058986">
        <ele>689.85</ele>
        <time>2021-06-17T09:03:13.000Z</time>
      </trkpt>
      <trkpt lat="36.562509" lon="-5.059098">
        <ele>690.49</ele>
        <time>2021-06-17T09:03:14.000Z</time>
      </trkpt>
      <trkpt lat="36.562616" lon="-5.059205">
        <ele>691.66</ele>
        <time>2021-06-17T09:03:15.000Z</time>
      </trkpt>
      <trkpt lat="36.562715" lon="-5.0593">
        <ele>690.72</ele>
        <time>2021-06-17T09:03:16.000Z</time>
      </trkpt>
      <trkpt lat="36.562831" lon="-5.059374">
        <ele>691.54</ele>
        <time>2021-06-17T09:03:17.000Z</time>
      </trkpt>
      <trkpt lat="36.562944" lon="-5.059433">
        <ele>692.11</ele>
        <time>2021-06-17T09:03:18.000Z</time>
      </trkpt>
      <trkpt lat="36.56305" lon="-5.059495">
        <ele>694.66</ele>
        <time>2021-06-17T09:03:19.000Z</time>
      </trkpt>
      <trkpt lat="36.563172" lon="-5.05952">
        <ele>695.55</ele>
        <time>2021-06-17T09:03:20.000Z</time>
      </trkpt>
      <trkpt lat="36.563266" lon="-5.059474">
        <ele>696.31</ele>
        <time>2021-06-17T09:03:21.000Z</time>
      </trkpt>
      <trkpt lat="36.563378" lon="-5.059437">
        <ele>697.63</ele>
        <time>2021-06-17T09:03:22.000Z</time>
      </trkpt>
      <trkpt lat="36.563489" lon="-5.059358">
        <ele>699.24</ele>
        <time>2021-06-17T09:03:23.000Z</time>
      </trkpt>
      <trkpt lat="36.5636" lon="-5.059274">
        <ele>699.28</ele>
        <time>2021-06-17T09:03:24.000Z</time>
      </trkpt>
      <trkpt lat="36.563709" lon="-5.059183">
        <ele>699.72</ele>
        <time>2021-06-17T09:03:25.000Z</time>
      </trkpt>
      <trkpt lat="36.563815" lon="-5.059089">
        <ele>699.53</ele>
        <time>2021-06-17T09:03:26.000Z</time>
      </trkpt>
      <trkpt lat="36.563896" lon="-5.059003">
        <ele>699.89</ele>
        <time>2021-06-17T09:03:27.000Z</time>
      </trkpt>
      <trkpt lat="36.564015" lon="-5.058943">
        <ele>702.09</ele>
        <time>2021-06-17T09:03:28.000Z</time>
      </trkpt>
      <trkpt lat="36.564129" lon="-5.058915">
        <ele>703.24</ele>
        <time>2021-06-17T09:03:29.000Z</time>
      </trkpt>
      <trkpt lat="36.564257" lon="-5.0589">
        <ele>703.45</ele>
        <time>2021-06-17T09:03:30.000Z</time>
      </trkpt>
      <trkpt lat="36.564389" lon="-5.058918">
        <ele>705.1</ele>
        <time>2021-06-17T09:03:31.000Z</time>
      </trkpt>
      <trkpt lat="36.564522" lon="-5.05896">
        <ele>706.83</ele>
        <time>2021-06-17T09:03:32.000Z</time>
      </trkpt>
      <trkpt lat="36.564654" lon="-5.059026">
        <ele>707.95</ele>
        <time>2021-06-17T09:03:33.000Z</time>
      </trkpt>
      <trkpt lat="36.564782" lon="-5.05911">
        <ele>709.49</ele>
        <time>2021-06-17T09:03:34.000Z</time>
      </trkpt>
      <trkpt lat="36.564912" lon="-5.059196">
        <ele>710.4</ele>
        <time>2021-06-17T09:03:35.000Z</time>
      </trkpt>
      <trkpt lat="36.565039" lon="-5.059303">
        <ele>711.93</ele>
        <time>2021-06-17T09:03:36.000Z</time>
      </trkpt>
      <trkpt lat="36.565176" lon="-5.059365">
        <ele>712.14</ele>
        <time>2021-06-17T09:03:37.000Z</time>
      </trkpt>
      <trkpt lat="36.565277" lon="-5.059436">
        <ele>714.3</ele>
        <time>2021-06-17T09:03:38.000Z</time>
      </trkpt>
      <trkpt lat="36.565388" lon="-5.059493">
        <ele>715.4</ele>
        <time>2021-06-17T09:03:39.000Z</time>
      </trkpt>
      <trkpt lat="36.565501" lon="-5.059539">
        <ele>717.19</ele>
        <time>2021-06-17T09:03:40.000Z</time>
      </trkpt>
      <trkpt lat="36.565625" lon="-5.059541">
        <ele>716.17</ele>
        <time>2021-06-17T09:03:41.000Z</time>
      </trkpt>
      <trkpt lat="36.565733" lon="-5.059516">
        <ele>715.96</ele>
        <time>2021-06-17T09:03:42.000Z</time>
      </trkpt>
      <trkpt lat="36.565865" lon="-5.059469">
        <ele>716.45</ele>
        <time>2021-06-17T09:03:43.000Z</time>
      </trkpt>
      <trkpt lat="36.565978" lon="-5.059398">
        <ele>717.32</ele>
        <time>2021-06-17T09:03:44.000Z</time>
      </trkpt>
      <trkpt lat="36.566093" lon="-5.059309">
        <ele>718.27</ele>
        <time>2021-06-17T09:03:45.000Z</time>
      </trkpt>
      <trkpt lat="36.56622" lon="-5.059197">
        <ele>718.11</ele>
        <time>2021-06-17T09:03:46.000Z</time>
      </trkpt>
      <trkpt lat="36.566338" lon="-5.059076">
        <ele>718.35</ele>
        <time>2021-06-17T09:03:47.000Z</time>
      </trkpt>
      <trkpt lat="36.56646" lon="-5.058927">
        <ele>719.21</ele>
        <time>2021-06-17T09:03:48.000Z</time>
      </trkpt>
      <trkpt lat="36.566584" lon="-5.058783">
        <ele>719.27</ele>
        <time>2021-06-17T09:03:49.000Z</time>
      </trkpt>
      <trkpt lat="36.566705" lon="-5.058635">
        <ele>720.83</ele>
        <time>2021-06-17T09:03:50.000Z</time>
      </trkpt>
      <trkpt lat="36.566825" lon="-5.058488">
        <ele>722.06</ele>
        <time>2021-06-17T09:03:51.000Z</time>
      </trkpt>
      <trkpt lat="36.566949" lon="-5.058353">
        <ele>722.95</ele>
        <time>2021-06-17T09:03:52.000Z</time>
      </trkpt>
      <trkpt lat="36.567044" lon="-5.05822">
        <ele>722.71</ele>
        <time>2021-06-17T09:03:53.000Z</time>
      </trkpt>
      <trkpt lat="36.567125" lon="-5.058117">
        <ele>723.5</ele>
        <time>2021-06-17T09:03:54.000Z</time>
      </trkpt>
      <trkpt lat="36.567233" lon="-5.058017">
        <ele>724.39</ele>
        <time>2021-06-17T09:03:55.000Z</time>
      </trkpt>
      <trkpt lat="36.56729" lon="-5.057922">
        <ele>724.03</ele>
        <time>2021-06-17T09:03:56.000Z</time>
      </trkpt>
      <trkpt lat="36.567358" lon="-5.057852">
        <ele>724.19</ele>
        <time>2021-06-17T09:03:57.000Z</time>
      </trkpt>
      <trkpt lat="36.567452" lon="-5.0578">
        <ele>726.36</ele>
        <time>2021-06-17T09:03:58.000Z</time>
      </trkpt>
      <trkpt lat="36.567585" lon="-5.057771">
        <ele>728.95</ele>
        <time>2021-06-17T09:03:59.000Z</time>
      </trkpt>
      <trkpt lat="36.567692" lon="-5.057769">
        <ele>730.84</ele>
        <time>2021-06-17T09:04:00.000Z</time>
      </trkpt>
      <trkpt lat="36.567804" lon="-5.057795">
        <ele>733.02</ele>
        <time>2021-06-17T09:04:01.000Z</time>
      </trkpt>
      <trkpt lat="36.567892" lon="-5.057842">
        <ele>733.64</ele>
        <time>2021-06-17T09:04:02.000Z</time>
      </trkpt>
      <trkpt lat="36.567979" lon="-5.057908">
        <ele>734.66</ele>
        <time>2021-06-17T09:04:03.000Z</time>
      </trkpt>
      <trkpt lat="36.568052" lon="-5.058005">
        <ele>733.16</ele>
        <time>2021-06-17T09:04:04.000Z</time>
      </trkpt>
      <trkpt lat="36.568134" lon="-5.058126">
        <ele>734.62</ele>
        <time>2021-06-17T09:04:05.000Z</time>
      </trkpt>
      <trkpt lat="36.568217" lon="-5.058266">
        <ele>734.83</ele>
        <time>2021-06-17T09:04:06.000Z</time>
      </trkpt>
      <trkpt lat="36.568301" lon="-5.05839">
        <ele>735</ele>
        <time>2021-06-17T09:04:07.000Z</time>
      </trkpt>
      <trkpt lat="36.568384" lon="-5.058543">
        <ele>736.09</ele>
        <time>2021-06-17T09:04:08.000Z</time>
      </trkpt>
      <trkpt lat="36.568465" lon="-5.058707">
        <ele>736.22</ele>
        <time>2021-06-17T09:04:09.000Z</time>
      </trkpt>
      <trkpt lat="36.56854" lon="-5.058853">
        <ele>736.76</ele>
        <time>2021-06-17T09:04:10.000Z</time>
      </trkpt>
      <trkpt lat="36.568634" lon="-5.058985">
        <ele>737.88</ele>
        <time>2021-06-17T09:04:11.000Z</time>
      </trkpt>
      <trkpt lat="36.568739" lon="-5.05911">
        <ele>736.99</ele>
        <time>2021-06-17T09:04:12.000Z</time>
      </trkpt>
      <trkpt lat="36.568852" lon="-5.059242">
        <ele>737.77</ele>
        <time>2021-06-17T09:04:13.000Z</time>
      </trkpt>
      <trkpt lat="36.568972" lon="-5.05936">
        <ele>737.3</ele>
        <time>2021-06-17T09:04:14.000Z</time>
      </trkpt>
      <trkpt lat="36.569085" lon="-5.059482">
        <ele>737.07</ele>
        <time>2021-06-17T09:04:15.000Z</time>
      </trkpt>
      <trkpt lat="36.569205" lon="-5.059582">
        <ele>736.95</ele>
        <time>2021-06-17T09:04:16.000Z</time>
      </trkpt>
      <trkpt lat="36.569317" lon="-5.059695">
        <ele>736.49</ele>
        <time>2021-06-17T09:04:17.000Z</time>
      </trkpt>
      <trkpt lat="36.56943" lon="-5.059806">
        <ele>737.45</ele>
        <time>2021-06-17T09:04:18.000Z</time>
      </trkpt>
      <trkpt lat="36.569533" lon="-5.059941">
        <ele>738.37</ele>
        <time>2021-06-17T09:04:19.000Z</time>
      </trkpt>
      <trkpt lat="36.56962" lon="-5.060111">
        <ele>739.6</ele>
        <time>2021-06-17T09:04:20.000Z</time>
      </trkpt>
      <trkpt lat="36.569701" lon="-5.060243">
        <ele>739.84</ele>
        <time>2021-06-17T09:04:21.000Z</time>
      </trkpt>
      <trkpt lat="36.569779" lon="-5.060399">
        <ele>740.55</ele>
        <time>2021-06-17T09:04:22.000Z</time>
      </trkpt>
      <trkpt lat="36.569847" lon="-5.06055">
        <ele>741.53</ele>
        <time>2021-06-17T09:04:23.000Z</time>
      </trkpt>
      <trkpt lat="36.569919" lon="-5.060709">
        <ele>741.97</ele>
        <time>2021-06-17T09:04:24.000Z</time>
      </trkpt>
      <trkpt lat="36.569979" lon="-5.060873">
        <ele>742.69</ele>
        <time>2021-06-17T09:04:25.000Z</time>
      </trkpt>
      <trkpt lat="36.570033" lon="-5.061045">
        <ele>743.84</ele>
        <time>2021-06-17T09:04:26.000Z</time>
      </trkpt>
      <trkpt lat="36.570075" lon="-5.061222">
        <ele>744.5</ele>
        <time>2021-06-17T09:04:27.000Z</time>
      </trkpt>
      <trkpt lat="36.570107" lon="-5.061381">
        <ele>745</ele>
        <time>2021-06-17T09:04:28.000Z</time>
      </trkpt>
      <trkpt lat="36.570128" lon="-5.061567">
        <ele>746.13</ele>
        <time>2021-06-17T09:04:29.000Z</time>
      </trkpt>
      <trkpt lat="36.570133" lon="-5.061756">
        <ele>747.56</ele>
        <time>2021-06-17T09:04:30.000Z</time>
      </trkpt>
      <trkpt lat="36.570131" lon="-5.061946">
        <ele>749.68</ele>
        <time>2021-06-17T09:04:31.000Z</time>
      </trkpt>
      <trkpt lat="36.570136" lon="-5.06212">
        <ele>750.31</ele>
        <time>2021-06-17T09:04:32.000Z</time>
      </trkpt>
      <trkpt lat="36.570131" lon="-5.062303">
        <ele>751.69</ele>
        <time>2021-06-17T09:04:33.000Z</time>
      </trkpt>
      <trkpt lat="36.570126" lon="-5.062461">
        <ele>751.75</ele>
        <time>2021-06-17T09:04:34.000Z</time>
      </trkpt>
      <trkpt lat="36.570126" lon="-5.062601">
        <ele>753.05</ele>
        <time>2021-06-17T09:04:35.000Z</time>
      </trkpt>
      <trkpt lat="36.570137" lon="-5.062729">
        <ele>753.61</ele>
        <time>2021-06-17T09:04:36.000Z</time>
      </trkpt>
      <trkpt lat="36.570169" lon="-5.062861">
        <ele>753.88</ele>
        <time>2021-06-17T09:04:37.000Z</time>
      </trkpt>
      <trkpt lat="36.570222" lon="-5.062977">
        <ele>754.76</ele>
        <time>2021-06-17T09:04:38.000Z</time>
      </trkpt>
      <trkpt lat="36.570284" lon="-5.063096">
        <ele>756.09</ele>
        <time>2021-06-17T09:04:39.000Z</time>
      </trkpt>
      <trkpt lat="36.570353" lon="-5.06321">
        <ele>757.31</ele>
        <time>2021-06-17T09:04:40.000Z</time>
      </trkpt>
      <trkpt lat="36.57045" lon="-5.063288">
        <ele>758.56</ele>
        <time>2021-06-17T09:04:41.000Z</time>
      </trkpt>
      <trkpt lat="36.570529" lon="-5.063373">
        <ele>762.1</ele>
        <time>2021-06-17T09:04:42.000Z</time>
      </trkpt>
      <trkpt lat="36.570638" lon="-5.063449">
        <ele>763.6</ele>
        <time>2021-06-17T09:04:43.000Z</time>
      </trkpt>
      <trkpt lat="36.570738" lon="-5.0635">
        <ele>766.68</ele>
        <time>2021-06-17T09:04:44.000Z</time>
      </trkpt>
      <trkpt lat="36.570846" lon="-5.063527">
        <ele>767.87</ele>
        <time>2021-06-17T09:04:45.000Z</time>
      </trkpt>
      <trkpt lat="36.570959" lon="-5.063516">
        <ele>768.51</ele>
        <time>2021-06-17T09:04:46.000Z</time>
      </trkpt>
      <trkpt lat="36.571071" lon="-5.063492">
        <ele>769.16</ele>
        <time>2021-06-17T09:04:47.000Z</time>
      </trkpt>
      <trkpt lat="36.571178" lon="-5.063443">
        <ele>769.38</ele>
        <time>2021-06-17T09:04:48.000Z</time>
      </trkpt>
      <trkpt lat="36.571284" lon="-5.063378">
        <ele>770.52</ele>
        <time>2021-06-17T09:04:49.000Z</time>
      </trkpt>
      <trkpt lat="36.571391" lon="-5.063279">
        <ele>770.98</ele>
        <time>2021-06-17T09:04:50.000Z</time>
      </trkpt>
      <trkpt lat="36.571495" lon="-5.063165">
        <ele>771.43</ele>
        <time>2021-06-17T09:04:51.000Z</time>
      </trkpt>
      <trkpt lat="36.571606" lon="-5.06306">
        <ele>770.25</ele>
        <time>2021-06-17T09:04:52.000Z</time>
      </trkpt>
      <trkpt lat="36.571709" lon="-5.062935">
        <ele>771.22</ele>
        <time>2021-06-17T09:04:53.000Z</time>
      </trkpt>
      <trkpt lat="36.571818" lon="-5.062821">
        <ele>771.74</ele>
        <time>2021-06-17T09:04:54.000Z</time>
      </trkpt>
      <trkpt lat="36.571908" lon="-5.062714">
        <ele>772.62</ele>
        <time>2021-06-17T09:04:55.000Z</time>
      </trkpt>
      <trkpt lat="36.572009" lon="-5.062615">
        <ele>774.81</ele>
        <time>2021-06-17T09:04:56.000Z</time>
      </trkpt>
      <trkpt lat="36.572121" lon="-5.062532">
        <ele>775.71</ele>
        <time>2021-06-17T09:04:57.000Z</time>
      </trkpt>
      <trkpt lat="36.572237" lon="-5.062463">
        <ele>776.32</ele>
        <time>2021-06-17T09:04:58.000Z</time>
      </trkpt>
      <trkpt lat="36.572399" lon="-5.062403">
        <ele>777.64</ele>
        <time>2021-06-17T09:04:59.000Z</time>
      </trkpt>
      <trkpt lat="36.572559" lon="-5.062341">
        <ele>778.89</ele>
        <time>2021-06-17T09:05:00.000Z</time>
      </trkpt>
      <trkpt lat="36.572688" lon="-5.062267">
        <ele>781.9</ele>
        <time>2021-06-17T09:05:01.000Z</time>
      </trkpt>
      <trkpt lat="36.572852" lon="-5.062186">
        <ele>782.99</ele>
        <time>2021-06-17T09:05:02.000Z</time>
      </trkpt>
      <trkpt lat="36.572994" lon="-5.062096">
        <ele>783.89</ele>
        <time>2021-06-17T09:05:03.000Z</time>
      </trkpt>
      <trkpt lat="36.573134" lon="-5.061992">
        <ele>784.7</ele>
        <time>2021-06-17T09:05:04.000Z</time>
      </trkpt>
      <trkpt lat="36.573281" lon="-5.061895">
        <ele>786.13</ele>
        <time>2021-06-17T09:05:05.000Z</time>
      </trkpt>
      <trkpt lat="36.573419" lon="-5.061804">
        <ele>786.21</ele>
        <time>2021-06-17T09:05:06.000Z</time>
      </trkpt>
      <trkpt lat="36.573541" lon="-5.061714">
        <ele>786.97</ele>
        <time>2021-06-17T09:05:07.000Z</time>
      </trkpt>
      <trkpt lat="36.573646" lon="-5.061622">
        <ele>787.41</ele>
        <time>2021-06-17T09:05:08.000Z</time>
      </trkpt>
      <trkpt lat="36.573743" lon="-5.06154">
        <ele>787.84</ele>
        <time>2021-06-17T09:05:09.000Z</time>
      </trkpt>
      <trkpt lat="36.573837" lon="-5.061451">
        <ele>789.42</ele>
        <time>2021-06-17T09:05:10.000Z</time>
      </trkpt>
      <trkpt lat="36.573926" lon="-5.061352">
        <ele>790.26</ele>
        <time>2021-06-17T09:05:11.000Z</time>
      </trkpt>
      <trkpt lat="36.573996" lon="-5.061235">
        <ele>790.13</ele>
        <time>2021-06-17T09:05:12.000Z</time>
      </trkpt>
      <trkpt lat="36.574031" lon="-5.061101">
        <ele>791.16</ele>
        <time>2021-06-17T09:05:13.000Z</time>
      </trkpt>
      <trkpt lat="36.574075" lon="-5.060957">
        <ele>791.49</ele>
        <time>2021-06-17T09:05:14.000Z</time>
      </trkpt>
      <trkpt lat="36.574108" lon="-5.060822">
        <ele>792.56</ele>
        <time>2021-06-17T09:05:15.000Z</time>
      </trkpt>
      <trkpt lat="36.574136" lon="-5.060674">
        <ele>793.58</ele>
        <time>2021-06-17T09:05:16.000Z</time>
      </trkpt>
      <trkpt lat="36.574175" lon="-5.060515">
        <ele>794.24</ele>
        <time>2021-06-17T09:05:17.000Z</time>
      </trkpt>
      <trkpt lat="36.574217" lon="-5.060367">
        <ele>794.99</ele>
        <time>2021-06-17T09:05:18.000Z</time>
      </trkpt>
      <trkpt lat="36.574284" lon="-5.060221">
        <ele>795.61</ele>
        <time>2021-06-17T09:05:19.000Z</time>
      </trkpt>
      <trkpt lat="36.574356" lon="-5.060089">
        <ele>796.51</ele>
        <time>2021-06-17T09:05:20.000Z</time>
      </trkpt>
      <trkpt lat="36.574439" lon="-5.059985">
        <ele>797.39</ele>
        <time>2021-06-17T09:05:21.000Z</time>
      </trkpt>
      <trkpt lat="36.574516" lon="-5.059897">
        <ele>798.71</ele>
        <time>2021-06-17T09:05:22.000Z</time>
      </trkpt>
      <trkpt lat="36.574634" lon="-5.059809">
        <ele>799.13</ele>
        <time>2021-06-17T09:05:23.000Z</time>
      </trkpt>
      <trkpt lat="36.574752" lon="-5.059741">
        <ele>800.34</ele>
        <time>2021-06-17T09:05:24.000Z</time>
      </trkpt>
      <trkpt lat="36.574867" lon="-5.059689">
        <ele>800.65</ele>
        <time>2021-06-17T09:05:25.000Z</time>
      </trkpt>
      <trkpt lat="36.574998" lon="-5.059645">
        <ele>802.14</ele>
        <time>2021-06-17T09:05:26.000Z</time>
      </trkpt>
      <trkpt lat="36.575114" lon="-5.059619">
        <ele>802.11</ele>
        <time>2021-06-17T09:05:27.000Z</time>
      </trkpt>
      <trkpt lat="36.575237" lon="-5.059624">
        <ele>807.12</ele>
        <time>2021-06-17T09:05:28.000Z</time>
      </trkpt>
      <trkpt lat="36.575342" lon="-5.059634">
        <ele>806.62</ele>
        <time>2021-06-17T09:05:29.000Z</time>
      </trkpt>
      <trkpt lat="36.575445" lon="-5.05967">
        <ele>808.96</ele>
        <time>2021-06-17T09:05:30.000Z</time>
      </trkpt>
      <trkpt lat="36.575532" lon="-5.059737">
        <ele>811.78</ele>
        <time>2021-06-17T09:05:31.000Z</time>
      </trkpt>
      <trkpt lat="36.575616" lon="-5.059828">
        <ele>812.62</ele>
        <time>2021-06-17T09:05:32.000Z</time>
      </trkpt>
      <trkpt lat="36.575679" lon="-5.059921">
        <ele>813.45</ele>
        <time>2021-06-17T09:05:33.000Z</time>
      </trkpt>
      <trkpt lat="36.575718" lon="-5.060042">
        <ele>813.5</ele>
        <time>2021-06-17T09:05:34.000Z</time>
      </trkpt>
      <trkpt lat="36.575752" lon="-5.060189">
        <ele>814.87</ele>
        <time>2021-06-17T09:05:35.000Z</time>
      </trkpt>
      <trkpt lat="36.575784" lon="-5.060312">
        <ele>814.75</ele>
        <time>2021-06-17T09:05:36.000Z</time>
      </trkpt>
      <trkpt lat="36.575802" lon="-5.060464">
        <ele>815.78</ele>
        <time>2021-06-17T09:05:37.000Z</time>
      </trkpt>
      <trkpt lat="36.575833" lon="-5.060623">
        <ele>815.66</ele>
        <time>2021-06-17T09:05:38.000Z</time>
      </trkpt>
      <trkpt lat="36.575862" lon="-5.060797">
        <ele>816.12</ele>
        <time>2021-06-17T09:05:39.000Z</time>
      </trkpt>
      <trkpt lat="36.5759" lon="-5.061018">
        <ele>816.47</ele>
        <time>2021-06-17T09:05:40.000Z</time>
      </trkpt>
      <trkpt lat="36.575946" lon="-5.061199">
        <ele>817.65</ele>
        <time>2021-06-17T09:05:41.000Z</time>
      </trkpt>
      <trkpt lat="36.576005" lon="-5.061347">
        <ele>817.72</ele>
        <time>2021-06-17T09:05:42.000Z</time>
      </trkpt>
      <trkpt lat="36.576074" lon="-5.06153">
        <ele>817.91</ele>
        <time>2021-06-17T09:05:43.000Z</time>
      </trkpt>
      <trkpt lat="36.576136" lon="-5.061688">
        <ele>818.35</ele>
        <time>2021-06-17T09:05:44.000Z</time>
      </trkpt>
      <trkpt lat="36.576213" lon="-5.061875">
        <ele>818.87</ele>
        <time>2021-06-17T09:05:45.000Z</time>
      </trkpt>
      <trkpt lat="36.576301" lon="-5.062023">
        <ele>819.16</ele>
        <time>2021-06-17T09:05:46.000Z</time>
      </trkpt>
      <trkpt lat="36.576391" lon="-5.062157">
        <ele>820.18</ele>
        <time>2021-06-17T09:05:47.000Z</time>
      </trkpt>
      <trkpt lat="36.576496" lon="-5.062286">
        <ele>820.69</ele>
        <time>2021-06-17T09:05:48.000Z</time>
      </trkpt>
      <trkpt lat="36.576605" lon="-5.062404">
        <ele>820.96</ele>
        <time>2021-06-17T09:05:49.000Z</time>
      </trkpt>
      <trkpt lat="36.576717" lon="-5.062534">
        <ele>821.88</ele>
        <time>2021-06-17T09:05:50.000Z</time>
      </trkpt>
      <trkpt lat="36.576823" lon="-5.062667">
        <ele>822.26</ele>
        <time>2021-06-17T09:05:51.000Z</time>
      </trkpt>
      <trkpt lat="36.576929" lon="-5.062797">
        <ele>823.19</ele>
        <time>2021-06-17T09:05:52.000Z</time>
      </trkpt>
      <trkpt lat="36.577038" lon="-5.062919">
        <ele>822.62</ele>
        <time>2021-06-17T09:05:53.000Z</time>
      </trkpt>
      <trkpt lat="36.577137" lon="-5.063054">
        <ele>822.56</ele>
        <time>2021-06-17T09:05:54.000Z</time>
      </trkpt>
      <trkpt lat="36.577238" lon="-5.063171">
        <ele>821.58</ele>
        <time>2021-06-17T09:05:55.000Z</time>
      </trkpt>
      <trkpt lat="36.57734" lon="-5.063288">
        <ele>823.29</ele>
        <time>2021-06-17T09:05:56.000Z</time>
      </trkpt>
      <trkpt lat="36.577443" lon="-5.063393">
        <ele>824.71</ele>
        <time>2021-06-17T09:05:57.000Z</time>
      </trkpt>
      <trkpt lat="36.577543" lon="-5.063473">
        <ele>825.49</ele>
        <time>2021-06-17T09:05:58.000Z</time>
      </trkpt>
      <trkpt lat="36.577637" lon="-5.063541">
        <ele>824.92</ele>
        <time>2021-06-17T09:05:59.000Z</time>
      </trkpt>
      <trkpt lat="36.577723" lon="-5.063595">
        <ele>824.43</ele>
        <time>2021-06-17T09:06:00.000Z</time>
      </trkpt>
      <trkpt lat="36.5778" lon="-5.063669">
        <ele>823.24</ele>
        <time>2021-06-17T09:06:01.000Z</time>
      </trkpt>
      <trkpt lat="36.577855" lon="-5.063741">
        <ele>823.58</ele>
        <time>2021-06-17T09:06:02.000Z</time>
      </trkpt>
      <trkpt lat="36.577902" lon="-5.063841">
        <ele>824.12</ele>
        <time>2021-06-17T09:06:03.000Z</time>
      </trkpt>
      <trkpt lat="36.577934" lon="-5.063943">
        <ele>824.95</ele>
        <time>2021-06-17T09:06:04.000Z</time>
      </trkpt>
      <trkpt lat="36.577952" lon="-5.064062">
        <ele>826.14</ele>
        <time>2021-06-17T09:06:05.000Z</time>
      </trkpt>
      <trkpt lat="36.577954" lon="-5.064206">
        <ele>827.37</ele>
        <time>2021-06-17T09:06:06.000Z</time>
      </trkpt>
      <trkpt lat="36.577925" lon="-5.06435">
        <ele>829.52</ele>
        <time>2021-06-17T09:06:07.000Z</time>
      </trkpt>
      <trkpt lat="36.577883" lon="-5.06447">
        <ele>830.92</ele>
        <time>2021-06-17T09:06:08.000Z</time>
      </trkpt>
      <trkpt lat="36.577822" lon="-5.064554">
        <ele>830.36</ele>
        <time>2021-06-17T09:06:09.000Z</time>
      </trkpt>
      <trkpt lat="36.577727" lon="-5.064647">
        <ele>829.73</ele>
        <time>2021-06-17T09:06:10.000Z</time>
      </trkpt>
      <trkpt lat="36.577636" lon="-5.064739">
        <ele>829.97</ele>
        <time>2021-06-17T09:06:11.000Z</time>
      </trkpt>
      <trkpt lat="36.577578" lon="-5.064835">
        <ele>830.06</ele>
        <time>2021-06-17T09:06:12.000Z</time>
      </trkpt>
      <trkpt lat="36.577538" lon="-5.064949">
        <ele>829.74</ele>
        <time>2021-06-17T09:06:13.000Z</time>
      </trkpt>
      <trkpt lat="36.577479" lon="-5.065086">
        <ele>830.14</ele>
        <time>2021-06-17T09:06:14.000Z</time>
      </trkpt>
      <trkpt lat="36.577436" lon="-5.065216">
        <ele>831.46</ele>
        <time>2021-06-17T09:06:15.000Z</time>
      </trkpt>
      <trkpt lat="36.577414" lon="-5.065368">
        <ele>832.35</ele>
        <time>2021-06-17T09:06:16.000Z</time>
      </trkpt>
      <trkpt lat="36.577406" lon="-5.065524">
        <ele>834.41</ele>
        <time>2021-06-17T09:06:17.000Z</time>
      </trkpt>
      <trkpt lat="36.577412" lon="-5.065677">
        <ele>835.17</ele>
        <time>2021-06-17T09:06:18.000Z</time>
      </trkpt>
      <trkpt lat="36.577436" lon="-5.065829">
        <ele>835.94</ele>
        <time>2021-06-17T09:06:19.000Z</time>
      </trkpt>
      <trkpt lat="36.577446" lon="-5.065982">
        <ele>836.28</ele>
        <time>2021-06-17T09:06:20.000Z</time>
      </trkpt>
      <trkpt lat="36.57745" lon="-5.066129">
        <ele>836.64</ele>
        <time>2021-06-17T09:06:21.000Z</time>
      </trkpt>
      <trkpt lat="36.577437" lon="-5.066282">
        <ele>835.72</ele>
        <time>2021-06-17T09:06:22.000Z</time>
      </trkpt>
      <trkpt lat="36.577409" lon="-5.066428">
        <ele>836.6</ele>
        <time>2021-06-17T09:06:23.000Z</time>
      </trkpt>
      <trkpt lat="36.577373" lon="-5.06656">
        <ele>836.82</ele>
        <time>2021-06-17T09:06:24.000Z</time>
      </trkpt>
      <trkpt lat="36.577319" lon="-5.066688">
        <ele>837.18</ele>
        <time>2021-06-17T09:06:25.000Z</time>
      </trkpt>
      <trkpt lat="36.577252" lon="-5.066819">
        <ele>837.94</ele>
        <time>2021-06-17T09:06:26.000Z</time>
      </trkpt>
      <trkpt lat="36.577182" lon="-5.066951">
        <ele>838.52</ele>
        <time>2021-06-17T09:06:27.000Z</time>
      </trkpt>
      <trkpt lat="36.577127" lon="-5.067083">
        <ele>839.61</ele>
        <time>2021-06-17T09:06:28.000Z</time>
      </trkpt>
      <trkpt lat="36.577077" lon="-5.067208">
        <ele>839.67</ele>
        <time>2021-06-17T09:06:29.000Z</time>
      </trkpt>
      <trkpt lat="36.577037" lon="-5.067349">
        <ele>840.53</ele>
        <time>2021-06-17T09:06:30.000Z</time>
      </trkpt>
      <trkpt lat="36.57702" lon="-5.067484">
        <ele>840.85</ele>
        <time>2021-06-17T09:06:31.000Z</time>
      </trkpt>
      <trkpt lat="36.577022" lon="-5.067617">
        <ele>840.55</ele>
        <time>2021-06-17T09:06:32.000Z</time>
      </trkpt>
      <trkpt lat="36.577031" lon="-5.06775">
        <ele>841.39</ele>
        <time>2021-06-17T09:06:33.000Z</time>
      </trkpt>
      <trkpt lat="36.577075" lon="-5.067862">
        <ele>843.53</ele>
        <time>2021-06-17T09:06:34.000Z</time>
      </trkpt>
      <trkpt lat="36.577147" lon="-5.067958">
        <ele>843.56</ele>
        <time>2021-06-17T09:06:35.000Z</time>
      </trkpt>
      <trkpt lat="36.577238" lon="-5.068023">
        <ele>843.88</ele>
        <time>2021-06-17T09:06:36.000Z</time>
      </trkpt>
      <trkpt lat="36.577329" lon="-5.068105">
        <ele>843.06</ele>
        <time>2021-06-17T09:06:37.000Z</time>
      </trkpt>
      <trkpt lat="36.577419" lon="-5.068165">
        <ele>843.47</ele>
        <time>2021-06-17T09:06:38.000Z</time>
      </trkpt>
      <trkpt lat="36.577515" lon="-5.068201">
        <ele>844.88</ele>
        <time>2021-06-17T09:06:39.000Z</time>
      </trkpt>
      <trkpt lat="36.577582" lon="-5.068199">
        <ele>846.45</ele>
        <time>2021-06-17T09:06:40.000Z</time>
      </trkpt>
      <trkpt lat="36.577713" lon="-5.068191">
        <ele>846.81</ele>
        <time>2021-06-17T09:06:41.000Z</time>
      </trkpt>
      <trkpt lat="36.57785" lon="-5.068145">
        <ele>847.57</ele>
        <time>2021-06-17T09:06:42.000Z</time>
      </trkpt>
      <trkpt lat="36.577949" lon="-5.06811">
        <ele>847.85</ele>
        <time>2021-06-17T09:06:43.000Z</time>
      </trkpt>
      <trkpt lat="36.578049" lon="-5.068074">
        <ele>849.6</ele>
        <time>2021-06-17T09:06:44.000Z</time>
      </trkpt>
      <trkpt lat="36.578155" lon="-5.068042">
        <ele>849.37</ele>
        <time>2021-06-17T09:06:45.000Z</time>
      </trkpt>
      <trkpt lat="36.578236" lon="-5.068013">
        <ele>849.6</ele>
        <time>2021-06-17T09:06:46.000Z</time>
      </trkpt>
      <trkpt lat="36.578319" lon="-5.067985">
        <ele>851.1</ele>
        <time>2021-06-17T09:06:47.000Z</time>
      </trkpt>
      <trkpt lat="36.578413" lon="-5.067961">
        <ele>851.68</ele>
        <time>2021-06-17T09:06:48.000Z</time>
      </trkpt>
      <trkpt lat="36.578504" lon="-5.067946">
        <ele>853.16</ele>
        <time>2021-06-17T09:06:49.000Z</time>
      </trkpt>
      <trkpt lat="36.578601" lon="-5.067928">
        <ele>855.83</ele>
        <time>2021-06-17T09:06:50.000Z</time>
      </trkpt>
      <trkpt lat="36.578711" lon="-5.067922">
        <ele>855.16</ele>
        <time>2021-06-17T09:06:51.000Z</time>
      </trkpt>
      <trkpt lat="36.57884" lon="-5.067929">
        <ele>855.34</ele>
        <time>2021-06-17T09:06:52.000Z</time>
      </trkpt>
      <trkpt lat="36.578982" lon="-5.067936">
        <ele>856.03</ele>
        <time>2021-06-17T09:06:53.000Z</time>
      </trkpt>
      <trkpt lat="36.579125" lon="-5.067948">
        <ele>856.46</ele>
        <time>2021-06-17T09:06:54.000Z</time>
      </trkpt>
      <trkpt lat="36.579264" lon="-5.067965">
        <ele>857.32</ele>
        <time>2021-06-17T09:06:55.000Z</time>
      </trkpt>
      <trkpt lat="36.579404" lon="-5.067986">
        <ele>858.41</ele>
        <time>2021-06-17T09:06:56.000Z</time>
      </trkpt>
      <trkpt lat="36.579541" lon="-5.068007">
        <ele>858.84</ele>
        <time>2021-06-17T09:06:57.000Z</time>
      </trkpt>
      <trkpt lat="36.579677" lon="-5.068034">
        <ele>859.19</ele>
        <time>2021-06-17T09:06:58.000Z</time>
      </trkpt>
      <trkpt lat="36.579815" lon="-5.068064">
        <ele>859.09</ele>
        <time>2021-06-17T09:06:59.000Z</time>
      </trkpt>
      <trkpt lat="36.579952" lon="-5.068092">
        <ele>859.28</ele>
        <time>2021-06-17T09:07:00.000Z</time>
      </trkpt>
      <trkpt lat="36.580088" lon="-5.068109">
        <ele>859.27</ele>
        <time>2021-06-17T09:07:01.000Z</time>
      </trkpt>
      <trkpt lat="36.580224" lon="-5.068105">
        <ele>859.31</ele>
        <time>2021-06-17T09:07:02.000Z</time>
      </trkpt>
      <trkpt lat="36.580351" lon="-5.068098">
        <ele>859.81</ele>
        <time>2021-06-17T09:07:03.000Z</time>
      </trkpt>
      <trkpt lat="36.580488" lon="-5.06807">
        <ele>861.97</ele>
        <time>2021-06-17T09:07:04.000Z</time>
      </trkpt>
      <trkpt lat="36.580622" lon="-5.068025">
        <ele>862.84</ele>
        <time>2021-06-17T09:07:05.000Z</time>
      </trkpt>
      <trkpt lat="36.580767" lon="-5.067967">
        <ele>863.2</ele>
        <time>2021-06-17T09:07:06.000Z</time>
      </trkpt>
      <trkpt lat="36.580898" lon="-5.067898">
        <ele>864.26</ele>
        <time>2021-06-17T09:07:07.000Z</time>
      </trkpt>
      <trkpt lat="36.581044" lon="-5.067825">
        <ele>863.19</ele>
        <time>2021-06-17T09:07:08.000Z</time>
      </trkpt>
      <trkpt lat="36.581176" lon="-5.067755">
        <ele>862.49</ele>
        <time>2021-06-17T09:07:09.000Z</time>
      </trkpt>
      <trkpt lat="36.581327" lon="-5.067679">
        <ele>863.62</ele>
        <time>2021-06-17T09:07:10.000Z</time>
      </trkpt>
      <trkpt lat="36.581466" lon="-5.067607">
        <ele>864.62</ele>
        <time>2021-06-17T09:07:11.000Z</time>
      </trkpt>
      <trkpt lat="36.581602" lon="-5.06754">
        <ele>865.6</ele>
        <time>2021-06-17T09:07:12.000Z</time>
      </trkpt>
      <trkpt lat="36.581735" lon="-5.067472">
        <ele>865.79</ele>
        <time>2021-06-17T09:07:13.000Z</time>
      </trkpt>
      <trkpt lat="36.581871" lon="-5.067412">
        <ele>867.33</ele>
        <time>2021-06-17T09:07:14.000Z</time>
      </trkpt>
      <trkpt lat="36.581981" lon="-5.067347">
        <ele>867.96</ele>
        <time>2021-06-17T09:07:15.000Z</time>
      </trkpt>
      <trkpt lat="36.582098" lon="-5.067293">
        <ele>869.14</ele>
        <time>2021-06-17T09:07:16.000Z</time>
      </trkpt>
      <trkpt lat="36.582209" lon="-5.067242">
        <ele>869.65</ele>
        <time>2021-06-17T09:07:17.000Z</time>
      </trkpt>
      <trkpt lat="36.582311" lon="-5.067197">
        <ele>869.75</ele>
        <time>2021-06-17T09:07:18.000Z</time>
      </trkpt>
      <trkpt lat="36.582407" lon="-5.067176">
        <ele>870.06</ele>
        <time>2021-06-17T09:07:19.000Z</time>
      </trkpt>
      <trkpt lat="36.582513" lon="-5.067176">
        <ele>870.2</ele>
        <time>2021-06-17T09:07:20.000Z</time>
      </trkpt>
      <trkpt lat="36.582606" lon="-5.067192">
        <ele>870.47</ele>
        <time>2021-06-17T09:07:21.000Z</time>
      </trkpt>
      <trkpt lat="36.582704" lon="-5.067213">
        <ele>869.54</ele>
        <time>2021-06-17T09:07:22.000Z</time>
      </trkpt>
      <trkpt lat="36.58278" lon="-5.067261">
        <ele>869.2</ele>
        <time>2021-06-17T09:07:23.000Z</time>
      </trkpt>
      <trkpt lat="36.582844" lon="-5.06735">
        <ele>868.35</ele>
        <time>2021-06-17T09:07:24.000Z</time>
      </trkpt>
      <trkpt lat="36.582895" lon="-5.067451">
        <ele>866.07</ele>
        <time>2021-06-17T09:07:25.000Z</time>
      </trkpt>
      <trkpt lat="36.582926" lon="-5.067572">
        <ele>867.69</ele>
        <time>2021-06-17T09:07:26.000Z</time>
      </trkpt>
      <trkpt lat="36.582961" lon="-5.067731">
        <ele>868.33</ele>
        <time>2021-06-17T09:07:27.000Z</time>
      </trkpt>
      <trkpt lat="36.582991" lon="-5.067877">
        <ele>868.71</ele>
        <time>2021-06-17T09:07:28.000Z</time>
      </trkpt>
      <trkpt lat="36.583013" lon="-5.068016">
        <ele>868.35</ele>
        <time>2021-06-17T09:07:29.000Z</time>
      </trkpt>
      <trkpt lat="36.583044" lon="-5.068194">
        <ele>869.14</ele>
        <time>2021-06-17T09:07:30.000Z</time>
      </trkpt>
      <trkpt lat="36.583075" lon="-5.068354">
        <ele>869.91</ele>
        <time>2021-06-17T09:07:31.000Z</time>
      </trkpt>
      <trkpt lat="36.583115" lon="-5.068502">
        <ele>870.36</ele>
        <time>2021-06-17T09:07:32.000Z</time>
      </trkpt>
      <trkpt lat="36.583164" lon="-5.068644">
        <ele>871</ele>
        <time>2021-06-17T09:07:33.000Z</time>
      </trkpt>
      <trkpt lat="36.583216" lon="-5.068795">
        <ele>872.62</ele>
        <time>2021-06-17T09:07:34.000Z</time>
      </trkpt>
      <trkpt lat="36.583279" lon="-5.068939">
        <ele>874.57</ele>
        <time>2021-06-17T09:07:35.000Z</time>
      </trkpt>
      <trkpt lat="36.58336" lon="-5.069037">
        <ele>876.41</ele>
        <time>2021-06-17T09:07:36.000Z</time>
      </trkpt>
      <trkpt lat="36.58346" lon="-5.069149">
        <ele>877.59</ele>
        <time>2021-06-17T09:07:37.000Z</time>
      </trkpt>
      <trkpt lat="36.58357" lon="-5.069246">
        <ele>877.32</ele>
        <time>2021-06-17T09:07:38.000Z</time>
      </trkpt>
      <trkpt lat="36.583671" lon="-5.06936">
        <ele>876.41</ele>
        <time>2021-06-17T09:07:39.000Z</time>
      </trkpt>
      <trkpt lat="36.583775" lon="-5.06947">
        <ele>877.33</ele>
        <time>2021-06-17T09:07:40.000Z</time>
      </trkpt>
      <trkpt lat="36.583871" lon="-5.069592">
        <ele>876.76</ele>
        <time>2021-06-17T09:07:41.000Z</time>
      </trkpt>
      <trkpt lat="36.58395" lon="-5.069703">
        <ele>875.89</ele>
        <time>2021-06-17T09:07:42.000Z</time>
      </trkpt>
      <trkpt lat="36.584028" lon="-5.069826">
        <ele>876.52</ele>
        <time>2021-06-17T09:07:43.000Z</time>
      </trkpt>
      <trkpt lat="36.584103" lon="-5.06994">
        <ele>876.91</ele>
        <time>2021-06-17T09:07:44.000Z</time>
      </trkpt>
      <trkpt lat="36.584176" lon="-5.070036">
        <ele>876.77</ele>
        <time>2021-06-17T09:07:45.000Z</time>
      </trkpt>
      <trkpt lat="36.584253" lon="-5.070126">
        <ele>876.75</ele>
        <time>2021-06-17T09:07:46.000Z</time>
      </trkpt>
      <trkpt lat="36.584339" lon="-5.070214">
        <ele>877.53</ele>
        <time>2021-06-17T09:07:47.000Z</time>
      </trkpt>
      <trkpt lat="36.584418" lon="-5.070309">
        <ele>880.09</ele>
        <time>2021-06-17T09:07:48.000Z</time>
      </trkpt>
      <trkpt lat="36.584511" lon="-5.070373">
        <ele>882.44</ele>
        <time>2021-06-17T09:07:49.000Z</time>
      </trkpt>
      <trkpt lat="36.584589" lon="-5.0704">
        <ele>883.77</ele>
        <time>2021-06-17T09:07:50.000Z</time>
      </trkpt>
      <trkpt lat="36.584673" lon="-5.070356">
        <ele>884.61</ele>
        <time>2021-06-17T09:07:51.000Z</time>
      </trkpt>
      <trkpt lat="36.584778" lon="-5.070308">
        <ele>884.15</ele>
        <time>2021-06-17T09:07:52.000Z</time>
      </trkpt>
      <trkpt lat="36.584867" lon="-5.070229">
        <ele>882.84</ele>
        <time>2021-06-17T09:07:53.000Z</time>
      </trkpt>
      <trkpt lat="36.584946" lon="-5.070125">
        <ele>882.99</ele>
        <time>2021-06-17T09:07:54.000Z</time>
      </trkpt>
      <trkpt lat="36.585009" lon="-5.069997">
        <ele>882.44</ele>
        <time>2021-06-17T09:07:55.000Z</time>
      </trkpt>
      <trkpt lat="36.585079" lon="-5.06986">
        <ele>882.75</ele>
        <time>2021-06-17T09:07:56.000Z</time>
      </trkpt>
      <trkpt lat="36.585158" lon="-5.069705">
        <ele>883.59</ele>
        <time>2021-06-17T09:07:57.000Z</time>
      </trkpt>
      <trkpt lat="36.585248" lon="-5.069548">
        <ele>883.5</ele>
        <time>2021-06-17T09:07:58.000Z</time>
      </trkpt>
      <trkpt lat="36.585351" lon="-5.069394">
        <ele>886.41</ele>
        <time>2021-06-17T09:07:59.000Z</time>
      </trkpt>
      <trkpt lat="36.585447" lon="-5.069232">
        <ele>886.35</ele>
        <time>2021-06-17T09:08:00.000Z</time>
      </trkpt>
      <trkpt lat="36.585564" lon="-5.06908">
        <ele>886.48</ele>
        <time>2021-06-17T09:08:01.000Z</time>
      </trkpt>
      <trkpt lat="36.585675" lon="-5.068929">
        <ele>885.8</ele>
        <time>2021-06-17T09:08:02.000Z</time>
      </trkpt>
      <trkpt lat="36.585793" lon="-5.068773">
        <ele>886.11</ele>
        <time>2021-06-17T09:08:03.000Z</time>
      </trkpt>
      <trkpt lat="36.585903" lon="-5.06862">
        <ele>886.03</ele>
        <time>2021-06-17T09:08:04.000Z</time>
      </trkpt>
      <trkpt lat="36.58602" lon="-5.068467">
        <ele>885.76</ele>
        <time>2021-06-17T09:08:05.000Z</time>
      </trkpt>
      <trkpt lat="36.586133" lon="-5.068306">
        <ele>887.32</ele>
        <time>2021-06-17T09:08:06.000Z</time>
      </trkpt>
      <trkpt lat="36.586242" lon="-5.068148">
        <ele>889.23</ele>
        <time>2021-06-17T09:08:07.000Z</time>
      </trkpt>
      <trkpt lat="36.586348" lon="-5.067999">
        <ele>888.72</ele>
        <time>2021-06-17T09:08:08.000Z</time>
      </trkpt>
      <trkpt lat="36.586458" lon="-5.06786">
        <ele>889.38</ele>
        <time>2021-06-17T09:08:09.000Z</time>
      </trkpt>
      <trkpt lat="36.586569" lon="-5.067725">
        <ele>889.1</ele>
        <time>2021-06-17T09:08:10.000Z</time>
      </trkpt>
      <trkpt lat="36.586673" lon="-5.067596">
        <ele>888.65</ele>
        <time>2021-06-17T09:08:11.000Z</time>
      </trkpt>
      <trkpt lat="36.586779" lon="-5.067479">
        <ele>887.66</ele>
        <time>2021-06-17T09:08:12.000Z</time>
      </trkpt>
      <trkpt lat="36.586891" lon="-5.06737">
        <ele>889.36</ele>
        <time>2021-06-17T09:08:13.000Z</time>
      </trkpt>
      <trkpt lat="36.587058" lon="-5.067272">
        <ele>892.69</ele>
        <time>2021-06-17T09:08:14.000Z</time>
      </trkpt>
      <trkpt lat="36.587202" lon="-5.067187">
        <ele>893.73</ele>
        <time>2021-06-17T09:08:15.000Z</time>
      </trkpt>
      <trkpt lat="36.587339" lon="-5.067117">
        <ele>895.03</ele>
        <time>2021-06-17T09:08:16.000Z</time>
      </trkpt>
      <trkpt lat="36.587488" lon="-5.067057">
        <ele>894.88</ele>
        <time>2021-06-17T09:08:17.000Z</time>
      </trkpt>
      <trkpt lat="36.587641" lon="-5.066998">
        <ele>895.37</ele>
        <time>2021-06-17T09:08:18.000Z</time>
      </trkpt>
      <trkpt lat="36.587775" lon="-5.066941">
        <ele>895.77</ele>
        <time>2021-06-17T09:08:19.000Z</time>
      </trkpt>
      <trkpt lat="36.587901" lon="-5.066878">
        <ele>896.27</ele>
        <time>2021-06-17T09:08:20.000Z</time>
      </trkpt>
      <trkpt lat="36.588017" lon="-5.066802">
        <ele>896.94</ele>
        <time>2021-06-17T09:08:21.000Z</time>
      </trkpt>
      <trkpt lat="36.588124" lon="-5.066708">
        <ele>897.03</ele>
        <time>2021-06-17T09:08:22.000Z</time>
      </trkpt>
      <trkpt lat="36.58821" lon="-5.066594">
        <ele>897.19</ele>
        <time>2021-06-17T09:08:23.000Z</time>
      </trkpt>
      <trkpt lat="36.588297" lon="-5.066464">
        <ele>897.39</ele>
        <time>2021-06-17T09:08:24.000Z</time>
      </trkpt>
      <trkpt lat="36.58838" lon="-5.066318">
        <ele>896.93</ele>
        <time>2021-06-17T09:08:25.000Z</time>
      </trkpt>
      <trkpt lat="36.588459" lon="-5.066169">
        <ele>896.05</ele>
        <time>2021-06-17T09:08:26.000Z</time>
      </trkpt>
      <trkpt lat="36.588526" lon="-5.066011">
        <ele>896.91</ele>
        <time>2021-06-17T09:08:27.000Z</time>
      </trkpt>
      <trkpt lat="36.588598" lon="-5.065846">
        <ele>897.21</ele>
        <time>2021-06-17T09:08:28.000Z</time>
      </trkpt>
      <trkpt lat="36.58867" lon="-5.065688">
        <ele>896.44</ele>
        <time>2021-06-17T09:08:29.000Z</time>
      </trkpt>
      <trkpt lat="36.588741" lon="-5.065524">
        <ele>896.39</ele>
        <time>2021-06-17T09:08:30.000Z</time>
      </trkpt>
      <trkpt lat="36.588813" lon="-5.065354">
        <ele>897.53</ele>
        <time>2021-06-17T09:08:31.000Z</time>
      </trkpt>
      <trkpt lat="36.588876" lon="-5.065182">
        <ele>899.07</ele>
        <time>2021-06-17T09:08:32.000Z</time>
      </trkpt>
      <trkpt lat="36.588976" lon="-5.065017">
        <ele>899.71</ele>
        <time>2021-06-17T09:08:33.000Z</time>
      </trkpt>
      <trkpt lat="36.589056" lon="-5.064849">
        <ele>900.72</ele>
        <time>2021-06-17T09:08:34.000Z</time>
      </trkpt>
      <trkpt lat="36.589127" lon="-5.06468">
        <ele>901.28</ele>
        <time>2021-06-17T09:08:35.000Z</time>
      </trkpt>
      <trkpt lat="36.589191" lon="-5.064513">
        <ele>902.25</ele>
        <time>2021-06-17T09:08:36.000Z</time>
      </trkpt>
      <trkpt lat="36.58924" lon="-5.06435">
        <ele>902.31</ele>
        <time>2021-06-17T09:08:37.000Z</time>
      </trkpt>
      <trkpt lat="36.589309" lon="-5.06419">
        <ele>904.27</ele>
        <time>2021-06-17T09:08:38.000Z</time>
      </trkpt>
      <trkpt lat="36.58936" lon="-5.064038">
        <ele>905.39</ele>
        <time>2021-06-17T09:08:39.000Z</time>
      </trkpt>
      <trkpt lat="36.589414" lon="-5.063885">
        <ele>906.14</ele>
        <time>2021-06-17T09:08:40.000Z</time>
      </trkpt>
      <trkpt lat="36.589475" lon="-5.063749">
        <ele>907.1</ele>
        <time>2021-06-17T09:08:41.000Z</time>
      </trkpt>
      <trkpt lat="36.589541" lon="-5.06363">
        <ele>907.58</ele>
        <time>2021-06-17T09:08:42.000Z</time>
      </trkpt>
      <trkpt lat="36.589591" lon="-5.063527">
        <ele>907.9</ele>
        <time>2021-06-17T09:08:43.000Z</time>
      </trkpt>
      <trkpt lat="36.589667" lon="-5.063446">
        <ele>908.06</ele>
        <time>2021-06-17T09:08:44.000Z</time>
      </trkpt>
      <trkpt lat="36.58975" lon="-5.063388">
        <ele>910.07</ele>
        <time>2021-06-17T09:08:45.000Z</time>
      </trkpt>
      <trkpt lat="36.589868" lon="-5.063347">
        <ele>914.14</ele>
        <time>2021-06-17T09:08:46.000Z</time>
      </trkpt>
      <trkpt lat="36.589971" lon="-5.063329">
        <ele>915.23</ele>
        <time>2021-06-17T09:08:47.000Z</time>
      </trkpt>
      <trkpt lat="36.590052" lon="-5.06333">
        <ele>914.65</ele>
        <time>2021-06-17T09:08:48.000Z</time>
      </trkpt>
      <trkpt lat="36.590125" lon="-5.06334">
        <ele>914.35</ele>
        <time>2021-06-17T09:08:49.000Z</time>
      </trkpt>
      <trkpt lat="36.590205" lon="-5.063376">
        <ele>914.81</ele>
        <time>2021-06-17T09:08:50.000Z</time>
      </trkpt>
      <trkpt lat="36.59027" lon="-5.063434">
        <ele>914.56</ele>
        <time>2021-06-17T09:08:51.000Z</time>
      </trkpt>
      <trkpt lat="36.590313" lon="-5.063503">
        <ele>914.41</ele>
        <time>2021-06-17T09:08:52.000Z</time>
      </trkpt>
      <trkpt lat="36.590344" lon="-5.063594">
        <ele>913.98</ele>
        <time>2021-06-17T09:08:53.000Z</time>
      </trkpt>
      <trkpt lat="36.590368" lon="-5.063713">
        <ele>916.07</ele>
        <time>2021-06-17T09:08:54.000Z</time>
      </trkpt>
      <trkpt lat="36.590382" lon="-5.063832">
        <ele>916.24</ele>
        <time>2021-06-17T09:08:55.000Z</time>
      </trkpt>
      <trkpt lat="36.59039" lon="-5.063957">
        <ele>916.99</ele>
        <time>2021-06-17T09:08:56.000Z</time>
      </trkpt>
      <trkpt lat="36.590416" lon="-5.06409">
        <ele>916.58</ele>
        <time>2021-06-17T09:08:57.000Z</time>
      </trkpt>
      <trkpt lat="36.590439" lon="-5.064268">
        <ele>918.37</ele>
        <time>2021-06-17T09:08:58.000Z</time>
      </trkpt>
      <trkpt lat="36.59049" lon="-5.064443">
        <ele>918.33</ele>
        <time>2021-06-17T09:08:59.000Z</time>
      </trkpt>
      <trkpt lat="36.590542" lon="-5.064616">
        <ele>919.73</ele>
        <time>2021-06-17T09:09:00.000Z</time>
      </trkpt>
      <trkpt lat="36.59062" lon="-5.064779">
        <ele>919.54</ele>
        <time>2021-06-17T09:09:01.000Z</time>
      </trkpt>
      <trkpt lat="36.590698" lon="-5.064958">
        <ele>920.66</ele>
        <time>2021-06-17T09:09:02.000Z</time>
      </trkpt>
      <trkpt lat="36.590771" lon="-5.065105">
        <ele>920.89</ele>
        <time>2021-06-17T09:09:03.000Z</time>
      </trkpt>
      <trkpt lat="36.590822" lon="-5.06528">
        <ele>921.34</ele>
        <time>2021-06-17T09:09:04.000Z</time>
      </trkpt>
      <trkpt lat="36.590863" lon="-5.065453">
        <ele>919.57</ele>
        <time>2021-06-17T09:09:05.000Z</time>
      </trkpt>
      <trkpt lat="36.590897" lon="-5.065624">
        <ele>917.76</ele>
        <time>2021-06-17T09:09:06.000Z</time>
      </trkpt>
      <trkpt lat="36.59094" lon="-5.065801">
        <ele>917.09</ele>
        <time>2021-06-17T09:09:07.000Z</time>
      </trkpt>
      <trkpt lat="36.59098" lon="-5.065994">
        <ele>916.67</ele>
        <time>2021-06-17T09:09:08.000Z</time>
      </trkpt>
      <trkpt lat="36.59102" lon="-5.066148">
        <ele>915.21</ele>
        <time>2021-06-17T09:09:09.000Z</time>
      </trkpt>
      <trkpt lat="36.591058" lon="-5.06634">
        <ele>915.88</ele>
        <time>2021-06-17T09:09:10.000Z</time>
      </trkpt>
      <trkpt lat="36.591108" lon="-5.066539">
        <ele>917.16</ele>
        <time>2021-06-17T09:09:11.000Z</time>
      </trkpt>
      <trkpt lat="36.59115" lon="-5.066729">
        <ele>917.63</ele>
        <time>2021-06-17T09:09:12.000Z</time>
      </trkpt>
      <trkpt lat="36.591197" lon="-5.066923">
        <ele>918.72</ele>
        <time>2021-06-17T09:09:13.000Z</time>
      </trkpt>
      <trkpt lat="36.591242" lon="-5.067113">
        <ele>919.47</ele>
        <time>2021-06-17T09:09:14.000Z</time>
      </trkpt>
      <trkpt lat="36.591278" lon="-5.067293">
        <ele>919.6</ele>
        <time>2021-06-17T09:09:15.000Z</time>
      </trkpt>
      <trkpt lat="36.591313" lon="-5.06747">
        <ele>919.98</ele>
        <time>2021-06-17T09:09:16.000Z</time>
      </trkpt>
      <trkpt lat="36.591339" lon="-5.067647">
        <ele>920.34</ele>
        <time>2021-06-17T09:09:17.000Z</time>
      </trkpt>
      <trkpt lat="36.591363" lon="-5.06782">
        <ele>921.17</ele>
        <time>2021-06-17T09:09:18.000Z</time>
      </trkpt>
      <trkpt lat="36.591382" lon="-5.067979">
        <ele>921.83</ele>
        <time>2021-06-17T09:09:19.000Z</time>
      </trkpt>
      <trkpt lat="36.591389" lon="-5.068139">
        <ele>922.64</ele>
        <time>2021-06-17T09:09:20.000Z</time>
      </trkpt>
      <trkpt lat="36.591402" lon="-5.06828">
        <ele>924.49</ele>
        <time>2021-06-17T09:09:21.000Z</time>
      </trkpt>
      <trkpt lat="36.591422" lon="-5.068417">
        <ele>923.71</ele>
        <time>2021-06-17T09:09:22.000Z</time>
      </trkpt>
      <trkpt lat="36.591472" lon="-5.068522">
        <ele>924.3</ele>
        <time>2021-06-17T09:09:23.000Z</time>
      </trkpt>
      <trkpt lat="36.591533" lon="-5.068609">
        <ele>924.23</ele>
        <time>2021-06-17T09:09:24.000Z</time>
      </trkpt>
      <trkpt lat="36.591603" lon="-5.068692">
        <ele>926.79</ele>
        <time>2021-06-17T09:09:25.000Z</time>
      </trkpt>
      <trkpt lat="36.591689" lon="-5.068759">
        <ele>926.75</ele>
        <time>2021-06-17T09:09:26.000Z</time>
      </trkpt>
      <trkpt lat="36.59179" lon="-5.068816">
        <ele>927.33</ele>
        <time>2021-06-17T09:09:27.000Z</time>
      </trkpt>
      <trkpt lat="36.591913" lon="-5.068867">
        <ele>929.03</ele>
        <time>2021-06-17T09:09:28.000Z</time>
      </trkpt>
      <trkpt lat="36.592038" lon="-5.068917">
        <ele>931.2</ele>
        <time>2021-06-17T09:09:29.000Z</time>
      </trkpt>
      <trkpt lat="36.592176" lon="-5.068941">
        <ele>933.5</ele>
        <time>2021-06-17T09:09:30.000Z</time>
      </trkpt>
      <trkpt lat="36.592317" lon="-5.068963">
        <ele>933.58</ele>
        <time>2021-06-17T09:09:31.000Z</time>
      </trkpt>
      <trkpt lat="36.592464" lon="-5.068999">
        <ele>933.69</ele>
        <time>2021-06-17T09:09:32.000Z</time>
      </trkpt>
      <trkpt lat="36.592619" lon="-5.069031">
        <ele>934.99</ele>
        <time>2021-06-17T09:09:33.000Z</time>
      </trkpt>
      <trkpt lat="36.592769" lon="-5.069072">
        <ele>936.23</ele>
        <time>2021-06-17T09:09:34.000Z</time>
      </trkpt>
      <trkpt lat="36.592931" lon="-5.069122">
        <ele>937.19</ele>
        <time>2021-06-17T09:09:35.000Z</time>
      </trkpt>
      <trkpt lat="36.593098" lon="-5.06918">
        <ele>939.05</ele>
        <time>2021-06-17T09:09:36.000Z</time>
      </trkpt>
      <trkpt lat="36.593255" lon="-5.069232">
        <ele>940.42</ele>
        <time>2021-06-17T09:09:37.000Z</time>
      </trkpt>
      <trkpt lat="36.593404" lon="-5.069288">
        <ele>940.89</ele>
        <time>2021-06-17T09:09:38.000Z</time>
      </trkpt>
      <trkpt lat="36.593558" lon="-5.069358">
        <ele>942.37</ele>
        <time>2021-06-17T09:09:39.000Z</time>
      </trkpt>
      <trkpt lat="36.593701" lon="-5.069426">
        <ele>943.46</ele>
        <time>2021-06-17T09:09:40.000Z</time>
      </trkpt>
      <trkpt lat="36.593832" lon="-5.069487">
        <ele>943.81</ele>
        <time>2021-06-17T09:09:41.000Z</time>
      </trkpt>
      <trkpt lat="36.593954" lon="-5.069553">
        <ele>944.84</ele>
        <time>2021-06-17T09:09:42.000Z</time>
      </trkpt>
      <trkpt lat="36.594071" lon="-5.069613">
        <ele>948.46</ele>
        <time>2021-06-17T09:09:43.000Z</time>
      </trkpt>
      <trkpt lat="36.594193" lon="-5.069661">
        <ele>949.51</ele>
        <time>2021-06-17T09:09:44.000Z</time>
      </trkpt>
      <trkpt lat="36.594307" lon="-5.069693">
        <ele>949.39</ele>
        <time>2021-06-17T09:09:45.000Z</time>
      </trkpt>
      <trkpt lat="36.594421" lon="-5.069713">
        <ele>950.39</ele>
        <time>2021-06-17T09:09:46.000Z</time>
      </trkpt>
      <trkpt lat="36.594537" lon="-5.06971">
        <ele>950.72</ele>
        <time>2021-06-17T09:09:47.000Z</time>
      </trkpt>
      <trkpt lat="36.594636" lon="-5.069662">
        <ele>952.3</ele>
        <time>2021-06-17T09:09:48.000Z</time>
      </trkpt>
      <trkpt lat="36.594739" lon="-5.069592">
        <ele>951.35</ele>
        <time>2021-06-17T09:09:49.000Z</time>
      </trkpt>
      <trkpt lat="36.594827" lon="-5.069502">
        <ele>950.94</ele>
        <time>2021-06-17T09:09:50.000Z</time>
      </trkpt>
      <trkpt lat="36.59491" lon="-5.069389">
        <ele>952.28</ele>
        <time>2021-06-17T09:09:51.000Z</time>
      </trkpt>
      <trkpt lat="36.594988" lon="-5.069265">
        <ele>952.8</ele>
        <time>2021-06-17T09:09:52.000Z</time>
      </trkpt>
      <trkpt lat="36.595063" lon="-5.069128">
        <ele>952.97</ele>
        <time>2021-06-17T09:09:53.000Z</time>
      </trkpt>
      <trkpt lat="36.595138" lon="-5.068997">
        <ele>952.51</ele>
        <time>2021-06-17T09:09:54.000Z</time>
      </trkpt>
      <trkpt lat="36.595212" lon="-5.068876">
        <ele>953.81</ele>
        <time>2021-06-17T09:09:55.000Z</time>
      </trkpt>
      <trkpt lat="36.59529" lon="-5.068762">
        <ele>955.19</ele>
        <time>2021-06-17T09:09:56.000Z</time>
      </trkpt>
      <trkpt lat="36.595367" lon="-5.068665">
        <ele>954.99</ele>
        <time>2021-06-17T09:09:57.000Z</time>
      </trkpt>
      <trkpt lat="36.595446" lon="-5.068597">
        <ele>956.09</ele>
        <time>2021-06-17T09:09:58.000Z</time>
      </trkpt>
      <trkpt lat="36.595557" lon="-5.068559">
        <ele>956.17</ele>
        <time>2021-06-17T09:09:59.000Z</time>
      </trkpt>
      <trkpt lat="36.595662" lon="-5.068534">
        <ele>956.06</ele>
        <time>2021-06-17T09:10:00.000Z</time>
      </trkpt>
      <trkpt lat="36.595767" lon="-5.068525">
        <ele>956.76</ele>
        <time>2021-06-17T09:10:01.000Z</time>
      </trkpt>
      <trkpt lat="36.59586" lon="-5.068552">
        <ele>956.85</ele>
        <time>2021-06-17T09:10:02.000Z</time>
      </trkpt>
      <trkpt lat="36.595945" lon="-5.068618">
        <ele>956.75</ele>
        <time>2021-06-17T09:10:03.000Z</time>
      </trkpt>
      <trkpt lat="36.596024" lon="-5.06871">
        <ele>956.52</ele>
        <time>2021-06-17T09:10:04.000Z</time>
      </trkpt>
      <trkpt lat="36.596081" lon="-5.06881">
        <ele>956.25</ele>
        <time>2021-06-17T09:10:05.000Z</time>
      </trkpt>
      <trkpt lat="36.596131" lon="-5.06894">
        <ele>956.67</ele>
        <time>2021-06-17T09:10:06.000Z</time>
      </trkpt>
      <trkpt lat="36.596189" lon="-5.069077">
        <ele>956.28</ele>
        <time>2021-06-17T09:10:07.000Z</time>
      </trkpt>
      <trkpt lat="36.596237" lon="-5.069217">
        <ele>957.37</ele>
        <time>2021-06-17T09:10:08.000Z</time>
      </trkpt>
      <trkpt lat="36.596297" lon="-5.069335">
        <ele>957.3</ele>
        <time>2021-06-17T09:10:09.000Z</time>
      </trkpt>
      <trkpt lat="36.596359" lon="-5.069446">
        <ele>957.86</ele>
        <time>2021-06-17T09:10:10.000Z</time>
      </trkpt>
      <trkpt lat="36.596436" lon="-5.069536">
        <ele>958.6</ele>
        <time>2021-06-17T09:10:11.000Z</time>
      </trkpt>
      <trkpt lat="36.596519" lon="-5.069598">
        <ele>960.19</ele>
        <time>2021-06-17T09:10:12.000Z</time>
      </trkpt>
      <trkpt lat="36.596607" lon="-5.069619">
        <ele>960.49</ele>
        <time>2021-06-17T09:10:13.000Z</time>
      </trkpt>
      <trkpt lat="36.596697" lon="-5.069647">
        <ele>962.31</ele>
        <time>2021-06-17T09:10:14.000Z</time>
      </trkpt>
      <trkpt lat="36.596793" lon="-5.069616">
        <ele>963.14</ele>
        <time>2021-06-17T09:10:15.000Z</time>
      </trkpt>
      <trkpt lat="36.596902" lon="-5.069588">
        <ele>963.63</ele>
        <time>2021-06-17T09:10:16.000Z</time>
      </trkpt>
      <trkpt lat="36.597012" lon="-5.069556">
        <ele>964.62</ele>
        <time>2021-06-17T09:10:17.000Z</time>
      </trkpt>
      <trkpt lat="36.597135" lon="-5.069529">
        <ele>965.51</ele>
        <time>2021-06-17T09:10:18.000Z</time>
      </trkpt>
      <trkpt lat="36.597259" lon="-5.069509">
        <ele>966.67</ele>
        <time>2021-06-17T09:10:19.000Z</time>
      </trkpt>
      <trkpt lat="36.597382" lon="-5.069488">
        <ele>968.49</ele>
        <time>2021-06-17T09:10:20.000Z</time>
      </trkpt>
      <trkpt lat="36.597487" lon="-5.069482">
        <ele>968.93</ele>
        <time>2021-06-17T09:10:21.000Z</time>
      </trkpt>
      <trkpt lat="36.597693" lon="-5.069488">
        <ele>970.29</ele>
        <time>2021-06-17T09:10:23.000Z</time>
      </trkpt>
      <trkpt lat="36.597876" lon="-5.069544">
        <ele>970.49</ele>
        <time>2021-06-17T09:10:25.000Z</time>
      </trkpt>
      <trkpt lat="36.597974" lon="-5.069608">
        <ele>971.34</ele>
        <time>2021-06-17T09:10:26.000Z</time>
      </trkpt>
      <trkpt lat="36.598108" lon="-5.069786">
        <ele>972.63</ele>
        <time>2021-06-17T09:10:28.000Z</time>
      </trkpt>
      <trkpt lat="36.598168" lon="-5.070008">
        <ele>974.69</ele>
        <time>2021-06-17T09:10:30.000Z</time>
      </trkpt>
      <trkpt lat="36.598168" lon="-5.07012">
        <ele>974.64</ele>
        <time>2021-06-17T09:10:31.000Z</time>
      </trkpt>
      <trkpt lat="36.598176" lon="-5.07024">
        <ele>973.75</ele>
        <time>2021-06-17T09:10:32.000Z</time>
      </trkpt>
      <trkpt lat="36.598156" lon="-5.070389">
        <ele>973.69</ele>
        <time>2021-06-17T09:10:33.000Z</time>
      </trkpt>
      <trkpt lat="36.598143" lon="-5.070603">
        <ele>973.61</ele>
        <time>2021-06-17T09:10:34.000Z</time>
      </trkpt>
      <trkpt lat="36.598161" lon="-5.070936">
        <ele>972.52</ele>
        <time>2021-06-17T09:10:36.000Z</time>
      </trkpt>
      <trkpt lat="36.598181" lon="-5.071104">
        <ele>972.24</ele>
        <time>2021-06-17T09:10:37.000Z</time>
      </trkpt>
      <trkpt lat="36.598217" lon="-5.071289">
        <ele>972.81</ele>
        <time>2021-06-17T09:10:38.000Z</time>
      </trkpt>
      <trkpt lat="36.598258" lon="-5.071519">
        <ele>972.94</ele>
        <time>2021-06-17T09:10:39.000Z</time>
      </trkpt>
      <trkpt lat="36.598303" lon="-5.071714">
        <ele>973.98</ele>
        <time>2021-06-17T09:10:40.000Z</time>
      </trkpt>
      <trkpt lat="36.598332" lon="-5.071914">
        <ele>973.92</ele>
        <time>2021-06-17T09:10:41.000Z</time>
      </trkpt>
      <trkpt lat="36.598379" lon="-5.07211">
        <ele>973.87</ele>
        <time>2021-06-17T09:10:42.000Z</time>
      </trkpt>
      <trkpt lat="36.598432" lon="-5.07229">
        <ele>975.33</ele>
        <time>2021-06-17T09:10:43.000Z</time>
      </trkpt>
      <trkpt lat="36.598465" lon="-5.072455">
        <ele>978.54</ele>
        <time>2021-06-17T09:10:44.000Z</time>
      </trkpt>
      <trkpt lat="36.598511" lon="-5.072616">
        <ele>978.49</ele>
        <time>2021-06-17T09:10:45.000Z</time>
      </trkpt>
      <trkpt lat="36.598558" lon="-5.07277">
        <ele>979.31</ele>
        <time>2021-06-17T09:10:46.000Z</time>
      </trkpt>
      <trkpt lat="36.598618" lon="-5.072913">
        <ele>980.23</ele>
        <time>2021-06-17T09:10:47.000Z</time>
      </trkpt>
      <trkpt lat="36.598685" lon="-5.073051">
        <ele>981.69</ele>
        <time>2021-06-17T09:10:48.000Z</time>
      </trkpt>
      <trkpt lat="36.598754" lon="-5.073191">
        <ele>984.6</ele>
        <time>2021-06-17T09:10:49.000Z</time>
      </trkpt>
      <trkpt lat="36.598842" lon="-5.073307">
        <ele>985.64</ele>
        <time>2021-06-17T09:10:50.000Z</time>
      </trkpt>
      <trkpt lat="36.598948" lon="-5.073403">
        <ele>986.58</ele>
        <time>2021-06-17T09:10:51.000Z</time>
      </trkpt>
      <trkpt lat="36.59906" lon="-5.073471">
        <ele>987.85</ele>
        <time>2021-06-17T09:10:52.000Z</time>
      </trkpt>
      <trkpt lat="36.599163" lon="-5.073543">
        <ele>990.74</ele>
        <time>2021-06-17T09:10:53.000Z</time>
      </trkpt>
      <trkpt lat="36.599275" lon="-5.073595">
        <ele>994.31</ele>
        <time>2021-06-17T09:10:54.000Z</time>
      </trkpt>
      <trkpt lat="36.599386" lon="-5.073604">
        <ele>995.98</ele>
        <time>2021-06-17T09:10:55.000Z</time>
      </trkpt>
      <trkpt lat="36.599507" lon="-5.07359">
        <ele>997.66</ele>
        <time>2021-06-17T09:10:56.000Z</time>
      </trkpt>
      <trkpt lat="36.599629" lon="-5.073561">
        <ele>999.26</ele>
        <time>2021-06-17T09:10:57.000Z</time>
      </trkpt>
      <trkpt lat="36.599749" lon="-5.073514">
        <ele>1000.9</ele>
        <time>2021-06-17T09:10:58.000Z</time>
      </trkpt>
      <trkpt lat="36.599863" lon="-5.07346">
        <ele>1002.84</ele>
        <time>2021-06-17T09:10:59.000Z</time>
      </trkpt>
      <trkpt lat="36.599988" lon="-5.073403">
        <ele>1002.77</ele>
        <time>2021-06-17T09:11:00.000Z</time>
      </trkpt>
      <trkpt lat="36.600123" lon="-5.073351">
        <ele>1003.87</ele>
        <time>2021-06-17T09:11:01.000Z</time>
      </trkpt>
      <trkpt lat="36.600267" lon="-5.073325">
        <ele>1006.67</ele>
        <time>2021-06-17T09:11:02.000Z</time>
      </trkpt>
      <trkpt lat="36.6004" lon="-5.073305">
        <ele>1006.69</ele>
        <time>2021-06-17T09:11:03.000Z</time>
      </trkpt>
      <trkpt lat="36.600535" lon="-5.073301">
        <ele>1006.41</ele>
        <time>2021-06-17T09:11:04.000Z</time>
      </trkpt>
      <trkpt lat="36.600668" lon="-5.073316">
        <ele>1007.26</ele>
        <time>2021-06-17T09:11:05.000Z</time>
      </trkpt>
      <trkpt lat="36.600793" lon="-5.073329">
        <ele>1007.34</ele>
        <time>2021-06-17T09:11:06.000Z</time>
      </trkpt>
      <trkpt lat="36.600929" lon="-5.073348">
        <ele>1008.71</ele>
        <time>2021-06-17T09:11:07.000Z</time>
      </trkpt>
      <trkpt lat="36.601065" lon="-5.073337">
        <ele>1008.65</ele>
        <time>2021-06-17T09:11:08.000Z</time>
      </trkpt>
      <trkpt lat="36.601193" lon="-5.073308">
        <ele>1011.59</ele>
        <time>2021-06-17T09:11:09.000Z</time>
      </trkpt>
      <trkpt lat="36.601322" lon="-5.07326">
        <ele>1013</ele>
        <time>2021-06-17T09:11:10.000Z</time>
      </trkpt>
      <trkpt lat="36.60145" lon="-5.073197">
        <ele>1013.68</ele>
        <time>2021-06-17T09:11:11.000Z</time>
      </trkpt>
      <trkpt lat="36.601576" lon="-5.073113">
        <ele>1015.76</ele>
        <time>2021-06-17T09:11:12.000Z</time>
      </trkpt>
      <trkpt lat="36.601711" lon="-5.073022">
        <ele>1015.64</ele>
        <time>2021-06-17T09:11:13.000Z</time>
      </trkpt>
      <trkpt lat="36.601841" lon="-5.072931">
        <ele>1016.56</ele>
        <time>2021-06-17T09:11:14.000Z</time>
      </trkpt>
      <trkpt lat="36.60197" lon="-5.072824">
        <ele>1017.44</ele>
        <time>2021-06-17T09:11:15.000Z</time>
      </trkpt>
      <trkpt lat="36.602094" lon="-5.072714">
        <ele>1018.6</ele>
        <time>2021-06-17T09:11:16.000Z</time>
      </trkpt>
      <trkpt lat="36.602205" lon="-5.072592">
        <ele>1021.32</ele>
        <time>2021-06-17T09:11:17.000Z</time>
      </trkpt>
      <trkpt lat="36.602313" lon="-5.072467">
        <ele>1021.91</ele>
        <time>2021-06-17T09:11:18.000Z</time>
      </trkpt>
      <trkpt lat="36.602494" lon="-5.072196">
        <ele>1023.59</ele>
        <time>2021-06-17T09:11:20.000Z</time>
      </trkpt>
      <trkpt lat="36.602577" lon="-5.072067">
        <ele>1023.94</ele>
        <time>2021-06-17T09:11:21.000Z</time>
      </trkpt>
      <trkpt lat="36.602658" lon="-5.071945">
        <ele>1025.16</ele>
        <time>2021-06-17T09:11:22.000Z</time>
      </trkpt>
      <trkpt lat="36.602734" lon="-5.071845">
        <ele>1024.77</ele>
        <time>2021-06-17T09:11:23.000Z</time>
      </trkpt>
      <trkpt lat="36.602804" lon="-5.071756">
        <ele>1023.99</ele>
        <time>2021-06-17T09:11:24.000Z</time>
      </trkpt>
      <trkpt lat="36.602888" lon="-5.071709">
        <ele>1025.58</ele>
        <time>2021-06-17T09:11:25.000Z</time>
      </trkpt>
      <trkpt lat="36.603008" lon="-5.071685">
        <ele>1026.89</ele>
        <time>2021-06-17T09:11:26.000Z</time>
      </trkpt>
      <trkpt lat="36.603137" lon="-5.071682">
        <ele>1026.93</ele>
        <time>2021-06-17T09:11:27.000Z</time>
      </trkpt>
      <trkpt lat="36.603261" lon="-5.071688">
        <ele>1027.45</ele>
        <time>2021-06-17T09:11:28.000Z</time>
      </trkpt>
      <trkpt lat="36.603384" lon="-5.0717">
        <ele>1027.75</ele>
        <time>2021-06-17T09:11:29.000Z</time>
      </trkpt>
      <trkpt lat="36.603499" lon="-5.071709">
        <ele>1028.69</ele>
        <time>2021-06-17T09:11:30.000Z</time>
      </trkpt>
      <trkpt lat="36.603609" lon="-5.071716">
        <ele>1030.62</ele>
        <time>2021-06-17T09:11:31.000Z</time>
      </trkpt>
      <trkpt lat="36.603721" lon="-5.071692">
        <ele>1031.27</ele>
        <time>2021-06-17T09:11:32.000Z</time>
      </trkpt>
      <trkpt lat="36.603828" lon="-5.071653">
        <ele>1032.39</ele>
        <time>2021-06-17T09:11:33.000Z</time>
      </trkpt>
      <trkpt lat="36.603919" lon="-5.071595">
        <ele>1033.8</ele>
        <time>2021-06-17T09:11:34.000Z</time>
      </trkpt>
      <trkpt lat="36.604012" lon="-5.071487">
        <ele>1034.82</ele>
        <time>2021-06-17T09:11:35.000Z</time>
      </trkpt>
      <trkpt lat="36.604096" lon="-5.071389">
        <ele>1035.97</ele>
        <time>2021-06-17T09:11:36.000Z</time>
      </trkpt>
      <trkpt lat="36.604176" lon="-5.071299">
        <ele>1036.3</ele>
        <time>2021-06-17T09:11:37.000Z</time>
      </trkpt>
      <trkpt lat="36.604253" lon="-5.071218">
        <ele>1037.21</ele>
        <time>2021-06-17T09:11:38.000Z</time>
      </trkpt>
      <trkpt lat="36.604337" lon="-5.071155">
        <ele>1038.1</ele>
        <time>2021-06-17T09:11:39.000Z</time>
      </trkpt>
      <trkpt lat="36.604449" lon="-5.071133">
        <ele>1038.68</ele>
        <time>2021-06-17T09:11:40.000Z</time>
      </trkpt>
      <trkpt lat="36.604562" lon="-5.071138">
        <ele>1039.84</ele>
        <time>2021-06-17T09:11:41.000Z</time>
      </trkpt>
      <trkpt lat="36.604644" lon="-5.071144">
        <ele>1039.66</ele>
        <time>2021-06-17T09:11:42.000Z</time>
      </trkpt>
      <trkpt lat="36.604748" lon="-5.071165">
        <ele>1039.07</ele>
        <time>2021-06-17T09:11:43.000Z</time>
      </trkpt>
      <trkpt lat="36.604864" lon="-5.071239">
        <ele>1039.48</ele>
        <time>2021-06-17T09:11:44.000Z</time>
      </trkpt>
      <trkpt lat="36.604972" lon="-5.071323">
        <ele>1039.8</ele>
        <time>2021-06-17T09:11:45.000Z</time>
      </trkpt>
      <trkpt lat="36.605069" lon="-5.071421">
        <ele>1040.45</ele>
        <time>2021-06-17T09:11:46.000Z</time>
      </trkpt>
      <trkpt lat="36.605148" lon="-5.071511">
        <ele>1041.58</ele>
        <time>2021-06-17T09:11:47.000Z</time>
      </trkpt>
      <trkpt lat="36.605231" lon="-5.071599">
        <ele>1043.56</ele>
        <time>2021-06-17T09:11:48.000Z</time>
      </trkpt>
      <trkpt lat="36.605328" lon="-5.071635">
        <ele>1044.66</ele>
        <time>2021-06-17T09:11:49.000Z</time>
      </trkpt>
      <trkpt lat="36.605444" lon="-5.071669">
        <ele>1045.69</ele>
        <time>2021-06-17T09:11:50.000Z</time>
      </trkpt>
      <trkpt lat="36.60557" lon="-5.071677">
        <ele>1048.61</ele>
        <time>2021-06-17T09:11:51.000Z</time>
      </trkpt>
      <trkpt lat="36.605694" lon="-5.07167">
        <ele>1051.38</ele>
        <time>2021-06-17T09:11:52.000Z</time>
      </trkpt>
      <trkpt lat="36.605825" lon="-5.071663">
        <ele>1051.81</ele>
        <time>2021-06-17T09:11:53.000Z</time>
      </trkpt>
      <trkpt lat="36.605944" lon="-5.071649">
        <ele>1053.2</ele>
        <time>2021-06-17T09:11:54.000Z</time>
      </trkpt>
      <trkpt lat="36.606051" lon="-5.071642">
        <ele>1053.3</ele>
        <time>2021-06-17T09:11:55.000Z</time>
      </trkpt>
      <trkpt lat="36.60616" lon="-5.071664">
        <ele>1053.43</ele>
        <time>2021-06-17T09:11:56.000Z</time>
      </trkpt>
      <trkpt lat="36.606264" lon="-5.0717">
        <ele>1054.93</ele>
        <time>2021-06-17T09:11:57.000Z</time>
      </trkpt>
      <trkpt lat="36.606358" lon="-5.071755">
        <ele>1056.11</ele>
        <time>2021-06-17T09:11:58.000Z</time>
      </trkpt>
      <trkpt lat="36.606455" lon="-5.071828">
        <ele>1056.63</ele>
        <time>2021-06-17T09:11:59.000Z</time>
      </trkpt>
      <trkpt lat="36.606555" lon="-5.0719">
        <ele>1057.03</ele>
        <time>2021-06-17T09:12:00.000Z</time>
      </trkpt>
      <trkpt lat="36.606654" lon="-5.071969">
        <ele>1057.77</ele>
        <time>2021-06-17T09:12:01.000Z</time>
      </trkpt>
      <trkpt lat="36.606753" lon="-5.072019">
        <ele>1058.48</ele>
        <time>2021-06-17T09:12:02.000Z</time>
      </trkpt>
      <trkpt lat="36.606861" lon="-5.072049">
        <ele>1059.11</ele>
        <time>2021-06-17T09:12:03.000Z</time>
      </trkpt>
      <trkpt lat="36.606973" lon="-5.072062">
        <ele>1060.46</ele>
        <time>2021-06-17T09:12:04.000Z</time>
      </trkpt>
      <trkpt lat="36.607089" lon="-5.072052">
        <ele>1061.86</ele>
        <time>2021-06-17T09:12:05.000Z</time>
      </trkpt>
      <trkpt lat="36.607216" lon="-5.072054">
        <ele>1064.88</ele>
        <time>2021-06-17T09:12:06.000Z</time>
      </trkpt>
      <trkpt lat="36.607337" lon="-5.072052">
        <ele>1067.13</ele>
        <time>2021-06-17T09:12:07.000Z</time>
      </trkpt>
      <trkpt lat="36.607455" lon="-5.072042">
        <ele>1067.81</ele>
        <time>2021-06-17T09:12:08.000Z</time>
      </trkpt>
      <trkpt lat="36.60756" lon="-5.072054">
        <ele>1068.66</ele>
        <time>2021-06-17T09:12:09.000Z</time>
      </trkpt>
      <trkpt lat="36.607654" lon="-5.072088">
        <ele>1069.15</ele>
        <time>2021-06-17T09:12:10.000Z</time>
      </trkpt>
      <trkpt lat="36.607717" lon="-5.072141">
        <ele>1071.14</ele>
        <time>2021-06-17T09:12:11.000Z</time>
      </trkpt>
      <trkpt lat="36.607772" lon="-5.072211">
        <ele>1070.13</ele>
        <time>2021-06-17T09:12:12.000Z</time>
      </trkpt>
      <trkpt lat="36.60784" lon="-5.072326">
        <ele>1071.04</ele>
        <time>2021-06-17T09:12:13.000Z</time>
      </trkpt>
      <trkpt lat="36.607893" lon="-5.072454">
        <ele>1070.47</ele>
        <time>2021-06-17T09:12:14.000Z</time>
      </trkpt>
      <trkpt lat="36.607933" lon="-5.072598">
        <ele>1072.12</ele>
        <time>2021-06-17T09:12:15.000Z</time>
      </trkpt>
      <trkpt lat="36.607971" lon="-5.072744">
        <ele>1073.2</ele>
        <time>2021-06-17T09:12:16.000Z</time>
      </trkpt>
      <trkpt lat="36.608012" lon="-5.072875">
        <ele>1073.62</ele>
        <time>2021-06-17T09:12:17.000Z</time>
      </trkpt>
      <trkpt lat="36.608051" lon="-5.073001">
        <ele>1074.16</ele>
        <time>2021-06-17T09:12:18.000Z</time>
      </trkpt>
      <trkpt lat="36.608094" lon="-5.07311">
        <ele>1075.57</ele>
        <time>2021-06-17T09:12:19.000Z</time>
      </trkpt>
      <trkpt lat="36.608174" lon="-5.073198">
        <ele>1075.32</ele>
        <time>2021-06-17T09:12:20.000Z</time>
      </trkpt>
      <trkpt lat="36.608271" lon="-5.07326">
        <ele>1076.74</ele>
        <time>2021-06-17T09:12:21.000Z</time>
      </trkpt>
      <trkpt lat="36.608383" lon="-5.073323">
        <ele>1077.3</ele>
        <time>2021-06-17T09:12:22.000Z</time>
      </trkpt>
      <trkpt lat="36.608499" lon="-5.073389">
        <ele>1077.88</ele>
        <time>2021-06-17T09:12:23.000Z</time>
      </trkpt>
      <trkpt lat="36.608611" lon="-5.07342">
        <ele>1079.29</ele>
        <time>2021-06-17T09:12:24.000Z</time>
      </trkpt>
      <trkpt lat="36.608746" lon="-5.073444">
        <ele>1080.43</ele>
        <time>2021-06-17T09:12:25.000Z</time>
      </trkpt>
      <trkpt lat="36.608868" lon="-5.073473">
        <ele>1081.65</ele>
        <time>2021-06-17T09:12:26.000Z</time>
      </trkpt>
      <trkpt lat="36.609002" lon="-5.073497">
        <ele>1084.56</ele>
        <time>2021-06-17T09:12:27.000Z</time>
      </trkpt>
      <trkpt lat="36.60913" lon="-5.073502">
        <ele>1086.03</ele>
        <time>2021-06-17T09:12:28.000Z</time>
      </trkpt>
      <trkpt lat="36.609263" lon="-5.073505">
        <ele>1087.07</ele>
        <time>2021-06-17T09:12:29.000Z</time>
      </trkpt>
      <trkpt lat="36.609391" lon="-5.073525">
        <ele>1087.64</ele>
        <time>2021-06-17T09:12:30.000Z</time>
      </trkpt>
      <trkpt lat="36.609513" lon="-5.073568">
        <ele>1089.6</ele>
        <time>2021-06-17T09:12:31.000Z</time>
      </trkpt>
      <trkpt lat="36.609641" lon="-5.073617">
        <ele>1090.84</ele>
        <time>2021-06-17T09:12:32.000Z</time>
      </trkpt>
      <trkpt lat="36.609772" lon="-5.073683">
        <ele>1091.51</ele>
        <time>2021-06-17T09:12:33.000Z</time>
      </trkpt>
      <trkpt lat="36.609904" lon="-5.073757">
        <ele>1092.46</ele>
        <time>2021-06-17T09:12:34.000Z</time>
      </trkpt>
      <trkpt lat="36.610037" lon="-5.073851">
        <ele>1092.82</ele>
        <time>2021-06-17T09:12:35.000Z</time>
      </trkpt>
      <trkpt lat="36.610171" lon="-5.073929">
        <ele>1094.28</ele>
        <time>2021-06-17T09:12:36.000Z</time>
      </trkpt>
      <trkpt lat="36.610297" lon="-5.073992">
        <ele>1093.92</ele>
        <time>2021-06-17T09:12:37.000Z</time>
      </trkpt>
      <trkpt lat="36.610419" lon="-5.074074">
        <ele>1094.87</ele>
        <time>2021-06-17T09:12:38.000Z</time>
      </trkpt>
      <trkpt lat="36.610538" lon="-5.074126">
        <ele>1096.15</ele>
        <time>2021-06-17T09:12:39.000Z</time>
      </trkpt>
      <trkpt lat="36.610668" lon="-5.074147">
        <ele>1098.57</ele>
        <time>2021-06-17T09:12:40.000Z</time>
      </trkpt>
      <trkpt lat="36.610803" lon="-5.074165">
        <ele>1100.39</ele>
        <time>2021-06-17T09:12:41.000Z</time>
      </trkpt>
      <trkpt lat="36.610944" lon="-5.07417">
        <ele>1100.31</ele>
        <time>2021-06-17T09:12:42.000Z</time>
      </trkpt>
      <trkpt lat="36.611078" lon="-5.074185">
        <ele>1100.56</ele>
        <time>2021-06-17T09:12:43.000Z</time>
      </trkpt>
      <trkpt lat="36.611224" lon="-5.074177">
        <ele>1100.17</ele>
        <time>2021-06-17T09:12:44.000Z</time>
      </trkpt>
      <trkpt lat="36.611386" lon="-5.07419">
        <ele>1101.93</ele>
        <time>2021-06-17T09:12:45.000Z</time>
      </trkpt>
      <trkpt lat="36.611544" lon="-5.074208">
        <ele>1103.4</ele>
        <time>2021-06-17T09:12:46.000Z</time>
      </trkpt>
      <trkpt lat="36.611691" lon="-5.074206">
        <ele>1104.2</ele>
        <time>2021-06-17T09:12:47.000Z</time>
      </trkpt>
      <trkpt lat="36.611822" lon="-5.074216">
        <ele>1105.89</ele>
        <time>2021-06-17T09:12:48.000Z</time>
      </trkpt>
      <trkpt lat="36.611969" lon="-5.07422">
        <ele>1107.1</ele>
        <time>2021-06-17T09:12:49.000Z</time>
      </trkpt>
      <trkpt lat="36.612104" lon="-5.074223">
        <ele>1108.71</ele>
        <time>2021-06-17T09:12:50.000Z</time>
      </trkpt>
      <trkpt lat="36.612233" lon="-5.074209">
        <ele>1108.44</ele>
        <time>2021-06-17T09:12:51.000Z</time>
      </trkpt>
      <trkpt lat="36.612365" lon="-5.074196">
        <ele>1109.02</ele>
        <time>2021-06-17T09:12:52.000Z</time>
      </trkpt>
      <trkpt lat="36.61249" lon="-5.074173">
        <ele>1110.43</ele>
        <time>2021-06-17T09:12:53.000Z</time>
      </trkpt>
      <trkpt lat="36.612617" lon="-5.074129">
        <ele>1109.8</ele>
        <time>2021-06-17T09:12:54.000Z</time>
      </trkpt>
      <trkpt lat="36.612733" lon="-5.07408">
        <ele>1110.83</ele>
        <time>2021-06-17T09:12:55.000Z</time>
      </trkpt>
      <trkpt lat="36.612839" lon="-5.074013">
        <ele>1111.12</ele>
        <time>2021-06-17T09:12:56.000Z</time>
      </trkpt>
      <trkpt lat="36.612927" lon="-5.073919">
        <ele>1112.49</ele>
        <time>2021-06-17T09:12:57.000Z</time>
      </trkpt>
      <trkpt lat="36.613017" lon="-5.073815">
        <ele>1112.67</ele>
        <time>2021-06-17T09:12:58.000Z</time>
      </trkpt>
      <trkpt lat="36.613101" lon="-5.073693">
        <ele>1112.56</ele>
        <time>2021-06-17T09:12:59.000Z</time>
      </trkpt>
      <trkpt lat="36.613174" lon="-5.073552">
        <ele>1112.91</ele>
        <time>2021-06-17T09:13:00.000Z</time>
      </trkpt>
      <trkpt lat="36.613222" lon="-5.073386">
        <ele>1111.51</ele>
        <time>2021-06-17T09:13:01.000Z</time>
      </trkpt>
      <trkpt lat="36.613273" lon="-5.073227">
        <ele>1111.09</ele>
        <time>2021-06-17T09:13:02.000Z</time>
      </trkpt>
      <trkpt lat="36.613299" lon="-5.073054">
        <ele>1109.04</ele>
        <time>2021-06-17T09:13:03.000Z</time>
      </trkpt>
      <trkpt lat="36.613343" lon="-5.072886">
        <ele>1111.03</ele>
        <time>2021-06-17T09:13:04.000Z</time>
      </trkpt>
      <trkpt lat="36.61337" lon="-5.072733">
        <ele>1109.07</ele>
        <time>2021-06-17T09:13:05.000Z</time>
      </trkpt>
      <trkpt lat="36.613382" lon="-5.072573">
        <ele>1110.27</ele>
        <time>2021-06-17T09:13:06.000Z</time>
      </trkpt>
      <trkpt lat="36.613408" lon="-5.072423">
        <ele>1108.77</ele>
        <time>2021-06-17T09:13:07.000Z</time>
      </trkpt>
      <trkpt lat="36.613452" lon="-5.072272">
        <ele>1109.09</ele>
        <time>2021-06-17T09:13:08.000Z</time>
      </trkpt>
      <trkpt lat="36.613517" lon="-5.072124">
        <ele>1111.5</ele>
        <time>2021-06-17T09:13:09.000Z</time>
      </trkpt>
      <trkpt lat="36.6136" lon="-5.071961">
        <ele>1112.04</ele>
        <time>2021-06-17T09:13:10.000Z</time>
      </trkpt>
      <trkpt lat="36.613702" lon="-5.071795">
        <ele>1111.4</ele>
        <time>2021-06-17T09:13:11.000Z</time>
      </trkpt>
      <trkpt lat="36.613811" lon="-5.071632">
        <ele>1110.83</ele>
        <time>2021-06-17T09:13:12.000Z</time>
      </trkpt>
      <trkpt lat="36.613914" lon="-5.071481">
        <ele>1110.56</ele>
        <time>2021-06-17T09:13:13.000Z</time>
      </trkpt>
      <trkpt lat="36.614025" lon="-5.071331">
        <ele>1112.61</ele>
        <time>2021-06-17T09:13:14.000Z</time>
      </trkpt>
      <trkpt lat="36.614116" lon="-5.071185">
        <ele>1112.85</ele>
        <time>2021-06-17T09:13:15.000Z</time>
      </trkpt>
      <trkpt lat="36.61421" lon="-5.071038">
        <ele>1112.77</ele>
        <time>2021-06-17T09:13:16.000Z</time>
      </trkpt>
      <trkpt lat="36.614304" lon="-5.070896">
        <ele>1112.26</ele>
        <time>2021-06-17T09:13:17.000Z</time>
      </trkpt>
      <trkpt lat="36.614397" lon="-5.070773">
        <ele>1112.49</ele>
        <time>2021-06-17T09:13:18.000Z</time>
      </trkpt>
      <trkpt lat="36.614474" lon="-5.070638">
        <ele>1112.52</ele>
        <time>2021-06-17T09:13:19.000Z</time>
      </trkpt>
      <trkpt lat="36.614536" lon="-5.070505">
        <ele>1113.21</ele>
        <time>2021-06-17T09:13:20.000Z</time>
      </trkpt>
      <trkpt lat="36.614579" lon="-5.070361">
        <ele>1113.16</ele>
        <time>2021-06-17T09:13:21.000Z</time>
      </trkpt>
      <trkpt lat="36.614605" lon="-5.070207">
        <ele>1112.37</ele>
        <time>2021-06-17T09:13:22.000Z</time>
      </trkpt>
      <trkpt lat="36.614623" lon="-5.07005">
        <ele>1111.73</ele>
        <time>2021-06-17T09:13:23.000Z</time>
      </trkpt>
      <trkpt lat="36.614633" lon="-5.069892">
        <ele>1110.98</ele>
        <time>2021-06-17T09:13:24.000Z</time>
      </trkpt>
      <trkpt lat="36.614633" lon="-5.069734">
        <ele>1111.3</ele>
        <time>2021-06-17T09:13:25.000Z</time>
      </trkpt>
      <trkpt lat="36.614618" lon="-5.069566">
        <ele>1110.34</ele>
        <time>2021-06-17T09:13:26.000Z</time>
      </trkpt>
      <trkpt lat="36.614593" lon="-5.069406">
        <ele>1110.16</ele>
        <time>2021-06-17T09:13:27.000Z</time>
      </trkpt>
      <trkpt lat="36.614564" lon="-5.069266">
        <ele>1111.07</ele>
        <time>2021-06-17T09:13:28.000Z</time>
      </trkpt>
      <trkpt lat="36.614522" lon="-5.069117">
        <ele>1110.05</ele>
        <time>2021-06-17T09:13:29.000Z</time>
      </trkpt>
      <trkpt lat="36.614471" lon="-5.068969">
        <ele>1109.79</ele>
        <time>2021-06-17T09:13:30.000Z</time>
      </trkpt>
      <trkpt lat="36.614419" lon="-5.068855">
        <ele>1109.28</ele>
        <time>2021-06-17T09:13:31.000Z</time>
      </trkpt>
      <trkpt lat="36.614344" lon="-5.068731">
        <ele>1109.6</ele>
        <time>2021-06-17T09:13:32.000Z</time>
      </trkpt>
      <trkpt lat="36.614265" lon="-5.068618">
        <ele>1109.22</ele>
        <time>2021-06-17T09:13:33.000Z</time>
      </trkpt>
      <trkpt lat="36.614185" lon="-5.068505">
        <ele>1109.1</ele>
        <time>2021-06-17T09:13:34.000Z</time>
      </trkpt>
      <trkpt lat="36.614111" lon="-5.068411">
        <ele>1110.52</ele>
        <time>2021-06-17T09:13:35.000Z</time>
      </trkpt>
      <trkpt lat="36.614037" lon="-5.068307">
        <ele>1110.26</ele>
        <time>2021-06-17T09:13:36.000Z</time>
      </trkpt>
      <trkpt lat="36.613976" lon="-5.068206">
        <ele>1109.58</ele>
        <time>2021-06-17T09:13:37.000Z</time>
      </trkpt>
      <trkpt lat="36.613921" lon="-5.068106">
        <ele>1109.42</ele>
        <time>2021-06-17T09:13:38.000Z</time>
      </trkpt>
      <trkpt lat="36.613875" lon="-5.068001">
        <ele>1109.73</ele>
        <time>2021-06-17T09:13:39.000Z</time>
      </trkpt>
      <trkpt lat="36.613843" lon="-5.067883">
        <ele>1109.96</ele>
        <time>2021-06-17T09:13:40.000Z</time>
      </trkpt>
      <trkpt lat="36.613832" lon="-5.067766">
        <ele>1110.77</ele>
        <time>2021-06-17T09:13:41.000Z</time>
      </trkpt>
      <trkpt lat="36.613848" lon="-5.067662">
        <ele>1111.51</ele>
        <time>2021-06-17T09:13:42.000Z</time>
      </trkpt>
      <trkpt lat="36.613869" lon="-5.067574">
        <ele>1112.07</ele>
        <time>2021-06-17T09:13:43.000Z</time>
      </trkpt>
      <trkpt lat="36.61391" lon="-5.067488">
        <ele>1112.48</ele>
        <time>2021-06-17T09:13:44.000Z</time>
      </trkpt>
      <trkpt lat="36.613971" lon="-5.067408">
        <ele>1113.36</ele>
        <time>2021-06-17T09:13:45.000Z</time>
      </trkpt>
      <trkpt lat="36.614068" lon="-5.067318">
        <ele>1113.4</ele>
        <time>2021-06-17T09:13:46.000Z</time>
      </trkpt>
      <trkpt lat="36.614174" lon="-5.067245">
        <ele>1114.19</ele>
        <time>2021-06-17T09:13:47.000Z</time>
      </trkpt>
      <trkpt lat="36.614286" lon="-5.067178">
        <ele>1114.26</ele>
        <time>2021-06-17T09:13:48.000Z</time>
      </trkpt>
      <trkpt lat="36.614402" lon="-5.067108">
        <ele>1115.47</ele>
        <time>2021-06-17T09:13:49.000Z</time>
      </trkpt>
      <trkpt lat="36.614521" lon="-5.067044">
        <ele>1115.36</ele>
        <time>2021-06-17T09:13:50.000Z</time>
      </trkpt>
      <trkpt lat="36.61464" lon="-5.066989">
        <ele>1117.27</ele>
        <time>2021-06-17T09:13:51.000Z</time>
      </trkpt>
      <trkpt lat="36.614727" lon="-5.066931">
        <ele>1117.56</ele>
        <time>2021-06-17T09:13:52.000Z</time>
      </trkpt>
      <trkpt lat="36.61483" lon="-5.066872">
        <ele>1118.89</ele>
        <time>2021-06-17T09:13:53.000Z</time>
      </trkpt>
      <trkpt lat="36.614928" lon="-5.066795">
        <ele>1119.51</ele>
        <time>2021-06-17T09:13:54.000Z</time>
      </trkpt>
      <trkpt lat="36.615009" lon="-5.066706">
        <ele>1119.99</ele>
        <time>2021-06-17T09:13:55.000Z</time>
      </trkpt>
      <trkpt lat="36.615079" lon="-5.066599">
        <ele>1120.67</ele>
        <time>2021-06-17T09:13:56.000Z</time>
      </trkpt>
      <trkpt lat="36.615124" lon="-5.066457">
        <ele>1122.97</ele>
        <time>2021-06-17T09:13:57.000Z</time>
      </trkpt>
      <trkpt lat="36.61516" lon="-5.066311">
        <ele>1124.5</ele>
        <time>2021-06-17T09:13:58.000Z</time>
      </trkpt>
      <trkpt lat="36.615185" lon="-5.066176">
        <ele>1125.3</ele>
        <time>2021-06-17T09:13:59.000Z</time>
      </trkpt>
      <trkpt lat="36.615217" lon="-5.066044">
        <ele>1126.14</ele>
        <time>2021-06-17T09:14:00.000Z</time>
      </trkpt>
      <trkpt lat="36.615249" lon="-5.065914">
        <ele>1126.41</ele>
        <time>2021-06-17T09:14:01.000Z</time>
      </trkpt>
      <trkpt lat="36.615279" lon="-5.065787">
        <ele>1126.39</ele>
        <time>2021-06-17T09:14:02.000Z</time>
      </trkpt>
      <trkpt lat="36.615321" lon="-5.06568">
        <ele>1125.72</ele>
        <time>2021-06-17T09:14:03.000Z</time>
      </trkpt>
      <trkpt lat="36.615382" lon="-5.065591">
        <ele>1126.55</ele>
        <time>2021-06-17T09:14:04.000Z</time>
      </trkpt>
      <trkpt lat="36.615445" lon="-5.065506">
        <ele>1127.36</ele>
        <time>2021-06-17T09:14:05.000Z</time>
      </trkpt>
      <trkpt lat="36.615518" lon="-5.065436">
        <ele>1127.76</ele>
        <time>2021-06-17T09:14:06.000Z</time>
      </trkpt>
      <trkpt lat="36.615591" lon="-5.065385">
        <ele>1127.45</ele>
        <time>2021-06-17T09:14:07.000Z</time>
      </trkpt>
      <trkpt lat="36.615675" lon="-5.065358">
        <ele>1126.46</ele>
        <time>2021-06-17T09:14:08.000Z</time>
      </trkpt>
      <trkpt lat="36.615772" lon="-5.065355">
        <ele>1123.94</ele>
        <time>2021-06-17T09:14:09.000Z</time>
      </trkpt>
      <trkpt lat="36.615873" lon="-5.065368">
        <ele>1122.03</ele>
        <time>2021-06-17T09:14:10.000Z</time>
      </trkpt>
      <trkpt lat="36.615967" lon="-5.0654">
        <ele>1121.31</ele>
        <time>2021-06-17T09:14:11.000Z</time>
      </trkpt>
      <trkpt lat="36.616081" lon="-5.065438">
        <ele>1122.14</ele>
        <time>2021-06-17T09:14:12.000Z</time>
      </trkpt>
      <trkpt lat="36.616197" lon="-5.065485">
        <ele>1122.53</ele>
        <time>2021-06-17T09:14:13.000Z</time>
      </trkpt>
      <trkpt lat="36.616301" lon="-5.065515">
        <ele>1122.44</ele>
        <time>2021-06-17T09:14:14.000Z</time>
      </trkpt>
      <trkpt lat="36.616406" lon="-5.065536">
        <ele>1123</ele>
        <time>2021-06-17T09:14:15.000Z</time>
      </trkpt>
      <trkpt lat="36.616523" lon="-5.065511">
        <ele>1122.32</ele>
        <time>2021-06-17T09:14:16.000Z</time>
      </trkpt>
      <trkpt lat="36.616632" lon="-5.065479">
        <ele>1123.2</ele>
        <time>2021-06-17T09:14:17.000Z</time>
      </trkpt>
      <trkpt lat="36.616701" lon="-5.065424">
        <ele>1124.3</ele>
        <time>2021-06-17T09:14:18.000Z</time>
      </trkpt>
      <trkpt lat="36.616802" lon="-5.065347">
        <ele>1125.24</ele>
        <time>2021-06-17T09:14:19.000Z</time>
      </trkpt>
      <trkpt lat="36.616877" lon="-5.065265">
        <ele>1126.01</ele>
        <time>2021-06-17T09:14:20.000Z</time>
      </trkpt>
      <trkpt lat="36.616952" lon="-5.065161">
        <ele>1126.42</ele>
        <time>2021-06-17T09:14:21.000Z</time>
      </trkpt>
      <trkpt lat="36.617053" lon="-5.065047">
        <ele>1128.46</ele>
        <time>2021-06-17T09:14:22.000Z</time>
      </trkpt>
      <trkpt lat="36.61712" lon="-5.06491">
        <ele>1129.51</ele>
        <time>2021-06-17T09:14:23.000Z</time>
      </trkpt>
      <trkpt lat="36.617155" lon="-5.064749">
        <ele>1130.42</ele>
        <time>2021-06-17T09:14:24.000Z</time>
      </trkpt>
      <trkpt lat="36.617203" lon="-5.064597">
        <ele>1130.04</ele>
        <time>2021-06-17T09:14:25.000Z</time>
      </trkpt>
      <trkpt lat="36.617245" lon="-5.064451">
        <ele>1130.3</ele>
        <time>2021-06-17T09:14:26.000Z</time>
      </trkpt>
      <trkpt lat="36.617295" lon="-5.064308">
        <ele>1130.22</ele>
        <time>2021-06-17T09:14:27.000Z</time>
      </trkpt>
      <trkpt lat="36.61734" lon="-5.064176">
        <ele>1129.24</ele>
        <time>2021-06-17T09:14:28.000Z</time>
      </trkpt>
      <trkpt lat="36.617374" lon="-5.064055">
        <ele>1126.69</ele>
        <time>2021-06-17T09:14:29.000Z</time>
      </trkpt>
      <trkpt lat="36.617404" lon="-5.063952">
        <ele>1125.48</ele>
        <time>2021-06-17T09:14:30.000Z</time>
      </trkpt>
      <trkpt lat="36.61744" lon="-5.063847">
        <ele>1124.63</ele>
        <time>2021-06-17T09:14:31.000Z</time>
      </trkpt>
      <trkpt lat="36.617485" lon="-5.063751">
        <ele>1123.04</ele>
        <time>2021-06-17T09:14:32.000Z</time>
      </trkpt>
      <trkpt lat="36.617542" lon="-5.063659">
        <ele>1122.15</ele>
        <time>2021-06-17T09:14:33.000Z</time>
      </trkpt>
      <trkpt lat="36.617619" lon="-5.06358">
        <ele>1123.18</ele>
        <time>2021-06-17T09:14:34.000Z</time>
      </trkpt>
      <trkpt lat="36.617709" lon="-5.063503">
        <ele>1122.3</ele>
        <time>2021-06-17T09:14:35.000Z</time>
      </trkpt>
      <trkpt lat="36.617772" lon="-5.063433">
        <ele>1123.97</ele>
        <time>2021-06-17T09:14:36.000Z</time>
      </trkpt>
      <trkpt lat="36.617869" lon="-5.063344">
        <ele>1123.46</ele>
        <time>2021-06-17T09:14:37.000Z</time>
      </trkpt>
      <trkpt lat="36.617961" lon="-5.063254">
        <ele>1124.54</ele>
        <time>2021-06-17T09:14:38.000Z</time>
      </trkpt>
      <trkpt lat="36.618042" lon="-5.063125">
        <ele>1124.49</ele>
        <time>2021-06-17T09:14:39.000Z</time>
      </trkpt>
      <trkpt lat="36.618109" lon="-5.062998">
        <ele>1121.19</ele>
        <time>2021-06-17T09:14:40.000Z</time>
      </trkpt>
      <trkpt lat="36.618133" lon="-5.062865">
        <ele>1122.49</ele>
        <time>2021-06-17T09:14:41.000Z</time>
      </trkpt>
      <trkpt lat="36.618166" lon="-5.062733">
        <ele>1121.19</ele>
        <time>2021-06-17T09:14:42.000Z</time>
      </trkpt>
      <trkpt lat="36.618195" lon="-5.062608">
        <ele>1120.62</ele>
        <time>2021-06-17T09:14:43.000Z</time>
      </trkpt>
      <trkpt lat="36.618242" lon="-5.062502">
        <ele>1120.55</ele>
        <time>2021-06-17T09:14:44.000Z</time>
      </trkpt>
      <trkpt lat="36.618298" lon="-5.062419">
        <ele>1121.94</ele>
        <time>2021-06-17T09:14:45.000Z</time>
      </trkpt>
      <trkpt lat="36.618364" lon="-5.062361">
        <ele>1121.57</ele>
        <time>2021-06-17T09:14:46.000Z</time>
      </trkpt>
      <trkpt lat="36.618437" lon="-5.062302">
        <ele>1121.82</ele>
        <time>2021-06-17T09:14:47.000Z</time>
      </trkpt>
      <trkpt lat="36.618524" lon="-5.062262">
        <ele>1122.69</ele>
        <time>2021-06-17T09:14:48.000Z</time>
      </trkpt>
      <trkpt lat="36.618612" lon="-5.062247">
        <ele>1123.33</ele>
        <time>2021-06-17T09:14:49.000Z</time>
      </trkpt>
      <trkpt lat="36.618723" lon="-5.062267">
        <ele>1122.9</ele>
        <time>2021-06-17T09:14:50.000Z</time>
      </trkpt>
      <trkpt lat="36.618877" lon="-5.062304">
        <ele>1122.38</ele>
        <time>2021-06-17T09:14:51.000Z</time>
      </trkpt>
      <trkpt lat="36.619011" lon="-5.062356">
        <ele>1122.34</ele>
        <time>2021-06-17T09:14:52.000Z</time>
      </trkpt>
      <trkpt lat="36.619119" lon="-5.062403">
        <ele>1121.09</ele>
        <time>2021-06-17T09:14:53.000Z</time>
      </trkpt>
      <trkpt lat="36.619239" lon="-5.062436">
        <ele>1121.25</ele>
        <time>2021-06-17T09:14:54.000Z</time>
      </trkpt>
      <trkpt lat="36.619353" lon="-5.062463">
        <ele>1121.75</ele>
        <time>2021-06-17T09:14:55.000Z</time>
      </trkpt>
      <trkpt lat="36.61946" lon="-5.062454">
        <ele>1119.51</ele>
        <time>2021-06-17T09:14:56.000Z</time>
      </trkpt>
      <trkpt lat="36.61958" lon="-5.062434">
        <ele>1119.88</ele>
        <time>2021-06-17T09:14:57.000Z</time>
      </trkpt>
      <trkpt lat="36.619693" lon="-5.0624">
        <ele>1118.65</ele>
        <time>2021-06-17T09:14:58.000Z</time>
      </trkpt>
      <trkpt lat="36.619794" lon="-5.062385">
        <ele>1120.33</ele>
        <time>2021-06-17T09:14:59.000Z</time>
      </trkpt>
      <trkpt lat="36.619892" lon="-5.062372">
        <ele>1122.28</ele>
        <time>2021-06-17T09:15:00.000Z</time>
      </trkpt>
      <trkpt lat="36.619975" lon="-5.06238">
        <ele>1122.28</ele>
        <time>2021-06-17T09:15:01.000Z</time>
      </trkpt>
      <trkpt lat="36.620065" lon="-5.062413">
        <ele>1121.85</ele>
        <time>2021-06-17T09:15:02.000Z</time>
      </trkpt>
      <trkpt lat="36.620141" lon="-5.062468">
        <ele>1121.81</ele>
        <time>2021-06-17T09:15:03.000Z</time>
      </trkpt>
      <trkpt lat="36.620191" lon="-5.062557">
        <ele>1120.71</ele>
        <time>2021-06-17T09:15:04.000Z</time>
      </trkpt>
      <trkpt lat="36.620252" lon="-5.062665">
        <ele>1122.26</ele>
        <time>2021-06-17T09:15:05.000Z</time>
      </trkpt>
      <trkpt lat="36.620297" lon="-5.062775">
        <ele>1122.47</ele>
        <time>2021-06-17T09:15:06.000Z</time>
      </trkpt>
      <trkpt lat="36.620296" lon="-5.062941">
        <ele>1117.88</ele>
        <time>2021-06-17T09:15:07.000Z</time>
      </trkpt>
      <trkpt lat="36.620291" lon="-5.06308">
        <ele>1116.6</ele>
        <time>2021-06-17T09:15:08.000Z</time>
      </trkpt>
      <trkpt lat="36.620273" lon="-5.063212">
        <ele>1116.4</ele>
        <time>2021-06-17T09:15:09.000Z</time>
      </trkpt>
      <trkpt lat="36.620255" lon="-5.063343">
        <ele>1115.75</ele>
        <time>2021-06-17T09:15:10.000Z</time>
      </trkpt>
      <trkpt lat="36.620203" lon="-5.063466">
        <ele>1113.92</ele>
        <time>2021-06-17T09:15:11.000Z</time>
      </trkpt>
      <trkpt lat="36.62018" lon="-5.063601">
        <ele>1113.88</ele>
        <time>2021-06-17T09:15:12.000Z</time>
      </trkpt>
      <trkpt lat="36.620133" lon="-5.063742">
        <ele>1113.75</ele>
        <time>2021-06-17T09:15:13.000Z</time>
      </trkpt>
      <trkpt lat="36.620103" lon="-5.063889">
        <ele>1113.47</ele>
        <time>2021-06-17T09:15:14.000Z</time>
      </trkpt>
      <trkpt lat="36.620108" lon="-5.064031">
        <ele>1113.37</ele>
        <time>2021-06-17T09:15:15.000Z</time>
      </trkpt>
      <trkpt lat="36.620128" lon="-5.064169">
        <ele>1113.72</ele>
        <time>2021-06-17T09:15:16.000Z</time>
      </trkpt>
      <trkpt lat="36.620147" lon="-5.064282">
        <ele>1115.61</ele>
        <time>2021-06-17T09:15:17.000Z</time>
      </trkpt>
      <trkpt lat="36.620179" lon="-5.064412">
        <ele>1115.61</ele>
        <time>2021-06-17T09:15:18.000Z</time>
      </trkpt>
      <trkpt lat="36.620209" lon="-5.064528">
        <ele>1115.32</ele>
        <time>2021-06-17T09:15:19.000Z</time>
      </trkpt>
      <trkpt lat="36.620216" lon="-5.064651">
        <ele>1116.5</ele>
        <time>2021-06-17T09:15:20.000Z</time>
      </trkpt>
      <trkpt lat="36.620219" lon="-5.064767">
        <ele>1113.61</ele>
        <time>2021-06-17T09:15:21.000Z</time>
      </trkpt>
      <trkpt lat="36.620198" lon="-5.064938">
        <ele>1114.65</ele>
        <time>2021-06-17T09:15:22.000Z</time>
      </trkpt>
      <trkpt lat="36.620151" lon="-5.065111">
        <ele>1114.64</ele>
        <time>2021-06-17T09:15:23.000Z</time>
      </trkpt>
      <trkpt lat="36.62013" lon="-5.065276">
        <ele>1115.81</ele>
        <time>2021-06-17T09:15:24.000Z</time>
      </trkpt>
      <trkpt lat="36.620095" lon="-5.065428">
        <ele>1115.26</ele>
        <time>2021-06-17T09:15:25.000Z</time>
      </trkpt>
      <trkpt lat="36.620077" lon="-5.065572">
        <ele>1114.63</ele>
        <time>2021-06-17T09:15:26.000Z</time>
      </trkpt>
      <trkpt lat="36.620066" lon="-5.065703">
        <ele>1114.49</ele>
        <time>2021-06-17T09:15:27.000Z</time>
      </trkpt>
      <trkpt lat="36.620081" lon="-5.065832">
        <ele>1113.9</ele>
        <time>2021-06-17T09:15:28.000Z</time>
      </trkpt>
      <trkpt lat="36.620107" lon="-5.065963">
        <ele>1113.39</ele>
        <time>2021-06-17T09:15:29.000Z</time>
      </trkpt>
      <trkpt lat="36.620149" lon="-5.066099">
        <ele>1112.73</ele>
        <time>2021-06-17T09:15:30.000Z</time>
      </trkpt>
      <trkpt lat="36.620221" lon="-5.066212">
        <ele>1110.33</ele>
        <time>2021-06-17T09:15:31.000Z</time>
      </trkpt>
      <trkpt lat="36.620308" lon="-5.066309">
        <ele>1109.34</ele>
        <time>2021-06-17T09:15:32.000Z</time>
      </trkpt>
      <trkpt lat="36.620409" lon="-5.066395">
        <ele>1108.92</ele>
        <time>2021-06-17T09:15:33.000Z</time>
      </trkpt>
      <trkpt lat="36.620517" lon="-5.066467">
        <ele>1109.18</ele>
        <time>2021-06-17T09:15:34.000Z</time>
      </trkpt>
      <trkpt lat="36.620627" lon="-5.066535">
        <ele>1109.13</ele>
        <time>2021-06-17T09:15:35.000Z</time>
      </trkpt>
      <trkpt lat="36.620723" lon="-5.066606">
        <ele>1108.96</ele>
        <time>2021-06-17T09:15:36.000Z</time>
      </trkpt>
      <trkpt lat="36.620812" lon="-5.066656">
        <ele>1109.05</ele>
        <time>2021-06-17T09:15:37.000Z</time>
      </trkpt>
      <trkpt lat="36.620889" lon="-5.066736">
        <ele>1108.28</ele>
        <time>2021-06-17T09:15:38.000Z</time>
      </trkpt>
      <trkpt lat="36.620965" lon="-5.066819">
        <ele>1108.77</ele>
        <time>2021-06-17T09:15:39.000Z</time>
      </trkpt>
      <trkpt lat="36.621014" lon="-5.06693">
        <ele>1107.2</ele>
        <time>2021-06-17T09:15:40.000Z</time>
      </trkpt>
      <trkpt lat="36.621057" lon="-5.067044">
        <ele>1105.9</ele>
        <time>2021-06-17T09:15:41.000Z</time>
      </trkpt>
      <trkpt lat="36.621084" lon="-5.06717">
        <ele>1105.7</ele>
        <time>2021-06-17T09:15:42.000Z</time>
      </trkpt>
      <trkpt lat="36.621098" lon="-5.06735">
        <ele>1104.95</ele>
        <time>2021-06-17T09:15:43.000Z</time>
      </trkpt>
      <trkpt lat="36.621085" lon="-5.067502">
        <ele>1105.23</ele>
        <time>2021-06-17T09:15:44.000Z</time>
      </trkpt>
      <trkpt lat="36.621093" lon="-5.067686">
        <ele>1106.33</ele>
        <time>2021-06-17T09:15:45.000Z</time>
      </trkpt>
      <trkpt lat="36.621054" lon="-5.067863">
        <ele>1108.18</ele>
        <time>2021-06-17T09:15:46.000Z</time>
      </trkpt>
      <trkpt lat="36.621037" lon="-5.068007">
        <ele>1107.85</ele>
        <time>2021-06-17T09:15:47.000Z</time>
      </trkpt>
      <trkpt lat="36.621021" lon="-5.068156">
        <ele>1107.67</ele>
        <time>2021-06-17T09:15:48.000Z</time>
      </trkpt>
      <trkpt lat="36.621026" lon="-5.068305">
        <ele>1106.83</ele>
        <time>2021-06-17T09:15:49.000Z</time>
      </trkpt>
      <trkpt lat="36.621031" lon="-5.068447">
        <ele>1107.54</ele>
        <time>2021-06-17T09:15:50.000Z</time>
      </trkpt>
      <trkpt lat="36.621074" lon="-5.068566">
        <ele>1107.24</ele>
        <time>2021-06-17T09:15:51.000Z</time>
      </trkpt>
      <trkpt lat="36.621124" lon="-5.068672">
        <ele>1106.69</ele>
        <time>2021-06-17T09:15:52.000Z</time>
      </trkpt>
      <trkpt lat="36.621174" lon="-5.068777">
        <ele>1108.02</ele>
        <time>2021-06-17T09:15:53.000Z</time>
      </trkpt>
      <trkpt lat="36.621249" lon="-5.068844">
        <ele>1107.35</ele>
        <time>2021-06-17T09:15:54.000Z</time>
      </trkpt>
      <trkpt lat="36.621332" lon="-5.068904">
        <ele>1108.42</ele>
        <time>2021-06-17T09:15:55.000Z</time>
      </trkpt>
      <trkpt lat="36.621419" lon="-5.068958">
        <ele>1109.77</ele>
        <time>2021-06-17T09:15:56.000Z</time>
      </trkpt>
      <trkpt lat="36.621513" lon="-5.068992">
        <ele>1110.7</ele>
        <time>2021-06-17T09:15:57.000Z</time>
      </trkpt>
      <trkpt lat="36.621617" lon="-5.068984">
        <ele>1111.13</ele>
        <time>2021-06-17T09:15:58.000Z</time>
      </trkpt>
      <trkpt lat="36.621735" lon="-5.068953">
        <ele>1110.15</ele>
        <time>2021-06-17T09:15:59.000Z</time>
      </trkpt>
      <trkpt lat="36.621844" lon="-5.068909">
        <ele>1110.66</ele>
        <time>2021-06-17T09:16:00.000Z</time>
      </trkpt>
      <trkpt lat="36.621942" lon="-5.068847">
        <ele>1110.95</ele>
        <time>2021-06-17T09:16:01.000Z</time>
      </trkpt>
      <trkpt lat="36.62203" lon="-5.068771">
        <ele>1111.26</ele>
        <time>2021-06-17T09:16:02.000Z</time>
      </trkpt>
      <trkpt lat="36.622097" lon="-5.068684">
        <ele>1111.92</ele>
        <time>2021-06-17T09:16:03.000Z</time>
      </trkpt>
      <trkpt lat="36.62214" lon="-5.068572">
        <ele>1113.13</ele>
        <time>2021-06-17T09:16:04.000Z</time>
      </trkpt>
      <trkpt lat="36.622172" lon="-5.068438">
        <ele>1112.91</ele>
        <time>2021-06-17T09:16:05.000Z</time>
      </trkpt>
      <trkpt lat="36.622204" lon="-5.068301">
        <ele>1113.3</ele>
        <time>2021-06-17T09:16:06.000Z</time>
      </trkpt>
      <trkpt lat="36.622251" lon="-5.068156">
        <ele>1113.54</ele>
        <time>2021-06-17T09:16:07.000Z</time>
      </trkpt>
      <trkpt lat="36.622267" lon="-5.067997">
        <ele>1113.4</ele>
        <time>2021-06-17T09:16:08.000Z</time>
      </trkpt>
      <trkpt lat="36.622285" lon="-5.067851">
        <ele>1112.87</ele>
        <time>2021-06-17T09:16:09.000Z</time>
      </trkpt>
      <trkpt lat="36.622302" lon="-5.067704">
        <ele>1112.4</ele>
        <time>2021-06-17T09:16:10.000Z</time>
      </trkpt>
      <trkpt lat="36.622336" lon="-5.067578">
        <ele>1113.01</ele>
        <time>2021-06-17T09:16:11.000Z</time>
      </trkpt>
      <trkpt lat="36.622392" lon="-5.067465">
        <ele>1113.81</ele>
        <time>2021-06-17T09:16:12.000Z</time>
      </trkpt>
      <trkpt lat="36.622471" lon="-5.067353">
        <ele>1114.07</ele>
        <time>2021-06-17T09:16:13.000Z</time>
      </trkpt>
      <trkpt lat="36.622572" lon="-5.067237">
        <ele>1113.68</ele>
        <time>2021-06-17T09:16:14.000Z</time>
      </trkpt>
      <trkpt lat="36.622692" lon="-5.067139">
        <ele>1113.39</ele>
        <time>2021-06-17T09:16:15.000Z</time>
      </trkpt>
      <trkpt lat="36.622808" lon="-5.067044">
        <ele>1112.9</ele>
        <time>2021-06-17T09:16:16.000Z</time>
      </trkpt>
      <trkpt lat="36.622927" lon="-5.066948">
        <ele>1112.17</ele>
        <time>2021-06-17T09:16:17.000Z</time>
      </trkpt>
      <trkpt lat="36.623055" lon="-5.066854">
        <ele>1113.28</ele>
        <time>2021-06-17T09:16:18.000Z</time>
      </trkpt>
      <trkpt lat="36.623173" lon="-5.066755">
        <ele>1115.25</ele>
        <time>2021-06-17T09:16:19.000Z</time>
      </trkpt>
      <trkpt lat="36.623283" lon="-5.066658">
        <ele>1115.31</ele>
        <time>2021-06-17T09:16:20.000Z</time>
      </trkpt>
      <trkpt lat="36.623378" lon="-5.066557">
        <ele>1114.07</ele>
        <time>2021-06-17T09:16:21.000Z</time>
      </trkpt>
      <trkpt lat="36.623474" lon="-5.06646">
        <ele>1114.52</ele>
        <time>2021-06-17T09:16:22.000Z</time>
      </trkpt>
      <trkpt lat="36.623535" lon="-5.066356">
        <ele>1115</ele>
        <time>2021-06-17T09:16:23.000Z</time>
      </trkpt>
      <trkpt lat="36.623611" lon="-5.066246">
        <ele>1114.9</ele>
        <time>2021-06-17T09:16:24.000Z</time>
      </trkpt>
      <trkpt lat="36.623681" lon="-5.066118">
        <ele>1115.29</ele>
        <time>2021-06-17T09:16:25.000Z</time>
      </trkpt>
      <trkpt lat="36.623731" lon="-5.065978">
        <ele>1114.78</ele>
        <time>2021-06-17T09:16:26.000Z</time>
      </trkpt>
      <trkpt lat="36.623764" lon="-5.065845">
        <ele>1112.94</ele>
        <time>2021-06-17T09:16:27.000Z</time>
      </trkpt>
      <trkpt lat="36.623791" lon="-5.065711">
        <ele>1112.49</ele>
        <time>2021-06-17T09:16:28.000Z</time>
      </trkpt>
      <trkpt lat="36.623824" lon="-5.065592">
        <ele>1112.79</ele>
        <time>2021-06-17T09:16:29.000Z</time>
      </trkpt>
      <trkpt lat="36.623855" lon="-5.065491">
        <ele>1117.03</ele>
        <time>2021-06-17T09:16:30.000Z</time>
      </trkpt>
      <trkpt lat="36.623876" lon="-5.065385">
        <ele>1116.37</ele>
        <time>2021-06-17T09:16:31.000Z</time>
      </trkpt>
      <trkpt lat="36.623912" lon="-5.065288">
        <ele>1115.88</ele>
        <time>2021-06-17T09:16:32.000Z</time>
      </trkpt>
      <trkpt lat="36.623965" lon="-5.065208">
        <ele>1115.28</ele>
        <time>2021-06-17T09:16:33.000Z</time>
      </trkpt>
      <trkpt lat="36.624025" lon="-5.065151">
        <ele>1114.86</ele>
        <time>2021-06-17T09:16:34.000Z</time>
      </trkpt>
      <trkpt lat="36.624107" lon="-5.065122">
        <ele>1115.46</ele>
        <time>2021-06-17T09:16:35.000Z</time>
      </trkpt>
      <trkpt lat="36.624192" lon="-5.065114">
        <ele>1113.39</ele>
        <time>2021-06-17T09:16:36.000Z</time>
      </trkpt>
      <trkpt lat="36.624297" lon="-5.06513">
        <ele>1112.37</ele>
        <time>2021-06-17T09:16:37.000Z</time>
      </trkpt>
      <trkpt lat="36.624397" lon="-5.065165">
        <ele>1112.02</ele>
        <time>2021-06-17T09:16:38.000Z</time>
      </trkpt>
      <trkpt lat="36.624496" lon="-5.065233">
        <ele>1112.07</ele>
        <time>2021-06-17T09:16:39.000Z</time>
      </trkpt>
      <trkpt lat="36.624586" lon="-5.065329">
        <ele>1110.92</ele>
        <time>2021-06-17T09:16:40.000Z</time>
      </trkpt>
      <trkpt lat="36.624679" lon="-5.065437">
        <ele>1110.7</ele>
        <time>2021-06-17T09:16:41.000Z</time>
      </trkpt>
      <trkpt lat="36.624768" lon="-5.065557">
        <ele>1110.09</ele>
        <time>2021-06-17T09:16:42.000Z</time>
      </trkpt>
      <trkpt lat="36.624851" lon="-5.065674">
        <ele>1110.24</ele>
        <time>2021-06-17T09:16:43.000Z</time>
      </trkpt>
      <trkpt lat="36.624926" lon="-5.065789">
        <ele>1110.6</ele>
        <time>2021-06-17T09:16:44.000Z</time>
      </trkpt>
      <trkpt lat="36.624992" lon="-5.065904">
        <ele>1110.67</ele>
        <time>2021-06-17T09:16:45.000Z</time>
      </trkpt>
      <trkpt lat="36.625036" lon="-5.066021">
        <ele>1111.19</ele>
        <time>2021-06-17T09:16:46.000Z</time>
      </trkpt>
      <trkpt lat="36.625063" lon="-5.066159">
        <ele>1110.25</ele>
        <time>2021-06-17T09:16:47.000Z</time>
      </trkpt>
      <trkpt lat="36.625076" lon="-5.066285">
        <ele>1108.47</ele>
        <time>2021-06-17T09:16:48.000Z</time>
      </trkpt>
      <trkpt lat="36.625074" lon="-5.066457">
        <ele>1108.29</ele>
        <time>2021-06-17T09:16:49.000Z</time>
      </trkpt>
      <trkpt lat="36.625066" lon="-5.066619">
        <ele>1108.07</ele>
        <time>2021-06-17T09:16:50.000Z</time>
      </trkpt>
      <trkpt lat="36.625054" lon="-5.066775">
        <ele>1107.44</ele>
        <time>2021-06-17T09:16:51.000Z</time>
      </trkpt>
      <trkpt lat="36.625033" lon="-5.066924">
        <ele>1106.73</ele>
        <time>2021-06-17T09:16:52.000Z</time>
      </trkpt>
      <trkpt lat="36.62503" lon="-5.067077">
        <ele>1106.53</ele>
        <time>2021-06-17T09:16:53.000Z</time>
      </trkpt>
      <trkpt lat="36.625025" lon="-5.067217">
        <ele>1106.33</ele>
        <time>2021-06-17T09:16:54.000Z</time>
      </trkpt>
      <trkpt lat="36.625021" lon="-5.067355">
        <ele>1106.35</ele>
        <time>2021-06-17T09:16:55.000Z</time>
      </trkpt>
      <trkpt lat="36.625022" lon="-5.067486">
        <ele>1105.65</ele>
        <time>2021-06-17T09:16:56.000Z</time>
      </trkpt>
      <trkpt lat="36.62506" lon="-5.067596">
        <ele>1105.68</ele>
        <time>2021-06-17T09:16:57.000Z</time>
      </trkpt>
      <trkpt lat="36.625101" lon="-5.067719">
        <ele>1105.29</ele>
        <time>2021-06-17T09:16:58.000Z</time>
      </trkpt>
      <trkpt lat="36.625144" lon="-5.067829">
        <ele>1105.32</ele>
        <time>2021-06-17T09:16:59.000Z</time>
      </trkpt>
      <trkpt lat="36.625203" lon="-5.067923">
        <ele>1104.58</ele>
        <time>2021-06-17T09:17:00.000Z</time>
      </trkpt>
      <trkpt lat="36.625297" lon="-5.067974">
        <ele>1104.17</ele>
        <time>2021-06-17T09:17:01.000Z</time>
      </trkpt>
      <trkpt lat="36.62539" lon="-5.068032">
        <ele>1105.4</ele>
        <time>2021-06-17T09:17:02.000Z</time>
      </trkpt>
      <trkpt lat="36.625482" lon="-5.068061">
        <ele>1106.15</ele>
        <time>2021-06-17T09:17:03.000Z</time>
      </trkpt>
      <trkpt lat="36.625572" lon="-5.068067">
        <ele>1106.81</ele>
        <time>2021-06-17T09:17:04.000Z</time>
      </trkpt>
      <trkpt lat="36.625676" lon="-5.068009">
        <ele>1107.31</ele>
        <time>2021-06-17T09:17:05.000Z</time>
      </trkpt>
      <trkpt lat="36.625778" lon="-5.067952">
        <ele>1108.33</ele>
        <time>2021-06-17T09:17:06.000Z</time>
      </trkpt>
      <trkpt lat="36.62588" lon="-5.067876">
        <ele>1108.8</ele>
        <time>2021-06-17T09:17:07.000Z</time>
      </trkpt>
      <trkpt lat="36.625974" lon="-5.06778">
        <ele>1108.22</ele>
        <time>2021-06-17T09:17:08.000Z</time>
      </trkpt>
      <trkpt lat="36.626075" lon="-5.067695">
        <ele>1108.58</ele>
        <time>2021-06-17T09:17:09.000Z</time>
      </trkpt>
      <trkpt lat="36.626167" lon="-5.067606">
        <ele>1109.55</ele>
        <time>2021-06-17T09:17:10.000Z</time>
      </trkpt>
      <trkpt lat="36.626255" lon="-5.067528">
        <ele>1108.75</ele>
        <time>2021-06-17T09:17:11.000Z</time>
      </trkpt>
      <trkpt lat="36.626345" lon="-5.067467">
        <ele>1107.52</ele>
        <time>2021-06-17T09:17:12.000Z</time>
      </trkpt>
      <trkpt lat="36.626425" lon="-5.067411">
        <ele>1106.84</ele>
        <time>2021-06-17T09:17:13.000Z</time>
      </trkpt>
      <trkpt lat="36.626518" lon="-5.06737">
        <ele>1108.51</ele>
        <time>2021-06-17T09:17:14.000Z</time>
      </trkpt>
      <trkpt lat="36.626614" lon="-5.067365">
        <ele>1108.33</ele>
        <time>2021-06-17T09:17:15.000Z</time>
      </trkpt>
      <trkpt lat="36.626685" lon="-5.067372">
        <ele>1108.16</ele>
        <time>2021-06-17T09:17:16.000Z</time>
      </trkpt>
      <trkpt lat="36.626777" lon="-5.067413">
        <ele>1108.12</ele>
        <time>2021-06-17T09:17:17.000Z</time>
      </trkpt>
      <trkpt lat="36.626872" lon="-5.067493">
        <ele>1107.35</ele>
        <time>2021-06-17T09:17:18.000Z</time>
      </trkpt>
      <trkpt lat="36.62697" lon="-5.067585">
        <ele>1108.63</ele>
        <time>2021-06-17T09:17:19.000Z</time>
      </trkpt>
      <trkpt lat="36.627049" lon="-5.067685">
        <ele>1108.63</ele>
        <time>2021-06-17T09:17:20.000Z</time>
      </trkpt>
      <trkpt lat="36.627096" lon="-5.067829">
        <ele>1107.48</ele>
        <time>2021-06-17T09:17:21.000Z</time>
      </trkpt>
      <trkpt lat="36.62713" lon="-5.067983">
        <ele>1106.87</ele>
        <time>2021-06-17T09:17:22.000Z</time>
      </trkpt>
      <trkpt lat="36.627157" lon="-5.068149">
        <ele>1106.22</ele>
        <time>2021-06-17T09:17:23.000Z</time>
      </trkpt>
      <trkpt lat="36.627178" lon="-5.068336">
        <ele>1106.85</ele>
        <time>2021-06-17T09:17:24.000Z</time>
      </trkpt>
      <trkpt lat="36.627204" lon="-5.068517">
        <ele>1106.91</ele>
        <time>2021-06-17T09:17:25.000Z</time>
      </trkpt>
      <trkpt lat="36.62722" lon="-5.068714">
        <ele>1107.57</ele>
        <time>2021-06-17T09:17:26.000Z</time>
      </trkpt>
      <trkpt lat="36.627225" lon="-5.068888">
        <ele>1107.34</ele>
        <time>2021-06-17T09:17:27.000Z</time>
      </trkpt>
      <trkpt lat="36.627233" lon="-5.069068">
        <ele>1107.26</ele>
        <time>2021-06-17T09:17:28.000Z</time>
      </trkpt>
      <trkpt lat="36.627256" lon="-5.069254">
        <ele>1106.89</ele>
        <time>2021-06-17T09:17:29.000Z</time>
      </trkpt>
      <trkpt lat="36.627291" lon="-5.069422">
        <ele>1107.15</ele>
        <time>2021-06-17T09:17:30.000Z</time>
      </trkpt>
      <trkpt lat="36.627336" lon="-5.069594">
        <ele>1107.29</ele>
        <time>2021-06-17T09:17:31.000Z</time>
      </trkpt>
      <trkpt lat="36.627384" lon="-5.069769">
        <ele>1107.77</ele>
        <time>2021-06-17T09:17:32.000Z</time>
      </trkpt>
      <trkpt lat="36.62745" lon="-5.069937">
        <ele>1107.32</ele>
        <time>2021-06-17T09:17:33.000Z</time>
      </trkpt>
      <trkpt lat="36.627524" lon="-5.070099">
        <ele>1107.43</ele>
        <time>2021-06-17T09:17:34.000Z</time>
      </trkpt>
      <trkpt lat="36.6276" lon="-5.070258">
        <ele>1107.79</ele>
        <time>2021-06-17T09:17:35.000Z</time>
      </trkpt>
      <trkpt lat="36.627683" lon="-5.070417">
        <ele>1107.44</ele>
        <time>2021-06-17T09:17:36.000Z</time>
      </trkpt>
      <trkpt lat="36.627777" lon="-5.070566">
        <ele>1107.07</ele>
        <time>2021-06-17T09:17:37.000Z</time>
      </trkpt>
      <trkpt lat="36.627872" lon="-5.070704">
        <ele>1106.74</ele>
        <time>2021-06-17T09:17:38.000Z</time>
      </trkpt>
      <trkpt lat="36.627977" lon="-5.070834">
        <ele>1106.43</ele>
        <time>2021-06-17T09:17:39.000Z</time>
      </trkpt>
      <trkpt lat="36.628082" lon="-5.070953">
        <ele>1106.4</ele>
        <time>2021-06-17T09:17:40.000Z</time>
      </trkpt>
      <trkpt lat="36.628212" lon="-5.071058">
        <ele>1105.5</ele>
        <time>2021-06-17T09:17:41.000Z</time>
      </trkpt>
      <trkpt lat="36.628354" lon="-5.071176">
        <ele>1106.94</ele>
        <time>2021-06-17T09:17:42.000Z</time>
      </trkpt>
      <trkpt lat="36.628478" lon="-5.071269">
        <ele>1106.14</ele>
        <time>2021-06-17T09:17:43.000Z</time>
      </trkpt>
      <trkpt lat="36.628605" lon="-5.071355">
        <ele>1106.21</ele>
        <time>2021-06-17T09:17:44.000Z</time>
      </trkpt>
      <trkpt lat="36.628724" lon="-5.071448">
        <ele>1107.08</ele>
        <time>2021-06-17T09:17:45.000Z</time>
      </trkpt>
      <trkpt lat="36.628834" lon="-5.071497">
        <ele>1104.21</ele>
        <time>2021-06-17T09:17:46.000Z</time>
      </trkpt>
      <trkpt lat="36.628932" lon="-5.07158">
        <ele>1103.81</ele>
        <time>2021-06-17T09:17:47.000Z</time>
      </trkpt>
      <trkpt lat="36.629033" lon="-5.071665">
        <ele>1103.72</ele>
        <time>2021-06-17T09:17:48.000Z</time>
      </trkpt>
      <trkpt lat="36.629119" lon="-5.071752">
        <ele>1101.43</ele>
        <time>2021-06-17T09:17:49.000Z</time>
      </trkpt>
      <trkpt lat="36.629188" lon="-5.071897">
        <ele>1104.18</ele>
        <time>2021-06-17T09:17:50.000Z</time>
      </trkpt>
      <trkpt lat="36.629243" lon="-5.072031">
        <ele>1104.2</ele>
        <time>2021-06-17T09:17:51.000Z</time>
      </trkpt>
      <trkpt lat="36.62927" lon="-5.072173">
        <ele>1103.95</ele>
        <time>2021-06-17T09:17:52.000Z</time>
      </trkpt>
      <trkpt lat="36.62928" lon="-5.072338">
        <ele>1104.51</ele>
        <time>2021-06-17T09:17:53.000Z</time>
      </trkpt>
      <trkpt lat="36.629276" lon="-5.072497">
        <ele>1105.61</ele>
        <time>2021-06-17T09:17:54.000Z</time>
      </trkpt>
      <trkpt lat="36.629245" lon="-5.072622">
        <ele>1102.71</ele>
        <time>2021-06-17T09:17:55.000Z</time>
      </trkpt>
      <trkpt lat="36.629209" lon="-5.072758">
        <ele>1101.5</ele>
        <time>2021-06-17T09:17:56.000Z</time>
      </trkpt>
      <trkpt lat="36.629145" lon="-5.072894">
        <ele>1101.67</ele>
        <time>2021-06-17T09:17:57.000Z</time>
      </trkpt>
      <trkpt lat="36.629078" lon="-5.073015">
        <ele>1103.1</ele>
        <time>2021-06-17T09:17:58.000Z</time>
      </trkpt>
      <trkpt lat="36.629001" lon="-5.073118">
        <ele>1104.47</ele>
        <time>2021-06-17T09:17:59.000Z</time>
      </trkpt>
      <trkpt lat="36.628914" lon="-5.073209">
        <ele>1105.32</ele>
        <time>2021-06-17T09:18:00.000Z</time>
      </trkpt>
      <trkpt lat="36.628826" lon="-5.073271">
        <ele>1106.44</ele>
        <time>2021-06-17T09:18:01.000Z</time>
      </trkpt>
      <trkpt lat="36.628699" lon="-5.073306">
        <ele>1106.99</ele>
        <time>2021-06-17T09:18:02.000Z</time>
      </trkpt>
      <trkpt lat="36.628539" lon="-5.073321">
        <ele>1106.53</ele>
        <time>2021-06-17T09:18:03.000Z</time>
      </trkpt>
      <trkpt lat="36.628358" lon="-5.073314">
        <ele>1106.91</ele>
        <time>2021-06-17T09:18:04.000Z</time>
      </trkpt>
      <trkpt lat="36.628209" lon="-5.073318">
        <ele>1108.4</ele>
        <time>2021-06-17T09:18:05.000Z</time>
      </trkpt>
      <trkpt lat="36.628052" lon="-5.073309">
        <ele>1108.13</ele>
        <time>2021-06-17T09:18:06.000Z</time>
      </trkpt>
      <trkpt lat="36.627879" lon="-5.073289">
        <ele>1105.61</ele>
        <time>2021-06-17T09:18:07.000Z</time>
      </trkpt>
      <trkpt lat="36.627723" lon="-5.073285">
        <ele>1106.19</ele>
        <time>2021-06-17T09:18:08.000Z</time>
      </trkpt>
      <trkpt lat="36.627573" lon="-5.073277">
        <ele>1104.46</ele>
        <time>2021-06-17T09:18:09.000Z</time>
      </trkpt>
      <trkpt lat="36.627429" lon="-5.073281">
        <ele>1102.88</ele>
        <time>2021-06-17T09:18:10.000Z</time>
      </trkpt>
      <trkpt lat="36.627294" lon="-5.073295">
        <ele>1101.97</ele>
        <time>2021-06-17T09:18:11.000Z</time>
      </trkpt>
      <trkpt lat="36.62718" lon="-5.073309">
        <ele>1101.66</ele>
        <time>2021-06-17T09:18:12.000Z</time>
      </trkpt>
      <trkpt lat="36.627063" lon="-5.073344">
        <ele>1101.89</ele>
        <time>2021-06-17T09:18:13.000Z</time>
      </trkpt>
      <trkpt lat="36.62695" lon="-5.073388">
        <ele>1102.92</ele>
        <time>2021-06-17T09:18:14.000Z</time>
      </trkpt>
      <trkpt lat="36.626854" lon="-5.073445">
        <ele>1102.39</ele>
        <time>2021-06-17T09:18:15.000Z</time>
      </trkpt>
      <trkpt lat="36.62676" lon="-5.07355">
        <ele>1098.46</ele>
        <time>2021-06-17T09:18:16.000Z</time>
      </trkpt>
      <trkpt lat="36.626684" lon="-5.073645">
        <ele>1098.66</ele>
        <time>2021-06-17T09:18:17.000Z</time>
      </trkpt>
      <trkpt lat="36.626633" lon="-5.073762">
        <ele>1098.97</ele>
        <time>2021-06-17T09:18:18.000Z</time>
      </trkpt>
      <trkpt lat="36.626592" lon="-5.073882">
        <ele>1098.79</ele>
        <time>2021-06-17T09:18:19.000Z</time>
      </trkpt>
      <trkpt lat="36.626571" lon="-5.074">
        <ele>1098.94</ele>
        <time>2021-06-17T09:18:20.000Z</time>
      </trkpt>
      <trkpt lat="36.626583" lon="-5.074138">
        <ele>1097.78</ele>
        <time>2021-06-17T09:18:21.000Z</time>
      </trkpt>
      <trkpt lat="36.626603" lon="-5.074285">
        <ele>1097.79</ele>
        <time>2021-06-17T09:18:22.000Z</time>
      </trkpt>
      <trkpt lat="36.626619" lon="-5.074437">
        <ele>1098.77</ele>
        <time>2021-06-17T09:18:23.000Z</time>
      </trkpt>
      <trkpt lat="36.626641" lon="-5.074602">
        <ele>1099.07</ele>
        <time>2021-06-17T09:18:24.000Z</time>
      </trkpt>
      <trkpt lat="36.62666" lon="-5.074776">
        <ele>1099.3</ele>
        <time>2021-06-17T09:18:25.000Z</time>
      </trkpt>
      <trkpt lat="36.626676" lon="-5.074942">
        <ele>1099.28</ele>
        <time>2021-06-17T09:18:26.000Z</time>
      </trkpt>
      <trkpt lat="36.626689" lon="-5.075093">
        <ele>1098.93</ele>
        <time>2021-06-17T09:18:27.000Z</time>
      </trkpt>
      <trkpt lat="36.626709" lon="-5.075271">
        <ele>1098.28</ele>
        <time>2021-06-17T09:18:28.000Z</time>
      </trkpt>
      <trkpt lat="36.626712" lon="-5.075435">
        <ele>1097.29</ele>
        <time>2021-06-17T09:18:29.000Z</time>
      </trkpt>
      <trkpt lat="36.62671" lon="-5.075574">
        <ele>1097.67</ele>
        <time>2021-06-17T09:18:30.000Z</time>
      </trkpt>
      <trkpt lat="36.626697" lon="-5.0757">
        <ele>1097.51</ele>
        <time>2021-06-17T09:18:31.000Z</time>
      </trkpt>
      <trkpt lat="36.626671" lon="-5.075832">
        <ele>1098.66</ele>
        <time>2021-06-17T09:18:32.000Z</time>
      </trkpt>
      <trkpt lat="36.626619" lon="-5.075952">
        <ele>1099.46</ele>
        <time>2021-06-17T09:18:33.000Z</time>
      </trkpt>
      <trkpt lat="36.626549" lon="-5.076047">
        <ele>1099.51</ele>
        <time>2021-06-17T09:18:34.000Z</time>
      </trkpt>
      <trkpt lat="36.626447" lon="-5.076119">
        <ele>1098.89</ele>
        <time>2021-06-17T09:18:35.000Z</time>
      </trkpt>
      <trkpt lat="36.626356" lon="-5.076169">
        <ele>1098.05</ele>
        <time>2021-06-17T09:18:36.000Z</time>
      </trkpt>
      <trkpt lat="36.626258" lon="-5.076225">
        <ele>1098.41</ele>
        <time>2021-06-17T09:18:37.000Z</time>
      </trkpt>
      <trkpt lat="36.626136" lon="-5.076283">
        <ele>1098.25</ele>
        <time>2021-06-17T09:18:38.000Z</time>
      </trkpt>
      <trkpt lat="36.626035" lon="-5.076334">
        <ele>1098.26</ele>
        <time>2021-06-17T09:18:39.000Z</time>
      </trkpt>
      <trkpt lat="36.625944" lon="-5.076412">
        <ele>1098.09</ele>
        <time>2021-06-17T09:18:40.000Z</time>
      </trkpt>
      <trkpt lat="36.625873" lon="-5.076512">
        <ele>1096.17</ele>
        <time>2021-06-17T09:18:41.000Z</time>
      </trkpt>
      <trkpt lat="36.625807" lon="-5.076623">
        <ele>1093.54</ele>
        <time>2021-06-17T09:18:42.000Z</time>
      </trkpt>
      <trkpt lat="36.62577" lon="-5.076735">
        <ele>1093.81</ele>
        <time>2021-06-17T09:18:43.000Z</time>
      </trkpt>
      <trkpt lat="36.625761" lon="-5.076865">
        <ele>1093.66</ele>
        <time>2021-06-17T09:18:44.000Z</time>
      </trkpt>
      <trkpt lat="36.625764" lon="-5.076996">
        <ele>1092.49</ele>
        <time>2021-06-17T09:18:45.000Z</time>
      </trkpt>
      <trkpt lat="36.6258" lon="-5.077138">
        <ele>1092.14</ele>
        <time>2021-06-17T09:18:46.000Z</time>
      </trkpt>
      <trkpt lat="36.625847" lon="-5.077279">
        <ele>1092.08</ele>
        <time>2021-06-17T09:18:47.000Z</time>
      </trkpt>
      <trkpt lat="36.625907" lon="-5.077423">
        <ele>1092.02</ele>
        <time>2021-06-17T09:18:48.000Z</time>
      </trkpt>
      <trkpt lat="36.625962" lon="-5.077571">
        <ele>1090.63</ele>
        <time>2021-06-17T09:18:49.000Z</time>
      </trkpt>
      <trkpt lat="36.626005" lon="-5.07772">
        <ele>1089.82</ele>
        <time>2021-06-17T09:18:50.000Z</time>
      </trkpt>
      <trkpt lat="36.626038" lon="-5.077856">
        <ele>1090.5</ele>
        <time>2021-06-17T09:18:51.000Z</time>
      </trkpt>
      <trkpt lat="36.626049" lon="-5.077983">
        <ele>1090.55</ele>
        <time>2021-06-17T09:18:52.000Z</time>
      </trkpt>
      <trkpt lat="36.626036" lon="-5.07811">
        <ele>1089.92</ele>
        <time>2021-06-17T09:18:53.000Z</time>
      </trkpt>
      <trkpt lat="36.626001" lon="-5.078218">
        <ele>1086.65</ele>
        <time>2021-06-17T09:18:54.000Z</time>
      </trkpt>
      <trkpt lat="36.625949" lon="-5.078367">
        <ele>1087.49</ele>
        <time>2021-06-17T09:18:55.000Z</time>
      </trkpt>
      <trkpt lat="36.625876" lon="-5.078516">
        <ele>1086.81</ele>
        <time>2021-06-17T09:18:56.000Z</time>
      </trkpt>
      <trkpt lat="36.625795" lon="-5.078665">
        <ele>1086.86</ele>
        <time>2021-06-17T09:18:57.000Z</time>
      </trkpt>
      <trkpt lat="36.625711" lon="-5.078814">
        <ele>1087.07</ele>
        <time>2021-06-17T09:18:58.000Z</time>
      </trkpt>
      <trkpt lat="36.625621" lon="-5.078961">
        <ele>1088.45</ele>
        <time>2021-06-17T09:18:59.000Z</time>
      </trkpt>
      <trkpt lat="36.625548" lon="-5.079098">
        <ele>1088.21</ele>
        <time>2021-06-17T09:19:00.000Z</time>
      </trkpt>
      <trkpt lat="36.625478" lon="-5.079233">
        <ele>1088.65</ele>
        <time>2021-06-17T09:19:01.000Z</time>
      </trkpt>
      <trkpt lat="36.625422" lon="-5.079376">
        <ele>1088.51</ele>
        <time>2021-06-17T09:19:02.000Z</time>
      </trkpt>
      <trkpt lat="36.625367" lon="-5.079517">
        <ele>1088.26</ele>
        <time>2021-06-17T09:19:03.000Z</time>
      </trkpt>
      <trkpt lat="36.625332" lon="-5.079655">
        <ele>1088.36</ele>
        <time>2021-06-17T09:19:04.000Z</time>
      </trkpt>
      <trkpt lat="36.625305" lon="-5.079795">
        <ele>1088.55</ele>
        <time>2021-06-17T09:19:05.000Z</time>
      </trkpt>
      <trkpt lat="36.625287" lon="-5.079928">
        <ele>1088.57</ele>
        <time>2021-06-17T09:19:06.000Z</time>
      </trkpt>
      <trkpt lat="36.625287" lon="-5.08006">
        <ele>1089.06</ele>
        <time>2021-06-17T09:19:07.000Z</time>
      </trkpt>
      <trkpt lat="36.625314" lon="-5.080185">
        <ele>1089.55</ele>
        <time>2021-06-17T09:19:08.000Z</time>
      </trkpt>
      <trkpt lat="36.625364" lon="-5.080303">
        <ele>1089.67</ele>
        <time>2021-06-17T09:19:09.000Z</time>
      </trkpt>
      <trkpt lat="36.625423" lon="-5.080413">
        <ele>1088.96</ele>
        <time>2021-06-17T09:19:10.000Z</time>
      </trkpt>
      <trkpt lat="36.625497" lon="-5.080505">
        <ele>1087.95</ele>
        <time>2021-06-17T09:19:11.000Z</time>
      </trkpt>
      <trkpt lat="36.625597" lon="-5.080577">
        <ele>1086.99</ele>
        <time>2021-06-17T09:19:12.000Z</time>
      </trkpt>
      <trkpt lat="36.625707" lon="-5.08065">
        <ele>1087.17</ele>
        <time>2021-06-17T09:19:13.000Z</time>
      </trkpt>
      <trkpt lat="36.625833" lon="-5.080707">
        <ele>1087.39</ele>
        <time>2021-06-17T09:19:14.000Z</time>
      </trkpt>
      <trkpt lat="36.625961" lon="-5.080765">
        <ele>1087.36</ele>
        <time>2021-06-17T09:19:15.000Z</time>
      </trkpt>
      <trkpt lat="36.626094" lon="-5.080801">
        <ele>1086.8</ele>
        <time>2021-06-17T09:19:16.000Z</time>
      </trkpt>
      <trkpt lat="36.626228" lon="-5.080816">
        <ele>1087.86</ele>
        <time>2021-06-17T09:19:17.000Z</time>
      </trkpt>
      <trkpt lat="36.626367" lon="-5.080815">
        <ele>1087.56</ele>
        <time>2021-06-17T09:19:18.000Z</time>
      </trkpt>
      <trkpt lat="36.626484" lon="-5.080812">
        <ele>1090.14</ele>
        <time>2021-06-17T09:19:19.000Z</time>
      </trkpt>
      <trkpt lat="36.626606" lon="-5.080789">
        <ele>1089.33</ele>
        <time>2021-06-17T09:19:20.000Z</time>
      </trkpt>
      <trkpt lat="36.626734" lon="-5.080753">
        <ele>1088.98</ele>
        <time>2021-06-17T09:19:21.000Z</time>
      </trkpt>
      <trkpt lat="36.626861" lon="-5.080715">
        <ele>1089.83</ele>
        <time>2021-06-17T09:19:22.000Z</time>
      </trkpt>
      <trkpt lat="36.626982" lon="-5.08068">
        <ele>1089.63</ele>
        <time>2021-06-17T09:19:23.000Z</time>
      </trkpt>
      <trkpt lat="36.627091" lon="-5.080669">
        <ele>1089.33</ele>
        <time>2021-06-17T09:19:24.000Z</time>
      </trkpt>
      <trkpt lat="36.627198" lon="-5.080674">
        <ele>1088.8</ele>
        <time>2021-06-17T09:19:25.000Z</time>
      </trkpt>
      <trkpt lat="36.627302" lon="-5.080696">
        <ele>1089.15</ele>
        <time>2021-06-17T09:19:26.000Z</time>
      </trkpt>
      <trkpt lat="36.62739" lon="-5.080737">
        <ele>1088.59</ele>
        <time>2021-06-17T09:19:27.000Z</time>
      </trkpt>
      <trkpt lat="36.627473" lon="-5.080798">
        <ele>1088.05</ele>
        <time>2021-06-17T09:19:28.000Z</time>
      </trkpt>
      <trkpt lat="36.627548" lon="-5.080891">
        <ele>1087.69</ele>
        <time>2021-06-17T09:19:29.000Z</time>
      </trkpt>
      <trkpt lat="36.627625" lon="-5.080988">
        <ele>1088.06</ele>
        <time>2021-06-17T09:19:30.000Z</time>
      </trkpt>
      <trkpt lat="36.627666" lon="-5.081102">
        <ele>1087.81</ele>
        <time>2021-06-17T09:19:31.000Z</time>
      </trkpt>
      <trkpt lat="36.627693" lon="-5.081229">
        <ele>1088.58</ele>
        <time>2021-06-17T09:19:32.000Z</time>
      </trkpt>
      <trkpt lat="36.627694" lon="-5.081376">
        <ele>1089.05</ele>
        <time>2021-06-17T09:19:33.000Z</time>
      </trkpt>
      <trkpt lat="36.627684" lon="-5.081495">
        <ele>1086.77</ele>
        <time>2021-06-17T09:19:34.000Z</time>
      </trkpt>
      <trkpt lat="36.62766" lon="-5.081657">
        <ele>1087.02</ele>
        <time>2021-06-17T09:19:35.000Z</time>
      </trkpt>
      <trkpt lat="36.627619" lon="-5.081824">
        <ele>1087.45</ele>
        <time>2021-06-17T09:19:36.000Z</time>
      </trkpt>
      <trkpt lat="36.627559" lon="-5.081981">
        <ele>1086.93</ele>
        <time>2021-06-17T09:19:37.000Z</time>
      </trkpt>
      <trkpt lat="36.627491" lon="-5.08213">
        <ele>1085.51</ele>
        <time>2021-06-17T09:19:38.000Z</time>
      </trkpt>
      <trkpt lat="36.627412" lon="-5.0823">
        <ele>1085.64</ele>
        <time>2021-06-17T09:19:39.000Z</time>
      </trkpt>
      <trkpt lat="36.62733" lon="-5.082449">
        <ele>1086.19</ele>
        <time>2021-06-17T09:19:40.000Z</time>
      </trkpt>
      <trkpt lat="36.62717" lon="-5.082581">
        <ele>1086.28</ele>
        <time>2021-06-17T09:19:41.000Z</time>
      </trkpt>
      <trkpt lat="36.627069" lon="-5.082728">
        <ele>1086.89</ele>
        <time>2021-06-17T09:19:42.000Z</time>
      </trkpt>
      <trkpt lat="36.626975" lon="-5.082859">
        <ele>1085.91</ele>
        <time>2021-06-17T09:19:43.000Z</time>
      </trkpt>
      <trkpt lat="36.626866" lon="-5.082971">
        <ele>1086.61</ele>
        <time>2021-06-17T09:19:44.000Z</time>
      </trkpt>
      <trkpt lat="36.626778" lon="-5.083098">
        <ele>1087.42</ele>
        <time>2021-06-17T09:19:45.000Z</time>
      </trkpt>
      <trkpt lat="36.626705" lon="-5.083214">
        <ele>1088.67</ele>
        <time>2021-06-17T09:19:46.000Z</time>
      </trkpt>
      <trkpt lat="36.626643" lon="-5.083336">
        <ele>1088.23</ele>
        <time>2021-06-17T09:19:47.000Z</time>
      </trkpt>
      <trkpt lat="36.626599" lon="-5.083459">
        <ele>1087.53</ele>
        <time>2021-06-17T09:19:48.000Z</time>
      </trkpt>
      <trkpt lat="36.62656" lon="-5.083587">
        <ele>1087.9</ele>
        <time>2021-06-17T09:19:49.000Z</time>
      </trkpt>
      <trkpt lat="36.626545" lon="-5.083727">
        <ele>1087.97</ele>
        <time>2021-06-17T09:19:50.000Z</time>
      </trkpt>
      <trkpt lat="36.626543" lon="-5.083864">
        <ele>1088.2</ele>
        <time>2021-06-17T09:19:51.000Z</time>
      </trkpt>
      <trkpt lat="36.626562" lon="-5.084019">
        <ele>1088.71</ele>
        <time>2021-06-17T09:19:52.000Z</time>
      </trkpt>
      <trkpt lat="36.62659" lon="-5.084171">
        <ele>1088.93</ele>
        <time>2021-06-17T09:19:53.000Z</time>
      </trkpt>
      <trkpt lat="36.62662" lon="-5.08431">
        <ele>1088.96</ele>
        <time>2021-06-17T09:19:54.000Z</time>
      </trkpt>
      <trkpt lat="36.626632" lon="-5.084448">
        <ele>1089.01</ele>
        <time>2021-06-17T09:19:55.000Z</time>
      </trkpt>
      <trkpt lat="36.626637" lon="-5.084576">
        <ele>1088.91</ele>
        <time>2021-06-17T09:19:56.000Z</time>
      </trkpt>
      <trkpt lat="36.626628" lon="-5.0847">
        <ele>1089.4</ele>
        <time>2021-06-17T09:19:57.000Z</time>
      </trkpt>
      <trkpt lat="36.626609" lon="-5.084819">
        <ele>1090.52</ele>
        <time>2021-06-17T09:19:58.000Z</time>
      </trkpt>
      <trkpt lat="36.626575" lon="-5.084933">
        <ele>1089.99</ele>
        <time>2021-06-17T09:19:59.000Z</time>
      </trkpt>
      <trkpt lat="36.626518" lon="-5.085048">
        <ele>1090.6</ele>
        <time>2021-06-17T09:20:00.000Z</time>
      </trkpt>
      <trkpt lat="36.626448" lon="-5.085144">
        <ele>1091.91</ele>
        <time>2021-06-17T09:20:01.000Z</time>
      </trkpt>
      <trkpt lat="36.626349" lon="-5.08523">
        <ele>1091.61</ele>
        <time>2021-06-17T09:20:02.000Z</time>
      </trkpt>
      <trkpt lat="36.626227" lon="-5.085304">
        <ele>1091.17</ele>
        <time>2021-06-17T09:20:03.000Z</time>
      </trkpt>
      <trkpt lat="36.626098" lon="-5.085376">
        <ele>1092.04</ele>
        <time>2021-06-17T09:20:04.000Z</time>
      </trkpt>
      <trkpt lat="36.625948" lon="-5.085436">
        <ele>1092.51</ele>
        <time>2021-06-17T09:20:05.000Z</time>
      </trkpt>
      <trkpt lat="36.625809" lon="-5.085491">
        <ele>1092.2</ele>
        <time>2021-06-17T09:20:06.000Z</time>
      </trkpt>
      <trkpt lat="36.625655" lon="-5.085546">
        <ele>1092.27</ele>
        <time>2021-06-17T09:20:07.000Z</time>
      </trkpt>
      <trkpt lat="36.625518" lon="-5.085602">
        <ele>1092.04</ele>
        <time>2021-06-17T09:20:08.000Z</time>
      </trkpt>
      <trkpt lat="36.625389" lon="-5.085653">
        <ele>1091.71</ele>
        <time>2021-06-17T09:20:09.000Z</time>
      </trkpt>
      <trkpt lat="36.625274" lon="-5.085706">
        <ele>1091.76</ele>
        <time>2021-06-17T09:20:10.000Z</time>
      </trkpt>
      <trkpt lat="36.62517" lon="-5.085766">
        <ele>1091.79</ele>
        <time>2021-06-17T09:20:11.000Z</time>
      </trkpt>
      <trkpt lat="36.625073" lon="-5.08583">
        <ele>1092.67</ele>
        <time>2021-06-17T09:20:12.000Z</time>
      </trkpt>
      <trkpt lat="36.62498" lon="-5.085914">
        <ele>1089.54</ele>
        <time>2021-06-17T09:20:13.000Z</time>
      </trkpt>
      <trkpt lat="36.624903" lon="-5.086012">
        <ele>1089.4</ele>
        <time>2021-06-17T09:20:14.000Z</time>
      </trkpt>
      <trkpt lat="36.624834" lon="-5.086119">
        <ele>1089.84</ele>
        <time>2021-06-17T09:20:15.000Z</time>
      </trkpt>
      <trkpt lat="36.624786" lon="-5.086241">
        <ele>1089.67</ele>
        <time>2021-06-17T09:20:16.000Z</time>
      </trkpt>
      <trkpt lat="36.624748" lon="-5.086511">
        <ele>1090.07</ele>
        <time>2021-06-17T09:20:18.000Z</time>
      </trkpt>
      <trkpt lat="36.624757" lon="-5.086659">
        <ele>1090.23</ele>
        <time>2021-06-17T09:20:19.000Z</time>
      </trkpt>
      <trkpt lat="36.624782" lon="-5.086818">
        <ele>1089.34</ele>
        <time>2021-06-17T09:20:20.000Z</time>
      </trkpt>
      <trkpt lat="36.624812" lon="-5.086981">
        <ele>1089.41</ele>
        <time>2021-06-17T09:20:21.000Z</time>
      </trkpt>
      <trkpt lat="36.624852" lon="-5.087138">
        <ele>1090.82</ele>
        <time>2021-06-17T09:20:22.000Z</time>
      </trkpt>
      <trkpt lat="36.624879" lon="-5.087309">
        <ele>1090.36</ele>
        <time>2021-06-17T09:20:23.000Z</time>
      </trkpt>
      <trkpt lat="36.624897" lon="-5.087482">
        <ele>1090.4</ele>
        <time>2021-06-17T09:20:24.000Z</time>
      </trkpt>
      <trkpt lat="36.624908" lon="-5.087663">
        <ele>1090.86</ele>
        <time>2021-06-17T09:20:25.000Z</time>
      </trkpt>
      <trkpt lat="36.624902" lon="-5.087839">
        <ele>1091.51</ele>
        <time>2021-06-17T09:20:26.000Z</time>
      </trkpt>
      <trkpt lat="36.624869" lon="-5.088008">
        <ele>1090.7</ele>
        <time>2021-06-17T09:20:27.000Z</time>
      </trkpt>
      <trkpt lat="36.624813" lon="-5.088183">
        <ele>1091.11</ele>
        <time>2021-06-17T09:20:28.000Z</time>
      </trkpt>
      <trkpt lat="36.624743" lon="-5.088348">
        <ele>1091.08</ele>
        <time>2021-06-17T09:20:29.000Z</time>
      </trkpt>
      <trkpt lat="36.62467" lon="-5.088524">
        <ele>1090.94</ele>
        <time>2021-06-17T09:20:30.000Z</time>
      </trkpt>
      <trkpt lat="36.624599" lon="-5.088711">
        <ele>1090.8</ele>
        <time>2021-06-17T09:20:31.000Z</time>
      </trkpt>
      <trkpt lat="36.624523" lon="-5.088908">
        <ele>1090.04</ele>
        <time>2021-06-17T09:20:32.000Z</time>
      </trkpt>
      <trkpt lat="36.624451" lon="-5.089093">
        <ele>1091.41</ele>
        <time>2021-06-17T09:20:33.000Z</time>
      </trkpt>
      <trkpt lat="36.62439" lon="-5.089276">
        <ele>1091.81</ele>
        <time>2021-06-17T09:20:34.000Z</time>
      </trkpt>
      <trkpt lat="36.624339" lon="-5.08947">
        <ele>1092.09</ele>
        <time>2021-06-17T09:20:35.000Z</time>
      </trkpt>
      <trkpt lat="36.624289" lon="-5.089657">
        <ele>1092.25</ele>
        <time>2021-06-17T09:20:36.000Z</time>
      </trkpt>
      <trkpt lat="36.624264" lon="-5.08985">
        <ele>1092.17</ele>
        <time>2021-06-17T09:20:37.000Z</time>
      </trkpt>
      <trkpt lat="36.62425" lon="-5.090047">
        <ele>1092.48</ele>
        <time>2021-06-17T09:20:38.000Z</time>
      </trkpt>
      <trkpt lat="36.624245" lon="-5.090246">
        <ele>1093.27</ele>
        <time>2021-06-17T09:20:39.000Z</time>
      </trkpt>
      <trkpt lat="36.624257" lon="-5.09045">
        <ele>1091.5</ele>
        <time>2021-06-17T09:20:40.000Z</time>
      </trkpt>
      <trkpt lat="36.624284" lon="-5.090646">
        <ele>1091.71</ele>
        <time>2021-06-17T09:20:41.000Z</time>
      </trkpt>
      <trkpt lat="36.624325" lon="-5.090843">
        <ele>1091.13</ele>
        <time>2021-06-17T09:20:42.000Z</time>
      </trkpt>
      <trkpt lat="36.624383" lon="-5.091035">
        <ele>1091.16</ele>
        <time>2021-06-17T09:20:43.000Z</time>
      </trkpt>
      <trkpt lat="36.624449" lon="-5.091222">
        <ele>1092.09</ele>
        <time>2021-06-17T09:20:44.000Z</time>
      </trkpt>
      <trkpt lat="36.624539" lon="-5.091413">
        <ele>1091.34</ele>
        <time>2021-06-17T09:20:45.000Z</time>
      </trkpt>
      <trkpt lat="36.624619" lon="-5.091611">
        <ele>1088.48</ele>
        <time>2021-06-17T09:20:46.000Z</time>
      </trkpt>
      <trkpt lat="36.624722" lon="-5.091802">
        <ele>1088.09</ele>
        <time>2021-06-17T09:20:47.000Z</time>
      </trkpt>
      <trkpt lat="36.624821" lon="-5.092">
        <ele>1087.05</ele>
        <time>2021-06-17T09:20:48.000Z</time>
      </trkpt>
      <trkpt lat="36.624927" lon="-5.092186">
        <ele>1087.15</ele>
        <time>2021-06-17T09:20:49.000Z</time>
      </trkpt>
      <trkpt lat="36.625034" lon="-5.092365">
        <ele>1087.62</ele>
        <time>2021-06-17T09:20:50.000Z</time>
      </trkpt>
      <trkpt lat="36.625131" lon="-5.092542">
        <ele>1088.83</ele>
        <time>2021-06-17T09:20:51.000Z</time>
      </trkpt>
      <trkpt lat="36.625239" lon="-5.092718">
        <ele>1088.99</ele>
        <time>2021-06-17T09:20:52.000Z</time>
      </trkpt>
      <trkpt lat="36.625352" lon="-5.092882">
        <ele>1088.71</ele>
        <time>2021-06-17T09:20:53.000Z</time>
      </trkpt>
      <trkpt lat="36.625474" lon="-5.093041">
        <ele>1088.21</ele>
        <time>2021-06-17T09:20:54.000Z</time>
      </trkpt>
      <trkpt lat="36.625604" lon="-5.093192">
        <ele>1087.44</ele>
        <time>2021-06-17T09:20:55.000Z</time>
      </trkpt>
      <trkpt lat="36.625735" lon="-5.093342">
        <ele>1087.88</ele>
        <time>2021-06-17T09:20:56.000Z</time>
      </trkpt>
      <trkpt lat="36.62587" lon="-5.093503">
        <ele>1087.84</ele>
        <time>2021-06-17T09:20:57.000Z</time>
      </trkpt>
      <trkpt lat="36.626025" lon="-5.093657">
        <ele>1087.19</ele>
        <time>2021-06-17T09:20:58.000Z</time>
      </trkpt>
      <trkpt lat="36.626174" lon="-5.093808">
        <ele>1087.09</ele>
        <time>2021-06-17T09:20:59.000Z</time>
      </trkpt>
      <trkpt lat="36.62633" lon="-5.093961">
        <ele>1087.78</ele>
        <time>2021-06-17T09:21:00.000Z</time>
      </trkpt>
      <trkpt lat="36.626474" lon="-5.094108">
        <ele>1086.93</ele>
        <time>2021-06-17T09:21:01.000Z</time>
      </trkpt>
      <trkpt lat="36.626627" lon="-5.09423">
        <ele>1086.66</ele>
        <time>2021-06-17T09:21:02.000Z</time>
      </trkpt>
      <trkpt lat="36.626779" lon="-5.094341">
        <ele>1086.94</ele>
        <time>2021-06-17T09:21:03.000Z</time>
      </trkpt>
      <trkpt lat="36.62693" lon="-5.094446">
        <ele>1087.79</ele>
        <time>2021-06-17T09:21:04.000Z</time>
      </trkpt>
      <trkpt lat="36.627064" lon="-5.094547">
        <ele>1087.46</ele>
        <time>2021-06-17T09:21:05.000Z</time>
      </trkpt>
      <trkpt lat="36.627197" lon="-5.094622">
        <ele>1087.04</ele>
        <time>2021-06-17T09:21:06.000Z</time>
      </trkpt>
      <trkpt lat="36.627337" lon="-5.094686">
        <ele>1086.4</ele>
        <time>2021-06-17T09:21:07.000Z</time>
      </trkpt>
      <trkpt lat="36.627472" lon="-5.094739">
        <ele>1088.15</ele>
        <time>2021-06-17T09:21:08.000Z</time>
      </trkpt>
      <trkpt lat="36.62761" lon="-5.094767">
        <ele>1089.41</ele>
        <time>2021-06-17T09:21:09.000Z</time>
      </trkpt>
      <trkpt lat="36.62776" lon="-5.094777">
        <ele>1089.65</ele>
        <time>2021-06-17T09:21:10.000Z</time>
      </trkpt>
      <trkpt lat="36.627916" lon="-5.094776">
        <ele>1089.78</ele>
        <time>2021-06-17T09:21:11.000Z</time>
      </trkpt>
      <trkpt lat="36.628084" lon="-5.094768">
        <ele>1091.14</ele>
        <time>2021-06-17T09:21:12.000Z</time>
      </trkpt>
      <trkpt lat="36.628401" lon="-5.094717">
        <ele>1092.17</ele>
        <time>2021-06-17T09:21:14.000Z</time>
      </trkpt>
      <trkpt lat="36.628701" lon="-5.094697">
        <ele>1093.18</ele>
        <time>2021-06-17T09:21:16.000Z</time>
      </trkpt>
      <trkpt lat="36.628861" lon="-5.094704">
        <ele>1093.5</ele>
        <time>2021-06-17T09:21:17.000Z</time>
      </trkpt>
      <trkpt lat="36.629017" lon="-5.09472">
        <ele>1094.05</ele>
        <time>2021-06-17T09:21:18.000Z</time>
      </trkpt>
      <trkpt lat="36.629176" lon="-5.09475">
        <ele>1094.44</ele>
        <time>2021-06-17T09:21:19.000Z</time>
      </trkpt>
      <trkpt lat="36.629331" lon="-5.094805">
        <ele>1095.57</ele>
        <time>2021-06-17T09:21:20.000Z</time>
      </trkpt>
      <trkpt lat="36.629618" lon="-5.094904">
        <ele>1096.87</ele>
        <time>2021-06-17T09:21:22.000Z</time>
      </trkpt>
      <trkpt lat="36.629767" lon="-5.094937">
        <ele>1097.82</ele>
        <time>2021-06-17T09:21:23.000Z</time>
      </trkpt>
      <trkpt lat="36.629908" lon="-5.094931">
        <ele>1098.23</ele>
        <time>2021-06-17T09:21:24.000Z</time>
      </trkpt>
      <trkpt lat="36.630045" lon="-5.094912">
        <ele>1098.85</ele>
        <time>2021-06-17T09:21:25.000Z</time>
      </trkpt>
      <trkpt lat="36.630193" lon="-5.094882">
        <ele>1100.09</ele>
        <time>2021-06-17T09:21:26.000Z</time>
      </trkpt>
      <trkpt lat="36.630464" lon="-5.094761">
        <ele>1102.99</ele>
        <time>2021-06-17T09:21:28.000Z</time>
      </trkpt>
      <trkpt lat="36.630591" lon="-5.094678">
        <ele>1102.66</ele>
        <time>2021-06-17T09:21:29.000Z</time>
      </trkpt>
      <trkpt lat="36.630711" lon="-5.094576">
        <ele>1103.48</ele>
        <time>2021-06-17T09:21:30.000Z</time>
      </trkpt>
      <trkpt lat="36.630823" lon="-5.094463">
        <ele>1103.59</ele>
        <time>2021-06-17T09:21:31.000Z</time>
      </trkpt>
      <trkpt lat="36.63092" lon="-5.094337">
        <ele>1104.14</ele>
        <time>2021-06-17T09:21:32.000Z</time>
      </trkpt>
      <trkpt lat="36.631014" lon="-5.094194">
        <ele>1105.4</ele>
        <time>2021-06-17T09:21:33.000Z</time>
      </trkpt>
      <trkpt lat="36.631088" lon="-5.094043">
        <ele>1107.72</ele>
        <time>2021-06-17T09:21:34.000Z</time>
      </trkpt>
      <trkpt lat="36.631169" lon="-5.0939">
        <ele>1108.43</ele>
        <time>2021-06-17T09:21:35.000Z</time>
      </trkpt>
      <trkpt lat="36.631241" lon="-5.093763">
        <ele>1107.99</ele>
        <time>2021-06-17T09:21:36.000Z</time>
      </trkpt>
      <trkpt lat="36.631322" lon="-5.09365">
        <ele>1108.39</ele>
        <time>2021-06-17T09:21:37.000Z</time>
      </trkpt>
      <trkpt lat="36.631413" lon="-5.093559">
        <ele>1108.74</ele>
        <time>2021-06-17T09:21:38.000Z</time>
      </trkpt>
      <trkpt lat="36.631524" lon="-5.093467">
        <ele>1108.92</ele>
        <time>2021-06-17T09:21:39.000Z</time>
      </trkpt>
      <trkpt lat="36.631684" lon="-5.093401">
        <ele>1109.81</ele>
        <time>2021-06-17T09:21:40.000Z</time>
      </trkpt>
      <trkpt lat="36.631817" lon="-5.093326">
        <ele>1110.65</ele>
        <time>2021-06-17T09:21:41.000Z</time>
      </trkpt>
      <trkpt lat="36.631963" lon="-5.093237">
        <ele>1111.95</ele>
        <time>2021-06-17T09:21:42.000Z</time>
      </trkpt>
      <trkpt lat="36.632106" lon="-5.093145">
        <ele>1113.32</ele>
        <time>2021-06-17T09:21:43.000Z</time>
      </trkpt>
      <trkpt lat="36.632229" lon="-5.093045">
        <ele>1114.81</ele>
        <time>2021-06-17T09:21:44.000Z</time>
      </trkpt>
      <trkpt lat="36.632346" lon="-5.092945">
        <ele>1116.2</ele>
        <time>2021-06-17T09:21:45.000Z</time>
      </trkpt>
      <trkpt lat="36.63246" lon="-5.092858">
        <ele>1118.79</ele>
        <time>2021-06-17T09:21:46.000Z</time>
      </trkpt>
      <trkpt lat="36.632571" lon="-5.092777">
        <ele>1120.11</ele>
        <time>2021-06-17T09:21:47.000Z</time>
      </trkpt>
      <trkpt lat="36.632679" lon="-5.092726">
        <ele>1120.07</ele>
        <time>2021-06-17T09:21:48.000Z</time>
      </trkpt>
      <trkpt lat="36.632793" lon="-5.092678">
        <ele>1120.61</ele>
        <time>2021-06-17T09:21:49.000Z</time>
      </trkpt>
      <trkpt lat="36.632917" lon="-5.092652">
        <ele>1121.81</ele>
        <time>2021-06-17T09:21:50.000Z</time>
      </trkpt>
      <trkpt lat="36.63305" lon="-5.092635">
        <ele>1123.06</ele>
        <time>2021-06-17T09:21:51.000Z</time>
      </trkpt>
      <trkpt lat="36.633171" lon="-5.092616">
        <ele>1124.43</ele>
        <time>2021-06-17T09:21:52.000Z</time>
      </trkpt>
      <trkpt lat="36.633287" lon="-5.09258">
        <ele>1125.63</ele>
        <time>2021-06-17T09:21:53.000Z</time>
      </trkpt>
      <trkpt lat="36.633401" lon="-5.092527">
        <ele>1127.02</ele>
        <time>2021-06-17T09:21:54.000Z</time>
      </trkpt>
      <trkpt lat="36.633487" lon="-5.092445">
        <ele>1128.2</ele>
        <time>2021-06-17T09:21:55.000Z</time>
      </trkpt>
      <trkpt lat="36.633584" lon="-5.092358">
        <ele>1128.82</ele>
        <time>2021-06-17T09:21:56.000Z</time>
      </trkpt>
      <trkpt lat="36.633653" lon="-5.092245">
        <ele>1129.94</ele>
        <time>2021-06-17T09:21:57.000Z</time>
      </trkpt>
      <trkpt lat="36.633705" lon="-5.092121">
        <ele>1131.68</ele>
        <time>2021-06-17T09:21:58.000Z</time>
      </trkpt>
      <trkpt lat="36.633756" lon="-5.091991">
        <ele>1131.1</ele>
        <time>2021-06-17T09:21:59.000Z</time>
      </trkpt>
      <trkpt lat="36.633764" lon="-5.091842">
        <ele>1132.09</ele>
        <time>2021-06-17T09:22:00.000Z</time>
      </trkpt>
      <trkpt lat="36.633764" lon="-5.091692">
        <ele>1132.76</ele>
        <time>2021-06-17T09:22:01.000Z</time>
      </trkpt>
      <trkpt lat="36.633756" lon="-5.09154">
        <ele>1134.01</ele>
        <time>2021-06-17T09:22:02.000Z</time>
      </trkpt>
      <trkpt lat="36.633743" lon="-5.091392">
        <ele>1135.3</ele>
        <time>2021-06-17T09:22:03.000Z</time>
      </trkpt>
      <trkpt lat="36.633738" lon="-5.091243">
        <ele>1135.46</ele>
        <time>2021-06-17T09:22:04.000Z</time>
      </trkpt>
      <trkpt lat="36.633737" lon="-5.091104">
        <ele>1137.11</ele>
        <time>2021-06-17T09:22:05.000Z</time>
      </trkpt>
      <trkpt lat="36.633747" lon="-5.090968">
        <ele>1138.51</ele>
        <time>2021-06-17T09:22:06.000Z</time>
      </trkpt>
      <trkpt lat="36.633761" lon="-5.090833">
        <ele>1138.23</ele>
        <time>2021-06-17T09:22:07.000Z</time>
      </trkpt>
      <trkpt lat="36.633799" lon="-5.090704">
        <ele>1137.99</ele>
        <time>2021-06-17T09:22:08.000Z</time>
      </trkpt>
      <trkpt lat="36.633849" lon="-5.090584">
        <ele>1139.02</ele>
        <time>2021-06-17T09:22:09.000Z</time>
      </trkpt>
      <trkpt lat="36.633928" lon="-5.090469">
        <ele>1139.91</ele>
        <time>2021-06-17T09:22:10.000Z</time>
      </trkpt>
      <trkpt lat="36.634012" lon="-5.09037">
        <ele>1140.19</ele>
        <time>2021-06-17T09:22:11.000Z</time>
      </trkpt>
      <trkpt lat="36.634098" lon="-5.090279">
        <ele>1143.25</ele>
        <time>2021-06-17T09:22:12.000Z</time>
      </trkpt>
      <trkpt lat="36.634225" lon="-5.090223">
        <ele>1145.22</ele>
        <time>2021-06-17T09:22:13.000Z</time>
      </trkpt>
      <trkpt lat="36.634348" lon="-5.090189">
        <ele>1145.45</ele>
        <time>2021-06-17T09:22:14.000Z</time>
      </trkpt>
      <trkpt lat="36.634475" lon="-5.090179">
        <ele>1145.62</ele>
        <time>2021-06-17T09:22:15.000Z</time>
      </trkpt>
      <trkpt lat="36.634602" lon="-5.090184">
        <ele>1147.01</ele>
        <time>2021-06-17T09:22:16.000Z</time>
      </trkpt>
      <trkpt lat="36.634744" lon="-5.090199">
        <ele>1147.47</ele>
        <time>2021-06-17T09:22:17.000Z</time>
      </trkpt>
      <trkpt lat="36.634879" lon="-5.090212">
        <ele>1147.23</ele>
        <time>2021-06-17T09:22:18.000Z</time>
      </trkpt>
      <trkpt lat="36.635019" lon="-5.090247">
        <ele>1147.92</ele>
        <time>2021-06-17T09:22:19.000Z</time>
      </trkpt>
      <trkpt lat="36.635166" lon="-5.090274">
        <ele>1149.01</ele>
        <time>2021-06-17T09:22:20.000Z</time>
      </trkpt>
      <trkpt lat="36.635313" lon="-5.0903">
        <ele>1149.35</ele>
        <time>2021-06-17T09:22:21.000Z</time>
      </trkpt>
      <trkpt lat="36.635458" lon="-5.090325">
        <ele>1150.11</ele>
        <time>2021-06-17T09:22:22.000Z</time>
      </trkpt>
      <trkpt lat="36.635606" lon="-5.090352">
        <ele>1151.31</ele>
        <time>2021-06-17T09:22:23.000Z</time>
      </trkpt>
      <trkpt lat="36.635761" lon="-5.090382">
        <ele>1151.64</ele>
        <time>2021-06-17T09:22:24.000Z</time>
      </trkpt>
      <trkpt lat="36.635915" lon="-5.090395">
        <ele>1152.55</ele>
        <time>2021-06-17T09:22:25.000Z</time>
      </trkpt>
      <trkpt lat="36.636076" lon="-5.090406">
        <ele>1153.22</ele>
        <time>2021-06-17T09:22:26.000Z</time>
      </trkpt>
      <trkpt lat="36.636235" lon="-5.090415">
        <ele>1154.2</ele>
        <time>2021-06-17T09:22:27.000Z</time>
      </trkpt>
      <trkpt lat="36.63639" lon="-5.090422">
        <ele>1154.83</ele>
        <time>2021-06-17T09:22:28.000Z</time>
      </trkpt>
      <trkpt lat="36.63655" lon="-5.090417">
        <ele>1155.14</ele>
        <time>2021-06-17T09:22:29.000Z</time>
      </trkpt>
      <trkpt lat="36.636705" lon="-5.090416">
        <ele>1154.82</ele>
        <time>2021-06-17T09:22:30.000Z</time>
      </trkpt>
      <trkpt lat="36.636865" lon="-5.090402">
        <ele>1156.11</ele>
        <time>2021-06-17T09:22:31.000Z</time>
      </trkpt>
      <trkpt lat="36.637023" lon="-5.090381">
        <ele>1157.61</ele>
        <time>2021-06-17T09:22:32.000Z</time>
      </trkpt>
      <trkpt lat="36.637173" lon="-5.090345">
        <ele>1158.67</ele>
        <time>2021-06-17T09:22:33.000Z</time>
      </trkpt>
      <trkpt lat="36.637321" lon="-5.090303">
        <ele>1160.12</ele>
        <time>2021-06-17T09:22:34.000Z</time>
      </trkpt>
      <trkpt lat="36.637473" lon="-5.090251">
        <ele>1160.15</ele>
        <time>2021-06-17T09:22:35.000Z</time>
      </trkpt>
      <trkpt lat="36.637616" lon="-5.090198">
        <ele>1161.51</ele>
        <time>2021-06-17T09:22:36.000Z</time>
      </trkpt>
      <trkpt lat="36.637751" lon="-5.090139">
        <ele>1162.17</ele>
        <time>2021-06-17T09:22:37.000Z</time>
      </trkpt>
      <trkpt lat="36.63788" lon="-5.090069">
        <ele>1162.64</ele>
        <time>2021-06-17T09:22:38.000Z</time>
      </trkpt>
      <trkpt lat="36.638009" lon="-5.090001">
        <ele>1162.74</ele>
        <time>2021-06-17T09:22:39.000Z</time>
      </trkpt>
      <trkpt lat="36.638123" lon="-5.089936">
        <ele>1163.32</ele>
        <time>2021-06-17T09:22:40.000Z</time>
      </trkpt>
      <trkpt lat="36.638239" lon="-5.089882">
        <ele>1164.24</ele>
        <time>2021-06-17T09:22:41.000Z</time>
      </trkpt>
      <trkpt lat="36.638353" lon="-5.089831">
        <ele>1164.43</ele>
        <time>2021-06-17T09:22:42.000Z</time>
      </trkpt>
      <trkpt lat="36.638465" lon="-5.089788">
        <ele>1164.22</ele>
        <time>2021-06-17T09:22:43.000Z</time>
      </trkpt>
      <trkpt lat="36.638576" lon="-5.089756">
        <ele>1164.68</ele>
        <time>2021-06-17T09:22:44.000Z</time>
      </trkpt>
      <trkpt lat="36.638684" lon="-5.089732">
        <ele>1165.34</ele>
        <time>2021-06-17T09:22:45.000Z</time>
      </trkpt>
      <trkpt lat="36.638773" lon="-5.08971">
        <ele>1165.86</ele>
        <time>2021-06-17T09:22:46.000Z</time>
      </trkpt>
      <trkpt lat="36.638845" lon="-5.089691">
        <ele>1166.14</ele>
        <time>2021-06-17T09:22:47.000Z</time>
      </trkpt>
      <trkpt lat="36.638893" lon="-5.089666">
        <ele>1167.68</ele>
        <time>2021-06-17T09:22:48.000Z</time>
      </trkpt>
      <trkpt lat="36.63894" lon="-5.089653">
        <ele>1166.8</ele>
        <time>2021-06-17T09:22:49.000Z</time>
      </trkpt>
      <trkpt lat="36.638966" lon="-5.089643">
        <ele>1166.21</ele>
        <time>2021-06-17T09:22:50.000Z</time>
      </trkpt>
      <trkpt lat="36.638984" lon="-5.089639">
        <ele>1166.68</ele>
        <time>2021-06-17T09:22:51.000Z</time>
      </trkpt>
      <trkpt lat="36.638979" lon="-5.08963">
        <ele>1166.06</ele>
        <time>2021-06-17T09:22:52.000Z</time>
      </trkpt>
      <trkpt lat="36.638986" lon="-5.089638">
        <ele>1168.39</ele>
        <time>2021-06-17T09:22:59.000Z</time>
      </trkpt>
      <trkpt lat="36.638983" lon="-5.089649">
        <ele>1169.38</ele>
        <time>2021-06-17T09:23:07.000Z</time>
      </trkpt>
      <trkpt lat="36.638996" lon="-5.08965">
        <ele>1170.79</ele>
        <time>2021-06-17T09:23:08.000Z</time>
      </trkpt>
      <trkpt lat="36.638988" lon="-5.089656">
        <ele>1171.59</ele>
        <time>2021-06-17T09:23:09.000Z</time>
      </trkpt>
      <trkpt lat="36.638995" lon="-5.089663">
        <ele>1172.17</ele>
        <time>2021-06-17T09:23:10.000Z</time>
      </trkpt>
      <trkpt lat="36.638987" lon="-5.089646">
        <ele>1173.73</ele>
        <time>2021-06-17T09:23:14.000Z</time>
      </trkpt>
      <trkpt lat="36.638979" lon="-5.089638">
        <ele>1173.61</ele>
        <time>2021-06-17T09:23:20.000Z</time>
      </trkpt>
      <trkpt lat="36.638977" lon="-5.089617">
        <ele>1173.17</ele>
        <time>2021-06-17T09:23:52.000Z</time>
      </trkpt>
      <trkpt lat="36.638992" lon="-5.089616">
        <ele>1172.32</ele>
        <time>2021-06-17T09:23:55.000Z</time>
      </trkpt>
      <trkpt lat="36.638986" lon="-5.089627">
        <ele>1172.28</ele>
        <time>2021-06-17T09:24:01.000Z</time>
      </trkpt>
      <trkpt lat="36.638971" lon="-5.089623">
        <ele>1170.85</ele>
        <time>2021-06-17T09:24:04.000Z</time>
      </trkpt>
      <trkpt lat="36.63898" lon="-5.089638">
        <ele>1172.43</ele>
        <time>2021-06-17T09:24:09.000Z</time>
      </trkpt>
      <trkpt lat="36.63898" lon="-5.089652">
        <ele>1173.8</ele>
        <time>2021-06-17T09:24:14.000Z</time>
      </trkpt>
      <trkpt lat="36.639009" lon="-5.089663">
        <ele>1173.21</ele>
        <time>2021-06-17T09:24:39.000Z</time>
      </trkpt>
      <trkpt lat="36.639047" lon="-5.089684">
        <ele>1173.39</ele>
        <time>2021-06-17T09:24:40.000Z</time>
      </trkpt>
      <trkpt lat="36.639112" lon="-5.08974">
        <ele>1174.08</ele>
        <time>2021-06-17T09:24:41.000Z</time>
      </trkpt>
      <trkpt lat="36.639161" lon="-5.089778">
        <ele>1173.67</ele>
        <time>2021-06-17T09:24:42.000Z</time>
      </trkpt>
      <trkpt lat="36.63923" lon="-5.089821">
        <ele>1173.12</ele>
        <time>2021-06-17T09:24:43.000Z</time>
      </trkpt>
      <trkpt lat="36.639316" lon="-5.08987">
        <ele>1172.3</ele>
        <time>2021-06-17T09:24:44.000Z</time>
      </trkpt>
      <trkpt lat="36.639409" lon="-5.089922">
        <ele>1171.14</ele>
        <time>2021-06-17T09:24:45.000Z</time>
      </trkpt>
      <trkpt lat="36.639521" lon="-5.089988">
        <ele>1170.39</ele>
        <time>2021-06-17T09:24:46.000Z</time>
      </trkpt>
      <trkpt lat="36.639628" lon="-5.090068">
        <ele>1170.74</ele>
        <time>2021-06-17T09:24:47.000Z</time>
      </trkpt>
      <trkpt lat="36.63974" lon="-5.090156">
        <ele>1170.83</ele>
        <time>2021-06-17T09:24:48.000Z</time>
      </trkpt>
      <trkpt lat="36.639862" lon="-5.090248">
        <ele>1172.09</ele>
        <time>2021-06-17T09:24:49.000Z</time>
      </trkpt>
      <trkpt lat="36.639977" lon="-5.090329">
        <ele>1172.42</ele>
        <time>2021-06-17T09:24:50.000Z</time>
      </trkpt>
      <trkpt lat="36.640091" lon="-5.090403">
        <ele>1173</ele>
        <time>2021-06-17T09:24:51.000Z</time>
      </trkpt>
      <trkpt lat="36.640209" lon="-5.090461">
        <ele>1173.59</ele>
        <time>2021-06-17T09:24:52.000Z</time>
      </trkpt>
      <trkpt lat="36.640328" lon="-5.090508">
        <ele>1172.81</ele>
        <time>2021-06-17T09:24:53.000Z</time>
      </trkpt>
      <trkpt lat="36.640457" lon="-5.090538">
        <ele>1172.61</ele>
        <time>2021-06-17T09:24:54.000Z</time>
      </trkpt>
      <trkpt lat="36.640591" lon="-5.090554">
        <ele>1172.14</ele>
        <time>2021-06-17T09:24:55.000Z</time>
      </trkpt>
      <trkpt lat="36.640731" lon="-5.09055">
        <ele>1172.03</ele>
        <time>2021-06-17T09:24:56.000Z</time>
      </trkpt>
      <trkpt lat="36.640865" lon="-5.09053">
        <ele>1172.26</ele>
        <time>2021-06-17T09:24:57.000Z</time>
      </trkpt>
      <trkpt lat="36.640995" lon="-5.090487">
        <ele>1172.35</ele>
        <time>2021-06-17T09:24:58.000Z</time>
      </trkpt>
      <trkpt lat="36.641126" lon="-5.090433">
        <ele>1173.14</ele>
        <time>2021-06-17T09:24:59.000Z</time>
      </trkpt>
      <trkpt lat="36.641257" lon="-5.090351">
        <ele>1173.43</ele>
        <time>2021-06-17T09:25:00.000Z</time>
      </trkpt>
      <trkpt lat="36.641382" lon="-5.090251">
        <ele>1173.53</ele>
        <time>2021-06-17T09:25:01.000Z</time>
      </trkpt>
      <trkpt lat="36.641496" lon="-5.090142">
        <ele>1173.54</ele>
        <time>2021-06-17T09:25:02.000Z</time>
      </trkpt>
      <trkpt lat="36.641628" lon="-5.090022">
        <ele>1174.14</ele>
        <time>2021-06-17T09:25:03.000Z</time>
      </trkpt>
      <trkpt lat="36.641753" lon="-5.089897">
        <ele>1172.9</ele>
        <time>2021-06-17T09:25:04.000Z</time>
      </trkpt>
      <trkpt lat="36.641861" lon="-5.089768">
        <ele>1173.82</ele>
        <time>2021-06-17T09:25:05.000Z</time>
      </trkpt>
      <trkpt lat="36.641976" lon="-5.089637">
        <ele>1173.75</ele>
        <time>2021-06-17T09:25:06.000Z</time>
      </trkpt>
      <trkpt lat="36.642082" lon="-5.089498">
        <ele>1173.93</ele>
        <time>2021-06-17T09:25:07.000Z</time>
      </trkpt>
      <trkpt lat="36.642167" lon="-5.089358">
        <ele>1175.49</ele>
        <time>2021-06-17T09:25:08.000Z</time>
      </trkpt>
      <trkpt lat="36.642256" lon="-5.089219">
        <ele>1175.88</ele>
        <time>2021-06-17T09:25:09.000Z</time>
      </trkpt>
      <trkpt lat="36.642325" lon="-5.089067">
        <ele>1176.13</ele>
        <time>2021-06-17T09:25:10.000Z</time>
      </trkpt>
      <trkpt lat="36.642383" lon="-5.088919">
        <ele>1175.92</ele>
        <time>2021-06-17T09:25:11.000Z</time>
      </trkpt>
      <trkpt lat="36.64245" lon="-5.088786">
        <ele>1176.48</ele>
        <time>2021-06-17T09:25:12.000Z</time>
      </trkpt>
      <trkpt lat="36.642502" lon="-5.088649">
        <ele>1175.84</ele>
        <time>2021-06-17T09:25:13.000Z</time>
      </trkpt>
      <trkpt lat="36.642561" lon="-5.08852">
        <ele>1175.51</ele>
        <time>2021-06-17T09:25:14.000Z</time>
      </trkpt>
      <trkpt lat="36.642626" lon="-5.088401">
        <ele>1175.28</ele>
        <time>2021-06-17T09:25:15.000Z</time>
      </trkpt>
      <trkpt lat="36.642703" lon="-5.088296">
        <ele>1174.89</ele>
        <time>2021-06-17T09:25:16.000Z</time>
      </trkpt>
      <trkpt lat="36.64279" lon="-5.088207">
        <ele>1175.05</ele>
        <time>2021-06-17T09:25:17.000Z</time>
      </trkpt>
      <trkpt lat="36.64286" lon="-5.088146">
        <ele>1170.78</ele>
        <time>2021-06-17T09:25:18.000Z</time>
      </trkpt>
      <trkpt lat="36.642956" lon="-5.088094">
        <ele>1170.64</ele>
        <time>2021-06-17T09:25:19.000Z</time>
      </trkpt>
      <trkpt lat="36.643094" lon="-5.088065">
        <ele>1171.21</ele>
        <time>2021-06-17T09:25:20.000Z</time>
      </trkpt>
      <trkpt lat="36.643237" lon="-5.088048">
        <ele>1171.84</ele>
        <time>2021-06-17T09:25:21.000Z</time>
      </trkpt>
      <trkpt lat="36.643369" lon="-5.088049">
        <ele>1172.83</ele>
        <time>2021-06-17T09:25:22.000Z</time>
      </trkpt>
      <trkpt lat="36.643494" lon="-5.088072">
        <ele>1171.49</ele>
        <time>2021-06-17T09:25:23.000Z</time>
      </trkpt>
      <trkpt lat="36.64359" lon="-5.088113">
        <ele>1171.88</ele>
        <time>2021-06-17T09:25:24.000Z</time>
      </trkpt>
      <trkpt lat="36.64369" lon="-5.088177">
        <ele>1172.51</ele>
        <time>2021-06-17T09:25:25.000Z</time>
      </trkpt>
      <trkpt lat="36.643796" lon="-5.088268">
        <ele>1173.17</ele>
        <time>2021-06-17T09:25:26.000Z</time>
      </trkpt>
      <trkpt lat="36.64388" lon="-5.08839">
        <ele>1172.07</ele>
        <time>2021-06-17T09:25:27.000Z</time>
      </trkpt>
      <trkpt lat="36.643978" lon="-5.088531">
        <ele>1172.05</ele>
        <time>2021-06-17T09:25:28.000Z</time>
      </trkpt>
      <trkpt lat="36.644072" lon="-5.088681">
        <ele>1171.85</ele>
        <time>2021-06-17T09:25:29.000Z</time>
      </trkpt>
      <trkpt lat="36.644166" lon="-5.088833">
        <ele>1172.09</ele>
        <time>2021-06-17T09:25:30.000Z</time>
      </trkpt>
      <trkpt lat="36.644252" lon="-5.088977">
        <ele>1172</ele>
        <time>2021-06-17T09:25:31.000Z</time>
      </trkpt>
      <trkpt lat="36.644344" lon="-5.089103">
        <ele>1171.73</ele>
        <time>2021-06-17T09:25:32.000Z</time>
      </trkpt>
      <trkpt lat="36.644434" lon="-5.089214">
        <ele>1171.61</ele>
        <time>2021-06-17T09:25:33.000Z</time>
      </trkpt>
      <trkpt lat="36.644535" lon="-5.089306">
        <ele>1170.69</ele>
        <time>2021-06-17T09:25:34.000Z</time>
      </trkpt>
      <trkpt lat="36.644647" lon="-5.089375">
        <ele>1170.53</ele>
        <time>2021-06-17T09:25:35.000Z</time>
      </trkpt>
      <trkpt lat="36.644772" lon="-5.089429">
        <ele>1170.04</ele>
        <time>2021-06-17T09:25:36.000Z</time>
      </trkpt>
      <trkpt lat="36.644905" lon="-5.08946">
        <ele>1169.19</ele>
        <time>2021-06-17T09:25:37.000Z</time>
      </trkpt>
      <trkpt lat="36.645047" lon="-5.089479">
        <ele>1168.72</ele>
        <time>2021-06-17T09:25:38.000Z</time>
      </trkpt>
      <trkpt lat="36.64519" lon="-5.089494">
        <ele>1168.75</ele>
        <time>2021-06-17T09:25:39.000Z</time>
      </trkpt>
      <trkpt lat="36.645337" lon="-5.089517">
        <ele>1169.22</ele>
        <time>2021-06-17T09:25:40.000Z</time>
      </trkpt>
      <trkpt lat="36.645475" lon="-5.089538">
        <ele>1169.85</ele>
        <time>2021-06-17T09:25:41.000Z</time>
      </trkpt>
      <trkpt lat="36.645628" lon="-5.089566">
        <ele>1170.16</ele>
        <time>2021-06-17T09:25:42.000Z</time>
      </trkpt>
      <trkpt lat="36.645761" lon="-5.089611">
        <ele>1169.33</ele>
        <time>2021-06-17T09:25:43.000Z</time>
      </trkpt>
      <trkpt lat="36.645905" lon="-5.089664">
        <ele>1168.92</ele>
        <time>2021-06-17T09:25:44.000Z</time>
      </trkpt>
      <trkpt lat="36.646049" lon="-5.089731">
        <ele>1168.05</ele>
        <time>2021-06-17T09:25:45.000Z</time>
      </trkpt>
      <trkpt lat="36.646208" lon="-5.089823">
        <ele>1167.57</ele>
        <time>2021-06-17T09:25:46.000Z</time>
      </trkpt>
      <trkpt lat="36.646361" lon="-5.089932">
        <ele>1167.08</ele>
        <time>2021-06-17T09:25:47.000Z</time>
      </trkpt>
      <trkpt lat="36.646515" lon="-5.090036">
        <ele>1168.09</ele>
        <time>2021-06-17T09:25:48.000Z</time>
      </trkpt>
      <trkpt lat="36.646672" lon="-5.090143">
        <ele>1166.88</ele>
        <time>2021-06-17T09:25:49.000Z</time>
      </trkpt>
      <trkpt lat="36.646837" lon="-5.090262">
        <ele>1166.57</ele>
        <time>2021-06-17T09:25:50.000Z</time>
      </trkpt>
      <trkpt lat="36.646986" lon="-5.090356">
        <ele>1166.19</ele>
        <time>2021-06-17T09:25:51.000Z</time>
      </trkpt>
      <trkpt lat="36.647137" lon="-5.090457">
        <ele>1165.54</ele>
        <time>2021-06-17T09:25:52.000Z</time>
      </trkpt>
      <trkpt lat="36.647297" lon="-5.090557">
        <ele>1164.55</ele>
        <time>2021-06-17T09:25:53.000Z</time>
      </trkpt>
      <trkpt lat="36.647467" lon="-5.090653">
        <ele>1163.75</ele>
        <time>2021-06-17T09:25:54.000Z</time>
      </trkpt>
      <trkpt lat="36.647631" lon="-5.090752">
        <ele>1162.49</ele>
        <time>2021-06-17T09:25:55.000Z</time>
      </trkpt>
      <trkpt lat="36.647801" lon="-5.090844">
        <ele>1161.42</ele>
        <time>2021-06-17T09:25:56.000Z</time>
      </trkpt>
      <trkpt lat="36.647968" lon="-5.090916">
        <ele>1159.38</ele>
        <time>2021-06-17T09:25:57.000Z</time>
      </trkpt>
      <trkpt lat="36.64813" lon="-5.090996">
        <ele>1158.93</ele>
        <time>2021-06-17T09:25:58.000Z</time>
      </trkpt>
      <trkpt lat="36.648305" lon="-5.091073">
        <ele>1158.21</ele>
        <time>2021-06-17T09:25:59.000Z</time>
      </trkpt>
      <trkpt lat="36.648482" lon="-5.091131">
        <ele>1157.3</ele>
        <time>2021-06-17T09:26:00.000Z</time>
      </trkpt>
      <trkpt lat="36.648662" lon="-5.091191">
        <ele>1156.92</ele>
        <time>2021-06-17T09:26:01.000Z</time>
      </trkpt>
      <trkpt lat="36.648849" lon="-5.091253">
        <ele>1156.18</ele>
        <time>2021-06-17T09:26:02.000Z</time>
      </trkpt>
      <trkpt lat="36.64903" lon="-5.091294">
        <ele>1154.92</ele>
        <time>2021-06-17T09:26:03.000Z</time>
      </trkpt>
      <trkpt lat="36.649214" lon="-5.091323">
        <ele>1153.63</ele>
        <time>2021-06-17T09:26:04.000Z</time>
      </trkpt>
      <trkpt lat="36.649395" lon="-5.09137">
        <ele>1152.58</ele>
        <time>2021-06-17T09:26:05.000Z</time>
      </trkpt>
      <trkpt lat="36.649568" lon="-5.091387">
        <ele>1150.53</ele>
        <time>2021-06-17T09:26:06.000Z</time>
      </trkpt>
      <trkpt lat="36.649755" lon="-5.091406">
        <ele>1149.19</ele>
        <time>2021-06-17T09:26:07.000Z</time>
      </trkpt>
      <trkpt lat="36.64995" lon="-5.091438">
        <ele>1149.25</ele>
        <time>2021-06-17T09:26:08.000Z</time>
      </trkpt>
      <trkpt lat="36.650143" lon="-5.091472">
        <ele>1149.14</ele>
        <time>2021-06-17T09:26:09.000Z</time>
      </trkpt>
      <trkpt lat="36.650332" lon="-5.091485">
        <ele>1148.03</ele>
        <time>2021-06-17T09:26:10.000Z</time>
      </trkpt>
      <trkpt lat="36.650526" lon="-5.091512">
        <ele>1146.83</ele>
        <time>2021-06-17T09:26:11.000Z</time>
      </trkpt>
      <trkpt lat="36.650722" lon="-5.09154">
        <ele>1146.78</ele>
        <time>2021-06-17T09:26:12.000Z</time>
      </trkpt>
      <trkpt lat="36.650921" lon="-5.091562">
        <ele>1146.05</ele>
        <time>2021-06-17T09:26:13.000Z</time>
      </trkpt>
      <trkpt lat="36.651102" lon="-5.091598">
        <ele>1144.82</ele>
        <time>2021-06-17T09:26:14.000Z</time>
      </trkpt>
      <trkpt lat="36.651295" lon="-5.091625">
        <ele>1145.38</ele>
        <time>2021-06-17T09:26:15.000Z</time>
      </trkpt>
      <trkpt lat="36.651476" lon="-5.091644">
        <ele>1144.67</ele>
        <time>2021-06-17T09:26:16.000Z</time>
      </trkpt>
      <trkpt lat="36.651662" lon="-5.091672">
        <ele>1144.4</ele>
        <time>2021-06-17T09:26:17.000Z</time>
      </trkpt>
      <trkpt lat="36.651839" lon="-5.091689">
        <ele>1144.78</ele>
        <time>2021-06-17T09:26:18.000Z</time>
      </trkpt>
      <trkpt lat="36.652025" lon="-5.091718">
        <ele>1144.16</ele>
        <time>2021-06-17T09:26:19.000Z</time>
      </trkpt>
      <trkpt lat="36.652211" lon="-5.09174">
        <ele>1143.28</ele>
        <time>2021-06-17T09:26:20.000Z</time>
      </trkpt>
      <trkpt lat="36.652388" lon="-5.09177">
        <ele>1143.05</ele>
        <time>2021-06-17T09:26:21.000Z</time>
      </trkpt>
      <trkpt lat="36.652573" lon="-5.091799">
        <ele>1144.11</ele>
        <time>2021-06-17T09:26:22.000Z</time>
      </trkpt>
      <trkpt lat="36.652735" lon="-5.091827">
        <ele>1143.67</ele>
        <time>2021-06-17T09:26:23.000Z</time>
      </trkpt>
      <trkpt lat="36.652898" lon="-5.091851">
        <ele>1143.62</ele>
        <time>2021-06-17T09:26:24.000Z</time>
      </trkpt>
      <trkpt lat="36.653043" lon="-5.091873">
        <ele>1143.34</ele>
        <time>2021-06-17T09:26:25.000Z</time>
      </trkpt>
      <trkpt lat="36.653189" lon="-5.091887">
        <ele>1143.25</ele>
        <time>2021-06-17T09:26:26.000Z</time>
      </trkpt>
      <trkpt lat="36.653331" lon="-5.091913">
        <ele>1143.59</ele>
        <time>2021-06-17T09:26:27.000Z</time>
      </trkpt>
      <trkpt lat="36.653469" lon="-5.091942">
        <ele>1142.73</ele>
        <time>2021-06-17T09:26:28.000Z</time>
      </trkpt>
      <trkpt lat="36.653599" lon="-5.091984">
        <ele>1141.08</ele>
        <time>2021-06-17T09:26:29.000Z</time>
      </trkpt>
      <trkpt lat="36.653722" lon="-5.092044">
        <ele>1139.97</ele>
        <time>2021-06-17T09:26:30.000Z</time>
      </trkpt>
      <trkpt lat="36.653841" lon="-5.092118">
        <ele>1139.67</ele>
        <time>2021-06-17T09:26:31.000Z</time>
      </trkpt>
      <trkpt lat="36.65397" lon="-5.092211">
        <ele>1139.38</ele>
        <time>2021-06-17T09:26:32.000Z</time>
      </trkpt>
      <trkpt lat="36.6541" lon="-5.092317">
        <ele>1139.22</ele>
        <time>2021-06-17T09:26:33.000Z</time>
      </trkpt>
      <trkpt lat="36.654227" lon="-5.092434">
        <ele>1138.58</ele>
        <time>2021-06-17T09:26:34.000Z</time>
      </trkpt>
      <trkpt lat="36.654348" lon="-5.09254">
        <ele>1137.81</ele>
        <time>2021-06-17T09:26:35.000Z</time>
      </trkpt>
      <trkpt lat="36.654472" lon="-5.092647">
        <ele>1137.3</ele>
        <time>2021-06-17T09:26:36.000Z</time>
      </trkpt>
      <trkpt lat="36.654602" lon="-5.092743">
        <ele>1137</ele>
        <time>2021-06-17T09:26:37.000Z</time>
      </trkpt>
      <trkpt lat="36.654733" lon="-5.092827">
        <ele>1136.59</ele>
        <time>2021-06-17T09:26:38.000Z</time>
      </trkpt>
      <trkpt lat="36.654868" lon="-5.092896">
        <ele>1135.44</ele>
        <time>2021-06-17T09:26:39.000Z</time>
      </trkpt>
      <trkpt lat="36.655005" lon="-5.092963">
        <ele>1135.57</ele>
        <time>2021-06-17T09:26:40.000Z</time>
      </trkpt>
      <trkpt lat="36.655144" lon="-5.093016">
        <ele>1135.52</ele>
        <time>2021-06-17T09:26:41.000Z</time>
      </trkpt>
      <trkpt lat="36.655285" lon="-5.093055">
        <ele>1134.85</ele>
        <time>2021-06-17T09:26:42.000Z</time>
      </trkpt>
      <trkpt lat="36.655416" lon="-5.093102">
        <ele>1135.06</ele>
        <time>2021-06-17T09:26:43.000Z</time>
      </trkpt>
      <trkpt lat="36.655545" lon="-5.093156">
        <ele>1134.69</ele>
        <time>2021-06-17T09:26:44.000Z</time>
      </trkpt>
      <trkpt lat="36.655674" lon="-5.093217">
        <ele>1135.26</ele>
        <time>2021-06-17T09:26:45.000Z</time>
      </trkpt>
      <trkpt lat="36.65579" lon="-5.093301">
        <ele>1134.81</ele>
        <time>2021-06-17T09:26:46.000Z</time>
      </trkpt>
      <trkpt lat="36.655906" lon="-5.093399">
        <ele>1134.66</ele>
        <time>2021-06-17T09:26:47.000Z</time>
      </trkpt>
      <trkpt lat="36.656004" lon="-5.093512">
        <ele>1134.19</ele>
        <time>2021-06-17T09:26:48.000Z</time>
      </trkpt>
      <trkpt lat="36.656099" lon="-5.093622">
        <ele>1134.56</ele>
        <time>2021-06-17T09:26:49.000Z</time>
      </trkpt>
      <trkpt lat="36.656178" lon="-5.093773">
        <ele>1134.2</ele>
        <time>2021-06-17T09:26:50.000Z</time>
      </trkpt>
      <trkpt lat="36.656242" lon="-5.093939">
        <ele>1134.17</ele>
        <time>2021-06-17T09:26:51.000Z</time>
      </trkpt>
      <trkpt lat="36.656294" lon="-5.094104">
        <ele>1133.65</ele>
        <time>2021-06-17T09:26:52.000Z</time>
      </trkpt>
      <trkpt lat="36.656323" lon="-5.094287">
        <ele>1133.28</ele>
        <time>2021-06-17T09:26:53.000Z</time>
      </trkpt>
      <trkpt lat="36.656338" lon="-5.094481">
        <ele>1133.06</ele>
        <time>2021-06-17T09:26:54.000Z</time>
      </trkpt>
      <trkpt lat="36.656342" lon="-5.094684">
        <ele>1132.79</ele>
        <time>2021-06-17T09:26:55.000Z</time>
      </trkpt>
      <trkpt lat="36.656344" lon="-5.094881">
        <ele>1132.43</ele>
        <time>2021-06-17T09:26:56.000Z</time>
      </trkpt>
      <trkpt lat="36.65633" lon="-5.095106">
        <ele>1133.02</ele>
        <time>2021-06-17T09:26:57.000Z</time>
      </trkpt>
      <trkpt lat="36.656325" lon="-5.095324">
        <ele>1133.14</ele>
        <time>2021-06-17T09:26:58.000Z</time>
      </trkpt>
      <trkpt lat="36.65632" lon="-5.09554">
        <ele>1133.29</ele>
        <time>2021-06-17T09:26:59.000Z</time>
      </trkpt>
      <trkpt lat="36.656308" lon="-5.095761">
        <ele>1133.36</ele>
        <time>2021-06-17T09:27:00.000Z</time>
      </trkpt>
      <trkpt lat="36.656292" lon="-5.09596">
        <ele>1133.17</ele>
        <time>2021-06-17T09:27:01.000Z</time>
      </trkpt>
      <trkpt lat="36.656282" lon="-5.096148">
        <ele>1133.67</ele>
        <time>2021-06-17T09:27:02.000Z</time>
      </trkpt>
      <trkpt lat="36.656274" lon="-5.096341">
        <ele>1133.74</ele>
        <time>2021-06-17T09:27:03.000Z</time>
      </trkpt>
      <trkpt lat="36.656278" lon="-5.09651">
        <ele>1134.37</ele>
        <time>2021-06-17T09:27:04.000Z</time>
      </trkpt>
      <trkpt lat="36.65628" lon="-5.09669">
        <ele>1134.85</ele>
        <time>2021-06-17T09:27:05.000Z</time>
      </trkpt>
      <trkpt lat="36.656304" lon="-5.096871">
        <ele>1134.71</ele>
        <time>2021-06-17T09:27:06.000Z</time>
      </trkpt>
      <trkpt lat="36.656347" lon="-5.097053">
        <ele>1134.61</ele>
        <time>2021-06-17T09:27:07.000Z</time>
      </trkpt>
      <trkpt lat="36.656398" lon="-5.097232">
        <ele>1134.74</ele>
        <time>2021-06-17T09:27:08.000Z</time>
      </trkpt>
      <trkpt lat="36.656456" lon="-5.097402">
        <ele>1134.57</ele>
        <time>2021-06-17T09:27:09.000Z</time>
      </trkpt>
      <trkpt lat="36.656523" lon="-5.097583">
        <ele>1134.64</ele>
        <time>2021-06-17T09:27:10.000Z</time>
      </trkpt>
      <trkpt lat="36.656597" lon="-5.097746">
        <ele>1134.22</ele>
        <time>2021-06-17T09:27:11.000Z</time>
      </trkpt>
      <trkpt lat="36.656672" lon="-5.097895">
        <ele>1133.92</ele>
        <time>2021-06-17T09:27:12.000Z</time>
      </trkpt>
      <trkpt lat="36.656752" lon="-5.098053">
        <ele>1134.36</ele>
        <time>2021-06-17T09:27:13.000Z</time>
      </trkpt>
      <trkpt lat="36.656847" lon="-5.098192">
        <ele>1132.32</ele>
        <time>2021-06-17T09:27:14.000Z</time>
      </trkpt>
      <trkpt lat="36.65695" lon="-5.098344">
        <ele>1132.7</ele>
        <time>2021-06-17T09:27:15.000Z</time>
      </trkpt>
      <trkpt lat="36.657055" lon="-5.098469">
        <ele>1131.94</ele>
        <time>2021-06-17T09:27:16.000Z</time>
      </trkpt>
      <trkpt lat="36.657169" lon="-5.098576">
        <ele>1130.97</ele>
        <time>2021-06-17T09:27:17.000Z</time>
      </trkpt>
      <trkpt lat="36.657297" lon="-5.098701">
        <ele>1132.23</ele>
        <time>2021-06-17T09:27:18.000Z</time>
      </trkpt>
      <trkpt lat="36.657426" lon="-5.098817">
        <ele>1131.31</ele>
        <time>2021-06-17T09:27:19.000Z</time>
      </trkpt>
      <trkpt lat="36.657566" lon="-5.098926">
        <ele>1131.33</ele>
        <time>2021-06-17T09:27:20.000Z</time>
      </trkpt>
      <trkpt lat="36.657708" lon="-5.099034">
        <ele>1131.36</ele>
        <time>2021-06-17T09:27:21.000Z</time>
      </trkpt>
      <trkpt lat="36.657862" lon="-5.099116">
        <ele>1131.67</ele>
        <time>2021-06-17T09:27:22.000Z</time>
      </trkpt>
      <trkpt lat="36.658018" lon="-5.099181">
        <ele>1130.61</ele>
        <time>2021-06-17T09:27:23.000Z</time>
      </trkpt>
      <trkpt lat="36.658176" lon="-5.099236">
        <ele>1130.49</ele>
        <time>2021-06-17T09:27:24.000Z</time>
      </trkpt>
      <trkpt lat="36.65833" lon="-5.099282">
        <ele>1130.42</ele>
        <time>2021-06-17T09:27:25.000Z</time>
      </trkpt>
      <trkpt lat="36.658485" lon="-5.09931">
        <ele>1129.63</ele>
        <time>2021-06-17T09:27:26.000Z</time>
      </trkpt>
      <trkpt lat="36.658647" lon="-5.099315">
        <ele>1128.86</ele>
        <time>2021-06-17T09:27:27.000Z</time>
      </trkpt>
      <trkpt lat="36.658816" lon="-5.099301">
        <ele>1128.22</ele>
        <time>2021-06-17T09:27:28.000Z</time>
      </trkpt>
      <trkpt lat="36.658981" lon="-5.099286">
        <ele>1127.62</ele>
        <time>2021-06-17T09:27:29.000Z</time>
      </trkpt>
      <trkpt lat="36.659146" lon="-5.099261">
        <ele>1127.48</ele>
        <time>2021-06-17T09:27:30.000Z</time>
      </trkpt>
      <trkpt lat="36.659306" lon="-5.099234">
        <ele>1127.16</ele>
        <time>2021-06-17T09:27:31.000Z</time>
      </trkpt>
      <trkpt lat="36.659463" lon="-5.09919">
        <ele>1126.46</ele>
        <time>2021-06-17T09:27:32.000Z</time>
      </trkpt>
      <trkpt lat="36.659626" lon="-5.099158">
        <ele>1126.03</ele>
        <time>2021-06-17T09:27:33.000Z</time>
      </trkpt>
      <trkpt lat="36.659784" lon="-5.099134">
        <ele>1125.3</ele>
        <time>2021-06-17T09:27:34.000Z</time>
      </trkpt>
      <trkpt lat="36.659937" lon="-5.099133">
        <ele>1125.61</ele>
        <time>2021-06-17T09:27:35.000Z</time>
      </trkpt>
      <trkpt lat="36.660075" lon="-5.099139">
        <ele>1126.13</ele>
        <time>2021-06-17T09:27:36.000Z</time>
      </trkpt>
      <trkpt lat="36.660222" lon="-5.09917">
        <ele>1125.22</ele>
        <time>2021-06-17T09:27:37.000Z</time>
      </trkpt>
      <trkpt lat="36.660366" lon="-5.099215">
        <ele>1124.58</ele>
        <time>2021-06-17T09:27:38.000Z</time>
      </trkpt>
      <trkpt lat="36.660502" lon="-5.099276">
        <ele>1124.81</ele>
        <time>2021-06-17T09:27:39.000Z</time>
      </trkpt>
      <trkpt lat="36.660632" lon="-5.099353">
        <ele>1123.71</ele>
        <time>2021-06-17T09:27:40.000Z</time>
      </trkpt>
      <trkpt lat="36.660764" lon="-5.099448">
        <ele>1123.78</ele>
        <time>2021-06-17T09:27:41.000Z</time>
      </trkpt>
      <trkpt lat="36.660885" lon="-5.099558">
        <ele>1123.41</ele>
        <time>2021-06-17T09:27:42.000Z</time>
      </trkpt>
      <trkpt lat="36.660993" lon="-5.099682">
        <ele>1122.93</ele>
        <time>2021-06-17T09:27:43.000Z</time>
      </trkpt>
      <trkpt lat="36.661093" lon="-5.099826">
        <ele>1122.43</ele>
        <time>2021-06-17T09:27:44.000Z</time>
      </trkpt>
      <trkpt lat="36.661189" lon="-5.099989">
        <ele>1122.43</ele>
        <time>2021-06-17T09:27:45.000Z</time>
      </trkpt>
      <trkpt lat="36.661278" lon="-5.10016">
        <ele>1122.1</ele>
        <time>2021-06-17T09:27:46.000Z</time>
      </trkpt>
      <trkpt lat="36.661362" lon="-5.100342">
        <ele>1121.56</ele>
        <time>2021-06-17T09:27:47.000Z</time>
      </trkpt>
      <trkpt lat="36.66145" lon="-5.100531">
        <ele>1120.58</ele>
        <time>2021-06-17T09:27:48.000Z</time>
      </trkpt>
      <trkpt lat="36.661541" lon="-5.100722">
        <ele>1119.98</ele>
        <time>2021-06-17T09:27:49.000Z</time>
      </trkpt>
      <trkpt lat="36.661628" lon="-5.10091">
        <ele>1118.62</ele>
        <time>2021-06-17T09:27:50.000Z</time>
      </trkpt>
      <trkpt lat="36.661711" lon="-5.101108">
        <ele>1118.38</ele>
        <time>2021-06-17T09:27:51.000Z</time>
      </trkpt>
      <trkpt lat="36.661797" lon="-5.101302">
        <ele>1117.29</ele>
        <time>2021-06-17T09:27:52.000Z</time>
      </trkpt>
      <trkpt lat="36.661885" lon="-5.101499">
        <ele>1116.15</ele>
        <time>2021-06-17T09:27:53.000Z</time>
      </trkpt>
      <trkpt lat="36.661969" lon="-5.1017">
        <ele>1115.4</ele>
        <time>2021-06-17T09:27:54.000Z</time>
      </trkpt>
      <trkpt lat="36.662051" lon="-5.101896">
        <ele>1114.68</ele>
        <time>2021-06-17T09:27:55.000Z</time>
      </trkpt>
      <trkpt lat="36.662125" lon="-5.1021">
        <ele>1112.62</ele>
        <time>2021-06-17T09:27:56.000Z</time>
      </trkpt>
      <trkpt lat="36.662205" lon="-5.102299">
        <ele>1111.5</ele>
        <time>2021-06-17T09:27:57.000Z</time>
      </trkpt>
      <trkpt lat="36.662285" lon="-5.102485">
        <ele>1110.81</ele>
        <time>2021-06-17T09:27:58.000Z</time>
      </trkpt>
      <trkpt lat="36.662369" lon="-5.102676">
        <ele>1110.12</ele>
        <time>2021-06-17T09:27:59.000Z</time>
      </trkpt>
      <trkpt lat="36.662454" lon="-5.102862">
        <ele>1109.05</ele>
        <time>2021-06-17T09:28:00.000Z</time>
      </trkpt>
      <trkpt lat="36.662546" lon="-5.103043">
        <ele>1107.6</ele>
        <time>2021-06-17T09:28:01.000Z</time>
      </trkpt>
      <trkpt lat="36.662646" lon="-5.103219">
        <ele>1106.5</ele>
        <time>2021-06-17T09:28:02.000Z</time>
      </trkpt>
      <trkpt lat="36.66275" lon="-5.103387">
        <ele>1105.97</ele>
        <time>2021-06-17T09:28:03.000Z</time>
      </trkpt>
      <trkpt lat="36.662863" lon="-5.103544">
        <ele>1105.54</ele>
        <time>2021-06-17T09:28:04.000Z</time>
      </trkpt>
      <trkpt lat="36.662994" lon="-5.103671">
        <ele>1103.72</ele>
        <time>2021-06-17T09:28:05.000Z</time>
      </trkpt>
      <trkpt lat="36.663133" lon="-5.103803">
        <ele>1103.02</ele>
        <time>2021-06-17T09:28:06.000Z</time>
      </trkpt>
      <trkpt lat="36.663274" lon="-5.103899">
        <ele>1101.03</ele>
        <time>2021-06-17T09:28:07.000Z</time>
      </trkpt>
      <trkpt lat="36.663416" lon="-5.104016">
        <ele>1100.82</ele>
        <time>2021-06-17T09:28:08.000Z</time>
      </trkpt>
      <trkpt lat="36.663559" lon="-5.104122">
        <ele>1099.93</ele>
        <time>2021-06-17T09:28:09.000Z</time>
      </trkpt>
      <trkpt lat="36.663692" lon="-5.104219">
        <ele>1099.43</ele>
        <time>2021-06-17T09:28:10.000Z</time>
      </trkpt>
      <trkpt lat="36.663822" lon="-5.104321">
        <ele>1099.07</ele>
        <time>2021-06-17T09:28:11.000Z</time>
      </trkpt>
      <trkpt lat="36.663948" lon="-5.104423">
        <ele>1098.58</ele>
        <time>2021-06-17T09:28:12.000Z</time>
      </trkpt>
      <trkpt lat="36.664058" lon="-5.104532">
        <ele>1098.27</ele>
        <time>2021-06-17T09:28:13.000Z</time>
      </trkpt>
      <trkpt lat="36.664161" lon="-5.104648">
        <ele>1097.84</ele>
        <time>2021-06-17T09:28:14.000Z</time>
      </trkpt>
      <trkpt lat="36.664251" lon="-5.104774">
        <ele>1097.72</ele>
        <time>2021-06-17T09:28:15.000Z</time>
      </trkpt>
      <trkpt lat="36.664325" lon="-5.104928">
        <ele>1097.81</ele>
        <time>2021-06-17T09:28:16.000Z</time>
      </trkpt>
      <trkpt lat="36.664382" lon="-5.105084">
        <ele>1097.22</ele>
        <time>2021-06-17T09:28:17.000Z</time>
      </trkpt>
      <trkpt lat="36.664441" lon="-5.105267">
        <ele>1096.65</ele>
        <time>2021-06-17T09:28:18.000Z</time>
      </trkpt>
      <trkpt lat="36.664495" lon="-5.105457">
        <ele>1096.72</ele>
        <time>2021-06-17T09:28:19.000Z</time>
      </trkpt>
      <trkpt lat="36.664551" lon="-5.105651">
        <ele>1096.41</ele>
        <time>2021-06-17T09:28:20.000Z</time>
      </trkpt>
      <trkpt lat="36.664599" lon="-5.105842">
        <ele>1096.3</ele>
        <time>2021-06-17T09:28:21.000Z</time>
      </trkpt>
      <trkpt lat="36.664655" lon="-5.10603">
        <ele>1096.05</ele>
        <time>2021-06-17T09:28:22.000Z</time>
      </trkpt>
      <trkpt lat="36.664721" lon="-5.106214">
        <ele>1096.09</ele>
        <time>2021-06-17T09:28:23.000Z</time>
      </trkpt>
      <trkpt lat="36.664797" lon="-5.106361">
        <ele>1093.93</ele>
        <time>2021-06-17T09:28:24.000Z</time>
      </trkpt>
      <trkpt lat="36.664896" lon="-5.106516">
        <ele>1094.02</ele>
        <time>2021-06-17T09:28:25.000Z</time>
      </trkpt>
      <trkpt lat="36.665012" lon="-5.106643">
        <ele>1092.83</ele>
        <time>2021-06-17T09:28:26.000Z</time>
      </trkpt>
      <trkpt lat="36.665144" lon="-5.10678">
        <ele>1093.68</ele>
        <time>2021-06-17T09:28:27.000Z</time>
      </trkpt>
      <trkpt lat="36.665289" lon="-5.106903">
        <ele>1094.8</ele>
        <time>2021-06-17T09:28:28.000Z</time>
      </trkpt>
      <trkpt lat="36.665434" lon="-5.107018">
        <ele>1095.44</ele>
        <time>2021-06-17T09:28:29.000Z</time>
      </trkpt>
      <trkpt lat="36.665574" lon="-5.10713">
        <ele>1096.15</ele>
        <time>2021-06-17T09:28:30.000Z</time>
      </trkpt>
      <trkpt lat="36.665715" lon="-5.107245">
        <ele>1097.19</ele>
        <time>2021-06-17T09:28:31.000Z</time>
      </trkpt>
      <trkpt lat="36.665849" lon="-5.107363">
        <ele>1097.88</ele>
        <time>2021-06-17T09:28:32.000Z</time>
      </trkpt>
      <trkpt lat="36.665976" lon="-5.107479">
        <ele>1097.93</ele>
        <time>2021-06-17T09:28:33.000Z</time>
      </trkpt>
      <trkpt lat="36.666095" lon="-5.107599">
        <ele>1098.71</ele>
        <time>2021-06-17T09:28:34.000Z</time>
      </trkpt>
      <trkpt lat="36.666209" lon="-5.107719">
        <ele>1098.19</ele>
        <time>2021-06-17T09:28:35.000Z</time>
      </trkpt>
      <trkpt lat="36.666316" lon="-5.107846">
        <ele>1097.93</ele>
        <time>2021-06-17T09:28:36.000Z</time>
      </trkpt>
      <trkpt lat="36.666417" lon="-5.107982">
        <ele>1098.25</ele>
        <time>2021-06-17T09:28:37.000Z</time>
      </trkpt>
      <trkpt lat="36.666506" lon="-5.108122">
        <ele>1098.04</ele>
        <time>2021-06-17T09:28:38.000Z</time>
      </trkpt>
      <trkpt lat="36.666586" lon="-5.108275">
        <ele>1097.24</ele>
        <time>2021-06-17T09:28:39.000Z</time>
      </trkpt>
      <trkpt lat="36.666666" lon="-5.108423">
        <ele>1097.37</ele>
        <time>2021-06-17T09:28:40.000Z</time>
      </trkpt>
      <trkpt lat="36.666736" lon="-5.108591">
        <ele>1097.06</ele>
        <time>2021-06-17T09:28:41.000Z</time>
      </trkpt>
      <trkpt lat="36.666804" lon="-5.10877">
        <ele>1097.29</ele>
        <time>2021-06-17T09:28:42.000Z</time>
      </trkpt>
      <trkpt lat="36.666863" lon="-5.10896">
        <ele>1096.65</ele>
        <time>2021-06-17T09:28:43.000Z</time>
      </trkpt>
      <trkpt lat="36.66692" lon="-5.109156">
        <ele>1097.15</ele>
        <time>2021-06-17T09:28:44.000Z</time>
      </trkpt>
      <trkpt lat="36.666965" lon="-5.109345">
        <ele>1095.78</ele>
        <time>2021-06-17T09:28:45.000Z</time>
      </trkpt>
      <trkpt lat="36.666999" lon="-5.109554">
        <ele>1095.43</ele>
        <time>2021-06-17T09:28:46.000Z</time>
      </trkpt>
      <trkpt lat="36.667028" lon="-5.109766">
        <ele>1095.13</ele>
        <time>2021-06-17T09:28:47.000Z</time>
      </trkpt>
      <trkpt lat="36.667054" lon="-5.109981">
        <ele>1094.62</ele>
        <time>2021-06-17T09:28:48.000Z</time>
      </trkpt>
      <trkpt lat="36.667083" lon="-5.110216">
        <ele>1095.17</ele>
        <time>2021-06-17T09:28:49.000Z</time>
      </trkpt>
      <trkpt lat="36.667107" lon="-5.110434">
        <ele>1095.14</ele>
        <time>2021-06-17T09:28:50.000Z</time>
      </trkpt>
      <trkpt lat="36.667132" lon="-5.110649">
        <ele>1094.85</ele>
        <time>2021-06-17T09:28:51.000Z</time>
      </trkpt>
      <trkpt lat="36.667158" lon="-5.110846">
        <ele>1094.4</ele>
        <time>2021-06-17T09:28:52.000Z</time>
      </trkpt>
      <trkpt lat="36.667178" lon="-5.111042">
        <ele>1093.74</ele>
        <time>2021-06-17T09:28:53.000Z</time>
      </trkpt>
      <trkpt lat="36.6672" lon="-5.111231">
        <ele>1093.15</ele>
        <time>2021-06-17T09:28:54.000Z</time>
      </trkpt>
      <trkpt lat="36.667225" lon="-5.111409">
        <ele>1092.44</ele>
        <time>2021-06-17T09:28:55.000Z</time>
      </trkpt>
      <trkpt lat="36.667252" lon="-5.111582">
        <ele>1091.89</ele>
        <time>2021-06-17T09:28:56.000Z</time>
      </trkpt>
      <trkpt lat="36.667286" lon="-5.11174">
        <ele>1091.21</ele>
        <time>2021-06-17T09:28:57.000Z</time>
      </trkpt>
      <trkpt lat="36.667323" lon="-5.111899">
        <ele>1091.33</ele>
        <time>2021-06-17T09:28:58.000Z</time>
      </trkpt>
      <trkpt lat="36.667376" lon="-5.112039">
        <ele>1090.34</ele>
        <time>2021-06-17T09:28:59.000Z</time>
      </trkpt>
      <trkpt lat="36.667444" lon="-5.112172">
        <ele>1089.42</ele>
        <time>2021-06-17T09:29:00.000Z</time>
      </trkpt>
      <trkpt lat="36.667525" lon="-5.112291">
        <ele>1089</ele>
        <time>2021-06-17T09:29:01.000Z</time>
      </trkpt>
      <trkpt lat="36.667617" lon="-5.1124">
        <ele>1088.14</ele>
        <time>2021-06-17T09:29:02.000Z</time>
      </trkpt>
      <trkpt lat="36.667719" lon="-5.112506">
        <ele>1087.53</ele>
        <time>2021-06-17T09:29:03.000Z</time>
      </trkpt>
      <trkpt lat="36.667833" lon="-5.112588">
        <ele>1085.38</ele>
        <time>2021-06-17T09:29:04.000Z</time>
      </trkpt>
      <trkpt lat="36.667943" lon="-5.112672">
        <ele>1083.43</ele>
        <time>2021-06-17T09:29:05.000Z</time>
      </trkpt>
      <trkpt lat="36.668055" lon="-5.112762">
        <ele>1083.14</ele>
        <time>2021-06-17T09:29:06.000Z</time>
      </trkpt>
      <trkpt lat="36.668164" lon="-5.112843">
        <ele>1082.39</ele>
        <time>2021-06-17T09:29:07.000Z</time>
      </trkpt>
      <trkpt lat="36.668275" lon="-5.112917">
        <ele>1080.86</ele>
        <time>2021-06-17T09:29:08.000Z</time>
      </trkpt>
      <trkpt lat="36.668384" lon="-5.112997">
        <ele>1079.74</ele>
        <time>2021-06-17T09:29:09.000Z</time>
      </trkpt>
      <trkpt lat="36.668482" lon="-5.113108">
        <ele>1078.96</ele>
        <time>2021-06-17T09:29:10.000Z</time>
      </trkpt>
      <trkpt lat="36.668575" lon="-5.113227">
        <ele>1078.01</ele>
        <time>2021-06-17T09:29:11.000Z</time>
      </trkpt>
      <trkpt lat="36.668655" lon="-5.113352">
        <ele>1076.27</ele>
        <time>2021-06-17T09:29:12.000Z</time>
      </trkpt>
      <trkpt lat="36.668727" lon="-5.113508">
        <ele>1075.71</ele>
        <time>2021-06-17T09:29:13.000Z</time>
      </trkpt>
      <trkpt lat="36.668794" lon="-5.11368">
        <ele>1074.92</ele>
        <time>2021-06-17T09:29:14.000Z</time>
      </trkpt>
      <trkpt lat="36.668865" lon="-5.113849">
        <ele>1073.35</ele>
        <time>2021-06-17T09:29:15.000Z</time>
      </trkpt>
      <trkpt lat="36.668936" lon="-5.114015">
        <ele>1071.87</ele>
        <time>2021-06-17T09:29:16.000Z</time>
      </trkpt>
      <trkpt lat="36.669006" lon="-5.114171">
        <ele>1071.41</ele>
        <time>2021-06-17T09:29:17.000Z</time>
      </trkpt>
      <trkpt lat="36.669076" lon="-5.114336">
        <ele>1070.62</ele>
        <time>2021-06-17T09:29:18.000Z</time>
      </trkpt>
      <trkpt lat="36.669156" lon="-5.114492">
        <ele>1069.15</ele>
        <time>2021-06-17T09:29:19.000Z</time>
      </trkpt>
      <trkpt lat="36.669253" lon="-5.114639">
        <ele>1067.85</ele>
        <time>2021-06-17T09:29:20.000Z</time>
      </trkpt>
      <trkpt lat="36.669355" lon="-5.114769">
        <ele>1067.01</ele>
        <time>2021-06-17T09:29:21.000Z</time>
      </trkpt>
      <trkpt lat="36.669473" lon="-5.11487">
        <ele>1064.5</ele>
        <time>2021-06-17T09:29:22.000Z</time>
      </trkpt>
      <trkpt lat="36.669597" lon="-5.11499">
        <ele>1063.4</ele>
        <time>2021-06-17T09:29:23.000Z</time>
      </trkpt>
      <trkpt lat="36.669726" lon="-5.115101">
        <ele>1063.75</ele>
        <time>2021-06-17T09:29:24.000Z</time>
      </trkpt>
      <trkpt lat="36.66986" lon="-5.115198">
        <ele>1062.56</ele>
        <time>2021-06-17T09:29:25.000Z</time>
      </trkpt>
      <trkpt lat="36.669988" lon="-5.115286">
        <ele>1062.83</ele>
        <time>2021-06-17T09:29:26.000Z</time>
      </trkpt>
      <trkpt lat="36.670115" lon="-5.11537">
        <ele>1062.2</ele>
        <time>2021-06-17T09:29:27.000Z</time>
      </trkpt>
      <trkpt lat="36.670239" lon="-5.115473">
        <ele>1062.11</ele>
        <time>2021-06-17T09:29:28.000Z</time>
      </trkpt>
      <trkpt lat="36.670342" lon="-5.115579">
        <ele>1061.61</ele>
        <time>2021-06-17T09:29:29.000Z</time>
      </trkpt>
      <trkpt lat="36.670439" lon="-5.115691">
        <ele>1060.91</ele>
        <time>2021-06-17T09:29:30.000Z</time>
      </trkpt>
      <trkpt lat="36.67053" lon="-5.115807">
        <ele>1059.67</ele>
        <time>2021-06-17T09:29:31.000Z</time>
      </trkpt>
      <trkpt lat="36.670612" lon="-5.115901">
        <ele>1056.66</ele>
        <time>2021-06-17T09:29:32.000Z</time>
      </trkpt>
      <trkpt lat="36.670673" lon="-5.116043">
        <ele>1057.33</ele>
        <time>2021-06-17T09:29:33.000Z</time>
      </trkpt>
      <trkpt lat="36.670724" lon="-5.116179">
        <ele>1056.68</ele>
        <time>2021-06-17T09:29:34.000Z</time>
      </trkpt>
      <trkpt lat="36.670762" lon="-5.116334">
        <ele>1056.69</ele>
        <time>2021-06-17T09:29:35.000Z</time>
      </trkpt>
      <trkpt lat="36.670794" lon="-5.116501">
        <ele>1056.59</ele>
        <time>2021-06-17T09:29:36.000Z</time>
      </trkpt>
      <trkpt lat="36.670823" lon="-5.116672">
        <ele>1054.92</ele>
        <time>2021-06-17T09:29:37.000Z</time>
      </trkpt>
      <trkpt lat="36.670845" lon="-5.116862">
        <ele>1054.6</ele>
        <time>2021-06-17T09:29:38.000Z</time>
      </trkpt>
      <trkpt lat="36.670866" lon="-5.117055">
        <ele>1054.03</ele>
        <time>2021-06-17T09:29:39.000Z</time>
      </trkpt>
      <trkpt lat="36.670889" lon="-5.117246">
        <ele>1054.05</ele>
        <time>2021-06-17T09:29:40.000Z</time>
      </trkpt>
      <trkpt lat="36.670914" lon="-5.117432">
        <ele>1053.92</ele>
        <time>2021-06-17T09:29:41.000Z</time>
      </trkpt>
      <trkpt lat="36.670945" lon="-5.117612">
        <ele>1053.8</ele>
        <time>2021-06-17T09:29:42.000Z</time>
      </trkpt>
      <trkpt lat="36.670973" lon="-5.117797">
        <ele>1053.55</ele>
        <time>2021-06-17T09:29:43.000Z</time>
      </trkpt>
      <trkpt lat="36.671007" lon="-5.117978">
        <ele>1053.4</ele>
        <time>2021-06-17T09:29:44.000Z</time>
      </trkpt>
      <trkpt lat="36.671053" lon="-5.118154">
        <ele>1052.97</ele>
        <time>2021-06-17T09:29:45.000Z</time>
      </trkpt>
      <trkpt lat="36.671111" lon="-5.11832">
        <ele>1051.61</ele>
        <time>2021-06-17T09:29:46.000Z</time>
      </trkpt>
      <trkpt lat="36.671162" lon="-5.118503">
        <ele>1049.7</ele>
        <time>2021-06-17T09:29:47.000Z</time>
      </trkpt>
      <trkpt lat="36.671231" lon="-5.118664">
        <ele>1050.23</ele>
        <time>2021-06-17T09:29:48.000Z</time>
      </trkpt>
      <trkpt lat="36.671313" lon="-5.118813">
        <ele>1050.13</ele>
        <time>2021-06-17T09:29:49.000Z</time>
      </trkpt>
      <trkpt lat="36.671401" lon="-5.118946">
        <ele>1048.7</ele>
        <time>2021-06-17T09:29:50.000Z</time>
      </trkpt>
      <trkpt lat="36.671498" lon="-5.119084">
        <ele>1048.82</ele>
        <time>2021-06-17T09:29:51.000Z</time>
      </trkpt>
      <trkpt lat="36.671607" lon="-5.119212">
        <ele>1048.25</ele>
        <time>2021-06-17T09:29:52.000Z</time>
      </trkpt>
      <trkpt lat="36.67173" lon="-5.11934">
        <ele>1048.41</ele>
        <time>2021-06-17T09:29:53.000Z</time>
      </trkpt>
      <trkpt lat="36.67187" lon="-5.119454">
        <ele>1047.64</ele>
        <time>2021-06-17T09:29:54.000Z</time>
      </trkpt>
      <trkpt lat="36.672004" lon="-5.11957">
        <ele>1047.86</ele>
        <time>2021-06-17T09:29:55.000Z</time>
      </trkpt>
      <trkpt lat="36.672152" lon="-5.119655">
        <ele>1047.06</ele>
        <time>2021-06-17T09:29:56.000Z</time>
      </trkpt>
      <trkpt lat="36.6723" lon="-5.119735">
        <ele>1046.32</ele>
        <time>2021-06-17T09:29:57.000Z</time>
      </trkpt>
      <trkpt lat="36.672456" lon="-5.119812">
        <ele>1045.99</ele>
        <time>2021-06-17T09:29:58.000Z</time>
      </trkpt>
      <trkpt lat="36.672619" lon="-5.119874">
        <ele>1044.79</ele>
        <time>2021-06-17T09:29:59.000Z</time>
      </trkpt>
      <trkpt lat="36.672784" lon="-5.119915">
        <ele>1044.51</ele>
        <time>2021-06-17T09:30:00.000Z</time>
      </trkpt>
      <trkpt lat="36.67294" lon="-5.119954">
        <ele>1044.1</ele>
        <time>2021-06-17T09:30:01.000Z</time>
      </trkpt>
      <trkpt lat="36.673104" lon="-5.119971">
        <ele>1043.3</ele>
        <time>2021-06-17T09:30:02.000Z</time>
      </trkpt>
      <trkpt lat="36.673271" lon="-5.11998">
        <ele>1043.87</ele>
        <time>2021-06-17T09:30:03.000Z</time>
      </trkpt>
      <trkpt lat="36.673438" lon="-5.11997">
        <ele>1043.59</ele>
        <time>2021-06-17T09:30:04.000Z</time>
      </trkpt>
      <trkpt lat="36.673608" lon="-5.119954">
        <ele>1043.79</ele>
        <time>2021-06-17T09:30:05.000Z</time>
      </trkpt>
      <trkpt lat="36.673773" lon="-5.119925">
        <ele>1043.38</ele>
        <time>2021-06-17T09:30:06.000Z</time>
      </trkpt>
      <trkpt lat="36.673925" lon="-5.119863">
        <ele>1043.42</ele>
        <time>2021-06-17T09:30:07.000Z</time>
      </trkpt>
      <trkpt lat="36.674086" lon="-5.119808">
        <ele>1043.73</ele>
        <time>2021-06-17T09:30:08.000Z</time>
      </trkpt>
      <trkpt lat="36.674249" lon="-5.119751">
        <ele>1043.69</ele>
        <time>2021-06-17T09:30:09.000Z</time>
      </trkpt>
      <trkpt lat="36.674416" lon="-5.119679">
        <ele>1043.12</ele>
        <time>2021-06-17T09:30:10.000Z</time>
      </trkpt>
      <trkpt lat="36.674583" lon="-5.1196">
        <ele>1043.12</ele>
        <time>2021-06-17T09:30:11.000Z</time>
      </trkpt>
      <trkpt lat="36.674746" lon="-5.119519">
        <ele>1043.32</ele>
        <time>2021-06-17T09:30:12.000Z</time>
      </trkpt>
      <trkpt lat="36.674911" lon="-5.119445">
        <ele>1043.64</ele>
        <time>2021-06-17T09:30:13.000Z</time>
      </trkpt>
      <trkpt lat="36.675065" lon="-5.119365">
        <ele>1044.27</ele>
        <time>2021-06-17T09:30:14.000Z</time>
      </trkpt>
      <trkpt lat="36.675228" lon="-5.119284">
        <ele>1044.38</ele>
        <time>2021-06-17T09:30:15.000Z</time>
      </trkpt>
      <trkpt lat="36.675368" lon="-5.11921">
        <ele>1043.14</ele>
        <time>2021-06-17T09:30:16.000Z</time>
      </trkpt>
      <trkpt lat="36.675512" lon="-5.11914">
        <ele>1042.18</ele>
        <time>2021-06-17T09:30:17.000Z</time>
      </trkpt>
      <trkpt lat="36.675644" lon="-5.119071">
        <ele>1041.4</ele>
        <time>2021-06-17T09:30:18.000Z</time>
      </trkpt>
      <trkpt lat="36.675771" lon="-5.11901">
        <ele>1040.86</ele>
        <time>2021-06-17T09:30:19.000Z</time>
      </trkpt>
      <trkpt lat="36.675898" lon="-5.118947">
        <ele>1040.67</ele>
        <time>2021-06-17T09:30:20.000Z</time>
      </trkpt>
      <trkpt lat="36.676016" lon="-5.118889">
        <ele>1039.61</ele>
        <time>2021-06-17T09:30:21.000Z</time>
      </trkpt>
      <trkpt lat="36.67614" lon="-5.118818">
        <ele>1039.94</ele>
        <time>2021-06-17T09:30:22.000Z</time>
      </trkpt>
      <trkpt lat="36.676276" lon="-5.11875">
        <ele>1040.01</ele>
        <time>2021-06-17T09:30:23.000Z</time>
      </trkpt>
      <trkpt lat="36.676408" lon="-5.118681">
        <ele>1039.74</ele>
        <time>2021-06-17T09:30:24.000Z</time>
      </trkpt>
      <trkpt lat="36.676537" lon="-5.118623">
        <ele>1039.17</ele>
        <time>2021-06-17T09:30:25.000Z</time>
      </trkpt>
      <trkpt lat="36.676677" lon="-5.118563">
        <ele>1039.46</ele>
        <time>2021-06-17T09:30:26.000Z</time>
      </trkpt>
      <trkpt lat="36.676821" lon="-5.118508">
        <ele>1039.47</ele>
        <time>2021-06-17T09:30:27.000Z</time>
      </trkpt>
      <trkpt lat="36.676973" lon="-5.118467">
        <ele>1039.16</ele>
        <time>2021-06-17T09:30:28.000Z</time>
      </trkpt>
      <trkpt lat="36.677132" lon="-5.118444">
        <ele>1039.07</ele>
        <time>2021-06-17T09:30:29.000Z</time>
      </trkpt>
      <trkpt lat="36.677296" lon="-5.118428">
        <ele>1038.54</ele>
        <time>2021-06-17T09:30:30.000Z</time>
      </trkpt>
      <trkpt lat="36.677451" lon="-5.118407">
        <ele>1038.01</ele>
        <time>2021-06-17T09:30:31.000Z</time>
      </trkpt>
      <trkpt lat="36.677597" lon="-5.118382">
        <ele>1037.45</ele>
        <time>2021-06-17T09:30:32.000Z</time>
      </trkpt>
      <trkpt lat="36.677764" lon="-5.118357">
        <ele>1036.38</ele>
        <time>2021-06-17T09:30:33.000Z</time>
      </trkpt>
      <trkpt lat="36.677923" lon="-5.118329">
        <ele>1034.64</ele>
        <time>2021-06-17T09:30:34.000Z</time>
      </trkpt>
      <trkpt lat="36.678072" lon="-5.118291">
        <ele>1033.85</ele>
        <time>2021-06-17T09:30:35.000Z</time>
      </trkpt>
      <trkpt lat="36.678227" lon="-5.118243">
        <ele>1032.54</ele>
        <time>2021-06-17T09:30:36.000Z</time>
      </trkpt>
      <trkpt lat="36.678368" lon="-5.118184">
        <ele>1031.58</ele>
        <time>2021-06-17T09:30:37.000Z</time>
      </trkpt>
      <trkpt lat="36.678514" lon="-5.118119">
        <ele>1030.79</ele>
        <time>2021-06-17T09:30:38.000Z</time>
      </trkpt>
      <trkpt lat="36.67866" lon="-5.118039">
        <ele>1030.32</ele>
        <time>2021-06-17T09:30:39.000Z</time>
      </trkpt>
      <trkpt lat="36.678801" lon="-5.117941">
        <ele>1030.19</ele>
        <time>2021-06-17T09:30:40.000Z</time>
      </trkpt>
      <trkpt lat="36.678936" lon="-5.117837">
        <ele>1029.73</ele>
        <time>2021-06-17T09:30:41.000Z</time>
      </trkpt>
      <trkpt lat="36.679071" lon="-5.117721">
        <ele>1028.46</ele>
        <time>2021-06-17T09:30:42.000Z</time>
      </trkpt>
      <trkpt lat="36.679208" lon="-5.117586">
        <ele>1027.73</ele>
        <time>2021-06-17T09:30:43.000Z</time>
      </trkpt>
      <trkpt lat="36.679347" lon="-5.117447">
        <ele>1027.47</ele>
        <time>2021-06-17T09:30:44.000Z</time>
      </trkpt>
      <trkpt lat="36.679484" lon="-5.117305">
        <ele>1027.27</ele>
        <time>2021-06-17T09:30:45.000Z</time>
      </trkpt>
      <trkpt lat="36.679625" lon="-5.117163">
        <ele>1027.4</ele>
        <time>2021-06-17T09:30:46.000Z</time>
      </trkpt>
      <trkpt lat="36.67977" lon="-5.117017">
        <ele>1026.9</ele>
        <time>2021-06-17T09:30:47.000Z</time>
      </trkpt>
      <trkpt lat="36.679917" lon="-5.116868">
        <ele>1026.53</ele>
        <time>2021-06-17T09:30:48.000Z</time>
      </trkpt>
      <trkpt lat="36.680061" lon="-5.116728">
        <ele>1026.67</ele>
        <time>2021-06-17T09:30:49.000Z</time>
      </trkpt>
      <trkpt lat="36.680199" lon="-5.11659">
        <ele>1027.38</ele>
        <time>2021-06-17T09:30:50.000Z</time>
      </trkpt>
      <trkpt lat="36.680336" lon="-5.116451">
        <ele>1027.8</ele>
        <time>2021-06-17T09:30:51.000Z</time>
      </trkpt>
      <trkpt lat="36.680464" lon="-5.116312">
        <ele>1027.8</ele>
        <time>2021-06-17T09:30:52.000Z</time>
      </trkpt>
      <trkpt lat="36.680583" lon="-5.116176">
        <ele>1027.71</ele>
        <time>2021-06-17T09:30:53.000Z</time>
      </trkpt>
      <trkpt lat="36.680698" lon="-5.116043">
        <ele>1027.55</ele>
        <time>2021-06-17T09:30:54.000Z</time>
      </trkpt>
      <trkpt lat="36.680808" lon="-5.115932">
        <ele>1025.51</ele>
        <time>2021-06-17T09:30:55.000Z</time>
      </trkpt>
      <trkpt lat="36.680934" lon="-5.115818">
        <ele>1025.7</ele>
        <time>2021-06-17T09:30:56.000Z</time>
      </trkpt>
      <trkpt lat="36.681062" lon="-5.115696">
        <ele>1025.64</ele>
        <time>2021-06-17T09:30:57.000Z</time>
      </trkpt>
      <trkpt lat="36.68119" lon="-5.11559">
        <ele>1025.88</ele>
        <time>2021-06-17T09:30:58.000Z</time>
      </trkpt>
      <trkpt lat="36.681309" lon="-5.115496">
        <ele>1023.69</ele>
        <time>2021-06-17T09:30:59.000Z</time>
      </trkpt>
      <trkpt lat="36.681444" lon="-5.115399">
        <ele>1024.82</ele>
        <time>2021-06-17T09:31:00.000Z</time>
      </trkpt>
      <trkpt lat="36.681577" lon="-5.115301">
        <ele>1024.94</ele>
        <time>2021-06-17T09:31:01.000Z</time>
      </trkpt>
      <trkpt lat="36.681715" lon="-5.115223">
        <ele>1024.42</ele>
        <time>2021-06-17T09:31:02.000Z</time>
      </trkpt>
      <trkpt lat="36.681847" lon="-5.115144">
        <ele>1024.4</ele>
        <time>2021-06-17T09:31:03.000Z</time>
      </trkpt>
      <trkpt lat="36.681984" lon="-5.115088">
        <ele>1023.73</ele>
        <time>2021-06-17T09:31:04.000Z</time>
      </trkpt>
      <trkpt lat="36.682129" lon="-5.115051">
        <ele>1022.1</ele>
        <time>2021-06-17T09:31:05.000Z</time>
      </trkpt>
      <trkpt lat="36.682277" lon="-5.115009">
        <ele>1021.4</ele>
        <time>2021-06-17T09:31:06.000Z</time>
      </trkpt>
      <trkpt lat="36.682429" lon="-5.11499">
        <ele>1021.33</ele>
        <time>2021-06-17T09:31:07.000Z</time>
      </trkpt>
      <trkpt lat="36.682594" lon="-5.114995">
        <ele>1019.55</ele>
        <time>2021-06-17T09:31:08.000Z</time>
      </trkpt>
      <trkpt lat="36.68277" lon="-5.115014">
        <ele>1019.24</ele>
        <time>2021-06-17T09:31:09.000Z</time>
      </trkpt>
      <trkpt lat="36.682951" lon="-5.11503">
        <ele>1019.39</ele>
        <time>2021-06-17T09:31:10.000Z</time>
      </trkpt>
      <trkpt lat="36.683128" lon="-5.115058">
        <ele>1018.03</ele>
        <time>2021-06-17T09:31:11.000Z</time>
      </trkpt>
      <trkpt lat="36.683307" lon="-5.115095">
        <ele>1017.28</ele>
        <time>2021-06-17T09:31:12.000Z</time>
      </trkpt>
      <trkpt lat="36.6835" lon="-5.11513">
        <ele>1015.72</ele>
        <time>2021-06-17T09:31:13.000Z</time>
      </trkpt>
      <trkpt lat="36.683697" lon="-5.115168">
        <ele>1014.53</ele>
        <time>2021-06-17T09:31:14.000Z</time>
      </trkpt>
      <trkpt lat="36.68389" lon="-5.115205">
        <ele>1013.64</ele>
        <time>2021-06-17T09:31:15.000Z</time>
      </trkpt>
      <trkpt lat="36.684095" lon="-5.11525">
        <ele>1012.97</ele>
        <time>2021-06-17T09:31:16.000Z</time>
      </trkpt>
      <trkpt lat="36.684304" lon="-5.115289">
        <ele>1012.2</ele>
        <time>2021-06-17T09:31:17.000Z</time>
      </trkpt>
      <trkpt lat="36.68451" lon="-5.115333">
        <ele>1011.5</ele>
        <time>2021-06-17T09:31:18.000Z</time>
      </trkpt>
      <trkpt lat="36.684727" lon="-5.115387">
        <ele>1009.16</ele>
        <time>2021-06-17T09:31:19.000Z</time>
      </trkpt>
      <trkpt lat="36.684936" lon="-5.115437">
        <ele>1007.04</ele>
        <time>2021-06-17T09:31:20.000Z</time>
      </trkpt>
      <trkpt lat="36.685137" lon="-5.115487">
        <ele>1004.48</ele>
        <time>2021-06-17T09:31:21.000Z</time>
      </trkpt>
      <trkpt lat="36.68534" lon="-5.115537">
        <ele>1003.82</ele>
        <time>2021-06-17T09:31:22.000Z</time>
      </trkpt>
      <trkpt lat="36.685549" lon="-5.115577">
        <ele>1003.3</ele>
        <time>2021-06-17T09:31:23.000Z</time>
      </trkpt>
      <trkpt lat="36.685745" lon="-5.115607">
        <ele>1002.67</ele>
        <time>2021-06-17T09:31:24.000Z</time>
      </trkpt>
      <trkpt lat="36.685938" lon="-5.115636">
        <ele>1001.76</ele>
        <time>2021-06-17T09:31:25.000Z</time>
      </trkpt>
      <trkpt lat="36.68613" lon="-5.115648">
        <ele>1000.57</ele>
        <time>2021-06-17T09:31:26.000Z</time>
      </trkpt>
      <trkpt lat="36.686307" lon="-5.115666">
        <ele>999.29</ele>
        <time>2021-06-17T09:31:27.000Z</time>
      </trkpt>
      <trkpt lat="36.686488" lon="-5.11568">
        <ele>999.11</ele>
        <time>2021-06-17T09:31:28.000Z</time>
      </trkpt>
      <trkpt lat="36.686666" lon="-5.115711">
        <ele>998.45</ele>
        <time>2021-06-17T09:31:29.000Z</time>
      </trkpt>
      <trkpt lat="36.686832" lon="-5.115745">
        <ele>997.51</ele>
        <time>2021-06-17T09:31:30.000Z</time>
      </trkpt>
      <trkpt lat="36.687005" lon="-5.115796">
        <ele>998.26</ele>
        <time>2021-06-17T09:31:31.000Z</time>
      </trkpt>
      <trkpt lat="36.687185" lon="-5.115872">
        <ele>998.05</ele>
        <time>2021-06-17T09:31:32.000Z</time>
      </trkpt>
      <trkpt lat="36.687357" lon="-5.11597">
        <ele>997.17</ele>
        <time>2021-06-17T09:31:33.000Z</time>
      </trkpt>
      <trkpt lat="36.687521" lon="-5.116073">
        <ele>996.35</ele>
        <time>2021-06-17T09:31:34.000Z</time>
      </trkpt>
      <trkpt lat="36.687687" lon="-5.116199">
        <ele>995.93</ele>
        <time>2021-06-17T09:31:35.000Z</time>
      </trkpt>
      <trkpt lat="36.687849" lon="-5.116335">
        <ele>995.41</ele>
        <time>2021-06-17T09:31:36.000Z</time>
      </trkpt>
      <trkpt lat="36.688004" lon="-5.116495">
        <ele>995.87</ele>
        <time>2021-06-17T09:31:37.000Z</time>
      </trkpt>
      <trkpt lat="36.688158" lon="-5.116667">
        <ele>995.86</ele>
        <time>2021-06-17T09:31:38.000Z</time>
      </trkpt>
      <trkpt lat="36.688312" lon="-5.116855">
        <ele>996.27</ele>
        <time>2021-06-17T09:31:39.000Z</time>
      </trkpt>
      <trkpt lat="36.68846" lon="-5.11704">
        <ele>996.37</ele>
        <time>2021-06-17T09:31:40.000Z</time>
      </trkpt>
      <trkpt lat="36.688603" lon="-5.117223">
        <ele>996.08</ele>
        <time>2021-06-17T09:31:41.000Z</time>
      </trkpt>
      <trkpt lat="36.688738" lon="-5.117402">
        <ele>995.88</ele>
        <time>2021-06-17T09:31:42.000Z</time>
      </trkpt>
      <trkpt lat="36.688862" lon="-5.11757">
        <ele>994.98</ele>
        <time>2021-06-17T09:31:43.000Z</time>
      </trkpt>
      <trkpt lat="36.688977" lon="-5.117727">
        <ele>995.5</ele>
        <time>2021-06-17T09:31:44.000Z</time>
      </trkpt>
      <trkpt lat="36.689082" lon="-5.117865">
        <ele>995.07</ele>
        <time>2021-06-17T09:31:45.000Z</time>
      </trkpt>
      <trkpt lat="36.689165" lon="-5.118009">
        <ele>994.87</ele>
        <time>2021-06-17T09:31:46.000Z</time>
      </trkpt>
      <trkpt lat="36.689239" lon="-5.11816">
        <ele>994.03</ele>
        <time>2021-06-17T09:31:47.000Z</time>
      </trkpt>
      <trkpt lat="36.68929" lon="-5.118315">
        <ele>994.44</ele>
        <time>2021-06-17T09:31:48.000Z</time>
      </trkpt>
      <trkpt lat="36.68933" lon="-5.118494">
        <ele>994.87</ele>
        <time>2021-06-17T09:31:49.000Z</time>
      </trkpt>
      <trkpt lat="36.689357" lon="-5.118692">
        <ele>994.77</ele>
        <time>2021-06-17T09:31:50.000Z</time>
      </trkpt>
      <trkpt lat="36.68938" lon="-5.118901">
        <ele>994.24</ele>
        <time>2021-06-17T09:31:51.000Z</time>
      </trkpt>
      <trkpt lat="36.689397" lon="-5.119098">
        <ele>993.74</ele>
        <time>2021-06-17T09:31:52.000Z</time>
      </trkpt>
      <trkpt lat="36.689412" lon="-5.119295">
        <ele>993.19</ele>
        <time>2021-06-17T09:31:53.000Z</time>
      </trkpt>
      <trkpt lat="36.68943" lon="-5.119471">
        <ele>992.44</ele>
        <time>2021-06-17T09:31:54.000Z</time>
      </trkpt>
      <trkpt lat="36.689458" lon="-5.119652">
        <ele>992.07</ele>
        <time>2021-06-17T09:31:55.000Z</time>
      </trkpt>
      <trkpt lat="36.689502" lon="-5.119817">
        <ele>991.53</ele>
        <time>2021-06-17T09:31:56.000Z</time>
      </trkpt>
      <trkpt lat="36.68956" lon="-5.119978">
        <ele>991.64</ele>
        <time>2021-06-17T09:31:57.000Z</time>
      </trkpt>
      <trkpt lat="36.689633" lon="-5.120116">
        <ele>991.99</ele>
        <time>2021-06-17T09:31:58.000Z</time>
      </trkpt>
      <trkpt lat="36.689726" lon="-5.120244">
        <ele>991.65</ele>
        <time>2021-06-17T09:31:59.000Z</time>
      </trkpt>
      <trkpt lat="36.689831" lon="-5.120351">
        <ele>992.02</ele>
        <time>2021-06-17T09:32:00.000Z</time>
      </trkpt>
      <trkpt lat="36.689951" lon="-5.120429">
        <ele>991.14</ele>
        <time>2021-06-17T09:32:01.000Z</time>
      </trkpt>
      <trkpt lat="36.690083" lon="-5.12049">
        <ele>991.65</ele>
        <time>2021-06-17T09:32:02.000Z</time>
      </trkpt>
      <trkpt lat="36.690227" lon="-5.120545">
        <ele>992.67</ele>
        <time>2021-06-17T09:32:03.000Z</time>
      </trkpt>
      <trkpt lat="36.690385" lon="-5.120543">
        <ele>992.17</ele>
        <time>2021-06-17T09:32:04.000Z</time>
      </trkpt>
      <trkpt lat="36.690549" lon="-5.120523">
        <ele>990.37</ele>
        <time>2021-06-17T09:32:05.000Z</time>
      </trkpt>
      <trkpt lat="36.690725" lon="-5.12049">
        <ele>989.61</ele>
        <time>2021-06-17T09:32:06.000Z</time>
      </trkpt>
      <trkpt lat="36.690911" lon="-5.120443">
        <ele>990.14</ele>
        <time>2021-06-17T09:32:07.000Z</time>
      </trkpt>
      <trkpt lat="36.691111" lon="-5.120401">
        <ele>990.75</ele>
        <time>2021-06-17T09:32:08.000Z</time>
      </trkpt>
      <trkpt lat="36.691317" lon="-5.120346">
        <ele>990.53</ele>
        <time>2021-06-17T09:32:09.000Z</time>
      </trkpt>
      <trkpt lat="36.691537" lon="-5.120291">
        <ele>991.49</ele>
        <time>2021-06-17T09:32:10.000Z</time>
      </trkpt>
      <trkpt lat="36.691767" lon="-5.120246">
        <ele>992.08</ele>
        <time>2021-06-17T09:32:11.000Z</time>
      </trkpt>
      <trkpt lat="36.692" lon="-5.120196">
        <ele>993.04</ele>
        <time>2021-06-17T09:32:12.000Z</time>
      </trkpt>
      <trkpt lat="36.692227" lon="-5.120147">
        <ele>993.4</ele>
        <time>2021-06-17T09:32:13.000Z</time>
      </trkpt>
      <trkpt lat="36.692463" lon="-5.120102">
        <ele>993.95</ele>
        <time>2021-06-17T09:32:14.000Z</time>
      </trkpt>
      <trkpt lat="36.692694" lon="-5.120057">
        <ele>994.43</ele>
        <time>2021-06-17T09:32:15.000Z</time>
      </trkpt>
      <trkpt lat="36.692933" lon="-5.12">
        <ele>995.04</ele>
        <time>2021-06-17T09:32:16.000Z</time>
      </trkpt>
      <trkpt lat="36.693154" lon="-5.11995">
        <ele>995.6</ele>
        <time>2021-06-17T09:32:17.000Z</time>
      </trkpt>
      <trkpt lat="36.69339" lon="-5.119892">
        <ele>995.57</ele>
        <time>2021-06-17T09:32:18.000Z</time>
      </trkpt>
      <trkpt lat="36.693622" lon="-5.119846">
        <ele>995.1</ele>
        <time>2021-06-17T09:32:19.000Z</time>
      </trkpt>
      <trkpt lat="36.693833" lon="-5.119788">
        <ele>996.19</ele>
        <time>2021-06-17T09:32:20.000Z</time>
      </trkpt>
      <trkpt lat="36.694052" lon="-5.119726">
        <ele>997.04</ele>
        <time>2021-06-17T09:32:21.000Z</time>
      </trkpt>
      <trkpt lat="36.694264" lon="-5.119644">
        <ele>997.8</ele>
        <time>2021-06-17T09:32:22.000Z</time>
      </trkpt>
      <trkpt lat="36.694485" lon="-5.11956">
        <ele>997.95</ele>
        <time>2021-06-17T09:32:23.000Z</time>
      </trkpt>
      <trkpt lat="36.694677" lon="-5.119481">
        <ele>998.48</ele>
        <time>2021-06-17T09:32:24.000Z</time>
      </trkpt>
      <trkpt lat="36.694869" lon="-5.119418">
        <ele>998.84</ele>
        <time>2021-06-17T09:32:25.000Z</time>
      </trkpt>
      <trkpt lat="36.695061" lon="-5.119364">
        <ele>999.11</ele>
        <time>2021-06-17T09:32:26.000Z</time>
      </trkpt>
      <trkpt lat="36.695251" lon="-5.119316">
        <ele>998.21</ele>
        <time>2021-06-17T09:32:27.000Z</time>
      </trkpt>
      <trkpt lat="36.695441" lon="-5.119293">
        <ele>998.98</ele>
        <time>2021-06-17T09:32:28.000Z</time>
      </trkpt>
      <trkpt lat="36.695636" lon="-5.119274">
        <ele>999.63</ele>
        <time>2021-06-17T09:32:29.000Z</time>
      </trkpt>
      <trkpt lat="36.695831" lon="-5.119255">
        <ele>999.41</ele>
        <time>2021-06-17T09:32:30.000Z</time>
      </trkpt>
      <trkpt lat="36.696025" lon="-5.119238">
        <ele>999.74</ele>
        <time>2021-06-17T09:32:31.000Z</time>
      </trkpt>
      <trkpt lat="36.696215" lon="-5.119206">
        <ele>999.52</ele>
        <time>2021-06-17T09:32:32.000Z</time>
      </trkpt>
      <trkpt lat="36.696399" lon="-5.119179">
        <ele>1000.58</ele>
        <time>2021-06-17T09:32:33.000Z</time>
      </trkpt>
      <trkpt lat="36.696582" lon="-5.119156">
        <ele>1000.63</ele>
        <time>2021-06-17T09:32:34.000Z</time>
      </trkpt>
      <trkpt lat="36.696748" lon="-5.119124">
        <ele>1000.81</ele>
        <time>2021-06-17T09:32:35.000Z</time>
      </trkpt>
      <trkpt lat="36.696918" lon="-5.11908">
        <ele>1001.34</ele>
        <time>2021-06-17T09:32:36.000Z</time>
      </trkpt>
      <trkpt lat="36.697076" lon="-5.119032">
        <ele>1000.97</ele>
        <time>2021-06-17T09:32:37.000Z</time>
      </trkpt>
      <trkpt lat="36.697242" lon="-5.118984">
        <ele>1001.03</ele>
        <time>2021-06-17T09:32:38.000Z</time>
      </trkpt>
      <trkpt lat="36.697386" lon="-5.118919">
        <ele>1001.32</ele>
        <time>2021-06-17T09:32:39.000Z</time>
      </trkpt>
      <trkpt lat="36.697519" lon="-5.118865">
        <ele>1001.2</ele>
        <time>2021-06-17T09:32:40.000Z</time>
      </trkpt>
      <trkpt lat="36.697669" lon="-5.118797">
        <ele>1001.67</ele>
        <time>2021-06-17T09:32:41.000Z</time>
      </trkpt>
      <trkpt lat="36.697942" lon="-5.118631">
        <ele>1000.82</ele>
        <time>2021-06-17T09:32:43.000Z</time>
      </trkpt>
      <trkpt lat="36.698067" lon="-5.118531">
        <ele>1001.27</ele>
        <time>2021-06-17T09:32:44.000Z</time>
      </trkpt>
      <trkpt lat="36.698273" lon="-5.118276">
        <ele>1000.62</ele>
        <time>2021-06-17T09:32:46.000Z</time>
      </trkpt>
      <trkpt lat="36.69843" lon="-5.117979">
        <ele>1001.05</ele>
        <time>2021-06-17T09:32:48.000Z</time>
      </trkpt>
      <trkpt lat="36.698509" lon="-5.117822">
        <ele>1001.74</ele>
        <time>2021-06-17T09:32:49.000Z</time>
      </trkpt>
      <trkpt lat="36.698564" lon="-5.11768">
        <ele>1002.62</ele>
        <time>2021-06-17T09:32:50.000Z</time>
      </trkpt>
      <trkpt lat="36.698715" lon="-5.11743">
        <ele>1002.23</ele>
        <time>2021-06-17T09:32:52.000Z</time>
      </trkpt>
      <trkpt lat="36.698794" lon="-5.117328">
        <ele>1002.49</ele>
        <time>2021-06-17T09:32:53.000Z</time>
      </trkpt>
      <trkpt lat="36.698883" lon="-5.117239">
        <ele>1002.61</ele>
        <time>2021-06-17T09:32:54.000Z</time>
      </trkpt>
      <trkpt lat="36.698984" lon="-5.117164">
        <ele>1002.52</ele>
        <time>2021-06-17T09:32:55.000Z</time>
      </trkpt>
      <trkpt lat="36.699113" lon="-5.1171">
        <ele>1002.93</ele>
        <time>2021-06-17T09:32:56.000Z</time>
      </trkpt>
      <trkpt lat="36.699387" lon="-5.117045">
        <ele>1003.05</ele>
        <time>2021-06-17T09:32:58.000Z</time>
      </trkpt>
      <trkpt lat="36.699518" lon="-5.117052">
        <ele>1002.6</ele>
        <time>2021-06-17T09:32:59.000Z</time>
      </trkpt>
      <trkpt lat="36.699679" lon="-5.117093">
        <ele>1002.08</ele>
        <time>2021-06-17T09:33:00.000Z</time>
      </trkpt>
      <trkpt lat="36.699816" lon="-5.117168">
        <ele>1001.9</ele>
        <time>2021-06-17T09:33:01.000Z</time>
      </trkpt>
      <trkpt lat="36.699933" lon="-5.117248">
        <ele>1001.11</ele>
        <time>2021-06-17T09:33:02.000Z</time>
      </trkpt>
      <trkpt lat="36.700038" lon="-5.117366">
        <ele>1001.27</ele>
        <time>2021-06-17T09:33:03.000Z</time>
      </trkpt>
      <trkpt lat="36.700101" lon="-5.11756">
        <ele>1003.68</ele>
        <time>2021-06-17T09:33:04.000Z</time>
      </trkpt>
      <trkpt lat="36.700163" lon="-5.117733">
        <ele>1006.02</ele>
        <time>2021-06-17T09:33:05.000Z</time>
      </trkpt>
      <trkpt lat="36.700239" lon="-5.117875">
        <ele>1006.64</ele>
        <time>2021-06-17T09:33:06.000Z</time>
      </trkpt>
      <trkpt lat="36.700326" lon="-5.118038">
        <ele>1006.83</ele>
        <time>2021-06-17T09:33:07.000Z</time>
      </trkpt>
      <trkpt lat="36.700428" lon="-5.118189">
        <ele>1006.43</ele>
        <time>2021-06-17T09:33:08.000Z</time>
      </trkpt>
      <trkpt lat="36.700533" lon="-5.118319">
        <ele>1006.56</ele>
        <time>2021-06-17T09:33:09.000Z</time>
      </trkpt>
      <trkpt lat="36.700653" lon="-5.118434">
        <ele>1006.84</ele>
        <time>2021-06-17T09:33:10.000Z</time>
      </trkpt>
      <trkpt lat="36.700777" lon="-5.118541">
        <ele>1005.45</ele>
        <time>2021-06-17T09:33:11.000Z</time>
      </trkpt>
      <trkpt lat="36.700906" lon="-5.118662">
        <ele>1005.26</ele>
        <time>2021-06-17T09:33:12.000Z</time>
      </trkpt>
      <trkpt lat="36.701033" lon="-5.118779">
        <ele>1005</ele>
        <time>2021-06-17T09:33:13.000Z</time>
      </trkpt>
      <trkpt lat="36.701163" lon="-5.1189">
        <ele>1005.79</ele>
        <time>2021-06-17T09:33:14.000Z</time>
      </trkpt>
      <trkpt lat="36.701274" lon="-5.119026">
        <ele>1005.45</ele>
        <time>2021-06-17T09:33:15.000Z</time>
      </trkpt>
      <trkpt lat="36.701369" lon="-5.119169">
        <ele>1005.3</ele>
        <time>2021-06-17T09:33:16.000Z</time>
      </trkpt>
      <trkpt lat="36.701459" lon="-5.119336">
        <ele>1004.64</ele>
        <time>2021-06-17T09:33:17.000Z</time>
      </trkpt>
      <trkpt lat="36.70153" lon="-5.119503">
        <ele>1004.74</ele>
        <time>2021-06-17T09:33:18.000Z</time>
      </trkpt>
      <trkpt lat="36.701589" lon="-5.119694">
        <ele>1004.22</ele>
        <time>2021-06-17T09:33:19.000Z</time>
      </trkpt>
      <trkpt lat="36.701638" lon="-5.119891">
        <ele>1003.93</ele>
        <time>2021-06-17T09:33:20.000Z</time>
      </trkpt>
      <trkpt lat="36.701682" lon="-5.120092">
        <ele>1003.06</ele>
        <time>2021-06-17T09:33:21.000Z</time>
      </trkpt>
      <trkpt lat="36.701719" lon="-5.120289">
        <ele>1003.91</ele>
        <time>2021-06-17T09:33:22.000Z</time>
      </trkpt>
      <trkpt lat="36.701745" lon="-5.120483">
        <ele>1004.25</ele>
        <time>2021-06-17T09:33:23.000Z</time>
      </trkpt>
      <trkpt lat="36.70176" lon="-5.120679">
        <ele>1003.55</ele>
        <time>2021-06-17T09:33:24.000Z</time>
      </trkpt>
      <trkpt lat="36.70177" lon="-5.120886">
        <ele>1002.56</ele>
        <time>2021-06-17T09:33:25.000Z</time>
      </trkpt>
      <trkpt lat="36.701771" lon="-5.121091">
        <ele>1001.93</ele>
        <time>2021-06-17T09:33:26.000Z</time>
      </trkpt>
      <trkpt lat="36.701772" lon="-5.121274">
        <ele>1000.53</ele>
        <time>2021-06-17T09:33:27.000Z</time>
      </trkpt>
      <trkpt lat="36.701761" lon="-5.12147">
        <ele>1001.24</ele>
        <time>2021-06-17T09:33:28.000Z</time>
      </trkpt>
      <trkpt lat="36.701748" lon="-5.121662">
        <ele>1001.94</ele>
        <time>2021-06-17T09:33:29.000Z</time>
      </trkpt>
      <trkpt lat="36.701735" lon="-5.121851">
        <ele>1001.94</ele>
        <time>2021-06-17T09:33:30.000Z</time>
      </trkpt>
      <trkpt lat="36.701723" lon="-5.12204">
        <ele>1002.16</ele>
        <time>2021-06-17T09:33:31.000Z</time>
      </trkpt>
      <trkpt lat="36.701711" lon="-5.122238">
        <ele>1001.32</ele>
        <time>2021-06-17T09:33:32.000Z</time>
      </trkpt>
      <trkpt lat="36.701701" lon="-5.122439">
        <ele>1000.53</ele>
        <time>2021-06-17T09:33:33.000Z</time>
      </trkpt>
      <trkpt lat="36.701696" lon="-5.122639">
        <ele>1000.8</ele>
        <time>2021-06-17T09:33:34.000Z</time>
      </trkpt>
      <trkpt lat="36.701682" lon="-5.122843">
        <ele>1000.7</ele>
        <time>2021-06-17T09:33:35.000Z</time>
      </trkpt>
      <trkpt lat="36.701671" lon="-5.123045">
        <ele>1000.29</ele>
        <time>2021-06-17T09:33:36.000Z</time>
      </trkpt>
      <trkpt lat="36.701661" lon="-5.123249">
        <ele>1000.43</ele>
        <time>2021-06-17T09:33:37.000Z</time>
      </trkpt>
      <trkpt lat="36.70166" lon="-5.123458">
        <ele>999.47</ele>
        <time>2021-06-17T09:33:38.000Z</time>
      </trkpt>
      <trkpt lat="36.701657" lon="-5.123663">
        <ele>999.2</ele>
        <time>2021-06-17T09:33:39.000Z</time>
      </trkpt>
      <trkpt lat="36.701664" lon="-5.123863">
        <ele>998.03</ele>
        <time>2021-06-17T09:33:40.000Z</time>
      </trkpt>
      <trkpt lat="36.701667" lon="-5.124077">
        <ele>996.89</ele>
        <time>2021-06-17T09:33:41.000Z</time>
      </trkpt>
      <trkpt lat="36.701673" lon="-5.124291">
        <ele>995.84</ele>
        <time>2021-06-17T09:33:42.000Z</time>
      </trkpt>
      <trkpt lat="36.701683" lon="-5.124491">
        <ele>995.72</ele>
        <time>2021-06-17T09:33:43.000Z</time>
      </trkpt>
      <trkpt lat="36.70169" lon="-5.124681">
        <ele>994.2</ele>
        <time>2021-06-17T09:33:44.000Z</time>
      </trkpt>
      <trkpt lat="36.701701" lon="-5.124884">
        <ele>993.86</ele>
        <time>2021-06-17T09:33:45.000Z</time>
      </trkpt>
      <trkpt lat="36.70171" lon="-5.12509">
        <ele>993.99</ele>
        <time>2021-06-17T09:33:46.000Z</time>
      </trkpt>
      <trkpt lat="36.701727" lon="-5.12528">
        <ele>993.02</ele>
        <time>2021-06-17T09:33:47.000Z</time>
      </trkpt>
      <trkpt lat="36.70174" lon="-5.125483">
        <ele>992.44</ele>
        <time>2021-06-17T09:33:48.000Z</time>
      </trkpt>
      <trkpt lat="36.701754" lon="-5.125688">
        <ele>991.55</ele>
        <time>2021-06-17T09:33:49.000Z</time>
      </trkpt>
      <trkpt lat="36.701776" lon="-5.125904">
        <ele>991.13</ele>
        <time>2021-06-17T09:33:50.000Z</time>
      </trkpt>
      <trkpt lat="36.701812" lon="-5.126108">
        <ele>990.05</ele>
        <time>2021-06-17T09:33:51.000Z</time>
      </trkpt>
      <trkpt lat="36.701857" lon="-5.1263">
        <ele>988.27</ele>
        <time>2021-06-17T09:33:52.000Z</time>
      </trkpt>
      <trkpt lat="36.701918" lon="-5.126477">
        <ele>985.83</ele>
        <time>2021-06-17T09:33:53.000Z</time>
      </trkpt>
      <trkpt lat="36.701999" lon="-5.126641">
        <ele>983.91</ele>
        <time>2021-06-17T09:33:54.000Z</time>
      </trkpt>
      <trkpt lat="36.70209" lon="-5.126809">
        <ele>982.82</ele>
        <time>2021-06-17T09:33:55.000Z</time>
      </trkpt>
      <trkpt lat="36.702192" lon="-5.126969">
        <ele>980.52</ele>
        <time>2021-06-17T09:33:56.000Z</time>
      </trkpt>
      <trkpt lat="36.702299" lon="-5.127133">
        <ele>978.66</ele>
        <time>2021-06-17T09:33:57.000Z</time>
      </trkpt>
      <trkpt lat="36.702411" lon="-5.127297">
        <ele>977.53</ele>
        <time>2021-06-17T09:33:58.000Z</time>
      </trkpt>
      <trkpt lat="36.702524" lon="-5.127456">
        <ele>976.78</ele>
        <time>2021-06-17T09:33:59.000Z</time>
      </trkpt>
      <trkpt lat="36.702636" lon="-5.127625">
        <ele>977.39</ele>
        <time>2021-06-17T09:34:00.000Z</time>
      </trkpt>
      <trkpt lat="36.702745" lon="-5.127782">
        <ele>976.59</ele>
        <time>2021-06-17T09:34:01.000Z</time>
      </trkpt>
      <trkpt lat="36.702856" lon="-5.127934">
        <ele>974.84</ele>
        <time>2021-06-17T09:34:02.000Z</time>
      </trkpt>
      <trkpt lat="36.702966" lon="-5.128085">
        <ele>974.69</ele>
        <time>2021-06-17T09:34:03.000Z</time>
      </trkpt>
      <trkpt lat="36.703072" lon="-5.128247">
        <ele>975.67</ele>
        <time>2021-06-17T09:34:04.000Z</time>
      </trkpt>
      <trkpt lat="36.703184" lon="-5.12841">
        <ele>976.29</ele>
        <time>2021-06-17T09:34:05.000Z</time>
      </trkpt>
      <trkpt lat="36.703287" lon="-5.12859">
        <ele>979.28</ele>
        <time>2021-06-17T09:34:06.000Z</time>
      </trkpt>
      <trkpt lat="36.703391" lon="-5.128752">
        <ele>980.39</ele>
        <time>2021-06-17T09:34:07.000Z</time>
      </trkpt>
      <trkpt lat="36.703498" lon="-5.128901">
        <ele>979.89</ele>
        <time>2021-06-17T09:34:08.000Z</time>
      </trkpt>
      <trkpt lat="36.703606" lon="-5.12905">
        <ele>979.82</ele>
        <time>2021-06-17T09:34:09.000Z</time>
      </trkpt>
      <trkpt lat="36.703715" lon="-5.129184">
        <ele>977.97</ele>
        <time>2021-06-17T09:34:10.000Z</time>
      </trkpt>
      <trkpt lat="36.70382" lon="-5.12934">
        <ele>977.72</ele>
        <time>2021-06-17T09:34:11.000Z</time>
      </trkpt>
      <trkpt lat="36.703919" lon="-5.129496">
        <ele>979.13</ele>
        <time>2021-06-17T09:34:12.000Z</time>
      </trkpt>
      <trkpt lat="36.704024" lon="-5.12965">
        <ele>978.44</ele>
        <time>2021-06-17T09:34:13.000Z</time>
      </trkpt>
      <trkpt lat="36.704122" lon="-5.129801">
        <ele>979.55</ele>
        <time>2021-06-17T09:34:14.000Z</time>
      </trkpt>
      <trkpt lat="36.704224" lon="-5.129944">
        <ele>979.1</ele>
        <time>2021-06-17T09:34:15.000Z</time>
      </trkpt>
      <trkpt lat="36.704342" lon="-5.130063">
        <ele>977.85</ele>
        <time>2021-06-17T09:34:16.000Z</time>
      </trkpt>
      <trkpt lat="36.704458" lon="-5.130189">
        <ele>976.97</ele>
        <time>2021-06-17T09:34:17.000Z</time>
      </trkpt>
      <trkpt lat="36.70457" lon="-5.130304">
        <ele>976.79</ele>
        <time>2021-06-17T09:34:18.000Z</time>
      </trkpt>
      <trkpt lat="36.704685" lon="-5.130386">
        <ele>976.29</ele>
        <time>2021-06-17T09:34:19.000Z</time>
      </trkpt>
      <trkpt lat="36.704795" lon="-5.130448">
        <ele>975.25</ele>
        <time>2021-06-17T09:34:20.000Z</time>
      </trkpt>
      <trkpt lat="36.704916" lon="-5.130501">
        <ele>975.03</ele>
        <time>2021-06-17T09:34:21.000Z</time>
      </trkpt>
      <trkpt lat="36.705031" lon="-5.130541">
        <ele>974.54</ele>
        <time>2021-06-17T09:34:22.000Z</time>
      </trkpt>
      <trkpt lat="36.705165" lon="-5.130566">
        <ele>974.08</ele>
        <time>2021-06-17T09:34:23.000Z</time>
      </trkpt>
      <trkpt lat="36.705314" lon="-5.130566">
        <ele>973.26</ele>
        <time>2021-06-17T09:34:24.000Z</time>
      </trkpt>
      <trkpt lat="36.705469" lon="-5.130549">
        <ele>972.12</ele>
        <time>2021-06-17T09:34:25.000Z</time>
      </trkpt>
      <trkpt lat="36.705636" lon="-5.130518">
        <ele>972.28</ele>
        <time>2021-06-17T09:34:26.000Z</time>
      </trkpt>
      <trkpt lat="36.705797" lon="-5.13048">
        <ele>971.4</ele>
        <time>2021-06-17T09:34:27.000Z</time>
      </trkpt>
      <trkpt lat="36.705959" lon="-5.130448">
        <ele>972.35</ele>
        <time>2021-06-17T09:34:28.000Z</time>
      </trkpt>
      <trkpt lat="36.706107" lon="-5.130414">
        <ele>971.23</ele>
        <time>2021-06-17T09:34:29.000Z</time>
      </trkpt>
      <trkpt lat="36.706271" lon="-5.130382">
        <ele>970.81</ele>
        <time>2021-06-17T09:34:30.000Z</time>
      </trkpt>
      <trkpt lat="36.706432" lon="-5.130349">
        <ele>968.88</ele>
        <time>2021-06-17T09:34:31.000Z</time>
      </trkpt>
      <trkpt lat="36.706574" lon="-5.130311">
        <ele>968.31</ele>
        <time>2021-06-17T09:34:32.000Z</time>
      </trkpt>
      <trkpt lat="36.706715" lon="-5.130281">
        <ele>967.93</ele>
        <time>2021-06-17T09:34:33.000Z</time>
      </trkpt>
      <trkpt lat="36.706868" lon="-5.130264">
        <ele>966.01</ele>
        <time>2021-06-17T09:34:34.000Z</time>
      </trkpt>
      <trkpt lat="36.707005" lon="-5.130227">
        <ele>965.33</ele>
        <time>2021-06-17T09:34:35.000Z</time>
      </trkpt>
      <trkpt lat="36.707145" lon="-5.130196">
        <ele>964.09</ele>
        <time>2021-06-17T09:34:36.000Z</time>
      </trkpt>
      <trkpt lat="36.707279" lon="-5.13018">
        <ele>962.95</ele>
        <time>2021-06-17T09:34:37.000Z</time>
      </trkpt>
      <trkpt lat="36.707409" lon="-5.130171">
        <ele>961.08</ele>
        <time>2021-06-17T09:34:38.000Z</time>
      </trkpt>
      <trkpt lat="36.707537" lon="-5.130194">
        <ele>959.8</ele>
        <time>2021-06-17T09:34:39.000Z</time>
      </trkpt>
      <trkpt lat="36.707657" lon="-5.130242">
        <ele>959.76</ele>
        <time>2021-06-17T09:34:40.000Z</time>
      </trkpt>
      <trkpt lat="36.707759" lon="-5.130312">
        <ele>959.17</ele>
        <time>2021-06-17T09:34:41.000Z</time>
      </trkpt>
      <trkpt lat="36.70787" lon="-5.130412">
        <ele>958.34</ele>
        <time>2021-06-17T09:34:42.000Z</time>
      </trkpt>
      <trkpt lat="36.707961" lon="-5.13053">
        <ele>957.13</ele>
        <time>2021-06-17T09:34:43.000Z</time>
      </trkpt>
      <trkpt lat="36.708033" lon="-5.130654">
        <ele>956.08</ele>
        <time>2021-06-17T09:34:44.000Z</time>
      </trkpt>
      <trkpt lat="36.708096" lon="-5.130798">
        <ele>954.34</ele>
        <time>2021-06-17T09:34:45.000Z</time>
      </trkpt>
      <trkpt lat="36.708141" lon="-5.130945">
        <ele>953.04</ele>
        <time>2021-06-17T09:34:46.000Z</time>
      </trkpt>
      <trkpt lat="36.708165" lon="-5.131103">
        <ele>952.26</ele>
        <time>2021-06-17T09:34:47.000Z</time>
      </trkpt>
      <trkpt lat="36.70817" lon="-5.131265">
        <ele>951.19</ele>
        <time>2021-06-17T09:34:48.000Z</time>
      </trkpt>
      <trkpt lat="36.70816" lon="-5.131422">
        <ele>950.84</ele>
        <time>2021-06-17T09:34:49.000Z</time>
      </trkpt>
      <trkpt lat="36.708151" lon="-5.131582">
        <ele>949.68</ele>
        <time>2021-06-17T09:34:50.000Z</time>
      </trkpt>
      <trkpt lat="36.708139" lon="-5.131746">
        <ele>948.28</ele>
        <time>2021-06-17T09:34:51.000Z</time>
      </trkpt>
      <trkpt lat="36.708145" lon="-5.131902">
        <ele>947.11</ele>
        <time>2021-06-17T09:34:52.000Z</time>
      </trkpt>
      <trkpt lat="36.708162" lon="-5.132059">
        <ele>946.65</ele>
        <time>2021-06-17T09:34:53.000Z</time>
      </trkpt>
      <trkpt lat="36.708198" lon="-5.132211">
        <ele>946.26</ele>
        <time>2021-06-17T09:34:54.000Z</time>
      </trkpt>
      <trkpt lat="36.708253" lon="-5.13236">
        <ele>944.86</ele>
        <time>2021-06-17T09:34:55.000Z</time>
      </trkpt>
      <trkpt lat="36.708318" lon="-5.132491">
        <ele>943.88</ele>
        <time>2021-06-17T09:34:56.000Z</time>
      </trkpt>
      <trkpt lat="36.708399" lon="-5.132612">
        <ele>942.97</ele>
        <time>2021-06-17T09:34:57.000Z</time>
      </trkpt>
      <trkpt lat="36.708491" lon="-5.132721">
        <ele>942.03</ele>
        <time>2021-06-17T09:34:58.000Z</time>
      </trkpt>
      <trkpt lat="36.708601" lon="-5.132812">
        <ele>940.76</ele>
        <time>2021-06-17T09:34:59.000Z</time>
      </trkpt>
      <trkpt lat="36.708711" lon="-5.132875">
        <ele>939.14</ele>
        <time>2021-06-17T09:35:00.000Z</time>
      </trkpt>
      <trkpt lat="36.708839" lon="-5.132915">
        <ele>937.24</ele>
        <time>2021-06-17T09:35:01.000Z</time>
      </trkpt>
      <trkpt lat="36.70897" lon="-5.132922">
        <ele>935.02</ele>
        <time>2021-06-17T09:35:02.000Z</time>
      </trkpt>
      <trkpt lat="36.709106" lon="-5.132929">
        <ele>933.79</ele>
        <time>2021-06-17T09:35:03.000Z</time>
      </trkpt>
      <trkpt lat="36.709219" lon="-5.132902">
        <ele>932.84</ele>
        <time>2021-06-17T09:35:04.000Z</time>
      </trkpt>
      <trkpt lat="36.709349" lon="-5.132844">
        <ele>932.01</ele>
        <time>2021-06-17T09:35:05.000Z</time>
      </trkpt>
      <trkpt lat="36.709454" lon="-5.132731">
        <ele>930.56</ele>
        <time>2021-06-17T09:35:06.000Z</time>
      </trkpt>
      <trkpt lat="36.709563" lon="-5.13262">
        <ele>929.72</ele>
        <time>2021-06-17T09:35:07.000Z</time>
      </trkpt>
      <trkpt lat="36.709674" lon="-5.13249">
        <ele>929.08</ele>
        <time>2021-06-17T09:35:08.000Z</time>
      </trkpt>
      <trkpt lat="36.709793" lon="-5.132358">
        <ele>929.13</ele>
        <time>2021-06-17T09:35:09.000Z</time>
      </trkpt>
      <trkpt lat="36.709895" lon="-5.132229">
        <ele>928.68</ele>
        <time>2021-06-17T09:35:10.000Z</time>
      </trkpt>
      <trkpt lat="36.710003" lon="-5.132094">
        <ele>928.59</ele>
        <time>2021-06-17T09:35:11.000Z</time>
      </trkpt>
      <trkpt lat="36.7101" lon="-5.131954">
        <ele>926.47</ele>
        <time>2021-06-17T09:35:12.000Z</time>
      </trkpt>
      <trkpt lat="36.710206" lon="-5.131832">
        <ele>924.91</ele>
        <time>2021-06-17T09:35:13.000Z</time>
      </trkpt>
      <trkpt lat="36.710308" lon="-5.131691">
        <ele>924.48</ele>
        <time>2021-06-17T09:35:14.000Z</time>
      </trkpt>
      <trkpt lat="36.710412" lon="-5.131562">
        <ele>924.61</ele>
        <time>2021-06-17T09:35:15.000Z</time>
      </trkpt>
      <trkpt lat="36.71053" lon="-5.13143">
        <ele>923.9</ele>
        <time>2021-06-17T09:35:16.000Z</time>
      </trkpt>
      <trkpt lat="36.710649" lon="-5.131323">
        <ele>921.88</ele>
        <time>2021-06-17T09:35:17.000Z</time>
      </trkpt>
      <trkpt lat="36.710773" lon="-5.131234">
        <ele>920.19</ele>
        <time>2021-06-17T09:35:18.000Z</time>
      </trkpt>
      <trkpt lat="36.710911" lon="-5.131162">
        <ele>918.86</ele>
        <time>2021-06-17T09:35:19.000Z</time>
      </trkpt>
      <trkpt lat="36.711072" lon="-5.131099">
        <ele>917.78</ele>
        <time>2021-06-17T09:35:20.000Z</time>
      </trkpt>
      <trkpt lat="36.711226" lon="-5.131048">
        <ele>916.49</ele>
        <time>2021-06-17T09:35:21.000Z</time>
      </trkpt>
      <trkpt lat="36.711379" lon="-5.13102">
        <ele>915.61</ele>
        <time>2021-06-17T09:35:22.000Z</time>
      </trkpt>
      <trkpt lat="36.711523" lon="-5.131017">
        <ele>914.15</ele>
        <time>2021-06-17T09:35:23.000Z</time>
      </trkpt>
      <trkpt lat="36.711674" lon="-5.131033">
        <ele>912.4</ele>
        <time>2021-06-17T09:35:24.000Z</time>
      </trkpt>
      <trkpt lat="36.711831" lon="-5.131067">
        <ele>911.46</ele>
        <time>2021-06-17T09:35:25.000Z</time>
      </trkpt>
      <trkpt lat="36.71197" lon="-5.131121">
        <ele>909.84</ele>
        <time>2021-06-17T09:35:26.000Z</time>
      </trkpt>
      <trkpt lat="36.712111" lon="-5.131195">
        <ele>908.79</ele>
        <time>2021-06-17T09:35:27.000Z</time>
      </trkpt>
      <trkpt lat="36.712248" lon="-5.131288">
        <ele>907.64</ele>
        <time>2021-06-17T09:35:28.000Z</time>
      </trkpt>
      <trkpt lat="36.712373" lon="-5.131399">
        <ele>906.62</ele>
        <time>2021-06-17T09:35:29.000Z</time>
      </trkpt>
      <trkpt lat="36.712495" lon="-5.131526">
        <ele>905.57</ele>
        <time>2021-06-17T09:35:30.000Z</time>
      </trkpt>
      <trkpt lat="36.712608" lon="-5.13167">
        <ele>904.47</ele>
        <time>2021-06-17T09:35:31.000Z</time>
      </trkpt>
      <trkpt lat="36.712706" lon="-5.131826">
        <ele>903.71</ele>
        <time>2021-06-17T09:35:32.000Z</time>
      </trkpt>
      <trkpt lat="36.712798" lon="-5.131971">
        <ele>903.13</ele>
        <time>2021-06-17T09:35:33.000Z</time>
      </trkpt>
      <trkpt lat="36.712876" lon="-5.132131">
        <ele>901.62</ele>
        <time>2021-06-17T09:35:34.000Z</time>
      </trkpt>
      <trkpt lat="36.713056" lon="-5.132459">
        <ele>898.21</ele>
        <time>2021-06-17T09:35:36.000Z</time>
      </trkpt>
      <trkpt lat="36.713143" lon="-5.132619">
        <ele>895.49</ele>
        <time>2021-06-17T09:35:37.000Z</time>
      </trkpt>
      <trkpt lat="36.713231" lon="-5.132786">
        <ele>894.1</ele>
        <time>2021-06-17T09:35:38.000Z</time>
      </trkpt>
      <trkpt lat="36.713323" lon="-5.13295">
        <ele>892.23</ele>
        <time>2021-06-17T09:35:39.000Z</time>
      </trkpt>
      <trkpt lat="36.713413" lon="-5.133118">
        <ele>891.49</ele>
        <time>2021-06-17T09:35:40.000Z</time>
      </trkpt>
      <trkpt lat="36.713501" lon="-5.133292">
        <ele>889.53</ele>
        <time>2021-06-17T09:35:41.000Z</time>
      </trkpt>
      <trkpt lat="36.713594" lon="-5.133467">
        <ele>888.7</ele>
        <time>2021-06-17T09:35:42.000Z</time>
      </trkpt>
      <trkpt lat="36.713677" lon="-5.13364">
        <ele>887.97</ele>
        <time>2021-06-17T09:35:43.000Z</time>
      </trkpt>
      <trkpt lat="36.713761" lon="-5.133807">
        <ele>885.67</ele>
        <time>2021-06-17T09:35:44.000Z</time>
      </trkpt>
      <trkpt lat="36.713829" lon="-5.134007">
        <ele>884.71</ele>
        <time>2021-06-17T09:35:45.000Z</time>
      </trkpt>
      <trkpt lat="36.713876" lon="-5.134209">
        <ele>883.95</ele>
        <time>2021-06-17T09:35:46.000Z</time>
      </trkpt>
      <trkpt lat="36.713907" lon="-5.134397">
        <ele>881.89</ele>
        <time>2021-06-17T09:35:47.000Z</time>
      </trkpt>
      <trkpt lat="36.713926" lon="-5.134604">
        <ele>880.91</ele>
        <time>2021-06-17T09:35:48.000Z</time>
      </trkpt>
      <trkpt lat="36.713915" lon="-5.134816">
        <ele>879.4</ele>
        <time>2021-06-17T09:35:49.000Z</time>
      </trkpt>
      <trkpt lat="36.713909" lon="-5.135031">
        <ele>878.02</ele>
        <time>2021-06-17T09:35:50.000Z</time>
      </trkpt>
      <trkpt lat="36.713908" lon="-5.135238">
        <ele>876.06</ele>
        <time>2021-06-17T09:35:51.000Z</time>
      </trkpt>
      <trkpt lat="36.713907" lon="-5.135451">
        <ele>875.29</ele>
        <time>2021-06-17T09:35:52.000Z</time>
      </trkpt>
      <trkpt lat="36.713904" lon="-5.135667">
        <ele>874.73</ele>
        <time>2021-06-17T09:35:53.000Z</time>
      </trkpt>
      <trkpt lat="36.713913" lon="-5.135884">
        <ele>874.09</ele>
        <time>2021-06-17T09:35:54.000Z</time>
      </trkpt>
      <trkpt lat="36.713928" lon="-5.13609">
        <ele>873.04</ele>
        <time>2021-06-17T09:35:55.000Z</time>
      </trkpt>
      <trkpt lat="36.713946" lon="-5.1363">
        <ele>872.63</ele>
        <time>2021-06-17T09:35:56.000Z</time>
      </trkpt>
      <trkpt lat="36.713972" lon="-5.136511">
        <ele>871.73</ele>
        <time>2021-06-17T09:35:57.000Z</time>
      </trkpt>
      <trkpt lat="36.714006" lon="-5.136729">
        <ele>870.92</ele>
        <time>2021-06-17T09:35:58.000Z</time>
      </trkpt>
      <trkpt lat="36.714044" lon="-5.136938">
        <ele>870.73</ele>
        <time>2021-06-17T09:35:59.000Z</time>
      </trkpt>
      <trkpt lat="36.714096" lon="-5.137139">
        <ele>869.36</ele>
        <time>2021-06-17T09:36:00.000Z</time>
      </trkpt>
      <trkpt lat="36.71416" lon="-5.137322">
        <ele>867.55</ele>
        <time>2021-06-17T09:36:01.000Z</time>
      </trkpt>
      <trkpt lat="36.714229" lon="-5.137513">
        <ele>866.41</ele>
        <time>2021-06-17T09:36:02.000Z</time>
      </trkpt>
      <trkpt lat="36.714301" lon="-5.1377">
        <ele>865.9</ele>
        <time>2021-06-17T09:36:03.000Z</time>
      </trkpt>
      <trkpt lat="36.714377" lon="-5.13788">
        <ele>865.15</ele>
        <time>2021-06-17T09:36:04.000Z</time>
      </trkpt>
      <trkpt lat="36.714462" lon="-5.138051">
        <ele>864.01</ele>
        <time>2021-06-17T09:36:05.000Z</time>
      </trkpt>
      <trkpt lat="36.714558" lon="-5.138222">
        <ele>862.92</ele>
        <time>2021-06-17T09:36:06.000Z</time>
      </trkpt>
      <trkpt lat="36.714666" lon="-5.138378">
        <ele>861.95</ele>
        <time>2021-06-17T09:36:07.000Z</time>
      </trkpt>
      <trkpt lat="36.714788" lon="-5.138517">
        <ele>860.6</ele>
        <time>2021-06-17T09:36:08.000Z</time>
      </trkpt>
      <trkpt lat="36.714915" lon="-5.138625">
        <ele>858.93</ele>
        <time>2021-06-17T09:36:09.000Z</time>
      </trkpt>
      <trkpt lat="36.715045" lon="-5.138743">
        <ele>857.3</ele>
        <time>2021-06-17T09:36:10.000Z</time>
      </trkpt>
      <trkpt lat="36.715193" lon="-5.138844">
        <ele>856.92</ele>
        <time>2021-06-17T09:36:11.000Z</time>
      </trkpt>
      <trkpt lat="36.715349" lon="-5.138928">
        <ele>855.23</ele>
        <time>2021-06-17T09:36:12.000Z</time>
      </trkpt>
      <trkpt lat="36.715513" lon="-5.139021">
        <ele>854.31</ele>
        <time>2021-06-17T09:36:13.000Z</time>
      </trkpt>
      <trkpt lat="36.7157" lon="-5.139057">
        <ele>849.49</ele>
        <time>2021-06-17T09:36:14.000Z</time>
      </trkpt>
      <trkpt lat="36.715903" lon="-5.139113">
        <ele>847.31</ele>
        <time>2021-06-17T09:36:15.000Z</time>
      </trkpt>
      <trkpt lat="36.716122" lon="-5.139172">
        <ele>845.29</ele>
        <time>2021-06-17T09:36:16.000Z</time>
      </trkpt>
      <trkpt lat="36.716349" lon="-5.139225">
        <ele>844.21</ele>
        <time>2021-06-17T09:36:17.000Z</time>
      </trkpt>
      <trkpt lat="36.71658" lon="-5.139281">
        <ele>843.27</ele>
        <time>2021-06-17T09:36:18.000Z</time>
      </trkpt>
      <trkpt lat="36.716801" lon="-5.139296">
        <ele>838.72</ele>
        <time>2021-06-17T09:36:19.000Z</time>
      </trkpt>
      <trkpt lat="36.717034" lon="-5.139361">
        <ele>838.66</ele>
        <time>2021-06-17T09:36:20.000Z</time>
      </trkpt>
      <trkpt lat="36.717258" lon="-5.139427">
        <ele>837.82</ele>
        <time>2021-06-17T09:36:21.000Z</time>
      </trkpt>
      <trkpt lat="36.717485" lon="-5.139485">
        <ele>836.18</ele>
        <time>2021-06-17T09:36:22.000Z</time>
      </trkpt>
      <trkpt lat="36.717715" lon="-5.139545">
        <ele>834.86</ele>
        <time>2021-06-17T09:36:23.000Z</time>
      </trkpt>
      <trkpt lat="36.717931" lon="-5.1396">
        <ele>833.56</ele>
        <time>2021-06-17T09:36:24.000Z</time>
      </trkpt>
      <trkpt lat="36.718137" lon="-5.139657">
        <ele>832.47</ele>
        <time>2021-06-17T09:36:25.000Z</time>
      </trkpt>
      <trkpt lat="36.718342" lon="-5.139711">
        <ele>830.99</ele>
        <time>2021-06-17T09:36:26.000Z</time>
      </trkpt>
      <trkpt lat="36.71854" lon="-5.139786">
        <ele>829.47</ele>
        <time>2021-06-17T09:36:27.000Z</time>
      </trkpt>
      <trkpt lat="36.718729" lon="-5.139871">
        <ele>827.83</ele>
        <time>2021-06-17T09:36:28.000Z</time>
      </trkpt>
      <trkpt lat="36.718913" lon="-5.139983">
        <ele>826.15</ele>
        <time>2021-06-17T09:36:29.000Z</time>
      </trkpt>
      <trkpt lat="36.719089" lon="-5.140105">
        <ele>824.2</ele>
        <time>2021-06-17T09:36:30.000Z</time>
      </trkpt>
      <trkpt lat="36.719254" lon="-5.140244">
        <ele>823.26</ele>
        <time>2021-06-17T09:36:31.000Z</time>
      </trkpt>
      <trkpt lat="36.719409" lon="-5.140354">
        <ele>819.57</ele>
        <time>2021-06-17T09:36:32.000Z</time>
      </trkpt>
      <trkpt lat="36.719552" lon="-5.14052">
        <ele>819.22</ele>
        <time>2021-06-17T09:36:33.000Z</time>
      </trkpt>
      <trkpt lat="36.719657" lon="-5.14072">
        <ele>818.43</ele>
        <time>2021-06-17T09:36:34.000Z</time>
      </trkpt>
      <trkpt lat="36.719764" lon="-5.140923">
        <ele>818.02</ele>
        <time>2021-06-17T09:36:35.000Z</time>
      </trkpt>
      <trkpt lat="36.719864" lon="-5.141148">
        <ele>816.97</ele>
        <time>2021-06-17T09:36:36.000Z</time>
      </trkpt>
      <trkpt lat="36.719949" lon="-5.141381">
        <ele>816.12</ele>
        <time>2021-06-17T09:36:37.000Z</time>
      </trkpt>
      <trkpt lat="36.720015" lon="-5.141618">
        <ele>815.18</ele>
        <time>2021-06-17T09:36:38.000Z</time>
      </trkpt>
      <trkpt lat="36.720076" lon="-5.141872">
        <ele>814.04</ele>
        <time>2021-06-17T09:36:39.000Z</time>
      </trkpt>
      <trkpt lat="36.720133" lon="-5.142128">
        <ele>813.21</ele>
        <time>2021-06-17T09:36:40.000Z</time>
      </trkpt>
      <trkpt lat="36.720191" lon="-5.142386">
        <ele>812.65</ele>
        <time>2021-06-17T09:36:41.000Z</time>
      </trkpt>
      <trkpt lat="36.720241" lon="-5.142641">
        <ele>812.26</ele>
        <time>2021-06-17T09:36:42.000Z</time>
      </trkpt>
      <trkpt lat="36.720296" lon="-5.142902">
        <ele>811.64</ele>
        <time>2021-06-17T09:36:43.000Z</time>
      </trkpt>
      <trkpt lat="36.720352" lon="-5.143153">
        <ele>811.29</ele>
        <time>2021-06-17T09:36:44.000Z</time>
      </trkpt>
      <trkpt lat="36.720402" lon="-5.143395">
        <ele>810.48</ele>
        <time>2021-06-17T09:36:45.000Z</time>
      </trkpt>
      <trkpt lat="36.720449" lon="-5.143626">
        <ele>810.34</ele>
        <time>2021-06-17T09:36:46.000Z</time>
      </trkpt>
      <trkpt lat="36.720496" lon="-5.143855">
        <ele>810.08</ele>
        <time>2021-06-17T09:36:47.000Z</time>
      </trkpt>
      <trkpt lat="36.720546" lon="-5.144075">
        <ele>809.42</ele>
        <time>2021-06-17T09:36:48.000Z</time>
      </trkpt>
      <trkpt lat="36.72061" lon="-5.144275">
        <ele>808.55</ele>
        <time>2021-06-17T09:36:49.000Z</time>
      </trkpt>
      <trkpt lat="36.720686" lon="-5.144483">
        <ele>809.31</ele>
        <time>2021-06-17T09:36:50.000Z</time>
      </trkpt>
      <trkpt lat="36.720782" lon="-5.144672">
        <ele>809.67</ele>
        <time>2021-06-17T09:36:51.000Z</time>
      </trkpt>
      <trkpt lat="36.720891" lon="-5.144844">
        <ele>809.22</ele>
        <time>2021-06-17T09:36:52.000Z</time>
      </trkpt>
      <trkpt lat="36.721016" lon="-5.145003">
        <ele>808.32</ele>
        <time>2021-06-17T09:36:53.000Z</time>
      </trkpt>
      <trkpt lat="36.721159" lon="-5.145162">
        <ele>808.09</ele>
        <time>2021-06-17T09:36:54.000Z</time>
      </trkpt>
      <trkpt lat="36.721313" lon="-5.14529">
        <ele>807.62</ele>
        <time>2021-06-17T09:36:55.000Z</time>
      </trkpt>
      <trkpt lat="36.721485" lon="-5.145409">
        <ele>808.17</ele>
        <time>2021-06-17T09:36:56.000Z</time>
      </trkpt>
      <trkpt lat="36.72167" lon="-5.145503">
        <ele>806.9</ele>
        <time>2021-06-17T09:36:57.000Z</time>
      </trkpt>
      <trkpt lat="36.721862" lon="-5.145584">
        <ele>806.13</ele>
        <time>2021-06-17T09:36:58.000Z</time>
      </trkpt>
      <trkpt lat="36.72206" lon="-5.14565">
        <ele>805.05</ele>
        <time>2021-06-17T09:36:59.000Z</time>
      </trkpt>
      <trkpt lat="36.72227" lon="-5.145705">
        <ele>804.19</ele>
        <time>2021-06-17T09:37:00.000Z</time>
      </trkpt>
      <trkpt lat="36.72249" lon="-5.145755">
        <ele>804.1</ele>
        <time>2021-06-17T09:37:01.000Z</time>
      </trkpt>
      <trkpt lat="36.72271" lon="-5.1458">
        <ele>803.3</ele>
        <time>2021-06-17T09:37:02.000Z</time>
      </trkpt>
      <trkpt lat="36.722933" lon="-5.14584">
        <ele>802.44</ele>
        <time>2021-06-17T09:37:03.000Z</time>
      </trkpt>
      <trkpt lat="36.723148" lon="-5.145879">
        <ele>802.59</ele>
        <time>2021-06-17T09:37:04.000Z</time>
      </trkpt>
      <trkpt lat="36.723357" lon="-5.145919">
        <ele>802.72</ele>
        <time>2021-06-17T09:37:05.000Z</time>
      </trkpt>
      <trkpt lat="36.723558" lon="-5.145958">
        <ele>802.98</ele>
        <time>2021-06-17T09:37:06.000Z</time>
      </trkpt>
      <trkpt lat="36.723762" lon="-5.145994">
        <ele>802.7</ele>
        <time>2021-06-17T09:37:07.000Z</time>
      </trkpt>
      <trkpt lat="36.723951" lon="-5.146035">
        <ele>802.4</ele>
        <time>2021-06-17T09:37:08.000Z</time>
      </trkpt>
      <trkpt lat="36.724137" lon="-5.146071">
        <ele>802.76</ele>
        <time>2021-06-17T09:37:09.000Z</time>
      </trkpt>
      <trkpt lat="36.724323" lon="-5.146102">
        <ele>801.82</ele>
        <time>2021-06-17T09:37:10.000Z</time>
      </trkpt>
      <trkpt lat="36.7245" lon="-5.146119">
        <ele>802.26</ele>
        <time>2021-06-17T09:37:11.000Z</time>
      </trkpt>
      <trkpt lat="36.724674" lon="-5.146146">
        <ele>801.79</ele>
        <time>2021-06-17T09:37:12.000Z</time>
      </trkpt>
      <trkpt lat="36.724839" lon="-5.146181">
        <ele>800.16</ele>
        <time>2021-06-17T09:37:13.000Z</time>
      </trkpt>
      <trkpt lat="36.72501" lon="-5.146199">
        <ele>797.46</ele>
        <time>2021-06-17T09:37:14.000Z</time>
      </trkpt>
      <trkpt lat="36.725165" lon="-5.146234">
        <ele>796.66</ele>
        <time>2021-06-17T09:37:15.000Z</time>
      </trkpt>
      <trkpt lat="36.725309" lon="-5.146271">
        <ele>795.49</ele>
        <time>2021-06-17T09:37:16.000Z</time>
      </trkpt>
      <trkpt lat="36.725445" lon="-5.146309">
        <ele>794.07</ele>
        <time>2021-06-17T09:37:17.000Z</time>
      </trkpt>
      <trkpt lat="36.725563" lon="-5.14633">
        <ele>792.51</ele>
        <time>2021-06-17T09:37:18.000Z</time>
      </trkpt>
      <trkpt lat="36.725678" lon="-5.14635">
        <ele>791.78</ele>
        <time>2021-06-17T09:37:19.000Z</time>
      </trkpt>
      <trkpt lat="36.725778" lon="-5.14637">
        <ele>790.98</ele>
        <time>2021-06-17T09:37:20.000Z</time>
      </trkpt>
      <trkpt lat="36.725858" lon="-5.146393">
        <ele>790.17</ele>
        <time>2021-06-17T09:37:21.000Z</time>
      </trkpt>
      <trkpt lat="36.725935" lon="-5.146404">
        <ele>789.23</ele>
        <time>2021-06-17T09:37:22.000Z</time>
      </trkpt>
      <trkpt lat="36.726001" lon="-5.146421">
        <ele>789.08</ele>
        <time>2021-06-17T09:37:23.000Z</time>
      </trkpt>
      <trkpt lat="36.726054" lon="-5.146449">
        <ele>789.81</ele>
        <time>2021-06-17T09:37:24.000Z</time>
      </trkpt>
      <trkpt lat="36.72612" lon="-5.146458">
        <ele>789.53</ele>
        <time>2021-06-17T09:37:25.000Z</time>
      </trkpt>
      <trkpt lat="36.726192" lon="-5.146463">
        <ele>789.03</ele>
        <time>2021-06-17T09:37:26.000Z</time>
      </trkpt>
      <trkpt lat="36.726266" lon="-5.146488">
        <ele>788.83</ele>
        <time>2021-06-17T09:37:27.000Z</time>
      </trkpt>
      <trkpt lat="36.726323" lon="-5.146543">
        <ele>788.64</ele>
        <time>2021-06-17T09:37:28.000Z</time>
      </trkpt>
      <trkpt lat="36.726366" lon="-5.14661">
        <ele>788.02</ele>
        <time>2021-06-17T09:37:29.000Z</time>
      </trkpt>
      <trkpt lat="36.726395" lon="-5.146676">
        <ele>786.97</ele>
        <time>2021-06-17T09:37:30.000Z</time>
      </trkpt>
      <trkpt lat="36.726409" lon="-5.146778">
        <ele>787.09</ele>
        <time>2021-06-17T09:37:31.000Z</time>
      </trkpt>
      <trkpt lat="36.726409" lon="-5.146861">
        <ele>787.14</ele>
        <time>2021-06-17T09:37:32.000Z</time>
      </trkpt>
      <trkpt lat="36.72632" lon="-5.146943">
        <ele>786.33</ele>
        <time>2021-06-17T09:37:33.000Z</time>
      </trkpt>
      <trkpt lat="36.726262" lon="-5.147006">
        <ele>785.33</ele>
        <time>2021-06-17T09:37:34.000Z</time>
      </trkpt>
      <trkpt lat="36.726187" lon="-5.147065">
        <ele>786.24</ele>
        <time>2021-06-17T09:37:35.000Z</time>
      </trkpt>
      <trkpt lat="36.726116" lon="-5.147098">
        <ele>786.16</ele>
        <time>2021-06-17T09:37:36.000Z</time>
      </trkpt>
      <trkpt lat="36.726072" lon="-5.147143">
        <ele>787.67</ele>
        <time>2021-06-17T09:37:37.000Z</time>
      </trkpt>
      <trkpt lat="36.726024" lon="-5.147231">
        <ele>786.96</ele>
        <time>2021-06-17T09:37:38.000Z</time>
      </trkpt>
      <trkpt lat="36.725974" lon="-5.147318">
        <ele>787.32</ele>
        <time>2021-06-17T09:37:39.000Z</time>
      </trkpt>
      <trkpt lat="36.725934" lon="-5.147412">
        <ele>787.01</ele>
        <time>2021-06-17T09:37:40.000Z</time>
      </trkpt>
      <trkpt lat="36.725897" lon="-5.147502">
        <ele>786.4</ele>
        <time>2021-06-17T09:37:41.000Z</time>
      </trkpt>
      <trkpt lat="36.725871" lon="-5.147571">
        <ele>786.44</ele>
        <time>2021-06-17T09:37:42.000Z</time>
      </trkpt>
      <trkpt lat="36.725864" lon="-5.147621">
        <ele>786.23</ele>
        <time>2021-06-17T09:37:43.000Z</time>
      </trkpt>
      <trkpt lat="36.72586" lon="-5.147664">
        <ele>785.72</ele>
        <time>2021-06-17T09:37:44.000Z</time>
      </trkpt>
      <trkpt lat="36.725858" lon="-5.147695">
        <ele>785.09</ele>
        <time>2021-06-17T09:37:45.000Z</time>
      </trkpt>
      <trkpt lat="36.725872" lon="-5.147723">
        <ele>785.41</ele>
        <time>2021-06-17T09:37:46.000Z</time>
      </trkpt>
      <trkpt lat="36.725883" lon="-5.147761">
        <ele>785.79</ele>
        <time>2021-06-17T09:37:47.000Z</time>
      </trkpt>
      <trkpt lat="36.725895" lon="-5.147816">
        <ele>785.59</ele>
        <time>2021-06-17T09:37:48.000Z</time>
      </trkpt>
      <trkpt lat="36.725905" lon="-5.147871">
        <ele>785.35</ele>
        <time>2021-06-17T09:37:49.000Z</time>
      </trkpt>
      <trkpt lat="36.725907" lon="-5.147936">
        <ele>784.73</ele>
        <time>2021-06-17T09:37:50.000Z</time>
      </trkpt>
      <trkpt lat="36.7259" lon="-5.147999">
        <ele>784.92</ele>
        <time>2021-06-17T09:37:51.000Z</time>
      </trkpt>
      <trkpt lat="36.725888" lon="-5.14807">
        <ele>785.65</ele>
        <time>2021-06-17T09:37:52.000Z</time>
      </trkpt>
      <trkpt lat="36.725846" lon="-5.148123">
        <ele>786.18</ele>
        <time>2021-06-17T09:37:53.000Z</time>
      </trkpt>
      <trkpt lat="36.725782" lon="-5.148149">
        <ele>785.07</ele>
        <time>2021-06-17T09:37:54.000Z</time>
      </trkpt>
      <trkpt lat="36.725709" lon="-5.148169">
        <ele>785.68</ele>
        <time>2021-06-17T09:37:55.000Z</time>
      </trkpt>
      <trkpt lat="36.725638" lon="-5.148161">
        <ele>785.91</ele>
        <time>2021-06-17T09:37:56.000Z</time>
      </trkpt>
      <trkpt lat="36.725557" lon="-5.148135">
        <ele>786.18</ele>
        <time>2021-06-17T09:37:57.000Z</time>
      </trkpt>
      <trkpt lat="36.725481" lon="-5.148123">
        <ele>786.75</ele>
        <time>2021-06-17T09:37:58.000Z</time>
      </trkpt>
      <trkpt lat="36.72541" lon="-5.148131">
        <ele>787.01</ele>
        <time>2021-06-17T09:37:59.000Z</time>
      </trkpt>
      <trkpt lat="36.725325" lon="-5.148145">
        <ele>787.85</ele>
        <time>2021-06-17T09:38:00.000Z</time>
      </trkpt>
      <trkpt lat="36.72523" lon="-5.148183">
        <ele>787.87</ele>
        <time>2021-06-17T09:38:01.000Z</time>
      </trkpt>
      <trkpt lat="36.725128" lon="-5.148234">
        <ele>788.07</ele>
        <time>2021-06-17T09:38:02.000Z</time>
      </trkpt>
      <trkpt lat="36.72501" lon="-5.1483">
        <ele>788.11</ele>
        <time>2021-06-17T09:38:03.000Z</time>
      </trkpt>
      <trkpt lat="36.724883" lon="-5.148385">
        <ele>788.89</ele>
        <time>2021-06-17T09:38:04.000Z</time>
      </trkpt>
      <trkpt lat="36.724744" lon="-5.148482">
        <ele>788.78</ele>
        <time>2021-06-17T09:38:05.000Z</time>
      </trkpt>
      <trkpt lat="36.724598" lon="-5.148589">
        <ele>788.39</ele>
        <time>2021-06-17T09:38:06.000Z</time>
      </trkpt>
      <trkpt lat="36.724443" lon="-5.148705">
        <ele>788.31</ele>
        <time>2021-06-17T09:38:07.000Z</time>
      </trkpt>
      <trkpt lat="36.724286" lon="-5.14881">
        <ele>788.22</ele>
        <time>2021-06-17T09:38:08.000Z</time>
      </trkpt>
      <trkpt lat="36.724152" lon="-5.148986">
        <ele>788.04</ele>
        <time>2021-06-17T09:38:09.000Z</time>
      </trkpt>
      <trkpt lat="36.724014" lon="-5.149161">
        <ele>788.03</ele>
        <time>2021-06-17T09:38:10.000Z</time>
      </trkpt>
      <trkpt lat="36.723874" lon="-5.14933">
        <ele>789.03</ele>
        <time>2021-06-17T09:38:11.000Z</time>
      </trkpt>
      <trkpt lat="36.723721" lon="-5.149468">
        <ele>791.65</ele>
        <time>2021-06-17T09:38:12.000Z</time>
      </trkpt>
      <trkpt lat="36.723588" lon="-5.149629">
        <ele>793.4</ele>
        <time>2021-06-17T09:38:13.000Z</time>
      </trkpt>
      <trkpt lat="36.723462" lon="-5.149799">
        <ele>793.25</ele>
        <time>2021-06-17T09:38:14.000Z</time>
      </trkpt>
      <trkpt lat="36.723344" lon="-5.149975">
        <ele>792.57</ele>
        <time>2021-06-17T09:38:15.000Z</time>
      </trkpt>
      <trkpt lat="36.723239" lon="-5.150166">
        <ele>793.35</ele>
        <time>2021-06-17T09:38:16.000Z</time>
      </trkpt>
      <trkpt lat="36.723133" lon="-5.150338">
        <ele>793.6</ele>
        <time>2021-06-17T09:38:17.000Z</time>
      </trkpt>
      <trkpt lat="36.723029" lon="-5.150513">
        <ele>793.75</ele>
        <time>2021-06-17T09:38:18.000Z</time>
      </trkpt>
      <trkpt lat="36.722939" lon="-5.150681">
        <ele>794.17</ele>
        <time>2021-06-17T09:38:19.000Z</time>
      </trkpt>
      <trkpt lat="36.722858" lon="-5.150871">
        <ele>793.03</ele>
        <time>2021-06-17T09:38:20.000Z</time>
      </trkpt>
      <trkpt lat="36.722786" lon="-5.151039">
        <ele>793.44</ele>
        <time>2021-06-17T09:38:21.000Z</time>
      </trkpt>
      <trkpt lat="36.722724" lon="-5.151225">
        <ele>792.65</ele>
        <time>2021-06-17T09:38:22.000Z</time>
      </trkpt>
      <trkpt lat="36.722661" lon="-5.15139">
        <ele>793.09</ele>
        <time>2021-06-17T09:38:23.000Z</time>
      </trkpt>
      <trkpt lat="36.722601" lon="-5.151546">
        <ele>793.38</ele>
        <time>2021-06-17T09:38:24.000Z</time>
      </trkpt>
      <trkpt lat="36.722561" lon="-5.151685">
        <ele>794.22</ele>
        <time>2021-06-17T09:38:25.000Z</time>
      </trkpt>
      <trkpt lat="36.722512" lon="-5.15184">
        <ele>793.84</ele>
        <time>2021-06-17T09:38:26.000Z</time>
      </trkpt>
      <trkpt lat="36.72247" lon="-5.151984">
        <ele>793.71</ele>
        <time>2021-06-17T09:38:27.000Z</time>
      </trkpt>
      <trkpt lat="36.722445" lon="-5.152128">
        <ele>793.82</ele>
        <time>2021-06-17T09:38:28.000Z</time>
      </trkpt>
      <trkpt lat="36.722411" lon="-5.152274">
        <ele>793.51</ele>
        <time>2021-06-17T09:38:29.000Z</time>
      </trkpt>
      <trkpt lat="36.722389" lon="-5.152426">
        <ele>794.01</ele>
        <time>2021-06-17T09:38:30.000Z</time>
      </trkpt>
      <trkpt lat="36.72235" lon="-5.152562">
        <ele>794.01</ele>
        <time>2021-06-17T09:38:31.000Z</time>
      </trkpt>
      <trkpt lat="36.722317" lon="-5.152705">
        <ele>793.17</ele>
        <time>2021-06-17T09:38:32.000Z</time>
      </trkpt>
      <trkpt lat="36.722287" lon="-5.152855">
        <ele>791.83</ele>
        <time>2021-06-17T09:38:33.000Z</time>
      </trkpt>
      <trkpt lat="36.722258" lon="-5.15302">
        <ele>791.52</ele>
        <time>2021-06-17T09:38:34.000Z</time>
      </trkpt>
      <trkpt lat="36.722233" lon="-5.153197">
        <ele>790.84</ele>
        <time>2021-06-17T09:38:35.000Z</time>
      </trkpt>
      <trkpt lat="36.722206" lon="-5.153371">
        <ele>790.8</ele>
        <time>2021-06-17T09:38:36.000Z</time>
      </trkpt>
      <trkpt lat="36.722185" lon="-5.153555">
        <ele>790.3</ele>
        <time>2021-06-17T09:38:37.000Z</time>
      </trkpt>
      <trkpt lat="36.722168" lon="-5.153734">
        <ele>789.74</ele>
        <time>2021-06-17T09:38:38.000Z</time>
      </trkpt>
      <trkpt lat="36.722157" lon="-5.153916">
        <ele>789.31</ele>
        <time>2021-06-17T09:38:39.000Z</time>
      </trkpt>
      <trkpt lat="36.722151" lon="-5.154098">
        <ele>788.89</ele>
        <time>2021-06-17T09:38:40.000Z</time>
      </trkpt>
      <trkpt lat="36.722146" lon="-5.154288">
        <ele>788.7</ele>
        <time>2021-06-17T09:38:41.000Z</time>
      </trkpt>
      <trkpt lat="36.722155" lon="-5.154476">
        <ele>787.89</ele>
        <time>2021-06-17T09:38:42.000Z</time>
      </trkpt>
      <trkpt lat="36.722161" lon="-5.154657">
        <ele>787.84</ele>
        <time>2021-06-17T09:38:43.000Z</time>
      </trkpt>
      <trkpt lat="36.722172" lon="-5.154828">
        <ele>785.58</ele>
        <time>2021-06-17T09:38:44.000Z</time>
      </trkpt>
      <trkpt lat="36.722189" lon="-5.155017">
        <ele>784.73</ele>
        <time>2021-06-17T09:38:45.000Z</time>
      </trkpt>
      <trkpt lat="36.722211" lon="-5.155212">
        <ele>784.14</ele>
        <time>2021-06-17T09:38:46.000Z</time>
      </trkpt>
      <trkpt lat="36.722235" lon="-5.155408">
        <ele>784.45</ele>
        <time>2021-06-17T09:38:47.000Z</time>
      </trkpt>
      <trkpt lat="36.722268" lon="-5.155617">
        <ele>783.75</ele>
        <time>2021-06-17T09:38:48.000Z</time>
      </trkpt>
      <trkpt lat="36.722306" lon="-5.155835">
        <ele>783.26</ele>
        <time>2021-06-17T09:38:49.000Z</time>
      </trkpt>
      <trkpt lat="36.72235" lon="-5.15605">
        <ele>782.36</ele>
        <time>2021-06-17T09:38:50.000Z</time>
      </trkpt>
      <trkpt lat="36.722403" lon="-5.156258">
        <ele>780.88</ele>
        <time>2021-06-17T09:38:51.000Z</time>
      </trkpt>
      <trkpt lat="36.722465" lon="-5.156462">
        <ele>779.47</ele>
        <time>2021-06-17T09:38:52.000Z</time>
      </trkpt>
      <trkpt lat="36.722528" lon="-5.156657">
        <ele>778.78</ele>
        <time>2021-06-17T09:38:53.000Z</time>
      </trkpt>
      <trkpt lat="36.722597" lon="-5.156865">
        <ele>778.51</ele>
        <time>2021-06-17T09:38:54.000Z</time>
      </trkpt>
      <trkpt lat="36.722664" lon="-5.15708">
        <ele>778.18</ele>
        <time>2021-06-17T09:38:55.000Z</time>
      </trkpt>
      <trkpt lat="36.722745" lon="-5.157311">
        <ele>777.58</ele>
        <time>2021-06-17T09:38:56.000Z</time>
      </trkpt>
      <trkpt lat="36.722836" lon="-5.157544">
        <ele>776.15</ele>
        <time>2021-06-17T09:38:57.000Z</time>
      </trkpt>
      <trkpt lat="36.722939" lon="-5.15778">
        <ele>774.67</ele>
        <time>2021-06-17T09:38:58.000Z</time>
      </trkpt>
      <trkpt lat="36.723051" lon="-5.158034">
        <ele>773.61</ele>
        <time>2021-06-17T09:38:59.000Z</time>
      </trkpt>
      <trkpt lat="36.723169" lon="-5.158302">
        <ele>772.51</ele>
        <time>2021-06-17T09:39:00.000Z</time>
      </trkpt>
      <trkpt lat="36.723288" lon="-5.158576">
        <ele>771.92</ele>
        <time>2021-06-17T09:39:01.000Z</time>
      </trkpt>
      <trkpt lat="36.7234" lon="-5.158849">
        <ele>770.85</ele>
        <time>2021-06-17T09:39:02.000Z</time>
      </trkpt>
      <trkpt lat="36.723514" lon="-5.159127">
        <ele>769.49</ele>
        <time>2021-06-17T09:39:03.000Z</time>
      </trkpt>
      <trkpt lat="36.723621" lon="-5.159411">
        <ele>769.23</ele>
        <time>2021-06-17T09:39:04.000Z</time>
      </trkpt>
      <trkpt lat="36.723731" lon="-5.159683">
        <ele>767.97</ele>
        <time>2021-06-17T09:39:05.000Z</time>
      </trkpt>
      <trkpt lat="36.723838" lon="-5.159962">
        <ele>767.17</ele>
        <time>2021-06-17T09:39:06.000Z</time>
      </trkpt>
      <trkpt lat="36.723946" lon="-5.160243">
        <ele>766.37</ele>
        <time>2021-06-17T09:39:07.000Z</time>
      </trkpt>
      <trkpt lat="36.724057" lon="-5.160514">
        <ele>765.91</ele>
        <time>2021-06-17T09:39:08.000Z</time>
      </trkpt>
      <trkpt lat="36.724172" lon="-5.160776">
        <ele>765.09</ele>
        <time>2021-06-17T09:39:09.000Z</time>
      </trkpt>
      <trkpt lat="36.724289" lon="-5.161044">
        <ele>764.05</ele>
        <time>2021-06-17T09:39:10.000Z</time>
      </trkpt>
      <trkpt lat="36.724406" lon="-5.161307">
        <ele>762.49</ele>
        <time>2021-06-17T09:39:11.000Z</time>
      </trkpt>
      <trkpt lat="36.724527" lon="-5.161561">
        <ele>760.72</ele>
        <time>2021-06-17T09:39:12.000Z</time>
      </trkpt>
      <trkpt lat="36.72464" lon="-5.161826">
        <ele>760.57</ele>
        <time>2021-06-17T09:39:13.000Z</time>
      </trkpt>
      <trkpt lat="36.724749" lon="-5.162085">
        <ele>760.68</ele>
        <time>2021-06-17T09:39:14.000Z</time>
      </trkpt>
      <trkpt lat="36.724861" lon="-5.162347">
        <ele>761.14</ele>
        <time>2021-06-17T09:39:15.000Z</time>
      </trkpt>
      <trkpt lat="36.724966" lon="-5.162608">
        <ele>761.35</ele>
        <time>2021-06-17T09:39:16.000Z</time>
      </trkpt>
      <trkpt lat="36.725069" lon="-5.162853">
        <ele>761.57</ele>
        <time>2021-06-17T09:39:17.000Z</time>
      </trkpt>
      <trkpt lat="36.725169" lon="-5.16311">
        <ele>761.33</ele>
        <time>2021-06-17T09:39:18.000Z</time>
      </trkpt>
      <trkpt lat="36.725255" lon="-5.163365">
        <ele>761.51</ele>
        <time>2021-06-17T09:39:19.000Z</time>
      </trkpt>
      <trkpt lat="36.725327" lon="-5.163634">
        <ele>762.19</ele>
        <time>2021-06-17T09:39:20.000Z</time>
      </trkpt>
      <trkpt lat="36.725392" lon="-5.163901">
        <ele>762.68</ele>
        <time>2021-06-17T09:39:21.000Z</time>
      </trkpt>
      <trkpt lat="36.725441" lon="-5.164178">
        <ele>763.7</ele>
        <time>2021-06-17T09:39:22.000Z</time>
      </trkpt>
      <trkpt lat="36.725471" lon="-5.164464">
        <ele>765.08</ele>
        <time>2021-06-17T09:39:23.000Z</time>
      </trkpt>
      <trkpt lat="36.725486" lon="-5.164748">
        <ele>765.23</ele>
        <time>2021-06-17T09:39:24.000Z</time>
      </trkpt>
      <trkpt lat="36.72549" lon="-5.165033">
        <ele>765.25</ele>
        <time>2021-06-17T09:39:25.000Z</time>
      </trkpt>
      <trkpt lat="36.725473" lon="-5.165319">
        <ele>765.93</ele>
        <time>2021-06-17T09:39:26.000Z</time>
      </trkpt>
      <trkpt lat="36.725454" lon="-5.165605">
        <ele>766.95</ele>
        <time>2021-06-17T09:39:27.000Z</time>
      </trkpt>
      <trkpt lat="36.725425" lon="-5.165905">
        <ele>768.28</ele>
        <time>2021-06-17T09:39:28.000Z</time>
      </trkpt>
      <trkpt lat="36.725393" lon="-5.166196">
        <ele>768.53</ele>
        <time>2021-06-17T09:39:29.000Z</time>
      </trkpt>
      <trkpt lat="36.725369" lon="-5.166495">
        <ele>769.47</ele>
        <time>2021-06-17T09:39:30.000Z</time>
      </trkpt>
      <trkpt lat="36.725335" lon="-5.166786">
        <ele>769.57</ele>
        <time>2021-06-17T09:39:31.000Z</time>
      </trkpt>
      <trkpt lat="36.725299" lon="-5.167073">
        <ele>769.53</ele>
        <time>2021-06-17T09:39:32.000Z</time>
      </trkpt>
      <trkpt lat="36.725266" lon="-5.167347">
        <ele>771.03</ele>
        <time>2021-06-17T09:39:33.000Z</time>
      </trkpt>
      <trkpt lat="36.725234" lon="-5.167612">
        <ele>771.22</ele>
        <time>2021-06-17T09:39:34.000Z</time>
      </trkpt>
      <trkpt lat="36.7252" lon="-5.167877">
        <ele>771.44</ele>
        <time>2021-06-17T09:39:35.000Z</time>
      </trkpt>
      <trkpt lat="36.725167" lon="-5.168143">
        <ele>772.02</ele>
        <time>2021-06-17T09:39:36.000Z</time>
      </trkpt>
      <trkpt lat="36.725132" lon="-5.168395">
        <ele>772.89</ele>
        <time>2021-06-17T09:39:37.000Z</time>
      </trkpt>
      <trkpt lat="36.725091" lon="-5.168621">
        <ele>772.15</ele>
        <time>2021-06-17T09:39:38.000Z</time>
      </trkpt>
      <trkpt lat="36.72504" lon="-5.168877">
        <ele>773.08</ele>
        <time>2021-06-17T09:39:39.000Z</time>
      </trkpt>
      <trkpt lat="36.724986" lon="-5.169109">
        <ele>773.45</ele>
        <time>2021-06-17T09:39:40.000Z</time>
      </trkpt>
      <trkpt lat="36.724919" lon="-5.16933">
        <ele>773.79</ele>
        <time>2021-06-17T09:39:41.000Z</time>
      </trkpt>
      <trkpt lat="36.72485" lon="-5.169518">
        <ele>773.92</ele>
        <time>2021-06-17T09:39:42.000Z</time>
      </trkpt>
      <trkpt lat="36.724774" lon="-5.169708">
        <ele>775.34</ele>
        <time>2021-06-17T09:39:43.000Z</time>
      </trkpt>
      <trkpt lat="36.72469" lon="-5.169885">
        <ele>775.76</ele>
        <time>2021-06-17T09:39:44.000Z</time>
      </trkpt>
      <trkpt lat="36.724617" lon="-5.170057">
        <ele>776.82</ele>
        <time>2021-06-17T09:39:45.000Z</time>
      </trkpt>
      <trkpt lat="36.72453" lon="-5.170215">
        <ele>777.61</ele>
        <time>2021-06-17T09:39:46.000Z</time>
      </trkpt>
      <trkpt lat="36.724427" lon="-5.170338">
        <ele>778.72</ele>
        <time>2021-06-17T09:39:47.000Z</time>
      </trkpt>
      <trkpt lat="36.724346" lon="-5.170452">
        <ele>779.61</ele>
        <time>2021-06-17T09:39:48.000Z</time>
      </trkpt>
      <trkpt lat="36.724281" lon="-5.170564">
        <ele>784.14</ele>
        <time>2021-06-17T09:39:49.000Z</time>
      </trkpt>
      <trkpt lat="36.724236" lon="-5.170656">
        <ele>786.71</ele>
        <time>2021-06-17T09:39:50.000Z</time>
      </trkpt>
      <trkpt lat="36.724196" lon="-5.170732">
        <ele>787.27</ele>
        <time>2021-06-17T09:39:51.000Z</time>
      </trkpt>
      <trkpt lat="36.72418" lon="-5.170774">
        <ele>789.08</ele>
        <time>2021-06-17T09:39:52.000Z</time>
      </trkpt>
      <trkpt lat="36.724183" lon="-5.170788">
        <ele>790.12</ele>
        <time>2021-06-17T09:39:53.000Z</time>
      </trkpt>
      <trkpt lat="36.724181" lon="-5.170811">
        <ele>790.7</ele>
        <time>2021-06-17T09:39:54.000Z</time>
      </trkpt>
      <trkpt lat="36.724185" lon="-5.170866">
        <ele>791.5</ele>
        <time>2021-06-17T09:39:55.000Z</time>
      </trkpt>
      <trkpt lat="36.724209" lon="-5.170942">
        <ele>792.2</ele>
        <time>2021-06-17T09:39:56.000Z</time>
      </trkpt>
      <trkpt lat="36.724243" lon="-5.170996">
        <ele>793.73</ele>
        <time>2021-06-17T09:39:57.000Z</time>
      </trkpt>
      <trkpt lat="36.724298" lon="-5.171088">
        <ele>795.44</ele>
        <time>2021-06-17T09:39:58.000Z</time>
      </trkpt>
      <trkpt lat="36.72436" lon="-5.171168">
        <ele>795.15</ele>
        <time>2021-06-17T09:39:59.000Z</time>
      </trkpt>
      <trkpt lat="36.724433" lon="-5.171233">
        <ele>795.56</ele>
        <time>2021-06-17T09:40:00.000Z</time>
      </trkpt>
      <trkpt lat="36.72451" lon="-5.171297">
        <ele>795.83</ele>
        <time>2021-06-17T09:40:01.000Z</time>
      </trkpt>
      <trkpt lat="36.724589" lon="-5.17135">
        <ele>795.57</ele>
        <time>2021-06-17T09:40:02.000Z</time>
      </trkpt>
      <trkpt lat="36.724685" lon="-5.171397">
        <ele>796</ele>
        <time>2021-06-17T09:40:03.000Z</time>
      </trkpt>
      <trkpt lat="36.724788" lon="-5.171457">
        <ele>795.51</ele>
        <time>2021-06-17T09:40:04.000Z</time>
      </trkpt>
      <trkpt lat="36.724902" lon="-5.171482">
        <ele>794.36</ele>
        <time>2021-06-17T09:40:05.000Z</time>
      </trkpt>
      <trkpt lat="36.725019" lon="-5.171505">
        <ele>793.21</ele>
        <time>2021-06-17T09:40:06.000Z</time>
      </trkpt>
      <trkpt lat="36.725142" lon="-5.171508">
        <ele>793.68</ele>
        <time>2021-06-17T09:40:07.000Z</time>
      </trkpt>
      <trkpt lat="36.725275" lon="-5.171519">
        <ele>795.33</ele>
        <time>2021-06-17T09:40:08.000Z</time>
      </trkpt>
      <trkpt lat="36.725407" lon="-5.171492">
        <ele>793.99</ele>
        <time>2021-06-17T09:40:09.000Z</time>
      </trkpt>
      <trkpt lat="36.725553" lon="-5.171463">
        <ele>794.82</ele>
        <time>2021-06-17T09:40:10.000Z</time>
      </trkpt>
      <trkpt lat="36.725696" lon="-5.171403">
        <ele>794.28</ele>
        <time>2021-06-17T09:40:11.000Z</time>
      </trkpt>
      <trkpt lat="36.725837" lon="-5.171319">
        <ele>793.76</ele>
        <time>2021-06-17T09:40:12.000Z</time>
      </trkpt>
      <trkpt lat="36.72597" lon="-5.171225">
        <ele>793.92</ele>
        <time>2021-06-17T09:40:13.000Z</time>
      </trkpt>
      <trkpt lat="36.726091" lon="-5.171126">
        <ele>793.03</ele>
        <time>2021-06-17T09:40:14.000Z</time>
      </trkpt>
      <trkpt lat="36.726206" lon="-5.171023">
        <ele>793.16</ele>
        <time>2021-06-17T09:40:15.000Z</time>
      </trkpt>
      <trkpt lat="36.726305" lon="-5.170932">
        <ele>792.51</ele>
        <time>2021-06-17T09:40:16.000Z</time>
      </trkpt>
      <trkpt lat="36.726404" lon="-5.17084">
        <ele>792.27</ele>
        <time>2021-06-17T09:40:17.000Z</time>
      </trkpt>
      <trkpt lat="36.726499" lon="-5.170748">
        <ele>791.88</ele>
        <time>2021-06-17T09:40:18.000Z</time>
      </trkpt>
      <trkpt lat="36.726584" lon="-5.170672">
        <ele>791.29</ele>
        <time>2021-06-17T09:40:19.000Z</time>
      </trkpt>
      <trkpt lat="36.726662" lon="-5.170608">
        <ele>791.04</ele>
        <time>2021-06-17T09:40:20.000Z</time>
      </trkpt>
      <trkpt lat="36.726714" lon="-5.170546">
        <ele>791.08</ele>
        <time>2021-06-17T09:40:21.000Z</time>
      </trkpt>
      <trkpt lat="36.726756" lon="-5.170484">
        <ele>791.69</ele>
        <time>2021-06-17T09:40:22.000Z</time>
      </trkpt>
      <trkpt lat="36.726763" lon="-5.170412">
        <ele>791.28</ele>
        <time>2021-06-17T09:40:23.000Z</time>
      </trkpt>
      <trkpt lat="36.726736" lon="-5.170335">
        <ele>790.81</ele>
        <time>2021-06-17T09:40:24.000Z</time>
      </trkpt>
      <trkpt lat="36.726701" lon="-5.170261">
        <ele>791.13</ele>
        <time>2021-06-17T09:40:25.000Z</time>
      </trkpt>
      <trkpt lat="36.726641" lon="-5.170174">
        <ele>790.42</ele>
        <time>2021-06-17T09:40:26.000Z</time>
      </trkpt>
      <trkpt lat="36.726585" lon="-5.170073">
        <ele>789.22</ele>
        <time>2021-06-17T09:40:27.000Z</time>
      </trkpt>
      <trkpt lat="36.726548" lon="-5.169949">
        <ele>788.85</ele>
        <time>2021-06-17T09:40:28.000Z</time>
      </trkpt>
      <trkpt lat="36.726505" lon="-5.169804">
        <ele>789.3</ele>
        <time>2021-06-17T09:40:29.000Z</time>
      </trkpt>
      <trkpt lat="36.726461" lon="-5.169683">
        <ele>788.84</ele>
        <time>2021-06-17T09:40:30.000Z</time>
      </trkpt>
      <trkpt lat="36.72641" lon="-5.169531">
        <ele>788.19</ele>
        <time>2021-06-17T09:40:31.000Z</time>
      </trkpt>
      <trkpt lat="36.726359" lon="-5.169392">
        <ele>787.84</ele>
        <time>2021-06-17T09:40:32.000Z</time>
      </trkpt>
      <trkpt lat="36.726311" lon="-5.169257">
        <ele>786.17</ele>
        <time>2021-06-17T09:40:33.000Z</time>
      </trkpt>
      <trkpt lat="36.72627" lon="-5.169105">
        <ele>786.02</ele>
        <time>2021-06-17T09:40:34.000Z</time>
      </trkpt>
      <trkpt lat="36.726206" lon="-5.168953">
        <ele>785.04</ele>
        <time>2021-06-17T09:40:35.000Z</time>
      </trkpt>
      <trkpt lat="36.726144" lon="-5.168812">
        <ele>784.76</ele>
        <time>2021-06-17T09:40:36.000Z</time>
      </trkpt>
      <trkpt lat="36.726082" lon="-5.168664">
        <ele>784.88</ele>
        <time>2021-06-17T09:40:37.000Z</time>
      </trkpt>
      <trkpt lat="36.726015" lon="-5.168523">
        <ele>784.37</ele>
        <time>2021-06-17T09:40:38.000Z</time>
      </trkpt>
      <trkpt lat="36.725964" lon="-5.168378">
        <ele>784</ele>
        <time>2021-06-17T09:40:39.000Z</time>
      </trkpt>
      <trkpt lat="36.725911" lon="-5.16825">
        <ele>783.57</ele>
        <time>2021-06-17T09:40:40.000Z</time>
      </trkpt>
      <trkpt lat="36.725818" lon="-5.168024">
        <ele>784.06</ele>
        <time>2021-06-17T09:40:42.000Z</time>
      </trkpt>
      <trkpt lat="36.725776" lon="-5.167935">
        <ele>784.48</ele>
        <time>2021-06-17T09:40:43.000Z</time>
      </trkpt>
      <trkpt lat="36.725731" lon="-5.167859">
        <ele>784.11</ele>
        <time>2021-06-17T09:40:44.000Z</time>
      </trkpt>
      <trkpt lat="36.725698" lon="-5.167765">
        <ele>783.4</ele>
        <time>2021-06-17T09:40:45.000Z</time>
      </trkpt>
      <trkpt lat="36.725666" lon="-5.167677">
        <ele>783.37</ele>
        <time>2021-06-17T09:40:46.000Z</time>
      </trkpt>
      <trkpt lat="36.725644" lon="-5.167606">
        <ele>784.2</ele>
        <time>2021-06-17T09:40:47.000Z</time>
      </trkpt>
      <trkpt lat="36.725602" lon="-5.167523">
        <ele>785.46</ele>
        <time>2021-06-17T09:40:48.000Z</time>
      </trkpt>
      <trkpt lat="36.725561" lon="-5.167447">
        <ele>785.78</ele>
        <time>2021-06-17T09:40:49.000Z</time>
      </trkpt>
      <trkpt lat="36.725531" lon="-5.167365">
        <ele>784.38</ele>
        <time>2021-06-17T09:40:50.000Z</time>
      </trkpt>
      <trkpt lat="36.725505" lon="-5.167286">
        <ele>784.35</ele>
        <time>2021-06-17T09:40:51.000Z</time>
      </trkpt>
      <trkpt lat="36.725478" lon="-5.167205">
        <ele>784.69</ele>
        <time>2021-06-17T09:40:52.000Z</time>
      </trkpt>
      <trkpt lat="36.725471" lon="-5.167136">
        <ele>784.36</ele>
        <time>2021-06-17T09:40:53.000Z</time>
      </trkpt>
      <trkpt lat="36.725474" lon="-5.167063">
        <ele>784.22</ele>
        <time>2021-06-17T09:40:54.000Z</time>
      </trkpt>
      <trkpt lat="36.725487" lon="-5.166999">
        <ele>784.15</ele>
        <time>2021-06-17T09:40:55.000Z</time>
      </trkpt>
      <trkpt lat="36.725497" lon="-5.166918">
        <ele>784.58</ele>
        <time>2021-06-17T09:40:56.000Z</time>
      </trkpt>
      <trkpt lat="36.725509" lon="-5.16684">
        <ele>785.01</ele>
        <time>2021-06-17T09:40:57.000Z</time>
      </trkpt>
      <trkpt lat="36.725512" lon="-5.166772">
        <ele>785.38</ele>
        <time>2021-06-17T09:40:58.000Z</time>
      </trkpt>
      <trkpt lat="36.725513" lon="-5.166685">
        <ele>784.88</ele>
        <time>2021-06-17T09:40:59.000Z</time>
      </trkpt>
      <trkpt lat="36.725526" lon="-5.166586">
        <ele>785.1</ele>
        <time>2021-06-17T09:41:00.000Z</time>
      </trkpt>
      <trkpt lat="36.725545" lon="-5.166493">
        <ele>785.78</ele>
        <time>2021-06-17T09:41:01.000Z</time>
      </trkpt>
      <trkpt lat="36.725578" lon="-5.166396">
        <ele>785.48</ele>
        <time>2021-06-17T09:41:02.000Z</time>
      </trkpt>
      <trkpt lat="36.725599" lon="-5.166265">
        <ele>785.4</ele>
        <time>2021-06-17T09:41:03.000Z</time>
      </trkpt>
      <trkpt lat="36.725631" lon="-5.166128">
        <ele>785.89</ele>
        <time>2021-06-17T09:41:04.000Z</time>
      </trkpt>
      <trkpt lat="36.725657" lon="-5.165994">
        <ele>785.71</ele>
        <time>2021-06-17T09:41:05.000Z</time>
      </trkpt>
      <trkpt lat="36.725682" lon="-5.165866">
        <ele>785.56</ele>
        <time>2021-06-17T09:41:06.000Z</time>
      </trkpt>
      <trkpt lat="36.725706" lon="-5.165743">
        <ele>784.77</ele>
        <time>2021-06-17T09:41:07.000Z</time>
      </trkpt>
      <trkpt lat="36.725718" lon="-5.165597">
        <ele>783.87</ele>
        <time>2021-06-17T09:41:08.000Z</time>
      </trkpt>
      <trkpt lat="36.725734" lon="-5.165467">
        <ele>782.79</ele>
        <time>2021-06-17T09:41:09.000Z</time>
      </trkpt>
      <trkpt lat="36.725754" lon="-5.165343">
        <ele>781.75</ele>
        <time>2021-06-17T09:41:10.000Z</time>
      </trkpt>
      <trkpt lat="36.725764" lon="-5.165223">
        <ele>780.65</ele>
        <time>2021-06-17T09:41:11.000Z</time>
      </trkpt>
      <trkpt lat="36.725771" lon="-5.165122">
        <ele>779.55</ele>
        <time>2021-06-17T09:41:12.000Z</time>
      </trkpt>
      <trkpt lat="36.725779" lon="-5.165026">
        <ele>779.03</ele>
        <time>2021-06-17T09:41:13.000Z</time>
      </trkpt>
      <trkpt lat="36.725795" lon="-5.164949">
        <ele>779.08</ele>
        <time>2021-06-17T09:41:14.000Z</time>
      </trkpt>
      <trkpt lat="36.725806" lon="-5.164875">
        <ele>779.86</ele>
        <time>2021-06-17T09:41:15.000Z</time>
      </trkpt>
      <trkpt lat="36.7258" lon="-5.164817">
        <ele>778.94</ele>
        <time>2021-06-17T09:41:16.000Z</time>
      </trkpt>
      <trkpt lat="36.72578" lon="-5.164782">
        <ele>780.27</ele>
        <time>2021-06-17T09:41:17.000Z</time>
      </trkpt>
      <trkpt lat="36.725754" lon="-5.16475">
        <ele>779.54</ele>
        <time>2021-06-17T09:41:18.000Z</time>
      </trkpt>
      <trkpt lat="36.725708" lon="-5.164732">
        <ele>779.76</ele>
        <time>2021-06-17T09:41:19.000Z</time>
      </trkpt>
      <trkpt lat="36.725639" lon="-5.164736">
        <ele>779.24</ele>
        <time>2021-06-17T09:41:20.000Z</time>
      </trkpt>
      <trkpt lat="36.725564" lon="-5.164753">
        <ele>779.75</ele>
        <time>2021-06-17T09:41:21.000Z</time>
      </trkpt>
      <trkpt lat="36.72547" lon="-5.164772">
        <ele>779.25</ele>
        <time>2021-06-17T09:41:22.000Z</time>
      </trkpt>
      <trkpt lat="36.725364" lon="-5.164782">
        <ele>777.87</ele>
        <time>2021-06-17T09:41:23.000Z</time>
      </trkpt>
      <trkpt lat="36.725255" lon="-5.164791">
        <ele>776.83</ele>
        <time>2021-06-17T09:41:24.000Z</time>
      </trkpt>
      <trkpt lat="36.72515" lon="-5.164804">
        <ele>776.2</ele>
        <time>2021-06-17T09:41:25.000Z</time>
      </trkpt>
      <trkpt lat="36.725035" lon="-5.164817">
        <ele>775.08</ele>
        <time>2021-06-17T09:41:26.000Z</time>
      </trkpt>
      <trkpt lat="36.724917" lon="-5.16484">
        <ele>772.8</ele>
        <time>2021-06-17T09:41:27.000Z</time>
      </trkpt>
      <trkpt lat="36.724798" lon="-5.164843">
        <ele>772.2</ele>
        <time>2021-06-17T09:41:28.000Z</time>
      </trkpt>
      <trkpt lat="36.724691" lon="-5.164847">
        <ele>770.18</ele>
        <time>2021-06-17T09:41:29.000Z</time>
      </trkpt>
      <trkpt lat="36.724581" lon="-5.164846">
        <ele>769.89</ele>
        <time>2021-06-17T09:41:30.000Z</time>
      </trkpt>
      <trkpt lat="36.724477" lon="-5.164838">
        <ele>769.62</ele>
        <time>2021-06-17T09:41:31.000Z</time>
      </trkpt>
      <trkpt lat="36.724385" lon="-5.164826">
        <ele>768.72</ele>
        <time>2021-06-17T09:41:32.000Z</time>
      </trkpt>
      <trkpt lat="36.724301" lon="-5.164821">
        <ele>769.09</ele>
        <time>2021-06-17T09:41:33.000Z</time>
      </trkpt>
      <trkpt lat="36.724155" lon="-5.164814">
        <ele>769.18</ele>
        <time>2021-06-17T09:41:35.000Z</time>
      </trkpt>
      <trkpt lat="36.724015" lon="-5.16483">
        <ele>771.2</ele>
        <time>2021-06-17T09:41:37.000Z</time>
      </trkpt>
      <trkpt lat="36.723854" lon="-5.164862">
        <ele>770.81</ele>
        <time>2021-06-17T09:41:39.000Z</time>
      </trkpt>
      <trkpt lat="36.723772" lon="-5.164885">
        <ele>770.61</ele>
        <time>2021-06-17T09:41:40.000Z</time>
      </trkpt>
      <trkpt lat="36.723681" lon="-5.164883">
        <ele>771.94</ele>
        <time>2021-06-17T09:41:41.000Z</time>
      </trkpt>
      <trkpt lat="36.723499" lon="-5.164857">
        <ele>771.25</ele>
        <time>2021-06-17T09:41:43.000Z</time>
      </trkpt>
      <trkpt lat="36.723406" lon="-5.164843">
        <ele>771.49</ele>
        <time>2021-06-17T09:41:44.000Z</time>
      </trkpt>
      <trkpt lat="36.723318" lon="-5.164834">
        <ele>771.65</ele>
        <time>2021-06-17T09:41:45.000Z</time>
      </trkpt>
      <trkpt lat="36.723168" lon="-5.164851">
        <ele>771.7</ele>
        <time>2021-06-17T09:41:47.000Z</time>
      </trkpt>
      <trkpt lat="36.723005" lon="-5.164834">
        <ele>769.72</ele>
        <time>2021-06-17T09:41:49.000Z</time>
      </trkpt>
      <trkpt lat="36.722941" lon="-5.164823">
        <ele>768.59</ele>
        <time>2021-06-17T09:41:50.000Z</time>
      </trkpt>
      <trkpt lat="36.722882" lon="-5.164811">
        <ele>767.17</ele>
        <time>2021-06-17T09:41:51.000Z</time>
      </trkpt>
      <trkpt lat="36.722809" lon="-5.164802">
        <ele>767.19</ele>
        <time>2021-06-17T09:41:52.000Z</time>
      </trkpt>
      <trkpt lat="36.722727" lon="-5.164816">
        <ele>766.3</ele>
        <time>2021-06-17T09:41:53.000Z</time>
      </trkpt>
      <trkpt lat="36.722648" lon="-5.164828">
        <ele>765.58</ele>
        <time>2021-06-17T09:41:54.000Z</time>
      </trkpt>
      <trkpt lat="36.722561" lon="-5.164833">
        <ele>765.25</ele>
        <time>2021-06-17T09:41:55.000Z</time>
      </trkpt>
      <trkpt lat="36.722475" lon="-5.164866">
        <ele>760.83</ele>
        <time>2021-06-17T09:41:56.000Z</time>
      </trkpt>
      <trkpt lat="36.72238" lon="-5.164872">
        <ele>760.96</ele>
        <time>2021-06-17T09:41:57.000Z</time>
      </trkpt>
      <trkpt lat="36.72228" lon="-5.164886">
        <ele>761.07</ele>
        <time>2021-06-17T09:41:58.000Z</time>
      </trkpt>
      <trkpt lat="36.722179" lon="-5.164899">
        <ele>761.22</ele>
        <time>2021-06-17T09:41:59.000Z</time>
      </trkpt>
      <trkpt lat="36.722085" lon="-5.164899">
        <ele>760.74</ele>
        <time>2021-06-17T09:42:00.000Z</time>
      </trkpt>
      <trkpt lat="36.721981" lon="-5.164885">
        <ele>761.1</ele>
        <time>2021-06-17T09:42:01.000Z</time>
      </trkpt>
      <trkpt lat="36.721869" lon="-5.164865">
        <ele>761.31</ele>
        <time>2021-06-17T09:42:02.000Z</time>
      </trkpt>
      <trkpt lat="36.721634" lon="-5.164859">
        <ele>759.79</ele>
        <time>2021-06-17T09:42:04.000Z</time>
      </trkpt>
      <trkpt lat="36.721503" lon="-5.164865">
        <ele>759.65</ele>
        <time>2021-06-17T09:42:05.000Z</time>
      </trkpt>
      <trkpt lat="36.721377" lon="-5.164881">
        <ele>760.06</ele>
        <time>2021-06-17T09:42:06.000Z</time>
      </trkpt>
      <trkpt lat="36.721258" lon="-5.164908">
        <ele>759.54</ele>
        <time>2021-06-17T09:42:07.000Z</time>
      </trkpt>
      <trkpt lat="36.72115" lon="-5.164933">
        <ele>759.07</ele>
        <time>2021-06-17T09:42:08.000Z</time>
      </trkpt>
      <trkpt lat="36.721052" lon="-5.164953">
        <ele>759.33</ele>
        <time>2021-06-17T09:42:09.000Z</time>
      </trkpt>
      <trkpt lat="36.720983" lon="-5.164966">
        <ele>760.09</ele>
        <time>2021-06-17T09:42:10.000Z</time>
      </trkpt>
      <trkpt lat="36.720919" lon="-5.16498">
        <ele>760.41</ele>
        <time>2021-06-17T09:42:11.000Z</time>
      </trkpt>
      <trkpt lat="36.720872" lon="-5.164982">
        <ele>760.08</ele>
        <time>2021-06-17T09:42:12.000Z</time>
      </trkpt>
      <trkpt lat="36.720838" lon="-5.164996">
        <ele>760.81</ele>
        <time>2021-06-17T09:42:13.000Z</time>
      </trkpt>
      <trkpt lat="36.720785" lon="-5.16501">
        <ele>761.06</ele>
        <time>2021-06-17T09:42:14.000Z</time>
      </trkpt>
      <trkpt lat="36.720723" lon="-5.165026">
        <ele>762.36</ele>
        <time>2021-06-17T09:42:15.000Z</time>
      </trkpt>
      <trkpt lat="36.720641" lon="-5.165041">
        <ele>761.99</ele>
        <time>2021-06-17T09:42:16.000Z</time>
      </trkpt>
      <trkpt lat="36.72056" lon="-5.165052">
        <ele>763.11</ele>
        <time>2021-06-17T09:42:17.000Z</time>
      </trkpt>
      <trkpt lat="36.72048" lon="-5.165063">
        <ele>763.6</ele>
        <time>2021-06-17T09:42:18.000Z</time>
      </trkpt>
      <trkpt lat="36.72041" lon="-5.165075">
        <ele>763.5</ele>
        <time>2021-06-17T09:42:19.000Z</time>
      </trkpt>
      <trkpt lat="36.720344" lon="-5.165087">
        <ele>762.75</ele>
        <time>2021-06-17T09:42:20.000Z</time>
      </trkpt>
      <trkpt lat="36.720288" lon="-5.165091">
        <ele>761.81</ele>
        <time>2021-06-17T09:42:21.000Z</time>
      </trkpt>
      <trkpt lat="36.720226" lon="-5.165094">
        <ele>762.48</ele>
        <time>2021-06-17T09:42:22.000Z</time>
      </trkpt>
      <trkpt lat="36.720168" lon="-5.165105">
        <ele>762.94</ele>
        <time>2021-06-17T09:42:23.000Z</time>
      </trkpt>
      <trkpt lat="36.720113" lon="-5.165113">
        <ele>763.65</ele>
        <time>2021-06-17T09:42:24.000Z</time>
      </trkpt>
      <trkpt lat="36.720052" lon="-5.165117">
        <ele>763.69</ele>
        <time>2021-06-17T09:42:25.000Z</time>
      </trkpt>
      <trkpt lat="36.719971" lon="-5.16511">
        <ele>762.88</ele>
        <time>2021-06-17T09:42:26.000Z</time>
      </trkpt>
      <trkpt lat="36.719876" lon="-5.165102">
        <ele>763.94</ele>
        <time>2021-06-17T09:42:27.000Z</time>
      </trkpt>
      <trkpt lat="36.719783" lon="-5.165104">
        <ele>763.88</ele>
        <time>2021-06-17T09:42:28.000Z</time>
      </trkpt>
      <trkpt lat="36.719665" lon="-5.165091">
        <ele>763.82</ele>
        <time>2021-06-17T09:42:29.000Z</time>
      </trkpt>
      <trkpt lat="36.719558" lon="-5.165078">
        <ele>765.92</ele>
        <time>2021-06-17T09:42:30.000Z</time>
      </trkpt>
      <trkpt lat="36.719471" lon="-5.165058">
        <ele>767.91</ele>
        <time>2021-06-17T09:42:31.000Z</time>
      </trkpt>
      <trkpt lat="36.719364" lon="-5.165005">
        <ele>770.35</ele>
        <time>2021-06-17T09:42:32.000Z</time>
      </trkpt>
      <trkpt lat="36.719272" lon="-5.164955">
        <ele>769.59</ele>
        <time>2021-06-17T09:42:33.000Z</time>
      </trkpt>
      <trkpt lat="36.719186" lon="-5.164896">
        <ele>771.11</ele>
        <time>2021-06-17T09:42:34.000Z</time>
      </trkpt>
      <trkpt lat="36.71911" lon="-5.164844">
        <ele>772.66</ele>
        <time>2021-06-17T09:42:35.000Z</time>
      </trkpt>
      <trkpt lat="36.718894" lon="-5.1647">
        <ele>773.99</ele>
        <time>2021-06-17T09:42:38.000Z</time>
      </trkpt>
      <trkpt lat="36.718837" lon="-5.164687">
        <ele>775.58</ele>
        <time>2021-06-17T09:42:39.000Z</time>
      </trkpt>
      <trkpt lat="36.718794" lon="-5.1647">
        <ele>775.78</ele>
        <time>2021-06-17T09:42:40.000Z</time>
      </trkpt>
      <trkpt lat="36.718778" lon="-5.164735">
        <ele>775.37</ele>
        <time>2021-06-17T09:42:41.000Z</time>
      </trkpt>
      <trkpt lat="36.718752" lon="-5.164751">
        <ele>775.74</ele>
        <time>2021-06-17T09:42:42.000Z</time>
      </trkpt>
      <trkpt lat="36.718751" lon="-5.164813">
        <ele>776.05</ele>
        <time>2021-06-17T09:42:43.000Z</time>
      </trkpt>
      <trkpt lat="36.718745" lon="-5.164906">
        <ele>775.83</ele>
        <time>2021-06-17T09:42:44.000Z</time>
      </trkpt>
      <trkpt lat="36.718732" lon="-5.16499">
        <ele>775.31</ele>
        <time>2021-06-17T09:42:45.000Z</time>
      </trkpt>
      <trkpt lat="36.718728" lon="-5.165069">
        <ele>776.09</ele>
        <time>2021-06-17T09:42:46.000Z</time>
      </trkpt>
      <trkpt lat="36.718735" lon="-5.165139">
        <ele>777.71</ele>
        <time>2021-06-17T09:42:47.000Z</time>
      </trkpt>
      <trkpt lat="36.718747" lon="-5.165223">
        <ele>777.09</ele>
        <time>2021-06-17T09:42:48.000Z</time>
      </trkpt>
      <trkpt lat="36.718755" lon="-5.165295">
        <ele>776.79</ele>
        <time>2021-06-17T09:42:49.000Z</time>
      </trkpt>
      <trkpt lat="36.718756" lon="-5.165335">
        <ele>777.44</ele>
        <time>2021-06-17T09:42:50.000Z</time>
      </trkpt>
      <trkpt lat="36.718742" lon="-5.165387">
        <ele>776.74</ele>
        <time>2021-06-17T09:42:51.000Z</time>
      </trkpt>
      <trkpt lat="36.71871" lon="-5.165449">
        <ele>776.87</ele>
        <time>2021-06-17T09:42:52.000Z</time>
      </trkpt>
      <trkpt lat="36.718697" lon="-5.165503">
        <ele>777.43</ele>
        <time>2021-06-17T09:42:53.000Z</time>
      </trkpt>
      <trkpt lat="36.718681" lon="-5.165599">
        <ele>777.2</ele>
        <time>2021-06-17T09:42:54.000Z</time>
      </trkpt>
      <trkpt lat="36.718664" lon="-5.165717">
        <ele>777.43</ele>
        <time>2021-06-17T09:42:55.000Z</time>
      </trkpt>
      <trkpt lat="36.718656" lon="-5.165909">
        <ele>778.62</ele>
        <time>2021-06-17T09:42:56.000Z</time>
      </trkpt>
      <trkpt lat="36.718633" lon="-5.166049">
        <ele>777.73</ele>
        <time>2021-06-17T09:42:57.000Z</time>
      </trkpt>
      <trkpt lat="36.718611" lon="-5.166188">
        <ele>777.25</ele>
        <time>2021-06-17T09:42:58.000Z</time>
      </trkpt>
      <trkpt lat="36.718587" lon="-5.166321">
        <ele>776.59</ele>
        <time>2021-06-17T09:42:59.000Z</time>
      </trkpt>
      <trkpt lat="36.718559" lon="-5.166434">
        <ele>775.94</ele>
        <time>2021-06-17T09:43:00.000Z</time>
      </trkpt>
      <trkpt lat="36.718529" lon="-5.16656">
        <ele>776.35</ele>
        <time>2021-06-17T09:43:01.000Z</time>
      </trkpt>
      <trkpt lat="36.718514" lon="-5.166685">
        <ele>776.64</ele>
        <time>2021-06-17T09:43:02.000Z</time>
      </trkpt>
      <trkpt lat="36.718499" lon="-5.166814">
        <ele>777.59</ele>
        <time>2021-06-17T09:43:03.000Z</time>
      </trkpt>
      <trkpt lat="36.718471" lon="-5.166923">
        <ele>778.05</ele>
        <time>2021-06-17T09:43:04.000Z</time>
      </trkpt>
      <trkpt lat="36.718449" lon="-5.16703">
        <ele>778.49</ele>
        <time>2021-06-17T09:43:05.000Z</time>
      </trkpt>
      <trkpt lat="36.718426" lon="-5.16713">
        <ele>777.46</ele>
        <time>2021-06-17T09:43:06.000Z</time>
      </trkpt>
      <trkpt lat="36.7184" lon="-5.167225">
        <ele>777</ele>
        <time>2021-06-17T09:43:07.000Z</time>
      </trkpt>
      <trkpt lat="36.718377" lon="-5.167305">
        <ele>776.27</ele>
        <time>2021-06-17T09:43:08.000Z</time>
      </trkpt>
      <trkpt lat="36.718359" lon="-5.167377">
        <ele>776.15</ele>
        <time>2021-06-17T09:43:09.000Z</time>
      </trkpt>
      <trkpt lat="36.718349" lon="-5.167477">
        <ele>780.44</ele>
        <time>2021-06-17T09:43:10.000Z</time>
      </trkpt>
      <trkpt lat="36.718335" lon="-5.167509">
        <ele>780.47</ele>
        <time>2021-06-17T09:43:11.000Z</time>
      </trkpt>
      <trkpt lat="36.718328" lon="-5.167579">
        <ele>782.82</ele>
        <time>2021-06-17T09:43:13.000Z</time>
      </trkpt>
      <trkpt lat="36.718324" lon="-5.167601">
        <ele>782.8</ele>
        <time>2021-06-17T09:43:14.000Z</time>
      </trkpt>
      <trkpt lat="36.718326" lon="-5.167584">
        <ele>784.53</ele>
        <time>2021-06-17T09:43:15.000Z</time>
      </trkpt>
      <trkpt lat="36.718329" lon="-5.1676">
        <ele>785.38</ele>
        <time>2021-06-17T09:43:17.000Z</time>
      </trkpt>
      <trkpt lat="36.718329" lon="-5.167614">
        <ele>784.35</ele>
        <time>2021-06-17T09:43:18.000Z</time>
      </trkpt>
      <trkpt lat="36.718337" lon="-5.167621">
        <ele>784.92</ele>
        <time>2021-06-17T09:43:25.000Z</time>
      </trkpt>
      <trkpt lat="36.718347" lon="-5.167622">
        <ele>785.81</ele>
        <time>2021-06-17T09:43:32.000Z</time>
      </trkpt>
      <trkpt lat="36.718342" lon="-5.167638">
        <ele>786.24</ele>
        <time>2021-06-17T09:44:53.000Z</time>
      </trkpt>
      <trkpt lat="36.718358" lon="-5.16767">
        <ele>785.67</ele>
        <time>2021-06-17T09:44:54.000Z</time>
      </trkpt>
      <trkpt lat="36.718406" lon="-5.167694">
        <ele>785.01</ele>
        <time>2021-06-17T09:44:55.000Z</time>
      </trkpt>
      <trkpt lat="36.718436" lon="-5.16773">
        <ele>784.58</ele>
        <time>2021-06-17T09:44:56.000Z</time>
      </trkpt>
      <trkpt lat="36.718471" lon="-5.16776">
        <ele>785.43</ele>
        <time>2021-06-17T09:44:57.000Z</time>
      </trkpt>
      <trkpt lat="36.718505" lon="-5.167789">
        <ele>786.11</ele>
        <time>2021-06-17T09:44:58.000Z</time>
      </trkpt>
      <trkpt lat="36.718535" lon="-5.167815">
        <ele>784.61</ele>
        <time>2021-06-17T09:44:59.000Z</time>
      </trkpt>
      <trkpt lat="36.71856" lon="-5.167837">
        <ele>784.22</ele>
        <time>2021-06-17T09:45:00.000Z</time>
      </trkpt>
      <trkpt lat="36.71858" lon="-5.167857">
        <ele>784.42</ele>
        <time>2021-06-17T09:45:01.000Z</time>
      </trkpt>
      <trkpt lat="36.718595" lon="-5.167876">
        <ele>784.82</ele>
        <time>2021-06-17T09:45:02.000Z</time>
      </trkpt>
      <trkpt lat="36.718603" lon="-5.16789">
        <ele>785.64</ele>
        <time>2021-06-17T09:45:03.000Z</time>
      </trkpt>
      <trkpt lat="36.718607" lon="-5.167901">
        <ele>785.93</ele>
        <time>2021-06-17T09:45:04.000Z</time>
      </trkpt>
      <trkpt lat="36.71861" lon="-5.167912">
        <ele>786.12</ele>
        <time>2021-06-17T09:45:05.000Z</time>
      </trkpt>
      <trkpt lat="36.718611" lon="-5.167932">
        <ele>786.28</ele>
        <time>2021-06-17T09:45:06.000Z</time>
      </trkpt>
      <trkpt lat="36.71861" lon="-5.167967">
        <ele>786.61</ele>
        <time>2021-06-17T09:45:07.000Z</time>
      </trkpt>
      <trkpt lat="36.718617" lon="-5.168006">
        <ele>787.14</ele>
        <time>2021-06-17T09:45:08.000Z</time>
      </trkpt>
      <trkpt lat="36.718639" lon="-5.168035">
        <ele>787.34</ele>
        <time>2021-06-17T09:45:09.000Z</time>
      </trkpt>
      <trkpt lat="36.718669" lon="-5.168052">
        <ele>787.34</ele>
        <time>2021-06-17T09:45:10.000Z</time>
      </trkpt>
      <trkpt lat="36.718696" lon="-5.168061">
        <ele>787.32</ele>
        <time>2021-06-17T09:45:11.000Z</time>
      </trkpt>
      <trkpt lat="36.718718" lon="-5.168059">
        <ele>786.92</ele>
        <time>2021-06-17T09:45:12.000Z</time>
      </trkpt>
      <trkpt lat="36.718738" lon="-5.168055">
        <ele>786.83</ele>
        <time>2021-06-17T09:45:13.000Z</time>
      </trkpt>
      <trkpt lat="36.718755" lon="-5.168059">
        <ele>785.67</ele>
        <time>2021-06-17T09:45:14.000Z</time>
      </trkpt>
      <trkpt lat="36.718765" lon="-5.168074">
        <ele>787.21</ele>
        <time>2021-06-17T09:45:15.000Z</time>
      </trkpt>
      <trkpt lat="36.718769" lon="-5.168092">
        <ele>787.47</ele>
        <time>2021-06-17T09:45:16.000Z</time>
      </trkpt>
      <trkpt lat="36.718772" lon="-5.168109">
        <ele>787.81</ele>
        <time>2021-06-17T09:45:17.000Z</time>
      </trkpt>
      <trkpt lat="36.71878" lon="-5.168095">
        <ele>788.43</ele>
        <time>2021-06-17T09:45:21.000Z</time>
      </trkpt>
      <trkpt lat="36.71878" lon="-5.168081">
        <ele>788.54</ele>
        <time>2021-06-17T09:45:24.000Z</time>
      </trkpt>
      <trkpt lat="36.718785" lon="-5.168066">
        <ele>788.73</ele>
        <time>2021-06-17T09:45:28.000Z</time>
      </trkpt>
      <trkpt lat="36.718782" lon="-5.168052">
        <ele>788.32</ele>
        <time>2021-06-17T09:45:30.000Z</time>
      </trkpt>
      <trkpt lat="36.718771" lon="-5.16805">
        <ele>786.49</ele>
        <time>2021-06-17T09:45:32.000Z</time>
      </trkpt>
      <trkpt lat="36.71878" lon="-5.168045">
        <ele>785</ele>
        <time>2021-06-17T09:45:37.000Z</time>
      </trkpt>
      <trkpt lat="36.71878" lon="-5.168033">
        <ele>783.61</ele>
        <time>2021-06-17T09:45:39.000Z</time>
      </trkpt>
      <trkpt lat="36.718773" lon="-5.168023">
        <ele>783.24</ele>
        <time>2021-06-17T09:45:40.000Z</time>
      </trkpt>
      <trkpt lat="36.718774" lon="-5.16801">
        <ele>782.93</ele>
        <time>2021-06-17T09:45:43.000Z</time>
      </trkpt>
      <trkpt lat="36.718771" lon="-5.167998">
        <ele>783.41</ele>
        <time>2021-06-17T09:45:49.000Z</time>
      </trkpt>
      <trkpt lat="36.718764" lon="-5.167983">
        <ele>781.93</ele>
        <time>2021-06-17T09:45:54.000Z</time>
      </trkpt>
      <trkpt lat="36.718759" lon="-5.167973">
        <ele>781.79</ele>
        <time>2021-06-17T09:45:56.000Z</time>
      </trkpt>
      <trkpt lat="36.718746" lon="-5.16796">
        <ele>780.57</ele>
        <time>2021-06-17T09:45:58.000Z</time>
      </trkpt>
      <trkpt lat="36.718738" lon="-5.16795">
        <ele>780.41</ele>
        <time>2021-06-17T09:46:00.000Z</time>
      </trkpt>
      <trkpt lat="36.718738" lon="-5.167962">
        <ele>779.3</ele>
        <time>2021-06-17T09:46:02.000Z</time>
      </trkpt>
      <trkpt lat="36.718748" lon="-5.167964">
        <ele>779.26</ele>
        <time>2021-06-17T09:46:10.000Z</time>
      </trkpt>
      <trkpt lat="36.718756" lon="-5.167955">
        <ele>780.36</ele>
        <time>2021-06-17T09:46:13.000Z</time>
      </trkpt>
      <trkpt lat="36.718768" lon="-5.167947">
        <ele>780.62</ele>
        <time>2021-06-17T09:46:16.000Z</time>
      </trkpt>
      <trkpt lat="36.718772" lon="-5.167937">
        <ele>780.97</ele>
        <time>2021-06-17T09:46:23.000Z</time>
      </trkpt>
      <trkpt lat="36.718765" lon="-5.16793">
        <ele>781.75</ele>
        <time>2021-06-17T09:53:16.000Z</time>
      </trkpt>
      <trkpt lat="36.71846871007773" lon="-5.167393736121993">
        <ele>0.000</ele>
      </trkpt>
      <trkpt lat="36.718473924584202" lon="-5.167351783532681">
        <ele>0.000</ele>
      </trkpt>
      <trkpt lat="36.718506743512243" lon="-5.167194711714798">
        <ele>0.000</ele>
      </trkpt>
      <trkpt lat="36.718522262287607" lon="-5.167150345229753">
        <ele>0.000</ele>
      </trkpt>
      <trkpt lat="36.718535704169312" lon="-5.166929046124662">
        <ele>0.000</ele>
      </trkpt>
      <trkpt lat="36.718535312408967" lon="-5.166847394517377">
        <ele>0.000</ele>
      </trkpt>
      <trkpt lat="36.718522856106247" lon="-5.166754789200052">
        <ele>0.000</ele>
      </trkpt>
      <trkpt lat="36.71851220438321" lon="-5.166675361873017">
        <ele>0.000</ele>
      </trkpt>
      <trkpt lat="36.718508696054137" lon="-5.166648827157372">
        <ele>0.000</ele>
      </trkpt>
      <trkpt lat="36.718506916172423" lon="-5.166553317168415">
        <ele>0.000</ele>
      </trkpt>
      <trkpt lat="36.718505135718111" lon="-5.166457709286813">
        <ele>0.000</ele>
      </trkpt>
      <trkpt lat="36.718496461951773" lon="-5.166391089771398">
        <ele>0.000</ele>
      </trkpt>
      <trkpt lat="36.718505340540929" lon="-5.166292395288003">
        <ele>0.000</ele>
      </trkpt>
      <trkpt lat="36.718501564352671" lon="-5.166183586671796">
        <ele>0.000</ele>
      </trkpt>
      <trkpt lat="36.718496097982857" lon="-5.166143981158156">
        <ele>0.000</ele>
      </trkpt>
      <trkpt lat="36.718514841864597" lon="-5.166043390821027">
        <ele>0.000</ele>
      </trkpt>
      <trkpt lat="36.718516323545749" lon="-5.165974441275924">
        <ele>0.000</ele>
      </trkpt>
      <trkpt lat="36.718524530503117" lon="-5.16587655218588">
        <ele>0.000</ele>
      </trkpt>
      <trkpt lat="36.718527717051458" lon="-5.165820985929283">
        <ele>0.000</ele>
      </trkpt>
      <trkpt lat="36.718546394359088" lon="-5.165720297553996">
        <ele>0.000</ele>
      </trkpt>
      <trkpt lat="36.718552402871573" lon="-5.165609884946899">
        <ele>0.000</ele>
      </trkpt>
      <trkpt lat="36.718579018897273" lon="-5.165494690369831">
        <ele>0.000</ele>
      </trkpt>
      <trkpt lat="36.718580249615258" lon="-5.165426107430324">
        <ele>0.000</ele>
      </trkpt>
      <trkpt lat="36.718600729693613" lon="-5.165338501009097">
        <ele>0.000</ele>
      </trkpt>
      <trkpt lat="36.718624907330963" lon="-5.1652772035853">
        <ele>0.000</ele>
      </trkpt>
      <trkpt lat="36.71863858976149" lon="-5.165218691089921">
        <ele>0.000</ele>
      </trkpt>
      <trkpt lat="36.718648677587737" lon="-5.165133354940145">
        <ele>0.000</ele>
      </trkpt>
      <trkpt lat="36.718655654696747" lon="-5.165103982069649">
        <ele>0.000</ele>
      </trkpt>
      <trkpt lat="36.718669379171118" lon="-5.164961843564512">
        <ele>0.000</ele>
      </trkpt>
      <trkpt lat="36.718692026320007" lon="-5.164886390371879">
        <ele>0.000</ele>
      </trkpt>
      <trkpt lat="36.718730526767182" lon="-5.164848297713781">
        <ele>0.000</ele>
      </trkpt>
      <trkpt lat="36.718781601175678" lon="-5.164820308511575">
        <ele>0.000</ele>
      </trkpt>
      <trkpt lat="36.718834673872657" lon="-5.164805436997745">
        <ele>0.000</ele>
      </trkpt>
      <trkpt lat="36.718896718547008" lon="-5.164774165600573">
        <ele>0.000</ele>
      </trkpt>
      <trkpt lat="36.718960767268527" lon="-5.16475619826989">
        <ele>0.000</ele>
      </trkpt>
      <trkpt lat="36.719003996321312" lon="-5.164743332571224">
        <ele>0.000</ele>
      </trkpt>
      <trkpt lat="36.719072425276309" lon="-5.164751410600479">
        <ele>0.000</ele>
      </trkpt>
      <trkpt lat="36.719108654111771" lon="-5.164768698253038">
        <ele>0.000</ele>
      </trkpt>
      <trkpt lat="36.719168590693698" lon="-5.164793038394361">
        <ele>0.000</ele>
      </trkpt>
      <trkpt lat="36.719204974374193" lon="-5.164810467305965">
        <ele>0.000</ele>
      </trkpt>
      <trkpt lat="36.719277638926819" lon="-5.164845840254845">
        <ele>0.000</ele>
      </trkpt>
      <trkpt lat="36.71932492411284" lon="-5.164860641333767">
        <ele>0.000</ele>
      </trkpt>
      <trkpt lat="36.719385087569137" lon="-5.164885972819486">
        <ele>0.000</ele>
      </trkpt>
      <trkpt lat="36.719408807755727" lon="-5.164893452857995">
        <ele>0.000</ele>
      </trkpt>
      <trkpt lat="36.719482235898028" lon="-5.164929097257057">
        <ele>0.000</ele>
      </trkpt>
      <trkpt lat="36.71955490922354" lon="-5.164950006976663">
        <ele>0.000</ele>
      </trkpt>
      <trkpt lat="36.719603414367263" lon="-5.164964255506189">
        <ele>0.000</ele>
      </trkpt>
      <trkpt lat="36.719663011688567" lon="-5.164975556893435">
        <ele>0.000</ele>
      </trkpt>
      <trkpt lat="36.719757078141967" lon="-5.164992802939796">
        <ele>0.000</ele>
      </trkpt>
      <trkpt lat="36.719854420938518" lon="-5.165038517546826">
        <ele>0.000</ele>
      </trkpt>
      <trkpt lat="36.719911542078073" lon="-5.165037940934837">
        <ele>0.000</ele>
      </trkpt>
      <trkpt lat="36.719957870225208" lon="-5.165040029115736">
        <ele>0.000</ele>
      </trkpt>
      <trkpt lat="36.720043032415823" lon="-5.165074955659923">
        <ele>0.000</ele>
      </trkpt>
      <trkpt lat="36.720139776437819" lon="-5.16510695367519">
        <ele>0.000</ele>
      </trkpt>
      <trkpt lat="36.720201295032723" lon="-5.165133945510947">
        <ele>0.000</ele>
      </trkpt>
      <trkpt lat="36.720261215734837" lon="-5.165147060230407">
        <ele>0.000</ele>
      </trkpt>
      <trkpt lat="36.720311794140692" lon="-5.165176994196433">
        <ele>0.000</ele>
      </trkpt>
      <trkpt lat="36.720407551146337" lon="-5.165195526660856">
        <ele>0.000</ele>
      </trkpt>
      <trkpt lat="36.720454682952322" lon="-5.165197834027794">
        <ele>0.000</ele>
      </trkpt>
      <trkpt lat="36.720552147316283" lon="-5.165230979884903">
        <ele>0.000</ele>
      </trkpt>
      <trkpt lat="36.720695713779058" lon="-5.165252558720272">
        <ele>0.000</ele>
      </trkpt>
      <trkpt lat="36.720758805597491" lon="-5.165279682130909">
        <ele>0.000</ele>
      </trkpt>
      <trkpt lat="36.720830311712703" lon="-5.165291135679928">
        <ele>0.000</ele>
      </trkpt>
      <trkpt lat="36.72087879990687" lon="-5.165308510813141">
        <ele>0.000</ele>
      </trkpt>
      <trkpt lat="36.72096175869487" lon="-5.165317379557819">
        <ele>0.000</ele>
      </trkpt>
      <trkpt lat="36.721010622350207" lon="-5.165334637676233">
        <ele>0.000</ele>
      </trkpt>
      <trkpt lat="36.721131794032189" lon="-5.165363378275634">
        <ele>0.000</ele>
      </trkpt>
      <trkpt lat="36.721230888953762" lon="-5.165382042958303">
        <ele>0.000</ele>
      </trkpt>
      <trkpt lat="36.721269754626668" lon="-5.165401384963591">
        <ele>0.000</ele>
      </trkpt>
      <trkpt lat="36.721380264387292" lon="-5.16540247557765">
        <ele>0.000</ele>
      </trkpt>
      <trkpt lat="36.721456302891468" lon="-5.165396710865152">
        <ele>0.000</ele>
      </trkpt>
      <trkpt lat="36.721506077244811" lon="-5.16538333913441">
        <ele>0.000</ele>
      </trkpt>
      <trkpt lat="36.721569234742446" lon="-5.165396886798311">
        <ele>0.000</ele>
      </trkpt>
      <trkpt lat="36.721618679302992" lon="-5.165399281780743">
        <ele>0.000</ele>
      </trkpt>
      <trkpt lat="36.721729018234257" lon="-5.16538622415665">
        <ele>0.000</ele>
      </trkpt>
      <trkpt lat="36.721815796079539" lon="-5.165379098142542">
        <ele>0.000</ele>
      </trkpt>
      <trkpt lat="36.721864740889053" lon="-5.165366682018083">
        <ele>0.000</ele>
      </trkpt>
      <trkpt lat="36.721974230381193" lon="-5.165339289633193">
        <ele>0.000</ele>
      </trkpt>
      <trkpt lat="36.72204533595923" lon="-5.165322266199091">
        <ele>0.000</ele>
      </trkpt>
      <trkpt lat="36.72209278389434" lon="-5.16531092640136">
        <ele>0.000</ele>
      </trkpt>
      <trkpt lat="36.722164057721209" lon="-5.165293899930397">
        <ele>0.000</ele>
      </trkpt>
      <trkpt lat="36.722223575106753" lon="-5.165279681628511">
        <ele>0.000</ele>
      </trkpt>
      <trkpt lat="36.722283206269367" lon="-5.165265436456599">
        <ele>0.000</ele>
      </trkpt>
      <trkpt lat="36.7223309927776" lon="-5.165254021113328">
        <ele>0.000</ele>
      </trkpt>
      <trkpt lat="36.722426613859213" lon="-5.165231268172406">
        <ele>0.000</ele>
      </trkpt>
      <trkpt lat="36.722473947959557" lon="-5.165220147311254">
        <ele>0.000</ele>
      </trkpt>
      <trkpt lat="36.722593538600258" lon="-5.165191816356383">
        <ele>0.000</ele>
      </trkpt>
      <trkpt lat="36.722713148579807" lon="-5.165163595121413">
        <ele>0.000</ele>
      </trkpt>
      <trkpt lat="36.722808134911851" lon="-5.165141501682435">
        <ele>0.000</ele>
      </trkpt>
      <trkpt lat="36.722915195610881" lon="-5.165116587733751">
        <ele>0.000</ele>
      </trkpt>
      <trkpt lat="36.722951095108073" lon="-5.165108228975256">
        <ele>0.000</ele>
      </trkpt>
      <trkpt lat="36.723023025073147" lon="-5.165091409450433">
        <ele>0.000</ele>
      </trkpt>
      <trkpt lat="36.723071052356822" lon="-5.165080179537933">
        <ele>0.000</ele>
      </trkpt>
      <trkpt lat="36.723119139851889" lon="-5.165068934947864">
        <ele>0.000</ele>
      </trkpt>
      <trkpt lat="36.723216647932517" lon="-5.165061373603753">
        <ele>0.000</ele>
      </trkpt>
      <trkpt lat="36.723339142715552" lon="-5.165032244311694">
        <ele>0.000</ele>
      </trkpt>
      <trkpt lat="36.72344871946477" lon="-5.165006487356586">
        <ele>0.000</ele>
      </trkpt>
      <trkpt lat="36.72352420740831" lon="-5.164988124418146">
        <ele>0.000</ele>
      </trkpt>
      <trkpt lat="36.723635283660023" lon="-5.1649617350568">
        <ele>0.000</ele>
      </trkpt>
      <trkpt lat="36.723696642412371" lon="-5.164947342074614">
        <ele>0.000</ele>
      </trkpt>
      <trkpt lat="36.723771733625867" lon="-5.164929354900853">
        <ele>0.000</ele>
      </trkpt>
      <trkpt lat="36.723835511190238" lon="-5.164913794940084">
        <ele>0.000</ele>
      </trkpt>
      <trkpt lat="36.723885127754158" lon="-5.164902073391962">
        <ele>0.000</ele>
      </trkpt>
      <trkpt lat="36.724024244820733" lon="-5.164868604811755">
        <ele>0.000</ele>
      </trkpt>
      <trkpt lat="36.724137836100198" lon="-5.164841465814215">
        <ele>0.000</ele>
      </trkpt>
      <trkpt lat="36.72425197910259" lon="-5.164814153508398">
        <ele>0.000</ele>
      </trkpt>
      <trkpt lat="36.724344891430171" lon="-5.164790991548078">
        <ele>0.000</ele>
      </trkpt>
      <trkpt lat="36.724424963306248" lon="-5.164771004380357">
        <ele>0.000</ele>
      </trkpt>
      <trkpt lat="36.724478495787778" lon="-5.164757642015044">
        <ele>0.000</ele>
      </trkpt>
      <trkpt lat="36.724543812378258" lon="-5.164741728720202">
        <ele>0.000</ele>
      </trkpt>
      <trkpt lat="36.724649038723989" lon="-5.164716009354045">
        <ele>0.000</ele>
      </trkpt>
      <trkpt lat="36.724728260904158" lon="-5.164696621462253">
        <ele>0.000</ele>
      </trkpt>
      <trkpt lat="36.72483101445561" lon="-5.164672204628658">
        <ele>0.000</ele>
      </trkpt>
      <trkpt lat="36.724908244936543" lon="-5.164653856493437">
        <ele>0.000</ele>
      </trkpt>
      <trkpt lat="36.724959829842263" lon="-5.164641601424077">
        <ele>0.000</ele>
      </trkpt>
      <trkpt lat="36.724998569098773" lon="-5.164632397395338">
        <ele>0.000</ele>
      </trkpt>
      <trkpt lat="36.725091125748968" lon="-5.16460998014726">
        <ele>0.000</ele>
      </trkpt>
      <trkpt lat="36.72514689669886" lon="-5.164611805057833">
        <ele>0.000</ele>
      </trkpt>
      <trkpt lat="36.72524184808325" lon="-5.164588427512253">
        <ele>0.000</ele>
      </trkpt>
      <trkpt lat="36.725323991386936" lon="-5.164584063846684">
        <ele>0.000</ele>
      </trkpt>
      <trkpt lat="36.725367678374823" lon="-5.164588742909302">
        <ele>0.000</ele>
      </trkpt>
      <trkpt lat="36.725452398155063" lon="-5.164567408422864">
        <ele>0.000</ele>
      </trkpt>
      <trkpt lat="36.725505304454401" lon="-5.164570775986213">
        <ele>0.000</ele>
      </trkpt>
      <trkpt lat="36.725532329091479" lon="-5.164612185480246">
        <ele>0.000</ele>
      </trkpt>
      <trkpt lat="36.725571206878342" lon="-5.164651007499676">
        <ele>0.000</ele>
      </trkpt>
      <trkpt lat="36.725607125381913" lon="-5.164736464826161">
        <ele>0.000</ele>
      </trkpt>
      <trkpt lat="36.725636468937999" lon="-5.16480865380024">
        <ele>0.000</ele>
      </trkpt>
      <trkpt lat="36.725651175250903" lon="-5.164852650559006">
        <ele>0.000</ele>
      </trkpt>
      <trkpt lat="36.72565623096056" lon="-5.164930016153746">
        <ele>0.000</ele>
      </trkpt>
      <trkpt lat="36.725673846053738" lon="-5.164988648795507">
        <ele>0.000</ele>
      </trkpt>
      <trkpt lat="36.725683015750171" lon="-5.165080146354567">
        <ele>0.000</ele>
      </trkpt>
      <trkpt lat="36.725679416376003" lon="-5.165174431655374">
        <ele>0.000</ele>
      </trkpt>
      <trkpt lat="36.725672767056253" lon="-5.16523818335933">
        <ele>0.000</ele>
      </trkpt>
      <trkpt lat="36.725670064240717" lon="-5.16534773372299">
        <ele>0.000</ele>
      </trkpt>
      <trkpt lat="36.725664669230348" lon="-5.165426636550632">
        <ele>0.000</ele>
      </trkpt>
      <trkpt lat="36.725643441996979" lon="-5.165586309052692">
        <ele>0.000</ele>
      </trkpt>
      <trkpt lat="36.725638486449668" lon="-5.165664871297282">
        <ele>0.000</ele>
      </trkpt>
      <trkpt lat="36.725632317247168" lon="-5.165728121491464">
        <ele>0.000</ele>
      </trkpt>
      <trkpt lat="36.725615760633502" lon="-5.16580900219378">
        <ele>0.000</ele>
      </trkpt>
      <trkpt lat="36.725621206765368" lon="-5.165885260526518">
        <ele>0.000</ele>
      </trkpt>
      <trkpt lat="36.725628139541961" lon="-5.165945532846633">
        <ele>0.000</ele>
      </trkpt>
      <trkpt lat="36.725639583778822" lon="-5.166035628044505">
        <ele>0.000</ele>
      </trkpt>
      <trkpt lat="36.725643473483878" lon="-5.166065638010078">
        <ele>0.000</ele>
      </trkpt>
      <trkpt lat="36.725650577254221" lon="-5.166125823019684">
        <ele>0.000</ele>
      </trkpt>
      <trkpt lat="36.725659454159462" lon="-5.166201034418253">
        <ele>0.000</ele>
      </trkpt>
      <trkpt lat="36.725657690121878" lon="-5.166401667990719">
        <ele>0.000</ele>
      </trkpt>
      <trkpt lat="36.725675074527977" lon="-5.166521222809244">
        <ele>0.000</ele>
      </trkpt>
      <trkpt lat="36.725688211208471" lon="-5.166610891774377">
        <ele>0.000</ele>
      </trkpt>
      <trkpt lat="36.725689774871803" lon="-5.166718330402271">
        <ele>0.000</ele>
      </trkpt>
      <trkpt lat="36.72568850311314" lon="-5.166810894328545">
        <ele>0.000</ele>
      </trkpt>
      <trkpt lat="36.725680206717087" lon="-5.166950958018272">
        <ele>0.000</ele>
      </trkpt>
      <trkpt lat="36.725678704969191" lon="-5.167043439649125">
        <ele>0.000</ele>
      </trkpt>
      <trkpt lat="36.725663005715631" lon="-5.167138603694329">
        <ele>0.000</ele>
      </trkpt>
      <trkpt lat="36.725672160852973" lon="-5.167213469908347">
        <ele>0.000</ele>
      </trkpt>
      <trkpt lat="36.725671630492933" lon="-5.167320842652384">
        <ele>0.000</ele>
      </trkpt>
      <trkpt lat="36.725663958262608" lon="-5.167475498698982">
        <ele>0.000</ele>
      </trkpt>
      <trkpt lat="36.725665344378349" lon="-5.167582538177303">
        <ele>0.000</ele>
      </trkpt>
      <trkpt lat="36.725675861665778" lon="-5.167657185108389">
        <ele>0.000</ele>
      </trkpt>
      <trkpt lat="36.72568313167055" lon="-5.167716964858849">
        <ele>0.000</ele>
      </trkpt>
      <trkpt lat="36.725694563470711" lon="-5.167836592176661">
        <ele>0.000</ele>
      </trkpt>
      <trkpt lat="36.725700983076173" lon="-5.167896337045973">
        <ele>0.000</ele>
      </trkpt>
      <trkpt lat="36.725716209334927" lon="-5.168015726628823">
        <ele>0.000</ele>
      </trkpt>
      <trkpt lat="36.725731331941347" lon="-5.1681201739565">
        <ele>0.000</ele>
      </trkpt>
      <trkpt lat="36.725760156405727" lon="-5.168222270496452">
        <ele>0.000</ele>
      </trkpt>
      <trkpt lat="36.725782145068592" lon="-5.168279627354265">
        <ele>0.000</ele>
      </trkpt>
      <trkpt lat="36.725797873740639" lon="-5.168399078166287">
        <ele>0.000</ele>
      </trkpt>
      <trkpt lat="36.725818655032533" lon="-5.168456451329517">
        <ele>0.000</ele>
      </trkpt>
      <trkpt lat="36.725842643870052" lon="-5.168543672145996">
        <ele>0.000</ele>
      </trkpt>
      <trkpt lat="36.725861947384438" lon="-5.168600993590807">
        <ele>0.000</ele>
      </trkpt>
      <trkpt lat="36.725883981124007" lon="-5.168673294890884">
        <ele>0.000</ele>
      </trkpt>
      <trkpt lat="36.725920395394837" lon="-5.16874340914122">
        <ele>0.000</ele>
      </trkpt>
      <trkpt lat="36.725941944548467" lon="-5.168815703827267">
        <ele>0.000</ele>
      </trkpt>
      <trkpt lat="36.725990853285602" lon="-5.168868816702286">
        <ele>0.000</ele>
      </trkpt>
      <trkpt lat="36.725998955447103" lon="-5.168943391190391">
        <ele>0.000</ele>
      </trkpt>
      <trkpt lat="36.726038289323178" lon="-5.169058196904246">
        <ele>0.000</ele>
      </trkpt>
      <trkpt lat="36.726077369237927" lon="-5.169158268064274">
        <ele>0.000</ele>
      </trkpt>
      <trkpt lat="36.726113241777469" lon="-5.169228576177616">
        <ele>0.000</ele>
      </trkpt>
      <trkpt lat="36.726133278911092" lon="-5.169286062823899">
        <ele>0.000</ele>
      </trkpt>
      <trkpt lat="36.726173810335858" lon="-5.169357095507104">
        <ele>0.000</ele>
      </trkpt>
      <trkpt lat="36.726196068116707" lon="-5.169414967131557">
        <ele>0.000</ele>
      </trkpt>
      <trkpt lat="36.726236467118881" lon="-5.169515492090624">
        <ele>0.000</ele>
      </trkpt>
      <trkpt lat="36.72627460542698" lon="-5.169601058676211">
        <ele>0.000</ele>
      </trkpt>
      <trkpt lat="36.726310954969172" lon="-5.169671727519728">
        <ele>0.000</ele>
      </trkpt>
      <trkpt lat="36.726318211234897" lon="-5.169731546910349">
        <ele>0.000</ele>
      </trkpt>
      <trkpt lat="36.726338971482271" lon="-5.169789313107795">
        <ele>0.000</ele>
      </trkpt>
      <trkpt lat="36.726374637803318" lon="-5.16987453935956">
        <ele>0.000</ele>
      </trkpt>
      <trkpt lat="36.726410152371713" lon="-5.169959742869827">
        <ele>0.000</ele>
      </trkpt>
      <trkpt lat="36.726464876525078" lon="-5.170073315794403">
        <ele>0.000</ele>
      </trkpt>
      <trkpt lat="36.726498117313888" lon="-5.170128953284947">
        <ele>0.000</ele>
      </trkpt>
      <trkpt lat="36.72653282110906" lon="-5.170199493339185">
        <ele>0.000</ele>
      </trkpt>
      <trkpt lat="36.726583370626109" lon="-5.170283187934729">
        <ele>0.000</ele>
      </trkpt>
      <trkpt lat="36.726618585092332" lon="-5.170339382395034">
        <ele>0.000</ele>
      </trkpt>
      <trkpt lat="36.726667610491781" lon="-5.170393758255209">
        <ele>0.000</ele>
      </trkpt>
      <trkpt lat="36.726714676029751" lon="-5.170433166048706">
        <ele>0.000</ele>
      </trkpt>
      <trkpt lat="36.726805812158389" lon="-5.170496791266562">
        <ele>0.000</ele>
      </trkpt>
      <trkpt lat="36.726845176138632" lon="-5.170476127601472">
        <ele>0.000</ele>
      </trkpt>
      <trkpt lat="36.726867514077647" lon="-5.170427353110886">
        <ele>0.000</ele>
      </trkpt>
      <trkpt lat="36.726886455635523" lon="-5.17034850209415">
        <ele>0.000</ele>
      </trkpt>
      <trkpt lat="36.726920368322361" lon="-5.17028251712677">
        <ele>0.000</ele>
      </trkpt>
      <trkpt lat="36.726955517680068" lon="-5.170231352809837">
        <ele>0.000</ele>
      </trkpt>
      <trkpt lat="36.7269910795222" lon="-5.170180197499069">
        <ele>0.000</ele>
      </trkpt>
      <trkpt lat="36.72705453117613" lon="-5.170125050038421">
        <ele>0.000</ele>
      </trkpt>
      <trkpt lat="36.727090333008547" lon="-5.170073740519927">
        <ele>0.000</ele>
      </trkpt>
      <trkpt lat="36.727140068331067" lon="-5.170020351479469">
        <ele>0.000</ele>
      </trkpt>
      <trkpt lat="36.727187472901853" lon="-5.169951609516517">
        <ele>0.000</ele>
      </trkpt>
      <trkpt lat="36.727236977761322" lon="-5.169897926188114">
        <ele>0.000</ele>
      </trkpt>
      <trkpt lat="36.727274669926473" lon="-5.169861398172292">
        <ele>0.000</ele>
      </trkpt>
      <trkpt lat="36.727337698907156" lon="-5.169805379053518">
        <ele>0.000</ele>
      </trkpt>
      <trkpt lat="36.727401813490673" lon="-5.169749392267341">
        <ele>0.000</ele>
      </trkpt>
      <trkpt lat="36.727415807586389" lon="-5.169747310569277">
        <ele>0.000</ele>
      </trkpt>
      <trkpt lat="36.727609426423648" lon="-5.169652375105526">
        <ele>0.000</ele>
      </trkpt>
      <trkpt lat="36.727644468713891" lon="-5.169599695239258">
        <ele>0.000</ele>
      </trkpt>
      <trkpt lat="36.7276756079238" lon="-5.169497636696391">
        <ele>0.000</ele>
      </trkpt>
      <trkpt lat="36.727763484855423" lon="-5.169365617077544">
        <ele>0.000</ele>
      </trkpt>
      <trkpt lat="36.727845578602739" lon="-5.169158932175141">
        <ele>0.000</ele>
      </trkpt>
      <trkpt lat="36.727914042271287" lon="-5.169027679670686">
        <ele>0.000</ele>
      </trkpt>
      <trkpt lat="36.728006400082108" lon="-5.16894424737959">
        <ele>0.000</ele>
      </trkpt>
      <trkpt lat="36.728061548232183" lon="-5.168889186716251">
        <ele>0.000</ele>
      </trkpt>
      <trkpt lat="36.728156128019137" lon="-5.168830227255608">
        <ele>0.000</ele>
      </trkpt>
      <trkpt lat="36.728268969668271" lon="-5.168744752661745">
        <ele>0.000</ele>
      </trkpt>
      <trkpt lat="36.728364498430331" lon="-5.168686164868108">
        <ele>0.000</ele>
      </trkpt>
      <trkpt lat="36.728442636785793" lon="-5.16865461457445">
        <ele>0.000</ele>
      </trkpt>
      <trkpt lat="36.728480521507322" lon="-5.168626017467219">
        <ele>0.000</ele>
      </trkpt>
      <trkpt lat="36.728577894647479" lon="-5.168591413888156">
        <ele>0.000</ele>
      </trkpt>
      <trkpt lat="36.728675475397289" lon="-5.168556770762917">
        <ele>0.000</ele>
      </trkpt>
      <trkpt lat="36.728773548572917" lon="-5.168522379009493">
        <ele>0.000</ele>
      </trkpt>
      <trkpt lat="36.728847483458203" lon="-5.168439308441219">
        <ele>0.000</ele>
      </trkpt>
      <trkpt lat="36.728945404047757" lon="-5.168404245568103">
        <ele>0.000</ele>
      </trkpt>
      <trkpt lat="36.729021794696457" lon="-5.168346262812257">
        <ele>0.000</ele>
      </trkpt>
      <trkpt lat="36.729156832858678" lon="-5.168257192597343">
        <ele>0.000</ele>
      </trkpt>
      <trkpt lat="36.729233575431117" lon="-5.168198946389296">
        <ele>0.000</ele>
      </trkpt>
      <trkpt lat="36.729331044851882" lon="-5.168138901301674">
        <ele>0.000</ele>
      </trkpt>
      <trkpt lat="36.729446921118743" lon="-5.16805135788312">
        <ele>0.000</ele>
      </trkpt>
      <trkpt lat="36.72956240289912" lon="-5.167963106837009">
        <ele>0.000</ele>
      </trkpt>
      <trkpt lat="36.729600852319408" lon="-5.16793357600399">
        <ele>0.000</ele>
      </trkpt>
      <trkpt lat="36.729677861744868" lon="-5.16787447307466">
        <ele>0.000</ele>
      </trkpt>
      <trkpt lat="36.729773861157092" lon="-5.167788127725909">
        <ele>0.000</ele>
      </trkpt>
      <trkpt lat="36.729851582938792" lon="-5.167729056279304">
        <ele>0.000</ele>
      </trkpt>
      <trkpt lat="36.729947706579551" lon="-5.167642253967316">
        <ele>0.000</ele>
      </trkpt>
      <trkpt lat="36.730023448255729" lon="-5.167557356055775">
        <ele>0.000</ele>
      </trkpt>
      <trkpt lat="36.730099423236709" lon="-5.167472391558877">
        <ele>0.000</ele>
      </trkpt>
      <trkpt lat="36.730215587285898" lon="-5.167357848690257">
        <ele>0.000</ele>
      </trkpt>
      <trkpt lat="36.730271917816033" lon="-5.167274964138246">
        <ele>0.000</ele>
      </trkpt>
      <trkpt lat="36.730347159517812" lon="-5.167164251272051">
        <ele>0.000</ele>
      </trkpt>
      <trkpt lat="36.730422558955333" lon="-5.167053306567397">
        <ele>0.000</ele>
      </trkpt>
      <trkpt lat="36.730537882785868" lon="-5.166912080618432">
        <ele>0.000</ele>
      </trkpt>
      <trkpt lat="36.730590423874688" lon="-5.166777078714286">
        <ele>0.000</ele>
      </trkpt>
      <trkpt lat="36.730665115479489" lon="-5.166665048610542">
        <ele>0.000</ele>
      </trkpt>
      <trkpt lat="36.730738573339679" lon="-5.166527267953189">
        <ele>0.000</ele>
      </trkpt>
      <trkpt lat="36.730795364155092" lon="-5.166443086706805">
        <ele>0.000</ele>
      </trkpt>
      <trkpt lat="36.73085077017118" lon="-5.166333123726804">
        <ele>0.000</ele>
      </trkpt>
      <trkpt lat="36.730905836360797" lon="-5.166197438957035">
        <ele>0.000</ele>
      </trkpt>
      <trkpt lat="36.73096546064658" lon="-5.166138680057369">
        <ele>0.000</ele>
      </trkpt>
      <trkpt lat="36.731065048072217" lon="-5.166049090191662">
        <ele>0.000</ele>
      </trkpt>
      <trkpt lat="36.731248322155238" lon="-5.165923623661097">
        <ele>0.000</ele>
      </trkpt>
      <trkpt lat="36.731374402702187" lon="-5.165882929028064">
        <ele>0.000</ele>
      </trkpt>
      <trkpt lat="36.731458532233958" lon="-5.165872929599359">
        <ele>0.000</ele>
      </trkpt>
      <trkpt lat="36.731560514193148" lon="-5.165808463854127">
        <ele>0.000</ele>
      </trkpt>
      <trkpt lat="36.731684353067998" lon="-5.165741368696897">
        <ele>0.000</ele>
      </trkpt>
      <trkpt lat="36.731746226097592" lon="-5.165707745006925">
        <ele>0.000</ele>
      </trkpt>
      <trkpt lat="36.731870580324873" lon="-5.16564037553915">
        <ele>0.000</ele>
      </trkpt>
      <trkpt lat="36.732019584171667" lon="-5.165596432095237">
        <ele>0.000</ele>
      </trkpt>
      <trkpt lat="36.732148370923738" lon="-5.16555495288573">
        <ele>0.000</ele>
      </trkpt>
      <trkpt lat="36.732233133272963" lon="-5.165492297138968">
        <ele>0.000</ele>
      </trkpt>
      <trkpt lat="36.732319063231238" lon="-5.16545571486212">
        <ele>0.000</ele>
      </trkpt>
      <trkpt lat="36.732428934060252" lon="-5.165442754456421">
        <ele>0.000</ele>
      </trkpt>
      <trkpt lat="36.732557802296178" lon="-5.165400756156794">
        <ele>0.000</ele>
      </trkpt>
      <trkpt lat="36.732666607816341" lon="-5.165387663235277">
        <ele>0.000</ele>
      </trkpt>
      <trkpt lat="36.732796110172167" lon="-5.16534551626928">
        <ele>0.000</ele>
      </trkpt>
      <trkpt lat="36.732906944118248" lon="-5.165305855418706">
        <ele>0.000</ele>
      </trkpt>
      <trkpt lat="36.733013544749532" lon="-5.165266192712716">
        <ele>0.000</ele>
      </trkpt>
      <trkpt lat="36.733100970270328" lon="-5.165255550203653">
        <ele>0.000</ele>
      </trkpt>
      <trkpt lat="36.733209144419163" lon="-5.165215717159299">
        <ele>0.000</ele>
      </trkpt>
      <trkpt lat="36.73329334367957" lon="-5.165151959812228">
        <ele>0.000</ele>
      </trkpt>
      <trkpt lat="36.733315466929888" lon="-5.16514926656852">
        <ele>0.000</ele>
      </trkpt>
      <trkpt lat="36.733446303802253" lon="-5.165106519489992">
        <ele>0.000</ele>
      </trkpt>
      <trkpt lat="36.733528992876927" lon="-5.165015910434693">
        <ele>0.000</ele>
      </trkpt>
      <trkpt lat="36.733636412732373" lon="-5.16494898659889">
        <ele>0.000</ele>
      </trkpt>
      <trkpt lat="36.73370100420513" lon="-5.164914107020865">
        <ele>0.000</ele>
      </trkpt>
      <trkpt lat="36.733808039168373" lon="-5.164846990955439">
        <ele>0.000</ele>
      </trkpt>
      <trkpt lat="36.733893473696128" lon="-5.164782481350851">
        <ele>0.000</ele>
      </trkpt>
      <trkpt lat="36.73398125396875" lon="-5.164744565766279">
        <ele>0.000</ele>
      </trkpt>
      <trkpt lat="36.734091745888449" lon="-5.164703757689462">
        <ele>0.000</ele>
      </trkpt>
      <trkpt lat="36.734204779049939" lon="-5.164689632737204">
        <ele>0.000</ele>
      </trkpt>
      <trkpt lat="36.734294839949889" lon="-5.164678365608833">
        <ele>0.000</ele>
      </trkpt>
      <trkpt lat="36.734386888255933" lon="-5.164693915177516">
        <ele>0.000</ele>
      </trkpt>
      <trkpt lat="36.734497224104409" lon="-5.164707002411623">
        <ele>0.000</ele>
      </trkpt>
      <trkpt lat="36.734587624186908" lon="-5.164749757545556">
        <ele>0.000</ele>
      </trkpt>
      <trkpt lat="36.734678577650307" lon="-5.164792518212574">
        <ele>0.000</ele>
      </trkpt>
      <trkpt lat="36.734751898080681" lon="-5.164864804476158">
        <ele>0.000</ele>
      </trkpt>
      <trkpt lat="36.734806511238418" lon="-5.164966734472012">
        <ele>0.000</ele>
      </trkpt>
      <trkpt lat="36.73490428235425" lon="-5.165063346810391">
        <ele>0.000</ele>
      </trkpt>
      <trkpt lat="36.734977694182902" lon="-5.165135889029123">
        <ele>0.000</ele>
      </trkpt>
      <trkpt lat="36.735082701923993" lon="-5.165095472157494">
        <ele>0.000</ele>
      </trkpt>
      <trkpt lat="36.735143261282232" lon="-5.165033490701116">
        <ele>0.000</ele>
      </trkpt>
      <trkpt lat="36.735200559402863" lon="-5.164917517125184">
        <ele>0.000</ele>
      </trkpt>
      <trkpt lat="36.735255634960012" lon="-5.164774506955688">
        <ele>0.000</ele>
      </trkpt>
      <trkpt lat="36.735288699239007" lon="-5.164634166426779">
        <ele>0.000</ele>
      </trkpt>
      <trkpt lat="36.735370449938138" lon="-5.164542081090903">
        <ele>0.000</ele>
      </trkpt>
      <trkpt lat="36.735481229909091" lon="-5.164528058846427">
        <ele>0.000</ele>
      </trkpt>
      <trkpt lat="36.735570518632422" lon="-5.164516770122132">
        <ele>0.000</ele>
      </trkpt>
      <trkpt lat="36.73566056796642" lon="-5.164505414793164">
        <ele>0.000</ele>
      </trkpt>
      <trkpt lat="36.735795871185907" lon="-5.164488351975976">
        <ele>0.000</ele>
      </trkpt>
      <trkpt lat="36.735911079635173" lon="-5.164501185603786">
        <ele>0.000</ele>
      </trkpt>
      <trkpt lat="36.736003982600742" lon="-5.164516872948669">
        <ele>0.000</ele>
      </trkpt>
      <trkpt lat="36.736097902293757" lon="-5.164532515632168">
        <ele>0.000</ele>
      </trkpt>
      <trkpt lat="36.736172910695927" lon="-5.164550730216469">
        <ele>0.000</ele>
      </trkpt>
      <trkpt lat="36.736303333170071" lon="-5.164589900461136">
        <ele>0.000</ele>
      </trkpt>
      <trkpt lat="36.736423913970462" lon="-5.164629965980918">
        <ele>0.000</ele>
      </trkpt>
      <trkpt lat="36.736495853401578" lon="-5.164648601303683">
        <ele>0.000</ele>
      </trkpt>
      <trkpt lat="36.736615156069199" lon="-5.164688902720397">
        <ele>0.000</ele>
      </trkpt>
      <trkpt lat="36.736737291520029" lon="-5.16475655311904">
        <ele>0.000</ele>
      </trkpt>
      <trkpt lat="36.736834447548482" lon="-5.164772385277954">
        <ele>0.000</ele>
      </trkpt>
      <trkpt lat="36.736932277581289" lon="-5.164788211654233">
        <ele>0.000</ele>
      </trkpt>
      <trkpt lat="36.737025396650949" lon="-5.164776844555651">
        <ele>0.000</ele>
      </trkpt>
      <trkpt lat="36.737143649717837" lon="-5.164790042261609">
        <ele>0.000</ele>
      </trkpt>
      <trkpt lat="36.737260927352033" lon="-5.164775785599258">
        <ele>0.000</ele>
      </trkpt>
      <trkpt lat="36.737359408484267" lon="-5.164764117187412">
        <ele>0.000</ele>
      </trkpt>
      <trkpt lat="36.737483948995717" lon="-5.164777051480368">
        <ele>0.000</ele>
      </trkpt>
      <trkpt lat="36.737508742356688" lon="-5.164774125852598">
        <ele>0.000</ele>
      </trkpt>
      <trkpt lat="36.73768808047344" lon="-5.164836365761914">
        <ele>0.000</ele>
      </trkpt>
      <trkpt lat="36.73784162494497" lon="-5.164874107950119">
        <ele>0.000</ele>
      </trkpt>
      <trkpt lat="36.737943612724138" lon="-5.164890125858839">
        <ele>0.000</ele>
      </trkpt>
      <trkpt lat="36.738018743180064" lon="-5.16488140906765">
        <ele>0.000</ele>
      </trkpt>
      <trkpt lat="36.738146180771103" lon="-5.164894566423125">
        <ele>0.000</ele>
      </trkpt>
      <trkpt lat="36.738223704137432" lon="-5.164913574489885">
        <ele>0.000</ele>
      </trkpt>
      <trkpt lat="36.738303929924299" lon="-5.164960357715">
        <ele>0.000</ele>
      </trkpt>
      <trkpt lat="36.738460631606102" lon="-5.164970679287566">
        <ele>0.000</ele>
      </trkpt>
      <trkpt lat="36.738702001574943" lon="-5.165056008049173">
        <ele>0.000</ele>
      </trkpt>
      <trkpt lat="36.738730046557571" lon="-5.165081029590991">
        <ele>0.000</ele>
      </trkpt>
      <trkpt lat="36.738892396768257" lon="-5.165147599724297">
        <ele>0.000</ele>
      </trkpt>
      <trkpt lat="36.73902602733029" lon="-5.165189287477516">
        <ele>0.000</ele>
      </trkpt>
      <trkpt lat="36.739081470272367" lon="-5.165239641477676">
        <ele>0.000</ele>
      </trkpt>
      <trkpt lat="36.739189437315403" lon="-5.165284397795068">
        <ele>0.000</ele>
      </trkpt>
      <trkpt lat="36.739356144473717" lon="-5.16535173326305">
        <ele>0.000</ele>
      </trkpt>
      <trkpt lat="36.7394442135177" lon="-5.165399583995606">
        <ele>0.000</ele>
      </trkpt>
      <trkpt lat="36.739619970240952" lon="-5.165467457172724">
        <ele>0.000</ele>
      </trkpt>
      <trkpt lat="36.739704152877401" lon="-5.165487375378349">
        <ele>0.000</ele>
      </trkpt>
      <trkpt lat="36.739794312494787" lon="-5.165563963989992">
        <ele>0.000</ele>
      </trkpt>
      <trkpt lat="36.739907195494702" lon="-5.165609628445149">
        <ele>0.000</ele>
      </trkpt>
      <trkpt lat="36.740048967869818" lon="-5.165681080008705">
        <ele>0.000</ele>
      </trkpt>
      <trkpt lat="36.740214376167927" lon="-5.165749981864546">
        <ele>0.000</ele>
      </trkpt>
      <trkpt lat="36.74034841552966" lon="-5.165821685434318">
        <ele>0.000</ele>
      </trkpt>
      <trkpt lat="36.740508257980899" lon="-5.165890840168457">
        <ele>0.000</ele>
      </trkpt>
      <trkpt lat="36.740640052501327" lon="-5.165934323667988">
        <ele>0.000</ele>
      </trkpt>
      <trkpt lat="36.740739364288302" lon="-5.166008791807343">
        <ele>0.000</ele>
      </trkpt>
      <trkpt lat="36.740859964668147" lon="-5.166051957519717">
        <ele>0.000</ele>
      </trkpt>
      <trkpt lat="36.740961361788258" lon="-5.166126615710317">
        <ele>0.000</ele>
      </trkpt>
      <trkpt lat="36.741051284916772" lon="-5.166143786197059">
        <ele>0.000</ele>
      </trkpt>
      <trkpt lat="36.74116435754317" lon="-5.166186637440044">
        <ele>0.000</ele>
      </trkpt>
      <trkpt lat="36.741256466637537" lon="-5.166232384368758">
        <ele>0.000</ele>
      </trkpt>
      <trkpt lat="36.741344771216518" lon="-5.166249463287038">
        <ele>0.000</ele>
      </trkpt>
      <trkpt lat="36.741454867626672" lon="-5.166292125204737">
        <ele>0.000</ele>
      </trkpt>
      <trkpt lat="36.741582615648298" lon="-5.1663032323747">
        <ele>0.000</ele>
      </trkpt>
      <trkpt lat="36.741689155182897" lon="-5.166317233178766">
        <ele>0.000</ele>
      </trkpt>
      <trkpt lat="36.741793477683601" lon="-5.166302706606151">
        <ele>0.000</ele>
      </trkpt>
      <trkpt lat="36.741880266651407" lon="-5.166348065283715">
        <ele>0.000</ele>
      </trkpt>
      <trkpt lat="36.74196630737103" lon="-5.166364976932437">
        <ele>0.000</ele>
      </trkpt>
      <trkpt lat="36.742052656312609" lon="-5.166410268343818">
        <ele>0.000</ele>
      </trkpt>
      <trkpt lat="36.742136560147038" lon="-5.1664270226636">
        <ele>0.000</ele>
      </trkpt>
      <trkpt lat="36.742244788790877" lon="-5.166469413976341">
        <ele>0.000</ele>
      </trkpt>
      <trkpt lat="36.742372762523154" lon="-5.166513117685482">
        <ele>0.000</ele>
      </trkpt>
      <trkpt lat="36.742478506168368" lon="-5.166559696465854">
        <ele>0.000</ele>
      </trkpt>
      <trkpt lat="36.742560155252377" lon="-5.166609030342208">
        <ele>0.000</ele>
      </trkpt>
      <trkpt lat="36.742699223060391" lon="-5.16668214403364">
        <ele>0.000</ele>
      </trkpt>
      <trkpt lat="36.742840621555857" lon="-5.166727156678471">
        <ele>0.000</ele>
      </trkpt>
      <trkpt lat="36.742957392261587" lon="-5.166774925490837">
        <ele>0.000</ele>
      </trkpt>
      <trkpt lat="36.743155441322372" lon="-5.166736890120304">
        <ele>0.000</ele>
      </trkpt>
      <trkpt lat="36.743245088567157" lon="-5.166806768950746">
        <ele>0.000</ele>
      </trkpt>
      <trkpt lat="36.74335658544198" lon="-5.166875560264951">
        <ele>0.000</ele>
      </trkpt>
      <trkpt lat="36.743400800655699" lon="-5.166897941816393">
        <ele>0.000</ele>
      </trkpt>
      <trkpt lat="36.743554233819239" lon="-5.166963103780668">
        <ele>0.000</ele>
      </trkpt>
      <trkpt lat="36.743666912754378" lon="-5.167032648150291">
        <ele>0.000</ele>
      </trkpt>
      <trkpt lat="36.743817767109107" lon="-5.167120043908241">
        <ele>0.000</ele>
      </trkpt>
      <trkpt lat="36.743965520254228" lon="-5.167180834907485">
        <ele>0.000</ele>
      </trkpt>
      <trkpt lat="36.74407077042914" lon="-5.167220555466887">
        <ele>0.000</ele>
      </trkpt>
      <trkpt lat="36.744184135905172" lon="-5.167314806354332">
        <ele>0.000</ele>
      </trkpt>
      <trkpt lat="36.744271230722553" lon="-5.167358377618188">
        <ele>0.000</ele>
      </trkpt>
      <trkpt lat="36.744358406500282" lon="-5.167401989963244">
        <ele>0.000</ele>
      </trkpt>
      <trkpt lat="36.744445664481859" lon="-5.167445643106544">
        <ele>0.000</ele>
      </trkpt>
      <trkpt lat="36.744512247611503" lon="-5.167491396870322">
        <ele>0.000</ele>
      </trkpt>
      <trkpt lat="36.744687538993126" lon="-5.167579185667284">
        <ele>0.000</ele>
      </trkpt>
      <trkpt lat="36.744753048358099" lon="-5.167599689251684">
        <ele>0.000</ele>
      </trkpt>
      <trkpt lat="36.744886144274957" lon="-5.16766658880679">
        <ele>0.000</ele>
      </trkpt>
      <trkpt lat="36.744975014965632" lon="-5.167711258883747">
        <ele>0.000</ele>
      </trkpt>
      <trkpt lat="36.745042678274523" lon="-5.167757725909235">
        <ele>0.000</ele>
      </trkpt>
      <trkpt lat="36.745111223235753" lon="-5.167804802921773">
        <ele>0.000</ele>
      </trkpt>
      <trkpt lat="36.74522491421498" lon="-5.167874692560789">
        <ele>0.000</ele>
      </trkpt>
      <trkpt lat="36.745314860626252" lon="-5.167920045646136">
        <ele>0.000</ele>
      </trkpt>
      <trkpt lat="36.745383489552857" lon="-5.167967169563065">
        <ele>0.000</ele>
      </trkpt>
      <trkpt lat="36.745473545438401" lon="-5.168012562249085">
        <ele>0.000</ele>
      </trkpt>
      <trkpt lat="36.745563361420587" lon="-5.168057771545271">
        <ele>0.000</ele>
      </trkpt>
      <trkpt lat="36.745631844344807" lon="-5.16810477467436">
        <ele>0.000</ele>
      </trkpt>
      <trkpt lat="36.745721866472913" lon="-5.168150096931058">
        <ele>0.000</ele>
      </trkpt>
      <trkpt lat="36.745814094231363" lon="-5.168221625463705">
        <ele>0.000</ele>
      </trkpt>
      <trkpt lat="36.745880978395689" lon="-5.168242797997071">
        <ele>0.000</ele>
      </trkpt>
      <trkpt lat="36.745969739703597" lon="-5.16826245840822">
        <ele>0.000</ele>
      </trkpt>
      <trkpt lat="36.746059813192048" lon="-5.168307724223396">
        <ele>0.000</ele>
      </trkpt>
      <trkpt lat="36.746167660061573" lon="-5.168299065353575">
        <ele>0.000</ele>
      </trkpt>
      <trkpt lat="36.746233957458379" lon="-5.168319701972299">
        <ele>0.000</ele>
      </trkpt>
      <trkpt lat="36.746346082941102" lon="-5.168363424587648">
        <ele>0.000</ele>
      </trkpt>
      <trkpt lat="36.746413430758231" lon="-5.168384725726241">
        <ele>0.000</ele>
      </trkpt>
      <trkpt lat="36.746527850725762" lon="-5.168429850352406">
        <ele>0.000</ele>
      </trkpt>
      <trkpt lat="36.74662291486753" lon="-5.168478181977868">
        <ele>0.000</ele>
      </trkpt>
      <trkpt lat="36.746720589729158" lon="-5.168553179331806">
        <ele>0.000</ele>
      </trkpt>
      <trkpt lat="36.746814353007068" lon="-5.168575626630245">
        <ele>0.000</ele>
      </trkpt>
      <trkpt lat="36.746909736238841" lon="-5.168624085700142">
        <ele>0.000</ele>
      </trkpt>
      <trkpt lat="36.747004163889748" lon="-5.168671896224372">
        <ele>0.000</ele>
      </trkpt>
      <trkpt lat="36.747097436976517" lon="-5.168718946002385">
        <ele>0.000</ele>
      </trkpt>
      <trkpt lat="36.747174200548379" lon="-5.168796281197793">
        <ele>0.000</ele>
      </trkpt>
      <trkpt lat="36.747270832820398" lon="-5.168870647837609">
        <ele>0.000</ele>
      </trkpt>
      <trkpt lat="36.747303880461089" lon="-5.168809991547368">
        <ele>0.000</ele>
      </trkpt>
      <trkpt lat="36.747289101605588" lon="-5.168700011909342">
        <ele>0.000</ele>
      </trkpt>
      <trkpt lat="36.747316012590822" lon="-5.168585387186988">
        <ele>0.000</ele>
      </trkpt>
      <trkpt lat="36.747341709873858" lon="-5.168470174237488">
        <ele>0.000</ele>
      </trkpt>
      <trkpt lat="36.747417823945923" lon="-5.168355457002826">
        <ele>0.000</ele>
      </trkpt>
      <trkpt lat="36.747455270268802" lon="-5.168272440039672">
        <ele>0.000</ele>
      </trkpt>
      <trkpt lat="36.747512462111438" lon="-5.168161004222068">
        <ele>0.000</ele>
      </trkpt>
      <trkpt lat="36.747571039177068" lon="-5.168075536841755">
        <ele>0.000</ele>
      </trkpt>
      <trkpt lat="36.747629538637149" lon="-5.167989933682524">
        <ele>0.000</ele>
      </trkpt>
      <trkpt lat="36.747693408194593" lon="-5.167957878679812">
        <ele>0.000</ele>
      </trkpt>
      <trkpt lat="36.747779663473679" lon="-5.16794953153118">
        <ele>0.000</ele>
      </trkpt>
      <trkpt lat="36.747825589964989" lon="-5.167972244249176">
        <ele>0.000</ele>
      </trkpt>
      <trkpt lat="36.747926618997127" lon="-5.168098790883238">
        <ele>0.000</ele>
      </trkpt>
      <trkpt lat="36.747998783751022" lon="-5.168147329052221">
        <ele>0.000</ele>
      </trkpt>
      <trkpt lat="36.748099050235382" lon="-5.16824818075685">
        <ele>0.000</ele>
      </trkpt>
      <trkpt lat="36.74812634221724" lon="-5.168300073988191">
        <ele>0.000</ele>
      </trkpt>
      <trkpt lat="36.748202402254712" lon="-5.168401750079058">
        <ele>0.000</ele>
      </trkpt>
      <trkpt lat="36.74832366580037" lon="-5.168525874739008">
        <ele>0.000</ele>
      </trkpt>
      <trkpt lat="36.748441425591103" lon="-5.168597148363171">
        <ele>0.000</ele>
      </trkpt>
      <trkpt lat="36.748516478857582" lon="-5.168672948877996">
        <ele>0.000</ele>
      </trkpt>
      <trkpt lat="36.748620727177773" lon="-5.168750909745218">
        <ele>0.000</ele>
      </trkpt>
      <trkpt lat="36.748733551548717" lon="-5.168833642901284">
        <ele>0.000</ele>
      </trkpt>
      <trkpt lat="36.748840553151787" lon="-5.168913206808746">
        <ele>0.000</ele>
      </trkpt>
      <trkpt lat="36.748918374291222" lon="-5.168965180486298">
        <ele>0.000</ele>
      </trkpt>
      <trkpt lat="36.749068509555897" lon="-5.169066088883286">
        <ele>0.000</ele>
      </trkpt>
      <trkpt lat="36.749195603644047" lon="-5.16916848434075">
        <ele>0.000</ele>
      </trkpt>
      <trkpt lat="36.749296233341788" lon="-5.169244693593978">
        <ele>0.000</ele>
      </trkpt>
      <trkpt lat="36.749440801119057" lon="-5.169316861847171">
        <ele>0.000</ele>
      </trkpt>
      <trkpt lat="36.749562366116109" lon="-5.169390490998177">
        <ele>0.000</ele>
      </trkpt>
      <trkpt lat="36.749658520258478" lon="-5.169438458104334">
        <ele>0.000</ele>
      </trkpt>
      <trkpt lat="36.749781353519673" lon="-5.169512810061425">
        <ele>0.000</ele>
      </trkpt>
      <trkpt lat="36.749856002390928" lon="-5.169563132764949">
        <ele>0.000</ele>
      </trkpt>
      <trkpt lat="36.749950928359752" lon="-5.169610400554942">
        <ele>0.000</ele>
      </trkpt>
      <trkpt lat="36.750092898849992" lon="-5.16968105707062">
        <ele>0.000</ele>
      </trkpt>
      <trkpt lat="36.750156515232781" lon="-5.169673390058065">
        <ele>0.000</ele>
      </trkpt>
      <trkpt lat="36.750252131427089" lon="-5.169720987997045">
        <ele>0.000</ele>
      </trkpt>
      <trkpt lat="36.750368677090407" lon="-5.169739914781715">
        <ele>0.000</ele>
      </trkpt>
      <trkpt lat="36.750450663431437" lon="-5.169728038902345">
        <ele>0.000</ele>
      </trkpt>
      <trkpt lat="36.750609646060369" lon="-5.169715707672808">
        <ele>0.000</ele>
      </trkpt>
      <trkpt lat="36.750701966603017" lon="-5.169709361408374">
        <ele>0.000</ele>
      </trkpt>
      <trkpt lat="36.750840524010201" lon="-5.169699753015382">
        <ele>0.000</ele>
      </trkpt>
      <trkpt lat="36.750930353741879" lon="-5.169665816163004">
        <ele>0.000</ele>
      </trkpt>
      <trkpt lat="36.751044884537052" lon="-5.16960479478832">
        <ele>0.000</ele>
      </trkpt>
      <trkpt lat="36.751187768117781" lon="-5.169570680675646">
        <ele>0.000</ele>
      </trkpt>
      <trkpt lat="36.75127948092144" lon="-5.169537243751856">
        <ele>0.000</ele>
      </trkpt>
      <trkpt lat="36.751389888226697" lon="-5.169473504789568">
        <ele>0.000</ele>
      </trkpt>
      <trkpt lat="36.751463309847693" lon="-5.169470222295721">
        <ele>0.000</ele>
      </trkpt>
      <trkpt lat="36.751580074672987" lon="-5.169435589919375">
        <ele>0.000</ele>
      </trkpt>
      <trkpt lat="36.751749504306332" lon="-5.169400202384792">
        <ele>0.000</ele>
      </trkpt>
      <trkpt lat="36.751820886512149" lon="-5.169369223023156">
        <ele>0.000</ele>
      </trkpt>
      <trkpt lat="36.751918076451616" lon="-5.169337529001918">
        <ele>0.000</ele>
      </trkpt>
      <trkpt lat="36.752044654849463" lon="-5.169306639870386">
        <ele>0.000</ele>
      </trkpt>
      <trkpt lat="36.752170038612419" lon="-5.169274926254072">
        <ele>0.000</ele>
      </trkpt>
      <trkpt lat="36.75231261363939" lon="-5.169211692628776">
        <ele>0.000</ele>
      </trkpt>
      <trkpt lat="36.752513071765257" lon="-5.169175872171627">
        <ele>0.000</ele>
      </trkpt>
      <trkpt lat="36.752652021817163" lon="-5.169083546552597">
        <ele>0.000</ele>
      </trkpt>
      <trkpt lat="36.752826667259143" lon="-5.169047681653026">
        <ele>0.000</ele>
      </trkpt>
      <trkpt lat="36.752976559728047" lon="-5.168985930126704">
        <ele>0.000</ele>
      </trkpt>
      <trkpt lat="36.753127681150367" lon="-5.168924246136988">
        <ele>0.000</ele>
      </trkpt>
      <trkpt lat="36.753300365700589" lon="-5.168832289293718">
        <ele>0.000</ele>
      </trkpt>
      <trkpt lat="36.753453931971187" lon="-5.168770592303761">
        <ele>0.000</ele>
      </trkpt>
      <trkpt lat="36.753553086308777" lon="-5.168709885188316">
        <ele>0.000</ele>
      </trkpt>
      <trkpt lat="36.753674673433842" lon="-5.168619213512159">
        <ele>0.000</ele>
      </trkpt>
      <trkpt lat="36.753830899611131" lon="-5.168557297472793">
        <ele>0.000</ele>
      </trkpt>
      <trkpt lat="36.753954427144997" lon="-5.168466533547208">
        <ele>0.000</ele>
      </trkpt>
      <trkpt lat="36.754055916846802" lon="-5.168405530542101">
        <ele>0.000</ele>
      </trkpt>
      <trkpt lat="36.754157652782638" lon="-5.168344381064749">
        <ele>0.000</ele>
      </trkpt>
      <trkpt lat="36.754275998859782" lon="-5.168223451778764">
        <ele>0.000</ele>
      </trkpt>
      <trkpt lat="36.754408118401393" lon="-5.168161682177031">
        <ele>0.000</ele>
      </trkpt>
      <trkpt lat="36.754534995956952" lon="-5.16807028124211">
        <ele>0.000</ele>
      </trkpt>
      <trkpt lat="36.754655607897689" lon="-5.167948888781097">
        <ele>0.000</ele>
      </trkpt>
      <trkpt lat="36.754759951615419" lon="-5.167914854681138">
        <ele>0.000</ele>
      </trkpt>
      <trkpt lat="36.754856323846951" lon="-5.167822773476457">
        <ele>0.000</ele>
      </trkpt>
      <trkpt lat="36.754952869172349" lon="-5.167730513724988">
        <ele>0.000</ele>
      </trkpt>
      <trkpt lat="36.755075884502169" lon="-5.167636423133271">
        <ele>0.000</ele>
      </trkpt>
      <trkpt lat="36.755176650570121" lon="-5.16757273736641">
        <ele>0.000</ele>
      </trkpt>
      <trkpt lat="36.755277699102898" lon="-5.167508941142897">
        <ele>0.000</ele>
      </trkpt>
      <trkpt lat="36.755410707456619" lon="-5.167444672752787">
        <ele>0.000</ele>
      </trkpt>
      <trkpt lat="36.755503617381841" lon="-5.167527164420633">
        <ele>0.000</ele>
      </trkpt>
      <trkpt lat="36.75550976180714" lon="-5.167584869256893">
        <ele>0.000</ele>
      </trkpt>
      <trkpt lat="36.755520511887511" lon="-5.167848972079893">
        <ele>0.000</ele>
      </trkpt>
      <trkpt lat="36.75552496073049" lon="-5.167878246090229">
        <ele>0.000</ele>
      </trkpt>
      <trkpt lat="36.755516734456869" lon="-5.168053145859338">
        <ele>0.000</ele>
      </trkpt>
      <trkpt lat="36.755512035442067" lon="-5.168257079462921">
        <ele>0.000</ele>
      </trkpt>
      <trkpt lat="36.755500280928267" lon="-5.16840292228521">
        <ele>0.000</ele>
      </trkpt>
      <trkpt lat="36.755510864581481" lon="-5.168490091243132">
        <ele>0.000</ele>
      </trkpt>
      <trkpt lat="36.75552851380538" lon="-5.168635448252151">
        <ele>0.000</ele>
      </trkpt>
      <trkpt lat="36.755548404390488" lon="-5.168837480484605">
        <ele>0.000</ele>
      </trkpt>
      <trkpt lat="36.755567876539807" lon="-5.168983651137077">
        <ele>0.000</ele>
      </trkpt>
      <trkpt lat="36.755581074068523" lon="-5.169071936487337">
        <ele>0.000</ele>
      </trkpt>
      <trkpt lat="36.7555930380543" lon="-5.169376925179458">
        <ele>0.000</ele>
      </trkpt>
      <trkpt lat="36.755645644713937" lon="-5.169592025759576">
        <ele>0.000</ele>
      </trkpt>
      <trkpt lat="36.755627558346319" lon="-5.169736108687655">
        <ele>0.000</ele>
      </trkpt>
      <trkpt lat="36.755633154156527" lon="-5.169849883971409">
        <ele>0.000</ele>
      </trkpt>
      <trkpt lat="36.755615778777553" lon="-5.169994034833766">
        <ele>0.000</ele>
      </trkpt>
      <trkpt lat="36.755623875204478" lon="-5.170108703092095">
        <ele>0.000</ele>
      </trkpt>
      <trkpt lat="36.755608763998282" lon="-5.170253618289746">
        <ele>0.000</ele>
      </trkpt>
      <trkpt lat="36.755616858207972" lon="-5.170368224616634">
        <ele>0.000</ele>
      </trkpt>
      <trkpt lat="36.755626076502487" lon="-5.170483296644911">
        <ele>0.000</ele>
      </trkpt>
      <trkpt lat="36.755647241849971" lon="-5.170631350898418">
        <ele>0.000</ele>
      </trkpt>
      <trkpt lat="36.755604732776121" lon="-5.170721210693693">
        <ele>0.000</ele>
      </trkpt>
      <trkpt lat="36.755567184677368" lon="-5.170868690773541">
        <ele>0.000</ele>
      </trkpt>
      <trkpt lat="36.755576158508283" lon="-5.170955924048984">
        <ele>0.000</ele>
      </trkpt>
      <trkpt lat="36.755534218590839" lon="-5.171073570882739">
        <ele>0.000</ele>
      </trkpt>
      <trkpt lat="36.755515240767572" lon="-5.1711886075511">
        <ele>0.000</ele>
      </trkpt>
      <trkpt lat="36.755465371503242" lon="-5.17130222638658">
        <ele>0.000</ele>
      </trkpt>
      <trkpt lat="36.755395362706849" lon="-5.171474572697413">
        <ele>0.000</ele>
      </trkpt>
      <trkpt lat="36.755351265492237" lon="-5.171590524996745">
        <ele>0.000</ele>
      </trkpt>
      <trkpt lat="36.755332307452449" lon="-5.171705012283995">
        <ele>0.000</ele>
      </trkpt>
      <trkpt lat="36.755310272160763" lon="-5.171762880408139">
        <ele>0.000</ele>
      </trkpt>
      <trkpt lat="36.755247776511418" lon="-5.171965562132752">
        <ele>0.000</ele>
      </trkpt>
      <trkpt lat="36.755211728698008" lon="-5.17216740112724">
        <ele>0.000</ele>
      </trkpt>
      <trkpt lat="36.75517231721026" lon="-5.172312491937566">
        <ele>0.000</ele>
      </trkpt>
      <trkpt lat="36.755131048266577" lon="-5.172429096541649">
        <ele>0.000</ele>
      </trkpt>
      <trkpt lat="36.755104317834288" lon="-5.172635699398651">
        <ele>0.000</ele>
      </trkpt>
      <trkpt lat="36.755101297526622" lon="-5.172785894027864">
        <ele>0.000</ele>
      </trkpt>
      <trkpt lat="36.755068704874454" lon="-5.172907410979316">
        <ele>0.000</ele>
      </trkpt>
      <trkpt lat="36.75508179794636" lon="-5.172996898135062">
        <ele>0.000</ele>
      </trkpt>
      <trkpt lat="36.755070907373167" lon="-5.173169887591412">
        <ele>0.000</ele>
      </trkpt>
      <trkpt lat="36.755081405913373" lon="-5.173285123402295">
        <ele>0.000</ele>
      </trkpt>
      <trkpt lat="36.75508665581016" lon="-5.173342747327537">
        <ele>0.000</ele>
      </trkpt>
      <trkpt lat="36.755107152455487" lon="-5.173572955457005">
        <ele>0.000</ele>
      </trkpt>
      <trkpt lat="36.755099270527268" lon="-5.173774906857428">
        <ele>0.000</ele>
      </trkpt>
      <trkpt lat="36.755113815191933" lon="-5.173919917236942">
        <ele>0.000</ele>
      </trkpt>
      <trkpt lat="36.755124234989999" lon="-5.174008046803027">
        <ele>0.000</ele>
      </trkpt>
      <trkpt lat="36.755152038719203" lon="-5.174243229034497">
        <ele>0.000</ele>
      </trkpt>
      <trkpt lat="36.75514543095715" lon="-5.174418995066166">
        <ele>0.000</ele>
      </trkpt>
      <trkpt lat="36.755167682154003" lon="-5.174596527320014">
        <ele>0.000</ele>
      </trkpt>
      <trkpt lat="36.755182752836276" lon="-5.174742274376887">
        <ele>0.000</ele>
      </trkpt>
      <trkpt lat="36.755191987771092" lon="-5.174829854315089">
        <ele>0.000</ele>
      </trkpt>
      <trkpt lat="36.755180735730768" lon="-5.174975533144778">
        <ele>0.000</ele>
      </trkpt>
      <trkpt lat="36.75518164084091" lon="-5.175237914910323">
        <ele>0.000</ele>
      </trkpt>
      <trkpt lat="36.755167350180159" lon="-5.175354385820079">
        <ele>0.000</ele>
      </trkpt>
      <trkpt lat="36.755153116111593" lon="-5.175470866787481">
        <ele>0.000</ele>
      </trkpt>
      <trkpt lat="36.755141927950262" lon="-5.175616529004748">
        <ele>0.000</ele>
      </trkpt>
      <trkpt lat="36.755127691088383" lon="-5.175732971186645">
        <ele>0.000</ele>
      </trkpt>
      <trkpt lat="36.755144624081893" lon="-5.175853398928104">
        <ele>0.000</ele>
      </trkpt>
      <trkpt lat="36.755109318462978" lon="-5.176000416677269">
        <ele>0.000</ele>
      </trkpt>
      <trkpt lat="36.755121802408922" lon="-5.17609067850608">
        <ele>0.000</ele>
      </trkpt>
      <trkpt lat="36.755114332423773" lon="-5.176239291412071">
        <ele>0.000</ele>
      </trkpt>
      <trkpt lat="36.755096970915282" lon="-5.176326445569143">
        <ele>0.000</ele>
      </trkpt>
      <trkpt lat="36.755034939708104" lon="-5.176526172629683">
        <ele>0.000</ele>
      </trkpt>
      <trkpt lat="36.755049571039507" lon="-5.176671875311182">
        <ele>0.000</ele>
      </trkpt>
      <trkpt lat="36.755031978874833" lon="-5.176785455805603">
        <ele>0.000</ele>
      </trkpt>
      <trkpt lat="36.755012026699738" lon="-5.176870291483326">
        <ele>0.000</ele>
      </trkpt>
      <trkpt lat="36.754973810297678" lon="-5.177014501358147">
        <ele>0.000</ele>
      </trkpt>
      <trkpt lat="36.754960388523401" lon="-5.177131341964866">
        <ele>0.000</ele>
      </trkpt>
      <trkpt lat="36.754923864901137" lon="-5.177276858102466">
        <ele>0.000</ele>
      </trkpt>
      <trkpt lat="36.75494267972725" lon="-5.177399531877994">
        <ele>0.000</ele>
      </trkpt>
      <trkpt lat="36.754910484153243" lon="-5.177522147123721">
        <ele>0.000</ele>
      </trkpt>
      <trkpt lat="36.754873040798181" lon="-5.17764018204169">
        <ele>0.000</ele>
      </trkpt>
      <trkpt lat="36.754877104843288" lon="-5.177670346619257">
        <ele>0.000</ele>
      </trkpt>
      <trkpt lat="36.754668347571439" lon="-5.177871954131961">
        <ele>0.000</ele>
      </trkpt>
      <trkpt lat="36.754587836798883" lon="-5.178023028867012">
        <ele>0.000</ele>
      </trkpt>
      <trkpt lat="36.754531423581049" lon="-5.178170606591973">
        <ele>0.000</ele>
      </trkpt>
      <trkpt lat="36.75446891136658" lon="-5.178263024663229">
        <ele>0.000</ele>
      </trkpt>
      <trkpt lat="36.754398376824227" lon="-5.178300725533415">
        <ele>0.000</ele>
      </trkpt>
      <trkpt lat="36.754334761474936" lon="-5.178393203288778">
        <ele>0.000</ele>
      </trkpt>
      <trkpt lat="36.754251037833917" lon="-5.178516156728308">
        <ele>0.000</ele>
      </trkpt>
      <trkpt lat="36.754171781255479" lon="-5.178666193359747">
        <ele>0.000</ele>
      </trkpt>
      <trkpt lat="36.754109139136993" lon="-5.178758168522153">
        <ele>0.000</ele>
      </trkpt>
      <trkpt lat="36.754067414621993" lon="-5.178819432495687">
        <ele>0.000</ele>
      </trkpt>
      <trkpt lat="36.75394361078714" lon="-5.178974922067096">
        <ele>0.000</ele>
      </trkpt>
      <trkpt lat="36.753923554932541" lon="-5.179005381601471">
        <ele>0.000</ele>
      </trkpt>
      <trkpt lat="36.753815571007998" lon="-5.179102911324098">
        <ele>0.000</ele>
      </trkpt>
      <trkpt lat="36.753707761201049" lon="-5.179200282908694">
        <ele>0.000</ele>
      </trkpt>
      <trkpt lat="36.753596285541988" lon="-5.179270184606514">
        <ele>0.000</ele>
      </trkpt>
      <trkpt lat="36.753485027436831" lon="-5.179339949183419">
        <ele>0.000</ele>
      </trkpt>
      <trkpt lat="36.753397700077201" lon="-5.179406574354079">
        <ele>0.000</ele>
      </trkpt>
      <trkpt lat="36.753325762358429" lon="-5.179415666837456">
        <ele>0.000</ele>
      </trkpt>
      <trkpt lat="36.753229750260978" lon="-5.179427806990448">
        <ele>0.000</ele>
      </trkpt>
      <trkpt lat="36.753091275571713" lon="-5.179472985672184">
        <ele>0.000</ele>
      </trkpt>
      <trkpt lat="36.752952095018188" lon="-5.17951816017834">
        <ele>0.000</ele>
      </trkpt>
      <trkpt lat="36.752834109440272" lon="-5.179533032451803">
        <ele>0.000</ele>
      </trkpt>
      <trkpt lat="36.752741641043258" lon="-5.179544720364221">
        <ele>0.000</ele>
      </trkpt>
      <trkpt lat="36.75264933770098" lon="-5.179556385614377">
        <ele>0.000</ele>
      </trkpt>
      <trkpt lat="36.752557199598527" lon="-5.179568030904608">
        <ele>0.000</ele>
      </trkpt>
      <trkpt lat="36.752442258452383" lon="-5.179582557280761">
        <ele>0.000</ele>
      </trkpt>
      <trkpt lat="36.752327774261957" lon="-5.179597031226992">
        <ele>0.000</ele>
      </trkpt>
      <trkpt lat="36.752213768484062" lon="-5.179611451513927">
        <ele>0.000</ele>
      </trkpt>
      <trkpt lat="36.752030512902373" lon="-5.179634600496987">
        <ele>0.000</ele>
      </trkpt>
      <trkpt lat="36.751984880445917" lon="-5.179640359952639">
        <ele>0.000</ele>
      </trkpt>
      <trkpt lat="36.751803570632227" lon="-5.179663288034632">
        <ele>0.000</ele>
      </trkpt>
      <trkpt lat="36.751692769397387" lon="-5.179677364153063">
        <ele>0.000</ele>
      </trkpt>
      <trkpt lat="36.751605641488048" lon="-5.179688472191772">
        <ele>0.000</ele>
      </trkpt>
      <trkpt lat="36.751540418375008" lon="-5.179696781801373">
        <ele>0.000</ele>
      </trkpt>
      <trkpt lat="36.751389944813972" lon="-5.179716017957071">
        <ele>0.000</ele>
      </trkpt>
      <trkpt lat="36.751289524500223" lon="-5.179783382126733">
        <ele>0.000</ele>
      </trkpt>
      <trkpt lat="36.751208199800928" lon="-5.179821086587507">
        <ele>0.000</ele>
      </trkpt>
      <trkpt lat="36.751129794030533" lon="-5.179885646710884">
        <ele>0.000</ele>
      </trkpt>
      <trkpt lat="36.75106944435236" lon="-5.179920629042456">
        <ele>0.000</ele>
      </trkpt>
      <trkpt lat="36.751015260499713" lon="-5.180009367743633">
        <ele>0.000</ele>
      </trkpt>
      <trkpt lat="36.750941340816851" lon="-5.180127809875596">
        <ele>0.000</ele>
      </trkpt>
      <trkpt lat="36.750887678061488" lon="-5.180243606099655">
        <ele>0.000</ele>
      </trkpt>
      <trkpt lat="36.750834016782079" lon="-5.180359392349523">
        <ele>0.000</ele>
      </trkpt>
      <trkpt lat="36.750779166632888" lon="-5.180475147491574">
        <ele>0.000</ele>
      </trkpt>
      <trkpt lat="36.750741722572677" lon="-5.180561268633262">
        <ele>0.000</ele>
      </trkpt>
      <trkpt lat="36.750709301501622" lon="-5.180701171211984"/>
      <trkpt lat="36.750658041744479" lon="-5.180870552045313"/>
      <trkpt lat="36.750671700275241" lon="-5.18100527573255"/>
      <trkpt lat="36.750667963666331" lon="-5.181196478769563"/>
      <trkpt lat="36.750693483048892" lon="-5.181466115040234"/>
      <trkpt lat="36.750706414464929" lon="-5.181574434892882"/>
      <trkpt lat="36.750767395353108" lon="-5.181731787085058"/>
      <trkpt lat="36.750849883432537" lon="-5.181913392080919"/>
      <trkpt lat="36.750928404728192" lon="-5.182014742843222"/>
      <trkpt lat="36.751027118592503" lon="-5.182086866294563"/>
      <trkpt lat="36.751119531919038" lon="-5.182104578738734"/>
      <trkpt lat="36.751235047672651" lon="-5.182120055795981"/>
      <trkpt lat="36.751373832626989" lon="-5.18213330630438"/>
      <trkpt lat="36.751513008883023" lon="-5.182146594224615"/>
      <trkpt lat="36.751626247664618" lon="-5.182134792366254"/>
      <trkpt lat="36.751763516769593" lon="-5.182093996999249"/>
      <trkpt lat="36.751811784990927" lon="-5.182089773365417"/>
      <trkpt lat="36.751897693396423" lon="-5.182025551004568"/>
      <trkpt lat="36.752023904776323" lon="-5.18190161673566"/>
      <trkpt lat="36.75212797839842" lon="-5.181779938021486"/>
      <trkpt lat="36.752255756319343" lon="-5.181655642685952"/>
      <trkpt lat="36.752343323690098" lon="-5.181590963941831"/>
      <trkpt lat="36.752431091101933" lon="-5.181526216241999"/>
      <trkpt lat="36.752565534994183" lon="-5.181429064171311"/>
      <trkpt lat="36.752738824201437" lon="-5.181298514483971"/>
      <trkpt lat="36.752869631851347" lon="-5.181200399149444"/>
      <trkpt lat="36.752960597716381" lon="-5.181162512736696"/>
      <trkpt lat="36.753071574385302" lon="-5.181094292990714"/>
      <trkpt lat="36.753237293499581" lon="-5.181076116873943"/>
      <trkpt lat="36.753376197357547" lon="-5.181032743682275"/>
      <trkpt lat="36.753542019273752" lon="-5.181014357269112"/>
      <trkpt lat="36.75363678592727" lon="-5.181003810049205"/>
      <trkpt lat="36.753731725312988" lon="-5.180993243805955"/>
      <trkpt lat="36.753945969736307" lon="-5.180969400317331"/>
      <trkpt lat="36.754211084841593" lon="-5.180940209948969"/>
      <trkpt lat="36.754283808993662" lon="-5.18093222690804"/>
      <trkpt lat="36.754479702023033" lon="-5.180910939562904"/>
      <trkpt lat="36.754678389815027" lon="-5.180889629302728"/>
      <trkpt lat="36.754877972875903" lon="-5.180868216281072"/>
      <trkpt lat="36.755001781343047" lon="-5.180854739316398"/>
      <trkpt lat="36.755125921991983" lon="-5.1808412254513"/>
      <trkpt lat="36.755250724289397" lon="-5.180827698655497"/>
      <trkpt lat="36.75557819128268" lon="-5.180792348757738"/>
      <trkpt lat="36.755728412180083" lon="-5.180775908314391"/>
      <trkpt lat="36.75585395301011" lon="-5.180762168782919"/>
      <trkpt lat="36.756030261101401" lon="-5.180742873408811"/>
      <trkpt lat="36.756080753071473" lon="-5.180737347194774"/>
      <trkpt lat="36.756249586176978" lon="-5.180660865934049"/>
      <trkpt lat="36.756397702218898" lon="-5.180615529366559"/>
      <trkpt lat="36.756491088057899" lon="-5.180547110537007"/>
      <trkpt lat="36.756614345725907" lon="-5.180504350554172"/>
      <trkpt lat="36.756947062465947" lon="-5.180292322541105"/>
      <trkpt lat="36.757098337444347" lon="-5.180217354992736"/>
      <trkpt lat="36.757191646176203" lon="-5.180148221859568"/>
      <trkpt lat="36.757261181721269" lon="-5.180081889899604"/>
      <trkpt lat="36.757446162004982" lon="-5.179943240505808"/>
      <trkpt lat="36.757678335603472" lon="-5.179740469900881"/>
      <trkpt lat="36.757794241295827" lon="-5.179638842274326"/>
      <trkpt lat="36.757909987112711" lon="-5.179537074389278"/>
      <trkpt lat="36.758027809844577" lon="-5.179434997933999"/>
      <trkpt lat="36.75815547371365" lon="-5.179390305670809"/>
      <trkpt lat="36.758331625345079" lon="-5.179281050605455"/>
      <trkpt lat="36.758432072636559" lon="-5.179210124718571"/>
      <trkpt lat="36.758525192740663" lon="-5.179139728128764"/>
      <trkpt lat="36.75868590402937" lon="-5.179001912918589"/>
      <trkpt lat="36.758915580316227" lon="-5.17882613098544"/>
      <trkpt lat="36.759029019054807" lon="-5.178693718883027"/>
      <trkpt lat="36.759115378621843" lon="-5.178594106032919"/>
      <trkpt lat="36.759270358754037" lon="-5.178426567941539"/>
      <trkpt lat="36.759438184206822" lon="-5.178257066057"/>
      <trkpt lat="36.759510950509913" lon="-5.178188409204957"/>
      <trkpt lat="36.759689453888093" lon="-5.178076101779688"/>
      <trkpt lat="36.759763620337232" lon="-5.178007011107094"/>
      <trkpt lat="36.759944309505983" lon="-5.177893912294199"/>
      <trkpt lat="36.759995916962467" lon="-5.177857288626091"/>
      <trkpt lat="36.760150563822307" lon="-5.177747263546843"/>
      <trkpt lat="36.760279044570012" lon="-5.177670394626395"/>
      <trkpt lat="36.760429467755863" lon="-5.177560690250242"/>
      <trkpt lat="36.760612653011748" lon="-5.177476032877929"/>
      <trkpt lat="36.760718144521583" lon="-5.177431746906479"/>
      <trkpt lat="36.760855931046542" lon="-5.177352672391534"/>
      <trkpt lat="36.760974561574997" lon="-5.177305860805355"/>
      <trkpt lat="36.761115194890444" lon="-5.177256171222368"/>
      <trkpt lat="36.761256283610948" lon="-5.177206320886048"/>
      <trkpt lat="36.761393487687478" lon="-5.177157131170408"/>
      <trkpt lat="36.761530346051863" lon="-5.177107905731523"/>
      <trkpt lat="36.761634949505989" lon="-5.177032957130577"/>
      <trkpt lat="36.761662981547488" lon="-5.177029041024008"/>
      <trkpt lat="36.761853918355378" lon="-5.176972210775671"/>
      <trkpt lat="36.761961695027487" lon="-5.176926897326029"/>
      <trkpt lat="36.762041849188797" lon="-5.176885384229378"/>
      <trkpt lat="36.762176507147693" lon="-5.176836269166541"/>
      <trkpt lat="36.762309573765478" lon="-5.176787414113698"/>
      <trkpt lat="36.762426184543621" lon="-5.176740174786548"/>
      <trkpt lat="36.762528983236606" lon="-5.176603636305707"/>
      <trkpt lat="36.76263876404122" lon="-5.176526834353179"/>
      <trkpt lat="36.762714838863168" lon="-5.176424352344919"/>
      <trkpt lat="36.762846483748383" lon="-5.176313809657276"/>
      <trkpt lat="36.762955262183262" lon="-5.176236816240784"/>
      <trkpt lat="36.763067976485999" lon="-5.176158850763439"/>
      <trkpt lat="36.763182532267763" lon="-5.176080334862868"/>
      <trkpt lat="36.763240009301711" lon="-5.176040978174839"/>
      <trkpt lat="36.764006281485408" lon="-5.175279405313006"/>
      <trkpt lat="36.764255906653183" lon="-5.175171514653879"/>
      <trkpt lat="36.764348030141207" lon="-5.174896420873454"/>
      <trkpt lat="36.764534344019509" lon="-5.174600489217534"/>
      <trkpt lat="36.764706060073109" lon="-5.174242248457887"/>
      <trkpt lat="36.764746653645432" lon="-5.173973284320804"/>
      <trkpt lat="36.764857289222" lon="-5.173690745172417"/>
      <trkpt lat="36.765036713671208" lon="-5.173394685255964"/>
      <trkpt lat="36.765077002923213" lon="-5.173058374361831"/>
      <trkpt lat="36.76517964958488" lon="-5.172710657897199"/>
      <trkpt lat="36.765287936275023" lon="-5.172427233288817"/>
      <trkpt lat="36.765389445953033" lon="-5.172079081166815"/>
      <trkpt lat="36.76564383010367" lon="-5.171898217073233"/>
      <trkpt lat="36.76582774514246" lon="-5.171731456259435"/>
      <trkpt lat="36.766088384339653" lon="-5.171682147580695"/>
      <trkpt lat="36.766477978334009" lon="-5.171608954116895"/>
      <trkpt lat="36.766801759970299" lon="-5.17154847117518"/>
      <trkpt lat="36.767218639993942" lon="-5.171477574443725"/>
      <trkpt lat="36.76745157025514" lon="-5.171427435563207"/>
      <trkpt lat="36.767747682019063" lon="-5.171501609193755"/>
      <trkpt lat="36.767969917038243" lon="-5.171591565275209"/>
      <trkpt lat="36.768110788287807" lon="-5.171767478010787"/>
      <trkpt lat="36.768192951071377" lon="-5.172021051877741"/>
      <trkpt lat="36.768408985837958" lon="-5.172443449455057"/>
      <trkpt lat="36.768440999056629" lon="-5.172772177920725"/>
      <trkpt lat="36.768473469972477" lon="-5.1731008273204"/>
      <trkpt lat="36.768438141588042" lon="-5.173373866884138"/>
      <trkpt lat="36.768326400725577" lon="-5.173593797328524"/>
      <trkpt lat="36.768214801902253" lon="-5.173813450283999"/>
      <trkpt lat="36.76797139916993" lon="-5.174190595099287"/>
      <trkpt lat="36.767788831155478" lon="-5.174489662585552"/>
      <trkpt lat="36.767648392004141" lon="-5.174910584226974"/>
      <trkpt lat="36.767491138165937" lon="-5.175201327451219"/>
      <trkpt lat="36.767277934387607" lon="-5.175567054188694"/>
      <trkpt lat="36.767177152895343" lon="-5.175781662740824"/>
      <trkpt lat="36.766965368647092" lon="-5.176146110875025"/>
      <trkpt lat="36.76675445689699" lon="-5.176509756833021"/>
      <trkpt lat="36.766533616158661" lon="-5.176875291099067"/>
      <trkpt lat="36.766360664043717" lon="-5.177100749049226"/>
      <trkpt lat="36.766262274025053" lon="-5.177380028586882"/>
      <trkpt lat="36.766032418352822" lon="-5.177679468407951"/>
      <trkpt lat="36.765949116271713" lon="-5.178021064926053"/>
      <trkpt lat="36.765783624014702" lon="-5.178309707496059"/>
      <trkpt lat="36.765688809158007" lon="-5.178586915103227"/>
      <trkpt lat="36.765514136704553" lon="-5.17881044962495"/>
      <trkpt lat="36.765372361748149" lon="-5.17922525121042"/>
      <trkpt lat="36.765206272886999" lon="-5.179512217941838"/>
      <trkpt lat="36.765042849860457" lon="-5.179798182199361"/>
      <trkpt lat="36.76493764454888" lon="-5.180009842285969"/>
      <trkpt lat="36.7647745981226" lon="-5.180294963581822"/>
      <trkpt lat="36.76463483838485" lon="-5.180707016251667"/>
      <trkpt lat="36.764529620201429" lon="-5.180917808161484"/>
      <trkpt lat="36.764436056761582" lon="-5.181257608028078"/>
      <trkpt lat="36.76439285579275" lon="-5.18145957549356"/>
      <trkpt lat="36.764295593524388" lon="-5.1817339403545"/>
      <trkpt lat="36.764224281649582" lon="-5.182200548351531"/>
      <trkpt lat="36.764200112632587" lon="-5.182530245677621"/>
      <trkpt lat="36.764184898192667" lon="-5.182924102820011"/>
      <trkpt lat="36.764169795197922" lon="-5.183317968884545"/>
      <trkpt lat="36.764131926996328" lon="-5.183518669553179"/>
      <trkpt lat="36.76411104866861" lon="-5.183847942139625"/>
      <trkpt lat="36.764107043780527" lon="-5.18430595499221"/>
      <trkpt lat="36.764094593900147" lon="-5.184699713682004"/>
      <trkpt lat="36.764066277376187" lon="-5.185029606440715"/>
      <trkpt lat="36.764037056465483" lon="-5.185359449602488"/>
      <trkpt lat="36.764072154943157" lon="-5.185682110826138"/>
      <trkpt lat="36.764108721152247" lon="-5.186004839027111"/>
      <trkpt lat="36.764159940894537" lon="-5.18645691688527"/>
      <trkpt lat="36.764196544720249" lon="-5.186780016485104"/>
      <trkpt lat="36.764166385236031" lon="-5.18710983540375"/>
      <trkpt lat="36.764131490580297" lon="-5.187439565948808"/>
      <trkpt lat="36.764155179592692" lon="-5.18776281547996"/>
      <trkpt lat="36.764183601404532" lon="-5.188150653802608"/>
      <trkpt lat="36.764197132453013" lon="-5.188344539429451"/>
      <trkpt lat="36.764216534530433" lon="-5.188667564746986"/>
      <trkpt lat="36.764177294302193" lon="-5.188996449717753"/>
      <trkpt lat="36.764196553087977" lon="-5.189319155180945"/>
      <trkpt lat="36.764215938705483" lon="-5.189706096753408"/>
      <trkpt lat="36.764229555624667" lon="-5.190028214940162"/>
      <trkpt lat="36.764254500331958" lon="-5.190350839005905"/>
      <trkpt lat="36.764274454519921" lon="-5.190608919439659"/>
      <trkpt lat="36.764294406406158" lon="-5.190866982253787"/>
      <trkpt lat="36.764356148557567" lon="-5.191320820789969"/>
      <trkpt lat="36.764393648958958" lon="-5.191708792181292"/>
      <trkpt lat="36.764422264891017" lon="-5.19209595105723"/>
      <trkpt lat="36.764450875461449" lon="-5.192483047636381"/>
      <trkpt lat="36.764484246778643" lon="-5.192934579672293"/>
      <trkpt lat="36.764508078560027" lon="-5.193257050258666"/>
      <trkpt lat="36.764531905888141" lon="-5.193579476918967"/>
      <trkpt lat="36.764555786960763" lon="-5.19390186848501"/>
      <trkpt lat="36.764565380204942" lon="-5.194030819701645"/>
      <trkpt lat="36.7646003839047" lon="-5.194482320614252"/>
      <trkpt lat="36.764574088643528" lon="-5.194874236271719"/>
      <trkpt lat="36.764592883750367" lon="-5.195131931974616"/>
      <trkpt lat="36.764574567581242" lon="-5.195652108528717"/>
      <trkpt lat="36.764547058871123" lon="-5.196043277061162"/>
      <trkpt lat="36.764574655577192" lon="-5.196429346834962"/>
      <trkpt lat="36.764545326910223" lon="-5.196756445440514"/>
      <trkpt lat="36.764523296916003" lon="-5.197148330075397"/>
      <trkpt lat="36.764571583155877" lon="-5.197665416924725"/>
      <trkpt lat="36.764536193794349" lon="-5.197990761858019"/>
      <trkpt lat="36.764500190186297" lon="-5.198315737075285"/>
      <trkpt lat="36.764458417951047" lon="-5.198575957126092"/>
      <trkpt lat="36.764362408529443" lon="-5.198903657656045"/>
      <trkpt lat="36.764324906415247" lon="-5.199227463389291"/>
      <trkpt lat="36.764287429554713" lon="-5.199551023291312"/>
      <trkpt lat="36.764137096546548" lon="-5.200007524330922"/>
      <trkpt lat="36.764036774278424" lon="-5.200332129558709"/>
      <trkpt lat="36.763988344094201" lon="-5.200526047823465"/>
      <trkpt lat="36.763884882625227" lon="-5.200786383240898"/>
      <trkpt lat="36.763728175335537" lon="-5.201237987313027"/>
      <trkpt lat="36.763567177298007" lon="-5.201562519867337"/>
      <trkpt lat="36.763478192158637" lon="-5.201950459049066"/>
      <trkpt lat="36.763380416506841" lon="-5.202210670980417"/>
      <trkpt lat="36.763231355964507" lon="-5.202537549910881"/>
      <trkpt lat="36.763147797879263" lon="-5.202802261883573"/>
      <trkpt lat="36.763123417674237" lon="-5.203064864776723"/>
      <trkpt lat="36.763000979090499" lon="-5.203339120624175"/>
      <trkpt lat="36.762923117207379" lon="-5.203544038168369"/>
      <trkpt lat="36.762829525703999" lon="-5.20374274382133"/>
      <trkpt lat="36.762652974685942" lon="-5.203995029231983"/>
      <trkpt lat="36.762545450674551" lon="-5.204248979238596"/>
      <trkpt lat="36.762381881525243" lon="-5.204505182278629"/>
      <trkpt lat="36.762331721416793" lon="-5.204694609045552"/>
      <trkpt lat="36.762226383104988" lon="-5.204948135692438"/>
      <trkpt lat="36.76211694724806" lon="-5.2051381849608"/>
      <trkpt lat="36.762065243399441" lon="-5.205448454572593"/>
      <trkpt lat="36.762014739880136" lon="-5.205819794521234"/>
      <trkpt lat="36.761959818720463" lon="-5.205944609973897"/>
      <trkpt lat="36.761928102825983" lon="-5.206323820152825"/>
      <trkpt lat="36.761970730299723" lon="-5.206770276879274"/>
      <trkpt lat="36.761994047948903" lon="-5.207085755517896"/>
      <trkpt lat="36.762002858116297" lon="-5.207393974558046"/>
      <trkpt lat="36.762035618909678" lon="-5.207714044136578"/>
      <trkpt lat="36.762060695875263" lon="-5.207969588733481"/>
      <trkpt lat="36.762095045721708" lon="-5.208290653811295"/>
      <trkpt lat="36.762121100605093" lon="-5.20854684444777"/>
      <trkpt lat="36.762153166343488" lon="-5.208866901162761"/>
      <trkpt lat="36.762185240429702" lon="-5.209187054495226"/>
      <trkpt lat="36.762217322930937" lon="-5.209507302890928"/>
      <trkpt lat="36.762250783842319" lon="-5.20988890377536"/>
      <trkpt lat="36.762273567855203" lon="-5.210264488793536"/>
      <trkpt lat="36.762292545361142" lon="-5.21057735322151"/>
      <trkpt lat="36.762346768213582" lon="-5.210816474928156"/>
      <trkpt lat="36.762414454507542" lon="-5.211063288371928"/>
      <trkpt lat="36.762513889000992" lon="-5.211389147978867"/>
      <trkpt lat="36.762567430937793" lon="-5.211446772017338"/>
      <trkpt lat="36.762672998080802" lon="-5.211836978512663"/>
      <trkpt lat="36.762888092250449" lon="-5.212103117423402"/>
      <trkpt lat="36.762978522308558" lon="-5.212364282022479"/>
      <trkpt lat="36.763122372996357" lon="-5.212622930610816"/>
      <trkpt lat="36.763305032592143" lon="-5.212870041907541"/>
      <trkpt lat="36.763438064952219" lon="-5.213182799986856"/>
      <trkpt lat="36.763632230607477" lon="-5.213497778470772"/>
      <trkpt lat="36.763745220882477" lon="-5.213677402557146"/>
      <trkpt lat="36.763909493694051" lon="-5.213913391745367"/>
      <trkpt lat="36.764039668070069" lon="-5.214442639747031"/>
      <trkpt lat="36.764082970733881" lon="-5.214712111626731"/>
      <trkpt lat="36.764111821380943" lon="-5.215032721603158"/>
      <trkpt lat="36.764136059077742" lon="-5.215410592990729"/>
      <trkpt lat="36.764156249291943" lon="-5.215725383513078"/>
      <trkpt lat="36.764172396764138" lon="-5.215977147842312"/>
      <trkpt lat="36.764136311909887" lon="-5.216232092375936"/>
      <trkpt lat="36.764145199446382" lon="-5.21659886597313"/>
      <trkpt lat="36.764108488123469" lon="-5.216913028575313"/>
      <trkpt lat="36.764133816090492" lon="-5.217290794516182"/>
      <trkpt lat="36.764155798146682" lon="-5.217546207284337"/>
      <trkpt lat="36.764169120670523" lon="-5.217915134610975"/>
      <trkpt lat="36.764166296342623" lon="-5.218032751056908"/>
      <trkpt lat="36.764162537995567" lon="-5.218269136584091"/>
      <trkpt lat="36.764168525548072" lon="-5.218572137522001"/>
      <trkpt lat="36.76419517786325" lon="-5.21908664206496"/>
      <trkpt lat="36.764164522971058" lon="-5.219538905170187"/>
      <trkpt lat="36.764169773194183" lon="-5.219898855702407"/>
      <trkpt lat="36.764311811640972" lon="-5.22021930321759"/>
      <trkpt lat="36.76438758595387" lon="-5.220693592187768"/>
      <trkpt lat="36.764502093403692" lon="-5.221096094190716"/>
      <trkpt lat="36.764616275999579" lon="-5.221276563417918"/>
      <trkpt lat="36.764730524882452" lon="-5.221634937283132"/>
      <trkpt lat="36.764794367996409" lon="-5.22193790033212"/>
      <trkpt lat="36.764903667874833" lon="-5.222232764180688"/>
      <trkpt lat="36.765014516136418" lon="-5.222410607306363"/>
      <trkpt lat="36.765097260036377" lon="-5.222669689141979"/>
      <trkpt lat="36.765210235329619" lon="-5.222908372922809"/>
      <trkpt lat="36.765326854092393" lon="-5.223195752398025"/>
      <trkpt lat="36.765419005102601" lon="-5.223463166976357"/>
      <trkpt lat="36.765605447346452" lon="-5.223717374098099"/>
      <trkpt lat="36.765681091247671" lon="-5.224030375895349"/>
      <trkpt lat="36.765773013759429" lon="-5.22435728843372"/>
      <trkpt lat="36.765860417989707" lon="-5.224680501721174"/>
      <trkpt lat="36.765933363691843" lon="-5.224991445497601"/>
      <trkpt lat="36.765974548068478" lon="-5.225156817142369"/>
      <trkpt lat="36.766135478509312" lon="-5.22549635553589"/>
      <trkpt lat="36.766207319900943" lon="-5.225747354417969"/>
      <trkpt lat="36.766284676073127" lon="-5.226121291586479"/>
      <trkpt lat="36.766465923725363" lon="-5.226431156425516"/>
      <trkpt lat="36.766553677812382" lon="-5.22658884770571"/>
      <trkpt lat="36.766790095406243" lon="-5.226888481082979"/>
      <trkpt lat="36.766848717345049" lon="-5.227009933961853"/>
      <trkpt lat="36.767208137111652" lon="-5.227332043823867"/>
      <trkpt lat="36.767512745451228" lon="-5.22753592496127"/>
      <trkpt lat="36.767780703278859" lon="-5.227648011183943"/>
      <trkpt lat="36.768109244924773" lon="-5.22770553244197"/>
      <trkpt lat="36.768327402774602" lon="-5.227703343554488"/>
      <trkpt lat="36.768590503491779" lon="-5.227691978597143"/>
      <trkpt lat="36.768788966755622" lon="-5.227672341780401"/>
      <trkpt lat="36.76906296400805" lon="-5.227669972396161"/>
      <trkpt lat="36.769382398174741" lon="-5.227706067026546"/>
      <trkpt lat="36.769725988413363" lon="-5.227702066191593"/>
      <trkpt lat="36.770059423514773" lon="-5.227688166762175"/>
      <trkpt lat="36.770328146350607" lon="-5.227665819125034"/>
      <trkpt lat="36.770597775548246" lon="-5.227643394358231"/>
      <trkpt lat="36.770963613957733" lon="-5.227592615349903"/>
      <trkpt lat="36.771274990206891" lon="-5.227556019143258"/>
      <trkpt lat="36.771470847282487" lon="-5.227516738885352"/>
      <trkpt lat="36.771774936108088" lon="-5.227472766182143"/>
      <trkpt lat="36.772015636526483" lon="-5.227361954226621"/>
      <trkpt lat="36.77230181106534" lon="-5.227363208268871"/>
      <trkpt lat="36.772540613351687" lon="-5.2270307876246"/>
      <trkpt lat="36.772694320866243" lon="-5.227187548796394"/>
      <trkpt lat="36.77290204803294" lon="-5.227395119972272"/>
      <trkpt lat="36.773014657281209" lon="-5.227494013704225"/>
      <trkpt lat="36.773306113507473" lon="-5.227674838420056"/>
      <trkpt lat="36.773469370305207" lon="-5.227827382952731"/>
      <trkpt lat="36.773631730773992" lon="-5.227980747696096"/>
      <trkpt lat="36.773800130481114" lon="-5.228131190318626"/>
      <trkpt lat="36.773963659134282" lon="-5.228284499904932"/>
      <trkpt lat="36.774172276466352" lon="-5.228432228728826"/>
      <trkpt lat="36.774294607451807" lon="-5.228651914703757"/>
      <trkpt lat="36.774488045808774" lon="-5.228915456127581"/>
      <trkpt lat="36.774626421770733" lon="-5.229190536922733"/>
      <trkpt lat="36.774735561558927" lon="-5.229417374972067"/>
      <trkpt lat="36.774910057224659" lon="-5.229691402884528"/>
      <trkpt lat="36.775027463686108" lon="-5.229976783516515"/>
      <trkpt lat="36.775138062431019" lon="-5.230141650719914"/>
      <trkpt lat="36.775253542906427" lon="-5.230428022248175"/>
      <trkpt lat="36.775380396988638" lon="-5.230648112335579"/>
      <trkpt lat="36.775507002694717" lon="-5.230807049160311"/>
      <trkpt lat="36.77563652526883" lon="-5.231026890574624"/>
      <trkpt lat="36.77585145704505" lon="-5.231298945659983"/>
      <trkpt lat="36.77599432533242" lon="-5.231648231445348"/>
      <trkpt lat="36.776173980156713" lon="-5.2318613677041"/>
      <trkpt lat="36.776292345320343" lon="-5.23208623259225"/>
      <trkpt lat="36.77651837786496" lon="-5.232355370359873"/>
      <trkpt lat="36.776631059015088" lon="-5.232582490933321"/>
      <trkpt lat="36.776801320139917" lon="-5.232922904601585"/>
      <trkpt lat="36.776915431106019" lon="-5.233088357777184"/>
      <trkpt lat="36.777147680109508" lon="-5.233357146789123"/>
      <trkpt lat="36.777324100359422" lon="-5.2335738676371"/>
      <trkpt lat="36.77749599165292" lon="-5.233853533890396"/>
      <trkpt lat="36.77766097829705" lon="-5.234012551103473"/>
      <trkpt lat="36.777776290364379" lon="-5.234178718922808"/>
      <trkpt lat="36.778036728320807" lon="-5.234320131522847"/>
      <trkpt lat="36.778211383880183" lon="-5.2346005887125"/>
      <trkpt lat="36.778505536417633" lon="-5.234801898482413"/>
      <trkpt lat="36.778816539872167" lon="-5.235061931743506"/>
      <trkpt lat="36.779042353633983" lon="-5.235337218269041"/>
      <trkpt lat="36.779331745084122" lon="-5.23554186005367"/>
      <trkpt lat="36.779706847764672" lon="-5.235795664773091"/>
      <trkpt lat="36.779945589920409" lon="-5.236008841960174"/>
      <trkpt lat="36.780295917816019" lon="-5.236207507246555"/>
      <trkpt lat="36.780591992186693" lon="-5.236414277722167"/>
      <trkpt lat="36.780831371034829" lon="-5.236567467620633"/>
      <trkpt lat="36.781111708048279" lon="-5.236777853709903"/>
      <trkpt lat="36.781232033556847" lon="-5.236947600998828"/>
      <trkpt lat="36.781480017411859" lon="-5.237162799394611"/>
      <trkpt lat="36.781658439459129" lon="-5.237325587688526"/>
      <trkpt lat="36.781887553428987" lon="-5.237544127045657"/>
      <trkpt lat="36.782038369319373" lon="-5.237773277026188"/>
      <trkpt lat="36.782236929357587" lon="-5.238058887542445"/>
      <trkpt lat="36.782428525843422" lon="-5.238345773089094"/>
      <trkpt lat="36.782612764158458" lon="-5.238571793018046"/>
      <trkpt lat="36.782742460064867" lon="-5.238804773844797"/>
      <trkpt lat="36.782872279991629" lon="-5.239037979507408"/>
      <trkpt lat="36.783062199189963" lon="-5.239326554730836"/>
      <trkpt lat="36.783192331614572" lon="-5.239560300652034"/>
      <trkpt lat="36.78326754339637" lon="-5.239800667891267"/>
      <trkpt lat="36.783326060303807" lon="-5.240103805037752"/>
      <trkpt lat="36.78332806835239" lon="-5.24028934039459"/>
      <trkpt lat="36.783378324989407" lon="-5.240596924686266"/>
      <trkpt lat="36.78338578186689" lon="-5.240720393879995"/>
      <trkpt lat="36.78340814418894" lon="-5.241090689994317"/>
      <trkpt lat="36.783430491813263" lon="-5.241460815597703"/>
      <trkpt lat="36.78344277994703" lon="-5.241707462519849"/>
      <trkpt lat="36.783447899530387" lon="-5.242015516441211"/>
      <trkpt lat="36.783469433756643" lon="-5.242262019937946"/>
      <trkpt lat="36.783481798469218" lon="-5.242385310927153"/>
      <trkpt lat="36.783512715576478" lon="-5.242693607271777"/>
      <trkpt lat="36.783611203240739" lon="-5.243058359286518"/>
      <trkpt lat="36.783685293634711" lon="-5.243360889623821"/>
      <trkpt lat="36.783696144865097" lon="-5.243545684656636"/>
      <trkpt lat="36.783721455162301" lon="-5.243976698317418"/>
      <trkpt lat="36.783739525312633" lon="-5.244284416209705"/>
      <trkpt lat="36.783757585798298" lon="-5.244592007332748"/>
      <trkpt lat="36.783768416457782" lon="-5.244776503311702"/>
      <trkpt lat="36.783790072998123" lon="-5.245145358489633"/>
      <trkpt lat="36.783755941945948" lon="-5.245457909018292"/>
      <trkpt lat="36.78366970763846" lon="-5.2457754836418"/>
      <trkpt lat="36.783579952791293" lon="-5.246031383489383"/>
      <trkpt lat="36.783486671641782" lon="-5.246225731316764"/>
      <trkpt lat="36.783335366135788" lon="-5.246606396776288"/>
      <trkpt lat="36.783165805791263" lon="-5.247056878225242"/>
      <trkpt lat="36.78307984594457" lon="-5.247372521477047"/>
      <trkpt lat="36.782941440507237" lon="-5.247753037152096"/>
      <trkpt lat="36.78280327448838" lon="-5.248132893604659"/>
      <trkpt lat="36.782714436784573" lon="-5.248446602410172"/>
      <trkpt lat="36.782622566836231" lon="-5.248699136337631"/>
      <trkpt lat="36.782527649628662" lon="-5.248890638337769"/>
      <trkpt lat="36.782491257428518" lon="-5.24919879874639"/>
      <trkpt lat="36.782405960406606" lon="-5.249571792651921"/>
      <trkpt lat="36.782268761371263" lon="-5.249948669209303"/>
      <trkpt lat="36.782231460378618" lon="-5.250255465123367"/>
      <trkpt lat="36.782137588267297" lon="-5.250565013095092"/>
      <trkpt lat="36.782054216547102" lon="-5.250936421714592"/>
      <trkpt lat="36.782012297080684" lon="-5.25124079597223"/>
      <trkpt lat="36.78196367344222" lon="-5.251483452155576"/>
      <trkpt lat="36.781915618927037" lon="-5.251666648678338"/>
      <trkpt lat="36.78182467083856" lon="-5.252034008163619"/>
      <trkpt lat="36.781838966738519" lon="-5.252216006285373"/>
      <trkpt lat="36.781786808958387" lon="-5.252831510822871"/>
      <trkpt lat="36.781763992747251" lon="-5.253199219190026"/>
      <trkpt lat="36.781812379267123" lon="-5.253746792240817"/>
      <trkpt lat="36.781799124072833" lon="-5.254176675780223"/>
      <trkpt lat="36.781826039023763" lon="-5.254480954713033"/>
      <trkpt lat="36.781954879963592" lon="-5.254777686249096"/>
      <trkpt lat="36.782076184054262" lon="-5.255012842062207"/>
      <trkpt lat="36.782140574845002" lon="-5.25519070754536"/>
      <trkpt lat="36.782380761071089" lon="-5.255542983527914"/>
      <trkpt lat="36.782654740479288" lon="-5.255884857077974"/>
      <trkpt lat="36.782770983550549" lon="-5.256118451882413"/>
      <trkpt lat="36.782829116635369" lon="-5.256235272473734"/>
      <trkpt lat="36.782994689579702" lon="-5.256464597159384"/>
      <trkpt lat="36.783234267456237" lon="-5.256758991343835"/>
      <trkpt lat="36.783422275935642" lon="-5.256998326457303"/>
      <trkpt lat="36.783622873465539" lon="-5.25730229261235"/>
      <trkpt lat="36.783825174652897" lon="-5.257607478494974"/>
      <trkpt lat="36.784098831982142" lon="-5.258036545895494"/>
      <trkpt lat="36.784292332415909" lon="-5.258397722789287"/>
      <trkpt lat="36.784480143873523" lon="-5.258697693289416"/>
      <trkpt lat="36.784615068535977" lon="-5.259000636520167"/>
      <trkpt lat="36.784738621604347" lon="-5.259180514608252"/>
      <trkpt lat="36.784868036377887" lon="-5.259422263135079"/>
      <trkpt lat="36.784944305118849" lon="-5.259666672766182"/>
      <trkpt lat="36.785138380890643" lon="-5.259970873708498"/>
      <trkpt lat="36.78527853777446" lon="-5.260277479723455"/>
      <trkpt lat="36.78546816829725" lon="-5.260521125631384"/>
      <trkpt lat="36.785655294551241" lon="-5.260763737116046"/>
      <trkpt lat="36.785842010577923" lon="-5.261006361948761"/>
      <trkpt lat="36.786028998460942" lon="-5.261249340892617"/>
      <trkpt lat="36.786272298828152" lon="-5.26149174729189"/>
      <trkpt lat="36.786461160179307" lon="-5.26173615936528"/>
      <trkpt lat="36.786767706904932" lon="-5.262100196900317"/>
      <trkpt lat="36.78689172603157" lon="-5.262341336332539"/>
      <trkpt lat="36.787073243685008" lon="-5.262582508642492"/>
      <trkpt lat="36.787203381206332" lon="-5.262827192066184"/>
      <trkpt lat="36.78738796003158" lon="-5.263070348333285"/>
      <trkpt lat="36.787507528376068" lon="-5.263191191226247"/>
      <trkpt lat="36.787692487904422" lon="-5.263434830699094"/>
      <trkpt lat="36.787883110398553" lon="-5.263741015734"/>
      <trkpt lat="36.788013944150521" lon="-5.263986865765993"/>
      <trkpt lat="36.788464924362437" lon="-5.264304484035498"/>
      <trkpt lat="36.788686512379698" lon="-5.264317935597073"/>
      <trkpt lat="36.788904497989357" lon="-5.264277173598167"/>
      <trkpt lat="36.789127472774013" lon="-5.264291504581207"/>
      <trkpt lat="36.789393704023162" lon="-5.264289206120495"/>
      <trkpt lat="36.789536194415142" lon="-5.264396253986506"/>
      <trkpt lat="36.78967868069568" lon="-5.26450451701322"/>
      <trkpt lat="36.789786360272252" lon="-5.264742839072417"/>
      <trkpt lat="36.789842247816708" lon="-5.264890457114047"/>
      <trkpt lat="36.789906601624892" lon="-5.26514875407139"/>
      <trkpt lat="36.790057639308692" lon="-5.265370967355794"/>
      <trkpt lat="36.790160957930368" lon="-5.265557583452759"/>
      <trkpt lat="36.790303649073252" lon="-5.265671116935594"/>
      <trkpt lat="36.790351271586182" lon="-5.265709007416996"/>
      <trkpt lat="36.790498401552867" lon="-5.265878692372663"/>
      <trkpt lat="36.7906894604454" lon="-5.266030772945008"/>
      <trkpt lat="36.791016619084637" lon="-5.266185604717122"/>
      <trkpt lat="36.791249446419592" lon="-5.266261682621998"/>
      <trkpt lat="36.791439083328449" lon="-5.26635491861926"/>
      <trkpt lat="36.791632991880512" lon="-5.266505892840526"/>
      <trkpt lat="36.791822705549897" lon="-5.266603101554224"/>
      <trkpt lat="36.792056735657027" lon="-5.266685082700615"/>
      <trkpt lat="36.792290713271854" lon="-5.266770219508539"/>
      <trkpt lat="36.79247745521819" lon="-5.266813236798309"/>
      <trkpt lat="36.792614021164177" lon="-5.266822535480683"/>
      <trkpt lat="36.792809479218803" lon="-5.266980797139591"/>
      <trkpt lat="36.792946975454512" lon="-5.266989610686384"/>
      <trkpt lat="36.7932225712673" lon="-5.267007896982001"/>
      <trkpt lat="36.793365722400758" lon="-5.267069451682858"/>
      <trkpt lat="36.793693462547672" lon="-5.267122887907922"/>
      <trkpt lat="36.793982058083039" lon="-5.267177313938475"/>
      <trkpt lat="36.794363558863807" lon="-5.267196342697273"/>
      <trkpt lat="36.794660843891542" lon="-5.267302961918865"/>
      <trkpt lat="36.794904988213133" lon="-5.267382667871253"/>
      <trkpt lat="36.795102403031763" lon="-5.267483553122286"/>
      <trkpt lat="36.795300076730193" lon="-5.267585414704106"/>
      <trkpt lat="36.795544575143182" lon="-5.267670431972101"/>
      <trkpt lat="36.795744286124588" lon="-5.26783856937818"/>
      <trkpt lat="36.795941097407059" lon="-5.267947759428741"/>
      <trkpt lat="36.796085621694303" lon="-5.26795130848381"/>
      <trkpt lat="36.796299196760827" lon="-5.26815654106506"/>
      <trkpt lat="36.796556869565237" lon="-5.268285192570249"/>
      <trkpt lat="36.796662095328763" lon="-5.268358915298162"/>
      <trkpt lat="36.796910562955269" lon="-5.268514150853251"/>
      <trkpt lat="36.797112473092703" lon="-5.268618648218783"/>
      <trkpt lat="36.797324045490953" lon="-5.26876893564059"/>
      <trkpt lat="36.797484538307422" lon="-5.268878746000444"/>
      <trkpt lat="36.797787673813779" lon="-5.268939909670934"/>
      <trkpt lat="36.797994457004677" lon="-5.268971694316899"/>
      <trkpt lat="36.798204001328237" lon="-5.268998559457621"/>
      <trkpt lat="36.79850592956695" lon="-5.269002712015558"/>
      <trkpt lat="36.798743780048987" lon="-5.268925563544876"/>
      <trkpt lat="36.799058006076073" lon="-5.268907724146797"/>
      <trkpt lat="36.799157125011718" lon="-5.268869525607036"/>
      <trkpt lat="36.79946608772363" lon="-5.268799975607696"/>
      <trkpt lat="36.79973911439042" lon="-5.268790429825671"/>
      <trkpt lat="36.7999961656446" lon="-5.268748864144745"/>
      <trkpt lat="36.80026876873773" lon="-5.268813134168907"/>
      <trkpt lat="36.800539565122499" lon="-5.268815953501045"/>
      <trkpt lat="36.800891848341912" lon="-5.268889597745377"/>
      <trkpt lat="36.801128579040153" lon="-5.269097270451649"/>
      <trkpt lat="36.801286191404166" lon="-5.269165665657878"/>
      <trkpt lat="36.80148689872415" lon="-5.269365034381908"/>
      <trkpt lat="36.801749234832457" lon="-5.269660774250802"/>
      <trkpt lat="36.801909751038473" lon="-5.269859960022548"/>
      <trkpt lat="36.801957999470538" lon="-5.269913648441159"/>
      <trkpt lat="36.802193285438143" lon="-5.270254340313003"/>
      <trkpt lat="36.802371401281732" lon="-5.270558358927686"/>
      <trkpt lat="36.802485699212497" lon="-5.270902423895903"/>
      <trkpt lat="36.802642428984491" lon="-5.271176803445483"/>
      <trkpt lat="36.802888497157277" lon="-5.271571036328622"/>
      <trkpt lat="36.803048797723832" lon="-5.27197487050571"/>
      <trkpt lat="36.803246146513281" lon="-5.272320010813274"/>
      <trkpt lat="36.803327398327419" lon="-5.272522041960346"/>
      <trkpt lat="36.803418258756373" lon="-5.272776236138892"/>
      <trkpt lat="36.803523394282458" lon="-5.273142142737083"/>
      <trkpt lat="36.803597966579687" lon="-5.273356089520023"/>
      <trkpt lat="36.803909781573331" lon="-5.273791593750261"/>
      <trkpt lat="36.804046168902893" lon="-5.274174680477671"/>
      <trkpt lat="36.804212450031407" lon="-5.274507313643513"/>
      <trkpt lat="36.804292805042991" lon="-5.274781455470402"/>
      <trkpt lat="36.804473426023051" lon="-5.275029553733805"/>
      <trkpt lat="36.80455880389772" lon="-5.275232210707388"/>
      <trkpt lat="36.804750493227473" lon="-5.275467372405982"/>
      <trkpt lat="36.804934238992487" lon="-5.27571438500086"/>
      <trkpt lat="36.80519348516146" lon="-5.276114931339087"/>
      <trkpt lat="36.80536550190277" lon="-5.276379207699692"/>
      <trkpt lat="36.805592704605708" lon="-5.276559924755163"/>
      <trkpt lat="36.805812304029409" lon="-5.27688212479672"/>
      <trkpt lat="36.80601689814943" lon="-5.277091556158103"/>
      <trkpt lat="36.806259597507278" lon="-5.277387982201265"/>
      <trkpt lat="36.806453384233521" lon="-5.277499626415219"/>
      <trkpt lat="36.806695969073687" lon="-5.277733643839787"/>
      <trkpt lat="36.80675493589775" lon="-5.277843394013995"/>
      <trkpt lat="36.806912294920792" lon="-5.27799814565145"/>
      <trkpt lat="36.807181997585168" lon="-5.278313818551021"/>
      <trkpt lat="36.807287360187381" lon="-5.278416866003521"/>
      <trkpt lat="36.807515980534873" lon="-5.278669687433113"/>
      <trkpt lat="36.807771145291582" lon="-5.278896005420004"/>
      <trkpt lat="36.808180524740663" lon="-5.279441158932796"/>
      <trkpt lat="36.808328598287247" lon="-5.279765367233372"/>
      <trkpt lat="36.808532840511653" lon="-5.280139885204448"/>
      <trkpt lat="36.808663114614781" lon="-5.280352353105941"/>
      <trkpt lat="36.808825516549483" lon="-5.280731487924331"/>
      <trkpt lat="36.808893965641147" lon="-5.280835297151545"/>
      <trkpt lat="36.809117634826038" lon="-5.281261723727805"/>
      <trkpt lat="36.809276450854853" lon="-5.281582330611356"/>
      <trkpt lat="36.809370572805307" lon="-5.281926210824521"/>
      <trkpt lat="36.809557575230542" lon="-5.282192769200643"/>
      <trkpt lat="36.809710060390067" lon="-5.282652155553601"/>
      <trkpt lat="36.809860343888083" lon="-5.283114166693187"/>
      <trkpt lat="36.809935560940772" lon="-5.283345404544244"/>
      <trkpt lat="36.810069051327623" lon="-5.283626430215218"/>
      <trkpt lat="36.81021410496836" lon="-5.284029144485729"/>
      <trkpt lat="36.810289553384102" lon="-5.284261046952309"/>
      <trkpt lat="36.81043377108535" lon="-5.284730240936105"/>
      <trkpt lat="36.81057537569346" lon="-5.285136998497157"/>
      <trkpt lat="36.810782636040479" lon="-5.285589656758751"/>
      <trkpt lat="36.810987095088038" lon="-5.285980622954909"/>
      <trkpt lat="36.811060032794543" lon="-5.286280700169486"/>
      <trkpt lat="36.811190249804042" lon="-5.286438259882901"/>
      <trkpt lat="36.81126633690117" lon="-5.286736676258262"/>
      <trkpt lat="36.811411119460999" lon="-5.287015150488278"/>
      <trkpt lat="36.811640330787277" lon="-5.287523850592398"/>
      <trkpt lat="36.811808197772081" lon="-5.287984392863557"/>
      <trkpt lat="36.81190569440875" lon="-5.288336711409524"/>
      <trkpt lat="36.812011765716193" lon="-5.288620126978988"/>
      <trkpt lat="36.812102440591097" lon="-5.288848169972866"/>
      <trkpt lat="36.812145872422533" lon="-5.289212263562304"/>
      <trkpt lat="36.812168911119628" lon="-5.289587455064281"/>
      <trkpt lat="36.812184262263507" lon="-5.289837482571469"/>
      <trkpt lat="36.812155232292589" lon="-5.290911683880832"/>
      <trkpt lat="36.812120792821261" lon="-5.291104561995912"/>
      <trkpt lat="36.812046501882982" lon="-5.291492746994347"/>
      <trkpt lat="36.812002225512892" lon="-5.291754089232597"/>
      <trkpt lat="36.811961677381007" lon="-5.292077413911388"/>
      <trkpt lat="36.811894613989352" lon="-5.292461516899634"/>
      <trkpt lat="36.811827570959878" lon="-5.292845496430415"/>
      <trkpt lat="36.811804111118143" lon="-5.293160837499062"/>
      <trkpt lat="36.811792263489018" lon="-5.293598854287922"/>
      <trkpt lat="36.811713796977337" lon="-5.293859730549405"/>
      <trkpt lat="36.811706481860277" lon="-5.294359450266342"/>
      <trkpt lat="36.811672468834587" lon="-5.294551382396121"/>
      <trkpt lat="36.811615133988788" lon="-5.295058215772789"/>
      <trkpt lat="36.811590777879807" lon="-5.295373636876325"/>
      <trkpt lat="36.811569684212223" lon="-5.295751056049229"/>
      <trkpt lat="36.811581673571347" lon="-5.295873706895199"/>
      <trkpt lat="36.811550311210837" lon="-5.296624964490392"/>
      <trkpt lat="36.811551319381728" lon="-5.297122012072895"/>
      <trkpt lat="36.811610968910387" lon="-5.297673133043484"/>
      <trkpt lat="36.811650575597888" lon="-5.298040891737772"/>
      <trkpt lat="36.81161158669147" lon="-5.298170888030552"/>
      <trkpt lat="36.811644595173249" lon="-5.298477534095163"/>
      <trkpt lat="36.81167101763895" lon="-5.298722970065341"/>
      <trkpt lat="36.811709840740562" lon="-5.299091496906834"/>
      <trkpt lat="36.81176029200784" lon="-5.299646234603982"/>
      <trkpt lat="36.81177309894084" lon="-5.299769225532273"/>
      <trkpt lat="36.811824343600037" lon="-5.300261419724636"/>
      <trkpt lat="36.811914432180757" lon="-5.300624030887064"/>
      <trkpt lat="36.811991755597397" lon="-5.300863707413699"/>
      <trkpt lat="36.812036713354942" lon="-5.301295210469905"/>
      <trkpt lat="36.812126993794443" lon="-5.301658689810232"/>
      <trkpt lat="36.812205774430218" lon="-5.301961354258365"/>
      <trkpt lat="36.81228789839902" lon="-5.302263798495391"/>
      <trkpt lat="36.812368083817191" lon="-5.302566644591241"/>
      <trkpt lat="36.812488406723922" lon="-5.303302992472011"/>
      <trkpt lat="36.812568700165961" lon="-5.303606340854634"/>
      <trkpt lat="36.812603641654313" lon="-5.303977987642209"/>
      <trkpt lat="36.81270541260777" lon="-5.304467454965821"/>
      <trkpt lat="36.812787261139242" lon="-5.30470918791332"/>
      <trkpt lat="36.812884602665697" lon="-5.305075235785054"/>
      <trkpt lat="36.812997517620651" lon="-5.305566032899863"/>
      <trkpt lat="36.813095141166237" lon="-5.305933191477505"/>
      <trkpt lat="36.813169645184963" lon="-5.306114014738458"/>
      <trkpt lat="36.813315978136927" lon="-5.306538100517972"/>
      <trkpt lat="36.813496463263093" lon="-5.306769973545101"/>
      <trkpt lat="36.813629475597978" lon="-5.307008043894605"/>
      <trkpt lat="36.813772934915733" lon="-5.307371126756022"/>
      <trkpt lat="36.813832971471292" lon="-5.307428021730914"/>
      <trkpt lat="36.813989330671767" lon="-5.307916645813599"/>
      <trkpt lat="36.81410863881085" lon="-5.308340689753789"/>
      <trkpt lat="36.814351376238278" lon="-5.308817407486039"/>
      <trkpt lat="36.814498332588059" lon="-5.309182516900272"/>
      <trkpt lat="36.814711237289792" lon="-5.309482515965572"/>
      <trkpt lat="36.814834448495048" lon="-5.309857849157448"/>
      <trkpt lat="36.81499247133295" lon="-5.310102429275975"/>
      <trkpt lat="36.815177098691983" lon="-5.310475652594956"/>
      <trkpt lat="36.815385013739167" lon="-5.31077814173722"/>
      <trkpt lat="36.815528921269973" lon="-5.311146675853344"/>
      <trkpt lat="36.815593386678017" lon="-5.311205622668913"/>
      <trkpt lat="36.815805583928032" lon="-5.311572382983561"/>
      <trkpt lat="36.816015839224022" lon="-5.311877396541242"/>
      <trkpt lat="36.816220122771881" lon="-5.312244087435651"/>
      <trkpt lat="36.816519249967818" lon="-5.312723537484763"/>
      <trkpt lat="36.816645904914047" lon="-5.3129666570663"/>
      <trkpt lat="36.816863665159502" lon="-5.313275639037029"/>
      <trkpt lat="36.817019986282183" lon="-5.31358826313317"/>
      <trkpt lat="36.817216986828733" lon="-5.31383147935779"/>
      <trkpt lat="36.817359249569392" lon="-5.314079458618206"/>
      <trkpt lat="36.817553204661301" lon="-5.314384903443619"/>
      <trkpt lat="36.817686535345572" lon="-5.314693502235279"/>
      <trkpt lat="36.817715807737429" lon="-5.314950011433731"/>
      <trkpt lat="36.817747232160791" lon="-5.315207220432021"/>
      <trkpt lat="36.817888408825127" lon="-5.315456297120176"/>
      <trkpt lat="36.817986850569739" lon="-5.315961981199576"/>
      <trkpt lat="36.818034549987331" lon="-5.316535211971496"/>
      <trkpt lat="36.81805575026717" lon="-5.316789990995684"/>
      <trkpt lat="36.818082250552543" lon="-5.317108474093009"/>
      <trkpt lat="36.818040661950569" lon="-5.317240561506535"/>
      <trkpt lat="36.817971158383301" lon="-5.317694918652332"/>
      <trkpt lat="36.817950312651398" lon="-5.318143204200515"/>
      <trkpt lat="36.817919949316931" lon="-5.3184643510473"/>
      <trkpt lat="36.817889601481838" lon="-5.318785345979925"/>
      <trkpt lat="36.817844981241123" lon="-5.318915932720896"/>
      <trkpt lat="36.817758273097112" lon="-5.319239444943347"/>
      <trkpt lat="36.817776154886019" lon="-5.319554044034684"/>
      <trkpt lat="36.817668272259553" lon="-5.319991249576464"/>
      <trkpt lat="36.81758338764287" lon="-5.320497995663207"/>
      <trkpt lat="36.817582535492051" lon="-5.320952410901355"/>
      <trkpt lat="36.817576038408717" lon="-5.32128231763045"/>
      <trkpt lat="36.817609048471851" lon="-5.321724941915525"/>
      <trkpt lat="36.817623192899177" lon="-5.321914612311054"/>
      <trkpt lat="36.817646762755331" lon="-5.322230701001706"/>
      <trkpt lat="36.817665617184367" lon="-5.322483538738263"/>
      <trkpt lat="36.817682221147336" lon="-5.322978827661657"/>
      <trkpt lat="36.817693976487028" lon="-5.323410269362213"/>
      <trkpt lat="36.817702361803583" lon="-5.323718082798173"/>
      <trkpt lat="36.817774763166092" lon="-5.323906740482988"/>
      <trkpt lat="36.817968168729408" lon="-5.324431094325464"/>
      <trkpt lat="36.818101348740278" lon="-5.324895424522715"/>
      <trkpt lat="36.818174293570259" lon="-5.325024368494795"/>
      <trkpt lat="36.818338307447398" lon="-5.325535392248039"/>
      <trkpt lat="36.81847555825869" lon="-5.32584990240075"/>
      <trkpt lat="36.81855376158007" lon="-5.326042992740248"/>
      <trkpt lat="36.818766045076508" lon="-5.32636718479352"/>
      <trkpt lat="36.818857726799862" lon="-5.326689871380761"/>
      <trkpt lat="36.819010085025113" lon="-5.32701411420561"/>
      <trkpt lat="36.819076970492738" lon="-5.327079786284326"/>
      <trkpt lat="36.819426844338913" lon="-5.327600127458554"/>
      <trkpt lat="36.819502783206303" lon="-5.327793089927408"/>
      <trkpt lat="36.819762919481413" lon="-5.328113383638371"/>
      <trkpt lat="36.819845341234242" lon="-5.328371483223615"/>
      <trkpt lat="36.819985287943837" lon="-5.328690172796576"/>
      <trkpt lat="36.820165613508017" lon="-5.328937278230931"/>
      <trkpt lat="36.820238908857213" lon="-5.329190182529714"/>
      <trkpt lat="36.820305293492467" lon="-5.329377957834779"/>
      <trkpt lat="36.820392475585948" lon="-5.329761352815182"/>
      <trkpt lat="36.820479691556798" lon="-5.330144900598606"/>
      <trkpt lat="36.820523475398687" lon="-5.330598579318168"/>
      <trkpt lat="36.820603956317981" lon="-5.33091724812499"/>
      <trkpt lat="36.820608852619522" lon="-5.330981194223976"/>
      <trkpt lat="36.820773041826413" lon="-5.331438895737016"/>
      <trkpt lat="36.821081207845317" lon="-5.332159892609861"/>
      <trkpt lat="36.821047808946723" lon="-5.332561605094238"/>
      <trkpt lat="36.821048421502567" lon="-5.33262260097935"/>
      <trkpt lat="36.821050870005138" lon="-5.332866440776844"/>
      <trkpt lat="36.821053315963653" lon="-5.333110050443064"/>
      <trkpt lat="36.821056980052148" lon="-5.333475036194426"/>
      <trkpt lat="36.821091675019552" lon="-5.333861982080778"/>
      <trkpt lat="36.821048165878217" lon="-5.334052346417383"/>
      <trkpt lat="36.821039142004452" lon="-5.334286620635478"/>
      <trkpt lat="36.821032384878791" lon="-5.334462089608359"/>
      <trkpt lat="36.82096655103112" lon="-5.334755305015694"/>
      <trkpt lat="36.820912566819644" lon="-5.335116639925567"/>
      <trkpt lat="36.820942784128484" lon="-5.335439144035025"/>
      <trkpt lat="36.820973007597473" lon="-5.335761715485655"/>
      <trkpt lat="36.82100323611678" lon="-5.336084354844555"/>
      <trkpt lat="36.821027422735447" lon="-5.33634252483497"/>
      <trkpt lat="36.821057662323277" lon="-5.33666529140668"/>
      <trkpt lat="36.821747513286788" lon="-5.33857314344764"/>
      <trkpt lat="36.821956976364127" lon="-5.338957998023938"/>
      <trkpt lat="36.822071758580883" lon="-5.339257787925671"/>
      <trkpt lat="36.822135135161837" lon="-5.339458603466907"/>
      <trkpt lat="36.822292326458793" lon="-5.339752396036269"/>
      <trkpt lat="36.822390614962757" lon="-5.339900290614883"/>
      <trkpt lat="36.822543159978743" lon="-5.340074680884427"/>
      <trkpt lat="36.822884808697253" lon="-5.340504410279157"/>
      <trkpt lat="36.822943251709432" lon="-5.340656023176903"/>
      <trkpt lat="36.823190237215982" lon="-5.340997459767204"/>
      <trkpt lat="36.823237504371789" lon="-5.341044694687319"/>
      <trkpt lat="36.823479496679973" lon="-5.341334527781664"/>
      <trkpt lat="36.823647399969673" lon="-5.341310366909211"/>
      <trkpt lat="36.823865609185241" lon="-5.341392571638655"/>
      <trkpt lat="36.824033076523207" lon="-5.341434057834423"/>
      <trkpt lat="36.824114609942193" lon="-5.341426869009927"/>
      <trkpt lat="36.824460365916813" lon="-5.34148794895324"/>
      <trkpt lat="36.824684697564983" lon="-5.341622809549951"/>
      <trkpt lat="36.824907545561111" lon="-5.341697256751554"/>
      <trkpt lat="36.825047674142468" lon="-5.341781873819846"/>
      <trkpt lat="36.825139202268879" lon="-5.341820700827165"/>
      <trkpt lat="36.82541427144622" lon="-5.341937393993295"/>
      <trkpt lat="36.825698330873131" lon="-5.342104148956503"/>
      <trkpt lat="36.825933328373083" lon="-5.342226562186506"/>
      <trkpt lat="36.826113610256407" lon="-5.342249237206338"/>
      <trkpt lat="36.82630304678586" lon="-5.342321649503226"/>
      <trkpt lat="36.826584194597132" lon="-5.342373831678747"/>
      <trkpt lat="36.826860889914791" lon="-5.342433721509313"/>
      <trkpt lat="36.826997476831963" lon="-5.342466465359084"/>
      <trkpt lat="36.827259186514503" lon="-5.342423289089115"/>
      <trkpt lat="36.82757709374247" lon="-5.342481696984795"/>
      <trkpt lat="36.827796016211188" lon="-5.342445653666484"/>
      <trkpt lat="36.827983532837933" lon="-5.342525838365175"/>
      <trkpt lat="36.82816524450736" lon="-5.342551566641564"/>
      <trkpt lat="36.82834108781509" lon="-5.342522708591845"/>
      <trkpt lat="36.82852328366193" lon="-5.342548470010852"/>
      <trkpt lat="36.828800168699843" lon="-5.342614530368706"/>
      <trkpt lat="36.829071414895168" lon="-5.342625960268533"/>
      <trkpt lat="36.829121898999347" lon="-5.342673523972259"/>
      <trkpt lat="36.829457068131362" lon="-5.342842462180752"/>
      <trkpt lat="36.829642705658962" lon="-5.342928054603481"/>
      <trkpt lat="36.829832173351853" lon="-5.343071371072074"/>
      <trkpt lat="36.83002648972564" lon="-5.343271457892835"/>
      <trkpt lat="36.830215516417653" lon="-5.343476695420268"/>
      <trkpt lat="36.830459589521702" lon="-5.343665558708177"/>
      <trkpt lat="36.830601001854298" lon="-5.343759265283556"/>
      <trkpt lat="36.830942271188484" lon="-5.344110613477275"/>
      <trkpt lat="36.831274632216918" lon="-5.34434883645401"/>
      <trkpt lat="36.831514334798449" lon="-5.344543567624519"/>
      <trkpt lat="36.831890988373367" lon="-5.344716159163579"/>
      <trkpt lat="36.832142884849993" lon="-5.344842978778999"/>
      <trkpt lat="36.832395583131472" lon="-5.34497020093318"/>
      <trkpt lat="36.83254159778334" lon="-5.345002508199102"/>
      <trkpt lat="36.832734138471039" lon="-5.345027214145551"/>
      <trkpt lat="36.832934643881899" lon="-5.34510737556902"/>
      <trkpt lat="36.833430327481572" lon="-5.345253013816892"/>
      <trkpt lat="36.833476977610268" lon="-5.345245378111204"/>
      <trkpt lat="36.833827340177173" lon="-5.34535897562447"/>
      <trkpt lat="36.834077350064447" lon="-5.345432415444366"/>
      <trkpt lat="36.834367232134049" lon="-5.345442519746641"/>
      <trkpt lat="36.834673884918068" lon="-5.345564693924096"/>
      <trkpt lat="36.834973611500629" lon="-5.34563115967331"/>
      <trkpt lat="36.835218743341308" lon="-5.345649228750774"/>
      <trkpt lat="36.835369359194097" lon="-5.345682599770821"/>
      <trkpt lat="36.835567840988723" lon="-5.345708401028402"/>
      <trkpt lat="36.835764255452538" lon="-5.345735548292138"/>
      <trkpt lat="36.836126162835527" lon="-5.345850271261043"/>
      <trkpt lat="36.836374234523291" lon="-5.345868731794086"/>
      <trkpt lat="36.836744534414983" lon="-5.34604216002735"/>
      <trkpt lat="36.837095183633252" lon="-5.346104555628496"/>
      <trkpt lat="36.837243291489443" lon="-5.34614123079395"/>
      <trkpt lat="36.837451951482443" lon="-5.34622576982107"/>
      <trkpt lat="36.837872134151517" lon="-5.346333909311221"/>
      <trkpt lat="36.838084134101067" lon="-5.346418200406595"/>
      <trkpt lat="36.83819032871876" lon="-5.346460423339955"/>
      <trkpt lat="36.838657713475477" lon="-5.34656432301293"/>
      <trkpt lat="36.838867221136717" lon="-5.346651036195464"/>
      <trkpt lat="36.839069909922173" lon="-5.346679638751658"/>
      <trkpt lat="36.839231245996928" lon="-5.346774035746769"/>
      <trkpt lat="36.839652211771259" lon="-5.346948786451126"/>
      <trkpt lat="36.839857512470118" lon="-5.34703865227248"/>
      <trkpt lat="36.840345718298678" lon="-5.347262977450403"/>
      <trkpt lat="36.840559835414233" lon="-5.347350706130394"/>
      <trkpt lat="36.84077099522505" lon="-5.347439783091181"/>
      <trkpt lat="36.840926887036879" lon="-5.347538324379681"/>
      <trkpt lat="36.841034551338318" lon="-5.347643795135789"/>
      <trkpt lat="36.841298537891049" lon="-5.347848143919613"/>
      <trkpt lat="36.8414064527256" lon="-5.347953845549172"/>
      <trkpt lat="36.841735542145919" lon="-5.34814715980003"/>
      <trkpt lat="36.841979466368308" lon="-5.34835136832493"/>
      <trkpt lat="36.842216257446232" lon="-5.348497000927606"/>
      <trkpt lat="36.84227757879512" lon="-5.348548315952516"/>
      <trkpt lat="36.842585006370037" lon="-5.348805576993616"/>
      <trkpt lat="36.84277012149704" lon="-5.348960483194293"/>
      <trkpt lat="36.843046177219733" lon="-5.349166070564721"/>
      <trkpt lat="36.843157842610019" lon="-5.349272853143"/>
      <trkpt lat="36.84332932262091" lon="-5.34949398824462"/>
      <trkpt lat="36.84360543481462" lon="-5.349700889647061"/>
      <trkpt lat="36.843882148558961" lon="-5.349908241972131"/>
      <trkpt lat="36.843998311534982" lon="-5.350076606749431"/>
      <trkpt lat="36.84438478662365" lon="-5.350331430029788"/>
      <trkpt lat="36.844663194001548" lon="-5.350540100514949"/>
      <trkpt lat="36.844881838565144" lon="-5.350634037031514"/>
      <trkpt lat="36.845267329453179" lon="-5.350829443953977"/>
      <trkpt lat="36.845593379082032" lon="-5.350909883949132"/>
      <trkpt lat="36.845806283430349" lon="-5.350881838394193"/>
      <trkpt lat="36.846080491572508" lon="-5.350969556299533"/>
      <trkpt lat="36.846408906905829" lon="-5.351050498775944"/>
      <trkpt lat="36.846730841733368" lon="-5.351008465816931"/>
      <trkpt lat="36.846953438156518" lon="-5.35110370535107"/>
      <trkpt lat="36.847226709090279" lon="-5.3511304131161"/>
      <trkpt lat="36.847526458335459" lon="-5.351215850113417"/>
      <trkpt lat="36.847839625449183" lon="-5.351299921119653"/>
      <trkpt lat="36.848154248345502" lon="-5.35138438654175"/>
      <trkpt lat="36.848421037767189" lon="-5.351538242710475"/>
      <trkpt lat="36.848688943285303" lon="-5.351692752583541"/>
      <trkpt lat="36.848828374899128" lon="-5.351801087084651"/>
      <trkpt lat="36.849099724035433" lon="-5.352019423056164"/>
      <trkpt lat="36.849223050189252" lon="-5.352130274357582"/>
      <trkpt lat="36.849424756259282" lon="-5.352421198855664"/>
      <trkpt lat="36.849846057459168" lon="-5.353129799695159"/>
      <trkpt lat="36.849978641118049" lon="-5.353304264106317"/>
      <trkpt lat="36.850244361534223" lon="-5.353653928659709"/>
      <trkpt lat="36.850439960696143" lon="-5.35388547688755"/>
      <trkpt lat="36.850744408727437" lon="-5.354104898307064"/>
      <trkpt lat="36.850869801611623" lon="-5.354217983344348"/>
      <trkpt lat="36.851183947614608" lon="-5.354501303262664"/>
      <trkpt lat="36.851246890512009" lon="-5.354558069662005"/>
      <trkpt lat="36.851639777581092" lon="-5.354835781143646"/>
      <trkpt lat="36.851902061261761" lon="-5.355000525903781"/>
      <trkpt lat="36.852209831826372" lon="-5.355159800732876"/>
      <trkpt lat="36.852388358690767" lon="-5.355204816229237"/>
      <trkpt lat="36.852818935532561" lon="-5.355416190805379"/>
      <trkpt lat="36.853259085730592" lon="-5.355692262045427"/>
      <trkpt lat="36.853504809310223" lon="-5.35579580607168"/>
      <trkpt lat="36.853751518677932" lon="-5.355963483475103"/>
      <trkpt lat="36.854058792400131" lon="-5.35612561066017"/>
      <trkpt lat="36.854306878452313" lon="-5.356294064323398"/>
      <trkpt lat="36.854432498654987" lon="-5.356410454175404"/>
      <trkpt lat="36.854681380560258" lon="-5.35657948397625"/>
      <trkpt lat="36.854870440930092" lon="-5.356754613950033"/>
      <trkpt lat="36.855122964838408" lon="-5.356988535937184"/>
      <trkpt lat="36.855376001308173" lon="-5.357222938091041"/>
      <trkpt lat="36.855502710944258" lon="-5.357340318208117"/>
      <trkpt lat="36.855822724687407" lon="-5.357698628957808"/>
      <trkpt lat="36.855949881967931" lon="-5.3578164551381"/>
      <trkpt lat="36.85626833169956" lon="-5.358111541865234"/>
      <trkpt lat="36.856337409346963" lon="-5.358299503280087"/>
      <trkpt lat="36.856528942921912" lon="-5.358477086277434"/>
      <trkpt lat="36.856662047626877" lon="-5.358724574265547"/>
      <trkpt lat="36.85711311015951" lon="-5.359205139201362"/>
      <trkpt lat="36.85730578687982" lon="-5.359383920994421"/>
      <trkpt lat="36.857630142624089" lon="-5.359747156379062"/>
      <trkpt lat="36.857823598167663" lon="-5.35992671347926"/>
      <trkpt lat="36.858131899671207" lon="-5.360096019813153"/>
      <trkpt lat="36.85837881638993" lon="-5.360205923823286"/>
      <trkpt lat="36.858571875283637" lon="-5.360321637928224"/>
      <trkpt lat="36.859017639504941" lon="-5.360548586643184"/>
      <trkpt lat="36.859259507373032" lon="-5.360593817447886"/>
      <trkpt lat="36.85955805296333" lon="-5.36063374526316"/>
      <trkpt lat="36.859616053735131" lon="-5.360628565892488"/>
      <trkpt lat="36.859973552435051" lon="-5.360663411528265"/>
      <trkpt lat="36.860382573477388" lon="-5.360627249648954"/>
      <trkpt lat="36.860441610455318" lon="-5.360622133753596"/>
      <trkpt lat="36.860737191294852" lon="-5.360596521089407"/>
      <trkpt lat="36.860926492071769" lon="-5.360582460060096"/>
      <trkpt lat="36.861253223934213" lon="-5.360560148272499"/>
      <trkpt lat="36.861910228990453" lon="-5.360515279429258"/>
      <trkpt lat="36.862108257806071" lon="-5.360501750630577"/>
      <trkpt lat="36.862612393497329" lon="-5.36033114179197"/>
      <trkpt lat="36.862932068786783" lon="-5.360240875844074"/>
      <trkpt lat="36.863264412640383" lon="-5.360217539813336"/>
      <trkpt lat="36.863504694270219" lon="-5.360196165716433"/>
      <trkpt lat="36.864167616293223" lon="-5.36013720340435"/>
      <trkpt lat="36.864348961839319" lon="-5.360121072139866"/>
      <trkpt lat="36.864696303979777" lon="-5.360087218497317"/>
      <trkpt lat="36.865036379692867" lon="-5.360052558752003"/>
      <trkpt lat="36.865212967139151" lon="-5.360102306938833"/>
      <trkpt lat="36.865757109197652" lon="-5.36019770824268"/>
      <trkpt lat="36.866228273212592" lon="-5.360364405812987"/>
      <trkpt lat="36.866475843600107" lon="-5.360409990926861"/>
      <trkpt lat="36.866947623396577" lon="-5.360711305993108"/>
      <trkpt lat="36.867208028953272" lon="-5.360825499217565"/>
      <trkpt lat="36.867587871994687" lon="-5.360928867429515"/>
      <trkpt lat="36.867920777529328" lon="-5.361106420810623"/>
      <trkpt lat="36.868123260424703" lon="-5.361226860109487"/>
      <trkpt lat="36.868397822540857" lon="-5.361410614117896"/>
      <trkpt lat="36.86858931034363" lon="-5.361462874601028"/>
      <trkpt lat="36.86898238231057" lon="-5.36158109054581"/>
      <trkpt lat="36.869328902073612" lon="-5.361761713343469"/>
      <trkpt lat="36.869591759741468" lon="-5.36187773652691"/>
      <trkpt lat="36.869789956041721" lon="-5.36199878760637"/>
      <trkpt lat="36.869856554028793" lon="-5.362061765457335"/>
      <trkpt lat="36.870120229028913" lon="-5.362178244025715"/>
      <trkpt lat="36.87060372019274" lon="-5.362007798368317"/>
      <trkpt lat="36.870791991173377" lon="-5.361957651500928"/>
      <trkpt lat="36.871027329596672" lon="-5.361895786652564"/>
      <trkpt lat="36.871216834448553" lon="-5.361844490046951"/>
      <trkpt lat="36.871501019458712" lon="-5.361768787545113"/>
      <trkpt lat="36.871737015403681" lon="-5.361708421140189"/>
      <trkpt lat="36.871972842829827" lon="-5.361648962077146"/>
      <trkpt lat="36.872249506173482" lon="-5.361455901352499"/>
      <trkpt lat="36.872389036214003" lon="-5.361357498627361"/>
      <trkpt lat="36.872773538226809" lon="-5.361185743551449"/>
      <trkpt lat="36.87296146096925" lon="-5.361074768478388"/>
      <trkpt lat="36.873242976129802" lon="-5.360943534089402"/>
      <trkpt lat="36.873429069325503" lon="-5.360836922770968"/>
      <trkpt lat="36.873761248727668" lon="-5.360757419234634"/>
      <trkpt lat="36.873951433226622" lon="-5.360711891718547"/>
      <trkpt lat="36.874240511248132" lon="-5.360704996453768"/>
      <trkpt lat="36.874438707799229" lon="-5.360781102291011"/>
      <trkpt lat="36.874650280057871" lon="-5.360902480848226"/>
      <trkpt lat="36.874862282424708" lon="-5.361024112387306"/>
      <trkpt lat="36.875024787435812" lon="-5.361160488799159"/>
      <trkpt lat="36.875253376595111" lon="-5.36152487617769"/>
      <trkpt lat="36.875427545559631" lon="-5.361844714943822"/>
      <trkpt lat="36.87558892852654" lon="-5.362051543274724"/>
      <trkpt lat="36.875648384854379" lon="-5.362222921823216"/>
      <trkpt lat="36.875816667085722" lon="-5.362552875843383"/>
      <trkpt lat="36.875876142424097" lon="-5.362724318845308"/>
      <trkpt lat="36.876094000558332" lon="-5.363041802819518"/>
      <trkpt lat="36.876256219409107" lon="-5.363248909610215"/>
      <trkpt lat="36.876315929836473" lon="-5.363420318402586"/>
      <trkpt lat="36.8765912681244" lon="-5.363583580155062"/>
      <trkpt lat="36.876813833766178" lon="-5.363765146608745"/>
      <trkpt lat="36.877036906765632" lon="-5.363947126374041"/>
      <trkpt lat="36.877202499415972" lon="-5.364020572963452"/>
      <trkpt lat="36.87736545996821" lon="-5.36416397155866"/>
      <trkpt lat="36.877750922264639" lon="-5.364493946863281"/>
      <trkpt lat="36.877925772535988" lon="-5.364624047686585"/>
      <trkpt lat="36.878157808194871" lon="-5.364865982876337"/>
      <trkpt lat="36.878459096677631" lon="-5.365271909985872"/>
      <trkpt lat="36.87863007894908" lon="-5.365475617797982"/>
      <trkpt lat="36.878745332948029" lon="-5.365632176202912"/>
      <trkpt lat="36.87886289151092" lon="-5.365852087603371"/>
      <trkpt lat="36.879032220170949" lon="-5.365993265020748"/>
      <trkpt lat="36.879267847641913" lon="-5.366499504015482"/>
      <trkpt lat="36.879570804378687" lon="-5.366845921177488"/>
      <trkpt lat="36.879695179901063" lon="-5.367060329917081"/>
      <trkpt lat="36.880032927677867" lon="-5.367611704349532"/>
      <trkpt lat="36.880158006979968" lon="-5.367826490692723"/>
      <trkpt lat="36.880283130411293" lon="-5.368041767541211"/>
      <trkpt lat="36.880459920784077" lon="-5.368245532267892"/>
      <trkpt lat="36.880779394195628" lon="-5.368780388171199"/>
      <trkpt lat="36.881075325228032" lon="-5.369368762645641"/>
      <trkpt lat="36.881190734297839" lon="-5.369530845825609"/>
      <trkpt lat="36.881448922093178" lon="-5.369831225354718"/>
      <trkpt lat="36.881708388793413" lon="-5.370197613697424"/>
      <trkpt lat="36.8818925191513" lon="-5.370401009282158"/>
      <trkpt lat="36.882101970375423" lon="-5.370779694724552"/>
      <trkpt lat="36.882389833178173" lon="-5.370963576638098"/>
      <trkpt lat="36.882613605827032" lon="-5.37123415530485"/>
      <trkpt lat="36.882780797875959" lon="-5.371454104976037"/>
      <trkpt lat="36.883002455394802" lon="-5.371727107896566"/>
      <trkpt lat="36.883218872453327" lon="-5.371939431790324"/>
      <trkpt lat="36.883391624165881" lon="-5.372221157514643"/>
      <trkpt lat="36.883506168485162" lon="-5.372387976969223"/>
      <trkpt lat="36.883632439998017" lon="-5.37261136052"/>
      <trkpt lat="36.883761255236983" lon="-5.372898180652744"/>
      <trkpt lat="36.883901498417643" lon="-5.373307123163818"/>
      <trkpt lat="36.883981424387642" lon="-5.373602338247768"/>
      <trkpt lat="36.884074422623883" lon="-5.374018619368072"/>
      <trkpt lat="36.884208448681477" lon="-5.374368071868449"/>
      <trkpt lat="36.884282031282957" lon="-5.374603426969217"/>
      <trkpt lat="36.884355654801041" lon="-5.374838889569494"/>
      <trkpt lat="36.884442527639031" lon="-5.375195568173117"/>
      <trkpt lat="36.884501267704977" lon="-5.375741245443556"/>
      <trkpt lat="36.88458812383724" lon="-5.376098644560927"/>
      <trkpt lat="36.88463400706155" lon="-5.37652363159682"/>
      <trkpt lat="36.884660241634762" lon="-5.376766628299779"/>
      <trkpt lat="36.884706176570887" lon="-5.37719212046524"/>
      <trkpt lat="36.884739006978492" lon="-5.377496236123546"/>
      <trkpt lat="36.884798143600598" lon="-5.37804405622286"/>
      <trkpt lat="36.884834666338797" lon="-5.378539372777053"/>
      <trkpt lat="36.884844876586882" lon="-5.378790882885323"/>
      <trkpt lat="36.884867250857397" lon="-5.379292435522455"/>
      <trkpt lat="36.884883317036731" lon="-5.379604668160899"/>
      <trkpt lat="36.88484707206608" lon="-5.379861436986411"/>
      <trkpt lat="36.884808504232907" lon="-5.380119062861834"/>
      <trkpt lat="36.884821900802272" lon="-5.380622814593393"/>
      <trkpt lat="36.884831930553958" lon="-5.381000034451162"/>
      <trkpt lat="36.884934659761242" lon="-5.381784736997204"/>
      <trkpt lat="36.884933905540898" lon="-5.382217589195558"/>
      <trkpt lat="36.884967853427078" lon="-5.382458888621958"/>
      <trkpt lat="36.884984295298572" lon="-5.382643188984719"/>
      <trkpt lat="36.885110605110597" lon="-5.383116805898197"/>
      <trkpt lat="36.885165833959341" lon="-5.383352103319354"/>
      <trkpt lat="36.885285661240097" lon="-5.384020076879859"/>
      <trkpt lat="36.885313910817537" lon="-5.3843281508535"/>
      <trkpt lat="36.885347819131539" lon="-5.384697925831627"/>
      <trkpt lat="36.885376079835559" lon="-5.385006147803443"/>
      <trkpt lat="36.885438272790431" lon="-5.385684466083488"/>
      <trkpt lat="36.885477865624303" lon="-5.386116291211693"/>
      <trkpt lat="36.885478390839012" lon="-5.386678397228826"/>
      <trkpt lat="36.88549536286915" lon="-5.386863554469146"/>
      <trkpt lat="36.885427232655459" lon="-5.387498553698734"/>
      <trkpt lat="36.885383576667991" lon="-5.387692033147847"/>
      <trkpt lat="36.885254900333287" lon="-5.388208680058929"/>
      <trkpt lat="36.885229750702187" lon="-5.388461229001098"/>
      <trkpt lat="36.885204599730741" lon="-5.388713801025514"/>
      <trkpt lat="36.885097511427418" lon="-5.389163849679837"/>
      <trkpt lat="36.884996760791182" lon="-5.389675368417114"/>
      <trkpt lat="36.884742701137043" lon="-5.390704596347586"/>
      <trkpt lat="36.88457045600115" lon="-5.391099345875002"/>
      <trkpt lat="36.884529306733178" lon="-5.391228827699075"/>
      <trkpt lat="36.88444328577301" lon="-5.391425961189916"/>
      <trkpt lat="36.884215958441729" lon="-5.391764341406812"/>
      <trkpt lat="36.883857119195213" lon="-5.392489503986467"/>
      <trkpt lat="36.883722281382788" lon="-5.392753188912391"/>
      <trkpt lat="36.883592008672068" lon="-5.393077997715904"/>
      <trkpt lat="36.883411196519177" lon="-5.393408200961542"/>
      <trkpt lat="36.883184455416433" lon="-5.39380493151559"/>
      <trkpt lat="36.883041554397522" lon="-5.393944584809559"/>
      <trkpt lat="36.882857136006358" lon="-5.394212188576785"/>
      <trkpt lat="36.882581008915118" lon="-5.394612866975085"/>
      <trkpt lat="36.882443169910587" lon="-5.39481287852198"/>
      <trkpt lat="36.882259617868193" lon="-5.39507922025243"/>
      <trkpt lat="36.881935186181188" lon="-5.395483461228123"/>
      <trkpt lat="36.881744037362402" lon="-5.395626982792666"/>
      <trkpt lat="36.881653058192079" lon="-5.3957595902019"/>
      <trkpt lat="36.881362502172493" lon="-5.395913454562232"/>
      <trkpt lat="36.880990981448427" lon="-5.396320696169639"/>
      <trkpt lat="36.880760415631187" lon="-5.396589834433923"/>
      <trkpt lat="36.88048515783845" lon="-5.396924321163907"/>
      <trkpt lat="36.880165480571939" lon="-5.397323780875755"/>
      <trkpt lat="36.880030640714949" lon="-5.397520625962766"/>
      <trkpt lat="36.879806213593177" lon="-5.397848242208968"/>
      <trkpt lat="36.879716273901693" lon="-5.39797907449941"/>
      <trkpt lat="36.879576588730863" lon="-5.398114650260477"/>
      <trkpt lat="36.879179885152261" lon="-5.398762541810327"/>
      <trkpt lat="36.879001487059533" lon="-5.39902295441051"/>
      <trkpt lat="36.878787373545443" lon="-5.399468246671465"/>
      <trkpt lat="36.878563883514843" lon="-5.39979222248691"/>
      <trkpt lat="36.878429986377562" lon="-5.399986319483945"/>
      <trkpt lat="36.878357152383472" lon="-5.400296726090883"/>
      <trkpt lat="36.878147419495633" lon="-5.400740736944457"/>
      <trkpt lat="36.87793043636281" lon="-5.401123007527556"/>
      <trkpt lat="36.877774405516583" lon="-5.401679359887637"/>
      <trkpt lat="36.877697318190499" lon="-5.401986561636746"/>
      <trkpt lat="36.877425185669154" lon="-5.40236795669649"/>
      <trkpt lat="36.877289401057517" lon="-5.402558255333439"/>
      <trkpt lat="36.877060471024627" lon="-5.402815814892219"/>
      <trkpt lat="36.876830314722469" lon="-5.403072027149459"/>
      <trkpt lat="36.87669874955273" lon="-5.403320336196983"/>
      <trkpt lat="36.876604727442171" lon="-5.403386973894023"/>
      <trkpt lat="36.876241028039978" lon="-5.403830242613713"/>
      <trkpt lat="36.876061616402183" lon="-5.404080779206335"/>
      <trkpt lat="36.875794745503242" lon="-5.404456604186691"/>
      <trkpt lat="36.875706269760528" lon="-5.404581833929237"/>
      <trkpt lat="36.875485412601464" lon="-5.404894430884708"/>
      <trkpt lat="36.875291544449809" lon="-5.405133513177582"/>
      <trkpt lat="36.875119012841672" lon="-5.405496990791488"/>
      <trkpt lat="36.874962989743103" lon="-5.405870062572017"/>
      <trkpt lat="36.874797333206892" lon="-5.406236318100182"/>
      <trkpt lat="36.874620896937166" lon="-5.406482793119287"/>
      <trkpt lat="36.874488780167688" lon="-5.406667343839783"/>
      <trkpt lat="36.874357049381061" lon="-5.406851788038447"/>
      <trkpt lat="36.874138145829001" lon="-5.407158826889881"/>
      <trkpt lat="36.873915406207963" lon="-5.407406653968859"/>
      <trkpt lat="36.873788917912648" lon="-5.407648646832167"/>
      <trkpt lat="36.873599017016012" lon="-5.407660456256755"/>
      <trkpt lat="36.873414765261963" lon="-5.407786362997399"/>
      <trkpt lat="36.873182812359588" lon="-5.4079142966506"/>
      <trkpt lat="36.873051555328153" lon="-5.408095652401767"/>
      <trkpt lat="36.873012579412567" lon="-5.408214623303177"/>
      <trkpt lat="36.87288492183783" lon="-5.408398481762465"/>
      <trkpt lat="36.872861066075238" lon="-5.408693685470503"/>
      <trkpt lat="36.872804761888681" lon="-5.409221538882402"/>
      <trkpt lat="36.872809082766672" lon="-5.409279663774562"/>
      <trkpt lat="36.872778922854891" lon="-5.409514405945144"/>
      <trkpt lat="36.872802486391237" lon="-5.409860718925387"/>
      <trkpt lat="36.872796836990567" lon="-5.410549480758164"/>
      <trkpt lat="36.872817172124613" lon="-5.410838310751247"/>
      <trkpt lat="36.872839421555433" lon="-5.411075311451413"/>
      <trkpt lat="36.872831312620868" lon="-5.411492551188003"/>
      <trkpt lat="36.872822350846313" lon="-5.411962371410049"/>
      <trkpt lat="36.872841343255523" lon="-5.412196126384137"/>
      <trkpt lat="36.872793738009257" lon="-5.412622760175782"/>
      <trkpt lat="36.872842354685453" lon="-5.413154317702586"/>
      <trkpt lat="36.872869378668227" lon="-5.413449792142951"/>
      <trkpt lat="36.872894516979713" lon="-5.413795957253588"/>
      <trkpt lat="36.872902468151892" lon="-5.413910813003398"/>
      <trkpt lat="36.87293880572085" lon="-5.414480709246225"/>
      <trkpt lat="36.872956656486487" lon="-5.414659982852486"/>
      <trkpt lat="36.872990901122982" lon="-5.415016938793011"/>
      <trkpt lat="36.87301979663139" lon="-5.41531514247398"/>
      <trkpt lat="36.873060484809912" lon="-5.415733071333709"/>
      <trkpt lat="36.873085328027329" lon="-5.415921671582657"/>
      <trkpt lat="36.873313690566619" lon="-5.417242518449719"/>
      <trkpt lat="36.873330845855243" lon="-5.417417548991609"/>
      <trkpt lat="36.873339658295038" lon="-5.417539221326527"/>
      <trkpt lat="36.873504559204598" lon="-5.417812227461015"/>
      <trkpt lat="36.873568924910877" lon="-5.418046867693539"/>
      <trkpt lat="36.873741646429032" lon="-5.418374968348354"/>
      <trkpt lat="36.873962402290339" lon="-5.418761093954163"/>
      <trkpt lat="36.874020327342279" lon="-5.419007720759471"/>
      <trkpt lat="36.874192976223149" lon="-5.41919992703086"/>
      <trkpt lat="36.874309628701447" lon="-5.419348721272488"/>
      <trkpt lat="36.874487085083793" lon="-5.419602880162272"/>
      <trkpt lat="36.874659653049683" lon="-5.419797523642355"/>
      <trkpt lat="36.874775646243769" lon="-5.419949106996384"/>
      <trkpt lat="36.874885103440789" lon="-5.420043434818038"/>
      <trkpt lat="36.875069510883257" lon="-5.420357537910833"/>
      <trkpt lat="36.875294757270829" lon="-5.420606089988514"/>
      <trkpt lat="36.87548328951673" lon="-5.420984082040253"/>
      <trkpt lat="36.875664338308169" lon="-5.421306554840855"/>
      <trkpt lat="36.875843108136181" lon="-5.421633256198292"/>
      <trkpt lat="36.875911513388218" lon="-5.421864821360907"/>
      <trkpt lat="36.876149393387493" lon="-5.422234931961524"/>
      <trkpt lat="36.876220470805997" lon="-5.422463348757351"/>
      <trkpt lat="36.876296958859889" lon="-5.422751897827759"/>
      <trkpt lat="36.876468228998391" lon="-5.423024485967299"/>
      <trkpt lat="36.876483591897262" lon="-5.423273188714147"/>
      <trkpt lat="36.876617370011303" lon="-5.423877049137191"/>
      <trkpt lat="36.876767205380638" lon="-5.424593763078967"/>
      <trkpt lat="36.876839228293697" lon="-5.424888904531984"/>
      <trkpt lat="36.876973048586763" lon="-5.425225046762105"/>
      <trkpt lat="36.877110341468622" lon="-5.42549082814014"/>
      <trkpt lat="36.877372505961219" lon="-5.426172786637803"/>
      <trkpt lat="36.877448518125199" lon="-5.42646443351753"/>
      <trkpt lat="36.877646592730493" lon="-5.426909457922726"/>
      <trkpt lat="36.877787806784028" lon="-5.427373701385009"/>
      <trkpt lat="36.877906236840793" lon="-5.42753180481083"/>
      <trkpt lat="36.878104664267099" lon="-5.427979243464898"/>
      <trkpt lat="36.878175831899881" lon="-5.428211526984566"/>
      <trkpt lat="36.878243291540727" lon="-5.428448012904843"/>
      <trkpt lat="36.878377103291477" lon="-5.428723911268808"/>
      <trkpt lat="36.878495164659057" lon="-5.42881797860264"/>
      <trkpt lat="36.878794963557738" lon="-5.429247966188317"/>
      <trkpt lat="36.87907677613417" lon="-5.429565016343727"/>
      <trkpt lat="36.879260231393218" lon="-5.429834558867538"/>
      <trkpt lat="36.87945157203437" lon="-5.430031710655843"/>
      <trkpt lat="36.879695112511122" lon="-5.430218766268572"/>
      <trkpt lat="36.880008704086883" lon="-5.430578069087259"/>
      <trkpt lat="36.880247998412379" lon="-5.430771514401068"/>
      <trkpt lat="36.88042427007116" lon="-5.430920165024088"/>
      <trkpt lat="36.880606197308857" lon="-5.431130571797312"/>
      <trkpt lat="36.880792567700077" lon="-5.431337915272431"/>
      <trkpt lat="36.880913431978669" lon="-5.431435334376856"/>
      <trkpt lat="36.881240313219983" lon="-5.4318584940579"/>
      <trkpt lat="36.881296646327833" lon="-5.431910973288492"/>
      <trkpt lat="36.881554415196213" lon="-5.43229431764429"/>
      <trkpt lat="36.881694622266799" lon="-5.432576961075331"/>
      <trkpt lat="36.881819892677058" lon="-5.432739116112598"/>
      <trkpt lat="36.881898585596332" lon="-5.433105245981751"/>
      <trkpt lat="36.881980545769032" lon="-5.43340330913455"/>
      <trkpt lat="36.882017753051798" lon="-5.433771884777307"/>
      <trkpt lat="36.882062724833922" lon="-5.434201115662372"/>
      <trkpt lat="36.882075584109039" lon="-5.434389468397001"/>
      <trkpt lat="36.882073258031333" lon="-5.435587341989389"/>
      <trkpt lat="36.882019657484207" lon="-5.436097425650318"/>
      <trkpt lat="36.881984042067927" lon="-5.436292502123424"/>
      <trkpt lat="36.88185668454922" lon="-5.43662872239109"/>
      <trkpt lat="36.881826254509882" lon="-5.436885770975498"/>
      <trkpt lat="36.881744889737533" lon="-5.437151050579922"/>
      <trkpt lat="36.881663675161043" lon="-5.437416144601456"/>
      <trkpt lat="36.881623869140498" lon="-5.437678216941075"/>
      <trkpt lat="36.881490562962298" lon="-5.438211319527511"/>
      <trkpt lat="36.881434253471063" lon="-5.438656586147816"/>
      <trkpt lat="36.881473173105768" lon="-5.438959886611419"/>
      <trkpt lat="36.881511293564358" lon="-5.439199289581768"/>
      <trkpt lat="36.881573914261587" lon="-5.439556234173092"/>
      <trkpt lat="36.881583056324281" lon="-5.439681153530341"/>
      <trkpt lat="36.881622422859692" lon="-5.440179431005551"/>
      <trkpt lat="36.881674639822023" lon="-5.440607441000567"/>
      <trkpt lat="36.881704408397702" lon="-5.440852251656484"/>
      <trkpt lat="36.881835905219219" lon="-5.44114660054095"/>
      <trkpt lat="36.881859297863258" lon="-5.44145898401312"/>
      <trkpt lat="36.881930967654426" lon="-5.441764846608451"/>
      <trkpt lat="36.88200949691808" lon="-5.442003677676853"/>
      <trkpt lat="36.882085459010057" lon="-5.442179392062715"/>
      <trkpt lat="36.882173130738991" lon="-5.44247957965335"/>
      <trkpt lat="36.882306162733776" lon="-5.442710547475398"/>
      <trkpt lat="36.882405100141668" lon="-5.442943234301655"/>
      <trkpt lat="36.882483630580253" lon="-5.443183447267343"/>
      <trkpt lat="36.882618668048543" lon="-5.443479199444312"/>
      <trkpt lat="36.882752759886671" lon="-5.44377565964555"/>
      <trkpt lat="36.882897178812243" lon="-5.444069318169258"/>
      <trkpt lat="36.882981610874012" lon="-5.444373284046867"/>
      <trkpt lat="36.882987135183342" lon="-5.444628322535774"/>
      <trkpt lat="36.88300178940419" lon="-5.444944657654403"/>
      <trkpt lat="36.883049719341287" lon="-5.445380018492793"/>
      <trkpt lat="36.883083984526742" lon="-5.445691230359241"/>
      <trkpt lat="36.883130305261062" lon="-5.44599980846272"/>
      <trkpt lat="36.883178081312337" lon="-5.446436354233123"/>
      <trkpt lat="36.88326354214859" lon="-5.446613804739043"/>
      <trkpt lat="36.883365807879052" lon="-5.446979919982584"/>
      <trkpt lat="36.883576684375313" lon="-5.447459978911633"/>
      <trkpt lat="36.883661215945587" lon="-5.447766768785928"/>
      <trkpt lat="36.883803252548581" lon="-5.448066216970727"/>
      <trkpt lat="36.883998117611632" lon="-5.448487045185551"/>
      <trkpt lat="36.88412827671975" lon="-5.448852875409376"/>
      <trkpt lat="36.884174283322693" lon="-5.448910847540631"/>
      <trkpt lat="36.884278173034737" lon="-5.4492162081995"/>
      <trkpt lat="36.884330609927787" lon="-5.449400475976088"/>
      <trkpt lat="36.88443299367411" lon="-5.44964197810745"/>
      <trkpt lat="36.884909604715872" lon="-5.450537579466834"/>
      <trkpt lat="36.884974192570454" lon="-5.450720573227109"/>
      <trkpt lat="36.885145095934277" lon="-5.451017701607999"/>
      <trkpt lat="36.885261601117989" lon="-5.451131271612869"/>
      <trkpt lat="36.885381009541177" lon="-5.451371439080233"/>
      <trkpt lat="36.885790722751238" lon="-5.451896572654677"/>
      <trkpt lat="36.885969425889719" lon="-5.452130914610319"/>
      <trkpt lat="36.886212182388128" lon="-5.452422650040171"/>
      <trkpt lat="36.886447354773047" lon="-5.452588308404858"/>
      <trkpt lat="36.886511683434932" lon="-5.452708907280543"/>
      <trkpt lat="36.886925808431293" lon="-5.453110742188541"/>
      <trkpt lat="36.88710737583795" lon="-5.453346720822815"/>
      <trkpt lat="36.887283875754058" lon="-5.453519483693274"/>
      <trkpt lat="36.887518745568549" lon="-5.453813453125631"/>
      <trkpt lat="36.887811966491647" lon="-5.454102195017078"/>
      <trkpt lat="36.887929494398158" lon="-5.454217836217353"/>
      <trkpt lat="36.888050287166692" lon="-5.454333734351653"/>
      <trkpt lat="36.88834830183557" lon="-5.45462366240174"/>
      <trkpt lat="36.888517603880388" lon="-5.454860676432932"/>
      <trkpt lat="36.888632203985857" lon="-5.454976609565766"/>
      <trkpt lat="36.88893980071196" lon="-5.455204817521768"/>
      <trkpt lat="36.889120330287319" lon="-5.455316283434218"/>
      <trkpt lat="36.889562081940348" lon="-5.455663463260247"/>
      <trkpt lat="36.889870974873688" lon="-5.455893492433815"/>
      <trkpt lat="36.890185050110148" lon="-5.456135201141055"/>
      <trkpt lat="36.890341780894794" lon="-5.456256495916419"/>
      <trkpt lat="36.890568350770941" lon="-5.456565919261685"/>
      <trkpt lat="36.890752995954969" lon="-5.456807561496396"/>
      <trkpt lat="36.890935972789272" lon="-5.456985330768259"/>
      <trkpt lat="36.891117705954677" lon="-5.457227064060003"/>
      <trkpt lat="36.891238667925549" lon="-5.457473488074257"/>
      <trkpt lat="36.891422300835991" lon="-5.457779651889987"/>
      <trkpt lat="36.8914653548795" lon="-5.45802808507672"/>
      <trkpt lat="36.891573312951508" lon="-5.458272567054911"/>
      <trkpt lat="36.891681214085843" lon="-5.458516921908902"/>
      <trkpt lat="36.89181694347424" lon="-5.458829342064209"/>
      <trkpt lat="36.891958060353112" lon="-5.459333776699891"/>
      <trkpt lat="36.892019424992107" lon="-5.459584342853066"/>
      <trkpt lat="36.892097846539187" lon="-5.460028577098006"/>
      <trkpt lat="36.892178189274851" lon="-5.460282729439628"/>
      <trkpt lat="36.892192845251991" lon="-5.460539528536126"/>
      <trkpt lat="36.892221852036727" lon="-5.460862716013516"/>
      <trkpt lat="36.892267977033526" lon="-5.461316530116063"/>
      <trkpt lat="36.892295867166368" lon="-5.461576321337148"/>
      <trkpt lat="36.892262545713137" lon="-5.461902477188065"/>
      <trkpt lat="36.892292219418863" lon="-5.462226031474998"/>
      <trkpt lat="36.892330890590813" lon="-5.462615178712202"/>
      <trkpt lat="36.8923369779098" lon="-5.462679959893931"/>
      <trkpt lat="36.892368840488238" lon="-5.463067422512111"/>
      <trkpt lat="36.892374357469279" lon="-5.463321326743561"/>
      <trkpt lat="36.892405329547167" lon="-5.463834382547013"/>
      <trkpt lat="36.892552858879441" lon="-5.464278122176294"/>
      <trkpt lat="36.892641062146083" lon="-5.464661901301983"/>
      <trkpt lat="36.892805499299143" lon="-5.465174554808469"/>
      <trkpt lat="36.892883726479774" lon="-5.465429790599011"/>
      <trkpt lat="36.892966812350323" lon="-5.465875305944366"/>
      <trkpt lat="36.893110455722947" lon="-5.466256168742236"/>
      <trkpt lat="36.893187808437638" lon="-5.466699724071772"/>
      <trkpt lat="36.893187716537348" lon="-5.467138378272475"/>
      <trkpt lat="36.893178957953573" lon="-5.467385354999345"/>
      <trkpt lat="36.893209102362412" lon="-5.467771994442087"/>
      <trkpt lat="36.893290056635401" lon="-5.46802859398531"/>
      <trkpt lat="36.893310154404162" lon="-5.468286419892435"/>
      <trkpt lat="36.893343445596798" lon="-5.46861204950293"/>
      <trkpt lat="36.893392907312673" lon="-5.469006962769908"/>
      <trkpt lat="36.893425906715038" lon="-5.469270446045236"/>
      <trkpt lat="36.893450671423437" lon="-5.469468170667851"/>
      <trkpt lat="36.893508496564543" lon="-5.469929891958052"/>
      <trkpt lat="36.893538587317217" lon="-5.470254937846267"/>
      <trkpt lat="36.893544205790221" lon="-5.470382062865858"/>
      <trkpt lat="36.893619094375651" lon="-5.471163658663102"/>
      <trkpt lat="36.893638796505989" lon="-5.47148389501276"/>
      <trkpt lat="36.893670217946003" lon="-5.472120160964195"/>
      <trkpt lat="36.893702012328767" lon="-5.472694042779964"/>
      <trkpt lat="36.893721526400881" lon="-5.473075519368402"/>
      <trkpt lat="36.893743839010028" lon="-5.473334622934255"/>
      <trkpt lat="36.893757345234917" lon="-5.473465430297416"/>
      <trkpt lat="36.893784362947663" lon="-5.47372711076613"/>
      <trkpt lat="36.893753036626777" lon="-5.473989599962409"/>
      <trkpt lat="36.893724157535971" lon="-5.474841722317026"/>
      <trkpt lat="36.893603236656737" lon="-5.475366785482073"/>
      <trkpt lat="36.893598912501751" lon="-5.475890912322242"/>
      <trkpt lat="36.893619146747731" lon="-5.476087403221354"/>
      <trkpt lat="36.893648853152612" lon="-5.476412562753983"/>
      <trkpt lat="36.893702482543389" lon="-5.476998066323081"/>
      <trkpt lat="36.893713044278073" lon="-5.477127359089914"/>
      <trkpt lat="36.89374414216207" lon="-5.477514871808467"/>
      <trkpt lat="36.893783401402047" lon="-5.478030137147474"/>
      <trkpt lat="36.893822421303213" lon="-5.478361669252543"/>
      <trkpt lat="36.893837651558783" lon="-5.478555249015292"/>
      <trkpt lat="36.893941681121163" lon="-5.479258809640571"/>
      <trkpt lat="36.893962806205792" lon="-5.479517480234576"/>
      <trkpt lat="36.893984363067503" lon="-5.479776464007474"/>
      <trkpt lat="36.894076894597873" lon="-5.480228034225412"/>
      <trkpt lat="36.894104359261227" lon="-5.480613161806898"/>
      <trkpt lat="36.894237501093613" lon="-5.48087040231791"/>
      <trkpt lat="36.89426953083251" lon="-5.481319781003263"/>
      <trkpt lat="36.894292405737417" lon="-5.481640704658074"/>
      <trkpt lat="36.89431527509165" lon="-5.481961586811252"/>
      <trkpt lat="36.894333680677803" lon="-5.482218343933166"/>
      <trkpt lat="36.894421176822433" lon="-5.482545188903525"/>
      <trkpt lat="36.894454355244413" lon="-5.482873880946548"/>
      <trkpt lat="36.894472418241861" lon="-5.483069750685007"/>
      <trkpt lat="36.894518118985253" lon="-5.483590239342361"/>
      <trkpt lat="36.894605093150517" lon="-5.4839172327281"/>
      <trkpt lat="36.894686428403062" lon="-5.484179338288715"/>
      <trkpt lat="36.894709199712608" lon="-5.48443974712439"/>
      <trkpt lat="36.894808107372469" lon="-5.48489782770254"/>
      <trkpt lat="36.894897108289378" lon="-5.485227109206233"/>
      <trkpt lat="36.894934092345153" lon="-5.485620391129951"/>
      <trkpt lat="36.894964916694917" lon="-5.485948212329157"/>
      <trkpt lat="36.895054762622422" lon="-5.486278661355959"/>
      <trkpt lat="36.895079446322818" lon="-5.486541107889634"/>
      <trkpt lat="36.895116478993842" lon="-5.486934881425713"/>
      <trkpt lat="36.895141173220729" lon="-5.487197461055942"/>
      <trkpt lat="36.895172046895432" lon="-5.487525756412332"/>
      <trkpt lat="36.895209233083342" lon="-5.487919918440777"/>
      <trkpt lat="36.895240282721147" lon="-5.488248530693247"/>
      <trkpt lat="36.89515312929597" lon="-5.488570956311351"/>
      <trkpt lat="36.895118881580473" lon="-5.488830636087464"/>
      <trkpt lat="36.895097050244267" lon="-5.489221651783805"/>
      <trkpt lat="36.895062820356529" lon="-5.489481161750001"/>
      <trkpt lat="36.894975802280079" lon="-5.489802843072371"/>
      <trkpt lat="36.894941608204547" lon="-5.490062117331734"/>
      <trkpt lat="36.894914203062669" lon="-5.49038765258214"/>
      <trkpt lat="36.894831600678323" lon="-5.490653084217081"/>
      <trkpt lat="36.894763403907582" lon="-5.491051655169823"/>
      <trkpt lat="36.894729978113062" lon="-5.491311232438693"/>
      <trkpt lat="36.894566374436231" lon="-5.491550836329621"/>
      <trkpt lat="36.894466744473803" lon="-5.491858320949536"/>
      <trkpt lat="36.894470711557751" lon="-5.491921752466925"/>
      <trkpt lat="36.894094098014122" lon="-5.492342879387171"/>
      <trkpt lat="36.893833825614117" lon="-5.492650694806644"/>
      <trkpt lat="36.893627198852052" lon="-5.492838665337855"/>
      <trkpt lat="36.893414700781449" lon="-5.493078995006041"/>
      <trkpt lat="36.893190668736182" lon="-5.493247127606054"/>
      <trkpt lat="36.893023009984887" lon="-5.493358528399154"/>
      <trkpt lat="36.892867339863813" lon="-5.493599318628119"/>
      <trkpt lat="36.892542555366518" lon="-5.493830609220968"/>
      <trkpt lat="36.892439814195917" lon="-5.494010668564963"/>
      <trkpt lat="36.892284006773693" lon="-5.494249107372172"/>
      <trkpt lat="36.892230898109361" lon="-5.494307717880337"/>
      <trkpt lat="36.891207728410492" lon="-5.494878757405694"/>
      <trkpt lat="36.890772894768361" lon="-5.495059928379186"/>
      <trkpt lat="36.890525293740637" lon="-5.495193326015294"/>
      <trkpt lat="36.890278311360113" lon="-5.495326388571438"/>
      <trkpt lat="36.889970464256074" lon="-5.495474667261025"/>
      <trkpt lat="36.889601978091811" lon="-5.495567830157482"/>
      <trkpt lat="36.889362300032133" lon="-5.495625558505683"/>
      <trkpt lat="36.889125718598493" lon="-5.495681063034416"/>
      <trkpt lat="36.888771716078352" lon="-5.495764106351389"/>
      <trkpt lat="36.888595073266707" lon="-5.49580555149086"/>
      <trkpt lat="36.88835994793088" lon="-5.495860700976149"/>
      <trkpt lat="36.888066666402771" lon="-5.495929501827074"/>
      <trkpt lat="36.887832531162729" lon="-5.495984424366311"/>
      <trkpt lat="36.887365597318642" lon="-5.496093956325244"/>
      <trkpt lat="36.887074652604923" lon="-5.496162201297498"/>
      <trkpt lat="36.886958466082802" lon="-5.496189453425532"/>
      <trkpt lat="36.886811241032987" lon="-5.49606666193093"/>
      <trkpt lat="36.886514680240928" lon="-5.49613962678281"/>
      <trkpt lat="36.886157956429948" lon="-5.496228533568084"/>
      <trkpt lat="36.885854861938043" lon="-5.4962381978727"/>
      <trkpt lat="36.885612797051976" lon="-5.496232100075563"/>
      <trkpt lat="36.88531121187755" lon="-5.496241745588362"/>
      <trkpt lat="36.885010468266238" lon="-5.496251359821212"/>
      <trkpt lat="36.884590164463319" lon="-5.496223535965652"/>
      <trkpt lat="36.884200239394751" lon="-5.49620773335743"/>
      <trkpt lat="36.883801795210807" lon="-5.496201488597591"/>
      <trkpt lat="36.883510615452337" lon="-5.496167878312845"/>
      <trkpt lat="36.883317039238172" lon="-5.496121722393879"/>
      <trkpt lat="36.883138758855623" lon="-5.496100468967999"/>
      <trkpt lat="36.882754355227362" lon="-5.496085197274789"/>
      <trkpt lat="36.882336389514471" lon="-5.49620235947539"/>
      <trkpt lat="36.882072077557908" lon="-5.496254018269373"/>
      <trkpt lat="36.881872123456333" lon="-5.496284549068542"/>
      <trkpt lat="36.8817175491303" lon="-5.496311911771546"/>
      <trkpt lat="36.881297665357728" lon="-5.496392698424792"/>
      <trkpt lat="36.881248346104897" lon="-5.496469027693728"/>
      <trkpt lat="36.880865448680439" lon="-5.496694023447586"/>
      <trkpt lat="36.880640446020656" lon="-5.496888124203014"/>
      <trkpt lat="36.880407986173701" lon="-5.49708954017026"/>
      <trkpt lat="36.880167110491833" lon="-5.497299370749521"/>
      <trkpt lat="36.879824332427951" lon="-5.497733712354993"/>
      <trkpt lat="36.879669756391337" lon="-5.497968294434444"/>
      <trkpt lat="36.879467837765709" lon="-5.498208292088954"/>
      <trkpt lat="36.879307913352839" lon="-5.498544594919188"/>
      <trkpt lat="36.879107120595613" lon="-5.498948591964695"/>
      <trkpt lat="36.878806261683792" lon="-5.499477094832635"/>
      <trkpt lat="36.878549804774288" lon="-5.500001847902341"/>
      <trkpt lat="36.878340128419282" lon="-5.50045235213474"/>
      <trkpt lat="36.878179927172148" lon="-5.500690563732507"/>
      <trkpt lat="36.877907004082637" lon="-5.501258090749429"/>
      <trkpt lat="36.877678527554338" lon="-5.50165595424354"/>
      <trkpt lat="36.877508473662857" lon="-5.501902185087364"/>
      <trkpt lat="36.877369518163583" lon="-5.502187159674213"/>
      <trkpt lat="36.877239053440142" lon="-5.502396951277362"/>
      <trkpt lat="36.877131840691703" lon="-5.50272053931157"/>
      <trkpt lat="36.876890445704717" lon="-5.503158662456473"/>
      <trkpt lat="36.876693165954237" lon="-5.5035258892589"/>
      <trkpt lat="36.876555755221723" lon="-5.503875514550129"/>
      <trkpt lat="36.876420243818863" lon="-5.504089249816134"/>
      <trkpt lat="36.876340234886953" lon="-5.504289767409394"/>
      <trkpt lat="36.876180468247313" lon="-5.504690437428966"/>
      <trkpt lat="36.876044562578763" lon="-5.505037987229775"/>
      <trkpt lat="36.875854527157003" lon="-5.505463780181542"/>
      <trkpt lat="36.875673571464461" lon="-5.505814978425018"/>
      <trkpt lat="36.875545287417403" lon="-5.506221542501423"/>
      <trkpt lat="36.875413454633012" lon="-5.506564285429913"/>
      <trkpt lat="36.875285546960001" lon="-5.506969933277935"/>
      <trkpt lat="36.875210010632827" lon="-5.507365056053272"/>
      <trkpt lat="36.875167879521292" lon="-5.507499616266864"/>
      <trkpt lat="36.875160781778732" lon="-5.508136188956765"/>
      <trkpt lat="36.875148544012113" lon="-5.508578350820597"/>
      <trkpt lat="36.875174358443822" lon="-5.508889127563128"/>
      <trkpt lat="36.875201332605528" lon="-5.509199101205922"/>
      <trkpt lat="36.875214470293493" lon="-5.509518833620466"/>
      <trkpt lat="36.875252456004901" lon="-5.509952574692885"/>
      <trkpt lat="36.875282504809263" lon="-5.510457282712013"/>
      <trkpt lat="36.875298840454093" lon="-5.510839638202082"/>
      <trkpt lat="36.875315610813402" lon="-5.511221258022376"/>
      <trkpt lat="36.875332361843533" lon="-5.511602497786234"/>
      <trkpt lat="36.875421303364433" lon="-5.51228777751081"/>
      <trkpt lat="36.875423795964153" lon="-5.512351379785548"/>
      <trkpt lat="36.875414279360101" lon="-5.512682077409073"/>
      <trkpt lat="36.875449910136432" lon="-5.513006576341956"/>
      <trkpt lat="36.875425283689431" lon="-5.513472862296794"/>
      <trkpt lat="36.87541502143754" lon="-5.513671867030956"/>
      <trkpt lat="36.875386828715563" lon="-5.514137164023252"/>
      <trkpt lat="36.87539127629617" lon="-5.514327361810562"/>
      <trkpt lat="36.875417722961032" lon="-5.51463435962709"/>
      <trkpt lat="36.875432249253357" lon="-5.514755245197833"/>
      <trkpt lat="36.875398870927278" lon="-5.515186113133313"/>
      <trkpt lat="36.875432541987387" lon="-5.515362107520208"/>
      <trkpt lat="36.875412753616942" lon="-5.515787975825997"/>
      <trkpt lat="36.875397820934673" lon="-5.515971584272505"/>
      <trkpt lat="36.875333693991557" lon="-5.516290543834456"/>
      <trkpt lat="36.875306880133223" lon="-5.516543795951893"/>
      <trkpt lat="36.875250367427732" lon="-5.517115382455432"/>
      <trkpt lat="36.875218273261247" lon="-5.517370697808541"/>
      <trkpt lat="36.875190769987327" lon="-5.517687856541987"/>
      <trkpt lat="36.875126639777022" lon="-5.518197933123989"/>
      <trkpt lat="36.875094594407997" lon="-5.518452815334097"/>
      <trkpt lat="36.87508086954238" lon="-5.518955115874629"/>
      <trkpt lat="36.87511290904709" lon="-5.519632442966622"/>
      <trkpt lat="36.875169833778948" lon="-5.520058322970675"/>
      <trkpt lat="36.875164691773513" lon="-5.520431909063236"/>
      <trkpt lat="36.875192283486832" lon="-5.520740544858407"/>
      <trkpt lat="36.875221655771547" lon="-5.5211751453893"/>
      <trkpt lat="36.875225897497529" lon="-5.521237262166332"/>
      <trkpt lat="36.875355237340997" lon="-5.521469184393824"/>
      <trkpt lat="36.875453445306682" lon="-5.521892825891097"/>
      <trkpt lat="36.875531506617968" lon="-5.522132268877955"/>
      <trkpt lat="36.875741590367532" lon="-5.522604471313778"/>
      <trkpt lat="36.875748053643868" lon="-5.522666219945086"/>
      <trkpt lat="36.875858499029697" lon="-5.522963503713758"/>
      <trkpt lat="36.875967792952267" lon="-5.523261655408961"/>
      <trkpt lat="36.876057394131777" lon="-5.523564157853794"/>
      <trkpt lat="36.876139298167551" lon="-5.523868152309542"/>
      <trkpt lat="36.876111411562299" lon="-5.524123358264362"/>
      <trkpt lat="36.87612909516514" lon="-5.52487630408921"/>
      <trkpt lat="36.876320480891977" lon="-5.525797500642849"/>
      <trkpt lat="36.876474125437987" lon="-5.526220751168596"/>
      <trkpt lat="36.87671394816617" lon="-5.52650797856781"/>
      <trkpt lat="36.876954417917993" lon="-5.526670190344801"/>
      <trkpt lat="36.877215096590248" lon="-5.527020658420981"/>
      <trkpt lat="36.87756240100061" lon="-5.527360617701508"/>
      <trkpt lat="36.877739366686463" lon="-5.527530860828733"/>
      <trkpt lat="36.877910257030031" lon="-5.527638530871005"/>
      <trkpt lat="36.878092745410363" lon="-5.527872083605537"/>
      <trkpt lat="36.878215114662709" lon="-5.52804893888267"/>
      <trkpt lat="36.878460177285227" lon="-5.528403119763984"/>
      <trkpt lat="36.8785889530619" lon="-5.52864345208283"/>
      <trkpt lat="36.878595037047859" lon="-5.528706466427522"/>
      <trkpt lat="36.878776250591713" lon="-5.528941314710693"/>
      <trkpt lat="36.878905323138227" lon="-5.529182181648028"/>
      <trkpt lat="36.879093050224768" lon="-5.529480755244645"/>
      <trkpt lat="36.879216716385443" lon="-5.529721844536705"/>
      <trkpt lat="36.880003321200853" lon="-5.531286324673085"/>
      <trkpt lat="36.880119157739912" lon="-5.531435430165268"/>
      <trkpt lat="36.880192283108187" lon="-5.531515329863156"/>
      <trkpt lat="36.880305362476903" lon="-5.531650066021177"/>
      <trkpt lat="36.880354524059747" lon="-5.531718260686911"/>
      <trkpt lat="36.880427964736292" lon="-5.531821235032082"/>
      <trkpt lat="36.880539604702598" lon="-5.531875890732377"/>
      <trkpt lat="36.88063928140209" lon="-5.531961408303152"/>
      <trkpt lat="36.880739277888047" lon="-5.532037157376346"/>
      <trkpt lat="36.880840597454949" lon="-5.53210213634712"/>
      <trkpt lat="36.880924479799383" lon="-5.532190895508091"/>
      <trkpt lat="36.880999940977738" lon="-5.532233263228773"/>
      <trkpt lat="36.88106461228994" lon="-5.532273035140747"/>
      <trkpt lat="36.881137200657932" lon="-5.532286182259271"/>
      <trkpt lat="36.88118222424319" lon="-5.532308217049483"/>
      <trkpt lat="36.881286144232817" lon="-5.532353979370026"/>
      <trkpt lat="36.881341789702191" lon="-5.532379719818229"/>
      <trkpt lat="36.881406405054769" lon="-5.532421098779027"/>
      <trkpt lat="36.881550843557598" lon="-5.532494134975887"/>
      <trkpt lat="36.881928909664943" lon="-5.532727465942865"/>
      <trkpt lat="36.882052103924877" lon="-5.532798000904976"/>
      <trkpt lat="36.882197049517771" lon="-5.532900080515581"/>
      <trkpt lat="36.882297344233898" lon="-5.532966113662311"/>
      <trkpt lat="36.88243751141777" lon="-5.533084804096032"/>
      <trkpt lat="36.882592757059648" lon="-5.53316193074485"/>
      <trkpt lat="36.882685246824849" lon="-5.533225443790682"/>
      <trkpt lat="36.882858760386057" lon="-5.533350650617868"/>
      <trkpt lat="36.882916733321807" lon="-5.533392779796545"/>
      <trkpt lat="36.882984535561597" lon="-5.53345180518603"/>
      <trkpt lat="36.883030163075063" lon="-5.533491193870635"/>
      <trkpt lat="36.883075920173013" lon="-5.533530694400412"/>
      <trkpt lat="36.883135072625812" lon="-5.533573266656822"/>
      <trkpt lat="36.883204201425208" lon="-5.533632924782731"/>
      <trkpt lat="36.883233542462008" lon="-5.533683803884823"/>
      <trkpt lat="36.883284596659763" lon="-5.533742548014113"/>
      <trkpt lat="36.883350902388017" lon="-5.533829706183175"/>
      <trkpt lat="36.883381616159653" lon="-5.533880715443691"/>
      <trkpt lat="36.883447597387097" lon="-5.533955805418289"/>
      <trkpt lat="36.8835169211223" lon="-5.534017266627592"/>
      <trkpt lat="36.883609367745933" lon="-5.534159304314553"/>
      <trkpt lat="36.883675243377631" lon="-5.534262270645694"/>
      <trkpt lat="36.883804848067591" lon="-5.534410478102131"/>
      <trkpt lat="36.883863133912357" lon="-5.534483431583918"/>
      <trkpt lat="36.883935235476052" lon="-5.534560203662801"/>
      <trkpt lat="36.884019476053084" lon="-5.534668440663744"/>
      <trkpt lat="36.884055604108603" lon="-5.534707299467518"/>
      <trkpt lat="36.884109373416877" lon="-5.534782751173451"/>
      <trkpt lat="36.88415331417032" lon="-5.534840395549394"/>
      <trkpt lat="36.88419499573213" lon="-5.534912416739266"/>
      <trkpt lat="36.884240895568922" lon="-5.534970083848664"/>
      <trkpt lat="36.884300449624249" lon="-5.535031663538401"/>
      <trkpt lat="36.884380219911037" lon="-5.5351300622994"/>
      <trkpt lat="36.884411531918481" lon="-5.535184841589064"/>
      <trkpt lat="36.884501167144563" lon="-5.535302511108153"/>
      <trkpt lat="36.884534848698941" lon="-5.535343285855841"/>
      <trkpt lat="36.884582042535918" lon="-5.535402181145387"/>
      <trkpt lat="36.884627119411441" lon="-5.535475744435936"/>
      <trkpt lat="36.884675454840611" lon="-5.53553493538249"/>
      <trkpt lat="36.88473404833104" lon="-5.535613008979787"/>
      <trkpt lat="36.884783953632883" lon="-5.535672504628694"/>
      <trkpt lat="36.884862748246299" lon="-5.535740154994774"/>
      <trkpt lat="36.884899770279702" lon="-5.535781573395853"/>
      <trkpt lat="36.884983824334682" lon="-5.535898191400296"/>
      <trkpt lat="36.885032108271147" lon="-5.535958893316089"/>
      <trkpt lat="36.885067389590461" lon="-5.536000972887207"/>
      <trkpt lat="36.885123263600867" lon="-5.536081276950396"/>
      <trkpt lat="36.885203533478517" lon="-5.536199923129677"/>
      <trkpt lat="36.88529423668863" lon="-5.536289051031816"/>
      <trkpt lat="36.885305850409758" lon="-5.536308243637911"/>
      <trkpt lat="36.88539077575809" lon="-5.536428002612947"/>
      <trkpt lat="36.885438446488408" lon="-5.536505327087311"/>
      <trkpt lat="36.885521260634007" lon="-5.536591498385518"/>
      <trkpt lat="36.88557018883931" lon="-5.536669456093687"/>
      <trkpt lat="36.885623555953437" lon="-5.536732510025963"/>
      <trkpt lat="36.88569922634435" lon="-5.536850369998874"/>
      <trkpt lat="36.885730824333912" lon="-5.536924797420229"/>
      <trkpt lat="36.885794010915617" lon="-5.537008508308181"/>
      <trkpt lat="36.885830664644921" lon="-5.537068094482026"/>
      <trkpt lat="36.885898327972889" lon="-5.53713705102667"/>
      <trkpt lat="36.885978829476549" lon="-5.537226342146418"/>
      <trkpt lat="36.886028270223207" lon="-5.537306679367684"/>
      <trkpt lat="36.886084506870297" lon="-5.537356396252074"/>
      <trkpt lat="36.886147063476251" lon="-5.537441866834535"/>
      <trkpt lat="36.886204343494583" lon="-5.537492016078493"/>
      <trkpt lat="36.886351864497101" lon="-5.537602560413498"/>
      <trkpt lat="36.886434746922319" lon="-5.537627059927096"/>
      <trkpt lat="36.886538141990201" lon="-5.537656808778508"/>
      <trkpt lat="36.886702125214889" lon="-5.537702252439053"/>
      <trkpt lat="36.886790989050041" lon="-5.537727499813434"/>
      <trkpt lat="36.886949049057968" lon="-5.537756982086977"/>
      <trkpt lat="36.887037445616187" lon="-5.537766303468174"/>
      <trkpt lat="36.887094903191731" lon="-5.537765744831207"/>
      <trkpt lat="36.88721034543503" lon="-5.537764621475278"/>
      <trkpt lat="36.887338271233133" lon="-5.537768221062047"/>
      <trkpt lat="36.887467808073339" lon="-5.537771894659613"/>
      <trkpt lat="36.887570039596852" lon="-5.537733208278165"/>
      <trkpt lat="36.887689557029482" lon="-5.537699410507563"/>
      <trkpt lat="36.887775170334997" lon="-5.537655325432582"/>
      <trkpt lat="36.887843777354718" lon="-5.537606051198959"/>
      <trkpt lat="36.887886796391768" lon="-5.537583888162413"/>
      <trkpt lat="36.88795145658225" lon="-5.537550575226153"/>
      <trkpt lat="36.88804060343746" lon="-5.537489791142357"/>
      <trkpt lat="36.888108274545367" lon="-5.537440017392945"/>
      <trkpt lat="36.88822578245599" lon="-5.537335145669779"/>
      <trkpt lat="36.888276547746401" lon="-5.537280114718863"/>
      <trkpt lat="36.888354807545973" lon="-5.537197465797417"/>
      <trkpt lat="36.888405299840912" lon="-5.537158563525683"/>
      <trkpt lat="36.888458552096459" lon="-5.537103275220758"/>
      <trkpt lat="36.888512956385632" lon="-5.537047903520143"/>
      <trkpt lat="36.888548803885648" lon="-5.53697124091422"/>
      <trkpt lat="36.88860622009468" lon="-5.536899366357534"/>
      <trkpt lat="36.888714225982042" lon="-5.53678790830075"/>
      <trkpt lat="36.888770505654058" lon="-5.536699392762271"/>
      <trkpt lat="36.888810370971179" lon="-5.536622345498942"/>
      <trkpt lat="36.888840679820902" lon="-5.536577991653605"/>
      <trkpt lat="36.888882327135732" lon="-5.536484504040464"/>
      <trkpt lat="36.888944359222272" lon="-5.536395530489717"/>
      <trkpt lat="36.88897895999655" lon="-5.536334625389734"/>
      <trkpt lat="36.889017133246277" lon="-5.536257312008677"/>
      <trkpt lat="36.889051784915686" lon="-5.536196313511963"/>
      <trkpt lat="36.889114078768813" lon="-5.536106925519885"/>
      <trkpt lat="36.889148808784817" lon="-5.536045796875328"/>
      <trkpt lat="36.889187108271791" lon="-5.535968242260618"/>
      <trkpt lat="36.889211259982453" lon="-5.535956172937317"/>
      <trkpt lat="36.889273816229078" lon="-5.535866396549753"/>
      <trkpt lat="36.889356183084857" lon="-5.535764595312374"/>
      <trkpt lat="36.889385815616443" lon="-5.535719687904741"/>
      <trkpt lat="36.889892782020141" lon="-5.535342783806439"/>
      <trkpt lat="36.889974233219569" lon="-5.535333429167756"/>
      <trkpt lat="36.890177222509443" lon="-5.53531088973023"/>
      <trkpt lat="36.89050012813555" lon="-5.535277281591078"/>
      <trkpt lat="36.890701690403311" lon="-5.535257053218551"/>
      <trkpt lat="36.890827625328612" lon="-5.535241317382066"/>
      <trkpt lat="36.891081722535979" lon="-5.535208519379992"/>
      <trkpt lat="36.891371389763478" lon="-5.535176369885276"/>
      <trkpt lat="36.891616674859357" lon="-5.535151803357464"/>
      <trkpt lat="36.891904832652507" lon="-5.535122368063782"/>
      <trkpt lat="36.89206936624042" lon="-5.535106014533042"/>
      <trkpt lat="36.892277260104123" lon="-5.535133669249569"/>
      <trkpt lat="36.892611103109218" lon="-5.535099025494224"/>
      <trkpt lat="36.892821650523153" lon="-5.535126140496168"/>
      <trkpt lat="36.892906682214047" lon="-5.535166349454311"/>
      <trkpt lat="36.893245140039348" lon="-5.535180521969073"/>
      <trkpt lat="36.893331380433018" lon="-5.535220485735898"/>
      <trkpt lat="36.893623956312787" lon="-5.535292788231759"/>
      <trkpt lat="36.893749688195683" lon="-5.535281080317351"/>
      <trkpt lat="36.893880818735973" lon="-5.535315909849389"/>
      <trkpt lat="36.894100056025117" lon="-5.535340736308568"/>
      <trkpt lat="36.894416864422432" lon="-5.535450680144144"/>
      <trkpt lat="36.894733256421958" lon="-5.535461907069403"/>
      <trkpt lat="36.894867525256707" lon="-5.535446303976086"/>
      <trkpt lat="36.895281320548143" lon="-5.535494990055764"/>
      <trkpt lat="36.895598241022427" lon="-5.535458425585862"/>
      <trkpt lat="36.895869003766059" lon="-5.53542828880616"/>
      <trkpt lat="36.896096425716458" lon="-5.535402576843391"/>
      <trkpt lat="36.896325383511531" lon="-5.535376376736307"/>
      <trkpt lat="36.896509043487661" lon="-5.535355418272863"/>
      <trkpt lat="36.896829273124673" lon="-5.535371425546959"/>
      <trkpt lat="36.897012748427628" lon="-5.535402816241453"/>
      <trkpt lat="36.897472586014842" lon="-5.535456703075548"/>
      <trkpt lat="36.897655318784473" lon="-5.535489929681154"/>
      <trkpt lat="36.897838853869068" lon="-5.535574752863263"/>
      <trkpt lat="36.898026983777051" lon="-5.535657587984005"/>
      <trkpt lat="36.898213737230357" lon="-5.535689906916436"/>
      <trkpt lat="36.898499027586901" lon="-5.53586655477059"/>
      <trkpt lat="36.898690756824557" lon="-5.535949640259269"/>
      <trkpt lat="36.898924601155343" lon="-5.536083425867381"/>
      <trkpt lat="36.899157765202332" lon="-5.536218412263282"/>
      <trkpt lat="36.899476545083353" lon="-5.536402322020095"/>
      <trkpt lat="36.899672721411832" lon="-5.536486122684103"/>
      <trkpt lat="36.899956483049444" lon="-5.536617947165804"/>
      <trkpt lat="36.900192482102867" lon="-5.536649924221267"/>
      <trkpt lat="36.900374798839522" lon="-5.536689301926653"/>
      <trkpt lat="36.900708775230619" lon="-5.536818086021842"/>
      <trkpt lat="36.90075640861906" lon="-5.536814219950578"/>
      <trkpt lat="36.901234387712293" lon="-5.536985692439437"/>
      <trkpt lat="36.901283880619602" lon="-5.537034158795295"/>
      <trkpt lat="36.901623657190697" lon="-5.537111094971845"/>
      <trkpt lat="36.901767890918379" lon="-5.537099278372875"/>
      <trkpt lat="36.902008719059118" lon="-5.537239993722668"/>
      <trkpt lat="36.902251297494459" lon="-5.537327415490982"/>
      <trkpt lat="36.902445277723757" lon="-5.537472903712093"/>
      <trkpt lat="36.90273785502967" lon="-5.537610760819023"/>
      <trkpt lat="36.902933866772557" lon="-5.537703003589504"/>
      <trkpt lat="36.903220530982168" lon="-5.537898905650068"/>
      <trkpt lat="36.903419675577553" lon="-5.538045154688938"/>
      <trkpt lat="36.903619694329841" lon="-5.538191781411531"/>
      <trkpt lat="36.903863115372879" lon="-5.538337631129814"/>
      <trkpt lat="36.904057227715349" lon="-5.538487601142032"/>
      <trkpt lat="36.90434891368804" lon="-5.538794930115593"/>
      <trkpt lat="36.904593101734633" lon="-5.53899740625161"/>
      <trkpt lat="36.904739821134463" lon="-5.539151945132742"/>
      <trkpt lat="36.904984973155557" lon="-5.539410163452528"/>
      <trkpt lat="36.905130228833713" lon="-5.539620764482303"/>
      <trkpt lat="36.905274461903829" lon="-5.539722766190923"/>
      <trkpt lat="36.905465981683143" lon="-5.539877612216275"/>
      <trkpt lat="36.905569282435799" lon="-5.540090019915464"/>
      <trkpt lat="36.905786965033712" lon="-5.54023865179314"/>
      <trkpt lat="36.905890984550027" lon="-5.540451863093315"/>
      <trkpt lat="36.906038794814449" lon="-5.540719489455636"/>
      <trkpt lat="36.906235172383553" lon="-5.541040669249037"/>
      <trkpt lat="36.906387013326842" lon="-5.541418821497502"/>
      <trkpt lat="36.906487276259718" lon="-5.541634852048331"/>
      <trkpt lat="36.906665478504173" lon="-5.541898318067312"/>
      <trkpt lat="36.906838103031937" lon="-5.542274676390938"/>
      <trkpt lat="36.906884720653721" lon="-5.54227347025212"/>
      <trkpt lat="36.907056514801219" lon="-5.542651409574267"/>
      <trkpt lat="36.907106495663868" lon="-5.542815998839584"/>
      <trkpt lat="36.907290102020731" lon="-5.543138039369607"/>
      <trkpt lat="36.907412604943843" lon="-5.54340910571136"/>
      <trkpt lat="36.907571408932156" lon="-5.543625965843382"/>
      <trkpt lat="36.907683139660882" lon="-5.543900036461632"/>
      <trkpt lat="36.90789711684311" lon="-5.544171862944824"/>
      <trkpt lat="36.908013063432627" lon="-5.544446657755361"/>
      <trkpt lat="36.908133151332123" lon="-5.544721534614795"/>
      <trkpt lat="36.908252341294137" lon="-5.544997196911634"/>
      <trkpt lat="36.908422772175683" lon="-5.545272500326029"/>
      <trkpt lat="36.908582586596523" lon="-5.545437359410883"/>
      <trkpt lat="36.908709070464297" lon="-5.545826757854283"/>
      <trkpt lat="36.908826658390652" lon="-5.546048979227386"/>
      <trkpt lat="36.908976344667238" lon="-5.546328910911349"/>
      <trkpt lat="36.909152864044593" lon="-5.546550993700618"/>
      <trkpt lat="36.909221808896099" lon="-5.54671865046355"/>
      <trkpt lat="36.909347620935577" lon="-5.546998907036339"/>
      <trkpt lat="36.909508270889553" lon="-5.54722373161826"/>
      <trkpt lat="36.909612930575364" lon="-5.547449578507281"/>
      <trkpt lat="36.909727508270123" lon="-5.547618610316441"/>
      <trkpt lat="36.909841850499873" lon="-5.54784474898621"/>
      <trkpt lat="36.909955205555868" lon="-5.548071328445426"/>
      <trkpt lat="36.910070221559863" lon="-5.548355169860367"/>
      <trkpt lat="36.91018459429187" lon="-5.548582615253697"/>
      <trkpt lat="36.910294167289749" lon="-5.548810515750491"/>
      <trkpt lat="36.910453837366269" lon="-5.549038937235197"/>
      <trkpt lat="36.910506158406697" lon="-5.549153214297031"/>
      <trkpt lat="36.910615260736179" lon="-5.54938202895785"/>
      <trkpt lat="36.9107268485565" lon="-5.549554064746705"/>
      <trkpt lat="36.910841621837037" lon="-5.54984082724681"/>
      <trkpt lat="36.91101038412345" lon="-5.550128634052069"/>
      <trkpt lat="36.911068750464871" lon="-5.550301188233662"/>
      <trkpt lat="36.911239603480603" lon="-5.550647488654951"/>
      <trkpt lat="36.911300523345552" lon="-5.550878099645564"/>
      <trkpt lat="36.911420614865911" lon="-5.551110084698692"/>
      <trkpt lat="36.911485598341862" lon="-5.551341523965063"/>
      <trkpt lat="36.91160941490385" lon="-5.551632138593675"/>
      <trkpt lat="36.911729217119067" lon="-5.551807829400628"/>
      <trkpt lat="36.91185385755773" lon="-5.55209958433485"/>
      <trkpt lat="36.911975464599323" lon="-5.55233395768205"/>
      <trkpt lat="36.912149081630872" lon="-5.552627745554549"/>
      <trkpt lat="36.9122081009818" lon="-5.552803078357376"/>
      <trkpt lat="36.912438199101437" lon="-5.553099638488158"/>
      <trkpt lat="36.912611509456127" lon="-5.55333723650495"/>
      <trkpt lat="36.912728951950079" lon="-5.553631664819668"/>
      <trkpt lat="36.912957249152477" lon="-5.55393030845437"/>
      <trkpt lat="36.913068520858658" lon="-5.554166912817472"/>
      <trkpt lat="36.913180000917272" lon="-5.554345608709595"/>
      <trkpt lat="36.913355027368347" lon="-5.554527660945742"/>
      <trkpt lat="36.913528693668198" lon="-5.554768322129933"/>
      <trkpt lat="36.913756098446548" lon="-5.554952932364272"/>
      <trkpt lat="36.913987090829337" lon="-5.555079942234213"/>
      <trkpt lat="36.91427683708617" lon="-5.555268610636855"/>
      <trkpt lat="36.914393318269511" lon="-5.555391319617101"/>
      <trkpt lat="36.914803290752559" lon="-5.555586838105401"/>
      <trkpt lat="36.914980665298351" lon="-5.555713247337852"/>
      <trkpt lat="36.91527694427004" lon="-5.555904866556265"/>
      <trkpt lat="36.91545547927786" lon="-5.556091253169578"/>
      <trkpt lat="36.915692862649067" lon="-5.556221715243122"/>
      <trkpt lat="36.915989304785562" lon="-5.556474234607301"/>
      <trkpt lat="36.916229232416867" lon="-5.556665412202276"/>
      <trkpt lat="36.916530311231988" lon="-5.556979790203608"/>
      <trkpt lat="36.916651924754348" lon="-5.557106056422189"/>
      <trkpt lat="36.916953490749208" lon="-5.557362233376818"/>
      <trkpt lat="36.917195275293267" lon="-5.557436125366944"/>
      <trkpt lat="36.917439352600091" lon="-5.557510541243206"/>
      <trkpt lat="36.917754135385373" lon="-5.557530392564413"/>
      <trkpt lat="36.918070334304488" lon="-5.557550333651094"/>
      <trkpt lat="36.918910455083868" lon="-5.55800389794237"/>
      <trkpt lat="36.919055909062749" lon="-5.558030085195995"/>
      <trkpt lat="36.919238231943858" lon="-5.558051256590183"/>
      <trkpt lat="36.919457841206473" lon="-5.558020733065305"/>
      <trkpt lat="36.919604677776221" lon="-5.558000325211808"/>
      <trkpt lat="36.919862265517438" lon="-5.558058147250366"/>
      <trkpt lat="36.919936118994833" lon="-5.558047940705496"/>
      <trkpt lat="36.920083875251287" lon="-5.558121307250016"/>
      <trkpt lat="36.920232082630598" lon="-5.558147881794841"/>
      <trkpt lat="36.92045500269694" lon="-5.558211387012156"/>
      <trkpt lat="36.920641442460962" lon="-5.55823306797457"/>
      <trkpt lat="36.920790964234627" lon="-5.55825989356458"/>
      <trkpt lat="36.920865905906282" lon="-5.558249724615387"/>
      <trkpt lat="36.921090984056313" lon="-5.558361022227833"/>
      <trkpt lat="36.921241579498769" lon="-5.558388096627725"/>
      <trkpt lat="36.921392432555137" lon="-5.558462637226399"/>
      <trkpt lat="36.921657349589708" lon="-5.558569760305666"/>
      <trkpt lat="36.92177115854475" lon="-5.558649770477205"/>
      <trkpt lat="36.921923374172572" lon="-5.558677336265476"/>
      <trkpt lat="36.922037749795003" lon="-5.558709962411042"/>
      <trkpt lat="36.922228813493078" lon="-5.558780386177769"/>
      <trkpt lat="36.922497234663119" lon="-5.558888886717043"/>
      <trkpt lat="36.922805431825147" lon="-5.558992907917606"/>
      <trkpt lat="36.92296004654105" lon="-5.559069104460511"/>
      <trkpt lat="36.92307638539026" lon="-5.559054319562115"/>
      <trkpt lat="36.923270591996733" lon="-5.559125813527354"/>
      <trkpt lat="36.923387275387711" lon="-5.559255450770833"/>
      <trkpt lat="36.923543395181873" lon="-5.559284085961033"/>
      <trkpt lat="36.923699888935758" lon="-5.559312796090417"/>
      <trkpt lat="36.923935249763858" lon="-5.559428497955984"/>
      <trkpt lat="36.924211023863919" lon="-5.559491351565552"/>
      <trkpt lat="36.924448319157698" lon="-5.559559310831097"/>
      <trkpt lat="36.924607023027527" lon="-5.559588554508457"/>
      <trkpt lat="36.924766115172169" lon="-5.559617874142227"/>
      <trkpt lat="36.925045499897088" lon="-5.559632785266523"/>
      <trkpt lat="36.925205603469287" lon="-5.559711069625008"/>
      <trkpt lat="36.925446613078627" lon="-5.559731047758996"/>
      <trkpt lat="36.925607759523871" lon="-5.559760732440489"/>
      <trkpt lat="36.925890823876053" lon="-5.559726972727853"/>
      <trkpt lat="36.926093711318607" lon="-5.559751922578369"/>
      <trkpt lat="36.926297211207427" lon="-5.559776947350573"/>
      <trkpt lat="36.926460405962331" lon="-5.559856162122015"/>
      <trkpt lat="36.926706060238367" lon="-5.559876605730192"/>
      <trkpt lat="36.926993824903548" lon="-5.559892300918561"/>
      <trkpt lat="36.927200116114783" lon="-5.55991771595013"/>
      <trkpt lat="36.927489934374726" lon="-5.560032903930764"/>
      <trkpt lat="36.92765619391254" lon="-5.560013692169762"/>
      <trkpt lat="36.927864508842667" lon="-5.560089236519787"/>
      <trkpt lat="36.928199089791299" lon="-5.560300488976125"/>
      <trkpt lat="36.928409073045522" lon="-5.560426817830592"/>
      <trkpt lat="36.928577551432937" lon="-5.560508129577818"/>
      <trkpt lat="36.928661951194307" lon="-5.560548866222805"/>
      <trkpt lat="36.928915704936522" lon="-5.560771806418789"/>
      <trkpt lat="36.929000488416357" lon="-5.560863051455296"/>
      <trkpt lat="36.929170427608703" lon="-5.560995595131971"/>
      <trkpt lat="36.929298014762892" lon="-5.561284071156448"/>
      <trkpt lat="36.929425971885813" lon="-5.561421882796878"/>
      <trkpt lat="36.929554097533547" lon="-5.5616608776325"/>
      <trkpt lat="36.929682467470982" lon="-5.561900341065482"/>
      <trkpt lat="36.929768164398752" lon="-5.562093938630881"/>
      <trkpt lat="36.929810979331762" lon="-5.562291959452061"/>
      <trkpt lat="36.929982890976021" lon="-5.562579047706631"/>
      <trkpt lat="36.930068944457041" lon="-5.562824202006561"/>
      <trkpt lat="36.930198325314699" lon="-5.563065747242214"/>
      <trkpt lat="36.930241420678811" lon="-5.56326475033266"/>
      <trkpt lat="36.930285322745178" lon="-5.563564910607086"/>
      <trkpt lat="36.930373118658018" lon="-5.563759772227735"/>
      <trkpt lat="36.930417504267979" lon="-5.563958653625626"/>
      <trkpt lat="36.930462142754791" lon="-5.564208389862467"/>
      <trkpt lat="36.930463465560173" lon="-5.564512617000138"/>
      <trkpt lat="36.930508813962007" lon="-5.5649149234146"/>
      <trkpt lat="36.930553309960047" lon="-5.565114529927468"/>
      <trkpt lat="36.930554421080743" lon="-5.565368372131704"/>
      <trkpt lat="36.930600515156932" lon="-5.5659238741128"/>
      <trkpt lat="36.930645316452868" lon="-5.566174914702835"/>
      <trkpt lat="36.930690152110472" lon="-5.566426160628519"/>
      <trkpt lat="36.930735249250517" lon="-5.566728501865406"/>
      <trkpt lat="36.930823973648039" lon="-5.566977423411571"/>
      <trkpt lat="36.930913283959548" lon="-5.567328655457398"/>
      <trkpt lat="36.930958102928329" lon="-5.567529974582709"/>
      <trkpt lat="36.93104739082645" lon="-5.567831005861004"/>
      <trkpt lat="36.931136579204797" lon="-5.568081410129154"/>
      <trkpt lat="36.931226366431758" lon="-5.568434437329027"/>
      <trkpt lat="36.931270727693672" lon="-5.568483281133898"/>
      <trkpt lat="36.931449180478872" lon="-5.568832674330992"/>
      <trkpt lat="36.931583539255477" lon="-5.569133840314734"/>
      <trkpt lat="36.931583779509467" lon="-5.569185129636284"/>
      <trkpt lat="36.931717942683044" lon="-5.569384315025456"/>
      <trkpt lat="36.931941769745812" lon="-5.569631491439573"/>
      <trkpt lat="36.931986625730651" lon="-5.569681029393411"/>
      <trkpt lat="36.932253845734913" lon="-5.56997963902948"/>
      <trkpt lat="36.932253932581382" lon="-5.570031246977635"/>
      <trkpt lat="36.932387620697199" lon="-5.57018112458476"/>
      <trkpt lat="36.932521573325097" lon="-5.57033130030402"/>
      <trkpt lat="36.932835040255078" lon="-5.57063100075079"/>
      <trkpt lat="36.932835137175253" lon="-5.570682838839891"/>
      <trkpt lat="36.933014859625317" lon="-5.570832533380994"/>
      <trkpt lat="36.933195148409851" lon="-5.571034594481105"/>
      <trkpt lat="36.933375906464711" lon="-5.571237180108439"/>
      <trkpt lat="36.933557137060923" lon="-5.571440298777784"/>
      <trkpt lat="36.933784344358457" lon="-5.571694949060064"/>
      <trkpt lat="36.934057976500718" lon="-5.572001628720401"/>
      <trkpt lat="36.934516317332637" lon="-5.572462980324841"/>
      <trkpt lat="36.934746560768282" lon="-5.572668506509322"/>
      <trkpt lat="36.935023873911547" lon="-5.572926569894513"/>
      <trkpt lat="36.935255903262203" lon="-5.573186376626541"/>
      <trkpt lat="36.935628377554153" lon="-5.573445120831782"/>
      <trkpt lat="36.935768703138038" lon="-5.57360208889485"/>
      <trkpt lat="36.93600294145989" lon="-5.573758286717446"/>
      <trkpt lat="36.936238724556958" lon="-5.573968093318959"/>
      <trkpt lat="36.936380450991763" lon="-5.574019831599988"/>
      <trkpt lat="36.93661747364191" lon="-5.574177345096054"/>
      <trkpt lat="36.936807744161847" lon="-5.574335755604785"/>
      <trkpt lat="36.93709390642195" lon="-5.574493965137589"/>
      <trkpt lat="36.937285319357258" lon="-5.57459979082766"/>
      <trkpt lat="36.937525383575711" lon="-5.57475929812639"/>
      <trkpt lat="36.937814596223419" lon="-5.574972917700699"/>
      <trkpt lat="36.938056452074093" lon="-5.575133653646772"/>
      <trkpt lat="36.938299286750123" lon="-5.575348873348033"/>
      <trkpt lat="36.938493961074627" lon="-5.575456763753862"/>
      <trkpt lat="36.938737963629407" lon="-5.57556498195768"/>
      <trkpt lat="36.938982959457043" lon="-5.57572777082012"/>
      <trkpt lat="36.939179658155297" lon="-5.575890968242666"/>
      <trkpt lat="36.939278295806297" lon="-5.575999894782115"/>
      <trkpt lat="36.939524967919517" lon="-5.576109632960748"/>
      <trkpt lat="36.939722980647772" lon="-5.576219488285645"/>
      <trkpt lat="36.940071075833892" lon="-5.576494389150507"/>
      <trkpt lat="36.940580181875127" lon="-5.576772180801189"/>
      <trkpt lat="36.940956994704663" lon="-5.576995897300075"/>
      <trkpt lat="36.94128229885262" lon="-5.577165170351901"/>
      <trkpt lat="36.941555232737237" lon="-5.577279322926744"/>
      <trkpt lat="36.941882866350078" lon="-5.577505629179181"/>
      <trkpt lat="36.941992798841262" lon="-5.577562860412304"/>
      <trkpt lat="36.942269013012037" lon="-5.577678620518784"/>
      <trkpt lat="36.942657672018981" lon="-5.577852739151057"/>
      <trkpt lat="36.943097350279103" lon="-5.578140665693595"/>
      <trkpt lat="36.943461823881918" lon="-5.578371678988788"/>
      <trkpt lat="36.943852328462881" lon="-5.578549282061537"/>
      <trkpt lat="36.944174374235743" lon="-5.578781931457454"/>
      <trkpt lat="36.944439650388318" lon="-5.578900884809364"/>
      <trkpt lat="36.944705870247759" lon="-5.579020258971389"/>
      <trkpt lat="36.945026666228927" lon="-5.579198139464704"/>
      <trkpt lat="36.945241562315978" lon="-5.57943086287056"/>
      <trkpt lat="36.945672818080403" lon="-5.579727272996344"/>
      <trkpt lat="36.945726812850218" lon="-5.57972878877087"/>
      <trkpt lat="36.945888957669233" lon="-5.579904619492043"/>
      <trkpt lat="36.946101608945902" lon="-5.580024864597696"/>
      <trkpt lat="36.946379350989297" lon="-5.580205483796363"/>
      <trkpt lat="36.946549852304607" lon="-5.580268690604001"/>
      <trkpt lat="36.946958782907423" lon="-5.580513762459311"/>
      <trkpt lat="36.947248014442522" lon="-5.580697476249491"/>
      <trkpt lat="36.947425987835928" lon="-5.58087785619652"/>
      <trkpt lat="36.947660432988883" lon="-5.581060833263399"/>
      <trkpt lat="36.947925901348484" lon="-5.581243177792484"/>
      <trkpt lat="36.948103757808163" lon="-5.581535381651973"/>
      <trkpt lat="36.948258472463088" lon="-5.581656220720155"/>
      <trkpt lat="36.948615634912713" lon="-5.582073781398739"/>
      <trkpt lat="36.948820274437253" lon="-5.582313026278955"/>
      <trkpt lat="36.949076629182542" lon="-5.582612739381482"/>
      <trkpt lat="36.949282164834671" lon="-5.582853031401374"/>
      <trkpt lat="36.949611252045827" lon="-5.583173606484083"/>
      <trkpt lat="36.949764516375289" lon="-5.583354737536141"/>
      <trkpt lat="36.949917991125993" lon="-5.58353611766059"/>
      <trkpt lat="36.950071675548017" lon="-5.583717746707513"/>
      <trkpt lat="36.950225572086758" lon="-5.583899626022092"/>
      <trkpt lat="36.950391913741854" lon="-5.584142863259403"/>
      <trkpt lat="36.950571689677403" lon="-5.584330365139096"/>
      <trkpt lat="36.950752469404193" lon="-5.584577366739559"/>
      <trkpt lat="36.950993520757187" lon="-5.584828884031673"/>
      <trkpt lat="36.951114359396414" lon="-5.584954970195502"/>
      <trkpt lat="36.951902710038837" lon="-5.584913502063324"/>
      <trkpt lat="36.952078515115801" lon="-5.584813079358662"/>
      <trkpt lat="36.952253900223063" lon="-5.58475880343122"/>
      <trkpt lat="36.952500000571838" lon="-5.584746812278409"/>
      <trkpt lat="36.952712147314593" lon="-5.584736237243532"/>
      <trkpt lat="36.952818507392678" lon="-5.58473090263122"/>
      <trkpt lat="36.952995849135377" lon="-5.584722223578783"/>
      <trkpt lat="36.953174343174453" lon="-5.58466697050072"/>
      <trkpt lat="36.953424535974037" lon="-5.584608218879572"/>
      <trkpt lat="36.953639964253803" lon="-5.584550925930887"/>
      <trkpt lat="36.953855909626299" lon="-5.58453990064886"/>
      <trkpt lat="36.954112818354673" lon="-5.584524208779365"/>
      <trkpt lat="36.954297093948128" lon="-5.584512905071156"/>
      <trkpt lat="36.954556127351474" lon="-5.584497014597619"/>
      <trkpt lat="36.954891268814741" lon="-5.584523050973265"/>
      <trkpt lat="36.955039481603677" lon="-5.584561571081088"/>
      <trkpt lat="36.955297138223983" lon="-5.584642599959475"/>
      <trkpt lat="36.955445281831693" lon="-5.58477600964985"/>
      <trkpt lat="36.95559384714408" lon="-5.584862670049347"/>
      <trkpt lat="36.955706042303952" lon="-5.58499811932702"/>
      <trkpt lat="36.955970172016968" lon="-5.58526718811624"/>
      <trkpt lat="36.956159858735148" lon="-5.585541092890841"/>
      <trkpt lat="36.956350050078761" lon="-5.585768650372129"/>
      <trkpt lat="36.956461158552258" lon="-5.585907086610512"/>
      <trkpt lat="36.956534721373231" lon="-5.585999764160796"/>
      <trkpt lat="36.956687839198899" lon="-5.586182890808282"/>
      <trkpt lat="36.956880239350262" lon="-5.58636475693571"/>
      <trkpt lat="36.957073464391989" lon="-5.586499498218621"/>
      <trkpt lat="36.957224535386693" lon="-5.586590053368639"/>
      <trkpt lat="36.957339335839293" lon="-5.586681562384125"/>
      <trkpt lat="36.957570136337857" lon="-5.586769094914859"/>
      <trkpt lat="36.957760745428352" lon="-5.586859095292509"/>
      <trkpt lat="36.95799006468593" lon="-5.586948234125564"/>
      <trkpt lat="36.958181660998221" lon="-5.587038839862776"/>
      <trkpt lat="36.958413451696231" lon="-5.587080072584304"/>
      <trkpt lat="36.958801313519459" lon="-5.587165287614666"/>
      <trkpt lat="36.958879444659843" lon="-5.587162968088805"/>
      <trkpt lat="36.959191448405797" lon="-5.587202518596963"/>
      <trkpt lat="36.95938637144485" lon="-5.587197244956529"/>
      <trkpt lat="36.959777830521233" lon="-5.587186656683131"/>
      <trkpt lat="36.959975588463401" lon="-5.58713227526758"/>
      <trkpt lat="36.960214780406687" lon="-5.587125062756442"/>
      <trkpt lat="36.960414580734117" lon="-5.58707020404298"/>
      <trkpt lat="36.960614978219297" lon="-5.587015177487547"/>
      <trkpt lat="36.960813925392053" lon="-5.586960557432609"/>
      <trkpt lat="36.961053065279067" lon="-5.586855623017042"/>
      <trkpt lat="36.961332775708549" lon="-5.586650852489288"/>
      <trkpt lat="36.961499589163843" lon="-5.586545659493513"/>
      <trkpt lat="36.961750719728997" lon="-5.586387307003263"/>
      <trkpt lat="36.961918113388407" lon="-5.586232104898975"/>
      <trkpt lat="36.962086613709317" lon="-5.586125779394044"/>
      <trkpt lat="36.962254959871032" lon="-5.585969760440507"/>
      <trkpt lat="36.962380385824773" lon="-5.585765973215513"/>
      <trkpt lat="36.962549546218661" lon="-5.58560907119133"/>
      <trkpt lat="36.96267623062284" lon="-5.585453962076397"/>
      <trkpt lat="36.96284554610385" lon="-5.585246649012082"/>
      <trkpt lat="36.963057846799558" lon="-5.584986704160238"/>
      <trkpt lat="36.963228209472973" lon="-5.584778111358087"/>
      <trkpt lat="36.963314328773841" lon="-5.584723320127875"/>
      <trkpt lat="36.963616487700811" lon="-5.584455832032951"/>
      <trkpt lat="36.963832891165261" lon="-5.584242546652724"/>
      <trkpt lat="36.963959665388579" lon="-5.584135594190906"/>
      <trkpt lat="36.96408579728768" lon="-5.584028788628572"/>
      <trkpt lat="36.964338601096699" lon="-5.583764264392517"/>
      <trkpt lat="36.964549964238813" lon="-5.583551527742091"/>
      <trkpt lat="36.964719521264414" lon="-5.583390985393565"/>
      <trkpt lat="36.96482514680546" lon="-5.583327585291937"/>
      <trkpt lat="36.965126058897823" lon="-5.583158224555782"/>
      <trkpt lat="36.965425907641638" lon="-5.583039916506465"/>
      <trkpt lat="36.965468068722203" lon="-5.583037811066623"/>
      <trkpt lat="36.96590784788561" lon="-5.582958991713758"/>
      <trkpt lat="36.966089344136648" lon="-5.582945892565812"/>
      <trkpt lat="36.966272786516782" lon="-5.582932203133004"/>
      <trkpt lat="36.966410765750197" lon="-5.58292190659703"/>
      <trkpt lat="36.966682986445242" lon="-5.583057143881521"/>
      <trkpt lat="36.967002966661283" lon="-5.583189663400639"/>
      <trkpt lat="36.967231303266708" lon="-5.583277838973343"/>
      <trkpt lat="36.967368829696312" lon="-5.583372201482639"/>
      <trkpt lat="36.967690398971087" lon="-5.583558881047446"/>
      <trkpt lat="36.968020300590013" lon="-5.583692426999453"/>
      <trkpt lat="36.968345352573301" lon="-5.583881019253386"/>
      <trkpt lat="36.968531217104861" lon="-5.584026708061484"/>
      <trkpt lat="36.968810992559924" lon="-5.58421992637769"/>
      <trkpt lat="36.968950753619893" lon="-5.584369399532903"/>
      <trkpt lat="36.969185729923012" lon="-5.584461531221082"/>
      <trkpt lat="36.969375811965513" lon="-5.584556086587389"/>
      <trkpt lat="36.969694812801443" lon="-5.584752685392774"/>
      <trkpt lat="36.969828408897008" lon="-5.584853190611412"/>
      <trkpt lat="36.970078450329929" lon="-5.584996587229871"/>
      <trkpt lat="36.970429276287732" lon="-5.585135178995405"/>
      <trkpt lat="36.970573442987757" lon="-5.585181375020171"/>
      <trkpt lat="36.970853205317631" lon="-5.585276376950703"/>
      <trkpt lat="36.971183153182501" lon="-5.585422675782192"/>
      <trkpt lat="36.971470105555213" lon="-5.585570901060084"/>
      <trkpt lat="36.97179906463451" lon="-5.585665833847555"/>
      <trkpt lat="36.971988184700599" lon="-5.585712557282257"/>
      <trkpt lat="36.972174570931628" lon="-5.585706398681637"/>
      <trkpt lat="36.972363355579283" lon="-5.585753528684018"/>
      <trkpt lat="36.972504315422754" lon="-5.585748819215732"/>
      <trkpt lat="36.972828164144502" lon="-5.585739047287566"/>
      <trkpt lat="36.97306404023788" lon="-5.585731264769605"/>
      <trkpt lat="36.973401376387031" lon="-5.5857191320706"/>
      <trkpt lat="36.973643134323972" lon="-5.5857104821125"/>
      <trkpt lat="36.973837160698139" lon="-5.585703487447443"/>
      <trkpt lat="36.974087658018952" lon="-5.585747635969791"/>
      <trkpt lat="36.97423836629924" lon="-5.585795969021872"/>
      <trkpt lat="36.974338053053472" lon="-5.58584661545447"/>
      <trkpt lat="36.974686591001252" lon="-5.58588816221654"/>
      <trkpt lat="36.975038151878387" lon="-5.586093812895187"/>
      <trkpt lat="36.975380712306972" lon="-5.58613788082718"/>
      <trkpt lat="36.975576699833077" lon="-5.58624164340471"/>
      <trkpt lat="36.975824559354088" lon="-5.586288872366671"/>
      <trkpt lat="36.975926975870358" lon="-5.586340309832408"/>
      <trkpt lat="36.976545091920777" lon="-5.586484673207782"/>
      <trkpt lat="36.976650193120342" lon="-5.5864809330982"/>
      <trkpt lat="36.977086006755613" lon="-5.586463854744369"/>
      <trkpt lat="36.977418197268513" lon="-5.586450440931548"/>
      <trkpt lat="36.977806289466997" lon="-5.586434957678449"/>
      <trkpt lat="36.97824243107322" lon="-5.586418769345265"/>
      <trkpt lat="36.978721214689394" lon="-5.586346510349488"/>
      <trkpt lat="36.979140470382227" lon="-5.586333414340821"/>
      <trkpt lat="36.97952453053972" lon="-5.586319587761359"/>
      <trkpt lat="36.97989060775663" lon="-5.586252015047685"/>
      <trkpt lat="36.980319772118399" lon="-5.586238040967442"/>
      <trkpt lat="36.980372143791747" lon="-5.586236507447291"/>
      <trkpt lat="36.980684751676669" lon="-5.586227606770615"/>
      <trkpt lat="36.981060513517427" lon="-5.58621577965183"/>
      <trkpt lat="36.981382037807549" lon="-5.586205889807408"/>
      <trkpt lat="36.981758801571601" lon="-5.586194303047186"/>
      <trkpt lat="36.981812769761312" lon="-5.586192641418531"/>
      <trkpt lat="36.982137620229892" lon="-5.586412590302967"/>
      <trkpt lat="36.982409562009813" lon="-5.586634947972584"/>
      <trkpt lat="36.982627966242262" lon="-5.58680183522645"/>
      <trkpt lat="36.982792474135437" lon="-5.58702831031833"/>
      <trkpt lat="36.982847153864107" lon="-5.587026924907464"/>
      <trkpt lat="36.983067730112019" lon="-5.587310405949025"/>
      <trkpt lat="36.983234179921098" lon="-5.587537962965765"/>
      <trkpt lat="36.984097846134667" lon="-5.587586920196165"/>
      <trkpt lat="36.984414019915853" lon="-5.587726812230991"/>
      <trkpt lat="36.985011300765343" lon="-5.588009325699471"/>
      <trkpt lat="36.985453273474242" lon="-5.588296462074687"/>
      <trkpt lat="36.985979703169448" lon="-5.58863402188596"/>
      <trkpt lat="36.986469361082271" lon="-5.58887613605918"/>
      <trkpt lat="36.986715535988239" lon="-5.588973208954892"/>
      <trkpt lat="36.987043693663509" lon="-5.589070327898009"/>
      <trkpt lat="36.98753810074659" lon="-5.589117549116135"/>
      <trkpt lat="36.987786807401577" lon="-5.589116381102049"/>
      <trkpt lat="36.988034857468001" lon="-5.589115312874443"/>
      <trkpt lat="36.988200239096081" lon="-5.58911462629464"/>
      <trkpt lat="36.988612958235322" lon="-5.589113051577294"/>
      <trkpt lat="36.988695561196479" lon="-5.589112748743466"/>
      <trkpt lat="36.988985389543593" lon="-5.589111690558336"/>
      <trkpt lat="36.989317995574112" lon="-5.589110475356187"/>
      <trkpt lat="36.989610715968837" lon="-5.589159813056432"/>
      <trkpt lat="36.98990464401912" lon="-5.589209346198681"/>
      <trkpt lat="36.990245842986297" lon="-5.589309421817562"/>
      <trkpt lat="36.990288544447097" lon="-5.589309300464974"/>
      <trkpt lat="36.990847254533158" lon="-5.589460297458423"/>
      <trkpt lat="36.991196065154682" lon="-5.589612608993907"/>
      <trkpt lat="36.991679222190598" lon="-5.589714505551049"/>
      <trkpt lat="36.992163947185219" lon="-5.589919928128188"/>
      <trkpt lat="36.992431559922068" lon="-5.589971733360572"/>
      <trkpt lat="36.992705095364258" lon="-5.590126894100478"/>
      <trkpt lat="36.992930295336393" lon="-5.590179195109042"/>
      <trkpt lat="36.993156264826077" lon="-5.590231675551424"/>
      <trkpt lat="36.993340598144627" lon="-5.590336013687075"/>
      <trkpt lat="36.993615595915912" lon="-5.590441118206742"/>
      <trkpt lat="36.993890815567582" lon="-5.590546667533901"/>
      <trkpt lat="36.994213073316168" lon="-5.590652964074011"/>
      <trkpt lat="36.994351749045329" lon="-5.590706147599774"/>
      <trkpt lat="36.994631902739208" lon="-5.590812886718009"/>
      <trkpt lat="36.994771872221229" lon="-5.59086642008285"/>
      <trkpt lat="36.995053163096578" lon="-5.590973852497374"/>
      <trkpt lat="36.995100821978191" lon="-5.591026860906436"/>
      <trkpt lat="36.995288947880113" lon="-5.591081292728086"/>
      <trkpt lat="36.995478466475539" lon="-5.591188627885469"/>
      <trkpt lat="36.995763799699183" lon="-5.591350224038018"/>
      <trkpt lat="36.996052680911653" lon="-5.591565617196986"/>
      <trkpt lat="36.996386368944478" lon="-5.591676287231493"/>
      <trkpt lat="36.996778675382288" lon="-5.591895259801809"/>
      <trkpt lat="36.996826913743327" lon="-5.591949322699428"/>
      <trkpt lat="36.997213446292641" lon="-5.592169390902528"/>
      <trkpt lat="36.997262744415323" lon="-5.592223796250075"/>
      <trkpt lat="36.997459635118069" lon="-5.592334612851491"/>
      <trkpt lat="36.997657495599967" lon="-5.592445813291147"/>
      <trkpt lat="36.997855976162711" lon="-5.592557364276146"/>
      <trkpt lat="36.998056737702818" lon="-5.592723216607874"/>
      <trkpt lat="36.998353384116733" lon="-5.59289159196593"/>
      <trkpt lat="36.998552448552637" lon="-5.593004312276636"/>
      <trkpt lat="36.998755175483389" lon="-5.593225894260607"/>
      <trkpt lat="36.99885732470559" lon="-5.593337010987806"/>
      <trkpt lat="36.999112153342203" lon="-5.593452665360285"/>
      <trkpt lat="36.999369340959959" lon="-5.593732092985074"/>
      <trkpt lat="36.999522295804482" lon="-5.593900099223336"/>
      <trkpt lat="36.99987307408383" lon="-5.594238125885217"/>
      <trkpt lat="37.000175576045471" lon="-5.594576200387261"/>
      <trkpt lat="37.000327330855058" lon="-5.594745813549196"/>
      <trkpt lat="37.00047942497649" lon="-5.594915792733573"/>
      <trkpt lat="37.000784630323452" lon="-5.595256907880353"/>
      <trkpt lat="37.001091201674512" lon="-5.595599542421362"/>
      <trkpt lat="37.001295854092547" lon="-5.595773569002398"/>
      <trkpt lat="37.001605212134542" lon="-5.59617404007751"/>
      <trkpt lat="37.001811392530371" lon="-5.596349572622089"/>
      <trkpt lat="37.001967059459361" lon="-5.596523265273611"/>
      <trkpt lat="37.002125786833197" lon="-5.596697873305164"/>
      <trkpt lat="37.002391193381847" lon="-5.596989831181579"/>
      <trkpt lat="37.002657145273908" lon="-5.59722712097967"/>
      <trkpt lat="37.002978896862942" lon="-5.597636344108254"/>
      <trkpt lat="37.003193371523622" lon="-5.597816789680248"/>
      <trkpt lat="37.003301693013242" lon="-5.597991450913165"/>
      <trkpt lat="37.003517772739428" lon="-5.59822915462365"/>
      <trkpt lat="37.003735121230953" lon="-5.598523993848894"/>
      <trkpt lat="37.003898184501772" lon="-5.598703443334795"/>
      <trkpt lat="37.004062219824903" lon="-5.598939841361069"/>
      <trkpt lat="37.004172565924527" lon="-5.599173153217963"/>
      <trkpt lat="37.004336719090198" lon="-5.599354025128003"/>
      <trkpt lat="37.004503018845092" lon="-5.599705444456619"/>
      <trkpt lat="37.004668583150178" lon="-5.599944216824028"/>
      <trkpt lat="37.004946834014937" lon="-5.600476294300866"/>
      <trkpt lat="37.005002153736257" lon="-5.600537445143235"/>
      <trkpt lat="37.005280041317057" lon="-5.60090098540499"/>
      <trkpt lat="37.005392487157053" lon="-5.60113821049653"/>
      <trkpt lat="37.005622015970189" lon="-5.601501083647157"/>
      <trkpt lat="37.005796148682968" lon="-5.601745998481221"/>
      <trkpt lat="37.006084750757097" lon="-5.602059424186771"/>
      <trkpt lat="37.006142630052629" lon="-5.602122291238035"/>
      <trkpt lat="37.006316590001497" lon="-5.602311213522632"/>
      <trkpt lat="37.006549286728841" lon="-5.602563939334299"/>
      <trkpt lat="37.006955202615003" lon="-5.602892009108706"/>
      <trkpt lat="37.007012188377352" lon="-5.602897434244457"/>
      <trkpt lat="37.007188547993053" lon="-5.603088742703512"/>
      <trkpt lat="37.007421018465969" lon="-5.603227740159586"/>
      <trkpt lat="37.007656044340877" lon="-5.603425790812924"/>
      <trkpt lat="37.007949714882038" lon="-5.603630337159425"/>
      <trkpt lat="37.008242931990843" lon="-5.603776956231467"/>
      <trkpt lat="37.008778306782993" lon="-5.604184336727215"/>
      <trkpt lat="37.009016443490118" lon="-5.604326983414127"/>
      <trkpt lat="37.009314390634621" lon="-5.604476338739484"/>
      <trkpt lat="37.009615517390621" lon="-5.604685847315563"/>
      <trkpt lat="37.009854777967888" lon="-5.604770685033693"/>
      <trkpt lat="37.010096767020947" lon="-5.60491554394442"/>
      <trkpt lat="37.010519468431767" lon="-5.605080421076128"/>
      <trkpt lat="37.010581441845929" lon="-5.605146874707975"/>
      <trkpt lat="37.010824104746717" lon="-5.605233129481588"/>
      <trkpt lat="37.011069579171618" lon="-5.605379863719259"/>
      <trkpt lat="37.011500309869831" lon="-5.605607737253391"/>
      <trkpt lat="37.011861690618218" lon="-5.60570661482629"/>
      <trkpt lat="37.012087307661993" lon="-5.605786932501381"/>
      <trkpt lat="37.012319447266982" lon="-5.605869588150886"/>
      <trkpt lat="37.012905283565232" lon="-5.606063272975424"/>
      <trkpt lat="37.013159417041017" lon="-5.606153781370043"/>
      <trkpt lat="37.013602406301352" lon="-5.606266128590071"/>
      <trkpt lat="37.013867827745827" lon="-5.606421260803446"/>
      <trkpt lat="37.014186656430873" lon="-5.606458818416126"/>
      <trkpt lat="37.014892102874867" lon="-5.606725023870686"/>
      <trkpt lat="37.015214280288987" lon="-5.606824349003824"/>
      <trkpt lat="37.015537918100343" lon="-5.60692412966209"/>
      <trkpt lat="37.015861095713909" lon="-5.607085195672338"/>
      <trkpt lat="37.016173686403121" lon="-5.607181020743147"/>
      <trkpt lat="37.016676106048259" lon="-5.607297915884933"/>
      <trkpt lat="37.017245068524517" lon="-5.607422528119085"/>
      <trkpt lat="37.017499013436037" lon="-5.60745048579423"/>
      <trkpt lat="37.017817577051588" lon="-5.607485558010021"/>
      <trkpt lat="37.018137404032792" lon="-5.607520770439653"/>
      <trkpt lat="37.01865176816213" lon="-5.607577400241881"/>
      <trkpt lat="37.019038609637953" lon="-5.607494213279103"/>
      <trkpt lat="37.019297702048974" lon="-5.607459552996948"/>
      <trkpt lat="37.019621771182173" lon="-5.607368512695102"/>
      <trkpt lat="37.019944673402883" lon="-5.607276303211642"/>
      <trkpt lat="37.020136985505701" lon="-5.607232773091884"/>
      <trkpt lat="37.020526394512352" lon="-5.60714656763602"/>
      <trkpt lat="37.020786695253641" lon="-5.607109916223784"/>
      <trkpt lat="37.021048701188938" lon="-5.607009934658418"/>
      <trkpt lat="37.021375976993554" lon="-5.606979533924667"/>
      <trkpt lat="37.021836824833549" lon="-5.606898667286751"/>
      <trkpt lat="37.022167127935127" lon="-5.60686791115439"/>
      <trkpt lat="37.022431536876582" lon="-5.606894206571504"/>
      <trkpt lat="37.022764130212792" lon="-5.606863335279412"/>
      <trkpt lat="37.022964680606123" lon="-5.606819182235441"/>
      <trkpt lat="37.024605854746937" lon="-5.606801817569665"/>
      <trkpt lat="37.024820858018977" lon="-5.606821574773209"/>
      <trkpt lat="37.025111946990748" lon="-5.606826843605779"/>
      <trkpt lat="37.025438552667723" lon="-5.606831618114708"/>
      <trkpt lat="37.025655140818998" lon="-5.606946989356308"/>
      <trkpt lat="37.025799653337202" lon="-5.607071206351427"/>
      <trkpt lat="37.025981157657448" lon="-5.60714445367971"/>
      <trkpt lat="37.026090106798549" lon="-5.60722620045392"/>
      <trkpt lat="37.026309033379739" lon="-5.607295691106232"/>
      <trkpt lat="37.026528685338299" lon="-5.607365411351769"/>
      <trkpt lat="37.026822363221221" lon="-5.607521918319675"/>
      <trkpt lat="37.026969691396211" lon="-5.607600432856446"/>
      <trkpt lat="37.027080526034503" lon="-5.607635693042478"/>
      <trkpt lat="37.027265273973413" lon="-5.607758063661655"/>
      <trkpt lat="37.027524543907887" lon="-5.607873411452005"/>
      <trkpt lat="37.027674468929959" lon="-5.607998814044465"/>
      <trkpt lat="37.027824759803167" lon="-5.608124518546033"/>
      <trkpt lat="37.027975154170541" lon="-5.608250933467503"/>
      <trkpt lat="37.028200646206407" lon="-5.608418187742513"/>
      <trkpt lat="37.028350802519448" lon="-5.608546385007437"/>
      <trkpt lat="37.028575448154228" lon="-5.608716815592501"/>
      <trkpt lat="37.028805103374992" lon="-5.608883243740665"/>
      <trkpt lat="37.029075056890633" lon="-5.609093222649305"/>
      <trkpt lat="37.029384408618249" lon="-5.609300766972483"/>
      <trkpt lat="37.029700375212578" lon="-5.609552817950732"/>
      <trkpt lat="37.02997372701244" lon="-5.609718423100315"/>
      <trkpt lat="37.030211364316983" lon="-5.609886527900515"/>
      <trkpt lat="37.030450229070439" lon="-5.610055147490226"/>
      <trkpt lat="37.030688980780418" lon="-5.610274064519071"/>
      <trkpt lat="37.030936065507568" lon="-5.610487939979782"/>
      <trkpt lat="37.031255299608453" lon="-5.61070273650307"/>
      <trkpt lat="37.031536183627402" lon="-5.610922089931492"/>
      <trkpt lat="37.031818055199047" lon="-5.611093563030941"/>
      <trkpt lat="37.032101857691472" lon="-5.611363863795992"/>
      <trkpt lat="37.032591044860091" lon="-5.611766893112922"/>
      <trkpt lat="37.03291969452642" lon="-5.612086754256903"/>
      <trkpt lat="37.033249766323763" lon="-5.612358831371361"/>
      <trkpt lat="37.033664468633631" lon="-5.612626375642449"/>
      <trkpt lat="37.03403990971988" lon="-5.61284870696631"/>
      <trkpt lat="37.034375713787263" lon="-5.613075245199852"/>
      <trkpt lat="37.034628488380967" lon="-5.613208353544799"/>
      <trkpt lat="37.034839722379097" lon="-5.613294573775284"/>
      <trkpt lat="37.035050279115246" lon="-5.613381738577839"/>
      <trkpt lat="37.035342176268777" lon="-5.61356682313498"/>
      <trkpt lat="37.035554706341102" lon="-5.613654551869526"/>
      <trkpt lat="37.035854390730492" lon="-5.613736787848863"/>
      <trkpt lat="37.036112743565248" lon="-5.613821944848265"/>
      <trkpt lat="37.036501994330017" lon="-5.614001457595512"/>
      <trkpt lat="37.036976728036088" lon="-5.614076048711176"/>
      <trkpt lat="37.037498224662379" lon="-5.614200133939499"/>
      <trkpt lat="37.038065102093732" lon="-5.614323674429737"/>
      <trkpt lat="37.038669700990781" lon="-5.614398059781994"/>
      <trkpt lat="37.038929880440172" lon="-5.614437663613469"/>
      <trkpt lat="37.039194734143337" lon="-5.614423970908988"/>
      <trkpt lat="37.039506132523798" lon="-5.61440757633394"/>
      <trkpt lat="37.039684122787428" lon="-5.614398369245519"/>
      <trkpt lat="37.039912213202889" lon="-5.614385125905125"/>
      <trkpt lat="37.040142012228841" lon="-5.614371487244014"/>
      <trkpt lat="37.040369988701279" lon="-5.614358683908803"/>
      <trkpt lat="37.040688234286108" lon="-5.61434146059127"/>
      <trkpt lat="37.041107861285198" lon="-5.614316392179983"/>
      <trkpt lat="37.041297207488277" lon="-5.6143045461575"/>
      <trkpt lat="37.041666807050369" lon="-5.614284275452396"/>
      <trkpt lat="37.041848708648637" lon="-5.614275282667769"/>
      <trkpt lat="37.042172150767968" lon="-5.614258175348247"/>
      <trkpt lat="37.042451022936561" lon="-5.614243289122156"/>
      <trkpt lat="37.042730958432543" lon="-5.614228345975146"/>
      <trkpt lat="37.043011800507621" lon="-5.614213382416534"/>
      <trkpt lat="37.043341129266807" lon="-5.614195773168444"/>
      <trkpt lat="37.043670543240559" lon="-5.614232184583948"/>
      <trkpt lat="37.044047231488939" lon="-5.614320574042849"/>
      <trkpt lat="37.044562416351233" lon="-5.614565963920177"/>
      <trkpt lat="37.045037272380782" lon="-5.614759910858656"/>
      <trkpt lat="37.04541583918143" lon="-5.615014530062028"/>
      <trkpt lat="37.046089701814942" lon="-5.615420402669791"/>
      <trkpt lat="37.046427707832869" lon="-5.61573421397752"/>
      <trkpt lat="37.046828161591279" lon="-5.61599010051321"/>
      <trkpt lat="37.047186996883482" lon="-5.616303130084565"/>
      <trkpt lat="37.047598822759582" lon="-5.616615863725459"/>
      <trkpt lat="37.047904343752784" lon="-5.61688023162511"/>
      <trkpt lat="37.048262580195761" lon="-5.617199348502862"/>
      <trkpt lat="37.048521979257252" lon="-5.617356518964248"/>
      <trkpt lat="37.048834985862797" lon="-5.617512520236819"/>
      <trkpt lat="37.049151669779533" lon="-5.617668863384436"/>
      <trkpt lat="37.049363823492158" lon="-5.617829324322643"/>
      <trkpt lat="37.049684985277949" lon="-5.617986768743394"/>
      <trkpt lat="37.049845590923667" lon="-5.618093879402206"/>
      <trkpt lat="37.050223729253247" lon="-5.61825087929755"/>
      <trkpt lat="37.050441590456451" lon="-5.618300672366249"/>
      <trkpt lat="37.050823145535553" lon="-5.618458977457714"/>
      <trkpt lat="37.050878327293383" lon="-5.618457395645603"/>
      <trkpt lat="37.051097194126633" lon="-5.618564507194014"/>
      <trkpt lat="37.051370215174273" lon="-5.618670719078072"/>
      <trkpt lat="37.051639231542353" lon="-5.61877791967556"/>
      <trkpt lat="37.051801005506633" lon="-5.618831070448564"/>
      <trkpt lat="37.052115647391652" lon="-5.61899575985005"/>
      <trkpt lat="37.052326257180873" lon="-5.619048838898106"/>
      <trkpt lat="37.052801673200968" lon="-5.619326201853839"/>
      <trkpt lat="37.053067143160987" lon="-5.619436405086159"/>
      <trkpt lat="37.053440062982077" lon="-5.619660266748626"/>
      <trkpt lat="37.053653981467093" lon="-5.619772210453922"/>
      <trkpt lat="37.054192787841117" lon="-5.620053262836219"/>
      <trkpt lat="37.054479062302043" lon="-5.620222400062524"/>
      <trkpt lat="37.055517866562298" lon="-5.620674048211614"/>
      <trkpt lat="37.05639793219391" lon="-5.621192413323608"/>
      <trkpt lat="37.05690684638391" lon="-5.621424958615031"/>
      <trkpt lat="37.057238773816117" lon="-5.621541769482929"/>
      <trkpt lat="37.057460656679943" lon="-5.621600216559398"/>
      <trkpt lat="37.057682758044592" lon="-5.621599704846236"/>
      <trkpt lat="37.058018036899043" lon="-5.621776608336713"/>
      <trkpt lat="37.058579386469518" lon="-5.622013568783418"/>
      <trkpt lat="37.058976794284199" lon="-5.622311379679971"/>
      <trkpt lat="37.059589915427857" lon="-5.622670879630249"/>
      <trkpt lat="37.060145669703523" lon="-5.62303313563787"/>
      <trkpt lat="37.060960586051301" lon="-5.62321894654696"/>
      <trkpt lat="37.061425899874138" lon="-5.623464186736925"/>
      <trkpt lat="37.062088706876921" lon="-5.623834353476126"/>
      <trkpt lat="37.062274924727411" lon="-5.623836394123767"/>
      <trkpt lat="37.062522514410453" lon="-5.623960961432195"/>
      <trkpt lat="37.062950587085773" lon="-5.62414915088067"/>
      <trkpt lat="37.063511035378312" lon="-5.624340236963047"/>
      <trkpt lat="37.063761774759847" lon="-5.624405144916239"/>
      <trkpt lat="37.063949088542202" lon="-5.624530767528632"/>
      <trkpt lat="37.064200198189411" lon="-5.624657696713594"/>
      <trkpt lat="37.064450052219243" lon="-5.624908288127694"/>
      <trkpt lat="37.064835645571577" lon="-5.625162448003059"/>
      <trkpt lat="37.065164300938633" lon="-5.625416843931722"/>
      <trkpt lat="37.065426971065193" lon="-5.625608678625323"/>
      <trkpt lat="37.065754292523117" lon="-5.625864824287923"/>
      <trkpt lat="37.066143941021991" lon="-5.626185779858633"/>
      <trkpt lat="37.0665394451471" lon="-5.626571150799932"/>
      <trkpt lat="37.066804237710883" lon="-5.626829160843782"/>
      <trkpt lat="37.067132508740883" lon="-5.6270898055618"/>
      <trkpt lat="37.067466158169623" lon="-5.627414785960502"/>
      <trkpt lat="37.067794985197047" lon="-5.627551474891316"/>
      <trkpt lat="37.068226497963067" lon="-5.627757511419205"/>
      <trkpt lat="37.068381749882533" lon="-5.627890822276238"/>
      <trkpt lat="37.068771572081573" lon="-5.628225557569042"/>
      <trkpt lat="37.068989962737348" lon="-5.628489227145954"/>
      <trkpt lat="37.06912470856804" lon="-5.628558125637666"/>
      <trkpt lat="37.0689573263125" lon="-5.631899981277791"/>
      <trkpt lat="37.0690484122686" lon="-5.632256836996507"/>
      <trkpt lat="37.069049595436177" lon="-5.632616812909934"/>
      <trkpt lat="37.069225811698757" lon="-5.63317934529234"/>
      <trkpt lat="37.069314361674451" lon="-5.633538523580911"/>
      <trkpt lat="37.06935894324738" lon="-5.63379567074827"/>
      <trkpt lat="37.06940391017956" lon="-5.634156219610756"/>
      <trkpt lat="37.069536902580907" lon="-5.634619547687871"/>
      <trkpt lat="37.069627852830664" lon="-5.635549578774974"/>
      <trkpt lat="37.069718243529572" lon="-5.636274140649713"/>
      <trkpt lat="37.069808418980401" lon="-5.6368962379951"/>
      <trkpt lat="37.069809499454102" lon="-5.63720726810182"/>
      <trkpt lat="37.069855186736312" lon="-5.637674461421112"/>
      <trkpt lat="37.069899643629789" lon="-5.637778775565634"/>
      <trkpt lat="37.069945405365722" lon="-5.63824659268071"/>
      <trkpt lat="37.070034843123743" lon="-5.638559774148729"/>
      <trkpt lat="37.070085597757327" lon="-5.638976992606652"/>
      <trkpt lat="37.070177068824407" lon="-5.639187257500657"/>
      <trkpt lat="37.070180093888133" lon="-5.639447774633844"/>
      <trkpt lat="37.07031283243743" lon="-5.639919779875216"/>
      <trkpt lat="37.070355962397819" lon="-5.640181357738555"/>
      <trkpt lat="37.070487516795183" lon="-5.640758769741167"/>
      <trkpt lat="37.07057607705373" lon="-5.641127022884556"/>
      <trkpt lat="37.070664979855167" lon="-5.641391322327028"/>
      <trkpt lat="37.070803005074389" lon="-5.641606332924034"/>
      <trkpt lat="37.07098219260812" lon="-5.641927507482802"/>
      <trkpt lat="37.071071958057288" lon="-5.642088401992628"/>
      <trkpt lat="37.071251919086357" lon="-5.642305889344545"/>
      <trkpt lat="37.071660409775212" lon="-5.642692482121027"/>
      <trkpt lat="37.071931412965313" lon="-5.64291565522876"/>
      <trkpt lat="37.072292083777022" lon="-5.643143461367623"/>
      <trkpt lat="37.072562545041478" lon="-5.643261785228862"/>
      <trkpt lat="37.072788141768207" lon="-5.64337824219762"/>
      <trkpt lat="37.07297112159192" lon="-5.643493412202374"/>
      <trkpt lat="37.073348127675047" lon="-5.643673953000755"/>
      <trkpt lat="37.073628267416183" lon="-5.643742288740961"/>
      <trkpt lat="37.074042723525316" lon="-5.643879889573979"/>
      <trkpt lat="37.074199817967568" lon="-5.643945401579799"/>
      <trkpt lat="37.074460742709078" lon="-5.643964894127356"/>
      <trkpt lat="37.074715406634212" lon="-5.643982493873976"/>
      <trkpt lat="37.074909275378602" lon="-5.643993836973015"/>
      <trkpt lat="37.07511109210494" lon="-5.644007135620958"/>
      <trkpt lat="37.075669601922463" lon="-5.644043938018049"/>
      <trkpt lat="37.076077299858277" lon="-5.643961500628533"/>
      <trkpt lat="37.076683284889768" lon="-5.643888986231477"/>
      <trkpt lat="37.07713737251413" lon="-5.64380571967113"/>
      <trkpt lat="37.077543539436768" lon="-5.643774070660368"/>
      <trkpt lat="37.077900944126213" lon="-5.64373931757311"/>
      <trkpt lat="37.078466414104987" lon="-5.643660571074578"/>
      <trkpt lat="37.078828694091243" lon="-5.643625280804672"/>
      <trkpt lat="37.079088653762263" lon="-5.643584043815299"/>
      <trkpt lat="37.079297303323443" lon="-5.643595568585427"/>
      <trkpt lat="37.079611469715211" lon="-5.643612922587412"/>
      <trkpt lat="37.079874374878969" lon="-5.643627442089603"/>
      <trkpt lat="37.080085419436877" lon="-5.64363910407486"/>
      <trkpt lat="37.080456313976157" lon="-5.643659590371869"/>
      <trkpt lat="37.080829204121969" lon="-5.643680187380488"/>
      <trkpt lat="37.081257798447069" lon="-5.643760450634011"/>
      <trkpt lat="37.081689006661684" lon="-5.643954730252634"/>
      <trkpt lat="37.082122889162576" lon="-5.644207166198151"/>
      <trkpt lat="37.082504755437562" lon="-5.644457897519816"/>
      <trkpt lat="37.082778798865363" lon="-5.644646007824779"/>
      <trkpt lat="37.083109075294843" lon="-5.644895664723193"/>
      <trkpt lat="37.083330119559569" lon="-5.645081908377032"/>
      <trkpt lat="37.083440900962742" lon="-5.645203996210545"/>
      <trkpt lat="37.083718628850683" lon="-5.645452461030393"/>
      <trkpt lat="37.083885759054667" lon="-5.645809638378512"/>
      <trkpt lat="37.084053296874089" lon="-5.646109940004528"/>
      <trkpt lat="37.084109227482763" lon="-5.646229461245133"/>
      <trkpt lat="37.084221229885848" lon="-5.64646878993332"/>
      <trkpt lat="37.084445796554277" lon="-5.646832784038747"/>
      <trkpt lat="37.084672118378528" lon="-5.647314274337528"/>
      <trkpt lat="37.084842160366406" lon="-5.647502119511653"/>
      <trkpt lat="37.085012961772797" lon="-5.647806845954623"/>
      <trkpt lat="37.085070049851048" lon="-5.64792800289872"/>
      <trkpt lat="37.085241069599761" lon="-5.648117141106106"/>
      <trkpt lat="37.085412675975853" lon="-5.648365134869421"/>
      <trkpt lat="37.085527738656538" lon="-5.648667151365983"/>
      <trkpt lat="37.085699885796522" lon="-5.648857827360856"/>
      <trkpt lat="37.085930623309707" lon="-5.649288627523968"/>
      <trkpt lat="37.086161936581853" lon="-5.649662161154126"/>
      <trkpt lat="37.086277692019543" lon="-5.649790624699826"/>
      <trkpt lat="37.0865683029172" lon="-5.650230500367018"/>
      <trkpt lat="37.086801548495131" lon="-5.650548325596432"/>
      <trkpt lat="37.086918752329098" lon="-5.65079620034324"/>
      <trkpt lat="37.087094346253522" lon="-5.650991432938191"/>
      <trkpt lat="37.087270959052283" lon="-5.651364746834137"/>
      <trkpt lat="37.087506542535841" lon="-5.651686068322704"/>
      <trkpt lat="37.087682937845777" lon="-5.651942284606233"/>
      <trkpt lat="37.087736578592903" lon="-5.652065407293199"/>
      <trkpt lat="37.088502453507061" lon="-5.653555932271961"/>
      <trkpt lat="37.088610596425127" lon="-5.653682632185872"/>
      <trkpt lat="37.088786730578292" lon="-5.654228084673548"/>
      <trkpt lat="37.088964435059687" lon="-5.654632929823272"/>
      <trkpt lat="37.088999513593571" lon="-5.654770837439029"/>
      <trkpt lat="37.089106480387997" lon="-5.654948839965188"/>
      <trkpt lat="37.08921254837955" lon="-5.655175388538499"/>
      <trkpt lat="37.08921191556523" lon="-5.655223082033753"/>
      <trkpt lat="37.089388833376582" lon="-5.655539023222753"/>
      <trkpt lat="37.08942115968415" lon="-5.655775183466314"/>
      <trkpt lat="37.089527449521277" lon="-5.655955932018829"/>
      <trkpt lat="37.089669848238202" lon="-5.656180999667937"/>
      <trkpt lat="37.089812483711199" lon="-5.656406439978056"/>
      <trkpt lat="37.089916804232821" lon="-5.656637984916349"/>
      <trkpt lat="37.090061082953511" lon="-5.656862561234371"/>
      <trkpt lat="37.090204663029283" lon="-5.65713577055274"/>
      <trkpt lat="37.090422466449972" lon="-5.657450044481591"/>
      <trkpt lat="37.090492578679402" lon="-5.657636423327448"/>
      <trkpt lat="37.090673880856407" lon="-5.657908091829192"/>
      <trkpt lat="37.09078406076187" lon="-5.65808908375363"/>
      <trkpt lat="37.090966279896179" lon="-5.658408836393535"/>
      <trkpt lat="37.091150262944758" lon="-5.658728172960576"/>
      <trkpt lat="37.091416278506408" lon="-5.659084524261982"/>
      <trkpt lat="37.091604107346363" lon="-5.659308480608191"/>
      <trkpt lat="37.091903297321821" lon="-5.659765788942241"/>
      <trkpt lat="37.092053394416553" lon="-5.659995210120236"/>
      <trkpt lat="37.092324530287399" lon="-5.660260676658239"/>
      <trkpt lat="37.092596585554773" lon="-5.660623852579295"/>
      <trkpt lat="37.092713806334338" lon="-5.660759301845858"/>
      <trkpt lat="37.092830785159506" lon="-5.660943520230805"/>
      <trkpt lat="37.09326371212893" lon="-5.661443965250898"/>
      <trkpt lat="37.09346111950385" lon="-5.661721496646923"/>
      <trkpt lat="37.093860185818819" lon="-5.662083959214563"/>
      <trkpt lat="37.093980159691981" lon="-5.662222593536265"/>
      <trkpt lat="37.0942616694634" lon="-5.662498189698657"/>
      <trkpt lat="37.094504747673582" lon="-5.662679341348618"/>
      <trkpt lat="37.094707780372943" lon="-5.662863774310551"/>
      <trkpt lat="37.09503387193854" lon="-5.663189948768023"/>
      <trkpt lat="37.09519753652998" lon="-5.66342769868206"/>
      <trkpt lat="37.095443425835427" lon="-5.663662425907487"/>
      <trkpt lat="37.095687897527853" lon="-5.664047492388978"/>
      <trkpt lat="37.095851402025673" lon="-5.664288597972416"/>
      <trkpt lat="37.096138378990048" lon="-5.664625287273775"/>
      <trkpt lat="37.096220761585407" lon="-5.664771443831471"/>
      <trkpt lat="37.096344490576151" lon="-5.664966207078082"/>
      <trkpt lat="37.096551025215483" lon="-5.665208696163013"/>
      <trkpt lat="37.096716915096607" lon="-5.665453173545502"/>
      <trkpt lat="37.09688326648152" lon="-5.665698331631264"/>
      <trkpt lat="37.097133427571258" lon="-5.665992249805373"/>
      <trkpt lat="37.097594404431021" lon="-5.666433724163853"/>
      <trkpt lat="37.097636346219367" lon="-5.66643288029291"/>
      <trkpt lat="37.098015384992848" lon="-5.666728006820426"/>
      <trkpt lat="37.098178227055122" lon="-5.666877551259968"/>
      <trkpt lat="37.098711896289721" lon="-5.667175279980875"/>
      <trkpt lat="37.099166881229458" lon="-5.667526496954479"/>
      <trkpt lat="37.09947012220529" lon="-5.667777672365459"/>
      <trkpt lat="37.099946599048657" lon="-5.668028917592513"/>
      <trkpt lat="37.100251058072189" lon="-5.668231790854962"/>
      <trkpt lat="37.100548994605099" lon="-5.668436101062184"/>
      <trkpt lat="37.100847811992402" lon="-5.668538238413681"/>
      <trkpt lat="37.101063247599193" lon="-5.668692424014788"/>
      <trkpt lat="37.101282759551083" lon="-5.668795264412765"/>
      <trkpt lat="37.10145917672412" lon="-5.668898460633423"/>
      <trkpt lat="37.101675635542932" lon="-5.669157511311952"/>
      <trkpt lat="37.101976010494383" lon="-5.669417659796057"/>
      <trkpt lat="37.1020629739726" lon="-5.669573782734894"/>
      <trkpt lat="37.102201238710578" lon="-5.669730329813474"/>
      <trkpt lat="37.102477187737662" lon="-5.670096669434442"/>
      <trkpt lat="37.102567837183699" lon="-5.67030608255077"/>
      <trkpt lat="37.102658618134967" lon="-5.67051580224574"/>
      <trkpt lat="37.102749532175672" lon="-5.670725829430974"/>
      <trkpt lat="37.102743568145748" lon="-5.671039021074174"/>
      <trkpt lat="37.102784084833587" lon="-5.671405218289175"/>
      <trkpt lat="37.102784966547837" lon="-5.671666597257904"/>
      <trkpt lat="37.102881605968108" lon="-5.672087426303655"/>
      <trkpt lat="37.102930572003217" lon="-5.672402924561304"/>
      <trkpt lat="37.102979474905268" lon="-5.672718747541532"/>
      <trkpt lat="37.103071956235482" lon="-5.673088432848568"/>
      <trkpt lat="37.103117392638381" lon="-5.673352045288695"/>
      <trkpt lat="37.103260246399657" lon="-5.673567469815822"/>
      <trkpt lat="37.10336014708129" lon="-5.673939991958006"/>
      <trkpt lat="37.103458345937071" lon="-5.674260323020811"/>
      <trkpt lat="37.103507324539628" lon="-5.674420694197839"/>
      <trkpt lat="37.103603542345951" lon="-5.67463609791864"/>
      <trkpt lat="37.103742909967238" lon="-5.675011572122568"/>
      <trkpt lat="37.10383577794498" lon="-5.675174284528897"/>
      <trkpt lat="37.103882593825404" lon="-5.675387908790267"/>
      <trkpt lat="37.10392946802834" lon="-5.675707442333222"/>
      <trkpt lat="37.104022864902213" lon="-5.675976807311145"/>
      <trkpt lat="37.104112292268127" lon="-5.676245497509566"/>
      <trkpt lat="37.104196537711218" lon="-5.676566042693122"/>
      <trkpt lat="37.104282682603113" lon="-5.676781378013537"/>
      <trkpt lat="37.104374357368641" lon="-5.677104560934431"/>
      <trkpt lat="37.104523963286063" lon="-5.677381420991752"/>
      <trkpt lat="37.104628026432827" lon="-5.677656342976869"/>
      <trkpt lat="37.104903477184479" lon="-5.678365296777844"/>
      <trkpt lat="37.105083847211162" lon="-5.678855909956807"/>
      <trkpt lat="37.105218375349757" lon="-5.679130795693011"/>
      <trkpt lat="37.105627007136682" lon="-5.679745466531708"/>
      <trkpt lat="37.105974676889872" lon="-5.680099705656901"/>
      <trkpt lat="37.106231774484463" lon="-5.680395470308111"/>
      <trkpt lat="37.106588746856637" lon="-5.680647880087189"/>
      <trkpt lat="37.10695516431641" lon="-5.680904812415903"/>
      <trkpt lat="37.107158556779297" lon="-5.681034031422627"/>
      <trkpt lat="37.107503901841213" lon="-5.681228976390885"/>
      <trkpt lat="37.107701556304107" lon="-5.681410750986851"/>
      <trkpt lat="37.108299736622861" lon="-5.681740913896163"/>
      <trkpt lat="37.108550230617219" lon="-5.681929544093594"/>
      <trkpt lat="37.108795130447959" lon="-5.682061154073509"/>
      <trkpt lat="37.109181134760611" lon="-5.682313570326238"/>
      <trkpt lat="37.10922989941033" lon="-5.682372941776574"/>
      <trkpt lat="37.109474736499003" lon="-5.682615375559743"/>
      <trkpt lat="37.109818087589623" lon="-5.683033288190874"/>
      <trkpt lat="37.110182786437733" lon="-5.683517452454366"/>
      <trkpt lat="37.110449642520251" lon="-5.683827569272641"/>
      <trkpt lat="37.110810291550713" lon="-5.68425715785115"/>
      <trkpt lat="37.111012820083261" lon="-5.684557511055369"/>
      <trkpt lat="37.111270075520103" lon="-5.684865717996916"/>
      <trkpt lat="37.111524109046243" lon="-5.685229161189827"/>
      <trkpt lat="37.111777808542378" lon="-5.685537062245499"/>
      <trkpt lat="37.112029789929139" lon="-5.685844749389423"/>
      <trkpt lat="37.112541844178281" lon="-5.686353031269987"/>
      <trkpt lat="37.112848311439109" lon="-5.686726333601873"/>
      <trkpt lat="37.113141118281547" lon="-5.687150144580155"/>
      <trkpt lat="37.113443965709692" lon="-5.687352949363643"/>
      <trkpt lat="37.11349318698317" lon="-5.687414512885613"/>
      <trkpt lat="37.113698021292507" lon="-5.687608245279639"/>
      <trkpt lat="37.114116027604233" lon="-5.687886714684494"/>
      <trkpt lat="37.114425108587668" lon="-5.688036338062782"/>
      <trkpt lat="37.114884943804007" lon="-5.68831599844993"/>
      <trkpt lat="37.115040158195768" lon="-5.688391167883228"/>
      <trkpt lat="37.115330701022089" lon="-5.688494758299893"/>
      <trkpt lat="37.115662704769157" lon="-5.688598596517317"/>
      <trkpt lat="37.115929099723253" lon="-5.688689167464648"/>
      <trkpt lat="37.116524940840662" lon="-5.688881328168947"/>
      <trkpt lat="37.116839892660387" lon="-5.689033362985255"/>
      <trkpt lat="37.117154974741872" lon="-5.689127293439879"/>
      <trkpt lat="37.117472196509247" lon="-5.689280320271325"/>
      <trkpt lat="37.117843398708992" lon="-5.689439926522061"/>
      <trkpt lat="37.118156586136728" lon="-5.689649237843136"/>
      <trkpt lat="37.118425719319482" lon="-5.689798704810929"/>
      <trkpt lat="37.118767854697431" lon="-5.690023187246359"/>
      <trkpt lat="37.119108427390557" lon="-5.690188266917042"/>
      <trkpt lat="37.119397623442033" lon="-5.690407159394336"/>
      <trkpt lat="37.119689842183909" lon="-5.690568831789317"/>
      <trkpt lat="37.120046956508148" lon="-5.690801764019992"/>
      <trkpt lat="37.120345952170283" lon="-5.691026472019709"/>
      <trkpt lat="37.120698233293048" lon="-5.691316904795459"/>
      <trkpt lat="37.120875010148737" lon="-5.691462648843508"/>
      <trkpt lat="37.121233778332531" lon="-5.691854465616355"/>
      <trkpt lat="37.121429007340453" lon="-5.692047854107686"/>
      <trkpt lat="37.121648867056308" lon="-5.692254480115309"/>
      <trkpt lat="37.122066448799892" lon="-5.692559283836283"/>
      <trkpt lat="37.12296395194943" lon="-5.693445240915173"/>
      <trkpt lat="37.123460181127157" lon="-5.693892938553194"/>
      <trkpt lat="37.123889842555393" lon="-5.694328729000323"/>
      <trkpt lat="37.124137492223952" lon="-5.694614221539602"/>
      <trkpt lat="37.124261630682113" lon="-5.694757329818359"/>
      <trkpt lat="37.124451796889304" lon="-5.695096406612512"/>
      <trkpt lat="37.124585426118387" lon="-5.695550529112526"/>
      <trkpt lat="37.124717543732388" lon="-5.695943476698137"/>
      <trkpt lat="37.124847810581848" lon="-5.696580695733644"/>
      <trkpt lat="37.124905958643922" lon="-5.696895569824005"/>
      <trkpt lat="37.125024808322188" lon="-5.697282445057644"/>
      <trkpt lat="37.125017360179427" lon="-5.697706634641583"/>
      <trkpt lat="37.125133158158818" lon="-5.698276214419585"/>
      <trkpt lat="37.125057660991018" lon="-5.698991051860895"/>
      <trkpt lat="37.125040617423913" lon="-5.699959927121906"/>
      <trkpt lat="37.125090486726208" lon="-5.70069939382125"/>
      <trkpt lat="37.125348982855982" lon="-5.701739215749061"/>
      <trkpt lat="37.12551476300716" lon="-5.702470618142112"/>
      <trkpt lat="37.125853325916196" lon="-5.703049684371509"/>
      <trkpt lat="37.125912725858221" lon="-5.703307818360772"/>
      <trkpt lat="37.126146232925841" lon="-5.704215175171229"/>
      <trkpt lat="37.126325192463653" lon="-5.704683407352277"/>
      <trkpt lat="37.126447322026543" lon="-5.704833054536871"/>
      <trkpt lat="37.12662691019608" lon="-5.705302767557839"/>
      <trkpt lat="37.126809838565272" lon="-5.705589670477661"/>
      <trkpt lat="37.126993165417339" lon="-5.705877199484025"/>
      <trkpt lat="37.127238556147653" lon="-5.706241080957009"/>
      <trkpt lat="37.127420811618343" lon="-5.706653011549065"/>
      <trkpt lat="37.127732058205297" lon="-5.70715957590183"/>
      <trkpt lat="37.128048745308377" lon="-5.707671390499764"/>
      <trkpt lat="37.128293615361393" lon="-5.708037405610123"/>
      <trkpt lat="37.128427868910997" lon="-5.708386443023096"/>
      <trkpt lat="37.128562676295942" lon="-5.708673702186092"/>
      <trkpt lat="37.128697486853689" lon="-5.709024069612884"/>
      <trkpt lat="37.128966741824911" lon="-5.709285757794288"/>
      <trkpt lat="37.129304583006629" lon="-5.709692892315634"/>
      <trkpt lat="37.129711896908447" lon="-5.710689432810698"/>
      <trkpt lat="37.129848129926863" lon="-5.71117045088549"/>
      <trkpt lat="37.130647098445117" lon="-5.711853214255931"/>
      <trkpt lat="37.130813283238517" lon="-5.712075668485218"/>
      <trkpt lat="37.130979939571588" lon="-5.712298757581983"/>
      <trkpt lat="37.131188809377988" lon="-5.712616081439904"/>
      <trkpt lat="37.131230417488688" lon="-5.712759840459382"/>
      <trkpt lat="37.131312959190574" lon="-5.712948535745049"/>
      <trkpt lat="37.131393731158887" lon="-5.713289441839913"/>
      <trkpt lat="37.131601753847477" lon="-5.713561864540121"/>
      <trkpt lat="37.131766666400047" lon="-5.713942908073197"/>
      <trkpt lat="37.13189125081292" lon="-5.714178514584089"/>
      <trkpt lat="37.132015444447092" lon="-5.714465428200683"/>
      <trkpt lat="37.132224870658312" lon="-5.714792060578528"/>
      <trkpt lat="37.132349104064218" lon="-5.715131232519371"/>
      <trkpt lat="37.132518034190788" lon="-5.715413701201006"/>
      <trkpt lat="37.13268742176971" lon="-5.715696930741077"/>
      <trkpt lat="37.132772285486197" lon="-5.715838837196953"/>
      <trkpt lat="37.132942711840109" lon="-5.716072287881657"/>
      <trkpt lat="37.133027572983458" lon="-5.716265710108932"/>
      <trkpt lat="37.133244986000953" lon="-5.716543579221172"/>
      <trkpt lat="37.13341788362218" lon="-5.716778037025772"/>
      <trkpt lat="37.133592084886111" lon="-5.717063547274256"/>
      <trkpt lat="37.133725541605138" lon="-5.717301960007621"/>
      <trkpt lat="37.133902575618848" lon="-5.717485484709717"/>
      <trkpt lat="37.134171685601729" lon="-5.717913837035557"/>
      <trkpt lat="37.134396605415553" lon="-5.718246994105628"/>
      <trkpt lat="37.134488163168413" lon="-5.718441427870396"/>
      <trkpt lat="37.134581165109573" lon="-5.718635456064898"/>
      <trkpt lat="37.134719794456018" lon="-5.718876406559584"/>
      <trkpt lat="37.134855658269103" lon="-5.719119930370121"/>
      <trkpt lat="37.135079535096153" lon="-5.71946003177524"/>
      <trkpt lat="37.135348224627293" lon="-5.719746086849767"/>
      <trkpt lat="37.13565344006556" lon="-5.720190443613841"/>
      <trkpt lat="37.135974040312327" lon="-5.720629728452686"/>
      <trkpt lat="37.136286797715279" lon="-5.721076001797904"/>
      <trkpt lat="37.136510929748333" lon="-5.721426033908621"/>
      <trkpt lat="37.136917079687827" lon="-5.721922337825714"/>
      <trkpt lat="37.137234630591642" lon="-5.722322182914713"/>
      <trkpt lat="37.137553700445707" lon="-5.722723942881478"/>
      <trkpt lat="37.138012307873737" lon="-5.72327852032014"/>
      <trkpt lat="37.138327368716247" lon="-5.723793538898065"/>
      <trkpt lat="37.138727160408827" lon="-5.724202759210031"/>
      <trkpt lat="37.139080273895281" lon="-5.724616617479175"/>
      <trkpt lat="37.139392230939833" lon="-5.725032998853765"/>
      <trkpt lat="37.139809087146482" lon="-5.725498421383042"/>
      <trkpt lat="37.140249599805777" lon="-5.72596192889881"/>
      <trkpt lat="37.140573666156001" lon="-5.726328978619518"/>
      <trkpt lat="37.140812419650352" lon="-5.726644842359452"/>
      <trkpt lat="37.141054210825828" lon="-5.726961428388904"/>
      <trkpt lat="37.141293169854968" lon="-5.727442248619544"/>
      <trkpt lat="37.141480012074631" lon="-5.727817957447263"/>
      <trkpt lat="37.14176552450742" lon="-5.728355526348427"/>
      <trkpt lat="37.142011153802663" lon="-5.728786258268988"/>
      <trkpt lat="37.142258128135587" lon="-5.729273133040067"/>
      <trkpt lat="37.142855322160678" lon="-5.730525955592308"/>
      <trkpt lat="37.143161479740122" lon="-5.731184094798031"/>
      <trkpt lat="37.143615406449591" lon="-5.732011935495983"/>
      <trkpt lat="37.143864594135579" lon="-5.732511081472484"/>
      <trkpt lat="37.144106913770017" lon="-5.733011708017854"/>
      <trkpt lat="37.144393336824074" lon="-5.733403498323892"/>
      <trkpt lat="37.144717718005438" lon="-5.733798976140876"/>
      <trkpt lat="37.144973637998277" lon="-5.734194103964306"/>
      <trkpt lat="37.14543973314246" lon="-5.734819917763298"/>
      <trkpt lat="37.145809940307267" lon="-5.735279131532999"/>
      <trkpt lat="37.14628946265762" lon="-5.735801130834213"/>
      <trkpt lat="37.146557409797524" lon="-5.736092815762124"/>
      <trkpt lat="37.146879911585927" lon="-5.736331262171831"/>
      <trkpt lat="37.147145892407757" lon="-5.736568078490237"/>
      <trkpt lat="37.147515193304258" lon="-5.736809545900753"/>
      <trkpt lat="37.147939395984643" lon="-5.737168409714968"/>
      <trkpt lat="37.148366110034871" lon="-5.737529402011933"/>
      <trkpt lat="37.148849290459253" lon="-5.737895096287005"/>
      <trkpt lat="37.149282950884157" lon="-5.73826082624824"/>
      <trkpt lat="37.149613983467773" lon="-5.738508514170313"/>
      <trkpt lat="37.1499414683407" lon="-5.738814197286542"/>
      <trkpt lat="37.150211120886759" lon="-5.739175258716357"/>
      <trkpt lat="37.150591246229098" lon="-5.739485766811264"/>
      <trkpt lat="37.150917778185757" lon="-5.739969048985873"/>
      <trkpt lat="37.15130059849772" lon="-5.740457770557574"/>
      <trkpt lat="37.151627838525627" lon="-5.741003295687584"/>
      <trkpt lat="37.151959548971817" lon="-5.741551913091129"/>
      <trkpt lat="37.152291567911632" lon="-5.742043925435476"/>
      <trkpt lat="37.152567938495032" lon="-5.742651231850902"/>
      <trkpt lat="37.153011760144707" lon="-5.743686322686356"/>
      <trkpt lat="37.153066617693348" lon="-5.743926535094501"/>
      <trkpt lat="37.153807918840997" lon="-5.745590810470463"/>
      <trkpt lat="37.154225073597068" lon="-5.746348258553099"/>
      <trkpt lat="37.154566194479209" lon="-5.74697730846372"/>
      <trkpt lat="37.154671130247173" lon="-5.747403000115739"/>
      <trkpt lat="37.154948933562501" lon="-5.747967120973265"/>
      <trkpt lat="37.155171600746378" lon="-5.748527402313298"/>
      <trkpt lat="37.15539546492522" lon="-5.749029474626043"/>
      <trkpt lat="37.155677054624427" lon="-5.749539248205842"/>
      <trkpt lat="37.155966431573887" lon="-5.750113837076505"/>
      <trkpt lat="37.156201582564911" lon="-5.750504004162954"/>
      <trkpt lat="37.156445564093303" lon="-5.750898987899432"/>
      <trkpt lat="37.156813903541376" lon="-5.75149438716773"/>
      <trkpt lat="37.157116154726879" lon="-5.752081043829261"/>
      <trkpt lat="37.157422663457147" lon="-5.752550001171699"/>
      <trkpt lat="37.15773046530024" lon="-5.753020939756298"/>
      <trkpt lat="37.158103696519802" lon="-5.753504265249426"/>
      <trkpt lat="37.158391479969318" lon="-5.753968114978493"/>
      <trkpt lat="37.158849060642908" lon="-5.754637376847497"/>
      <trkpt lat="37.159162378070491" lon="-5.754993914784221"/>
      <trkpt lat="37.1596281318091" lon="-5.755631775673589"/>
      <trkpt lat="37.159693620179027" lon="-5.755643249327036"/>
      <trkpt lat="37.159960316696939" lon="-5.755938685967228"/>
      <trkpt lat="37.160215297504116" lon="-5.756228603219423"/>
      <trkpt lat="37.160399949825987" lon="-5.756442924106391"/>
      <trkpt lat="37.160585020628403" lon="-5.756657733661164"/>
      <trkpt lat="37.160834837079477" lon="-5.756946184454326"/>
      <trkpt lat="37.161084001881392" lon="-5.757172503792416"/>
      <trkpt lat="37.161396675677999" lon="-5.757596845656013"/>
      <trkpt lat="37.161836364920028" lon="-5.758106055712005"/>
      <trkpt lat="37.162088822160342" lon="-5.758523679659229"/>
      <trkpt lat="37.162342001057041" lon="-5.75887981810804"/>
      <trkpt lat="37.162659569423923" lon="-5.759310822751806"/>
      <trkpt lat="37.162723216809653" lon="-5.759384635955974"/>
      <trkpt lat="37.162978526540932" lon="-5.759869636943545"/>
      <trkpt lat="37.163298514382141" lon="-5.760241105115727"/>
      <trkpt lat="37.163362661608723" lon="-5.760315573591763"/>
      <trkpt lat="37.163619989197429" lon="-5.760803968990047"/>
      <trkpt lat="37.163813341044488" lon="-5.761028659365732"/>
      <trkpt lat="37.16394257572118" lon="-5.76124218805724"/>
      <trkpt lat="37.164136606049937" lon="-5.761404316295565"/>
      <trkpt lat="37.164527707494507" lon="-5.761743544716089"/>
      <trkpt lat="37.164582337779052" lon="-5.761806144690114"/>
      <trkpt lat="37.16466316815049" lon="-5.762123937871104"/>
      <trkpt lat="37.164773247254303" lon="-5.762441891626438"/>
      <trkpt lat="37.164882393653478" lon="-5.762825011943869"/>
      <trkpt lat="37.164908050036928" lon="-5.763081342814979"/>
      <trkpt lat="37.1649346585153" lon="-5.763209526901973"/>
      <trkpt lat="37.165015762102627" lon="-5.763434051769192"/>
      <trkpt lat="37.165179169957483" lon="-5.763787955823114"/>
      <trkpt lat="37.1652873724804" lon="-5.764175024712065"/>
      <trkpt lat="37.165368951507872" lon="-5.764433763975889"/>
      <trkpt lat="37.165479334674608" lon="-5.764596612447097"/>
      <trkpt lat="37.165645361290643" lon="-5.76485790855302"/>
      <trkpt lat="37.165784524568323" lon="-5.765152171871511"/>
      <trkpt lat="37.165925591810527" lon="-5.765447619736395"/>
      <trkpt lat="37.166065727486988" lon="-5.765711449755367"/>
      <trkpt lat="37.16626321649985" lon="-5.766043291779466"/>
      <trkpt lat="37.166465037519913" lon="-5.766344592629605"/>
      <trkpt lat="37.16663637561269" lon="-5.766678698976374"/>
      <trkpt lat="37.166752532982308" lon="-5.766913496388328"/>
      <trkpt lat="37.166976264583411" lon="-5.767251446130937"/>
      <trkpt lat="37.167120272054717" lon="-5.767489051181043"/>
      <trkpt lat="37.167294292079347" lon="-5.767729127380553"/>
      <trkpt lat="37.167410204754923" lon="-5.767966924659961"/>
      <trkpt lat="37.167586855166299" lon="-5.768275669561826"/>
      <trkpt lat="37.167709232381434" lon="-5.768483409230493"/>
      <trkpt lat="37.167861044592073" lon="-5.768826959941752"/>
      <trkpt lat="37.168042645275158" lon="-5.769073610549579"/>
      <trkpt lat="37.168194538187812" lon="-5.769352599671135"/>
      <trkpt lat="37.16846750818533" lon="-5.769776326371701"/>
      <trkpt lat="37.168712157622437" lon="-5.770200618869088"/>
      <trkpt lat="37.16895838299731" lon="-5.770627647478012"/>
      <trkpt lat="37.169175677417869" lon="-5.770918933491681"/>
      <trkpt lat="37.169397556278597" lon="-5.771179153226381"/>
      <trkpt lat="37.16955757004375" lon="-5.77140038430179"/>
      <trkpt lat="37.169782490211027" lon="-5.771697947674173"/>
      <trkpt lat="37.169943475216712" lon="-5.771886901397981"/>
      <trkpt lat="37.170105160705219" lon="-5.772076677876222"/>
      <trkpt lat="37.170170775006532" lon="-5.77218754207953"/>
      <trkpt lat="37.170333456795113" lon="-5.772378564729977"/>
      <trkpt lat="37.170366077973611" lon="-5.772416868833487"/>
      <trkpt lat="37.170558741584827" lon="-5.772645781413997"/>
      <trkpt lat="37.170688236343352" lon="-5.772764607919523"/>
      <trkpt lat="37.170851251224953" lon="-5.772922614217468"/>
      <trkpt lat="37.170975365401709" lon="-5.773039476765217"/>
      <trkpt lat="37.171192162605408" lon="-5.773305158323421"/>
      <trkpt lat="37.171289335702269" lon="-5.773421235185933"/>
      <trkpt lat="37.171486522894178" lon="-5.773620248504447"/>
      <trkpt lat="37.171519463693642" lon="-5.773694322434557"/>
      <trkpt lat="37.171618497069502" lon="-5.773811842584938"/>
      <trkpt lat="37.171717775855242" lon="-5.773929657629139"/>
      <trkpt lat="37.1719176030456" lon="-5.774166406869121"/>
      <trkpt lat="37.172086223660457" lon="-5.774400513355317"/>
      <trkpt lat="37.172255806479157" lon="-5.774565122406118"/>
      <trkpt lat="37.172454128543819" lon="-5.774767589814886"/>
      <trkpt lat="37.172520324262067" lon="-5.774847039843802"/>
      <trkpt lat="37.172619810492677" lon="-5.774966446276094"/>
      <trkpt lat="37.172786133609222" lon="-5.775166072448447"/>
      <trkpt lat="37.172886591443209" lon="-5.775250819617879"/>
      <trkpt lat="37.172916949997308" lon="-5.775207235941851"/>
      <trkpt lat="37.172936724193733" lon="-5.775193786878837"/>
      <trkpt lat="37.172961526048098" lon="-5.775173839815926"/>
      <trkpt lat="37.172971494825688" lon="-5.7751608964089"/>
      <trkpt lat="37.173006378717027" lon="-5.775134064290403"/>
      <trkpt lat="37.173036413377993" lon="-5.775107428127058"/>
      <trkpt lat="37.17307160648285" lon="-5.775074154686434"/>
      <trkpt lat="37.173081639938189" lon="-5.775073516672463"/>
      <trkpt lat="37.173122032045129" lon="-5.775045991995336"/>
      <trkpt lat="37.173142302356887" lon="-5.775032179161519"/>
      <trkpt lat="37.173182946611213" lon="-5.775016963224338"/>
      <trkpt lat="37.173213601488783" lon="-5.77500234840927"/>
      <trkpt lat="37.17325465343864" lon="-5.774993220888991"/>
      <trkpt lat="37.173275257378791" lon="-5.774985501556018"/>
      <trkpt lat="37.173321802255558" lon="-5.77496963829895"/>
      <trkpt lat="37.173358168976797" lon="-5.774960754427651"/>
      <trkpt lat="37.17338945703009" lon="-5.774958529997871"/>
      <trkpt lat="37.17340514450337" lon="-5.774957415816394"/>
      <trkpt lat="37.173431316455478" lon="-5.774955579246138"/>
      <trkpt lat="37.173473135797472" lon="-5.774990887058312"/>
      <trkpt lat="37.173488380967846" lon="-5.775028308648159"/>
      <trkpt lat="37.173509006839502" lon="-5.775065413695594"/>
      <trkpt lat="37.173508860410927" lon="-5.775084593336679"/>
      <trkpt lat="37.173513932576917" lon="-5.775116224582692"/>
      <trkpt lat="37.17351898120819" lon="-5.775154259006712"/>
      <trkpt lat="37.173529231914948" lon="-5.775217568820473"/>
      <trkpt lat="37.173534384987107" lon="-5.775249242008825"/>
      <trkpt lat="37.1735448480893" lon="-5.7752806627803"/>
      <trkpt lat="37.173549973598497" lon="-5.775325170909442"/>
      <trkpt lat="37.173565897994308" lon="-5.775356385683837"/>
      <trkpt lat="37.173576479044968" lon="-5.775387910502323"/>
      <trkpt lat="37.173592254044173" lon="-5.775438523287086"/>
      <trkpt lat="37.173613385460037" lon="-5.775482628490386"/>
      <trkpt lat="37.173634551043513" lon="-5.77551400348367"/>
      <trkpt lat="37.173650414853682" lon="-5.775552060264796"/>
      <trkpt lat="37.173671671539971" lon="-5.775583585610949"/>
      <trkpt lat="37.17370368921528" lon="-5.775621338099115"/>
      <trkpt lat="37.173725103598663" lon="-5.775653036890836"/>
      <trkpt lat="37.173773505402018" lon="-5.775703592712455"/>
      <trkpt lat="37.173811338503292" lon="-5.775741662373559"/>
      <trkpt lat="37.173854848528258" lon="-5.775786284364182"/>
      <trkpt lat="37.173892941892753" lon="-5.775831240346339"/>
      <trkpt lat="37.173942092783378" lon="-5.77587625440434"/>
      <trkpt lat="37.173969514425842" lon="-5.775902092894207"/>
      <trkpt lat="37.173975006370057" lon="-5.775908580100969"/>
      <trkpt lat="37.174002502780752" lon="-5.775947637245787"/>
      <trkpt lat="37.174019047816863" lon="-5.775967187442549"/>
      <trkpt lat="37.174052239268363" lon="-5.775999812865132"/>
      <trkpt lat="37.174079968302003" lon="-5.776039172769478"/>
      <trkpt lat="37.174113352868908" lon="-5.776072038716562"/>
      <trkpt lat="37.17413550313335" lon="-5.776111650032769"/>
      <trkpt lat="37.174163358766258" lon="-5.776144740645609"/>
      <trkpt lat="37.174196855242002" lon="-5.77619121032963"/>
      <trkpt lat="37.174236141645622" lon="-5.77623787697215"/>
      <trkpt lat="37.174253001415678" lon="-5.776264588406205"/>
      <trkpt lat="37.174281229060767" lon="-5.776298109338565"/>
      <trkpt lat="37.174309539968377" lon="-5.776331729656754"/>
      <trkpt lat="37.174337861646841" lon="-5.776378813252126"/>
      <trkpt lat="37.174366340947607" lon="-5.776412653719564"/>
      <trkpt lat="37.174400628540759" lon="-5.776453395182099"/>
      <trkpt lat="37.174429294990837" lon="-5.776487458106669"/>
      <trkpt lat="37.174457972426737" lon="-5.776535069356262"/>
      <trkpt lat="37.174498510468148" lon="-5.776576373993692"/>
      <trkpt lat="37.174533591407332" lon="-5.776617731149653"/>
      <trkpt lat="37.174574698303303" lon="-5.77665941135526"/>
      <trkpt lat="37.174604174278251" lon="-5.776687359348129"/>
      <trkpt lat="37.174633817828457" lon="-5.776715406924421"/>
      <trkpt lat="37.174663566302577" lon="-5.776743546530066"/>
      <trkpt lat="37.17469340867698" lon="-5.776764961758697"/>
      <trkpt lat="37.174717349983183" lon="-5.776779413876849"/>
      <trkpt lat="37.174753381263713" lon="-5.776807999782162"/>
      <trkpt lat="37.174777481130398" lon="-5.77682940074955"/>
      <trkpt lat="37.174789556602242" lon="-5.776843547904488"/>
      <trkpt lat="37.17481385556264" lon="-5.776885637171"/>
      <trkpt lat="37.174838228709888" lon="-5.776927842830117"/>
      <trkpt lat="37.174850440085933" lon="-5.776948988854379"/>
      <trkpt lat="37.174862685919507" lon="-5.776977047799886"/>
      <trkpt lat="37.174874966710611" lon="-5.777012035243648"/>
      <trkpt lat="37.174893732579307" lon="-5.777061237430903"/>
      <trkpt lat="37.174918300444588" lon="-5.777110776472771"/>
      <trkpt lat="37.174936751573192" lon="-5.777139376574389"/>
      <trkpt lat="37.174961401663801" lon="-5.777175291018048"/>
      <trkpt lat="37.174979968765797" lon="-5.777210959970209"/>
      <trkpt lat="37.175023451897438" lon="-5.777269012694587"/>
      <trkpt lat="37.175054677339148" lon="-5.7773196053519"/>
      <trkpt lat="37.175073458348422" lon="-5.777348650320531"/>
      <trkpt lat="37.175111078453483" lon="-5.777392943538215"/>
      <trkpt lat="37.175148773130068" lon="-5.777423405585859"/>
      <trkpt lat="37.175186565020653" lon="-5.777446965128395"/>
      <trkpt lat="37.17521824673846" lon="-5.77747722252932"/>
      <trkpt lat="37.191660000" lon="-5.769320000"/>
      <trkpt lat="37.191560000" lon="-5.769410000"/>
      <trkpt lat="37.191860000" lon="-5.769870000"/>
      <trkpt lat="37.192810000" lon="-5.768850000"/>
      <trkpt lat="37.193180000" lon="-5.768420000"/>
      <trkpt lat="37.193180000" lon="-5.768410000"/>
      <trkpt lat="37.193170000" lon="-5.768410000"/>
      <trkpt lat="37.193170000" lon="-5.768400000"/>
      <trkpt lat="37.193160000" lon="-5.768390000"/>
      <trkpt lat="37.193160000" lon="-5.768370000"/>
      <trkpt lat="37.193150000" lon="-5.768360000"/>
      <trkpt lat="37.193150000" lon="-5.768250000"/>
      <trkpt lat="37.193160000" lon="-5.768240000"/>
      <trkpt lat="37.193160000" lon="-5.768220000"/>
      <trkpt lat="37.193170000" lon="-5.768210000"/>
      <trkpt lat="37.193170000" lon="-5.768200000"/>
      <trkpt lat="37.193180000" lon="-5.768200000"/>
      <trkpt lat="37.193180000" lon="-5.768190000"/>
      <trkpt lat="37.193230000" lon="-5.768140000"/>
      <trkpt lat="37.193250000" lon="-5.768140000"/>
      <trkpt lat="37.193260000" lon="-5.768130000"/>
      <trkpt lat="37.193320000" lon="-5.768130000"/>
      <trkpt lat="37.193330000" lon="-5.768140000"/>
      <trkpt lat="37.193350000" lon="-5.768140000"/>
      <trkpt lat="37.193350000" lon="-5.768150000"/>
      <trkpt lat="37.193360000" lon="-5.768150000"/>
      <trkpt lat="37.193390000" lon="-5.768180000"/>
      <trkpt lat="37.193660000" lon="-5.767910000"/>
      <trkpt lat="37.194000000" lon="-5.767510000"/>
      <trkpt lat="37.194060000" lon="-5.767460000"/>
      <trkpt lat="37.194400000" lon="-5.767080000"/>
      <trkpt lat="37.194470000" lon="-5.767030000"/>
      <trkpt lat="37.194950000" lon="-5.766640000"/>
      <trkpt lat="37.195030000" lon="-5.766590000"/>
      <trkpt lat="37.195100000" lon="-5.766520000"/>
      <trkpt lat="37.195500000" lon="-5.766210000"/>
      <trkpt lat="37.196020000" lon="-5.765610000"/>
      <trkpt lat="37.196010000" lon="-5.765590000"/>
      <trkpt lat="37.196000000" lon="-5.765560000"/>
      <trkpt lat="37.195990000" lon="-5.765540000"/>
      <trkpt lat="37.195980000" lon="-5.765510000"/>
      <trkpt lat="37.195970000" lon="-5.765490000"/>
      <trkpt lat="37.195960000" lon="-5.765460000"/>
      <trkpt lat="37.195960000" lon="-5.765340000"/>
      <trkpt lat="37.195970000" lon="-5.765310000"/>
      <trkpt lat="37.196020000" lon="-5.765210000"/>
      <trkpt lat="37.196040000" lon="-5.765190000"/>
      <trkpt lat="37.196050000" lon="-5.765170000"/>
      <trkpt lat="37.196070000" lon="-5.765160000"/>
      <trkpt lat="37.196090000" lon="-5.765140000"/>
      <trkpt lat="37.196110000" lon="-5.765130000"/>
      <trkpt lat="37.196140000" lon="-5.765120000"/>
      <trkpt lat="37.196230000" lon="-5.765120000"/>
      <trkpt lat="37.196240000" lon="-5.765130000"/>
      <trkpt lat="37.196260000" lon="-5.765130000"/>
      <trkpt lat="37.196280000" lon="-5.765140000"/>
      <trkpt lat="37.196290000" lon="-5.765150000"/>
      <trkpt lat="37.196310000" lon="-5.765160000"/>
      <trkpt lat="37.196350000" lon="-5.765200000"/>
      <trkpt lat="37.196370000" lon="-5.765240000"/>
      <trkpt lat="37.196380000" lon="-5.765250000"/>
      <trkpt lat="37.196380000" lon="-5.765260000"/>
      <trkpt lat="37.196400000" lon="-5.765300000"/>
      <trkpt lat="37.196410000" lon="-5.765310000"/>
      <trkpt lat="37.196420000" lon="-5.765340000"/>
      <trkpt lat="37.196420000" lon="-5.765480000"/>
      <trkpt lat="37.196410000" lon="-5.765510000"/>
      <trkpt lat="37.196400000" lon="-5.765530000"/>
      <trkpt lat="37.196390000" lon="-5.765560000"/>
      <trkpt lat="37.196370000" lon="-5.765580000"/>
      <trkpt lat="37.196360000" lon="-5.765600000"/>
      <trkpt lat="37.196330000" lon="-5.765630000"/>
      <trkpt lat="37.196340000" lon="-5.765700000"/>
      <trkpt lat="37.196250000" lon="-5.767880000"/>
      <trkpt lat="37.196250000" lon="-5.768160000"/>
      <trkpt lat="37.196200000" lon="-5.769120000"/>
      <trkpt lat="37.196200000" lon="-5.769310000"/>
      <trkpt lat="37.196180000" lon="-5.769700000"/>
      <trkpt lat="37.196150000" lon="-5.771020000"/>
      <trkpt lat="37.196080000" lon="-5.772460000"/>
      <trkpt lat="37.196000000" lon="-5.773310000"/>
      <trkpt lat="37.195810000" lon="-5.774630000"/>
      <trkpt lat="37.195820000" lon="-5.774700000"/>
      <trkpt lat="37.195660000" lon="-5.775690000"/>
      <trkpt lat="37.195680000" lon="-5.775720000"/>
      <trkpt lat="37.195700000" lon="-5.775740000"/>
      <trkpt lat="37.195710000" lon="-5.775770000"/>
      <trkpt lat="37.195720000" lon="-5.775790000"/>
      <trkpt lat="37.195730000" lon="-5.775820000"/>
      <trkpt lat="37.195730000" lon="-5.775840000"/>
      <trkpt lat="37.195740000" lon="-5.775870000"/>
      <trkpt lat="37.195740000" lon="-5.775960000"/>
      <trkpt lat="37.195730000" lon="-5.775990000"/>
      <trkpt lat="37.195730000" lon="-5.776020000"/>
      <trkpt lat="37.195710000" lon="-5.776050000"/>
      <trkpt lat="37.195700000" lon="-5.776080000"/>
      <trkpt lat="37.195680000" lon="-5.776120000"/>
      <trkpt lat="37.195660000" lon="-5.776140000"/>
      <trkpt lat="37.195640000" lon="-5.776150000"/>
      <trkpt lat="37.195630000" lon="-5.776160000"/>
      <trkpt lat="37.195570000" lon="-5.776190000"/>
      <trkpt lat="37.195220000" lon="-5.777060000"/>
      <trkpt lat="37.194070000" lon="-5.780990000"/>
      <trkpt lat="37.193810000" lon="-5.782050000"/>
      <trkpt lat="37.193800000" lon="-5.782110000"/>
      <trkpt lat="37.193680000" lon="-5.782540000"/>
      <trkpt lat="37.193740000" lon="-5.782920000"/>
      <trkpt lat="37.193780000" lon="-5.782940000"/>
      <trkpt lat="37.193800000" lon="-5.782960000"/>
      <trkpt lat="37.193870000" lon="-5.783000000"/>
      <trkpt lat="37.193900000" lon="-5.783100000"/>
      <trkpt lat="37.193910000" lon="-5.783170000"/>
      <trkpt lat="37.193750000" lon="-5.783650000"/>
      <trkpt lat="37.193410000" lon="-5.784790000"/>
      <trkpt lat="37.193410000" lon="-5.784830000"/>
      <trkpt lat="37.193420000" lon="-5.784860000"/>
      <trkpt lat="37.193420000" lon="-5.784890000"/>
      <trkpt lat="37.193410000" lon="-5.784930000"/>
      <trkpt lat="37.193410000" lon="-5.784960000"/>
      <trkpt lat="37.193380000" lon="-5.785050000"/>
      <trkpt lat="37.193360000" lon="-5.785080000"/>
      <trkpt lat="37.193330000" lon="-5.785110000"/>
      <trkpt lat="37.193290000" lon="-5.785330000"/>
      <trkpt lat="37.193250000" lon="-5.785470000"/>
      <trkpt lat="37.193180000" lon="-5.785590000"/>
      <trkpt lat="37.192500000" lon="-5.787930000"/>
      <trkpt lat="37.191730000" lon="-5.790740000"/>
      <trkpt lat="37.191730000" lon="-5.790780000"/>
      <trkpt lat="37.191700000" lon="-5.790900000"/>
      <trkpt lat="37.191690000" lon="-5.791020000"/>
      <trkpt lat="37.191690000" lon="-5.791090000"/>
      <trkpt lat="37.191680000" lon="-5.791100000"/>
      <trkpt lat="37.191680000" lon="-5.791130000"/>
      <trkpt lat="37.193050000" lon="-5.792250000"/>
      <trkpt lat="37.193340000" lon="-5.792470000"/>
      <trkpt lat="37.193970000" lon="-5.793010000"/>
      <trkpt lat="37.194190000" lon="-5.793230000"/>
      <trkpt lat="37.194250000" lon="-5.793260000"/>
      <trkpt lat="37.194290000" lon="-5.793260000"/>
      <trkpt lat="37.194290000" lon="-5.793250000"/>
      <trkpt lat="37.194300000" lon="-5.793260000"/>
      <trkpt lat="37.194340000" lon="-5.793260000"/>
      <trkpt lat="37.194340000" lon="-5.793270000"/>
      <trkpt lat="37.194350000" lon="-5.793270000"/>
      <trkpt lat="37.194370000" lon="-5.793290000"/>
      <trkpt lat="37.194370000" lon="-5.793300000"/>
      <trkpt lat="37.194380000" lon="-5.793300000"/>
      <trkpt lat="37.194380000" lon="-5.793330000"/>
      <trkpt lat="37.194390000" lon="-5.793330000"/>
      <trkpt lat="37.194390000" lon="-5.793380000"/>
      <trkpt lat="37.195990000" lon="-5.794600000"/>
      <trkpt lat="37.196000000" lon="-5.794590000"/>
      <trkpt lat="37.196010000" lon="-5.794590000"/>
      <trkpt lat="37.196020000" lon="-5.794580000"/>
      <trkpt lat="37.196040000" lon="-5.794580000"/>
      <trkpt lat="37.196050000" lon="-5.794570000"/>
      <trkpt lat="37.196070000" lon="-5.794570000"/>
      <trkpt lat="37.196070000" lon="-5.794580000"/>
      <trkpt lat="37.196100000" lon="-5.794580000"/>
      <trkpt lat="37.196100000" lon="-5.794590000"/>
      <trkpt lat="37.196120000" lon="-5.794590000"/>
      <trkpt lat="37.196120000" lon="-5.794600000"/>
      <trkpt lat="37.196130000" lon="-5.794600000"/>
      <trkpt lat="37.196130000" lon="-5.794610000"/>
      <trkpt lat="37.196140000" lon="-5.794610000"/>
      <trkpt lat="37.196140000" lon="-5.794620000"/>
      <trkpt lat="37.196150000" lon="-5.794620000"/>
      <trkpt lat="37.196150000" lon="-5.794630000"/>
      <trkpt lat="37.196160000" lon="-5.794640000"/>
      <trkpt lat="37.196160000" lon="-5.794650000"/>
      <trkpt lat="37.196170000" lon="-5.794650000"/>
      <trkpt lat="37.196170000" lon="-5.794680000"/>
      <trkpt lat="37.196180000" lon="-5.794690000"/>
      <trkpt lat="37.196180000" lon="-5.794750000"/>
      <trkpt lat="37.196290000" lon="-5.794820000"/>
      <trkpt lat="37.197100000" lon="-5.795440000"/>
      <trkpt lat="37.197660000" lon="-5.795840000"/>
      <trkpt lat="37.197800000" lon="-5.795960000"/>
      <trkpt lat="37.197930000" lon="-5.796090000"/>
      <trkpt lat="37.198000000" lon="-5.796190000"/>
      <trkpt lat="37.198120000" lon="-5.796490000"/>
      <trkpt lat="37.198160000" lon="-5.796500000"/>
      <trkpt lat="37.198200000" lon="-5.796520000"/>
      <trkpt lat="37.198240000" lon="-5.796550000"/>
      <trkpt lat="37.198270000" lon="-5.796580000"/>
      <trkpt lat="37.198330000" lon="-5.796660000"/>
      <trkpt lat="37.198370000" lon="-5.796750000"/>
      <trkpt lat="37.198500000" lon="-5.796880000"/>
      <trkpt lat="37.198550000" lon="-5.796920000"/>
      <trkpt lat="37.198770000" lon="-5.797030000"/>
      <trkpt lat="37.199080000" lon="-5.797140000"/>
      <trkpt lat="37.199190000" lon="-5.797170000"/>
      <trkpt lat="37.199230000" lon="-5.797190000"/>
      <trkpt lat="37.199540000" lon="-5.797300000"/>
      <trkpt lat="37.200120000" lon="-5.797570000"/>
      <trkpt lat="37.200410000" lon="-5.797740000"/>
      <trkpt lat="37.200540000" lon="-5.797830000"/>
      <trkpt lat="37.200550000" lon="-5.797830000"/>
      <trkpt lat="37.200960000" lon="-5.798120000"/>
      <trkpt lat="37.201090000" lon="-5.798230000"/>
      <trkpt lat="37.201210000" lon="-5.798320000"/>
      <trkpt lat="37.201790000" lon="-5.798810000"/>
      <trkpt lat="37.201910000" lon="-5.798930000"/>
      <trkpt lat="37.202140000" lon="-5.799120000"/>
      <trkpt lat="37.202750000" lon="-5.799670000"/>
      <trkpt lat="37.204200000" lon="-5.800920000"/>
      <trkpt lat="37.204300000" lon="-5.800990000"/>
      <trkpt lat="37.204540000" lon="-5.801190000"/>
      <trkpt lat="37.204660000" lon="-5.801300000"/>
      <trkpt lat="37.204900000" lon="-5.801500000"/>
      <trkpt lat="37.205020000" lon="-5.801610000"/>
      <trkpt lat="37.205260000" lon="-5.801800000"/>
      <trkpt lat="37.205640000" lon="-5.802070000"/>
      <trkpt lat="37.205720000" lon="-5.802110000"/>
      <trkpt lat="37.205890000" lon="-5.802210000"/>
      <trkpt lat="37.205900000" lon="-5.802220000"/>
      <trkpt lat="37.206240000" lon="-5.802400000"/>
      <trkpt lat="37.206310000" lon="-5.802430000"/>
      <trkpt lat="37.206460000" lon="-5.802510000"/>
      <trkpt lat="37.206880000" lon="-5.802690000"/>
      <trkpt lat="37.207200000" lon="-5.802810000"/>
      <trkpt lat="37.207240000" lon="-5.802830000"/>
      <trkpt lat="37.207780000" lon="-5.803050000"/>
      <trkpt lat="37.208220000" lon="-5.803250000"/>
      <trkpt lat="37.208630000" lon="-5.803470000"/>
      <trkpt lat="37.208910000" lon="-5.803640000"/>
      <trkpt lat="37.209050000" lon="-5.803740000"/>
      <trkpt lat="37.209060000" lon="-5.803740000"/>
      <trkpt lat="37.209580000" lon="-5.804130000"/>
      <trkpt lat="37.209710000" lon="-5.804240000"/>
      <trkpt lat="37.210070000" lon="-5.804590000"/>
      <trkpt lat="37.210120000" lon="-5.804630000"/>
      <trkpt lat="37.210540000" lon="-5.805100000"/>
      <trkpt lat="37.210860000" lon="-5.805510000"/>
      <trkpt lat="37.210950000" lon="-5.805650000"/>
      <trkpt lat="37.211220000" lon="-5.806030000"/>
      <trkpt lat="37.211900000" lon="-5.807060000"/>
      <trkpt lat="37.212440000" lon="-5.807790000"/>
      <trkpt lat="37.212960000" lon="-5.808400000"/>
      <trkpt lat="37.213390000" lon="-5.808800000"/>
      <trkpt lat="37.213410000" lon="-5.808810000"/>
      <trkpt lat="37.213920000" lon="-5.809210000"/>
      <trkpt lat="37.214270000" lon="-5.809450000"/>
      <trkpt lat="37.215040000" lon="-5.809940000"/>
      <trkpt lat="37.215420000" lon="-5.810200000"/>
      <trkpt lat="37.215570000" lon="-5.810290000"/>
      <trkpt lat="37.215580000" lon="-5.810300000"/>
      <trkpt lat="37.216110000" lon="-5.810680000"/>
      <trkpt lat="37.216490000" lon="-5.810990000"/>
      <trkpt lat="37.216920000" lon="-5.811370000"/>
      <trkpt lat="37.217640000" lon="-5.812090000"/>
      <trkpt lat="37.218140000" lon="-5.812660000"/>
      <trkpt lat="37.222580000" lon="-5.818260000"/>
      <trkpt lat="37.222730000" lon="-5.818430000"/>
      <trkpt lat="37.222850000" lon="-5.818580000"/>
      <trkpt lat="37.223070000" lon="-5.818820000"/>
      <trkpt lat="37.223550000" lon="-5.819280000"/>
      <trkpt lat="37.223860000" lon="-5.819540000"/>
      <trkpt lat="37.224090000" lon="-5.819710000"/>
      <trkpt lat="37.224480000" lon="-5.819970000"/>
      <trkpt lat="37.224710000" lon="-5.820110000"/>
      <trkpt lat="37.225320000" lon="-5.820430000"/>
      <trkpt lat="37.226060000" lon="-5.820700000"/>
      <trkpt lat="37.226430000" lon="-5.820820000"/>
      <trkpt lat="37.226490000" lon="-5.820830000"/>
      <trkpt lat="37.228140000" lon="-5.821330000"/>
      <trkpt lat="37.228150000" lon="-5.821330000"/>
      <trkpt lat="37.229090000" lon="-5.821610000"/>
      <trkpt lat="37.229750000" lon="-5.821850000"/>
      <trkpt lat="37.229950000" lon="-5.821940000"/>
      <trkpt lat="37.230030000" lon="-5.821970000"/>
      <trkpt lat="37.230290000" lon="-5.822100000"/>
      <trkpt lat="37.230620000" lon="-5.822290000"/>
      <trkpt lat="37.231200000" lon="-5.822670000"/>
      <trkpt lat="37.231920000" lon="-5.823270000"/>
      <trkpt lat="37.231990000" lon="-5.823340000"/>
      <trkpt lat="37.232440000" lon="-5.823740000"/>
      <trkpt lat="37.233450000" lon="-5.824700000"/>
      <trkpt lat="37.234760000" lon="-5.826030000"/>
      <trkpt lat="37.235820000" lon="-5.827180000"/>
      <trkpt lat="37.235890000" lon="-5.827270000"/>
      <trkpt lat="37.235950000" lon="-5.827330000"/>
      <trkpt lat="37.236070000" lon="-5.827470000"/>
      <trkpt lat="37.236080000" lon="-5.827470000"/>
      <trkpt lat="37.236760000" lon="-5.828260000"/>
      <trkpt lat="37.238230000" lon="-5.830070000"/>
      <trkpt lat="37.239590000" lon="-5.831910000"/>
      <trkpt lat="37.241290000" lon="-5.834050000"/>
      <trkpt lat="37.242170000" lon="-5.835090000"/>
      <trkpt lat="37.242290000" lon="-5.835220000"/>
      <trkpt lat="37.245180000" lon="-5.838630000"/>
      <trkpt lat="37.245520000" lon="-5.838990000"/>
      <trkpt lat="37.246150000" lon="-5.839620000"/>
      <trkpt lat="37.246740000" lon="-5.840130000"/>
      <trkpt lat="37.247050000" lon="-5.840370000"/>
      <trkpt lat="37.247350000" lon="-5.840570000"/>
      <trkpt lat="37.247630000" lon="-5.840740000"/>
      <trkpt lat="37.247670000" lon="-5.840770000"/>
      <trkpt lat="37.249330000" lon="-5.841710000"/>
      <trkpt lat="37.252350000" lon="-5.843320000"/>
      <trkpt lat="37.252500000" lon="-5.843410000"/>
      <trkpt lat="37.254060000" lon="-5.844240000"/>
      <trkpt lat="37.254070000" lon="-5.844250000"/>
      <trkpt lat="37.254960000" lon="-5.844760000"/>
      <trkpt lat="37.255470000" lon="-5.845100000"/>
      <trkpt lat="37.255850000" lon="-5.845380000"/>
      <trkpt lat="37.256350000" lon="-5.845790000"/>
      <trkpt lat="37.256370000" lon="-5.845820000"/>
      <trkpt lat="37.257160000" lon="-5.846520000"/>
      <trkpt lat="37.260790000" lon="-5.849890000"/>
      <trkpt lat="37.260930000" lon="-5.850030000"/>
      <trkpt lat="37.263290000" lon="-5.852180000"/>
      <trkpt lat="37.265310000" lon="-5.854070000"/>
      <trkpt lat="37.265460000" lon="-5.854200000"/>
      <trkpt lat="37.265580000" lon="-5.854320000"/>
      <trkpt lat="37.266970000" lon="-5.855570000"/>
      <trkpt lat="37.267050000" lon="-5.855630000"/>
      <trkpt lat="37.268110000" lon="-5.856520000"/>
      <trkpt lat="37.268800000" lon="-5.857060000"/>
      <trkpt lat="37.269650000" lon="-5.857690000"/>
      <trkpt lat="37.270580000" lon="-5.858340000"/>
      <trkpt lat="37.278710000" lon="-5.863710000"/>
      <trkpt lat="37.279180000" lon="-5.864060000"/>
      <trkpt lat="37.279620000" lon="-5.864430000"/>
      <trkpt lat="37.280160000" lon="-5.864950000"/>
      <trkpt lat="37.280530000" lon="-5.865350000"/>
      <trkpt lat="37.283440000" lon="-5.868650000"/>
      <trkpt lat="37.284710000" lon="-5.870130000"/>
      <trkpt lat="37.285200000" lon="-5.870730000"/>
      <trkpt lat="37.286030000" lon="-5.871680000"/>
      <trkpt lat="37.286670000" lon="-5.872330000"/>
      <trkpt lat="37.287430000" lon="-5.873020000"/>
      <trkpt lat="37.287950000" lon="-5.873440000"/>
      <trkpt lat="37.288620000" lon="-5.873910000"/>
      <trkpt lat="37.289170000" lon="-5.874250000"/>
      <trkpt lat="37.289810000" lon="-5.874600000"/>
      <trkpt lat="37.290010000" lon="-5.874720000"/>
      <trkpt lat="37.294320000" lon="-5.877100000"/>
      <trkpt lat="37.296020000" lon="-5.878150000"/>
      <trkpt lat="37.296590000" lon="-5.878530000"/>
      <trkpt lat="37.296600000" lon="-5.878540000"/>
      <trkpt lat="37.297620000" lon="-5.879240000"/>
      <trkpt lat="37.298480000" lon="-5.879870000"/>
      <trkpt lat="37.302950000" lon="-5.883390000"/>
      <trkpt lat="37.302970000" lon="-5.883420000"/>
      <trkpt lat="37.302990000" lon="-5.883430000"/>
      <trkpt lat="37.303980000" lon="-5.884210000"/>
      <trkpt lat="37.304190000" lon="-5.884390000"/>
      <trkpt lat="37.305910000" lon="-5.885760000"/>
      <trkpt lat="37.306320000" lon="-5.886110000"/>
      <trkpt lat="37.306830000" lon="-5.886610000"/>
      <trkpt lat="37.307480000" lon="-5.887330000"/>
      <trkpt lat="37.308700000" lon="-5.888840000"/>
      <trkpt lat="37.309860000" lon="-5.890360000"/>
      <trkpt lat="37.310070000" lon="-5.890600000"/>
      <trkpt lat="37.310390000" lon="-5.890940000"/>
      <trkpt lat="37.310510000" lon="-5.891040000"/>
      <trkpt lat="37.311020000" lon="-5.891520000"/>
      <trkpt lat="37.311170000" lon="-5.891650000"/>
      <trkpt lat="37.314770000" lon="-5.895000000"/>
      <trkpt lat="37.314910000" lon="-5.895140000"/>
      <trkpt lat="37.316180000" lon="-5.896310000"/>
      <trkpt lat="37.316350000" lon="-5.896480000"/>
      <trkpt lat="37.316490000" lon="-5.896600000"/>
      <trkpt lat="37.317420000" lon="-5.897470000"/>
      <trkpt lat="37.317440000" lon="-5.897500000"/>
      <trkpt lat="37.317500000" lon="-5.897540000"/>
      <trkpt lat="37.317810000" lon="-5.897840000"/>
      <trkpt lat="37.317850000" lon="-5.897890000"/>
      <trkpt lat="37.318160000" lon="-5.898140000"/>
      <trkpt lat="37.318490000" lon="-5.898380000"/>
      <trkpt lat="37.324290000" lon="-5.901950000"/>
      <trkpt lat="37.324540000" lon="-5.902090000"/>
      <trkpt lat="37.326370000" lon="-5.903230000"/>
      <trkpt lat="37.326950000" lon="-5.903570000"/>
      <trkpt lat="37.327270000" lon="-5.903780000"/>
      <trkpt lat="37.328640000" lon="-5.904620000"/>
      <trkpt lat="37.329040000" lon="-5.904910000"/>
      <trkpt lat="37.329590000" lon="-5.905380000"/>
      <trkpt lat="37.329730000" lon="-5.905540000"/>
      <trkpt lat="37.329940000" lon="-5.905810000"/>
      <trkpt lat="37.330130000" lon="-5.906090000"/>
      <trkpt lat="37.330230000" lon="-5.906260000"/>
      <trkpt lat="37.330340000" lon="-5.906420000"/>
      <trkpt lat="37.330520000" lon="-5.906760000"/>
      <trkpt lat="37.330740000" lon="-5.907250000"/>
      <trkpt lat="37.330970000" lon="-5.907930000"/>
      <trkpt lat="37.331140000" lon="-5.908620000"/>
      <trkpt lat="37.331260000" lon="-5.909040000"/>
      <trkpt lat="37.332480000" lon="-5.913760000"/>
      <trkpt lat="37.332590000" lon="-5.914110000"/>
      <trkpt lat="37.332870000" lon="-5.914790000"/>
      <trkpt lat="37.333130000" lon="-5.915270000"/>
      <trkpt lat="37.333190000" lon="-5.915340000"/>
      <trkpt lat="37.333300000" lon="-5.915510000"/>
      <trkpt lat="37.333770000" lon="-5.916080000"/>
      <trkpt lat="37.334200000" lon="-5.916630000"/>
      <trkpt lat="37.334410000" lon="-5.916930000"/>
      <trkpt lat="37.334650000" lon="-5.917370000"/>
      <trkpt lat="37.334830000" lon="-5.917770000"/>
      <trkpt lat="37.335550000" lon="-5.919790000"/>
      <trkpt lat="37.335630000" lon="-5.919990000"/>
      <trkpt lat="37.336210000" lon="-5.921630000"/>
      <trkpt lat="37.336590000" lon="-5.922600000"/>
      <trkpt lat="37.336700000" lon="-5.922840000"/>
      <trkpt lat="37.336910000" lon="-5.923250000"/>
      <trkpt lat="37.337190000" lon="-5.923690000"/>
      <trkpt lat="37.337340000" lon="-5.923890000"/>
      <trkpt lat="37.337500000" lon="-5.924070000"/>
      <trkpt lat="37.337910000" lon="-5.924490000"/>
      <trkpt lat="37.338200000" lon="-5.924750000"/>
      <trkpt lat="37.339480000" lon="-5.925800000"/>
      <trkpt lat="37.340100000" lon="-5.926370000"/>
      <trkpt lat="37.340240000" lon="-5.926520000"/>
      <trkpt lat="37.340570000" lon="-5.926930000"/>
      <trkpt lat="37.341250000" lon="-5.927940000"/>
      <trkpt lat="37.341430000" lon="-5.928230000"/>
      <trkpt lat="37.342260000" lon="-5.929430000"/>
      <trkpt lat="37.342270000" lon="-5.929440000"/>
      <trkpt lat="37.342310000" lon="-5.929500000"/>
      <trkpt lat="37.342340000" lon="-5.929560000"/>
      <trkpt lat="37.342820000" lon="-5.930230000"/>
      <trkpt lat="37.343710000" lon="-5.931550000"/>
      <trkpt lat="37.344800000" lon="-5.933080000"/>
      <trkpt lat="37.345050000" lon="-5.933470000"/>
      <trkpt lat="37.345610000" lon="-5.934260000"/>
      <trkpt lat="37.345920000" lon="-5.934770000"/>
      <trkpt lat="37.346440000" lon="-5.935570000"/>
      <trkpt lat="37.346700000" lon="-5.935920000"/>
      <trkpt lat="37.346890000" lon="-5.936200000"/>
      <trkpt lat="37.346910000" lon="-5.936240000"/>
      <trkpt lat="37.346940000" lon="-5.936270000"/>
      <trkpt lat="37.347320000" lon="-5.936860000"/>
      <trkpt lat="37.347660000" lon="-5.937340000"/>
      <trkpt lat="37.347850000" lon="-5.937640000"/>
      <trkpt lat="37.348350000" lon="-5.938300000"/>
      <trkpt lat="37.348630000" lon="-5.938630000"/>
      <trkpt lat="37.349040000" lon="-5.939040000"/>
      <trkpt lat="37.349310000" lon="-5.939270000"/>
      <trkpt lat="37.349810000" lon="-5.939740000"/>
      <trkpt lat="37.350420000" lon="-5.940360000"/>
      <trkpt lat="37.350760000" lon="-5.940740000"/>
      <trkpt lat="37.352510000" lon="-5.942580000"/>
      <trkpt lat="37.352850000" lon="-5.943020000"/>
      <trkpt lat="37.352880000" lon="-5.943050000"/>
      <trkpt lat="37.352940000" lon="-5.943130000"/>
      <trkpt lat="37.352960000" lon="-5.943150000"/>
      <trkpt lat="37.353050000" lon="-5.943280000"/>
      <trkpt lat="37.353220000" lon="-5.943500000"/>
      <trkpt lat="37.353480000" lon="-5.943980000"/>
      <trkpt lat="37.354080000" lon="-5.945200000"/>
      <trkpt lat="37.354740000" lon="-5.946620000"/>
      <trkpt lat="37.354750000" lon="-5.946650000"/>
      <trkpt lat="37.355910000" lon="-5.949090000"/>
      <trkpt lat="37.356030000" lon="-5.949320000"/>
      <trkpt lat="37.356190000" lon="-5.949660000"/>
      <trkpt lat="37.356200000" lon="-5.949670000"/>
      <trkpt lat="37.356350000" lon="-5.950000000"/>
      <trkpt lat="37.356640000" lon="-5.950570000"/>
      <trkpt lat="37.357050000" lon="-5.951440000"/>
      <trkpt lat="37.357060000" lon="-5.951470000"/>
      <trkpt lat="37.357440000" lon="-5.952130000"/>
      <trkpt lat="37.357650000" lon="-5.952430000"/>
      <trkpt lat="37.358630000" lon="-5.953740000"/>
      <trkpt lat="37.359170000" lon="-5.954550000"/>
      <trkpt lat="37.359520000" lon="-5.955170000"/>
      <trkpt lat="37.359860000" lon="-5.955890000"/>
      <trkpt lat="37.360000000" lon="-5.956230000"/>
      <trkpt lat="37.360000000" lon="-5.956330000"/>
      <trkpt lat="37.360800000" lon="-5.958460000"/>
      <trkpt lat="37.360860000" lon="-5.958490000"/>
      <trkpt lat="37.360990000" lon="-5.958760000"/>
      <trkpt lat="37.361160000" lon="-5.959050000"/>
      <trkpt lat="37.361420000" lon="-5.959430000"/>
      <trkpt lat="37.361420000" lon="-5.959470000"/>
      <trkpt lat="37.361410000" lon="-5.959530000"/>
      <trkpt lat="37.362370000" lon="-5.960660000"/>
      <trkpt lat="37.363010000" lon="-5.961460000"/>
      <trkpt lat="37.363220000" lon="-5.961740000"/>
      <trkpt lat="37.365140000" lon="-5.964010000"/>
      <trkpt lat="37.365330000" lon="-5.964270000"/>
      <trkpt lat="37.367150000" lon="-5.966460000"/>
      <trkpt lat="37.367400000" lon="-5.966740000"/>
      <trkpt lat="37.369280000" lon="-5.969030000"/>
      <trkpt lat="37.369300000" lon="-5.969000000"/>
      <trkpt lat="37.369320000" lon="-5.968980000"/>
      <trkpt lat="37.369350000" lon="-5.968970000"/>
      <trkpt lat="37.369400000" lon="-5.968940000"/>
      <trkpt lat="37.369430000" lon="-5.968930000"/>
      <trkpt lat="37.369470000" lon="-5.968930000"/>
      <trkpt lat="37.369490000" lon="-5.968940000"/>
      <trkpt lat="37.369520000" lon="-5.968940000"/>
      <trkpt lat="37.369590000" lon="-5.968980000"/>
      <trkpt lat="37.369610000" lon="-5.969000000"/>
      <trkpt lat="37.369630000" lon="-5.969030000"/>
      <trkpt lat="37.369650000" lon="-5.969050000"/>
      <trkpt lat="37.369660000" lon="-5.969080000"/>
      <trkpt lat="37.369680000" lon="-5.969110000"/>
      <trkpt lat="37.369700000" lon="-5.969170000"/>
      <trkpt lat="37.369700000" lon="-5.969270000"/>
      <trkpt lat="37.369690000" lon="-5.969320000"/>
      <trkpt lat="37.369690000" lon="-5.969350000"/>
      <trkpt lat="37.369660000" lon="-5.969410000"/>
      <trkpt lat="37.369650000" lon="-5.969440000"/>
      <trkpt lat="37.369630000" lon="-5.969460000"/>
      <trkpt lat="37.369630000" lon="-5.969470000"/>
      <trkpt lat="37.369610000" lon="-5.969490000"/>
      <trkpt lat="37.369560000" lon="-5.969520000"/>
      <trkpt lat="37.369540000" lon="-5.969540000"/>
      <trkpt lat="37.369510000" lon="-5.969550000"/>
      <trkpt lat="37.369500000" lon="-5.969620000"/>
      <trkpt lat="37.369490000" lon="-5.969650000"/>
      <trkpt lat="37.369450000" lon="-5.969710000"/>
      <trkpt lat="37.369110000" lon="-5.970020000"/>
      <trkpt lat="37.368620000" lon="-5.970390000"/>
      <trkpt lat="37.368490000" lon="-5.970510000"/>
      <trkpt lat="37.367760000" lon="-5.971130000"/>
      <trkpt lat="37.367270000" lon="-5.971470000"/>
      <trkpt lat="37.367210000" lon="-5.971530000"/>
      <trkpt lat="37.367090000" lon="-5.971410000"/>
      <trkpt lat="37.367090000" lon="-5.971440000"/>
      <trkpt lat="37.367080000" lon="-5.971470000"/>
      <trkpt lat="37.367080000" lon="-5.971490000"/>
      <trkpt lat="37.367060000" lon="-5.971550000"/>
      <trkpt lat="37.367050000" lon="-5.971570000"/>
      <trkpt lat="37.367040000" lon="-5.971580000"/>
      <trkpt lat="37.367040000" lon="-5.971590000"/>
      <trkpt lat="37.367010000" lon="-5.971620000"/>
      <trkpt lat="37.367000000" lon="-5.971640000"/>
      <trkpt lat="37.366980000" lon="-5.971710000"/>
      <trkpt lat="37.366960000" lon="-5.971750000"/>
      <trkpt lat="37.366940000" lon="-5.971780000"/>
      <trkpt lat="37.366760000" lon="-5.971980000"/>
      <trkpt lat="37.366650000" lon="-5.972200000"/>
      <trkpt lat="37.366580000" lon="-5.972420000"/>
      <trkpt lat="37.366550000" lon="-5.972580000"/>
      <trkpt lat="37.366500000" lon="-5.973070000"/>
      <trkpt lat="37.366210000" lon="-5.975250000"/>
      <trkpt lat="37.365770000" lon="-5.977460000"/>
      <trkpt lat="37.365770000" lon="-5.977480000"/>
      <trkpt lat="37.365610000" lon="-5.978220000"/>
      <trkpt lat="37.365610000" lon="-5.978260000"/>
      <trkpt lat="37.365570000" lon="-5.978430000"/>
      <trkpt lat="37.365520000" lon="-5.978700000"/>
      <trkpt lat="37.365360000" lon="-5.979390000"/>
      <trkpt lat="37.365210000" lon="-5.979840000"/>
      <trkpt lat="37.365190000" lon="-5.979870000"/>
      <trkpt lat="37.365140000" lon="-5.979920000"/>
      <trkpt lat="37.363950000" lon="-5.983120000"/>
      <trkpt lat="37.363540000" lon="-5.984100000"/>
      <trkpt lat="37.363510000" lon="-5.984220000"/>
      <trkpt lat="37.363490000" lon="-5.984340000"/>
      <trkpt lat="37.367710000" lon="-5.986860000"/>
      <trkpt lat="37.367720000" lon="-5.986860000"/>
      <trkpt lat="37.367750000" lon="-5.986890000"/>
      <trkpt lat="37.367800000" lon="-5.986910000"/>
      <trkpt lat="37.367800000" lon="-5.986920000"/>
      <trkpt lat="37.367810000" lon="-5.986920000"/>
      <trkpt lat="37.369310000" lon="-5.987820000"/>
      <trkpt lat="37.369460000" lon="-5.987930000"/>
      <trkpt lat="37.370060000" lon="-5.988300000"/>
      <trkpt lat="37.370070000" lon="-5.988310000"/>
      <trkpt lat="37.372710000" lon="-5.989880000"/>
      <trkpt lat="37.373170000" lon="-5.990180000"/>
      <trkpt lat="37.374080000" lon="-5.990730000"/>
      <trkpt lat="37.374180000" lon="-5.990710000"/>
      <trkpt lat="37.374210000" lon="-5.990710000"/>
      <trkpt lat="37.375140000" lon="-5.991240000"/>
      <trkpt lat="37.375250000" lon="-5.991330000"/>
      <trkpt lat="37.376580000" lon="-5.992150000"/>
      <trkpt lat="37.376620000" lon="-5.992220000"/>
      <trkpt lat="37.377220000" lon="-5.992600000"/>
      <trkpt lat="37.377600000" lon="-5.992820000"/>
      <trkpt lat="37.377710000" lon="-5.992870000"/>
      <trkpt lat="37.379600000" lon="-5.994080000"/>
      <trkpt lat="37.380010000" lon="-5.994310000"/>
      <trkpt lat="37.380150000" lon="-5.994380000"/>
      <trkpt lat="37.380520000" lon="-5.994590000"/>
      <trkpt lat="37.380990000" lon="-5.994910000"/>
      <trkpt lat="37.381290000" lon="-5.995130000"/>
      <trkpt lat="37.381350000" lon="-5.995190000"/>
      <trkpt lat="37.381540000" lon="-5.995310000"/>
      <trkpt lat="37.382270000" lon="-5.995850000"/>
      <trkpt lat="37.382310000" lon="-5.995870000"/>
      <trkpt lat="37.382440000" lon="-5.995960000"/>
      <trkpt lat="37.382450000" lon="-5.995980000"/>
      <trkpt lat="37.383000000" lon="-5.996390000"/>
      <trkpt lat="37.383320000" lon="-5.996790000"/>
      <trkpt lat="37.384140000" lon="-5.997720000"/>
      <trkpt lat="37.384740000" lon="-5.998360000"/>
      <trkpt lat="37.385040000" lon="-5.998660000"/>
      <trkpt lat="37.385490000" lon="-5.999200000"/>
      <trkpt lat="37.386650000" lon="-6.000510000"/>
      <trkpt lat="37.387020000" lon="-6.000950000"/>
      <trkpt lat="37.387380000" lon="-6.001440000"/>
      <trkpt lat="37.386950000" lon="-6.001850000"/>
      <trkpt lat="37.386890000" lon="-6.001920000"/>
      <trkpt lat="37.386820000" lon="-6.001990000"/>
      <trkpt lat="37.385230000" lon="-6.003360000"/>
      <trkpt lat="37.385110000" lon="-6.003450000"/>
      <trkpt lat="37.385000000" lon="-6.003140000"/>
      <trkpt lat="37.385270000" lon="-6.002880000"/>
      <trkpt lat="37.385430000" lon="-6.002750000"/>
      <trkpt lat="37.385430000" lon="-6.002690000"/>
      <trkpt lat="37.385400000" lon="-6.002570000"/>
      <trkpt lat="37.385380000" lon="-6.002540000"/>
      <trkpt lat="37.385350000" lon="-6.002480000"/>
      <trkpt lat="37.385340000" lon="-6.002470000"/>
    </trkseg>
  </trk>
</gpx>
